<?xml version="1.0" encoding="UTF-8" standalone="no" ?>
<gpx xmlns="http://www.topografix.com/GPX/1/1" xmlns:xsi="http://www.w3.org/2001/XMLSchema-instance" xsi:schemaLocation="http://www.topografix.com/GPX/1/1 http://www.topografix.com/GPX/1/1/gpx.xsd" version="1.1" creator="VisuGPX - https://www.visugpx.com">
  <metadata>
    <name>Cuiseaux  Baume les messieurs</name>
    <desc><![CDATA[Trace d'Amelie Panchout 30 mai 2021]]></desc>
  </metadata>
  <trk>
    <name><![CDATA[Cuiseaux  Baume les messieurs_1]]></name>
    <extensions>
      <line xmlns="http://www.topografix.com/GPX/gpx_style/0/2">
        <color>0000FF</color>
        <width>4</width>
      </line>
    </extensions>
    <trkseg>
      <trkpt lat="46.49604" lon="5.38819">
        <ele>290</ele>
        <time>2021-05-29T06:33:15.737Z</time>
      </trkpt>
      <trkpt lat="46.49604" lon="5.38819">
        <ele>290</ele>
        <time>2021-05-29T06:33:16.737Z</time>
      </trkpt>
      <trkpt lat="46.49604" lon="5.38819">
        <ele>290</ele>
        <time>2021-05-29T06:33:17.738Z</time>
      </trkpt>
      <trkpt lat="46.49604" lon="5.38819">
        <ele>290</ele>
        <time>2021-05-29T06:33:18.737Z</time>
      </trkpt>
      <trkpt lat="46.49604" lon="5.38819">
        <ele>290</ele>
        <time>2021-05-29T06:33:19.737Z</time>
      </trkpt>
      <trkpt lat="46.49605" lon="5.3882">
        <ele>290</ele>
        <time>2021-05-29T06:33:20.737Z</time>
      </trkpt>
      <trkpt lat="46.49606" lon="5.38821">
        <ele>290</ele>
        <time>2021-05-29T06:33:21.738Z</time>
      </trkpt>
      <trkpt lat="46.49607" lon="5.38822">
        <ele>290</ele>
        <time>2021-05-29T06:33:22.737Z</time>
      </trkpt>
      <trkpt lat="46.49609" lon="5.38823">
        <ele>290</ele>
        <time>2021-05-29T06:33:23.737Z</time>
      </trkpt>
      <trkpt lat="46.4961" lon="5.38824">
        <ele>290</ele>
        <time>2021-05-29T06:33:24.737Z</time>
      </trkpt>
      <trkpt lat="46.49612" lon="5.38825">
        <ele>289</ele>
        <time>2021-05-29T06:33:25.737Z</time>
      </trkpt>
      <trkpt lat="46.49615" lon="5.38827">
        <ele>289</ele>
        <time>2021-05-29T06:33:26.737Z</time>
      </trkpt>
      <trkpt lat="46.49617" lon="5.38828">
        <ele>289</ele>
        <time>2021-05-29T06:33:27.737Z</time>
      </trkpt>
      <trkpt lat="46.4962" lon="5.38831">
        <ele>288</ele>
        <time>2021-05-29T06:33:28.738Z</time>
      </trkpt>
      <trkpt lat="46.49623" lon="5.38832">
        <ele>288</ele>
        <time>2021-05-29T06:33:29.738Z</time>
      </trkpt>
      <trkpt lat="46.49625" lon="5.38833">
        <ele>287</ele>
        <time>2021-05-29T06:33:30.737Z</time>
      </trkpt>
      <trkpt lat="46.49627" lon="5.38833">
        <ele>287</ele>
        <time>2021-05-29T06:33:31.738Z</time>
      </trkpt>
      <trkpt lat="46.4963" lon="5.38833">
        <ele>286</ele>
        <time>2021-05-29T06:33:32.738Z</time>
      </trkpt>
      <trkpt lat="46.49632" lon="5.38834">
        <ele>285</ele>
        <time>2021-05-29T06:33:33.737Z</time>
      </trkpt>
      <trkpt lat="46.49634" lon="5.38835">
        <ele>285</ele>
        <time>2021-05-29T06:33:34.737Z</time>
      </trkpt>
      <trkpt lat="46.49636" lon="5.38836">
        <ele>285</ele>
        <time>2021-05-29T06:33:35.738Z</time>
      </trkpt>
      <trkpt lat="46.49638" lon="5.38837">
        <ele>285</ele>
        <time>2021-05-29T06:33:36.737Z</time>
      </trkpt>
      <trkpt lat="46.49639" lon="5.38838">
        <ele>285</ele>
        <time>2021-05-29T06:33:37.738Z</time>
      </trkpt>
      <trkpt lat="46.49641" lon="5.38838">
        <ele>285</ele>
        <time>2021-05-29T06:33:38.738Z</time>
      </trkpt>
      <trkpt lat="46.49643" lon="5.38839">
        <ele>285</ele>
        <time>2021-05-29T06:33:39.737Z</time>
      </trkpt>
      <trkpt lat="46.49645" lon="5.3884">
        <ele>285</ele>
        <time>2021-05-29T06:33:40.737Z</time>
      </trkpt>
      <trkpt lat="46.49647" lon="5.38842">
        <ele>285</ele>
        <time>2021-05-29T06:33:41.737Z</time>
      </trkpt>
      <trkpt lat="46.49649" lon="5.38843">
        <ele>285</ele>
        <time>2021-05-29T06:33:42.737Z</time>
      </trkpt>
      <trkpt lat="46.49651" lon="5.38845">
        <ele>285</ele>
        <time>2021-05-29T06:33:43.738Z</time>
      </trkpt>
      <trkpt lat="46.49653" lon="5.38846">
        <ele>286</ele>
        <time>2021-05-29T06:33:44.737Z</time>
      </trkpt>
      <trkpt lat="46.49655" lon="5.38848">
        <ele>286</ele>
        <time>2021-05-29T06:33:45.738Z</time>
      </trkpt>
      <trkpt lat="46.49658" lon="5.38851">
        <ele>286</ele>
        <time>2021-05-29T06:33:46.738Z</time>
      </trkpt>
      <trkpt lat="46.4966" lon="5.38852">
        <ele>286</ele>
        <time>2021-05-29T06:33:47.737Z</time>
      </trkpt>
      <trkpt lat="46.49663" lon="5.38853">
        <ele>287</ele>
        <time>2021-05-29T06:33:48.738Z</time>
      </trkpt>
      <trkpt lat="46.49664" lon="5.38853">
        <ele>287</ele>
        <time>2021-05-29T06:33:49.737Z</time>
      </trkpt>
      <trkpt lat="46.49666" lon="5.38854">
        <ele>287</ele>
        <time>2021-05-29T06:33:50.738Z</time>
      </trkpt>
      <trkpt lat="46.49668" lon="5.38855">
        <ele>287</ele>
        <time>2021-05-29T06:33:51.737Z</time>
      </trkpt>
      <trkpt lat="46.4967" lon="5.38856">
        <ele>287</ele>
        <time>2021-05-29T06:33:52.738Z</time>
      </trkpt>
      <trkpt lat="46.49671" lon="5.38857">
        <ele>287</ele>
        <time>2021-05-29T06:33:53.738Z</time>
      </trkpt>
      <trkpt lat="46.49673" lon="5.38858">
        <ele>286</ele>
        <time>2021-05-29T06:33:54.737Z</time>
      </trkpt>
      <trkpt lat="46.49675" lon="5.38859">
        <ele>286</ele>
        <time>2021-05-29T06:33:55.737Z</time>
      </trkpt>
      <trkpt lat="46.49677" lon="5.38861">
        <ele>285</ele>
        <time>2021-05-29T06:33:56.737Z</time>
      </trkpt>
      <trkpt lat="46.49679" lon="5.38862">
        <ele>285</ele>
        <time>2021-05-29T06:33:57.738Z</time>
      </trkpt>
      <trkpt lat="46.49682" lon="5.38864">
        <ele>284</ele>
        <time>2021-05-29T06:33:58.738Z</time>
      </trkpt>
      <trkpt lat="46.49684" lon="5.38865">
        <ele>284</ele>
        <time>2021-05-29T06:33:59.738Z</time>
      </trkpt>
      <trkpt lat="46.49686" lon="5.38867">
        <ele>283</ele>
        <time>2021-05-29T06:34:00.738Z</time>
      </trkpt>
      <trkpt lat="46.49688" lon="5.38868">
        <ele>283</ele>
        <time>2021-05-29T06:34:01.738Z</time>
      </trkpt>
      <trkpt lat="46.4969" lon="5.3887">
        <ele>282</ele>
        <time>2021-05-29T06:34:02.738Z</time>
      </trkpt>
      <trkpt lat="46.49692" lon="5.38871">
        <ele>282</ele>
        <time>2021-05-29T06:34:03.738Z</time>
      </trkpt>
      <trkpt lat="46.49694" lon="5.38872">
        <ele>282</ele>
        <time>2021-05-29T06:34:04.737Z</time>
      </trkpt>
      <trkpt lat="46.49696" lon="5.38873">
        <ele>282</ele>
        <time>2021-05-29T06:34:05.738Z</time>
      </trkpt>
      <trkpt lat="46.49699" lon="5.38875">
        <ele>282</ele>
        <time>2021-05-29T06:34:06.738Z</time>
      </trkpt>
      <trkpt lat="46.49701" lon="5.38876">
        <ele>282</ele>
        <time>2021-05-29T06:34:07.737Z</time>
      </trkpt>
      <trkpt lat="46.49703" lon="5.38877">
        <ele>282</ele>
        <time>2021-05-29T06:34:08.738Z</time>
      </trkpt>
      <trkpt lat="46.49705" lon="5.38878">
        <ele>282</ele>
        <time>2021-05-29T06:34:09.738Z</time>
      </trkpt>
      <trkpt lat="46.49707" lon="5.38879">
        <ele>282</ele>
        <time>2021-05-29T06:34:10.738Z</time>
      </trkpt>
      <trkpt lat="46.49709" lon="5.38881">
        <ele>281</ele>
        <time>2021-05-29T06:34:11.738Z</time>
      </trkpt>
      <trkpt lat="46.49711" lon="5.38882">
        <ele>281</ele>
        <time>2021-05-29T06:34:12.737Z</time>
      </trkpt>
      <trkpt lat="46.49713" lon="5.38883">
        <ele>281</ele>
        <time>2021-05-29T06:34:13.738Z</time>
      </trkpt>
      <trkpt lat="46.49715" lon="5.38884">
        <ele>280</ele>
        <time>2021-05-29T06:34:14.738Z</time>
      </trkpt>
      <trkpt lat="46.49718" lon="5.38885">
        <ele>280</ele>
        <time>2021-05-29T06:34:15.738Z</time>
      </trkpt>
      <trkpt lat="46.49719" lon="5.38887">
        <ele>279</ele>
        <time>2021-05-29T06:34:16.737Z</time>
      </trkpt>
      <trkpt lat="46.49721" lon="5.38888">
        <ele>279</ele>
        <time>2021-05-29T06:34:17.738Z</time>
      </trkpt>
      <trkpt lat="46.49723" lon="5.38889">
        <ele>278</ele>
        <time>2021-05-29T06:34:18.737Z</time>
      </trkpt>
      <trkpt lat="46.49725" lon="5.3889">
        <ele>278</ele>
        <time>2021-05-29T06:34:19.738Z</time>
      </trkpt>
      <trkpt lat="46.49727" lon="5.3889">
        <ele>278</ele>
        <time>2021-05-29T06:34:20.738Z</time>
      </trkpt>
      <trkpt lat="46.49729" lon="5.38891">
        <ele>279</ele>
        <time>2021-05-29T06:34:21.738Z</time>
      </trkpt>
      <trkpt lat="46.49731" lon="5.38891">
        <ele>279</ele>
        <time>2021-05-29T06:34:22.737Z</time>
      </trkpt>
      <trkpt lat="46.49733" lon="5.38892">
        <ele>279</ele>
        <time>2021-05-29T06:34:23.737Z</time>
      </trkpt>
      <trkpt lat="46.49735" lon="5.38893">
        <ele>279</ele>
        <time>2021-05-29T06:34:24.738Z</time>
      </trkpt>
      <trkpt lat="46.49738" lon="5.38893">
        <ele>279</ele>
        <time>2021-05-29T06:34:25.738Z</time>
      </trkpt>
      <trkpt lat="46.4974" lon="5.38894">
        <ele>280</ele>
        <time>2021-05-29T06:34:26.737Z</time>
      </trkpt>
      <trkpt lat="46.49742" lon="5.38895">
        <ele>280</ele>
        <time>2021-05-29T06:34:27.738Z</time>
      </trkpt>
      <trkpt lat="46.49745" lon="5.38896">
        <ele>280</ele>
        <time>2021-05-29T06:34:28.737Z</time>
      </trkpt>
      <trkpt lat="46.49747" lon="5.38897">
        <ele>281</ele>
        <time>2021-05-29T06:34:29.737Z</time>
      </trkpt>
      <trkpt lat="46.49749" lon="5.38898">
        <ele>281</ele>
        <time>2021-05-29T06:34:30.738Z</time>
      </trkpt>
      <trkpt lat="46.49751" lon="5.389">
        <ele>281</ele>
        <time>2021-05-29T06:34:31.737Z</time>
      </trkpt>
      <trkpt lat="46.49754" lon="5.38901">
        <ele>281</ele>
        <time>2021-05-29T06:34:32.738Z</time>
      </trkpt>
      <trkpt lat="46.49756" lon="5.38902">
        <ele>281</ele>
        <time>2021-05-29T06:34:33.738Z</time>
      </trkpt>
      <trkpt lat="46.49758" lon="5.38903">
        <ele>280</ele>
        <time>2021-05-29T06:34:34.738Z</time>
      </trkpt>
      <trkpt lat="46.49761" lon="5.38905">
        <ele>280</ele>
        <time>2021-05-29T06:34:35.738Z</time>
      </trkpt>
      <trkpt lat="46.49763" lon="5.38906">
        <ele>280</ele>
        <time>2021-05-29T06:34:36.737Z</time>
      </trkpt>
      <trkpt lat="46.49765" lon="5.38908">
        <ele>280</ele>
        <time>2021-05-29T06:34:37.738Z</time>
      </trkpt>
      <trkpt lat="46.49767" lon="5.38909">
        <ele>280</ele>
        <time>2021-05-29T06:34:38.738Z</time>
      </trkpt>
      <trkpt lat="46.49769" lon="5.38911">
        <ele>280</ele>
        <time>2021-05-29T06:34:39.737Z</time>
      </trkpt>
      <trkpt lat="46.49771" lon="5.38912">
        <ele>280</ele>
        <time>2021-05-29T06:34:40.738Z</time>
      </trkpt>
      <trkpt lat="46.49774" lon="5.38913">
        <ele>280</ele>
        <time>2021-05-29T06:34:41.737Z</time>
      </trkpt>
      <trkpt lat="46.49776" lon="5.38914">
        <ele>280</ele>
        <time>2021-05-29T06:34:42.738Z</time>
      </trkpt>
      <trkpt lat="46.49778" lon="5.38915">
        <ele>280</ele>
        <time>2021-05-29T06:34:43.738Z</time>
      </trkpt>
      <trkpt lat="46.49781" lon="5.38916">
        <ele>280</ele>
        <time>2021-05-29T06:34:44.738Z</time>
      </trkpt>
      <trkpt lat="46.49783" lon="5.38918">
        <ele>280</ele>
        <time>2021-05-29T06:34:45.738Z</time>
      </trkpt>
      <trkpt lat="46.49785" lon="5.38919">
        <ele>280</ele>
        <time>2021-05-29T06:34:46.738Z</time>
      </trkpt>
      <trkpt lat="46.49787" lon="5.3892">
        <ele>279</ele>
        <time>2021-05-29T06:34:47.738Z</time>
      </trkpt>
      <trkpt lat="46.49789" lon="5.38921">
        <ele>279</ele>
        <time>2021-05-29T06:34:48.738Z</time>
      </trkpt>
      <trkpt lat="46.49791" lon="5.38923">
        <ele>279</ele>
        <time>2021-05-29T06:34:49.738Z</time>
      </trkpt>
      <trkpt lat="46.49794" lon="5.38924">
        <ele>279</ele>
        <time>2021-05-29T06:34:50.738Z</time>
      </trkpt>
      <trkpt lat="46.49796" lon="5.38926">
        <ele>279</ele>
        <time>2021-05-29T06:34:51.738Z</time>
      </trkpt>
      <trkpt lat="46.49798" lon="5.38927">
        <ele>279</ele>
        <time>2021-05-29T06:34:52.738Z</time>
      </trkpt>
      <trkpt lat="46.49801" lon="5.38929">
        <ele>279</ele>
        <time>2021-05-29T06:34:53.738Z</time>
      </trkpt>
      <trkpt lat="46.49804" lon="5.3893">
        <ele>280</ele>
        <time>2021-05-29T06:34:54.738Z</time>
      </trkpt>
      <trkpt lat="46.49806" lon="5.38932">
        <ele>280</ele>
        <time>2021-05-29T06:34:55.738Z</time>
      </trkpt>
      <trkpt lat="46.49808" lon="5.38934">
        <ele>281</ele>
        <time>2021-05-29T06:34:56.737Z</time>
      </trkpt>
      <trkpt lat="46.49811" lon="5.38937">
        <ele>281</ele>
        <time>2021-05-29T06:34:57.738Z</time>
      </trkpt>
      <trkpt lat="46.49814" lon="5.38939">
        <ele>281</ele>
        <time>2021-05-29T06:34:58.738Z</time>
      </trkpt>
      <trkpt lat="46.49816" lon="5.38942">
        <ele>281</ele>
        <time>2021-05-29T06:34:59.738Z</time>
      </trkpt>
      <trkpt lat="46.49818" lon="5.38944">
        <ele>281</ele>
        <time>2021-05-29T06:35:00.737Z</time>
      </trkpt>
      <trkpt lat="46.49819" lon="5.38947">
        <ele>281</ele>
        <time>2021-05-29T06:35:01.737Z</time>
      </trkpt>
      <trkpt lat="46.49821" lon="5.38949">
        <ele>281</ele>
        <time>2021-05-29T06:35:02.738Z</time>
      </trkpt>
      <trkpt lat="46.49823" lon="5.38951">
        <ele>281</ele>
        <time>2021-05-29T06:35:03.737Z</time>
      </trkpt>
      <trkpt lat="46.49824" lon="5.38954">
        <ele>281</ele>
        <time>2021-05-29T06:35:04.737Z</time>
      </trkpt>
      <trkpt lat="46.49827" lon="5.38956">
        <ele>281</ele>
        <time>2021-05-29T06:35:05.738Z</time>
      </trkpt>
      <trkpt lat="46.49829" lon="5.38959">
        <ele>282</ele>
        <time>2021-05-29T06:35:06.738Z</time>
      </trkpt>
      <trkpt lat="46.49831" lon="5.38961">
        <ele>282</ele>
        <time>2021-05-29T06:35:07.738Z</time>
      </trkpt>
      <trkpt lat="46.49832" lon="5.38964">
        <ele>283</ele>
        <time>2021-05-29T06:35:08.737Z</time>
      </trkpt>
      <trkpt lat="46.49833" lon="5.38967">
        <ele>283</ele>
        <time>2021-05-29T06:35:09.737Z</time>
      </trkpt>
      <trkpt lat="46.49834" lon="5.38969">
        <ele>283</ele>
        <time>2021-05-29T06:35:10.738Z</time>
      </trkpt>
      <trkpt lat="46.49834" lon="5.38972">
        <ele>283</ele>
        <time>2021-05-29T06:35:11.738Z</time>
      </trkpt>
      <trkpt lat="46.49835" lon="5.38975">
        <ele>283</ele>
        <time>2021-05-29T06:35:12.738Z</time>
      </trkpt>
      <trkpt lat="46.49835" lon="5.38977">
        <ele>284</ele>
        <time>2021-05-29T06:35:13.737Z</time>
      </trkpt>
      <trkpt lat="46.49835" lon="5.38979">
        <ele>284</ele>
        <time>2021-05-29T06:35:14.738Z</time>
      </trkpt>
      <trkpt lat="46.49835" lon="5.38982">
        <ele>283</ele>
        <time>2021-05-29T06:35:15.738Z</time>
      </trkpt>
      <trkpt lat="46.49835" lon="5.38984">
        <ele>283</ele>
        <time>2021-05-29T06:35:16.737Z</time>
      </trkpt>
      <trkpt lat="46.49836" lon="5.38985">
        <ele>283</ele>
        <time>2021-05-29T06:35:17.738Z</time>
      </trkpt>
      <trkpt lat="46.49837" lon="5.38987">
        <ele>283</ele>
        <time>2021-05-29T06:35:18.737Z</time>
      </trkpt>
      <trkpt lat="46.49837" lon="5.38989">
        <ele>284</ele>
        <time>2021-05-29T06:35:19.738Z</time>
      </trkpt>
      <trkpt lat="46.49838" lon="5.3899">
        <ele>284</ele>
        <time>2021-05-29T06:35:20.737Z</time>
      </trkpt>
      <trkpt lat="46.49838" lon="5.38992">
        <ele>284</ele>
        <time>2021-05-29T06:35:21.738Z</time>
      </trkpt>
      <trkpt lat="46.49839" lon="5.38995">
        <ele>284</ele>
        <time>2021-05-29T06:35:22.738Z</time>
      </trkpt>
      <trkpt lat="46.4984" lon="5.38997">
        <ele>284</ele>
        <time>2021-05-29T06:35:23.738Z</time>
      </trkpt>
      <trkpt lat="46.49842" lon="5.39">
        <ele>284</ele>
        <time>2021-05-29T06:35:24.737Z</time>
      </trkpt>
      <trkpt lat="46.49843" lon="5.39002">
        <ele>284</ele>
        <time>2021-05-29T06:35:25.737Z</time>
      </trkpt>
      <trkpt lat="46.49845" lon="5.39005">
        <ele>284</ele>
        <time>2021-05-29T06:35:26.737Z</time>
      </trkpt>
      <trkpt lat="46.49846" lon="5.39007">
        <ele>284</ele>
        <time>2021-05-29T06:35:27.738Z</time>
      </trkpt>
      <trkpt lat="46.49848" lon="5.3901">
        <ele>284</ele>
        <time>2021-05-29T06:35:28.738Z</time>
      </trkpt>
      <trkpt lat="46.49849" lon="5.39012">
        <ele>284</ele>
        <time>2021-05-29T06:35:29.738Z</time>
      </trkpt>
      <trkpt lat="46.49851" lon="5.39014">
        <ele>284</ele>
        <time>2021-05-29T06:35:30.738Z</time>
      </trkpt>
      <trkpt lat="46.49853" lon="5.39016">
        <ele>283</ele>
        <time>2021-05-29T06:35:31.737Z</time>
      </trkpt>
      <trkpt lat="46.49854" lon="5.39018">
        <ele>283</ele>
        <time>2021-05-29T06:35:32.737Z</time>
      </trkpt>
      <trkpt lat="46.49856" lon="5.3902">
        <ele>282</ele>
        <time>2021-05-29T06:35:33.738Z</time>
      </trkpt>
      <trkpt lat="46.49858" lon="5.39022">
        <ele>282</ele>
        <time>2021-05-29T06:35:34.738Z</time>
      </trkpt>
      <trkpt lat="46.49861" lon="5.39024">
        <ele>283</ele>
        <time>2021-05-29T06:35:35.737Z</time>
      </trkpt>
      <trkpt lat="46.49863" lon="5.39026">
        <ele>283</ele>
        <time>2021-05-29T06:35:36.737Z</time>
      </trkpt>
      <trkpt lat="46.49865" lon="5.39028">
        <ele>283</ele>
        <time>2021-05-29T06:35:37.737Z</time>
      </trkpt>
      <trkpt lat="46.49866" lon="5.3903">
        <ele>283</ele>
        <time>2021-05-29T06:35:38.738Z</time>
      </trkpt>
      <trkpt lat="46.49869" lon="5.39032">
        <ele>282</ele>
        <time>2021-05-29T06:35:39.738Z</time>
      </trkpt>
      <trkpt lat="46.4987" lon="5.39034">
        <ele>281</ele>
        <time>2021-05-29T06:35:40.738Z</time>
      </trkpt>
      <trkpt lat="46.49872" lon="5.39035">
        <ele>280</ele>
        <time>2021-05-29T06:35:41.738Z</time>
      </trkpt>
      <trkpt lat="46.49874" lon="5.39037">
        <ele>280</ele>
        <time>2021-05-29T06:35:42.738Z</time>
      </trkpt>
      <trkpt lat="46.49876" lon="5.39039">
        <ele>279</ele>
        <time>2021-05-29T06:35:43.738Z</time>
      </trkpt>
      <trkpt lat="46.49878" lon="5.39041">
        <ele>279</ele>
        <time>2021-05-29T06:35:44.738Z</time>
      </trkpt>
      <trkpt lat="46.4988" lon="5.39043">
        <ele>279</ele>
        <time>2021-05-29T06:35:45.737Z</time>
      </trkpt>
      <trkpt lat="46.49882" lon="5.39044">
        <ele>279</ele>
        <time>2021-05-29T06:35:46.738Z</time>
      </trkpt>
      <trkpt lat="46.49884" lon="5.39046">
        <ele>279</ele>
        <time>2021-05-29T06:35:47.738Z</time>
      </trkpt>
      <trkpt lat="46.49886" lon="5.39048">
        <ele>280</ele>
        <time>2021-05-29T06:35:48.738Z</time>
      </trkpt>
      <trkpt lat="46.49887" lon="5.39049">
        <ele>280</ele>
        <time>2021-05-29T06:35:49.738Z</time>
      </trkpt>
      <trkpt lat="46.49889" lon="5.39051">
        <ele>280</ele>
        <time>2021-05-29T06:35:50.738Z</time>
      </trkpt>
      <trkpt lat="46.49891" lon="5.39053">
        <ele>280</ele>
        <time>2021-05-29T06:35:51.738Z</time>
      </trkpt>
      <trkpt lat="46.49894" lon="5.39055">
        <ele>280</ele>
        <time>2021-05-29T06:35:52.738Z</time>
      </trkpt>
      <trkpt lat="46.49895" lon="5.39056">
        <ele>280</ele>
        <time>2021-05-29T06:35:53.738Z</time>
      </trkpt>
      <trkpt lat="46.49897" lon="5.39058">
        <ele>280</ele>
        <time>2021-05-29T06:35:54.738Z</time>
      </trkpt>
      <trkpt lat="46.49898" lon="5.3906">
        <ele>279</ele>
        <time>2021-05-29T06:35:55.737Z</time>
      </trkpt>
      <trkpt lat="46.499" lon="5.39062">
        <ele>279</ele>
        <time>2021-05-29T06:35:56.737Z</time>
      </trkpt>
      <trkpt lat="46.49902" lon="5.39064">
        <ele>279</ele>
        <time>2021-05-29T06:35:57.737Z</time>
      </trkpt>
      <trkpt lat="46.49903" lon="5.39066">
        <ele>280</ele>
        <time>2021-05-29T06:35:58.738Z</time>
      </trkpt>
      <trkpt lat="46.49905" lon="5.39069">
        <ele>280</ele>
        <time>2021-05-29T06:35:59.738Z</time>
      </trkpt>
      <trkpt lat="46.49907" lon="5.39071">
        <ele>280</ele>
        <time>2021-05-29T06:36:00.737Z</time>
      </trkpt>
      <trkpt lat="46.49909" lon="5.39073">
        <ele>280</ele>
        <time>2021-05-29T06:36:01.737Z</time>
      </trkpt>
      <trkpt lat="46.49911" lon="5.39076">
        <ele>280</ele>
        <time>2021-05-29T06:36:02.737Z</time>
      </trkpt>
      <trkpt lat="46.49912" lon="5.39078">
        <ele>281</ele>
        <time>2021-05-29T06:36:03.738Z</time>
      </trkpt>
      <trkpt lat="46.49914" lon="5.39081">
        <ele>281</ele>
        <time>2021-05-29T06:36:04.737Z</time>
      </trkpt>
      <trkpt lat="46.49916" lon="5.39083">
        <ele>281</ele>
        <time>2021-05-29T06:36:05.737Z</time>
      </trkpt>
      <trkpt lat="46.49917" lon="5.39086">
        <ele>281</ele>
        <time>2021-05-29T06:36:06.737Z</time>
      </trkpt>
      <trkpt lat="46.49919" lon="5.39088">
        <ele>281</ele>
        <time>2021-05-29T06:36:07.738Z</time>
      </trkpt>
      <trkpt lat="46.49921" lon="5.39091">
        <ele>281</ele>
        <time>2021-05-29T06:36:08.738Z</time>
      </trkpt>
      <trkpt lat="46.49922" lon="5.39094">
        <ele>281</ele>
        <time>2021-05-29T06:36:09.737Z</time>
      </trkpt>
      <trkpt lat="46.49923" lon="5.39096">
        <ele>282</ele>
        <time>2021-05-29T06:36:10.738Z</time>
      </trkpt>
      <trkpt lat="46.49925" lon="5.39099">
        <ele>282</ele>
        <time>2021-05-29T06:36:11.737Z</time>
      </trkpt>
      <trkpt lat="46.49926" lon="5.39102">
        <ele>282</ele>
        <time>2021-05-29T06:36:12.738Z</time>
      </trkpt>
      <trkpt lat="46.49927" lon="5.39104">
        <ele>282</ele>
        <time>2021-05-29T06:36:13.738Z</time>
      </trkpt>
      <trkpt lat="46.49929" lon="5.39107">
        <ele>283</ele>
        <time>2021-05-29T06:36:14.737Z</time>
      </trkpt>
      <trkpt lat="46.4993" lon="5.39109">
        <ele>283</ele>
        <time>2021-05-29T06:36:15.737Z</time>
      </trkpt>
      <trkpt lat="46.49932" lon="5.39112">
        <ele>284</ele>
        <time>2021-05-29T06:36:16.738Z</time>
      </trkpt>
      <trkpt lat="46.49933" lon="5.39115">
        <ele>285</ele>
        <time>2021-05-29T06:36:17.738Z</time>
      </trkpt>
      <trkpt lat="46.49935" lon="5.39117">
        <ele>285</ele>
        <time>2021-05-29T06:36:18.738Z</time>
      </trkpt>
      <trkpt lat="46.49936" lon="5.3912">
        <ele>285</ele>
        <time>2021-05-29T06:36:19.737Z</time>
      </trkpt>
      <trkpt lat="46.49937" lon="5.39122">
        <ele>285</ele>
        <time>2021-05-29T06:36:20.737Z</time>
      </trkpt>
      <trkpt lat="46.49939" lon="5.39125">
        <ele>285</ele>
        <time>2021-05-29T06:36:21.737Z</time>
      </trkpt>
      <trkpt lat="46.4994" lon="5.39127">
        <ele>285</ele>
        <time>2021-05-29T06:36:22.738Z</time>
      </trkpt>
      <trkpt lat="46.49941" lon="5.3913">
        <ele>284</ele>
        <time>2021-05-29T06:36:23.737Z</time>
      </trkpt>
      <trkpt lat="46.49943" lon="5.39132">
        <ele>284</ele>
        <time>2021-05-29T06:36:24.738Z</time>
      </trkpt>
      <trkpt lat="46.49944" lon="5.39135">
        <ele>284</ele>
        <time>2021-05-29T06:36:25.737Z</time>
      </trkpt>
      <trkpt lat="46.49945" lon="5.39137">
        <ele>284</ele>
        <time>2021-05-29T06:36:26.737Z</time>
      </trkpt>
      <trkpt lat="46.49947" lon="5.39139">
        <ele>284</ele>
        <time>2021-05-29T06:36:27.738Z</time>
      </trkpt>
      <trkpt lat="46.49948" lon="5.39142">
        <ele>284</ele>
        <time>2021-05-29T06:36:28.737Z</time>
      </trkpt>
      <trkpt lat="46.49949" lon="5.39144">
        <ele>284</ele>
        <time>2021-05-29T06:36:29.737Z</time>
      </trkpt>
      <trkpt lat="46.49951" lon="5.39146">
        <ele>284</ele>
        <time>2021-05-29T06:36:30.737Z</time>
      </trkpt>
      <trkpt lat="46.49952" lon="5.39148">
        <ele>284</ele>
        <time>2021-05-29T06:36:31.737Z</time>
      </trkpt>
      <trkpt lat="46.49953" lon="5.3915">
        <ele>284</ele>
        <time>2021-05-29T06:36:32.738Z</time>
      </trkpt>
      <trkpt lat="46.49954" lon="5.39152">
        <ele>284</ele>
        <time>2021-05-29T06:36:33.738Z</time>
      </trkpt>
      <trkpt lat="46.49956" lon="5.39155">
        <ele>283</ele>
        <time>2021-05-29T06:36:34.738Z</time>
      </trkpt>
      <trkpt lat="46.49957" lon="5.39157">
        <ele>283</ele>
        <time>2021-05-29T06:36:35.738Z</time>
      </trkpt>
      <trkpt lat="46.49958" lon="5.39159">
        <ele>283</ele>
        <time>2021-05-29T06:36:36.737Z</time>
      </trkpt>
      <trkpt lat="46.4996" lon="5.39161">
        <ele>283</ele>
        <time>2021-05-29T06:36:37.737Z</time>
      </trkpt>
      <trkpt lat="46.49961" lon="5.39163">
        <ele>284</ele>
        <time>2021-05-29T06:36:38.738Z</time>
      </trkpt>
      <trkpt lat="46.49963" lon="5.39165">
        <ele>284</ele>
        <time>2021-05-29T06:36:39.738Z</time>
      </trkpt>
      <trkpt lat="46.49964" lon="5.39167">
        <ele>284</ele>
        <time>2021-05-29T06:36:40.738Z</time>
      </trkpt>
      <trkpt lat="46.49965" lon="5.39169">
        <ele>284</ele>
        <time>2021-05-29T06:36:41.738Z</time>
      </trkpt>
      <trkpt lat="46.49967" lon="5.39171">
        <ele>285</ele>
        <time>2021-05-29T06:36:42.738Z</time>
      </trkpt>
      <trkpt lat="46.49968" lon="5.39173">
        <ele>285</ele>
        <time>2021-05-29T06:36:43.738Z</time>
      </trkpt>
      <trkpt lat="46.4997" lon="5.39175">
        <ele>285</ele>
        <time>2021-05-29T06:36:44.738Z</time>
      </trkpt>
      <trkpt lat="46.49972" lon="5.39176">
        <ele>286</ele>
        <time>2021-05-29T06:36:45.738Z</time>
      </trkpt>
      <trkpt lat="46.49973" lon="5.39178">
        <ele>286</ele>
        <time>2021-05-29T06:36:46.738Z</time>
      </trkpt>
      <trkpt lat="46.49975" lon="5.3918">
        <ele>287</ele>
        <time>2021-05-29T06:36:47.738Z</time>
      </trkpt>
      <trkpt lat="46.49977" lon="5.39182">
        <ele>287</ele>
        <time>2021-05-29T06:36:48.738Z</time>
      </trkpt>
      <trkpt lat="46.49979" lon="5.39183">
        <ele>286</ele>
        <time>2021-05-29T06:36:49.738Z</time>
      </trkpt>
      <trkpt lat="46.4998" lon="5.39185">
        <ele>286</ele>
        <time>2021-05-29T06:36:50.738Z</time>
      </trkpt>
      <trkpt lat="46.49982" lon="5.39187">
        <ele>286</ele>
        <time>2021-05-29T06:36:51.738Z</time>
      </trkpt>
      <trkpt lat="46.49983" lon="5.3919">
        <ele>286</ele>
        <time>2021-05-29T06:36:52.738Z</time>
      </trkpt>
      <trkpt lat="46.49985" lon="5.39192">
        <ele>285</ele>
        <time>2021-05-29T06:36:53.738Z</time>
      </trkpt>
      <trkpt lat="46.49986" lon="5.39193">
        <ele>285</ele>
        <time>2021-05-29T06:36:54.738Z</time>
      </trkpt>
      <trkpt lat="46.49988" lon="5.39195">
        <ele>285</ele>
        <time>2021-05-29T06:36:55.738Z</time>
      </trkpt>
      <trkpt lat="46.49991" lon="5.39197">
        <ele>284</ele>
        <time>2021-05-29T06:36:56.738Z</time>
      </trkpt>
      <trkpt lat="46.49993" lon="5.39198">
        <ele>285</ele>
        <time>2021-05-29T06:36:57.738Z</time>
      </trkpt>
      <trkpt lat="46.49995" lon="5.392">
        <ele>285</ele>
        <time>2021-05-29T06:36:58.738Z</time>
      </trkpt>
      <trkpt lat="46.49996" lon="5.39201">
        <ele>285</ele>
        <time>2021-05-29T06:36:59.738Z</time>
      </trkpt>
      <trkpt lat="46.49998" lon="5.39203">
        <ele>285</ele>
        <time>2021-05-29T06:37:00.738Z</time>
      </trkpt>
      <trkpt lat="46.49999" lon="5.39205">
        <ele>284</ele>
        <time>2021-05-29T06:37:01.738Z</time>
      </trkpt>
      <trkpt lat="46.50001" lon="5.39207">
        <ele>284</ele>
        <time>2021-05-29T06:37:02.738Z</time>
      </trkpt>
      <trkpt lat="46.50002" lon="5.39209">
        <ele>284</ele>
        <time>2021-05-29T06:37:03.738Z</time>
      </trkpt>
      <trkpt lat="46.50004" lon="5.39211">
        <ele>284</ele>
        <time>2021-05-29T06:37:04.737Z</time>
      </trkpt>
      <trkpt lat="46.50007" lon="5.39212">
        <ele>284</ele>
        <time>2021-05-29T06:37:05.738Z</time>
      </trkpt>
      <trkpt lat="46.50009" lon="5.39214">
        <ele>284</ele>
        <time>2021-05-29T06:37:06.738Z</time>
      </trkpt>
      <trkpt lat="46.5001" lon="5.39216">
        <ele>285</ele>
        <time>2021-05-29T06:37:07.738Z</time>
      </trkpt>
      <trkpt lat="46.50011" lon="5.39218">
        <ele>285</ele>
        <time>2021-05-29T06:37:08.738Z</time>
      </trkpt>
      <trkpt lat="46.50013" lon="5.3922">
        <ele>285</ele>
        <time>2021-05-29T06:37:09.738Z</time>
      </trkpt>
      <trkpt lat="46.50015" lon="5.39222">
        <ele>285</ele>
        <time>2021-05-29T06:37:10.738Z</time>
      </trkpt>
      <trkpt lat="46.50016" lon="5.39223">
        <ele>285</ele>
        <time>2021-05-29T06:37:11.738Z</time>
      </trkpt>
      <trkpt lat="46.50018" lon="5.39225">
        <ele>286</ele>
        <time>2021-05-29T06:37:12.738Z</time>
      </trkpt>
      <trkpt lat="46.50021" lon="5.39227">
        <ele>286</ele>
        <time>2021-05-29T06:37:13.738Z</time>
      </trkpt>
      <trkpt lat="46.50023" lon="5.39229">
        <ele>286</ele>
        <time>2021-05-29T06:37:14.738Z</time>
      </trkpt>
      <trkpt lat="46.50025" lon="5.3923">
        <ele>286</ele>
        <time>2021-05-29T06:37:15.738Z</time>
      </trkpt>
      <trkpt lat="46.50027" lon="5.39232">
        <ele>286</ele>
        <time>2021-05-29T06:37:16.738Z</time>
      </trkpt>
      <trkpt lat="46.50028" lon="5.39234">
        <ele>286</ele>
        <time>2021-05-29T06:37:17.738Z</time>
      </trkpt>
      <trkpt lat="46.5003" lon="5.39236">
        <ele>286</ele>
        <time>2021-05-29T06:37:18.738Z</time>
      </trkpt>
      <trkpt lat="46.50032" lon="5.39237">
        <ele>287</ele>
        <time>2021-05-29T06:37:19.738Z</time>
      </trkpt>
      <trkpt lat="46.50033" lon="5.39239">
        <ele>287</ele>
        <time>2021-05-29T06:37:20.738Z</time>
      </trkpt>
      <trkpt lat="46.50035" lon="5.39241">
        <ele>286</ele>
        <time>2021-05-29T06:37:21.738Z</time>
      </trkpt>
      <trkpt lat="46.50036" lon="5.39243">
        <ele>286</ele>
        <time>2021-05-29T06:37:22.738Z</time>
      </trkpt>
      <trkpt lat="46.50038" lon="5.39245">
        <ele>286</ele>
        <time>2021-05-29T06:37:23.737Z</time>
      </trkpt>
      <trkpt lat="46.50039" lon="5.39246">
        <ele>286</ele>
        <time>2021-05-29T06:37:24.738Z</time>
      </trkpt>
      <trkpt lat="46.50041" lon="5.39248">
        <ele>287</ele>
        <time>2021-05-29T06:37:25.738Z</time>
      </trkpt>
      <trkpt lat="46.50042" lon="5.3925">
        <ele>287</ele>
        <time>2021-05-29T06:37:26.738Z</time>
      </trkpt>
      <trkpt lat="46.50044" lon="5.39252">
        <ele>286</ele>
        <time>2021-05-29T06:37:27.738Z</time>
      </trkpt>
      <trkpt lat="46.50046" lon="5.39254">
        <ele>287</ele>
        <time>2021-05-29T06:37:28.738Z</time>
      </trkpt>
      <trkpt lat="46.50047" lon="5.39256">
        <ele>287</ele>
        <time>2021-05-29T06:37:29.738Z</time>
      </trkpt>
      <trkpt lat="46.50049" lon="5.39258">
        <ele>287</ele>
        <time>2021-05-29T06:37:30.738Z</time>
      </trkpt>
      <trkpt lat="46.5005" lon="5.39259">
        <ele>287</ele>
        <time>2021-05-29T06:37:31.738Z</time>
      </trkpt>
      <trkpt lat="46.50052" lon="5.39261">
        <ele>287</ele>
        <time>2021-05-29T06:37:32.738Z</time>
      </trkpt>
      <trkpt lat="46.50053" lon="5.39263">
        <ele>287</ele>
        <time>2021-05-29T06:37:33.737Z</time>
      </trkpt>
      <trkpt lat="46.50055" lon="5.39265">
        <ele>288</ele>
        <time>2021-05-29T06:37:34.738Z</time>
      </trkpt>
      <trkpt lat="46.50056" lon="5.39267">
        <ele>288</ele>
        <time>2021-05-29T06:37:35.738Z</time>
      </trkpt>
      <trkpt lat="46.50058" lon="5.39269">
        <ele>288</ele>
        <time>2021-05-29T06:37:36.738Z</time>
      </trkpt>
      <trkpt lat="46.50059" lon="5.3927">
        <ele>288</ele>
        <time>2021-05-29T06:37:37.738Z</time>
      </trkpt>
      <trkpt lat="46.5006" lon="5.39272">
        <ele>288</ele>
        <time>2021-05-29T06:37:38.738Z</time>
      </trkpt>
      <trkpt lat="46.50062" lon="5.39274">
        <ele>288</ele>
        <time>2021-05-29T06:37:39.738Z</time>
      </trkpt>
      <trkpt lat="46.50063" lon="5.39276">
        <ele>288</ele>
        <time>2021-05-29T06:37:40.738Z</time>
      </trkpt>
      <trkpt lat="46.50065" lon="5.39278">
        <ele>288</ele>
        <time>2021-05-29T06:37:41.738Z</time>
      </trkpt>
      <trkpt lat="46.50066" lon="5.3928">
        <ele>288</ele>
        <time>2021-05-29T06:37:42.738Z</time>
      </trkpt>
      <trkpt lat="46.50068" lon="5.39282">
        <ele>289</ele>
        <time>2021-05-29T06:37:43.737Z</time>
      </trkpt>
      <trkpt lat="46.50069" lon="5.39284">
        <ele>289</ele>
        <time>2021-05-29T06:37:44.738Z</time>
      </trkpt>
      <trkpt lat="46.50071" lon="5.39285">
        <ele>290</ele>
        <time>2021-05-29T06:37:45.738Z</time>
      </trkpt>
      <trkpt lat="46.50072" lon="5.39287">
        <ele>290</ele>
        <time>2021-05-29T06:37:46.738Z</time>
      </trkpt>
      <trkpt lat="46.50074" lon="5.39289">
        <ele>290</ele>
        <time>2021-05-29T06:37:47.737Z</time>
      </trkpt>
      <trkpt lat="46.50075" lon="5.39291">
        <ele>290</ele>
        <time>2021-05-29T06:37:48.738Z</time>
      </trkpt>
      <trkpt lat="46.50076" lon="5.39292">
        <ele>290</ele>
        <time>2021-05-29T06:37:49.738Z</time>
      </trkpt>
      <trkpt lat="46.50078" lon="5.39294">
        <ele>290</ele>
        <time>2021-05-29T06:37:50.738Z</time>
      </trkpt>
      <trkpt lat="46.50079" lon="5.39296">
        <ele>290</ele>
        <time>2021-05-29T06:37:51.738Z</time>
      </trkpt>
      <trkpt lat="46.50081" lon="5.39298">
        <ele>290</ele>
        <time>2021-05-29T06:37:52.738Z</time>
      </trkpt>
      <trkpt lat="46.50083" lon="5.393">
        <ele>291</ele>
        <time>2021-05-29T06:37:53.738Z</time>
      </trkpt>
      <trkpt lat="46.50084" lon="5.39301">
        <ele>291</ele>
        <time>2021-05-29T06:37:54.738Z</time>
      </trkpt>
      <trkpt lat="46.50086" lon="5.39303">
        <ele>291</ele>
        <time>2021-05-29T06:37:55.738Z</time>
      </trkpt>
      <trkpt lat="46.50088" lon="5.39305">
        <ele>291</ele>
        <time>2021-05-29T06:37:56.738Z</time>
      </trkpt>
      <trkpt lat="46.50089" lon="5.39307">
        <ele>291</ele>
        <time>2021-05-29T06:37:57.738Z</time>
      </trkpt>
      <trkpt lat="46.50091" lon="5.39309">
        <ele>291</ele>
        <time>2021-05-29T06:37:58.738Z</time>
      </trkpt>
      <trkpt lat="46.50092" lon="5.39311">
        <ele>291</ele>
        <time>2021-05-29T06:37:59.738Z</time>
      </trkpt>
      <trkpt lat="46.50093" lon="5.39313">
        <ele>291</ele>
        <time>2021-05-29T06:38:00.738Z</time>
      </trkpt>
      <trkpt lat="46.50095" lon="5.39315">
        <ele>291</ele>
        <time>2021-05-29T06:38:01.738Z</time>
      </trkpt>
      <trkpt lat="46.50097" lon="5.39317">
        <ele>291</ele>
        <time>2021-05-29T06:38:02.738Z</time>
      </trkpt>
      <trkpt lat="46.50098" lon="5.39319">
        <ele>291</ele>
        <time>2021-05-29T06:38:03.738Z</time>
      </trkpt>
      <trkpt lat="46.501" lon="5.39321">
        <ele>291</ele>
        <time>2021-05-29T06:38:04.738Z</time>
      </trkpt>
      <trkpt lat="46.50101" lon="5.39322">
        <ele>291</ele>
        <time>2021-05-29T06:38:05.738Z</time>
      </trkpt>
      <trkpt lat="46.50103" lon="5.39324">
        <ele>291</ele>
        <time>2021-05-29T06:38:06.738Z</time>
      </trkpt>
      <trkpt lat="46.50105" lon="5.39326">
        <ele>291</ele>
        <time>2021-05-29T06:38:07.738Z</time>
      </trkpt>
      <trkpt lat="46.50106" lon="5.39328">
        <ele>292</ele>
        <time>2021-05-29T06:38:08.738Z</time>
      </trkpt>
      <trkpt lat="46.50108" lon="5.3933">
        <ele>292</ele>
        <time>2021-05-29T06:38:09.738Z</time>
      </trkpt>
      <trkpt lat="46.5011" lon="5.39331">
        <ele>292</ele>
        <time>2021-05-29T06:38:10.738Z</time>
      </trkpt>
      <trkpt lat="46.50111" lon="5.39333">
        <ele>292</ele>
        <time>2021-05-29T06:38:11.738Z</time>
      </trkpt>
      <trkpt lat="46.50113" lon="5.39334">
        <ele>293</ele>
        <time>2021-05-29T06:38:12.738Z</time>
      </trkpt>
      <trkpt lat="46.50114" lon="5.39336">
        <ele>293</ele>
        <time>2021-05-29T06:38:13.738Z</time>
      </trkpt>
      <trkpt lat="46.50116" lon="5.39338">
        <ele>293</ele>
        <time>2021-05-29T06:38:14.738Z</time>
      </trkpt>
      <trkpt lat="46.50117" lon="5.39339">
        <ele>293</ele>
        <time>2021-05-29T06:38:15.738Z</time>
      </trkpt>
      <trkpt lat="46.50119" lon="5.39341">
        <ele>293</ele>
        <time>2021-05-29T06:38:16.738Z</time>
      </trkpt>
      <trkpt lat="46.50121" lon="5.39342">
        <ele>294</ele>
        <time>2021-05-29T06:38:17.738Z</time>
      </trkpt>
      <trkpt lat="46.50122" lon="5.39344">
        <ele>294</ele>
        <time>2021-05-29T06:38:18.738Z</time>
      </trkpt>
      <trkpt lat="46.50124" lon="5.39345">
        <ele>294</ele>
        <time>2021-05-29T06:38:19.738Z</time>
      </trkpt>
      <trkpt lat="46.50126" lon="5.39346">
        <ele>295</ele>
        <time>2021-05-29T06:38:20.738Z</time>
      </trkpt>
      <trkpt lat="46.50127" lon="5.39348">
        <ele>295</ele>
        <time>2021-05-29T06:38:21.738Z</time>
      </trkpt>
      <trkpt lat="46.50129" lon="5.39349">
        <ele>295</ele>
        <time>2021-05-29T06:38:22.737Z</time>
      </trkpt>
      <trkpt lat="46.50131" lon="5.3935">
        <ele>295</ele>
        <time>2021-05-29T06:38:23.737Z</time>
      </trkpt>
      <trkpt lat="46.50133" lon="5.39351">
        <ele>294</ele>
        <time>2021-05-29T06:38:24.738Z</time>
      </trkpt>
      <trkpt lat="46.50136" lon="5.39352">
        <ele>294</ele>
        <time>2021-05-29T06:38:25.738Z</time>
      </trkpt>
      <trkpt lat="46.50138" lon="5.39352">
        <ele>294</ele>
        <time>2021-05-29T06:38:26.738Z</time>
      </trkpt>
      <trkpt lat="46.5014" lon="5.39353">
        <ele>294</ele>
        <time>2021-05-29T06:38:27.737Z</time>
      </trkpt>
      <trkpt lat="46.50142" lon="5.39354">
        <ele>294</ele>
        <time>2021-05-29T06:38:28.738Z</time>
      </trkpt>
      <trkpt lat="46.50144" lon="5.39355">
        <ele>294</ele>
        <time>2021-05-29T06:38:29.738Z</time>
      </trkpt>
      <trkpt lat="46.50146" lon="5.39356">
        <ele>294</ele>
        <time>2021-05-29T06:38:30.738Z</time>
      </trkpt>
      <trkpt lat="46.50148" lon="5.39356">
        <ele>293</ele>
        <time>2021-05-29T06:38:31.738Z</time>
      </trkpt>
      <trkpt lat="46.5015" lon="5.39357">
        <ele>293</ele>
        <time>2021-05-29T06:38:32.737Z</time>
      </trkpt>
      <trkpt lat="46.50152" lon="5.39358">
        <ele>293</ele>
        <time>2021-05-29T06:38:33.737Z</time>
      </trkpt>
      <trkpt lat="46.50154" lon="5.39359">
        <ele>293</ele>
        <time>2021-05-29T06:38:34.738Z</time>
      </trkpt>
      <trkpt lat="46.50157" lon="5.39359">
        <ele>294</ele>
        <time>2021-05-29T06:38:35.738Z</time>
      </trkpt>
      <trkpt lat="46.50159" lon="5.39359">
        <ele>294</ele>
        <time>2021-05-29T06:38:36.738Z</time>
      </trkpt>
      <trkpt lat="46.50161" lon="5.3936">
        <ele>294</ele>
        <time>2021-05-29T06:38:37.738Z</time>
      </trkpt>
      <trkpt lat="46.50164" lon="5.3936">
        <ele>294</ele>
        <time>2021-05-29T06:38:38.738Z</time>
      </trkpt>
      <trkpt lat="46.50166" lon="5.3936">
        <ele>294</ele>
        <time>2021-05-29T06:38:39.738Z</time>
      </trkpt>
      <trkpt lat="46.50168" lon="5.39361">
        <ele>294</ele>
        <time>2021-05-29T06:38:40.738Z</time>
      </trkpt>
      <trkpt lat="46.5017" lon="5.39362">
        <ele>295</ele>
        <time>2021-05-29T06:38:41.738Z</time>
      </trkpt>
      <trkpt lat="46.50172" lon="5.39362">
        <ele>295</ele>
        <time>2021-05-29T06:38:42.738Z</time>
      </trkpt>
      <trkpt lat="46.50175" lon="5.39363">
        <ele>295</ele>
        <time>2021-05-29T06:38:43.738Z</time>
      </trkpt>
      <trkpt lat="46.50177" lon="5.39363">
        <ele>295</ele>
        <time>2021-05-29T06:38:44.738Z</time>
      </trkpt>
      <trkpt lat="46.50179" lon="5.39363">
        <ele>295</ele>
        <time>2021-05-29T06:38:45.738Z</time>
      </trkpt>
      <trkpt lat="46.50182" lon="5.39363">
        <ele>295</ele>
        <time>2021-05-29T06:38:46.738Z</time>
      </trkpt>
      <trkpt lat="46.50184" lon="5.39363">
        <ele>294</ele>
        <time>2021-05-29T06:38:47.738Z</time>
      </trkpt>
      <trkpt lat="46.50186" lon="5.39363">
        <ele>294</ele>
        <time>2021-05-29T06:38:48.738Z</time>
      </trkpt>
      <trkpt lat="46.50188" lon="5.39363">
        <ele>294</ele>
        <time>2021-05-29T06:38:49.738Z</time>
      </trkpt>
      <trkpt lat="46.5019" lon="5.39363">
        <ele>294</ele>
        <time>2021-05-29T06:38:50.738Z</time>
      </trkpt>
      <trkpt lat="46.50192" lon="5.39363">
        <ele>294</ele>
        <time>2021-05-29T06:38:51.738Z</time>
      </trkpt>
      <trkpt lat="46.50194" lon="5.39363">
        <ele>294</ele>
        <time>2021-05-29T06:38:52.738Z</time>
      </trkpt>
      <trkpt lat="46.50196" lon="5.39363">
        <ele>294</ele>
        <time>2021-05-29T06:38:53.738Z</time>
      </trkpt>
      <trkpt lat="46.50198" lon="5.39363">
        <ele>294</ele>
        <time>2021-05-29T06:38:54.738Z</time>
      </trkpt>
      <trkpt lat="46.502" lon="5.39363">
        <ele>293</ele>
        <time>2021-05-29T06:38:55.737Z</time>
      </trkpt>
      <trkpt lat="46.50202" lon="5.39364">
        <ele>293</ele>
        <time>2021-05-29T06:38:56.737Z</time>
      </trkpt>
      <trkpt lat="46.50204" lon="5.39365">
        <ele>293</ele>
        <time>2021-05-29T06:38:57.738Z</time>
      </trkpt>
      <trkpt lat="46.50206" lon="5.39366">
        <ele>292</ele>
        <time>2021-05-29T06:38:58.738Z</time>
      </trkpt>
      <trkpt lat="46.50207" lon="5.39368">
        <ele>292</ele>
        <time>2021-05-29T06:38:59.738Z</time>
      </trkpt>
      <trkpt lat="46.50209" lon="5.3937">
        <ele>293</ele>
        <time>2021-05-29T06:39:00.738Z</time>
      </trkpt>
      <trkpt lat="46.5021" lon="5.39372">
        <ele>293</ele>
        <time>2021-05-29T06:39:01.738Z</time>
      </trkpt>
      <trkpt lat="46.50211" lon="5.39376">
        <ele>293</ele>
        <time>2021-05-29T06:39:02.738Z</time>
      </trkpt>
      <trkpt lat="46.50212" lon="5.39379">
        <ele>293</ele>
        <time>2021-05-29T06:39:03.738Z</time>
      </trkpt>
      <trkpt lat="46.50213" lon="5.39382">
        <ele>293</ele>
        <time>2021-05-29T06:39:04.738Z</time>
      </trkpt>
      <trkpt lat="46.50213" lon="5.39385">
        <ele>293</ele>
        <time>2021-05-29T06:39:05.738Z</time>
      </trkpt>
      <trkpt lat="46.50214" lon="5.39388">
        <ele>293</ele>
        <time>2021-05-29T06:39:06.738Z</time>
      </trkpt>
      <trkpt lat="46.50215" lon="5.3939">
        <ele>293</ele>
        <time>2021-05-29T06:39:07.738Z</time>
      </trkpt>
      <trkpt lat="46.50216" lon="5.39393">
        <ele>293</ele>
        <time>2021-05-29T06:39:08.738Z</time>
      </trkpt>
      <trkpt lat="46.50217" lon="5.39395">
        <ele>293</ele>
        <time>2021-05-29T06:39:09.738Z</time>
      </trkpt>
      <trkpt lat="46.50218" lon="5.39397">
        <ele>293</ele>
        <time>2021-05-29T06:39:10.737Z</time>
      </trkpt>
      <trkpt lat="46.50219" lon="5.394">
        <ele>293</ele>
        <time>2021-05-29T06:39:11.738Z</time>
      </trkpt>
      <trkpt lat="46.50221" lon="5.39402">
        <ele>293</ele>
        <time>2021-05-29T06:39:12.738Z</time>
      </trkpt>
      <trkpt lat="46.50222" lon="5.39404">
        <ele>293</ele>
        <time>2021-05-29T06:39:13.738Z</time>
      </trkpt>
      <trkpt lat="46.50224" lon="5.39406">
        <ele>294</ele>
        <time>2021-05-29T06:39:14.738Z</time>
      </trkpt>
      <trkpt lat="46.50225" lon="5.39407">
        <ele>294</ele>
        <time>2021-05-29T06:39:15.738Z</time>
      </trkpt>
      <trkpt lat="46.50227" lon="5.39409">
        <ele>295</ele>
        <time>2021-05-29T06:39:16.737Z</time>
      </trkpt>
      <trkpt lat="46.50228" lon="5.3941">
        <ele>295</ele>
        <time>2021-05-29T06:39:17.737Z</time>
      </trkpt>
      <trkpt lat="46.5023" lon="5.39411">
        <ele>296</ele>
        <time>2021-05-29T06:39:18.738Z</time>
      </trkpt>
      <trkpt lat="46.50233" lon="5.39413">
        <ele>296</ele>
        <time>2021-05-29T06:39:19.738Z</time>
      </trkpt>
      <trkpt lat="46.50235" lon="5.39414">
        <ele>296</ele>
        <time>2021-05-29T06:39:20.738Z</time>
      </trkpt>
      <trkpt lat="46.50237" lon="5.39415">
        <ele>297</ele>
        <time>2021-05-29T06:39:21.738Z</time>
      </trkpt>
      <trkpt lat="46.50239" lon="5.39416">
        <ele>297</ele>
        <time>2021-05-29T06:39:22.738Z</time>
      </trkpt>
      <trkpt lat="46.50241" lon="5.39417">
        <ele>298</ele>
        <time>2021-05-29T06:39:23.737Z</time>
      </trkpt>
      <trkpt lat="46.50244" lon="5.39418">
        <ele>298</ele>
        <time>2021-05-29T06:39:24.738Z</time>
      </trkpt>
      <trkpt lat="46.50246" lon="5.39419">
        <ele>298</ele>
        <time>2021-05-29T06:39:25.738Z</time>
      </trkpt>
      <trkpt lat="46.50248" lon="5.3942">
        <ele>299</ele>
        <time>2021-05-29T06:39:26.737Z</time>
      </trkpt>
      <trkpt lat="46.50251" lon="5.39421">
        <ele>299</ele>
        <time>2021-05-29T06:39:27.738Z</time>
      </trkpt>
      <trkpt lat="46.50253" lon="5.39422">
        <ele>300</ele>
        <time>2021-05-29T06:39:28.738Z</time>
      </trkpt>
      <trkpt lat="46.50254" lon="5.39423">
        <ele>300</ele>
        <time>2021-05-29T06:39:29.738Z</time>
      </trkpt>
      <trkpt lat="46.50257" lon="5.39424">
        <ele>301</ele>
        <time>2021-05-29T06:39:30.738Z</time>
      </trkpt>
      <trkpt lat="46.50259" lon="5.39426">
        <ele>301</ele>
        <time>2021-05-29T06:39:31.738Z</time>
      </trkpt>
      <trkpt lat="46.50261" lon="5.39427">
        <ele>301</ele>
        <time>2021-05-29T06:39:32.738Z</time>
      </trkpt>
      <trkpt lat="46.50263" lon="5.39428">
        <ele>301</ele>
        <time>2021-05-29T06:39:33.737Z</time>
      </trkpt>
      <trkpt lat="46.50265" lon="5.3943">
        <ele>301</ele>
        <time>2021-05-29T06:39:34.738Z</time>
      </trkpt>
      <trkpt lat="46.50267" lon="5.39431">
        <ele>301</ele>
        <time>2021-05-29T06:39:35.738Z</time>
      </trkpt>
      <trkpt lat="46.50269" lon="5.39432">
        <ele>301</ele>
        <time>2021-05-29T06:39:36.738Z</time>
      </trkpt>
      <trkpt lat="46.50271" lon="5.39433">
        <ele>302</ele>
        <time>2021-05-29T06:39:37.738Z</time>
      </trkpt>
      <trkpt lat="46.50273" lon="5.39434">
        <ele>301</ele>
        <time>2021-05-29T06:39:38.738Z</time>
      </trkpt>
      <trkpt lat="46.50275" lon="5.39435">
        <ele>301</ele>
        <time>2021-05-29T06:39:39.738Z</time>
      </trkpt>
      <trkpt lat="46.50277" lon="5.39436">
        <ele>301</ele>
        <time>2021-05-29T06:39:40.738Z</time>
      </trkpt>
      <trkpt lat="46.50279" lon="5.39437">
        <ele>301</ele>
        <time>2021-05-29T06:39:41.738Z</time>
      </trkpt>
      <trkpt lat="46.50281" lon="5.39438">
        <ele>301</ele>
        <time>2021-05-29T06:39:42.738Z</time>
      </trkpt>
      <trkpt lat="46.50283" lon="5.39439">
        <ele>300</ele>
        <time>2021-05-29T06:39:43.738Z</time>
      </trkpt>
      <trkpt lat="46.50285" lon="5.3944">
        <ele>300</ele>
        <time>2021-05-29T06:39:44.738Z</time>
      </trkpt>
      <trkpt lat="46.50287" lon="5.39442">
        <ele>299</ele>
        <time>2021-05-29T06:39:45.738Z</time>
      </trkpt>
      <trkpt lat="46.50289" lon="5.39443">
        <ele>299</ele>
        <time>2021-05-29T06:39:46.738Z</time>
      </trkpt>
      <trkpt lat="46.50291" lon="5.39445">
        <ele>298</ele>
        <time>2021-05-29T06:39:47.738Z</time>
      </trkpt>
      <trkpt lat="46.50293" lon="5.39446">
        <ele>298</ele>
        <time>2021-05-29T06:39:48.737Z</time>
      </trkpt>
      <trkpt lat="46.50294" lon="5.39448">
        <ele>298</ele>
        <time>2021-05-29T06:39:49.738Z</time>
      </trkpt>
      <trkpt lat="46.50296" lon="5.3945">
        <ele>297</ele>
        <time>2021-05-29T06:39:50.737Z</time>
      </trkpt>
      <trkpt lat="46.50297" lon="5.39452">
        <ele>297</ele>
        <time>2021-05-29T06:39:51.738Z</time>
      </trkpt>
      <trkpt lat="46.50299" lon="5.39455">
        <ele>297</ele>
        <time>2021-05-29T06:39:52.738Z</time>
      </trkpt>
      <trkpt lat="46.50301" lon="5.39457">
        <ele>297</ele>
        <time>2021-05-29T06:39:53.738Z</time>
      </trkpt>
      <trkpt lat="46.50303" lon="5.3946">
        <ele>297</ele>
        <time>2021-05-29T06:39:54.738Z</time>
      </trkpt>
      <trkpt lat="46.50305" lon="5.39463">
        <ele>296</ele>
        <time>2021-05-29T06:39:55.738Z</time>
      </trkpt>
      <trkpt lat="46.50306" lon="5.39466">
        <ele>296</ele>
        <time>2021-05-29T06:39:56.738Z</time>
      </trkpt>
      <trkpt lat="46.50308" lon="5.39469">
        <ele>296</ele>
        <time>2021-05-29T06:39:57.738Z</time>
      </trkpt>
      <trkpt lat="46.5031" lon="5.39472">
        <ele>296</ele>
        <time>2021-05-29T06:39:58.738Z</time>
      </trkpt>
      <trkpt lat="46.50311" lon="5.39474">
        <ele>296</ele>
        <time>2021-05-29T06:39:59.738Z</time>
      </trkpt>
      <trkpt lat="46.50313" lon="5.39477">
        <ele>296</ele>
        <time>2021-05-29T06:40:00.738Z</time>
      </trkpt>
      <trkpt lat="46.50314" lon="5.3948">
        <ele>296</ele>
        <time>2021-05-29T06:40:01.738Z</time>
      </trkpt>
      <trkpt lat="46.50315" lon="5.39483">
        <ele>296</ele>
        <time>2021-05-29T06:40:02.738Z</time>
      </trkpt>
      <trkpt lat="46.50317" lon="5.39486">
        <ele>296</ele>
        <time>2021-05-29T06:40:03.738Z</time>
      </trkpt>
      <trkpt lat="46.50319" lon="5.39488">
        <ele>296</ele>
        <time>2021-05-29T06:40:04.738Z</time>
      </trkpt>
      <trkpt lat="46.50321" lon="5.39491">
        <ele>296</ele>
        <time>2021-05-29T06:40:05.737Z</time>
      </trkpt>
      <trkpt lat="46.50323" lon="5.39493">
        <ele>297</ele>
        <time>2021-05-29T06:40:06.738Z</time>
      </trkpt>
      <trkpt lat="46.50324" lon="5.39495">
        <ele>298</ele>
        <time>2021-05-29T06:40:07.738Z</time>
      </trkpt>
      <trkpt lat="46.50326" lon="5.39498">
        <ele>298</ele>
        <time>2021-05-29T06:40:08.738Z</time>
      </trkpt>
      <trkpt lat="46.50328" lon="5.39501">
        <ele>299</ele>
        <time>2021-05-29T06:40:09.738Z</time>
      </trkpt>
      <trkpt lat="46.5033" lon="5.39503">
        <ele>299</ele>
        <time>2021-05-29T06:40:10.738Z</time>
      </trkpt>
      <trkpt lat="46.50331" lon="5.39505">
        <ele>300</ele>
        <time>2021-05-29T06:40:11.738Z</time>
      </trkpt>
      <trkpt lat="46.50333" lon="5.39508">
        <ele>300</ele>
        <time>2021-05-29T06:40:12.738Z</time>
      </trkpt>
      <trkpt lat="46.50335" lon="5.3951">
        <ele>300</ele>
        <time>2021-05-29T06:40:13.737Z</time>
      </trkpt>
      <trkpt lat="46.50336" lon="5.39512">
        <ele>301</ele>
        <time>2021-05-29T06:40:14.738Z</time>
      </trkpt>
      <trkpt lat="46.50338" lon="5.39515">
        <ele>301</ele>
        <time>2021-05-29T06:40:15.738Z</time>
      </trkpt>
      <trkpt lat="46.50339" lon="5.39517">
        <ele>301</ele>
        <time>2021-05-29T06:40:16.738Z</time>
      </trkpt>
      <trkpt lat="46.50339" lon="5.3952">
        <ele>302</ele>
        <time>2021-05-29T06:40:17.738Z</time>
      </trkpt>
      <trkpt lat="46.50341" lon="5.39523">
        <ele>302</ele>
        <time>2021-05-29T06:40:18.738Z</time>
      </trkpt>
      <trkpt lat="46.50341" lon="5.39525">
        <ele>302</ele>
        <time>2021-05-29T06:40:19.738Z</time>
      </trkpt>
      <trkpt lat="46.50342" lon="5.39528">
        <ele>302</ele>
        <time>2021-05-29T06:40:20.738Z</time>
      </trkpt>
      <trkpt lat="46.50343" lon="5.3953">
        <ele>302</ele>
        <time>2021-05-29T06:40:21.737Z</time>
      </trkpt>
      <trkpt lat="46.50343" lon="5.39532">
        <ele>302</ele>
        <time>2021-05-29T06:40:22.738Z</time>
      </trkpt>
      <trkpt lat="46.50344" lon="5.39535">
        <ele>302</ele>
        <time>2021-05-29T06:40:23.738Z</time>
      </trkpt>
      <trkpt lat="46.50344" lon="5.39537">
        <ele>301</ele>
        <time>2021-05-29T06:40:24.738Z</time>
      </trkpt>
      <trkpt lat="46.50346" lon="5.3954">
        <ele>301</ele>
        <time>2021-05-29T06:40:25.738Z</time>
      </trkpt>
      <trkpt lat="46.50347" lon="5.39543">
        <ele>301</ele>
        <time>2021-05-29T06:40:26.738Z</time>
      </trkpt>
      <trkpt lat="46.50348" lon="5.39546">
        <ele>301</ele>
        <time>2021-05-29T06:40:27.738Z</time>
      </trkpt>
      <trkpt lat="46.5035" lon="5.39549">
        <ele>300</ele>
        <time>2021-05-29T06:40:28.738Z</time>
      </trkpt>
      <trkpt lat="46.50351" lon="5.39552">
        <ele>300</ele>
        <time>2021-05-29T06:40:29.737Z</time>
      </trkpt>
      <trkpt lat="46.50352" lon="5.39554">
        <ele>300</ele>
        <time>2021-05-29T06:40:30.738Z</time>
      </trkpt>
      <trkpt lat="46.50354" lon="5.39556">
        <ele>300</ele>
        <time>2021-05-29T06:40:31.738Z</time>
      </trkpt>
      <trkpt lat="46.50355" lon="5.39559">
        <ele>300</ele>
        <time>2021-05-29T06:40:32.738Z</time>
      </trkpt>
      <trkpt lat="46.50356" lon="5.39562">
        <ele>300</ele>
        <time>2021-05-29T06:40:33.738Z</time>
      </trkpt>
      <trkpt lat="46.50358" lon="5.39565">
        <ele>301</ele>
        <time>2021-05-29T06:40:34.738Z</time>
      </trkpt>
      <trkpt lat="46.50359" lon="5.39567">
        <ele>301</ele>
        <time>2021-05-29T06:40:35.738Z</time>
      </trkpt>
      <trkpt lat="46.5036" lon="5.3957">
        <ele>301</ele>
        <time>2021-05-29T06:40:36.738Z</time>
      </trkpt>
      <trkpt lat="46.50361" lon="5.39572">
        <ele>301</ele>
        <time>2021-05-29T06:40:37.738Z</time>
      </trkpt>
      <trkpt lat="46.50362" lon="5.39575">
        <ele>301</ele>
        <time>2021-05-29T06:40:38.737Z</time>
      </trkpt>
      <trkpt lat="46.50364" lon="5.39578">
        <ele>301</ele>
        <time>2021-05-29T06:40:39.737Z</time>
      </trkpt>
      <trkpt lat="46.50365" lon="5.39581">
        <ele>300</ele>
        <time>2021-05-29T06:40:40.738Z</time>
      </trkpt>
      <trkpt lat="46.50367" lon="5.39583">
        <ele>300</ele>
        <time>2021-05-29T06:40:41.738Z</time>
      </trkpt>
      <trkpt lat="46.50368" lon="5.39586">
        <ele>300</ele>
        <time>2021-05-29T06:40:42.737Z</time>
      </trkpt>
      <trkpt lat="46.5037" lon="5.39588">
        <ele>300</ele>
        <time>2021-05-29T06:40:43.737Z</time>
      </trkpt>
      <trkpt lat="46.50371" lon="5.39591">
        <ele>300</ele>
        <time>2021-05-29T06:40:44.738Z</time>
      </trkpt>
      <trkpt lat="46.50372" lon="5.39592">
        <ele>300</ele>
        <time>2021-05-29T06:40:45.738Z</time>
      </trkpt>
      <trkpt lat="46.50374" lon="5.39595">
        <ele>300</ele>
        <time>2021-05-29T06:40:46.738Z</time>
      </trkpt>
      <trkpt lat="46.50375" lon="5.39597">
        <ele>300</ele>
        <time>2021-05-29T06:40:47.738Z</time>
      </trkpt>
      <trkpt lat="46.50377" lon="5.396">
        <ele>300</ele>
        <time>2021-05-29T06:40:48.738Z</time>
      </trkpt>
      <trkpt lat="46.50378" lon="5.39602">
        <ele>300</ele>
        <time>2021-05-29T06:40:49.738Z</time>
      </trkpt>
      <trkpt lat="46.5038" lon="5.39604">
        <ele>300</ele>
        <time>2021-05-29T06:40:50.738Z</time>
      </trkpt>
      <trkpt lat="46.50382" lon="5.39607">
        <ele>301</ele>
        <time>2021-05-29T06:40:51.738Z</time>
      </trkpt>
      <trkpt lat="46.50383" lon="5.39609">
        <ele>301</ele>
        <time>2021-05-29T06:40:52.738Z</time>
      </trkpt>
      <trkpt lat="46.50384" lon="5.39611">
        <ele>301</ele>
        <time>2021-05-29T06:40:53.738Z</time>
      </trkpt>
      <trkpt lat="46.50385" lon="5.39612">
        <ele>301</ele>
        <time>2021-05-29T06:40:54.738Z</time>
      </trkpt>
      <trkpt lat="46.50387" lon="5.39615">
        <ele>301</ele>
        <time>2021-05-29T06:40:55.738Z</time>
      </trkpt>
      <trkpt lat="46.50388" lon="5.39617">
        <ele>301</ele>
        <time>2021-05-29T06:40:56.738Z</time>
      </trkpt>
      <trkpt lat="46.5039" lon="5.39619">
        <ele>301</ele>
        <time>2021-05-29T06:40:57.738Z</time>
      </trkpt>
      <trkpt lat="46.50391" lon="5.39621">
        <ele>301</ele>
        <time>2021-05-29T06:40:58.738Z</time>
      </trkpt>
      <trkpt lat="46.50392" lon="5.39623">
        <ele>301</ele>
        <time>2021-05-29T06:40:59.738Z</time>
      </trkpt>
      <trkpt lat="46.50393" lon="5.39625">
        <ele>301</ele>
        <time>2021-05-29T06:41:00.738Z</time>
      </trkpt>
      <trkpt lat="46.50395" lon="5.39628">
        <ele>301</ele>
        <time>2021-05-29T06:41:01.738Z</time>
      </trkpt>
      <trkpt lat="46.50397" lon="5.3963">
        <ele>301</ele>
        <time>2021-05-29T06:41:02.738Z</time>
      </trkpt>
      <trkpt lat="46.50398" lon="5.39632">
        <ele>301</ele>
        <time>2021-05-29T06:41:03.737Z</time>
      </trkpt>
      <trkpt lat="46.50399" lon="5.39635">
        <ele>302</ele>
        <time>2021-05-29T06:41:04.738Z</time>
      </trkpt>
      <trkpt lat="46.50401" lon="5.39637">
        <ele>302</ele>
        <time>2021-05-29T06:41:05.738Z</time>
      </trkpt>
      <trkpt lat="46.50402" lon="5.3964">
        <ele>302</ele>
        <time>2021-05-29T06:41:06.737Z</time>
      </trkpt>
      <trkpt lat="46.50404" lon="5.39642">
        <ele>302</ele>
        <time>2021-05-29T06:41:07.738Z</time>
      </trkpt>
      <trkpt lat="46.50405" lon="5.39644">
        <ele>302</ele>
        <time>2021-05-29T06:41:08.738Z</time>
      </trkpt>
      <trkpt lat="46.50407" lon="5.39646">
        <ele>302</ele>
        <time>2021-05-29T06:41:09.738Z</time>
      </trkpt>
      <trkpt lat="46.50408" lon="5.39647">
        <ele>302</ele>
        <time>2021-05-29T06:41:10.738Z</time>
      </trkpt>
      <trkpt lat="46.5041" lon="5.39649">
        <ele>303</ele>
        <time>2021-05-29T06:41:11.738Z</time>
      </trkpt>
      <trkpt lat="46.50412" lon="5.3965">
        <ele>302</ele>
        <time>2021-05-29T06:41:12.738Z</time>
      </trkpt>
      <trkpt lat="46.50413" lon="5.39651">
        <ele>302</ele>
        <time>2021-05-29T06:41:13.738Z</time>
      </trkpt>
      <trkpt lat="46.50415" lon="5.39651">
        <ele>302</ele>
        <time>2021-05-29T06:41:14.737Z</time>
      </trkpt>
      <trkpt lat="46.50416" lon="5.39652">
        <ele>303</ele>
        <time>2021-05-29T06:41:15.738Z</time>
      </trkpt>
      <trkpt lat="46.50418" lon="5.39653">
        <ele>303</ele>
        <time>2021-05-29T06:41:16.738Z</time>
      </trkpt>
      <trkpt lat="46.5042" lon="5.39653">
        <ele>304</ele>
        <time>2021-05-29T06:41:17.738Z</time>
      </trkpt>
      <trkpt lat="46.50422" lon="5.39654">
        <ele>304</ele>
        <time>2021-05-29T06:41:18.738Z</time>
      </trkpt>
      <trkpt lat="46.50424" lon="5.39654">
        <ele>304</ele>
        <time>2021-05-29T06:41:19.738Z</time>
      </trkpt>
      <trkpt lat="46.50426" lon="5.39654">
        <ele>304</ele>
        <time>2021-05-29T06:41:20.738Z</time>
      </trkpt>
      <trkpt lat="46.50427" lon="5.39655">
        <ele>304</ele>
        <time>2021-05-29T06:41:21.738Z</time>
      </trkpt>
      <trkpt lat="46.50429" lon="5.39655">
        <ele>304</ele>
        <time>2021-05-29T06:41:22.738Z</time>
      </trkpt>
      <trkpt lat="46.50431" lon="5.39656">
        <ele>304</ele>
        <time>2021-05-29T06:41:23.738Z</time>
      </trkpt>
      <trkpt lat="46.50432" lon="5.39657">
        <ele>304</ele>
        <time>2021-05-29T06:41:24.737Z</time>
      </trkpt>
      <trkpt lat="46.50434" lon="5.39658">
        <ele>304</ele>
        <time>2021-05-29T06:41:25.738Z</time>
      </trkpt>
      <trkpt lat="46.50435" lon="5.39659">
        <ele>305</ele>
        <time>2021-05-29T06:41:26.738Z</time>
      </trkpt>
      <trkpt lat="46.50437" lon="5.3966">
        <ele>305</ele>
        <time>2021-05-29T06:41:27.738Z</time>
      </trkpt>
      <trkpt lat="46.50439" lon="5.39661">
        <ele>306</ele>
        <time>2021-05-29T06:41:28.738Z</time>
      </trkpt>
      <trkpt lat="46.5044" lon="5.39661">
        <ele>307</ele>
        <time>2021-05-29T06:41:29.738Z</time>
      </trkpt>
      <trkpt lat="46.50442" lon="5.39663">
        <ele>307</ele>
        <time>2021-05-29T06:41:30.738Z</time>
      </trkpt>
      <trkpt lat="46.50444" lon="5.39665">
        <ele>308</ele>
        <time>2021-05-29T06:41:31.738Z</time>
      </trkpt>
      <trkpt lat="46.50446" lon="5.39666">
        <ele>309</ele>
        <time>2021-05-29T06:41:32.737Z</time>
      </trkpt>
      <trkpt lat="46.50447" lon="5.39666">
        <ele>309</ele>
        <time>2021-05-29T06:41:33.738Z</time>
      </trkpt>
      <trkpt lat="46.50448" lon="5.39666">
        <ele>310</ele>
        <time>2021-05-29T06:41:34.737Z</time>
      </trkpt>
      <trkpt lat="46.5045" lon="5.39666">
        <ele>311</ele>
        <time>2021-05-29T06:41:35.737Z</time>
      </trkpt>
      <trkpt lat="46.50451" lon="5.39667">
        <ele>312</ele>
        <time>2021-05-29T06:41:36.738Z</time>
      </trkpt>
      <trkpt lat="46.50452" lon="5.39668">
        <ele>312</ele>
        <time>2021-05-29T06:41:37.738Z</time>
      </trkpt>
      <trkpt lat="46.50453" lon="5.39669">
        <ele>313</ele>
        <time>2021-05-29T06:41:38.738Z</time>
      </trkpt>
      <trkpt lat="46.50455" lon="5.39671">
        <ele>313</ele>
        <time>2021-05-29T06:41:39.738Z</time>
      </trkpt>
      <trkpt lat="46.50457" lon="5.39671">
        <ele>314</ele>
        <time>2021-05-29T06:41:40.737Z</time>
      </trkpt>
      <trkpt lat="46.50459" lon="5.39673">
        <ele>314</ele>
        <time>2021-05-29T06:41:41.738Z</time>
      </trkpt>
      <trkpt lat="46.50461" lon="5.39674">
        <ele>315</ele>
        <time>2021-05-29T06:41:42.738Z</time>
      </trkpt>
      <trkpt lat="46.50463" lon="5.39676">
        <ele>315</ele>
        <time>2021-05-29T06:41:43.738Z</time>
      </trkpt>
      <trkpt lat="46.50466" lon="5.39678">
        <ele>316</ele>
        <time>2021-05-29T06:41:44.738Z</time>
      </trkpt>
      <trkpt lat="46.50468" lon="5.39679">
        <ele>316</ele>
        <time>2021-05-29T06:41:45.738Z</time>
      </trkpt>
      <trkpt lat="46.50471" lon="5.39681">
        <ele>317</ele>
        <time>2021-05-29T06:41:46.738Z</time>
      </trkpt>
      <trkpt lat="46.50472" lon="5.39683">
        <ele>317</ele>
        <time>2021-05-29T06:41:47.738Z</time>
      </trkpt>
      <trkpt lat="46.50474" lon="5.39685">
        <ele>317</ele>
        <time>2021-05-29T06:41:48.738Z</time>
      </trkpt>
      <trkpt lat="46.50475" lon="5.39687">
        <ele>317</ele>
        <time>2021-05-29T06:41:49.738Z</time>
      </trkpt>
      <trkpt lat="46.50477" lon="5.3969">
        <ele>317</ele>
        <time>2021-05-29T06:41:50.738Z</time>
      </trkpt>
      <trkpt lat="46.50479" lon="5.39692">
        <ele>318</ele>
        <time>2021-05-29T06:41:51.738Z</time>
      </trkpt>
      <trkpt lat="46.5048" lon="5.39695">
        <ele>318</ele>
        <time>2021-05-29T06:41:52.738Z</time>
      </trkpt>
      <trkpt lat="46.50482" lon="5.39697">
        <ele>318</ele>
        <time>2021-05-29T06:41:53.737Z</time>
      </trkpt>
      <trkpt lat="46.50484" lon="5.397">
        <ele>318</ele>
        <time>2021-05-29T06:41:54.738Z</time>
      </trkpt>
      <trkpt lat="46.50486" lon="5.39702">
        <ele>318</ele>
        <time>2021-05-29T06:41:55.738Z</time>
      </trkpt>
      <trkpt lat="46.50487" lon="5.39705">
        <ele>317</ele>
        <time>2021-05-29T06:41:56.738Z</time>
      </trkpt>
      <trkpt lat="46.50488" lon="5.39707">
        <ele>317</ele>
        <time>2021-05-29T06:41:57.738Z</time>
      </trkpt>
      <trkpt lat="46.50489" lon="5.3971">
        <ele>317</ele>
        <time>2021-05-29T06:41:58.738Z</time>
      </trkpt>
      <trkpt lat="46.5049" lon="5.39713">
        <ele>317</ele>
        <time>2021-05-29T06:41:59.738Z</time>
      </trkpt>
      <trkpt lat="46.50491" lon="5.39716">
        <ele>317</ele>
        <time>2021-05-29T06:42:00.738Z</time>
      </trkpt>
      <trkpt lat="46.50492" lon="5.39719">
        <ele>317</ele>
        <time>2021-05-29T06:42:01.738Z</time>
      </trkpt>
      <trkpt lat="46.50493" lon="5.39722">
        <ele>316</ele>
        <time>2021-05-29T06:42:02.737Z</time>
      </trkpt>
      <trkpt lat="46.50494" lon="5.39724">
        <ele>316</ele>
        <time>2021-05-29T06:42:03.738Z</time>
      </trkpt>
      <trkpt lat="46.50497" lon="5.39725">
        <ele>315</ele>
        <time>2021-05-29T06:42:04.738Z</time>
      </trkpt>
      <trkpt lat="46.50499" lon="5.39726">
        <ele>315</ele>
        <time>2021-05-29T06:42:05.738Z</time>
      </trkpt>
      <trkpt lat="46.50501" lon="5.39726">
        <ele>315</ele>
        <time>2021-05-29T06:42:06.738Z</time>
      </trkpt>
      <trkpt lat="46.50503" lon="5.39726">
        <ele>314</ele>
        <time>2021-05-29T06:42:07.738Z</time>
      </trkpt>
      <trkpt lat="46.50505" lon="5.39725">
        <ele>314</ele>
        <time>2021-05-29T06:42:08.738Z</time>
      </trkpt>
      <trkpt lat="46.50507" lon="5.39724">
        <ele>314</ele>
        <time>2021-05-29T06:42:09.738Z</time>
      </trkpt>
      <trkpt lat="46.50509" lon="5.39723">
        <ele>314</ele>
        <time>2021-05-29T06:42:10.738Z</time>
      </trkpt>
      <trkpt lat="46.50511" lon="5.39723">
        <ele>314</ele>
        <time>2021-05-29T06:42:11.738Z</time>
      </trkpt>
      <trkpt lat="46.50513" lon="5.39722">
        <ele>314</ele>
        <time>2021-05-29T06:42:12.738Z</time>
      </trkpt>
      <trkpt lat="46.50515" lon="5.39721">
        <ele>314</ele>
        <time>2021-05-29T06:42:13.738Z</time>
      </trkpt>
      <trkpt lat="46.50517" lon="5.39721">
        <ele>314</ele>
        <time>2021-05-29T06:42:14.738Z</time>
      </trkpt>
      <trkpt lat="46.5052" lon="5.39721">
        <ele>314</ele>
        <time>2021-05-29T06:42:15.737Z</time>
      </trkpt>
      <trkpt lat="46.50522" lon="5.39722">
        <ele>314</ele>
        <time>2021-05-29T06:42:16.738Z</time>
      </trkpt>
      <trkpt lat="46.50524" lon="5.39722">
        <ele>313</ele>
        <time>2021-05-29T06:42:17.738Z</time>
      </trkpt>
      <trkpt lat="46.50527" lon="5.39723">
        <ele>314</ele>
        <time>2021-05-29T06:42:18.738Z</time>
      </trkpt>
      <trkpt lat="46.5053" lon="5.39723">
        <ele>314</ele>
        <time>2021-05-29T06:42:19.738Z</time>
      </trkpt>
      <trkpt lat="46.50532" lon="5.39723">
        <ele>314</ele>
        <time>2021-05-29T06:42:20.737Z</time>
      </trkpt>
      <trkpt lat="46.50534" lon="5.39722">
        <ele>314</ele>
        <time>2021-05-29T06:42:21.738Z</time>
      </trkpt>
      <trkpt lat="46.50536" lon="5.39722">
        <ele>313</ele>
        <time>2021-05-29T06:42:22.738Z</time>
      </trkpt>
      <trkpt lat="46.50537" lon="5.39721">
        <ele>313</ele>
        <time>2021-05-29T06:42:23.738Z</time>
      </trkpt>
      <trkpt lat="46.50538" lon="5.39719">
        <ele>313</ele>
        <time>2021-05-29T06:42:24.738Z</time>
      </trkpt>
      <trkpt lat="46.50539" lon="5.39716">
        <ele>313</ele>
        <time>2021-05-29T06:42:25.738Z</time>
      </trkpt>
      <trkpt lat="46.5054" lon="5.39713">
        <ele>312</ele>
        <time>2021-05-29T06:42:26.738Z</time>
      </trkpt>
      <trkpt lat="46.50541" lon="5.3971">
        <ele>312</ele>
        <time>2021-05-29T06:42:27.738Z</time>
      </trkpt>
      <trkpt lat="46.50542" lon="5.39708">
        <ele>312</ele>
        <time>2021-05-29T06:42:28.738Z</time>
      </trkpt>
      <trkpt lat="46.50543" lon="5.39706">
        <ele>312</ele>
        <time>2021-05-29T06:42:29.738Z</time>
      </trkpt>
      <trkpt lat="46.50545" lon="5.39703">
        <ele>312</ele>
        <time>2021-05-29T06:42:30.738Z</time>
      </trkpt>
      <trkpt lat="46.50546" lon="5.397">
        <ele>311</ele>
        <time>2021-05-29T06:42:31.738Z</time>
      </trkpt>
      <trkpt lat="46.50547" lon="5.39697">
        <ele>311</ele>
        <time>2021-05-29T06:42:32.738Z</time>
      </trkpt>
      <trkpt lat="46.50548" lon="5.39694">
        <ele>311</ele>
        <time>2021-05-29T06:42:33.738Z</time>
      </trkpt>
      <trkpt lat="46.5055" lon="5.3969">
        <ele>310</ele>
        <time>2021-05-29T06:42:34.738Z</time>
      </trkpt>
      <trkpt lat="46.5055" lon="5.39688">
        <ele>311</ele>
        <time>2021-05-29T06:42:35.738Z</time>
      </trkpt>
      <trkpt lat="46.50551" lon="5.39685">
        <ele>311</ele>
        <time>2021-05-29T06:42:36.737Z</time>
      </trkpt>
      <trkpt lat="46.50552" lon="5.39682">
        <ele>311</ele>
        <time>2021-05-29T06:42:37.738Z</time>
      </trkpt>
      <trkpt lat="46.50553" lon="5.3968">
        <ele>311</ele>
        <time>2021-05-29T06:42:38.738Z</time>
      </trkpt>
      <trkpt lat="46.50554" lon="5.39677">
        <ele>311</ele>
        <time>2021-05-29T06:42:39.738Z</time>
      </trkpt>
      <trkpt lat="46.50555" lon="5.39675">
        <ele>311</ele>
        <time>2021-05-29T06:42:40.738Z</time>
      </trkpt>
      <trkpt lat="46.50556" lon="5.39672">
        <ele>311</ele>
        <time>2021-05-29T06:42:41.737Z</time>
      </trkpt>
      <trkpt lat="46.50557" lon="5.39669">
        <ele>311</ele>
        <time>2021-05-29T06:42:42.738Z</time>
      </trkpt>
      <trkpt lat="46.50557" lon="5.39667">
        <ele>311</ele>
        <time>2021-05-29T06:42:43.738Z</time>
      </trkpt>
      <trkpt lat="46.50558" lon="5.39664">
        <ele>311</ele>
        <time>2021-05-29T06:42:44.738Z</time>
      </trkpt>
      <trkpt lat="46.50559" lon="5.39661">
        <ele>311</ele>
        <time>2021-05-29T06:42:45.737Z</time>
      </trkpt>
      <trkpt lat="46.5056" lon="5.39656">
        <ele>311</ele>
        <time>2021-05-29T06:42:46.738Z</time>
      </trkpt>
      <trkpt lat="46.5056" lon="5.39654">
        <ele>311</ele>
        <time>2021-05-29T06:42:47.738Z</time>
      </trkpt>
      <trkpt lat="46.50561" lon="5.39652">
        <ele>311</ele>
        <time>2021-05-29T06:42:48.738Z</time>
      </trkpt>
      <trkpt lat="46.50561" lon="5.3965">
        <ele>311</ele>
        <time>2021-05-29T06:42:49.738Z</time>
      </trkpt>
      <trkpt lat="46.50561" lon="5.39647">
        <ele>311</ele>
        <time>2021-05-29T06:42:50.737Z</time>
      </trkpt>
      <trkpt lat="46.50561" lon="5.39644">
        <ele>311</ele>
        <time>2021-05-29T06:42:51.738Z</time>
      </trkpt>
      <trkpt lat="46.50561" lon="5.39641">
        <ele>311</ele>
        <time>2021-05-29T06:42:52.738Z</time>
      </trkpt>
      <trkpt lat="46.50561" lon="5.39638">
        <ele>310</ele>
        <time>2021-05-29T06:42:53.738Z</time>
      </trkpt>
      <trkpt lat="46.50561" lon="5.39634">
        <ele>310</ele>
        <time>2021-05-29T06:42:54.738Z</time>
      </trkpt>
      <trkpt lat="46.50562" lon="5.39631">
        <ele>310</ele>
        <time>2021-05-29T06:42:55.738Z</time>
      </trkpt>
      <trkpt lat="46.50563" lon="5.39628">
        <ele>310</ele>
        <time>2021-05-29T06:42:56.738Z</time>
      </trkpt>
      <trkpt lat="46.50563" lon="5.39625">
        <ele>309</ele>
        <time>2021-05-29T06:42:57.738Z</time>
      </trkpt>
      <trkpt lat="46.50563" lon="5.39622">
        <ele>309</ele>
        <time>2021-05-29T06:42:58.738Z</time>
      </trkpt>
      <trkpt lat="46.50564" lon="5.39618">
        <ele>309</ele>
        <time>2021-05-29T06:42:59.738Z</time>
      </trkpt>
      <trkpt lat="46.50565" lon="5.39615">
        <ele>309</ele>
        <time>2021-05-29T06:43:00.738Z</time>
      </trkpt>
      <trkpt lat="46.50565" lon="5.39611">
        <ele>309</ele>
        <time>2021-05-29T06:43:01.738Z</time>
      </trkpt>
      <trkpt lat="46.50565" lon="5.39609">
        <ele>309</ele>
        <time>2021-05-29T06:43:02.738Z</time>
      </trkpt>
      <trkpt lat="46.50566" lon="5.39605">
        <ele>309</ele>
        <time>2021-05-29T06:43:03.738Z</time>
      </trkpt>
      <trkpt lat="46.50567" lon="5.39602">
        <ele>309</ele>
        <time>2021-05-29T06:43:04.737Z</time>
      </trkpt>
      <trkpt lat="46.50568" lon="5.39599">
        <ele>308</ele>
        <time>2021-05-29T06:43:05.738Z</time>
      </trkpt>
      <trkpt lat="46.50569" lon="5.39596">
        <ele>308</ele>
        <time>2021-05-29T06:43:06.738Z</time>
      </trkpt>
      <trkpt lat="46.50569" lon="5.39593">
        <ele>308</ele>
        <time>2021-05-29T06:43:07.738Z</time>
      </trkpt>
      <trkpt lat="46.5057" lon="5.3959">
        <ele>308</ele>
        <time>2021-05-29T06:43:08.738Z</time>
      </trkpt>
      <trkpt lat="46.50571" lon="5.39587">
        <ele>308</ele>
        <time>2021-05-29T06:43:09.738Z</time>
      </trkpt>
      <trkpt lat="46.50572" lon="5.39585">
        <ele>308</ele>
        <time>2021-05-29T06:43:10.738Z</time>
      </trkpt>
      <trkpt lat="46.50573" lon="5.39581">
        <ele>308</ele>
        <time>2021-05-29T06:43:11.738Z</time>
      </trkpt>
      <trkpt lat="46.50573" lon="5.39579">
        <ele>308</ele>
        <time>2021-05-29T06:43:12.738Z</time>
      </trkpt>
      <trkpt lat="46.50575" lon="5.39573">
        <ele>308</ele>
        <time>2021-05-29T06:43:13.737Z</time>
      </trkpt>
      <trkpt lat="46.50576" lon="5.39569">
        <ele>308</ele>
        <time>2021-05-29T06:43:14.737Z</time>
      </trkpt>
      <trkpt lat="46.50577" lon="5.39566">
        <ele>308</ele>
        <time>2021-05-29T06:43:15.738Z</time>
      </trkpt>
      <trkpt lat="46.50578" lon="5.39563">
        <ele>308</ele>
        <time>2021-05-29T06:43:16.738Z</time>
      </trkpt>
      <trkpt lat="46.50579" lon="5.39559">
        <ele>308</ele>
        <time>2021-05-29T06:43:17.738Z</time>
      </trkpt>
      <trkpt lat="46.5058" lon="5.39556">
        <ele>307</ele>
        <time>2021-05-29T06:43:18.738Z</time>
      </trkpt>
      <trkpt lat="46.50581" lon="5.39553">
        <ele>307</ele>
        <time>2021-05-29T06:43:19.738Z</time>
      </trkpt>
      <trkpt lat="46.50582" lon="5.39551">
        <ele>307</ele>
        <time>2021-05-29T06:43:20.738Z</time>
      </trkpt>
      <trkpt lat="46.50582" lon="5.39548">
        <ele>307</ele>
        <time>2021-05-29T06:43:21.738Z</time>
      </trkpt>
      <trkpt lat="46.50584" lon="5.39545">
        <ele>307</ele>
        <time>2021-05-29T06:43:22.737Z</time>
      </trkpt>
      <trkpt lat="46.50585" lon="5.39543">
        <ele>307</ele>
        <time>2021-05-29T06:43:23.737Z</time>
      </trkpt>
      <trkpt lat="46.50587" lon="5.39541">
        <ele>307</ele>
        <time>2021-05-29T06:43:24.738Z</time>
      </trkpt>
      <trkpt lat="46.50588" lon="5.39539">
        <ele>307</ele>
        <time>2021-05-29T06:43:25.738Z</time>
      </trkpt>
      <trkpt lat="46.50589" lon="5.39536">
        <ele>307</ele>
        <time>2021-05-29T06:43:26.738Z</time>
      </trkpt>
      <trkpt lat="46.5059" lon="5.39534">
        <ele>306</ele>
        <time>2021-05-29T06:43:27.738Z</time>
      </trkpt>
      <trkpt lat="46.50591" lon="5.39531">
        <ele>306</ele>
        <time>2021-05-29T06:43:28.738Z</time>
      </trkpt>
      <trkpt lat="46.50592" lon="5.39528">
        <ele>306</ele>
        <time>2021-05-29T06:43:29.738Z</time>
      </trkpt>
      <trkpt lat="46.50593" lon="5.39526">
        <ele>306</ele>
        <time>2021-05-29T06:43:30.737Z</time>
      </trkpt>
      <trkpt lat="46.50595" lon="5.39523">
        <ele>306</ele>
        <time>2021-05-29T06:43:31.738Z</time>
      </trkpt>
      <trkpt lat="46.50596" lon="5.3952">
        <ele>306</ele>
        <time>2021-05-29T06:43:32.738Z</time>
      </trkpt>
      <trkpt lat="46.50598" lon="5.39517">
        <ele>306</ele>
        <time>2021-05-29T06:43:33.738Z</time>
      </trkpt>
      <trkpt lat="46.50599" lon="5.39515">
        <ele>306</ele>
        <time>2021-05-29T06:43:34.738Z</time>
      </trkpt>
      <trkpt lat="46.50601" lon="5.39511">
        <ele>306</ele>
        <time>2021-05-29T06:43:35.738Z</time>
      </trkpt>
      <trkpt lat="46.50603" lon="5.39508">
        <ele>306</ele>
        <time>2021-05-29T06:43:36.738Z</time>
      </trkpt>
      <trkpt lat="46.50605" lon="5.39505">
        <ele>306</ele>
        <time>2021-05-29T06:43:37.738Z</time>
      </trkpt>
      <trkpt lat="46.50607" lon="5.39502">
        <ele>305</ele>
        <time>2021-05-29T06:43:38.738Z</time>
      </trkpt>
      <trkpt lat="46.50608" lon="5.39498">
        <ele>305</ele>
        <time>2021-05-29T06:43:39.738Z</time>
      </trkpt>
      <trkpt lat="46.5061" lon="5.39495">
        <ele>304</ele>
        <time>2021-05-29T06:43:40.738Z</time>
      </trkpt>
      <trkpt lat="46.50612" lon="5.39492">
        <ele>304</ele>
        <time>2021-05-29T06:43:41.738Z</time>
      </trkpt>
      <trkpt lat="46.50614" lon="5.3949">
        <ele>304</ele>
        <time>2021-05-29T06:43:42.738Z</time>
      </trkpt>
      <trkpt lat="46.50616" lon="5.39488">
        <ele>304</ele>
        <time>2021-05-29T06:43:43.738Z</time>
      </trkpt>
      <trkpt lat="46.50617" lon="5.39485">
        <ele>304</ele>
        <time>2021-05-29T06:43:44.737Z</time>
      </trkpt>
      <trkpt lat="46.50619" lon="5.39483">
        <ele>303</ele>
        <time>2021-05-29T06:43:45.738Z</time>
      </trkpt>
      <trkpt lat="46.50621" lon="5.39481">
        <ele>303</ele>
        <time>2021-05-29T06:43:46.738Z</time>
      </trkpt>
      <trkpt lat="46.50622" lon="5.39479">
        <ele>303</ele>
        <time>2021-05-29T06:43:47.738Z</time>
      </trkpt>
      <trkpt lat="46.50623" lon="5.39478">
        <ele>303</ele>
        <time>2021-05-29T06:43:48.738Z</time>
      </trkpt>
      <trkpt lat="46.50624" lon="5.39477">
        <ele>302</ele>
        <time>2021-05-29T06:43:49.738Z</time>
      </trkpt>
      <trkpt lat="46.50626" lon="5.39476">
        <ele>302</ele>
        <time>2021-05-29T06:43:50.738Z</time>
      </trkpt>
      <trkpt lat="46.50627" lon="5.39475">
        <ele>301</ele>
        <time>2021-05-29T06:43:51.738Z</time>
      </trkpt>
      <trkpt lat="46.50628" lon="5.39473">
        <ele>301</ele>
        <time>2021-05-29T06:43:52.738Z</time>
      </trkpt>
      <trkpt lat="46.50629" lon="5.3947">
        <ele>300</ele>
        <time>2021-05-29T06:43:53.738Z</time>
      </trkpt>
      <trkpt lat="46.50631" lon="5.39469">
        <ele>300</ele>
        <time>2021-05-29T06:43:54.738Z</time>
      </trkpt>
      <trkpt lat="46.50632" lon="5.39468">
        <ele>299</ele>
        <time>2021-05-29T06:43:55.738Z</time>
      </trkpt>
      <trkpt lat="46.50633" lon="5.39467">
        <ele>299</ele>
        <time>2021-05-29T06:43:56.737Z</time>
      </trkpt>
      <trkpt lat="46.50635" lon="5.39465">
        <ele>299</ele>
        <time>2021-05-29T06:43:57.738Z</time>
      </trkpt>
      <trkpt lat="46.50636" lon="5.39464">
        <ele>298</ele>
        <time>2021-05-29T06:43:58.738Z</time>
      </trkpt>
      <trkpt lat="46.50637" lon="5.39462">
        <ele>298</ele>
        <time>2021-05-29T06:43:59.738Z</time>
      </trkpt>
      <trkpt lat="46.50639" lon="5.39461">
        <ele>298</ele>
        <time>2021-05-29T06:44:00.738Z</time>
      </trkpt>
      <trkpt lat="46.5064" lon="5.39458">
        <ele>298</ele>
        <time>2021-05-29T06:44:01.738Z</time>
      </trkpt>
      <trkpt lat="46.50642" lon="5.39455">
        <ele>298</ele>
        <time>2021-05-29T06:44:02.737Z</time>
      </trkpt>
      <trkpt lat="46.50643" lon="5.39453">
        <ele>298</ele>
        <time>2021-05-29T06:44:03.738Z</time>
      </trkpt>
      <trkpt lat="46.50645" lon="5.39452">
        <ele>298</ele>
        <time>2021-05-29T06:44:04.738Z</time>
      </trkpt>
      <trkpt lat="46.50647" lon="5.3945">
        <ele>298</ele>
        <time>2021-05-29T06:44:05.738Z</time>
      </trkpt>
      <trkpt lat="46.50648" lon="5.39448">
        <ele>298</ele>
        <time>2021-05-29T06:44:06.738Z</time>
      </trkpt>
      <trkpt lat="46.5065" lon="5.39446">
        <ele>297</ele>
        <time>2021-05-29T06:44:07.738Z</time>
      </trkpt>
      <trkpt lat="46.50652" lon="5.39444">
        <ele>297</ele>
        <time>2021-05-29T06:44:08.737Z</time>
      </trkpt>
      <trkpt lat="46.50652" lon="5.39443">
        <ele>298</ele>
        <time>2021-05-29T06:44:09.738Z</time>
      </trkpt>
      <trkpt lat="46.50653" lon="5.39442">
        <ele>298</ele>
        <time>2021-05-29T06:44:10.738Z</time>
      </trkpt>
      <trkpt lat="46.50654" lon="5.3944">
        <ele>298</ele>
        <time>2021-05-29T06:44:11.738Z</time>
      </trkpt>
      <trkpt lat="46.50656" lon="5.39439">
        <ele>298</ele>
        <time>2021-05-29T06:44:12.738Z</time>
      </trkpt>
      <trkpt lat="46.50657" lon="5.39438">
        <ele>298</ele>
        <time>2021-05-29T06:44:13.738Z</time>
      </trkpt>
      <trkpt lat="46.50658" lon="5.39437">
        <ele>298</ele>
        <time>2021-05-29T06:44:14.738Z</time>
      </trkpt>
      <trkpt lat="46.50659" lon="5.39436">
        <ele>299</ele>
        <time>2021-05-29T06:44:15.738Z</time>
      </trkpt>
      <trkpt lat="46.5066" lon="5.39435">
        <ele>299</ele>
        <time>2021-05-29T06:44:16.738Z</time>
      </trkpt>
      <trkpt lat="46.50661" lon="5.39433">
        <ele>299</ele>
        <time>2021-05-29T06:44:17.737Z</time>
      </trkpt>
      <trkpt lat="46.50663" lon="5.39432">
        <ele>299</ele>
        <time>2021-05-29T06:44:18.738Z</time>
      </trkpt>
      <trkpt lat="46.50664" lon="5.39431">
        <ele>299</ele>
        <time>2021-05-29T06:44:19.738Z</time>
      </trkpt>
      <trkpt lat="46.50664" lon="5.39429">
        <ele>300</ele>
        <time>2021-05-29T06:44:20.738Z</time>
      </trkpt>
      <trkpt lat="46.50666" lon="5.39428">
        <ele>300</ele>
        <time>2021-05-29T06:44:21.738Z</time>
      </trkpt>
      <trkpt lat="46.50667" lon="5.39427">
        <ele>300</ele>
        <time>2021-05-29T06:44:22.738Z</time>
      </trkpt>
      <trkpt lat="46.50669" lon="5.39426">
        <ele>300</ele>
        <time>2021-05-29T06:44:23.737Z</time>
      </trkpt>
      <trkpt lat="46.5067" lon="5.39425">
        <ele>300</ele>
        <time>2021-05-29T06:44:24.738Z</time>
      </trkpt>
      <trkpt lat="46.50671" lon="5.39424">
        <ele>300</ele>
        <time>2021-05-29T06:44:25.738Z</time>
      </trkpt>
      <trkpt lat="46.50673" lon="5.39424">
        <ele>300</ele>
        <time>2021-05-29T06:44:26.738Z</time>
      </trkpt>
      <trkpt lat="46.50674" lon="5.39423">
        <ele>300</ele>
        <time>2021-05-29T06:44:27.738Z</time>
      </trkpt>
      <trkpt lat="46.50675" lon="5.39422">
        <ele>300</ele>
        <time>2021-05-29T06:44:28.738Z</time>
      </trkpt>
      <trkpt lat="46.50677" lon="5.39422">
        <ele>300</ele>
        <time>2021-05-29T06:44:29.738Z</time>
      </trkpt>
      <trkpt lat="46.50679" lon="5.39419">
        <ele>300</ele>
        <time>2021-05-29T06:44:30.738Z</time>
      </trkpt>
      <trkpt lat="46.5068" lon="5.39418">
        <ele>301</ele>
        <time>2021-05-29T06:44:31.738Z</time>
      </trkpt>
      <trkpt lat="46.50681" lon="5.39416">
        <ele>302</ele>
        <time>2021-05-29T06:44:32.738Z</time>
      </trkpt>
      <trkpt lat="46.50682" lon="5.39415">
        <ele>302</ele>
        <time>2021-05-29T06:44:33.738Z</time>
      </trkpt>
      <trkpt lat="46.50684" lon="5.39414">
        <ele>303</ele>
        <time>2021-05-29T06:44:34.738Z</time>
      </trkpt>
      <trkpt lat="46.50685" lon="5.39414">
        <ele>303</ele>
        <time>2021-05-29T06:44:35.738Z</time>
      </trkpt>
      <trkpt lat="46.50687" lon="5.39413">
        <ele>303</ele>
        <time>2021-05-29T06:44:36.738Z</time>
      </trkpt>
      <trkpt lat="46.50687" lon="5.39412">
        <ele>303</ele>
        <time>2021-05-29T06:44:37.738Z</time>
      </trkpt>
      <trkpt lat="46.50688" lon="5.39411">
        <ele>303</ele>
        <time>2021-05-29T06:44:38.738Z</time>
      </trkpt>
      <trkpt lat="46.5069" lon="5.3941">
        <ele>303</ele>
        <time>2021-05-29T06:44:39.737Z</time>
      </trkpt>
      <trkpt lat="46.50691" lon="5.39409">
        <ele>303</ele>
        <time>2021-05-29T06:44:40.738Z</time>
      </trkpt>
      <trkpt lat="46.50693" lon="5.39407">
        <ele>303</ele>
        <time>2021-05-29T06:44:41.738Z</time>
      </trkpt>
      <trkpt lat="46.50694" lon="5.39406">
        <ele>303</ele>
        <time>2021-05-29T06:44:42.738Z</time>
      </trkpt>
      <trkpt lat="46.50696" lon="5.39405">
        <ele>303</ele>
        <time>2021-05-29T06:44:43.738Z</time>
      </trkpt>
      <trkpt lat="46.50697" lon="5.39405">
        <ele>303</ele>
        <time>2021-05-29T06:44:44.738Z</time>
      </trkpt>
      <trkpt lat="46.50699" lon="5.39405">
        <ele>303</ele>
        <time>2021-05-29T06:44:45.738Z</time>
      </trkpt>
      <trkpt lat="46.507" lon="5.39405">
        <ele>303</ele>
        <time>2021-05-29T06:44:46.738Z</time>
      </trkpt>
      <trkpt lat="46.50701" lon="5.39404">
        <ele>303</ele>
        <time>2021-05-29T06:44:47.738Z</time>
      </trkpt>
      <trkpt lat="46.50703" lon="5.39404">
        <ele>303</ele>
        <time>2021-05-29T06:44:48.738Z</time>
      </trkpt>
      <trkpt lat="46.50704" lon="5.39403">
        <ele>303</ele>
        <time>2021-05-29T06:44:49.737Z</time>
      </trkpt>
      <trkpt lat="46.50705" lon="5.39403">
        <ele>303</ele>
        <time>2021-05-29T06:44:50.738Z</time>
      </trkpt>
      <trkpt lat="46.50707" lon="5.39403">
        <ele>303</ele>
        <time>2021-05-29T06:44:51.738Z</time>
      </trkpt>
      <trkpt lat="46.50708" lon="5.39402">
        <ele>304</ele>
        <time>2021-05-29T06:44:52.738Z</time>
      </trkpt>
      <trkpt lat="46.50709" lon="5.39401">
        <ele>304</ele>
        <time>2021-05-29T06:44:53.738Z</time>
      </trkpt>
      <trkpt lat="46.5071" lon="5.39401">
        <ele>305</ele>
        <time>2021-05-29T06:44:54.738Z</time>
      </trkpt>
      <trkpt lat="46.50711" lon="5.394">
        <ele>306</ele>
        <time>2021-05-29T06:44:55.738Z</time>
      </trkpt>
      <trkpt lat="46.50711" lon="5.39399">
        <ele>306</ele>
        <time>2021-05-29T06:44:56.738Z</time>
      </trkpt>
      <trkpt lat="46.50713" lon="5.39399">
        <ele>307</ele>
        <time>2021-05-29T06:44:57.738Z</time>
      </trkpt>
      <trkpt lat="46.50714" lon="5.39399">
        <ele>307</ele>
        <time>2021-05-29T06:44:58.738Z</time>
      </trkpt>
      <trkpt lat="46.50715" lon="5.39399">
        <ele>307</ele>
        <time>2021-05-29T06:44:59.738Z</time>
      </trkpt>
      <trkpt lat="46.50715" lon="5.39399">
        <ele>307</ele>
        <time>2021-05-29T06:45:00.738Z</time>
      </trkpt>
      <trkpt lat="46.50716" lon="5.39399">
        <ele>307</ele>
        <time>2021-05-29T06:45:01.738Z</time>
      </trkpt>
      <trkpt lat="46.50717" lon="5.394">
        <ele>307</ele>
        <time>2021-05-29T06:45:02.738Z</time>
      </trkpt>
      <trkpt lat="46.50718" lon="5.39401">
        <ele>307</ele>
        <time>2021-05-29T06:45:03.738Z</time>
      </trkpt>
      <trkpt lat="46.50719" lon="5.39401">
        <ele>308</ele>
        <time>2021-05-29T06:45:04.738Z</time>
      </trkpt>
      <trkpt lat="46.50721" lon="5.39401">
        <ele>308</ele>
        <time>2021-05-29T06:45:05.738Z</time>
      </trkpt>
      <trkpt lat="46.50723" lon="5.39401">
        <ele>308</ele>
        <time>2021-05-29T06:45:06.738Z</time>
      </trkpt>
      <trkpt lat="46.50724" lon="5.394">
        <ele>308</ele>
        <time>2021-05-29T06:45:07.738Z</time>
      </trkpt>
      <trkpt lat="46.50725" lon="5.394">
        <ele>308</ele>
        <time>2021-05-29T06:45:08.738Z</time>
      </trkpt>
      <trkpt lat="46.50726" lon="5.39399">
        <ele>308</ele>
        <time>2021-05-29T06:45:09.738Z</time>
      </trkpt>
      <trkpt lat="46.50727" lon="5.39399">
        <ele>309</ele>
        <time>2021-05-29T06:45:10.738Z</time>
      </trkpt>
      <trkpt lat="46.50729" lon="5.39399">
        <ele>309</ele>
        <time>2021-05-29T06:45:11.738Z</time>
      </trkpt>
      <trkpt lat="46.5073" lon="5.39398">
        <ele>309</ele>
        <time>2021-05-29T06:45:12.738Z</time>
      </trkpt>
      <trkpt lat="46.50732" lon="5.39398">
        <ele>309</ele>
        <time>2021-05-29T06:45:13.738Z</time>
      </trkpt>
      <trkpt lat="46.50733" lon="5.39398">
        <ele>310</ele>
        <time>2021-05-29T06:45:14.738Z</time>
      </trkpt>
      <trkpt lat="46.50735" lon="5.39398">
        <ele>310</ele>
        <time>2021-05-29T06:45:15.738Z</time>
      </trkpt>
      <trkpt lat="46.50737" lon="5.39397">
        <ele>310</ele>
        <time>2021-05-29T06:45:16.738Z</time>
      </trkpt>
      <trkpt lat="46.50738" lon="5.39397">
        <ele>310</ele>
        <time>2021-05-29T06:45:17.738Z</time>
      </trkpt>
      <trkpt lat="46.5074" lon="5.39396">
        <ele>310</ele>
        <time>2021-05-29T06:45:18.738Z</time>
      </trkpt>
      <trkpt lat="46.50742" lon="5.39395">
        <ele>311</ele>
        <time>2021-05-29T06:45:19.738Z</time>
      </trkpt>
      <trkpt lat="46.50744" lon="5.39393">
        <ele>311</ele>
        <time>2021-05-29T06:45:20.738Z</time>
      </trkpt>
      <trkpt lat="46.50746" lon="5.39392">
        <ele>312</ele>
        <time>2021-05-29T06:45:21.738Z</time>
      </trkpt>
      <trkpt lat="46.50748" lon="5.39392">
        <ele>312</ele>
        <time>2021-05-29T06:45:22.737Z</time>
      </trkpt>
      <trkpt lat="46.5075" lon="5.39391">
        <ele>313</ele>
        <time>2021-05-29T06:45:23.738Z</time>
      </trkpt>
      <trkpt lat="46.50751" lon="5.39391">
        <ele>313</ele>
        <time>2021-05-29T06:45:24.738Z</time>
      </trkpt>
      <trkpt lat="46.50753" lon="5.39391">
        <ele>314</ele>
        <time>2021-05-29T06:45:25.738Z</time>
      </trkpt>
      <trkpt lat="46.50754" lon="5.39391">
        <ele>314</ele>
        <time>2021-05-29T06:45:26.738Z</time>
      </trkpt>
      <trkpt lat="46.50756" lon="5.39391">
        <ele>315</ele>
        <time>2021-05-29T06:45:27.737Z</time>
      </trkpt>
      <trkpt lat="46.50758" lon="5.3939">
        <ele>315</ele>
        <time>2021-05-29T06:45:28.738Z</time>
      </trkpt>
      <trkpt lat="46.50761" lon="5.39389">
        <ele>315</ele>
        <time>2021-05-29T06:45:29.738Z</time>
      </trkpt>
      <trkpt lat="46.50762" lon="5.39389">
        <ele>315</ele>
        <time>2021-05-29T06:45:30.738Z</time>
      </trkpt>
      <trkpt lat="46.50765" lon="5.39389">
        <ele>315</ele>
        <time>2021-05-29T06:45:31.738Z</time>
      </trkpt>
      <trkpt lat="46.50766" lon="5.39389">
        <ele>315</ele>
        <time>2021-05-29T06:45:32.737Z</time>
      </trkpt>
      <trkpt lat="46.50768" lon="5.39388">
        <ele>315</ele>
        <time>2021-05-29T06:45:33.737Z</time>
      </trkpt>
      <trkpt lat="46.5077" lon="5.39387">
        <ele>315</ele>
        <time>2021-05-29T06:45:34.738Z</time>
      </trkpt>
      <trkpt lat="46.50772" lon="5.39388">
        <ele>315</ele>
        <time>2021-05-29T06:45:35.738Z</time>
      </trkpt>
      <trkpt lat="46.50774" lon="5.39388">
        <ele>316</ele>
        <time>2021-05-29T06:45:36.738Z</time>
      </trkpt>
      <trkpt lat="46.50776" lon="5.39388">
        <ele>316</ele>
        <time>2021-05-29T06:45:37.738Z</time>
      </trkpt>
      <trkpt lat="46.50777" lon="5.39389">
        <ele>316</ele>
        <time>2021-05-29T06:45:38.738Z</time>
      </trkpt>
      <trkpt lat="46.50779" lon="5.39389">
        <ele>316</ele>
        <time>2021-05-29T06:45:39.738Z</time>
      </trkpt>
      <trkpt lat="46.5078" lon="5.3939">
        <ele>316</ele>
        <time>2021-05-29T06:45:40.738Z</time>
      </trkpt>
      <trkpt lat="46.50781" lon="5.39391">
        <ele>316</ele>
        <time>2021-05-29T06:45:41.738Z</time>
      </trkpt>
      <trkpt lat="46.50783" lon="5.3939">
        <ele>317</ele>
        <time>2021-05-29T06:45:42.738Z</time>
      </trkpt>
      <trkpt lat="46.50785" lon="5.3939">
        <ele>317</ele>
        <time>2021-05-29T06:45:43.738Z</time>
      </trkpt>
      <trkpt lat="46.50786" lon="5.39391">
        <ele>317</ele>
        <time>2021-05-29T06:45:44.738Z</time>
      </trkpt>
      <trkpt lat="46.50787" lon="5.39392">
        <ele>317</ele>
        <time>2021-05-29T06:45:45.738Z</time>
      </trkpt>
      <trkpt lat="46.50788" lon="5.39393">
        <ele>317</ele>
        <time>2021-05-29T06:45:46.738Z</time>
      </trkpt>
      <trkpt lat="46.5079" lon="5.39394">
        <ele>317</ele>
        <time>2021-05-29T06:45:47.738Z</time>
      </trkpt>
      <trkpt lat="46.50792" lon="5.39395">
        <ele>317</ele>
        <time>2021-05-29T06:45:48.738Z</time>
      </trkpt>
      <trkpt lat="46.50794" lon="5.39395">
        <ele>317</ele>
        <time>2021-05-29T06:45:49.738Z</time>
      </trkpt>
      <trkpt lat="46.50795" lon="5.39395">
        <ele>318</ele>
        <time>2021-05-29T06:45:50.738Z</time>
      </trkpt>
      <trkpt lat="46.50797" lon="5.39396">
        <ele>318</ele>
        <time>2021-05-29T06:45:51.738Z</time>
      </trkpt>
      <trkpt lat="46.50799" lon="5.39397">
        <ele>318</ele>
        <time>2021-05-29T06:45:52.738Z</time>
      </trkpt>
      <trkpt lat="46.508" lon="5.39398">
        <ele>319</ele>
        <time>2021-05-29T06:45:53.737Z</time>
      </trkpt>
      <trkpt lat="46.50802" lon="5.39398">
        <ele>319</ele>
        <time>2021-05-29T06:45:54.738Z</time>
      </trkpt>
      <trkpt lat="46.50804" lon="5.39399">
        <ele>319</ele>
        <time>2021-05-29T06:45:55.738Z</time>
      </trkpt>
      <trkpt lat="46.50806" lon="5.394">
        <ele>319</ele>
        <time>2021-05-29T06:45:56.738Z</time>
      </trkpt>
      <trkpt lat="46.50808" lon="5.39401">
        <ele>320</ele>
        <time>2021-05-29T06:45:57.738Z</time>
      </trkpt>
      <trkpt lat="46.5081" lon="5.39402">
        <ele>320</ele>
        <time>2021-05-29T06:45:58.738Z</time>
      </trkpt>
      <trkpt lat="46.50811" lon="5.39403">
        <ele>320</ele>
        <time>2021-05-29T06:45:59.738Z</time>
      </trkpt>
      <trkpt lat="46.50812" lon="5.39404">
        <ele>321</ele>
        <time>2021-05-29T06:46:00.738Z</time>
      </trkpt>
      <trkpt lat="46.50814" lon="5.39406">
        <ele>321</ele>
        <time>2021-05-29T06:46:01.738Z</time>
      </trkpt>
      <trkpt lat="46.50816" lon="5.39408">
        <ele>321</ele>
        <time>2021-05-29T06:46:02.738Z</time>
      </trkpt>
      <trkpt lat="46.50818" lon="5.39411">
        <ele>321</ele>
        <time>2021-05-29T06:46:03.738Z</time>
      </trkpt>
      <trkpt lat="46.50818" lon="5.39413">
        <ele>321</ele>
        <time>2021-05-29T06:46:04.738Z</time>
      </trkpt>
      <trkpt lat="46.5082" lon="5.39416">
        <ele>322</ele>
        <time>2021-05-29T06:46:05.738Z</time>
      </trkpt>
      <trkpt lat="46.50821" lon="5.3942">
        <ele>322</ele>
        <time>2021-05-29T06:46:06.737Z</time>
      </trkpt>
      <trkpt lat="46.50823" lon="5.39424">
        <ele>322</ele>
        <time>2021-05-29T06:46:07.738Z</time>
      </trkpt>
      <trkpt lat="46.50825" lon="5.39427">
        <ele>322</ele>
        <time>2021-05-29T06:46:08.738Z</time>
      </trkpt>
      <trkpt lat="46.50826" lon="5.3943">
        <ele>322</ele>
        <time>2021-05-29T06:46:09.738Z</time>
      </trkpt>
      <trkpt lat="46.50827" lon="5.39433">
        <ele>323</ele>
        <time>2021-05-29T06:46:10.738Z</time>
      </trkpt>
      <trkpt lat="46.50828" lon="5.39436">
        <ele>323</ele>
        <time>2021-05-29T06:46:11.738Z</time>
      </trkpt>
      <trkpt lat="46.5083" lon="5.39439">
        <ele>323</ele>
        <time>2021-05-29T06:46:12.738Z</time>
      </trkpt>
      <trkpt lat="46.50831" lon="5.39442">
        <ele>324</ele>
        <time>2021-05-29T06:46:13.738Z</time>
      </trkpt>
      <trkpt lat="46.50831" lon="5.39444">
        <ele>324</ele>
        <time>2021-05-29T06:46:14.738Z</time>
      </trkpt>
      <trkpt lat="46.5083" lon="5.39447">
        <ele>325</ele>
        <time>2021-05-29T06:46:15.738Z</time>
      </trkpt>
      <trkpt lat="46.5083" lon="5.39449">
        <ele>325</ele>
        <time>2021-05-29T06:46:16.738Z</time>
      </trkpt>
      <trkpt lat="46.50829" lon="5.39452">
        <ele>325</ele>
        <time>2021-05-29T06:46:17.738Z</time>
      </trkpt>
      <trkpt lat="46.50829" lon="5.39454">
        <ele>326</ele>
        <time>2021-05-29T06:46:18.738Z</time>
      </trkpt>
      <trkpt lat="46.50828" lon="5.39455">
        <ele>326</ele>
        <time>2021-05-29T06:46:19.738Z</time>
      </trkpt>
      <trkpt lat="46.50827" lon="5.39457">
        <ele>327</ele>
        <time>2021-05-29T06:46:20.738Z</time>
      </trkpt>
      <trkpt lat="46.50827" lon="5.39459">
        <ele>327</ele>
        <time>2021-05-29T06:46:21.738Z</time>
      </trkpt>
      <trkpt lat="46.50828" lon="5.39461">
        <ele>327</ele>
        <time>2021-05-29T06:46:22.737Z</time>
      </trkpt>
      <trkpt lat="46.50828" lon="5.39463">
        <ele>328</ele>
        <time>2021-05-29T06:46:23.737Z</time>
      </trkpt>
      <trkpt lat="46.50828" lon="5.39464">
        <ele>328</ele>
        <time>2021-05-29T06:46:24.737Z</time>
      </trkpt>
      <trkpt lat="46.50828" lon="5.39465">
        <ele>328</ele>
        <time>2021-05-29T06:46:25.737Z</time>
      </trkpt>
      <trkpt lat="46.50829" lon="5.39467">
        <ele>328</ele>
        <time>2021-05-29T06:46:26.737Z</time>
      </trkpt>
      <trkpt lat="46.50828" lon="5.39468">
        <ele>329</ele>
        <time>2021-05-29T06:46:27.737Z</time>
      </trkpt>
      <trkpt lat="46.50828" lon="5.39469">
        <ele>329</ele>
        <time>2021-05-29T06:46:28.737Z</time>
      </trkpt>
      <trkpt lat="46.50827" lon="5.3947">
        <ele>328</ele>
        <time>2021-05-29T06:46:29.738Z</time>
      </trkpt>
      <trkpt lat="46.50827" lon="5.39472">
        <ele>328</ele>
        <time>2021-05-29T06:46:30.738Z</time>
      </trkpt>
      <trkpt lat="46.50828" lon="5.39473">
        <ele>328</ele>
        <time>2021-05-29T06:46:31.738Z</time>
      </trkpt>
      <trkpt lat="46.50829" lon="5.39475">
        <ele>328</ele>
        <time>2021-05-29T06:46:32.738Z</time>
      </trkpt>
      <trkpt lat="46.5083" lon="5.39477">
        <ele>328</ele>
        <time>2021-05-29T06:46:33.738Z</time>
      </trkpt>
      <trkpt lat="46.5083" lon="5.39479">
        <ele>328</ele>
        <time>2021-05-29T06:46:34.738Z</time>
      </trkpt>
      <trkpt lat="46.50831" lon="5.3948">
        <ele>328</ele>
        <time>2021-05-29T06:46:35.738Z</time>
      </trkpt>
      <trkpt lat="46.50832" lon="5.39481">
        <ele>328</ele>
        <time>2021-05-29T06:46:36.738Z</time>
      </trkpt>
      <trkpt lat="46.50833" lon="5.39482">
        <ele>328</ele>
        <time>2021-05-29T06:46:37.738Z</time>
      </trkpt>
      <trkpt lat="46.50834" lon="5.39484">
        <ele>328</ele>
        <time>2021-05-29T06:46:38.738Z</time>
      </trkpt>
      <trkpt lat="46.50834" lon="5.39485">
        <ele>328</ele>
        <time>2021-05-29T06:46:39.738Z</time>
      </trkpt>
      <trkpt lat="46.50834" lon="5.39487">
        <ele>329</ele>
        <time>2021-05-29T06:46:40.738Z</time>
      </trkpt>
      <trkpt lat="46.50834" lon="5.39488">
        <ele>329</ele>
        <time>2021-05-29T06:46:41.738Z</time>
      </trkpt>
      <trkpt lat="46.50835" lon="5.39489">
        <ele>330</ele>
        <time>2021-05-29T06:46:42.738Z</time>
      </trkpt>
      <trkpt lat="46.50836" lon="5.39491">
        <ele>331</ele>
        <time>2021-05-29T06:46:43.738Z</time>
      </trkpt>
      <trkpt lat="46.50836" lon="5.39492">
        <ele>332</ele>
        <time>2021-05-29T06:46:44.738Z</time>
      </trkpt>
      <trkpt lat="46.50837" lon="5.39493">
        <ele>332</ele>
        <time>2021-05-29T06:46:45.738Z</time>
      </trkpt>
      <trkpt lat="46.50839" lon="5.39495">
        <ele>333</ele>
        <time>2021-05-29T06:46:46.738Z</time>
      </trkpt>
      <trkpt lat="46.5084" lon="5.39496">
        <ele>334</ele>
        <time>2021-05-29T06:46:47.737Z</time>
      </trkpt>
      <trkpt lat="46.5084" lon="5.39497">
        <ele>335</ele>
        <time>2021-05-29T06:46:48.738Z</time>
      </trkpt>
      <trkpt lat="46.50841" lon="5.39498">
        <ele>336</ele>
        <time>2021-05-29T06:46:49.738Z</time>
      </trkpt>
      <trkpt lat="46.50842" lon="5.395">
        <ele>337</ele>
        <time>2021-05-29T06:46:50.738Z</time>
      </trkpt>
      <trkpt lat="46.50844" lon="5.39501">
        <ele>338</ele>
        <time>2021-05-29T06:46:51.738Z</time>
      </trkpt>
      <trkpt lat="46.50843" lon="5.39502">
        <ele>339</ele>
        <time>2021-05-29T06:46:52.738Z</time>
      </trkpt>
      <trkpt lat="46.50844" lon="5.39503">
        <ele>339</ele>
        <time>2021-05-29T06:46:53.738Z</time>
      </trkpt>
      <trkpt lat="46.50845" lon="5.39505">
        <ele>340</ele>
        <time>2021-05-29T06:46:54.738Z</time>
      </trkpt>
      <trkpt lat="46.50845" lon="5.39507">
        <ele>341</ele>
        <time>2021-05-29T06:46:55.738Z</time>
      </trkpt>
      <trkpt lat="46.50845" lon="5.39508">
        <ele>341</ele>
        <time>2021-05-29T06:46:56.738Z</time>
      </trkpt>
      <trkpt lat="46.50844" lon="5.39509">
        <ele>341</ele>
        <time>2021-05-29T06:46:57.738Z</time>
      </trkpt>
      <trkpt lat="46.50845" lon="5.3951">
        <ele>342</ele>
        <time>2021-05-29T06:46:58.737Z</time>
      </trkpt>
      <trkpt lat="46.50845" lon="5.39511">
        <ele>342</ele>
        <time>2021-05-29T06:46:59.738Z</time>
      </trkpt>
      <trkpt lat="46.50846" lon="5.39513">
        <ele>342</ele>
        <time>2021-05-29T06:47:00.738Z</time>
      </trkpt>
      <trkpt lat="46.50846" lon="5.39516">
        <ele>342</ele>
        <time>2021-05-29T06:47:01.738Z</time>
      </trkpt>
      <trkpt lat="46.50846" lon="5.39517">
        <ele>341</ele>
        <time>2021-05-29T06:47:02.738Z</time>
      </trkpt>
      <trkpt lat="46.50845" lon="5.39519">
        <ele>341</ele>
        <time>2021-05-29T06:47:03.738Z</time>
      </trkpt>
      <trkpt lat="46.50846" lon="5.3952">
        <ele>341</ele>
        <time>2021-05-29T06:47:04.738Z</time>
      </trkpt>
      <trkpt lat="46.50847" lon="5.39522">
        <ele>341</ele>
        <time>2021-05-29T06:47:05.738Z</time>
      </trkpt>
      <trkpt lat="46.50848" lon="5.39523">
        <ele>341</ele>
        <time>2021-05-29T06:47:06.738Z</time>
      </trkpt>
      <trkpt lat="46.50849" lon="5.39524">
        <ele>341</ele>
        <time>2021-05-29T06:47:07.738Z</time>
      </trkpt>
      <trkpt lat="46.5085" lon="5.39526">
        <ele>342</ele>
        <time>2021-05-29T06:47:08.738Z</time>
      </trkpt>
      <trkpt lat="46.50852" lon="5.39528">
        <ele>342</ele>
        <time>2021-05-29T06:47:09.738Z</time>
      </trkpt>
      <trkpt lat="46.50853" lon="5.3953">
        <ele>343</ele>
        <time>2021-05-29T06:47:10.738Z</time>
      </trkpt>
      <trkpt lat="46.50853" lon="5.39532">
        <ele>344</ele>
        <time>2021-05-29T06:47:11.738Z</time>
      </trkpt>
      <trkpt lat="46.50852" lon="5.39535">
        <ele>344</ele>
        <time>2021-05-29T06:47:12.738Z</time>
      </trkpt>
      <trkpt lat="46.50851" lon="5.39536">
        <ele>344</ele>
        <time>2021-05-29T06:47:13.738Z</time>
      </trkpt>
      <trkpt lat="46.50851" lon="5.39538">
        <ele>345</ele>
        <time>2021-05-29T06:47:14.738Z</time>
      </trkpt>
      <trkpt lat="46.50851" lon="5.39539">
        <ele>345</ele>
        <time>2021-05-29T06:47:15.738Z</time>
      </trkpt>
      <trkpt lat="46.50851" lon="5.39541">
        <ele>345</ele>
        <time>2021-05-29T06:47:16.738Z</time>
      </trkpt>
      <trkpt lat="46.50851" lon="5.39542">
        <ele>345</ele>
        <time>2021-05-29T06:47:17.738Z</time>
      </trkpt>
      <trkpt lat="46.50852" lon="5.39544">
        <ele>346</ele>
        <time>2021-05-29T06:47:18.738Z</time>
      </trkpt>
      <trkpt lat="46.50852" lon="5.39546">
        <ele>346</ele>
        <time>2021-05-29T06:47:19.737Z</time>
      </trkpt>
      <trkpt lat="46.50852" lon="5.39547">
        <ele>346</ele>
        <time>2021-05-29T06:47:20.737Z</time>
      </trkpt>
      <trkpt lat="46.50852" lon="5.39548">
        <ele>346</ele>
        <time>2021-05-29T06:47:21.737Z</time>
      </trkpt>
      <trkpt lat="46.50852" lon="5.39549">
        <ele>346</ele>
        <time>2021-05-29T06:47:22.738Z</time>
      </trkpt>
      <trkpt lat="46.50852" lon="5.3955">
        <ele>346</ele>
        <time>2021-05-29T06:47:23.738Z</time>
      </trkpt>
      <trkpt lat="46.50851" lon="5.39552">
        <ele>346</ele>
        <time>2021-05-29T06:47:24.738Z</time>
      </trkpt>
      <trkpt lat="46.50851" lon="5.39554">
        <ele>346</ele>
        <time>2021-05-29T06:47:25.738Z</time>
      </trkpt>
      <trkpt lat="46.50851" lon="5.39555">
        <ele>346</ele>
        <time>2021-05-29T06:47:26.738Z</time>
      </trkpt>
      <trkpt lat="46.50851" lon="5.39556">
        <ele>346</ele>
        <time>2021-05-29T06:47:27.738Z</time>
      </trkpt>
      <trkpt lat="46.50851" lon="5.39558">
        <ele>347</ele>
        <time>2021-05-29T06:47:28.738Z</time>
      </trkpt>
      <trkpt lat="46.50851" lon="5.39559">
        <ele>347</ele>
        <time>2021-05-29T06:47:29.738Z</time>
      </trkpt>
      <trkpt lat="46.50851" lon="5.39561">
        <ele>347</ele>
        <time>2021-05-29T06:47:30.738Z</time>
      </trkpt>
      <trkpt lat="46.50851" lon="5.39562">
        <ele>347</ele>
        <time>2021-05-29T06:47:31.738Z</time>
      </trkpt>
      <trkpt lat="46.50851" lon="5.39564">
        <ele>347</ele>
        <time>2021-05-29T06:47:32.738Z</time>
      </trkpt>
      <trkpt lat="46.50851" lon="5.39566">
        <ele>347</ele>
        <time>2021-05-29T06:47:33.738Z</time>
      </trkpt>
      <trkpt lat="46.50851" lon="5.39567">
        <ele>347</ele>
        <time>2021-05-29T06:47:34.738Z</time>
      </trkpt>
      <trkpt lat="46.5085" lon="5.39569">
        <ele>347</ele>
        <time>2021-05-29T06:47:35.738Z</time>
      </trkpt>
      <trkpt lat="46.5085" lon="5.3957">
        <ele>347</ele>
        <time>2021-05-29T06:47:36.738Z</time>
      </trkpt>
      <trkpt lat="46.5085" lon="5.39572">
        <ele>347</ele>
        <time>2021-05-29T06:47:37.738Z</time>
      </trkpt>
      <trkpt lat="46.50851" lon="5.39574">
        <ele>347</ele>
        <time>2021-05-29T06:47:38.738Z</time>
      </trkpt>
      <trkpt lat="46.50851" lon="5.39577">
        <ele>347</ele>
        <time>2021-05-29T06:47:39.738Z</time>
      </trkpt>
      <trkpt lat="46.50851" lon="5.3958">
        <ele>348</ele>
        <time>2021-05-29T06:47:40.738Z</time>
      </trkpt>
      <trkpt lat="46.5085" lon="5.39582">
        <ele>348</ele>
        <time>2021-05-29T06:47:41.738Z</time>
      </trkpt>
      <trkpt lat="46.5085" lon="5.39584">
        <ele>349</ele>
        <time>2021-05-29T06:47:42.738Z</time>
      </trkpt>
      <trkpt lat="46.5085" lon="5.39586">
        <ele>349</ele>
        <time>2021-05-29T06:47:43.738Z</time>
      </trkpt>
      <trkpt lat="46.5085" lon="5.39588">
        <ele>350</ele>
        <time>2021-05-29T06:47:44.738Z</time>
      </trkpt>
      <trkpt lat="46.50851" lon="5.39589">
        <ele>350</ele>
        <time>2021-05-29T06:47:45.738Z</time>
      </trkpt>
      <trkpt lat="46.50851" lon="5.39592">
        <ele>350</ele>
        <time>2021-05-29T06:47:46.738Z</time>
      </trkpt>
      <trkpt lat="46.50851" lon="5.39593">
        <ele>350</ele>
        <time>2021-05-29T06:47:47.738Z</time>
      </trkpt>
      <trkpt lat="46.50851" lon="5.39595">
        <ele>351</ele>
        <time>2021-05-29T06:47:48.738Z</time>
      </trkpt>
      <trkpt lat="46.50851" lon="5.39596">
        <ele>351</ele>
        <time>2021-05-29T06:47:49.738Z</time>
      </trkpt>
      <trkpt lat="46.50851" lon="5.39597">
        <ele>351</ele>
        <time>2021-05-29T06:47:50.738Z</time>
      </trkpt>
      <trkpt lat="46.50851" lon="5.39599">
        <ele>351</ele>
        <time>2021-05-29T06:47:51.738Z</time>
      </trkpt>
      <trkpt lat="46.50852" lon="5.39601">
        <ele>351</ele>
        <time>2021-05-29T06:47:52.738Z</time>
      </trkpt>
      <trkpt lat="46.50852" lon="5.39603">
        <ele>352</ele>
        <time>2021-05-29T06:47:53.738Z</time>
      </trkpt>
      <trkpt lat="46.50852" lon="5.39605">
        <ele>352</ele>
        <time>2021-05-29T06:47:54.737Z</time>
      </trkpt>
      <trkpt lat="46.50852" lon="5.39606">
        <ele>352</ele>
        <time>2021-05-29T06:47:55.738Z</time>
      </trkpt>
      <trkpt lat="46.50852" lon="5.39607">
        <ele>353</ele>
        <time>2021-05-29T06:47:56.738Z</time>
      </trkpt>
      <trkpt lat="46.50852" lon="5.39609">
        <ele>353</ele>
        <time>2021-05-29T06:47:57.738Z</time>
      </trkpt>
      <trkpt lat="46.50852" lon="5.39611">
        <ele>353</ele>
        <time>2021-05-29T06:47:58.738Z</time>
      </trkpt>
      <trkpt lat="46.50852" lon="5.39613">
        <ele>353</ele>
        <time>2021-05-29T06:47:59.738Z</time>
      </trkpt>
      <trkpt lat="46.50852" lon="5.39616">
        <ele>353</ele>
        <time>2021-05-29T06:48:00.738Z</time>
      </trkpt>
      <trkpt lat="46.50852" lon="5.39618">
        <ele>354</ele>
        <time>2021-05-29T06:48:01.738Z</time>
      </trkpt>
      <trkpt lat="46.50853" lon="5.39619">
        <ele>354</ele>
        <time>2021-05-29T06:48:02.738Z</time>
      </trkpt>
      <trkpt lat="46.50854" lon="5.39621">
        <ele>354</ele>
        <time>2021-05-29T06:48:03.738Z</time>
      </trkpt>
      <trkpt lat="46.50854" lon="5.39622">
        <ele>354</ele>
        <time>2021-05-29T06:48:04.738Z</time>
      </trkpt>
      <trkpt lat="46.50854" lon="5.39623">
        <ele>355</ele>
        <time>2021-05-29T06:48:05.737Z</time>
      </trkpt>
      <trkpt lat="46.50854" lon="5.39625">
        <ele>355</ele>
        <time>2021-05-29T06:48:06.738Z</time>
      </trkpt>
      <trkpt lat="46.50854" lon="5.39627">
        <ele>355</ele>
        <time>2021-05-29T06:48:07.738Z</time>
      </trkpt>
      <trkpt lat="46.50853" lon="5.39629">
        <ele>355</ele>
        <time>2021-05-29T06:48:08.737Z</time>
      </trkpt>
      <trkpt lat="46.50852" lon="5.39632">
        <ele>355</ele>
        <time>2021-05-29T06:48:09.737Z</time>
      </trkpt>
      <trkpt lat="46.50851" lon="5.39634">
        <ele>355</ele>
        <time>2021-05-29T06:48:10.738Z</time>
      </trkpt>
      <trkpt lat="46.5085" lon="5.39637">
        <ele>355</ele>
        <time>2021-05-29T06:48:11.738Z</time>
      </trkpt>
      <trkpt lat="46.50849" lon="5.39638">
        <ele>355</ele>
        <time>2021-05-29T06:48:12.738Z</time>
      </trkpt>
      <trkpt lat="46.50849" lon="5.3964">
        <ele>355</ele>
        <time>2021-05-29T06:48:13.738Z</time>
      </trkpt>
      <trkpt lat="46.50849" lon="5.39642">
        <ele>356</ele>
        <time>2021-05-29T06:48:14.737Z</time>
      </trkpt>
      <trkpt lat="46.50848" lon="5.39643">
        <ele>356</ele>
        <time>2021-05-29T06:48:15.738Z</time>
      </trkpt>
      <trkpt lat="46.50849" lon="5.39645">
        <ele>356</ele>
        <time>2021-05-29T06:48:16.738Z</time>
      </trkpt>
      <trkpt lat="46.5085" lon="5.39647">
        <ele>357</ele>
        <time>2021-05-29T06:48:17.738Z</time>
      </trkpt>
      <trkpt lat="46.50851" lon="5.39648">
        <ele>357</ele>
        <time>2021-05-29T06:48:18.737Z</time>
      </trkpt>
      <trkpt lat="46.50851" lon="5.3965">
        <ele>358</ele>
        <time>2021-05-29T06:48:19.737Z</time>
      </trkpt>
      <trkpt lat="46.50851" lon="5.39651">
        <ele>358</ele>
        <time>2021-05-29T06:48:20.738Z</time>
      </trkpt>
      <trkpt lat="46.50852" lon="5.39652">
        <ele>359</ele>
        <time>2021-05-29T06:48:21.738Z</time>
      </trkpt>
      <trkpt lat="46.50852" lon="5.39653">
        <ele>359</ele>
        <time>2021-05-29T06:48:22.738Z</time>
      </trkpt>
      <trkpt lat="46.50852" lon="5.39655">
        <ele>360</ele>
        <time>2021-05-29T06:48:23.738Z</time>
      </trkpt>
      <trkpt lat="46.50852" lon="5.39657">
        <ele>360</ele>
        <time>2021-05-29T06:48:24.737Z</time>
      </trkpt>
      <trkpt lat="46.50852" lon="5.39659">
        <ele>361</ele>
        <time>2021-05-29T06:48:25.738Z</time>
      </trkpt>
      <trkpt lat="46.50852" lon="5.3966">
        <ele>361</ele>
        <time>2021-05-29T06:48:26.737Z</time>
      </trkpt>
      <trkpt lat="46.50852" lon="5.39662">
        <ele>362</ele>
        <time>2021-05-29T06:48:27.737Z</time>
      </trkpt>
      <trkpt lat="46.50852" lon="5.39664">
        <ele>362</ele>
        <time>2021-05-29T06:48:28.738Z</time>
      </trkpt>
      <trkpt lat="46.50852" lon="5.39665">
        <ele>362</ele>
        <time>2021-05-29T06:48:29.738Z</time>
      </trkpt>
      <trkpt lat="46.50852" lon="5.39667">
        <ele>362</ele>
        <time>2021-05-29T06:48:30.738Z</time>
      </trkpt>
      <trkpt lat="46.50853" lon="5.39668">
        <ele>363</ele>
        <time>2021-05-29T06:48:31.738Z</time>
      </trkpt>
      <trkpt lat="46.50853" lon="5.3967">
        <ele>363</ele>
        <time>2021-05-29T06:48:32.738Z</time>
      </trkpt>
      <trkpt lat="46.50853" lon="5.39671">
        <ele>363</ele>
        <time>2021-05-29T06:48:33.738Z</time>
      </trkpt>
      <trkpt lat="46.50853" lon="5.39672">
        <ele>363</ele>
        <time>2021-05-29T06:48:34.738Z</time>
      </trkpt>
      <trkpt lat="46.50853" lon="5.39674">
        <ele>363</ele>
        <time>2021-05-29T06:48:35.738Z</time>
      </trkpt>
      <trkpt lat="46.50853" lon="5.39677">
        <ele>363</ele>
        <time>2021-05-29T06:48:36.738Z</time>
      </trkpt>
      <trkpt lat="46.50854" lon="5.39679">
        <ele>363</ele>
        <time>2021-05-29T06:48:37.738Z</time>
      </trkpt>
      <trkpt lat="46.50854" lon="5.39681">
        <ele>363</ele>
        <time>2021-05-29T06:48:38.738Z</time>
      </trkpt>
      <trkpt lat="46.50853" lon="5.39683">
        <ele>363</ele>
        <time>2021-05-29T06:48:39.738Z</time>
      </trkpt>
      <trkpt lat="46.50853" lon="5.39684">
        <ele>362</ele>
        <time>2021-05-29T06:48:40.738Z</time>
      </trkpt>
      <trkpt lat="46.50852" lon="5.39686">
        <ele>362</ele>
        <time>2021-05-29T06:48:41.738Z</time>
      </trkpt>
      <trkpt lat="46.50853" lon="5.39688">
        <ele>362</ele>
        <time>2021-05-29T06:48:42.738Z</time>
      </trkpt>
      <trkpt lat="46.50853" lon="5.39689">
        <ele>362</ele>
        <time>2021-05-29T06:48:43.738Z</time>
      </trkpt>
      <trkpt lat="46.50853" lon="5.39691">
        <ele>362</ele>
        <time>2021-05-29T06:48:44.738Z</time>
      </trkpt>
      <trkpt lat="46.50853" lon="5.39692">
        <ele>362</ele>
        <time>2021-05-29T06:48:45.738Z</time>
      </trkpt>
      <trkpt lat="46.50853" lon="5.39693">
        <ele>362</ele>
        <time>2021-05-29T06:48:46.738Z</time>
      </trkpt>
      <trkpt lat="46.50853" lon="5.39695">
        <ele>362</ele>
        <time>2021-05-29T06:48:47.738Z</time>
      </trkpt>
      <trkpt lat="46.50853" lon="5.39696">
        <ele>362</ele>
        <time>2021-05-29T06:48:48.738Z</time>
      </trkpt>
      <trkpt lat="46.50853" lon="5.39696">
        <ele>363</ele>
        <time>2021-05-29T06:48:49.738Z</time>
      </trkpt>
      <trkpt lat="46.50854" lon="5.39697">
        <ele>363</ele>
        <time>2021-05-29T06:48:50.738Z</time>
      </trkpt>
      <trkpt lat="46.50856" lon="5.39699">
        <ele>364</ele>
        <time>2021-05-29T06:48:51.737Z</time>
      </trkpt>
      <trkpt lat="46.50856" lon="5.397">
        <ele>364</ele>
        <time>2021-05-29T06:48:52.738Z</time>
      </trkpt>
      <trkpt lat="46.50856" lon="5.39701">
        <ele>365</ele>
        <time>2021-05-29T06:48:53.738Z</time>
      </trkpt>
      <trkpt lat="46.50857" lon="5.39702">
        <ele>366</ele>
        <time>2021-05-29T06:48:54.738Z</time>
      </trkpt>
      <trkpt lat="46.50857" lon="5.39702">
        <ele>366</ele>
        <time>2021-05-29T06:48:55.738Z</time>
      </trkpt>
      <trkpt lat="46.50857" lon="5.39703">
        <ele>367</ele>
        <time>2021-05-29T06:48:56.738Z</time>
      </trkpt>
      <trkpt lat="46.50858" lon="5.39703">
        <ele>367</ele>
        <time>2021-05-29T06:48:57.738Z</time>
      </trkpt>
      <trkpt lat="46.50859" lon="5.39703">
        <ele>367</ele>
        <time>2021-05-29T06:48:58.738Z</time>
      </trkpt>
      <trkpt lat="46.5086" lon="5.39704">
        <ele>368</ele>
        <time>2021-05-29T06:48:59.738Z</time>
      </trkpt>
      <trkpt lat="46.50862" lon="5.39704">
        <ele>368</ele>
        <time>2021-05-29T06:49:00.738Z</time>
      </trkpt>
      <trkpt lat="46.50863" lon="5.39705">
        <ele>368</ele>
        <time>2021-05-29T06:49:01.738Z</time>
      </trkpt>
      <trkpt lat="46.50864" lon="5.39705">
        <ele>368</ele>
        <time>2021-05-29T06:49:02.738Z</time>
      </trkpt>
      <trkpt lat="46.50865" lon="5.39705">
        <ele>369</ele>
        <time>2021-05-29T06:49:03.738Z</time>
      </trkpt>
      <trkpt lat="46.50866" lon="5.39705">
        <ele>369</ele>
        <time>2021-05-29T06:49:04.737Z</time>
      </trkpt>
      <trkpt lat="46.50867" lon="5.39704">
        <ele>369</ele>
        <time>2021-05-29T06:49:05.738Z</time>
      </trkpt>
      <trkpt lat="46.50869" lon="5.39703">
        <ele>370</ele>
        <time>2021-05-29T06:49:06.738Z</time>
      </trkpt>
      <trkpt lat="46.5087" lon="5.39703">
        <ele>370</ele>
        <time>2021-05-29T06:49:07.738Z</time>
      </trkpt>
      <trkpt lat="46.50871" lon="5.39702">
        <ele>370</ele>
        <time>2021-05-29T06:49:08.738Z</time>
      </trkpt>
      <trkpt lat="46.50872" lon="5.39702">
        <ele>371</ele>
        <time>2021-05-29T06:49:09.738Z</time>
      </trkpt>
      <trkpt lat="46.50873" lon="5.39701">
        <ele>371</ele>
        <time>2021-05-29T06:49:10.738Z</time>
      </trkpt>
      <trkpt lat="46.50874" lon="5.397">
        <ele>371</ele>
        <time>2021-05-29T06:49:11.738Z</time>
      </trkpt>
      <trkpt lat="46.50875" lon="5.39699">
        <ele>371</ele>
        <time>2021-05-29T06:49:12.738Z</time>
      </trkpt>
      <trkpt lat="46.50876" lon="5.39698">
        <ele>371</ele>
        <time>2021-05-29T06:49:13.738Z</time>
      </trkpt>
      <trkpt lat="46.50876" lon="5.39696">
        <ele>371</ele>
        <time>2021-05-29T06:49:14.738Z</time>
      </trkpt>
      <trkpt lat="46.50877" lon="5.39694">
        <ele>371</ele>
        <time>2021-05-29T06:49:15.738Z</time>
      </trkpt>
      <trkpt lat="46.50878" lon="5.39694">
        <ele>371</ele>
        <time>2021-05-29T06:49:16.738Z</time>
      </trkpt>
      <trkpt lat="46.5088" lon="5.39693">
        <ele>371</ele>
        <time>2021-05-29T06:49:17.738Z</time>
      </trkpt>
      <trkpt lat="46.50882" lon="5.39691">
        <ele>371</ele>
        <time>2021-05-29T06:49:18.738Z</time>
      </trkpt>
      <trkpt lat="46.50882" lon="5.39689">
        <ele>371</ele>
        <time>2021-05-29T06:49:19.737Z</time>
      </trkpt>
      <trkpt lat="46.50883" lon="5.39688">
        <ele>371</ele>
        <time>2021-05-29T06:49:20.738Z</time>
      </trkpt>
      <trkpt lat="46.50884" lon="5.39687">
        <ele>371</ele>
        <time>2021-05-29T06:49:21.738Z</time>
      </trkpt>
      <trkpt lat="46.50886" lon="5.39686">
        <ele>370</ele>
        <time>2021-05-29T06:49:22.738Z</time>
      </trkpt>
      <trkpt lat="46.50886" lon="5.39686">
        <ele>370</ele>
        <time>2021-05-29T06:49:23.738Z</time>
      </trkpt>
      <trkpt lat="46.50888" lon="5.39685">
        <ele>370</ele>
        <time>2021-05-29T06:49:24.738Z</time>
      </trkpt>
      <trkpt lat="46.50888" lon="5.39684">
        <ele>369</ele>
        <time>2021-05-29T06:49:25.738Z</time>
      </trkpt>
      <trkpt lat="46.50889" lon="5.39684">
        <ele>369</ele>
        <time>2021-05-29T06:49:26.738Z</time>
      </trkpt>
      <trkpt lat="46.5089" lon="5.39682">
        <ele>369</ele>
        <time>2021-05-29T06:49:27.738Z</time>
      </trkpt>
      <trkpt lat="46.50891" lon="5.39681">
        <ele>369</ele>
        <time>2021-05-29T06:49:28.738Z</time>
      </trkpt>
      <trkpt lat="46.50893" lon="5.39679">
        <ele>369</ele>
        <time>2021-05-29T06:49:29.738Z</time>
      </trkpt>
      <trkpt lat="46.50895" lon="5.39678">
        <ele>369</ele>
        <time>2021-05-29T06:49:30.738Z</time>
      </trkpt>
      <trkpt lat="46.50895" lon="5.39676">
        <ele>370</ele>
        <time>2021-05-29T06:49:31.738Z</time>
      </trkpt>
      <trkpt lat="46.50897" lon="5.39674">
        <ele>370</ele>
        <time>2021-05-29T06:49:32.738Z</time>
      </trkpt>
      <trkpt lat="46.50898" lon="5.39672">
        <ele>370</ele>
        <time>2021-05-29T06:49:33.738Z</time>
      </trkpt>
      <trkpt lat="46.509" lon="5.39671">
        <ele>370</ele>
        <time>2021-05-29T06:49:34.737Z</time>
      </trkpt>
      <trkpt lat="46.50901" lon="5.3967">
        <ele>370</ele>
        <time>2021-05-29T06:49:35.738Z</time>
      </trkpt>
      <trkpt lat="46.50902" lon="5.39668">
        <ele>370</ele>
        <time>2021-05-29T06:49:36.738Z</time>
      </trkpt>
      <trkpt lat="46.50903" lon="5.39666">
        <ele>370</ele>
        <time>2021-05-29T06:49:37.738Z</time>
      </trkpt>
      <trkpt lat="46.50904" lon="5.39664">
        <ele>370</ele>
        <time>2021-05-29T06:49:38.738Z</time>
      </trkpt>
      <trkpt lat="46.50906" lon="5.39662">
        <ele>371</ele>
        <time>2021-05-29T06:49:39.738Z</time>
      </trkpt>
      <trkpt lat="46.50907" lon="5.39661">
        <ele>371</ele>
        <time>2021-05-29T06:49:40.738Z</time>
      </trkpt>
      <trkpt lat="46.50909" lon="5.39659">
        <ele>371</ele>
        <time>2021-05-29T06:49:41.738Z</time>
      </trkpt>
      <trkpt lat="46.5091" lon="5.39658">
        <ele>371</ele>
        <time>2021-05-29T06:49:42.738Z</time>
      </trkpt>
      <trkpt lat="46.50911" lon="5.39656">
        <ele>371</ele>
        <time>2021-05-29T06:49:43.738Z</time>
      </trkpt>
      <trkpt lat="46.50913" lon="5.39654">
        <ele>371</ele>
        <time>2021-05-29T06:49:44.738Z</time>
      </trkpt>
      <trkpt lat="46.50913" lon="5.39653">
        <ele>371</ele>
        <time>2021-05-29T06:49:45.738Z</time>
      </trkpt>
      <trkpt lat="46.50915" lon="5.39651">
        <ele>370</ele>
        <time>2021-05-29T06:49:46.738Z</time>
      </trkpt>
      <trkpt lat="46.50916" lon="5.39649">
        <ele>370</ele>
        <time>2021-05-29T06:49:47.738Z</time>
      </trkpt>
      <trkpt lat="46.50917" lon="5.39648">
        <ele>371</ele>
        <time>2021-05-29T06:49:48.738Z</time>
      </trkpt>
      <trkpt lat="46.50919" lon="5.39647">
        <ele>371</ele>
        <time>2021-05-29T06:49:49.737Z</time>
      </trkpt>
      <trkpt lat="46.5092" lon="5.39646">
        <ele>371</ele>
        <time>2021-05-29T06:49:50.738Z</time>
      </trkpt>
      <trkpt lat="46.50922" lon="5.39644">
        <ele>371</ele>
        <time>2021-05-29T06:49:51.738Z</time>
      </trkpt>
      <trkpt lat="46.50923" lon="5.39643">
        <ele>371</ele>
        <time>2021-05-29T06:49:52.738Z</time>
      </trkpt>
      <trkpt lat="46.50923" lon="5.39642">
        <ele>371</ele>
        <time>2021-05-29T06:49:53.737Z</time>
      </trkpt>
      <trkpt lat="46.50924" lon="5.39641">
        <ele>372</ele>
        <time>2021-05-29T06:49:54.737Z</time>
      </trkpt>
      <trkpt lat="46.50925" lon="5.3964">
        <ele>372</ele>
        <time>2021-05-29T06:49:55.738Z</time>
      </trkpt>
      <trkpt lat="46.50926" lon="5.39638">
        <ele>372</ele>
        <time>2021-05-29T06:49:56.738Z</time>
      </trkpt>
      <trkpt lat="46.50928" lon="5.39638">
        <ele>373</ele>
        <time>2021-05-29T06:49:57.738Z</time>
      </trkpt>
      <trkpt lat="46.50929" lon="5.39637">
        <ele>373</ele>
        <time>2021-05-29T06:49:58.738Z</time>
      </trkpt>
      <trkpt lat="46.50932" lon="5.39636">
        <ele>373</ele>
        <time>2021-05-29T06:49:59.737Z</time>
      </trkpt>
      <trkpt lat="46.50933" lon="5.39635">
        <ele>373</ele>
        <time>2021-05-29T06:50:00.738Z</time>
      </trkpt>
      <trkpt lat="46.50935" lon="5.39635">
        <ele>374</ele>
        <time>2021-05-29T06:50:01.738Z</time>
      </trkpt>
      <trkpt lat="46.50936" lon="5.39634">
        <ele>374</ele>
        <time>2021-05-29T06:50:02.738Z</time>
      </trkpt>
      <trkpt lat="46.50938" lon="5.39634">
        <ele>374</ele>
        <time>2021-05-29T06:50:03.738Z</time>
      </trkpt>
      <trkpt lat="46.50939" lon="5.39634">
        <ele>375</ele>
        <time>2021-05-29T06:50:04.738Z</time>
      </trkpt>
      <trkpt lat="46.50941" lon="5.39634">
        <ele>375</ele>
        <time>2021-05-29T06:50:05.738Z</time>
      </trkpt>
      <trkpt lat="46.50943" lon="5.39634">
        <ele>375</ele>
        <time>2021-05-29T06:50:06.738Z</time>
      </trkpt>
      <trkpt lat="46.50944" lon="5.39634">
        <ele>376</ele>
        <time>2021-05-29T06:50:07.738Z</time>
      </trkpt>
      <trkpt lat="46.50945" lon="5.39633">
        <ele>376</ele>
        <time>2021-05-29T06:50:08.738Z</time>
      </trkpt>
      <trkpt lat="46.50946" lon="5.39633">
        <ele>377</ele>
        <time>2021-05-29T06:50:09.738Z</time>
      </trkpt>
      <trkpt lat="46.50948" lon="5.39632">
        <ele>378</ele>
        <time>2021-05-29T06:50:10.738Z</time>
      </trkpt>
      <trkpt lat="46.50949" lon="5.39632">
        <ele>379</ele>
        <time>2021-05-29T06:50:11.738Z</time>
      </trkpt>
      <trkpt lat="46.5095" lon="5.39632">
        <ele>380</ele>
        <time>2021-05-29T06:50:12.738Z</time>
      </trkpt>
      <trkpt lat="46.50952" lon="5.39633">
        <ele>380</ele>
        <time>2021-05-29T06:50:13.738Z</time>
      </trkpt>
      <trkpt lat="46.50953" lon="5.39633">
        <ele>381</ele>
        <time>2021-05-29T06:50:14.738Z</time>
      </trkpt>
      <trkpt lat="46.50953" lon="5.39635">
        <ele>381</ele>
        <time>2021-05-29T06:50:15.738Z</time>
      </trkpt>
      <trkpt lat="46.50953" lon="5.39637">
        <ele>381</ele>
        <time>2021-05-29T06:50:16.738Z</time>
      </trkpt>
      <trkpt lat="46.50953" lon="5.39639">
        <ele>381</ele>
        <time>2021-05-29T06:50:17.738Z</time>
      </trkpt>
      <trkpt lat="46.50953" lon="5.39641">
        <ele>380</ele>
        <time>2021-05-29T06:50:18.738Z</time>
      </trkpt>
      <trkpt lat="46.50952" lon="5.39643">
        <ele>380</ele>
        <time>2021-05-29T06:50:19.738Z</time>
      </trkpt>
      <trkpt lat="46.50952" lon="5.39645">
        <ele>379</ele>
        <time>2021-05-29T06:50:20.738Z</time>
      </trkpt>
      <trkpt lat="46.50951" lon="5.39647">
        <ele>379</ele>
        <time>2021-05-29T06:50:21.738Z</time>
      </trkpt>
      <trkpt lat="46.50951" lon="5.39649">
        <ele>378</ele>
        <time>2021-05-29T06:50:22.738Z</time>
      </trkpt>
      <trkpt lat="46.5095" lon="5.39652">
        <ele>377</ele>
        <time>2021-05-29T06:50:23.738Z</time>
      </trkpt>
      <trkpt lat="46.5095" lon="5.39654">
        <ele>377</ele>
        <time>2021-05-29T06:50:24.737Z</time>
      </trkpt>
      <trkpt lat="46.5095" lon="5.39656">
        <ele>376</ele>
        <time>2021-05-29T06:50:25.738Z</time>
      </trkpt>
      <trkpt lat="46.5095" lon="5.39659">
        <ele>376</ele>
        <time>2021-05-29T06:50:26.738Z</time>
      </trkpt>
      <trkpt lat="46.5095" lon="5.39661">
        <ele>376</ele>
        <time>2021-05-29T06:50:27.738Z</time>
      </trkpt>
      <trkpt lat="46.50949" lon="5.39663">
        <ele>376</ele>
        <time>2021-05-29T06:50:28.738Z</time>
      </trkpt>
      <trkpt lat="46.50949" lon="5.39665">
        <ele>375</ele>
        <time>2021-05-29T06:50:29.738Z</time>
      </trkpt>
      <trkpt lat="46.50948" lon="5.39668">
        <ele>375</ele>
        <time>2021-05-29T06:50:30.738Z</time>
      </trkpt>
      <trkpt lat="46.50947" lon="5.3967">
        <ele>375</ele>
        <time>2021-05-29T06:50:31.738Z</time>
      </trkpt>
      <trkpt lat="46.50947" lon="5.39673">
        <ele>375</ele>
        <time>2021-05-29T06:50:32.738Z</time>
      </trkpt>
      <trkpt lat="46.50946" lon="5.39676">
        <ele>375</ele>
        <time>2021-05-29T06:50:33.738Z</time>
      </trkpt>
      <trkpt lat="46.50946" lon="5.39678">
        <ele>376</ele>
        <time>2021-05-29T06:50:34.737Z</time>
      </trkpt>
      <trkpt lat="46.50946" lon="5.3968">
        <ele>376</ele>
        <time>2021-05-29T06:50:35.738Z</time>
      </trkpt>
      <trkpt lat="46.50946" lon="5.39682">
        <ele>376</ele>
        <time>2021-05-29T06:50:36.738Z</time>
      </trkpt>
      <trkpt lat="46.50946" lon="5.39685">
        <ele>376</ele>
        <time>2021-05-29T06:50:37.738Z</time>
      </trkpt>
      <trkpt lat="46.50945" lon="5.39687">
        <ele>376</ele>
        <time>2021-05-29T06:50:38.738Z</time>
      </trkpt>
      <trkpt lat="46.50945" lon="5.3969">
        <ele>376</ele>
        <time>2021-05-29T06:50:39.737Z</time>
      </trkpt>
      <trkpt lat="46.50945" lon="5.39692">
        <ele>377</ele>
        <time>2021-05-29T06:50:40.738Z</time>
      </trkpt>
      <trkpt lat="46.50944" lon="5.39694">
        <ele>377</ele>
        <time>2021-05-29T06:50:41.738Z</time>
      </trkpt>
      <trkpt lat="46.50943" lon="5.39696">
        <ele>377</ele>
        <time>2021-05-29T06:50:42.738Z</time>
      </trkpt>
      <trkpt lat="46.50943" lon="5.39698">
        <ele>378</ele>
        <time>2021-05-29T06:50:43.738Z</time>
      </trkpt>
      <trkpt lat="46.50942" lon="5.397">
        <ele>378</ele>
        <time>2021-05-29T06:50:44.738Z</time>
      </trkpt>
      <trkpt lat="46.50942" lon="5.39702">
        <ele>378</ele>
        <time>2021-05-29T06:50:45.738Z</time>
      </trkpt>
      <trkpt lat="46.50942" lon="5.39705">
        <ele>379</ele>
        <time>2021-05-29T06:50:46.738Z</time>
      </trkpt>
      <trkpt lat="46.50941" lon="5.39707">
        <ele>379</ele>
        <time>2021-05-29T06:50:47.737Z</time>
      </trkpt>
      <trkpt lat="46.50941" lon="5.39709">
        <ele>379</ele>
        <time>2021-05-29T06:50:48.738Z</time>
      </trkpt>
      <trkpt lat="46.5094" lon="5.39711">
        <ele>380</ele>
        <time>2021-05-29T06:50:49.738Z</time>
      </trkpt>
      <trkpt lat="46.5094" lon="5.39713">
        <ele>380</ele>
        <time>2021-05-29T06:50:50.738Z</time>
      </trkpt>
      <trkpt lat="46.50939" lon="5.39716">
        <ele>380</ele>
        <time>2021-05-29T06:50:51.738Z</time>
      </trkpt>
      <trkpt lat="46.50939" lon="5.39718">
        <ele>381</ele>
        <time>2021-05-29T06:50:52.738Z</time>
      </trkpt>
      <trkpt lat="46.50938" lon="5.3972">
        <ele>381</ele>
        <time>2021-05-29T06:50:53.738Z</time>
      </trkpt>
      <trkpt lat="46.50938" lon="5.39722">
        <ele>381</ele>
        <time>2021-05-29T06:50:54.737Z</time>
      </trkpt>
      <trkpt lat="46.50938" lon="5.39725">
        <ele>381</ele>
        <time>2021-05-29T06:50:55.738Z</time>
      </trkpt>
      <trkpt lat="46.50937" lon="5.39727">
        <ele>381</ele>
        <time>2021-05-29T06:50:56.738Z</time>
      </trkpt>
      <trkpt lat="46.50937" lon="5.39729">
        <ele>382</ele>
        <time>2021-05-29T06:50:57.738Z</time>
      </trkpt>
      <trkpt lat="46.50937" lon="5.39732">
        <ele>382</ele>
        <time>2021-05-29T06:50:58.738Z</time>
      </trkpt>
      <trkpt lat="46.50936" lon="5.39735">
        <ele>382</ele>
        <time>2021-05-29T06:50:59.738Z</time>
      </trkpt>
      <trkpt lat="46.50936" lon="5.39737">
        <ele>383</ele>
        <time>2021-05-29T06:51:00.738Z</time>
      </trkpt>
      <trkpt lat="46.50936" lon="5.3974">
        <ele>383</ele>
        <time>2021-05-29T06:51:01.738Z</time>
      </trkpt>
      <trkpt lat="46.50935" lon="5.39742">
        <ele>384</ele>
        <time>2021-05-29T06:51:02.737Z</time>
      </trkpt>
      <trkpt lat="46.50935" lon="5.39744">
        <ele>384</ele>
        <time>2021-05-29T06:51:03.738Z</time>
      </trkpt>
      <trkpt lat="46.50935" lon="5.39747">
        <ele>384</ele>
        <time>2021-05-29T06:51:04.737Z</time>
      </trkpt>
      <trkpt lat="46.50936" lon="5.39749">
        <ele>385</ele>
        <time>2021-05-29T06:51:05.738Z</time>
      </trkpt>
      <trkpt lat="46.50936" lon="5.39752">
        <ele>385</ele>
        <time>2021-05-29T06:51:06.738Z</time>
      </trkpt>
      <trkpt lat="46.50936" lon="5.39754">
        <ele>385</ele>
        <time>2021-05-29T06:51:07.738Z</time>
      </trkpt>
      <trkpt lat="46.50936" lon="5.39757">
        <ele>385</ele>
        <time>2021-05-29T06:51:08.738Z</time>
      </trkpt>
      <trkpt lat="46.50936" lon="5.3976">
        <ele>385</ele>
        <time>2021-05-29T06:51:09.738Z</time>
      </trkpt>
      <trkpt lat="46.50936" lon="5.39762">
        <ele>385</ele>
        <time>2021-05-29T06:51:10.738Z</time>
      </trkpt>
      <trkpt lat="46.50936" lon="5.39765">
        <ele>385</ele>
        <time>2021-05-29T06:51:11.738Z</time>
      </trkpt>
      <trkpt lat="46.50937" lon="5.39766">
        <ele>384</ele>
        <time>2021-05-29T06:51:12.738Z</time>
      </trkpt>
      <trkpt lat="46.50937" lon="5.39769">
        <ele>385</ele>
        <time>2021-05-29T06:51:13.738Z</time>
      </trkpt>
      <trkpt lat="46.50937" lon="5.39771">
        <ele>385</ele>
        <time>2021-05-29T06:51:14.738Z</time>
      </trkpt>
      <trkpt lat="46.50938" lon="5.39773">
        <ele>385</ele>
        <time>2021-05-29T06:51:15.738Z</time>
      </trkpt>
      <trkpt lat="46.50938" lon="5.39776">
        <ele>385</ele>
        <time>2021-05-29T06:51:16.738Z</time>
      </trkpt>
      <trkpt lat="46.50938" lon="5.39778">
        <ele>385</ele>
        <time>2021-05-29T06:51:17.738Z</time>
      </trkpt>
      <trkpt lat="46.50938" lon="5.39781">
        <ele>386</ele>
        <time>2021-05-29T06:51:18.738Z</time>
      </trkpt>
      <trkpt lat="46.50939" lon="5.39784">
        <ele>386</ele>
        <time>2021-05-29T06:51:19.738Z</time>
      </trkpt>
      <trkpt lat="46.50939" lon="5.39787">
        <ele>387</ele>
        <time>2021-05-29T06:51:20.738Z</time>
      </trkpt>
      <trkpt lat="46.50939" lon="5.39789">
        <ele>387</ele>
        <time>2021-05-29T06:51:21.738Z</time>
      </trkpt>
      <trkpt lat="46.50939" lon="5.39792">
        <ele>387</ele>
        <time>2021-05-29T06:51:22.738Z</time>
      </trkpt>
      <trkpt lat="46.5094" lon="5.39794">
        <ele>387</ele>
        <time>2021-05-29T06:51:23.738Z</time>
      </trkpt>
      <trkpt lat="46.5094" lon="5.39796">
        <ele>387</ele>
        <time>2021-05-29T06:51:24.738Z</time>
      </trkpt>
      <trkpt lat="46.50941" lon="5.39798">
        <ele>388</ele>
        <time>2021-05-29T06:51:25.737Z</time>
      </trkpt>
      <trkpt lat="46.50941" lon="5.39801">
        <ele>388</ele>
        <time>2021-05-29T06:51:26.738Z</time>
      </trkpt>
      <trkpt lat="46.50942" lon="5.39803">
        <ele>388</ele>
        <time>2021-05-29T06:51:27.738Z</time>
      </trkpt>
      <trkpt lat="46.50942" lon="5.39805">
        <ele>389</ele>
        <time>2021-05-29T06:51:28.738Z</time>
      </trkpt>
      <trkpt lat="46.50943" lon="5.39807">
        <ele>389</ele>
        <time>2021-05-29T06:51:29.738Z</time>
      </trkpt>
      <trkpt lat="46.50943" lon="5.39809">
        <ele>389</ele>
        <time>2021-05-29T06:51:30.738Z</time>
      </trkpt>
      <trkpt lat="46.50943" lon="5.39811">
        <ele>390</ele>
        <time>2021-05-29T06:51:31.738Z</time>
      </trkpt>
      <trkpt lat="46.50943" lon="5.39814">
        <ele>391</ele>
        <time>2021-05-29T06:51:32.738Z</time>
      </trkpt>
      <trkpt lat="46.50943" lon="5.39816">
        <ele>392</ele>
        <time>2021-05-29T06:51:33.738Z</time>
      </trkpt>
      <trkpt lat="46.50944" lon="5.39818">
        <ele>392</ele>
        <time>2021-05-29T06:51:34.738Z</time>
      </trkpt>
      <trkpt lat="46.50944" lon="5.39821">
        <ele>392</ele>
        <time>2021-05-29T06:51:35.738Z</time>
      </trkpt>
      <trkpt lat="46.50945" lon="5.39823">
        <ele>392</ele>
        <time>2021-05-29T06:51:36.738Z</time>
      </trkpt>
      <trkpt lat="46.50946" lon="5.39825">
        <ele>392</ele>
        <time>2021-05-29T06:51:37.737Z</time>
      </trkpt>
      <trkpt lat="46.50946" lon="5.39827">
        <ele>392</ele>
        <time>2021-05-29T06:51:38.738Z</time>
      </trkpt>
      <trkpt lat="46.50947" lon="5.3983">
        <ele>393</ele>
        <time>2021-05-29T06:51:39.738Z</time>
      </trkpt>
      <trkpt lat="46.50947" lon="5.39833">
        <ele>393</ele>
        <time>2021-05-29T06:51:40.738Z</time>
      </trkpt>
      <trkpt lat="46.50947" lon="5.39835">
        <ele>394</ele>
        <time>2021-05-29T06:51:41.737Z</time>
      </trkpt>
      <trkpt lat="46.50947" lon="5.39837">
        <ele>394</ele>
        <time>2021-05-29T06:51:42.737Z</time>
      </trkpt>
      <trkpt lat="46.50947" lon="5.39839">
        <ele>394</ele>
        <time>2021-05-29T06:51:43.738Z</time>
      </trkpt>
      <trkpt lat="46.50948" lon="5.39842">
        <ele>395</ele>
        <time>2021-05-29T06:51:44.737Z</time>
      </trkpt>
      <trkpt lat="46.50949" lon="5.39844">
        <ele>395</ele>
        <time>2021-05-29T06:51:45.738Z</time>
      </trkpt>
      <trkpt lat="46.50949" lon="5.39848">
        <ele>395</ele>
        <time>2021-05-29T06:51:46.738Z</time>
      </trkpt>
      <trkpt lat="46.50949" lon="5.3985">
        <ele>395</ele>
        <time>2021-05-29T06:51:47.738Z</time>
      </trkpt>
      <trkpt lat="46.5095" lon="5.39852">
        <ele>396</ele>
        <time>2021-05-29T06:51:48.738Z</time>
      </trkpt>
      <trkpt lat="46.5095" lon="5.39855">
        <ele>396</ele>
        <time>2021-05-29T06:51:49.737Z</time>
      </trkpt>
      <trkpt lat="46.50951" lon="5.39857">
        <ele>396</ele>
        <time>2021-05-29T06:51:50.738Z</time>
      </trkpt>
      <trkpt lat="46.50952" lon="5.39858">
        <ele>397</ele>
        <time>2021-05-29T06:51:51.738Z</time>
      </trkpt>
      <trkpt lat="46.50953" lon="5.3986">
        <ele>397</ele>
        <time>2021-05-29T06:51:52.738Z</time>
      </trkpt>
      <trkpt lat="46.50955" lon="5.39862">
        <ele>398</ele>
        <time>2021-05-29T06:51:53.738Z</time>
      </trkpt>
      <trkpt lat="46.50956" lon="5.39863">
        <ele>398</ele>
        <time>2021-05-29T06:51:54.737Z</time>
      </trkpt>
      <trkpt lat="46.50957" lon="5.39864">
        <ele>399</ele>
        <time>2021-05-29T06:51:55.738Z</time>
      </trkpt>
      <trkpt lat="46.50959" lon="5.39865">
        <ele>399</ele>
        <time>2021-05-29T06:51:56.738Z</time>
      </trkpt>
      <trkpt lat="46.50961" lon="5.39867">
        <ele>399</ele>
        <time>2021-05-29T06:51:57.738Z</time>
      </trkpt>
      <trkpt lat="46.50962" lon="5.39868">
        <ele>399</ele>
        <time>2021-05-29T06:51:58.738Z</time>
      </trkpt>
      <trkpt lat="46.50963" lon="5.3987">
        <ele>399</ele>
        <time>2021-05-29T06:51:59.738Z</time>
      </trkpt>
      <trkpt lat="46.50965" lon="5.3987">
        <ele>399</ele>
        <time>2021-05-29T06:52:00.737Z</time>
      </trkpt>
      <trkpt lat="46.50966" lon="5.39871">
        <ele>399</ele>
        <time>2021-05-29T06:52:01.737Z</time>
      </trkpt>
      <trkpt lat="46.50967" lon="5.39872">
        <ele>398</ele>
        <time>2021-05-29T06:52:02.738Z</time>
      </trkpt>
      <trkpt lat="46.50969" lon="5.39873">
        <ele>398</ele>
        <time>2021-05-29T06:52:03.738Z</time>
      </trkpt>
      <trkpt lat="46.5097" lon="5.39874">
        <ele>398</ele>
        <time>2021-05-29T06:52:04.738Z</time>
      </trkpt>
      <trkpt lat="46.50972" lon="5.39875">
        <ele>398</ele>
        <time>2021-05-29T06:52:05.738Z</time>
      </trkpt>
      <trkpt lat="46.50973" lon="5.39876">
        <ele>399</ele>
        <time>2021-05-29T06:52:06.738Z</time>
      </trkpt>
      <trkpt lat="46.50974" lon="5.39877">
        <ele>399</ele>
        <time>2021-05-29T06:52:07.738Z</time>
      </trkpt>
      <trkpt lat="46.50975" lon="5.39879">
        <ele>400</ele>
        <time>2021-05-29T06:52:08.738Z</time>
      </trkpt>
      <trkpt lat="46.50976" lon="5.39879">
        <ele>401</ele>
        <time>2021-05-29T06:52:09.738Z</time>
      </trkpt>
      <trkpt lat="46.50977" lon="5.39879">
        <ele>401</ele>
        <time>2021-05-29T06:52:10.738Z</time>
      </trkpt>
      <trkpt lat="46.50978" lon="5.3988">
        <ele>401</ele>
        <time>2021-05-29T06:52:11.738Z</time>
      </trkpt>
      <trkpt lat="46.5098" lon="5.39882">
        <ele>401</ele>
        <time>2021-05-29T06:52:12.738Z</time>
      </trkpt>
      <trkpt lat="46.50981" lon="5.39883">
        <ele>401</ele>
        <time>2021-05-29T06:52:13.738Z</time>
      </trkpt>
      <trkpt lat="46.50982" lon="5.39885">
        <ele>402</ele>
        <time>2021-05-29T06:52:14.738Z</time>
      </trkpt>
      <trkpt lat="46.50983" lon="5.39887">
        <ele>402</ele>
        <time>2021-05-29T06:52:15.738Z</time>
      </trkpt>
      <trkpt lat="46.50984" lon="5.39889">
        <ele>402</ele>
        <time>2021-05-29T06:52:16.738Z</time>
      </trkpt>
      <trkpt lat="46.50985" lon="5.39891">
        <ele>402</ele>
        <time>2021-05-29T06:52:17.738Z</time>
      </trkpt>
      <trkpt lat="46.50986" lon="5.39893">
        <ele>403</ele>
        <time>2021-05-29T06:52:18.738Z</time>
      </trkpt>
      <trkpt lat="46.50987" lon="5.39894">
        <ele>402</ele>
        <time>2021-05-29T06:52:19.738Z</time>
      </trkpt>
      <trkpt lat="46.50988" lon="5.39896">
        <ele>402</ele>
        <time>2021-05-29T06:52:20.738Z</time>
      </trkpt>
      <trkpt lat="46.50989" lon="5.39898">
        <ele>402</ele>
        <time>2021-05-29T06:52:21.738Z</time>
      </trkpt>
      <trkpt lat="46.5099" lon="5.399">
        <ele>402</ele>
        <time>2021-05-29T06:52:22.738Z</time>
      </trkpt>
      <trkpt lat="46.50992" lon="5.39902">
        <ele>402</ele>
        <time>2021-05-29T06:52:23.738Z</time>
      </trkpt>
      <trkpt lat="46.50992" lon="5.39905">
        <ele>402</ele>
        <time>2021-05-29T06:52:24.738Z</time>
      </trkpt>
      <trkpt lat="46.50993" lon="5.39907">
        <ele>402</ele>
        <time>2021-05-29T06:52:25.738Z</time>
      </trkpt>
      <trkpt lat="46.50994" lon="5.39909">
        <ele>403</ele>
        <time>2021-05-29T06:52:26.737Z</time>
      </trkpt>
      <trkpt lat="46.50994" lon="5.39911">
        <ele>403</ele>
        <time>2021-05-29T06:52:27.738Z</time>
      </trkpt>
      <trkpt lat="46.50995" lon="5.39913">
        <ele>403</ele>
        <time>2021-05-29T06:52:28.738Z</time>
      </trkpt>
      <trkpt lat="46.50995" lon="5.39915">
        <ele>404</ele>
        <time>2021-05-29T06:52:29.738Z</time>
      </trkpt>
      <trkpt lat="46.50995" lon="5.39918">
        <ele>403</ele>
        <time>2021-05-29T06:52:30.738Z</time>
      </trkpt>
      <trkpt lat="46.50995" lon="5.3992">
        <ele>403</ele>
        <time>2021-05-29T06:52:31.738Z</time>
      </trkpt>
      <trkpt lat="46.50996" lon="5.39922">
        <ele>403</ele>
        <time>2021-05-29T06:52:32.738Z</time>
      </trkpt>
      <trkpt lat="46.50995" lon="5.39924">
        <ele>403</ele>
        <time>2021-05-29T06:52:33.738Z</time>
      </trkpt>
      <trkpt lat="46.50996" lon="5.39926">
        <ele>403</ele>
        <time>2021-05-29T06:52:34.738Z</time>
      </trkpt>
      <trkpt lat="46.50996" lon="5.39927">
        <ele>403</ele>
        <time>2021-05-29T06:52:35.738Z</time>
      </trkpt>
      <trkpt lat="46.50996" lon="5.39929">
        <ele>403</ele>
        <time>2021-05-29T06:52:36.738Z</time>
      </trkpt>
      <trkpt lat="46.50996" lon="5.39931">
        <ele>403</ele>
        <time>2021-05-29T06:52:37.738Z</time>
      </trkpt>
      <trkpt lat="46.50997" lon="5.39933">
        <ele>403</ele>
        <time>2021-05-29T06:52:38.738Z</time>
      </trkpt>
      <trkpt lat="46.50997" lon="5.39935">
        <ele>403</ele>
        <time>2021-05-29T06:52:39.738Z</time>
      </trkpt>
      <trkpt lat="46.50997" lon="5.39938">
        <ele>402</ele>
        <time>2021-05-29T06:52:40.738Z</time>
      </trkpt>
      <trkpt lat="46.50998" lon="5.3994">
        <ele>402</ele>
        <time>2021-05-29T06:52:41.738Z</time>
      </trkpt>
      <trkpt lat="46.50998" lon="5.39942">
        <ele>402</ele>
        <time>2021-05-29T06:52:42.738Z</time>
      </trkpt>
      <trkpt lat="46.50998" lon="5.39944">
        <ele>402</ele>
        <time>2021-05-29T06:52:43.738Z</time>
      </trkpt>
      <trkpt lat="46.50998" lon="5.39946">
        <ele>402</ele>
        <time>2021-05-29T06:52:44.738Z</time>
      </trkpt>
      <trkpt lat="46.50998" lon="5.39948">
        <ele>402</ele>
        <time>2021-05-29T06:52:45.738Z</time>
      </trkpt>
      <trkpt lat="46.50998" lon="5.3995">
        <ele>402</ele>
        <time>2021-05-29T06:52:46.738Z</time>
      </trkpt>
      <trkpt lat="46.50999" lon="5.39952">
        <ele>403</ele>
        <time>2021-05-29T06:52:47.738Z</time>
      </trkpt>
      <trkpt lat="46.50999" lon="5.39954">
        <ele>403</ele>
        <time>2021-05-29T06:52:48.738Z</time>
      </trkpt>
      <trkpt lat="46.51" lon="5.39956">
        <ele>404</ele>
        <time>2021-05-29T06:52:49.738Z</time>
      </trkpt>
      <trkpt lat="46.51" lon="5.39958">
        <ele>404</ele>
        <time>2021-05-29T06:52:50.738Z</time>
      </trkpt>
      <trkpt lat="46.51" lon="5.39959">
        <ele>405</ele>
        <time>2021-05-29T06:52:51.738Z</time>
      </trkpt>
      <trkpt lat="46.51001" lon="5.39961">
        <ele>405</ele>
        <time>2021-05-29T06:52:52.738Z</time>
      </trkpt>
      <trkpt lat="46.51" lon="5.39964">
        <ele>406</ele>
        <time>2021-05-29T06:52:53.738Z</time>
      </trkpt>
      <trkpt lat="46.51" lon="5.39966">
        <ele>407</ele>
        <time>2021-05-29T06:52:54.738Z</time>
      </trkpt>
      <trkpt lat="46.51" lon="5.39968">
        <ele>408</ele>
        <time>2021-05-29T06:52:55.738Z</time>
      </trkpt>
      <trkpt lat="46.51" lon="5.3997">
        <ele>408</ele>
        <time>2021-05-29T06:52:56.738Z</time>
      </trkpt>
      <trkpt lat="46.51001" lon="5.39972">
        <ele>409</ele>
        <time>2021-05-29T06:52:57.738Z</time>
      </trkpt>
      <trkpt lat="46.51001" lon="5.39974">
        <ele>409</ele>
        <time>2021-05-29T06:52:58.738Z</time>
      </trkpt>
      <trkpt lat="46.51002" lon="5.39977">
        <ele>410</ele>
        <time>2021-05-29T06:52:59.737Z</time>
      </trkpt>
      <trkpt lat="46.51002" lon="5.39979">
        <ele>410</ele>
        <time>2021-05-29T06:53:00.738Z</time>
      </trkpt>
      <trkpt lat="46.51001" lon="5.39981">
        <ele>410</ele>
        <time>2021-05-29T06:53:01.738Z</time>
      </trkpt>
      <trkpt lat="46.51002" lon="5.39983">
        <ele>410</ele>
        <time>2021-05-29T06:53:02.738Z</time>
      </trkpt>
      <trkpt lat="46.51002" lon="5.39985">
        <ele>411</ele>
        <time>2021-05-29T06:53:03.738Z</time>
      </trkpt>
      <trkpt lat="46.51002" lon="5.39987">
        <ele>411</ele>
        <time>2021-05-29T06:53:04.737Z</time>
      </trkpt>
      <trkpt lat="46.51002" lon="5.3999">
        <ele>411</ele>
        <time>2021-05-29T06:53:05.738Z</time>
      </trkpt>
      <trkpt lat="46.51003" lon="5.39993">
        <ele>411</ele>
        <time>2021-05-29T06:53:06.738Z</time>
      </trkpt>
      <trkpt lat="46.51003" lon="5.39996">
        <ele>411</ele>
        <time>2021-05-29T06:53:07.738Z</time>
      </trkpt>
      <trkpt lat="46.51004" lon="5.39999">
        <ele>410</ele>
        <time>2021-05-29T06:53:08.738Z</time>
      </trkpt>
      <trkpt lat="46.51004" lon="5.4">
        <ele>410</ele>
        <time>2021-05-29T06:53:09.738Z</time>
      </trkpt>
      <trkpt lat="46.51003" lon="5.40003">
        <ele>411</ele>
        <time>2021-05-29T06:53:10.738Z</time>
      </trkpt>
      <trkpt lat="46.51003" lon="5.40005">
        <ele>411</ele>
        <time>2021-05-29T06:53:11.738Z</time>
      </trkpt>
      <trkpt lat="46.51003" lon="5.40006">
        <ele>411</ele>
        <time>2021-05-29T06:53:12.738Z</time>
      </trkpt>
      <trkpt lat="46.51003" lon="5.40008">
        <ele>411</ele>
        <time>2021-05-29T06:53:13.738Z</time>
      </trkpt>
      <trkpt lat="46.51004" lon="5.4001">
        <ele>411</ele>
        <time>2021-05-29T06:53:14.738Z</time>
      </trkpt>
      <trkpt lat="46.51003" lon="5.40011">
        <ele>411</ele>
        <time>2021-05-29T06:53:15.738Z</time>
      </trkpt>
      <trkpt lat="46.51003" lon="5.40013">
        <ele>412</ele>
        <time>2021-05-29T06:53:16.738Z</time>
      </trkpt>
      <trkpt lat="46.51002" lon="5.40015">
        <ele>412</ele>
        <time>2021-05-29T06:53:17.738Z</time>
      </trkpt>
      <trkpt lat="46.51002" lon="5.40017">
        <ele>412</ele>
        <time>2021-05-29T06:53:18.738Z</time>
      </trkpt>
      <trkpt lat="46.51002" lon="5.40019">
        <ele>413</ele>
        <time>2021-05-29T06:53:19.738Z</time>
      </trkpt>
      <trkpt lat="46.51002" lon="5.40022">
        <ele>413</ele>
        <time>2021-05-29T06:53:20.738Z</time>
      </trkpt>
      <trkpt lat="46.51002" lon="5.40024">
        <ele>413</ele>
        <time>2021-05-29T06:53:21.738Z</time>
      </trkpt>
      <trkpt lat="46.51002" lon="5.40026">
        <ele>413</ele>
        <time>2021-05-29T06:53:22.738Z</time>
      </trkpt>
      <trkpt lat="46.51002" lon="5.40028">
        <ele>413</ele>
        <time>2021-05-29T06:53:23.738Z</time>
      </trkpt>
      <trkpt lat="46.51002" lon="5.4003">
        <ele>413</ele>
        <time>2021-05-29T06:53:24.738Z</time>
      </trkpt>
      <trkpt lat="46.51002" lon="5.40031">
        <ele>414</ele>
        <time>2021-05-29T06:53:25.738Z</time>
      </trkpt>
      <trkpt lat="46.51001" lon="5.40033">
        <ele>414</ele>
        <time>2021-05-29T06:53:26.738Z</time>
      </trkpt>
      <trkpt lat="46.51001" lon="5.40035">
        <ele>414</ele>
        <time>2021-05-29T06:53:27.738Z</time>
      </trkpt>
      <trkpt lat="46.51" lon="5.40037">
        <ele>415</ele>
        <time>2021-05-29T06:53:28.737Z</time>
      </trkpt>
      <trkpt lat="46.51" lon="5.40039">
        <ele>415</ele>
        <time>2021-05-29T06:53:29.738Z</time>
      </trkpt>
      <trkpt lat="46.50999" lon="5.4004">
        <ele>415</ele>
        <time>2021-05-29T06:53:30.737Z</time>
      </trkpt>
      <trkpt lat="46.50999" lon="5.40042">
        <ele>415</ele>
        <time>2021-05-29T06:53:31.738Z</time>
      </trkpt>
      <trkpt lat="46.50998" lon="5.40044">
        <ele>415</ele>
        <time>2021-05-29T06:53:32.737Z</time>
      </trkpt>
      <trkpt lat="46.50997" lon="5.40046">
        <ele>415</ele>
        <time>2021-05-29T06:53:33.737Z</time>
      </trkpt>
      <trkpt lat="46.50996" lon="5.40048">
        <ele>416</ele>
        <time>2021-05-29T06:53:34.737Z</time>
      </trkpt>
      <trkpt lat="46.50995" lon="5.40049">
        <ele>417</ele>
        <time>2021-05-29T06:53:35.738Z</time>
      </trkpt>
      <trkpt lat="46.50994" lon="5.40051">
        <ele>418</ele>
        <time>2021-05-29T06:53:36.738Z</time>
      </trkpt>
      <trkpt lat="46.50993" lon="5.40053">
        <ele>419</ele>
        <time>2021-05-29T06:53:37.738Z</time>
      </trkpt>
      <trkpt lat="46.50992" lon="5.40055">
        <ele>420</ele>
        <time>2021-05-29T06:53:38.738Z</time>
      </trkpt>
      <trkpt lat="46.50991" lon="5.40056">
        <ele>421</ele>
        <time>2021-05-29T06:53:39.738Z</time>
      </trkpt>
      <trkpt lat="46.5099" lon="5.40058">
        <ele>422</ele>
        <time>2021-05-29T06:53:40.738Z</time>
      </trkpt>
      <trkpt lat="46.50989" lon="5.40059">
        <ele>422</ele>
        <time>2021-05-29T06:53:41.738Z</time>
      </trkpt>
      <trkpt lat="46.50988" lon="5.40061">
        <ele>423</ele>
        <time>2021-05-29T06:53:42.738Z</time>
      </trkpt>
      <trkpt lat="46.50987" lon="5.40062">
        <ele>423</ele>
        <time>2021-05-29T06:53:43.737Z</time>
      </trkpt>
      <trkpt lat="46.50986" lon="5.40063">
        <ele>423</ele>
        <time>2021-05-29T06:53:44.738Z</time>
      </trkpt>
      <trkpt lat="46.50985" lon="5.40065">
        <ele>423</ele>
        <time>2021-05-29T06:53:45.738Z</time>
      </trkpt>
      <trkpt lat="46.50984" lon="5.40066">
        <ele>424</ele>
        <time>2021-05-29T06:53:46.738Z</time>
      </trkpt>
      <trkpt lat="46.50984" lon="5.40067">
        <ele>424</ele>
        <time>2021-05-29T06:53:47.738Z</time>
      </trkpt>
      <trkpt lat="46.50983" lon="5.40068">
        <ele>424</ele>
        <time>2021-05-29T06:53:48.738Z</time>
      </trkpt>
      <trkpt lat="46.50982" lon="5.4007">
        <ele>425</ele>
        <time>2021-05-29T06:53:49.738Z</time>
      </trkpt>
      <trkpt lat="46.50981" lon="5.4007">
        <ele>425</ele>
        <time>2021-05-29T06:53:50.738Z</time>
      </trkpt>
      <trkpt lat="46.5098" lon="5.40071">
        <ele>425</ele>
        <time>2021-05-29T06:53:51.737Z</time>
      </trkpt>
      <trkpt lat="46.50979" lon="5.40072">
        <ele>426</ele>
        <time>2021-05-29T06:53:52.737Z</time>
      </trkpt>
      <trkpt lat="46.50977" lon="5.40072">
        <ele>426</ele>
        <time>2021-05-29T06:53:53.738Z</time>
      </trkpt>
      <trkpt lat="46.50976" lon="5.40073">
        <ele>426</ele>
        <time>2021-05-29T06:53:54.738Z</time>
      </trkpt>
      <trkpt lat="46.50974" lon="5.40074">
        <ele>426</ele>
        <time>2021-05-29T06:53:55.738Z</time>
      </trkpt>
      <trkpt lat="46.50973" lon="5.40074">
        <ele>426</ele>
        <time>2021-05-29T06:53:56.738Z</time>
      </trkpt>
      <trkpt lat="46.50972" lon="5.40075">
        <ele>427</ele>
        <time>2021-05-29T06:53:57.738Z</time>
      </trkpt>
      <trkpt lat="46.5097" lon="5.40076">
        <ele>427</ele>
        <time>2021-05-29T06:53:58.738Z</time>
      </trkpt>
      <trkpt lat="46.50969" lon="5.40076">
        <ele>428</ele>
        <time>2021-05-29T06:53:59.737Z</time>
      </trkpt>
      <trkpt lat="46.50968" lon="5.40077">
        <ele>428</ele>
        <time>2021-05-29T06:54:00.738Z</time>
      </trkpt>
      <trkpt lat="46.50967" lon="5.40077">
        <ele>429</ele>
        <time>2021-05-29T06:54:01.738Z</time>
      </trkpt>
      <trkpt lat="46.50966" lon="5.40077">
        <ele>430</ele>
        <time>2021-05-29T06:54:02.738Z</time>
      </trkpt>
      <trkpt lat="46.50965" lon="5.40077">
        <ele>431</ele>
        <time>2021-05-29T06:54:03.737Z</time>
      </trkpt>
      <trkpt lat="46.50963" lon="5.40077">
        <ele>431</ele>
        <time>2021-05-29T06:54:04.737Z</time>
      </trkpt>
      <trkpt lat="46.50962" lon="5.40077">
        <ele>432</ele>
        <time>2021-05-29T06:54:05.738Z</time>
      </trkpt>
      <trkpt lat="46.50961" lon="5.40077">
        <ele>432</ele>
        <time>2021-05-29T06:54:06.738Z</time>
      </trkpt>
      <trkpt lat="46.50959" lon="5.40077">
        <ele>432</ele>
        <time>2021-05-29T06:54:07.738Z</time>
      </trkpt>
      <trkpt lat="46.50957" lon="5.40077">
        <ele>433</ele>
        <time>2021-05-29T06:54:08.738Z</time>
      </trkpt>
      <trkpt lat="46.50956" lon="5.40077">
        <ele>433</ele>
        <time>2021-05-29T06:54:09.738Z</time>
      </trkpt>
      <trkpt lat="46.50954" lon="5.40078">
        <ele>433</ele>
        <time>2021-05-29T06:54:10.738Z</time>
      </trkpt>
      <trkpt lat="46.50953" lon="5.40078">
        <ele>434</ele>
        <time>2021-05-29T06:54:11.738Z</time>
      </trkpt>
      <trkpt lat="46.50951" lon="5.40078">
        <ele>434</ele>
        <time>2021-05-29T06:54:12.738Z</time>
      </trkpt>
      <trkpt lat="46.5095" lon="5.40079">
        <ele>434</ele>
        <time>2021-05-29T06:54:13.737Z</time>
      </trkpt>
      <trkpt lat="46.50949" lon="5.4008">
        <ele>435</ele>
        <time>2021-05-29T06:54:14.738Z</time>
      </trkpt>
      <trkpt lat="46.50947" lon="5.40081">
        <ele>435</ele>
        <time>2021-05-29T06:54:15.738Z</time>
      </trkpt>
      <trkpt lat="46.50946" lon="5.40081">
        <ele>435</ele>
        <time>2021-05-29T06:54:16.738Z</time>
      </trkpt>
      <trkpt lat="46.50944" lon="5.40082">
        <ele>436</ele>
        <time>2021-05-29T06:54:17.737Z</time>
      </trkpt>
      <trkpt lat="46.50942" lon="5.40082">
        <ele>436</ele>
        <time>2021-05-29T06:54:18.737Z</time>
      </trkpt>
      <trkpt lat="46.50941" lon="5.40082">
        <ele>436</ele>
        <time>2021-05-29T06:54:19.737Z</time>
      </trkpt>
      <trkpt lat="46.5094" lon="5.40082">
        <ele>436</ele>
        <time>2021-05-29T06:54:20.738Z</time>
      </trkpt>
      <trkpt lat="46.50938" lon="5.40083">
        <ele>437</ele>
        <time>2021-05-29T06:54:21.738Z</time>
      </trkpt>
      <trkpt lat="46.50937" lon="5.40083">
        <ele>437</ele>
        <time>2021-05-29T06:54:22.738Z</time>
      </trkpt>
      <trkpt lat="46.50936" lon="5.40084">
        <ele>437</ele>
        <time>2021-05-29T06:54:23.738Z</time>
      </trkpt>
      <trkpt lat="46.50935" lon="5.40084">
        <ele>437</ele>
        <time>2021-05-29T06:54:24.738Z</time>
      </trkpt>
      <trkpt lat="46.50933" lon="5.40085">
        <ele>437</ele>
        <time>2021-05-29T06:54:25.737Z</time>
      </trkpt>
      <trkpt lat="46.50931" lon="5.40085">
        <ele>438</ele>
        <time>2021-05-29T06:54:26.738Z</time>
      </trkpt>
      <trkpt lat="46.5093" lon="5.40086">
        <ele>438</ele>
        <time>2021-05-29T06:54:27.738Z</time>
      </trkpt>
      <trkpt lat="46.50928" lon="5.40087">
        <ele>438</ele>
        <time>2021-05-29T06:54:28.738Z</time>
      </trkpt>
      <trkpt lat="46.50927" lon="5.40087">
        <ele>439</ele>
        <time>2021-05-29T06:54:29.738Z</time>
      </trkpt>
      <trkpt lat="46.50925" lon="5.40088">
        <ele>439</ele>
        <time>2021-05-29T06:54:30.738Z</time>
      </trkpt>
      <trkpt lat="46.50924" lon="5.40089">
        <ele>440</ele>
        <time>2021-05-29T06:54:31.738Z</time>
      </trkpt>
      <trkpt lat="46.50923" lon="5.40091">
        <ele>440</ele>
        <time>2021-05-29T06:54:32.738Z</time>
      </trkpt>
      <trkpt lat="46.50922" lon="5.40092">
        <ele>441</ele>
        <time>2021-05-29T06:54:33.737Z</time>
      </trkpt>
      <trkpt lat="46.50921" lon="5.40094">
        <ele>441</ele>
        <time>2021-05-29T06:54:34.738Z</time>
      </trkpt>
      <trkpt lat="46.50921" lon="5.40096">
        <ele>441</ele>
        <time>2021-05-29T06:54:35.737Z</time>
      </trkpt>
      <trkpt lat="46.50921" lon="5.40098">
        <ele>441</ele>
        <time>2021-05-29T06:54:36.737Z</time>
      </trkpt>
      <trkpt lat="46.50921" lon="5.401">
        <ele>441</ele>
        <time>2021-05-29T06:54:37.738Z</time>
      </trkpt>
      <trkpt lat="46.50922" lon="5.40102">
        <ele>441</ele>
        <time>2021-05-29T06:54:38.738Z</time>
      </trkpt>
      <trkpt lat="46.50922" lon="5.40104">
        <ele>440</ele>
        <time>2021-05-29T06:54:39.737Z</time>
      </trkpt>
      <trkpt lat="46.50923" lon="5.40107">
        <ele>439</ele>
        <time>2021-05-29T06:54:40.738Z</time>
      </trkpt>
      <trkpt lat="46.50924" lon="5.40109">
        <ele>439</ele>
        <time>2021-05-29T06:54:41.738Z</time>
      </trkpt>
      <trkpt lat="46.50925" lon="5.40112">
        <ele>438</ele>
        <time>2021-05-29T06:54:42.737Z</time>
      </trkpt>
      <trkpt lat="46.50926" lon="5.40114">
        <ele>438</ele>
        <time>2021-05-29T06:54:43.737Z</time>
      </trkpt>
      <trkpt lat="46.50927" lon="5.40116">
        <ele>438</ele>
        <time>2021-05-29T06:54:44.738Z</time>
      </trkpt>
      <trkpt lat="46.50928" lon="5.40118">
        <ele>437</ele>
        <time>2021-05-29T06:54:45.738Z</time>
      </trkpt>
      <trkpt lat="46.50929" lon="5.4012">
        <ele>437</ele>
        <time>2021-05-29T06:54:46.737Z</time>
      </trkpt>
      <trkpt lat="46.50929" lon="5.40122">
        <ele>437</ele>
        <time>2021-05-29T06:54:47.738Z</time>
      </trkpt>
      <trkpt lat="46.5093" lon="5.40123">
        <ele>436</ele>
        <time>2021-05-29T06:54:48.738Z</time>
      </trkpt>
      <trkpt lat="46.50931" lon="5.40125">
        <ele>436</ele>
        <time>2021-05-29T06:54:49.738Z</time>
      </trkpt>
      <trkpt lat="46.50931" lon="5.40126">
        <ele>436</ele>
        <time>2021-05-29T06:54:50.738Z</time>
      </trkpt>
      <trkpt lat="46.50932" lon="5.40128">
        <ele>435</ele>
        <time>2021-05-29T06:54:51.737Z</time>
      </trkpt>
      <trkpt lat="46.50932" lon="5.4013">
        <ele>435</ele>
        <time>2021-05-29T06:54:52.738Z</time>
      </trkpt>
      <trkpt lat="46.50933" lon="5.40131">
        <ele>436</ele>
        <time>2021-05-29T06:54:53.737Z</time>
      </trkpt>
      <trkpt lat="46.50933" lon="5.40133">
        <ele>436</ele>
        <time>2021-05-29T06:54:54.738Z</time>
      </trkpt>
      <trkpt lat="46.50934" lon="5.40135">
        <ele>436</ele>
        <time>2021-05-29T06:54:55.738Z</time>
      </trkpt>
      <trkpt lat="46.50935" lon="5.40137">
        <ele>436</ele>
        <time>2021-05-29T06:54:56.738Z</time>
      </trkpt>
      <trkpt lat="46.50935" lon="5.40139">
        <ele>436</ele>
        <time>2021-05-29T06:54:57.738Z</time>
      </trkpt>
      <trkpt lat="46.50935" lon="5.4014">
        <ele>437</ele>
        <time>2021-05-29T06:54:58.738Z</time>
      </trkpt>
      <trkpt lat="46.50936" lon="5.40142">
        <ele>437</ele>
        <time>2021-05-29T06:54:59.738Z</time>
      </trkpt>
      <trkpt lat="46.50937" lon="5.40144">
        <ele>438</ele>
        <time>2021-05-29T06:55:00.737Z</time>
      </trkpt>
      <trkpt lat="46.50937" lon="5.40146">
        <ele>438</ele>
        <time>2021-05-29T06:55:01.738Z</time>
      </trkpt>
      <trkpt lat="46.50937" lon="5.40147">
        <ele>439</ele>
        <time>2021-05-29T06:55:02.738Z</time>
      </trkpt>
      <trkpt lat="46.50938" lon="5.40149">
        <ele>439</ele>
        <time>2021-05-29T06:55:03.738Z</time>
      </trkpt>
      <trkpt lat="46.50939" lon="5.40151">
        <ele>439</ele>
        <time>2021-05-29T06:55:04.738Z</time>
      </trkpt>
      <trkpt lat="46.5094" lon="5.40154">
        <ele>439</ele>
        <time>2021-05-29T06:55:05.738Z</time>
      </trkpt>
      <trkpt lat="46.50941" lon="5.40156">
        <ele>439</ele>
        <time>2021-05-29T06:55:06.737Z</time>
      </trkpt>
      <trkpt lat="46.50942" lon="5.40157">
        <ele>439</ele>
        <time>2021-05-29T06:55:07.738Z</time>
      </trkpt>
      <trkpt lat="46.50944" lon="5.4016">
        <ele>439</ele>
        <time>2021-05-29T06:55:08.738Z</time>
      </trkpt>
      <trkpt lat="46.50944" lon="5.40162">
        <ele>439</ele>
        <time>2021-05-29T06:55:09.738Z</time>
      </trkpt>
      <trkpt lat="46.50945" lon="5.40164">
        <ele>439</ele>
        <time>2021-05-29T06:55:10.738Z</time>
      </trkpt>
      <trkpt lat="46.50945" lon="5.40166">
        <ele>439</ele>
        <time>2021-05-29T06:55:11.737Z</time>
      </trkpt>
      <trkpt lat="46.50945" lon="5.40168">
        <ele>440</ele>
        <time>2021-05-29T06:55:12.737Z</time>
      </trkpt>
      <trkpt lat="46.50945" lon="5.4017">
        <ele>440</ele>
        <time>2021-05-29T06:55:13.738Z</time>
      </trkpt>
      <trkpt lat="46.50945" lon="5.40171">
        <ele>441</ele>
        <time>2021-05-29T06:55:14.738Z</time>
      </trkpt>
      <trkpt lat="46.50945" lon="5.40173">
        <ele>441</ele>
        <time>2021-05-29T06:55:15.738Z</time>
      </trkpt>
      <trkpt lat="46.50946" lon="5.40174">
        <ele>442</ele>
        <time>2021-05-29T06:55:16.738Z</time>
      </trkpt>
      <trkpt lat="46.50946" lon="5.40176">
        <ele>443</ele>
        <time>2021-05-29T06:55:17.738Z</time>
      </trkpt>
      <trkpt lat="46.50947" lon="5.40178">
        <ele>443</ele>
        <time>2021-05-29T06:55:18.737Z</time>
      </trkpt>
      <trkpt lat="46.50947" lon="5.4018">
        <ele>443</ele>
        <time>2021-05-29T06:55:19.738Z</time>
      </trkpt>
      <trkpt lat="46.50947" lon="5.40181">
        <ele>444</ele>
        <time>2021-05-29T06:55:20.738Z</time>
      </trkpt>
      <trkpt lat="46.50946" lon="5.40183">
        <ele>444</ele>
        <time>2021-05-29T06:55:21.737Z</time>
      </trkpt>
      <trkpt lat="46.50946" lon="5.40185">
        <ele>444</ele>
        <time>2021-05-29T06:55:22.738Z</time>
      </trkpt>
      <trkpt lat="46.50946" lon="5.40186">
        <ele>444</ele>
        <time>2021-05-29T06:55:23.738Z</time>
      </trkpt>
      <trkpt lat="46.50946" lon="5.40188">
        <ele>444</ele>
        <time>2021-05-29T06:55:24.738Z</time>
      </trkpt>
      <trkpt lat="46.50947" lon="5.4019">
        <ele>445</ele>
        <time>2021-05-29T06:55:25.737Z</time>
      </trkpt>
      <trkpt lat="46.50947" lon="5.40192">
        <ele>445</ele>
        <time>2021-05-29T06:55:26.737Z</time>
      </trkpt>
      <trkpt lat="46.50947" lon="5.40194">
        <ele>445</ele>
        <time>2021-05-29T06:55:27.738Z</time>
      </trkpt>
      <trkpt lat="46.50948" lon="5.40196">
        <ele>445</ele>
        <time>2021-05-29T06:55:28.738Z</time>
      </trkpt>
      <trkpt lat="46.50948" lon="5.40198">
        <ele>445</ele>
        <time>2021-05-29T06:55:29.738Z</time>
      </trkpt>
      <trkpt lat="46.50949" lon="5.40201">
        <ele>446</ele>
        <time>2021-05-29T06:55:30.738Z</time>
      </trkpt>
      <trkpt lat="46.5095" lon="5.40203">
        <ele>447</ele>
        <time>2021-05-29T06:55:31.738Z</time>
      </trkpt>
      <trkpt lat="46.5095" lon="5.40205">
        <ele>447</ele>
        <time>2021-05-29T06:55:32.737Z</time>
      </trkpt>
      <trkpt lat="46.5095" lon="5.40207">
        <ele>448</ele>
        <time>2021-05-29T06:55:33.738Z</time>
      </trkpt>
      <trkpt lat="46.50951" lon="5.40209">
        <ele>448</ele>
        <time>2021-05-29T06:55:34.738Z</time>
      </trkpt>
      <trkpt lat="46.5095" lon="5.40212">
        <ele>449</ele>
        <time>2021-05-29T06:55:35.738Z</time>
      </trkpt>
      <trkpt lat="46.50949" lon="5.40214">
        <ele>449</ele>
        <time>2021-05-29T06:55:36.738Z</time>
      </trkpt>
      <trkpt lat="46.50949" lon="5.40217">
        <ele>449</ele>
        <time>2021-05-29T06:55:37.738Z</time>
      </trkpt>
      <trkpt lat="46.50949" lon="5.40219">
        <ele>450</ele>
        <time>2021-05-29T06:55:38.738Z</time>
      </trkpt>
      <trkpt lat="46.50948" lon="5.40222">
        <ele>450</ele>
        <time>2021-05-29T06:55:39.738Z</time>
      </trkpt>
      <trkpt lat="46.50948" lon="5.40224">
        <ele>451</ele>
        <time>2021-05-29T06:55:40.738Z</time>
      </trkpt>
      <trkpt lat="46.50948" lon="5.40227">
        <ele>451</ele>
        <time>2021-05-29T06:55:41.738Z</time>
      </trkpt>
      <trkpt lat="46.50948" lon="5.40229">
        <ele>452</ele>
        <time>2021-05-29T06:55:42.738Z</time>
      </trkpt>
      <trkpt lat="46.50948" lon="5.40231">
        <ele>452</ele>
        <time>2021-05-29T06:55:43.738Z</time>
      </trkpt>
      <trkpt lat="46.50948" lon="5.40233">
        <ele>452</ele>
        <time>2021-05-29T06:55:44.738Z</time>
      </trkpt>
      <trkpt lat="46.50948" lon="5.40234">
        <ele>452</ele>
        <time>2021-05-29T06:55:45.738Z</time>
      </trkpt>
      <trkpt lat="46.50948" lon="5.40236">
        <ele>451</ele>
        <time>2021-05-29T06:55:46.738Z</time>
      </trkpt>
      <trkpt lat="46.50948" lon="5.40236">
        <ele>451</ele>
        <time>2021-05-29T06:55:47.737Z</time>
      </trkpt>
      <trkpt lat="46.50948" lon="5.40235">
        <ele>451</ele>
        <time>2021-05-29T06:55:48.738Z</time>
      </trkpt>
      <trkpt lat="46.50947" lon="5.40234">
        <ele>452</ele>
        <time>2021-05-29T06:55:49.738Z</time>
      </trkpt>
      <trkpt lat="46.50947" lon="5.40232">
        <ele>452</ele>
        <time>2021-05-29T06:55:50.738Z</time>
      </trkpt>
      <trkpt lat="46.50947" lon="5.4023">
        <ele>451</ele>
        <time>2021-05-29T06:55:51.738Z</time>
      </trkpt>
      <trkpt lat="46.50947" lon="5.40226">
        <ele>451</ele>
        <time>2021-05-29T06:55:52.737Z</time>
      </trkpt>
      <trkpt lat="46.50947" lon="5.40223">
        <ele>451</ele>
        <time>2021-05-29T06:55:53.738Z</time>
      </trkpt>
      <trkpt lat="46.50947" lon="5.4022">
        <ele>451</ele>
        <time>2021-05-29T06:55:54.738Z</time>
      </trkpt>
      <trkpt lat="46.50948" lon="5.40218">
        <ele>451</ele>
        <time>2021-05-29T06:55:55.738Z</time>
      </trkpt>
      <trkpt lat="46.50947" lon="5.40215">
        <ele>451</ele>
        <time>2021-05-29T06:55:56.738Z</time>
      </trkpt>
      <trkpt lat="46.50947" lon="5.40212">
        <ele>451</ele>
        <time>2021-05-29T06:55:57.738Z</time>
      </trkpt>
      <trkpt lat="46.50947" lon="5.40209">
        <ele>451</ele>
        <time>2021-05-29T06:55:58.737Z</time>
      </trkpt>
      <trkpt lat="46.50947" lon="5.40207">
        <ele>451</ele>
        <time>2021-05-29T06:55:59.737Z</time>
      </trkpt>
      <trkpt lat="46.50947" lon="5.40205">
        <ele>451</ele>
        <time>2021-05-29T06:56:00.737Z</time>
      </trkpt>
      <trkpt lat="46.50947" lon="5.40202">
        <ele>451</ele>
        <time>2021-05-29T06:56:01.737Z</time>
      </trkpt>
      <trkpt lat="46.50947" lon="5.40199">
        <ele>451</ele>
        <time>2021-05-29T06:56:02.738Z</time>
      </trkpt>
      <trkpt lat="46.50946" lon="5.40197">
        <ele>451</ele>
        <time>2021-05-29T06:56:03.738Z</time>
      </trkpt>
      <trkpt lat="46.50945" lon="5.40194">
        <ele>451</ele>
        <time>2021-05-29T06:56:04.738Z</time>
      </trkpt>
      <trkpt lat="46.50945" lon="5.40192">
        <ele>450</ele>
        <time>2021-05-29T06:56:05.738Z</time>
      </trkpt>
      <trkpt lat="46.50945" lon="5.4019">
        <ele>450</ele>
        <time>2021-05-29T06:56:06.738Z</time>
      </trkpt>
      <trkpt lat="46.50945" lon="5.40187">
        <ele>449</ele>
        <time>2021-05-29T06:56:07.737Z</time>
      </trkpt>
      <trkpt lat="46.50944" lon="5.40185">
        <ele>449</ele>
        <time>2021-05-29T06:56:08.738Z</time>
      </trkpt>
      <trkpt lat="46.50944" lon="5.40182">
        <ele>449</ele>
        <time>2021-05-29T06:56:09.738Z</time>
      </trkpt>
      <trkpt lat="46.50944" lon="5.4018">
        <ele>448</ele>
        <time>2021-05-29T06:56:10.738Z</time>
      </trkpt>
      <trkpt lat="46.50943" lon="5.40177">
        <ele>448</ele>
        <time>2021-05-29T06:56:11.737Z</time>
      </trkpt>
      <trkpt lat="46.50942" lon="5.40175">
        <ele>448</ele>
        <time>2021-05-29T06:56:12.737Z</time>
      </trkpt>
      <trkpt lat="46.50942" lon="5.40172">
        <ele>447</ele>
        <time>2021-05-29T06:56:13.738Z</time>
      </trkpt>
      <trkpt lat="46.50941" lon="5.40169">
        <ele>447</ele>
        <time>2021-05-29T06:56:14.738Z</time>
      </trkpt>
      <trkpt lat="46.50941" lon="5.40167">
        <ele>447</ele>
        <time>2021-05-29T06:56:15.738Z</time>
      </trkpt>
      <trkpt lat="46.5094" lon="5.40164">
        <ele>447</ele>
        <time>2021-05-29T06:56:16.737Z</time>
      </trkpt>
      <trkpt lat="46.5094" lon="5.40162">
        <ele>447</ele>
        <time>2021-05-29T06:56:17.737Z</time>
      </trkpt>
      <trkpt lat="46.50939" lon="5.40159">
        <ele>447</ele>
        <time>2021-05-29T06:56:18.738Z</time>
      </trkpt>
      <trkpt lat="46.50939" lon="5.40156">
        <ele>446</ele>
        <time>2021-05-29T06:56:19.738Z</time>
      </trkpt>
      <trkpt lat="46.50939" lon="5.40154">
        <ele>446</ele>
        <time>2021-05-29T06:56:20.737Z</time>
      </trkpt>
      <trkpt lat="46.50939" lon="5.40153">
        <ele>446</ele>
        <time>2021-05-29T06:56:21.738Z</time>
      </trkpt>
      <trkpt lat="46.50939" lon="5.40153">
        <ele>445</ele>
        <time>2021-05-29T06:56:22.738Z</time>
      </trkpt>
      <trkpt lat="46.50939" lon="5.40154">
        <ele>444</ele>
        <time>2021-05-29T06:56:23.737Z</time>
      </trkpt>
      <trkpt lat="46.50939" lon="5.40155">
        <ele>444</ele>
        <time>2021-05-29T06:56:24.738Z</time>
      </trkpt>
      <trkpt lat="46.5094" lon="5.40156">
        <ele>443</ele>
        <time>2021-05-29T06:56:25.738Z</time>
      </trkpt>
      <trkpt lat="46.50941" lon="5.40157">
        <ele>443</ele>
        <time>2021-05-29T06:56:26.738Z</time>
      </trkpt>
      <trkpt lat="46.50942" lon="5.40158">
        <ele>442</ele>
        <time>2021-05-29T06:56:27.737Z</time>
      </trkpt>
      <trkpt lat="46.50942" lon="5.40159">
        <ele>442</ele>
        <time>2021-05-29T06:56:28.738Z</time>
      </trkpt>
      <trkpt lat="46.50943" lon="5.4016">
        <ele>442</ele>
        <time>2021-05-29T06:56:29.738Z</time>
      </trkpt>
      <trkpt lat="46.50943" lon="5.40162">
        <ele>442</ele>
        <time>2021-05-29T06:56:30.738Z</time>
      </trkpt>
      <trkpt lat="46.50944" lon="5.40164">
        <ele>442</ele>
        <time>2021-05-29T06:56:31.738Z</time>
      </trkpt>
      <trkpt lat="46.50944" lon="5.40166">
        <ele>442</ele>
        <time>2021-05-29T06:56:32.738Z</time>
      </trkpt>
      <trkpt lat="46.50945" lon="5.40168">
        <ele>442</ele>
        <time>2021-05-29T06:56:33.737Z</time>
      </trkpt>
      <trkpt lat="46.50945" lon="5.4017">
        <ele>442</ele>
        <time>2021-05-29T06:56:34.738Z</time>
      </trkpt>
      <trkpt lat="46.50945" lon="5.40171">
        <ele>442</ele>
        <time>2021-05-29T06:56:35.738Z</time>
      </trkpt>
      <trkpt lat="46.50945" lon="5.40173">
        <ele>442</ele>
        <time>2021-05-29T06:56:36.737Z</time>
      </trkpt>
      <trkpt lat="46.50945" lon="5.40174">
        <ele>442</ele>
        <time>2021-05-29T06:56:37.738Z</time>
      </trkpt>
      <trkpt lat="46.50945" lon="5.40175">
        <ele>442</ele>
        <time>2021-05-29T06:56:38.738Z</time>
      </trkpt>
      <trkpt lat="46.50946" lon="5.40177">
        <ele>442</ele>
        <time>2021-05-29T06:56:39.738Z</time>
      </trkpt>
      <trkpt lat="46.50946" lon="5.40179">
        <ele>442</ele>
        <time>2021-05-29T06:56:40.737Z</time>
      </trkpt>
      <trkpt lat="46.50946" lon="5.4018">
        <ele>442</ele>
        <time>2021-05-29T06:56:41.738Z</time>
      </trkpt>
      <trkpt lat="46.50947" lon="5.40181">
        <ele>443</ele>
        <time>2021-05-29T06:56:42.737Z</time>
      </trkpt>
      <trkpt lat="46.50947" lon="5.40182">
        <ele>443</ele>
        <time>2021-05-29T06:56:43.738Z</time>
      </trkpt>
      <trkpt lat="46.50947" lon="5.40184">
        <ele>443</ele>
        <time>2021-05-29T06:56:44.738Z</time>
      </trkpt>
      <trkpt lat="46.50948" lon="5.40186">
        <ele>444</ele>
        <time>2021-05-29T06:56:45.738Z</time>
      </trkpt>
      <trkpt lat="46.50948" lon="5.40188">
        <ele>444</ele>
        <time>2021-05-29T06:56:46.737Z</time>
      </trkpt>
      <trkpt lat="46.50948" lon="5.4019">
        <ele>444</ele>
        <time>2021-05-29T06:56:47.738Z</time>
      </trkpt>
      <trkpt lat="46.50948" lon="5.40192">
        <ele>444</ele>
        <time>2021-05-29T06:56:48.738Z</time>
      </trkpt>
      <trkpt lat="46.50947" lon="5.40193">
        <ele>444</ele>
        <time>2021-05-29T06:56:49.738Z</time>
      </trkpt>
      <trkpt lat="46.50947" lon="5.40195">
        <ele>444</ele>
        <time>2021-05-29T06:56:50.738Z</time>
      </trkpt>
      <trkpt lat="46.50947" lon="5.40196">
        <ele>444</ele>
        <time>2021-05-29T06:56:51.738Z</time>
      </trkpt>
      <trkpt lat="46.50947" lon="5.40198">
        <ele>444</ele>
        <time>2021-05-29T06:56:52.738Z</time>
      </trkpt>
      <trkpt lat="46.50947" lon="5.402">
        <ele>445</ele>
        <time>2021-05-29T06:56:53.738Z</time>
      </trkpt>
      <trkpt lat="46.50947" lon="5.40202">
        <ele>445</ele>
        <time>2021-05-29T06:56:54.737Z</time>
      </trkpt>
      <trkpt lat="46.50948" lon="5.40205">
        <ele>445</ele>
        <time>2021-05-29T06:56:55.738Z</time>
      </trkpt>
      <trkpt lat="46.50948" lon="5.40207">
        <ele>446</ele>
        <time>2021-05-29T06:56:56.737Z</time>
      </trkpt>
      <trkpt lat="46.50949" lon="5.40209">
        <ele>446</ele>
        <time>2021-05-29T06:56:57.738Z</time>
      </trkpt>
      <trkpt lat="46.50948" lon="5.4021">
        <ele>446</ele>
        <time>2021-05-29T06:56:58.737Z</time>
      </trkpt>
      <trkpt lat="46.50948" lon="5.40212">
        <ele>446</ele>
        <time>2021-05-29T06:56:59.738Z</time>
      </trkpt>
      <trkpt lat="46.50948" lon="5.40214">
        <ele>446</ele>
        <time>2021-05-29T06:57:00.738Z</time>
      </trkpt>
      <trkpt lat="46.50948" lon="5.40217">
        <ele>446</ele>
        <time>2021-05-29T06:57:01.738Z</time>
      </trkpt>
      <trkpt lat="46.50948" lon="5.4022">
        <ele>446</ele>
        <time>2021-05-29T06:57:02.737Z</time>
      </trkpt>
      <trkpt lat="46.50948" lon="5.40223">
        <ele>447</ele>
        <time>2021-05-29T06:57:03.738Z</time>
      </trkpt>
      <trkpt lat="46.50948" lon="5.40226">
        <ele>447</ele>
        <time>2021-05-29T06:57:04.738Z</time>
      </trkpt>
      <trkpt lat="46.50947" lon="5.40228">
        <ele>448</ele>
        <time>2021-05-29T06:57:05.738Z</time>
      </trkpt>
      <trkpt lat="46.50947" lon="5.40231">
        <ele>449</ele>
        <time>2021-05-29T06:57:06.738Z</time>
      </trkpt>
      <trkpt lat="46.50945" lon="5.40234">
        <ele>450</ele>
        <time>2021-05-29T06:57:07.738Z</time>
      </trkpt>
      <trkpt lat="46.50945" lon="5.40236">
        <ele>451</ele>
        <time>2021-05-29T06:57:08.737Z</time>
      </trkpt>
      <trkpt lat="46.50944" lon="5.40238">
        <ele>453</ele>
        <time>2021-05-29T06:57:09.738Z</time>
      </trkpt>
      <trkpt lat="46.50943" lon="5.40241">
        <ele>453</ele>
        <time>2021-05-29T06:57:10.738Z</time>
      </trkpt>
      <trkpt lat="46.50943" lon="5.40244">
        <ele>454</ele>
        <time>2021-05-29T06:57:11.738Z</time>
      </trkpt>
      <trkpt lat="46.50941" lon="5.40247">
        <ele>455</ele>
        <time>2021-05-29T06:57:12.738Z</time>
      </trkpt>
      <trkpt lat="46.50941" lon="5.40249">
        <ele>456</ele>
        <time>2021-05-29T06:57:13.737Z</time>
      </trkpt>
      <trkpt lat="46.5094" lon="5.40251">
        <ele>456</ele>
        <time>2021-05-29T06:57:14.738Z</time>
      </trkpt>
      <trkpt lat="46.50939" lon="5.40254">
        <ele>456</ele>
        <time>2021-05-29T06:57:15.738Z</time>
      </trkpt>
      <trkpt lat="46.50939" lon="5.40256">
        <ele>456</ele>
        <time>2021-05-29T06:57:16.738Z</time>
      </trkpt>
      <trkpt lat="46.50938" lon="5.40259">
        <ele>456</ele>
        <time>2021-05-29T06:57:17.738Z</time>
      </trkpt>
      <trkpt lat="46.50938" lon="5.40262">
        <ele>456</ele>
        <time>2021-05-29T06:57:18.737Z</time>
      </trkpt>
      <trkpt lat="46.50937" lon="5.40265">
        <ele>456</ele>
        <time>2021-05-29T06:57:19.738Z</time>
      </trkpt>
      <trkpt lat="46.50936" lon="5.40268">
        <ele>456</ele>
        <time>2021-05-29T06:57:20.738Z</time>
      </trkpt>
      <trkpt lat="46.50936" lon="5.4027">
        <ele>456</ele>
        <time>2021-05-29T06:57:21.737Z</time>
      </trkpt>
      <trkpt lat="46.50935" lon="5.40272">
        <ele>456</ele>
        <time>2021-05-29T06:57:22.737Z</time>
      </trkpt>
      <trkpt lat="46.50934" lon="5.40275">
        <ele>455</ele>
        <time>2021-05-29T06:57:23.737Z</time>
      </trkpt>
      <trkpt lat="46.50933" lon="5.40278">
        <ele>455</ele>
        <time>2021-05-29T06:57:24.737Z</time>
      </trkpt>
      <trkpt lat="46.50932" lon="5.40281">
        <ele>455</ele>
        <time>2021-05-29T06:57:25.737Z</time>
      </trkpt>
      <trkpt lat="46.50931" lon="5.40284">
        <ele>455</ele>
        <time>2021-05-29T06:57:26.738Z</time>
      </trkpt>
      <trkpt lat="46.5093" lon="5.40286">
        <ele>454</ele>
        <time>2021-05-29T06:57:27.737Z</time>
      </trkpt>
      <trkpt lat="46.50929" lon="5.40289">
        <ele>454</ele>
        <time>2021-05-29T06:57:28.738Z</time>
      </trkpt>
      <trkpt lat="46.50928" lon="5.40291">
        <ele>454</ele>
        <time>2021-05-29T06:57:29.738Z</time>
      </trkpt>
      <trkpt lat="46.50926" lon="5.40292">
        <ele>453</ele>
        <time>2021-05-29T06:57:30.738Z</time>
      </trkpt>
      <trkpt lat="46.50925" lon="5.40294">
        <ele>453</ele>
        <time>2021-05-29T06:57:31.738Z</time>
      </trkpt>
      <trkpt lat="46.50924" lon="5.40297">
        <ele>452</ele>
        <time>2021-05-29T06:57:32.738Z</time>
      </trkpt>
      <trkpt lat="46.50923" lon="5.40299">
        <ele>452</ele>
        <time>2021-05-29T06:57:33.738Z</time>
      </trkpt>
      <trkpt lat="46.50922" lon="5.40301">
        <ele>452</ele>
        <time>2021-05-29T06:57:34.738Z</time>
      </trkpt>
      <trkpt lat="46.50922" lon="5.40304">
        <ele>451</ele>
        <time>2021-05-29T06:57:35.738Z</time>
      </trkpt>
      <trkpt lat="46.50921" lon="5.40306">
        <ele>451</ele>
        <time>2021-05-29T06:57:36.737Z</time>
      </trkpt>
      <trkpt lat="46.5092" lon="5.4031">
        <ele>451</ele>
        <time>2021-05-29T06:57:37.737Z</time>
      </trkpt>
      <trkpt lat="46.50919" lon="5.40312">
        <ele>451</ele>
        <time>2021-05-29T06:57:38.738Z</time>
      </trkpt>
      <trkpt lat="46.50918" lon="5.40315">
        <ele>450</ele>
        <time>2021-05-29T06:57:39.737Z</time>
      </trkpt>
      <trkpt lat="46.50918" lon="5.40317">
        <ele>450</ele>
        <time>2021-05-29T06:57:40.738Z</time>
      </trkpt>
      <trkpt lat="46.50913" lon="5.40321">
        <ele>448</ele>
        <time>2021-05-29T06:57:41.738Z</time>
      </trkpt>
      <trkpt lat="46.50913" lon="5.40321">
        <ele>448</ele>
        <time>2021-05-29T06:57:42.738Z</time>
      </trkpt>
      <trkpt lat="46.50913" lon="5.40321">
        <ele>447</ele>
        <time>2021-05-29T06:57:43.737Z</time>
      </trkpt>
      <trkpt lat="46.50913" lon="5.40321">
        <ele>447</ele>
        <time>2021-05-29T06:57:44.737Z</time>
      </trkpt>
      <trkpt lat="46.50913" lon="5.40321">
        <ele>447</ele>
        <time>2021-05-29T06:57:45.738Z</time>
      </trkpt>
      <trkpt lat="46.50913" lon="5.40324">
        <ele>447</ele>
        <time>2021-05-29T06:57:46.738Z</time>
      </trkpt>
      <trkpt lat="46.50913" lon="5.40327">
        <ele>447</ele>
        <time>2021-05-29T06:57:47.737Z</time>
      </trkpt>
      <trkpt lat="46.50912" lon="5.4033">
        <ele>447</ele>
        <time>2021-05-29T06:57:48.738Z</time>
      </trkpt>
      <trkpt lat="46.50912" lon="5.40334">
        <ele>447</ele>
        <time>2021-05-29T06:57:49.738Z</time>
      </trkpt>
      <trkpt lat="46.50912" lon="5.40338">
        <ele>447</ele>
        <time>2021-05-29T06:57:50.738Z</time>
      </trkpt>
      <trkpt lat="46.50912" lon="5.40341">
        <ele>447</ele>
        <time>2021-05-29T06:57:51.738Z</time>
      </trkpt>
      <trkpt lat="46.50912" lon="5.40344">
        <ele>447</ele>
        <time>2021-05-29T06:57:52.738Z</time>
      </trkpt>
      <trkpt lat="46.50912" lon="5.40348">
        <ele>447</ele>
        <time>2021-05-29T06:57:53.737Z</time>
      </trkpt>
      <trkpt lat="46.50912" lon="5.40352">
        <ele>446</ele>
        <time>2021-05-29T06:57:54.738Z</time>
      </trkpt>
      <trkpt lat="46.50911" lon="5.40355">
        <ele>446</ele>
        <time>2021-05-29T06:57:55.738Z</time>
      </trkpt>
      <trkpt lat="46.50911" lon="5.40358">
        <ele>445</ele>
        <time>2021-05-29T06:57:56.738Z</time>
      </trkpt>
      <trkpt lat="46.50911" lon="5.40361">
        <ele>445</ele>
        <time>2021-05-29T06:57:57.738Z</time>
      </trkpt>
      <trkpt lat="46.50911" lon="5.40365">
        <ele>444</ele>
        <time>2021-05-29T06:57:58.738Z</time>
      </trkpt>
      <trkpt lat="46.50911" lon="5.40367">
        <ele>444</ele>
        <time>2021-05-29T06:57:59.738Z</time>
      </trkpt>
      <trkpt lat="46.50911" lon="5.4037">
        <ele>443</ele>
        <time>2021-05-29T06:58:00.738Z</time>
      </trkpt>
      <trkpt lat="46.50911" lon="5.40373">
        <ele>443</ele>
        <time>2021-05-29T06:58:01.738Z</time>
      </trkpt>
      <trkpt lat="46.50911" lon="5.40376">
        <ele>443</ele>
        <time>2021-05-29T06:58:02.738Z</time>
      </trkpt>
      <trkpt lat="46.50911" lon="5.40379">
        <ele>442</ele>
        <time>2021-05-29T06:58:03.738Z</time>
      </trkpt>
      <trkpt lat="46.5091" lon="5.40382">
        <ele>442</ele>
        <time>2021-05-29T06:58:04.738Z</time>
      </trkpt>
      <trkpt lat="46.50911" lon="5.40385">
        <ele>441</ele>
        <time>2021-05-29T06:58:05.738Z</time>
      </trkpt>
      <trkpt lat="46.50911" lon="5.40388">
        <ele>441</ele>
        <time>2021-05-29T06:58:06.738Z</time>
      </trkpt>
      <trkpt lat="46.50911" lon="5.40392">
        <ele>440</ele>
        <time>2021-05-29T06:58:07.737Z</time>
      </trkpt>
      <trkpt lat="46.50911" lon="5.40395">
        <ele>440</ele>
        <time>2021-05-29T06:58:08.738Z</time>
      </trkpt>
      <trkpt lat="46.50911" lon="5.40398">
        <ele>440</ele>
        <time>2021-05-29T06:58:09.738Z</time>
      </trkpt>
      <trkpt lat="46.50911" lon="5.40402">
        <ele>440</ele>
        <time>2021-05-29T06:58:10.738Z</time>
      </trkpt>
      <trkpt lat="46.50911" lon="5.40404">
        <ele>440</ele>
        <time>2021-05-29T06:58:11.738Z</time>
      </trkpt>
      <trkpt lat="46.50911" lon="5.40409">
        <ele>440</ele>
        <time>2021-05-29T06:58:12.737Z</time>
      </trkpt>
      <trkpt lat="46.5091" lon="5.40412">
        <ele>440</ele>
        <time>2021-05-29T06:58:13.738Z</time>
      </trkpt>
      <trkpt lat="46.5091" lon="5.40415">
        <ele>440</ele>
        <time>2021-05-29T06:58:14.738Z</time>
      </trkpt>
      <trkpt lat="46.5091" lon="5.40417">
        <ele>439</ele>
        <time>2021-05-29T06:58:15.737Z</time>
      </trkpt>
      <trkpt lat="46.5091" lon="5.4042">
        <ele>439</ele>
        <time>2021-05-29T06:58:16.738Z</time>
      </trkpt>
      <trkpt lat="46.5091" lon="5.40423">
        <ele>439</ele>
        <time>2021-05-29T06:58:17.738Z</time>
      </trkpt>
      <trkpt lat="46.50909" lon="5.40427">
        <ele>439</ele>
        <time>2021-05-29T06:58:18.737Z</time>
      </trkpt>
      <trkpt lat="46.50908" lon="5.4043">
        <ele>440</ele>
        <time>2021-05-29T06:58:19.738Z</time>
      </trkpt>
      <trkpt lat="46.50908" lon="5.40435">
        <ele>440</ele>
        <time>2021-05-29T06:58:20.738Z</time>
      </trkpt>
      <trkpt lat="46.50909" lon="5.40439">
        <ele>440</ele>
        <time>2021-05-29T06:58:21.738Z</time>
      </trkpt>
      <trkpt lat="46.5091" lon="5.40441">
        <ele>439</ele>
        <time>2021-05-29T06:58:22.738Z</time>
      </trkpt>
      <trkpt lat="46.50911" lon="5.40444">
        <ele>439</ele>
        <time>2021-05-29T06:58:23.738Z</time>
      </trkpt>
      <trkpt lat="46.50913" lon="5.40447">
        <ele>438</ele>
        <time>2021-05-29T06:58:24.738Z</time>
      </trkpt>
      <trkpt lat="46.50913" lon="5.40452">
        <ele>438</ele>
        <time>2021-05-29T06:58:25.738Z</time>
      </trkpt>
      <trkpt lat="46.50913" lon="5.40455">
        <ele>437</ele>
        <time>2021-05-29T06:58:26.738Z</time>
      </trkpt>
      <trkpt lat="46.50913" lon="5.40459">
        <ele>437</ele>
        <time>2021-05-29T06:58:27.738Z</time>
      </trkpt>
      <trkpt lat="46.50913" lon="5.40462">
        <ele>437</ele>
        <time>2021-05-29T06:58:28.738Z</time>
      </trkpt>
      <trkpt lat="46.50913" lon="5.40466">
        <ele>437</ele>
        <time>2021-05-29T06:58:29.738Z</time>
      </trkpt>
      <trkpt lat="46.50914" lon="5.40471">
        <ele>436</ele>
        <time>2021-05-29T06:58:30.738Z</time>
      </trkpt>
      <trkpt lat="46.50914" lon="5.40475">
        <ele>436</ele>
        <time>2021-05-29T06:58:31.738Z</time>
      </trkpt>
      <trkpt lat="46.50915" lon="5.40478">
        <ele>436</ele>
        <time>2021-05-29T06:58:32.738Z</time>
      </trkpt>
      <trkpt lat="46.50915" lon="5.40482">
        <ele>436</ele>
        <time>2021-05-29T06:58:33.738Z</time>
      </trkpt>
      <trkpt lat="46.50915" lon="5.40486">
        <ele>436</ele>
        <time>2021-05-29T06:58:34.738Z</time>
      </trkpt>
      <trkpt lat="46.50915" lon="5.4049">
        <ele>436</ele>
        <time>2021-05-29T06:58:35.737Z</time>
      </trkpt>
      <trkpt lat="46.50915" lon="5.40494">
        <ele>436</ele>
        <time>2021-05-29T06:58:36.738Z</time>
      </trkpt>
      <trkpt lat="46.50915" lon="5.40499">
        <ele>436</ele>
        <time>2021-05-29T06:58:37.738Z</time>
      </trkpt>
      <trkpt lat="46.50915" lon="5.40502">
        <ele>436</ele>
        <time>2021-05-29T06:58:38.738Z</time>
      </trkpt>
      <trkpt lat="46.50915" lon="5.40506">
        <ele>436</ele>
        <time>2021-05-29T06:58:39.738Z</time>
      </trkpt>
      <trkpt lat="46.50915" lon="5.40509">
        <ele>436</ele>
        <time>2021-05-29T06:58:40.737Z</time>
      </trkpt>
      <trkpt lat="46.50914" lon="5.40512">
        <ele>436</ele>
        <time>2021-05-29T06:58:41.738Z</time>
      </trkpt>
      <trkpt lat="46.50914" lon="5.40514">
        <ele>437</ele>
        <time>2021-05-29T06:58:42.738Z</time>
      </trkpt>
      <trkpt lat="46.50913" lon="5.40518">
        <ele>437</ele>
        <time>2021-05-29T06:58:43.737Z</time>
      </trkpt>
      <trkpt lat="46.50913" lon="5.40521">
        <ele>437</ele>
        <time>2021-05-29T06:58:44.738Z</time>
      </trkpt>
      <trkpt lat="46.50913" lon="5.40523">
        <ele>437</ele>
        <time>2021-05-29T06:58:45.737Z</time>
      </trkpt>
      <trkpt lat="46.50912" lon="5.40526">
        <ele>437</ele>
        <time>2021-05-29T06:58:46.738Z</time>
      </trkpt>
      <trkpt lat="46.50912" lon="5.40528">
        <ele>437</ele>
        <time>2021-05-29T06:58:47.738Z</time>
      </trkpt>
      <trkpt lat="46.50911" lon="5.40532">
        <ele>437</ele>
        <time>2021-05-29T06:58:48.738Z</time>
      </trkpt>
      <trkpt lat="46.50911" lon="5.40534">
        <ele>438</ele>
        <time>2021-05-29T06:58:49.738Z</time>
      </trkpt>
      <trkpt lat="46.5091" lon="5.40537">
        <ele>439</ele>
        <time>2021-05-29T06:58:50.738Z</time>
      </trkpt>
      <trkpt lat="46.50909" lon="5.40539">
        <ele>439</ele>
        <time>2021-05-29T06:58:51.738Z</time>
      </trkpt>
      <trkpt lat="46.50909" lon="5.40543">
        <ele>439</ele>
        <time>2021-05-29T06:58:52.738Z</time>
      </trkpt>
      <trkpt lat="46.50908" lon="5.40545">
        <ele>440</ele>
        <time>2021-05-29T06:58:53.738Z</time>
      </trkpt>
      <trkpt lat="46.50907" lon="5.40548">
        <ele>440</ele>
        <time>2021-05-29T06:58:54.738Z</time>
      </trkpt>
      <trkpt lat="46.50907" lon="5.4055">
        <ele>440</ele>
        <time>2021-05-29T06:58:55.738Z</time>
      </trkpt>
      <trkpt lat="46.50906" lon="5.40552">
        <ele>440</ele>
        <time>2021-05-29T06:58:56.738Z</time>
      </trkpt>
      <trkpt lat="46.50905" lon="5.40556">
        <ele>440</ele>
        <time>2021-05-29T06:58:57.737Z</time>
      </trkpt>
      <trkpt lat="46.50904" lon="5.40558">
        <ele>441</ele>
        <time>2021-05-29T06:58:58.738Z</time>
      </trkpt>
      <trkpt lat="46.50903" lon="5.40561">
        <ele>441</ele>
        <time>2021-05-29T06:58:59.737Z</time>
      </trkpt>
      <trkpt lat="46.50902" lon="5.40563">
        <ele>441</ele>
        <time>2021-05-29T06:59:00.737Z</time>
      </trkpt>
      <trkpt lat="46.50901" lon="5.40565">
        <ele>441</ele>
        <time>2021-05-29T06:59:01.738Z</time>
      </trkpt>
      <trkpt lat="46.509" lon="5.40568">
        <ele>441</ele>
        <time>2021-05-29T06:59:02.737Z</time>
      </trkpt>
      <trkpt lat="46.50898" lon="5.4057">
        <ele>442</ele>
        <time>2021-05-29T06:59:03.738Z</time>
      </trkpt>
      <trkpt lat="46.50897" lon="5.40572">
        <ele>442</ele>
        <time>2021-05-29T06:59:04.738Z</time>
      </trkpt>
      <trkpt lat="46.50896" lon="5.40575">
        <ele>442</ele>
        <time>2021-05-29T06:59:05.738Z</time>
      </trkpt>
      <trkpt lat="46.50895" lon="5.40577">
        <ele>441</ele>
        <time>2021-05-29T06:59:06.737Z</time>
      </trkpt>
      <trkpt lat="46.50894" lon="5.40579">
        <ele>441</ele>
        <time>2021-05-29T06:59:07.738Z</time>
      </trkpt>
      <trkpt lat="46.50894" lon="5.40581">
        <ele>441</ele>
        <time>2021-05-29T06:59:08.737Z</time>
      </trkpt>
      <trkpt lat="46.50893" lon="5.40583">
        <ele>441</ele>
        <time>2021-05-29T06:59:09.737Z</time>
      </trkpt>
      <trkpt lat="46.50892" lon="5.40585">
        <ele>441</ele>
        <time>2021-05-29T06:59:10.737Z</time>
      </trkpt>
      <trkpt lat="46.50891" lon="5.40587">
        <ele>441</ele>
        <time>2021-05-29T06:59:11.738Z</time>
      </trkpt>
      <trkpt lat="46.5089" lon="5.40589">
        <ele>441</ele>
        <time>2021-05-29T06:59:12.737Z</time>
      </trkpt>
      <trkpt lat="46.5089" lon="5.40591">
        <ele>442</ele>
        <time>2021-05-29T06:59:13.737Z</time>
      </trkpt>
      <trkpt lat="46.50889" lon="5.40592">
        <ele>442</ele>
        <time>2021-05-29T06:59:14.737Z</time>
      </trkpt>
      <trkpt lat="46.50888" lon="5.40595">
        <ele>443</ele>
        <time>2021-05-29T06:59:15.738Z</time>
      </trkpt>
      <trkpt lat="46.50887" lon="5.40597">
        <ele>443</ele>
        <time>2021-05-29T06:59:16.738Z</time>
      </trkpt>
      <trkpt lat="46.50886" lon="5.406">
        <ele>444</ele>
        <time>2021-05-29T06:59:17.738Z</time>
      </trkpt>
      <trkpt lat="46.50886" lon="5.40602">
        <ele>444</ele>
        <time>2021-05-29T06:59:18.738Z</time>
      </trkpt>
      <trkpt lat="46.50885" lon="5.40605">
        <ele>445</ele>
        <time>2021-05-29T06:59:19.738Z</time>
      </trkpt>
      <trkpt lat="46.50884" lon="5.40608">
        <ele>445</ele>
        <time>2021-05-29T06:59:20.737Z</time>
      </trkpt>
      <trkpt lat="46.50883" lon="5.4061">
        <ele>445</ele>
        <time>2021-05-29T06:59:21.738Z</time>
      </trkpt>
      <trkpt lat="46.50882" lon="5.40612">
        <ele>445</ele>
        <time>2021-05-29T06:59:22.737Z</time>
      </trkpt>
      <trkpt lat="46.50881" lon="5.40614">
        <ele>445</ele>
        <time>2021-05-29T06:59:23.737Z</time>
      </trkpt>
      <trkpt lat="46.5088" lon="5.40617">
        <ele>445</ele>
        <time>2021-05-29T06:59:24.738Z</time>
      </trkpt>
      <trkpt lat="46.50879" lon="5.40619">
        <ele>445</ele>
        <time>2021-05-29T06:59:25.738Z</time>
      </trkpt>
      <trkpt lat="46.50878" lon="5.40621">
        <ele>446</ele>
        <time>2021-05-29T06:59:26.738Z</time>
      </trkpt>
      <trkpt lat="46.50877" lon="5.40623">
        <ele>446</ele>
        <time>2021-05-29T06:59:27.738Z</time>
      </trkpt>
      <trkpt lat="46.50876" lon="5.40626">
        <ele>446</ele>
        <time>2021-05-29T06:59:28.738Z</time>
      </trkpt>
      <trkpt lat="46.50875" lon="5.40628">
        <ele>446</ele>
        <time>2021-05-29T06:59:29.738Z</time>
      </trkpt>
      <trkpt lat="46.50874" lon="5.40629">
        <ele>446</ele>
        <time>2021-05-29T06:59:30.737Z</time>
      </trkpt>
      <trkpt lat="46.50874" lon="5.40631">
        <ele>447</ele>
        <time>2021-05-29T06:59:31.738Z</time>
      </trkpt>
      <trkpt lat="46.50873" lon="5.40634">
        <ele>448</ele>
        <time>2021-05-29T06:59:32.738Z</time>
      </trkpt>
      <trkpt lat="46.50872" lon="5.40636">
        <ele>448</ele>
        <time>2021-05-29T06:59:33.738Z</time>
      </trkpt>
      <trkpt lat="46.5087" lon="5.40639">
        <ele>449</ele>
        <time>2021-05-29T06:59:34.737Z</time>
      </trkpt>
      <trkpt lat="46.50869" lon="5.40641">
        <ele>449</ele>
        <time>2021-05-29T06:59:35.738Z</time>
      </trkpt>
      <trkpt lat="46.50869" lon="5.40643">
        <ele>449</ele>
        <time>2021-05-29T06:59:36.737Z</time>
      </trkpt>
      <trkpt lat="46.50868" lon="5.40645">
        <ele>449</ele>
        <time>2021-05-29T06:59:37.737Z</time>
      </trkpt>
      <trkpt lat="46.50867" lon="5.40647">
        <ele>450</ele>
        <time>2021-05-29T06:59:38.738Z</time>
      </trkpt>
      <trkpt lat="46.50866" lon="5.40649">
        <ele>450</ele>
        <time>2021-05-29T06:59:39.737Z</time>
      </trkpt>
      <trkpt lat="46.50865" lon="5.40651">
        <ele>450</ele>
        <time>2021-05-29T06:59:40.737Z</time>
      </trkpt>
      <trkpt lat="46.50864" lon="5.40653">
        <ele>450</ele>
        <time>2021-05-29T06:59:41.737Z</time>
      </trkpt>
      <trkpt lat="46.50863" lon="5.40655">
        <ele>450</ele>
        <time>2021-05-29T06:59:42.738Z</time>
      </trkpt>
      <trkpt lat="46.50862" lon="5.40657">
        <ele>450</ele>
        <time>2021-05-29T06:59:43.738Z</time>
      </trkpt>
      <trkpt lat="46.50862" lon="5.40659">
        <ele>451</ele>
        <time>2021-05-29T06:59:44.737Z</time>
      </trkpt>
      <trkpt lat="46.50861" lon="5.40661">
        <ele>451</ele>
        <time>2021-05-29T06:59:45.737Z</time>
      </trkpt>
      <trkpt lat="46.5086" lon="5.40662">
        <ele>451</ele>
        <time>2021-05-29T06:59:46.738Z</time>
      </trkpt>
      <trkpt lat="46.50859" lon="5.40664">
        <ele>452</ele>
        <time>2021-05-29T06:59:47.738Z</time>
      </trkpt>
      <trkpt lat="46.50858" lon="5.40665">
        <ele>452</ele>
        <time>2021-05-29T06:59:48.738Z</time>
      </trkpt>
      <trkpt lat="46.50857" lon="5.40667">
        <ele>452</ele>
        <time>2021-05-29T06:59:49.737Z</time>
      </trkpt>
      <trkpt lat="46.50857" lon="5.40669">
        <ele>452</ele>
        <time>2021-05-29T06:59:50.738Z</time>
      </trkpt>
      <trkpt lat="46.50856" lon="5.40671">
        <ele>452</ele>
        <time>2021-05-29T06:59:51.738Z</time>
      </trkpt>
      <trkpt lat="46.50855" lon="5.40673">
        <ele>453</ele>
        <time>2021-05-29T06:59:52.738Z</time>
      </trkpt>
      <trkpt lat="46.50855" lon="5.40675">
        <ele>453</ele>
        <time>2021-05-29T06:59:53.738Z</time>
      </trkpt>
      <trkpt lat="46.50854" lon="5.40678">
        <ele>453</ele>
        <time>2021-05-29T06:59:54.738Z</time>
      </trkpt>
      <trkpt lat="46.50853" lon="5.4068">
        <ele>453</ele>
        <time>2021-05-29T06:59:55.737Z</time>
      </trkpt>
      <trkpt lat="46.50851" lon="5.40682">
        <ele>454</ele>
        <time>2021-05-29T06:59:56.738Z</time>
      </trkpt>
      <trkpt lat="46.5085" lon="5.40685">
        <ele>454</ele>
        <time>2021-05-29T06:59:57.738Z</time>
      </trkpt>
      <trkpt lat="46.50849" lon="5.40687">
        <ele>454</ele>
        <time>2021-05-29T06:59:58.738Z</time>
      </trkpt>
      <trkpt lat="46.50848" lon="5.40689">
        <ele>454</ele>
        <time>2021-05-29T06:59:59.738Z</time>
      </trkpt>
      <trkpt lat="46.50846" lon="5.40691">
        <ele>454</ele>
        <time>2021-05-29T07:00:00.738Z</time>
      </trkpt>
      <trkpt lat="46.50846" lon="5.40693">
        <ele>454</ele>
        <time>2021-05-29T07:00:01.738Z</time>
      </trkpt>
      <trkpt lat="46.50844" lon="5.40695">
        <ele>454</ele>
        <time>2021-05-29T07:00:02.738Z</time>
      </trkpt>
      <trkpt lat="46.50843" lon="5.40697">
        <ele>454</ele>
        <time>2021-05-29T07:00:03.738Z</time>
      </trkpt>
      <trkpt lat="46.50842" lon="5.40699">
        <ele>454</ele>
        <time>2021-05-29T07:00:04.738Z</time>
      </trkpt>
      <trkpt lat="46.50841" lon="5.40701">
        <ele>453</ele>
        <time>2021-05-29T07:00:05.737Z</time>
      </trkpt>
      <trkpt lat="46.50841" lon="5.40703">
        <ele>453</ele>
        <time>2021-05-29T07:00:06.738Z</time>
      </trkpt>
      <trkpt lat="46.50841" lon="5.40706">
        <ele>453</ele>
        <time>2021-05-29T07:00:07.738Z</time>
      </trkpt>
      <trkpt lat="46.5084" lon="5.40708">
        <ele>453</ele>
        <time>2021-05-29T07:00:08.738Z</time>
      </trkpt>
      <trkpt lat="46.50839" lon="5.40711">
        <ele>454</ele>
        <time>2021-05-29T07:00:09.738Z</time>
      </trkpt>
      <trkpt lat="46.50838" lon="5.40713">
        <ele>454</ele>
        <time>2021-05-29T07:00:10.738Z</time>
      </trkpt>
      <trkpt lat="46.50838" lon="5.40716">
        <ele>455</ele>
        <time>2021-05-29T07:00:11.738Z</time>
      </trkpt>
      <trkpt lat="46.50836" lon="5.40718">
        <ele>455</ele>
        <time>2021-05-29T07:00:12.737Z</time>
      </trkpt>
      <trkpt lat="46.50835" lon="5.40719">
        <ele>456</ele>
        <time>2021-05-29T07:00:13.737Z</time>
      </trkpt>
      <trkpt lat="46.50834" lon="5.40721">
        <ele>456</ele>
        <time>2021-05-29T07:00:14.738Z</time>
      </trkpt>
      <trkpt lat="46.50832" lon="5.40723">
        <ele>457</ele>
        <time>2021-05-29T07:00:15.738Z</time>
      </trkpt>
      <trkpt lat="46.50831" lon="5.40725">
        <ele>457</ele>
        <time>2021-05-29T07:00:16.738Z</time>
      </trkpt>
      <trkpt lat="46.5083" lon="5.40727">
        <ele>458</ele>
        <time>2021-05-29T07:00:17.738Z</time>
      </trkpt>
      <trkpt lat="46.5083" lon="5.40729">
        <ele>459</ele>
        <time>2021-05-29T07:00:18.738Z</time>
      </trkpt>
      <trkpt lat="46.50829" lon="5.40731">
        <ele>459</ele>
        <time>2021-05-29T07:00:19.738Z</time>
      </trkpt>
      <trkpt lat="46.50828" lon="5.40732">
        <ele>459</ele>
        <time>2021-05-29T07:00:20.738Z</time>
      </trkpt>
      <trkpt lat="46.50827" lon="5.40733">
        <ele>459</ele>
        <time>2021-05-29T07:00:21.738Z</time>
      </trkpt>
      <trkpt lat="46.50826" lon="5.40734">
        <ele>459</ele>
        <time>2021-05-29T07:00:22.738Z</time>
      </trkpt>
      <trkpt lat="46.50826" lon="5.40736">
        <ele>458</ele>
        <time>2021-05-29T07:00:23.738Z</time>
      </trkpt>
      <trkpt lat="46.50825" lon="5.40737">
        <ele>458</ele>
        <time>2021-05-29T07:00:24.738Z</time>
      </trkpt>
      <trkpt lat="46.50824" lon="5.40739">
        <ele>457</ele>
        <time>2021-05-29T07:00:25.737Z</time>
      </trkpt>
      <trkpt lat="46.50823" lon="5.4074">
        <ele>457</ele>
        <time>2021-05-29T07:00:26.738Z</time>
      </trkpt>
      <trkpt lat="46.50822" lon="5.40741">
        <ele>456</ele>
        <time>2021-05-29T07:00:27.738Z</time>
      </trkpt>
      <trkpt lat="46.50822" lon="5.40743">
        <ele>456</ele>
        <time>2021-05-29T07:00:28.738Z</time>
      </trkpt>
      <trkpt lat="46.50821" lon="5.40744">
        <ele>455</ele>
        <time>2021-05-29T07:00:29.738Z</time>
      </trkpt>
      <trkpt lat="46.50819" lon="5.40745">
        <ele>455</ele>
        <time>2021-05-29T07:00:30.738Z</time>
      </trkpt>
      <trkpt lat="46.50818" lon="5.40746">
        <ele>455</ele>
        <time>2021-05-29T07:00:31.737Z</time>
      </trkpt>
      <trkpt lat="46.50817" lon="5.40748">
        <ele>455</ele>
        <time>2021-05-29T07:00:32.738Z</time>
      </trkpt>
      <trkpt lat="46.50816" lon="5.40749">
        <ele>456</ele>
        <time>2021-05-29T07:00:33.738Z</time>
      </trkpt>
      <trkpt lat="46.50815" lon="5.40751">
        <ele>456</ele>
        <time>2021-05-29T07:00:34.738Z</time>
      </trkpt>
      <trkpt lat="46.50814" lon="5.40752">
        <ele>456</ele>
        <time>2021-05-29T07:00:35.738Z</time>
      </trkpt>
      <trkpt lat="46.50814" lon="5.40753">
        <ele>456</ele>
        <time>2021-05-29T07:00:36.738Z</time>
      </trkpt>
      <trkpt lat="46.50812" lon="5.40755">
        <ele>456</ele>
        <time>2021-05-29T07:00:37.737Z</time>
      </trkpt>
      <trkpt lat="46.50811" lon="5.40758">
        <ele>456</ele>
        <time>2021-05-29T07:00:38.738Z</time>
      </trkpt>
      <trkpt lat="46.5081" lon="5.40759">
        <ele>456</ele>
        <time>2021-05-29T07:00:39.738Z</time>
      </trkpt>
      <trkpt lat="46.50809" lon="5.40761">
        <ele>456</ele>
        <time>2021-05-29T07:00:40.738Z</time>
      </trkpt>
      <trkpt lat="46.50808" lon="5.40763">
        <ele>456</ele>
        <time>2021-05-29T07:00:41.738Z</time>
      </trkpt>
      <trkpt lat="46.50807" lon="5.40765">
        <ele>456</ele>
        <time>2021-05-29T07:00:42.737Z</time>
      </trkpt>
      <trkpt lat="46.50806" lon="5.40767">
        <ele>456</ele>
        <time>2021-05-29T07:00:43.738Z</time>
      </trkpt>
      <trkpt lat="46.50804" lon="5.40769">
        <ele>456</ele>
        <time>2021-05-29T07:00:44.737Z</time>
      </trkpt>
      <trkpt lat="46.50803" lon="5.40771">
        <ele>457</ele>
        <time>2021-05-29T07:00:45.738Z</time>
      </trkpt>
      <trkpt lat="46.50802" lon="5.40773">
        <ele>457</ele>
        <time>2021-05-29T07:00:46.738Z</time>
      </trkpt>
      <trkpt lat="46.508" lon="5.40776">
        <ele>457</ele>
        <time>2021-05-29T07:00:47.738Z</time>
      </trkpt>
      <trkpt lat="46.508" lon="5.40778">
        <ele>457</ele>
        <time>2021-05-29T07:00:48.738Z</time>
      </trkpt>
      <trkpt lat="46.50799" lon="5.40779">
        <ele>458</ele>
        <time>2021-05-29T07:00:49.738Z</time>
      </trkpt>
      <trkpt lat="46.50798" lon="5.40781">
        <ele>458</ele>
        <time>2021-05-29T07:00:50.738Z</time>
      </trkpt>
      <trkpt lat="46.50797" lon="5.40782">
        <ele>459</ele>
        <time>2021-05-29T07:00:51.737Z</time>
      </trkpt>
      <trkpt lat="46.50797" lon="5.40784">
        <ele>459</ele>
        <time>2021-05-29T07:00:52.737Z</time>
      </trkpt>
      <trkpt lat="46.50796" lon="5.40786">
        <ele>460</ele>
        <time>2021-05-29T07:00:53.738Z</time>
      </trkpt>
      <trkpt lat="46.50795" lon="5.40787">
        <ele>460</ele>
        <time>2021-05-29T07:00:54.738Z</time>
      </trkpt>
      <trkpt lat="46.50794" lon="5.40788">
        <ele>460</ele>
        <time>2021-05-29T07:00:55.738Z</time>
      </trkpt>
      <trkpt lat="46.50793" lon="5.4079">
        <ele>460</ele>
        <time>2021-05-29T07:00:56.738Z</time>
      </trkpt>
      <trkpt lat="46.50792" lon="5.40791">
        <ele>460</ele>
        <time>2021-05-29T07:00:57.737Z</time>
      </trkpt>
      <trkpt lat="46.50791" lon="5.40792">
        <ele>460</ele>
        <time>2021-05-29T07:00:58.737Z</time>
      </trkpt>
      <trkpt lat="46.5079" lon="5.40793">
        <ele>461</ele>
        <time>2021-05-29T07:00:59.738Z</time>
      </trkpt>
      <trkpt lat="46.50789" lon="5.40794">
        <ele>461</ele>
        <time>2021-05-29T07:01:00.738Z</time>
      </trkpt>
      <trkpt lat="46.50788" lon="5.40796">
        <ele>461</ele>
        <time>2021-05-29T07:01:01.738Z</time>
      </trkpt>
      <trkpt lat="46.50787" lon="5.40797">
        <ele>462</ele>
        <time>2021-05-29T07:01:02.738Z</time>
      </trkpt>
      <trkpt lat="46.50786" lon="5.40799">
        <ele>462</ele>
        <time>2021-05-29T07:01:03.738Z</time>
      </trkpt>
      <trkpt lat="46.50785" lon="5.408">
        <ele>462</ele>
        <time>2021-05-29T07:01:04.737Z</time>
      </trkpt>
      <trkpt lat="46.50784" lon="5.40803">
        <ele>462</ele>
        <time>2021-05-29T07:01:05.738Z</time>
      </trkpt>
      <trkpt lat="46.50783" lon="5.40804">
        <ele>462</ele>
        <time>2021-05-29T07:01:06.738Z</time>
      </trkpt>
      <trkpt lat="46.50782" lon="5.40806">
        <ele>463</ele>
        <time>2021-05-29T07:01:07.738Z</time>
      </trkpt>
      <trkpt lat="46.50781" lon="5.40807">
        <ele>463</ele>
        <time>2021-05-29T07:01:08.738Z</time>
      </trkpt>
      <trkpt lat="46.50779" lon="5.40809">
        <ele>464</ele>
        <time>2021-05-29T07:01:09.738Z</time>
      </trkpt>
      <trkpt lat="46.50778" lon="5.40811">
        <ele>464</ele>
        <time>2021-05-29T07:01:10.738Z</time>
      </trkpt>
      <trkpt lat="46.50777" lon="5.40812">
        <ele>465</ele>
        <time>2021-05-29T07:01:11.737Z</time>
      </trkpt>
      <trkpt lat="46.50776" lon="5.40814">
        <ele>465</ele>
        <time>2021-05-29T07:01:12.737Z</time>
      </trkpt>
      <trkpt lat="46.50775" lon="5.40815">
        <ele>465</ele>
        <time>2021-05-29T07:01:13.738Z</time>
      </trkpt>
      <trkpt lat="46.50774" lon="5.40816">
        <ele>464</ele>
        <time>2021-05-29T07:01:14.738Z</time>
      </trkpt>
      <trkpt lat="46.50773" lon="5.40817">
        <ele>464</ele>
        <time>2021-05-29T07:01:15.738Z</time>
      </trkpt>
      <trkpt lat="46.50772" lon="5.40818">
        <ele>464</ele>
        <time>2021-05-29T07:01:16.737Z</time>
      </trkpt>
      <trkpt lat="46.50771" lon="5.40819">
        <ele>463</ele>
        <time>2021-05-29T07:01:17.738Z</time>
      </trkpt>
      <trkpt lat="46.5077" lon="5.40821">
        <ele>463</ele>
        <time>2021-05-29T07:01:18.738Z</time>
      </trkpt>
      <trkpt lat="46.50768" lon="5.40822">
        <ele>463</ele>
        <time>2021-05-29T07:01:19.738Z</time>
      </trkpt>
      <trkpt lat="46.50767" lon="5.40824">
        <ele>463</ele>
        <time>2021-05-29T07:01:20.738Z</time>
      </trkpt>
      <trkpt lat="46.50766" lon="5.40825">
        <ele>462</ele>
        <time>2021-05-29T07:01:21.738Z</time>
      </trkpt>
      <trkpt lat="46.50765" lon="5.40827">
        <ele>462</ele>
        <time>2021-05-29T07:01:22.738Z</time>
      </trkpt>
      <trkpt lat="46.50764" lon="5.40829">
        <ele>462</ele>
        <time>2021-05-29T07:01:23.738Z</time>
      </trkpt>
      <trkpt lat="46.50763" lon="5.4083">
        <ele>463</ele>
        <time>2021-05-29T07:01:24.738Z</time>
      </trkpt>
      <trkpt lat="46.50761" lon="5.40832">
        <ele>463</ele>
        <time>2021-05-29T07:01:25.738Z</time>
      </trkpt>
      <trkpt lat="46.5076" lon="5.40833">
        <ele>463</ele>
        <time>2021-05-29T07:01:26.737Z</time>
      </trkpt>
      <trkpt lat="46.5076" lon="5.40834">
        <ele>463</ele>
        <time>2021-05-29T07:01:27.737Z</time>
      </trkpt>
      <trkpt lat="46.5076" lon="5.40835">
        <ele>463</ele>
        <time>2021-05-29T07:01:28.738Z</time>
      </trkpt>
      <trkpt lat="46.5076" lon="5.40837">
        <ele>463</ele>
        <time>2021-05-29T07:01:29.738Z</time>
      </trkpt>
      <trkpt lat="46.50758" lon="5.4084">
        <ele>463</ele>
        <time>2021-05-29T07:01:30.738Z</time>
      </trkpt>
      <trkpt lat="46.50757" lon="5.40842">
        <ele>463</ele>
        <time>2021-05-29T07:01:31.737Z</time>
      </trkpt>
      <trkpt lat="46.50755" lon="5.40844">
        <ele>463</ele>
        <time>2021-05-29T07:01:32.737Z</time>
      </trkpt>
      <trkpt lat="46.50754" lon="5.40845">
        <ele>463</ele>
        <time>2021-05-29T07:01:33.738Z</time>
      </trkpt>
      <trkpt lat="46.50753" lon="5.40847">
        <ele>463</ele>
        <time>2021-05-29T07:01:34.738Z</time>
      </trkpt>
      <trkpt lat="46.50752" lon="5.40848">
        <ele>463</ele>
        <time>2021-05-29T07:01:35.738Z</time>
      </trkpt>
      <trkpt lat="46.50751" lon="5.40849">
        <ele>463</ele>
        <time>2021-05-29T07:01:36.738Z</time>
      </trkpt>
      <trkpt lat="46.50749" lon="5.4085">
        <ele>463</ele>
        <time>2021-05-29T07:01:37.737Z</time>
      </trkpt>
      <trkpt lat="46.50748" lon="5.40852">
        <ele>463</ele>
        <time>2021-05-29T07:01:38.738Z</time>
      </trkpt>
      <trkpt lat="46.50747" lon="5.40855">
        <ele>463</ele>
        <time>2021-05-29T07:01:39.738Z</time>
      </trkpt>
      <trkpt lat="46.50746" lon="5.40857">
        <ele>464</ele>
        <time>2021-05-29T07:01:40.738Z</time>
      </trkpt>
      <trkpt lat="46.50746" lon="5.40859">
        <ele>464</ele>
        <time>2021-05-29T07:01:41.738Z</time>
      </trkpt>
      <trkpt lat="46.50745" lon="5.4086">
        <ele>464</ele>
        <time>2021-05-29T07:01:42.738Z</time>
      </trkpt>
      <trkpt lat="46.50744" lon="5.40861">
        <ele>465</ele>
        <time>2021-05-29T07:01:43.738Z</time>
      </trkpt>
      <trkpt lat="46.50743" lon="5.40863">
        <ele>465</ele>
        <time>2021-05-29T07:01:44.738Z</time>
      </trkpt>
      <trkpt lat="46.50742" lon="5.40864">
        <ele>465</ele>
        <time>2021-05-29T07:01:45.738Z</time>
      </trkpt>
      <trkpt lat="46.50741" lon="5.40865">
        <ele>466</ele>
        <time>2021-05-29T07:01:46.738Z</time>
      </trkpt>
      <trkpt lat="46.5074" lon="5.40865">
        <ele>466</ele>
        <time>2021-05-29T07:01:47.738Z</time>
      </trkpt>
      <trkpt lat="46.50739" lon="5.40866">
        <ele>467</ele>
        <time>2021-05-29T07:01:48.738Z</time>
      </trkpt>
      <trkpt lat="46.50738" lon="5.40867">
        <ele>467</ele>
        <time>2021-05-29T07:01:49.737Z</time>
      </trkpt>
      <trkpt lat="46.50737" lon="5.40868">
        <ele>468</ele>
        <time>2021-05-29T07:01:50.738Z</time>
      </trkpt>
      <trkpt lat="46.50736" lon="5.40869">
        <ele>468</ele>
        <time>2021-05-29T07:01:51.738Z</time>
      </trkpt>
      <trkpt lat="46.50734" lon="5.40871">
        <ele>468</ele>
        <time>2021-05-29T07:01:52.738Z</time>
      </trkpt>
      <trkpt lat="46.50733" lon="5.40871">
        <ele>468</ele>
        <time>2021-05-29T07:01:53.738Z</time>
      </trkpt>
      <trkpt lat="46.50732" lon="5.40872">
        <ele>468</ele>
        <time>2021-05-29T07:01:54.738Z</time>
      </trkpt>
      <trkpt lat="46.5073" lon="5.40873">
        <ele>469</ele>
        <time>2021-05-29T07:01:55.738Z</time>
      </trkpt>
      <trkpt lat="46.50729" lon="5.40874">
        <ele>469</ele>
        <time>2021-05-29T07:01:56.737Z</time>
      </trkpt>
      <trkpt lat="46.50728" lon="5.40874">
        <ele>469</ele>
        <time>2021-05-29T07:01:57.738Z</time>
      </trkpt>
      <trkpt lat="46.50727" lon="5.40874">
        <ele>469</ele>
        <time>2021-05-29T07:01:58.738Z</time>
      </trkpt>
      <trkpt lat="46.50725" lon="5.40875">
        <ele>469</ele>
        <time>2021-05-29T07:01:59.738Z</time>
      </trkpt>
      <trkpt lat="46.50724" lon="5.40875">
        <ele>469</ele>
        <time>2021-05-29T07:02:00.738Z</time>
      </trkpt>
      <trkpt lat="46.50723" lon="5.40876">
        <ele>469</ele>
        <time>2021-05-29T07:02:01.737Z</time>
      </trkpt>
      <trkpt lat="46.50722" lon="5.40877">
        <ele>469</ele>
        <time>2021-05-29T07:02:02.738Z</time>
      </trkpt>
      <trkpt lat="46.50719" lon="5.40878">
        <ele>470</ele>
        <time>2021-05-29T07:02:03.738Z</time>
      </trkpt>
      <trkpt lat="46.50718" lon="5.40879">
        <ele>470</ele>
        <time>2021-05-29T07:02:04.737Z</time>
      </trkpt>
      <trkpt lat="46.50716" lon="5.40879">
        <ele>470</ele>
        <time>2021-05-29T07:02:05.738Z</time>
      </trkpt>
      <trkpt lat="46.50715" lon="5.40881">
        <ele>471</ele>
        <time>2021-05-29T07:02:06.738Z</time>
      </trkpt>
      <trkpt lat="46.50713" lon="5.40882">
        <ele>471</ele>
        <time>2021-05-29T07:02:07.738Z</time>
      </trkpt>
      <trkpt lat="46.50712" lon="5.40882">
        <ele>472</ele>
        <time>2021-05-29T07:02:08.738Z</time>
      </trkpt>
      <trkpt lat="46.50711" lon="5.40883">
        <ele>472</ele>
        <time>2021-05-29T07:02:09.738Z</time>
      </trkpt>
      <trkpt lat="46.5071" lon="5.40883">
        <ele>473</ele>
        <time>2021-05-29T07:02:10.738Z</time>
      </trkpt>
      <trkpt lat="46.50709" lon="5.40884">
        <ele>473</ele>
        <time>2021-05-29T07:02:11.737Z</time>
      </trkpt>
      <trkpt lat="46.50707" lon="5.40885">
        <ele>473</ele>
        <time>2021-05-29T07:02:12.738Z</time>
      </trkpt>
      <trkpt lat="46.50707" lon="5.40886">
        <ele>473</ele>
        <time>2021-05-29T07:02:13.738Z</time>
      </trkpt>
      <trkpt lat="46.50706" lon="5.40887">
        <ele>473</ele>
        <time>2021-05-29T07:02:14.738Z</time>
      </trkpt>
      <trkpt lat="46.50705" lon="5.40887">
        <ele>473</ele>
        <time>2021-05-29T07:02:15.737Z</time>
      </trkpt>
      <trkpt lat="46.50704" lon="5.40887">
        <ele>474</ele>
        <time>2021-05-29T07:02:16.738Z</time>
      </trkpt>
      <trkpt lat="46.50703" lon="5.40888">
        <ele>474</ele>
        <time>2021-05-29T07:02:17.738Z</time>
      </trkpt>
      <trkpt lat="46.50702" lon="5.40889">
        <ele>474</ele>
        <time>2021-05-29T07:02:18.738Z</time>
      </trkpt>
      <trkpt lat="46.507" lon="5.40891">
        <ele>474</ele>
        <time>2021-05-29T07:02:19.738Z</time>
      </trkpt>
      <trkpt lat="46.50698" lon="5.40892">
        <ele>474</ele>
        <time>2021-05-29T07:02:20.738Z</time>
      </trkpt>
      <trkpt lat="46.50696" lon="5.40894">
        <ele>474</ele>
        <time>2021-05-29T07:02:21.738Z</time>
      </trkpt>
      <trkpt lat="46.50695" lon="5.40895">
        <ele>474</ele>
        <time>2021-05-29T07:02:22.737Z</time>
      </trkpt>
      <trkpt lat="46.50694" lon="5.40897">
        <ele>474</ele>
        <time>2021-05-29T07:02:23.738Z</time>
      </trkpt>
      <trkpt lat="46.50692" lon="5.40899">
        <ele>474</ele>
        <time>2021-05-29T07:02:24.738Z</time>
      </trkpt>
      <trkpt lat="46.50691" lon="5.409">
        <ele>474</ele>
        <time>2021-05-29T07:02:25.738Z</time>
      </trkpt>
      <trkpt lat="46.5069" lon="5.40901">
        <ele>474</ele>
        <time>2021-05-29T07:02:26.738Z</time>
      </trkpt>
      <trkpt lat="46.50689" lon="5.40903">
        <ele>474</ele>
        <time>2021-05-29T07:02:27.738Z</time>
      </trkpt>
      <trkpt lat="46.50688" lon="5.40904">
        <ele>473</ele>
        <time>2021-05-29T07:02:28.738Z</time>
      </trkpt>
      <trkpt lat="46.50686" lon="5.40905">
        <ele>473</ele>
        <time>2021-05-29T07:02:29.737Z</time>
      </trkpt>
      <trkpt lat="46.50685" lon="5.40906">
        <ele>473</ele>
        <time>2021-05-29T07:02:30.738Z</time>
      </trkpt>
      <trkpt lat="46.50684" lon="5.40907">
        <ele>473</ele>
        <time>2021-05-29T07:02:31.738Z</time>
      </trkpt>
      <trkpt lat="46.50683" lon="5.40909">
        <ele>473</ele>
        <time>2021-05-29T07:02:32.738Z</time>
      </trkpt>
      <trkpt lat="46.50682" lon="5.4091">
        <ele>473</ele>
        <time>2021-05-29T07:02:33.738Z</time>
      </trkpt>
      <trkpt lat="46.50681" lon="5.40912">
        <ele>473</ele>
        <time>2021-05-29T07:02:34.738Z</time>
      </trkpt>
      <trkpt lat="46.5068" lon="5.40913">
        <ele>473</ele>
        <time>2021-05-29T07:02:35.738Z</time>
      </trkpt>
      <trkpt lat="46.50678" lon="5.40915">
        <ele>473</ele>
        <time>2021-05-29T07:02:36.737Z</time>
      </trkpt>
      <trkpt lat="46.50677" lon="5.40916">
        <ele>473</ele>
        <time>2021-05-29T07:02:37.737Z</time>
      </trkpt>
      <trkpt lat="46.50676" lon="5.40917">
        <ele>473</ele>
        <time>2021-05-29T07:02:38.738Z</time>
      </trkpt>
      <trkpt lat="46.50675" lon="5.40919">
        <ele>472</ele>
        <time>2021-05-29T07:02:39.738Z</time>
      </trkpt>
      <trkpt lat="46.50674" lon="5.4092">
        <ele>472</ele>
        <time>2021-05-29T07:02:40.738Z</time>
      </trkpt>
      <trkpt lat="46.50673" lon="5.40921">
        <ele>472</ele>
        <time>2021-05-29T07:02:41.738Z</time>
      </trkpt>
      <trkpt lat="46.50672" lon="5.40922">
        <ele>472</ele>
        <time>2021-05-29T07:02:42.738Z</time>
      </trkpt>
      <trkpt lat="46.5067" lon="5.40924">
        <ele>473</ele>
        <time>2021-05-29T07:02:43.738Z</time>
      </trkpt>
      <trkpt lat="46.50669" lon="5.40925">
        <ele>473</ele>
        <time>2021-05-29T07:02:44.738Z</time>
      </trkpt>
      <trkpt lat="46.50669" lon="5.40926">
        <ele>473</ele>
        <time>2021-05-29T07:02:45.738Z</time>
      </trkpt>
      <trkpt lat="46.50668" lon="5.40927">
        <ele>473</ele>
        <time>2021-05-29T07:02:46.738Z</time>
      </trkpt>
      <trkpt lat="46.50667" lon="5.40928">
        <ele>473</ele>
        <time>2021-05-29T07:02:47.737Z</time>
      </trkpt>
      <trkpt lat="46.50667" lon="5.4093">
        <ele>473</ele>
        <time>2021-05-29T07:02:48.738Z</time>
      </trkpt>
      <trkpt lat="46.50666" lon="5.40931">
        <ele>473</ele>
        <time>2021-05-29T07:02:49.737Z</time>
      </trkpt>
      <trkpt lat="46.50665" lon="5.40933">
        <ele>473</ele>
        <time>2021-05-29T07:02:50.737Z</time>
      </trkpt>
      <trkpt lat="46.50664" lon="5.40934">
        <ele>473</ele>
        <time>2021-05-29T07:02:51.738Z</time>
      </trkpt>
      <trkpt lat="46.50663" lon="5.40936">
        <ele>473</ele>
        <time>2021-05-29T07:02:52.737Z</time>
      </trkpt>
      <trkpt lat="46.50662" lon="5.40937">
        <ele>474</ele>
        <time>2021-05-29T07:02:53.738Z</time>
      </trkpt>
      <trkpt lat="46.5066" lon="5.40939">
        <ele>474</ele>
        <time>2021-05-29T07:02:54.738Z</time>
      </trkpt>
      <trkpt lat="46.50657" lon="5.40941">
        <ele>474</ele>
        <time>2021-05-29T07:02:55.737Z</time>
      </trkpt>
      <trkpt lat="46.50655" lon="5.40942">
        <ele>474</ele>
        <time>2021-05-29T07:02:56.738Z</time>
      </trkpt>
      <trkpt lat="46.50653" lon="5.40943">
        <ele>475</ele>
        <time>2021-05-29T07:02:57.738Z</time>
      </trkpt>
      <trkpt lat="46.50651" lon="5.40944">
        <ele>475</ele>
        <time>2021-05-29T07:02:58.738Z</time>
      </trkpt>
      <trkpt lat="46.5065" lon="5.40946">
        <ele>476</ele>
        <time>2021-05-29T07:02:59.738Z</time>
      </trkpt>
      <trkpt lat="46.50649" lon="5.40947">
        <ele>476</ele>
        <time>2021-05-29T07:03:00.738Z</time>
      </trkpt>
      <trkpt lat="46.50648" lon="5.40949">
        <ele>477</ele>
        <time>2021-05-29T07:03:01.738Z</time>
      </trkpt>
      <trkpt lat="46.50646" lon="5.40949">
        <ele>477</ele>
        <time>2021-05-29T07:03:02.738Z</time>
      </trkpt>
      <trkpt lat="46.50645" lon="5.40948">
        <ele>478</ele>
        <time>2021-05-29T07:03:03.737Z</time>
      </trkpt>
      <trkpt lat="46.50643" lon="5.40948">
        <ele>478</ele>
        <time>2021-05-29T07:03:04.738Z</time>
      </trkpt>
      <trkpt lat="46.50642" lon="5.40948">
        <ele>479</ele>
        <time>2021-05-29T07:03:05.738Z</time>
      </trkpt>
      <trkpt lat="46.5064" lon="5.40948">
        <ele>480</ele>
        <time>2021-05-29T07:03:06.738Z</time>
      </trkpt>
      <trkpt lat="46.50639" lon="5.40947">
        <ele>480</ele>
        <time>2021-05-29T07:03:07.738Z</time>
      </trkpt>
      <trkpt lat="46.50638" lon="5.40946">
        <ele>481</ele>
        <time>2021-05-29T07:03:08.737Z</time>
      </trkpt>
      <trkpt lat="46.50637" lon="5.40946">
        <ele>481</ele>
        <time>2021-05-29T07:03:09.738Z</time>
      </trkpt>
      <trkpt lat="46.50635" lon="5.40946">
        <ele>482</ele>
        <time>2021-05-29T07:03:10.737Z</time>
      </trkpt>
      <trkpt lat="46.50634" lon="5.40945">
        <ele>482</ele>
        <time>2021-05-29T07:03:11.737Z</time>
      </trkpt>
      <trkpt lat="46.50632" lon="5.40945">
        <ele>482</ele>
        <time>2021-05-29T07:03:12.737Z</time>
      </trkpt>
      <trkpt lat="46.50631" lon="5.40945">
        <ele>483</ele>
        <time>2021-05-29T07:03:13.738Z</time>
      </trkpt>
      <trkpt lat="46.50629" lon="5.40945">
        <ele>483</ele>
        <time>2021-05-29T07:03:14.738Z</time>
      </trkpt>
      <trkpt lat="46.50628" lon="5.40945">
        <ele>483</ele>
        <time>2021-05-29T07:03:15.738Z</time>
      </trkpt>
      <trkpt lat="46.50626" lon="5.40945">
        <ele>484</ele>
        <time>2021-05-29T07:03:16.738Z</time>
      </trkpt>
      <trkpt lat="46.50626" lon="5.40946">
        <ele>484</ele>
        <time>2021-05-29T07:03:17.738Z</time>
      </trkpt>
      <trkpt lat="46.50625" lon="5.40946">
        <ele>484</ele>
        <time>2021-05-29T07:03:18.737Z</time>
      </trkpt>
      <trkpt lat="46.50624" lon="5.40946">
        <ele>485</ele>
        <time>2021-05-29T07:03:19.738Z</time>
      </trkpt>
      <trkpt lat="46.50624" lon="5.40946">
        <ele>485</ele>
        <time>2021-05-29T07:03:20.737Z</time>
      </trkpt>
      <trkpt lat="46.50621" lon="5.40946">
        <ele>486</ele>
        <time>2021-05-29T07:03:21.738Z</time>
      </trkpt>
      <trkpt lat="46.50619" lon="5.40946">
        <ele>486</ele>
        <time>2021-05-29T07:03:22.738Z</time>
      </trkpt>
      <trkpt lat="46.50617" lon="5.40947">
        <ele>486</ele>
        <time>2021-05-29T07:03:23.738Z</time>
      </trkpt>
      <trkpt lat="46.50616" lon="5.40947">
        <ele>487</ele>
        <time>2021-05-29T07:03:24.738Z</time>
      </trkpt>
      <trkpt lat="46.50615" lon="5.40948">
        <ele>487</ele>
        <time>2021-05-29T07:03:25.738Z</time>
      </trkpt>
      <trkpt lat="46.50614" lon="5.40949">
        <ele>487</ele>
        <time>2021-05-29T07:03:26.738Z</time>
      </trkpt>
      <trkpt lat="46.50613" lon="5.40949">
        <ele>487</ele>
        <time>2021-05-29T07:03:27.738Z</time>
      </trkpt>
      <trkpt lat="46.50612" lon="5.40949">
        <ele>488</ele>
        <time>2021-05-29T07:03:28.738Z</time>
      </trkpt>
      <trkpt lat="46.50612" lon="5.40949">
        <ele>488</ele>
        <time>2021-05-29T07:03:29.737Z</time>
      </trkpt>
      <trkpt lat="46.50611" lon="5.40948">
        <ele>488</ele>
        <time>2021-05-29T07:03:30.737Z</time>
      </trkpt>
      <trkpt lat="46.5061" lon="5.40948">
        <ele>488</ele>
        <time>2021-05-29T07:03:31.738Z</time>
      </trkpt>
      <trkpt lat="46.50609" lon="5.40947">
        <ele>488</ele>
        <time>2021-05-29T07:03:32.738Z</time>
      </trkpt>
      <trkpt lat="46.50608" lon="5.40947">
        <ele>489</ele>
        <time>2021-05-29T07:03:33.738Z</time>
      </trkpt>
      <trkpt lat="46.50607" lon="5.40946">
        <ele>489</ele>
        <time>2021-05-29T07:03:34.737Z</time>
      </trkpt>
      <trkpt lat="46.50606" lon="5.40944">
        <ele>489</ele>
        <time>2021-05-29T07:03:35.738Z</time>
      </trkpt>
      <trkpt lat="46.50604" lon="5.40943">
        <ele>490</ele>
        <time>2021-05-29T07:03:36.738Z</time>
      </trkpt>
      <trkpt lat="46.50603" lon="5.40942">
        <ele>490</ele>
        <time>2021-05-29T07:03:37.738Z</time>
      </trkpt>
      <trkpt lat="46.50601" lon="5.40941">
        <ele>490</ele>
        <time>2021-05-29T07:03:38.738Z</time>
      </trkpt>
      <trkpt lat="46.506" lon="5.40939">
        <ele>491</ele>
        <time>2021-05-29T07:03:39.737Z</time>
      </trkpt>
      <trkpt lat="46.50598" lon="5.40938">
        <ele>491</ele>
        <time>2021-05-29T07:03:40.737Z</time>
      </trkpt>
      <trkpt lat="46.50596" lon="5.40936">
        <ele>491</ele>
        <time>2021-05-29T07:03:41.738Z</time>
      </trkpt>
      <trkpt lat="46.50594" lon="5.40934">
        <ele>492</ele>
        <time>2021-05-29T07:03:42.737Z</time>
      </trkpt>
      <trkpt lat="46.50593" lon="5.40933">
        <ele>492</ele>
        <time>2021-05-29T07:03:43.738Z</time>
      </trkpt>
      <trkpt lat="46.5059" lon="5.40932">
        <ele>493</ele>
        <time>2021-05-29T07:03:44.738Z</time>
      </trkpt>
      <trkpt lat="46.50588" lon="5.40931">
        <ele>493</ele>
        <time>2021-05-29T07:03:45.738Z</time>
      </trkpt>
      <trkpt lat="46.50587" lon="5.4093">
        <ele>494</ele>
        <time>2021-05-29T07:03:46.738Z</time>
      </trkpt>
      <trkpt lat="46.50585" lon="5.40929">
        <ele>494</ele>
        <time>2021-05-29T07:03:47.738Z</time>
      </trkpt>
      <trkpt lat="46.50584" lon="5.40928">
        <ele>494</ele>
        <time>2021-05-29T07:03:48.738Z</time>
      </trkpt>
      <trkpt lat="46.50581" lon="5.40927">
        <ele>495</ele>
        <time>2021-05-29T07:03:49.738Z</time>
      </trkpt>
      <trkpt lat="46.50579" lon="5.40926">
        <ele>495</ele>
        <time>2021-05-29T07:03:50.738Z</time>
      </trkpt>
      <trkpt lat="46.50577" lon="5.40926">
        <ele>496</ele>
        <time>2021-05-29T07:03:51.738Z</time>
      </trkpt>
      <trkpt lat="46.50575" lon="5.40926">
        <ele>496</ele>
        <time>2021-05-29T07:03:52.738Z</time>
      </trkpt>
      <trkpt lat="46.50573" lon="5.40925">
        <ele>496</ele>
        <time>2021-05-29T07:03:53.738Z</time>
      </trkpt>
      <trkpt lat="46.50571" lon="5.40924">
        <ele>497</ele>
        <time>2021-05-29T07:03:54.738Z</time>
      </trkpt>
      <trkpt lat="46.50568" lon="5.40923">
        <ele>497</ele>
        <time>2021-05-29T07:03:55.738Z</time>
      </trkpt>
      <trkpt lat="46.50566" lon="5.40922">
        <ele>498</ele>
        <time>2021-05-29T07:03:56.738Z</time>
      </trkpt>
      <trkpt lat="46.50564" lon="5.40921">
        <ele>498</ele>
        <time>2021-05-29T07:03:57.738Z</time>
      </trkpt>
      <trkpt lat="46.50562" lon="5.4092">
        <ele>499</ele>
        <time>2021-05-29T07:03:58.737Z</time>
      </trkpt>
      <trkpt lat="46.5056" lon="5.4092">
        <ele>499</ele>
        <time>2021-05-29T07:03:59.738Z</time>
      </trkpt>
      <trkpt lat="46.50559" lon="5.4092">
        <ele>500</ele>
        <time>2021-05-29T07:04:00.738Z</time>
      </trkpt>
      <trkpt lat="46.50557" lon="5.4092">
        <ele>500</ele>
        <time>2021-05-29T07:04:01.738Z</time>
      </trkpt>
      <trkpt lat="46.50556" lon="5.40919">
        <ele>500</ele>
        <time>2021-05-29T07:04:02.738Z</time>
      </trkpt>
      <trkpt lat="46.50555" lon="5.40919">
        <ele>500</ele>
        <time>2021-05-29T07:04:03.738Z</time>
      </trkpt>
      <trkpt lat="46.50553" lon="5.40918">
        <ele>501</ele>
        <time>2021-05-29T07:04:04.738Z</time>
      </trkpt>
      <trkpt lat="46.50552" lon="5.40918">
        <ele>501</ele>
        <time>2021-05-29T07:04:05.738Z</time>
      </trkpt>
      <trkpt lat="46.50549" lon="5.40919">
        <ele>501</ele>
        <time>2021-05-29T07:04:06.738Z</time>
      </trkpt>
      <trkpt lat="46.50545" lon="5.40919">
        <ele>501</ele>
        <time>2021-05-29T07:04:07.738Z</time>
      </trkpt>
      <trkpt lat="46.50542" lon="5.40919">
        <ele>501</ele>
        <time>2021-05-29T07:04:08.737Z</time>
      </trkpt>
      <trkpt lat="46.50539" lon="5.40917">
        <ele>502</ele>
        <time>2021-05-29T07:04:09.738Z</time>
      </trkpt>
      <trkpt lat="46.50537" lon="5.40916">
        <ele>502</ele>
        <time>2021-05-29T07:04:10.738Z</time>
      </trkpt>
      <trkpt lat="46.50535" lon="5.40916">
        <ele>503</ele>
        <time>2021-05-29T07:04:11.738Z</time>
      </trkpt>
      <trkpt lat="46.50532" lon="5.40914">
        <ele>503</ele>
        <time>2021-05-29T07:04:12.738Z</time>
      </trkpt>
      <trkpt lat="46.50529" lon="5.40912">
        <ele>504</ele>
        <time>2021-05-29T07:04:13.738Z</time>
      </trkpt>
      <trkpt lat="46.50527" lon="5.40909">
        <ele>504</ele>
        <time>2021-05-29T07:04:14.737Z</time>
      </trkpt>
      <trkpt lat="46.50525" lon="5.40907">
        <ele>504</ele>
        <time>2021-05-29T07:04:15.737Z</time>
      </trkpt>
      <trkpt lat="46.50525" lon="5.40906">
        <ele>504</ele>
        <time>2021-05-29T07:04:16.738Z</time>
      </trkpt>
      <trkpt lat="46.50523" lon="5.40905">
        <ele>504</ele>
        <time>2021-05-29T07:04:17.738Z</time>
      </trkpt>
      <trkpt lat="46.50522" lon="5.40904">
        <ele>504</ele>
        <time>2021-05-29T07:04:18.738Z</time>
      </trkpt>
      <trkpt lat="46.5052" lon="5.40903">
        <ele>504</ele>
        <time>2021-05-29T07:04:19.738Z</time>
      </trkpt>
      <trkpt lat="46.50518" lon="5.40902">
        <ele>504</ele>
        <time>2021-05-29T07:04:20.738Z</time>
      </trkpt>
      <trkpt lat="46.50517" lon="5.40901">
        <ele>504</ele>
        <time>2021-05-29T07:04:21.738Z</time>
      </trkpt>
      <trkpt lat="46.50515" lon="5.409">
        <ele>503</ele>
        <time>2021-05-29T07:04:22.737Z</time>
      </trkpt>
      <trkpt lat="46.50513" lon="5.409">
        <ele>503</ele>
        <time>2021-05-29T07:04:23.738Z</time>
      </trkpt>
      <trkpt lat="46.50511" lon="5.40899">
        <ele>503</ele>
        <time>2021-05-29T07:04:24.738Z</time>
      </trkpt>
      <trkpt lat="46.50509" lon="5.40899">
        <ele>503</ele>
        <time>2021-05-29T07:04:25.738Z</time>
      </trkpt>
      <trkpt lat="46.50508" lon="5.40899">
        <ele>503</ele>
        <time>2021-05-29T07:04:26.737Z</time>
      </trkpt>
      <trkpt lat="46.50506" lon="5.40898">
        <ele>503</ele>
        <time>2021-05-29T07:04:27.738Z</time>
      </trkpt>
      <trkpt lat="46.50504" lon="5.40897">
        <ele>502</ele>
        <time>2021-05-29T07:04:28.738Z</time>
      </trkpt>
      <trkpt lat="46.50503" lon="5.40897">
        <ele>502</ele>
        <time>2021-05-29T07:04:29.738Z</time>
      </trkpt>
      <trkpt lat="46.50501" lon="5.40895">
        <ele>502</ele>
        <time>2021-05-29T07:04:30.737Z</time>
      </trkpt>
      <trkpt lat="46.50499" lon="5.40894">
        <ele>501</ele>
        <time>2021-05-29T07:04:31.737Z</time>
      </trkpt>
      <trkpt lat="46.50498" lon="5.40893">
        <ele>501</ele>
        <time>2021-05-29T07:04:32.738Z</time>
      </trkpt>
      <trkpt lat="46.50496" lon="5.40892">
        <ele>501</ele>
        <time>2021-05-29T07:04:33.738Z</time>
      </trkpt>
      <trkpt lat="46.50495" lon="5.4089">
        <ele>501</ele>
        <time>2021-05-29T07:04:34.738Z</time>
      </trkpt>
      <trkpt lat="46.50493" lon="5.40889">
        <ele>501</ele>
        <time>2021-05-29T07:04:35.738Z</time>
      </trkpt>
      <trkpt lat="46.50492" lon="5.40889">
        <ele>500</ele>
        <time>2021-05-29T07:04:36.737Z</time>
      </trkpt>
      <trkpt lat="46.5049" lon="5.40887">
        <ele>500</ele>
        <time>2021-05-29T07:04:37.737Z</time>
      </trkpt>
      <trkpt lat="46.50488" lon="5.40886">
        <ele>500</ele>
        <time>2021-05-29T07:04:38.738Z</time>
      </trkpt>
      <trkpt lat="46.50486" lon="5.40885">
        <ele>500</ele>
        <time>2021-05-29T07:04:39.738Z</time>
      </trkpt>
      <trkpt lat="46.50485" lon="5.40884">
        <ele>501</ele>
        <time>2021-05-29T07:04:40.738Z</time>
      </trkpt>
      <trkpt lat="46.50482" lon="5.40884">
        <ele>501</ele>
        <time>2021-05-29T07:04:41.738Z</time>
      </trkpt>
      <trkpt lat="46.50481" lon="5.40883">
        <ele>501</ele>
        <time>2021-05-29T07:04:42.737Z</time>
      </trkpt>
      <trkpt lat="46.50478" lon="5.40882">
        <ele>501</ele>
        <time>2021-05-29T07:04:43.738Z</time>
      </trkpt>
      <trkpt lat="46.50477" lon="5.40881">
        <ele>501</ele>
        <time>2021-05-29T07:04:44.738Z</time>
      </trkpt>
      <trkpt lat="46.50475" lon="5.4088">
        <ele>501</ele>
        <time>2021-05-29T07:04:45.738Z</time>
      </trkpt>
      <trkpt lat="46.50472" lon="5.40879">
        <ele>501</ele>
        <time>2021-05-29T07:04:46.738Z</time>
      </trkpt>
      <trkpt lat="46.5047" lon="5.40879">
        <ele>501</ele>
        <time>2021-05-29T07:04:47.737Z</time>
      </trkpt>
      <trkpt lat="46.50468" lon="5.40878">
        <ele>501</ele>
        <time>2021-05-29T07:04:48.737Z</time>
      </trkpt>
      <trkpt lat="46.50466" lon="5.40878">
        <ele>501</ele>
        <time>2021-05-29T07:04:49.737Z</time>
      </trkpt>
      <trkpt lat="46.50465" lon="5.40878">
        <ele>501</ele>
        <time>2021-05-29T07:04:50.738Z</time>
      </trkpt>
      <trkpt lat="46.50463" lon="5.40878">
        <ele>501</ele>
        <time>2021-05-29T07:04:51.738Z</time>
      </trkpt>
      <trkpt lat="46.50462" lon="5.40877">
        <ele>501</ele>
        <time>2021-05-29T07:04:52.737Z</time>
      </trkpt>
      <trkpt lat="46.5046" lon="5.40877">
        <ele>501</ele>
        <time>2021-05-29T07:04:53.738Z</time>
      </trkpt>
      <trkpt lat="46.50459" lon="5.40877">
        <ele>502</ele>
        <time>2021-05-29T07:04:54.738Z</time>
      </trkpt>
      <trkpt lat="46.50458" lon="5.40877">
        <ele>502</ele>
        <time>2021-05-29T07:04:55.738Z</time>
      </trkpt>
      <trkpt lat="46.50457" lon="5.40877">
        <ele>502</ele>
        <time>2021-05-29T07:04:56.738Z</time>
      </trkpt>
      <trkpt lat="46.50455" lon="5.40877">
        <ele>502</ele>
        <time>2021-05-29T07:04:57.738Z</time>
      </trkpt>
      <trkpt lat="46.50453" lon="5.40876">
        <ele>502</ele>
        <time>2021-05-29T07:04:58.737Z</time>
      </trkpt>
      <trkpt lat="46.50451" lon="5.40876">
        <ele>502</ele>
        <time>2021-05-29T07:04:59.738Z</time>
      </trkpt>
      <trkpt lat="46.5045" lon="5.40875">
        <ele>502</ele>
        <time>2021-05-29T07:05:00.737Z</time>
      </trkpt>
      <trkpt lat="46.50448" lon="5.40874">
        <ele>503</ele>
        <time>2021-05-29T07:05:01.738Z</time>
      </trkpt>
      <trkpt lat="46.50446" lon="5.40872">
        <ele>503</ele>
        <time>2021-05-29T07:05:02.738Z</time>
      </trkpt>
      <trkpt lat="46.50442" lon="5.40871">
        <ele>503</ele>
        <time>2021-05-29T07:05:03.738Z</time>
      </trkpt>
      <trkpt lat="46.5044" lon="5.40869">
        <ele>503</ele>
        <time>2021-05-29T07:05:04.738Z</time>
      </trkpt>
      <trkpt lat="46.50437" lon="5.40869">
        <ele>503</ele>
        <time>2021-05-29T07:05:05.738Z</time>
      </trkpt>
      <trkpt lat="46.50435" lon="5.40869">
        <ele>503</ele>
        <time>2021-05-29T07:05:06.738Z</time>
      </trkpt>
      <trkpt lat="46.50432" lon="5.40869">
        <ele>503</ele>
        <time>2021-05-29T07:05:07.738Z</time>
      </trkpt>
      <trkpt lat="46.5043" lon="5.40868">
        <ele>503</ele>
        <time>2021-05-29T07:05:08.738Z</time>
      </trkpt>
      <trkpt lat="46.50428" lon="5.40867">
        <ele>504</ele>
        <time>2021-05-29T07:05:09.738Z</time>
      </trkpt>
      <trkpt lat="46.50426" lon="5.40866">
        <ele>504</ele>
        <time>2021-05-29T07:05:10.738Z</time>
      </trkpt>
      <trkpt lat="46.50424" lon="5.40866">
        <ele>504</ele>
        <time>2021-05-29T07:05:11.738Z</time>
      </trkpt>
      <trkpt lat="46.50421" lon="5.40866">
        <ele>505</ele>
        <time>2021-05-29T07:05:12.738Z</time>
      </trkpt>
      <trkpt lat="46.50418" lon="5.40865">
        <ele>505</ele>
        <time>2021-05-29T07:05:13.738Z</time>
      </trkpt>
      <trkpt lat="46.50415" lon="5.40865">
        <ele>505</ele>
        <time>2021-05-29T07:05:14.738Z</time>
      </trkpt>
      <trkpt lat="46.50413" lon="5.40864">
        <ele>505</ele>
        <time>2021-05-29T07:05:15.738Z</time>
      </trkpt>
      <trkpt lat="46.50412" lon="5.40864">
        <ele>505</ele>
        <time>2021-05-29T07:05:16.738Z</time>
      </trkpt>
      <trkpt lat="46.5041" lon="5.40863">
        <ele>505</ele>
        <time>2021-05-29T07:05:17.738Z</time>
      </trkpt>
      <trkpt lat="46.50407" lon="5.40861">
        <ele>504</ele>
        <time>2021-05-29T07:05:18.738Z</time>
      </trkpt>
      <trkpt lat="46.50405" lon="5.4086">
        <ele>504</ele>
        <time>2021-05-29T07:05:19.737Z</time>
      </trkpt>
      <trkpt lat="46.50403" lon="5.40859">
        <ele>504</ele>
        <time>2021-05-29T07:05:20.738Z</time>
      </trkpt>
      <trkpt lat="46.50401" lon="5.40857">
        <ele>504</ele>
        <time>2021-05-29T07:05:21.738Z</time>
      </trkpt>
      <trkpt lat="46.50399" lon="5.40857">
        <ele>504</ele>
        <time>2021-05-29T07:05:22.737Z</time>
      </trkpt>
      <trkpt lat="46.50396" lon="5.40856">
        <ele>503</ele>
        <time>2021-05-29T07:05:23.738Z</time>
      </trkpt>
      <trkpt lat="46.50392" lon="5.40854">
        <ele>503</ele>
        <time>2021-05-29T07:05:24.738Z</time>
      </trkpt>
      <trkpt lat="46.50389" lon="5.40852">
        <ele>503</ele>
        <time>2021-05-29T07:05:25.738Z</time>
      </trkpt>
      <trkpt lat="46.50387" lon="5.4085">
        <ele>503</ele>
        <time>2021-05-29T07:05:26.737Z</time>
      </trkpt>
      <trkpt lat="46.50385" lon="5.40849">
        <ele>504</ele>
        <time>2021-05-29T07:05:27.738Z</time>
      </trkpt>
      <trkpt lat="46.50382" lon="5.40848">
        <ele>504</ele>
        <time>2021-05-29T07:05:28.738Z</time>
      </trkpt>
      <trkpt lat="46.5038" lon="5.40848">
        <ele>504</ele>
        <time>2021-05-29T07:05:29.738Z</time>
      </trkpt>
      <trkpt lat="46.50377" lon="5.40847">
        <ele>504</ele>
        <time>2021-05-29T07:05:30.738Z</time>
      </trkpt>
      <trkpt lat="46.50375" lon="5.40847">
        <ele>504</ele>
        <time>2021-05-29T07:05:31.738Z</time>
      </trkpt>
      <trkpt lat="46.50373" lon="5.40846">
        <ele>504</ele>
        <time>2021-05-29T07:05:32.738Z</time>
      </trkpt>
      <trkpt lat="46.50372" lon="5.40844">
        <ele>504</ele>
        <time>2021-05-29T07:05:33.738Z</time>
      </trkpt>
      <trkpt lat="46.50371" lon="5.40843">
        <ele>504</ele>
        <time>2021-05-29T07:05:34.738Z</time>
      </trkpt>
      <trkpt lat="46.50369" lon="5.40841">
        <ele>504</ele>
        <time>2021-05-29T07:05:35.738Z</time>
      </trkpt>
      <trkpt lat="46.50367" lon="5.4084">
        <ele>505</ele>
        <time>2021-05-29T07:05:36.738Z</time>
      </trkpt>
      <trkpt lat="46.50365" lon="5.40839">
        <ele>505</ele>
        <time>2021-05-29T07:05:37.737Z</time>
      </trkpt>
      <trkpt lat="46.50363" lon="5.40839">
        <ele>505</ele>
        <time>2021-05-29T07:05:38.738Z</time>
      </trkpt>
      <trkpt lat="46.50361" lon="5.40838">
        <ele>505</ele>
        <time>2021-05-29T07:05:39.738Z</time>
      </trkpt>
      <trkpt lat="46.5036" lon="5.40838">
        <ele>505</ele>
        <time>2021-05-29T07:05:40.738Z</time>
      </trkpt>
      <trkpt lat="46.50359" lon="5.40838">
        <ele>505</ele>
        <time>2021-05-29T07:05:41.738Z</time>
      </trkpt>
      <trkpt lat="46.50357" lon="5.40838">
        <ele>505</ele>
        <time>2021-05-29T07:05:42.738Z</time>
      </trkpt>
      <trkpt lat="46.50356" lon="5.40838">
        <ele>505</ele>
        <time>2021-05-29T07:05:43.738Z</time>
      </trkpt>
      <trkpt lat="46.50353" lon="5.40838">
        <ele>505</ele>
        <time>2021-05-29T07:05:44.738Z</time>
      </trkpt>
      <trkpt lat="46.50351" lon="5.40837">
        <ele>505</ele>
        <time>2021-05-29T07:05:45.738Z</time>
      </trkpt>
      <trkpt lat="46.50348" lon="5.40837">
        <ele>505</ele>
        <time>2021-05-29T07:05:46.738Z</time>
      </trkpt>
      <trkpt lat="46.50346" lon="5.40837">
        <ele>505</ele>
        <time>2021-05-29T07:05:47.738Z</time>
      </trkpt>
      <trkpt lat="46.50344" lon="5.40837">
        <ele>505</ele>
        <time>2021-05-29T07:05:48.738Z</time>
      </trkpt>
      <trkpt lat="46.50343" lon="5.40837">
        <ele>505</ele>
        <time>2021-05-29T07:05:49.737Z</time>
      </trkpt>
      <trkpt lat="46.50342" lon="5.40838">
        <ele>505</ele>
        <time>2021-05-29T07:05:50.737Z</time>
      </trkpt>
      <trkpt lat="46.50341" lon="5.40838">
        <ele>504</ele>
        <time>2021-05-29T07:05:51.738Z</time>
      </trkpt>
      <trkpt lat="46.5034" lon="5.40839">
        <ele>504</ele>
        <time>2021-05-29T07:05:52.737Z</time>
      </trkpt>
      <trkpt lat="46.50338" lon="5.40839">
        <ele>504</ele>
        <time>2021-05-29T07:05:53.738Z</time>
      </trkpt>
      <trkpt lat="46.50336" lon="5.40839">
        <ele>503</ele>
        <time>2021-05-29T07:05:54.738Z</time>
      </trkpt>
      <trkpt lat="46.50335" lon="5.40839">
        <ele>503</ele>
        <time>2021-05-29T07:05:55.737Z</time>
      </trkpt>
      <trkpt lat="46.50333" lon="5.4084">
        <ele>503</ele>
        <time>2021-05-29T07:05:56.738Z</time>
      </trkpt>
      <trkpt lat="46.50331" lon="5.40839">
        <ele>502</ele>
        <time>2021-05-29T07:05:57.737Z</time>
      </trkpt>
      <trkpt lat="46.50329" lon="5.40839">
        <ele>502</ele>
        <time>2021-05-29T07:05:58.738Z</time>
      </trkpt>
      <trkpt lat="46.50328" lon="5.40839">
        <ele>502</ele>
        <time>2021-05-29T07:05:59.737Z</time>
      </trkpt>
      <trkpt lat="46.50326" lon="5.40839">
        <ele>502</ele>
        <time>2021-05-29T07:06:00.737Z</time>
      </trkpt>
      <trkpt lat="46.50324" lon="5.40838">
        <ele>503</ele>
        <time>2021-05-29T07:06:01.738Z</time>
      </trkpt>
      <trkpt lat="46.50321" lon="5.40838">
        <ele>503</ele>
        <time>2021-05-29T07:06:02.738Z</time>
      </trkpt>
      <trkpt lat="46.50319" lon="5.40839">
        <ele>503</ele>
        <time>2021-05-29T07:06:03.737Z</time>
      </trkpt>
      <trkpt lat="46.50317" lon="5.40839">
        <ele>503</ele>
        <time>2021-05-29T07:06:04.738Z</time>
      </trkpt>
      <trkpt lat="46.50314" lon="5.4084">
        <ele>503</ele>
        <time>2021-05-29T07:06:05.738Z</time>
      </trkpt>
      <trkpt lat="46.50312" lon="5.40841">
        <ele>503</ele>
        <time>2021-05-29T07:06:06.738Z</time>
      </trkpt>
      <trkpt lat="46.5031" lon="5.40841">
        <ele>503</ele>
        <time>2021-05-29T07:06:07.738Z</time>
      </trkpt>
      <trkpt lat="46.50309" lon="5.40841">
        <ele>503</ele>
        <time>2021-05-29T07:06:08.738Z</time>
      </trkpt>
      <trkpt lat="46.50308" lon="5.4084">
        <ele>503</ele>
        <time>2021-05-29T07:06:09.738Z</time>
      </trkpt>
      <trkpt lat="46.50307" lon="5.4084">
        <ele>504</ele>
        <time>2021-05-29T07:06:10.738Z</time>
      </trkpt>
      <trkpt lat="46.50305" lon="5.4084">
        <ele>504</ele>
        <time>2021-05-29T07:06:11.738Z</time>
      </trkpt>
      <trkpt lat="46.50303" lon="5.40841">
        <ele>504</ele>
        <time>2021-05-29T07:06:12.738Z</time>
      </trkpt>
      <trkpt lat="46.503" lon="5.40841">
        <ele>504</ele>
        <time>2021-05-29T07:06:13.737Z</time>
      </trkpt>
      <trkpt lat="46.50298" lon="5.40841">
        <ele>504</ele>
        <time>2021-05-29T07:06:14.738Z</time>
      </trkpt>
      <trkpt lat="46.50296" lon="5.40841">
        <ele>504</ele>
        <time>2021-05-29T07:06:15.738Z</time>
      </trkpt>
      <trkpt lat="46.50293" lon="5.4084">
        <ele>503</ele>
        <time>2021-05-29T07:06:16.738Z</time>
      </trkpt>
      <trkpt lat="46.5029" lon="5.40839">
        <ele>503</ele>
        <time>2021-05-29T07:06:17.738Z</time>
      </trkpt>
      <trkpt lat="46.50289" lon="5.40839">
        <ele>503</ele>
        <time>2021-05-29T07:06:18.738Z</time>
      </trkpt>
      <trkpt lat="46.50287" lon="5.40839">
        <ele>503</ele>
        <time>2021-05-29T07:06:19.737Z</time>
      </trkpt>
      <trkpt lat="46.50285" lon="5.40839">
        <ele>503</ele>
        <time>2021-05-29T07:06:20.738Z</time>
      </trkpt>
      <trkpt lat="46.50283" lon="5.40838">
        <ele>503</ele>
        <time>2021-05-29T07:06:21.737Z</time>
      </trkpt>
      <trkpt lat="46.50282" lon="5.40838">
        <ele>502</ele>
        <time>2021-05-29T07:06:22.737Z</time>
      </trkpt>
      <trkpt lat="46.50281" lon="5.40838">
        <ele>502</ele>
        <time>2021-05-29T07:06:23.738Z</time>
      </trkpt>
      <trkpt lat="46.50279" lon="5.40838">
        <ele>502</ele>
        <time>2021-05-29T07:06:24.738Z</time>
      </trkpt>
      <trkpt lat="46.50278" lon="5.40838">
        <ele>501</ele>
        <time>2021-05-29T07:06:25.738Z</time>
      </trkpt>
      <trkpt lat="46.50277" lon="5.40837">
        <ele>501</ele>
        <time>2021-05-29T07:06:26.738Z</time>
      </trkpt>
      <trkpt lat="46.50275" lon="5.40836">
        <ele>501</ele>
        <time>2021-05-29T07:06:27.738Z</time>
      </trkpt>
      <trkpt lat="46.50273" lon="5.40835">
        <ele>501</ele>
        <time>2021-05-29T07:06:28.738Z</time>
      </trkpt>
      <trkpt lat="46.50272" lon="5.40834">
        <ele>501</ele>
        <time>2021-05-29T07:06:29.738Z</time>
      </trkpt>
      <trkpt lat="46.5027" lon="5.40833">
        <ele>501</ele>
        <time>2021-05-29T07:06:30.738Z</time>
      </trkpt>
      <trkpt lat="46.50268" lon="5.40832">
        <ele>501</ele>
        <time>2021-05-29T07:06:31.738Z</time>
      </trkpt>
      <trkpt lat="46.50266" lon="5.40832">
        <ele>501</ele>
        <time>2021-05-29T07:06:32.738Z</time>
      </trkpt>
      <trkpt lat="46.50263" lon="5.40831">
        <ele>501</ele>
        <time>2021-05-29T07:06:33.737Z</time>
      </trkpt>
      <trkpt lat="46.5026" lon="5.40829">
        <ele>502</ele>
        <time>2021-05-29T07:06:34.737Z</time>
      </trkpt>
      <trkpt lat="46.50258" lon="5.40827">
        <ele>502</ele>
        <time>2021-05-29T07:06:35.738Z</time>
      </trkpt>
      <trkpt lat="46.50257" lon="5.40827">
        <ele>502</ele>
        <time>2021-05-29T07:06:36.737Z</time>
      </trkpt>
      <trkpt lat="46.50255" lon="5.40827">
        <ele>503</ele>
        <time>2021-05-29T07:06:37.738Z</time>
      </trkpt>
      <trkpt lat="46.50252" lon="5.40825">
        <ele>503</ele>
        <time>2021-05-29T07:06:38.738Z</time>
      </trkpt>
      <trkpt lat="46.5025" lon="5.40824">
        <ele>503</ele>
        <time>2021-05-29T07:06:39.738Z</time>
      </trkpt>
      <trkpt lat="46.50248" lon="5.40822">
        <ele>504</ele>
        <time>2021-05-29T07:06:40.737Z</time>
      </trkpt>
      <trkpt lat="46.50246" lon="5.40822">
        <ele>504</ele>
        <time>2021-05-29T07:06:41.738Z</time>
      </trkpt>
      <trkpt lat="46.50243" lon="5.40821">
        <ele>505</ele>
        <time>2021-05-29T07:06:42.738Z</time>
      </trkpt>
      <trkpt lat="46.50241" lon="5.4082">
        <ele>505</ele>
        <time>2021-05-29T07:06:43.738Z</time>
      </trkpt>
      <trkpt lat="46.50239" lon="5.40819">
        <ele>505</ele>
        <time>2021-05-29T07:06:44.738Z</time>
      </trkpt>
      <trkpt lat="46.50237" lon="5.40818">
        <ele>505</ele>
        <time>2021-05-29T07:06:45.738Z</time>
      </trkpt>
      <trkpt lat="46.50236" lon="5.40818">
        <ele>505</ele>
        <time>2021-05-29T07:06:46.737Z</time>
      </trkpt>
      <trkpt lat="46.50234" lon="5.40817">
        <ele>506</ele>
        <time>2021-05-29T07:06:47.738Z</time>
      </trkpt>
      <trkpt lat="46.50233" lon="5.40817">
        <ele>506</ele>
        <time>2021-05-29T07:06:48.738Z</time>
      </trkpt>
      <trkpt lat="46.50233" lon="5.40817">
        <ele>506</ele>
        <time>2021-05-29T07:06:49.738Z</time>
      </trkpt>
      <trkpt lat="46.50232" lon="5.40816">
        <ele>505</ele>
        <time>2021-05-29T07:06:50.737Z</time>
      </trkpt>
      <trkpt lat="46.50231" lon="5.40816">
        <ele>505</ele>
        <time>2021-05-29T07:06:51.737Z</time>
      </trkpt>
      <trkpt lat="46.5023" lon="5.40815">
        <ele>505</ele>
        <time>2021-05-29T07:06:52.738Z</time>
      </trkpt>
      <trkpt lat="46.50229" lon="5.40815">
        <ele>504</ele>
        <time>2021-05-29T07:06:53.738Z</time>
      </trkpt>
      <trkpt lat="46.50228" lon="5.40815">
        <ele>504</ele>
        <time>2021-05-29T07:06:54.738Z</time>
      </trkpt>
      <trkpt lat="46.50227" lon="5.40815">
        <ele>504</ele>
        <time>2021-05-29T07:06:55.738Z</time>
      </trkpt>
      <trkpt lat="46.50225" lon="5.40815">
        <ele>504</ele>
        <time>2021-05-29T07:06:56.738Z</time>
      </trkpt>
      <trkpt lat="46.50224" lon="5.40814">
        <ele>504</ele>
        <time>2021-05-29T07:06:57.738Z</time>
      </trkpt>
      <trkpt lat="46.50222" lon="5.40815">
        <ele>504</ele>
        <time>2021-05-29T07:06:58.738Z</time>
      </trkpt>
      <trkpt lat="46.5022" lon="5.40815">
        <ele>504</ele>
        <time>2021-05-29T07:06:59.737Z</time>
      </trkpt>
      <trkpt lat="46.50218" lon="5.40815">
        <ele>504</ele>
        <time>2021-05-29T07:07:00.738Z</time>
      </trkpt>
      <trkpt lat="46.50217" lon="5.40815">
        <ele>503</ele>
        <time>2021-05-29T07:07:01.738Z</time>
      </trkpt>
      <trkpt lat="46.50216" lon="5.40815">
        <ele>503</ele>
        <time>2021-05-29T07:07:02.737Z</time>
      </trkpt>
      <trkpt lat="46.50214" lon="5.40815">
        <ele>503</ele>
        <time>2021-05-29T07:07:03.738Z</time>
      </trkpt>
      <trkpt lat="46.50212" lon="5.40814">
        <ele>503</ele>
        <time>2021-05-29T07:07:04.738Z</time>
      </trkpt>
      <trkpt lat="46.5021" lon="5.40815">
        <ele>503</ele>
        <time>2021-05-29T07:07:05.738Z</time>
      </trkpt>
      <trkpt lat="46.50208" lon="5.40815">
        <ele>503</ele>
        <time>2021-05-29T07:07:06.738Z</time>
      </trkpt>
      <trkpt lat="46.50207" lon="5.40815">
        <ele>504</ele>
        <time>2021-05-29T07:07:07.738Z</time>
      </trkpt>
      <trkpt lat="46.50206" lon="5.40816">
        <ele>504</ele>
        <time>2021-05-29T07:07:08.737Z</time>
      </trkpt>
      <trkpt lat="46.50205" lon="5.40816">
        <ele>505</ele>
        <time>2021-05-29T07:07:09.738Z</time>
      </trkpt>
      <trkpt lat="46.50203" lon="5.40817">
        <ele>505</ele>
        <time>2021-05-29T07:07:10.738Z</time>
      </trkpt>
      <trkpt lat="46.50202" lon="5.40817">
        <ele>506</ele>
        <time>2021-05-29T07:07:11.737Z</time>
      </trkpt>
      <trkpt lat="46.50201" lon="5.40818">
        <ele>506</ele>
        <time>2021-05-29T07:07:12.738Z</time>
      </trkpt>
      <trkpt lat="46.50199" lon="5.40819">
        <ele>506</ele>
        <time>2021-05-29T07:07:13.738Z</time>
      </trkpt>
      <trkpt lat="46.50198" lon="5.40819">
        <ele>507</ele>
        <time>2021-05-29T07:07:14.738Z</time>
      </trkpt>
      <trkpt lat="46.50197" lon="5.4082">
        <ele>507</ele>
        <time>2021-05-29T07:07:15.738Z</time>
      </trkpt>
      <trkpt lat="46.50196" lon="5.4082">
        <ele>507</ele>
        <time>2021-05-29T07:07:16.738Z</time>
      </trkpt>
      <trkpt lat="46.50194" lon="5.40821">
        <ele>507</ele>
        <time>2021-05-29T07:07:17.737Z</time>
      </trkpt>
      <trkpt lat="46.50193" lon="5.40822">
        <ele>508</ele>
        <time>2021-05-29T07:07:18.738Z</time>
      </trkpt>
      <trkpt lat="46.50192" lon="5.40823">
        <ele>508</ele>
        <time>2021-05-29T07:07:19.738Z</time>
      </trkpt>
      <trkpt lat="46.5019" lon="5.40823">
        <ele>509</ele>
        <time>2021-05-29T07:07:20.737Z</time>
      </trkpt>
      <trkpt lat="46.50189" lon="5.40824">
        <ele>509</ele>
        <time>2021-05-29T07:07:21.738Z</time>
      </trkpt>
      <trkpt lat="46.50188" lon="5.40825">
        <ele>510</ele>
        <time>2021-05-29T07:07:22.738Z</time>
      </trkpt>
      <trkpt lat="46.50187" lon="5.40826">
        <ele>511</ele>
        <time>2021-05-29T07:07:23.737Z</time>
      </trkpt>
      <trkpt lat="46.50185" lon="5.40827">
        <ele>512</ele>
        <time>2021-05-29T07:07:24.738Z</time>
      </trkpt>
      <trkpt lat="46.50184" lon="5.40827">
        <ele>513</ele>
        <time>2021-05-29T07:07:25.738Z</time>
      </trkpt>
      <trkpt lat="46.50183" lon="5.40828">
        <ele>514</ele>
        <time>2021-05-29T07:07:26.738Z</time>
      </trkpt>
      <trkpt lat="46.50181" lon="5.40829">
        <ele>515</ele>
        <time>2021-05-29T07:07:27.738Z</time>
      </trkpt>
      <trkpt lat="46.5018" lon="5.4083">
        <ele>515</ele>
        <time>2021-05-29T07:07:28.738Z</time>
      </trkpt>
      <trkpt lat="46.50179" lon="5.40831">
        <ele>515</ele>
        <time>2021-05-29T07:07:29.738Z</time>
      </trkpt>
      <trkpt lat="46.50177" lon="5.40831">
        <ele>516</ele>
        <time>2021-05-29T07:07:30.737Z</time>
      </trkpt>
      <trkpt lat="46.50176" lon="5.40832">
        <ele>516</ele>
        <time>2021-05-29T07:07:31.738Z</time>
      </trkpt>
      <trkpt lat="46.50175" lon="5.40833">
        <ele>517</ele>
        <time>2021-05-29T07:07:32.738Z</time>
      </trkpt>
      <trkpt lat="46.50173" lon="5.40833">
        <ele>517</ele>
        <time>2021-05-29T07:07:33.738Z</time>
      </trkpt>
      <trkpt lat="46.50172" lon="5.40834">
        <ele>518</ele>
        <time>2021-05-29T07:07:34.738Z</time>
      </trkpt>
      <trkpt lat="46.5017" lon="5.40835">
        <ele>518</ele>
        <time>2021-05-29T07:07:35.738Z</time>
      </trkpt>
      <trkpt lat="46.50169" lon="5.40836">
        <ele>519</ele>
        <time>2021-05-29T07:07:36.737Z</time>
      </trkpt>
      <trkpt lat="46.50167" lon="5.40836">
        <ele>519</ele>
        <time>2021-05-29T07:07:37.738Z</time>
      </trkpt>
      <trkpt lat="46.50166" lon="5.40837">
        <ele>520</ele>
        <time>2021-05-29T07:07:38.737Z</time>
      </trkpt>
      <trkpt lat="46.50165" lon="5.40838">
        <ele>520</ele>
        <time>2021-05-29T07:07:39.738Z</time>
      </trkpt>
      <trkpt lat="46.50162" lon="5.40839">
        <ele>520</ele>
        <time>2021-05-29T07:07:40.738Z</time>
      </trkpt>
      <trkpt lat="46.50159" lon="5.4084">
        <ele>520</ele>
        <time>2021-05-29T07:07:41.738Z</time>
      </trkpt>
      <trkpt lat="46.50157" lon="5.4084">
        <ele>521</ele>
        <time>2021-05-29T07:07:42.738Z</time>
      </trkpt>
      <trkpt lat="46.50155" lon="5.40841">
        <ele>522</ele>
        <time>2021-05-29T07:07:43.738Z</time>
      </trkpt>
      <trkpt lat="46.50153" lon="5.40842">
        <ele>522</ele>
        <time>2021-05-29T07:07:44.738Z</time>
      </trkpt>
      <trkpt lat="46.50151" lon="5.40842">
        <ele>523</ele>
        <time>2021-05-29T07:07:45.738Z</time>
      </trkpt>
      <trkpt lat="46.50149" lon="5.40842">
        <ele>523</ele>
        <time>2021-05-29T07:07:46.737Z</time>
      </trkpt>
      <trkpt lat="46.50147" lon="5.40842">
        <ele>523</ele>
        <time>2021-05-29T07:07:47.738Z</time>
      </trkpt>
      <trkpt lat="46.50144" lon="5.40842">
        <ele>524</ele>
        <time>2021-05-29T07:07:48.738Z</time>
      </trkpt>
      <trkpt lat="46.50141" lon="5.40842">
        <ele>524</ele>
        <time>2021-05-29T07:07:49.738Z</time>
      </trkpt>
      <trkpt lat="46.5014" lon="5.40842">
        <ele>524</ele>
        <time>2021-05-29T07:07:50.738Z</time>
      </trkpt>
      <trkpt lat="46.50138" lon="5.40843">
        <ele>524</ele>
        <time>2021-05-29T07:07:51.738Z</time>
      </trkpt>
      <trkpt lat="46.50136" lon="5.40843">
        <ele>524</ele>
        <time>2021-05-29T07:07:52.738Z</time>
      </trkpt>
      <trkpt lat="46.50134" lon="5.40842">
        <ele>524</ele>
        <time>2021-05-29T07:07:53.737Z</time>
      </trkpt>
      <trkpt lat="46.50132" lon="5.40842">
        <ele>524</ele>
        <time>2021-05-29T07:07:54.737Z</time>
      </trkpt>
      <trkpt lat="46.50131" lon="5.40841">
        <ele>524</ele>
        <time>2021-05-29T07:07:55.738Z</time>
      </trkpt>
      <trkpt lat="46.50129" lon="5.40841">
        <ele>523</ele>
        <time>2021-05-29T07:07:56.738Z</time>
      </trkpt>
      <trkpt lat="46.50127" lon="5.4084">
        <ele>523</ele>
        <time>2021-05-29T07:07:57.738Z</time>
      </trkpt>
      <trkpt lat="46.50125" lon="5.40839">
        <ele>523</ele>
        <time>2021-05-29T07:07:58.738Z</time>
      </trkpt>
      <trkpt lat="46.50124" lon="5.40838">
        <ele>523</ele>
        <time>2021-05-29T07:07:59.738Z</time>
      </trkpt>
      <trkpt lat="46.50122" lon="5.40838">
        <ele>523</ele>
        <time>2021-05-29T07:08:00.737Z</time>
      </trkpt>
      <trkpt lat="46.5012" lon="5.40837">
        <ele>522</ele>
        <time>2021-05-29T07:08:01.738Z</time>
      </trkpt>
      <trkpt lat="46.50118" lon="5.40836">
        <ele>522</ele>
        <time>2021-05-29T07:08:02.738Z</time>
      </trkpt>
      <trkpt lat="46.50116" lon="5.40834">
        <ele>522</ele>
        <time>2021-05-29T07:08:03.738Z</time>
      </trkpt>
      <trkpt lat="46.50115" lon="5.40833">
        <ele>523</ele>
        <time>2021-05-29T07:08:04.738Z</time>
      </trkpt>
      <trkpt lat="46.50113" lon="5.40831">
        <ele>523</ele>
        <time>2021-05-29T07:08:05.738Z</time>
      </trkpt>
      <trkpt lat="46.50112" lon="5.40829">
        <ele>523</ele>
        <time>2021-05-29T07:08:06.738Z</time>
      </trkpt>
      <trkpt lat="46.5011" lon="5.40827">
        <ele>523</ele>
        <time>2021-05-29T07:08:07.738Z</time>
      </trkpt>
      <trkpt lat="46.50109" lon="5.40825">
        <ele>524</ele>
        <time>2021-05-29T07:08:08.737Z</time>
      </trkpt>
      <trkpt lat="46.50107" lon="5.40823">
        <ele>524</ele>
        <time>2021-05-29T07:08:09.738Z</time>
      </trkpt>
      <trkpt lat="46.50106" lon="5.40821">
        <ele>525</ele>
        <time>2021-05-29T07:08:10.738Z</time>
      </trkpt>
      <trkpt lat="46.50105" lon="5.40819">
        <ele>525</ele>
        <time>2021-05-29T07:08:11.737Z</time>
      </trkpt>
      <trkpt lat="46.50103" lon="5.40817">
        <ele>525</ele>
        <time>2021-05-29T07:08:12.738Z</time>
      </trkpt>
      <trkpt lat="46.50102" lon="5.40815">
        <ele>526</ele>
        <time>2021-05-29T07:08:13.737Z</time>
      </trkpt>
      <trkpt lat="46.50101" lon="5.40813">
        <ele>526</ele>
        <time>2021-05-29T07:08:14.737Z</time>
      </trkpt>
      <trkpt lat="46.50099" lon="5.40811">
        <ele>526</ele>
        <time>2021-05-29T07:08:15.738Z</time>
      </trkpt>
      <trkpt lat="46.50098" lon="5.40808">
        <ele>526</ele>
        <time>2021-05-29T07:08:16.738Z</time>
      </trkpt>
      <trkpt lat="46.50097" lon="5.40806">
        <ele>525</ele>
        <time>2021-05-29T07:08:17.737Z</time>
      </trkpt>
      <trkpt lat="46.50096" lon="5.40803">
        <ele>525</ele>
        <time>2021-05-29T07:08:18.738Z</time>
      </trkpt>
      <trkpt lat="46.50095" lon="5.40801">
        <ele>525</ele>
        <time>2021-05-29T07:08:19.737Z</time>
      </trkpt>
      <trkpt lat="46.50094" lon="5.40799">
        <ele>525</ele>
        <time>2021-05-29T07:08:20.738Z</time>
      </trkpt>
      <trkpt lat="46.50093" lon="5.40796">
        <ele>525</ele>
        <time>2021-05-29T07:08:21.738Z</time>
      </trkpt>
      <trkpt lat="46.50092" lon="5.40794">
        <ele>525</ele>
        <time>2021-05-29T07:08:22.738Z</time>
      </trkpt>
      <trkpt lat="46.5009" lon="5.40791">
        <ele>525</ele>
        <time>2021-05-29T07:08:23.737Z</time>
      </trkpt>
      <trkpt lat="46.50089" lon="5.40789">
        <ele>525</ele>
        <time>2021-05-29T07:08:24.738Z</time>
      </trkpt>
      <trkpt lat="46.50088" lon="5.40788">
        <ele>525</ele>
        <time>2021-05-29T07:08:25.738Z</time>
      </trkpt>
      <trkpt lat="46.50086" lon="5.40786">
        <ele>524</ele>
        <time>2021-05-29T07:08:26.738Z</time>
      </trkpt>
      <trkpt lat="46.50085" lon="5.40784">
        <ele>524</ele>
        <time>2021-05-29T07:08:27.738Z</time>
      </trkpt>
      <trkpt lat="46.50083" lon="5.40782">
        <ele>524</ele>
        <time>2021-05-29T07:08:28.738Z</time>
      </trkpt>
      <trkpt lat="46.50082" lon="5.40781">
        <ele>524</ele>
        <time>2021-05-29T07:08:29.738Z</time>
      </trkpt>
      <trkpt lat="46.50081" lon="5.4078">
        <ele>524</ele>
        <time>2021-05-29T07:08:30.738Z</time>
      </trkpt>
      <trkpt lat="46.50079" lon="5.40778">
        <ele>524</ele>
        <time>2021-05-29T07:08:31.738Z</time>
      </trkpt>
      <trkpt lat="46.50078" lon="5.40777">
        <ele>524</ele>
        <time>2021-05-29T07:08:32.738Z</time>
      </trkpt>
      <trkpt lat="46.50077" lon="5.40776">
        <ele>524</ele>
        <time>2021-05-29T07:08:33.738Z</time>
      </trkpt>
      <trkpt lat="46.50075" lon="5.40774">
        <ele>524</ele>
        <time>2021-05-29T07:08:34.738Z</time>
      </trkpt>
      <trkpt lat="46.50073" lon="5.40773">
        <ele>524</ele>
        <time>2021-05-29T07:08:35.738Z</time>
      </trkpt>
      <trkpt lat="46.50072" lon="5.40772">
        <ele>525</ele>
        <time>2021-05-29T07:08:36.738Z</time>
      </trkpt>
      <trkpt lat="46.50071" lon="5.40771">
        <ele>525</ele>
        <time>2021-05-29T07:08:37.738Z</time>
      </trkpt>
      <trkpt lat="46.50069" lon="5.40769">
        <ele>525</ele>
        <time>2021-05-29T07:08:38.737Z</time>
      </trkpt>
      <trkpt lat="46.50068" lon="5.40768">
        <ele>526</ele>
        <time>2021-05-29T07:08:39.738Z</time>
      </trkpt>
      <trkpt lat="46.50067" lon="5.40766">
        <ele>526</ele>
        <time>2021-05-29T07:08:40.738Z</time>
      </trkpt>
      <trkpt lat="46.50065" lon="5.40765">
        <ele>526</ele>
        <time>2021-05-29T07:08:41.738Z</time>
      </trkpt>
      <trkpt lat="46.50064" lon="5.40763">
        <ele>527</ele>
        <time>2021-05-29T07:08:42.738Z</time>
      </trkpt>
      <trkpt lat="46.50063" lon="5.40762">
        <ele>527</ele>
        <time>2021-05-29T07:08:43.738Z</time>
      </trkpt>
      <trkpt lat="46.50062" lon="5.40761">
        <ele>527</ele>
        <time>2021-05-29T07:08:44.738Z</time>
      </trkpt>
      <trkpt lat="46.50061" lon="5.4076">
        <ele>527</ele>
        <time>2021-05-29T07:08:45.738Z</time>
      </trkpt>
      <trkpt lat="46.5006" lon="5.40758">
        <ele>528</ele>
        <time>2021-05-29T07:08:46.738Z</time>
      </trkpt>
      <trkpt lat="46.50059" lon="5.40757">
        <ele>528</ele>
        <time>2021-05-29T07:08:47.737Z</time>
      </trkpt>
      <trkpt lat="46.50059" lon="5.40756">
        <ele>529</ele>
        <time>2021-05-29T07:08:48.738Z</time>
      </trkpt>
      <trkpt lat="46.50058" lon="5.40755">
        <ele>529</ele>
        <time>2021-05-29T07:08:49.738Z</time>
      </trkpt>
      <trkpt lat="46.50057" lon="5.40754">
        <ele>529</ele>
        <time>2021-05-29T07:08:50.737Z</time>
      </trkpt>
      <trkpt lat="46.50056" lon="5.40752">
        <ele>530</ele>
        <time>2021-05-29T07:08:51.738Z</time>
      </trkpt>
      <trkpt lat="46.50056" lon="5.40751">
        <ele>530</ele>
        <time>2021-05-29T07:08:52.737Z</time>
      </trkpt>
      <trkpt lat="46.50055" lon="5.40749">
        <ele>530</ele>
        <time>2021-05-29T07:08:53.738Z</time>
      </trkpt>
      <trkpt lat="46.50054" lon="5.40748">
        <ele>530</ele>
        <time>2021-05-29T07:08:54.737Z</time>
      </trkpt>
      <trkpt lat="46.50052" lon="5.40746">
        <ele>530</ele>
        <time>2021-05-29T07:08:55.738Z</time>
      </trkpt>
      <trkpt lat="46.5005" lon="5.40745">
        <ele>530</ele>
        <time>2021-05-29T07:08:56.738Z</time>
      </trkpt>
      <trkpt lat="46.50049" lon="5.40743">
        <ele>530</ele>
        <time>2021-05-29T07:08:57.738Z</time>
      </trkpt>
      <trkpt lat="46.50047" lon="5.40742">
        <ele>530</ele>
        <time>2021-05-29T07:08:58.738Z</time>
      </trkpt>
      <trkpt lat="46.50045" lon="5.4074">
        <ele>531</ele>
        <time>2021-05-29T07:08:59.738Z</time>
      </trkpt>
      <trkpt lat="46.50044" lon="5.40739">
        <ele>531</ele>
        <time>2021-05-29T07:09:00.738Z</time>
      </trkpt>
      <trkpt lat="46.50042" lon="5.40738">
        <ele>531</ele>
        <time>2021-05-29T07:09:01.737Z</time>
      </trkpt>
      <trkpt lat="46.5004" lon="5.40737">
        <ele>531</ele>
        <time>2021-05-29T07:09:02.738Z</time>
      </trkpt>
      <trkpt lat="46.50038" lon="5.40737">
        <ele>531</ele>
        <time>2021-05-29T07:09:03.738Z</time>
      </trkpt>
      <trkpt lat="46.50036" lon="5.40736">
        <ele>531</ele>
        <time>2021-05-29T07:09:04.738Z</time>
      </trkpt>
      <trkpt lat="46.50035" lon="5.40736">
        <ele>531</ele>
        <time>2021-05-29T07:09:05.738Z</time>
      </trkpt>
      <trkpt lat="46.50033" lon="5.40736">
        <ele>532</ele>
        <time>2021-05-29T07:09:06.738Z</time>
      </trkpt>
      <trkpt lat="46.50032" lon="5.40736">
        <ele>532</ele>
        <time>2021-05-29T07:09:07.738Z</time>
      </trkpt>
      <trkpt lat="46.50031" lon="5.40736">
        <ele>532</ele>
        <time>2021-05-29T07:09:08.738Z</time>
      </trkpt>
      <trkpt lat="46.5003" lon="5.40738">
        <ele>532</ele>
        <time>2021-05-29T07:09:09.738Z</time>
      </trkpt>
      <trkpt lat="46.50028" lon="5.40739">
        <ele>533</ele>
        <time>2021-05-29T07:09:10.738Z</time>
      </trkpt>
      <trkpt lat="46.50027" lon="5.4074">
        <ele>533</ele>
        <time>2021-05-29T07:09:11.738Z</time>
      </trkpt>
      <trkpt lat="46.50025" lon="5.40741">
        <ele>533</ele>
        <time>2021-05-29T07:09:12.738Z</time>
      </trkpt>
      <trkpt lat="46.50024" lon="5.40742">
        <ele>534</ele>
        <time>2021-05-29T07:09:13.738Z</time>
      </trkpt>
      <trkpt lat="46.50022" lon="5.40743">
        <ele>534</ele>
        <time>2021-05-29T07:09:14.738Z</time>
      </trkpt>
      <trkpt lat="46.50021" lon="5.40745">
        <ele>535</ele>
        <time>2021-05-29T07:09:15.738Z</time>
      </trkpt>
      <trkpt lat="46.5002" lon="5.40746">
        <ele>536</ele>
        <time>2021-05-29T07:09:16.738Z</time>
      </trkpt>
      <trkpt lat="46.50019" lon="5.40748">
        <ele>537</ele>
        <time>2021-05-29T07:09:17.738Z</time>
      </trkpt>
      <trkpt lat="46.50018" lon="5.40749">
        <ele>537</ele>
        <time>2021-05-29T07:09:18.738Z</time>
      </trkpt>
      <trkpt lat="46.50018" lon="5.40751">
        <ele>537</ele>
        <time>2021-05-29T07:09:19.738Z</time>
      </trkpt>
      <trkpt lat="46.50017" lon="5.40752">
        <ele>538</ele>
        <time>2021-05-29T07:09:20.737Z</time>
      </trkpt>
      <trkpt lat="46.50017" lon="5.40755">
        <ele>538</ele>
        <time>2021-05-29T07:09:21.738Z</time>
      </trkpt>
      <trkpt lat="46.50016" lon="5.40757">
        <ele>538</ele>
        <time>2021-05-29T07:09:22.737Z</time>
      </trkpt>
      <trkpt lat="46.50015" lon="5.40759">
        <ele>538</ele>
        <time>2021-05-29T07:09:23.738Z</time>
      </trkpt>
      <trkpt lat="46.50015" lon="5.4076">
        <ele>538</ele>
        <time>2021-05-29T07:09:24.737Z</time>
      </trkpt>
      <trkpt lat="46.50013" lon="5.40761">
        <ele>538</ele>
        <time>2021-05-29T07:09:25.737Z</time>
      </trkpt>
      <trkpt lat="46.50013" lon="5.40762">
        <ele>538</ele>
        <time>2021-05-29T07:09:26.738Z</time>
      </trkpt>
      <trkpt lat="46.50012" lon="5.40764">
        <ele>538</ele>
        <time>2021-05-29T07:09:27.738Z</time>
      </trkpt>
      <trkpt lat="46.50012" lon="5.40766">
        <ele>539</ele>
        <time>2021-05-29T07:09:28.738Z</time>
      </trkpt>
      <trkpt lat="46.50011" lon="5.40768">
        <ele>539</ele>
        <time>2021-05-29T07:09:29.737Z</time>
      </trkpt>
      <trkpt lat="46.5001" lon="5.4077">
        <ele>539</ele>
        <time>2021-05-29T07:09:30.738Z</time>
      </trkpt>
      <trkpt lat="46.5001" lon="5.40772">
        <ele>539</ele>
        <time>2021-05-29T07:09:31.738Z</time>
      </trkpt>
      <trkpt lat="46.50009" lon="5.40774">
        <ele>539</ele>
        <time>2021-05-29T07:09:32.738Z</time>
      </trkpt>
      <trkpt lat="46.50008" lon="5.40775">
        <ele>539</ele>
        <time>2021-05-29T07:09:33.738Z</time>
      </trkpt>
      <trkpt lat="46.50008" lon="5.40778">
        <ele>540</ele>
        <time>2021-05-29T07:09:34.738Z</time>
      </trkpt>
      <trkpt lat="46.50007" lon="5.4078">
        <ele>540</ele>
        <time>2021-05-29T07:09:35.738Z</time>
      </trkpt>
      <trkpt lat="46.50006" lon="5.40782">
        <ele>540</ele>
        <time>2021-05-29T07:09:36.738Z</time>
      </trkpt>
      <trkpt lat="46.50005" lon="5.40785">
        <ele>540</ele>
        <time>2021-05-29T07:09:37.738Z</time>
      </trkpt>
      <trkpt lat="46.50004" lon="5.40788">
        <ele>540</ele>
        <time>2021-05-29T07:09:38.738Z</time>
      </trkpt>
      <trkpt lat="46.50004" lon="5.4079">
        <ele>541</ele>
        <time>2021-05-29T07:09:39.738Z</time>
      </trkpt>
      <trkpt lat="46.50003" lon="5.40792">
        <ele>541</ele>
        <time>2021-05-29T07:09:40.738Z</time>
      </trkpt>
      <trkpt lat="46.50003" lon="5.40795">
        <ele>542</ele>
        <time>2021-05-29T07:09:41.738Z</time>
      </trkpt>
      <trkpt lat="46.50002" lon="5.40797">
        <ele>542</ele>
        <time>2021-05-29T07:09:42.738Z</time>
      </trkpt>
      <trkpt lat="46.50002" lon="5.40801">
        <ele>542</ele>
        <time>2021-05-29T07:09:43.737Z</time>
      </trkpt>
      <trkpt lat="46.50001" lon="5.40803">
        <ele>542</ele>
        <time>2021-05-29T07:09:44.738Z</time>
      </trkpt>
      <trkpt lat="46.50001" lon="5.40805">
        <ele>543</ele>
        <time>2021-05-29T07:09:45.738Z</time>
      </trkpt>
      <trkpt lat="46.5" lon="5.40807">
        <ele>543</ele>
        <time>2021-05-29T07:09:46.738Z</time>
      </trkpt>
      <trkpt lat="46.49999" lon="5.40808">
        <ele>544</ele>
        <time>2021-05-29T07:09:47.737Z</time>
      </trkpt>
      <trkpt lat="46.49999" lon="5.40808">
        <ele>544</ele>
        <time>2021-05-29T07:09:48.737Z</time>
      </trkpt>
      <trkpt lat="46.49998" lon="5.40807">
        <ele>544</ele>
        <time>2021-05-29T07:09:49.737Z</time>
      </trkpt>
      <trkpt lat="46.49999" lon="5.40806">
        <ele>544</ele>
        <time>2021-05-29T07:09:50.738Z</time>
      </trkpt>
      <trkpt lat="46.49999" lon="5.40804">
        <ele>543</ele>
        <time>2021-05-29T07:09:51.738Z</time>
      </trkpt>
      <trkpt lat="46.49999" lon="5.40801">
        <ele>543</ele>
        <time>2021-05-29T07:09:52.737Z</time>
      </trkpt>
      <trkpt lat="46.5" lon="5.40799">
        <ele>543</ele>
        <time>2021-05-29T07:09:53.738Z</time>
      </trkpt>
      <trkpt lat="46.5" lon="5.40796">
        <ele>542</ele>
        <time>2021-05-29T07:09:54.738Z</time>
      </trkpt>
      <trkpt lat="46.50001" lon="5.40794">
        <ele>542</ele>
        <time>2021-05-29T07:09:55.737Z</time>
      </trkpt>
      <trkpt lat="46.50002" lon="5.40792">
        <ele>542</ele>
        <time>2021-05-29T07:09:56.738Z</time>
      </trkpt>
      <trkpt lat="46.50003" lon="5.4079">
        <ele>541</ele>
        <time>2021-05-29T07:09:57.737Z</time>
      </trkpt>
      <trkpt lat="46.50004" lon="5.40787">
        <ele>541</ele>
        <time>2021-05-29T07:09:58.738Z</time>
      </trkpt>
      <trkpt lat="46.50005" lon="5.40785">
        <ele>541</ele>
        <time>2021-05-29T07:09:59.738Z</time>
      </trkpt>
      <trkpt lat="46.50006" lon="5.40782">
        <ele>540</ele>
        <time>2021-05-29T07:10:00.738Z</time>
      </trkpt>
      <trkpt lat="46.50007" lon="5.4078">
        <ele>540</ele>
        <time>2021-05-29T07:10:01.737Z</time>
      </trkpt>
      <trkpt lat="46.50007" lon="5.40778">
        <ele>540</ele>
        <time>2021-05-29T07:10:02.738Z</time>
      </trkpt>
      <trkpt lat="46.50007" lon="5.40775">
        <ele>540</ele>
        <time>2021-05-29T07:10:03.738Z</time>
      </trkpt>
      <trkpt lat="46.50008" lon="5.40772">
        <ele>539</ele>
        <time>2021-05-29T07:10:04.737Z</time>
      </trkpt>
      <trkpt lat="46.5001" lon="5.4077">
        <ele>539</ele>
        <time>2021-05-29T07:10:05.738Z</time>
      </trkpt>
      <trkpt lat="46.50011" lon="5.40768">
        <ele>540</ele>
        <time>2021-05-29T07:10:06.737Z</time>
      </trkpt>
      <trkpt lat="46.50012" lon="5.40767">
        <ele>540</ele>
        <time>2021-05-29T07:10:07.738Z</time>
      </trkpt>
      <trkpt lat="46.50013" lon="5.40765">
        <ele>539</ele>
        <time>2021-05-29T07:10:08.738Z</time>
      </trkpt>
      <trkpt lat="46.50014" lon="5.40763">
        <ele>539</ele>
        <time>2021-05-29T07:10:09.738Z</time>
      </trkpt>
      <trkpt lat="46.50015" lon="5.40762">
        <ele>539</ele>
        <time>2021-05-29T07:10:10.738Z</time>
      </trkpt>
      <trkpt lat="46.50016" lon="5.40761">
        <ele>539</ele>
        <time>2021-05-29T07:10:11.738Z</time>
      </trkpt>
      <trkpt lat="46.50017" lon="5.40759">
        <ele>539</ele>
        <time>2021-05-29T07:10:12.738Z</time>
      </trkpt>
      <trkpt lat="46.50017" lon="5.40758">
        <ele>539</ele>
        <time>2021-05-29T07:10:13.738Z</time>
      </trkpt>
      <trkpt lat="46.50017" lon="5.40757">
        <ele>539</ele>
        <time>2021-05-29T07:10:14.738Z</time>
      </trkpt>
      <trkpt lat="46.50017" lon="5.40756">
        <ele>539</ele>
        <time>2021-05-29T07:10:15.738Z</time>
      </trkpt>
      <trkpt lat="46.50017" lon="5.40757">
        <ele>539</ele>
        <time>2021-05-29T07:10:16.738Z</time>
      </trkpt>
      <trkpt lat="46.50017" lon="5.40758">
        <ele>539</ele>
        <time>2021-05-29T07:10:17.737Z</time>
      </trkpt>
      <trkpt lat="46.50016" lon="5.40759">
        <ele>538</ele>
        <time>2021-05-29T07:10:18.738Z</time>
      </trkpt>
      <trkpt lat="46.50016" lon="5.4076">
        <ele>538</ele>
        <time>2021-05-29T07:10:19.738Z</time>
      </trkpt>
      <trkpt lat="46.50015" lon="5.40762">
        <ele>538</ele>
        <time>2021-05-29T07:10:20.738Z</time>
      </trkpt>
      <trkpt lat="46.50014" lon="5.40764">
        <ele>539</ele>
        <time>2021-05-29T07:10:21.738Z</time>
      </trkpt>
      <trkpt lat="46.50014" lon="5.40765">
        <ele>539</ele>
        <time>2021-05-29T07:10:22.738Z</time>
      </trkpt>
      <trkpt lat="46.50014" lon="5.40766">
        <ele>539</ele>
        <time>2021-05-29T07:10:23.738Z</time>
      </trkpt>
      <trkpt lat="46.50013" lon="5.40767">
        <ele>539</ele>
        <time>2021-05-29T07:10:24.738Z</time>
      </trkpt>
      <trkpt lat="46.50013" lon="5.40769">
        <ele>539</ele>
        <time>2021-05-29T07:10:25.737Z</time>
      </trkpt>
      <trkpt lat="46.50013" lon="5.40771">
        <ele>539</ele>
        <time>2021-05-29T07:10:26.738Z</time>
      </trkpt>
      <trkpt lat="46.50012" lon="5.40772">
        <ele>539</ele>
        <time>2021-05-29T07:10:27.738Z</time>
      </trkpt>
      <trkpt lat="46.50013" lon="5.40774">
        <ele>540</ele>
        <time>2021-05-29T07:10:28.738Z</time>
      </trkpt>
      <trkpt lat="46.50012" lon="5.40776">
        <ele>540</ele>
        <time>2021-05-29T07:10:29.738Z</time>
      </trkpt>
      <trkpt lat="46.50012" lon="5.40778">
        <ele>540</ele>
        <time>2021-05-29T07:10:30.737Z</time>
      </trkpt>
      <trkpt lat="46.50012" lon="5.40779">
        <ele>540</ele>
        <time>2021-05-29T07:10:31.738Z</time>
      </trkpt>
      <trkpt lat="46.50011" lon="5.4078">
        <ele>540</ele>
        <time>2021-05-29T07:10:32.738Z</time>
      </trkpt>
      <trkpt lat="46.5001" lon="5.40781">
        <ele>540</ele>
        <time>2021-05-29T07:10:33.738Z</time>
      </trkpt>
      <trkpt lat="46.5001" lon="5.40783">
        <ele>540</ele>
        <time>2021-05-29T07:10:34.738Z</time>
      </trkpt>
      <trkpt lat="46.5001" lon="5.40784">
        <ele>540</ele>
        <time>2021-05-29T07:10:35.738Z</time>
      </trkpt>
      <trkpt lat="46.5001" lon="5.40786">
        <ele>539</ele>
        <time>2021-05-29T07:10:36.737Z</time>
      </trkpt>
      <trkpt lat="46.5001" lon="5.40788">
        <ele>539</ele>
        <time>2021-05-29T07:10:37.738Z</time>
      </trkpt>
      <trkpt lat="46.50009" lon="5.4079">
        <ele>539</ele>
        <time>2021-05-29T07:10:38.738Z</time>
      </trkpt>
      <trkpt lat="46.50009" lon="5.40792">
        <ele>539</ele>
        <time>2021-05-29T07:10:39.738Z</time>
      </trkpt>
      <trkpt lat="46.50008" lon="5.40794">
        <ele>539</ele>
        <time>2021-05-29T07:10:40.738Z</time>
      </trkpt>
      <trkpt lat="46.50008" lon="5.40796">
        <ele>539</ele>
        <time>2021-05-29T07:10:41.737Z</time>
      </trkpt>
      <trkpt lat="46.50007" lon="5.40799">
        <ele>538</ele>
        <time>2021-05-29T07:10:42.738Z</time>
      </trkpt>
      <trkpt lat="46.50006" lon="5.40801">
        <ele>539</ele>
        <time>2021-05-29T07:10:43.738Z</time>
      </trkpt>
      <trkpt lat="46.50005" lon="5.40803">
        <ele>539</ele>
        <time>2021-05-29T07:10:44.738Z</time>
      </trkpt>
      <trkpt lat="46.50004" lon="5.40806">
        <ele>539</ele>
        <time>2021-05-29T07:10:45.738Z</time>
      </trkpt>
      <trkpt lat="46.50003" lon="5.40808">
        <ele>540</ele>
        <time>2021-05-29T07:10:46.738Z</time>
      </trkpt>
      <trkpt lat="46.50002" lon="5.4081">
        <ele>541</ele>
        <time>2021-05-29T07:10:47.738Z</time>
      </trkpt>
      <trkpt lat="46.50001" lon="5.40811">
        <ele>541</ele>
        <time>2021-05-29T07:10:48.738Z</time>
      </trkpt>
      <trkpt lat="46.5" lon="5.40813">
        <ele>542</ele>
        <time>2021-05-29T07:10:49.737Z</time>
      </trkpt>
      <trkpt lat="46.49998" lon="5.40815">
        <ele>542</ele>
        <time>2021-05-29T07:10:50.737Z</time>
      </trkpt>
      <trkpt lat="46.49997" lon="5.40817">
        <ele>543</ele>
        <time>2021-05-29T07:10:51.737Z</time>
      </trkpt>
      <trkpt lat="46.49997" lon="5.40819">
        <ele>543</ele>
        <time>2021-05-29T07:10:52.737Z</time>
      </trkpt>
      <trkpt lat="46.49997" lon="5.40821">
        <ele>544</ele>
        <time>2021-05-29T07:10:53.738Z</time>
      </trkpt>
      <trkpt lat="46.49997" lon="5.40824">
        <ele>544</ele>
        <time>2021-05-29T07:10:54.738Z</time>
      </trkpt>
      <trkpt lat="46.49997" lon="5.40826">
        <ele>545</ele>
        <time>2021-05-29T07:10:55.738Z</time>
      </trkpt>
      <trkpt lat="46.49998" lon="5.40829">
        <ele>545</ele>
        <time>2021-05-29T07:10:56.738Z</time>
      </trkpt>
      <trkpt lat="46.49998" lon="5.40831">
        <ele>546</ele>
        <time>2021-05-29T07:10:57.738Z</time>
      </trkpt>
      <trkpt lat="46.49998" lon="5.40833">
        <ele>546</ele>
        <time>2021-05-29T07:10:58.738Z</time>
      </trkpt>
      <trkpt lat="46.49998" lon="5.40835">
        <ele>546</ele>
        <time>2021-05-29T07:10:59.737Z</time>
      </trkpt>
      <trkpt lat="46.49998" lon="5.40837">
        <ele>545</ele>
        <time>2021-05-29T07:11:00.738Z</time>
      </trkpt>
      <trkpt lat="46.49998" lon="5.40839">
        <ele>545</ele>
        <time>2021-05-29T07:11:01.738Z</time>
      </trkpt>
      <trkpt lat="46.49999" lon="5.40841">
        <ele>545</ele>
        <time>2021-05-29T07:11:02.738Z</time>
      </trkpt>
      <trkpt lat="46.49999" lon="5.40844">
        <ele>545</ele>
        <time>2021-05-29T07:11:03.737Z</time>
      </trkpt>
      <trkpt lat="46.49999" lon="5.40846">
        <ele>545</ele>
        <time>2021-05-29T07:11:04.738Z</time>
      </trkpt>
      <trkpt lat="46.49999" lon="5.40849">
        <ele>545</ele>
        <time>2021-05-29T07:11:05.738Z</time>
      </trkpt>
      <trkpt lat="46.49999" lon="5.40852">
        <ele>545</ele>
        <time>2021-05-29T07:11:06.738Z</time>
      </trkpt>
      <trkpt lat="46.49999" lon="5.40855">
        <ele>545</ele>
        <time>2021-05-29T07:11:07.737Z</time>
      </trkpt>
      <trkpt lat="46.5" lon="5.40858">
        <ele>545</ele>
        <time>2021-05-29T07:11:08.738Z</time>
      </trkpt>
      <trkpt lat="46.5" lon="5.4086">
        <ele>545</ele>
        <time>2021-05-29T07:11:09.738Z</time>
      </trkpt>
      <trkpt lat="46.50001" lon="5.40863">
        <ele>544</ele>
        <time>2021-05-29T07:11:10.737Z</time>
      </trkpt>
      <trkpt lat="46.50001" lon="5.40865">
        <ele>544</ele>
        <time>2021-05-29T07:11:11.738Z</time>
      </trkpt>
      <trkpt lat="46.50001" lon="5.40868">
        <ele>544</ele>
        <time>2021-05-29T07:11:12.737Z</time>
      </trkpt>
      <trkpt lat="46.50001" lon="5.40871">
        <ele>544</ele>
        <time>2021-05-29T07:11:13.737Z</time>
      </trkpt>
      <trkpt lat="46.50002" lon="5.40873">
        <ele>544</ele>
        <time>2021-05-29T07:11:14.738Z</time>
      </trkpt>
      <trkpt lat="46.50003" lon="5.40876">
        <ele>544</ele>
        <time>2021-05-29T07:11:15.737Z</time>
      </trkpt>
      <trkpt lat="46.50003" lon="5.40878">
        <ele>544</ele>
        <time>2021-05-29T07:11:16.738Z</time>
      </trkpt>
      <trkpt lat="46.50004" lon="5.4088">
        <ele>544</ele>
        <time>2021-05-29T07:11:17.738Z</time>
      </trkpt>
      <trkpt lat="46.50005" lon="5.40882">
        <ele>543</ele>
        <time>2021-05-29T07:11:18.738Z</time>
      </trkpt>
      <trkpt lat="46.50006" lon="5.40884">
        <ele>543</ele>
        <time>2021-05-29T07:11:19.738Z</time>
      </trkpt>
      <trkpt lat="46.50007" lon="5.40886">
        <ele>543</ele>
        <time>2021-05-29T07:11:20.738Z</time>
      </trkpt>
      <trkpt lat="46.50009" lon="5.40888">
        <ele>543</ele>
        <time>2021-05-29T07:11:21.738Z</time>
      </trkpt>
      <trkpt lat="46.5001" lon="5.4089">
        <ele>543</ele>
        <time>2021-05-29T07:11:22.738Z</time>
      </trkpt>
      <trkpt lat="46.50011" lon="5.40892">
        <ele>543</ele>
        <time>2021-05-29T07:11:23.738Z</time>
      </trkpt>
      <trkpt lat="46.50013" lon="5.40894">
        <ele>543</ele>
        <time>2021-05-29T07:11:24.738Z</time>
      </trkpt>
      <trkpt lat="46.50014" lon="5.40896">
        <ele>543</ele>
        <time>2021-05-29T07:11:25.738Z</time>
      </trkpt>
      <trkpt lat="46.50015" lon="5.40898">
        <ele>543</ele>
        <time>2021-05-29T07:11:26.737Z</time>
      </trkpt>
      <trkpt lat="46.50017" lon="5.409">
        <ele>543</ele>
        <time>2021-05-29T07:11:27.737Z</time>
      </trkpt>
      <trkpt lat="46.50018" lon="5.40902">
        <ele>543</ele>
        <time>2021-05-29T07:11:28.738Z</time>
      </trkpt>
      <trkpt lat="46.5002" lon="5.40903">
        <ele>543</ele>
        <time>2021-05-29T07:11:29.738Z</time>
      </trkpt>
      <trkpt lat="46.50021" lon="5.40905">
        <ele>543</ele>
        <time>2021-05-29T07:11:30.738Z</time>
      </trkpt>
      <trkpt lat="46.50022" lon="5.40907">
        <ele>543</ele>
        <time>2021-05-29T07:11:31.738Z</time>
      </trkpt>
      <trkpt lat="46.50024" lon="5.40908">
        <ele>543</ele>
        <time>2021-05-29T07:11:32.738Z</time>
      </trkpt>
      <trkpt lat="46.50025" lon="5.4091">
        <ele>543</ele>
        <time>2021-05-29T07:11:33.738Z</time>
      </trkpt>
      <trkpt lat="46.50027" lon="5.40911">
        <ele>544</ele>
        <time>2021-05-29T07:11:34.738Z</time>
      </trkpt>
      <trkpt lat="46.50028" lon="5.40913">
        <ele>544</ele>
        <time>2021-05-29T07:11:35.737Z</time>
      </trkpt>
      <trkpt lat="46.5003" lon="5.40914">
        <ele>545</ele>
        <time>2021-05-29T07:11:36.738Z</time>
      </trkpt>
      <trkpt lat="46.50032" lon="5.40916">
        <ele>545</ele>
        <time>2021-05-29T07:11:37.738Z</time>
      </trkpt>
      <trkpt lat="46.50033" lon="5.40918">
        <ele>545</ele>
        <time>2021-05-29T07:11:38.738Z</time>
      </trkpt>
      <trkpt lat="46.50034" lon="5.40919">
        <ele>546</ele>
        <time>2021-05-29T07:11:39.737Z</time>
      </trkpt>
      <trkpt lat="46.50035" lon="5.40921">
        <ele>546</ele>
        <time>2021-05-29T07:11:40.738Z</time>
      </trkpt>
      <trkpt lat="46.50036" lon="5.40923">
        <ele>546</ele>
        <time>2021-05-29T07:11:41.738Z</time>
      </trkpt>
      <trkpt lat="46.50037" lon="5.40926">
        <ele>546</ele>
        <time>2021-05-29T07:11:42.738Z</time>
      </trkpt>
      <trkpt lat="46.50038" lon="5.40928">
        <ele>547</ele>
        <time>2021-05-29T07:11:43.738Z</time>
      </trkpt>
      <trkpt lat="46.50038" lon="5.40931">
        <ele>547</ele>
        <time>2021-05-29T07:11:44.738Z</time>
      </trkpt>
      <trkpt lat="46.50039" lon="5.40933">
        <ele>548</ele>
        <time>2021-05-29T07:11:45.738Z</time>
      </trkpt>
      <trkpt lat="46.5004" lon="5.40936">
        <ele>548</ele>
        <time>2021-05-29T07:11:46.737Z</time>
      </trkpt>
      <trkpt lat="46.5004" lon="5.40938">
        <ele>549</ele>
        <time>2021-05-29T07:11:47.738Z</time>
      </trkpt>
      <trkpt lat="46.5004" lon="5.4094">
        <ele>549</ele>
        <time>2021-05-29T07:11:48.737Z</time>
      </trkpt>
      <trkpt lat="46.50041" lon="5.40942">
        <ele>550</ele>
        <time>2021-05-29T07:11:49.738Z</time>
      </trkpt>
      <trkpt lat="46.50042" lon="5.40944">
        <ele>550</ele>
        <time>2021-05-29T07:11:50.737Z</time>
      </trkpt>
      <trkpt lat="46.50043" lon="5.40946">
        <ele>550</ele>
        <time>2021-05-29T07:11:51.737Z</time>
      </trkpt>
      <trkpt lat="46.50044" lon="5.40949">
        <ele>550</ele>
        <time>2021-05-29T07:11:52.737Z</time>
      </trkpt>
      <trkpt lat="46.50044" lon="5.40951">
        <ele>551</ele>
        <time>2021-05-29T07:11:53.738Z</time>
      </trkpt>
      <trkpt lat="46.50045" lon="5.40953">
        <ele>551</ele>
        <time>2021-05-29T07:11:54.737Z</time>
      </trkpt>
      <trkpt lat="46.50046" lon="5.40955">
        <ele>551</ele>
        <time>2021-05-29T07:11:55.737Z</time>
      </trkpt>
      <trkpt lat="46.50047" lon="5.40957">
        <ele>551</ele>
        <time>2021-05-29T07:11:56.738Z</time>
      </trkpt>
      <trkpt lat="46.50048" lon="5.4096">
        <ele>551</ele>
        <time>2021-05-29T07:11:57.737Z</time>
      </trkpt>
      <trkpt lat="46.50048" lon="5.40962">
        <ele>551</ele>
        <time>2021-05-29T07:11:58.738Z</time>
      </trkpt>
      <trkpt lat="46.50049" lon="5.40964">
        <ele>551</ele>
        <time>2021-05-29T07:11:59.737Z</time>
      </trkpt>
      <trkpt lat="46.5005" lon="5.40966">
        <ele>551</ele>
        <time>2021-05-29T07:12:00.737Z</time>
      </trkpt>
      <trkpt lat="46.50051" lon="5.40968">
        <ele>551</ele>
        <time>2021-05-29T07:12:01.738Z</time>
      </trkpt>
      <trkpt lat="46.50052" lon="5.4097">
        <ele>551</ele>
        <time>2021-05-29T07:12:02.738Z</time>
      </trkpt>
      <trkpt lat="46.50052" lon="5.4097">
        <ele>551</ele>
        <time>2021-05-29T07:12:03.738Z</time>
      </trkpt>
      <trkpt lat="46.50052" lon="5.4097">
        <ele>551</ele>
        <time>2021-05-29T07:12:04.737Z</time>
      </trkpt>
      <trkpt lat="46.50052" lon="5.40971">
        <ele>550</ele>
        <time>2021-05-29T07:12:05.738Z</time>
      </trkpt>
      <trkpt lat="46.50053" lon="5.40972">
        <ele>550</ele>
        <time>2021-05-29T07:12:06.738Z</time>
      </trkpt>
      <trkpt lat="46.50054" lon="5.40974">
        <ele>550</ele>
        <time>2021-05-29T07:12:07.738Z</time>
      </trkpt>
      <trkpt lat="46.50055" lon="5.40977">
        <ele>550</ele>
        <time>2021-05-29T07:12:08.738Z</time>
      </trkpt>
      <trkpt lat="46.50056" lon="5.4098">
        <ele>550</ele>
        <time>2021-05-29T07:12:09.737Z</time>
      </trkpt>
      <trkpt lat="46.50056" lon="5.40983">
        <ele>550</ele>
        <time>2021-05-29T07:12:10.737Z</time>
      </trkpt>
      <trkpt lat="46.50057" lon="5.40985">
        <ele>551</ele>
        <time>2021-05-29T07:12:11.738Z</time>
      </trkpt>
      <trkpt lat="46.50058" lon="5.40988">
        <ele>551</ele>
        <time>2021-05-29T07:12:12.738Z</time>
      </trkpt>
      <trkpt lat="46.50059" lon="5.40991">
        <ele>551</ele>
        <time>2021-05-29T07:12:13.737Z</time>
      </trkpt>
      <trkpt lat="46.5006" lon="5.40993">
        <ele>551</ele>
        <time>2021-05-29T07:12:14.738Z</time>
      </trkpt>
      <trkpt lat="46.5006" lon="5.40996">
        <ele>551</ele>
        <time>2021-05-29T07:12:15.738Z</time>
      </trkpt>
      <trkpt lat="46.50061" lon="5.40998">
        <ele>552</ele>
        <time>2021-05-29T07:12:16.737Z</time>
      </trkpt>
      <trkpt lat="46.50062" lon="5.41">
        <ele>552</ele>
        <time>2021-05-29T07:12:17.737Z</time>
      </trkpt>
      <trkpt lat="46.50063" lon="5.41002">
        <ele>552</ele>
        <time>2021-05-29T07:12:18.737Z</time>
      </trkpt>
      <trkpt lat="46.50064" lon="5.41004">
        <ele>552</ele>
        <time>2021-05-29T07:12:19.738Z</time>
      </trkpt>
      <trkpt lat="46.50064" lon="5.41006">
        <ele>553</ele>
        <time>2021-05-29T07:12:20.738Z</time>
      </trkpt>
      <trkpt lat="46.50065" lon="5.41008">
        <ele>553</ele>
        <time>2021-05-29T07:12:21.738Z</time>
      </trkpt>
      <trkpt lat="46.50066" lon="5.4101">
        <ele>553</ele>
        <time>2021-05-29T07:12:22.737Z</time>
      </trkpt>
      <trkpt lat="46.50066" lon="5.41012">
        <ele>554</ele>
        <time>2021-05-29T07:12:23.737Z</time>
      </trkpt>
      <trkpt lat="46.50067" lon="5.41014">
        <ele>553</ele>
        <time>2021-05-29T07:12:24.738Z</time>
      </trkpt>
      <trkpt lat="46.50068" lon="5.41016">
        <ele>553</ele>
        <time>2021-05-29T07:12:25.737Z</time>
      </trkpt>
      <trkpt lat="46.50069" lon="5.41018">
        <ele>553</ele>
        <time>2021-05-29T07:12:26.738Z</time>
      </trkpt>
      <trkpt lat="46.50069" lon="5.4102">
        <ele>554</ele>
        <time>2021-05-29T07:12:27.738Z</time>
      </trkpt>
      <trkpt lat="46.5007" lon="5.41023">
        <ele>554</ele>
        <time>2021-05-29T07:12:28.738Z</time>
      </trkpt>
      <trkpt lat="46.50071" lon="5.41025">
        <ele>554</ele>
        <time>2021-05-29T07:12:29.738Z</time>
      </trkpt>
      <trkpt lat="46.50072" lon="5.41027">
        <ele>555</ele>
        <time>2021-05-29T07:12:30.738Z</time>
      </trkpt>
      <trkpt lat="46.50073" lon="5.41029">
        <ele>555</ele>
        <time>2021-05-29T07:12:31.738Z</time>
      </trkpt>
      <trkpt lat="46.50074" lon="5.41031">
        <ele>555</ele>
        <time>2021-05-29T07:12:32.738Z</time>
      </trkpt>
      <trkpt lat="46.50074" lon="5.41033">
        <ele>556</ele>
        <time>2021-05-29T07:12:33.737Z</time>
      </trkpt>
      <trkpt lat="46.50075" lon="5.41035">
        <ele>556</ele>
        <time>2021-05-29T07:12:34.738Z</time>
      </trkpt>
      <trkpt lat="46.50076" lon="5.41038">
        <ele>556</ele>
        <time>2021-05-29T07:12:35.738Z</time>
      </trkpt>
      <trkpt lat="46.50077" lon="5.4104">
        <ele>557</ele>
        <time>2021-05-29T07:12:36.737Z</time>
      </trkpt>
      <trkpt lat="46.50078" lon="5.41042">
        <ele>557</ele>
        <time>2021-05-29T07:12:37.738Z</time>
      </trkpt>
      <trkpt lat="46.50079" lon="5.41044">
        <ele>558</ele>
        <time>2021-05-29T07:12:38.737Z</time>
      </trkpt>
      <trkpt lat="46.5008" lon="5.41045">
        <ele>558</ele>
        <time>2021-05-29T07:12:39.738Z</time>
      </trkpt>
      <trkpt lat="46.5008" lon="5.41048">
        <ele>558</ele>
        <time>2021-05-29T07:12:40.738Z</time>
      </trkpt>
      <trkpt lat="46.5008" lon="5.41049">
        <ele>559</ele>
        <time>2021-05-29T07:12:41.738Z</time>
      </trkpt>
      <trkpt lat="46.50081" lon="5.41051">
        <ele>558</ele>
        <time>2021-05-29T07:12:42.738Z</time>
      </trkpt>
      <trkpt lat="46.50082" lon="5.41053">
        <ele>558</ele>
        <time>2021-05-29T07:12:43.738Z</time>
      </trkpt>
      <trkpt lat="46.50083" lon="5.41055">
        <ele>558</ele>
        <time>2021-05-29T07:12:44.738Z</time>
      </trkpt>
      <trkpt lat="46.50084" lon="5.41057">
        <ele>558</ele>
        <time>2021-05-29T07:12:45.737Z</time>
      </trkpt>
      <trkpt lat="46.50085" lon="5.41059">
        <ele>558</ele>
        <time>2021-05-29T07:12:46.738Z</time>
      </trkpt>
      <trkpt lat="46.50086" lon="5.41061">
        <ele>559</ele>
        <time>2021-05-29T07:12:47.738Z</time>
      </trkpt>
      <trkpt lat="46.50087" lon="5.41063">
        <ele>559</ele>
        <time>2021-05-29T07:12:48.738Z</time>
      </trkpt>
      <trkpt lat="46.50088" lon="5.41065">
        <ele>559</ele>
        <time>2021-05-29T07:12:49.738Z</time>
      </trkpt>
      <trkpt lat="46.50088" lon="5.41067">
        <ele>559</ele>
        <time>2021-05-29T07:12:50.738Z</time>
      </trkpt>
      <trkpt lat="46.50089" lon="5.41069">
        <ele>558</ele>
        <time>2021-05-29T07:12:51.738Z</time>
      </trkpt>
      <trkpt lat="46.5009" lon="5.41071">
        <ele>558</ele>
        <time>2021-05-29T07:12:52.738Z</time>
      </trkpt>
      <trkpt lat="46.50091" lon="5.41073">
        <ele>558</ele>
        <time>2021-05-29T07:12:53.737Z</time>
      </trkpt>
      <trkpt lat="46.50092" lon="5.41075">
        <ele>559</ele>
        <time>2021-05-29T07:12:54.738Z</time>
      </trkpt>
      <trkpt lat="46.50093" lon="5.41077">
        <ele>559</ele>
        <time>2021-05-29T07:12:55.737Z</time>
      </trkpt>
      <trkpt lat="46.50094" lon="5.41079">
        <ele>559</ele>
        <time>2021-05-29T07:12:56.738Z</time>
      </trkpt>
      <trkpt lat="46.50095" lon="5.41081">
        <ele>560</ele>
        <time>2021-05-29T07:12:57.738Z</time>
      </trkpt>
      <trkpt lat="46.50096" lon="5.41083">
        <ele>561</ele>
        <time>2021-05-29T07:12:58.738Z</time>
      </trkpt>
      <trkpt lat="46.50097" lon="5.41085">
        <ele>561</ele>
        <time>2021-05-29T07:12:59.738Z</time>
      </trkpt>
      <trkpt lat="46.50097" lon="5.41087">
        <ele>561</ele>
        <time>2021-05-29T07:13:00.738Z</time>
      </trkpt>
      <trkpt lat="46.50098" lon="5.41088">
        <ele>561</ele>
        <time>2021-05-29T07:13:01.738Z</time>
      </trkpt>
      <trkpt lat="46.50099" lon="5.4109">
        <ele>562</ele>
        <time>2021-05-29T07:13:02.737Z</time>
      </trkpt>
      <trkpt lat="46.50101" lon="5.41092">
        <ele>562</ele>
        <time>2021-05-29T07:13:03.738Z</time>
      </trkpt>
      <trkpt lat="46.50102" lon="5.41094">
        <ele>562</ele>
        <time>2021-05-29T07:13:04.738Z</time>
      </trkpt>
      <trkpt lat="46.50104" lon="5.41096">
        <ele>562</ele>
        <time>2021-05-29T07:13:05.738Z</time>
      </trkpt>
      <trkpt lat="46.50105" lon="5.41098">
        <ele>563</ele>
        <time>2021-05-29T07:13:06.738Z</time>
      </trkpt>
      <trkpt lat="46.50106" lon="5.411">
        <ele>563</ele>
        <time>2021-05-29T07:13:07.738Z</time>
      </trkpt>
      <trkpt lat="46.50107" lon="5.41102">
        <ele>563</ele>
        <time>2021-05-29T07:13:08.738Z</time>
      </trkpt>
      <trkpt lat="46.50108" lon="5.41103">
        <ele>563</ele>
        <time>2021-05-29T07:13:09.738Z</time>
      </trkpt>
      <trkpt lat="46.50109" lon="5.41105">
        <ele>563</ele>
        <time>2021-05-29T07:13:10.738Z</time>
      </trkpt>
      <trkpt lat="46.50111" lon="5.41107">
        <ele>563</ele>
        <time>2021-05-29T07:13:11.738Z</time>
      </trkpt>
      <trkpt lat="46.50112" lon="5.41108">
        <ele>563</ele>
        <time>2021-05-29T07:13:12.738Z</time>
      </trkpt>
      <trkpt lat="46.50113" lon="5.4111">
        <ele>563</ele>
        <time>2021-05-29T07:13:13.738Z</time>
      </trkpt>
      <trkpt lat="46.50114" lon="5.41111">
        <ele>563</ele>
        <time>2021-05-29T07:13:14.738Z</time>
      </trkpt>
      <trkpt lat="46.50115" lon="5.41112">
        <ele>564</ele>
        <time>2021-05-29T07:13:15.737Z</time>
      </trkpt>
      <trkpt lat="46.50117" lon="5.41113">
        <ele>564</ele>
        <time>2021-05-29T07:13:16.737Z</time>
      </trkpt>
      <trkpt lat="46.50118" lon="5.41114">
        <ele>564</ele>
        <time>2021-05-29T07:13:17.738Z</time>
      </trkpt>
      <trkpt lat="46.5012" lon="5.41115">
        <ele>564</ele>
        <time>2021-05-29T07:13:18.737Z</time>
      </trkpt>
      <trkpt lat="46.50121" lon="5.41116">
        <ele>565</ele>
        <time>2021-05-29T07:13:19.738Z</time>
      </trkpt>
      <trkpt lat="46.50123" lon="5.41117">
        <ele>565</ele>
        <time>2021-05-29T07:13:20.738Z</time>
      </trkpt>
      <trkpt lat="46.50125" lon="5.41118">
        <ele>565</ele>
        <time>2021-05-29T07:13:21.738Z</time>
      </trkpt>
      <trkpt lat="46.50127" lon="5.4112">
        <ele>565</ele>
        <time>2021-05-29T07:13:22.738Z</time>
      </trkpt>
      <trkpt lat="46.50128" lon="5.41121">
        <ele>565</ele>
        <time>2021-05-29T07:13:23.737Z</time>
      </trkpt>
      <trkpt lat="46.5013" lon="5.41122">
        <ele>565</ele>
        <time>2021-05-29T07:13:24.737Z</time>
      </trkpt>
      <trkpt lat="46.50131" lon="5.41123">
        <ele>565</ele>
        <time>2021-05-29T07:13:25.737Z</time>
      </trkpt>
      <trkpt lat="46.50133" lon="5.41124">
        <ele>565</ele>
        <time>2021-05-29T07:13:26.738Z</time>
      </trkpt>
      <trkpt lat="46.50135" lon="5.41125">
        <ele>565</ele>
        <time>2021-05-29T07:13:27.738Z</time>
      </trkpt>
      <trkpt lat="46.50136" lon="5.41127">
        <ele>565</ele>
        <time>2021-05-29T07:13:28.738Z</time>
      </trkpt>
      <trkpt lat="46.50137" lon="5.41129">
        <ele>565</ele>
        <time>2021-05-29T07:13:29.738Z</time>
      </trkpt>
      <trkpt lat="46.50138" lon="5.4113">
        <ele>565</ele>
        <time>2021-05-29T07:13:30.738Z</time>
      </trkpt>
      <trkpt lat="46.50139" lon="5.41132">
        <ele>565</ele>
        <time>2021-05-29T07:13:31.738Z</time>
      </trkpt>
      <trkpt lat="46.5014" lon="5.41134">
        <ele>565</ele>
        <time>2021-05-29T07:13:32.738Z</time>
      </trkpt>
      <trkpt lat="46.50141" lon="5.41136">
        <ele>565</ele>
        <time>2021-05-29T07:13:33.737Z</time>
      </trkpt>
      <trkpt lat="46.50141" lon="5.41138">
        <ele>566</ele>
        <time>2021-05-29T07:13:34.738Z</time>
      </trkpt>
      <trkpt lat="46.50142" lon="5.4114">
        <ele>566</ele>
        <time>2021-05-29T07:13:35.738Z</time>
      </trkpt>
      <trkpt lat="46.50142" lon="5.41142">
        <ele>567</ele>
        <time>2021-05-29T07:13:36.738Z</time>
      </trkpt>
      <trkpt lat="46.50143" lon="5.41144">
        <ele>567</ele>
        <time>2021-05-29T07:13:37.738Z</time>
      </trkpt>
      <trkpt lat="46.50143" lon="5.41146">
        <ele>567</ele>
        <time>2021-05-29T07:13:38.738Z</time>
      </trkpt>
      <trkpt lat="46.50144" lon="5.41148">
        <ele>567</ele>
        <time>2021-05-29T07:13:39.738Z</time>
      </trkpt>
      <trkpt lat="46.50145" lon="5.4115">
        <ele>567</ele>
        <time>2021-05-29T07:13:40.737Z</time>
      </trkpt>
      <trkpt lat="46.50146" lon="5.41152">
        <ele>568</ele>
        <time>2021-05-29T07:13:41.738Z</time>
      </trkpt>
      <trkpt lat="46.50146" lon="5.41154">
        <ele>568</ele>
        <time>2021-05-29T07:13:42.737Z</time>
      </trkpt>
      <trkpt lat="46.50147" lon="5.41156">
        <ele>569</ele>
        <time>2021-05-29T07:13:43.738Z</time>
      </trkpt>
      <trkpt lat="46.50148" lon="5.41157">
        <ele>569</ele>
        <time>2021-05-29T07:13:44.738Z</time>
      </trkpt>
      <trkpt lat="46.50149" lon="5.41158">
        <ele>569</ele>
        <time>2021-05-29T07:13:45.738Z</time>
      </trkpt>
      <trkpt lat="46.5015" lon="5.4116">
        <ele>569</ele>
        <time>2021-05-29T07:13:46.738Z</time>
      </trkpt>
      <trkpt lat="46.50151" lon="5.41161">
        <ele>569</ele>
        <time>2021-05-29T07:13:47.738Z</time>
      </trkpt>
      <trkpt lat="46.50153" lon="5.41163">
        <ele>570</ele>
        <time>2021-05-29T07:13:48.738Z</time>
      </trkpt>
      <trkpt lat="46.50154" lon="5.41165">
        <ele>570</ele>
        <time>2021-05-29T07:13:49.738Z</time>
      </trkpt>
      <trkpt lat="46.50156" lon="5.41166">
        <ele>570</ele>
        <time>2021-05-29T07:13:50.738Z</time>
      </trkpt>
      <trkpt lat="46.50157" lon="5.41168">
        <ele>571</ele>
        <time>2021-05-29T07:13:51.738Z</time>
      </trkpt>
      <trkpt lat="46.50158" lon="5.4117">
        <ele>571</ele>
        <time>2021-05-29T07:13:52.738Z</time>
      </trkpt>
      <trkpt lat="46.5016" lon="5.41172">
        <ele>572</ele>
        <time>2021-05-29T07:13:53.737Z</time>
      </trkpt>
      <trkpt lat="46.50161" lon="5.41174">
        <ele>571</ele>
        <time>2021-05-29T07:13:54.737Z</time>
      </trkpt>
      <trkpt lat="46.50162" lon="5.41176">
        <ele>571</ele>
        <time>2021-05-29T07:13:55.737Z</time>
      </trkpt>
      <trkpt lat="46.50163" lon="5.41178">
        <ele>571</ele>
        <time>2021-05-29T07:13:56.738Z</time>
      </trkpt>
      <trkpt lat="46.50165" lon="5.4118">
        <ele>572</ele>
        <time>2021-05-29T07:13:57.738Z</time>
      </trkpt>
      <trkpt lat="46.50166" lon="5.41182">
        <ele>572</ele>
        <time>2021-05-29T07:13:58.737Z</time>
      </trkpt>
      <trkpt lat="46.50168" lon="5.41184">
        <ele>572</ele>
        <time>2021-05-29T07:13:59.737Z</time>
      </trkpt>
      <trkpt lat="46.50169" lon="5.41186">
        <ele>572</ele>
        <time>2021-05-29T07:14:00.737Z</time>
      </trkpt>
      <trkpt lat="46.50169" lon="5.41189">
        <ele>572</ele>
        <time>2021-05-29T07:14:01.738Z</time>
      </trkpt>
      <trkpt lat="46.5017" lon="5.41191">
        <ele>572</ele>
        <time>2021-05-29T07:14:02.738Z</time>
      </trkpt>
      <trkpt lat="46.50171" lon="5.41193">
        <ele>572</ele>
        <time>2021-05-29T07:14:03.738Z</time>
      </trkpt>
      <trkpt lat="46.50173" lon="5.41195">
        <ele>573</ele>
        <time>2021-05-29T07:14:04.738Z</time>
      </trkpt>
      <trkpt lat="46.50174" lon="5.41196">
        <ele>574</ele>
        <time>2021-05-29T07:14:05.737Z</time>
      </trkpt>
      <trkpt lat="46.50175" lon="5.41198">
        <ele>574</ele>
        <time>2021-05-29T07:14:06.738Z</time>
      </trkpt>
      <trkpt lat="46.50176" lon="5.412">
        <ele>575</ele>
        <time>2021-05-29T07:14:07.738Z</time>
      </trkpt>
      <trkpt lat="46.50177" lon="5.41202">
        <ele>575</ele>
        <time>2021-05-29T07:14:08.737Z</time>
      </trkpt>
      <trkpt lat="46.50178" lon="5.41204">
        <ele>575</ele>
        <time>2021-05-29T07:14:09.737Z</time>
      </trkpt>
      <trkpt lat="46.5018" lon="5.41206">
        <ele>576</ele>
        <time>2021-05-29T07:14:10.737Z</time>
      </trkpt>
      <trkpt lat="46.50181" lon="5.41208">
        <ele>576</ele>
        <time>2021-05-29T07:14:11.738Z</time>
      </trkpt>
      <trkpt lat="46.50183" lon="5.4121">
        <ele>576</ele>
        <time>2021-05-29T07:14:12.738Z</time>
      </trkpt>
      <trkpt lat="46.50184" lon="5.41212">
        <ele>576</ele>
        <time>2021-05-29T07:14:13.738Z</time>
      </trkpt>
      <trkpt lat="46.50186" lon="5.41214">
        <ele>576</ele>
        <time>2021-05-29T07:14:14.737Z</time>
      </trkpt>
      <trkpt lat="46.50188" lon="5.41215">
        <ele>576</ele>
        <time>2021-05-29T07:14:15.738Z</time>
      </trkpt>
      <trkpt lat="46.50189" lon="5.41217">
        <ele>576</ele>
        <time>2021-05-29T07:14:16.738Z</time>
      </trkpt>
      <trkpt lat="46.50191" lon="5.41219">
        <ele>576</ele>
        <time>2021-05-29T07:14:17.738Z</time>
      </trkpt>
      <trkpt lat="46.50192" lon="5.41221">
        <ele>576</ele>
        <time>2021-05-29T07:14:18.738Z</time>
      </trkpt>
      <trkpt lat="46.50193" lon="5.41223">
        <ele>576</ele>
        <time>2021-05-29T07:14:19.737Z</time>
      </trkpt>
      <trkpt lat="46.50195" lon="5.41225">
        <ele>576</ele>
        <time>2021-05-29T07:14:20.738Z</time>
      </trkpt>
      <trkpt lat="46.50196" lon="5.41226">
        <ele>577</ele>
        <time>2021-05-29T07:14:21.738Z</time>
      </trkpt>
      <trkpt lat="46.50198" lon="5.41228">
        <ele>577</ele>
        <time>2021-05-29T07:14:22.737Z</time>
      </trkpt>
      <trkpt lat="46.502" lon="5.4123">
        <ele>577</ele>
        <time>2021-05-29T07:14:23.737Z</time>
      </trkpt>
      <trkpt lat="46.50201" lon="5.41231">
        <ele>577</ele>
        <time>2021-05-29T07:14:24.737Z</time>
      </trkpt>
      <trkpt lat="46.50203" lon="5.41233">
        <ele>578</ele>
        <time>2021-05-29T07:14:25.738Z</time>
      </trkpt>
      <trkpt lat="46.50205" lon="5.41235">
        <ele>578</ele>
        <time>2021-05-29T07:14:26.738Z</time>
      </trkpt>
      <trkpt lat="46.50206" lon="5.41236">
        <ele>578</ele>
        <time>2021-05-29T07:14:27.737Z</time>
      </trkpt>
      <trkpt lat="46.50208" lon="5.41238">
        <ele>579</ele>
        <time>2021-05-29T07:14:28.738Z</time>
      </trkpt>
      <trkpt lat="46.50209" lon="5.4124">
        <ele>579</ele>
        <time>2021-05-29T07:14:29.738Z</time>
      </trkpt>
      <trkpt lat="46.50211" lon="5.41242">
        <ele>579</ele>
        <time>2021-05-29T07:14:30.738Z</time>
      </trkpt>
      <trkpt lat="46.50213" lon="5.41244">
        <ele>579</ele>
        <time>2021-05-29T07:14:31.738Z</time>
      </trkpt>
      <trkpt lat="46.50215" lon="5.41245">
        <ele>579</ele>
        <time>2021-05-29T07:14:32.738Z</time>
      </trkpt>
      <trkpt lat="46.50217" lon="5.41247">
        <ele>580</ele>
        <time>2021-05-29T07:14:33.738Z</time>
      </trkpt>
      <trkpt lat="46.50219" lon="5.41248">
        <ele>580</ele>
        <time>2021-05-29T07:14:34.737Z</time>
      </trkpt>
      <trkpt lat="46.5022" lon="5.4125">
        <ele>580</ele>
        <time>2021-05-29T07:14:35.738Z</time>
      </trkpt>
      <trkpt lat="46.50222" lon="5.41252">
        <ele>580</ele>
        <time>2021-05-29T07:14:36.738Z</time>
      </trkpt>
      <trkpt lat="46.50224" lon="5.41254">
        <ele>580</ele>
        <time>2021-05-29T07:14:37.738Z</time>
      </trkpt>
      <trkpt lat="46.50226" lon="5.41255">
        <ele>580</ele>
        <time>2021-05-29T07:14:38.737Z</time>
      </trkpt>
      <trkpt lat="46.50227" lon="5.41258">
        <ele>580</ele>
        <time>2021-05-29T07:14:39.738Z</time>
      </trkpt>
      <trkpt lat="46.50228" lon="5.4126">
        <ele>581</ele>
        <time>2021-05-29T07:14:40.738Z</time>
      </trkpt>
      <trkpt lat="46.50229" lon="5.41262">
        <ele>581</ele>
        <time>2021-05-29T07:14:41.738Z</time>
      </trkpt>
      <trkpt lat="46.5023" lon="5.41264">
        <ele>582</ele>
        <time>2021-05-29T07:14:42.738Z</time>
      </trkpt>
      <trkpt lat="46.50231" lon="5.41266">
        <ele>582</ele>
        <time>2021-05-29T07:14:43.738Z</time>
      </trkpt>
      <trkpt lat="46.50232" lon="5.41268">
        <ele>582</ele>
        <time>2021-05-29T07:14:44.738Z</time>
      </trkpt>
      <trkpt lat="46.50233" lon="5.41269">
        <ele>582</ele>
        <time>2021-05-29T07:14:45.738Z</time>
      </trkpt>
      <trkpt lat="46.50233" lon="5.41271">
        <ele>582</ele>
        <time>2021-05-29T07:14:46.738Z</time>
      </trkpt>
      <trkpt lat="46.50234" lon="5.41273">
        <ele>582</ele>
        <time>2021-05-29T07:14:47.738Z</time>
      </trkpt>
      <trkpt lat="46.50235" lon="5.41274">
        <ele>582</ele>
        <time>2021-05-29T07:14:48.738Z</time>
      </trkpt>
      <trkpt lat="46.50237" lon="5.41275">
        <ele>582</ele>
        <time>2021-05-29T07:14:49.738Z</time>
      </trkpt>
      <trkpt lat="46.50238" lon="5.41277">
        <ele>583</ele>
        <time>2021-05-29T07:14:50.738Z</time>
      </trkpt>
      <trkpt lat="46.5024" lon="5.41278">
        <ele>583</ele>
        <time>2021-05-29T07:14:51.738Z</time>
      </trkpt>
      <trkpt lat="46.50242" lon="5.4128">
        <ele>584</ele>
        <time>2021-05-29T07:14:52.738Z</time>
      </trkpt>
      <trkpt lat="46.50243" lon="5.41282">
        <ele>585</ele>
        <time>2021-05-29T07:14:53.737Z</time>
      </trkpt>
      <trkpt lat="46.50245" lon="5.41284">
        <ele>585</ele>
        <time>2021-05-29T07:14:54.738Z</time>
      </trkpt>
      <trkpt lat="46.50246" lon="5.41286">
        <ele>586</ele>
        <time>2021-05-29T07:14:55.738Z</time>
      </trkpt>
      <trkpt lat="46.50247" lon="5.41288">
        <ele>586</ele>
        <time>2021-05-29T07:14:56.737Z</time>
      </trkpt>
      <trkpt lat="46.50248" lon="5.4129">
        <ele>587</ele>
        <time>2021-05-29T07:14:57.738Z</time>
      </trkpt>
      <trkpt lat="46.50249" lon="5.41293">
        <ele>587</ele>
        <time>2021-05-29T07:14:58.738Z</time>
      </trkpt>
      <trkpt lat="46.50251" lon="5.41294">
        <ele>587</ele>
        <time>2021-05-29T07:14:59.738Z</time>
      </trkpt>
      <trkpt lat="46.50253" lon="5.41296">
        <ele>587</ele>
        <time>2021-05-29T07:15:00.738Z</time>
      </trkpt>
      <trkpt lat="46.50255" lon="5.41298">
        <ele>587</ele>
        <time>2021-05-29T07:15:01.738Z</time>
      </trkpt>
      <trkpt lat="46.50256" lon="5.413">
        <ele>587</ele>
        <time>2021-05-29T07:15:02.738Z</time>
      </trkpt>
      <trkpt lat="46.50258" lon="5.41302">
        <ele>586</ele>
        <time>2021-05-29T07:15:03.737Z</time>
      </trkpt>
      <trkpt lat="46.50259" lon="5.41303">
        <ele>586</ele>
        <time>2021-05-29T07:15:04.737Z</time>
      </trkpt>
      <trkpt lat="46.50261" lon="5.41305">
        <ele>586</ele>
        <time>2021-05-29T07:15:05.737Z</time>
      </trkpt>
      <trkpt lat="46.50262" lon="5.41307">
        <ele>586</ele>
        <time>2021-05-29T07:15:06.737Z</time>
      </trkpt>
      <trkpt lat="46.50263" lon="5.41308">
        <ele>586</ele>
        <time>2021-05-29T07:15:07.737Z</time>
      </trkpt>
      <trkpt lat="46.50263" lon="5.4131">
        <ele>586</ele>
        <time>2021-05-29T07:15:08.737Z</time>
      </trkpt>
      <trkpt lat="46.50264" lon="5.41311">
        <ele>586</ele>
        <time>2021-05-29T07:15:09.737Z</time>
      </trkpt>
      <trkpt lat="46.50265" lon="5.41313">
        <ele>586</ele>
        <time>2021-05-29T07:15:10.738Z</time>
      </trkpt>
      <trkpt lat="46.50266" lon="5.41314">
        <ele>586</ele>
        <time>2021-05-29T07:15:11.737Z</time>
      </trkpt>
      <trkpt lat="46.50268" lon="5.41317">
        <ele>586</ele>
        <time>2021-05-29T07:15:12.738Z</time>
      </trkpt>
      <trkpt lat="46.5027" lon="5.41319">
        <ele>586</ele>
        <time>2021-05-29T07:15:13.738Z</time>
      </trkpt>
      <trkpt lat="46.50272" lon="5.4132">
        <ele>586</ele>
        <time>2021-05-29T07:15:14.738Z</time>
      </trkpt>
      <trkpt lat="46.50274" lon="5.41322">
        <ele>586</ele>
        <time>2021-05-29T07:15:15.737Z</time>
      </trkpt>
      <trkpt lat="46.50277" lon="5.41325">
        <ele>586</ele>
        <time>2021-05-29T07:15:16.737Z</time>
      </trkpt>
      <trkpt lat="46.50279" lon="5.41327">
        <ele>586</ele>
        <time>2021-05-29T07:15:17.738Z</time>
      </trkpt>
      <trkpt lat="46.50281" lon="5.41329">
        <ele>586</ele>
        <time>2021-05-29T07:15:18.738Z</time>
      </trkpt>
      <trkpt lat="46.50283" lon="5.41331">
        <ele>586</ele>
        <time>2021-05-29T07:15:19.737Z</time>
      </trkpt>
      <trkpt lat="46.50285" lon="5.41333">
        <ele>586</ele>
        <time>2021-05-29T07:15:20.737Z</time>
      </trkpt>
      <trkpt lat="46.50287" lon="5.41335">
        <ele>586</ele>
        <time>2021-05-29T07:15:21.738Z</time>
      </trkpt>
      <trkpt lat="46.50288" lon="5.41337">
        <ele>586</ele>
        <time>2021-05-29T07:15:22.738Z</time>
      </trkpt>
      <trkpt lat="46.5029" lon="5.41339">
        <ele>586</ele>
        <time>2021-05-29T07:15:23.738Z</time>
      </trkpt>
      <trkpt lat="46.50291" lon="5.41341">
        <ele>586</ele>
        <time>2021-05-29T07:15:24.738Z</time>
      </trkpt>
      <trkpt lat="46.50293" lon="5.41342">
        <ele>586</ele>
        <time>2021-05-29T07:15:25.738Z</time>
      </trkpt>
      <trkpt lat="46.50294" lon="5.41345">
        <ele>585</ele>
        <time>2021-05-29T07:15:26.738Z</time>
      </trkpt>
      <trkpt lat="46.50296" lon="5.41347">
        <ele>585</ele>
        <time>2021-05-29T07:15:27.737Z</time>
      </trkpt>
      <trkpt lat="46.50297" lon="5.41349">
        <ele>585</ele>
        <time>2021-05-29T07:15:28.738Z</time>
      </trkpt>
      <trkpt lat="46.50299" lon="5.41352">
        <ele>586</ele>
        <time>2021-05-29T07:15:29.738Z</time>
      </trkpt>
      <trkpt lat="46.503" lon="5.41354">
        <ele>586</ele>
        <time>2021-05-29T07:15:30.738Z</time>
      </trkpt>
      <trkpt lat="46.50302" lon="5.41357">
        <ele>586</ele>
        <time>2021-05-29T07:15:31.738Z</time>
      </trkpt>
      <trkpt lat="46.50303" lon="5.41358">
        <ele>586</ele>
        <time>2021-05-29T07:15:32.738Z</time>
      </trkpt>
      <trkpt lat="46.50305" lon="5.41359">
        <ele>585</ele>
        <time>2021-05-29T07:15:33.738Z</time>
      </trkpt>
      <trkpt lat="46.50306" lon="5.41361">
        <ele>585</ele>
        <time>2021-05-29T07:15:34.737Z</time>
      </trkpt>
      <trkpt lat="46.50307" lon="5.41363">
        <ele>585</ele>
        <time>2021-05-29T07:15:35.738Z</time>
      </trkpt>
      <trkpt lat="46.50308" lon="5.41365">
        <ele>585</ele>
        <time>2021-05-29T07:15:36.738Z</time>
      </trkpt>
      <trkpt lat="46.5031" lon="5.41366">
        <ele>585</ele>
        <time>2021-05-29T07:15:37.738Z</time>
      </trkpt>
      <trkpt lat="46.50311" lon="5.41368">
        <ele>585</ele>
        <time>2021-05-29T07:15:38.738Z</time>
      </trkpt>
      <trkpt lat="46.50312" lon="5.4137">
        <ele>585</ele>
        <time>2021-05-29T07:15:39.738Z</time>
      </trkpt>
      <trkpt lat="46.50313" lon="5.41372">
        <ele>584</ele>
        <time>2021-05-29T07:15:40.738Z</time>
      </trkpt>
      <trkpt lat="46.50314" lon="5.41373">
        <ele>584</ele>
        <time>2021-05-29T07:15:41.738Z</time>
      </trkpt>
      <trkpt lat="46.50315" lon="5.41375">
        <ele>584</ele>
        <time>2021-05-29T07:15:42.737Z</time>
      </trkpt>
      <trkpt lat="46.50317" lon="5.41377">
        <ele>584</ele>
        <time>2021-05-29T07:15:43.738Z</time>
      </trkpt>
      <trkpt lat="46.50317" lon="5.41378">
        <ele>584</ele>
        <time>2021-05-29T07:15:44.737Z</time>
      </trkpt>
      <trkpt lat="46.50317" lon="5.4138">
        <ele>584</ele>
        <time>2021-05-29T07:15:45.737Z</time>
      </trkpt>
      <trkpt lat="46.50317" lon="5.4138">
        <ele>584</ele>
        <time>2021-05-29T07:15:46.738Z</time>
      </trkpt>
      <trkpt lat="46.50316" lon="5.41379">
        <ele>585</ele>
        <time>2021-05-29T07:15:47.738Z</time>
      </trkpt>
      <trkpt lat="46.50314" lon="5.4138">
        <ele>585</ele>
        <time>2021-05-29T07:15:48.738Z</time>
      </trkpt>
      <trkpt lat="46.50313" lon="5.41379">
        <ele>585</ele>
        <time>2021-05-29T07:15:49.738Z</time>
      </trkpt>
      <trkpt lat="46.50312" lon="5.41377">
        <ele>586</ele>
        <time>2021-05-29T07:15:50.738Z</time>
      </trkpt>
      <trkpt lat="46.50311" lon="5.41375">
        <ele>586</ele>
        <time>2021-05-29T07:15:51.738Z</time>
      </trkpt>
      <trkpt lat="46.50309" lon="5.41373">
        <ele>586</ele>
        <time>2021-05-29T07:15:52.738Z</time>
      </trkpt>
      <trkpt lat="46.50308" lon="5.41372">
        <ele>585</ele>
        <time>2021-05-29T07:15:53.737Z</time>
      </trkpt>
      <trkpt lat="46.50307" lon="5.4137">
        <ele>585</ele>
        <time>2021-05-29T07:15:54.738Z</time>
      </trkpt>
      <trkpt lat="46.50305" lon="5.41368">
        <ele>585</ele>
        <time>2021-05-29T07:15:55.738Z</time>
      </trkpt>
      <trkpt lat="46.50304" lon="5.41366">
        <ele>585</ele>
        <time>2021-05-29T07:15:56.737Z</time>
      </trkpt>
      <trkpt lat="46.50302" lon="5.41363">
        <ele>586</ele>
        <time>2021-05-29T07:15:57.738Z</time>
      </trkpt>
      <trkpt lat="46.503" lon="5.41362">
        <ele>586</ele>
        <time>2021-05-29T07:15:58.738Z</time>
      </trkpt>
      <trkpt lat="46.50299" lon="5.4136">
        <ele>586</ele>
        <time>2021-05-29T07:15:59.737Z</time>
      </trkpt>
      <trkpt lat="46.50297" lon="5.41359">
        <ele>586</ele>
        <time>2021-05-29T07:16:00.738Z</time>
      </trkpt>
      <trkpt lat="46.50296" lon="5.41358">
        <ele>586</ele>
        <time>2021-05-29T07:16:01.737Z</time>
      </trkpt>
      <trkpt lat="46.50294" lon="5.41357">
        <ele>586</ele>
        <time>2021-05-29T07:16:02.738Z</time>
      </trkpt>
      <trkpt lat="46.50292" lon="5.41355">
        <ele>586</ele>
        <time>2021-05-29T07:16:03.738Z</time>
      </trkpt>
      <trkpt lat="46.5029" lon="5.41352">
        <ele>586</ele>
        <time>2021-05-29T07:16:04.738Z</time>
      </trkpt>
      <trkpt lat="46.50288" lon="5.41351">
        <ele>587</ele>
        <time>2021-05-29T07:16:05.738Z</time>
      </trkpt>
      <trkpt lat="46.50287" lon="5.41349">
        <ele>587</ele>
        <time>2021-05-29T07:16:06.738Z</time>
      </trkpt>
      <trkpt lat="46.50286" lon="5.41347">
        <ele>587</ele>
        <time>2021-05-29T07:16:07.737Z</time>
      </trkpt>
      <trkpt lat="46.50285" lon="5.41346">
        <ele>587</ele>
        <time>2021-05-29T07:16:08.738Z</time>
      </trkpt>
      <trkpt lat="46.50284" lon="5.41344">
        <ele>587</ele>
        <time>2021-05-29T07:16:09.738Z</time>
      </trkpt>
      <trkpt lat="46.50284" lon="5.41344">
        <ele>587</ele>
        <time>2021-05-29T07:16:10.738Z</time>
      </trkpt>
      <trkpt lat="46.50284" lon="5.41344">
        <ele>587</ele>
        <time>2021-05-29T07:16:11.737Z</time>
      </trkpt>
      <trkpt lat="46.50284" lon="5.41344">
        <ele>587</ele>
        <time>2021-05-29T07:16:12.738Z</time>
      </trkpt>
      <trkpt lat="46.50285" lon="5.41345">
        <ele>587</ele>
        <time>2021-05-29T07:16:13.738Z</time>
      </trkpt>
      <trkpt lat="46.50286" lon="5.41345">
        <ele>587</ele>
        <time>2021-05-29T07:16:14.737Z</time>
      </trkpt>
      <trkpt lat="46.50288" lon="5.41346">
        <ele>587</ele>
        <time>2021-05-29T07:16:15.737Z</time>
      </trkpt>
      <trkpt lat="46.50289" lon="5.41348">
        <ele>587</ele>
        <time>2021-05-29T07:16:16.737Z</time>
      </trkpt>
      <trkpt lat="46.50292" lon="5.41349">
        <ele>586</ele>
        <time>2021-05-29T07:16:17.738Z</time>
      </trkpt>
      <trkpt lat="46.50294" lon="5.41351">
        <ele>586</ele>
        <time>2021-05-29T07:16:18.738Z</time>
      </trkpt>
      <trkpt lat="46.50296" lon="5.41352">
        <ele>586</ele>
        <time>2021-05-29T07:16:19.738Z</time>
      </trkpt>
      <trkpt lat="46.50298" lon="5.41353">
        <ele>586</ele>
        <time>2021-05-29T07:16:20.738Z</time>
      </trkpt>
      <trkpt lat="46.503" lon="5.41354">
        <ele>586</ele>
        <time>2021-05-29T07:16:21.737Z</time>
      </trkpt>
      <trkpt lat="46.50302" lon="5.41356">
        <ele>585</ele>
        <time>2021-05-29T07:16:22.737Z</time>
      </trkpt>
      <trkpt lat="46.50303" lon="5.41358">
        <ele>585</ele>
        <time>2021-05-29T07:16:23.738Z</time>
      </trkpt>
      <trkpt lat="46.50305" lon="5.41361">
        <ele>585</ele>
        <time>2021-05-29T07:16:24.738Z</time>
      </trkpt>
      <trkpt lat="46.50305" lon="5.41364">
        <ele>585</ele>
        <time>2021-05-29T07:16:25.738Z</time>
      </trkpt>
      <trkpt lat="46.50307" lon="5.41367">
        <ele>585</ele>
        <time>2021-05-29T07:16:26.737Z</time>
      </trkpt>
      <trkpt lat="46.50308" lon="5.41369">
        <ele>584</ele>
        <time>2021-05-29T07:16:27.738Z</time>
      </trkpt>
      <trkpt lat="46.5031" lon="5.41371">
        <ele>584</ele>
        <time>2021-05-29T07:16:28.738Z</time>
      </trkpt>
      <trkpt lat="46.50312" lon="5.41373">
        <ele>584</ele>
        <time>2021-05-29T07:16:29.737Z</time>
      </trkpt>
      <trkpt lat="46.50313" lon="5.41375">
        <ele>584</ele>
        <time>2021-05-29T07:16:30.738Z</time>
      </trkpt>
      <trkpt lat="46.50315" lon="5.41377">
        <ele>584</ele>
        <time>2021-05-29T07:16:31.738Z</time>
      </trkpt>
      <trkpt lat="46.50317" lon="5.4138">
        <ele>584</ele>
        <time>2021-05-29T07:16:32.738Z</time>
      </trkpt>
      <trkpt lat="46.50319" lon="5.41382">
        <ele>583</ele>
        <time>2021-05-29T07:16:33.738Z</time>
      </trkpt>
      <trkpt lat="46.5032" lon="5.41384">
        <ele>583</ele>
        <time>2021-05-29T07:16:34.737Z</time>
      </trkpt>
      <trkpt lat="46.50322" lon="5.41387">
        <ele>583</ele>
        <time>2021-05-29T07:16:35.738Z</time>
      </trkpt>
      <trkpt lat="46.50324" lon="5.4139">
        <ele>584</ele>
        <time>2021-05-29T07:16:36.738Z</time>
      </trkpt>
      <trkpt lat="46.50325" lon="5.41392">
        <ele>584</ele>
        <time>2021-05-29T07:16:37.738Z</time>
      </trkpt>
      <trkpt lat="46.50326" lon="5.41395">
        <ele>584</ele>
        <time>2021-05-29T07:16:38.738Z</time>
      </trkpt>
      <trkpt lat="46.50326" lon="5.41398">
        <ele>584</ele>
        <time>2021-05-29T07:16:39.738Z</time>
      </trkpt>
      <trkpt lat="46.50327" lon="5.414">
        <ele>584</ele>
        <time>2021-05-29T07:16:40.738Z</time>
      </trkpt>
      <trkpt lat="46.50326" lon="5.41404">
        <ele>584</ele>
        <time>2021-05-29T07:16:41.738Z</time>
      </trkpt>
      <trkpt lat="46.50326" lon="5.41407">
        <ele>584</ele>
        <time>2021-05-29T07:16:42.738Z</time>
      </trkpt>
      <trkpt lat="46.50326" lon="5.41409">
        <ele>584</ele>
        <time>2021-05-29T07:16:43.738Z</time>
      </trkpt>
      <trkpt lat="46.50327" lon="5.41412">
        <ele>584</ele>
        <time>2021-05-29T07:16:44.738Z</time>
      </trkpt>
      <trkpt lat="46.50328" lon="5.41413">
        <ele>584</ele>
        <time>2021-05-29T07:16:45.738Z</time>
      </trkpt>
      <trkpt lat="46.50327" lon="5.41415">
        <ele>584</ele>
        <time>2021-05-29T07:16:46.738Z</time>
      </trkpt>
      <trkpt lat="46.50328" lon="5.41417">
        <ele>584</ele>
        <time>2021-05-29T07:16:47.738Z</time>
      </trkpt>
      <trkpt lat="46.50329" lon="5.41418">
        <ele>584</ele>
        <time>2021-05-29T07:16:48.738Z</time>
      </trkpt>
      <trkpt lat="46.5033" lon="5.4142">
        <ele>584</ele>
        <time>2021-05-29T07:16:49.738Z</time>
      </trkpt>
      <trkpt lat="46.50331" lon="5.41421">
        <ele>583</ele>
        <time>2021-05-29T07:16:50.737Z</time>
      </trkpt>
      <trkpt lat="46.50333" lon="5.41422">
        <ele>583</ele>
        <time>2021-05-29T07:16:51.738Z</time>
      </trkpt>
      <trkpt lat="46.50334" lon="5.41423">
        <ele>584</ele>
        <time>2021-05-29T07:16:52.738Z</time>
      </trkpt>
      <trkpt lat="46.50335" lon="5.41425">
        <ele>584</ele>
        <time>2021-05-29T07:16:53.738Z</time>
      </trkpt>
      <trkpt lat="46.50336" lon="5.41426">
        <ele>583</ele>
        <time>2021-05-29T07:16:54.738Z</time>
      </trkpt>
      <trkpt lat="46.50337" lon="5.41427">
        <ele>583</ele>
        <time>2021-05-29T07:16:55.737Z</time>
      </trkpt>
      <trkpt lat="46.50339" lon="5.41429">
        <ele>583</ele>
        <time>2021-05-29T07:16:56.738Z</time>
      </trkpt>
      <trkpt lat="46.50341" lon="5.4143">
        <ele>583</ele>
        <time>2021-05-29T07:16:57.738Z</time>
      </trkpt>
      <trkpt lat="46.50342" lon="5.41432">
        <ele>583</ele>
        <time>2021-05-29T07:16:58.737Z</time>
      </trkpt>
      <trkpt lat="46.50343" lon="5.41433">
        <ele>583</ele>
        <time>2021-05-29T07:16:59.737Z</time>
      </trkpt>
      <trkpt lat="46.50345" lon="5.41434">
        <ele>583</ele>
        <time>2021-05-29T07:17:00.737Z</time>
      </trkpt>
      <trkpt lat="46.50345" lon="5.41435">
        <ele>583</ele>
        <time>2021-05-29T07:17:01.737Z</time>
      </trkpt>
      <trkpt lat="46.50347" lon="5.41437">
        <ele>584</ele>
        <time>2021-05-29T07:17:02.738Z</time>
      </trkpt>
      <trkpt lat="46.50348" lon="5.41438">
        <ele>584</ele>
        <time>2021-05-29T07:17:03.738Z</time>
      </trkpt>
      <trkpt lat="46.50349" lon="5.41439">
        <ele>584</ele>
        <time>2021-05-29T07:17:04.738Z</time>
      </trkpt>
      <trkpt lat="46.5035" lon="5.41441">
        <ele>585</ele>
        <time>2021-05-29T07:17:05.738Z</time>
      </trkpt>
      <trkpt lat="46.5035" lon="5.41444">
        <ele>584</ele>
        <time>2021-05-29T07:17:06.738Z</time>
      </trkpt>
      <trkpt lat="46.50351" lon="5.41445">
        <ele>584</ele>
        <time>2021-05-29T07:17:07.738Z</time>
      </trkpt>
      <trkpt lat="46.50352" lon="5.41446">
        <ele>584</ele>
        <time>2021-05-29T07:17:08.737Z</time>
      </trkpt>
      <trkpt lat="46.50354" lon="5.41447">
        <ele>583</ele>
        <time>2021-05-29T07:17:09.738Z</time>
      </trkpt>
      <trkpt lat="46.50355" lon="5.41448">
        <ele>583</ele>
        <time>2021-05-29T07:17:10.737Z</time>
      </trkpt>
      <trkpt lat="46.50357" lon="5.41449">
        <ele>583</ele>
        <time>2021-05-29T07:17:11.738Z</time>
      </trkpt>
      <trkpt lat="46.50358" lon="5.4145">
        <ele>583</ele>
        <time>2021-05-29T07:17:12.737Z</time>
      </trkpt>
      <trkpt lat="46.50358" lon="5.41451">
        <ele>583</ele>
        <time>2021-05-29T07:17:13.738Z</time>
      </trkpt>
      <trkpt lat="46.50359" lon="5.41453">
        <ele>583</ele>
        <time>2021-05-29T07:17:14.738Z</time>
      </trkpt>
      <trkpt lat="46.5036" lon="5.41454">
        <ele>583</ele>
        <time>2021-05-29T07:17:15.738Z</time>
      </trkpt>
      <trkpt lat="46.5036" lon="5.41456">
        <ele>583</ele>
        <time>2021-05-29T07:17:16.737Z</time>
      </trkpt>
      <trkpt lat="46.50361" lon="5.41457">
        <ele>583</ele>
        <time>2021-05-29T07:17:17.737Z</time>
      </trkpt>
      <trkpt lat="46.50363" lon="5.41459">
        <ele>584</ele>
        <time>2021-05-29T07:17:18.738Z</time>
      </trkpt>
      <trkpt lat="46.50364" lon="5.4146">
        <ele>584</ele>
        <time>2021-05-29T07:17:19.738Z</time>
      </trkpt>
      <trkpt lat="46.50366" lon="5.41462">
        <ele>584</ele>
        <time>2021-05-29T07:17:20.738Z</time>
      </trkpt>
      <trkpt lat="46.50367" lon="5.41463">
        <ele>585</ele>
        <time>2021-05-29T07:17:21.737Z</time>
      </trkpt>
      <trkpt lat="46.50368" lon="5.41465">
        <ele>585</ele>
        <time>2021-05-29T07:17:22.737Z</time>
      </trkpt>
      <trkpt lat="46.50369" lon="5.41466">
        <ele>586</ele>
        <time>2021-05-29T07:17:23.738Z</time>
      </trkpt>
      <trkpt lat="46.5037" lon="5.41468">
        <ele>586</ele>
        <time>2021-05-29T07:17:24.738Z</time>
      </trkpt>
      <trkpt lat="46.50371" lon="5.4147">
        <ele>586</ele>
        <time>2021-05-29T07:17:25.737Z</time>
      </trkpt>
      <trkpt lat="46.50372" lon="5.41472">
        <ele>586</ele>
        <time>2021-05-29T07:17:26.737Z</time>
      </trkpt>
      <trkpt lat="46.50374" lon="5.41474">
        <ele>587</ele>
        <time>2021-05-29T07:17:27.737Z</time>
      </trkpt>
      <trkpt lat="46.50374" lon="5.41476">
        <ele>587</ele>
        <time>2021-05-29T07:17:28.737Z</time>
      </trkpt>
      <trkpt lat="46.50375" lon="5.41478">
        <ele>587</ele>
        <time>2021-05-29T07:17:29.738Z</time>
      </trkpt>
      <trkpt lat="46.50375" lon="5.4148">
        <ele>587</ele>
        <time>2021-05-29T07:17:30.738Z</time>
      </trkpt>
      <trkpt lat="46.50376" lon="5.41482">
        <ele>587</ele>
        <time>2021-05-29T07:17:31.738Z</time>
      </trkpt>
      <trkpt lat="46.50377" lon="5.41484">
        <ele>588</ele>
        <time>2021-05-29T07:17:32.737Z</time>
      </trkpt>
      <trkpt lat="46.50377" lon="5.41487">
        <ele>588</ele>
        <time>2021-05-29T07:17:33.738Z</time>
      </trkpt>
      <trkpt lat="46.50377" lon="5.41489">
        <ele>589</ele>
        <time>2021-05-29T07:17:34.738Z</time>
      </trkpt>
      <trkpt lat="46.50378" lon="5.41491">
        <ele>589</ele>
        <time>2021-05-29T07:17:35.738Z</time>
      </trkpt>
      <trkpt lat="46.50379" lon="5.41493">
        <ele>590</ele>
        <time>2021-05-29T07:17:36.738Z</time>
      </trkpt>
      <trkpt lat="46.50379" lon="5.41495">
        <ele>590</ele>
        <time>2021-05-29T07:17:37.738Z</time>
      </trkpt>
      <trkpt lat="46.50379" lon="5.41497">
        <ele>591</ele>
        <time>2021-05-29T07:17:38.738Z</time>
      </trkpt>
      <trkpt lat="46.50379" lon="5.415">
        <ele>591</ele>
        <time>2021-05-29T07:17:39.738Z</time>
      </trkpt>
      <trkpt lat="46.50379" lon="5.41503">
        <ele>592</ele>
        <time>2021-05-29T07:17:40.738Z</time>
      </trkpt>
      <trkpt lat="46.5038" lon="5.41505">
        <ele>592</ele>
        <time>2021-05-29T07:17:41.738Z</time>
      </trkpt>
      <trkpt lat="46.5038" lon="5.41508">
        <ele>592</ele>
        <time>2021-05-29T07:17:42.738Z</time>
      </trkpt>
      <trkpt lat="46.5038" lon="5.41511">
        <ele>592</ele>
        <time>2021-05-29T07:17:43.738Z</time>
      </trkpt>
      <trkpt lat="46.5038" lon="5.41514">
        <ele>592</ele>
        <time>2021-05-29T07:17:44.737Z</time>
      </trkpt>
      <trkpt lat="46.50379" lon="5.41517">
        <ele>592</ele>
        <time>2021-05-29T07:17:45.738Z</time>
      </trkpt>
      <trkpt lat="46.50378" lon="5.4152">
        <ele>592</ele>
        <time>2021-05-29T07:17:46.738Z</time>
      </trkpt>
      <trkpt lat="46.50376" lon="5.41522">
        <ele>593</ele>
        <time>2021-05-29T07:17:47.738Z</time>
      </trkpt>
      <trkpt lat="46.50376" lon="5.41525">
        <ele>593</ele>
        <time>2021-05-29T07:17:48.737Z</time>
      </trkpt>
      <trkpt lat="46.50374" lon="5.41527">
        <ele>594</ele>
        <time>2021-05-29T07:17:49.738Z</time>
      </trkpt>
      <trkpt lat="46.50373" lon="5.4153">
        <ele>595</ele>
        <time>2021-05-29T07:17:50.738Z</time>
      </trkpt>
      <trkpt lat="46.50372" lon="5.41532">
        <ele>595</ele>
        <time>2021-05-29T07:17:51.737Z</time>
      </trkpt>
      <trkpt lat="46.50371" lon="5.41534">
        <ele>596</ele>
        <time>2021-05-29T07:17:52.738Z</time>
      </trkpt>
      <trkpt lat="46.5037" lon="5.41537">
        <ele>597</ele>
        <time>2021-05-29T07:17:53.738Z</time>
      </trkpt>
      <trkpt lat="46.50369" lon="5.4154">
        <ele>599</ele>
        <time>2021-05-29T07:17:54.738Z</time>
      </trkpt>
      <trkpt lat="46.50367" lon="5.41542">
        <ele>599</ele>
        <time>2021-05-29T07:17:55.738Z</time>
      </trkpt>
      <trkpt lat="46.50366" lon="5.41543">
        <ele>600</ele>
        <time>2021-05-29T07:17:56.738Z</time>
      </trkpt>
      <trkpt lat="46.50363" lon="5.41544">
        <ele>601</ele>
        <time>2021-05-29T07:17:57.737Z</time>
      </trkpt>
      <trkpt lat="46.50362" lon="5.41544">
        <ele>601</ele>
        <time>2021-05-29T07:17:58.738Z</time>
      </trkpt>
      <trkpt lat="46.50361" lon="5.41545">
        <ele>601</ele>
        <time>2021-05-29T07:17:59.738Z</time>
      </trkpt>
      <trkpt lat="46.50361" lon="5.41546">
        <ele>601</ele>
        <time>2021-05-29T07:18:00.737Z</time>
      </trkpt>
      <trkpt lat="46.50361" lon="5.41547">
        <ele>601</ele>
        <time>2021-05-29T07:18:01.738Z</time>
      </trkpt>
      <trkpt lat="46.50361" lon="5.41548">
        <ele>601</ele>
        <time>2021-05-29T07:18:02.738Z</time>
      </trkpt>
      <trkpt lat="46.50361" lon="5.4155">
        <ele>600</ele>
        <time>2021-05-29T07:18:03.738Z</time>
      </trkpt>
      <trkpt lat="46.50362" lon="5.41552">
        <ele>600</ele>
        <time>2021-05-29T07:18:04.737Z</time>
      </trkpt>
      <trkpt lat="46.50363" lon="5.41553">
        <ele>599</ele>
        <time>2021-05-29T07:18:05.737Z</time>
      </trkpt>
      <trkpt lat="46.50364" lon="5.41555">
        <ele>599</ele>
        <time>2021-05-29T07:18:06.738Z</time>
      </trkpt>
      <trkpt lat="46.50365" lon="5.41557">
        <ele>599</ele>
        <time>2021-05-29T07:18:07.738Z</time>
      </trkpt>
      <trkpt lat="46.50367" lon="5.41559">
        <ele>599</ele>
        <time>2021-05-29T07:18:08.738Z</time>
      </trkpt>
      <trkpt lat="46.50369" lon="5.4156">
        <ele>599</ele>
        <time>2021-05-29T07:18:09.738Z</time>
      </trkpt>
      <trkpt lat="46.50371" lon="5.41562">
        <ele>599</ele>
        <time>2021-05-29T07:18:10.737Z</time>
      </trkpt>
      <trkpt lat="46.50373" lon="5.41563">
        <ele>598</ele>
        <time>2021-05-29T07:18:11.738Z</time>
      </trkpt>
      <trkpt lat="46.50376" lon="5.41565">
        <ele>598</ele>
        <time>2021-05-29T07:18:12.738Z</time>
      </trkpt>
      <trkpt lat="46.50377" lon="5.41568">
        <ele>597</ele>
        <time>2021-05-29T07:18:13.738Z</time>
      </trkpt>
      <trkpt lat="46.50379" lon="5.4157">
        <ele>596</ele>
        <time>2021-05-29T07:18:14.738Z</time>
      </trkpt>
      <trkpt lat="46.50381" lon="5.41572">
        <ele>596</ele>
        <time>2021-05-29T07:18:15.737Z</time>
      </trkpt>
      <trkpt lat="46.50383" lon="5.41574">
        <ele>595</ele>
        <time>2021-05-29T07:18:16.738Z</time>
      </trkpt>
      <trkpt lat="46.50385" lon="5.41575">
        <ele>595</ele>
        <time>2021-05-29T07:18:17.738Z</time>
      </trkpt>
      <trkpt lat="46.50387" lon="5.41577">
        <ele>595</ele>
        <time>2021-05-29T07:18:18.738Z</time>
      </trkpt>
      <trkpt lat="46.50389" lon="5.41578">
        <ele>595</ele>
        <time>2021-05-29T07:18:19.737Z</time>
      </trkpt>
      <trkpt lat="46.5039" lon="5.41579">
        <ele>594</ele>
        <time>2021-05-29T07:18:20.738Z</time>
      </trkpt>
      <trkpt lat="46.50392" lon="5.4158">
        <ele>594</ele>
        <time>2021-05-29T07:18:21.737Z</time>
      </trkpt>
      <trkpt lat="46.50395" lon="5.41581">
        <ele>594</ele>
        <time>2021-05-29T07:18:22.738Z</time>
      </trkpt>
      <trkpt lat="46.50398" lon="5.41583">
        <ele>594</ele>
        <time>2021-05-29T07:18:23.738Z</time>
      </trkpt>
      <trkpt lat="46.504" lon="5.41584">
        <ele>594</ele>
        <time>2021-05-29T07:18:24.738Z</time>
      </trkpt>
      <trkpt lat="46.50403" lon="5.41585">
        <ele>594</ele>
        <time>2021-05-29T07:18:25.738Z</time>
      </trkpt>
      <trkpt lat="46.50406" lon="5.41586">
        <ele>594</ele>
        <time>2021-05-29T07:18:26.738Z</time>
      </trkpt>
      <trkpt lat="46.50408" lon="5.41587">
        <ele>595</ele>
        <time>2021-05-29T07:18:27.737Z</time>
      </trkpt>
      <trkpt lat="46.50411" lon="5.41588">
        <ele>595</ele>
        <time>2021-05-29T07:18:28.738Z</time>
      </trkpt>
      <trkpt lat="46.50414" lon="5.41589">
        <ele>594</ele>
        <time>2021-05-29T07:18:29.737Z</time>
      </trkpt>
      <trkpt lat="46.50416" lon="5.41591">
        <ele>594</ele>
        <time>2021-05-29T07:18:30.737Z</time>
      </trkpt>
      <trkpt lat="46.50419" lon="5.41592">
        <ele>593</ele>
        <time>2021-05-29T07:18:31.737Z</time>
      </trkpt>
      <trkpt lat="46.50423" lon="5.41594">
        <ele>593</ele>
        <time>2021-05-29T07:18:32.738Z</time>
      </trkpt>
      <trkpt lat="46.50426" lon="5.41595">
        <ele>592</ele>
        <time>2021-05-29T07:18:33.738Z</time>
      </trkpt>
      <trkpt lat="46.50429" lon="5.41597">
        <ele>591</ele>
        <time>2021-05-29T07:18:34.738Z</time>
      </trkpt>
      <trkpt lat="46.50432" lon="5.41598">
        <ele>591</ele>
        <time>2021-05-29T07:18:35.738Z</time>
      </trkpt>
      <trkpt lat="46.50435" lon="5.41599">
        <ele>591</ele>
        <time>2021-05-29T07:18:36.738Z</time>
      </trkpt>
      <trkpt lat="46.50438" lon="5.416">
        <ele>591</ele>
        <time>2021-05-29T07:18:37.738Z</time>
      </trkpt>
      <trkpt lat="46.50441" lon="5.41601">
        <ele>590</ele>
        <time>2021-05-29T07:18:38.738Z</time>
      </trkpt>
      <trkpt lat="46.50443" lon="5.41602">
        <ele>590</ele>
        <time>2021-05-29T07:18:39.738Z</time>
      </trkpt>
      <trkpt lat="46.50447" lon="5.41604">
        <ele>590</ele>
        <time>2021-05-29T07:18:40.738Z</time>
      </trkpt>
      <trkpt lat="46.50449" lon="5.41605">
        <ele>590</ele>
        <time>2021-05-29T07:18:41.738Z</time>
      </trkpt>
      <trkpt lat="46.50452" lon="5.41607">
        <ele>590</ele>
        <time>2021-05-29T07:18:42.738Z</time>
      </trkpt>
      <trkpt lat="46.50454" lon="5.41608">
        <ele>589</ele>
        <time>2021-05-29T07:18:43.737Z</time>
      </trkpt>
      <trkpt lat="46.50457" lon="5.4161">
        <ele>589</ele>
        <time>2021-05-29T07:18:44.738Z</time>
      </trkpt>
      <trkpt lat="46.50459" lon="5.41611">
        <ele>589</ele>
        <time>2021-05-29T07:18:45.738Z</time>
      </trkpt>
      <trkpt lat="46.50461" lon="5.41613">
        <ele>588</ele>
        <time>2021-05-29T07:18:46.738Z</time>
      </trkpt>
      <trkpt lat="46.50463" lon="5.41615">
        <ele>588</ele>
        <time>2021-05-29T07:18:47.738Z</time>
      </trkpt>
      <trkpt lat="46.50466" lon="5.41617">
        <ele>587</ele>
        <time>2021-05-29T07:18:48.738Z</time>
      </trkpt>
      <trkpt lat="46.50468" lon="5.41619">
        <ele>586</ele>
        <time>2021-05-29T07:18:49.738Z</time>
      </trkpt>
      <trkpt lat="46.5047" lon="5.41621">
        <ele>585</ele>
        <time>2021-05-29T07:18:50.737Z</time>
      </trkpt>
      <trkpt lat="46.50472" lon="5.41623">
        <ele>584</ele>
        <time>2021-05-29T07:18:51.737Z</time>
      </trkpt>
      <trkpt lat="46.50474" lon="5.41625">
        <ele>584</ele>
        <time>2021-05-29T07:18:52.737Z</time>
      </trkpt>
      <trkpt lat="46.50476" lon="5.41627">
        <ele>583</ele>
        <time>2021-05-29T07:18:53.738Z</time>
      </trkpt>
      <trkpt lat="46.50478" lon="5.41629">
        <ele>583</ele>
        <time>2021-05-29T07:18:54.738Z</time>
      </trkpt>
      <trkpt lat="46.5048" lon="5.41631">
        <ele>582</ele>
        <time>2021-05-29T07:18:55.738Z</time>
      </trkpt>
      <trkpt lat="46.50482" lon="5.41634">
        <ele>582</ele>
        <time>2021-05-29T07:18:56.738Z</time>
      </trkpt>
      <trkpt lat="46.50485" lon="5.41636">
        <ele>582</ele>
        <time>2021-05-29T07:18:57.738Z</time>
      </trkpt>
      <trkpt lat="46.50487" lon="5.41639">
        <ele>582</ele>
        <time>2021-05-29T07:18:58.737Z</time>
      </trkpt>
      <trkpt lat="46.50489" lon="5.41642">
        <ele>581</ele>
        <time>2021-05-29T07:18:59.738Z</time>
      </trkpt>
      <trkpt lat="46.50491" lon="5.41645">
        <ele>581</ele>
        <time>2021-05-29T07:19:00.738Z</time>
      </trkpt>
      <trkpt lat="46.50492" lon="5.41648">
        <ele>581</ele>
        <time>2021-05-29T07:19:01.738Z</time>
      </trkpt>
      <trkpt lat="46.50494" lon="5.41651">
        <ele>580</ele>
        <time>2021-05-29T07:19:02.737Z</time>
      </trkpt>
      <trkpt lat="46.50496" lon="5.41654">
        <ele>580</ele>
        <time>2021-05-29T07:19:03.738Z</time>
      </trkpt>
      <trkpt lat="46.50497" lon="5.41657">
        <ele>580</ele>
        <time>2021-05-29T07:19:04.738Z</time>
      </trkpt>
      <trkpt lat="46.50498" lon="5.4166">
        <ele>580</ele>
        <time>2021-05-29T07:19:05.738Z</time>
      </trkpt>
      <trkpt lat="46.505" lon="5.41663">
        <ele>580</ele>
        <time>2021-05-29T07:19:06.738Z</time>
      </trkpt>
      <trkpt lat="46.50501" lon="5.41666">
        <ele>579</ele>
        <time>2021-05-29T07:19:07.738Z</time>
      </trkpt>
      <trkpt lat="46.50503" lon="5.41669">
        <ele>579</ele>
        <time>2021-05-29T07:19:08.738Z</time>
      </trkpt>
      <trkpt lat="46.50505" lon="5.41672">
        <ele>579</ele>
        <time>2021-05-29T07:19:09.738Z</time>
      </trkpt>
      <trkpt lat="46.50506" lon="5.41675">
        <ele>579</ele>
        <time>2021-05-29T07:19:10.737Z</time>
      </trkpt>
      <trkpt lat="46.50508" lon="5.41678">
        <ele>579</ele>
        <time>2021-05-29T07:19:11.738Z</time>
      </trkpt>
      <trkpt lat="46.5051" lon="5.4168">
        <ele>578</ele>
        <time>2021-05-29T07:19:12.737Z</time>
      </trkpt>
      <trkpt lat="46.50512" lon="5.41683">
        <ele>578</ele>
        <time>2021-05-29T07:19:13.737Z</time>
      </trkpt>
      <trkpt lat="46.50513" lon="5.41686">
        <ele>577</ele>
        <time>2021-05-29T07:19:14.738Z</time>
      </trkpt>
      <trkpt lat="46.50515" lon="5.41688">
        <ele>577</ele>
        <time>2021-05-29T07:19:15.738Z</time>
      </trkpt>
      <trkpt lat="46.50517" lon="5.4169">
        <ele>577</ele>
        <time>2021-05-29T07:19:16.738Z</time>
      </trkpt>
      <trkpt lat="46.50519" lon="5.41692">
        <ele>576</ele>
        <time>2021-05-29T07:19:17.738Z</time>
      </trkpt>
      <trkpt lat="46.50521" lon="5.41694">
        <ele>576</ele>
        <time>2021-05-29T07:19:18.738Z</time>
      </trkpt>
      <trkpt lat="46.50523" lon="5.41696">
        <ele>576</ele>
        <time>2021-05-29T07:19:19.738Z</time>
      </trkpt>
      <trkpt lat="46.50525" lon="5.41698">
        <ele>576</ele>
        <time>2021-05-29T07:19:20.738Z</time>
      </trkpt>
      <trkpt lat="46.50526" lon="5.417">
        <ele>576</ele>
        <time>2021-05-29T07:19:21.738Z</time>
      </trkpt>
      <trkpt lat="46.50528" lon="5.41702">
        <ele>576</ele>
        <time>2021-05-29T07:19:22.738Z</time>
      </trkpt>
      <trkpt lat="46.5053" lon="5.41704">
        <ele>576</ele>
        <time>2021-05-29T07:19:23.738Z</time>
      </trkpt>
      <trkpt lat="46.50533" lon="5.41707">
        <ele>576</ele>
        <time>2021-05-29T07:19:24.738Z</time>
      </trkpt>
      <trkpt lat="46.50535" lon="5.41708">
        <ele>576</ele>
        <time>2021-05-29T07:19:25.738Z</time>
      </trkpt>
      <trkpt lat="46.50537" lon="5.4171">
        <ele>577</ele>
        <time>2021-05-29T07:19:26.738Z</time>
      </trkpt>
      <trkpt lat="46.50538" lon="5.41712">
        <ele>577</ele>
        <time>2021-05-29T07:19:27.738Z</time>
      </trkpt>
      <trkpt lat="46.5054" lon="5.41713">
        <ele>576</ele>
        <time>2021-05-29T07:19:28.738Z</time>
      </trkpt>
      <trkpt lat="46.50543" lon="5.41714">
        <ele>576</ele>
        <time>2021-05-29T07:19:29.738Z</time>
      </trkpt>
      <trkpt lat="46.50545" lon="5.41715">
        <ele>576</ele>
        <time>2021-05-29T07:19:30.738Z</time>
      </trkpt>
      <trkpt lat="46.50547" lon="5.41716">
        <ele>575</ele>
        <time>2021-05-29T07:19:31.738Z</time>
      </trkpt>
      <trkpt lat="46.5055" lon="5.41718">
        <ele>576</ele>
        <time>2021-05-29T07:19:32.738Z</time>
      </trkpt>
      <trkpt lat="46.50552" lon="5.41719">
        <ele>576</ele>
        <time>2021-05-29T07:19:33.738Z</time>
      </trkpt>
      <trkpt lat="46.50554" lon="5.41719">
        <ele>576</ele>
        <time>2021-05-29T07:19:34.738Z</time>
      </trkpt>
      <trkpt lat="46.50556" lon="5.4172">
        <ele>576</ele>
        <time>2021-05-29T07:19:35.738Z</time>
      </trkpt>
      <trkpt lat="46.50559" lon="5.41722">
        <ele>576</ele>
        <time>2021-05-29T07:19:36.737Z</time>
      </trkpt>
      <trkpt lat="46.50561" lon="5.41724">
        <ele>576</ele>
        <time>2021-05-29T07:19:37.738Z</time>
      </trkpt>
      <trkpt lat="46.50564" lon="5.41725">
        <ele>576</ele>
        <time>2021-05-29T07:19:38.738Z</time>
      </trkpt>
      <trkpt lat="46.50566" lon="5.41727">
        <ele>575</ele>
        <time>2021-05-29T07:19:39.738Z</time>
      </trkpt>
      <trkpt lat="46.50568" lon="5.41729">
        <ele>575</ele>
        <time>2021-05-29T07:19:40.738Z</time>
      </trkpt>
      <trkpt lat="46.5057" lon="5.4173">
        <ele>575</ele>
        <time>2021-05-29T07:19:41.737Z</time>
      </trkpt>
      <trkpt lat="46.50573" lon="5.41732">
        <ele>575</ele>
        <time>2021-05-29T07:19:42.738Z</time>
      </trkpt>
      <trkpt lat="46.50575" lon="5.41734">
        <ele>575</ele>
        <time>2021-05-29T07:19:43.738Z</time>
      </trkpt>
      <trkpt lat="46.50577" lon="5.41736">
        <ele>574</ele>
        <time>2021-05-29T07:19:44.738Z</time>
      </trkpt>
      <trkpt lat="46.50579" lon="5.41738">
        <ele>574</ele>
        <time>2021-05-29T07:19:45.738Z</time>
      </trkpt>
      <trkpt lat="46.50581" lon="5.4174">
        <ele>574</ele>
        <time>2021-05-29T07:19:46.737Z</time>
      </trkpt>
      <trkpt lat="46.50582" lon="5.41741">
        <ele>574</ele>
        <time>2021-05-29T07:19:47.738Z</time>
      </trkpt>
      <trkpt lat="46.50582" lon="5.41743">
        <ele>574</ele>
        <time>2021-05-29T07:19:48.738Z</time>
      </trkpt>
      <trkpt lat="46.50584" lon="5.41744">
        <ele>574</ele>
        <time>2021-05-29T07:19:49.737Z</time>
      </trkpt>
      <trkpt lat="46.50586" lon="5.41746">
        <ele>574</ele>
        <time>2021-05-29T07:19:50.738Z</time>
      </trkpt>
      <trkpt lat="46.50589" lon="5.41747">
        <ele>574</ele>
        <time>2021-05-29T07:19:51.738Z</time>
      </trkpt>
      <trkpt lat="46.50592" lon="5.41748">
        <ele>574</ele>
        <time>2021-05-29T07:19:52.737Z</time>
      </trkpt>
      <trkpt lat="46.50595" lon="5.4175">
        <ele>574</ele>
        <time>2021-05-29T07:19:53.738Z</time>
      </trkpt>
      <trkpt lat="46.50597" lon="5.41751">
        <ele>574</ele>
        <time>2021-05-29T07:19:54.738Z</time>
      </trkpt>
      <trkpt lat="46.50599" lon="5.41753">
        <ele>573</ele>
        <time>2021-05-29T07:19:55.738Z</time>
      </trkpt>
      <trkpt lat="46.50601" lon="5.41755">
        <ele>573</ele>
        <time>2021-05-29T07:19:56.738Z</time>
      </trkpt>
      <trkpt lat="46.50603" lon="5.41757">
        <ele>573</ele>
        <time>2021-05-29T07:19:57.737Z</time>
      </trkpt>
      <trkpt lat="46.50605" lon="5.41761">
        <ele>573</ele>
        <time>2021-05-29T07:19:58.738Z</time>
      </trkpt>
      <trkpt lat="46.50607" lon="5.41762">
        <ele>573</ele>
        <time>2021-05-29T07:19:59.738Z</time>
      </trkpt>
      <trkpt lat="46.50609" lon="5.41764">
        <ele>574</ele>
        <time>2021-05-29T07:20:00.738Z</time>
      </trkpt>
      <trkpt lat="46.50611" lon="5.41765">
        <ele>574</ele>
        <time>2021-05-29T07:20:01.737Z</time>
      </trkpt>
      <trkpt lat="46.50613" lon="5.41767">
        <ele>574</ele>
        <time>2021-05-29T07:20:02.737Z</time>
      </trkpt>
      <trkpt lat="46.50615" lon="5.41769">
        <ele>574</ele>
        <time>2021-05-29T07:20:03.738Z</time>
      </trkpt>
      <trkpt lat="46.50616" lon="5.4177">
        <ele>574</ele>
        <time>2021-05-29T07:20:04.738Z</time>
      </trkpt>
      <trkpt lat="46.50618" lon="5.41772">
        <ele>574</ele>
        <time>2021-05-29T07:20:05.738Z</time>
      </trkpt>
      <trkpt lat="46.50619" lon="5.41774">
        <ele>574</ele>
        <time>2021-05-29T07:20:06.738Z</time>
      </trkpt>
      <trkpt lat="46.50621" lon="5.41776">
        <ele>574</ele>
        <time>2021-05-29T07:20:07.738Z</time>
      </trkpt>
      <trkpt lat="46.50622" lon="5.41778">
        <ele>574</ele>
        <time>2021-05-29T07:20:08.738Z</time>
      </trkpt>
      <trkpt lat="46.50624" lon="5.4178">
        <ele>574</ele>
        <time>2021-05-29T07:20:09.738Z</time>
      </trkpt>
      <trkpt lat="46.50626" lon="5.41782">
        <ele>574</ele>
        <time>2021-05-29T07:20:10.738Z</time>
      </trkpt>
      <trkpt lat="46.50629" lon="5.41784">
        <ele>574</ele>
        <time>2021-05-29T07:20:11.738Z</time>
      </trkpt>
      <trkpt lat="46.50631" lon="5.41786">
        <ele>574</ele>
        <time>2021-05-29T07:20:12.738Z</time>
      </trkpt>
      <trkpt lat="46.50635" lon="5.41788">
        <ele>573</ele>
        <time>2021-05-29T07:20:13.737Z</time>
      </trkpt>
      <trkpt lat="46.50636" lon="5.4179">
        <ele>573</ele>
        <time>2021-05-29T07:20:14.738Z</time>
      </trkpt>
      <trkpt lat="46.50638" lon="5.41793">
        <ele>573</ele>
        <time>2021-05-29T07:20:15.738Z</time>
      </trkpt>
      <trkpt lat="46.50639" lon="5.41795">
        <ele>573</ele>
        <time>2021-05-29T07:20:16.738Z</time>
      </trkpt>
      <trkpt lat="46.5064" lon="5.41798">
        <ele>573</ele>
        <time>2021-05-29T07:20:17.738Z</time>
      </trkpt>
      <trkpt lat="46.50642" lon="5.418">
        <ele>573</ele>
        <time>2021-05-29T07:20:18.738Z</time>
      </trkpt>
      <trkpt lat="46.50643" lon="5.41803">
        <ele>573</ele>
        <time>2021-05-29T07:20:19.737Z</time>
      </trkpt>
      <trkpt lat="46.50645" lon="5.41806">
        <ele>572</ele>
        <time>2021-05-29T07:20:20.738Z</time>
      </trkpt>
      <trkpt lat="46.50646" lon="5.41809">
        <ele>572</ele>
        <time>2021-05-29T07:20:21.738Z</time>
      </trkpt>
      <trkpt lat="46.50648" lon="5.41811">
        <ele>571</ele>
        <time>2021-05-29T07:20:22.737Z</time>
      </trkpt>
      <trkpt lat="46.50649" lon="5.41814">
        <ele>571</ele>
        <time>2021-05-29T07:20:23.737Z</time>
      </trkpt>
      <trkpt lat="46.50651" lon="5.41816">
        <ele>570</ele>
        <time>2021-05-29T07:20:24.738Z</time>
      </trkpt>
      <trkpt lat="46.50654" lon="5.41819">
        <ele>570</ele>
        <time>2021-05-29T07:20:25.737Z</time>
      </trkpt>
      <trkpt lat="46.50656" lon="5.41822">
        <ele>570</ele>
        <time>2021-05-29T07:20:26.738Z</time>
      </trkpt>
      <trkpt lat="46.5066" lon="5.41824">
        <ele>570</ele>
        <time>2021-05-29T07:20:27.738Z</time>
      </trkpt>
      <trkpt lat="46.50663" lon="5.41827">
        <ele>570</ele>
        <time>2021-05-29T07:20:28.737Z</time>
      </trkpt>
      <trkpt lat="46.50665" lon="5.41829">
        <ele>570</ele>
        <time>2021-05-29T07:20:29.737Z</time>
      </trkpt>
      <trkpt lat="46.50668" lon="5.41831">
        <ele>570</ele>
        <time>2021-05-29T07:20:30.738Z</time>
      </trkpt>
      <trkpt lat="46.5067" lon="5.41834">
        <ele>570</ele>
        <time>2021-05-29T07:20:31.738Z</time>
      </trkpt>
      <trkpt lat="46.50673" lon="5.41837">
        <ele>570</ele>
        <time>2021-05-29T07:20:32.738Z</time>
      </trkpt>
      <trkpt lat="46.50675" lon="5.41839">
        <ele>571</ele>
        <time>2021-05-29T07:20:33.738Z</time>
      </trkpt>
      <trkpt lat="46.50678" lon="5.41842">
        <ele>571</ele>
        <time>2021-05-29T07:20:34.738Z</time>
      </trkpt>
      <trkpt lat="46.50681" lon="5.41843">
        <ele>571</ele>
        <time>2021-05-29T07:20:35.738Z</time>
      </trkpt>
      <trkpt lat="46.50683" lon="5.41845">
        <ele>570</ele>
        <time>2021-05-29T07:20:36.738Z</time>
      </trkpt>
      <trkpt lat="46.50685" lon="5.41847">
        <ele>570</ele>
        <time>2021-05-29T07:20:37.738Z</time>
      </trkpt>
      <trkpt lat="46.50688" lon="5.41849">
        <ele>570</ele>
        <time>2021-05-29T07:20:38.738Z</time>
      </trkpt>
      <trkpt lat="46.5069" lon="5.41851">
        <ele>570</ele>
        <time>2021-05-29T07:20:39.738Z</time>
      </trkpt>
      <trkpt lat="46.50693" lon="5.41852">
        <ele>570</ele>
        <time>2021-05-29T07:20:40.738Z</time>
      </trkpt>
      <trkpt lat="46.50695" lon="5.41854">
        <ele>570</ele>
        <time>2021-05-29T07:20:41.738Z</time>
      </trkpt>
      <trkpt lat="46.50698" lon="5.41855">
        <ele>570</ele>
        <time>2021-05-29T07:20:42.738Z</time>
      </trkpt>
      <trkpt lat="46.507" lon="5.41856">
        <ele>570</ele>
        <time>2021-05-29T07:20:43.738Z</time>
      </trkpt>
      <trkpt lat="46.50701" lon="5.41858">
        <ele>570</ele>
        <time>2021-05-29T07:20:44.737Z</time>
      </trkpt>
      <trkpt lat="46.50703" lon="5.4186">
        <ele>570</ele>
        <time>2021-05-29T07:20:45.738Z</time>
      </trkpt>
      <trkpt lat="46.50705" lon="5.41862">
        <ele>570</ele>
        <time>2021-05-29T07:20:46.738Z</time>
      </trkpt>
      <trkpt lat="46.50706" lon="5.41864">
        <ele>569</ele>
        <time>2021-05-29T07:20:47.738Z</time>
      </trkpt>
      <trkpt lat="46.50706" lon="5.41867">
        <ele>569</ele>
        <time>2021-05-29T07:20:48.738Z</time>
      </trkpt>
      <trkpt lat="46.50707" lon="5.41869">
        <ele>568</ele>
        <time>2021-05-29T07:20:49.738Z</time>
      </trkpt>
      <trkpt lat="46.50708" lon="5.41871">
        <ele>568</ele>
        <time>2021-05-29T07:20:50.737Z</time>
      </trkpt>
      <trkpt lat="46.5071" lon="5.41873">
        <ele>567</ele>
        <time>2021-05-29T07:20:51.738Z</time>
      </trkpt>
      <trkpt lat="46.50712" lon="5.41874">
        <ele>567</ele>
        <time>2021-05-29T07:20:52.738Z</time>
      </trkpt>
      <trkpt lat="46.50714" lon="5.41877">
        <ele>567</ele>
        <time>2021-05-29T07:20:53.737Z</time>
      </trkpt>
      <trkpt lat="46.50717" lon="5.41878">
        <ele>567</ele>
        <time>2021-05-29T07:20:54.738Z</time>
      </trkpt>
      <trkpt lat="46.50719" lon="5.41879">
        <ele>567</ele>
        <time>2021-05-29T07:20:55.738Z</time>
      </trkpt>
      <trkpt lat="46.50721" lon="5.4188">
        <ele>567</ele>
        <time>2021-05-29T07:20:56.737Z</time>
      </trkpt>
      <trkpt lat="46.50724" lon="5.41881">
        <ele>567</ele>
        <time>2021-05-29T07:20:57.738Z</time>
      </trkpt>
      <trkpt lat="46.50725" lon="5.41882">
        <ele>567</ele>
        <time>2021-05-29T07:20:58.738Z</time>
      </trkpt>
      <trkpt lat="46.50727" lon="5.41883">
        <ele>567</ele>
        <time>2021-05-29T07:20:59.737Z</time>
      </trkpt>
      <trkpt lat="46.5073" lon="5.41885">
        <ele>568</ele>
        <time>2021-05-29T07:21:00.738Z</time>
      </trkpt>
      <trkpt lat="46.50732" lon="5.41886">
        <ele>568</ele>
        <time>2021-05-29T07:21:01.738Z</time>
      </trkpt>
      <trkpt lat="46.50734" lon="5.41888">
        <ele>568</ele>
        <time>2021-05-29T07:21:02.737Z</time>
      </trkpt>
      <trkpt lat="46.50736" lon="5.4189">
        <ele>568</ele>
        <time>2021-05-29T07:21:03.737Z</time>
      </trkpt>
      <trkpt lat="46.50738" lon="5.41892">
        <ele>568</ele>
        <time>2021-05-29T07:21:04.738Z</time>
      </trkpt>
      <trkpt lat="46.5074" lon="5.41895">
        <ele>568</ele>
        <time>2021-05-29T07:21:05.738Z</time>
      </trkpt>
      <trkpt lat="46.50741" lon="5.41897">
        <ele>568</ele>
        <time>2021-05-29T07:21:06.738Z</time>
      </trkpt>
      <trkpt lat="46.50743" lon="5.41899">
        <ele>567</ele>
        <time>2021-05-29T07:21:07.738Z</time>
      </trkpt>
      <trkpt lat="46.50744" lon="5.41901">
        <ele>566</ele>
        <time>2021-05-29T07:21:08.738Z</time>
      </trkpt>
      <trkpt lat="46.50745" lon="5.41904">
        <ele>566</ele>
        <time>2021-05-29T07:21:09.738Z</time>
      </trkpt>
      <trkpt lat="46.50745" lon="5.41906">
        <ele>565</ele>
        <time>2021-05-29T07:21:10.738Z</time>
      </trkpt>
      <trkpt lat="46.50746" lon="5.41908">
        <ele>564</ele>
        <time>2021-05-29T07:21:11.737Z</time>
      </trkpt>
      <trkpt lat="46.50747" lon="5.4191">
        <ele>563</ele>
        <time>2021-05-29T07:21:12.738Z</time>
      </trkpt>
      <trkpt lat="46.50748" lon="5.41913">
        <ele>562</ele>
        <time>2021-05-29T07:21:13.738Z</time>
      </trkpt>
      <trkpt lat="46.50749" lon="5.41915">
        <ele>562</ele>
        <time>2021-05-29T07:21:14.738Z</time>
      </trkpt>
      <trkpt lat="46.50749" lon="5.41917">
        <ele>561</ele>
        <time>2021-05-29T07:21:15.738Z</time>
      </trkpt>
      <trkpt lat="46.5075" lon="5.41919">
        <ele>561</ele>
        <time>2021-05-29T07:21:16.737Z</time>
      </trkpt>
      <trkpt lat="46.50752" lon="5.41922">
        <ele>560</ele>
        <time>2021-05-29T07:21:17.737Z</time>
      </trkpt>
      <trkpt lat="46.50752" lon="5.41925">
        <ele>559</ele>
        <time>2021-05-29T07:21:18.737Z</time>
      </trkpt>
      <trkpt lat="46.50753" lon="5.41928">
        <ele>559</ele>
        <time>2021-05-29T07:21:19.738Z</time>
      </trkpt>
      <trkpt lat="46.50754" lon="5.41931">
        <ele>558</ele>
        <time>2021-05-29T07:21:20.737Z</time>
      </trkpt>
      <trkpt lat="46.50756" lon="5.41934">
        <ele>557</ele>
        <time>2021-05-29T07:21:21.737Z</time>
      </trkpt>
      <trkpt lat="46.50757" lon="5.41938">
        <ele>556</ele>
        <time>2021-05-29T07:21:22.737Z</time>
      </trkpt>
      <trkpt lat="46.50758" lon="5.41942">
        <ele>555</ele>
        <time>2021-05-29T07:21:23.738Z</time>
      </trkpt>
      <trkpt lat="46.50759" lon="5.41946">
        <ele>554</ele>
        <time>2021-05-29T07:21:24.737Z</time>
      </trkpt>
      <trkpt lat="46.50761" lon="5.4195">
        <ele>553</ele>
        <time>2021-05-29T07:21:25.738Z</time>
      </trkpt>
      <trkpt lat="46.50762" lon="5.41953">
        <ele>552</ele>
        <time>2021-05-29T07:21:26.738Z</time>
      </trkpt>
      <trkpt lat="46.50764" lon="5.41957">
        <ele>552</ele>
        <time>2021-05-29T07:21:27.737Z</time>
      </trkpt>
      <trkpt lat="46.50765" lon="5.4196">
        <ele>551</ele>
        <time>2021-05-29T07:21:28.738Z</time>
      </trkpt>
      <trkpt lat="46.50767" lon="5.41963">
        <ele>551</ele>
        <time>2021-05-29T07:21:29.738Z</time>
      </trkpt>
      <trkpt lat="46.50769" lon="5.41967">
        <ele>550</ele>
        <time>2021-05-29T07:21:30.738Z</time>
      </trkpt>
      <trkpt lat="46.5077" lon="5.41969">
        <ele>550</ele>
        <time>2021-05-29T07:21:31.738Z</time>
      </trkpt>
      <trkpt lat="46.50772" lon="5.41971">
        <ele>549</ele>
        <time>2021-05-29T07:21:32.737Z</time>
      </trkpt>
      <trkpt lat="46.50774" lon="5.41974">
        <ele>549</ele>
        <time>2021-05-29T07:21:33.738Z</time>
      </trkpt>
      <trkpt lat="46.50776" lon="5.41976">
        <ele>548</ele>
        <time>2021-05-29T07:21:34.737Z</time>
      </trkpt>
      <trkpt lat="46.50778" lon="5.41979">
        <ele>548</ele>
        <time>2021-05-29T07:21:35.738Z</time>
      </trkpt>
      <trkpt lat="46.50779" lon="5.41981">
        <ele>547</ele>
        <time>2021-05-29T07:21:36.737Z</time>
      </trkpt>
      <trkpt lat="46.50781" lon="5.41982">
        <ele>546</ele>
        <time>2021-05-29T07:21:37.738Z</time>
      </trkpt>
      <trkpt lat="46.50783" lon="5.41983">
        <ele>546</ele>
        <time>2021-05-29T07:21:38.738Z</time>
      </trkpt>
      <trkpt lat="46.50784" lon="5.41985">
        <ele>546</ele>
        <time>2021-05-29T07:21:39.738Z</time>
      </trkpt>
      <trkpt lat="46.50786" lon="5.41985">
        <ele>546</ele>
        <time>2021-05-29T07:21:40.738Z</time>
      </trkpt>
      <trkpt lat="46.50788" lon="5.41986">
        <ele>546</ele>
        <time>2021-05-29T07:21:41.738Z</time>
      </trkpt>
      <trkpt lat="46.50789" lon="5.41986">
        <ele>546</ele>
        <time>2021-05-29T07:21:42.738Z</time>
      </trkpt>
      <trkpt lat="46.50791" lon="5.41986">
        <ele>546</ele>
        <time>2021-05-29T07:21:43.738Z</time>
      </trkpt>
      <trkpt lat="46.50792" lon="5.41986">
        <ele>546</ele>
        <time>2021-05-29T07:21:44.738Z</time>
      </trkpt>
      <trkpt lat="46.50796" lon="5.41986">
        <ele>546</ele>
        <time>2021-05-29T07:21:45.738Z</time>
      </trkpt>
      <trkpt lat="46.50798" lon="5.41987">
        <ele>546</ele>
        <time>2021-05-29T07:21:46.738Z</time>
      </trkpt>
      <trkpt lat="46.508" lon="5.41986">
        <ele>547</ele>
        <time>2021-05-29T07:21:47.738Z</time>
      </trkpt>
      <trkpt lat="46.50802" lon="5.41987">
        <ele>547</ele>
        <time>2021-05-29T07:21:48.738Z</time>
      </trkpt>
      <trkpt lat="46.50805" lon="5.41987">
        <ele>547</ele>
        <time>2021-05-29T07:21:49.738Z</time>
      </trkpt>
      <trkpt lat="46.50807" lon="5.41988">
        <ele>548</ele>
        <time>2021-05-29T07:21:50.738Z</time>
      </trkpt>
      <trkpt lat="46.50808" lon="5.41989">
        <ele>548</ele>
        <time>2021-05-29T07:21:51.738Z</time>
      </trkpt>
      <trkpt lat="46.5081" lon="5.4199">
        <ele>547</ele>
        <time>2021-05-29T07:21:52.737Z</time>
      </trkpt>
      <trkpt lat="46.50812" lon="5.41991">
        <ele>547</ele>
        <time>2021-05-29T07:21:53.737Z</time>
      </trkpt>
      <trkpt lat="46.50814" lon="5.41992">
        <ele>547</ele>
        <time>2021-05-29T07:21:54.738Z</time>
      </trkpt>
      <trkpt lat="46.50816" lon="5.41992">
        <ele>547</ele>
        <time>2021-05-29T07:21:55.738Z</time>
      </trkpt>
      <trkpt lat="46.50818" lon="5.41992">
        <ele>547</ele>
        <time>2021-05-29T07:21:56.738Z</time>
      </trkpt>
      <trkpt lat="46.50822" lon="5.41992">
        <ele>546</ele>
        <time>2021-05-29T07:21:57.737Z</time>
      </trkpt>
      <trkpt lat="46.50824" lon="5.41991">
        <ele>546</ele>
        <time>2021-05-29T07:21:58.738Z</time>
      </trkpt>
      <trkpt lat="46.50827" lon="5.41992">
        <ele>546</ele>
        <time>2021-05-29T07:21:59.738Z</time>
      </trkpt>
      <trkpt lat="46.50829" lon="5.41991">
        <ele>546</ele>
        <time>2021-05-29T07:22:00.738Z</time>
      </trkpt>
      <trkpt lat="46.50831" lon="5.41991">
        <ele>546</ele>
        <time>2021-05-29T07:22:01.738Z</time>
      </trkpt>
      <trkpt lat="46.50832" lon="5.41991">
        <ele>546</ele>
        <time>2021-05-29T07:22:02.738Z</time>
      </trkpt>
      <trkpt lat="46.50833" lon="5.41991">
        <ele>546</ele>
        <time>2021-05-29T07:22:03.738Z</time>
      </trkpt>
      <trkpt lat="46.50835" lon="5.41991">
        <ele>546</ele>
        <time>2021-05-29T07:22:04.737Z</time>
      </trkpt>
      <trkpt lat="46.50838" lon="5.41991">
        <ele>545</ele>
        <time>2021-05-29T07:22:05.737Z</time>
      </trkpt>
      <trkpt lat="46.5084" lon="5.41991">
        <ele>545</ele>
        <time>2021-05-29T07:22:06.737Z</time>
      </trkpt>
      <trkpt lat="46.50843" lon="5.41992">
        <ele>545</ele>
        <time>2021-05-29T07:22:07.737Z</time>
      </trkpt>
      <trkpt lat="46.50847" lon="5.41992">
        <ele>545</ele>
        <time>2021-05-29T07:22:08.738Z</time>
      </trkpt>
      <trkpt lat="46.50849" lon="5.41993">
        <ele>545</ele>
        <time>2021-05-29T07:22:09.738Z</time>
      </trkpt>
      <trkpt lat="46.50851" lon="5.41994">
        <ele>544</ele>
        <time>2021-05-29T07:22:10.738Z</time>
      </trkpt>
      <trkpt lat="46.50854" lon="5.41995">
        <ele>544</ele>
        <time>2021-05-29T07:22:11.737Z</time>
      </trkpt>
      <trkpt lat="46.50856" lon="5.41995">
        <ele>543</ele>
        <time>2021-05-29T07:22:12.737Z</time>
      </trkpt>
      <trkpt lat="46.50858" lon="5.41996">
        <ele>543</ele>
        <time>2021-05-29T07:22:13.738Z</time>
      </trkpt>
      <trkpt lat="46.5086" lon="5.41996">
        <ele>543</ele>
        <time>2021-05-29T07:22:14.737Z</time>
      </trkpt>
      <trkpt lat="46.50861" lon="5.41996">
        <ele>542</ele>
        <time>2021-05-29T07:22:15.737Z</time>
      </trkpt>
      <trkpt lat="46.50863" lon="5.41997">
        <ele>542</ele>
        <time>2021-05-29T07:22:16.737Z</time>
      </trkpt>
      <trkpt lat="46.50865" lon="5.41997">
        <ele>541</ele>
        <time>2021-05-29T07:22:17.737Z</time>
      </trkpt>
      <trkpt lat="46.50867" lon="5.41997">
        <ele>540</ele>
        <time>2021-05-29T07:22:18.738Z</time>
      </trkpt>
      <trkpt lat="46.50869" lon="5.41998">
        <ele>540</ele>
        <time>2021-05-29T07:22:19.738Z</time>
      </trkpt>
      <trkpt lat="46.50872" lon="5.41999">
        <ele>539</ele>
        <time>2021-05-29T07:22:20.738Z</time>
      </trkpt>
      <trkpt lat="46.50874" lon="5.42">
        <ele>538</ele>
        <time>2021-05-29T07:22:21.737Z</time>
      </trkpt>
      <trkpt lat="46.50875" lon="5.42003">
        <ele>537</ele>
        <time>2021-05-29T07:22:22.738Z</time>
      </trkpt>
      <trkpt lat="46.50876" lon="5.42004">
        <ele>536</ele>
        <time>2021-05-29T07:22:23.737Z</time>
      </trkpt>
      <trkpt lat="46.50878" lon="5.42006">
        <ele>535</ele>
        <time>2021-05-29T07:22:24.738Z</time>
      </trkpt>
      <trkpt lat="46.50879" lon="5.42007">
        <ele>534</ele>
        <time>2021-05-29T07:22:25.738Z</time>
      </trkpt>
      <trkpt lat="46.5088" lon="5.42009">
        <ele>533</ele>
        <time>2021-05-29T07:22:26.738Z</time>
      </trkpt>
      <trkpt lat="46.50881" lon="5.42011">
        <ele>532</ele>
        <time>2021-05-29T07:22:27.738Z</time>
      </trkpt>
      <trkpt lat="46.50881" lon="5.42013">
        <ele>531</ele>
        <time>2021-05-29T07:22:28.738Z</time>
      </trkpt>
      <trkpt lat="46.50882" lon="5.42014">
        <ele>530</ele>
        <time>2021-05-29T07:22:29.738Z</time>
      </trkpt>
      <trkpt lat="46.50883" lon="5.42016">
        <ele>529</ele>
        <time>2021-05-29T07:22:30.738Z</time>
      </trkpt>
      <trkpt lat="46.50884" lon="5.42018">
        <ele>528</ele>
        <time>2021-05-29T07:22:31.738Z</time>
      </trkpt>
      <trkpt lat="46.50885" lon="5.42021">
        <ele>527</ele>
        <time>2021-05-29T07:22:32.738Z</time>
      </trkpt>
      <trkpt lat="46.50886" lon="5.42024">
        <ele>527</ele>
        <time>2021-05-29T07:22:33.738Z</time>
      </trkpt>
      <trkpt lat="46.50887" lon="5.42027">
        <ele>526</ele>
        <time>2021-05-29T07:22:34.738Z</time>
      </trkpt>
      <trkpt lat="46.50889" lon="5.4203">
        <ele>525</ele>
        <time>2021-05-29T07:22:35.738Z</time>
      </trkpt>
      <trkpt lat="46.50892" lon="5.42034">
        <ele>524</ele>
        <time>2021-05-29T07:22:36.738Z</time>
      </trkpt>
      <trkpt lat="46.50893" lon="5.42036">
        <ele>523</ele>
        <time>2021-05-29T07:22:37.738Z</time>
      </trkpt>
      <trkpt lat="46.50895" lon="5.42039">
        <ele>522</ele>
        <time>2021-05-29T07:22:38.738Z</time>
      </trkpt>
      <trkpt lat="46.50897" lon="5.42042">
        <ele>522</ele>
        <time>2021-05-29T07:22:39.738Z</time>
      </trkpt>
      <trkpt lat="46.50899" lon="5.42045">
        <ele>521</ele>
        <time>2021-05-29T07:22:40.738Z</time>
      </trkpt>
      <trkpt lat="46.50901" lon="5.42048">
        <ele>521</ele>
        <time>2021-05-29T07:22:41.738Z</time>
      </trkpt>
      <trkpt lat="46.50903" lon="5.42052">
        <ele>521</ele>
        <time>2021-05-29T07:22:42.738Z</time>
      </trkpt>
      <trkpt lat="46.50905" lon="5.42055">
        <ele>520</ele>
        <time>2021-05-29T07:22:43.738Z</time>
      </trkpt>
      <trkpt lat="46.50907" lon="5.42058">
        <ele>520</ele>
        <time>2021-05-29T07:22:44.737Z</time>
      </trkpt>
      <trkpt lat="46.50909" lon="5.42061">
        <ele>520</ele>
        <time>2021-05-29T07:22:45.738Z</time>
      </trkpt>
      <trkpt lat="46.50911" lon="5.42064">
        <ele>520</ele>
        <time>2021-05-29T07:22:46.738Z</time>
      </trkpt>
      <trkpt lat="46.50913" lon="5.42067">
        <ele>520</ele>
        <time>2021-05-29T07:22:47.737Z</time>
      </trkpt>
      <trkpt lat="46.50914" lon="5.42069">
        <ele>519</ele>
        <time>2021-05-29T07:22:48.738Z</time>
      </trkpt>
      <trkpt lat="46.50917" lon="5.42072">
        <ele>519</ele>
        <time>2021-05-29T07:22:49.738Z</time>
      </trkpt>
      <trkpt lat="46.50919" lon="5.42074">
        <ele>518</ele>
        <time>2021-05-29T07:22:50.738Z</time>
      </trkpt>
      <trkpt lat="46.50921" lon="5.42076">
        <ele>518</ele>
        <time>2021-05-29T07:22:51.737Z</time>
      </trkpt>
      <trkpt lat="46.50924" lon="5.42078">
        <ele>518</ele>
        <time>2021-05-29T07:22:52.737Z</time>
      </trkpt>
      <trkpt lat="46.50927" lon="5.4208">
        <ele>518</ele>
        <time>2021-05-29T07:22:53.738Z</time>
      </trkpt>
      <trkpt lat="46.5093" lon="5.42081">
        <ele>518</ele>
        <time>2021-05-29T07:22:54.738Z</time>
      </trkpt>
      <trkpt lat="46.50933" lon="5.42082">
        <ele>518</ele>
        <time>2021-05-29T07:22:55.738Z</time>
      </trkpt>
      <trkpt lat="46.50936" lon="5.42083">
        <ele>518</ele>
        <time>2021-05-29T07:22:56.737Z</time>
      </trkpt>
      <trkpt lat="46.50939" lon="5.42085">
        <ele>518</ele>
        <time>2021-05-29T07:22:57.738Z</time>
      </trkpt>
      <trkpt lat="46.50941" lon="5.42087">
        <ele>518</ele>
        <time>2021-05-29T07:22:58.738Z</time>
      </trkpt>
      <trkpt lat="46.50945" lon="5.42089">
        <ele>518</ele>
        <time>2021-05-29T07:22:59.738Z</time>
      </trkpt>
      <trkpt lat="46.50947" lon="5.42092">
        <ele>518</ele>
        <time>2021-05-29T07:23:00.738Z</time>
      </trkpt>
      <trkpt lat="46.50948" lon="5.42095">
        <ele>518</ele>
        <time>2021-05-29T07:23:01.738Z</time>
      </trkpt>
      <trkpt lat="46.50951" lon="5.42097">
        <ele>519</ele>
        <time>2021-05-29T07:23:02.738Z</time>
      </trkpt>
      <trkpt lat="46.50954" lon="5.42098">
        <ele>519</ele>
        <time>2021-05-29T07:23:03.737Z</time>
      </trkpt>
      <trkpt lat="46.50956" lon="5.421">
        <ele>519</ele>
        <time>2021-05-29T07:23:04.737Z</time>
      </trkpt>
      <trkpt lat="46.50957" lon="5.42102">
        <ele>519</ele>
        <time>2021-05-29T07:23:05.738Z</time>
      </trkpt>
      <trkpt lat="46.50959" lon="5.42103">
        <ele>519</ele>
        <time>2021-05-29T07:23:06.738Z</time>
      </trkpt>
      <trkpt lat="46.50962" lon="5.42104">
        <ele>518</ele>
        <time>2021-05-29T07:23:07.738Z</time>
      </trkpt>
      <trkpt lat="46.50963" lon="5.42103">
        <ele>518</ele>
        <time>2021-05-29T07:23:08.737Z</time>
      </trkpt>
      <trkpt lat="46.50966" lon="5.42104">
        <ele>519</ele>
        <time>2021-05-29T07:23:09.737Z</time>
      </trkpt>
      <trkpt lat="46.50967" lon="5.42105">
        <ele>519</ele>
        <time>2021-05-29T07:23:10.738Z</time>
      </trkpt>
      <trkpt lat="46.50968" lon="5.42106">
        <ele>519</ele>
        <time>2021-05-29T07:23:11.737Z</time>
      </trkpt>
      <trkpt lat="46.5097" lon="5.42107">
        <ele>519</ele>
        <time>2021-05-29T07:23:12.737Z</time>
      </trkpt>
      <trkpt lat="46.50971" lon="5.42109">
        <ele>519</ele>
        <time>2021-05-29T07:23:13.738Z</time>
      </trkpt>
      <trkpt lat="46.50973" lon="5.4211">
        <ele>519</ele>
        <time>2021-05-29T07:23:14.738Z</time>
      </trkpt>
      <trkpt lat="46.50974" lon="5.4211">
        <ele>519</ele>
        <time>2021-05-29T07:23:15.738Z</time>
      </trkpt>
      <trkpt lat="46.50974" lon="5.42111">
        <ele>519</ele>
        <time>2021-05-29T07:23:16.738Z</time>
      </trkpt>
      <trkpt lat="46.50973" lon="5.42111">
        <ele>519</ele>
        <time>2021-05-29T07:23:17.738Z</time>
      </trkpt>
      <trkpt lat="46.50972" lon="5.42111">
        <ele>519</ele>
        <time>2021-05-29T07:23:18.738Z</time>
      </trkpt>
      <trkpt lat="46.5097" lon="5.42111">
        <ele>519</ele>
        <time>2021-05-29T07:23:19.738Z</time>
      </trkpt>
      <trkpt lat="46.50969" lon="5.4211">
        <ele>519</ele>
        <time>2021-05-29T07:23:20.738Z</time>
      </trkpt>
      <trkpt lat="46.50968" lon="5.42108">
        <ele>519</ele>
        <time>2021-05-29T07:23:21.737Z</time>
      </trkpt>
      <trkpt lat="46.50967" lon="5.42107">
        <ele>519</ele>
        <time>2021-05-29T07:23:22.737Z</time>
      </trkpt>
      <trkpt lat="46.50966" lon="5.42106">
        <ele>519</ele>
        <time>2021-05-29T07:23:23.738Z</time>
      </trkpt>
      <trkpt lat="46.50965" lon="5.42106">
        <ele>519</ele>
        <time>2021-05-29T07:23:24.738Z</time>
      </trkpt>
      <trkpt lat="46.50964" lon="5.42105">
        <ele>519</ele>
        <time>2021-05-29T07:23:25.738Z</time>
      </trkpt>
      <trkpt lat="46.50962" lon="5.42104">
        <ele>519</ele>
        <time>2021-05-29T07:23:26.738Z</time>
      </trkpt>
      <trkpt lat="46.50961" lon="5.42103">
        <ele>519</ele>
        <time>2021-05-29T07:23:27.738Z</time>
      </trkpt>
      <trkpt lat="46.50959" lon="5.42102">
        <ele>519</ele>
        <time>2021-05-29T07:23:28.738Z</time>
      </trkpt>
      <trkpt lat="46.50958" lon="5.42101">
        <ele>519</ele>
        <time>2021-05-29T07:23:29.738Z</time>
      </trkpt>
      <trkpt lat="46.50957" lon="5.421">
        <ele>519</ele>
        <time>2021-05-29T07:23:30.738Z</time>
      </trkpt>
      <trkpt lat="46.50956" lon="5.421">
        <ele>518</ele>
        <time>2021-05-29T07:23:31.738Z</time>
      </trkpt>
      <trkpt lat="46.50955" lon="5.421">
        <ele>518</ele>
        <time>2021-05-29T07:23:32.737Z</time>
      </trkpt>
      <trkpt lat="46.50955" lon="5.42101">
        <ele>518</ele>
        <time>2021-05-29T07:23:33.738Z</time>
      </trkpt>
      <trkpt lat="46.50956" lon="5.42102">
        <ele>518</ele>
        <time>2021-05-29T07:23:34.737Z</time>
      </trkpt>
      <trkpt lat="46.50957" lon="5.42103">
        <ele>517</ele>
        <time>2021-05-29T07:23:35.738Z</time>
      </trkpt>
      <trkpt lat="46.50958" lon="5.42104">
        <ele>517</ele>
        <time>2021-05-29T07:23:36.738Z</time>
      </trkpt>
      <trkpt lat="46.50961" lon="5.42106">
        <ele>517</ele>
        <time>2021-05-29T07:23:37.738Z</time>
      </trkpt>
      <trkpt lat="46.50962" lon="5.42107">
        <ele>516</ele>
        <time>2021-05-29T07:23:38.737Z</time>
      </trkpt>
      <trkpt lat="46.50965" lon="5.42108">
        <ele>516</ele>
        <time>2021-05-29T07:23:39.738Z</time>
      </trkpt>
      <trkpt lat="46.50967" lon="5.42109">
        <ele>515</ele>
        <time>2021-05-29T07:23:40.738Z</time>
      </trkpt>
      <trkpt lat="46.50968" lon="5.4211">
        <ele>514</ele>
        <time>2021-05-29T07:23:41.738Z</time>
      </trkpt>
      <trkpt lat="46.5097" lon="5.42112">
        <ele>514</ele>
        <time>2021-05-29T07:23:42.738Z</time>
      </trkpt>
      <trkpt lat="46.50972" lon="5.42113">
        <ele>513</ele>
        <time>2021-05-29T07:23:43.737Z</time>
      </trkpt>
      <trkpt lat="46.50973" lon="5.42114">
        <ele>513</ele>
        <time>2021-05-29T07:23:44.738Z</time>
      </trkpt>
      <trkpt lat="46.50975" lon="5.42116">
        <ele>512</ele>
        <time>2021-05-29T07:23:45.738Z</time>
      </trkpt>
      <trkpt lat="46.50977" lon="5.42117">
        <ele>512</ele>
        <time>2021-05-29T07:23:46.738Z</time>
      </trkpt>
      <trkpt lat="46.50979" lon="5.42119">
        <ele>511</ele>
        <time>2021-05-29T07:23:47.738Z</time>
      </trkpt>
      <trkpt lat="46.5098" lon="5.42119">
        <ele>511</ele>
        <time>2021-05-29T07:23:48.737Z</time>
      </trkpt>
      <trkpt lat="46.50982" lon="5.42119">
        <ele>510</ele>
        <time>2021-05-29T07:23:49.737Z</time>
      </trkpt>
      <trkpt lat="46.50983" lon="5.42119">
        <ele>509</ele>
        <time>2021-05-29T07:23:50.737Z</time>
      </trkpt>
      <trkpt lat="46.50984" lon="5.42119">
        <ele>509</ele>
        <time>2021-05-29T07:23:51.738Z</time>
      </trkpt>
      <trkpt lat="46.50986" lon="5.4212">
        <ele>509</ele>
        <time>2021-05-29T07:23:52.737Z</time>
      </trkpt>
      <trkpt lat="46.50987" lon="5.42122">
        <ele>508</ele>
        <time>2021-05-29T07:23:53.738Z</time>
      </trkpt>
      <trkpt lat="46.50988" lon="5.42124">
        <ele>508</ele>
        <time>2021-05-29T07:23:54.737Z</time>
      </trkpt>
      <trkpt lat="46.5099" lon="5.42125">
        <ele>507</ele>
        <time>2021-05-29T07:23:55.738Z</time>
      </trkpt>
      <trkpt lat="46.50991" lon="5.42127">
        <ele>507</ele>
        <time>2021-05-29T07:23:56.738Z</time>
      </trkpt>
      <trkpt lat="46.50992" lon="5.42129">
        <ele>507</ele>
        <time>2021-05-29T07:23:57.738Z</time>
      </trkpt>
      <trkpt lat="46.50994" lon="5.42131">
        <ele>507</ele>
        <time>2021-05-29T07:23:58.737Z</time>
      </trkpt>
      <trkpt lat="46.50995" lon="5.42132">
        <ele>506</ele>
        <time>2021-05-29T07:23:59.738Z</time>
      </trkpt>
      <trkpt lat="46.50997" lon="5.42133">
        <ele>506</ele>
        <time>2021-05-29T07:24:00.738Z</time>
      </trkpt>
      <trkpt lat="46.51" lon="5.42133">
        <ele>505</ele>
        <time>2021-05-29T07:24:01.738Z</time>
      </trkpt>
      <trkpt lat="46.51002" lon="5.42134">
        <ele>504</ele>
        <time>2021-05-29T07:24:02.738Z</time>
      </trkpt>
      <trkpt lat="46.51004" lon="5.42136">
        <ele>503</ele>
        <time>2021-05-29T07:24:03.738Z</time>
      </trkpt>
      <trkpt lat="46.51005" lon="5.42136">
        <ele>503</ele>
        <time>2021-05-29T07:24:04.737Z</time>
      </trkpt>
      <trkpt lat="46.51007" lon="5.42136">
        <ele>503</ele>
        <time>2021-05-29T07:24:05.738Z</time>
      </trkpt>
      <trkpt lat="46.51008" lon="5.42138">
        <ele>502</ele>
        <time>2021-05-29T07:24:06.737Z</time>
      </trkpt>
      <trkpt lat="46.5101" lon="5.42139">
        <ele>502</ele>
        <time>2021-05-29T07:24:07.738Z</time>
      </trkpt>
      <trkpt lat="46.51012" lon="5.42138">
        <ele>502</ele>
        <time>2021-05-29T07:24:08.738Z</time>
      </trkpt>
      <trkpt lat="46.51014" lon="5.42138">
        <ele>502</ele>
        <time>2021-05-29T07:24:09.738Z</time>
      </trkpt>
      <trkpt lat="46.51015" lon="5.42139">
        <ele>502</ele>
        <time>2021-05-29T07:24:10.738Z</time>
      </trkpt>
      <trkpt lat="46.51017" lon="5.4214">
        <ele>501</ele>
        <time>2021-05-29T07:24:11.737Z</time>
      </trkpt>
      <trkpt lat="46.51019" lon="5.42141">
        <ele>501</ele>
        <time>2021-05-29T07:24:12.738Z</time>
      </trkpt>
      <trkpt lat="46.51021" lon="5.42141">
        <ele>501</ele>
        <time>2021-05-29T07:24:13.737Z</time>
      </trkpt>
      <trkpt lat="46.51023" lon="5.42142">
        <ele>501</ele>
        <time>2021-05-29T07:24:14.738Z</time>
      </trkpt>
      <trkpt lat="46.51025" lon="5.42143">
        <ele>501</ele>
        <time>2021-05-29T07:24:15.738Z</time>
      </trkpt>
      <trkpt lat="46.51026" lon="5.42144">
        <ele>501</ele>
        <time>2021-05-29T07:24:16.737Z</time>
      </trkpt>
      <trkpt lat="46.51028" lon="5.42145">
        <ele>501</ele>
        <time>2021-05-29T07:24:17.737Z</time>
      </trkpt>
      <trkpt lat="46.5103" lon="5.42146">
        <ele>501</ele>
        <time>2021-05-29T07:24:18.737Z</time>
      </trkpt>
      <trkpt lat="46.51032" lon="5.42146">
        <ele>501</ele>
        <time>2021-05-29T07:24:19.738Z</time>
      </trkpt>
      <trkpt lat="46.51035" lon="5.42147">
        <ele>501</ele>
        <time>2021-05-29T07:24:20.738Z</time>
      </trkpt>
      <trkpt lat="46.51037" lon="5.42147">
        <ele>501</ele>
        <time>2021-05-29T07:24:21.737Z</time>
      </trkpt>
      <trkpt lat="46.5104" lon="5.42147">
        <ele>501</ele>
        <time>2021-05-29T07:24:22.737Z</time>
      </trkpt>
      <trkpt lat="46.51043" lon="5.42147">
        <ele>501</ele>
        <time>2021-05-29T07:24:23.738Z</time>
      </trkpt>
      <trkpt lat="46.51045" lon="5.42147">
        <ele>501</ele>
        <time>2021-05-29T07:24:24.737Z</time>
      </trkpt>
      <trkpt lat="46.51048" lon="5.42147">
        <ele>501</ele>
        <time>2021-05-29T07:24:25.737Z</time>
      </trkpt>
      <trkpt lat="46.51051" lon="5.42147">
        <ele>501</ele>
        <time>2021-05-29T07:24:26.738Z</time>
      </trkpt>
      <trkpt lat="46.51053" lon="5.42147">
        <ele>501</ele>
        <time>2021-05-29T07:24:27.737Z</time>
      </trkpt>
      <trkpt lat="46.51055" lon="5.42148">
        <ele>500</ele>
        <time>2021-05-29T07:24:28.737Z</time>
      </trkpt>
      <trkpt lat="46.51057" lon="5.42149">
        <ele>500</ele>
        <time>2021-05-29T07:24:29.738Z</time>
      </trkpt>
      <trkpt lat="46.51058" lon="5.42149">
        <ele>500</ele>
        <time>2021-05-29T07:24:30.737Z</time>
      </trkpt>
      <trkpt lat="46.5106" lon="5.4215">
        <ele>500</ele>
        <time>2021-05-29T07:24:31.737Z</time>
      </trkpt>
      <trkpt lat="46.51062" lon="5.42151">
        <ele>500</ele>
        <time>2021-05-29T07:24:32.737Z</time>
      </trkpt>
      <trkpt lat="46.51063" lon="5.4215">
        <ele>500</ele>
        <time>2021-05-29T07:24:33.737Z</time>
      </trkpt>
      <trkpt lat="46.51065" lon="5.42151">
        <ele>500</ele>
        <time>2021-05-29T07:24:34.737Z</time>
      </trkpt>
      <trkpt lat="46.51066" lon="5.42151">
        <ele>500</ele>
        <time>2021-05-29T07:24:35.738Z</time>
      </trkpt>
      <trkpt lat="46.51068" lon="5.42152">
        <ele>500</ele>
        <time>2021-05-29T07:24:36.737Z</time>
      </trkpt>
      <trkpt lat="46.5107" lon="5.42153">
        <ele>499</ele>
        <time>2021-05-29T07:24:37.737Z</time>
      </trkpt>
      <trkpt lat="46.51071" lon="5.42154">
        <ele>499</ele>
        <time>2021-05-29T07:24:38.737Z</time>
      </trkpt>
      <trkpt lat="46.51072" lon="5.42156">
        <ele>499</ele>
        <time>2021-05-29T07:24:39.737Z</time>
      </trkpt>
      <trkpt lat="46.51074" lon="5.42157">
        <ele>499</ele>
        <time>2021-05-29T07:24:40.738Z</time>
      </trkpt>
      <trkpt lat="46.51076" lon="5.42158">
        <ele>499</ele>
        <time>2021-05-29T07:24:41.737Z</time>
      </trkpt>
      <trkpt lat="46.51078" lon="5.42159">
        <ele>499</ele>
        <time>2021-05-29T07:24:42.738Z</time>
      </trkpt>
      <trkpt lat="46.5108" lon="5.42159">
        <ele>499</ele>
        <time>2021-05-29T07:24:43.738Z</time>
      </trkpt>
      <trkpt lat="46.51082" lon="5.4216">
        <ele>499</ele>
        <time>2021-05-29T07:24:44.737Z</time>
      </trkpt>
      <trkpt lat="46.51084" lon="5.42161">
        <ele>499</ele>
        <time>2021-05-29T07:24:45.737Z</time>
      </trkpt>
      <trkpt lat="46.51086" lon="5.42161">
        <ele>499</ele>
        <time>2021-05-29T07:24:46.737Z</time>
      </trkpt>
      <trkpt lat="46.51089" lon="5.4216">
        <ele>499</ele>
        <time>2021-05-29T07:24:47.738Z</time>
      </trkpt>
      <trkpt lat="46.51091" lon="5.4216">
        <ele>500</ele>
        <time>2021-05-29T07:24:48.737Z</time>
      </trkpt>
      <trkpt lat="46.51092" lon="5.4216">
        <ele>500</ele>
        <time>2021-05-29T07:24:49.737Z</time>
      </trkpt>
      <trkpt lat="46.51093" lon="5.42161">
        <ele>500</ele>
        <time>2021-05-29T07:24:50.738Z</time>
      </trkpt>
      <trkpt lat="46.51096" lon="5.42161">
        <ele>500</ele>
        <time>2021-05-29T07:24:51.738Z</time>
      </trkpt>
      <trkpt lat="46.51099" lon="5.42162">
        <ele>500</ele>
        <time>2021-05-29T07:24:52.737Z</time>
      </trkpt>
      <trkpt lat="46.51103" lon="5.42162">
        <ele>501</ele>
        <time>2021-05-29T07:24:53.737Z</time>
      </trkpt>
      <trkpt lat="46.51107" lon="5.42163">
        <ele>501</ele>
        <time>2021-05-29T07:24:54.737Z</time>
      </trkpt>
      <trkpt lat="46.5111" lon="5.42164">
        <ele>501</ele>
        <time>2021-05-29T07:24:55.737Z</time>
      </trkpt>
      <trkpt lat="46.51113" lon="5.42164">
        <ele>501</ele>
        <time>2021-05-29T07:24:56.737Z</time>
      </trkpt>
      <trkpt lat="46.51116" lon="5.42165">
        <ele>501</ele>
        <time>2021-05-29T07:24:57.738Z</time>
      </trkpt>
      <trkpt lat="46.5112" lon="5.42165">
        <ele>501</ele>
        <time>2021-05-29T07:24:58.737Z</time>
      </trkpt>
      <trkpt lat="46.51123" lon="5.42165">
        <ele>501</ele>
        <time>2021-05-29T07:24:59.737Z</time>
      </trkpt>
      <trkpt lat="46.51127" lon="5.42166">
        <ele>501</ele>
        <time>2021-05-29T07:25:00.738Z</time>
      </trkpt>
      <trkpt lat="46.51131" lon="5.42166">
        <ele>501</ele>
        <time>2021-05-29T07:25:01.738Z</time>
      </trkpt>
      <trkpt lat="46.51135" lon="5.42166">
        <ele>500</ele>
        <time>2021-05-29T07:25:02.737Z</time>
      </trkpt>
      <trkpt lat="46.51139" lon="5.42166">
        <ele>500</ele>
        <time>2021-05-29T07:25:03.737Z</time>
      </trkpt>
      <trkpt lat="46.51142" lon="5.42166">
        <ele>500</ele>
        <time>2021-05-29T07:25:04.737Z</time>
      </trkpt>
      <trkpt lat="46.51146" lon="5.42166">
        <ele>499</ele>
        <time>2021-05-29T07:25:05.738Z</time>
      </trkpt>
      <trkpt lat="46.51149" lon="5.42167">
        <ele>499</ele>
        <time>2021-05-29T07:25:06.737Z</time>
      </trkpt>
      <trkpt lat="46.51152" lon="5.42168">
        <ele>499</ele>
        <time>2021-05-29T07:25:07.737Z</time>
      </trkpt>
      <trkpt lat="46.51156" lon="5.42169">
        <ele>499</ele>
        <time>2021-05-29T07:25:08.738Z</time>
      </trkpt>
      <trkpt lat="46.51159" lon="5.42171">
        <ele>498</ele>
        <time>2021-05-29T07:25:09.737Z</time>
      </trkpt>
      <trkpt lat="46.51162" lon="5.42173">
        <ele>498</ele>
        <time>2021-05-29T07:25:10.737Z</time>
      </trkpt>
      <trkpt lat="46.51165" lon="5.42175">
        <ele>497</ele>
        <time>2021-05-29T07:25:11.737Z</time>
      </trkpt>
      <trkpt lat="46.51168" lon="5.42176">
        <ele>497</ele>
        <time>2021-05-29T07:25:12.738Z</time>
      </trkpt>
      <trkpt lat="46.5117" lon="5.42177">
        <ele>496</ele>
        <time>2021-05-29T07:25:13.738Z</time>
      </trkpt>
      <trkpt lat="46.51173" lon="5.42179">
        <ele>495</ele>
        <time>2021-05-29T07:25:14.737Z</time>
      </trkpt>
      <trkpt lat="46.51177" lon="5.4218">
        <ele>495</ele>
        <time>2021-05-29T07:25:15.737Z</time>
      </trkpt>
      <trkpt lat="46.51179" lon="5.42182">
        <ele>494</ele>
        <time>2021-05-29T07:25:16.737Z</time>
      </trkpt>
      <trkpt lat="46.51182" lon="5.42183">
        <ele>493</ele>
        <time>2021-05-29T07:25:17.737Z</time>
      </trkpt>
      <trkpt lat="46.51184" lon="5.42185">
        <ele>493</ele>
        <time>2021-05-29T07:25:18.738Z</time>
      </trkpt>
      <trkpt lat="46.51188" lon="5.42187">
        <ele>492</ele>
        <time>2021-05-29T07:25:19.738Z</time>
      </trkpt>
      <trkpt lat="46.51191" lon="5.42189">
        <ele>492</ele>
        <time>2021-05-29T07:25:20.737Z</time>
      </trkpt>
      <trkpt lat="46.51194" lon="5.4219">
        <ele>491</ele>
        <time>2021-05-29T07:25:21.738Z</time>
      </trkpt>
      <trkpt lat="46.51196" lon="5.42193">
        <ele>491</ele>
        <time>2021-05-29T07:25:22.738Z</time>
      </trkpt>
      <trkpt lat="46.51197" lon="5.42195">
        <ele>490</ele>
        <time>2021-05-29T07:25:23.737Z</time>
      </trkpt>
      <trkpt lat="46.51201" lon="5.42197">
        <ele>490</ele>
        <time>2021-05-29T07:25:24.738Z</time>
      </trkpt>
      <trkpt lat="46.51204" lon="5.42199">
        <ele>489</ele>
        <time>2021-05-29T07:25:25.737Z</time>
      </trkpt>
      <trkpt lat="46.51207" lon="5.422">
        <ele>489</ele>
        <time>2021-05-29T07:25:26.737Z</time>
      </trkpt>
      <trkpt lat="46.51209" lon="5.42201">
        <ele>488</ele>
        <time>2021-05-29T07:25:27.738Z</time>
      </trkpt>
      <trkpt lat="46.51212" lon="5.42203">
        <ele>488</ele>
        <time>2021-05-29T07:25:28.738Z</time>
      </trkpt>
      <trkpt lat="46.51215" lon="5.42204">
        <ele>487</ele>
        <time>2021-05-29T07:25:29.738Z</time>
      </trkpt>
      <trkpt lat="46.51218" lon="5.42207">
        <ele>486</ele>
        <time>2021-05-29T07:25:30.738Z</time>
      </trkpt>
      <trkpt lat="46.5122" lon="5.42209">
        <ele>485</ele>
        <time>2021-05-29T07:25:31.737Z</time>
      </trkpt>
      <trkpt lat="46.51223" lon="5.4221">
        <ele>484</ele>
        <time>2021-05-29T07:25:32.738Z</time>
      </trkpt>
      <trkpt lat="46.51226" lon="5.42212">
        <ele>484</ele>
        <time>2021-05-29T07:25:33.738Z</time>
      </trkpt>
      <trkpt lat="46.51229" lon="5.42214">
        <ele>483</ele>
        <time>2021-05-29T07:25:34.738Z</time>
      </trkpt>
      <trkpt lat="46.51231" lon="5.42216">
        <ele>482</ele>
        <time>2021-05-29T07:25:35.738Z</time>
      </trkpt>
      <trkpt lat="46.51234" lon="5.42217">
        <ele>481</ele>
        <time>2021-05-29T07:25:36.737Z</time>
      </trkpt>
      <trkpt lat="46.51236" lon="5.42219">
        <ele>481</ele>
        <time>2021-05-29T07:25:37.738Z</time>
      </trkpt>
      <trkpt lat="46.51239" lon="5.4222">
        <ele>480</ele>
        <time>2021-05-29T07:25:38.738Z</time>
      </trkpt>
      <trkpt lat="46.51242" lon="5.42221">
        <ele>480</ele>
        <time>2021-05-29T07:25:39.738Z</time>
      </trkpt>
      <trkpt lat="46.51245" lon="5.42223">
        <ele>480</ele>
        <time>2021-05-29T07:25:40.738Z</time>
      </trkpt>
      <trkpt lat="46.51248" lon="5.42223">
        <ele>480</ele>
        <time>2021-05-29T07:25:41.738Z</time>
      </trkpt>
      <trkpt lat="46.51251" lon="5.42225">
        <ele>480</ele>
        <time>2021-05-29T07:25:42.738Z</time>
      </trkpt>
      <trkpt lat="46.51254" lon="5.42227">
        <ele>480</ele>
        <time>2021-05-29T07:25:43.738Z</time>
      </trkpt>
      <trkpt lat="46.51257" lon="5.42229">
        <ele>480</ele>
        <time>2021-05-29T07:25:44.738Z</time>
      </trkpt>
      <trkpt lat="46.5126" lon="5.42231">
        <ele>479</ele>
        <time>2021-05-29T07:25:45.738Z</time>
      </trkpt>
      <trkpt lat="46.51262" lon="5.42232">
        <ele>479</ele>
        <time>2021-05-29T07:25:46.738Z</time>
      </trkpt>
      <trkpt lat="46.51265" lon="5.42234">
        <ele>479</ele>
        <time>2021-05-29T07:25:47.738Z</time>
      </trkpt>
      <trkpt lat="46.51267" lon="5.42235">
        <ele>479</ele>
        <time>2021-05-29T07:25:48.738Z</time>
      </trkpt>
      <trkpt lat="46.5127" lon="5.42237">
        <ele>478</ele>
        <time>2021-05-29T07:25:49.737Z</time>
      </trkpt>
      <trkpt lat="46.51272" lon="5.42238">
        <ele>478</ele>
        <time>2021-05-29T07:25:50.738Z</time>
      </trkpt>
      <trkpt lat="46.51274" lon="5.4224">
        <ele>478</ele>
        <time>2021-05-29T07:25:51.738Z</time>
      </trkpt>
      <trkpt lat="46.51276" lon="5.42242">
        <ele>477</ele>
        <time>2021-05-29T07:25:52.738Z</time>
      </trkpt>
      <trkpt lat="46.51279" lon="5.42243">
        <ele>477</ele>
        <time>2021-05-29T07:25:53.738Z</time>
      </trkpt>
      <trkpt lat="46.51282" lon="5.42244">
        <ele>476</ele>
        <time>2021-05-29T07:25:54.737Z</time>
      </trkpt>
      <trkpt lat="46.51284" lon="5.42245">
        <ele>476</ele>
        <time>2021-05-29T07:25:55.737Z</time>
      </trkpt>
      <trkpt lat="46.51286" lon="5.42246">
        <ele>475</ele>
        <time>2021-05-29T07:25:56.738Z</time>
      </trkpt>
      <trkpt lat="46.51289" lon="5.42246">
        <ele>475</ele>
        <time>2021-05-29T07:25:57.737Z</time>
      </trkpt>
      <trkpt lat="46.51292" lon="5.42246">
        <ele>474</ele>
        <time>2021-05-29T07:25:58.737Z</time>
      </trkpt>
      <trkpt lat="46.51295" lon="5.42247">
        <ele>474</ele>
        <time>2021-05-29T07:25:59.738Z</time>
      </trkpt>
      <trkpt lat="46.51297" lon="5.42248">
        <ele>474</ele>
        <time>2021-05-29T07:26:00.738Z</time>
      </trkpt>
      <trkpt lat="46.513" lon="5.42249">
        <ele>474</ele>
        <time>2021-05-29T07:26:01.738Z</time>
      </trkpt>
      <trkpt lat="46.51303" lon="5.4225">
        <ele>474</ele>
        <time>2021-05-29T07:26:02.738Z</time>
      </trkpt>
      <trkpt lat="46.51305" lon="5.42252">
        <ele>473</ele>
        <time>2021-05-29T07:26:03.738Z</time>
      </trkpt>
      <trkpt lat="46.51307" lon="5.42253">
        <ele>473</ele>
        <time>2021-05-29T07:26:04.738Z</time>
      </trkpt>
      <trkpt lat="46.5131" lon="5.42255">
        <ele>473</ele>
        <time>2021-05-29T07:26:05.737Z</time>
      </trkpt>
      <trkpt lat="46.51313" lon="5.42256">
        <ele>472</ele>
        <time>2021-05-29T07:26:06.738Z</time>
      </trkpt>
      <trkpt lat="46.51316" lon="5.42257">
        <ele>472</ele>
        <time>2021-05-29T07:26:07.738Z</time>
      </trkpt>
      <trkpt lat="46.51318" lon="5.42259">
        <ele>472</ele>
        <time>2021-05-29T07:26:08.738Z</time>
      </trkpt>
      <trkpt lat="46.5132" lon="5.42261">
        <ele>471</ele>
        <time>2021-05-29T07:26:09.738Z</time>
      </trkpt>
      <trkpt lat="46.51322" lon="5.42262">
        <ele>471</ele>
        <time>2021-05-29T07:26:10.738Z</time>
      </trkpt>
      <trkpt lat="46.51325" lon="5.42263">
        <ele>471</ele>
        <time>2021-05-29T07:26:11.738Z</time>
      </trkpt>
      <trkpt lat="46.51327" lon="5.42265">
        <ele>470</ele>
        <time>2021-05-29T07:26:12.737Z</time>
      </trkpt>
      <trkpt lat="46.51329" lon="5.42265">
        <ele>470</ele>
        <time>2021-05-29T07:26:13.738Z</time>
      </trkpt>
      <trkpt lat="46.51331" lon="5.42266">
        <ele>470</ele>
        <time>2021-05-29T07:26:14.738Z</time>
      </trkpt>
      <trkpt lat="46.51334" lon="5.42268">
        <ele>469</ele>
        <time>2021-05-29T07:26:15.738Z</time>
      </trkpt>
      <trkpt lat="46.51336" lon="5.42269">
        <ele>469</ele>
        <time>2021-05-29T07:26:16.738Z</time>
      </trkpt>
      <trkpt lat="46.51338" lon="5.42271">
        <ele>468</ele>
        <time>2021-05-29T07:26:17.737Z</time>
      </trkpt>
      <trkpt lat="46.51341" lon="5.42272">
        <ele>467</ele>
        <time>2021-05-29T07:26:18.738Z</time>
      </trkpt>
      <trkpt lat="46.51343" lon="5.42274">
        <ele>467</ele>
        <time>2021-05-29T07:26:19.738Z</time>
      </trkpt>
      <trkpt lat="46.51345" lon="5.42276">
        <ele>466</ele>
        <time>2021-05-29T07:26:20.738Z</time>
      </trkpt>
      <trkpt lat="46.51347" lon="5.42277">
        <ele>466</ele>
        <time>2021-05-29T07:26:21.738Z</time>
      </trkpt>
      <trkpt lat="46.51349" lon="5.42279">
        <ele>465</ele>
        <time>2021-05-29T07:26:22.738Z</time>
      </trkpt>
      <trkpt lat="46.51351" lon="5.42281">
        <ele>464</ele>
        <time>2021-05-29T07:26:23.738Z</time>
      </trkpt>
      <trkpt lat="46.51353" lon="5.42283">
        <ele>464</ele>
        <time>2021-05-29T07:26:24.738Z</time>
      </trkpt>
      <trkpt lat="46.51355" lon="5.42284">
        <ele>464</ele>
        <time>2021-05-29T07:26:25.737Z</time>
      </trkpt>
      <trkpt lat="46.51357" lon="5.42286">
        <ele>464</ele>
        <time>2021-05-29T07:26:26.737Z</time>
      </trkpt>
      <trkpt lat="46.51359" lon="5.42288">
        <ele>464</ele>
        <time>2021-05-29T07:26:27.738Z</time>
      </trkpt>
      <trkpt lat="46.5136" lon="5.4229">
        <ele>463</ele>
        <time>2021-05-29T07:26:28.738Z</time>
      </trkpt>
      <trkpt lat="46.51362" lon="5.42292">
        <ele>463</ele>
        <time>2021-05-29T07:26:29.738Z</time>
      </trkpt>
      <trkpt lat="46.51364" lon="5.42294">
        <ele>463</ele>
        <time>2021-05-29T07:26:30.738Z</time>
      </trkpt>
      <trkpt lat="46.51366" lon="5.42296">
        <ele>463</ele>
        <time>2021-05-29T07:26:31.738Z</time>
      </trkpt>
      <trkpt lat="46.51369" lon="5.42297">
        <ele>462</ele>
        <time>2021-05-29T07:26:32.738Z</time>
      </trkpt>
      <trkpt lat="46.51371" lon="5.42299">
        <ele>462</ele>
        <time>2021-05-29T07:26:33.738Z</time>
      </trkpt>
      <trkpt lat="46.51374" lon="5.42301">
        <ele>461</ele>
        <time>2021-05-29T07:26:34.738Z</time>
      </trkpt>
      <trkpt lat="46.51376" lon="5.42302">
        <ele>461</ele>
        <time>2021-05-29T07:26:35.738Z</time>
      </trkpt>
      <trkpt lat="46.51379" lon="5.42304">
        <ele>461</ele>
        <time>2021-05-29T07:26:36.737Z</time>
      </trkpt>
      <trkpt lat="46.51382" lon="5.42306">
        <ele>461</ele>
        <time>2021-05-29T07:26:37.738Z</time>
      </trkpt>
      <trkpt lat="46.51384" lon="5.42308">
        <ele>460</ele>
        <time>2021-05-29T07:26:38.738Z</time>
      </trkpt>
      <trkpt lat="46.51386" lon="5.4231">
        <ele>459</ele>
        <time>2021-05-29T07:26:39.738Z</time>
      </trkpt>
      <trkpt lat="46.51389" lon="5.42312">
        <ele>459</ele>
        <time>2021-05-29T07:26:40.738Z</time>
      </trkpt>
      <trkpt lat="46.51391" lon="5.42313">
        <ele>458</ele>
        <time>2021-05-29T07:26:41.737Z</time>
      </trkpt>
      <trkpt lat="46.51393" lon="5.42315">
        <ele>458</ele>
        <time>2021-05-29T07:26:42.737Z</time>
      </trkpt>
      <trkpt lat="46.51395" lon="5.42317">
        <ele>457</ele>
        <time>2021-05-29T07:26:43.738Z</time>
      </trkpt>
      <trkpt lat="46.51397" lon="5.42319">
        <ele>456</ele>
        <time>2021-05-29T07:26:44.738Z</time>
      </trkpt>
      <trkpt lat="46.51399" lon="5.42321">
        <ele>456</ele>
        <time>2021-05-29T07:26:45.738Z</time>
      </trkpt>
      <trkpt lat="46.51401" lon="5.42323">
        <ele>455</ele>
        <time>2021-05-29T07:26:46.738Z</time>
      </trkpt>
      <trkpt lat="46.51403" lon="5.42324">
        <ele>455</ele>
        <time>2021-05-29T07:26:47.738Z</time>
      </trkpt>
      <trkpt lat="46.51405" lon="5.42326">
        <ele>455</ele>
        <time>2021-05-29T07:26:48.738Z</time>
      </trkpt>
      <trkpt lat="46.51407" lon="5.42327">
        <ele>455</ele>
        <time>2021-05-29T07:26:49.738Z</time>
      </trkpt>
      <trkpt lat="46.5141" lon="5.42328">
        <ele>454</ele>
        <time>2021-05-29T07:26:50.737Z</time>
      </trkpt>
      <trkpt lat="46.51412" lon="5.4233">
        <ele>454</ele>
        <time>2021-05-29T07:26:51.738Z</time>
      </trkpt>
      <trkpt lat="46.51414" lon="5.42331">
        <ele>453</ele>
        <time>2021-05-29T07:26:52.738Z</time>
      </trkpt>
      <trkpt lat="46.51416" lon="5.42332">
        <ele>453</ele>
        <time>2021-05-29T07:26:53.738Z</time>
      </trkpt>
      <trkpt lat="46.51419" lon="5.42334">
        <ele>453</ele>
        <time>2021-05-29T07:26:54.738Z</time>
      </trkpt>
      <trkpt lat="46.51421" lon="5.42336">
        <ele>453</ele>
        <time>2021-05-29T07:26:55.738Z</time>
      </trkpt>
      <trkpt lat="46.51423" lon="5.42337">
        <ele>453</ele>
        <time>2021-05-29T07:26:56.737Z</time>
      </trkpt>
      <trkpt lat="46.51425" lon="5.42339">
        <ele>453</ele>
        <time>2021-05-29T07:26:57.738Z</time>
      </trkpt>
      <trkpt lat="46.51428" lon="5.42339">
        <ele>453</ele>
        <time>2021-05-29T07:26:58.737Z</time>
      </trkpt>
      <trkpt lat="46.5143" lon="5.4234">
        <ele>452</ele>
        <time>2021-05-29T07:26:59.738Z</time>
      </trkpt>
      <trkpt lat="46.51433" lon="5.42342">
        <ele>452</ele>
        <time>2021-05-29T07:27:00.738Z</time>
      </trkpt>
      <trkpt lat="46.51435" lon="5.42343">
        <ele>452</ele>
        <time>2021-05-29T07:27:01.738Z</time>
      </trkpt>
      <trkpt lat="46.51437" lon="5.42343">
        <ele>452</ele>
        <time>2021-05-29T07:27:02.737Z</time>
      </trkpt>
      <trkpt lat="46.5144" lon="5.42344">
        <ele>453</ele>
        <time>2021-05-29T07:27:03.738Z</time>
      </trkpt>
      <trkpt lat="46.51442" lon="5.42345">
        <ele>453</ele>
        <time>2021-05-29T07:27:04.738Z</time>
      </trkpt>
      <trkpt lat="46.51445" lon="5.42346">
        <ele>453</ele>
        <time>2021-05-29T07:27:05.737Z</time>
      </trkpt>
      <trkpt lat="46.51447" lon="5.42346">
        <ele>453</ele>
        <time>2021-05-29T07:27:06.737Z</time>
      </trkpt>
      <trkpt lat="46.5145" lon="5.42347">
        <ele>453</ele>
        <time>2021-05-29T07:27:07.738Z</time>
      </trkpt>
      <trkpt lat="46.51453" lon="5.42348">
        <ele>454</ele>
        <time>2021-05-29T07:27:08.738Z</time>
      </trkpt>
      <trkpt lat="46.51456" lon="5.42349">
        <ele>454</ele>
        <time>2021-05-29T07:27:09.737Z</time>
      </trkpt>
      <trkpt lat="46.51458" lon="5.42349">
        <ele>454</ele>
        <time>2021-05-29T07:27:10.737Z</time>
      </trkpt>
      <trkpt lat="46.5146" lon="5.4235">
        <ele>455</ele>
        <time>2021-05-29T07:27:11.737Z</time>
      </trkpt>
      <trkpt lat="46.51463" lon="5.42351">
        <ele>455</ele>
        <time>2021-05-29T07:27:12.738Z</time>
      </trkpt>
      <trkpt lat="46.51465" lon="5.42351">
        <ele>455</ele>
        <time>2021-05-29T07:27:13.738Z</time>
      </trkpt>
      <trkpt lat="46.51468" lon="5.42352">
        <ele>455</ele>
        <time>2021-05-29T07:27:14.738Z</time>
      </trkpt>
      <trkpt lat="46.5147" lon="5.42353">
        <ele>455</ele>
        <time>2021-05-29T07:27:15.738Z</time>
      </trkpt>
      <trkpt lat="46.51472" lon="5.42355">
        <ele>455</ele>
        <time>2021-05-29T07:27:16.738Z</time>
      </trkpt>
      <trkpt lat="46.51474" lon="5.42356">
        <ele>455</ele>
        <time>2021-05-29T07:27:17.738Z</time>
      </trkpt>
      <trkpt lat="46.51477" lon="5.42357">
        <ele>455</ele>
        <time>2021-05-29T07:27:18.738Z</time>
      </trkpt>
      <trkpt lat="46.51479" lon="5.42359">
        <ele>455</ele>
        <time>2021-05-29T07:27:19.738Z</time>
      </trkpt>
      <trkpt lat="46.51481" lon="5.4236">
        <ele>455</ele>
        <time>2021-05-29T07:27:20.738Z</time>
      </trkpt>
      <trkpt lat="46.51484" lon="5.4236">
        <ele>455</ele>
        <time>2021-05-29T07:27:21.738Z</time>
      </trkpt>
      <trkpt lat="46.51486" lon="5.42361">
        <ele>455</ele>
        <time>2021-05-29T07:27:22.738Z</time>
      </trkpt>
      <trkpt lat="46.51489" lon="5.42362">
        <ele>455</ele>
        <time>2021-05-29T07:27:23.738Z</time>
      </trkpt>
      <trkpt lat="46.51491" lon="5.42363">
        <ele>455</ele>
        <time>2021-05-29T07:27:24.737Z</time>
      </trkpt>
      <trkpt lat="46.51493" lon="5.42364">
        <ele>455</ele>
        <time>2021-05-29T07:27:25.738Z</time>
      </trkpt>
      <trkpt lat="46.51495" lon="5.42365">
        <ele>455</ele>
        <time>2021-05-29T07:27:26.738Z</time>
      </trkpt>
      <trkpt lat="46.51498" lon="5.42366">
        <ele>455</ele>
        <time>2021-05-29T07:27:27.738Z</time>
      </trkpt>
      <trkpt lat="46.515" lon="5.42367">
        <ele>455</ele>
        <time>2021-05-29T07:27:28.738Z</time>
      </trkpt>
      <trkpt lat="46.51502" lon="5.42368">
        <ele>454</ele>
        <time>2021-05-29T07:27:29.738Z</time>
      </trkpt>
      <trkpt lat="46.51504" lon="5.42369">
        <ele>454</ele>
        <time>2021-05-29T07:27:30.738Z</time>
      </trkpt>
      <trkpt lat="46.51507" lon="5.4237">
        <ele>454</ele>
        <time>2021-05-29T07:27:31.737Z</time>
      </trkpt>
      <trkpt lat="46.51509" lon="5.42371">
        <ele>453</ele>
        <time>2021-05-29T07:27:32.737Z</time>
      </trkpt>
      <trkpt lat="46.51511" lon="5.42372">
        <ele>453</ele>
        <time>2021-05-29T07:27:33.737Z</time>
      </trkpt>
      <trkpt lat="46.51513" lon="5.42374">
        <ele>453</ele>
        <time>2021-05-29T07:27:34.738Z</time>
      </trkpt>
      <trkpt lat="46.51515" lon="5.42376">
        <ele>452</ele>
        <time>2021-05-29T07:27:35.738Z</time>
      </trkpt>
      <trkpt lat="46.51518" lon="5.42377">
        <ele>452</ele>
        <time>2021-05-29T07:27:36.738Z</time>
      </trkpt>
      <trkpt lat="46.5152" lon="5.42379">
        <ele>452</ele>
        <time>2021-05-29T07:27:37.738Z</time>
      </trkpt>
      <trkpt lat="46.51522" lon="5.4238">
        <ele>451</ele>
        <time>2021-05-29T07:27:38.738Z</time>
      </trkpt>
      <trkpt lat="46.51524" lon="5.42382">
        <ele>451</ele>
        <time>2021-05-29T07:27:39.738Z</time>
      </trkpt>
      <trkpt lat="46.51526" lon="5.42383">
        <ele>451</ele>
        <time>2021-05-29T07:27:40.738Z</time>
      </trkpt>
      <trkpt lat="46.51528" lon="5.42385">
        <ele>451</ele>
        <time>2021-05-29T07:27:41.738Z</time>
      </trkpt>
      <trkpt lat="46.51531" lon="5.42387">
        <ele>451</ele>
        <time>2021-05-29T07:27:42.737Z</time>
      </trkpt>
      <trkpt lat="46.51533" lon="5.42389">
        <ele>450</ele>
        <time>2021-05-29T07:27:43.738Z</time>
      </trkpt>
      <trkpt lat="46.51535" lon="5.4239">
        <ele>450</ele>
        <time>2021-05-29T07:27:44.737Z</time>
      </trkpt>
      <trkpt lat="46.51537" lon="5.42392">
        <ele>450</ele>
        <time>2021-05-29T07:27:45.738Z</time>
      </trkpt>
      <trkpt lat="46.51539" lon="5.42394">
        <ele>449</ele>
        <time>2021-05-29T07:27:46.738Z</time>
      </trkpt>
      <trkpt lat="46.51542" lon="5.42396">
        <ele>449</ele>
        <time>2021-05-29T07:27:47.738Z</time>
      </trkpt>
      <trkpt lat="46.51544" lon="5.42398">
        <ele>449</ele>
        <time>2021-05-29T07:27:48.737Z</time>
      </trkpt>
      <trkpt lat="46.51546" lon="5.42399">
        <ele>448</ele>
        <time>2021-05-29T07:27:49.738Z</time>
      </trkpt>
      <trkpt lat="46.51549" lon="5.42401">
        <ele>448</ele>
        <time>2021-05-29T07:27:50.738Z</time>
      </trkpt>
      <trkpt lat="46.51551" lon="5.42402">
        <ele>448</ele>
        <time>2021-05-29T07:27:51.738Z</time>
      </trkpt>
      <trkpt lat="46.51553" lon="5.42403">
        <ele>447</ele>
        <time>2021-05-29T07:27:52.738Z</time>
      </trkpt>
      <trkpt lat="46.51555" lon="5.42405">
        <ele>447</ele>
        <time>2021-05-29T07:27:53.738Z</time>
      </trkpt>
      <trkpt lat="46.51557" lon="5.42406">
        <ele>447</ele>
        <time>2021-05-29T07:27:54.738Z</time>
      </trkpt>
      <trkpt lat="46.5156" lon="5.42408">
        <ele>447</ele>
        <time>2021-05-29T07:27:55.738Z</time>
      </trkpt>
      <trkpt lat="46.51563" lon="5.42409">
        <ele>446</ele>
        <time>2021-05-29T07:27:56.738Z</time>
      </trkpt>
      <trkpt lat="46.51565" lon="5.4241">
        <ele>446</ele>
        <time>2021-05-29T07:27:57.738Z</time>
      </trkpt>
      <trkpt lat="46.51567" lon="5.42412">
        <ele>446</ele>
        <time>2021-05-29T07:27:58.738Z</time>
      </trkpt>
      <trkpt lat="46.5157" lon="5.42413">
        <ele>446</ele>
        <time>2021-05-29T07:27:59.737Z</time>
      </trkpt>
      <trkpt lat="46.51572" lon="5.42415">
        <ele>446</ele>
        <time>2021-05-29T07:28:00.738Z</time>
      </trkpt>
      <trkpt lat="46.51575" lon="5.42417">
        <ele>446</ele>
        <time>2021-05-29T07:28:01.738Z</time>
      </trkpt>
      <trkpt lat="46.51576" lon="5.42419">
        <ele>446</ele>
        <time>2021-05-29T07:28:02.737Z</time>
      </trkpt>
      <trkpt lat="46.51579" lon="5.42421">
        <ele>446</ele>
        <time>2021-05-29T07:28:03.738Z</time>
      </trkpt>
      <trkpt lat="46.51581" lon="5.42423">
        <ele>446</ele>
        <time>2021-05-29T07:28:04.738Z</time>
      </trkpt>
      <trkpt lat="46.51584" lon="5.42424">
        <ele>446</ele>
        <time>2021-05-29T07:28:05.737Z</time>
      </trkpt>
      <trkpt lat="46.51586" lon="5.42426">
        <ele>445</ele>
        <time>2021-05-29T07:28:06.738Z</time>
      </trkpt>
      <trkpt lat="46.51588" lon="5.42429">
        <ele>445</ele>
        <time>2021-05-29T07:28:07.738Z</time>
      </trkpt>
      <trkpt lat="46.5159" lon="5.42431">
        <ele>445</ele>
        <time>2021-05-29T07:28:08.738Z</time>
      </trkpt>
      <trkpt lat="46.51592" lon="5.42433">
        <ele>445</ele>
        <time>2021-05-29T07:28:09.738Z</time>
      </trkpt>
      <trkpt lat="46.51593" lon="5.42435">
        <ele>444</ele>
        <time>2021-05-29T07:28:10.737Z</time>
      </trkpt>
      <trkpt lat="46.51595" lon="5.42437">
        <ele>444</ele>
        <time>2021-05-29T07:28:11.738Z</time>
      </trkpt>
      <trkpt lat="46.51597" lon="5.42439">
        <ele>444</ele>
        <time>2021-05-29T07:28:12.738Z</time>
      </trkpt>
      <trkpt lat="46.51599" lon="5.42441">
        <ele>444</ele>
        <time>2021-05-29T07:28:13.738Z</time>
      </trkpt>
      <trkpt lat="46.51601" lon="5.42443">
        <ele>444</ele>
        <time>2021-05-29T07:28:14.738Z</time>
      </trkpt>
      <trkpt lat="46.51603" lon="5.42444">
        <ele>444</ele>
        <time>2021-05-29T07:28:15.738Z</time>
      </trkpt>
      <trkpt lat="46.51605" lon="5.42446">
        <ele>445</ele>
        <time>2021-05-29T07:28:16.738Z</time>
      </trkpt>
      <trkpt lat="46.51607" lon="5.42448">
        <ele>445</ele>
        <time>2021-05-29T07:28:17.738Z</time>
      </trkpt>
      <trkpt lat="46.51609" lon="5.42449">
        <ele>445</ele>
        <time>2021-05-29T07:28:18.737Z</time>
      </trkpt>
      <trkpt lat="46.51612" lon="5.42451">
        <ele>445</ele>
        <time>2021-05-29T07:28:19.738Z</time>
      </trkpt>
      <trkpt lat="46.51614" lon="5.42453">
        <ele>445</ele>
        <time>2021-05-29T07:28:20.738Z</time>
      </trkpt>
      <trkpt lat="46.51615" lon="5.42454">
        <ele>445</ele>
        <time>2021-05-29T07:28:21.738Z</time>
      </trkpt>
      <trkpt lat="46.51617" lon="5.42456">
        <ele>446</ele>
        <time>2021-05-29T07:28:22.738Z</time>
      </trkpt>
      <trkpt lat="46.51619" lon="5.42457">
        <ele>446</ele>
        <time>2021-05-29T07:28:23.738Z</time>
      </trkpt>
      <trkpt lat="46.51621" lon="5.42458">
        <ele>446</ele>
        <time>2021-05-29T07:28:24.738Z</time>
      </trkpt>
      <trkpt lat="46.51623" lon="5.42461">
        <ele>446</ele>
        <time>2021-05-29T07:28:25.738Z</time>
      </trkpt>
      <trkpt lat="46.51624" lon="5.42463">
        <ele>446</ele>
        <time>2021-05-29T07:28:26.737Z</time>
      </trkpt>
      <trkpt lat="46.51626" lon="5.42463">
        <ele>446</ele>
        <time>2021-05-29T07:28:27.738Z</time>
      </trkpt>
      <trkpt lat="46.51628" lon="5.42464">
        <ele>446</ele>
        <time>2021-05-29T07:28:28.738Z</time>
      </trkpt>
      <trkpt lat="46.5163" lon="5.42464">
        <ele>445</ele>
        <time>2021-05-29T07:28:29.738Z</time>
      </trkpt>
      <trkpt lat="46.51632" lon="5.42464">
        <ele>445</ele>
        <time>2021-05-29T07:28:30.738Z</time>
      </trkpt>
      <trkpt lat="46.51634" lon="5.42466">
        <ele>445</ele>
        <time>2021-05-29T07:28:31.738Z</time>
      </trkpt>
      <trkpt lat="46.51636" lon="5.42466">
        <ele>445</ele>
        <time>2021-05-29T07:28:32.738Z</time>
      </trkpt>
      <trkpt lat="46.51638" lon="5.42467">
        <ele>445</ele>
        <time>2021-05-29T07:28:33.738Z</time>
      </trkpt>
      <trkpt lat="46.51641" lon="5.42467">
        <ele>445</ele>
        <time>2021-05-29T07:28:34.738Z</time>
      </trkpt>
      <trkpt lat="46.51643" lon="5.42469">
        <ele>445</ele>
        <time>2021-05-29T07:28:35.738Z</time>
      </trkpt>
      <trkpt lat="46.51645" lon="5.4247">
        <ele>445</ele>
        <time>2021-05-29T07:28:36.737Z</time>
      </trkpt>
      <trkpt lat="46.51648" lon="5.42471">
        <ele>445</ele>
        <time>2021-05-29T07:28:37.738Z</time>
      </trkpt>
      <trkpt lat="46.5165" lon="5.42471">
        <ele>444</ele>
        <time>2021-05-29T07:28:38.737Z</time>
      </trkpt>
      <trkpt lat="46.51653" lon="5.42472">
        <ele>444</ele>
        <time>2021-05-29T07:28:39.738Z</time>
      </trkpt>
      <trkpt lat="46.51655" lon="5.42472">
        <ele>443</ele>
        <time>2021-05-29T07:28:40.738Z</time>
      </trkpt>
      <trkpt lat="46.51658" lon="5.42473">
        <ele>443</ele>
        <time>2021-05-29T07:28:41.737Z</time>
      </trkpt>
      <trkpt lat="46.5166" lon="5.42474">
        <ele>442</ele>
        <time>2021-05-29T07:28:42.738Z</time>
      </trkpt>
      <trkpt lat="46.51663" lon="5.42475">
        <ele>442</ele>
        <time>2021-05-29T07:28:43.738Z</time>
      </trkpt>
      <trkpt lat="46.51665" lon="5.42476">
        <ele>441</ele>
        <time>2021-05-29T07:28:44.737Z</time>
      </trkpt>
      <trkpt lat="46.51668" lon="5.42477">
        <ele>441</ele>
        <time>2021-05-29T07:28:45.737Z</time>
      </trkpt>
      <trkpt lat="46.5167" lon="5.42478">
        <ele>440</ele>
        <time>2021-05-29T07:28:46.738Z</time>
      </trkpt>
      <trkpt lat="46.51672" lon="5.42478">
        <ele>440</ele>
        <time>2021-05-29T07:28:47.738Z</time>
      </trkpt>
      <trkpt lat="46.51674" lon="5.42479">
        <ele>440</ele>
        <time>2021-05-29T07:28:48.738Z</time>
      </trkpt>
      <trkpt lat="46.51676" lon="5.42479">
        <ele>440</ele>
        <time>2021-05-29T07:28:49.737Z</time>
      </trkpt>
      <trkpt lat="46.51678" lon="5.42478">
        <ele>439</ele>
        <time>2021-05-29T07:28:50.738Z</time>
      </trkpt>
      <trkpt lat="46.51681" lon="5.42479">
        <ele>439</ele>
        <time>2021-05-29T07:28:51.738Z</time>
      </trkpt>
      <trkpt lat="46.51683" lon="5.4248">
        <ele>440</ele>
        <time>2021-05-29T07:28:52.738Z</time>
      </trkpt>
      <trkpt lat="46.51685" lon="5.42481">
        <ele>440</ele>
        <time>2021-05-29T07:28:53.737Z</time>
      </trkpt>
      <trkpt lat="46.51687" lon="5.42482">
        <ele>440</ele>
        <time>2021-05-29T07:28:54.737Z</time>
      </trkpt>
      <trkpt lat="46.51689" lon="5.42484">
        <ele>440</ele>
        <time>2021-05-29T07:28:55.738Z</time>
      </trkpt>
      <trkpt lat="46.51691" lon="5.42485">
        <ele>440</ele>
        <time>2021-05-29T07:28:56.738Z</time>
      </trkpt>
      <trkpt lat="46.51694" lon="5.42485">
        <ele>439</ele>
        <time>2021-05-29T07:28:57.737Z</time>
      </trkpt>
      <trkpt lat="46.51696" lon="5.42486">
        <ele>439</ele>
        <time>2021-05-29T07:28:58.738Z</time>
      </trkpt>
      <trkpt lat="46.51699" lon="5.42487">
        <ele>440</ele>
        <time>2021-05-29T07:28:59.738Z</time>
      </trkpt>
      <trkpt lat="46.51701" lon="5.42487">
        <ele>440</ele>
        <time>2021-05-29T07:29:00.737Z</time>
      </trkpt>
      <trkpt lat="46.51704" lon="5.42487">
        <ele>440</ele>
        <time>2021-05-29T07:29:01.738Z</time>
      </trkpt>
      <trkpt lat="46.51706" lon="5.42487">
        <ele>440</ele>
        <time>2021-05-29T07:29:02.738Z</time>
      </trkpt>
      <trkpt lat="46.51709" lon="5.42487">
        <ele>440</ele>
        <time>2021-05-29T07:29:03.737Z</time>
      </trkpt>
      <trkpt lat="46.51711" lon="5.42487">
        <ele>440</ele>
        <time>2021-05-29T07:29:04.738Z</time>
      </trkpt>
      <trkpt lat="46.51714" lon="5.42487">
        <ele>440</ele>
        <time>2021-05-29T07:29:05.737Z</time>
      </trkpt>
      <trkpt lat="46.51716" lon="5.42487">
        <ele>440</ele>
        <time>2021-05-29T07:29:06.738Z</time>
      </trkpt>
      <trkpt lat="46.51718" lon="5.42487">
        <ele>440</ele>
        <time>2021-05-29T07:29:07.738Z</time>
      </trkpt>
      <trkpt lat="46.51721" lon="5.42487">
        <ele>440</ele>
        <time>2021-05-29T07:29:08.738Z</time>
      </trkpt>
      <trkpt lat="46.51723" lon="5.42487">
        <ele>440</ele>
        <time>2021-05-29T07:29:09.738Z</time>
      </trkpt>
      <trkpt lat="46.51725" lon="5.42487">
        <ele>440</ele>
        <time>2021-05-29T07:29:10.738Z</time>
      </trkpt>
      <trkpt lat="46.51728" lon="5.42488">
        <ele>440</ele>
        <time>2021-05-29T07:29:11.737Z</time>
      </trkpt>
      <trkpt lat="46.5173" lon="5.42488">
        <ele>439</ele>
        <time>2021-05-29T07:29:12.737Z</time>
      </trkpt>
      <trkpt lat="46.51732" lon="5.42488">
        <ele>439</ele>
        <time>2021-05-29T07:29:13.737Z</time>
      </trkpt>
      <trkpt lat="46.51735" lon="5.42489">
        <ele>439</ele>
        <time>2021-05-29T07:29:14.737Z</time>
      </trkpt>
      <trkpt lat="46.51737" lon="5.42489">
        <ele>439</ele>
        <time>2021-05-29T07:29:15.737Z</time>
      </trkpt>
      <trkpt lat="46.51739" lon="5.42489">
        <ele>439</ele>
        <time>2021-05-29T07:29:16.737Z</time>
      </trkpt>
      <trkpt lat="46.51742" lon="5.42489">
        <ele>439</ele>
        <time>2021-05-29T07:29:17.738Z</time>
      </trkpt>
      <trkpt lat="46.51744" lon="5.42489">
        <ele>439</ele>
        <time>2021-05-29T07:29:18.738Z</time>
      </trkpt>
      <trkpt lat="46.51747" lon="5.42489">
        <ele>440</ele>
        <time>2021-05-29T07:29:19.738Z</time>
      </trkpt>
      <trkpt lat="46.51749" lon="5.42489">
        <ele>440</ele>
        <time>2021-05-29T07:29:20.737Z</time>
      </trkpt>
      <trkpt lat="46.51751" lon="5.42488">
        <ele>440</ele>
        <time>2021-05-29T07:29:21.738Z</time>
      </trkpt>
      <trkpt lat="46.51754" lon="5.42488">
        <ele>440</ele>
        <time>2021-05-29T07:29:22.738Z</time>
      </trkpt>
      <trkpt lat="46.51756" lon="5.42488">
        <ele>440</ele>
        <time>2021-05-29T07:29:23.738Z</time>
      </trkpt>
      <trkpt lat="46.51758" lon="5.42488">
        <ele>440</ele>
        <time>2021-05-29T07:29:24.738Z</time>
      </trkpt>
      <trkpt lat="46.51761" lon="5.42488">
        <ele>440</ele>
        <time>2021-05-29T07:29:25.737Z</time>
      </trkpt>
      <trkpt lat="46.51763" lon="5.42487">
        <ele>441</ele>
        <time>2021-05-29T07:29:26.738Z</time>
      </trkpt>
      <trkpt lat="46.51765" lon="5.42487">
        <ele>441</ele>
        <time>2021-05-29T07:29:27.738Z</time>
      </trkpt>
      <trkpt lat="46.51767" lon="5.42486">
        <ele>441</ele>
        <time>2021-05-29T07:29:28.738Z</time>
      </trkpt>
      <trkpt lat="46.51769" lon="5.42485">
        <ele>442</ele>
        <time>2021-05-29T07:29:29.738Z</time>
      </trkpt>
      <trkpt lat="46.51772" lon="5.42484">
        <ele>442</ele>
        <time>2021-05-29T07:29:30.738Z</time>
      </trkpt>
      <trkpt lat="46.51774" lon="5.42483">
        <ele>443</ele>
        <time>2021-05-29T07:29:31.738Z</time>
      </trkpt>
      <trkpt lat="46.51777" lon="5.42483">
        <ele>444</ele>
        <time>2021-05-29T07:29:32.738Z</time>
      </trkpt>
      <trkpt lat="46.51779" lon="5.42483">
        <ele>445</ele>
        <time>2021-05-29T07:29:33.738Z</time>
      </trkpt>
      <trkpt lat="46.51781" lon="5.42483">
        <ele>445</ele>
        <time>2021-05-29T07:29:34.738Z</time>
      </trkpt>
      <trkpt lat="46.51783" lon="5.42483">
        <ele>446</ele>
        <time>2021-05-29T07:29:35.738Z</time>
      </trkpt>
      <trkpt lat="46.51785" lon="5.42483">
        <ele>446</ele>
        <time>2021-05-29T07:29:36.738Z</time>
      </trkpt>
      <trkpt lat="46.51787" lon="5.42483">
        <ele>446</ele>
        <time>2021-05-29T07:29:37.738Z</time>
      </trkpt>
      <trkpt lat="46.5179" lon="5.42483">
        <ele>447</ele>
        <time>2021-05-29T07:29:38.738Z</time>
      </trkpt>
      <trkpt lat="46.51792" lon="5.42483">
        <ele>447</ele>
        <time>2021-05-29T07:29:39.738Z</time>
      </trkpt>
      <trkpt lat="46.51795" lon="5.42483">
        <ele>447</ele>
        <time>2021-05-29T07:29:40.738Z</time>
      </trkpt>
      <trkpt lat="46.51798" lon="5.42481">
        <ele>447</ele>
        <time>2021-05-29T07:29:41.738Z</time>
      </trkpt>
      <trkpt lat="46.518" lon="5.4248">
        <ele>447</ele>
        <time>2021-05-29T07:29:42.737Z</time>
      </trkpt>
      <trkpt lat="46.51803" lon="5.4248">
        <ele>447</ele>
        <time>2021-05-29T07:29:43.738Z</time>
      </trkpt>
      <trkpt lat="46.51805" lon="5.4248">
        <ele>447</ele>
        <time>2021-05-29T07:29:44.737Z</time>
      </trkpt>
      <trkpt lat="46.51807" lon="5.4248">
        <ele>447</ele>
        <time>2021-05-29T07:29:45.738Z</time>
      </trkpt>
      <trkpt lat="46.5181" lon="5.4248">
        <ele>447</ele>
        <time>2021-05-29T07:29:46.738Z</time>
      </trkpt>
      <trkpt lat="46.51813" lon="5.42479">
        <ele>447</ele>
        <time>2021-05-29T07:29:47.738Z</time>
      </trkpt>
      <trkpt lat="46.51815" lon="5.42479">
        <ele>447</ele>
        <time>2021-05-29T07:29:48.737Z</time>
      </trkpt>
      <trkpt lat="46.51817" lon="5.42479">
        <ele>447</ele>
        <time>2021-05-29T07:29:49.738Z</time>
      </trkpt>
      <trkpt lat="46.5182" lon="5.42479">
        <ele>446</ele>
        <time>2021-05-29T07:29:50.737Z</time>
      </trkpt>
      <trkpt lat="46.51822" lon="5.4248">
        <ele>446</ele>
        <time>2021-05-29T07:29:51.738Z</time>
      </trkpt>
      <trkpt lat="46.51824" lon="5.42481">
        <ele>446</ele>
        <time>2021-05-29T07:29:52.738Z</time>
      </trkpt>
      <trkpt lat="46.51827" lon="5.42483">
        <ele>445</ele>
        <time>2021-05-29T07:29:53.738Z</time>
      </trkpt>
      <trkpt lat="46.51829" lon="5.42484">
        <ele>445</ele>
        <time>2021-05-29T07:29:54.738Z</time>
      </trkpt>
      <trkpt lat="46.51832" lon="5.42485">
        <ele>445</ele>
        <time>2021-05-29T07:29:55.737Z</time>
      </trkpt>
      <trkpt lat="46.51834" lon="5.42486">
        <ele>444</ele>
        <time>2021-05-29T07:29:56.738Z</time>
      </trkpt>
      <trkpt lat="46.51836" lon="5.42486">
        <ele>444</ele>
        <time>2021-05-29T07:29:57.738Z</time>
      </trkpt>
      <trkpt lat="46.51839" lon="5.42487">
        <ele>444</ele>
        <time>2021-05-29T07:29:58.738Z</time>
      </trkpt>
      <trkpt lat="46.51841" lon="5.42488">
        <ele>444</ele>
        <time>2021-05-29T07:29:59.737Z</time>
      </trkpt>
      <trkpt lat="46.51843" lon="5.42489">
        <ele>445</ele>
        <time>2021-05-29T07:30:00.738Z</time>
      </trkpt>
      <trkpt lat="46.51845" lon="5.42489">
        <ele>445</ele>
        <time>2021-05-29T07:30:01.738Z</time>
      </trkpt>
      <trkpt lat="46.51847" lon="5.4249">
        <ele>445</ele>
        <time>2021-05-29T07:30:02.738Z</time>
      </trkpt>
      <trkpt lat="46.5185" lon="5.42491">
        <ele>445</ele>
        <time>2021-05-29T07:30:03.738Z</time>
      </trkpt>
      <trkpt lat="46.51852" lon="5.42492">
        <ele>445</ele>
        <time>2021-05-29T07:30:04.737Z</time>
      </trkpt>
      <trkpt lat="46.51854" lon="5.42493">
        <ele>445</ele>
        <time>2021-05-29T07:30:05.738Z</time>
      </trkpt>
      <trkpt lat="46.51856" lon="5.42494">
        <ele>445</ele>
        <time>2021-05-29T07:30:06.738Z</time>
      </trkpt>
      <trkpt lat="46.51859" lon="5.42495">
        <ele>445</ele>
        <time>2021-05-29T07:30:07.738Z</time>
      </trkpt>
      <trkpt lat="46.51862" lon="5.42495">
        <ele>445</ele>
        <time>2021-05-29T07:30:08.738Z</time>
      </trkpt>
      <trkpt lat="46.51865" lon="5.42496">
        <ele>445</ele>
        <time>2021-05-29T07:30:09.737Z</time>
      </trkpt>
      <trkpt lat="46.51867" lon="5.42497">
        <ele>446</ele>
        <time>2021-05-29T07:30:10.738Z</time>
      </trkpt>
      <trkpt lat="46.5187" lon="5.42499">
        <ele>446</ele>
        <time>2021-05-29T07:30:11.738Z</time>
      </trkpt>
      <trkpt lat="46.51872" lon="5.42501">
        <ele>446</ele>
        <time>2021-05-29T07:30:12.738Z</time>
      </trkpt>
      <trkpt lat="46.51874" lon="5.42502">
        <ele>446</ele>
        <time>2021-05-29T07:30:13.738Z</time>
      </trkpt>
      <trkpt lat="46.51876" lon="5.42503">
        <ele>446</ele>
        <time>2021-05-29T07:30:14.738Z</time>
      </trkpt>
      <trkpt lat="46.51878" lon="5.42504">
        <ele>446</ele>
        <time>2021-05-29T07:30:15.738Z</time>
      </trkpt>
      <trkpt lat="46.5188" lon="5.42505">
        <ele>446</ele>
        <time>2021-05-29T07:30:16.738Z</time>
      </trkpt>
      <trkpt lat="46.51882" lon="5.42507">
        <ele>446</ele>
        <time>2021-05-29T07:30:17.738Z</time>
      </trkpt>
      <trkpt lat="46.51884" lon="5.42508">
        <ele>447</ele>
        <time>2021-05-29T07:30:18.738Z</time>
      </trkpt>
      <trkpt lat="46.51886" lon="5.42508">
        <ele>447</ele>
        <time>2021-05-29T07:30:19.738Z</time>
      </trkpt>
      <trkpt lat="46.51888" lon="5.42509">
        <ele>447</ele>
        <time>2021-05-29T07:30:20.737Z</time>
      </trkpt>
      <trkpt lat="46.5189" lon="5.42509">
        <ele>447</ele>
        <time>2021-05-29T07:30:21.738Z</time>
      </trkpt>
      <trkpt lat="46.51892" lon="5.4251">
        <ele>446</ele>
        <time>2021-05-29T07:30:22.737Z</time>
      </trkpt>
      <trkpt lat="46.51895" lon="5.4251">
        <ele>445</ele>
        <time>2021-05-29T07:30:23.737Z</time>
      </trkpt>
      <trkpt lat="46.51898" lon="5.4251">
        <ele>445</ele>
        <time>2021-05-29T07:30:24.738Z</time>
      </trkpt>
      <trkpt lat="46.51901" lon="5.42511">
        <ele>444</ele>
        <time>2021-05-29T07:30:25.738Z</time>
      </trkpt>
      <trkpt lat="46.51904" lon="5.42511">
        <ele>443</ele>
        <time>2021-05-29T07:30:26.738Z</time>
      </trkpt>
      <trkpt lat="46.51907" lon="5.42511">
        <ele>443</ele>
        <time>2021-05-29T07:30:27.738Z</time>
      </trkpt>
      <trkpt lat="46.51911" lon="5.4251">
        <ele>442</ele>
        <time>2021-05-29T07:30:28.738Z</time>
      </trkpt>
      <trkpt lat="46.51915" lon="5.4251">
        <ele>442</ele>
        <time>2021-05-29T07:30:29.737Z</time>
      </trkpt>
      <trkpt lat="46.51918" lon="5.4251">
        <ele>441</ele>
        <time>2021-05-29T07:30:30.738Z</time>
      </trkpt>
      <trkpt lat="46.51922" lon="5.4251">
        <ele>441</ele>
        <time>2021-05-29T07:30:31.738Z</time>
      </trkpt>
      <trkpt lat="46.51926" lon="5.42509">
        <ele>440</ele>
        <time>2021-05-29T07:30:32.737Z</time>
      </trkpt>
      <trkpt lat="46.5193" lon="5.42509">
        <ele>440</ele>
        <time>2021-05-29T07:30:33.738Z</time>
      </trkpt>
      <trkpt lat="46.51933" lon="5.42508">
        <ele>439</ele>
        <time>2021-05-29T07:30:34.738Z</time>
      </trkpt>
      <trkpt lat="46.51936" lon="5.42508">
        <ele>439</ele>
        <time>2021-05-29T07:30:35.737Z</time>
      </trkpt>
      <trkpt lat="46.5194" lon="5.42508">
        <ele>439</ele>
        <time>2021-05-29T07:30:36.737Z</time>
      </trkpt>
      <trkpt lat="46.51943" lon="5.42508">
        <ele>438</ele>
        <time>2021-05-29T07:30:37.737Z</time>
      </trkpt>
      <trkpt lat="46.51946" lon="5.42508">
        <ele>438</ele>
        <time>2021-05-29T07:30:38.738Z</time>
      </trkpt>
      <trkpt lat="46.5195" lon="5.42509">
        <ele>437</ele>
        <time>2021-05-29T07:30:39.738Z</time>
      </trkpt>
      <trkpt lat="46.51953" lon="5.42509">
        <ele>437</ele>
        <time>2021-05-29T07:30:40.738Z</time>
      </trkpt>
      <trkpt lat="46.51956" lon="5.4251">
        <ele>437</ele>
        <time>2021-05-29T07:30:41.738Z</time>
      </trkpt>
      <trkpt lat="46.51959" lon="5.4251">
        <ele>436</ele>
        <time>2021-05-29T07:30:42.738Z</time>
      </trkpt>
      <trkpt lat="46.51962" lon="5.4251">
        <ele>436</ele>
        <time>2021-05-29T07:30:43.738Z</time>
      </trkpt>
      <trkpt lat="46.51964" lon="5.42511">
        <ele>436</ele>
        <time>2021-05-29T07:30:44.738Z</time>
      </trkpt>
      <trkpt lat="46.51967" lon="5.42511">
        <ele>436</ele>
        <time>2021-05-29T07:30:45.738Z</time>
      </trkpt>
      <trkpt lat="46.5197" lon="5.42511">
        <ele>436</ele>
        <time>2021-05-29T07:30:46.738Z</time>
      </trkpt>
      <trkpt lat="46.51974" lon="5.42512">
        <ele>436</ele>
        <time>2021-05-29T07:30:47.738Z</time>
      </trkpt>
      <trkpt lat="46.51976" lon="5.42513">
        <ele>436</ele>
        <time>2021-05-29T07:30:48.738Z</time>
      </trkpt>
      <trkpt lat="46.51978" lon="5.42514">
        <ele>436</ele>
        <time>2021-05-29T07:30:49.737Z</time>
      </trkpt>
      <trkpt lat="46.51981" lon="5.42515">
        <ele>436</ele>
        <time>2021-05-29T07:30:50.738Z</time>
      </trkpt>
      <trkpt lat="46.51983" lon="5.42516">
        <ele>436</ele>
        <time>2021-05-29T07:30:51.737Z</time>
      </trkpt>
      <trkpt lat="46.51985" lon="5.42517">
        <ele>436</ele>
        <time>2021-05-29T07:30:52.738Z</time>
      </trkpt>
      <trkpt lat="46.51988" lon="5.42517">
        <ele>435</ele>
        <time>2021-05-29T07:30:53.738Z</time>
      </trkpt>
      <trkpt lat="46.5199" lon="5.42518">
        <ele>435</ele>
        <time>2021-05-29T07:30:54.737Z</time>
      </trkpt>
      <trkpt lat="46.51993" lon="5.42519">
        <ele>435</ele>
        <time>2021-05-29T07:30:55.737Z</time>
      </trkpt>
      <trkpt lat="46.51995" lon="5.4252">
        <ele>434</ele>
        <time>2021-05-29T07:30:56.738Z</time>
      </trkpt>
      <trkpt lat="46.51998" lon="5.42521">
        <ele>434</ele>
        <time>2021-05-29T07:30:57.738Z</time>
      </trkpt>
      <trkpt lat="46.52" lon="5.42521">
        <ele>434</ele>
        <time>2021-05-29T07:30:58.738Z</time>
      </trkpt>
      <trkpt lat="46.52003" lon="5.42522">
        <ele>433</ele>
        <time>2021-05-29T07:30:59.737Z</time>
      </trkpt>
      <trkpt lat="46.52005" lon="5.42522">
        <ele>433</ele>
        <time>2021-05-29T07:31:00.738Z</time>
      </trkpt>
      <trkpt lat="46.52008" lon="5.42523">
        <ele>433</ele>
        <time>2021-05-29T07:31:01.738Z</time>
      </trkpt>
      <trkpt lat="46.52011" lon="5.42524">
        <ele>432</ele>
        <time>2021-05-29T07:31:02.738Z</time>
      </trkpt>
      <trkpt lat="46.52013" lon="5.42523">
        <ele>432</ele>
        <time>2021-05-29T07:31:03.738Z</time>
      </trkpt>
      <trkpt lat="46.52016" lon="5.42522">
        <ele>432</ele>
        <time>2021-05-29T07:31:04.737Z</time>
      </trkpt>
      <trkpt lat="46.52018" lon="5.42521">
        <ele>432</ele>
        <time>2021-05-29T07:31:05.738Z</time>
      </trkpt>
      <trkpt lat="46.52021" lon="5.42519">
        <ele>432</ele>
        <time>2021-05-29T07:31:06.738Z</time>
      </trkpt>
      <trkpt lat="46.52022" lon="5.42518">
        <ele>432</ele>
        <time>2021-05-29T07:31:07.737Z</time>
      </trkpt>
      <trkpt lat="46.52024" lon="5.42516">
        <ele>432</ele>
        <time>2021-05-29T07:31:08.738Z</time>
      </trkpt>
      <trkpt lat="46.52027" lon="5.42514">
        <ele>432</ele>
        <time>2021-05-29T07:31:09.737Z</time>
      </trkpt>
      <trkpt lat="46.52029" lon="5.42513">
        <ele>433</ele>
        <time>2021-05-29T07:31:10.738Z</time>
      </trkpt>
      <trkpt lat="46.52031" lon="5.42512">
        <ele>433</ele>
        <time>2021-05-29T07:31:11.738Z</time>
      </trkpt>
      <trkpt lat="46.52033" lon="5.42511">
        <ele>433</ele>
        <time>2021-05-29T07:31:12.738Z</time>
      </trkpt>
      <trkpt lat="46.52036" lon="5.42511">
        <ele>434</ele>
        <time>2021-05-29T07:31:13.738Z</time>
      </trkpt>
      <trkpt lat="46.52038" lon="5.4251">
        <ele>434</ele>
        <time>2021-05-29T07:31:14.738Z</time>
      </trkpt>
      <trkpt lat="46.5204" lon="5.42509">
        <ele>433</ele>
        <time>2021-05-29T07:31:15.738Z</time>
      </trkpt>
      <trkpt lat="46.52043" lon="5.42509">
        <ele>433</ele>
        <time>2021-05-29T07:31:16.737Z</time>
      </trkpt>
      <trkpt lat="46.52045" lon="5.42509">
        <ele>432</ele>
        <time>2021-05-29T07:31:17.738Z</time>
      </trkpt>
      <trkpt lat="46.52047" lon="5.42509">
        <ele>432</ele>
        <time>2021-05-29T07:31:18.738Z</time>
      </trkpt>
      <trkpt lat="46.52049" lon="5.42509">
        <ele>432</ele>
        <time>2021-05-29T07:31:19.738Z</time>
      </trkpt>
      <trkpt lat="46.52051" lon="5.42509">
        <ele>432</ele>
        <time>2021-05-29T07:31:20.738Z</time>
      </trkpt>
      <trkpt lat="46.52053" lon="5.4251">
        <ele>432</ele>
        <time>2021-05-29T07:31:21.737Z</time>
      </trkpt>
      <trkpt lat="46.52055" lon="5.4251">
        <ele>432</ele>
        <time>2021-05-29T07:31:22.738Z</time>
      </trkpt>
      <trkpt lat="46.52057" lon="5.42511">
        <ele>432</ele>
        <time>2021-05-29T07:31:23.738Z</time>
      </trkpt>
      <trkpt lat="46.52059" lon="5.42511">
        <ele>432</ele>
        <time>2021-05-29T07:31:24.738Z</time>
      </trkpt>
      <trkpt lat="46.52061" lon="5.42511">
        <ele>432</ele>
        <time>2021-05-29T07:31:25.738Z</time>
      </trkpt>
      <trkpt lat="46.52063" lon="5.42511">
        <ele>432</ele>
        <time>2021-05-29T07:31:26.738Z</time>
      </trkpt>
      <trkpt lat="46.52065" lon="5.42511">
        <ele>433</ele>
        <time>2021-05-29T07:31:27.738Z</time>
      </trkpt>
      <trkpt lat="46.52066" lon="5.42512">
        <ele>433</ele>
        <time>2021-05-29T07:31:28.738Z</time>
      </trkpt>
      <trkpt lat="46.52068" lon="5.42512">
        <ele>433</ele>
        <time>2021-05-29T07:31:29.737Z</time>
      </trkpt>
      <trkpt lat="46.5207" lon="5.42512">
        <ele>433</ele>
        <time>2021-05-29T07:31:30.737Z</time>
      </trkpt>
      <trkpt lat="46.52072" lon="5.42513">
        <ele>433</ele>
        <time>2021-05-29T07:31:31.738Z</time>
      </trkpt>
      <trkpt lat="46.52074" lon="5.42513">
        <ele>434</ele>
        <time>2021-05-29T07:31:32.737Z</time>
      </trkpt>
      <trkpt lat="46.52077" lon="5.42513">
        <ele>434</ele>
        <time>2021-05-29T07:31:33.738Z</time>
      </trkpt>
      <trkpt lat="46.52078" lon="5.42513">
        <ele>434</ele>
        <time>2021-05-29T07:31:34.737Z</time>
      </trkpt>
      <trkpt lat="46.5208" lon="5.42513">
        <ele>434</ele>
        <time>2021-05-29T07:31:35.738Z</time>
      </trkpt>
      <trkpt lat="46.52082" lon="5.42513">
        <ele>434</ele>
        <time>2021-05-29T07:31:36.738Z</time>
      </trkpt>
      <trkpt lat="46.52084" lon="5.42513">
        <ele>434</ele>
        <time>2021-05-29T07:31:37.738Z</time>
      </trkpt>
      <trkpt lat="46.52085" lon="5.42513">
        <ele>434</ele>
        <time>2021-05-29T07:31:38.738Z</time>
      </trkpt>
      <trkpt lat="46.52087" lon="5.42513">
        <ele>435</ele>
        <time>2021-05-29T07:31:39.737Z</time>
      </trkpt>
      <trkpt lat="46.52088" lon="5.42513">
        <ele>435</ele>
        <time>2021-05-29T07:31:40.738Z</time>
      </trkpt>
      <trkpt lat="46.5209" lon="5.42513">
        <ele>435</ele>
        <time>2021-05-29T07:31:41.738Z</time>
      </trkpt>
      <trkpt lat="46.52092" lon="5.42512">
        <ele>436</ele>
        <time>2021-05-29T07:31:42.738Z</time>
      </trkpt>
      <trkpt lat="46.52094" lon="5.42513">
        <ele>436</ele>
        <time>2021-05-29T07:31:43.738Z</time>
      </trkpt>
      <trkpt lat="46.52095" lon="5.42513">
        <ele>436</ele>
        <time>2021-05-29T07:31:44.738Z</time>
      </trkpt>
      <trkpt lat="46.52097" lon="5.42514">
        <ele>436</ele>
        <time>2021-05-29T07:31:45.738Z</time>
      </trkpt>
      <trkpt lat="46.52098" lon="5.42514">
        <ele>436</ele>
        <time>2021-05-29T07:31:46.738Z</time>
      </trkpt>
      <trkpt lat="46.521" lon="5.42514">
        <ele>436</ele>
        <time>2021-05-29T07:31:47.738Z</time>
      </trkpt>
      <trkpt lat="46.52101" lon="5.42515">
        <ele>436</ele>
        <time>2021-05-29T07:31:48.737Z</time>
      </trkpt>
      <trkpt lat="46.52103" lon="5.42515">
        <ele>436</ele>
        <time>2021-05-29T07:31:49.738Z</time>
      </trkpt>
      <trkpt lat="46.52105" lon="5.42515">
        <ele>436</ele>
        <time>2021-05-29T07:31:50.737Z</time>
      </trkpt>
      <trkpt lat="46.52107" lon="5.42515">
        <ele>436</ele>
        <time>2021-05-29T07:31:51.737Z</time>
      </trkpt>
      <trkpt lat="46.52109" lon="5.42515">
        <ele>436</ele>
        <time>2021-05-29T07:31:52.738Z</time>
      </trkpt>
      <trkpt lat="46.52111" lon="5.42515">
        <ele>437</ele>
        <time>2021-05-29T07:31:53.738Z</time>
      </trkpt>
      <trkpt lat="46.52114" lon="5.42516">
        <ele>437</ele>
        <time>2021-05-29T07:31:54.738Z</time>
      </trkpt>
      <trkpt lat="46.52115" lon="5.42516">
        <ele>437</ele>
        <time>2021-05-29T07:31:55.738Z</time>
      </trkpt>
      <trkpt lat="46.52118" lon="5.42516">
        <ele>436</ele>
        <time>2021-05-29T07:31:56.738Z</time>
      </trkpt>
      <trkpt lat="46.5212" lon="5.42516">
        <ele>436</ele>
        <time>2021-05-29T07:31:57.738Z</time>
      </trkpt>
      <trkpt lat="46.52122" lon="5.42517">
        <ele>436</ele>
        <time>2021-05-29T07:31:58.738Z</time>
      </trkpt>
      <trkpt lat="46.52125" lon="5.42518">
        <ele>436</ele>
        <time>2021-05-29T07:31:59.738Z</time>
      </trkpt>
      <trkpt lat="46.52127" lon="5.42518">
        <ele>436</ele>
        <time>2021-05-29T07:32:00.738Z</time>
      </trkpt>
      <trkpt lat="46.52129" lon="5.42518">
        <ele>436</ele>
        <time>2021-05-29T07:32:01.737Z</time>
      </trkpt>
      <trkpt lat="46.52132" lon="5.42518">
        <ele>436</ele>
        <time>2021-05-29T07:32:02.738Z</time>
      </trkpt>
      <trkpt lat="46.52134" lon="5.42519">
        <ele>436</ele>
        <time>2021-05-29T07:32:03.737Z</time>
      </trkpt>
      <trkpt lat="46.52137" lon="5.42519">
        <ele>436</ele>
        <time>2021-05-29T07:32:04.738Z</time>
      </trkpt>
      <trkpt lat="46.5214" lon="5.4252">
        <ele>436</ele>
        <time>2021-05-29T07:32:05.738Z</time>
      </trkpt>
      <trkpt lat="46.52143" lon="5.4252">
        <ele>436</ele>
        <time>2021-05-29T07:32:06.738Z</time>
      </trkpt>
      <trkpt lat="46.52146" lon="5.42521">
        <ele>436</ele>
        <time>2021-05-29T07:32:07.738Z</time>
      </trkpt>
      <trkpt lat="46.52148" lon="5.42521">
        <ele>436</ele>
        <time>2021-05-29T07:32:08.738Z</time>
      </trkpt>
      <trkpt lat="46.52151" lon="5.42521">
        <ele>436</ele>
        <time>2021-05-29T07:32:09.738Z</time>
      </trkpt>
      <trkpt lat="46.52154" lon="5.42521">
        <ele>437</ele>
        <time>2021-05-29T07:32:10.737Z</time>
      </trkpt>
      <trkpt lat="46.52157" lon="5.42522">
        <ele>437</ele>
        <time>2021-05-29T07:32:11.738Z</time>
      </trkpt>
      <trkpt lat="46.5216" lon="5.42522">
        <ele>437</ele>
        <time>2021-05-29T07:32:12.737Z</time>
      </trkpt>
      <trkpt lat="46.52163" lon="5.42522">
        <ele>437</ele>
        <time>2021-05-29T07:32:13.738Z</time>
      </trkpt>
      <trkpt lat="46.52166" lon="5.42523">
        <ele>437</ele>
        <time>2021-05-29T07:32:14.738Z</time>
      </trkpt>
      <trkpt lat="46.52169" lon="5.42523">
        <ele>437</ele>
        <time>2021-05-29T07:32:15.738Z</time>
      </trkpt>
      <trkpt lat="46.52172" lon="5.42523">
        <ele>437</ele>
        <time>2021-05-29T07:32:16.738Z</time>
      </trkpt>
      <trkpt lat="46.52175" lon="5.42524">
        <ele>436</ele>
        <time>2021-05-29T07:32:17.737Z</time>
      </trkpt>
      <trkpt lat="46.52178" lon="5.42524">
        <ele>436</ele>
        <time>2021-05-29T07:32:18.737Z</time>
      </trkpt>
      <trkpt lat="46.52182" lon="5.42524">
        <ele>436</ele>
        <time>2021-05-29T07:32:19.738Z</time>
      </trkpt>
      <trkpt lat="46.52186" lon="5.42525">
        <ele>436</ele>
        <time>2021-05-29T07:32:20.738Z</time>
      </trkpt>
      <trkpt lat="46.5219" lon="5.42526">
        <ele>436</ele>
        <time>2021-05-29T07:32:21.738Z</time>
      </trkpt>
      <trkpt lat="46.52193" lon="5.42526">
        <ele>436</ele>
        <time>2021-05-29T07:32:22.738Z</time>
      </trkpt>
      <trkpt lat="46.52196" lon="5.42526">
        <ele>436</ele>
        <time>2021-05-29T07:32:23.738Z</time>
      </trkpt>
      <trkpt lat="46.52199" lon="5.42527">
        <ele>436</ele>
        <time>2021-05-29T07:32:24.738Z</time>
      </trkpt>
      <trkpt lat="46.52202" lon="5.42527">
        <ele>436</ele>
        <time>2021-05-29T07:32:25.737Z</time>
      </trkpt>
      <trkpt lat="46.52205" lon="5.42527">
        <ele>436</ele>
        <time>2021-05-29T07:32:26.738Z</time>
      </trkpt>
      <trkpt lat="46.52208" lon="5.42527">
        <ele>436</ele>
        <time>2021-05-29T07:32:27.737Z</time>
      </trkpt>
      <trkpt lat="46.52211" lon="5.42528">
        <ele>435</ele>
        <time>2021-05-29T07:32:28.738Z</time>
      </trkpt>
      <trkpt lat="46.52213" lon="5.42528">
        <ele>435</ele>
        <time>2021-05-29T07:32:29.738Z</time>
      </trkpt>
      <trkpt lat="46.52216" lon="5.42528">
        <ele>435</ele>
        <time>2021-05-29T07:32:30.738Z</time>
      </trkpt>
      <trkpt lat="46.52218" lon="5.42529">
        <ele>435</ele>
        <time>2021-05-29T07:32:31.738Z</time>
      </trkpt>
      <trkpt lat="46.52221" lon="5.42529">
        <ele>435</ele>
        <time>2021-05-29T07:32:32.737Z</time>
      </trkpt>
      <trkpt lat="46.52223" lon="5.4253">
        <ele>435</ele>
        <time>2021-05-29T07:32:33.738Z</time>
      </trkpt>
      <trkpt lat="46.52226" lon="5.4253">
        <ele>435</ele>
        <time>2021-05-29T07:32:34.738Z</time>
      </trkpt>
      <trkpt lat="46.52228" lon="5.42531">
        <ele>434</ele>
        <time>2021-05-29T07:32:35.737Z</time>
      </trkpt>
      <trkpt lat="46.52231" lon="5.42531">
        <ele>434</ele>
        <time>2021-05-29T07:32:36.737Z</time>
      </trkpt>
      <trkpt lat="46.52233" lon="5.42532">
        <ele>434</ele>
        <time>2021-05-29T07:32:37.738Z</time>
      </trkpt>
      <trkpt lat="46.52235" lon="5.42532">
        <ele>434</ele>
        <time>2021-05-29T07:32:38.738Z</time>
      </trkpt>
      <trkpt lat="46.52237" lon="5.42533">
        <ele>434</ele>
        <time>2021-05-29T07:32:39.738Z</time>
      </trkpt>
      <trkpt lat="46.5224" lon="5.42533">
        <ele>434</ele>
        <time>2021-05-29T07:32:40.737Z</time>
      </trkpt>
      <trkpt lat="46.52242" lon="5.42534">
        <ele>434</ele>
        <time>2021-05-29T07:32:41.737Z</time>
      </trkpt>
      <trkpt lat="46.52244" lon="5.42534">
        <ele>434</ele>
        <time>2021-05-29T07:32:42.738Z</time>
      </trkpt>
      <trkpt lat="46.52247" lon="5.42535">
        <ele>434</ele>
        <time>2021-05-29T07:32:43.738Z</time>
      </trkpt>
      <trkpt lat="46.52249" lon="5.42535">
        <ele>435</ele>
        <time>2021-05-29T07:32:44.738Z</time>
      </trkpt>
      <trkpt lat="46.52251" lon="5.42536">
        <ele>435</ele>
        <time>2021-05-29T07:32:45.738Z</time>
      </trkpt>
      <trkpt lat="46.52253" lon="5.42536">
        <ele>435</ele>
        <time>2021-05-29T07:32:46.737Z</time>
      </trkpt>
      <trkpt lat="46.52255" lon="5.42537">
        <ele>435</ele>
        <time>2021-05-29T07:32:47.738Z</time>
      </trkpt>
      <trkpt lat="46.52258" lon="5.42537">
        <ele>435</ele>
        <time>2021-05-29T07:32:48.738Z</time>
      </trkpt>
      <trkpt lat="46.5226" lon="5.42538">
        <ele>435</ele>
        <time>2021-05-29T07:32:49.738Z</time>
      </trkpt>
      <trkpt lat="46.52262" lon="5.42539">
        <ele>436</ele>
        <time>2021-05-29T07:32:50.738Z</time>
      </trkpt>
      <trkpt lat="46.52264" lon="5.42539">
        <ele>436</ele>
        <time>2021-05-29T07:32:51.737Z</time>
      </trkpt>
      <trkpt lat="46.52266" lon="5.4254">
        <ele>436</ele>
        <time>2021-05-29T07:32:52.737Z</time>
      </trkpt>
      <trkpt lat="46.52269" lon="5.4254">
        <ele>436</ele>
        <time>2021-05-29T07:32:53.738Z</time>
      </trkpt>
      <trkpt lat="46.52271" lon="5.42541">
        <ele>436</ele>
        <time>2021-05-29T07:32:54.738Z</time>
      </trkpt>
      <trkpt lat="46.52272" lon="5.42541">
        <ele>436</ele>
        <time>2021-05-29T07:32:55.738Z</time>
      </trkpt>
      <trkpt lat="46.52272" lon="5.42541">
        <ele>436</ele>
        <time>2021-05-29T07:32:56.737Z</time>
      </trkpt>
      <trkpt lat="46.52272" lon="5.42541">
        <ele>436</ele>
        <time>2021-05-29T07:32:57.737Z</time>
      </trkpt>
      <trkpt lat="46.5227" lon="5.42541">
        <ele>436</ele>
        <time>2021-05-29T07:32:58.738Z</time>
      </trkpt>
      <trkpt lat="46.52269" lon="5.42541">
        <ele>437</ele>
        <time>2021-05-29T07:32:59.738Z</time>
      </trkpt>
      <trkpt lat="46.52266" lon="5.42541">
        <ele>437</ele>
        <time>2021-05-29T07:33:00.738Z</time>
      </trkpt>
      <trkpt lat="46.52263" lon="5.42541">
        <ele>437</ele>
        <time>2021-05-29T07:33:01.738Z</time>
      </trkpt>
      <trkpt lat="46.52261" lon="5.42541">
        <ele>437</ele>
        <time>2021-05-29T07:33:02.737Z</time>
      </trkpt>
      <trkpt lat="46.52258" lon="5.42541">
        <ele>438</ele>
        <time>2021-05-29T07:33:03.738Z</time>
      </trkpt>
      <trkpt lat="46.52255" lon="5.42541">
        <ele>438</ele>
        <time>2021-05-29T07:33:04.738Z</time>
      </trkpt>
      <trkpt lat="46.52253" lon="5.42541">
        <ele>439</ele>
        <time>2021-05-29T07:33:05.738Z</time>
      </trkpt>
      <trkpt lat="46.52251" lon="5.42541">
        <ele>439</ele>
        <time>2021-05-29T07:33:06.737Z</time>
      </trkpt>
      <trkpt lat="46.52248" lon="5.42541">
        <ele>440</ele>
        <time>2021-05-29T07:33:07.737Z</time>
      </trkpt>
      <trkpt lat="46.52246" lon="5.42541">
        <ele>441</ele>
        <time>2021-05-29T07:33:08.738Z</time>
      </trkpt>
      <trkpt lat="46.52244" lon="5.4254">
        <ele>442</ele>
        <time>2021-05-29T07:33:09.738Z</time>
      </trkpt>
      <trkpt lat="46.52244" lon="5.4254">
        <ele>443</ele>
        <time>2021-05-29T07:33:10.738Z</time>
      </trkpt>
      <trkpt lat="46.52244" lon="5.42539">
        <ele>443</ele>
        <time>2021-05-29T07:33:11.737Z</time>
      </trkpt>
      <trkpt lat="46.52245" lon="5.42539">
        <ele>443</ele>
        <time>2021-05-29T07:33:12.738Z</time>
      </trkpt>
      <trkpt lat="46.52247" lon="5.42538">
        <ele>444</ele>
        <time>2021-05-29T07:33:13.738Z</time>
      </trkpt>
      <trkpt lat="46.52248" lon="5.42538">
        <ele>444</ele>
        <time>2021-05-29T07:33:14.738Z</time>
      </trkpt>
      <trkpt lat="46.5225" lon="5.42538">
        <ele>443</ele>
        <time>2021-05-29T07:33:15.738Z</time>
      </trkpt>
      <trkpt lat="46.52252" lon="5.42539">
        <ele>443</ele>
        <time>2021-05-29T07:33:16.737Z</time>
      </trkpt>
      <trkpt lat="46.52254" lon="5.42539">
        <ele>442</ele>
        <time>2021-05-29T07:33:17.737Z</time>
      </trkpt>
      <trkpt lat="46.52257" lon="5.42539">
        <ele>442</ele>
        <time>2021-05-29T07:33:18.738Z</time>
      </trkpt>
      <trkpt lat="46.52259" lon="5.4254">
        <ele>441</ele>
        <time>2021-05-29T07:33:19.738Z</time>
      </trkpt>
      <trkpt lat="46.52261" lon="5.4254">
        <ele>441</ele>
        <time>2021-05-29T07:33:20.738Z</time>
      </trkpt>
      <trkpt lat="46.52263" lon="5.4254">
        <ele>440</ele>
        <time>2021-05-29T07:33:21.737Z</time>
      </trkpt>
      <trkpt lat="46.52266" lon="5.4254">
        <ele>439</ele>
        <time>2021-05-29T07:33:22.737Z</time>
      </trkpt>
      <trkpt lat="46.52268" lon="5.4254">
        <ele>439</ele>
        <time>2021-05-29T07:33:23.738Z</time>
      </trkpt>
      <trkpt lat="46.5227" lon="5.42541">
        <ele>438</ele>
        <time>2021-05-29T07:33:24.738Z</time>
      </trkpt>
      <trkpt lat="46.52272" lon="5.42541">
        <ele>438</ele>
        <time>2021-05-29T07:33:25.738Z</time>
      </trkpt>
      <trkpt lat="46.52275" lon="5.42542">
        <ele>437</ele>
        <time>2021-05-29T07:33:26.738Z</time>
      </trkpt>
      <trkpt lat="46.52278" lon="5.42542">
        <ele>437</ele>
        <time>2021-05-29T07:33:27.738Z</time>
      </trkpt>
      <trkpt lat="46.5228" lon="5.42543">
        <ele>437</ele>
        <time>2021-05-29T07:33:28.737Z</time>
      </trkpt>
      <trkpt lat="46.52282" lon="5.42543">
        <ele>437</ele>
        <time>2021-05-29T07:33:29.738Z</time>
      </trkpt>
      <trkpt lat="46.52285" lon="5.42544">
        <ele>437</ele>
        <time>2021-05-29T07:33:30.738Z</time>
      </trkpt>
      <trkpt lat="46.52287" lon="5.42544">
        <ele>437</ele>
        <time>2021-05-29T07:33:31.737Z</time>
      </trkpt>
      <trkpt lat="46.5229" lon="5.42545">
        <ele>437</ele>
        <time>2021-05-29T07:33:32.738Z</time>
      </trkpt>
      <trkpt lat="46.52292" lon="5.42545">
        <ele>437</ele>
        <time>2021-05-29T07:33:33.738Z</time>
      </trkpt>
      <trkpt lat="46.52295" lon="5.42546">
        <ele>437</ele>
        <time>2021-05-29T07:33:34.737Z</time>
      </trkpt>
      <trkpt lat="46.52297" lon="5.42546">
        <ele>437</ele>
        <time>2021-05-29T07:33:35.738Z</time>
      </trkpt>
      <trkpt lat="46.523" lon="5.42547">
        <ele>437</ele>
        <time>2021-05-29T07:33:36.738Z</time>
      </trkpt>
      <trkpt lat="46.52302" lon="5.42548">
        <ele>436</ele>
        <time>2021-05-29T07:33:37.738Z</time>
      </trkpt>
      <trkpt lat="46.52304" lon="5.42548">
        <ele>436</ele>
        <time>2021-05-29T07:33:38.738Z</time>
      </trkpt>
      <trkpt lat="46.52307" lon="5.42549">
        <ele>435</ele>
        <time>2021-05-29T07:33:39.738Z</time>
      </trkpt>
      <trkpt lat="46.52309" lon="5.42549">
        <ele>435</ele>
        <time>2021-05-29T07:33:40.738Z</time>
      </trkpt>
      <trkpt lat="46.52311" lon="5.4255">
        <ele>435</ele>
        <time>2021-05-29T07:33:41.738Z</time>
      </trkpt>
      <trkpt lat="46.52314" lon="5.4255">
        <ele>435</ele>
        <time>2021-05-29T07:33:42.738Z</time>
      </trkpt>
      <trkpt lat="46.52316" lon="5.42551">
        <ele>435</ele>
        <time>2021-05-29T07:33:43.738Z</time>
      </trkpt>
      <trkpt lat="46.52318" lon="5.42552">
        <ele>436</ele>
        <time>2021-05-29T07:33:44.738Z</time>
      </trkpt>
      <trkpt lat="46.52321" lon="5.42552">
        <ele>436</ele>
        <time>2021-05-29T07:33:45.738Z</time>
      </trkpt>
      <trkpt lat="46.52323" lon="5.42553">
        <ele>436</ele>
        <time>2021-05-29T07:33:46.738Z</time>
      </trkpt>
      <trkpt lat="46.52325" lon="5.42553">
        <ele>437</ele>
        <time>2021-05-29T07:33:47.738Z</time>
      </trkpt>
      <trkpt lat="46.52327" lon="5.42553">
        <ele>437</ele>
        <time>2021-05-29T07:33:48.738Z</time>
      </trkpt>
      <trkpt lat="46.5233" lon="5.42553">
        <ele>437</ele>
        <time>2021-05-29T07:33:49.738Z</time>
      </trkpt>
      <trkpt lat="46.52331" lon="5.42554">
        <ele>438</ele>
        <time>2021-05-29T07:33:50.737Z</time>
      </trkpt>
      <trkpt lat="46.52334" lon="5.42554">
        <ele>438</ele>
        <time>2021-05-29T07:33:51.738Z</time>
      </trkpt>
      <trkpt lat="46.52336" lon="5.42554">
        <ele>438</ele>
        <time>2021-05-29T07:33:52.738Z</time>
      </trkpt>
      <trkpt lat="46.52338" lon="5.42555">
        <ele>438</ele>
        <time>2021-05-29T07:33:53.738Z</time>
      </trkpt>
      <trkpt lat="46.5234" lon="5.42555">
        <ele>438</ele>
        <time>2021-05-29T07:33:54.737Z</time>
      </trkpt>
      <trkpt lat="46.52343" lon="5.42557">
        <ele>438</ele>
        <time>2021-05-29T07:33:55.738Z</time>
      </trkpt>
      <trkpt lat="46.52345" lon="5.42557">
        <ele>438</ele>
        <time>2021-05-29T07:33:56.738Z</time>
      </trkpt>
      <trkpt lat="46.52347" lon="5.42559">
        <ele>438</ele>
        <time>2021-05-29T07:33:57.738Z</time>
      </trkpt>
      <trkpt lat="46.52349" lon="5.42559">
        <ele>438</ele>
        <time>2021-05-29T07:33:58.738Z</time>
      </trkpt>
      <trkpt lat="46.52351" lon="5.4256">
        <ele>438</ele>
        <time>2021-05-29T07:33:59.738Z</time>
      </trkpt>
      <trkpt lat="46.52354" lon="5.42562">
        <ele>438</ele>
        <time>2021-05-29T07:34:00.738Z</time>
      </trkpt>
      <trkpt lat="46.52356" lon="5.42563">
        <ele>438</ele>
        <time>2021-05-29T07:34:01.737Z</time>
      </trkpt>
      <trkpt lat="46.52358" lon="5.42564">
        <ele>438</ele>
        <time>2021-05-29T07:34:02.738Z</time>
      </trkpt>
      <trkpt lat="46.5236" lon="5.42565">
        <ele>438</ele>
        <time>2021-05-29T07:34:03.738Z</time>
      </trkpt>
      <trkpt lat="46.52363" lon="5.42566">
        <ele>438</ele>
        <time>2021-05-29T07:34:04.738Z</time>
      </trkpt>
      <trkpt lat="46.52366" lon="5.42567">
        <ele>438</ele>
        <time>2021-05-29T07:34:05.738Z</time>
      </trkpt>
      <trkpt lat="46.52368" lon="5.42568">
        <ele>438</ele>
        <time>2021-05-29T07:34:06.738Z</time>
      </trkpt>
      <trkpt lat="46.52371" lon="5.4257">
        <ele>438</ele>
        <time>2021-05-29T07:34:07.737Z</time>
      </trkpt>
      <trkpt lat="46.52374" lon="5.42571">
        <ele>438</ele>
        <time>2021-05-29T07:34:08.738Z</time>
      </trkpt>
      <trkpt lat="46.52376" lon="5.42572">
        <ele>437</ele>
        <time>2021-05-29T07:34:09.737Z</time>
      </trkpt>
      <trkpt lat="46.52379" lon="5.42574">
        <ele>437</ele>
        <time>2021-05-29T07:34:10.738Z</time>
      </trkpt>
      <trkpt lat="46.52382" lon="5.42575">
        <ele>437</ele>
        <time>2021-05-29T07:34:11.738Z</time>
      </trkpt>
      <trkpt lat="46.52384" lon="5.42576">
        <ele>436</ele>
        <time>2021-05-29T07:34:12.738Z</time>
      </trkpt>
      <trkpt lat="46.52386" lon="5.42577">
        <ele>436</ele>
        <time>2021-05-29T07:34:13.738Z</time>
      </trkpt>
      <trkpt lat="46.52389" lon="5.42578">
        <ele>436</ele>
        <time>2021-05-29T07:34:14.738Z</time>
      </trkpt>
      <trkpt lat="46.52391" lon="5.4258">
        <ele>435</ele>
        <time>2021-05-29T07:34:15.738Z</time>
      </trkpt>
      <trkpt lat="46.52393" lon="5.42581">
        <ele>435</ele>
        <time>2021-05-29T07:34:16.738Z</time>
      </trkpt>
      <trkpt lat="46.52395" lon="5.42582">
        <ele>435</ele>
        <time>2021-05-29T07:34:17.737Z</time>
      </trkpt>
      <trkpt lat="46.52397" lon="5.42583">
        <ele>436</ele>
        <time>2021-05-29T07:34:18.738Z</time>
      </trkpt>
      <trkpt lat="46.52399" lon="5.42584">
        <ele>435</ele>
        <time>2021-05-29T07:34:19.737Z</time>
      </trkpt>
      <trkpt lat="46.52401" lon="5.42585">
        <ele>436</ele>
        <time>2021-05-29T07:34:20.737Z</time>
      </trkpt>
      <trkpt lat="46.52403" lon="5.42586">
        <ele>436</ele>
        <time>2021-05-29T07:34:21.738Z</time>
      </trkpt>
      <trkpt lat="46.52405" lon="5.42587">
        <ele>436</ele>
        <time>2021-05-29T07:34:22.738Z</time>
      </trkpt>
      <trkpt lat="46.52407" lon="5.42588">
        <ele>436</ele>
        <time>2021-05-29T07:34:23.738Z</time>
      </trkpt>
      <trkpt lat="46.52409" lon="5.42589">
        <ele>436</ele>
        <time>2021-05-29T07:34:24.738Z</time>
      </trkpt>
      <trkpt lat="46.52412" lon="5.4259">
        <ele>437</ele>
        <time>2021-05-29T07:34:25.738Z</time>
      </trkpt>
      <trkpt lat="46.52414" lon="5.42591">
        <ele>437</ele>
        <time>2021-05-29T07:34:26.738Z</time>
      </trkpt>
      <trkpt lat="46.52416" lon="5.42592">
        <ele>437</ele>
        <time>2021-05-29T07:34:27.738Z</time>
      </trkpt>
      <trkpt lat="46.52418" lon="5.42593">
        <ele>437</ele>
        <time>2021-05-29T07:34:28.738Z</time>
      </trkpt>
      <trkpt lat="46.52419" lon="5.42594">
        <ele>437</ele>
        <time>2021-05-29T07:34:29.738Z</time>
      </trkpt>
      <trkpt lat="46.5242" lon="5.42595">
        <ele>437</ele>
        <time>2021-05-29T07:34:30.738Z</time>
      </trkpt>
      <trkpt lat="46.52422" lon="5.42596">
        <ele>437</ele>
        <time>2021-05-29T07:34:31.738Z</time>
      </trkpt>
      <trkpt lat="46.52424" lon="5.42598">
        <ele>437</ele>
        <time>2021-05-29T07:34:32.738Z</time>
      </trkpt>
      <trkpt lat="46.52426" lon="5.42599">
        <ele>437</ele>
        <time>2021-05-29T07:34:33.738Z</time>
      </trkpt>
      <trkpt lat="46.52429" lon="5.42601">
        <ele>437</ele>
        <time>2021-05-29T07:34:34.738Z</time>
      </trkpt>
      <trkpt lat="46.52431" lon="5.42602">
        <ele>437</ele>
        <time>2021-05-29T07:34:35.738Z</time>
      </trkpt>
      <trkpt lat="46.52434" lon="5.42603">
        <ele>436</ele>
        <time>2021-05-29T07:34:36.738Z</time>
      </trkpt>
      <trkpt lat="46.52437" lon="5.42604">
        <ele>436</ele>
        <time>2021-05-29T07:34:37.738Z</time>
      </trkpt>
      <trkpt lat="46.5244" lon="5.42606">
        <ele>436</ele>
        <time>2021-05-29T07:34:38.738Z</time>
      </trkpt>
      <trkpt lat="46.52443" lon="5.42607">
        <ele>435</ele>
        <time>2021-05-29T07:34:39.738Z</time>
      </trkpt>
      <trkpt lat="46.52445" lon="5.42608">
        <ele>435</ele>
        <time>2021-05-29T07:34:40.738Z</time>
      </trkpt>
      <trkpt lat="46.52449" lon="5.42609">
        <ele>435</ele>
        <time>2021-05-29T07:34:41.737Z</time>
      </trkpt>
      <trkpt lat="46.52451" lon="5.42609">
        <ele>434</ele>
        <time>2021-05-29T07:34:42.738Z</time>
      </trkpt>
      <trkpt lat="46.52454" lon="5.4261">
        <ele>434</ele>
        <time>2021-05-29T07:34:43.738Z</time>
      </trkpt>
      <trkpt lat="46.52457" lon="5.42612">
        <ele>434</ele>
        <time>2021-05-29T07:34:44.737Z</time>
      </trkpt>
      <trkpt lat="46.5246" lon="5.42614">
        <ele>434</ele>
        <time>2021-05-29T07:34:45.738Z</time>
      </trkpt>
      <trkpt lat="46.52463" lon="5.42615">
        <ele>433</ele>
        <time>2021-05-29T07:34:46.738Z</time>
      </trkpt>
      <trkpt lat="46.52465" lon="5.42616">
        <ele>433</ele>
        <time>2021-05-29T07:34:47.738Z</time>
      </trkpt>
      <trkpt lat="46.52468" lon="5.42618">
        <ele>433</ele>
        <time>2021-05-29T07:34:48.738Z</time>
      </trkpt>
      <trkpt lat="46.52471" lon="5.4262">
        <ele>433</ele>
        <time>2021-05-29T07:34:49.738Z</time>
      </trkpt>
      <trkpt lat="46.52473" lon="5.42621">
        <ele>433</ele>
        <time>2021-05-29T07:34:50.738Z</time>
      </trkpt>
      <trkpt lat="46.52475" lon="5.42623">
        <ele>433</ele>
        <time>2021-05-29T07:34:51.737Z</time>
      </trkpt>
      <trkpt lat="46.52478" lon="5.42625">
        <ele>433</ele>
        <time>2021-05-29T07:34:52.738Z</time>
      </trkpt>
      <trkpt lat="46.5248" lon="5.42627">
        <ele>433</ele>
        <time>2021-05-29T07:34:53.738Z</time>
      </trkpt>
      <trkpt lat="46.52482" lon="5.42628">
        <ele>433</ele>
        <time>2021-05-29T07:34:54.737Z</time>
      </trkpt>
      <trkpt lat="46.52485" lon="5.4263">
        <ele>433</ele>
        <time>2021-05-29T07:34:55.738Z</time>
      </trkpt>
      <trkpt lat="46.52488" lon="5.42632">
        <ele>433</ele>
        <time>2021-05-29T07:34:56.738Z</time>
      </trkpt>
      <trkpt lat="46.5249" lon="5.42633">
        <ele>433</ele>
        <time>2021-05-29T07:34:57.738Z</time>
      </trkpt>
      <trkpt lat="46.52493" lon="5.42634">
        <ele>433</ele>
        <time>2021-05-29T07:34:58.737Z</time>
      </trkpt>
      <trkpt lat="46.52496" lon="5.42636">
        <ele>433</ele>
        <time>2021-05-29T07:34:59.738Z</time>
      </trkpt>
      <trkpt lat="46.52498" lon="5.42638">
        <ele>433</ele>
        <time>2021-05-29T07:35:00.737Z</time>
      </trkpt>
      <trkpt lat="46.52501" lon="5.42639">
        <ele>433</ele>
        <time>2021-05-29T07:35:01.738Z</time>
      </trkpt>
      <trkpt lat="46.52503" lon="5.4264">
        <ele>433</ele>
        <time>2021-05-29T07:35:02.737Z</time>
      </trkpt>
      <trkpt lat="46.52505" lon="5.42642">
        <ele>433</ele>
        <time>2021-05-29T07:35:03.738Z</time>
      </trkpt>
      <trkpt lat="46.52509" lon="5.42644">
        <ele>432</ele>
        <time>2021-05-29T07:35:04.737Z</time>
      </trkpt>
      <trkpt lat="46.52511" lon="5.42645">
        <ele>432</ele>
        <time>2021-05-29T07:35:05.737Z</time>
      </trkpt>
      <trkpt lat="46.52514" lon="5.42646">
        <ele>432</ele>
        <time>2021-05-29T07:35:06.738Z</time>
      </trkpt>
      <trkpt lat="46.52517" lon="5.42647">
        <ele>432</ele>
        <time>2021-05-29T07:35:07.738Z</time>
      </trkpt>
      <trkpt lat="46.52519" lon="5.42648">
        <ele>432</ele>
        <time>2021-05-29T07:35:08.738Z</time>
      </trkpt>
      <trkpt lat="46.52522" lon="5.4265">
        <ele>432</ele>
        <time>2021-05-29T07:35:09.738Z</time>
      </trkpt>
      <trkpt lat="46.52525" lon="5.42651">
        <ele>432</ele>
        <time>2021-05-29T07:35:10.738Z</time>
      </trkpt>
      <trkpt lat="46.52528" lon="5.42652">
        <ele>432</ele>
        <time>2021-05-29T07:35:11.738Z</time>
      </trkpt>
      <trkpt lat="46.5253" lon="5.42653">
        <ele>432</ele>
        <time>2021-05-29T07:35:12.737Z</time>
      </trkpt>
      <trkpt lat="46.52532" lon="5.42654">
        <ele>432</ele>
        <time>2021-05-29T07:35:13.737Z</time>
      </trkpt>
      <trkpt lat="46.52535" lon="5.42656">
        <ele>432</ele>
        <time>2021-05-29T07:35:14.738Z</time>
      </trkpt>
      <trkpt lat="46.52538" lon="5.42657">
        <ele>432</ele>
        <time>2021-05-29T07:35:15.738Z</time>
      </trkpt>
      <trkpt lat="46.5254" lon="5.42659">
        <ele>432</ele>
        <time>2021-05-29T07:35:16.738Z</time>
      </trkpt>
      <trkpt lat="46.52543" lon="5.4266">
        <ele>432</ele>
        <time>2021-05-29T07:35:17.737Z</time>
      </trkpt>
      <trkpt lat="46.52546" lon="5.42661">
        <ele>431</ele>
        <time>2021-05-29T07:35:18.737Z</time>
      </trkpt>
      <trkpt lat="46.52548" lon="5.42663">
        <ele>431</ele>
        <time>2021-05-29T07:35:19.738Z</time>
      </trkpt>
      <trkpt lat="46.5255" lon="5.42664">
        <ele>431</ele>
        <time>2021-05-29T07:35:20.738Z</time>
      </trkpt>
      <trkpt lat="46.52553" lon="5.42665">
        <ele>431</ele>
        <time>2021-05-29T07:35:21.738Z</time>
      </trkpt>
      <trkpt lat="46.52555" lon="5.42667">
        <ele>430</ele>
        <time>2021-05-29T07:35:22.737Z</time>
      </trkpt>
      <trkpt lat="46.52557" lon="5.42668">
        <ele>430</ele>
        <time>2021-05-29T07:35:23.738Z</time>
      </trkpt>
      <trkpt lat="46.52561" lon="5.42669">
        <ele>430</ele>
        <time>2021-05-29T07:35:24.737Z</time>
      </trkpt>
      <trkpt lat="46.52563" lon="5.42671">
        <ele>430</ele>
        <time>2021-05-29T07:35:25.738Z</time>
      </trkpt>
      <trkpt lat="46.52566" lon="5.42673">
        <ele>430</ele>
        <time>2021-05-29T07:35:26.738Z</time>
      </trkpt>
      <trkpt lat="46.52568" lon="5.42674">
        <ele>430</ele>
        <time>2021-05-29T07:35:27.738Z</time>
      </trkpt>
      <trkpt lat="46.52571" lon="5.42676">
        <ele>430</ele>
        <time>2021-05-29T07:35:28.738Z</time>
      </trkpt>
      <trkpt lat="46.52573" lon="5.42678">
        <ele>430</ele>
        <time>2021-05-29T07:35:29.738Z</time>
      </trkpt>
      <trkpt lat="46.52576" lon="5.42679">
        <ele>430</ele>
        <time>2021-05-29T07:35:30.737Z</time>
      </trkpt>
      <trkpt lat="46.52578" lon="5.42681">
        <ele>430</ele>
        <time>2021-05-29T07:35:31.738Z</time>
      </trkpt>
      <trkpt lat="46.5258" lon="5.42683">
        <ele>430</ele>
        <time>2021-05-29T07:35:32.738Z</time>
      </trkpt>
      <trkpt lat="46.52582" lon="5.42685">
        <ele>430</ele>
        <time>2021-05-29T07:35:33.738Z</time>
      </trkpt>
      <trkpt lat="46.52585" lon="5.42687">
        <ele>430</ele>
        <time>2021-05-29T07:35:34.737Z</time>
      </trkpt>
      <trkpt lat="46.52587" lon="5.42689">
        <ele>430</ele>
        <time>2021-05-29T07:35:35.738Z</time>
      </trkpt>
      <trkpt lat="46.52589" lon="5.4269">
        <ele>429</ele>
        <time>2021-05-29T07:35:36.738Z</time>
      </trkpt>
      <trkpt lat="46.52592" lon="5.42692">
        <ele>429</ele>
        <time>2021-05-29T07:35:37.738Z</time>
      </trkpt>
      <trkpt lat="46.52594" lon="5.42694">
        <ele>428</ele>
        <time>2021-05-29T07:35:38.738Z</time>
      </trkpt>
      <trkpt lat="46.52597" lon="5.42696">
        <ele>428</ele>
        <time>2021-05-29T07:35:39.738Z</time>
      </trkpt>
      <trkpt lat="46.52599" lon="5.42698">
        <ele>428</ele>
        <time>2021-05-29T07:35:40.737Z</time>
      </trkpt>
      <trkpt lat="46.52601" lon="5.42701">
        <ele>428</ele>
        <time>2021-05-29T07:35:41.738Z</time>
      </trkpt>
      <trkpt lat="46.52603" lon="5.42702">
        <ele>428</ele>
        <time>2021-05-29T07:35:42.738Z</time>
      </trkpt>
      <trkpt lat="46.52606" lon="5.42705">
        <ele>428</ele>
        <time>2021-05-29T07:35:43.737Z</time>
      </trkpt>
      <trkpt lat="46.52607" lon="5.42707">
        <ele>428</ele>
        <time>2021-05-29T07:35:44.737Z</time>
      </trkpt>
      <trkpt lat="46.5261" lon="5.42709">
        <ele>428</ele>
        <time>2021-05-29T07:35:45.737Z</time>
      </trkpt>
      <trkpt lat="46.52613" lon="5.42711">
        <ele>428</ele>
        <time>2021-05-29T07:35:46.738Z</time>
      </trkpt>
      <trkpt lat="46.52615" lon="5.42713">
        <ele>428</ele>
        <time>2021-05-29T07:35:47.737Z</time>
      </trkpt>
      <trkpt lat="46.52617" lon="5.42715">
        <ele>427</ele>
        <time>2021-05-29T07:35:48.737Z</time>
      </trkpt>
      <trkpt lat="46.52619" lon="5.42717">
        <ele>427</ele>
        <time>2021-05-29T07:35:49.738Z</time>
      </trkpt>
      <trkpt lat="46.52622" lon="5.42719">
        <ele>427</ele>
        <time>2021-05-29T07:35:50.738Z</time>
      </trkpt>
      <trkpt lat="46.52624" lon="5.42721">
        <ele>426</ele>
        <time>2021-05-29T07:35:51.738Z</time>
      </trkpt>
      <trkpt lat="46.52626" lon="5.42723">
        <ele>426</ele>
        <time>2021-05-29T07:35:52.738Z</time>
      </trkpt>
      <trkpt lat="46.52628" lon="5.42725">
        <ele>425</ele>
        <time>2021-05-29T07:35:53.738Z</time>
      </trkpt>
      <trkpt lat="46.5263" lon="5.42727">
        <ele>425</ele>
        <time>2021-05-29T07:35:54.737Z</time>
      </trkpt>
      <trkpt lat="46.52633" lon="5.4273">
        <ele>425</ele>
        <time>2021-05-29T07:35:55.738Z</time>
      </trkpt>
      <trkpt lat="46.52635" lon="5.42732">
        <ele>425</ele>
        <time>2021-05-29T07:35:56.738Z</time>
      </trkpt>
      <trkpt lat="46.52638" lon="5.42734">
        <ele>425</ele>
        <time>2021-05-29T07:35:57.738Z</time>
      </trkpt>
      <trkpt lat="46.5264" lon="5.42736">
        <ele>425</ele>
        <time>2021-05-29T07:35:58.738Z</time>
      </trkpt>
      <trkpt lat="46.52642" lon="5.42738">
        <ele>425</ele>
        <time>2021-05-29T07:35:59.738Z</time>
      </trkpt>
      <trkpt lat="46.52644" lon="5.4274">
        <ele>425</ele>
        <time>2021-05-29T07:36:00.737Z</time>
      </trkpt>
      <trkpt lat="46.52647" lon="5.42742">
        <ele>424</ele>
        <time>2021-05-29T07:36:01.738Z</time>
      </trkpt>
      <trkpt lat="46.52649" lon="5.42744">
        <ele>424</ele>
        <time>2021-05-29T07:36:02.738Z</time>
      </trkpt>
      <trkpt lat="46.52651" lon="5.42746">
        <ele>424</ele>
        <time>2021-05-29T07:36:03.738Z</time>
      </trkpt>
      <trkpt lat="46.52653" lon="5.42748">
        <ele>423</ele>
        <time>2021-05-29T07:36:04.738Z</time>
      </trkpt>
      <trkpt lat="46.52656" lon="5.4275">
        <ele>423</ele>
        <time>2021-05-29T07:36:05.737Z</time>
      </trkpt>
      <trkpt lat="46.52658" lon="5.42752">
        <ele>423</ele>
        <time>2021-05-29T07:36:06.738Z</time>
      </trkpt>
      <trkpt lat="46.52661" lon="5.42754">
        <ele>423</ele>
        <time>2021-05-29T07:36:07.738Z</time>
      </trkpt>
      <trkpt lat="46.52662" lon="5.42756">
        <ele>423</ele>
        <time>2021-05-29T07:36:08.738Z</time>
      </trkpt>
      <trkpt lat="46.52665" lon="5.42757">
        <ele>422</ele>
        <time>2021-05-29T07:36:09.738Z</time>
      </trkpt>
      <trkpt lat="46.52667" lon="5.4276">
        <ele>422</ele>
        <time>2021-05-29T07:36:10.738Z</time>
      </trkpt>
      <trkpt lat="46.5267" lon="5.42762">
        <ele>422</ele>
        <time>2021-05-29T07:36:11.737Z</time>
      </trkpt>
      <trkpt lat="46.52671" lon="5.42763">
        <ele>422</ele>
        <time>2021-05-29T07:36:12.737Z</time>
      </trkpt>
      <trkpt lat="46.52674" lon="5.42765">
        <ele>422</ele>
        <time>2021-05-29T07:36:13.738Z</time>
      </trkpt>
      <trkpt lat="46.52676" lon="5.42767">
        <ele>422</ele>
        <time>2021-05-29T07:36:14.738Z</time>
      </trkpt>
      <trkpt lat="46.52679" lon="5.42769">
        <ele>422</ele>
        <time>2021-05-29T07:36:15.738Z</time>
      </trkpt>
      <trkpt lat="46.52681" lon="5.4277">
        <ele>422</ele>
        <time>2021-05-29T07:36:16.738Z</time>
      </trkpt>
      <trkpt lat="46.52683" lon="5.42772">
        <ele>422</ele>
        <time>2021-05-29T07:36:17.738Z</time>
      </trkpt>
      <trkpt lat="46.52686" lon="5.42774">
        <ele>422</ele>
        <time>2021-05-29T07:36:18.738Z</time>
      </trkpt>
      <trkpt lat="46.52688" lon="5.42775">
        <ele>422</ele>
        <time>2021-05-29T07:36:19.738Z</time>
      </trkpt>
      <trkpt lat="46.5269" lon="5.42777">
        <ele>422</ele>
        <time>2021-05-29T07:36:20.738Z</time>
      </trkpt>
      <trkpt lat="46.52692" lon="5.42778">
        <ele>422</ele>
        <time>2021-05-29T07:36:21.737Z</time>
      </trkpt>
      <trkpt lat="46.52694" lon="5.4278">
        <ele>422</ele>
        <time>2021-05-29T07:36:22.738Z</time>
      </trkpt>
      <trkpt lat="46.52695" lon="5.42781">
        <ele>422</ele>
        <time>2021-05-29T07:36:23.738Z</time>
      </trkpt>
      <trkpt lat="46.52697" lon="5.42782">
        <ele>422</ele>
        <time>2021-05-29T07:36:24.738Z</time>
      </trkpt>
      <trkpt lat="46.52699" lon="5.42784">
        <ele>422</ele>
        <time>2021-05-29T07:36:25.738Z</time>
      </trkpt>
      <trkpt lat="46.52701" lon="5.42786">
        <ele>422</ele>
        <time>2021-05-29T07:36:26.738Z</time>
      </trkpt>
      <trkpt lat="46.52703" lon="5.42787">
        <ele>422</ele>
        <time>2021-05-29T07:36:27.737Z</time>
      </trkpt>
      <trkpt lat="46.52705" lon="5.42788">
        <ele>422</ele>
        <time>2021-05-29T07:36:28.738Z</time>
      </trkpt>
      <trkpt lat="46.52707" lon="5.4279">
        <ele>422</ele>
        <time>2021-05-29T07:36:29.738Z</time>
      </trkpt>
      <trkpt lat="46.5271" lon="5.42792">
        <ele>422</ele>
        <time>2021-05-29T07:36:30.738Z</time>
      </trkpt>
      <trkpt lat="46.52712" lon="5.42793">
        <ele>422</ele>
        <time>2021-05-29T07:36:31.738Z</time>
      </trkpt>
      <trkpt lat="46.52715" lon="5.42795">
        <ele>421</ele>
        <time>2021-05-29T07:36:32.738Z</time>
      </trkpt>
      <trkpt lat="46.52717" lon="5.42797">
        <ele>422</ele>
        <time>2021-05-29T07:36:33.738Z</time>
      </trkpt>
      <trkpt lat="46.52719" lon="5.42798">
        <ele>422</ele>
        <time>2021-05-29T07:36:34.738Z</time>
      </trkpt>
      <trkpt lat="46.52721" lon="5.428">
        <ele>421</ele>
        <time>2021-05-29T07:36:35.738Z</time>
      </trkpt>
      <trkpt lat="46.52724" lon="5.42802">
        <ele>421</ele>
        <time>2021-05-29T07:36:36.738Z</time>
      </trkpt>
      <trkpt lat="46.52726" lon="5.42804">
        <ele>421</ele>
        <time>2021-05-29T07:36:37.738Z</time>
      </trkpt>
      <trkpt lat="46.52727" lon="5.42805">
        <ele>421</ele>
        <time>2021-05-29T07:36:38.738Z</time>
      </trkpt>
      <trkpt lat="46.5273" lon="5.42807">
        <ele>421</ele>
        <time>2021-05-29T07:36:39.737Z</time>
      </trkpt>
      <trkpt lat="46.52733" lon="5.42809">
        <ele>421</ele>
        <time>2021-05-29T07:36:40.738Z</time>
      </trkpt>
      <trkpt lat="46.52735" lon="5.4281">
        <ele>421</ele>
        <time>2021-05-29T07:36:41.738Z</time>
      </trkpt>
      <trkpt lat="46.52737" lon="5.42812">
        <ele>420</ele>
        <time>2021-05-29T07:36:42.738Z</time>
      </trkpt>
      <trkpt lat="46.52739" lon="5.42814">
        <ele>420</ele>
        <time>2021-05-29T07:36:43.738Z</time>
      </trkpt>
      <trkpt lat="46.52741" lon="5.42816">
        <ele>420</ele>
        <time>2021-05-29T07:36:44.738Z</time>
      </trkpt>
      <trkpt lat="46.52744" lon="5.42817">
        <ele>420</ele>
        <time>2021-05-29T07:36:45.738Z</time>
      </trkpt>
      <trkpt lat="46.52746" lon="5.42819">
        <ele>420</ele>
        <time>2021-05-29T07:36:46.738Z</time>
      </trkpt>
      <trkpt lat="46.52748" lon="5.42821">
        <ele>420</ele>
        <time>2021-05-29T07:36:47.738Z</time>
      </trkpt>
      <trkpt lat="46.5275" lon="5.42822">
        <ele>419</ele>
        <time>2021-05-29T07:36:48.738Z</time>
      </trkpt>
      <trkpt lat="46.52752" lon="5.42824">
        <ele>419</ele>
        <time>2021-05-29T07:36:49.738Z</time>
      </trkpt>
      <trkpt lat="46.52755" lon="5.42826">
        <ele>419</ele>
        <time>2021-05-29T07:36:50.738Z</time>
      </trkpt>
      <trkpt lat="46.52757" lon="5.42828">
        <ele>419</ele>
        <time>2021-05-29T07:36:51.738Z</time>
      </trkpt>
      <trkpt lat="46.52759" lon="5.42829">
        <ele>419</ele>
        <time>2021-05-29T07:36:52.737Z</time>
      </trkpt>
      <trkpt lat="46.52762" lon="5.42831">
        <ele>419</ele>
        <time>2021-05-29T07:36:53.738Z</time>
      </trkpt>
      <trkpt lat="46.52763" lon="5.42833">
        <ele>419</ele>
        <time>2021-05-29T07:36:54.738Z</time>
      </trkpt>
      <trkpt lat="46.52766" lon="5.42835">
        <ele>419</ele>
        <time>2021-05-29T07:36:55.737Z</time>
      </trkpt>
      <trkpt lat="46.52768" lon="5.42837">
        <ele>419</ele>
        <time>2021-05-29T07:36:56.737Z</time>
      </trkpt>
      <trkpt lat="46.5277" lon="5.42838">
        <ele>419</ele>
        <time>2021-05-29T07:36:57.738Z</time>
      </trkpt>
      <trkpt lat="46.52772" lon="5.4284">
        <ele>419</ele>
        <time>2021-05-29T07:36:58.738Z</time>
      </trkpt>
      <trkpt lat="46.52774" lon="5.42841">
        <ele>418</ele>
        <time>2021-05-29T07:36:59.738Z</time>
      </trkpt>
      <trkpt lat="46.52777" lon="5.42843">
        <ele>418</ele>
        <time>2021-05-29T07:37:00.738Z</time>
      </trkpt>
      <trkpt lat="46.52779" lon="5.42845">
        <ele>418</ele>
        <time>2021-05-29T07:37:01.738Z</time>
      </trkpt>
      <trkpt lat="46.52781" lon="5.42847">
        <ele>417</ele>
        <time>2021-05-29T07:37:02.737Z</time>
      </trkpt>
      <trkpt lat="46.52784" lon="5.42848">
        <ele>418</ele>
        <time>2021-05-29T07:37:03.738Z</time>
      </trkpt>
      <trkpt lat="46.52785" lon="5.4285">
        <ele>418</ele>
        <time>2021-05-29T07:37:04.738Z</time>
      </trkpt>
      <trkpt lat="46.52787" lon="5.42852">
        <ele>418</ele>
        <time>2021-05-29T07:37:05.737Z</time>
      </trkpt>
      <trkpt lat="46.52789" lon="5.42853">
        <ele>418</ele>
        <time>2021-05-29T07:37:06.737Z</time>
      </trkpt>
      <trkpt lat="46.52789" lon="5.42853">
        <ele>419</ele>
        <time>2021-05-29T07:37:07.737Z</time>
      </trkpt>
      <trkpt lat="46.5279" lon="5.42854">
        <ele>419</ele>
        <time>2021-05-29T07:37:08.737Z</time>
      </trkpt>
      <trkpt lat="46.52791" lon="5.42855">
        <ele>419</ele>
        <time>2021-05-29T07:37:09.737Z</time>
      </trkpt>
      <trkpt lat="46.52792" lon="5.42857">
        <ele>419</ele>
        <time>2021-05-29T07:37:10.738Z</time>
      </trkpt>
      <trkpt lat="46.52794" lon="5.42858">
        <ele>420</ele>
        <time>2021-05-29T07:37:11.737Z</time>
      </trkpt>
      <trkpt lat="46.52796" lon="5.42859">
        <ele>420</ele>
        <time>2021-05-29T07:37:12.738Z</time>
      </trkpt>
      <trkpt lat="46.52798" lon="5.42861">
        <ele>419</ele>
        <time>2021-05-29T07:37:13.738Z</time>
      </trkpt>
      <trkpt lat="46.528" lon="5.42862">
        <ele>419</ele>
        <time>2021-05-29T07:37:14.738Z</time>
      </trkpt>
      <trkpt lat="46.52802" lon="5.42864">
        <ele>419</ele>
        <time>2021-05-29T07:37:15.738Z</time>
      </trkpt>
      <trkpt lat="46.52804" lon="5.42866">
        <ele>419</ele>
        <time>2021-05-29T07:37:16.738Z</time>
      </trkpt>
      <trkpt lat="46.52806" lon="5.42868">
        <ele>418</ele>
        <time>2021-05-29T07:37:17.738Z</time>
      </trkpt>
      <trkpt lat="46.52809" lon="5.4287">
        <ele>418</ele>
        <time>2021-05-29T07:37:18.738Z</time>
      </trkpt>
      <trkpt lat="46.52811" lon="5.42872">
        <ele>418</ele>
        <time>2021-05-29T07:37:19.738Z</time>
      </trkpt>
      <trkpt lat="46.52814" lon="5.42873">
        <ele>418</ele>
        <time>2021-05-29T07:37:20.738Z</time>
      </trkpt>
      <trkpt lat="46.52816" lon="5.42875">
        <ele>417</ele>
        <time>2021-05-29T07:37:21.738Z</time>
      </trkpt>
      <trkpt lat="46.52818" lon="5.42876">
        <ele>417</ele>
        <time>2021-05-29T07:37:22.737Z</time>
      </trkpt>
      <trkpt lat="46.52821" lon="5.42878">
        <ele>417</ele>
        <time>2021-05-29T07:37:23.738Z</time>
      </trkpt>
      <trkpt lat="46.52823" lon="5.42879">
        <ele>417</ele>
        <time>2021-05-29T07:37:24.738Z</time>
      </trkpt>
      <trkpt lat="46.52826" lon="5.42881">
        <ele>417</ele>
        <time>2021-05-29T07:37:25.738Z</time>
      </trkpt>
      <trkpt lat="46.52829" lon="5.42882">
        <ele>416</ele>
        <time>2021-05-29T07:37:26.738Z</time>
      </trkpt>
      <trkpt lat="46.52831" lon="5.42884">
        <ele>415</ele>
        <time>2021-05-29T07:37:27.738Z</time>
      </trkpt>
      <trkpt lat="46.52834" lon="5.42885">
        <ele>415</ele>
        <time>2021-05-29T07:37:28.737Z</time>
      </trkpt>
      <trkpt lat="46.52836" lon="5.42887">
        <ele>414</ele>
        <time>2021-05-29T07:37:29.738Z</time>
      </trkpt>
      <trkpt lat="46.52839" lon="5.42889">
        <ele>414</ele>
        <time>2021-05-29T07:37:30.738Z</time>
      </trkpt>
      <trkpt lat="46.52842" lon="5.42892">
        <ele>414</ele>
        <time>2021-05-29T07:37:31.738Z</time>
      </trkpt>
      <trkpt lat="46.52843" lon="5.42893">
        <ele>414</ele>
        <time>2021-05-29T07:37:32.738Z</time>
      </trkpt>
      <trkpt lat="46.52846" lon="5.42895">
        <ele>414</ele>
        <time>2021-05-29T07:37:33.737Z</time>
      </trkpt>
      <trkpt lat="46.52848" lon="5.42897">
        <ele>414</ele>
        <time>2021-05-29T07:37:34.738Z</time>
      </trkpt>
      <trkpt lat="46.52851" lon="5.42898">
        <ele>414</ele>
        <time>2021-05-29T07:37:35.738Z</time>
      </trkpt>
      <trkpt lat="46.52854" lon="5.429">
        <ele>414</ele>
        <time>2021-05-29T07:37:36.738Z</time>
      </trkpt>
      <trkpt lat="46.52856" lon="5.42901">
        <ele>414</ele>
        <time>2021-05-29T07:37:37.738Z</time>
      </trkpt>
      <trkpt lat="46.52859" lon="5.42903">
        <ele>414</ele>
        <time>2021-05-29T07:37:38.738Z</time>
      </trkpt>
      <trkpt lat="46.52861" lon="5.42904">
        <ele>413</ele>
        <time>2021-05-29T07:37:39.738Z</time>
      </trkpt>
      <trkpt lat="46.52863" lon="5.42906">
        <ele>413</ele>
        <time>2021-05-29T07:37:40.738Z</time>
      </trkpt>
      <trkpt lat="46.52866" lon="5.42908">
        <ele>413</ele>
        <time>2021-05-29T07:37:41.738Z</time>
      </trkpt>
      <trkpt lat="46.52868" lon="5.42909">
        <ele>413</ele>
        <time>2021-05-29T07:37:42.738Z</time>
      </trkpt>
      <trkpt lat="46.52871" lon="5.42911">
        <ele>413</ele>
        <time>2021-05-29T07:37:43.737Z</time>
      </trkpt>
      <trkpt lat="46.52874" lon="5.42913">
        <ele>413</ele>
        <time>2021-05-29T07:37:44.738Z</time>
      </trkpt>
      <trkpt lat="46.52875" lon="5.42915">
        <ele>413</ele>
        <time>2021-05-29T07:37:45.737Z</time>
      </trkpt>
      <trkpt lat="46.52878" lon="5.42917">
        <ele>413</ele>
        <time>2021-05-29T07:37:46.738Z</time>
      </trkpt>
      <trkpt lat="46.5288" lon="5.42918">
        <ele>413</ele>
        <time>2021-05-29T07:37:47.737Z</time>
      </trkpt>
      <trkpt lat="46.52882" lon="5.4292">
        <ele>413</ele>
        <time>2021-05-29T07:37:48.737Z</time>
      </trkpt>
      <trkpt lat="46.52884" lon="5.42922">
        <ele>413</ele>
        <time>2021-05-29T07:37:49.738Z</time>
      </trkpt>
      <trkpt lat="46.52887" lon="5.42923">
        <ele>413</ele>
        <time>2021-05-29T07:37:50.738Z</time>
      </trkpt>
      <trkpt lat="46.5289" lon="5.42924">
        <ele>413</ele>
        <time>2021-05-29T07:37:51.738Z</time>
      </trkpt>
      <trkpt lat="46.52892" lon="5.42926">
        <ele>413</ele>
        <time>2021-05-29T07:37:52.738Z</time>
      </trkpt>
      <trkpt lat="46.52894" lon="5.42927">
        <ele>413</ele>
        <time>2021-05-29T07:37:53.738Z</time>
      </trkpt>
      <trkpt lat="46.52897" lon="5.42928">
        <ele>413</ele>
        <time>2021-05-29T07:37:54.738Z</time>
      </trkpt>
      <trkpt lat="46.529" lon="5.4293">
        <ele>413</ele>
        <time>2021-05-29T07:37:55.737Z</time>
      </trkpt>
      <trkpt lat="46.52902" lon="5.42932">
        <ele>413</ele>
        <time>2021-05-29T07:37:56.738Z</time>
      </trkpt>
      <trkpt lat="46.52905" lon="5.42934">
        <ele>412</ele>
        <time>2021-05-29T07:37:57.738Z</time>
      </trkpt>
      <trkpt lat="46.52907" lon="5.42936">
        <ele>412</ele>
        <time>2021-05-29T07:37:58.738Z</time>
      </trkpt>
      <trkpt lat="46.52909" lon="5.42937">
        <ele>413</ele>
        <time>2021-05-29T07:37:59.737Z</time>
      </trkpt>
      <trkpt lat="46.52912" lon="5.42939">
        <ele>413</ele>
        <time>2021-05-29T07:38:00.738Z</time>
      </trkpt>
      <trkpt lat="46.52914" lon="5.42941">
        <ele>413</ele>
        <time>2021-05-29T07:38:01.738Z</time>
      </trkpt>
      <trkpt lat="46.52916" lon="5.42942">
        <ele>413</ele>
        <time>2021-05-29T07:38:02.738Z</time>
      </trkpt>
      <trkpt lat="46.52919" lon="5.42943">
        <ele>413</ele>
        <time>2021-05-29T07:38:03.737Z</time>
      </trkpt>
      <trkpt lat="46.52921" lon="5.42945">
        <ele>413</ele>
        <time>2021-05-29T07:38:04.737Z</time>
      </trkpt>
      <trkpt lat="46.52924" lon="5.42947">
        <ele>413</ele>
        <time>2021-05-29T07:38:05.737Z</time>
      </trkpt>
      <trkpt lat="46.52926" lon="5.42948">
        <ele>413</ele>
        <time>2021-05-29T07:38:06.737Z</time>
      </trkpt>
      <trkpt lat="46.52929" lon="5.42949">
        <ele>413</ele>
        <time>2021-05-29T07:38:07.738Z</time>
      </trkpt>
      <trkpt lat="46.5293" lon="5.42949">
        <ele>413</ele>
        <time>2021-05-29T07:38:08.738Z</time>
      </trkpt>
      <trkpt lat="46.52933" lon="5.4295">
        <ele>413</ele>
        <time>2021-05-29T07:38:09.738Z</time>
      </trkpt>
      <trkpt lat="46.52936" lon="5.42951">
        <ele>413</ele>
        <time>2021-05-29T07:38:10.738Z</time>
      </trkpt>
      <trkpt lat="46.52938" lon="5.42951">
        <ele>413</ele>
        <time>2021-05-29T07:38:11.738Z</time>
      </trkpt>
      <trkpt lat="46.52941" lon="5.42952">
        <ele>413</ele>
        <time>2021-05-29T07:38:12.738Z</time>
      </trkpt>
      <trkpt lat="46.52943" lon="5.42952">
        <ele>413</ele>
        <time>2021-05-29T07:38:13.738Z</time>
      </trkpt>
      <trkpt lat="46.52945" lon="5.42952">
        <ele>413</ele>
        <time>2021-05-29T07:38:14.738Z</time>
      </trkpt>
      <trkpt lat="46.52948" lon="5.42952">
        <ele>413</ele>
        <time>2021-05-29T07:38:15.738Z</time>
      </trkpt>
      <trkpt lat="46.52951" lon="5.42952">
        <ele>413</ele>
        <time>2021-05-29T07:38:16.738Z</time>
      </trkpt>
      <trkpt lat="46.52953" lon="5.42951">
        <ele>413</ele>
        <time>2021-05-29T07:38:17.738Z</time>
      </trkpt>
      <trkpt lat="46.52955" lon="5.42951">
        <ele>414</ele>
        <time>2021-05-29T07:38:18.738Z</time>
      </trkpt>
      <trkpt lat="46.52957" lon="5.4295">
        <ele>414</ele>
        <time>2021-05-29T07:38:19.738Z</time>
      </trkpt>
      <trkpt lat="46.5296" lon="5.42949">
        <ele>414</ele>
        <time>2021-05-29T07:38:20.738Z</time>
      </trkpt>
      <trkpt lat="46.52962" lon="5.42948">
        <ele>415</ele>
        <time>2021-05-29T07:38:21.737Z</time>
      </trkpt>
      <trkpt lat="46.52964" lon="5.42947">
        <ele>415</ele>
        <time>2021-05-29T07:38:22.737Z</time>
      </trkpt>
      <trkpt lat="46.52967" lon="5.42947">
        <ele>415</ele>
        <time>2021-05-29T07:38:23.738Z</time>
      </trkpt>
      <trkpt lat="46.52969" lon="5.42946">
        <ele>415</ele>
        <time>2021-05-29T07:38:24.738Z</time>
      </trkpt>
      <trkpt lat="46.52972" lon="5.42945">
        <ele>415</ele>
        <time>2021-05-29T07:38:25.738Z</time>
      </trkpt>
      <trkpt lat="46.52974" lon="5.42945">
        <ele>415</ele>
        <time>2021-05-29T07:38:26.738Z</time>
      </trkpt>
      <trkpt lat="46.52977" lon="5.42944">
        <ele>415</ele>
        <time>2021-05-29T07:38:27.738Z</time>
      </trkpt>
      <trkpt lat="46.52979" lon="5.42943">
        <ele>414</ele>
        <time>2021-05-29T07:38:28.738Z</time>
      </trkpt>
      <trkpt lat="46.5298" lon="5.42943">
        <ele>414</ele>
        <time>2021-05-29T07:38:29.738Z</time>
      </trkpt>
      <trkpt lat="46.52983" lon="5.42942">
        <ele>414</ele>
        <time>2021-05-29T07:38:30.738Z</time>
      </trkpt>
      <trkpt lat="46.52986" lon="5.42941">
        <ele>413</ele>
        <time>2021-05-29T07:38:31.738Z</time>
      </trkpt>
      <trkpt lat="46.52988" lon="5.42941">
        <ele>413</ele>
        <time>2021-05-29T07:38:32.738Z</time>
      </trkpt>
      <trkpt lat="46.5299" lon="5.4294">
        <ele>412</ele>
        <time>2021-05-29T07:38:33.738Z</time>
      </trkpt>
      <trkpt lat="46.52993" lon="5.4294">
        <ele>412</ele>
        <time>2021-05-29T07:38:34.737Z</time>
      </trkpt>
      <trkpt lat="46.52994" lon="5.42939">
        <ele>412</ele>
        <time>2021-05-29T07:38:35.738Z</time>
      </trkpt>
      <trkpt lat="46.52997" lon="5.42938">
        <ele>412</ele>
        <time>2021-05-29T07:38:36.737Z</time>
      </trkpt>
      <trkpt lat="46.52999" lon="5.42937">
        <ele>412</ele>
        <time>2021-05-29T07:38:37.737Z</time>
      </trkpt>
      <trkpt lat="46.53002" lon="5.42937">
        <ele>412</ele>
        <time>2021-05-29T07:38:38.738Z</time>
      </trkpt>
      <trkpt lat="46.53004" lon="5.42936">
        <ele>412</ele>
        <time>2021-05-29T07:38:39.738Z</time>
      </trkpt>
      <trkpt lat="46.53006" lon="5.42935">
        <ele>411</ele>
        <time>2021-05-29T07:38:40.738Z</time>
      </trkpt>
      <trkpt lat="46.53009" lon="5.42935">
        <ele>411</ele>
        <time>2021-05-29T07:38:41.737Z</time>
      </trkpt>
      <trkpt lat="46.53012" lon="5.42934">
        <ele>412</ele>
        <time>2021-05-29T07:38:42.737Z</time>
      </trkpt>
      <trkpt lat="46.53014" lon="5.42933">
        <ele>412</ele>
        <time>2021-05-29T07:38:43.737Z</time>
      </trkpt>
      <trkpt lat="46.53017" lon="5.42933">
        <ele>412</ele>
        <time>2021-05-29T07:38:44.738Z</time>
      </trkpt>
      <trkpt lat="46.53019" lon="5.42932">
        <ele>412</ele>
        <time>2021-05-29T07:38:45.738Z</time>
      </trkpt>
      <trkpt lat="46.53022" lon="5.42932">
        <ele>412</ele>
        <time>2021-05-29T07:38:46.738Z</time>
      </trkpt>
      <trkpt lat="46.53025" lon="5.42931">
        <ele>412</ele>
        <time>2021-05-29T07:38:47.738Z</time>
      </trkpt>
      <trkpt lat="46.53027" lon="5.42931">
        <ele>412</ele>
        <time>2021-05-29T07:38:48.738Z</time>
      </trkpt>
      <trkpt lat="46.53029" lon="5.42931">
        <ele>412</ele>
        <time>2021-05-29T07:38:49.738Z</time>
      </trkpt>
      <trkpt lat="46.53031" lon="5.42931">
        <ele>413</ele>
        <time>2021-05-29T07:38:50.738Z</time>
      </trkpt>
      <trkpt lat="46.53034" lon="5.42931">
        <ele>413</ele>
        <time>2021-05-29T07:38:51.737Z</time>
      </trkpt>
      <trkpt lat="46.53037" lon="5.4293">
        <ele>413</ele>
        <time>2021-05-29T07:38:52.738Z</time>
      </trkpt>
      <trkpt lat="46.53039" lon="5.4293">
        <ele>413</ele>
        <time>2021-05-29T07:38:53.738Z</time>
      </trkpt>
      <trkpt lat="46.53042" lon="5.42929">
        <ele>413</ele>
        <time>2021-05-29T07:38:54.737Z</time>
      </trkpt>
      <trkpt lat="46.53044" lon="5.42929">
        <ele>413</ele>
        <time>2021-05-29T07:38:55.738Z</time>
      </trkpt>
      <trkpt lat="46.53046" lon="5.42928">
        <ele>413</ele>
        <time>2021-05-29T07:38:56.738Z</time>
      </trkpt>
      <trkpt lat="46.53049" lon="5.42926">
        <ele>413</ele>
        <time>2021-05-29T07:38:57.737Z</time>
      </trkpt>
      <trkpt lat="46.53051" lon="5.42924">
        <ele>414</ele>
        <time>2021-05-29T07:38:58.738Z</time>
      </trkpt>
      <trkpt lat="46.53053" lon="5.42922">
        <ele>414</ele>
        <time>2021-05-29T07:38:59.738Z</time>
      </trkpt>
      <trkpt lat="46.53055" lon="5.4292">
        <ele>413</ele>
        <time>2021-05-29T07:39:00.737Z</time>
      </trkpt>
      <trkpt lat="46.53056" lon="5.42918">
        <ele>414</ele>
        <time>2021-05-29T07:39:01.738Z</time>
      </trkpt>
      <trkpt lat="46.53059" lon="5.42915">
        <ele>414</ele>
        <time>2021-05-29T07:39:02.738Z</time>
      </trkpt>
      <trkpt lat="46.5306" lon="5.42913">
        <ele>414</ele>
        <time>2021-05-29T07:39:03.737Z</time>
      </trkpt>
      <trkpt lat="46.53061" lon="5.4291">
        <ele>414</ele>
        <time>2021-05-29T07:39:04.738Z</time>
      </trkpt>
      <trkpt lat="46.53063" lon="5.42907">
        <ele>414</ele>
        <time>2021-05-29T07:39:05.737Z</time>
      </trkpt>
      <trkpt lat="46.53064" lon="5.42904">
        <ele>415</ele>
        <time>2021-05-29T07:39:06.737Z</time>
      </trkpt>
      <trkpt lat="46.53065" lon="5.429">
        <ele>415</ele>
        <time>2021-05-29T07:39:07.738Z</time>
      </trkpt>
      <trkpt lat="46.53066" lon="5.42897">
        <ele>415</ele>
        <time>2021-05-29T07:39:08.738Z</time>
      </trkpt>
      <trkpt lat="46.53067" lon="5.42893">
        <ele>416</ele>
        <time>2021-05-29T07:39:09.738Z</time>
      </trkpt>
      <trkpt lat="46.53069" lon="5.4289">
        <ele>416</ele>
        <time>2021-05-29T07:39:10.738Z</time>
      </trkpt>
      <trkpt lat="46.5307" lon="5.42886">
        <ele>416</ele>
        <time>2021-05-29T07:39:11.738Z</time>
      </trkpt>
      <trkpt lat="46.53071" lon="5.42883">
        <ele>416</ele>
        <time>2021-05-29T07:39:12.737Z</time>
      </trkpt>
      <trkpt lat="46.53073" lon="5.42879">
        <ele>416</ele>
        <time>2021-05-29T07:39:13.738Z</time>
      </trkpt>
      <trkpt lat="46.53074" lon="5.42876">
        <ele>415</ele>
        <time>2021-05-29T07:39:14.738Z</time>
      </trkpt>
      <trkpt lat="46.53076" lon="5.42873">
        <ele>415</ele>
        <time>2021-05-29T07:39:15.737Z</time>
      </trkpt>
      <trkpt lat="46.53077" lon="5.42871">
        <ele>415</ele>
        <time>2021-05-29T07:39:16.738Z</time>
      </trkpt>
      <trkpt lat="46.53079" lon="5.42867">
        <ele>415</ele>
        <time>2021-05-29T07:39:17.738Z</time>
      </trkpt>
      <trkpt lat="46.53081" lon="5.42864">
        <ele>415</ele>
        <time>2021-05-29T07:39:18.738Z</time>
      </trkpt>
      <trkpt lat="46.53082" lon="5.42861">
        <ele>415</ele>
        <time>2021-05-29T07:39:19.737Z</time>
      </trkpt>
      <trkpt lat="46.53083" lon="5.42859">
        <ele>415</ele>
        <time>2021-05-29T07:39:20.738Z</time>
      </trkpt>
      <trkpt lat="46.53085" lon="5.42856">
        <ele>414</ele>
        <time>2021-05-29T07:39:21.738Z</time>
      </trkpt>
      <trkpt lat="46.53086" lon="5.42853">
        <ele>414</ele>
        <time>2021-05-29T07:39:22.737Z</time>
      </trkpt>
      <trkpt lat="46.53087" lon="5.42849">
        <ele>414</ele>
        <time>2021-05-29T07:39:23.738Z</time>
      </trkpt>
      <trkpt lat="46.53088" lon="5.42845">
        <ele>414</ele>
        <time>2021-05-29T07:39:24.737Z</time>
      </trkpt>
      <trkpt lat="46.53089" lon="5.42841">
        <ele>414</ele>
        <time>2021-05-29T07:39:25.738Z</time>
      </trkpt>
      <trkpt lat="46.5309" lon="5.42838">
        <ele>414</ele>
        <time>2021-05-29T07:39:26.738Z</time>
      </trkpt>
      <trkpt lat="46.53091" lon="5.42835">
        <ele>414</ele>
        <time>2021-05-29T07:39:27.738Z</time>
      </trkpt>
      <trkpt lat="46.53092" lon="5.42831">
        <ele>414</ele>
        <time>2021-05-29T07:39:28.738Z</time>
      </trkpt>
      <trkpt lat="46.53093" lon="5.42828">
        <ele>414</ele>
        <time>2021-05-29T07:39:29.738Z</time>
      </trkpt>
      <trkpt lat="46.53095" lon="5.42824">
        <ele>414</ele>
        <time>2021-05-29T07:39:30.737Z</time>
      </trkpt>
      <trkpt lat="46.53096" lon="5.42821">
        <ele>414</ele>
        <time>2021-05-29T07:39:31.738Z</time>
      </trkpt>
      <trkpt lat="46.53098" lon="5.42818">
        <ele>414</ele>
        <time>2021-05-29T07:39:32.738Z</time>
      </trkpt>
      <trkpt lat="46.53099" lon="5.42815">
        <ele>413</ele>
        <time>2021-05-29T07:39:33.737Z</time>
      </trkpt>
      <trkpt lat="46.531" lon="5.42811">
        <ele>414</ele>
        <time>2021-05-29T07:39:34.737Z</time>
      </trkpt>
      <trkpt lat="46.53102" lon="5.42807">
        <ele>414</ele>
        <time>2021-05-29T07:39:35.738Z</time>
      </trkpt>
      <trkpt lat="46.53104" lon="5.42805">
        <ele>414</ele>
        <time>2021-05-29T07:39:36.738Z</time>
      </trkpt>
      <trkpt lat="46.53106" lon="5.42801">
        <ele>414</ele>
        <time>2021-05-29T07:39:37.738Z</time>
      </trkpt>
      <trkpt lat="46.53107" lon="5.42798">
        <ele>415</ele>
        <time>2021-05-29T07:39:38.738Z</time>
      </trkpt>
      <trkpt lat="46.53109" lon="5.42794">
        <ele>415</ele>
        <time>2021-05-29T07:39:39.738Z</time>
      </trkpt>
      <trkpt lat="46.5311" lon="5.42791">
        <ele>415</ele>
        <time>2021-05-29T07:39:40.738Z</time>
      </trkpt>
      <trkpt lat="46.53112" lon="5.42789">
        <ele>415</ele>
        <time>2021-05-29T07:39:41.738Z</time>
      </trkpt>
      <trkpt lat="46.53114" lon="5.42788">
        <ele>414</ele>
        <time>2021-05-29T07:39:42.738Z</time>
      </trkpt>
      <trkpt lat="46.53116" lon="5.42787">
        <ele>414</ele>
        <time>2021-05-29T07:39:43.737Z</time>
      </trkpt>
      <trkpt lat="46.5312" lon="5.42787">
        <ele>413</ele>
        <time>2021-05-29T07:39:44.738Z</time>
      </trkpt>
      <trkpt lat="46.53123" lon="5.42786">
        <ele>413</ele>
        <time>2021-05-29T07:39:45.738Z</time>
      </trkpt>
      <trkpt lat="46.53125" lon="5.42786">
        <ele>413</ele>
        <time>2021-05-29T07:39:46.738Z</time>
      </trkpt>
      <trkpt lat="46.53127" lon="5.42785">
        <ele>412</ele>
        <time>2021-05-29T07:39:47.738Z</time>
      </trkpt>
      <trkpt lat="46.53129" lon="5.42785">
        <ele>412</ele>
        <time>2021-05-29T07:39:48.738Z</time>
      </trkpt>
      <trkpt lat="46.53132" lon="5.42783">
        <ele>412</ele>
        <time>2021-05-29T07:39:49.738Z</time>
      </trkpt>
      <trkpt lat="46.53134" lon="5.42781">
        <ele>412</ele>
        <time>2021-05-29T07:39:50.738Z</time>
      </trkpt>
      <trkpt lat="46.53136" lon="5.42779">
        <ele>412</ele>
        <time>2021-05-29T07:39:51.737Z</time>
      </trkpt>
      <trkpt lat="46.53138" lon="5.42777">
        <ele>411</ele>
        <time>2021-05-29T07:39:52.738Z</time>
      </trkpt>
      <trkpt lat="46.5314" lon="5.42774">
        <ele>411</ele>
        <time>2021-05-29T07:39:53.737Z</time>
      </trkpt>
      <trkpt lat="46.53142" lon="5.42772">
        <ele>411</ele>
        <time>2021-05-29T07:39:54.738Z</time>
      </trkpt>
      <trkpt lat="46.53144" lon="5.42769">
        <ele>411</ele>
        <time>2021-05-29T07:39:55.738Z</time>
      </trkpt>
      <trkpt lat="46.53146" lon="5.42767">
        <ele>411</ele>
        <time>2021-05-29T07:39:56.737Z</time>
      </trkpt>
      <trkpt lat="46.53148" lon="5.42765">
        <ele>410</ele>
        <time>2021-05-29T07:39:57.738Z</time>
      </trkpt>
      <trkpt lat="46.5315" lon="5.42763">
        <ele>410</ele>
        <time>2021-05-29T07:39:58.738Z</time>
      </trkpt>
      <trkpt lat="46.53153" lon="5.42762">
        <ele>410</ele>
        <time>2021-05-29T07:39:59.737Z</time>
      </trkpt>
      <trkpt lat="46.53156" lon="5.42762">
        <ele>410</ele>
        <time>2021-05-29T07:40:00.738Z</time>
      </trkpt>
      <trkpt lat="46.53158" lon="5.42762">
        <ele>410</ele>
        <time>2021-05-29T07:40:01.738Z</time>
      </trkpt>
      <trkpt lat="46.53161" lon="5.42763">
        <ele>410</ele>
        <time>2021-05-29T07:40:02.738Z</time>
      </trkpt>
      <trkpt lat="46.53163" lon="5.42764">
        <ele>410</ele>
        <time>2021-05-29T07:40:03.738Z</time>
      </trkpt>
      <trkpt lat="46.53166" lon="5.42765">
        <ele>409</ele>
        <time>2021-05-29T07:40:04.738Z</time>
      </trkpt>
      <trkpt lat="46.53168" lon="5.42766">
        <ele>409</ele>
        <time>2021-05-29T07:40:05.738Z</time>
      </trkpt>
      <trkpt lat="46.53169" lon="5.42768">
        <ele>409</ele>
        <time>2021-05-29T07:40:06.738Z</time>
      </trkpt>
      <trkpt lat="46.5317" lon="5.4277">
        <ele>408</ele>
        <time>2021-05-29T07:40:07.738Z</time>
      </trkpt>
      <trkpt lat="46.53175" lon="5.42777">
        <ele>403</ele>
        <time>2021-05-29T07:40:08.738Z</time>
      </trkpt>
      <trkpt lat="46.53177" lon="5.42776">
        <ele>403</ele>
        <time>2021-05-29T07:40:09.739Z</time>
      </trkpt>
      <trkpt lat="46.53178" lon="5.42776">
        <ele>404</ele>
        <time>2021-05-29T07:40:10.738Z</time>
      </trkpt>
      <trkpt lat="46.5318" lon="5.42775">
        <ele>404</ele>
        <time>2021-05-29T07:40:11.739Z</time>
      </trkpt>
      <trkpt lat="46.53182" lon="5.42774">
        <ele>404</ele>
        <time>2021-05-29T07:40:12.739Z</time>
      </trkpt>
      <trkpt lat="46.53185" lon="5.42773">
        <ele>404</ele>
        <time>2021-05-29T07:40:13.739Z</time>
      </trkpt>
      <trkpt lat="46.53187" lon="5.42773">
        <ele>405</ele>
        <time>2021-05-29T07:40:14.738Z</time>
      </trkpt>
      <trkpt lat="46.5319" lon="5.42773">
        <ele>405</ele>
        <time>2021-05-29T07:40:15.739Z</time>
      </trkpt>
      <trkpt lat="46.53192" lon="5.42773">
        <ele>405</ele>
        <time>2021-05-29T07:40:16.739Z</time>
      </trkpt>
      <trkpt lat="46.53195" lon="5.42773">
        <ele>406</ele>
        <time>2021-05-29T07:40:17.738Z</time>
      </trkpt>
      <trkpt lat="46.53198" lon="5.42773">
        <ele>406</ele>
        <time>2021-05-29T07:40:18.739Z</time>
      </trkpt>
      <trkpt lat="46.532" lon="5.42773">
        <ele>406</ele>
        <time>2021-05-29T07:40:19.739Z</time>
      </trkpt>
      <trkpt lat="46.53203" lon="5.42773">
        <ele>406</ele>
        <time>2021-05-29T07:40:20.739Z</time>
      </trkpt>
      <trkpt lat="46.53205" lon="5.42773">
        <ele>406</ele>
        <time>2021-05-29T07:40:21.739Z</time>
      </trkpt>
      <trkpt lat="46.53207" lon="5.42773">
        <ele>407</ele>
        <time>2021-05-29T07:40:22.738Z</time>
      </trkpt>
      <trkpt lat="46.53209" lon="5.42773">
        <ele>407</ele>
        <time>2021-05-29T07:40:23.739Z</time>
      </trkpt>
      <trkpt lat="46.53211" lon="5.42771">
        <ele>408</ele>
        <time>2021-05-29T07:40:24.738Z</time>
      </trkpt>
      <trkpt lat="46.53212" lon="5.42769">
        <ele>408</ele>
        <time>2021-05-29T07:40:25.739Z</time>
      </trkpt>
      <trkpt lat="46.53213" lon="5.42767">
        <ele>408</ele>
        <time>2021-05-29T07:40:26.738Z</time>
      </trkpt>
      <trkpt lat="46.53213" lon="5.42764">
        <ele>408</ele>
        <time>2021-05-29T07:40:27.739Z</time>
      </trkpt>
      <trkpt lat="46.53213" lon="5.42759">
        <ele>409</ele>
        <time>2021-05-29T07:40:28.738Z</time>
      </trkpt>
      <trkpt lat="46.53213" lon="5.42755">
        <ele>409</ele>
        <time>2021-05-29T07:40:29.739Z</time>
      </trkpt>
      <trkpt lat="46.53213" lon="5.42751">
        <ele>409</ele>
        <time>2021-05-29T07:40:30.739Z</time>
      </trkpt>
      <trkpt lat="46.53213" lon="5.42748">
        <ele>410</ele>
        <time>2021-05-29T07:40:31.739Z</time>
      </trkpt>
      <trkpt lat="46.53214" lon="5.42744">
        <ele>410</ele>
        <time>2021-05-29T07:40:32.738Z</time>
      </trkpt>
      <trkpt lat="46.53214" lon="5.42741">
        <ele>410</ele>
        <time>2021-05-29T07:40:33.739Z</time>
      </trkpt>
      <trkpt lat="46.53215" lon="5.42737">
        <ele>410</ele>
        <time>2021-05-29T07:40:34.739Z</time>
      </trkpt>
      <trkpt lat="46.53215" lon="5.42734">
        <ele>410</ele>
        <time>2021-05-29T07:40:35.738Z</time>
      </trkpt>
      <trkpt lat="46.53216" lon="5.4273">
        <ele>410</ele>
        <time>2021-05-29T07:40:36.739Z</time>
      </trkpt>
      <trkpt lat="46.53217" lon="5.42727">
        <ele>409</ele>
        <time>2021-05-29T07:40:37.739Z</time>
      </trkpt>
      <trkpt lat="46.53218" lon="5.42724">
        <ele>409</ele>
        <time>2021-05-29T07:40:38.738Z</time>
      </trkpt>
      <trkpt lat="46.53219" lon="5.42721">
        <ele>409</ele>
        <time>2021-05-29T07:40:39.739Z</time>
      </trkpt>
      <trkpt lat="46.53221" lon="5.42718">
        <ele>408</ele>
        <time>2021-05-29T07:40:40.738Z</time>
      </trkpt>
      <trkpt lat="46.53224" lon="5.42717">
        <ele>408</ele>
        <time>2021-05-29T07:40:41.739Z</time>
      </trkpt>
      <trkpt lat="46.53227" lon="5.42717">
        <ele>408</ele>
        <time>2021-05-29T07:40:42.739Z</time>
      </trkpt>
      <trkpt lat="46.5323" lon="5.42717">
        <ele>407</ele>
        <time>2021-05-29T07:40:43.739Z</time>
      </trkpt>
      <trkpt lat="46.53232" lon="5.42717">
        <ele>407</ele>
        <time>2021-05-29T07:40:44.739Z</time>
      </trkpt>
      <trkpt lat="46.53235" lon="5.42718">
        <ele>407</ele>
        <time>2021-05-29T07:40:45.738Z</time>
      </trkpt>
      <trkpt lat="46.53237" lon="5.42718">
        <ele>407</ele>
        <time>2021-05-29T07:40:46.739Z</time>
      </trkpt>
      <trkpt lat="46.5324" lon="5.42719">
        <ele>406</ele>
        <time>2021-05-29T07:40:47.739Z</time>
      </trkpt>
      <trkpt lat="46.53242" lon="5.42719">
        <ele>406</ele>
        <time>2021-05-29T07:40:48.739Z</time>
      </trkpt>
      <trkpt lat="46.53245" lon="5.4272">
        <ele>405</ele>
        <time>2021-05-29T07:40:49.739Z</time>
      </trkpt>
      <trkpt lat="46.53248" lon="5.42721">
        <ele>405</ele>
        <time>2021-05-29T07:40:50.739Z</time>
      </trkpt>
      <trkpt lat="46.5325" lon="5.42721">
        <ele>405</ele>
        <time>2021-05-29T07:40:51.738Z</time>
      </trkpt>
      <trkpt lat="46.53253" lon="5.42722">
        <ele>405</ele>
        <time>2021-05-29T07:40:52.739Z</time>
      </trkpt>
      <trkpt lat="46.53255" lon="5.42723">
        <ele>406</ele>
        <time>2021-05-29T07:40:53.739Z</time>
      </trkpt>
      <trkpt lat="46.53257" lon="5.42723">
        <ele>406</ele>
        <time>2021-05-29T07:40:54.739Z</time>
      </trkpt>
      <trkpt lat="46.53259" lon="5.42723">
        <ele>405</ele>
        <time>2021-05-29T07:40:55.739Z</time>
      </trkpt>
      <trkpt lat="46.53261" lon="5.42724">
        <ele>405</ele>
        <time>2021-05-29T07:40:56.739Z</time>
      </trkpt>
      <trkpt lat="46.53264" lon="5.42724">
        <ele>405</ele>
        <time>2021-05-29T07:40:57.739Z</time>
      </trkpt>
      <trkpt lat="46.53266" lon="5.42724">
        <ele>405</ele>
        <time>2021-05-29T07:40:58.738Z</time>
      </trkpt>
      <trkpt lat="46.53269" lon="5.42724">
        <ele>405</ele>
        <time>2021-05-29T07:40:59.739Z</time>
      </trkpt>
      <trkpt lat="46.53272" lon="5.42724">
        <ele>405</ele>
        <time>2021-05-29T07:41:00.739Z</time>
      </trkpt>
      <trkpt lat="46.53275" lon="5.42724">
        <ele>406</ele>
        <time>2021-05-29T07:41:01.739Z</time>
      </trkpt>
      <trkpt lat="46.53278" lon="5.42724">
        <ele>406</ele>
        <time>2021-05-29T07:41:02.739Z</time>
      </trkpt>
      <trkpt lat="46.5328" lon="5.42724">
        <ele>406</ele>
        <time>2021-05-29T07:41:03.738Z</time>
      </trkpt>
      <trkpt lat="46.53283" lon="5.42724">
        <ele>407</ele>
        <time>2021-05-29T07:41:04.739Z</time>
      </trkpt>
      <trkpt lat="46.53286" lon="5.42724">
        <ele>407</ele>
        <time>2021-05-29T07:41:05.739Z</time>
      </trkpt>
      <trkpt lat="46.53288" lon="5.42724">
        <ele>407</ele>
        <time>2021-05-29T07:41:06.739Z</time>
      </trkpt>
      <trkpt lat="46.53291" lon="5.42724">
        <ele>407</ele>
        <time>2021-05-29T07:41:07.739Z</time>
      </trkpt>
      <trkpt lat="46.53294" lon="5.42724">
        <ele>407</ele>
        <time>2021-05-29T07:41:08.739Z</time>
      </trkpt>
      <trkpt lat="46.53297" lon="5.42725">
        <ele>408</ele>
        <time>2021-05-29T07:41:09.739Z</time>
      </trkpt>
      <trkpt lat="46.533" lon="5.42725">
        <ele>408</ele>
        <time>2021-05-29T07:41:10.739Z</time>
      </trkpt>
      <trkpt lat="46.53302" lon="5.42726">
        <ele>408</ele>
        <time>2021-05-29T07:41:11.739Z</time>
      </trkpt>
      <trkpt lat="46.53305" lon="5.42727">
        <ele>408</ele>
        <time>2021-05-29T07:41:12.739Z</time>
      </trkpt>
      <trkpt lat="46.53307" lon="5.42728">
        <ele>408</ele>
        <time>2021-05-29T07:41:13.738Z</time>
      </trkpt>
      <trkpt lat="46.53309" lon="5.42729">
        <ele>408</ele>
        <time>2021-05-29T07:41:14.739Z</time>
      </trkpt>
      <trkpt lat="46.53311" lon="5.4273">
        <ele>408</ele>
        <time>2021-05-29T07:41:15.739Z</time>
      </trkpt>
      <trkpt lat="46.53314" lon="5.42732">
        <ele>408</ele>
        <time>2021-05-29T07:41:16.739Z</time>
      </trkpt>
      <trkpt lat="46.53316" lon="5.42733">
        <ele>408</ele>
        <time>2021-05-29T07:41:17.739Z</time>
      </trkpt>
      <trkpt lat="46.53319" lon="5.42733">
        <ele>408</ele>
        <time>2021-05-29T07:41:18.739Z</time>
      </trkpt>
      <trkpt lat="46.53322" lon="5.42735">
        <ele>408</ele>
        <time>2021-05-29T07:41:19.739Z</time>
      </trkpt>
      <trkpt lat="46.53325" lon="5.42736">
        <ele>408</ele>
        <time>2021-05-29T07:41:20.739Z</time>
      </trkpt>
      <trkpt lat="46.53327" lon="5.42738">
        <ele>408</ele>
        <time>2021-05-29T07:41:21.739Z</time>
      </trkpt>
      <trkpt lat="46.53329" lon="5.42738">
        <ele>407</ele>
        <time>2021-05-29T07:41:22.739Z</time>
      </trkpt>
      <trkpt lat="46.53331" lon="5.42739">
        <ele>407</ele>
        <time>2021-05-29T07:41:23.738Z</time>
      </trkpt>
      <trkpt lat="46.53334" lon="5.4274">
        <ele>407</ele>
        <time>2021-05-29T07:41:24.739Z</time>
      </trkpt>
      <trkpt lat="46.53336" lon="5.42741">
        <ele>407</ele>
        <time>2021-05-29T07:41:25.738Z</time>
      </trkpt>
      <trkpt lat="46.53338" lon="5.42743">
        <ele>407</ele>
        <time>2021-05-29T07:41:26.739Z</time>
      </trkpt>
      <trkpt lat="46.53341" lon="5.42744">
        <ele>407</ele>
        <time>2021-05-29T07:41:27.739Z</time>
      </trkpt>
      <trkpt lat="46.53343" lon="5.42744">
        <ele>407</ele>
        <time>2021-05-29T07:41:28.739Z</time>
      </trkpt>
      <trkpt lat="46.53345" lon="5.42746">
        <ele>407</ele>
        <time>2021-05-29T07:41:29.739Z</time>
      </trkpt>
      <trkpt lat="46.53347" lon="5.42746">
        <ele>407</ele>
        <time>2021-05-29T07:41:30.739Z</time>
      </trkpt>
      <trkpt lat="46.53349" lon="5.42747">
        <ele>407</ele>
        <time>2021-05-29T07:41:31.739Z</time>
      </trkpt>
      <trkpt lat="46.53351" lon="5.42748">
        <ele>407</ele>
        <time>2021-05-29T07:41:32.739Z</time>
      </trkpt>
      <trkpt lat="46.53353" lon="5.42749">
        <ele>407</ele>
        <time>2021-05-29T07:41:33.739Z</time>
      </trkpt>
      <trkpt lat="46.53355" lon="5.4275">
        <ele>407</ele>
        <time>2021-05-29T07:41:34.739Z</time>
      </trkpt>
      <trkpt lat="46.53357" lon="5.42751">
        <ele>407</ele>
        <time>2021-05-29T07:41:35.738Z</time>
      </trkpt>
      <trkpt lat="46.53359" lon="5.42752">
        <ele>407</ele>
        <time>2021-05-29T07:41:36.739Z</time>
      </trkpt>
      <trkpt lat="46.53361" lon="5.42753">
        <ele>407</ele>
        <time>2021-05-29T07:41:37.739Z</time>
      </trkpt>
      <trkpt lat="46.53363" lon="5.42754">
        <ele>407</ele>
        <time>2021-05-29T07:41:38.739Z</time>
      </trkpt>
      <trkpt lat="46.53366" lon="5.42754">
        <ele>407</ele>
        <time>2021-05-29T07:41:39.738Z</time>
      </trkpt>
      <trkpt lat="46.53368" lon="5.42755">
        <ele>406</ele>
        <time>2021-05-29T07:41:40.739Z</time>
      </trkpt>
      <trkpt lat="46.5337" lon="5.42756">
        <ele>407</ele>
        <time>2021-05-29T07:41:41.739Z</time>
      </trkpt>
      <trkpt lat="46.53372" lon="5.42756">
        <ele>407</ele>
        <time>2021-05-29T07:41:42.739Z</time>
      </trkpt>
      <trkpt lat="46.53375" lon="5.42757">
        <ele>407</ele>
        <time>2021-05-29T07:41:43.738Z</time>
      </trkpt>
      <trkpt lat="46.53377" lon="5.42757">
        <ele>407</ele>
        <time>2021-05-29T07:41:44.739Z</time>
      </trkpt>
      <trkpt lat="46.53379" lon="5.42758">
        <ele>407</ele>
        <time>2021-05-29T07:41:45.738Z</time>
      </trkpt>
      <trkpt lat="46.53381" lon="5.42758">
        <ele>408</ele>
        <time>2021-05-29T07:41:46.739Z</time>
      </trkpt>
      <trkpt lat="46.53384" lon="5.42758">
        <ele>408</ele>
        <time>2021-05-29T07:41:47.739Z</time>
      </trkpt>
      <trkpt lat="46.53386" lon="5.42758">
        <ele>408</ele>
        <time>2021-05-29T07:41:48.739Z</time>
      </trkpt>
      <trkpt lat="46.53389" lon="5.42758">
        <ele>408</ele>
        <time>2021-05-29T07:41:49.739Z</time>
      </trkpt>
      <trkpt lat="46.53391" lon="5.42757">
        <ele>408</ele>
        <time>2021-05-29T07:41:50.739Z</time>
      </trkpt>
      <trkpt lat="46.53393" lon="5.42757">
        <ele>409</ele>
        <time>2021-05-29T07:41:51.739Z</time>
      </trkpt>
      <trkpt lat="46.53396" lon="5.42756">
        <ele>409</ele>
        <time>2021-05-29T07:41:52.739Z</time>
      </trkpt>
      <trkpt lat="46.53398" lon="5.42756">
        <ele>409</ele>
        <time>2021-05-29T07:41:53.739Z</time>
      </trkpt>
      <trkpt lat="46.534" lon="5.42755">
        <ele>409</ele>
        <time>2021-05-29T07:41:54.739Z</time>
      </trkpt>
      <trkpt lat="46.53403" lon="5.42754">
        <ele>409</ele>
        <time>2021-05-29T07:41:55.739Z</time>
      </trkpt>
      <trkpt lat="46.53405" lon="5.42753">
        <ele>409</ele>
        <time>2021-05-29T07:41:56.739Z</time>
      </trkpt>
      <trkpt lat="46.53407" lon="5.42752">
        <ele>409</ele>
        <time>2021-05-29T07:41:57.739Z</time>
      </trkpt>
      <trkpt lat="46.53409" lon="5.42751">
        <ele>409</ele>
        <time>2021-05-29T07:41:58.739Z</time>
      </trkpt>
      <trkpt lat="46.5341" lon="5.42751">
        <ele>410</ele>
        <time>2021-05-29T07:41:59.739Z</time>
      </trkpt>
      <trkpt lat="46.53412" lon="5.4275">
        <ele>410</ele>
        <time>2021-05-29T07:42:00.739Z</time>
      </trkpt>
      <trkpt lat="46.53414" lon="5.42749">
        <ele>410</ele>
        <time>2021-05-29T07:42:01.739Z</time>
      </trkpt>
      <trkpt lat="46.53417" lon="5.42748">
        <ele>411</ele>
        <time>2021-05-29T07:42:02.739Z</time>
      </trkpt>
      <trkpt lat="46.53419" lon="5.42748">
        <ele>411</ele>
        <time>2021-05-29T07:42:03.739Z</time>
      </trkpt>
      <trkpt lat="46.53421" lon="5.42747">
        <ele>410</ele>
        <time>2021-05-29T07:42:04.739Z</time>
      </trkpt>
      <trkpt lat="46.53423" lon="5.42747">
        <ele>410</ele>
        <time>2021-05-29T07:42:05.739Z</time>
      </trkpt>
      <trkpt lat="46.53425" lon="5.42746">
        <ele>410</ele>
        <time>2021-05-29T07:42:06.739Z</time>
      </trkpt>
      <trkpt lat="46.53427" lon="5.42746">
        <ele>410</ele>
        <time>2021-05-29T07:42:07.738Z</time>
      </trkpt>
      <trkpt lat="46.5343" lon="5.42746">
        <ele>410</ele>
        <time>2021-05-29T07:42:08.739Z</time>
      </trkpt>
      <trkpt lat="46.53432" lon="5.42745">
        <ele>410</ele>
        <time>2021-05-29T07:42:09.739Z</time>
      </trkpt>
      <trkpt lat="46.53434" lon="5.42745">
        <ele>410</ele>
        <time>2021-05-29T07:42:10.739Z</time>
      </trkpt>
      <trkpt lat="46.53436" lon="5.42745">
        <ele>410</ele>
        <time>2021-05-29T07:42:11.739Z</time>
      </trkpt>
      <trkpt lat="46.53439" lon="5.42744">
        <ele>410</ele>
        <time>2021-05-29T07:42:12.739Z</time>
      </trkpt>
      <trkpt lat="46.53441" lon="5.42744">
        <ele>410</ele>
        <time>2021-05-29T07:42:13.739Z</time>
      </trkpt>
      <trkpt lat="46.53444" lon="5.42743">
        <ele>410</ele>
        <time>2021-05-29T07:42:14.739Z</time>
      </trkpt>
      <trkpt lat="46.53446" lon="5.42743">
        <ele>410</ele>
        <time>2021-05-29T07:42:15.738Z</time>
      </trkpt>
      <trkpt lat="46.53448" lon="5.42743">
        <ele>410</ele>
        <time>2021-05-29T07:42:16.739Z</time>
      </trkpt>
      <trkpt lat="46.53451" lon="5.42743">
        <ele>410</ele>
        <time>2021-05-29T07:42:17.738Z</time>
      </trkpt>
      <trkpt lat="46.53453" lon="5.42743">
        <ele>410</ele>
        <time>2021-05-29T07:42:18.739Z</time>
      </trkpt>
      <trkpt lat="46.53455" lon="5.42744">
        <ele>410</ele>
        <time>2021-05-29T07:42:19.738Z</time>
      </trkpt>
      <trkpt lat="46.53457" lon="5.42744">
        <ele>410</ele>
        <time>2021-05-29T07:42:20.739Z</time>
      </trkpt>
      <trkpt lat="46.53459" lon="5.42745">
        <ele>410</ele>
        <time>2021-05-29T07:42:21.739Z</time>
      </trkpt>
      <trkpt lat="46.53461" lon="5.42746">
        <ele>410</ele>
        <time>2021-05-29T07:42:22.739Z</time>
      </trkpt>
      <trkpt lat="46.53463" lon="5.42747">
        <ele>410</ele>
        <time>2021-05-29T07:42:23.739Z</time>
      </trkpt>
      <trkpt lat="46.53466" lon="5.42748">
        <ele>410</ele>
        <time>2021-05-29T07:42:24.739Z</time>
      </trkpt>
      <trkpt lat="46.53468" lon="5.42748">
        <ele>410</ele>
        <time>2021-05-29T07:42:25.739Z</time>
      </trkpt>
      <trkpt lat="46.53469" lon="5.42748">
        <ele>411</ele>
        <time>2021-05-29T07:42:26.739Z</time>
      </trkpt>
      <trkpt lat="46.5347" lon="5.42747">
        <ele>411</ele>
        <time>2021-05-29T07:42:27.739Z</time>
      </trkpt>
      <trkpt lat="46.53472" lon="5.42745">
        <ele>411</ele>
        <time>2021-05-29T07:42:28.738Z</time>
      </trkpt>
      <trkpt lat="46.53473" lon="5.42744">
        <ele>412</ele>
        <time>2021-05-29T07:42:29.739Z</time>
      </trkpt>
      <trkpt lat="46.53475" lon="5.42741">
        <ele>413</ele>
        <time>2021-05-29T07:42:30.739Z</time>
      </trkpt>
      <trkpt lat="46.53476" lon="5.42739">
        <ele>414</ele>
        <time>2021-05-29T07:42:31.739Z</time>
      </trkpt>
      <trkpt lat="46.53478" lon="5.42736">
        <ele>415</ele>
        <time>2021-05-29T07:42:32.739Z</time>
      </trkpt>
      <trkpt lat="46.5348" lon="5.42734">
        <ele>415</ele>
        <time>2021-05-29T07:42:33.738Z</time>
      </trkpt>
      <trkpt lat="46.53481" lon="5.42731">
        <ele>416</ele>
        <time>2021-05-29T07:42:34.739Z</time>
      </trkpt>
      <trkpt lat="46.53483" lon="5.42729">
        <ele>416</ele>
        <time>2021-05-29T07:42:35.739Z</time>
      </trkpt>
      <trkpt lat="46.53484" lon="5.42727">
        <ele>416</ele>
        <time>2021-05-29T07:42:36.739Z</time>
      </trkpt>
      <trkpt lat="46.53485" lon="5.42725">
        <ele>416</ele>
        <time>2021-05-29T07:42:37.739Z</time>
      </trkpt>
      <trkpt lat="46.53486" lon="5.42723">
        <ele>416</ele>
        <time>2021-05-29T07:42:38.739Z</time>
      </trkpt>
      <trkpt lat="46.53488" lon="5.42721">
        <ele>416</ele>
        <time>2021-05-29T07:42:39.739Z</time>
      </trkpt>
      <trkpt lat="46.53489" lon="5.42719">
        <ele>417</ele>
        <time>2021-05-29T07:42:40.738Z</time>
      </trkpt>
      <trkpt lat="46.5349" lon="5.42717">
        <ele>417</ele>
        <time>2021-05-29T07:42:41.739Z</time>
      </trkpt>
      <trkpt lat="46.53491" lon="5.42715">
        <ele>416</ele>
        <time>2021-05-29T07:42:42.739Z</time>
      </trkpt>
      <trkpt lat="46.53492" lon="5.42713">
        <ele>416</ele>
        <time>2021-05-29T07:42:43.739Z</time>
      </trkpt>
      <trkpt lat="46.53494" lon="5.42711">
        <ele>416</ele>
        <time>2021-05-29T07:42:44.739Z</time>
      </trkpt>
      <trkpt lat="46.53495" lon="5.42709">
        <ele>417</ele>
        <time>2021-05-29T07:42:45.739Z</time>
      </trkpt>
      <trkpt lat="46.53496" lon="5.42707">
        <ele>417</ele>
        <time>2021-05-29T07:42:46.739Z</time>
      </trkpt>
      <trkpt lat="46.53497" lon="5.42704">
        <ele>417</ele>
        <time>2021-05-29T07:42:47.739Z</time>
      </trkpt>
      <trkpt lat="46.53498" lon="5.42702">
        <ele>418</ele>
        <time>2021-05-29T07:42:48.739Z</time>
      </trkpt>
      <trkpt lat="46.53499" lon="5.427">
        <ele>418</ele>
        <time>2021-05-29T07:42:49.738Z</time>
      </trkpt>
      <trkpt lat="46.535" lon="5.42698">
        <ele>419</ele>
        <time>2021-05-29T07:42:50.739Z</time>
      </trkpt>
      <trkpt lat="46.53501" lon="5.42695">
        <ele>419</ele>
        <time>2021-05-29T07:42:51.739Z</time>
      </trkpt>
      <trkpt lat="46.53502" lon="5.42693">
        <ele>420</ele>
        <time>2021-05-29T07:42:52.738Z</time>
      </trkpt>
      <trkpt lat="46.53503" lon="5.42691">
        <ele>420</ele>
        <time>2021-05-29T07:42:53.739Z</time>
      </trkpt>
      <trkpt lat="46.53504" lon="5.42689">
        <ele>420</ele>
        <time>2021-05-29T07:42:54.739Z</time>
      </trkpt>
      <trkpt lat="46.53505" lon="5.42686">
        <ele>420</ele>
        <time>2021-05-29T07:42:55.739Z</time>
      </trkpt>
      <trkpt lat="46.53506" lon="5.42684">
        <ele>420</ele>
        <time>2021-05-29T07:42:56.739Z</time>
      </trkpt>
      <trkpt lat="46.53507" lon="5.42681">
        <ele>420</ele>
        <time>2021-05-29T07:42:57.738Z</time>
      </trkpt>
      <trkpt lat="46.53508" lon="5.42679">
        <ele>421</ele>
        <time>2021-05-29T07:42:58.738Z</time>
      </trkpt>
      <trkpt lat="46.53509" lon="5.42677">
        <ele>421</ele>
        <time>2021-05-29T07:42:59.738Z</time>
      </trkpt>
      <trkpt lat="46.53509" lon="5.42674">
        <ele>421</ele>
        <time>2021-05-29T07:43:00.739Z</time>
      </trkpt>
      <trkpt lat="46.5351" lon="5.42672">
        <ele>421</ele>
        <time>2021-05-29T07:43:01.739Z</time>
      </trkpt>
      <trkpt lat="46.53511" lon="5.4267">
        <ele>422</ele>
        <time>2021-05-29T07:43:02.739Z</time>
      </trkpt>
      <trkpt lat="46.53512" lon="5.42667">
        <ele>422</ele>
        <time>2021-05-29T07:43:03.739Z</time>
      </trkpt>
      <trkpt lat="46.53512" lon="5.42665">
        <ele>422</ele>
        <time>2021-05-29T07:43:04.739Z</time>
      </trkpt>
      <trkpt lat="46.53513" lon="5.42663">
        <ele>422</ele>
        <time>2021-05-29T07:43:05.738Z</time>
      </trkpt>
      <trkpt lat="46.53514" lon="5.42661">
        <ele>423</ele>
        <time>2021-05-29T07:43:06.739Z</time>
      </trkpt>
      <trkpt lat="46.53515" lon="5.42658">
        <ele>423</ele>
        <time>2021-05-29T07:43:07.739Z</time>
      </trkpt>
      <trkpt lat="46.53515" lon="5.42656">
        <ele>423</ele>
        <time>2021-05-29T07:43:08.739Z</time>
      </trkpt>
      <trkpt lat="46.53516" lon="5.42653">
        <ele>423</ele>
        <time>2021-05-29T07:43:09.739Z</time>
      </trkpt>
      <trkpt lat="46.53517" lon="5.42651">
        <ele>424</ele>
        <time>2021-05-29T07:43:10.739Z</time>
      </trkpt>
      <trkpt lat="46.53517" lon="5.42648">
        <ele>424</ele>
        <time>2021-05-29T07:43:11.739Z</time>
      </trkpt>
      <trkpt lat="46.53518" lon="5.42646">
        <ele>424</ele>
        <time>2021-05-29T07:43:12.739Z</time>
      </trkpt>
      <trkpt lat="46.53519" lon="5.42643">
        <ele>424</ele>
        <time>2021-05-29T07:43:13.739Z</time>
      </trkpt>
      <trkpt lat="46.5352" lon="5.42641">
        <ele>424</ele>
        <time>2021-05-29T07:43:14.738Z</time>
      </trkpt>
      <trkpt lat="46.53521" lon="5.42639">
        <ele>424</ele>
        <time>2021-05-29T07:43:15.739Z</time>
      </trkpt>
      <trkpt lat="46.53521" lon="5.42636">
        <ele>424</ele>
        <time>2021-05-29T07:43:16.739Z</time>
      </trkpt>
      <trkpt lat="46.53522" lon="5.42634">
        <ele>425</ele>
        <time>2021-05-29T07:43:17.739Z</time>
      </trkpt>
      <trkpt lat="46.53523" lon="5.42632">
        <ele>425</ele>
        <time>2021-05-29T07:43:18.739Z</time>
      </trkpt>
      <trkpt lat="46.53524" lon="5.42629">
        <ele>425</ele>
        <time>2021-05-29T07:43:19.739Z</time>
      </trkpt>
      <trkpt lat="46.53524" lon="5.42627">
        <ele>425</ele>
        <time>2021-05-29T07:43:20.739Z</time>
      </trkpt>
      <trkpt lat="46.53525" lon="5.42625">
        <ele>425</ele>
        <time>2021-05-29T07:43:21.739Z</time>
      </trkpt>
      <trkpt lat="46.53526" lon="5.42622">
        <ele>424</ele>
        <time>2021-05-29T07:43:22.738Z</time>
      </trkpt>
      <trkpt lat="46.53526" lon="5.4262">
        <ele>424</ele>
        <time>2021-05-29T07:43:23.739Z</time>
      </trkpt>
      <trkpt lat="46.53527" lon="5.42617">
        <ele>424</ele>
        <time>2021-05-29T07:43:24.739Z</time>
      </trkpt>
      <trkpt lat="46.53528" lon="5.42614">
        <ele>424</ele>
        <time>2021-05-29T07:43:25.739Z</time>
      </trkpt>
      <trkpt lat="46.53528" lon="5.42612">
        <ele>425</ele>
        <time>2021-05-29T07:43:26.738Z</time>
      </trkpt>
      <trkpt lat="46.53529" lon="5.4261">
        <ele>424</ele>
        <time>2021-05-29T07:43:27.739Z</time>
      </trkpt>
      <trkpt lat="46.5353" lon="5.42607">
        <ele>425</ele>
        <time>2021-05-29T07:43:28.739Z</time>
      </trkpt>
      <trkpt lat="46.5353" lon="5.42605">
        <ele>425</ele>
        <time>2021-05-29T07:43:29.738Z</time>
      </trkpt>
      <trkpt lat="46.53531" lon="5.42602">
        <ele>425</ele>
        <time>2021-05-29T07:43:30.739Z</time>
      </trkpt>
      <trkpt lat="46.53531" lon="5.426">
        <ele>425</ele>
        <time>2021-05-29T07:43:31.739Z</time>
      </trkpt>
      <trkpt lat="46.53532" lon="5.42598">
        <ele>425</ele>
        <time>2021-05-29T07:43:32.739Z</time>
      </trkpt>
      <trkpt lat="46.53532" lon="5.42595">
        <ele>425</ele>
        <time>2021-05-29T07:43:33.739Z</time>
      </trkpt>
      <trkpt lat="46.53533" lon="5.42592">
        <ele>426</ele>
        <time>2021-05-29T07:43:34.739Z</time>
      </trkpt>
      <trkpt lat="46.53533" lon="5.4259">
        <ele>427</ele>
        <time>2021-05-29T07:43:35.739Z</time>
      </trkpt>
      <trkpt lat="46.53534" lon="5.42588">
        <ele>427</ele>
        <time>2021-05-29T07:43:36.738Z</time>
      </trkpt>
      <trkpt lat="46.53534" lon="5.42585">
        <ele>427</ele>
        <time>2021-05-29T07:43:37.738Z</time>
      </trkpt>
      <trkpt lat="46.53535" lon="5.42583">
        <ele>427</ele>
        <time>2021-05-29T07:43:38.738Z</time>
      </trkpt>
      <trkpt lat="46.53535" lon="5.42581">
        <ele>427</ele>
        <time>2021-05-29T07:43:39.739Z</time>
      </trkpt>
      <trkpt lat="46.53535" lon="5.42578">
        <ele>428</ele>
        <time>2021-05-29T07:43:40.739Z</time>
      </trkpt>
      <trkpt lat="46.53536" lon="5.42576">
        <ele>428</ele>
        <time>2021-05-29T07:43:41.739Z</time>
      </trkpt>
      <trkpt lat="46.53536" lon="5.42573">
        <ele>428</ele>
        <time>2021-05-29T07:43:42.739Z</time>
      </trkpt>
      <trkpt lat="46.53537" lon="5.42571">
        <ele>428</ele>
        <time>2021-05-29T07:43:43.739Z</time>
      </trkpt>
      <trkpt lat="46.53538" lon="5.42569">
        <ele>427</ele>
        <time>2021-05-29T07:43:44.738Z</time>
      </trkpt>
      <trkpt lat="46.53538" lon="5.42566">
        <ele>428</ele>
        <time>2021-05-29T07:43:45.739Z</time>
      </trkpt>
      <trkpt lat="46.53539" lon="5.42564">
        <ele>428</ele>
        <time>2021-05-29T07:43:46.738Z</time>
      </trkpt>
      <trkpt lat="46.5354" lon="5.42561">
        <ele>429</ele>
        <time>2021-05-29T07:43:47.739Z</time>
      </trkpt>
      <trkpt lat="46.53541" lon="5.4256">
        <ele>429</ele>
        <time>2021-05-29T07:43:48.739Z</time>
      </trkpt>
      <trkpt lat="46.53542" lon="5.42558">
        <ele>429</ele>
        <time>2021-05-29T07:43:49.738Z</time>
      </trkpt>
      <trkpt lat="46.53542" lon="5.42559">
        <ele>429</ele>
        <time>2021-05-29T07:43:50.739Z</time>
      </trkpt>
      <trkpt lat="46.53542" lon="5.4256">
        <ele>429</ele>
        <time>2021-05-29T07:43:51.739Z</time>
      </trkpt>
      <trkpt lat="46.53542" lon="5.42562">
        <ele>429</ele>
        <time>2021-05-29T07:43:52.739Z</time>
      </trkpt>
      <trkpt lat="46.53541" lon="5.42563">
        <ele>429</ele>
        <time>2021-05-29T07:43:53.738Z</time>
      </trkpt>
      <trkpt lat="46.53541" lon="5.42564">
        <ele>429</ele>
        <time>2021-05-29T07:43:54.739Z</time>
      </trkpt>
      <trkpt lat="46.5354" lon="5.42564">
        <ele>430</ele>
        <time>2021-05-29T07:43:55.739Z</time>
      </trkpt>
      <trkpt lat="46.53539" lon="5.42562">
        <ele>430</ele>
        <time>2021-05-29T07:43:56.739Z</time>
      </trkpt>
      <trkpt lat="46.53539" lon="5.4256">
        <ele>430</ele>
        <time>2021-05-29T07:43:57.739Z</time>
      </trkpt>
      <trkpt lat="46.5354" lon="5.42558">
        <ele>431</ele>
        <time>2021-05-29T07:43:58.739Z</time>
      </trkpt>
      <trkpt lat="46.53541" lon="5.42558">
        <ele>431</ele>
        <time>2021-05-29T07:43:59.739Z</time>
      </trkpt>
      <trkpt lat="46.53542" lon="5.42557">
        <ele>431</ele>
        <time>2021-05-29T07:44:00.738Z</time>
      </trkpt>
      <trkpt lat="46.53543" lon="5.42556">
        <ele>430</ele>
        <time>2021-05-29T07:44:01.739Z</time>
      </trkpt>
      <trkpt lat="46.53543" lon="5.42555">
        <ele>430</ele>
        <time>2021-05-29T07:44:02.739Z</time>
      </trkpt>
      <trkpt lat="46.53544" lon="5.42555">
        <ele>431</ele>
        <time>2021-05-29T07:44:03.739Z</time>
      </trkpt>
      <trkpt lat="46.53544" lon="5.42554">
        <ele>431</ele>
        <time>2021-05-29T07:44:04.738Z</time>
      </trkpt>
      <trkpt lat="46.53545" lon="5.42553">
        <ele>431</ele>
        <time>2021-05-29T07:44:05.738Z</time>
      </trkpt>
      <trkpt lat="46.53546" lon="5.42553">
        <ele>431</ele>
        <time>2021-05-29T07:44:06.739Z</time>
      </trkpt>
      <trkpt lat="46.53546" lon="5.42553">
        <ele>432</ele>
        <time>2021-05-29T07:44:07.738Z</time>
      </trkpt>
      <trkpt lat="46.53546" lon="5.42554">
        <ele>432</ele>
        <time>2021-05-29T07:44:08.739Z</time>
      </trkpt>
      <trkpt lat="46.53545" lon="5.42554">
        <ele>433</ele>
        <time>2021-05-29T07:44:09.739Z</time>
      </trkpt>
      <trkpt lat="46.53545" lon="5.42554">
        <ele>433</ele>
        <time>2021-05-29T07:44:10.739Z</time>
      </trkpt>
      <trkpt lat="46.53545" lon="5.42555">
        <ele>434</ele>
        <time>2021-05-29T07:44:11.738Z</time>
      </trkpt>
      <trkpt lat="46.53546" lon="5.42556">
        <ele>434</ele>
        <time>2021-05-29T07:44:12.738Z</time>
      </trkpt>
      <trkpt lat="46.53545" lon="5.42556">
        <ele>434</ele>
        <time>2021-05-29T07:44:13.739Z</time>
      </trkpt>
      <trkpt lat="46.53545" lon="5.42557">
        <ele>434</ele>
        <time>2021-05-29T07:44:14.739Z</time>
      </trkpt>
      <trkpt lat="46.53545" lon="5.42557">
        <ele>434</ele>
        <time>2021-05-29T07:44:15.739Z</time>
      </trkpt>
      <trkpt lat="46.53545" lon="5.42557">
        <ele>433</ele>
        <time>2021-05-29T07:44:16.739Z</time>
      </trkpt>
      <trkpt lat="46.53546" lon="5.42557">
        <ele>434</ele>
        <time>2021-05-29T07:44:17.739Z</time>
      </trkpt>
      <trkpt lat="46.53546" lon="5.42557">
        <ele>434</ele>
        <time>2021-05-29T07:44:18.738Z</time>
      </trkpt>
      <trkpt lat="46.53545" lon="5.42558">
        <ele>434</ele>
        <time>2021-05-29T07:44:19.738Z</time>
      </trkpt>
      <trkpt lat="46.53545" lon="5.42558">
        <ele>434</ele>
        <time>2021-05-29T07:44:20.738Z</time>
      </trkpt>
      <trkpt lat="46.53545" lon="5.42558">
        <ele>434</ele>
        <time>2021-05-29T07:44:21.738Z</time>
      </trkpt>
      <trkpt lat="46.53545" lon="5.42558">
        <ele>434</ele>
        <time>2021-05-29T07:44:22.738Z</time>
      </trkpt>
      <trkpt lat="46.53545" lon="5.42558">
        <ele>434</ele>
        <time>2021-05-29T07:44:23.738Z</time>
      </trkpt>
      <trkpt lat="46.53545" lon="5.42558">
        <ele>434</ele>
        <time>2021-05-29T07:44:24.739Z</time>
      </trkpt>
      <trkpt lat="46.53545" lon="5.42558">
        <ele>434</ele>
        <time>2021-05-29T07:44:25.739Z</time>
      </trkpt>
      <trkpt lat="46.53545" lon="5.42558">
        <ele>434</ele>
        <time>2021-05-29T07:44:26.739Z</time>
      </trkpt>
      <trkpt lat="46.53545" lon="5.42558">
        <ele>434</ele>
        <time>2021-05-29T07:44:27.739Z</time>
      </trkpt>
      <trkpt lat="46.53545" lon="5.42558">
        <ele>434</ele>
        <time>2021-05-29T07:44:28.739Z</time>
      </trkpt>
      <trkpt lat="46.53545" lon="5.42558">
        <ele>434</ele>
        <time>2021-05-29T07:44:29.739Z</time>
      </trkpt>
      <trkpt lat="46.53545" lon="5.42558">
        <ele>434</ele>
        <time>2021-05-29T07:44:30.738Z</time>
      </trkpt>
      <trkpt lat="46.53545" lon="5.42558">
        <ele>434</ele>
        <time>2021-05-29T07:44:31.739Z</time>
      </trkpt>
      <trkpt lat="46.53545" lon="5.42558">
        <ele>434</ele>
        <time>2021-05-29T07:44:32.739Z</time>
      </trkpt>
      <trkpt lat="46.53545" lon="5.42558">
        <ele>434</ele>
        <time>2021-05-29T07:44:33.739Z</time>
      </trkpt>
      <trkpt lat="46.53545" lon="5.42558">
        <ele>434</ele>
        <time>2021-05-29T07:44:34.738Z</time>
      </trkpt>
      <trkpt lat="46.53545" lon="5.42558">
        <ele>434</ele>
        <time>2021-05-29T07:44:35.739Z</time>
      </trkpt>
      <trkpt lat="46.53545" lon="5.42558">
        <ele>434</ele>
        <time>2021-05-29T07:44:36.739Z</time>
      </trkpt>
      <trkpt lat="46.53545" lon="5.42558">
        <ele>434</ele>
        <time>2021-05-29T07:44:37.739Z</time>
      </trkpt>
      <trkpt lat="46.53545" lon="5.42558">
        <ele>434</ele>
        <time>2021-05-29T07:44:38.739Z</time>
      </trkpt>
      <trkpt lat="46.53545" lon="5.42558">
        <ele>434</ele>
        <time>2021-05-29T07:44:39.739Z</time>
      </trkpt>
      <trkpt lat="46.53545" lon="5.42558">
        <ele>434</ele>
        <time>2021-05-29T07:44:40.738Z</time>
      </trkpt>
      <trkpt lat="46.53545" lon="5.42558">
        <ele>434</ele>
        <time>2021-05-29T07:44:41.739Z</time>
      </trkpt>
      <trkpt lat="46.53545" lon="5.42558">
        <ele>434</ele>
        <time>2021-05-29T07:44:42.739Z</time>
      </trkpt>
      <trkpt lat="46.53544" lon="5.42557">
        <ele>434</ele>
        <time>2021-05-29T07:44:43.739Z</time>
      </trkpt>
      <trkpt lat="46.53544" lon="5.42557">
        <ele>434</ele>
        <time>2021-05-29T07:44:44.739Z</time>
      </trkpt>
      <trkpt lat="46.53544" lon="5.42557">
        <ele>434</ele>
        <time>2021-05-29T07:44:45.738Z</time>
      </trkpt>
      <trkpt lat="46.53544" lon="5.42557">
        <ele>434</ele>
        <time>2021-05-29T07:44:46.739Z</time>
      </trkpt>
      <trkpt lat="46.53544" lon="5.42557">
        <ele>434</ele>
        <time>2021-05-29T07:44:47.739Z</time>
      </trkpt>
      <trkpt lat="46.53545" lon="5.42556">
        <ele>434</ele>
        <time>2021-05-29T07:44:48.739Z</time>
      </trkpt>
      <trkpt lat="46.53545" lon="5.42556">
        <ele>434</ele>
        <time>2021-05-29T07:44:49.739Z</time>
      </trkpt>
      <trkpt lat="46.53545" lon="5.42556">
        <ele>434</ele>
        <time>2021-05-29T07:44:50.739Z</time>
      </trkpt>
      <trkpt lat="46.53545" lon="5.42556">
        <ele>434</ele>
        <time>2021-05-29T07:44:51.740Z</time>
      </trkpt>
      <trkpt lat="46.53545" lon="5.42556">
        <ele>434</ele>
        <time>2021-05-29T07:44:52.739Z</time>
      </trkpt>
      <trkpt lat="46.53545" lon="5.42555">
        <ele>434</ele>
        <time>2021-05-29T07:44:53.740Z</time>
      </trkpt>
      <trkpt lat="46.53546" lon="5.42554">
        <ele>434</ele>
        <time>2021-05-29T07:44:54.739Z</time>
      </trkpt>
      <trkpt lat="46.53548" lon="5.42551">
        <ele>434</ele>
        <time>2021-05-29T07:44:55.740Z</time>
      </trkpt>
      <trkpt lat="46.5355" lon="5.42549">
        <ele>434</ele>
        <time>2021-05-29T07:44:56.740Z</time>
      </trkpt>
      <trkpt lat="46.53551" lon="5.42547">
        <ele>434</ele>
        <time>2021-05-29T07:44:57.740Z</time>
      </trkpt>
      <trkpt lat="46.53553" lon="5.42546">
        <ele>434</ele>
        <time>2021-05-29T07:44:58.740Z</time>
      </trkpt>
      <trkpt lat="46.53554" lon="5.42544">
        <ele>434</ele>
        <time>2021-05-29T07:44:59.739Z</time>
      </trkpt>
      <trkpt lat="46.53555" lon="5.42542">
        <ele>434</ele>
        <time>2021-05-29T07:45:00.740Z</time>
      </trkpt>
      <trkpt lat="46.53557" lon="5.42539">
        <ele>434</ele>
        <time>2021-05-29T07:45:01.740Z</time>
      </trkpt>
      <trkpt lat="46.53559" lon="5.42537">
        <ele>434</ele>
        <time>2021-05-29T07:45:02.740Z</time>
      </trkpt>
      <trkpt lat="46.5356" lon="5.42536">
        <ele>434</ele>
        <time>2021-05-29T07:45:03.740Z</time>
      </trkpt>
      <trkpt lat="46.53562" lon="5.42534">
        <ele>434</ele>
        <time>2021-05-29T07:45:04.740Z</time>
      </trkpt>
      <trkpt lat="46.53563" lon="5.42533">
        <ele>435</ele>
        <time>2021-05-29T07:45:05.740Z</time>
      </trkpt>
      <trkpt lat="46.53564" lon="5.42531">
        <ele>435</ele>
        <time>2021-05-29T07:45:06.740Z</time>
      </trkpt>
      <trkpt lat="46.53565" lon="5.42529">
        <ele>436</ele>
        <time>2021-05-29T07:45:07.740Z</time>
      </trkpt>
      <trkpt lat="46.53566" lon="5.42527">
        <ele>436</ele>
        <time>2021-05-29T07:45:08.740Z</time>
      </trkpt>
      <trkpt lat="46.53567" lon="5.42525">
        <ele>436</ele>
        <time>2021-05-29T07:45:09.739Z</time>
      </trkpt>
      <trkpt lat="46.53568" lon="5.42523">
        <ele>436</ele>
        <time>2021-05-29T07:45:10.740Z</time>
      </trkpt>
      <trkpt lat="46.53569" lon="5.4252">
        <ele>436</ele>
        <time>2021-05-29T07:45:11.740Z</time>
      </trkpt>
      <trkpt lat="46.5357" lon="5.42518">
        <ele>436</ele>
        <time>2021-05-29T07:45:12.740Z</time>
      </trkpt>
      <trkpt lat="46.53571" lon="5.42516">
        <ele>437</ele>
        <time>2021-05-29T07:45:13.740Z</time>
      </trkpt>
      <trkpt lat="46.53573" lon="5.42514">
        <ele>437</ele>
        <time>2021-05-29T07:45:14.740Z</time>
      </trkpt>
      <trkpt lat="46.53574" lon="5.42513">
        <ele>437</ele>
        <time>2021-05-29T07:45:15.740Z</time>
      </trkpt>
      <trkpt lat="46.53575" lon="5.42511">
        <ele>438</ele>
        <time>2021-05-29T07:45:16.740Z</time>
      </trkpt>
      <trkpt lat="46.53576" lon="5.42509">
        <ele>438</ele>
        <time>2021-05-29T07:45:17.740Z</time>
      </trkpt>
      <trkpt lat="46.53577" lon="5.42507">
        <ele>438</ele>
        <time>2021-05-29T07:45:18.740Z</time>
      </trkpt>
      <trkpt lat="46.53578" lon="5.42505">
        <ele>439</ele>
        <time>2021-05-29T07:45:19.740Z</time>
      </trkpt>
      <trkpt lat="46.53579" lon="5.42504">
        <ele>439</ele>
        <time>2021-05-29T07:45:20.740Z</time>
      </trkpt>
      <trkpt lat="46.5358" lon="5.42503">
        <ele>439</ele>
        <time>2021-05-29T07:45:21.740Z</time>
      </trkpt>
      <trkpt lat="46.53581" lon="5.42502">
        <ele>439</ele>
        <time>2021-05-29T07:45:22.739Z</time>
      </trkpt>
      <trkpt lat="46.53582" lon="5.425">
        <ele>439</ele>
        <time>2021-05-29T07:45:23.740Z</time>
      </trkpt>
      <trkpt lat="46.53584" lon="5.42499">
        <ele>439</ele>
        <time>2021-05-29T07:45:24.740Z</time>
      </trkpt>
      <trkpt lat="46.53585" lon="5.42498">
        <ele>439</ele>
        <time>2021-05-29T07:45:25.740Z</time>
      </trkpt>
      <trkpt lat="46.53587" lon="5.42497">
        <ele>439</ele>
        <time>2021-05-29T07:45:26.740Z</time>
      </trkpt>
      <trkpt lat="46.53588" lon="5.42496">
        <ele>440</ele>
        <time>2021-05-29T07:45:27.740Z</time>
      </trkpt>
      <trkpt lat="46.5359" lon="5.42495">
        <ele>440</ele>
        <time>2021-05-29T07:45:28.740Z</time>
      </trkpt>
      <trkpt lat="46.53591" lon="5.42494">
        <ele>440</ele>
        <time>2021-05-29T07:45:29.739Z</time>
      </trkpt>
      <trkpt lat="46.53592" lon="5.42493">
        <ele>441</ele>
        <time>2021-05-29T07:45:30.740Z</time>
      </trkpt>
      <trkpt lat="46.53593" lon="5.42492">
        <ele>441</ele>
        <time>2021-05-29T07:45:31.739Z</time>
      </trkpt>
      <trkpt lat="46.53595" lon="5.42492">
        <ele>441</ele>
        <time>2021-05-29T07:45:32.739Z</time>
      </trkpt>
      <trkpt lat="46.53596" lon="5.42491">
        <ele>441</ele>
        <time>2021-05-29T07:45:33.740Z</time>
      </trkpt>
      <trkpt lat="46.53598" lon="5.42491">
        <ele>441</ele>
        <time>2021-05-29T07:45:34.740Z</time>
      </trkpt>
      <trkpt lat="46.53599" lon="5.4249">
        <ele>441</ele>
        <time>2021-05-29T07:45:35.740Z</time>
      </trkpt>
      <trkpt lat="46.536" lon="5.4249">
        <ele>441</ele>
        <time>2021-05-29T07:45:36.740Z</time>
      </trkpt>
      <trkpt lat="46.53602" lon="5.42489">
        <ele>442</ele>
        <time>2021-05-29T07:45:37.740Z</time>
      </trkpt>
      <trkpt lat="46.53602" lon="5.42489">
        <ele>442</ele>
        <time>2021-05-29T07:45:38.740Z</time>
      </trkpt>
      <trkpt lat="46.53603" lon="5.42488">
        <ele>442</ele>
        <time>2021-05-29T07:45:39.740Z</time>
      </trkpt>
      <trkpt lat="46.53605" lon="5.42488">
        <ele>442</ele>
        <time>2021-05-29T07:45:40.740Z</time>
      </trkpt>
      <trkpt lat="46.53606" lon="5.42488">
        <ele>442</ele>
        <time>2021-05-29T07:45:41.740Z</time>
      </trkpt>
      <trkpt lat="46.53608" lon="5.42487">
        <ele>442</ele>
        <time>2021-05-29T07:45:42.740Z</time>
      </trkpt>
      <trkpt lat="46.53609" lon="5.42486">
        <ele>443</ele>
        <time>2021-05-29T07:45:43.740Z</time>
      </trkpt>
      <trkpt lat="46.53611" lon="5.42485">
        <ele>443</ele>
        <time>2021-05-29T07:45:44.740Z</time>
      </trkpt>
      <trkpt lat="46.53612" lon="5.42485">
        <ele>443</ele>
        <time>2021-05-29T07:45:45.740Z</time>
      </trkpt>
      <trkpt lat="46.53614" lon="5.42484">
        <ele>444</ele>
        <time>2021-05-29T07:45:46.740Z</time>
      </trkpt>
      <trkpt lat="46.53616" lon="5.42481">
        <ele>445</ele>
        <time>2021-05-29T07:45:47.740Z</time>
      </trkpt>
      <trkpt lat="46.53617" lon="5.42478">
        <ele>445</ele>
        <time>2021-05-29T07:45:48.740Z</time>
      </trkpt>
      <trkpt lat="46.53618" lon="5.42476">
        <ele>446</ele>
        <time>2021-05-29T07:45:49.740Z</time>
      </trkpt>
      <trkpt lat="46.53619" lon="5.42476">
        <ele>447</ele>
        <time>2021-05-29T07:45:50.740Z</time>
      </trkpt>
      <trkpt lat="46.53621" lon="5.42475">
        <ele>447</ele>
        <time>2021-05-29T07:45:51.740Z</time>
      </trkpt>
      <trkpt lat="46.53622" lon="5.42473">
        <ele>448</ele>
        <time>2021-05-29T07:45:52.740Z</time>
      </trkpt>
      <trkpt lat="46.53623" lon="5.42472">
        <ele>449</ele>
        <time>2021-05-29T07:45:53.740Z</time>
      </trkpt>
      <trkpt lat="46.53624" lon="5.42471">
        <ele>450</ele>
        <time>2021-05-29T07:45:54.739Z</time>
      </trkpt>
      <trkpt lat="46.53626" lon="5.4247">
        <ele>451</ele>
        <time>2021-05-29T07:45:55.740Z</time>
      </trkpt>
      <trkpt lat="46.53627" lon="5.42469">
        <ele>452</ele>
        <time>2021-05-29T07:45:56.739Z</time>
      </trkpt>
      <trkpt lat="46.53629" lon="5.42467">
        <ele>453</ele>
        <time>2021-05-29T07:45:57.740Z</time>
      </trkpt>
      <trkpt lat="46.5363" lon="5.42467">
        <ele>453</ele>
        <time>2021-05-29T07:45:58.740Z</time>
      </trkpt>
      <trkpt lat="46.53631" lon="5.42466">
        <ele>454</ele>
        <time>2021-05-29T07:45:59.740Z</time>
      </trkpt>
      <trkpt lat="46.53632" lon="5.42465">
        <ele>454</ele>
        <time>2021-05-29T07:46:00.740Z</time>
      </trkpt>
      <trkpt lat="46.53633" lon="5.42465">
        <ele>454</ele>
        <time>2021-05-29T07:46:01.740Z</time>
      </trkpt>
      <trkpt lat="46.53634" lon="5.42464">
        <ele>454</ele>
        <time>2021-05-29T07:46:02.740Z</time>
      </trkpt>
      <trkpt lat="46.53636" lon="5.42464">
        <ele>454</ele>
        <time>2021-05-29T07:46:03.740Z</time>
      </trkpt>
      <trkpt lat="46.53637" lon="5.42463">
        <ele>454</ele>
        <time>2021-05-29T07:46:04.740Z</time>
      </trkpt>
      <trkpt lat="46.5364" lon="5.42462">
        <ele>454</ele>
        <time>2021-05-29T07:46:05.740Z</time>
      </trkpt>
      <trkpt lat="46.53642" lon="5.4246">
        <ele>454</ele>
        <time>2021-05-29T07:46:06.740Z</time>
      </trkpt>
      <trkpt lat="46.53644" lon="5.42458">
        <ele>455</ele>
        <time>2021-05-29T07:46:07.740Z</time>
      </trkpt>
      <trkpt lat="46.53646" lon="5.42456">
        <ele>455</ele>
        <time>2021-05-29T07:46:08.740Z</time>
      </trkpt>
      <trkpt lat="46.53648" lon="5.42455">
        <ele>455</ele>
        <time>2021-05-29T07:46:09.740Z</time>
      </trkpt>
      <trkpt lat="46.53649" lon="5.42454">
        <ele>455</ele>
        <time>2021-05-29T07:46:10.739Z</time>
      </trkpt>
      <trkpt lat="46.53651" lon="5.42454">
        <ele>456</ele>
        <time>2021-05-29T07:46:11.740Z</time>
      </trkpt>
      <trkpt lat="46.53652" lon="5.42453">
        <ele>456</ele>
        <time>2021-05-29T07:46:12.739Z</time>
      </trkpt>
      <trkpt lat="46.53653" lon="5.42453">
        <ele>456</ele>
        <time>2021-05-29T07:46:13.740Z</time>
      </trkpt>
      <trkpt lat="46.53654" lon="5.42452">
        <ele>457</ele>
        <time>2021-05-29T07:46:14.740Z</time>
      </trkpt>
      <trkpt lat="46.53654" lon="5.42452">
        <ele>457</ele>
        <time>2021-05-29T07:46:15.739Z</time>
      </trkpt>
      <trkpt lat="46.53656" lon="5.42452">
        <ele>457</ele>
        <time>2021-05-29T07:46:16.739Z</time>
      </trkpt>
      <trkpt lat="46.53657" lon="5.42452">
        <ele>458</ele>
        <time>2021-05-29T07:46:17.740Z</time>
      </trkpt>
      <trkpt lat="46.53658" lon="5.42452">
        <ele>458</ele>
        <time>2021-05-29T07:46:18.740Z</time>
      </trkpt>
      <trkpt lat="46.53659" lon="5.42452">
        <ele>458</ele>
        <time>2021-05-29T07:46:19.739Z</time>
      </trkpt>
      <trkpt lat="46.53661" lon="5.42452">
        <ele>459</ele>
        <time>2021-05-29T07:46:20.740Z</time>
      </trkpt>
      <trkpt lat="46.53661" lon="5.42452">
        <ele>460</ele>
        <time>2021-05-29T07:46:21.740Z</time>
      </trkpt>
      <trkpt lat="46.53663" lon="5.42451">
        <ele>461</ele>
        <time>2021-05-29T07:46:22.740Z</time>
      </trkpt>
      <trkpt lat="46.53664" lon="5.42451">
        <ele>461</ele>
        <time>2021-05-29T07:46:23.740Z</time>
      </trkpt>
      <trkpt lat="46.53666" lon="5.42451">
        <ele>462</ele>
        <time>2021-05-29T07:46:24.740Z</time>
      </trkpt>
      <trkpt lat="46.53667" lon="5.42451">
        <ele>462</ele>
        <time>2021-05-29T07:46:25.740Z</time>
      </trkpt>
      <trkpt lat="46.53669" lon="5.42451">
        <ele>462</ele>
        <time>2021-05-29T07:46:26.740Z</time>
      </trkpt>
      <trkpt lat="46.5367" lon="5.42452">
        <ele>462</ele>
        <time>2021-05-29T07:46:27.740Z</time>
      </trkpt>
      <trkpt lat="46.53672" lon="5.42452">
        <ele>462</ele>
        <time>2021-05-29T07:46:28.740Z</time>
      </trkpt>
      <trkpt lat="46.53674" lon="5.42452">
        <ele>462</ele>
        <time>2021-05-29T07:46:29.740Z</time>
      </trkpt>
      <trkpt lat="46.53675" lon="5.42452">
        <ele>463</ele>
        <time>2021-05-29T07:46:30.740Z</time>
      </trkpt>
      <trkpt lat="46.53676" lon="5.42452">
        <ele>463</ele>
        <time>2021-05-29T07:46:31.739Z</time>
      </trkpt>
      <trkpt lat="46.53678" lon="5.42453">
        <ele>463</ele>
        <time>2021-05-29T07:46:32.740Z</time>
      </trkpt>
      <trkpt lat="46.53679" lon="5.42453">
        <ele>464</ele>
        <time>2021-05-29T07:46:33.740Z</time>
      </trkpt>
      <trkpt lat="46.53681" lon="5.42454">
        <ele>464</ele>
        <time>2021-05-29T07:46:34.740Z</time>
      </trkpt>
      <trkpt lat="46.53683" lon="5.42455">
        <ele>465</ele>
        <time>2021-05-29T07:46:35.740Z</time>
      </trkpt>
      <trkpt lat="46.53685" lon="5.42455">
        <ele>465</ele>
        <time>2021-05-29T07:46:36.740Z</time>
      </trkpt>
      <trkpt lat="46.53687" lon="5.42456">
        <ele>465</ele>
        <time>2021-05-29T07:46:37.740Z</time>
      </trkpt>
      <trkpt lat="46.53688" lon="5.42458">
        <ele>465</ele>
        <time>2021-05-29T07:46:38.739Z</time>
      </trkpt>
      <trkpt lat="46.53689" lon="5.42459">
        <ele>466</ele>
        <time>2021-05-29T07:46:39.740Z</time>
      </trkpt>
      <trkpt lat="46.5369" lon="5.42459">
        <ele>466</ele>
        <time>2021-05-29T07:46:40.740Z</time>
      </trkpt>
      <trkpt lat="46.53691" lon="5.4246">
        <ele>466</ele>
        <time>2021-05-29T07:46:41.740Z</time>
      </trkpt>
      <trkpt lat="46.53692" lon="5.42461">
        <ele>466</ele>
        <time>2021-05-29T07:46:42.740Z</time>
      </trkpt>
      <trkpt lat="46.53693" lon="5.42461">
        <ele>466</ele>
        <time>2021-05-29T07:46:43.740Z</time>
      </trkpt>
      <trkpt lat="46.53694" lon="5.42462">
        <ele>466</ele>
        <time>2021-05-29T07:46:44.740Z</time>
      </trkpt>
      <trkpt lat="46.53695" lon="5.42462">
        <ele>466</ele>
        <time>2021-05-29T07:46:45.739Z</time>
      </trkpt>
      <trkpt lat="46.53697" lon="5.42463">
        <ele>466</ele>
        <time>2021-05-29T07:46:46.740Z</time>
      </trkpt>
      <trkpt lat="46.53698" lon="5.42464">
        <ele>466</ele>
        <time>2021-05-29T07:46:47.739Z</time>
      </trkpt>
      <trkpt lat="46.53699" lon="5.42465">
        <ele>466</ele>
        <time>2021-05-29T07:46:48.740Z</time>
      </trkpt>
      <trkpt lat="46.537" lon="5.42466">
        <ele>466</ele>
        <time>2021-05-29T07:46:49.739Z</time>
      </trkpt>
      <trkpt lat="46.53702" lon="5.42467">
        <ele>466</ele>
        <time>2021-05-29T07:46:50.740Z</time>
      </trkpt>
      <trkpt lat="46.53703" lon="5.42469">
        <ele>466</ele>
        <time>2021-05-29T07:46:51.740Z</time>
      </trkpt>
      <trkpt lat="46.53705" lon="5.42469">
        <ele>466</ele>
        <time>2021-05-29T07:46:52.739Z</time>
      </trkpt>
      <trkpt lat="46.53707" lon="5.4247">
        <ele>466</ele>
        <time>2021-05-29T07:46:53.740Z</time>
      </trkpt>
      <trkpt lat="46.53709" lon="5.42471">
        <ele>466</ele>
        <time>2021-05-29T07:46:54.740Z</time>
      </trkpt>
      <trkpt lat="46.5371" lon="5.42472">
        <ele>467</ele>
        <time>2021-05-29T07:46:55.740Z</time>
      </trkpt>
      <trkpt lat="46.53712" lon="5.42474">
        <ele>467</ele>
        <time>2021-05-29T07:46:56.739Z</time>
      </trkpt>
      <trkpt lat="46.53713" lon="5.42476">
        <ele>468</ele>
        <time>2021-05-29T07:46:57.740Z</time>
      </trkpt>
      <trkpt lat="46.53715" lon="5.42478">
        <ele>468</ele>
        <time>2021-05-29T07:46:58.740Z</time>
      </trkpt>
      <trkpt lat="46.53717" lon="5.42479">
        <ele>469</ele>
        <time>2021-05-29T07:46:59.740Z</time>
      </trkpt>
      <trkpt lat="46.53719" lon="5.42482">
        <ele>469</ele>
        <time>2021-05-29T07:47:00.740Z</time>
      </trkpt>
      <trkpt lat="46.5372" lon="5.42485">
        <ele>470</ele>
        <time>2021-05-29T07:47:01.740Z</time>
      </trkpt>
      <trkpt lat="46.5372" lon="5.42486">
        <ele>470</ele>
        <time>2021-05-29T07:47:02.740Z</time>
      </trkpt>
      <trkpt lat="46.53722" lon="5.42488">
        <ele>471</ele>
        <time>2021-05-29T07:47:03.740Z</time>
      </trkpt>
      <trkpt lat="46.53724" lon="5.4249">
        <ele>471</ele>
        <time>2021-05-29T07:47:04.739Z</time>
      </trkpt>
      <trkpt lat="46.53726" lon="5.42492">
        <ele>471</ele>
        <time>2021-05-29T07:47:05.740Z</time>
      </trkpt>
      <trkpt lat="46.53727" lon="5.42494">
        <ele>472</ele>
        <time>2021-05-29T07:47:06.740Z</time>
      </trkpt>
      <trkpt lat="46.5373" lon="5.42496">
        <ele>472</ele>
        <time>2021-05-29T07:47:07.739Z</time>
      </trkpt>
      <trkpt lat="46.53732" lon="5.42498">
        <ele>472</ele>
        <time>2021-05-29T07:47:08.740Z</time>
      </trkpt>
      <trkpt lat="46.53734" lon="5.425">
        <ele>473</ele>
        <time>2021-05-29T07:47:09.739Z</time>
      </trkpt>
      <trkpt lat="46.53736" lon="5.42501">
        <ele>473</ele>
        <time>2021-05-29T07:47:10.739Z</time>
      </trkpt>
      <trkpt lat="46.53737" lon="5.42503">
        <ele>473</ele>
        <time>2021-05-29T07:47:11.740Z</time>
      </trkpt>
      <trkpt lat="46.53739" lon="5.42504">
        <ele>473</ele>
        <time>2021-05-29T07:47:12.740Z</time>
      </trkpt>
      <trkpt lat="46.5374" lon="5.42505">
        <ele>473</ele>
        <time>2021-05-29T07:47:13.739Z</time>
      </trkpt>
      <trkpt lat="46.53742" lon="5.42505">
        <ele>473</ele>
        <time>2021-05-29T07:47:14.739Z</time>
      </trkpt>
      <trkpt lat="46.53748" lon="5.42506">
        <ele>473</ele>
        <time>2021-05-29T07:47:15.742Z</time>
      </trkpt>
      <trkpt lat="46.53748" lon="5.42507">
        <ele>473</ele>
        <time>2021-05-29T07:47:16.742Z</time>
      </trkpt>
      <trkpt lat="46.53749" lon="5.42506">
        <ele>474</ele>
        <time>2021-05-29T07:47:17.741Z</time>
      </trkpt>
      <trkpt lat="46.5375" lon="5.42506">
        <ele>473</ele>
        <time>2021-05-29T07:47:18.742Z</time>
      </trkpt>
      <trkpt lat="46.53751" lon="5.42506">
        <ele>473</ele>
        <time>2021-05-29T07:47:19.742Z</time>
      </trkpt>
      <trkpt lat="46.53752" lon="5.42507">
        <ele>473</ele>
        <time>2021-05-29T07:47:20.742Z</time>
      </trkpt>
      <trkpt lat="46.53753" lon="5.42507">
        <ele>473</ele>
        <time>2021-05-29T07:47:21.742Z</time>
      </trkpt>
      <trkpt lat="46.53754" lon="5.42508">
        <ele>473</ele>
        <time>2021-05-29T07:47:22.742Z</time>
      </trkpt>
      <trkpt lat="46.53755" lon="5.42508">
        <ele>473</ele>
        <time>2021-05-29T07:47:23.741Z</time>
      </trkpt>
      <trkpt lat="46.53757" lon="5.42507">
        <ele>473</ele>
        <time>2021-05-29T07:47:24.741Z</time>
      </trkpt>
      <trkpt lat="46.53758" lon="5.42506">
        <ele>473</ele>
        <time>2021-05-29T07:47:25.741Z</time>
      </trkpt>
      <trkpt lat="46.53759" lon="5.42505">
        <ele>474</ele>
        <time>2021-05-29T07:47:26.741Z</time>
      </trkpt>
      <trkpt lat="46.5376" lon="5.42505">
        <ele>475</ele>
        <time>2021-05-29T07:47:27.741Z</time>
      </trkpt>
      <trkpt lat="46.53761" lon="5.42505">
        <ele>475</ele>
        <time>2021-05-29T07:47:28.742Z</time>
      </trkpt>
      <trkpt lat="46.53762" lon="5.42504">
        <ele>476</ele>
        <time>2021-05-29T07:47:29.741Z</time>
      </trkpt>
      <trkpt lat="46.53763" lon="5.42504">
        <ele>476</ele>
        <time>2021-05-29T07:47:30.741Z</time>
      </trkpt>
      <trkpt lat="46.53763" lon="5.42504">
        <ele>476</ele>
        <time>2021-05-29T07:47:31.742Z</time>
      </trkpt>
      <trkpt lat="46.53764" lon="5.42504">
        <ele>476</ele>
        <time>2021-05-29T07:47:32.742Z</time>
      </trkpt>
      <trkpt lat="46.53765" lon="5.42503">
        <ele>476</ele>
        <time>2021-05-29T07:47:33.741Z</time>
      </trkpt>
      <trkpt lat="46.53766" lon="5.42502">
        <ele>476</ele>
        <time>2021-05-29T07:47:34.742Z</time>
      </trkpt>
      <trkpt lat="46.53767" lon="5.42501">
        <ele>476</ele>
        <time>2021-05-29T07:47:35.742Z</time>
      </trkpt>
      <trkpt lat="46.53768" lon="5.425">
        <ele>477</ele>
        <time>2021-05-29T07:47:36.742Z</time>
      </trkpt>
      <trkpt lat="46.53769" lon="5.42499">
        <ele>477</ele>
        <time>2021-05-29T07:47:37.742Z</time>
      </trkpt>
      <trkpt lat="46.53769" lon="5.42498">
        <ele>478</ele>
        <time>2021-05-29T07:47:38.742Z</time>
      </trkpt>
      <trkpt lat="46.53769" lon="5.42497">
        <ele>478</ele>
        <time>2021-05-29T07:47:39.742Z</time>
      </trkpt>
      <trkpt lat="46.5377" lon="5.42495">
        <ele>478</ele>
        <time>2021-05-29T07:47:40.742Z</time>
      </trkpt>
      <trkpt lat="46.53771" lon="5.42493">
        <ele>477</ele>
        <time>2021-05-29T07:47:41.742Z</time>
      </trkpt>
      <trkpt lat="46.53771" lon="5.42491">
        <ele>477</ele>
        <time>2021-05-29T07:47:42.742Z</time>
      </trkpt>
      <trkpt lat="46.53772" lon="5.42489">
        <ele>478</ele>
        <time>2021-05-29T07:47:43.741Z</time>
      </trkpt>
      <trkpt lat="46.53773" lon="5.42488">
        <ele>478</ele>
        <time>2021-05-29T07:47:44.742Z</time>
      </trkpt>
      <trkpt lat="46.53774" lon="5.42487">
        <ele>479</ele>
        <time>2021-05-29T07:47:45.742Z</time>
      </trkpt>
      <trkpt lat="46.53775" lon="5.42485">
        <ele>479</ele>
        <time>2021-05-29T07:47:46.742Z</time>
      </trkpt>
      <trkpt lat="46.53776" lon="5.42484">
        <ele>480</ele>
        <time>2021-05-29T07:47:47.742Z</time>
      </trkpt>
      <trkpt lat="46.53777" lon="5.42483">
        <ele>480</ele>
        <time>2021-05-29T07:47:48.741Z</time>
      </trkpt>
      <trkpt lat="46.53777" lon="5.42483">
        <ele>481</ele>
        <time>2021-05-29T07:47:49.741Z</time>
      </trkpt>
      <trkpt lat="46.53778" lon="5.42482">
        <ele>481</ele>
        <time>2021-05-29T07:47:50.742Z</time>
      </trkpt>
      <trkpt lat="46.5378" lon="5.42482">
        <ele>481</ele>
        <time>2021-05-29T07:47:51.742Z</time>
      </trkpt>
      <trkpt lat="46.53781" lon="5.42482">
        <ele>481</ele>
        <time>2021-05-29T07:47:52.741Z</time>
      </trkpt>
      <trkpt lat="46.53781" lon="5.42481">
        <ele>481</ele>
        <time>2021-05-29T07:47:53.742Z</time>
      </trkpt>
      <trkpt lat="46.53782" lon="5.42481">
        <ele>482</ele>
        <time>2021-05-29T07:47:54.742Z</time>
      </trkpt>
      <trkpt lat="46.53783" lon="5.4248">
        <ele>482</ele>
        <time>2021-05-29T07:47:55.741Z</time>
      </trkpt>
      <trkpt lat="46.53784" lon="5.4248">
        <ele>482</ele>
        <time>2021-05-29T07:47:56.742Z</time>
      </trkpt>
      <trkpt lat="46.53785" lon="5.42479">
        <ele>483</ele>
        <time>2021-05-29T07:47:57.742Z</time>
      </trkpt>
      <trkpt lat="46.53786" lon="5.42478">
        <ele>484</ele>
        <time>2021-05-29T07:47:58.741Z</time>
      </trkpt>
      <trkpt lat="46.53787" lon="5.42477">
        <ele>484</ele>
        <time>2021-05-29T07:47:59.742Z</time>
      </trkpt>
      <trkpt lat="46.53788" lon="5.42476">
        <ele>484</ele>
        <time>2021-05-29T07:48:00.741Z</time>
      </trkpt>
      <trkpt lat="46.53789" lon="5.42475">
        <ele>485</ele>
        <time>2021-05-29T07:48:01.742Z</time>
      </trkpt>
      <trkpt lat="46.5379" lon="5.42474">
        <ele>485</ele>
        <time>2021-05-29T07:48:02.742Z</time>
      </trkpt>
      <trkpt lat="46.53791" lon="5.42473">
        <ele>484</ele>
        <time>2021-05-29T07:48:03.742Z</time>
      </trkpt>
      <trkpt lat="46.53791" lon="5.42472">
        <ele>484</ele>
        <time>2021-05-29T07:48:04.741Z</time>
      </trkpt>
      <trkpt lat="46.53792" lon="5.42471">
        <ele>484</ele>
        <time>2021-05-29T07:48:05.741Z</time>
      </trkpt>
      <trkpt lat="46.53793" lon="5.4247">
        <ele>484</ele>
        <time>2021-05-29T07:48:06.742Z</time>
      </trkpt>
      <trkpt lat="46.53793" lon="5.42468">
        <ele>484</ele>
        <time>2021-05-29T07:48:07.742Z</time>
      </trkpt>
      <trkpt lat="46.53794" lon="5.42466">
        <ele>485</ele>
        <time>2021-05-29T07:48:08.741Z</time>
      </trkpt>
      <trkpt lat="46.53795" lon="5.42464">
        <ele>485</ele>
        <time>2021-05-29T07:48:09.742Z</time>
      </trkpt>
      <trkpt lat="46.53796" lon="5.42463">
        <ele>486</ele>
        <time>2021-05-29T07:48:10.742Z</time>
      </trkpt>
      <trkpt lat="46.53797" lon="5.4246">
        <ele>487</ele>
        <time>2021-05-29T07:48:11.742Z</time>
      </trkpt>
      <trkpt lat="46.53798" lon="5.42458">
        <ele>488</ele>
        <time>2021-05-29T07:48:12.742Z</time>
      </trkpt>
      <trkpt lat="46.53799" lon="5.42456">
        <ele>488</ele>
        <time>2021-05-29T07:48:13.742Z</time>
      </trkpt>
      <trkpt lat="46.53801" lon="5.42454">
        <ele>488</ele>
        <time>2021-05-29T07:48:14.742Z</time>
      </trkpt>
      <trkpt lat="46.53802" lon="5.42453">
        <ele>488</ele>
        <time>2021-05-29T07:48:15.742Z</time>
      </trkpt>
      <trkpt lat="46.53803" lon="5.42452">
        <ele>488</ele>
        <time>2021-05-29T07:48:16.742Z</time>
      </trkpt>
      <trkpt lat="46.53806" lon="5.4245">
        <ele>489</ele>
        <time>2021-05-29T07:48:17.741Z</time>
      </trkpt>
      <trkpt lat="46.53807" lon="5.42448">
        <ele>489</ele>
        <time>2021-05-29T07:48:18.742Z</time>
      </trkpt>
      <trkpt lat="46.53809" lon="5.42447">
        <ele>490</ele>
        <time>2021-05-29T07:48:19.742Z</time>
      </trkpt>
      <trkpt lat="46.5381" lon="5.42445">
        <ele>490</ele>
        <time>2021-05-29T07:48:20.742Z</time>
      </trkpt>
      <trkpt lat="46.53812" lon="5.42442">
        <ele>490</ele>
        <time>2021-05-29T07:48:21.742Z</time>
      </trkpt>
      <trkpt lat="46.53814" lon="5.42441">
        <ele>490</ele>
        <time>2021-05-29T07:48:22.742Z</time>
      </trkpt>
      <trkpt lat="46.53815" lon="5.42439">
        <ele>490</ele>
        <time>2021-05-29T07:48:23.742Z</time>
      </trkpt>
      <trkpt lat="46.53817" lon="5.42437">
        <ele>489</ele>
        <time>2021-05-29T07:48:24.742Z</time>
      </trkpt>
      <trkpt lat="46.53818" lon="5.42435">
        <ele>489</ele>
        <time>2021-05-29T07:48:25.742Z</time>
      </trkpt>
      <trkpt lat="46.5382" lon="5.42433">
        <ele>490</ele>
        <time>2021-05-29T07:48:26.742Z</time>
      </trkpt>
      <trkpt lat="46.53821" lon="5.42432">
        <ele>490</ele>
        <time>2021-05-29T07:48:27.741Z</time>
      </trkpt>
      <trkpt lat="46.53823" lon="5.42429">
        <ele>490</ele>
        <time>2021-05-29T07:48:28.742Z</time>
      </trkpt>
      <trkpt lat="46.53825" lon="5.42427">
        <ele>490</ele>
        <time>2021-05-29T07:48:29.742Z</time>
      </trkpt>
      <trkpt lat="46.53827" lon="5.42425">
        <ele>491</ele>
        <time>2021-05-29T07:48:30.742Z</time>
      </trkpt>
      <trkpt lat="46.53828" lon="5.42423">
        <ele>491</ele>
        <time>2021-05-29T07:48:31.742Z</time>
      </trkpt>
      <trkpt lat="46.5383" lon="5.42421">
        <ele>491</ele>
        <time>2021-05-29T07:48:32.741Z</time>
      </trkpt>
      <trkpt lat="46.53832" lon="5.4242">
        <ele>492</ele>
        <time>2021-05-29T07:48:33.742Z</time>
      </trkpt>
      <trkpt lat="46.53834" lon="5.42419">
        <ele>492</ele>
        <time>2021-05-29T07:48:34.741Z</time>
      </trkpt>
      <trkpt lat="46.53836" lon="5.42419">
        <ele>492</ele>
        <time>2021-05-29T07:48:35.742Z</time>
      </trkpt>
      <trkpt lat="46.53838" lon="5.42421">
        <ele>492</ele>
        <time>2021-05-29T07:48:36.741Z</time>
      </trkpt>
      <trkpt lat="46.5384" lon="5.42423">
        <ele>493</ele>
        <time>2021-05-29T07:48:37.742Z</time>
      </trkpt>
      <trkpt lat="46.53841" lon="5.42426">
        <ele>493</ele>
        <time>2021-05-29T07:48:38.742Z</time>
      </trkpt>
      <trkpt lat="46.53842" lon="5.42428">
        <ele>493</ele>
        <time>2021-05-29T07:48:39.742Z</time>
      </trkpt>
      <trkpt lat="46.53843" lon="5.42431">
        <ele>493</ele>
        <time>2021-05-29T07:48:40.742Z</time>
      </trkpt>
      <trkpt lat="46.53843" lon="5.42434">
        <ele>493</ele>
        <time>2021-05-29T07:48:41.742Z</time>
      </trkpt>
      <trkpt lat="46.53843" lon="5.42437">
        <ele>493</ele>
        <time>2021-05-29T07:48:42.742Z</time>
      </trkpt>
      <trkpt lat="46.53844" lon="5.4244">
        <ele>493</ele>
        <time>2021-05-29T07:48:43.742Z</time>
      </trkpt>
      <trkpt lat="46.53844" lon="5.42443">
        <ele>493</ele>
        <time>2021-05-29T07:48:44.742Z</time>
      </trkpt>
      <trkpt lat="46.53844" lon="5.42445">
        <ele>493</ele>
        <time>2021-05-29T07:48:45.741Z</time>
      </trkpt>
      <trkpt lat="46.53844" lon="5.42448">
        <ele>493</ele>
        <time>2021-05-29T07:48:46.742Z</time>
      </trkpt>
      <trkpt lat="46.53844" lon="5.42451">
        <ele>493</ele>
        <time>2021-05-29T07:48:47.741Z</time>
      </trkpt>
      <trkpt lat="46.53843" lon="5.42454">
        <ele>493</ele>
        <time>2021-05-29T07:48:48.741Z</time>
      </trkpt>
      <trkpt lat="46.53843" lon="5.42458">
        <ele>493</ele>
        <time>2021-05-29T07:48:49.742Z</time>
      </trkpt>
      <trkpt lat="46.53842" lon="5.42461">
        <ele>492</ele>
        <time>2021-05-29T07:48:50.742Z</time>
      </trkpt>
      <trkpt lat="46.53842" lon="5.42464">
        <ele>492</ele>
        <time>2021-05-29T07:48:51.742Z</time>
      </trkpt>
      <trkpt lat="46.53842" lon="5.42467">
        <ele>492</ele>
        <time>2021-05-29T07:48:52.742Z</time>
      </trkpt>
      <trkpt lat="46.53842" lon="5.4247">
        <ele>492</ele>
        <time>2021-05-29T07:48:53.742Z</time>
      </trkpt>
      <trkpt lat="46.53843" lon="5.42473">
        <ele>492</ele>
        <time>2021-05-29T07:48:54.742Z</time>
      </trkpt>
      <trkpt lat="46.53843" lon="5.42477">
        <ele>492</ele>
        <time>2021-05-29T07:48:55.742Z</time>
      </trkpt>
      <trkpt lat="46.53844" lon="5.4248">
        <ele>492</ele>
        <time>2021-05-29T07:48:56.742Z</time>
      </trkpt>
      <trkpt lat="46.53844" lon="5.42483">
        <ele>491</ele>
        <time>2021-05-29T07:48:57.742Z</time>
      </trkpt>
      <trkpt lat="46.53845" lon="5.42486">
        <ele>491</ele>
        <time>2021-05-29T07:48:58.741Z</time>
      </trkpt>
      <trkpt lat="46.53845" lon="5.42488">
        <ele>491</ele>
        <time>2021-05-29T07:48:59.741Z</time>
      </trkpt>
      <trkpt lat="46.53846" lon="5.42491">
        <ele>492</ele>
        <time>2021-05-29T07:49:00.742Z</time>
      </trkpt>
      <trkpt lat="46.53846" lon="5.42493">
        <ele>492</ele>
        <time>2021-05-29T07:49:01.742Z</time>
      </trkpt>
      <trkpt lat="46.53846" lon="5.42495">
        <ele>492</ele>
        <time>2021-05-29T07:49:02.742Z</time>
      </trkpt>
      <trkpt lat="46.53846" lon="5.42495">
        <ele>492</ele>
        <time>2021-05-29T07:49:03.742Z</time>
      </trkpt>
      <trkpt lat="46.53845" lon="5.42494">
        <ele>492</ele>
        <time>2021-05-29T07:49:04.742Z</time>
      </trkpt>
      <trkpt lat="46.53844" lon="5.42492">
        <ele>492</ele>
        <time>2021-05-29T07:49:05.742Z</time>
      </trkpt>
      <trkpt lat="46.53843" lon="5.4249">
        <ele>492</ele>
        <time>2021-05-29T07:49:06.742Z</time>
      </trkpt>
      <trkpt lat="46.53843" lon="5.42489">
        <ele>491</ele>
        <time>2021-05-29T07:49:07.742Z</time>
      </trkpt>
      <trkpt lat="46.53845" lon="5.42488">
        <ele>491</ele>
        <time>2021-05-29T07:49:08.742Z</time>
      </trkpt>
      <trkpt lat="46.53846" lon="5.42489">
        <ele>491</ele>
        <time>2021-05-29T07:49:09.742Z</time>
      </trkpt>
      <trkpt lat="46.53847" lon="5.42491">
        <ele>491</ele>
        <time>2021-05-29T07:49:10.742Z</time>
      </trkpt>
      <trkpt lat="46.53848" lon="5.42493">
        <ele>490</ele>
        <time>2021-05-29T07:49:11.742Z</time>
      </trkpt>
      <trkpt lat="46.53849" lon="5.42496">
        <ele>490</ele>
        <time>2021-05-29T07:49:12.742Z</time>
      </trkpt>
      <trkpt lat="46.53851" lon="5.42499">
        <ele>490</ele>
        <time>2021-05-29T07:49:13.742Z</time>
      </trkpt>
      <trkpt lat="46.53852" lon="5.42503">
        <ele>490</ele>
        <time>2021-05-29T07:49:14.742Z</time>
      </trkpt>
      <trkpt lat="46.53854" lon="5.42506">
        <ele>490</ele>
        <time>2021-05-29T07:49:15.742Z</time>
      </trkpt>
      <trkpt lat="46.53856" lon="5.42509">
        <ele>490</ele>
        <time>2021-05-29T07:49:16.742Z</time>
      </trkpt>
      <trkpt lat="46.53857" lon="5.42513">
        <ele>490</ele>
        <time>2021-05-29T07:49:17.742Z</time>
      </trkpt>
      <trkpt lat="46.53858" lon="5.42517">
        <ele>490</ele>
        <time>2021-05-29T07:49:18.742Z</time>
      </trkpt>
      <trkpt lat="46.5386" lon="5.4252">
        <ele>490</ele>
        <time>2021-05-29T07:49:19.742Z</time>
      </trkpt>
      <trkpt lat="46.53862" lon="5.42524">
        <ele>490</ele>
        <time>2021-05-29T07:49:20.742Z</time>
      </trkpt>
      <trkpt lat="46.53865" lon="5.42528">
        <ele>490</ele>
        <time>2021-05-29T07:49:21.741Z</time>
      </trkpt>
      <trkpt lat="46.53866" lon="5.4253">
        <ele>490</ele>
        <time>2021-05-29T07:49:22.742Z</time>
      </trkpt>
      <trkpt lat="46.53868" lon="5.42533">
        <ele>490</ele>
        <time>2021-05-29T07:49:23.742Z</time>
      </trkpt>
      <trkpt lat="46.53869" lon="5.42536">
        <ele>490</ele>
        <time>2021-05-29T07:49:24.742Z</time>
      </trkpt>
      <trkpt lat="46.53871" lon="5.42539">
        <ele>490</ele>
        <time>2021-05-29T07:49:25.742Z</time>
      </trkpt>
      <trkpt lat="46.53871" lon="5.42542">
        <ele>490</ele>
        <time>2021-05-29T07:49:26.742Z</time>
      </trkpt>
      <trkpt lat="46.53873" lon="5.42544">
        <ele>490</ele>
        <time>2021-05-29T07:49:27.742Z</time>
      </trkpt>
      <trkpt lat="46.53874" lon="5.42546">
        <ele>490</ele>
        <time>2021-05-29T07:49:28.742Z</time>
      </trkpt>
      <trkpt lat="46.53875" lon="5.42549">
        <ele>490</ele>
        <time>2021-05-29T07:49:29.742Z</time>
      </trkpt>
      <trkpt lat="46.53877" lon="5.42552">
        <ele>490</ele>
        <time>2021-05-29T07:49:30.741Z</time>
      </trkpt>
      <trkpt lat="46.53878" lon="5.42555">
        <ele>490</ele>
        <time>2021-05-29T07:49:31.742Z</time>
      </trkpt>
      <trkpt lat="46.53879" lon="5.42558">
        <ele>490</ele>
        <time>2021-05-29T07:49:32.742Z</time>
      </trkpt>
      <trkpt lat="46.53881" lon="5.42561">
        <ele>490</ele>
        <time>2021-05-29T07:49:33.742Z</time>
      </trkpt>
      <trkpt lat="46.53882" lon="5.42563">
        <ele>490</ele>
        <time>2021-05-29T07:49:34.742Z</time>
      </trkpt>
      <trkpt lat="46.53883" lon="5.42566">
        <ele>490</ele>
        <time>2021-05-29T07:49:35.741Z</time>
      </trkpt>
      <trkpt lat="46.53884" lon="5.42568">
        <ele>490</ele>
        <time>2021-05-29T07:49:36.741Z</time>
      </trkpt>
      <trkpt lat="46.53886" lon="5.4257">
        <ele>490</ele>
        <time>2021-05-29T07:49:37.742Z</time>
      </trkpt>
      <trkpt lat="46.53887" lon="5.42573">
        <ele>489</ele>
        <time>2021-05-29T07:49:38.742Z</time>
      </trkpt>
      <trkpt lat="46.53888" lon="5.42576">
        <ele>489</ele>
        <time>2021-05-29T07:49:39.741Z</time>
      </trkpt>
      <trkpt lat="46.5389" lon="5.42578">
        <ele>490</ele>
        <time>2021-05-29T07:49:40.741Z</time>
      </trkpt>
      <trkpt lat="46.53892" lon="5.42581">
        <ele>490</ele>
        <time>2021-05-29T07:49:41.742Z</time>
      </trkpt>
      <trkpt lat="46.53895" lon="5.42583">
        <ele>490</ele>
        <time>2021-05-29T07:49:42.742Z</time>
      </trkpt>
      <trkpt lat="46.53897" lon="5.42586">
        <ele>491</ele>
        <time>2021-05-29T07:49:43.742Z</time>
      </trkpt>
      <trkpt lat="46.539" lon="5.42588">
        <ele>491</ele>
        <time>2021-05-29T07:49:44.742Z</time>
      </trkpt>
      <trkpt lat="46.53903" lon="5.42591">
        <ele>491</ele>
        <time>2021-05-29T07:49:45.741Z</time>
      </trkpt>
      <trkpt lat="46.53905" lon="5.42593">
        <ele>492</ele>
        <time>2021-05-29T07:49:46.742Z</time>
      </trkpt>
      <trkpt lat="46.53907" lon="5.42596">
        <ele>492</ele>
        <time>2021-05-29T07:49:47.742Z</time>
      </trkpt>
      <trkpt lat="46.53909" lon="5.42598">
        <ele>492</ele>
        <time>2021-05-29T07:49:48.742Z</time>
      </trkpt>
      <trkpt lat="46.53911" lon="5.426">
        <ele>492</ele>
        <time>2021-05-29T07:49:49.742Z</time>
      </trkpt>
      <trkpt lat="46.53912" lon="5.42602">
        <ele>492</ele>
        <time>2021-05-29T07:49:50.742Z</time>
      </trkpt>
      <trkpt lat="46.53915" lon="5.42604">
        <ele>492</ele>
        <time>2021-05-29T07:49:51.742Z</time>
      </trkpt>
      <trkpt lat="46.53918" lon="5.42606">
        <ele>493</ele>
        <time>2021-05-29T07:49:52.741Z</time>
      </trkpt>
      <trkpt lat="46.53921" lon="5.42607">
        <ele>493</ele>
        <time>2021-05-29T07:49:53.742Z</time>
      </trkpt>
      <trkpt lat="46.53923" lon="5.42609">
        <ele>493</ele>
        <time>2021-05-29T07:49:54.742Z</time>
      </trkpt>
      <trkpt lat="46.53926" lon="5.42611">
        <ele>493</ele>
        <time>2021-05-29T07:49:55.742Z</time>
      </trkpt>
      <trkpt lat="46.53929" lon="5.42613">
        <ele>493</ele>
        <time>2021-05-29T07:49:56.742Z</time>
      </trkpt>
      <trkpt lat="46.53932" lon="5.42615">
        <ele>493</ele>
        <time>2021-05-29T07:49:57.741Z</time>
      </trkpt>
      <trkpt lat="46.53933" lon="5.42617">
        <ele>493</ele>
        <time>2021-05-29T07:49:58.742Z</time>
      </trkpt>
      <trkpt lat="46.53935" lon="5.42619">
        <ele>493</ele>
        <time>2021-05-29T07:49:59.742Z</time>
      </trkpt>
      <trkpt lat="46.53937" lon="5.42621">
        <ele>493</ele>
        <time>2021-05-29T07:50:00.742Z</time>
      </trkpt>
      <trkpt lat="46.53939" lon="5.42623">
        <ele>493</ele>
        <time>2021-05-29T07:50:01.742Z</time>
      </trkpt>
      <trkpt lat="46.53942" lon="5.42625">
        <ele>494</ele>
        <time>2021-05-29T07:50:02.742Z</time>
      </trkpt>
      <trkpt lat="46.53944" lon="5.42627">
        <ele>494</ele>
        <time>2021-05-29T07:50:03.742Z</time>
      </trkpt>
      <trkpt lat="46.53946" lon="5.42629">
        <ele>494</ele>
        <time>2021-05-29T07:50:04.742Z</time>
      </trkpt>
      <trkpt lat="46.53949" lon="5.42631">
        <ele>494</ele>
        <time>2021-05-29T07:50:05.742Z</time>
      </trkpt>
      <trkpt lat="46.53951" lon="5.42633">
        <ele>495</ele>
        <time>2021-05-29T07:50:06.742Z</time>
      </trkpt>
      <trkpt lat="46.53954" lon="5.42634">
        <ele>495</ele>
        <time>2021-05-29T07:50:07.742Z</time>
      </trkpt>
      <trkpt lat="46.53956" lon="5.42636">
        <ele>495</ele>
        <time>2021-05-29T07:50:08.742Z</time>
      </trkpt>
      <trkpt lat="46.53959" lon="5.42638">
        <ele>495</ele>
        <time>2021-05-29T07:50:09.741Z</time>
      </trkpt>
      <trkpt lat="46.53961" lon="5.42641">
        <ele>495</ele>
        <time>2021-05-29T07:50:10.742Z</time>
      </trkpt>
      <trkpt lat="46.53962" lon="5.42643">
        <ele>495</ele>
        <time>2021-05-29T07:50:11.742Z</time>
      </trkpt>
      <trkpt lat="46.53964" lon="5.42645">
        <ele>495</ele>
        <time>2021-05-29T07:50:12.742Z</time>
      </trkpt>
      <trkpt lat="46.53966" lon="5.42647">
        <ele>495</ele>
        <time>2021-05-29T07:50:13.742Z</time>
      </trkpt>
      <trkpt lat="46.53968" lon="5.42649">
        <ele>495</ele>
        <time>2021-05-29T07:50:14.742Z</time>
      </trkpt>
      <trkpt lat="46.5397" lon="5.42651">
        <ele>495</ele>
        <time>2021-05-29T07:50:15.742Z</time>
      </trkpt>
      <trkpt lat="46.53972" lon="5.42652">
        <ele>495</ele>
        <time>2021-05-29T07:50:16.741Z</time>
      </trkpt>
      <trkpt lat="46.53974" lon="5.42654">
        <ele>495</ele>
        <time>2021-05-29T07:50:17.742Z</time>
      </trkpt>
      <trkpt lat="46.53976" lon="5.42656">
        <ele>495</ele>
        <time>2021-05-29T07:50:18.741Z</time>
      </trkpt>
      <trkpt lat="46.53977" lon="5.42658">
        <ele>495</ele>
        <time>2021-05-29T07:50:19.742Z</time>
      </trkpt>
      <trkpt lat="46.53979" lon="5.42659">
        <ele>495</ele>
        <time>2021-05-29T07:50:20.741Z</time>
      </trkpt>
      <trkpt lat="46.5398" lon="5.42661">
        <ele>495</ele>
        <time>2021-05-29T07:50:21.741Z</time>
      </trkpt>
      <trkpt lat="46.53982" lon="5.42662">
        <ele>495</ele>
        <time>2021-05-29T07:50:22.742Z</time>
      </trkpt>
      <trkpt lat="46.53985" lon="5.42664">
        <ele>495</ele>
        <time>2021-05-29T07:50:23.742Z</time>
      </trkpt>
      <trkpt lat="46.53987" lon="5.42666">
        <ele>495</ele>
        <time>2021-05-29T07:50:24.742Z</time>
      </trkpt>
      <trkpt lat="46.53988" lon="5.42667">
        <ele>495</ele>
        <time>2021-05-29T07:50:25.742Z</time>
      </trkpt>
      <trkpt lat="46.5399" lon="5.42669">
        <ele>495</ele>
        <time>2021-05-29T07:50:26.742Z</time>
      </trkpt>
      <trkpt lat="46.53992" lon="5.4267">
        <ele>495</ele>
        <time>2021-05-29T07:50:27.742Z</time>
      </trkpt>
      <trkpt lat="46.53994" lon="5.42672">
        <ele>495</ele>
        <time>2021-05-29T07:50:28.741Z</time>
      </trkpt>
      <trkpt lat="46.53995" lon="5.42673">
        <ele>495</ele>
        <time>2021-05-29T07:50:29.742Z</time>
      </trkpt>
      <trkpt lat="46.53997" lon="5.42675">
        <ele>495</ele>
        <time>2021-05-29T07:50:30.742Z</time>
      </trkpt>
      <trkpt lat="46.53998" lon="5.42676">
        <ele>496</ele>
        <time>2021-05-29T07:50:31.742Z</time>
      </trkpt>
      <trkpt lat="46.54001" lon="5.42679">
        <ele>496</ele>
        <time>2021-05-29T07:50:32.742Z</time>
      </trkpt>
      <trkpt lat="46.54003" lon="5.4268">
        <ele>497</ele>
        <time>2021-05-29T07:50:33.741Z</time>
      </trkpt>
      <trkpt lat="46.54005" lon="5.42682">
        <ele>497</ele>
        <time>2021-05-29T07:50:34.742Z</time>
      </trkpt>
      <trkpt lat="46.54008" lon="5.42684">
        <ele>497</ele>
        <time>2021-05-29T07:50:35.742Z</time>
      </trkpt>
      <trkpt lat="46.5401" lon="5.42685">
        <ele>497</ele>
        <time>2021-05-29T07:50:36.742Z</time>
      </trkpt>
      <trkpt lat="46.54012" lon="5.42687">
        <ele>498</ele>
        <time>2021-05-29T07:50:37.742Z</time>
      </trkpt>
      <trkpt lat="46.54014" lon="5.42689">
        <ele>498</ele>
        <time>2021-05-29T07:50:38.742Z</time>
      </trkpt>
      <trkpt lat="46.54016" lon="5.4269">
        <ele>498</ele>
        <time>2021-05-29T07:50:39.741Z</time>
      </trkpt>
      <trkpt lat="46.54018" lon="5.42692">
        <ele>499</ele>
        <time>2021-05-29T07:50:40.742Z</time>
      </trkpt>
      <trkpt lat="46.5402" lon="5.42694">
        <ele>499</ele>
        <time>2021-05-29T07:50:41.742Z</time>
      </trkpt>
      <trkpt lat="46.54022" lon="5.42696">
        <ele>499</ele>
        <time>2021-05-29T07:50:42.742Z</time>
      </trkpt>
      <trkpt lat="46.54024" lon="5.42698">
        <ele>500</ele>
        <time>2021-05-29T07:50:43.742Z</time>
      </trkpt>
      <trkpt lat="46.54026" lon="5.42701">
        <ele>500</ele>
        <time>2021-05-29T07:50:44.742Z</time>
      </trkpt>
      <trkpt lat="46.54028" lon="5.42704">
        <ele>500</ele>
        <time>2021-05-29T07:50:45.742Z</time>
      </trkpt>
      <trkpt lat="46.54031" lon="5.42706">
        <ele>500</ele>
        <time>2021-05-29T07:50:46.742Z</time>
      </trkpt>
      <trkpt lat="46.54032" lon="5.42708">
        <ele>500</ele>
        <time>2021-05-29T07:50:47.742Z</time>
      </trkpt>
      <trkpt lat="46.54035" lon="5.42711">
        <ele>500</ele>
        <time>2021-05-29T07:50:48.742Z</time>
      </trkpt>
      <trkpt lat="46.54038" lon="5.42713">
        <ele>500</ele>
        <time>2021-05-29T07:50:49.742Z</time>
      </trkpt>
      <trkpt lat="46.5404" lon="5.42715">
        <ele>500</ele>
        <time>2021-05-29T07:50:50.742Z</time>
      </trkpt>
      <trkpt lat="46.54042" lon="5.42716">
        <ele>500</ele>
        <time>2021-05-29T07:50:51.741Z</time>
      </trkpt>
      <trkpt lat="46.54044" lon="5.42718">
        <ele>500</ele>
        <time>2021-05-29T07:50:52.742Z</time>
      </trkpt>
      <trkpt lat="46.54046" lon="5.4272">
        <ele>500</ele>
        <time>2021-05-29T07:50:53.742Z</time>
      </trkpt>
      <trkpt lat="46.54049" lon="5.42723">
        <ele>500</ele>
        <time>2021-05-29T07:50:54.742Z</time>
      </trkpt>
      <trkpt lat="46.54051" lon="5.42725">
        <ele>499</ele>
        <time>2021-05-29T07:50:55.742Z</time>
      </trkpt>
      <trkpt lat="46.54053" lon="5.42728">
        <ele>499</ele>
        <time>2021-05-29T07:50:56.742Z</time>
      </trkpt>
      <trkpt lat="46.54055" lon="5.42731">
        <ele>499</ele>
        <time>2021-05-29T07:50:57.741Z</time>
      </trkpt>
      <trkpt lat="46.54057" lon="5.42733">
        <ele>498</ele>
        <time>2021-05-29T07:50:58.742Z</time>
      </trkpt>
      <trkpt lat="46.54059" lon="5.42736">
        <ele>498</ele>
        <time>2021-05-29T07:50:59.742Z</time>
      </trkpt>
      <trkpt lat="46.54061" lon="5.42739">
        <ele>498</ele>
        <time>2021-05-29T07:51:00.742Z</time>
      </trkpt>
      <trkpt lat="46.54063" lon="5.42741">
        <ele>498</ele>
        <time>2021-05-29T07:51:01.742Z</time>
      </trkpt>
      <trkpt lat="46.54066" lon="5.42743">
        <ele>497</ele>
        <time>2021-05-29T07:51:02.742Z</time>
      </trkpt>
      <trkpt lat="46.54068" lon="5.42745">
        <ele>497</ele>
        <time>2021-05-29T07:51:03.742Z</time>
      </trkpt>
      <trkpt lat="46.54069" lon="5.42748">
        <ele>497</ele>
        <time>2021-05-29T07:51:04.742Z</time>
      </trkpt>
      <trkpt lat="46.54071" lon="5.42751">
        <ele>497</ele>
        <time>2021-05-29T07:51:05.742Z</time>
      </trkpt>
      <trkpt lat="46.54074" lon="5.42753">
        <ele>496</ele>
        <time>2021-05-29T07:51:06.742Z</time>
      </trkpt>
      <trkpt lat="46.54076" lon="5.42755">
        <ele>496</ele>
        <time>2021-05-29T07:51:07.742Z</time>
      </trkpt>
      <trkpt lat="46.54077" lon="5.42757">
        <ele>495</ele>
        <time>2021-05-29T07:51:08.742Z</time>
      </trkpt>
      <trkpt lat="46.5408" lon="5.4276">
        <ele>495</ele>
        <time>2021-05-29T07:51:09.742Z</time>
      </trkpt>
      <trkpt lat="46.54082" lon="5.42762">
        <ele>495</ele>
        <time>2021-05-29T07:51:10.742Z</time>
      </trkpt>
      <trkpt lat="46.54084" lon="5.42764">
        <ele>495</ele>
        <time>2021-05-29T07:51:11.742Z</time>
      </trkpt>
      <trkpt lat="46.54086" lon="5.42766">
        <ele>495</ele>
        <time>2021-05-29T07:51:12.741Z</time>
      </trkpt>
      <trkpt lat="46.54087" lon="5.42768">
        <ele>495</ele>
        <time>2021-05-29T07:51:13.742Z</time>
      </trkpt>
      <trkpt lat="46.5409" lon="5.4277">
        <ele>495</ele>
        <time>2021-05-29T07:51:14.741Z</time>
      </trkpt>
      <trkpt lat="46.54092" lon="5.42772">
        <ele>494</ele>
        <time>2021-05-29T07:51:15.742Z</time>
      </trkpt>
      <trkpt lat="46.54094" lon="5.42773">
        <ele>494</ele>
        <time>2021-05-29T07:51:16.741Z</time>
      </trkpt>
      <trkpt lat="46.54096" lon="5.42775">
        <ele>494</ele>
        <time>2021-05-29T07:51:17.742Z</time>
      </trkpt>
      <trkpt lat="46.54098" lon="5.42778">
        <ele>494</ele>
        <time>2021-05-29T07:51:18.742Z</time>
      </trkpt>
      <trkpt lat="46.541" lon="5.42781">
        <ele>494</ele>
        <time>2021-05-29T07:51:19.742Z</time>
      </trkpt>
      <trkpt lat="46.54102" lon="5.42783">
        <ele>494</ele>
        <time>2021-05-29T07:51:20.742Z</time>
      </trkpt>
      <trkpt lat="46.54104" lon="5.42785">
        <ele>494</ele>
        <time>2021-05-29T07:51:21.742Z</time>
      </trkpt>
      <trkpt lat="46.54106" lon="5.42788">
        <ele>494</ele>
        <time>2021-05-29T07:51:22.742Z</time>
      </trkpt>
      <trkpt lat="46.54108" lon="5.4279">
        <ele>494</ele>
        <time>2021-05-29T07:51:23.742Z</time>
      </trkpt>
      <trkpt lat="46.5411" lon="5.42792">
        <ele>494</ele>
        <time>2021-05-29T07:51:24.741Z</time>
      </trkpt>
      <trkpt lat="46.54111" lon="5.42794">
        <ele>494</ele>
        <time>2021-05-29T07:51:25.742Z</time>
      </trkpt>
      <trkpt lat="46.54113" lon="5.42796">
        <ele>493</ele>
        <time>2021-05-29T07:51:26.742Z</time>
      </trkpt>
      <trkpt lat="46.54116" lon="5.42798">
        <ele>493</ele>
        <time>2021-05-29T07:51:27.742Z</time>
      </trkpt>
      <trkpt lat="46.54118" lon="5.428">
        <ele>493</ele>
        <time>2021-05-29T07:51:28.741Z</time>
      </trkpt>
      <trkpt lat="46.5412" lon="5.42802">
        <ele>493</ele>
        <time>2021-05-29T07:51:29.742Z</time>
      </trkpt>
      <trkpt lat="46.54121" lon="5.42804">
        <ele>493</ele>
        <time>2021-05-29T07:51:30.741Z</time>
      </trkpt>
      <trkpt lat="46.54123" lon="5.42806">
        <ele>493</ele>
        <time>2021-05-29T07:51:31.742Z</time>
      </trkpt>
      <trkpt lat="46.54125" lon="5.42808">
        <ele>494</ele>
        <time>2021-05-29T07:51:32.742Z</time>
      </trkpt>
      <trkpt lat="46.54127" lon="5.4281">
        <ele>494</ele>
        <time>2021-05-29T07:51:33.742Z</time>
      </trkpt>
      <trkpt lat="46.54129" lon="5.42812">
        <ele>494</ele>
        <time>2021-05-29T07:51:34.742Z</time>
      </trkpt>
      <trkpt lat="46.54131" lon="5.42814">
        <ele>494</ele>
        <time>2021-05-29T07:51:35.742Z</time>
      </trkpt>
      <trkpt lat="46.54133" lon="5.42817">
        <ele>494</ele>
        <time>2021-05-29T07:51:36.742Z</time>
      </trkpt>
      <trkpt lat="46.54135" lon="5.42819">
        <ele>494</ele>
        <time>2021-05-29T07:51:37.742Z</time>
      </trkpt>
      <trkpt lat="46.54137" lon="5.42821">
        <ele>494</ele>
        <time>2021-05-29T07:51:38.741Z</time>
      </trkpt>
      <trkpt lat="46.54138" lon="5.42822">
        <ele>494</ele>
        <time>2021-05-29T07:51:39.742Z</time>
      </trkpt>
      <trkpt lat="46.54141" lon="5.42825">
        <ele>494</ele>
        <time>2021-05-29T07:51:40.742Z</time>
      </trkpt>
      <trkpt lat="46.54143" lon="5.42827">
        <ele>493</ele>
        <time>2021-05-29T07:51:41.741Z</time>
      </trkpt>
      <trkpt lat="46.54145" lon="5.42829">
        <ele>493</ele>
        <time>2021-05-29T07:51:42.742Z</time>
      </trkpt>
      <trkpt lat="46.54146" lon="5.42831">
        <ele>493</ele>
        <time>2021-05-29T07:51:43.742Z</time>
      </trkpt>
      <trkpt lat="46.54148" lon="5.42834">
        <ele>493</ele>
        <time>2021-05-29T07:51:44.742Z</time>
      </trkpt>
      <trkpt lat="46.5415" lon="5.42836">
        <ele>493</ele>
        <time>2021-05-29T07:51:45.742Z</time>
      </trkpt>
      <trkpt lat="46.54153" lon="5.42838">
        <ele>493</ele>
        <time>2021-05-29T07:51:46.742Z</time>
      </trkpt>
      <trkpt lat="46.54155" lon="5.42841">
        <ele>493</ele>
        <time>2021-05-29T07:51:47.741Z</time>
      </trkpt>
      <trkpt lat="46.54157" lon="5.42843">
        <ele>493</ele>
        <time>2021-05-29T07:51:48.742Z</time>
      </trkpt>
      <trkpt lat="46.54159" lon="5.42846">
        <ele>494</ele>
        <time>2021-05-29T07:51:49.741Z</time>
      </trkpt>
      <trkpt lat="46.54161" lon="5.42848">
        <ele>494</ele>
        <time>2021-05-29T07:51:50.742Z</time>
      </trkpt>
      <trkpt lat="46.54164" lon="5.42851">
        <ele>494</ele>
        <time>2021-05-29T07:51:51.742Z</time>
      </trkpt>
      <trkpt lat="46.54166" lon="5.42853">
        <ele>494</ele>
        <time>2021-05-29T07:51:52.742Z</time>
      </trkpt>
      <trkpt lat="46.54168" lon="5.42855">
        <ele>494</ele>
        <time>2021-05-29T07:51:53.742Z</time>
      </trkpt>
      <trkpt lat="46.5417" lon="5.42858">
        <ele>493</ele>
        <time>2021-05-29T07:51:54.742Z</time>
      </trkpt>
      <trkpt lat="46.54173" lon="5.4286">
        <ele>493</ele>
        <time>2021-05-29T07:51:55.742Z</time>
      </trkpt>
      <trkpt lat="46.54175" lon="5.42863">
        <ele>492</ele>
        <time>2021-05-29T07:51:56.742Z</time>
      </trkpt>
      <trkpt lat="46.54177" lon="5.42865">
        <ele>492</ele>
        <time>2021-05-29T07:51:57.742Z</time>
      </trkpt>
      <trkpt lat="46.54179" lon="5.42868">
        <ele>492</ele>
        <time>2021-05-29T07:51:58.742Z</time>
      </trkpt>
      <trkpt lat="46.54182" lon="5.4287">
        <ele>492</ele>
        <time>2021-05-29T07:51:59.741Z</time>
      </trkpt>
      <trkpt lat="46.54184" lon="5.42872">
        <ele>492</ele>
        <time>2021-05-29T07:52:00.742Z</time>
      </trkpt>
      <trkpt lat="46.54186" lon="5.42875">
        <ele>492</ele>
        <time>2021-05-29T07:52:01.742Z</time>
      </trkpt>
      <trkpt lat="46.54188" lon="5.42877">
        <ele>492</ele>
        <time>2021-05-29T07:52:02.741Z</time>
      </trkpt>
      <trkpt lat="46.54191" lon="5.42878">
        <ele>492</ele>
        <time>2021-05-29T07:52:03.741Z</time>
      </trkpt>
      <trkpt lat="46.54193" lon="5.42879">
        <ele>492</ele>
        <time>2021-05-29T07:52:04.742Z</time>
      </trkpt>
      <trkpt lat="46.54194" lon="5.4288">
        <ele>492</ele>
        <time>2021-05-29T07:52:05.742Z</time>
      </trkpt>
      <trkpt lat="46.54198" lon="5.42882">
        <ele>492</ele>
        <time>2021-05-29T07:52:06.741Z</time>
      </trkpt>
      <trkpt lat="46.542" lon="5.42884">
        <ele>492</ele>
        <time>2021-05-29T07:52:07.741Z</time>
      </trkpt>
      <trkpt lat="46.54202" lon="5.42886">
        <ele>492</ele>
        <time>2021-05-29T07:52:08.742Z</time>
      </trkpt>
      <trkpt lat="46.54204" lon="5.42888">
        <ele>491</ele>
        <time>2021-05-29T07:52:09.742Z</time>
      </trkpt>
      <trkpt lat="46.54206" lon="5.42888">
        <ele>491</ele>
        <time>2021-05-29T07:52:10.742Z</time>
      </trkpt>
      <trkpt lat="46.54209" lon="5.4289">
        <ele>491</ele>
        <time>2021-05-29T07:52:11.741Z</time>
      </trkpt>
      <trkpt lat="46.54211" lon="5.42891">
        <ele>491</ele>
        <time>2021-05-29T07:52:12.742Z</time>
      </trkpt>
      <trkpt lat="46.54214" lon="5.42892">
        <ele>491</ele>
        <time>2021-05-29T07:52:13.742Z</time>
      </trkpt>
      <trkpt lat="46.54216" lon="5.42894">
        <ele>491</ele>
        <time>2021-05-29T07:52:14.742Z</time>
      </trkpt>
      <trkpt lat="46.54219" lon="5.42896">
        <ele>490</ele>
        <time>2021-05-29T07:52:15.742Z</time>
      </trkpt>
      <trkpt lat="46.54222" lon="5.42899">
        <ele>490</ele>
        <time>2021-05-29T07:52:16.742Z</time>
      </trkpt>
      <trkpt lat="46.54224" lon="5.42903">
        <ele>490</ele>
        <time>2021-05-29T07:52:17.742Z</time>
      </trkpt>
      <trkpt lat="46.54226" lon="5.42905">
        <ele>490</ele>
        <time>2021-05-29T07:52:18.742Z</time>
      </trkpt>
      <trkpt lat="46.54229" lon="5.42908">
        <ele>490</ele>
        <time>2021-05-29T07:52:19.742Z</time>
      </trkpt>
      <trkpt lat="46.54231" lon="5.42911">
        <ele>490</ele>
        <time>2021-05-29T07:52:20.742Z</time>
      </trkpt>
      <trkpt lat="46.54234" lon="5.42914">
        <ele>490</ele>
        <time>2021-05-29T07:52:21.742Z</time>
      </trkpt>
      <trkpt lat="46.54235" lon="5.42916">
        <ele>490</ele>
        <time>2021-05-29T07:52:22.742Z</time>
      </trkpt>
      <trkpt lat="46.54236" lon="5.42919">
        <ele>490</ele>
        <time>2021-05-29T07:52:23.742Z</time>
      </trkpt>
      <trkpt lat="46.54238" lon="5.42923">
        <ele>490</ele>
        <time>2021-05-29T07:52:24.742Z</time>
      </trkpt>
      <trkpt lat="46.5424" lon="5.42926">
        <ele>490</ele>
        <time>2021-05-29T07:52:25.742Z</time>
      </trkpt>
      <trkpt lat="46.54241" lon="5.42929">
        <ele>490</ele>
        <time>2021-05-29T07:52:26.742Z</time>
      </trkpt>
      <trkpt lat="46.54243" lon="5.42932">
        <ele>490</ele>
        <time>2021-05-29T07:52:27.741Z</time>
      </trkpt>
      <trkpt lat="46.54245" lon="5.42936">
        <ele>490</ele>
        <time>2021-05-29T07:52:28.741Z</time>
      </trkpt>
      <trkpt lat="46.54247" lon="5.42939">
        <ele>490</ele>
        <time>2021-05-29T07:52:29.742Z</time>
      </trkpt>
      <trkpt lat="46.54249" lon="5.42942">
        <ele>490</ele>
        <time>2021-05-29T07:52:30.741Z</time>
      </trkpt>
      <trkpt lat="46.5425" lon="5.42945">
        <ele>490</ele>
        <time>2021-05-29T07:52:31.741Z</time>
      </trkpt>
      <trkpt lat="46.54252" lon="5.42947">
        <ele>490</ele>
        <time>2021-05-29T07:52:32.742Z</time>
      </trkpt>
      <trkpt lat="46.54254" lon="5.4295">
        <ele>490</ele>
        <time>2021-05-29T07:52:33.742Z</time>
      </trkpt>
      <trkpt lat="46.54255" lon="5.42953">
        <ele>490</ele>
        <time>2021-05-29T07:52:34.742Z</time>
      </trkpt>
      <trkpt lat="46.54257" lon="5.42954">
        <ele>490</ele>
        <time>2021-05-29T07:52:35.742Z</time>
      </trkpt>
      <trkpt lat="46.54258" lon="5.42957">
        <ele>490</ele>
        <time>2021-05-29T07:52:36.742Z</time>
      </trkpt>
      <trkpt lat="46.54261" lon="5.4296">
        <ele>490</ele>
        <time>2021-05-29T07:52:37.742Z</time>
      </trkpt>
      <trkpt lat="46.54263" lon="5.42963">
        <ele>489</ele>
        <time>2021-05-29T07:52:38.742Z</time>
      </trkpt>
      <trkpt lat="46.54264" lon="5.42965">
        <ele>489</ele>
        <time>2021-05-29T07:52:39.742Z</time>
      </trkpt>
      <trkpt lat="46.54266" lon="5.42967">
        <ele>489</ele>
        <time>2021-05-29T07:52:40.741Z</time>
      </trkpt>
      <trkpt lat="46.54267" lon="5.42971">
        <ele>489</ele>
        <time>2021-05-29T07:52:41.742Z</time>
      </trkpt>
      <trkpt lat="46.54268" lon="5.42973">
        <ele>489</ele>
        <time>2021-05-29T07:52:42.741Z</time>
      </trkpt>
      <trkpt lat="46.54269" lon="5.42976">
        <ele>489</ele>
        <time>2021-05-29T07:52:43.742Z</time>
      </trkpt>
      <trkpt lat="46.5427" lon="5.42977">
        <ele>490</ele>
        <time>2021-05-29T07:52:44.742Z</time>
      </trkpt>
      <trkpt lat="46.54271" lon="5.42979">
        <ele>490</ele>
        <time>2021-05-29T07:52:45.742Z</time>
      </trkpt>
      <trkpt lat="46.54273" lon="5.42981">
        <ele>490</ele>
        <time>2021-05-29T07:52:46.741Z</time>
      </trkpt>
      <trkpt lat="46.54274" lon="5.42983">
        <ele>490</ele>
        <time>2021-05-29T07:52:47.742Z</time>
      </trkpt>
      <trkpt lat="46.54276" lon="5.42985">
        <ele>490</ele>
        <time>2021-05-29T07:52:48.741Z</time>
      </trkpt>
      <trkpt lat="46.54277" lon="5.42986">
        <ele>491</ele>
        <time>2021-05-29T07:52:49.742Z</time>
      </trkpt>
      <trkpt lat="46.54279" lon="5.42989">
        <ele>491</ele>
        <time>2021-05-29T07:52:50.741Z</time>
      </trkpt>
      <trkpt lat="46.5428" lon="5.42991">
        <ele>491</ele>
        <time>2021-05-29T07:52:51.742Z</time>
      </trkpt>
      <trkpt lat="46.54282" lon="5.42993">
        <ele>491</ele>
        <time>2021-05-29T07:52:52.741Z</time>
      </trkpt>
      <trkpt lat="46.54283" lon="5.42994">
        <ele>491</ele>
        <time>2021-05-29T07:52:53.742Z</time>
      </trkpt>
      <trkpt lat="46.54284" lon="5.42996">
        <ele>491</ele>
        <time>2021-05-29T07:52:54.742Z</time>
      </trkpt>
      <trkpt lat="46.54286" lon="5.42998">
        <ele>491</ele>
        <time>2021-05-29T07:52:55.741Z</time>
      </trkpt>
      <trkpt lat="46.5429" lon="5.43">
        <ele>491</ele>
        <time>2021-05-29T07:52:56.742Z</time>
      </trkpt>
      <trkpt lat="46.54292" lon="5.43002">
        <ele>490</ele>
        <time>2021-05-29T07:52:57.741Z</time>
      </trkpt>
      <trkpt lat="46.54294" lon="5.43004">
        <ele>490</ele>
        <time>2021-05-29T07:52:58.742Z</time>
      </trkpt>
      <trkpt lat="46.54296" lon="5.43006">
        <ele>490</ele>
        <time>2021-05-29T07:52:59.742Z</time>
      </trkpt>
      <trkpt lat="46.54298" lon="5.43007">
        <ele>490</ele>
        <time>2021-05-29T07:53:00.741Z</time>
      </trkpt>
      <trkpt lat="46.543" lon="5.43008">
        <ele>490</ele>
        <time>2021-05-29T07:53:01.742Z</time>
      </trkpt>
      <trkpt lat="46.54302" lon="5.43009">
        <ele>491</ele>
        <time>2021-05-29T07:53:02.742Z</time>
      </trkpt>
      <trkpt lat="46.54304" lon="5.43012">
        <ele>491</ele>
        <time>2021-05-29T07:53:03.742Z</time>
      </trkpt>
      <trkpt lat="46.54306" lon="5.43013">
        <ele>491</ele>
        <time>2021-05-29T07:53:04.742Z</time>
      </trkpt>
      <trkpt lat="46.54308" lon="5.43015">
        <ele>491</ele>
        <time>2021-05-29T07:53:05.742Z</time>
      </trkpt>
      <trkpt lat="46.54309" lon="5.43016">
        <ele>491</ele>
        <time>2021-05-29T07:53:06.741Z</time>
      </trkpt>
      <trkpt lat="46.54311" lon="5.43018">
        <ele>491</ele>
        <time>2021-05-29T07:53:07.741Z</time>
      </trkpt>
      <trkpt lat="46.54314" lon="5.43019">
        <ele>491</ele>
        <time>2021-05-29T07:53:08.741Z</time>
      </trkpt>
      <trkpt lat="46.54315" lon="5.43021">
        <ele>491</ele>
        <time>2021-05-29T07:53:09.741Z</time>
      </trkpt>
      <trkpt lat="46.54317" lon="5.43022">
        <ele>491</ele>
        <time>2021-05-29T07:53:10.742Z</time>
      </trkpt>
      <trkpt lat="46.54319" lon="5.43024">
        <ele>492</ele>
        <time>2021-05-29T07:53:11.742Z</time>
      </trkpt>
      <trkpt lat="46.54321" lon="5.43026">
        <ele>492</ele>
        <time>2021-05-29T07:53:12.742Z</time>
      </trkpt>
      <trkpt lat="46.54323" lon="5.43028">
        <ele>492</ele>
        <time>2021-05-29T07:53:13.741Z</time>
      </trkpt>
      <trkpt lat="46.54325" lon="5.4303">
        <ele>491</ele>
        <time>2021-05-29T07:53:14.741Z</time>
      </trkpt>
      <trkpt lat="46.54326" lon="5.43031">
        <ele>491</ele>
        <time>2021-05-29T07:53:15.742Z</time>
      </trkpt>
      <trkpt lat="46.54328" lon="5.43034">
        <ele>491</ele>
        <time>2021-05-29T07:53:16.742Z</time>
      </trkpt>
      <trkpt lat="46.5433" lon="5.43035">
        <ele>491</ele>
        <time>2021-05-29T07:53:17.742Z</time>
      </trkpt>
      <trkpt lat="46.54331" lon="5.43037">
        <ele>490</ele>
        <time>2021-05-29T07:53:18.741Z</time>
      </trkpt>
      <trkpt lat="46.54333" lon="5.43039">
        <ele>490</ele>
        <time>2021-05-29T07:53:19.742Z</time>
      </trkpt>
      <trkpt lat="46.54336" lon="5.4304">
        <ele>491</ele>
        <time>2021-05-29T07:53:20.742Z</time>
      </trkpt>
      <trkpt lat="46.54339" lon="5.43043">
        <ele>491</ele>
        <time>2021-05-29T07:53:21.742Z</time>
      </trkpt>
      <trkpt lat="46.54341" lon="5.43046">
        <ele>491</ele>
        <time>2021-05-29T07:53:22.742Z</time>
      </trkpt>
      <trkpt lat="46.54342" lon="5.43048">
        <ele>491</ele>
        <time>2021-05-29T07:53:23.741Z</time>
      </trkpt>
      <trkpt lat="46.54343" lon="5.43049">
        <ele>492</ele>
        <time>2021-05-29T07:53:24.742Z</time>
      </trkpt>
      <trkpt lat="46.54345" lon="5.43052">
        <ele>492</ele>
        <time>2021-05-29T07:53:25.742Z</time>
      </trkpt>
      <trkpt lat="46.54346" lon="5.43054">
        <ele>492</ele>
        <time>2021-05-29T07:53:26.742Z</time>
      </trkpt>
      <trkpt lat="46.54348" lon="5.43055">
        <ele>492</ele>
        <time>2021-05-29T07:53:27.742Z</time>
      </trkpt>
      <trkpt lat="46.5435" lon="5.43058">
        <ele>492</ele>
        <time>2021-05-29T07:53:28.742Z</time>
      </trkpt>
      <trkpt lat="46.54351" lon="5.43059">
        <ele>492</ele>
        <time>2021-05-29T07:53:29.742Z</time>
      </trkpt>
      <trkpt lat="46.54353" lon="5.43061">
        <ele>493</ele>
        <time>2021-05-29T07:53:30.742Z</time>
      </trkpt>
      <trkpt lat="46.54354" lon="5.43062">
        <ele>493</ele>
        <time>2021-05-29T07:53:31.741Z</time>
      </trkpt>
      <trkpt lat="46.54355" lon="5.43063">
        <ele>493</ele>
        <time>2021-05-29T07:53:32.742Z</time>
      </trkpt>
      <trkpt lat="46.54356" lon="5.43065">
        <ele>493</ele>
        <time>2021-05-29T07:53:33.742Z</time>
      </trkpt>
      <trkpt lat="46.54358" lon="5.43067">
        <ele>493</ele>
        <time>2021-05-29T07:53:34.741Z</time>
      </trkpt>
      <trkpt lat="46.54359" lon="5.43068">
        <ele>493</ele>
        <time>2021-05-29T07:53:35.742Z</time>
      </trkpt>
      <trkpt lat="46.5436" lon="5.4307">
        <ele>493</ele>
        <time>2021-05-29T07:53:36.741Z</time>
      </trkpt>
      <trkpt lat="46.54362" lon="5.43071">
        <ele>493</ele>
        <time>2021-05-29T07:53:37.741Z</time>
      </trkpt>
      <trkpt lat="46.54363" lon="5.43072">
        <ele>494</ele>
        <time>2021-05-29T07:53:38.742Z</time>
      </trkpt>
      <trkpt lat="46.54365" lon="5.43074">
        <ele>494</ele>
        <time>2021-05-29T07:53:39.742Z</time>
      </trkpt>
      <trkpt lat="46.54366" lon="5.43075">
        <ele>494</ele>
        <time>2021-05-29T07:53:40.742Z</time>
      </trkpt>
      <trkpt lat="46.54367" lon="5.43076">
        <ele>494</ele>
        <time>2021-05-29T07:53:41.742Z</time>
      </trkpt>
      <trkpt lat="46.54368" lon="5.43077">
        <ele>494</ele>
        <time>2021-05-29T07:53:42.742Z</time>
      </trkpt>
      <trkpt lat="46.5437" lon="5.43079">
        <ele>495</ele>
        <time>2021-05-29T07:53:43.742Z</time>
      </trkpt>
      <trkpt lat="46.54371" lon="5.43081">
        <ele>495</ele>
        <time>2021-05-29T07:53:44.741Z</time>
      </trkpt>
      <trkpt lat="46.54372" lon="5.43082">
        <ele>495</ele>
        <time>2021-05-29T07:53:45.742Z</time>
      </trkpt>
      <trkpt lat="46.54372" lon="5.43083">
        <ele>496</ele>
        <time>2021-05-29T07:53:46.742Z</time>
      </trkpt>
      <trkpt lat="46.54374" lon="5.43085">
        <ele>496</ele>
        <time>2021-05-29T07:53:47.742Z</time>
      </trkpt>
      <trkpt lat="46.54375" lon="5.43086">
        <ele>496</ele>
        <time>2021-05-29T07:53:48.742Z</time>
      </trkpt>
      <trkpt lat="46.54376" lon="5.43088">
        <ele>497</ele>
        <time>2021-05-29T07:53:49.742Z</time>
      </trkpt>
      <trkpt lat="46.54378" lon="5.43089">
        <ele>497</ele>
        <time>2021-05-29T07:53:50.742Z</time>
      </trkpt>
      <trkpt lat="46.54379" lon="5.4309">
        <ele>497</ele>
        <time>2021-05-29T07:53:51.742Z</time>
      </trkpt>
      <trkpt lat="46.54381" lon="5.43092">
        <ele>497</ele>
        <time>2021-05-29T07:53:52.741Z</time>
      </trkpt>
      <trkpt lat="46.54382" lon="5.43093">
        <ele>497</ele>
        <time>2021-05-29T07:53:53.741Z</time>
      </trkpt>
      <trkpt lat="46.54383" lon="5.43094">
        <ele>497</ele>
        <time>2021-05-29T07:53:54.742Z</time>
      </trkpt>
      <trkpt lat="46.54385" lon="5.43096">
        <ele>497</ele>
        <time>2021-05-29T07:53:55.742Z</time>
      </trkpt>
      <trkpt lat="46.54387" lon="5.43097">
        <ele>497</ele>
        <time>2021-05-29T07:53:56.742Z</time>
      </trkpt>
      <trkpt lat="46.54388" lon="5.43099">
        <ele>498</ele>
        <time>2021-05-29T07:53:57.742Z</time>
      </trkpt>
      <trkpt lat="46.5439" lon="5.43101">
        <ele>498</ele>
        <time>2021-05-29T07:53:58.742Z</time>
      </trkpt>
      <trkpt lat="46.54391" lon="5.43102">
        <ele>498</ele>
        <time>2021-05-29T07:53:59.742Z</time>
      </trkpt>
      <trkpt lat="46.54393" lon="5.43104">
        <ele>498</ele>
        <time>2021-05-29T07:54:00.741Z</time>
      </trkpt>
      <trkpt lat="46.54394" lon="5.43106">
        <ele>498</ele>
        <time>2021-05-29T07:54:01.742Z</time>
      </trkpt>
      <trkpt lat="46.54395" lon="5.43107">
        <ele>499</ele>
        <time>2021-05-29T07:54:02.742Z</time>
      </trkpt>
      <trkpt lat="46.54397" lon="5.43109">
        <ele>499</ele>
        <time>2021-05-29T07:54:03.742Z</time>
      </trkpt>
      <trkpt lat="46.54398" lon="5.4311">
        <ele>499</ele>
        <time>2021-05-29T07:54:04.742Z</time>
      </trkpt>
      <trkpt lat="46.544" lon="5.43112">
        <ele>500</ele>
        <time>2021-05-29T07:54:05.742Z</time>
      </trkpt>
      <trkpt lat="46.54401" lon="5.43115">
        <ele>500</ele>
        <time>2021-05-29T07:54:06.742Z</time>
      </trkpt>
      <trkpt lat="46.54403" lon="5.43116">
        <ele>501</ele>
        <time>2021-05-29T07:54:07.742Z</time>
      </trkpt>
      <trkpt lat="46.54404" lon="5.43117">
        <ele>501</ele>
        <time>2021-05-29T07:54:08.742Z</time>
      </trkpt>
      <trkpt lat="46.54406" lon="5.43119">
        <ele>502</ele>
        <time>2021-05-29T07:54:09.742Z</time>
      </trkpt>
      <trkpt lat="46.54407" lon="5.43121">
        <ele>502</ele>
        <time>2021-05-29T07:54:10.742Z</time>
      </trkpt>
      <trkpt lat="46.54409" lon="5.43123">
        <ele>502</ele>
        <time>2021-05-29T07:54:11.742Z</time>
      </trkpt>
      <trkpt lat="46.5441" lon="5.43125">
        <ele>502</ele>
        <time>2021-05-29T07:54:12.742Z</time>
      </trkpt>
      <trkpt lat="46.54412" lon="5.43126">
        <ele>502</ele>
        <time>2021-05-29T07:54:13.742Z</time>
      </trkpt>
      <trkpt lat="46.54413" lon="5.43128">
        <ele>503</ele>
        <time>2021-05-29T07:54:14.741Z</time>
      </trkpt>
      <trkpt lat="46.54414" lon="5.43129">
        <ele>503</ele>
        <time>2021-05-29T07:54:15.742Z</time>
      </trkpt>
      <trkpt lat="46.54416" lon="5.43131">
        <ele>503</ele>
        <time>2021-05-29T07:54:16.742Z</time>
      </trkpt>
      <trkpt lat="46.54417" lon="5.43132">
        <ele>503</ele>
        <time>2021-05-29T07:54:17.742Z</time>
      </trkpt>
      <trkpt lat="46.54419" lon="5.43134">
        <ele>503</ele>
        <time>2021-05-29T07:54:18.741Z</time>
      </trkpt>
      <trkpt lat="46.5442" lon="5.43135">
        <ele>504</ele>
        <time>2021-05-29T07:54:19.742Z</time>
      </trkpt>
      <trkpt lat="46.54421" lon="5.43137">
        <ele>504</ele>
        <time>2021-05-29T07:54:20.742Z</time>
      </trkpt>
      <trkpt lat="46.54422" lon="5.43138">
        <ele>504</ele>
        <time>2021-05-29T07:54:21.742Z</time>
      </trkpt>
      <trkpt lat="46.54423" lon="5.4314">
        <ele>504</ele>
        <time>2021-05-29T07:54:22.742Z</time>
      </trkpt>
      <trkpt lat="46.54425" lon="5.43141">
        <ele>504</ele>
        <time>2021-05-29T07:54:23.741Z</time>
      </trkpt>
      <trkpt lat="46.54427" lon="5.43143">
        <ele>505</ele>
        <time>2021-05-29T07:54:24.741Z</time>
      </trkpt>
      <trkpt lat="46.54428" lon="5.43144">
        <ele>505</ele>
        <time>2021-05-29T07:54:25.741Z</time>
      </trkpt>
      <trkpt lat="46.54429" lon="5.43146">
        <ele>506</ele>
        <time>2021-05-29T07:54:26.741Z</time>
      </trkpt>
      <trkpt lat="46.54431" lon="5.43148">
        <ele>506</ele>
        <time>2021-05-29T07:54:27.742Z</time>
      </trkpt>
      <trkpt lat="46.54432" lon="5.4315">
        <ele>507</ele>
        <time>2021-05-29T07:54:28.741Z</time>
      </trkpt>
      <trkpt lat="46.54433" lon="5.43151">
        <ele>507</ele>
        <time>2021-05-29T07:54:29.741Z</time>
      </trkpt>
      <trkpt lat="46.54435" lon="5.43153">
        <ele>507</ele>
        <time>2021-05-29T07:54:30.742Z</time>
      </trkpt>
      <trkpt lat="46.54438" lon="5.43154">
        <ele>507</ele>
        <time>2021-05-29T07:54:31.742Z</time>
      </trkpt>
      <trkpt lat="46.54439" lon="5.43156">
        <ele>507</ele>
        <time>2021-05-29T07:54:32.742Z</time>
      </trkpt>
      <trkpt lat="46.5444" lon="5.43158">
        <ele>507</ele>
        <time>2021-05-29T07:54:33.741Z</time>
      </trkpt>
      <trkpt lat="46.54441" lon="5.43159">
        <ele>507</ele>
        <time>2021-05-29T07:54:34.742Z</time>
      </trkpt>
      <trkpt lat="46.54443" lon="5.43161">
        <ele>507</ele>
        <time>2021-05-29T07:54:35.742Z</time>
      </trkpt>
      <trkpt lat="46.54444" lon="5.43162">
        <ele>508</ele>
        <time>2021-05-29T07:54:36.741Z</time>
      </trkpt>
      <trkpt lat="46.54446" lon="5.43164">
        <ele>508</ele>
        <time>2021-05-29T07:54:37.742Z</time>
      </trkpt>
      <trkpt lat="46.54447" lon="5.43166">
        <ele>508</ele>
        <time>2021-05-29T07:54:38.742Z</time>
      </trkpt>
      <trkpt lat="46.54448" lon="5.43168">
        <ele>508</ele>
        <time>2021-05-29T07:54:39.742Z</time>
      </trkpt>
      <trkpt lat="46.54449" lon="5.4317">
        <ele>509</ele>
        <time>2021-05-29T07:54:40.741Z</time>
      </trkpt>
      <trkpt lat="46.54451" lon="5.43171">
        <ele>509</ele>
        <time>2021-05-29T07:54:41.742Z</time>
      </trkpt>
      <trkpt lat="46.54452" lon="5.43173">
        <ele>509</ele>
        <time>2021-05-29T07:54:42.742Z</time>
      </trkpt>
      <trkpt lat="46.54454" lon="5.43175">
        <ele>509</ele>
        <time>2021-05-29T07:54:43.742Z</time>
      </trkpt>
      <trkpt lat="46.54455" lon="5.43177">
        <ele>509</ele>
        <time>2021-05-29T07:54:44.742Z</time>
      </trkpt>
      <trkpt lat="46.54456" lon="5.43179">
        <ele>509</ele>
        <time>2021-05-29T07:54:45.742Z</time>
      </trkpt>
      <trkpt lat="46.54458" lon="5.43181">
        <ele>510</ele>
        <time>2021-05-29T07:54:46.741Z</time>
      </trkpt>
      <trkpt lat="46.54459" lon="5.43183">
        <ele>510</ele>
        <time>2021-05-29T07:54:47.741Z</time>
      </trkpt>
      <trkpt lat="46.5446" lon="5.43184">
        <ele>509</ele>
        <time>2021-05-29T07:54:48.742Z</time>
      </trkpt>
      <trkpt lat="46.54462" lon="5.43187">
        <ele>509</ele>
        <time>2021-05-29T07:54:49.742Z</time>
      </trkpt>
      <trkpt lat="46.54463" lon="5.43189">
        <ele>510</ele>
        <time>2021-05-29T07:54:50.741Z</time>
      </trkpt>
      <trkpt lat="46.54465" lon="5.43191">
        <ele>510</ele>
        <time>2021-05-29T07:54:51.742Z</time>
      </trkpt>
      <trkpt lat="46.54466" lon="5.43192">
        <ele>510</ele>
        <time>2021-05-29T07:54:52.742Z</time>
      </trkpt>
      <trkpt lat="46.54467" lon="5.43194">
        <ele>511</ele>
        <time>2021-05-29T07:54:53.742Z</time>
      </trkpt>
      <trkpt lat="46.54468" lon="5.43196">
        <ele>511</ele>
        <time>2021-05-29T07:54:54.742Z</time>
      </trkpt>
      <trkpt lat="46.5447" lon="5.43198">
        <ele>512</ele>
        <time>2021-05-29T07:54:55.742Z</time>
      </trkpt>
      <trkpt lat="46.54471" lon="5.43199">
        <ele>512</ele>
        <time>2021-05-29T07:54:56.742Z</time>
      </trkpt>
      <trkpt lat="46.54472" lon="5.43201">
        <ele>512</ele>
        <time>2021-05-29T07:54:57.742Z</time>
      </trkpt>
      <trkpt lat="46.54474" lon="5.43203">
        <ele>512</ele>
        <time>2021-05-29T07:54:58.741Z</time>
      </trkpt>
      <trkpt lat="46.54475" lon="5.43205">
        <ele>511</ele>
        <time>2021-05-29T07:54:59.741Z</time>
      </trkpt>
      <trkpt lat="46.54477" lon="5.43207">
        <ele>511</ele>
        <time>2021-05-29T07:55:00.741Z</time>
      </trkpt>
      <trkpt lat="46.54478" lon="5.43209">
        <ele>511</ele>
        <time>2021-05-29T07:55:01.741Z</time>
      </trkpt>
      <trkpt lat="46.5448" lon="5.43212">
        <ele>511</ele>
        <time>2021-05-29T07:55:02.742Z</time>
      </trkpt>
      <trkpt lat="46.54481" lon="5.43214">
        <ele>511</ele>
        <time>2021-05-29T07:55:03.741Z</time>
      </trkpt>
      <trkpt lat="46.54483" lon="5.43216">
        <ele>511</ele>
        <time>2021-05-29T07:55:04.742Z</time>
      </trkpt>
      <trkpt lat="46.54484" lon="5.43217">
        <ele>511</ele>
        <time>2021-05-29T07:55:05.742Z</time>
      </trkpt>
      <trkpt lat="46.54486" lon="5.4322">
        <ele>511</ele>
        <time>2021-05-29T07:55:06.742Z</time>
      </trkpt>
      <trkpt lat="46.54488" lon="5.43222">
        <ele>512</ele>
        <time>2021-05-29T07:55:07.741Z</time>
      </trkpt>
      <trkpt lat="46.5449" lon="5.43224">
        <ele>512</ele>
        <time>2021-05-29T07:55:08.742Z</time>
      </trkpt>
      <trkpt lat="46.54491" lon="5.43225">
        <ele>513</ele>
        <time>2021-05-29T07:55:09.741Z</time>
      </trkpt>
      <trkpt lat="46.54493" lon="5.43228">
        <ele>513</ele>
        <time>2021-05-29T07:55:10.742Z</time>
      </trkpt>
      <trkpt lat="46.54495" lon="5.4323">
        <ele>513</ele>
        <time>2021-05-29T07:55:11.742Z</time>
      </trkpt>
      <trkpt lat="46.54496" lon="5.43232">
        <ele>514</ele>
        <time>2021-05-29T07:55:12.742Z</time>
      </trkpt>
      <trkpt lat="46.54498" lon="5.43234">
        <ele>514</ele>
        <time>2021-05-29T07:55:13.741Z</time>
      </trkpt>
      <trkpt lat="46.54499" lon="5.43235">
        <ele>514</ele>
        <time>2021-05-29T07:55:14.742Z</time>
      </trkpt>
      <trkpt lat="46.54501" lon="5.43238">
        <ele>514</ele>
        <time>2021-05-29T07:55:15.742Z</time>
      </trkpt>
      <trkpt lat="46.54503" lon="5.4324">
        <ele>514</ele>
        <time>2021-05-29T07:55:16.742Z</time>
      </trkpt>
      <trkpt lat="46.54504" lon="5.43241">
        <ele>514</ele>
        <time>2021-05-29T07:55:17.742Z</time>
      </trkpt>
      <trkpt lat="46.54506" lon="5.43243">
        <ele>514</ele>
        <time>2021-05-29T07:55:18.741Z</time>
      </trkpt>
      <trkpt lat="46.54508" lon="5.43245">
        <ele>514</ele>
        <time>2021-05-29T07:55:19.742Z</time>
      </trkpt>
      <trkpt lat="46.5451" lon="5.43247">
        <ele>514</ele>
        <time>2021-05-29T07:55:20.741Z</time>
      </trkpt>
      <trkpt lat="46.54512" lon="5.43249">
        <ele>514</ele>
        <time>2021-05-29T07:55:21.741Z</time>
      </trkpt>
      <trkpt lat="46.54513" lon="5.4325">
        <ele>514</ele>
        <time>2021-05-29T07:55:22.742Z</time>
      </trkpt>
      <trkpt lat="46.54515" lon="5.43252">
        <ele>514</ele>
        <time>2021-05-29T07:55:23.742Z</time>
      </trkpt>
      <trkpt lat="46.54517" lon="5.43255">
        <ele>514</ele>
        <time>2021-05-29T07:55:24.741Z</time>
      </trkpt>
      <trkpt lat="46.54519" lon="5.43256">
        <ele>514</ele>
        <time>2021-05-29T07:55:25.741Z</time>
      </trkpt>
      <trkpt lat="46.5452" lon="5.43258">
        <ele>514</ele>
        <time>2021-05-29T07:55:26.742Z</time>
      </trkpt>
      <trkpt lat="46.54522" lon="5.43261">
        <ele>514</ele>
        <time>2021-05-29T07:55:27.742Z</time>
      </trkpt>
      <trkpt lat="46.54524" lon="5.43263">
        <ele>514</ele>
        <time>2021-05-29T07:55:28.742Z</time>
      </trkpt>
      <trkpt lat="46.54525" lon="5.43265">
        <ele>514</ele>
        <time>2021-05-29T07:55:29.741Z</time>
      </trkpt>
      <trkpt lat="46.54527" lon="5.43267">
        <ele>514</ele>
        <time>2021-05-29T07:55:30.741Z</time>
      </trkpt>
      <trkpt lat="46.54528" lon="5.43268">
        <ele>514</ele>
        <time>2021-05-29T07:55:31.742Z</time>
      </trkpt>
      <trkpt lat="46.5453" lon="5.4327">
        <ele>514</ele>
        <time>2021-05-29T07:55:32.741Z</time>
      </trkpt>
      <trkpt lat="46.54532" lon="5.43273">
        <ele>515</ele>
        <time>2021-05-29T07:55:33.742Z</time>
      </trkpt>
      <trkpt lat="46.54534" lon="5.43275">
        <ele>515</ele>
        <time>2021-05-29T07:55:34.742Z</time>
      </trkpt>
      <trkpt lat="46.54536" lon="5.43277">
        <ele>515</ele>
        <time>2021-05-29T07:55:35.742Z</time>
      </trkpt>
      <trkpt lat="46.54538" lon="5.43279">
        <ele>515</ele>
        <time>2021-05-29T07:55:36.742Z</time>
      </trkpt>
      <trkpt lat="46.54539" lon="5.43282">
        <ele>514</ele>
        <time>2021-05-29T07:55:37.742Z</time>
      </trkpt>
      <trkpt lat="46.54541" lon="5.43285">
        <ele>514</ele>
        <time>2021-05-29T07:55:38.742Z</time>
      </trkpt>
      <trkpt lat="46.54542" lon="5.43287">
        <ele>515</ele>
        <time>2021-05-29T07:55:39.741Z</time>
      </trkpt>
      <trkpt lat="46.54544" lon="5.4329">
        <ele>515</ele>
        <time>2021-05-29T07:55:40.742Z</time>
      </trkpt>
      <trkpt lat="46.54546" lon="5.43293">
        <ele>515</ele>
        <time>2021-05-29T07:55:41.742Z</time>
      </trkpt>
      <trkpt lat="46.54548" lon="5.43296">
        <ele>515</ele>
        <time>2021-05-29T07:55:42.742Z</time>
      </trkpt>
      <trkpt lat="46.5455" lon="5.43298">
        <ele>515</ele>
        <time>2021-05-29T07:55:43.742Z</time>
      </trkpt>
      <trkpt lat="46.54552" lon="5.43301">
        <ele>515</ele>
        <time>2021-05-29T07:55:44.741Z</time>
      </trkpt>
      <trkpt lat="46.54553" lon="5.43303">
        <ele>515</ele>
        <time>2021-05-29T07:55:45.741Z</time>
      </trkpt>
      <trkpt lat="46.54555" lon="5.43306">
        <ele>515</ele>
        <time>2021-05-29T07:55:46.741Z</time>
      </trkpt>
      <trkpt lat="46.54557" lon="5.43308">
        <ele>515</ele>
        <time>2021-05-29T07:55:47.741Z</time>
      </trkpt>
      <trkpt lat="46.54559" lon="5.43311">
        <ele>515</ele>
        <time>2021-05-29T07:55:48.741Z</time>
      </trkpt>
      <trkpt lat="46.54562" lon="5.43313">
        <ele>515</ele>
        <time>2021-05-29T07:55:49.742Z</time>
      </trkpt>
      <trkpt lat="46.54564" lon="5.43316">
        <ele>515</ele>
        <time>2021-05-29T07:55:50.741Z</time>
      </trkpt>
      <trkpt lat="46.54566" lon="5.43318">
        <ele>515</ele>
        <time>2021-05-29T07:55:51.741Z</time>
      </trkpt>
      <trkpt lat="46.54568" lon="5.43321">
        <ele>514</ele>
        <time>2021-05-29T07:55:52.742Z</time>
      </trkpt>
      <trkpt lat="46.54571" lon="5.43323">
        <ele>514</ele>
        <time>2021-05-29T07:55:53.742Z</time>
      </trkpt>
      <trkpt lat="46.54573" lon="5.43325">
        <ele>514</ele>
        <time>2021-05-29T07:55:54.742Z</time>
      </trkpt>
      <trkpt lat="46.54574" lon="5.43328">
        <ele>514</ele>
        <time>2021-05-29T07:55:55.741Z</time>
      </trkpt>
      <trkpt lat="46.54576" lon="5.4333">
        <ele>514</ele>
        <time>2021-05-29T07:55:56.742Z</time>
      </trkpt>
      <trkpt lat="46.54578" lon="5.43331">
        <ele>515</ele>
        <time>2021-05-29T07:55:57.742Z</time>
      </trkpt>
      <trkpt lat="46.5458" lon="5.43333">
        <ele>515</ele>
        <time>2021-05-29T07:55:58.742Z</time>
      </trkpt>
      <trkpt lat="46.54583" lon="5.43336">
        <ele>515</ele>
        <time>2021-05-29T07:55:59.742Z</time>
      </trkpt>
      <trkpt lat="46.54585" lon="5.43338">
        <ele>515</ele>
        <time>2021-05-29T07:56:00.741Z</time>
      </trkpt>
      <trkpt lat="46.54587" lon="5.4334">
        <ele>516</ele>
        <time>2021-05-29T07:56:01.741Z</time>
      </trkpt>
      <trkpt lat="46.54589" lon="5.43342">
        <ele>516</ele>
        <time>2021-05-29T07:56:02.742Z</time>
      </trkpt>
      <trkpt lat="46.54591" lon="5.43344">
        <ele>516</ele>
        <time>2021-05-29T07:56:03.741Z</time>
      </trkpt>
      <trkpt lat="46.54593" lon="5.43346">
        <ele>516</ele>
        <time>2021-05-29T07:56:04.741Z</time>
      </trkpt>
      <trkpt lat="46.54595" lon="5.43347">
        <ele>516</ele>
        <time>2021-05-29T07:56:05.742Z</time>
      </trkpt>
      <trkpt lat="46.54597" lon="5.43348">
        <ele>516</ele>
        <time>2021-05-29T07:56:06.741Z</time>
      </trkpt>
      <trkpt lat="46.54599" lon="5.4335">
        <ele>516</ele>
        <time>2021-05-29T07:56:07.741Z</time>
      </trkpt>
      <trkpt lat="46.54601" lon="5.43351">
        <ele>516</ele>
        <time>2021-05-29T07:56:08.742Z</time>
      </trkpt>
      <trkpt lat="46.54603" lon="5.43353">
        <ele>516</ele>
        <time>2021-05-29T07:56:09.742Z</time>
      </trkpt>
      <trkpt lat="46.54605" lon="5.43355">
        <ele>515</ele>
        <time>2021-05-29T07:56:10.741Z</time>
      </trkpt>
      <trkpt lat="46.54607" lon="5.43356">
        <ele>515</ele>
        <time>2021-05-29T07:56:11.741Z</time>
      </trkpt>
      <trkpt lat="46.54609" lon="5.43358">
        <ele>515</ele>
        <time>2021-05-29T07:56:12.741Z</time>
      </trkpt>
      <trkpt lat="46.54611" lon="5.4336">
        <ele>515</ele>
        <time>2021-05-29T07:56:13.742Z</time>
      </trkpt>
      <trkpt lat="46.54613" lon="5.43362">
        <ele>515</ele>
        <time>2021-05-29T07:56:14.741Z</time>
      </trkpt>
      <trkpt lat="46.54614" lon="5.43364">
        <ele>515</ele>
        <time>2021-05-29T07:56:15.742Z</time>
      </trkpt>
      <trkpt lat="46.54618" lon="5.43367">
        <ele>515</ele>
        <time>2021-05-29T07:56:16.741Z</time>
      </trkpt>
      <trkpt lat="46.54621" lon="5.4337">
        <ele>515</ele>
        <time>2021-05-29T07:56:17.742Z</time>
      </trkpt>
      <trkpt lat="46.54623" lon="5.43372">
        <ele>515</ele>
        <time>2021-05-29T07:56:18.741Z</time>
      </trkpt>
      <trkpt lat="46.54626" lon="5.43374">
        <ele>515</ele>
        <time>2021-05-29T07:56:19.741Z</time>
      </trkpt>
      <trkpt lat="46.54628" lon="5.43376">
        <ele>515</ele>
        <time>2021-05-29T07:56:20.741Z</time>
      </trkpt>
      <trkpt lat="46.5463" lon="5.43379">
        <ele>515</ele>
        <time>2021-05-29T07:56:21.741Z</time>
      </trkpt>
      <trkpt lat="46.54632" lon="5.43381">
        <ele>516</ele>
        <time>2021-05-29T07:56:22.741Z</time>
      </trkpt>
      <trkpt lat="46.54633" lon="5.43383">
        <ele>516</ele>
        <time>2021-05-29T07:56:23.741Z</time>
      </trkpt>
      <trkpt lat="46.54635" lon="5.43385">
        <ele>516</ele>
        <time>2021-05-29T07:56:24.741Z</time>
      </trkpt>
      <trkpt lat="46.54637" lon="5.43387">
        <ele>516</ele>
        <time>2021-05-29T07:56:25.742Z</time>
      </trkpt>
      <trkpt lat="46.54639" lon="5.4339">
        <ele>516</ele>
        <time>2021-05-29T07:56:26.741Z</time>
      </trkpt>
      <trkpt lat="46.54641" lon="5.43392">
        <ele>517</ele>
        <time>2021-05-29T07:56:27.741Z</time>
      </trkpt>
      <trkpt lat="46.54643" lon="5.43394">
        <ele>517</ele>
        <time>2021-05-29T07:56:28.742Z</time>
      </trkpt>
      <trkpt lat="46.54644" lon="5.43396">
        <ele>517</ele>
        <time>2021-05-29T07:56:29.742Z</time>
      </trkpt>
      <trkpt lat="46.54646" lon="5.43398">
        <ele>517</ele>
        <time>2021-05-29T07:56:30.741Z</time>
      </trkpt>
      <trkpt lat="46.54648" lon="5.434">
        <ele>517</ele>
        <time>2021-05-29T07:56:31.741Z</time>
      </trkpt>
      <trkpt lat="46.5465" lon="5.43402">
        <ele>518</ele>
        <time>2021-05-29T07:56:32.741Z</time>
      </trkpt>
      <trkpt lat="46.54651" lon="5.43404">
        <ele>518</ele>
        <time>2021-05-29T07:56:33.742Z</time>
      </trkpt>
      <trkpt lat="46.54652" lon="5.43406">
        <ele>518</ele>
        <time>2021-05-29T07:56:34.742Z</time>
      </trkpt>
      <trkpt lat="46.54655" lon="5.4341">
        <ele>518</ele>
        <time>2021-05-29T07:56:35.741Z</time>
      </trkpt>
      <trkpt lat="46.54656" lon="5.43412">
        <ele>518</ele>
        <time>2021-05-29T07:56:36.741Z</time>
      </trkpt>
      <trkpt lat="46.54658" lon="5.43414">
        <ele>519</ele>
        <time>2021-05-29T07:56:37.741Z</time>
      </trkpt>
      <trkpt lat="46.54659" lon="5.43417">
        <ele>519</ele>
        <time>2021-05-29T07:56:38.742Z</time>
      </trkpt>
      <trkpt lat="46.5466" lon="5.43419">
        <ele>519</ele>
        <time>2021-05-29T07:56:39.742Z</time>
      </trkpt>
      <trkpt lat="46.54661" lon="5.43422">
        <ele>519</ele>
        <time>2021-05-29T07:56:40.742Z</time>
      </trkpt>
      <trkpt lat="46.54663" lon="5.43424">
        <ele>519</ele>
        <time>2021-05-29T07:56:41.741Z</time>
      </trkpt>
      <trkpt lat="46.54664" lon="5.43427">
        <ele>519</ele>
        <time>2021-05-29T07:56:42.741Z</time>
      </trkpt>
      <trkpt lat="46.54666" lon="5.43429">
        <ele>519</ele>
        <time>2021-05-29T07:56:43.741Z</time>
      </trkpt>
      <trkpt lat="46.54668" lon="5.43431">
        <ele>520</ele>
        <time>2021-05-29T07:56:44.741Z</time>
      </trkpt>
      <trkpt lat="46.5467" lon="5.43432">
        <ele>520</ele>
        <time>2021-05-29T07:56:45.741Z</time>
      </trkpt>
      <trkpt lat="46.54671" lon="5.43435">
        <ele>520</ele>
        <time>2021-05-29T07:56:46.741Z</time>
      </trkpt>
      <trkpt lat="46.54673" lon="5.43438">
        <ele>520</ele>
        <time>2021-05-29T07:56:47.742Z</time>
      </trkpt>
      <trkpt lat="46.54674" lon="5.4344">
        <ele>520</ele>
        <time>2021-05-29T07:56:48.742Z</time>
      </trkpt>
      <trkpt lat="46.54675" lon="5.43442">
        <ele>520</ele>
        <time>2021-05-29T07:56:49.742Z</time>
      </trkpt>
      <trkpt lat="46.54676" lon="5.43444">
        <ele>520</ele>
        <time>2021-05-29T07:56:50.741Z</time>
      </trkpt>
      <trkpt lat="46.54677" lon="5.43447">
        <ele>520</ele>
        <time>2021-05-29T07:56:51.741Z</time>
      </trkpt>
      <trkpt lat="46.54678" lon="5.43449">
        <ele>520</ele>
        <time>2021-05-29T07:56:52.741Z</time>
      </trkpt>
      <trkpt lat="46.54679" lon="5.43451">
        <ele>520</ele>
        <time>2021-05-29T07:56:53.742Z</time>
      </trkpt>
      <trkpt lat="46.5468" lon="5.43453">
        <ele>520</ele>
        <time>2021-05-29T07:56:54.742Z</time>
      </trkpt>
      <trkpt lat="46.54682" lon="5.43455">
        <ele>521</ele>
        <time>2021-05-29T07:56:55.742Z</time>
      </trkpt>
      <trkpt lat="46.54683" lon="5.43457">
        <ele>521</ele>
        <time>2021-05-29T07:56:56.742Z</time>
      </trkpt>
      <trkpt lat="46.54684" lon="5.43459">
        <ele>521</ele>
        <time>2021-05-29T07:56:57.742Z</time>
      </trkpt>
      <trkpt lat="46.54684" lon="5.43462">
        <ele>521</ele>
        <time>2021-05-29T07:56:58.742Z</time>
      </trkpt>
      <trkpt lat="46.54685" lon="5.43464">
        <ele>521</ele>
        <time>2021-05-29T07:56:59.742Z</time>
      </trkpt>
      <trkpt lat="46.54686" lon="5.43467">
        <ele>521</ele>
        <time>2021-05-29T07:57:00.742Z</time>
      </trkpt>
      <trkpt lat="46.54688" lon="5.43469">
        <ele>521</ele>
        <time>2021-05-29T07:57:01.742Z</time>
      </trkpt>
      <trkpt lat="46.54689" lon="5.43472">
        <ele>521</ele>
        <time>2021-05-29T07:57:02.742Z</time>
      </trkpt>
      <trkpt lat="46.5469" lon="5.43474">
        <ele>521</ele>
        <time>2021-05-29T07:57:03.741Z</time>
      </trkpt>
      <trkpt lat="46.54692" lon="5.43477">
        <ele>521</ele>
        <time>2021-05-29T07:57:04.742Z</time>
      </trkpt>
      <trkpt lat="46.54694" lon="5.4348">
        <ele>520</ele>
        <time>2021-05-29T07:57:05.741Z</time>
      </trkpt>
      <trkpt lat="46.54698" lon="5.43483">
        <ele>520</ele>
        <time>2021-05-29T07:57:06.742Z</time>
      </trkpt>
      <trkpt lat="46.547" lon="5.43486">
        <ele>520</ele>
        <time>2021-05-29T07:57:07.742Z</time>
      </trkpt>
      <trkpt lat="46.54702" lon="5.43488">
        <ele>520</ele>
        <time>2021-05-29T07:57:08.742Z</time>
      </trkpt>
      <trkpt lat="46.54703" lon="5.43491">
        <ele>520</ele>
        <time>2021-05-29T07:57:09.742Z</time>
      </trkpt>
      <trkpt lat="46.54705" lon="5.43493">
        <ele>521</ele>
        <time>2021-05-29T07:57:10.741Z</time>
      </trkpt>
      <trkpt lat="46.54706" lon="5.43496">
        <ele>521</ele>
        <time>2021-05-29T07:57:11.742Z</time>
      </trkpt>
      <trkpt lat="46.54708" lon="5.43497">
        <ele>521</ele>
        <time>2021-05-29T07:57:12.742Z</time>
      </trkpt>
      <trkpt lat="46.5471" lon="5.435">
        <ele>521</ele>
        <time>2021-05-29T07:57:13.742Z</time>
      </trkpt>
      <trkpt lat="46.54711" lon="5.43502">
        <ele>522</ele>
        <time>2021-05-29T07:57:14.742Z</time>
      </trkpt>
      <trkpt lat="46.54713" lon="5.43504">
        <ele>522</ele>
        <time>2021-05-29T07:57:15.742Z</time>
      </trkpt>
      <trkpt lat="46.54714" lon="5.43506">
        <ele>522</ele>
        <time>2021-05-29T07:57:16.741Z</time>
      </trkpt>
      <trkpt lat="46.54716" lon="5.43508">
        <ele>522</ele>
        <time>2021-05-29T07:57:17.741Z</time>
      </trkpt>
      <trkpt lat="46.54717" lon="5.4351">
        <ele>522</ele>
        <time>2021-05-29T07:57:18.742Z</time>
      </trkpt>
      <trkpt lat="46.54718" lon="5.4351">
        <ele>523</ele>
        <time>2021-05-29T07:57:19.741Z</time>
      </trkpt>
      <trkpt lat="46.54717" lon="5.4351">
        <ele>523</ele>
        <time>2021-05-29T07:57:20.741Z</time>
      </trkpt>
      <trkpt lat="46.54717" lon="5.4351">
        <ele>523</ele>
        <time>2021-05-29T07:57:21.742Z</time>
      </trkpt>
      <trkpt lat="46.54715" lon="5.43509">
        <ele>524</ele>
        <time>2021-05-29T07:57:22.742Z</time>
      </trkpt>
      <trkpt lat="46.54714" lon="5.43508">
        <ele>524</ele>
        <time>2021-05-29T07:57:23.742Z</time>
      </trkpt>
      <trkpt lat="46.54712" lon="5.43506">
        <ele>524</ele>
        <time>2021-05-29T07:57:24.742Z</time>
      </trkpt>
      <trkpt lat="46.5471" lon="5.43504">
        <ele>524</ele>
        <time>2021-05-29T07:57:25.742Z</time>
      </trkpt>
      <trkpt lat="46.54708" lon="5.43503">
        <ele>525</ele>
        <time>2021-05-29T07:57:26.742Z</time>
      </trkpt>
      <trkpt lat="46.54707" lon="5.43501">
        <ele>525</ele>
        <time>2021-05-29T07:57:27.742Z</time>
      </trkpt>
      <trkpt lat="46.54705" lon="5.43499">
        <ele>525</ele>
        <time>2021-05-29T07:57:28.741Z</time>
      </trkpt>
      <trkpt lat="46.54703" lon="5.43498">
        <ele>525</ele>
        <time>2021-05-29T07:57:29.742Z</time>
      </trkpt>
      <trkpt lat="46.54701" lon="5.43495">
        <ele>525</ele>
        <time>2021-05-29T07:57:30.742Z</time>
      </trkpt>
      <trkpt lat="46.547" lon="5.43493">
        <ele>525</ele>
        <time>2021-05-29T07:57:31.742Z</time>
      </trkpt>
      <trkpt lat="46.54699" lon="5.43491">
        <ele>525</ele>
        <time>2021-05-29T07:57:32.742Z</time>
      </trkpt>
      <trkpt lat="46.54698" lon="5.4349">
        <ele>525</ele>
        <time>2021-05-29T07:57:33.741Z</time>
      </trkpt>
      <trkpt lat="46.54696" lon="5.43488">
        <ele>524</ele>
        <time>2021-05-29T07:57:34.742Z</time>
      </trkpt>
      <trkpt lat="46.54695" lon="5.43487">
        <ele>524</ele>
        <time>2021-05-29T07:57:35.742Z</time>
      </trkpt>
      <trkpt lat="46.54693" lon="5.43484">
        <ele>524</ele>
        <time>2021-05-29T07:57:36.742Z</time>
      </trkpt>
      <trkpt lat="46.54691" lon="5.43482">
        <ele>523</ele>
        <time>2021-05-29T07:57:37.742Z</time>
      </trkpt>
      <trkpt lat="46.5469" lon="5.43478">
        <ele>523</ele>
        <time>2021-05-29T07:57:38.741Z</time>
      </trkpt>
      <trkpt lat="46.54688" lon="5.43475">
        <ele>523</ele>
        <time>2021-05-29T07:57:39.742Z</time>
      </trkpt>
      <trkpt lat="46.54686" lon="5.43473">
        <ele>522</ele>
        <time>2021-05-29T07:57:40.742Z</time>
      </trkpt>
      <trkpt lat="46.54684" lon="5.43471">
        <ele>522</ele>
        <time>2021-05-29T07:57:41.742Z</time>
      </trkpt>
      <trkpt lat="46.54683" lon="5.43469">
        <ele>522</ele>
        <time>2021-05-29T07:57:42.742Z</time>
      </trkpt>
      <trkpt lat="46.54682" lon="5.43466">
        <ele>522</ele>
        <time>2021-05-29T07:57:43.742Z</time>
      </trkpt>
      <trkpt lat="46.5468" lon="5.43464">
        <ele>521</ele>
        <time>2021-05-29T07:57:44.741Z</time>
      </trkpt>
      <trkpt lat="46.54679" lon="5.43462">
        <ele>521</ele>
        <time>2021-05-29T07:57:45.742Z</time>
      </trkpt>
      <trkpt lat="46.54678" lon="5.43461">
        <ele>521</ele>
        <time>2021-05-29T07:57:46.742Z</time>
      </trkpt>
      <trkpt lat="46.54677" lon="5.43459">
        <ele>521</ele>
        <time>2021-05-29T07:57:47.742Z</time>
      </trkpt>
      <trkpt lat="46.54675" lon="5.43457">
        <ele>521</ele>
        <time>2021-05-29T07:57:48.742Z</time>
      </trkpt>
      <trkpt lat="46.54674" lon="5.43455">
        <ele>520</ele>
        <time>2021-05-29T07:57:49.741Z</time>
      </trkpt>
      <trkpt lat="46.54673" lon="5.43453">
        <ele>520</ele>
        <time>2021-05-29T07:57:50.741Z</time>
      </trkpt>
      <trkpt lat="46.54674" lon="5.43451">
        <ele>520</ele>
        <time>2021-05-29T07:57:51.742Z</time>
      </trkpt>
      <trkpt lat="46.54675" lon="5.4345">
        <ele>519</ele>
        <time>2021-05-29T07:57:52.742Z</time>
      </trkpt>
      <trkpt lat="46.54675" lon="5.43451">
        <ele>519</ele>
        <time>2021-05-29T07:57:53.741Z</time>
      </trkpt>
      <trkpt lat="46.54677" lon="5.43452">
        <ele>519</ele>
        <time>2021-05-29T07:57:54.741Z</time>
      </trkpt>
      <trkpt lat="46.54677" lon="5.43454">
        <ele>518</ele>
        <time>2021-05-29T07:57:55.741Z</time>
      </trkpt>
      <trkpt lat="46.54678" lon="5.43456">
        <ele>518</ele>
        <time>2021-05-29T07:57:56.741Z</time>
      </trkpt>
      <trkpt lat="46.54678" lon="5.43457">
        <ele>518</ele>
        <time>2021-05-29T07:57:57.741Z</time>
      </trkpt>
      <trkpt lat="46.54679" lon="5.43459">
        <ele>518</ele>
        <time>2021-05-29T07:57:58.741Z</time>
      </trkpt>
      <trkpt lat="46.54679" lon="5.43461">
        <ele>519</ele>
        <time>2021-05-29T07:57:59.741Z</time>
      </trkpt>
      <trkpt lat="46.5468" lon="5.43462">
        <ele>519</ele>
        <time>2021-05-29T07:58:00.741Z</time>
      </trkpt>
      <trkpt lat="46.5468" lon="5.43465">
        <ele>519</ele>
        <time>2021-05-29T07:58:01.741Z</time>
      </trkpt>
      <trkpt lat="46.5468" lon="5.43467">
        <ele>519</ele>
        <time>2021-05-29T07:58:02.742Z</time>
      </trkpt>
      <trkpt lat="46.54681" lon="5.43469">
        <ele>519</ele>
        <time>2021-05-29T07:58:03.742Z</time>
      </trkpt>
      <trkpt lat="46.54682" lon="5.43471">
        <ele>519</ele>
        <time>2021-05-29T07:58:04.742Z</time>
      </trkpt>
      <trkpt lat="46.54682" lon="5.43473">
        <ele>519</ele>
        <time>2021-05-29T07:58:05.742Z</time>
      </trkpt>
      <trkpt lat="46.54683" lon="5.43475">
        <ele>519</ele>
        <time>2021-05-29T07:58:06.742Z</time>
      </trkpt>
      <trkpt lat="46.54684" lon="5.43477">
        <ele>519</ele>
        <time>2021-05-29T07:58:07.741Z</time>
      </trkpt>
      <trkpt lat="46.54686" lon="5.43479">
        <ele>520</ele>
        <time>2021-05-29T07:58:08.742Z</time>
      </trkpt>
      <trkpt lat="46.54687" lon="5.43482">
        <ele>520</ele>
        <time>2021-05-29T07:58:09.742Z</time>
      </trkpt>
      <trkpt lat="46.54689" lon="5.43484">
        <ele>520</ele>
        <time>2021-05-29T07:58:10.742Z</time>
      </trkpt>
      <trkpt lat="46.54691" lon="5.43487">
        <ele>520</ele>
        <time>2021-05-29T07:58:11.741Z</time>
      </trkpt>
      <trkpt lat="46.54692" lon="5.43489">
        <ele>520</ele>
        <time>2021-05-29T07:58:12.742Z</time>
      </trkpt>
      <trkpt lat="46.54693" lon="5.43491">
        <ele>520</ele>
        <time>2021-05-29T07:58:13.742Z</time>
      </trkpt>
      <trkpt lat="46.54695" lon="5.43494">
        <ele>520</ele>
        <time>2021-05-29T07:58:14.742Z</time>
      </trkpt>
      <trkpt lat="46.54697" lon="5.43497">
        <ele>520</ele>
        <time>2021-05-29T07:58:15.742Z</time>
      </trkpt>
      <trkpt lat="46.54699" lon="5.435">
        <ele>520</ele>
        <time>2021-05-29T07:58:16.742Z</time>
      </trkpt>
      <trkpt lat="46.547" lon="5.43502">
        <ele>521</ele>
        <time>2021-05-29T07:58:17.742Z</time>
      </trkpt>
      <trkpt lat="46.54702" lon="5.43505">
        <ele>521</ele>
        <time>2021-05-29T07:58:18.742Z</time>
      </trkpt>
      <trkpt lat="46.54705" lon="5.43507">
        <ele>521</ele>
        <time>2021-05-29T07:58:19.742Z</time>
      </trkpt>
      <trkpt lat="46.54708" lon="5.43509">
        <ele>521</ele>
        <time>2021-05-29T07:58:20.741Z</time>
      </trkpt>
      <trkpt lat="46.5471" lon="5.43511">
        <ele>521</ele>
        <time>2021-05-29T07:58:21.742Z</time>
      </trkpt>
      <trkpt lat="46.54713" lon="5.43513">
        <ele>521</ele>
        <time>2021-05-29T07:58:22.742Z</time>
      </trkpt>
      <trkpt lat="46.54714" lon="5.43516">
        <ele>521</ele>
        <time>2021-05-29T07:58:23.742Z</time>
      </trkpt>
      <trkpt lat="46.54715" lon="5.43518">
        <ele>521</ele>
        <time>2021-05-29T07:58:24.742Z</time>
      </trkpt>
      <trkpt lat="46.54716" lon="5.4352">
        <ele>521</ele>
        <time>2021-05-29T07:58:25.742Z</time>
      </trkpt>
      <trkpt lat="46.54717" lon="5.43522">
        <ele>521</ele>
        <time>2021-05-29T07:58:26.741Z</time>
      </trkpt>
      <trkpt lat="46.54719" lon="5.43525">
        <ele>521</ele>
        <time>2021-05-29T07:58:27.742Z</time>
      </trkpt>
      <trkpt lat="46.5472" lon="5.43527">
        <ele>521</ele>
        <time>2021-05-29T07:58:28.742Z</time>
      </trkpt>
      <trkpt lat="46.54723" lon="5.43529">
        <ele>521</ele>
        <time>2021-05-29T07:58:29.742Z</time>
      </trkpt>
      <trkpt lat="46.54724" lon="5.43531">
        <ele>521</ele>
        <time>2021-05-29T07:58:30.742Z</time>
      </trkpt>
      <trkpt lat="46.54725" lon="5.43533">
        <ele>521</ele>
        <time>2021-05-29T07:58:31.741Z</time>
      </trkpt>
      <trkpt lat="46.54727" lon="5.43536">
        <ele>521</ele>
        <time>2021-05-29T07:58:32.742Z</time>
      </trkpt>
      <trkpt lat="46.54728" lon="5.43538">
        <ele>521</ele>
        <time>2021-05-29T07:58:33.742Z</time>
      </trkpt>
      <trkpt lat="46.5473" lon="5.4354">
        <ele>521</ele>
        <time>2021-05-29T07:58:34.742Z</time>
      </trkpt>
      <trkpt lat="46.54732" lon="5.43543">
        <ele>521</ele>
        <time>2021-05-29T07:58:35.742Z</time>
      </trkpt>
      <trkpt lat="46.54733" lon="5.43545">
        <ele>522</ele>
        <time>2021-05-29T07:58:36.741Z</time>
      </trkpt>
      <trkpt lat="46.54734" lon="5.43547">
        <ele>522</ele>
        <time>2021-05-29T07:58:37.741Z</time>
      </trkpt>
      <trkpt lat="46.54735" lon="5.43549">
        <ele>522</ele>
        <time>2021-05-29T07:58:38.742Z</time>
      </trkpt>
      <trkpt lat="46.54736" lon="5.43551">
        <ele>522</ele>
        <time>2021-05-29T07:58:39.742Z</time>
      </trkpt>
      <trkpt lat="46.54737" lon="5.43554">
        <ele>523</ele>
        <time>2021-05-29T07:58:40.742Z</time>
      </trkpt>
      <trkpt lat="46.54737" lon="5.43557">
        <ele>523</ele>
        <time>2021-05-29T07:58:41.742Z</time>
      </trkpt>
      <trkpt lat="46.54738" lon="5.43559">
        <ele>523</ele>
        <time>2021-05-29T07:58:42.741Z</time>
      </trkpt>
      <trkpt lat="46.54739" lon="5.43561">
        <ele>523</ele>
        <time>2021-05-29T07:58:43.741Z</time>
      </trkpt>
      <trkpt lat="46.54741" lon="5.43564">
        <ele>524</ele>
        <time>2021-05-29T07:58:44.741Z</time>
      </trkpt>
      <trkpt lat="46.54743" lon="5.43567">
        <ele>524</ele>
        <time>2021-05-29T07:58:45.742Z</time>
      </trkpt>
      <trkpt lat="46.54745" lon="5.4357">
        <ele>524</ele>
        <time>2021-05-29T07:58:46.742Z</time>
      </trkpt>
      <trkpt lat="46.54746" lon="5.43572">
        <ele>524</ele>
        <time>2021-05-29T07:58:47.741Z</time>
      </trkpt>
      <trkpt lat="46.54747" lon="5.43575">
        <ele>524</ele>
        <time>2021-05-29T07:58:48.741Z</time>
      </trkpt>
      <trkpt lat="46.54749" lon="5.43577">
        <ele>524</ele>
        <time>2021-05-29T07:58:49.742Z</time>
      </trkpt>
      <trkpt lat="46.54751" lon="5.4358">
        <ele>524</ele>
        <time>2021-05-29T07:58:50.741Z</time>
      </trkpt>
      <trkpt lat="46.54752" lon="5.43582">
        <ele>524</ele>
        <time>2021-05-29T07:58:51.742Z</time>
      </trkpt>
      <trkpt lat="46.54753" lon="5.43584">
        <ele>524</ele>
        <time>2021-05-29T07:58:52.742Z</time>
      </trkpt>
      <trkpt lat="46.54754" lon="5.43586">
        <ele>524</ele>
        <time>2021-05-29T07:58:53.742Z</time>
      </trkpt>
      <trkpt lat="46.54754" lon="5.43588">
        <ele>525</ele>
        <time>2021-05-29T07:58:54.741Z</time>
      </trkpt>
      <trkpt lat="46.54756" lon="5.4359">
        <ele>525</ele>
        <time>2021-05-29T07:58:55.742Z</time>
      </trkpt>
      <trkpt lat="46.54757" lon="5.43591">
        <ele>525</ele>
        <time>2021-05-29T07:58:56.742Z</time>
      </trkpt>
      <trkpt lat="46.54758" lon="5.43594">
        <ele>525</ele>
        <time>2021-05-29T07:58:57.742Z</time>
      </trkpt>
      <trkpt lat="46.5476" lon="5.43596">
        <ele>526</ele>
        <time>2021-05-29T07:58:58.742Z</time>
      </trkpt>
      <trkpt lat="46.54761" lon="5.43598">
        <ele>526</ele>
        <time>2021-05-29T07:58:59.742Z</time>
      </trkpt>
      <trkpt lat="46.54762" lon="5.436">
        <ele>526</ele>
        <time>2021-05-29T07:59:00.742Z</time>
      </trkpt>
      <trkpt lat="46.54763" lon="5.43603">
        <ele>527</ele>
        <time>2021-05-29T07:59:01.742Z</time>
      </trkpt>
      <trkpt lat="46.54765" lon="5.43606">
        <ele>527</ele>
        <time>2021-05-29T07:59:02.742Z</time>
      </trkpt>
      <trkpt lat="46.54766" lon="5.43608">
        <ele>527</ele>
        <time>2021-05-29T07:59:03.741Z</time>
      </trkpt>
      <trkpt lat="46.54766" lon="5.43609">
        <ele>527</ele>
        <time>2021-05-29T07:59:04.742Z</time>
      </trkpt>
      <trkpt lat="46.54768" lon="5.4361">
        <ele>527</ele>
        <time>2021-05-29T07:59:05.741Z</time>
      </trkpt>
      <trkpt lat="46.54769" lon="5.43612">
        <ele>527</ele>
        <time>2021-05-29T07:59:06.742Z</time>
      </trkpt>
      <trkpt lat="46.5477" lon="5.43614">
        <ele>527</ele>
        <time>2021-05-29T07:59:07.742Z</time>
      </trkpt>
      <trkpt lat="46.54771" lon="5.43616">
        <ele>528</ele>
        <time>2021-05-29T07:59:08.742Z</time>
      </trkpt>
      <trkpt lat="46.54772" lon="5.43618">
        <ele>528</ele>
        <time>2021-05-29T07:59:09.742Z</time>
      </trkpt>
      <trkpt lat="46.54773" lon="5.4362">
        <ele>528</ele>
        <time>2021-05-29T07:59:10.742Z</time>
      </trkpt>
      <trkpt lat="46.54775" lon="5.43622">
        <ele>528</ele>
        <time>2021-05-29T07:59:11.742Z</time>
      </trkpt>
      <trkpt lat="46.54776" lon="5.43625">
        <ele>528</ele>
        <time>2021-05-29T07:59:12.742Z</time>
      </trkpt>
      <trkpt lat="46.54778" lon="5.43627">
        <ele>528</ele>
        <time>2021-05-29T07:59:13.742Z</time>
      </trkpt>
      <trkpt lat="46.54779" lon="5.4363">
        <ele>528</ele>
        <time>2021-05-29T07:59:14.742Z</time>
      </trkpt>
      <trkpt lat="46.54781" lon="5.43633">
        <ele>528</ele>
        <time>2021-05-29T07:59:15.742Z</time>
      </trkpt>
      <trkpt lat="46.54782" lon="5.43635">
        <ele>528</ele>
        <time>2021-05-29T07:59:16.741Z</time>
      </trkpt>
      <trkpt lat="46.54784" lon="5.43637">
        <ele>528</ele>
        <time>2021-05-29T07:59:17.741Z</time>
      </trkpt>
      <trkpt lat="46.54784" lon="5.4364">
        <ele>528</ele>
        <time>2021-05-29T07:59:18.742Z</time>
      </trkpt>
      <trkpt lat="46.54785" lon="5.43642">
        <ele>529</ele>
        <time>2021-05-29T07:59:19.742Z</time>
      </trkpt>
      <trkpt lat="46.54787" lon="5.43644">
        <ele>529</ele>
        <time>2021-05-29T07:59:20.742Z</time>
      </trkpt>
      <trkpt lat="46.54788" lon="5.43646">
        <ele>529</ele>
        <time>2021-05-29T07:59:21.742Z</time>
      </trkpt>
      <trkpt lat="46.54788" lon="5.43647">
        <ele>529</ele>
        <time>2021-05-29T07:59:22.742Z</time>
      </trkpt>
      <trkpt lat="46.54789" lon="5.43649">
        <ele>530</ele>
        <time>2021-05-29T07:59:23.742Z</time>
      </trkpt>
      <trkpt lat="46.5479" lon="5.43651">
        <ele>530</ele>
        <time>2021-05-29T07:59:24.742Z</time>
      </trkpt>
      <trkpt lat="46.54792" lon="5.43654">
        <ele>530</ele>
        <time>2021-05-29T07:59:25.742Z</time>
      </trkpt>
      <trkpt lat="46.54793" lon="5.43656">
        <ele>530</ele>
        <time>2021-05-29T07:59:26.742Z</time>
      </trkpt>
      <trkpt lat="46.54794" lon="5.43659">
        <ele>530</ele>
        <time>2021-05-29T07:59:27.742Z</time>
      </trkpt>
      <trkpt lat="46.54794" lon="5.43662">
        <ele>530</ele>
        <time>2021-05-29T07:59:28.741Z</time>
      </trkpt>
      <trkpt lat="46.54795" lon="5.43664">
        <ele>531</ele>
        <time>2021-05-29T07:59:29.741Z</time>
      </trkpt>
      <trkpt lat="46.54796" lon="5.43666">
        <ele>531</ele>
        <time>2021-05-29T07:59:30.742Z</time>
      </trkpt>
      <trkpt lat="46.54797" lon="5.43667">
        <ele>532</ele>
        <time>2021-05-29T07:59:31.742Z</time>
      </trkpt>
      <trkpt lat="46.54798" lon="5.43669">
        <ele>532</ele>
        <time>2021-05-29T07:59:32.742Z</time>
      </trkpt>
      <trkpt lat="46.54799" lon="5.43671">
        <ele>532</ele>
        <time>2021-05-29T07:59:33.742Z</time>
      </trkpt>
      <trkpt lat="46.548" lon="5.43673">
        <ele>532</ele>
        <time>2021-05-29T07:59:34.742Z</time>
      </trkpt>
      <trkpt lat="46.54801" lon="5.43674">
        <ele>532</ele>
        <time>2021-05-29T07:59:35.741Z</time>
      </trkpt>
      <trkpt lat="46.54803" lon="5.43676">
        <ele>532</ele>
        <time>2021-05-29T07:59:36.742Z</time>
      </trkpt>
      <trkpt lat="46.54804" lon="5.43678">
        <ele>532</ele>
        <time>2021-05-29T07:59:37.742Z</time>
      </trkpt>
      <trkpt lat="46.54806" lon="5.4368">
        <ele>532</ele>
        <time>2021-05-29T07:59:38.741Z</time>
      </trkpt>
      <trkpt lat="46.54807" lon="5.43681">
        <ele>532</ele>
        <time>2021-05-29T07:59:39.741Z</time>
      </trkpt>
      <trkpt lat="46.54808" lon="5.43683">
        <ele>532</ele>
        <time>2021-05-29T07:59:40.741Z</time>
      </trkpt>
      <trkpt lat="46.54809" lon="5.43687">
        <ele>532</ele>
        <time>2021-05-29T07:59:41.741Z</time>
      </trkpt>
      <trkpt lat="46.54811" lon="5.4369">
        <ele>532</ele>
        <time>2021-05-29T07:59:42.742Z</time>
      </trkpt>
      <trkpt lat="46.54812" lon="5.43693">
        <ele>532</ele>
        <time>2021-05-29T07:59:43.742Z</time>
      </trkpt>
      <trkpt lat="46.54813" lon="5.43694">
        <ele>532</ele>
        <time>2021-05-29T07:59:44.742Z</time>
      </trkpt>
      <trkpt lat="46.54814" lon="5.43696">
        <ele>532</ele>
        <time>2021-05-29T07:59:45.742Z</time>
      </trkpt>
      <trkpt lat="46.54814" lon="5.43698">
        <ele>533</ele>
        <time>2021-05-29T07:59:46.742Z</time>
      </trkpt>
      <trkpt lat="46.54815" lon="5.437">
        <ele>533</ele>
        <time>2021-05-29T07:59:47.742Z</time>
      </trkpt>
      <trkpt lat="46.54816" lon="5.43702">
        <ele>533</ele>
        <time>2021-05-29T07:59:48.742Z</time>
      </trkpt>
      <trkpt lat="46.54817" lon="5.43704">
        <ele>533</ele>
        <time>2021-05-29T07:59:49.742Z</time>
      </trkpt>
      <trkpt lat="46.54817" lon="5.43706">
        <ele>533</ele>
        <time>2021-05-29T07:59:50.742Z</time>
      </trkpt>
      <trkpt lat="46.54818" lon="5.43708">
        <ele>533</ele>
        <time>2021-05-29T07:59:51.742Z</time>
      </trkpt>
      <trkpt lat="46.54819" lon="5.43711">
        <ele>533</ele>
        <time>2021-05-29T07:59:52.741Z</time>
      </trkpt>
      <trkpt lat="46.5482" lon="5.43713">
        <ele>533</ele>
        <time>2021-05-29T07:59:53.741Z</time>
      </trkpt>
      <trkpt lat="46.54821" lon="5.43716">
        <ele>533</ele>
        <time>2021-05-29T07:59:54.742Z</time>
      </trkpt>
      <trkpt lat="46.54822" lon="5.43719">
        <ele>533</ele>
        <time>2021-05-29T07:59:55.742Z</time>
      </trkpt>
      <trkpt lat="46.54824" lon="5.43721">
        <ele>533</ele>
        <time>2021-05-29T07:59:56.742Z</time>
      </trkpt>
      <trkpt lat="46.54825" lon="5.43723">
        <ele>533</ele>
        <time>2021-05-29T07:59:57.741Z</time>
      </trkpt>
      <trkpt lat="46.54826" lon="5.43725">
        <ele>533</ele>
        <time>2021-05-29T07:59:58.742Z</time>
      </trkpt>
      <trkpt lat="46.54828" lon="5.43728">
        <ele>533</ele>
        <time>2021-05-29T07:59:59.742Z</time>
      </trkpt>
      <trkpt lat="46.54829" lon="5.43731">
        <ele>533</ele>
        <time>2021-05-29T08:00:00.742Z</time>
      </trkpt>
      <trkpt lat="46.5483" lon="5.43733">
        <ele>533</ele>
        <time>2021-05-29T08:00:01.742Z</time>
      </trkpt>
      <trkpt lat="46.54831" lon="5.43736">
        <ele>533</ele>
        <time>2021-05-29T08:00:02.742Z</time>
      </trkpt>
      <trkpt lat="46.54833" lon="5.43738">
        <ele>533</ele>
        <time>2021-05-29T08:00:03.742Z</time>
      </trkpt>
      <trkpt lat="46.54835" lon="5.43741">
        <ele>533</ele>
        <time>2021-05-29T08:00:04.741Z</time>
      </trkpt>
      <trkpt lat="46.54837" lon="5.43744">
        <ele>533</ele>
        <time>2021-05-29T08:00:05.742Z</time>
      </trkpt>
      <trkpt lat="46.54839" lon="5.43746">
        <ele>533</ele>
        <time>2021-05-29T08:00:06.742Z</time>
      </trkpt>
      <trkpt lat="46.54841" lon="5.4375">
        <ele>534</ele>
        <time>2021-05-29T08:00:07.742Z</time>
      </trkpt>
      <trkpt lat="46.54842" lon="5.43752">
        <ele>534</ele>
        <time>2021-05-29T08:00:08.742Z</time>
      </trkpt>
      <trkpt lat="46.54843" lon="5.43754">
        <ele>534</ele>
        <time>2021-05-29T08:00:09.742Z</time>
      </trkpt>
      <trkpt lat="46.54843" lon="5.43756">
        <ele>534</ele>
        <time>2021-05-29T08:00:10.742Z</time>
      </trkpt>
      <trkpt lat="46.54844" lon="5.43758">
        <ele>534</ele>
        <time>2021-05-29T08:00:11.742Z</time>
      </trkpt>
      <trkpt lat="46.54846" lon="5.43761">
        <ele>534</ele>
        <time>2021-05-29T08:00:12.742Z</time>
      </trkpt>
      <trkpt lat="46.54847" lon="5.43763">
        <ele>535</ele>
        <time>2021-05-29T08:00:13.742Z</time>
      </trkpt>
      <trkpt lat="46.54848" lon="5.43765">
        <ele>535</ele>
        <time>2021-05-29T08:00:14.741Z</time>
      </trkpt>
      <trkpt lat="46.54849" lon="5.43767">
        <ele>535</ele>
        <time>2021-05-29T08:00:15.742Z</time>
      </trkpt>
      <trkpt lat="46.54851" lon="5.4377">
        <ele>535</ele>
        <time>2021-05-29T08:00:16.742Z</time>
      </trkpt>
      <trkpt lat="46.54852" lon="5.43773">
        <ele>535</ele>
        <time>2021-05-29T08:00:17.741Z</time>
      </trkpt>
      <trkpt lat="46.54853" lon="5.43775">
        <ele>535</ele>
        <time>2021-05-29T08:00:18.742Z</time>
      </trkpt>
      <trkpt lat="46.54853" lon="5.43778">
        <ele>536</ele>
        <time>2021-05-29T08:00:19.742Z</time>
      </trkpt>
      <trkpt lat="46.54854" lon="5.43782">
        <ele>536</ele>
        <time>2021-05-29T08:00:20.742Z</time>
      </trkpt>
      <trkpt lat="46.54855" lon="5.43784">
        <ele>536</ele>
        <time>2021-05-29T08:00:21.742Z</time>
      </trkpt>
      <trkpt lat="46.54856" lon="5.43787">
        <ele>536</ele>
        <time>2021-05-29T08:00:22.742Z</time>
      </trkpt>
      <trkpt lat="46.54857" lon="5.43789">
        <ele>536</ele>
        <time>2021-05-29T08:00:23.742Z</time>
      </trkpt>
      <trkpt lat="46.54858" lon="5.43791">
        <ele>536</ele>
        <time>2021-05-29T08:00:24.741Z</time>
      </trkpt>
      <trkpt lat="46.5486" lon="5.43794">
        <ele>535</ele>
        <time>2021-05-29T08:00:25.742Z</time>
      </trkpt>
      <trkpt lat="46.54861" lon="5.43797">
        <ele>535</ele>
        <time>2021-05-29T08:00:26.742Z</time>
      </trkpt>
      <trkpt lat="46.54862" lon="5.438">
        <ele>535</ele>
        <time>2021-05-29T08:00:27.742Z</time>
      </trkpt>
      <trkpt lat="46.54863" lon="5.43802">
        <ele>535</ele>
        <time>2021-05-29T08:00:28.742Z</time>
      </trkpt>
      <trkpt lat="46.54864" lon="5.43805">
        <ele>535</ele>
        <time>2021-05-29T08:00:29.742Z</time>
      </trkpt>
      <trkpt lat="46.54865" lon="5.43807">
        <ele>534</ele>
        <time>2021-05-29T08:00:30.742Z</time>
      </trkpt>
      <trkpt lat="46.54866" lon="5.43809">
        <ele>534</ele>
        <time>2021-05-29T08:00:31.742Z</time>
      </trkpt>
      <trkpt lat="46.54866" lon="5.43812">
        <ele>534</ele>
        <time>2021-05-29T08:00:32.742Z</time>
      </trkpt>
      <trkpt lat="46.54867" lon="5.43815">
        <ele>534</ele>
        <time>2021-05-29T08:00:33.742Z</time>
      </trkpt>
      <trkpt lat="46.54868" lon="5.43818">
        <ele>534</ele>
        <time>2021-05-29T08:00:34.741Z</time>
      </trkpt>
      <trkpt lat="46.54868" lon="5.4382">
        <ele>534</ele>
        <time>2021-05-29T08:00:35.742Z</time>
      </trkpt>
      <trkpt lat="46.54869" lon="5.43823">
        <ele>535</ele>
        <time>2021-05-29T08:00:36.742Z</time>
      </trkpt>
      <trkpt lat="46.54869" lon="5.43825">
        <ele>535</ele>
        <time>2021-05-29T08:00:37.742Z</time>
      </trkpt>
      <trkpt lat="46.54869" lon="5.43828">
        <ele>535</ele>
        <time>2021-05-29T08:00:38.741Z</time>
      </trkpt>
      <trkpt lat="46.54869" lon="5.43832">
        <ele>535</ele>
        <time>2021-05-29T08:00:39.741Z</time>
      </trkpt>
      <trkpt lat="46.5487" lon="5.43835">
        <ele>535</ele>
        <time>2021-05-29T08:00:40.741Z</time>
      </trkpt>
      <trkpt lat="46.54871" lon="5.43838">
        <ele>535</ele>
        <time>2021-05-29T08:00:41.742Z</time>
      </trkpt>
      <trkpt lat="46.54871" lon="5.43843">
        <ele>535</ele>
        <time>2021-05-29T08:00:42.742Z</time>
      </trkpt>
      <trkpt lat="46.54872" lon="5.43846">
        <ele>536</ele>
        <time>2021-05-29T08:00:43.742Z</time>
      </trkpt>
      <trkpt lat="46.54872" lon="5.43848">
        <ele>536</ele>
        <time>2021-05-29T08:00:44.742Z</time>
      </trkpt>
      <trkpt lat="46.54873" lon="5.43851">
        <ele>536</ele>
        <time>2021-05-29T08:00:45.742Z</time>
      </trkpt>
      <trkpt lat="46.54873" lon="5.43854">
        <ele>536</ele>
        <time>2021-05-29T08:00:46.741Z</time>
      </trkpt>
      <trkpt lat="46.54874" lon="5.43857">
        <ele>536</ele>
        <time>2021-05-29T08:00:47.742Z</time>
      </trkpt>
      <trkpt lat="46.54875" lon="5.43859">
        <ele>536</ele>
        <time>2021-05-29T08:00:48.741Z</time>
      </trkpt>
      <trkpt lat="46.54875" lon="5.43862">
        <ele>537</ele>
        <time>2021-05-29T08:00:49.742Z</time>
      </trkpt>
      <trkpt lat="46.54875" lon="5.43865">
        <ele>537</ele>
        <time>2021-05-29T08:00:50.742Z</time>
      </trkpt>
      <trkpt lat="46.54875" lon="5.43868">
        <ele>537</ele>
        <time>2021-05-29T08:00:51.741Z</time>
      </trkpt>
      <trkpt lat="46.54875" lon="5.43871">
        <ele>537</ele>
        <time>2021-05-29T08:00:52.742Z</time>
      </trkpt>
      <trkpt lat="46.54875" lon="5.43874">
        <ele>537</ele>
        <time>2021-05-29T08:00:53.742Z</time>
      </trkpt>
      <trkpt lat="46.54875" lon="5.43877">
        <ele>537</ele>
        <time>2021-05-29T08:00:54.742Z</time>
      </trkpt>
      <trkpt lat="46.54876" lon="5.4388">
        <ele>538</ele>
        <time>2021-05-29T08:00:55.742Z</time>
      </trkpt>
      <trkpt lat="46.54876" lon="5.43883">
        <ele>538</ele>
        <time>2021-05-29T08:00:56.742Z</time>
      </trkpt>
      <trkpt lat="46.54877" lon="5.43887">
        <ele>538</ele>
        <time>2021-05-29T08:00:57.742Z</time>
      </trkpt>
      <trkpt lat="46.54877" lon="5.43891">
        <ele>538</ele>
        <time>2021-05-29T08:00:58.741Z</time>
      </trkpt>
      <trkpt lat="46.54878" lon="5.43893">
        <ele>538</ele>
        <time>2021-05-29T08:00:59.742Z</time>
      </trkpt>
      <trkpt lat="46.54877" lon="5.43898">
        <ele>538</ele>
        <time>2021-05-29T08:01:00.742Z</time>
      </trkpt>
      <trkpt lat="46.54878" lon="5.43901">
        <ele>538</ele>
        <time>2021-05-29T08:01:01.742Z</time>
      </trkpt>
      <trkpt lat="46.54878" lon="5.43904">
        <ele>538</ele>
        <time>2021-05-29T08:01:02.742Z</time>
      </trkpt>
      <trkpt lat="46.54879" lon="5.43907">
        <ele>538</ele>
        <time>2021-05-29T08:01:03.742Z</time>
      </trkpt>
      <trkpt lat="46.54879" lon="5.4391">
        <ele>538</ele>
        <time>2021-05-29T08:01:04.741Z</time>
      </trkpt>
      <trkpt lat="46.5488" lon="5.43913">
        <ele>539</ele>
        <time>2021-05-29T08:01:05.742Z</time>
      </trkpt>
      <trkpt lat="46.5488" lon="5.43916">
        <ele>538</ele>
        <time>2021-05-29T08:01:06.742Z</time>
      </trkpt>
      <trkpt lat="46.54881" lon="5.43919">
        <ele>538</ele>
        <time>2021-05-29T08:01:07.742Z</time>
      </trkpt>
      <trkpt lat="46.54882" lon="5.43922">
        <ele>538</ele>
        <time>2021-05-29T08:01:08.742Z</time>
      </trkpt>
      <trkpt lat="46.54882" lon="5.43925">
        <ele>538</ele>
        <time>2021-05-29T08:01:09.742Z</time>
      </trkpt>
      <trkpt lat="46.54883" lon="5.43928">
        <ele>538</ele>
        <time>2021-05-29T08:01:10.742Z</time>
      </trkpt>
      <trkpt lat="46.54884" lon="5.43931">
        <ele>538</ele>
        <time>2021-05-29T08:01:11.742Z</time>
      </trkpt>
      <trkpt lat="46.54884" lon="5.43933">
        <ele>539</ele>
        <time>2021-05-29T08:01:12.741Z</time>
      </trkpt>
      <trkpt lat="46.54885" lon="5.43937">
        <ele>539</ele>
        <time>2021-05-29T08:01:13.742Z</time>
      </trkpt>
      <trkpt lat="46.54885" lon="5.43939">
        <ele>539</ele>
        <time>2021-05-29T08:01:14.741Z</time>
      </trkpt>
      <trkpt lat="46.54886" lon="5.43943">
        <ele>539</ele>
        <time>2021-05-29T08:01:15.742Z</time>
      </trkpt>
      <trkpt lat="46.54886" lon="5.43945">
        <ele>539</ele>
        <time>2021-05-29T08:01:16.742Z</time>
      </trkpt>
      <trkpt lat="46.54887" lon="5.43948">
        <ele>539</ele>
        <time>2021-05-29T08:01:17.742Z</time>
      </trkpt>
      <trkpt lat="46.54888" lon="5.43952">
        <ele>539</ele>
        <time>2021-05-29T08:01:18.742Z</time>
      </trkpt>
      <trkpt lat="46.5489" lon="5.43955">
        <ele>539</ele>
        <time>2021-05-29T08:01:19.742Z</time>
      </trkpt>
      <trkpt lat="46.54891" lon="5.43958">
        <ele>539</ele>
        <time>2021-05-29T08:01:20.742Z</time>
      </trkpt>
      <trkpt lat="46.54892" lon="5.43961">
        <ele>539</ele>
        <time>2021-05-29T08:01:21.742Z</time>
      </trkpt>
      <trkpt lat="46.54894" lon="5.43964">
        <ele>539</ele>
        <time>2021-05-29T08:01:22.742Z</time>
      </trkpt>
      <trkpt lat="46.54895" lon="5.43968">
        <ele>539</ele>
        <time>2021-05-29T08:01:23.742Z</time>
      </trkpt>
      <trkpt lat="46.54896" lon="5.43971">
        <ele>539</ele>
        <time>2021-05-29T08:01:24.741Z</time>
      </trkpt>
      <trkpt lat="46.54897" lon="5.43973">
        <ele>539</ele>
        <time>2021-05-29T08:01:25.742Z</time>
      </trkpt>
      <trkpt lat="46.54898" lon="5.43977">
        <ele>539</ele>
        <time>2021-05-29T08:01:26.742Z</time>
      </trkpt>
      <trkpt lat="46.54899" lon="5.4398">
        <ele>540</ele>
        <time>2021-05-29T08:01:27.742Z</time>
      </trkpt>
      <trkpt lat="46.54901" lon="5.43983">
        <ele>540</ele>
        <time>2021-05-29T08:01:28.742Z</time>
      </trkpt>
      <trkpt lat="46.54902" lon="5.43985">
        <ele>540</ele>
        <time>2021-05-29T08:01:29.742Z</time>
      </trkpt>
      <trkpt lat="46.54903" lon="5.43988">
        <ele>540</ele>
        <time>2021-05-29T08:01:30.741Z</time>
      </trkpt>
      <trkpt lat="46.54904" lon="5.43992">
        <ele>540</ele>
        <time>2021-05-29T08:01:31.742Z</time>
      </trkpt>
      <trkpt lat="46.54905" lon="5.43996">
        <ele>540</ele>
        <time>2021-05-29T08:01:32.742Z</time>
      </trkpt>
      <trkpt lat="46.54906" lon="5.44">
        <ele>540</ele>
        <time>2021-05-29T08:01:33.742Z</time>
      </trkpt>
      <trkpt lat="46.54907" lon="5.44003">
        <ele>540</ele>
        <time>2021-05-29T08:01:34.742Z</time>
      </trkpt>
      <trkpt lat="46.54909" lon="5.44007">
        <ele>541</ele>
        <time>2021-05-29T08:01:35.741Z</time>
      </trkpt>
      <trkpt lat="46.5491" lon="5.4401">
        <ele>541</ele>
        <time>2021-05-29T08:01:36.741Z</time>
      </trkpt>
      <trkpt lat="46.54911" lon="5.44014">
        <ele>541</ele>
        <time>2021-05-29T08:01:37.742Z</time>
      </trkpt>
      <trkpt lat="46.54912" lon="5.44017">
        <ele>541</ele>
        <time>2021-05-29T08:01:38.741Z</time>
      </trkpt>
      <trkpt lat="46.54913" lon="5.44019">
        <ele>541</ele>
        <time>2021-05-29T08:01:39.742Z</time>
      </trkpt>
      <trkpt lat="46.54915" lon="5.44023">
        <ele>541</ele>
        <time>2021-05-29T08:01:40.742Z</time>
      </trkpt>
      <trkpt lat="46.54916" lon="5.44026">
        <ele>541</ele>
        <time>2021-05-29T08:01:41.742Z</time>
      </trkpt>
      <trkpt lat="46.54916" lon="5.44029">
        <ele>542</ele>
        <time>2021-05-29T08:01:42.742Z</time>
      </trkpt>
      <trkpt lat="46.54917" lon="5.44032">
        <ele>541</ele>
        <time>2021-05-29T08:01:43.741Z</time>
      </trkpt>
      <trkpt lat="46.54918" lon="5.44035">
        <ele>541</ele>
        <time>2021-05-29T08:01:44.742Z</time>
      </trkpt>
      <trkpt lat="46.54918" lon="5.44038">
        <ele>542</ele>
        <time>2021-05-29T08:01:45.742Z</time>
      </trkpt>
      <trkpt lat="46.54919" lon="5.44041">
        <ele>542</ele>
        <time>2021-05-29T08:01:46.742Z</time>
      </trkpt>
      <trkpt lat="46.5492" lon="5.44044">
        <ele>542</ele>
        <time>2021-05-29T08:01:47.742Z</time>
      </trkpt>
      <trkpt lat="46.54921" lon="5.44048">
        <ele>542</ele>
        <time>2021-05-29T08:01:48.741Z</time>
      </trkpt>
      <trkpt lat="46.54922" lon="5.4405">
        <ele>542</ele>
        <time>2021-05-29T08:01:49.742Z</time>
      </trkpt>
      <trkpt lat="46.54923" lon="5.44053">
        <ele>542</ele>
        <time>2021-05-29T08:01:50.742Z</time>
      </trkpt>
      <trkpt lat="46.54924" lon="5.44056">
        <ele>542</ele>
        <time>2021-05-29T08:01:51.742Z</time>
      </trkpt>
      <trkpt lat="46.54925" lon="5.44059">
        <ele>542</ele>
        <time>2021-05-29T08:01:52.742Z</time>
      </trkpt>
      <trkpt lat="46.54926" lon="5.44062">
        <ele>542</ele>
        <time>2021-05-29T08:01:53.742Z</time>
      </trkpt>
      <trkpt lat="46.54928" lon="5.44065">
        <ele>541</ele>
        <time>2021-05-29T08:01:54.742Z</time>
      </trkpt>
      <trkpt lat="46.54929" lon="5.44068">
        <ele>541</ele>
        <time>2021-05-29T08:01:55.742Z</time>
      </trkpt>
      <trkpt lat="46.5493" lon="5.44071">
        <ele>541</ele>
        <time>2021-05-29T08:01:56.742Z</time>
      </trkpt>
      <trkpt lat="46.54931" lon="5.44074">
        <ele>541</ele>
        <time>2021-05-29T08:01:57.742Z</time>
      </trkpt>
      <trkpt lat="46.54932" lon="5.44077">
        <ele>541</ele>
        <time>2021-05-29T08:01:58.742Z</time>
      </trkpt>
      <trkpt lat="46.54934" lon="5.4408">
        <ele>541</ele>
        <time>2021-05-29T08:01:59.742Z</time>
      </trkpt>
      <trkpt lat="46.54934" lon="5.44083">
        <ele>541</ele>
        <time>2021-05-29T08:02:00.741Z</time>
      </trkpt>
      <trkpt lat="46.54935" lon="5.44086">
        <ele>541</ele>
        <time>2021-05-29T08:02:01.742Z</time>
      </trkpt>
      <trkpt lat="46.54936" lon="5.44089">
        <ele>540</ele>
        <time>2021-05-29T08:02:02.741Z</time>
      </trkpt>
      <trkpt lat="46.54937" lon="5.44092">
        <ele>540</ele>
        <time>2021-05-29T08:02:03.742Z</time>
      </trkpt>
      <trkpt lat="46.54938" lon="5.44095">
        <ele>540</ele>
        <time>2021-05-29T08:02:04.742Z</time>
      </trkpt>
      <trkpt lat="46.5494" lon="5.44098">
        <ele>539</ele>
        <time>2021-05-29T08:02:05.742Z</time>
      </trkpt>
      <trkpt lat="46.54941" lon="5.44101">
        <ele>539</ele>
        <time>2021-05-29T08:02:06.741Z</time>
      </trkpt>
      <trkpt lat="46.54942" lon="5.44104">
        <ele>539</ele>
        <time>2021-05-29T08:02:07.741Z</time>
      </trkpt>
      <trkpt lat="46.54943" lon="5.44108">
        <ele>539</ele>
        <time>2021-05-29T08:02:08.741Z</time>
      </trkpt>
      <trkpt lat="46.54944" lon="5.4411">
        <ele>539</ele>
        <time>2021-05-29T08:02:09.742Z</time>
      </trkpt>
      <trkpt lat="46.54946" lon="5.44113">
        <ele>539</ele>
        <time>2021-05-29T08:02:10.741Z</time>
      </trkpt>
      <trkpt lat="46.54947" lon="5.44115">
        <ele>539</ele>
        <time>2021-05-29T08:02:11.742Z</time>
      </trkpt>
      <trkpt lat="46.54948" lon="5.44118">
        <ele>539</ele>
        <time>2021-05-29T08:02:12.742Z</time>
      </trkpt>
      <trkpt lat="46.5495" lon="5.4412">
        <ele>539</ele>
        <time>2021-05-29T08:02:13.742Z</time>
      </trkpt>
      <trkpt lat="46.54951" lon="5.44123">
        <ele>539</ele>
        <time>2021-05-29T08:02:14.741Z</time>
      </trkpt>
      <trkpt lat="46.54952" lon="5.44127">
        <ele>539</ele>
        <time>2021-05-29T08:02:15.741Z</time>
      </trkpt>
      <trkpt lat="46.54954" lon="5.4413">
        <ele>539</ele>
        <time>2021-05-29T08:02:16.741Z</time>
      </trkpt>
      <trkpt lat="46.54955" lon="5.44135">
        <ele>539</ele>
        <time>2021-05-29T08:02:17.742Z</time>
      </trkpt>
      <trkpt lat="46.54957" lon="5.44138">
        <ele>538</ele>
        <time>2021-05-29T08:02:18.742Z</time>
      </trkpt>
      <trkpt lat="46.54959" lon="5.44142">
        <ele>538</ele>
        <time>2021-05-29T08:02:19.741Z</time>
      </trkpt>
      <trkpt lat="46.54961" lon="5.44146">
        <ele>538</ele>
        <time>2021-05-29T08:02:20.741Z</time>
      </trkpt>
      <trkpt lat="46.54963" lon="5.44149">
        <ele>538</ele>
        <time>2021-05-29T08:02:21.742Z</time>
      </trkpt>
      <trkpt lat="46.54964" lon="5.44152">
        <ele>538</ele>
        <time>2021-05-29T08:02:22.742Z</time>
      </trkpt>
      <trkpt lat="46.54966" lon="5.44156">
        <ele>537</ele>
        <time>2021-05-29T08:02:23.742Z</time>
      </trkpt>
      <trkpt lat="46.54967" lon="5.44159">
        <ele>537</ele>
        <time>2021-05-29T08:02:24.741Z</time>
      </trkpt>
      <trkpt lat="46.54968" lon="5.44163">
        <ele>537</ele>
        <time>2021-05-29T08:02:25.742Z</time>
      </trkpt>
      <trkpt lat="46.54969" lon="5.44166">
        <ele>536</ele>
        <time>2021-05-29T08:02:26.742Z</time>
      </trkpt>
      <trkpt lat="46.54969" lon="5.44168">
        <ele>536</ele>
        <time>2021-05-29T08:02:27.742Z</time>
      </trkpt>
      <trkpt lat="46.5497" lon="5.44172">
        <ele>536</ele>
        <time>2021-05-29T08:02:28.742Z</time>
      </trkpt>
      <trkpt lat="46.54971" lon="5.44175">
        <ele>536</ele>
        <time>2021-05-29T08:02:29.742Z</time>
      </trkpt>
      <trkpt lat="46.54972" lon="5.44178">
        <ele>536</ele>
        <time>2021-05-29T08:02:30.742Z</time>
      </trkpt>
      <trkpt lat="46.54973" lon="5.44181">
        <ele>536</ele>
        <time>2021-05-29T08:02:31.742Z</time>
      </trkpt>
      <trkpt lat="46.54974" lon="5.44184">
        <ele>536</ele>
        <time>2021-05-29T08:02:32.742Z</time>
      </trkpt>
      <trkpt lat="46.54976" lon="5.44187">
        <ele>536</ele>
        <time>2021-05-29T08:02:33.741Z</time>
      </trkpt>
      <trkpt lat="46.54977" lon="5.4419">
        <ele>536</ele>
        <time>2021-05-29T08:02:34.741Z</time>
      </trkpt>
      <trkpt lat="46.54978" lon="5.44193">
        <ele>536</ele>
        <time>2021-05-29T08:02:35.742Z</time>
      </trkpt>
      <trkpt lat="46.54979" lon="5.44196">
        <ele>536</ele>
        <time>2021-05-29T08:02:36.742Z</time>
      </trkpt>
      <trkpt lat="46.54981" lon="5.442">
        <ele>536</ele>
        <time>2021-05-29T08:02:37.742Z</time>
      </trkpt>
      <trkpt lat="46.54982" lon="5.44203">
        <ele>536</ele>
        <time>2021-05-29T08:02:38.742Z</time>
      </trkpt>
      <trkpt lat="46.54983" lon="5.44206">
        <ele>536</ele>
        <time>2021-05-29T08:02:39.742Z</time>
      </trkpt>
      <trkpt lat="46.54984" lon="5.44209">
        <ele>536</ele>
        <time>2021-05-29T08:02:40.742Z</time>
      </trkpt>
      <trkpt lat="46.54986" lon="5.44212">
        <ele>536</ele>
        <time>2021-05-29T08:02:41.742Z</time>
      </trkpt>
      <trkpt lat="46.54987" lon="5.44215">
        <ele>536</ele>
        <time>2021-05-29T08:02:42.742Z</time>
      </trkpt>
      <trkpt lat="46.54988" lon="5.44218">
        <ele>536</ele>
        <time>2021-05-29T08:02:43.741Z</time>
      </trkpt>
      <trkpt lat="46.5499" lon="5.4422">
        <ele>535</ele>
        <time>2021-05-29T08:02:44.741Z</time>
      </trkpt>
      <trkpt lat="46.54991" lon="5.44224">
        <ele>535</ele>
        <time>2021-05-29T08:02:45.741Z</time>
      </trkpt>
      <trkpt lat="46.54992" lon="5.44228">
        <ele>535</ele>
        <time>2021-05-29T08:02:46.742Z</time>
      </trkpt>
      <trkpt lat="46.54994" lon="5.44231">
        <ele>534</ele>
        <time>2021-05-29T08:02:47.741Z</time>
      </trkpt>
      <trkpt lat="46.54996" lon="5.44234">
        <ele>534</ele>
        <time>2021-05-29T08:02:48.742Z</time>
      </trkpt>
      <trkpt lat="46.54997" lon="5.44237">
        <ele>534</ele>
        <time>2021-05-29T08:02:49.741Z</time>
      </trkpt>
      <trkpt lat="46.54998" lon="5.4424">
        <ele>533</ele>
        <time>2021-05-29T08:02:50.742Z</time>
      </trkpt>
      <trkpt lat="46.55" lon="5.44244">
        <ele>533</ele>
        <time>2021-05-29T08:02:51.742Z</time>
      </trkpt>
      <trkpt lat="46.55001" lon="5.44248">
        <ele>532</ele>
        <time>2021-05-29T08:02:52.742Z</time>
      </trkpt>
      <trkpt lat="46.55002" lon="5.4425">
        <ele>532</ele>
        <time>2021-05-29T08:02:53.742Z</time>
      </trkpt>
      <trkpt lat="46.55004" lon="5.44254">
        <ele>532</ele>
        <time>2021-05-29T08:02:54.742Z</time>
      </trkpt>
      <trkpt lat="46.55005" lon="5.44258">
        <ele>532</ele>
        <time>2021-05-29T08:02:55.742Z</time>
      </trkpt>
      <trkpt lat="46.55006" lon="5.44262">
        <ele>531</ele>
        <time>2021-05-29T08:02:56.741Z</time>
      </trkpt>
      <trkpt lat="46.55007" lon="5.44265">
        <ele>531</ele>
        <time>2021-05-29T08:02:57.741Z</time>
      </trkpt>
      <trkpt lat="46.55008" lon="5.44268">
        <ele>531</ele>
        <time>2021-05-29T08:02:58.741Z</time>
      </trkpt>
      <trkpt lat="46.5501" lon="5.44272">
        <ele>531</ele>
        <time>2021-05-29T08:02:59.741Z</time>
      </trkpt>
      <trkpt lat="46.55011" lon="5.44275">
        <ele>531</ele>
        <time>2021-05-29T08:03:00.742Z</time>
      </trkpt>
      <trkpt lat="46.55013" lon="5.44278">
        <ele>530</ele>
        <time>2021-05-29T08:03:01.742Z</time>
      </trkpt>
      <trkpt lat="46.55016" lon="5.44281">
        <ele>529</ele>
        <time>2021-05-29T08:03:02.741Z</time>
      </trkpt>
      <trkpt lat="46.55017" lon="5.44286">
        <ele>529</ele>
        <time>2021-05-29T08:03:03.742Z</time>
      </trkpt>
      <trkpt lat="46.55019" lon="5.44289">
        <ele>528</ele>
        <time>2021-05-29T08:03:04.741Z</time>
      </trkpt>
      <trkpt lat="46.55021" lon="5.44293">
        <ele>528</ele>
        <time>2021-05-29T08:03:05.742Z</time>
      </trkpt>
      <trkpt lat="46.55022" lon="5.44296">
        <ele>528</ele>
        <time>2021-05-29T08:03:06.742Z</time>
      </trkpt>
      <trkpt lat="46.55024" lon="5.443">
        <ele>528</ele>
        <time>2021-05-29T08:03:07.742Z</time>
      </trkpt>
      <trkpt lat="46.55025" lon="5.44303">
        <ele>527</ele>
        <time>2021-05-29T08:03:08.742Z</time>
      </trkpt>
      <trkpt lat="46.55027" lon="5.44307">
        <ele>527</ele>
        <time>2021-05-29T08:03:09.741Z</time>
      </trkpt>
      <trkpt lat="46.55029" lon="5.44309">
        <ele>527</ele>
        <time>2021-05-29T08:03:10.741Z</time>
      </trkpt>
      <trkpt lat="46.5503" lon="5.44312">
        <ele>527</ele>
        <time>2021-05-29T08:03:11.742Z</time>
      </trkpt>
      <trkpt lat="46.55032" lon="5.44315">
        <ele>527</ele>
        <time>2021-05-29T08:03:12.742Z</time>
      </trkpt>
      <trkpt lat="46.55034" lon="5.44318">
        <ele>527</ele>
        <time>2021-05-29T08:03:13.742Z</time>
      </trkpt>
      <trkpt lat="46.55036" lon="5.4432">
        <ele>527</ele>
        <time>2021-05-29T08:03:14.742Z</time>
      </trkpt>
      <trkpt lat="46.55037" lon="5.44322">
        <ele>527</ele>
        <time>2021-05-29T08:03:15.741Z</time>
      </trkpt>
      <trkpt lat="46.55038" lon="5.44325">
        <ele>526</ele>
        <time>2021-05-29T08:03:16.741Z</time>
      </trkpt>
      <trkpt lat="46.55039" lon="5.44327">
        <ele>526</ele>
        <time>2021-05-29T08:03:17.741Z</time>
      </trkpt>
      <trkpt lat="46.5504" lon="5.44329">
        <ele>526</ele>
        <time>2021-05-29T08:03:18.742Z</time>
      </trkpt>
      <trkpt lat="46.55041" lon="5.44331">
        <ele>526</ele>
        <time>2021-05-29T08:03:19.742Z</time>
      </trkpt>
      <trkpt lat="46.55042" lon="5.44334">
        <ele>526</ele>
        <time>2021-05-29T08:03:20.741Z</time>
      </trkpt>
      <trkpt lat="46.55044" lon="5.44337">
        <ele>526</ele>
        <time>2021-05-29T08:03:21.742Z</time>
      </trkpt>
      <trkpt lat="46.55046" lon="5.4434">
        <ele>525</ele>
        <time>2021-05-29T08:03:22.741Z</time>
      </trkpt>
      <trkpt lat="46.55047" lon="5.44342">
        <ele>525</ele>
        <time>2021-05-29T08:03:23.742Z</time>
      </trkpt>
      <trkpt lat="46.55049" lon="5.44344">
        <ele>525</ele>
        <time>2021-05-29T08:03:24.741Z</time>
      </trkpt>
      <trkpt lat="46.5505" lon="5.44347">
        <ele>525</ele>
        <time>2021-05-29T08:03:25.741Z</time>
      </trkpt>
      <trkpt lat="46.55052" lon="5.4435">
        <ele>524</ele>
        <time>2021-05-29T08:03:26.742Z</time>
      </trkpt>
      <trkpt lat="46.55053" lon="5.44353">
        <ele>524</ele>
        <time>2021-05-29T08:03:27.741Z</time>
      </trkpt>
      <trkpt lat="46.55054" lon="5.44355">
        <ele>524</ele>
        <time>2021-05-29T08:03:28.741Z</time>
      </trkpt>
      <trkpt lat="46.55057" lon="5.44358">
        <ele>524</ele>
        <time>2021-05-29T08:03:29.742Z</time>
      </trkpt>
      <trkpt lat="46.55058" lon="5.4436">
        <ele>524</ele>
        <time>2021-05-29T08:03:30.741Z</time>
      </trkpt>
      <trkpt lat="46.5506" lon="5.44363">
        <ele>523</ele>
        <time>2021-05-29T08:03:31.741Z</time>
      </trkpt>
      <trkpt lat="46.55061" lon="5.44365">
        <ele>523</ele>
        <time>2021-05-29T08:03:32.742Z</time>
      </trkpt>
      <trkpt lat="46.55063" lon="5.44367">
        <ele>523</ele>
        <time>2021-05-29T08:03:33.742Z</time>
      </trkpt>
      <trkpt lat="46.55066" lon="5.44372">
        <ele>522</ele>
        <time>2021-05-29T08:03:34.742Z</time>
      </trkpt>
      <trkpt lat="46.55068" lon="5.44376">
        <ele>522</ele>
        <time>2021-05-29T08:03:35.742Z</time>
      </trkpt>
      <trkpt lat="46.5507" lon="5.44379">
        <ele>522</ele>
        <time>2021-05-29T08:03:36.742Z</time>
      </trkpt>
      <trkpt lat="46.55072" lon="5.44382">
        <ele>523</ele>
        <time>2021-05-29T08:03:37.742Z</time>
      </trkpt>
      <trkpt lat="46.55074" lon="5.44385">
        <ele>523</ele>
        <time>2021-05-29T08:03:38.742Z</time>
      </trkpt>
      <trkpt lat="46.55076" lon="5.44388">
        <ele>523</ele>
        <time>2021-05-29T08:03:39.741Z</time>
      </trkpt>
      <trkpt lat="46.55078" lon="5.44391">
        <ele>522</ele>
        <time>2021-05-29T08:03:40.741Z</time>
      </trkpt>
      <trkpt lat="46.5508" lon="5.44393">
        <ele>522</ele>
        <time>2021-05-29T08:03:41.742Z</time>
      </trkpt>
      <trkpt lat="46.55082" lon="5.44396">
        <ele>522</ele>
        <time>2021-05-29T08:03:42.742Z</time>
      </trkpt>
      <trkpt lat="46.55084" lon="5.44399">
        <ele>522</ele>
        <time>2021-05-29T08:03:43.742Z</time>
      </trkpt>
      <trkpt lat="46.55086" lon="5.44401">
        <ele>522</ele>
        <time>2021-05-29T08:03:44.742Z</time>
      </trkpt>
      <trkpt lat="46.55087" lon="5.44403">
        <ele>522</ele>
        <time>2021-05-29T08:03:45.742Z</time>
      </trkpt>
      <trkpt lat="46.55088" lon="5.44405">
        <ele>522</ele>
        <time>2021-05-29T08:03:46.742Z</time>
      </trkpt>
      <trkpt lat="46.5509" lon="5.44407">
        <ele>522</ele>
        <time>2021-05-29T08:03:47.741Z</time>
      </trkpt>
      <trkpt lat="46.55091" lon="5.4441">
        <ele>522</ele>
        <time>2021-05-29T08:03:48.742Z</time>
      </trkpt>
      <trkpt lat="46.55093" lon="5.44412">
        <ele>522</ele>
        <time>2021-05-29T08:03:49.742Z</time>
      </trkpt>
      <trkpt lat="46.55094" lon="5.44414">
        <ele>523</ele>
        <time>2021-05-29T08:03:50.742Z</time>
      </trkpt>
      <trkpt lat="46.55097" lon="5.44416">
        <ele>523</ele>
        <time>2021-05-29T08:03:51.742Z</time>
      </trkpt>
      <trkpt lat="46.55099" lon="5.44419">
        <ele>523</ele>
        <time>2021-05-29T08:03:52.742Z</time>
      </trkpt>
      <trkpt lat="46.551" lon="5.44421">
        <ele>523</ele>
        <time>2021-05-29T08:03:53.742Z</time>
      </trkpt>
      <trkpt lat="46.55102" lon="5.44424">
        <ele>523</ele>
        <time>2021-05-29T08:03:54.742Z</time>
      </trkpt>
      <trkpt lat="46.55103" lon="5.44426">
        <ele>524</ele>
        <time>2021-05-29T08:03:55.742Z</time>
      </trkpt>
      <trkpt lat="46.55105" lon="5.44429">
        <ele>524</ele>
        <time>2021-05-29T08:03:56.742Z</time>
      </trkpt>
      <trkpt lat="46.55108" lon="5.44431">
        <ele>524</ele>
        <time>2021-05-29T08:03:57.742Z</time>
      </trkpt>
      <trkpt lat="46.5511" lon="5.44434">
        <ele>524</ele>
        <time>2021-05-29T08:03:58.742Z</time>
      </trkpt>
      <trkpt lat="46.55113" lon="5.44436">
        <ele>524</ele>
        <time>2021-05-29T08:03:59.742Z</time>
      </trkpt>
      <trkpt lat="46.55114" lon="5.44438">
        <ele>524</ele>
        <time>2021-05-29T08:04:00.742Z</time>
      </trkpt>
      <trkpt lat="46.55115" lon="5.4444">
        <ele>525</ele>
        <time>2021-05-29T08:04:01.742Z</time>
      </trkpt>
      <trkpt lat="46.55116" lon="5.44442">
        <ele>525</ele>
        <time>2021-05-29T08:04:02.742Z</time>
      </trkpt>
      <trkpt lat="46.55117" lon="5.44444">
        <ele>525</ele>
        <time>2021-05-29T08:04:03.742Z</time>
      </trkpt>
      <trkpt lat="46.55118" lon="5.44446">
        <ele>526</ele>
        <time>2021-05-29T08:04:04.742Z</time>
      </trkpt>
      <trkpt lat="46.55119" lon="5.44448">
        <ele>526</ele>
        <time>2021-05-29T08:04:05.742Z</time>
      </trkpt>
      <trkpt lat="46.5512" lon="5.4445">
        <ele>526</ele>
        <time>2021-05-29T08:04:06.742Z</time>
      </trkpt>
      <trkpt lat="46.55121" lon="5.44452">
        <ele>526</ele>
        <time>2021-05-29T08:04:07.742Z</time>
      </trkpt>
      <trkpt lat="46.55123" lon="5.44453">
        <ele>527</ele>
        <time>2021-05-29T08:04:08.742Z</time>
      </trkpt>
      <trkpt lat="46.55126" lon="5.44455">
        <ele>527</ele>
        <time>2021-05-29T08:04:09.741Z</time>
      </trkpt>
      <trkpt lat="46.5513" lon="5.44456">
        <ele>527</ele>
        <time>2021-05-29T08:04:10.742Z</time>
      </trkpt>
      <trkpt lat="46.55133" lon="5.44457">
        <ele>528</ele>
        <time>2021-05-29T08:04:11.741Z</time>
      </trkpt>
      <trkpt lat="46.55135" lon="5.44458">
        <ele>528</ele>
        <time>2021-05-29T08:04:12.742Z</time>
      </trkpt>
      <trkpt lat="46.55138" lon="5.44459">
        <ele>528</ele>
        <time>2021-05-29T08:04:13.742Z</time>
      </trkpt>
      <trkpt lat="46.5514" lon="5.44461">
        <ele>528</ele>
        <time>2021-05-29T08:04:14.742Z</time>
      </trkpt>
      <trkpt lat="46.55142" lon="5.44462">
        <ele>529</ele>
        <time>2021-05-29T08:04:15.741Z</time>
      </trkpt>
      <trkpt lat="46.55143" lon="5.44462">
        <ele>529</ele>
        <time>2021-05-29T08:04:16.742Z</time>
      </trkpt>
      <trkpt lat="46.55146" lon="5.44462">
        <ele>530</ele>
        <time>2021-05-29T08:04:17.741Z</time>
      </trkpt>
      <trkpt lat="46.55149" lon="5.44464">
        <ele>530</ele>
        <time>2021-05-29T08:04:18.741Z</time>
      </trkpt>
      <trkpt lat="46.55151" lon="5.44467">
        <ele>531</ele>
        <time>2021-05-29T08:04:19.742Z</time>
      </trkpt>
      <trkpt lat="46.55153" lon="5.44469">
        <ele>531</ele>
        <time>2021-05-29T08:04:20.742Z</time>
      </trkpt>
      <trkpt lat="46.55155" lon="5.44472">
        <ele>531</ele>
        <time>2021-05-29T08:04:21.741Z</time>
      </trkpt>
      <trkpt lat="46.55157" lon="5.44475">
        <ele>531</ele>
        <time>2021-05-29T08:04:22.742Z</time>
      </trkpt>
      <trkpt lat="46.55159" lon="5.44479">
        <ele>531</ele>
        <time>2021-05-29T08:04:23.742Z</time>
      </trkpt>
      <trkpt lat="46.55161" lon="5.44483">
        <ele>531</ele>
        <time>2021-05-29T08:04:24.742Z</time>
      </trkpt>
      <trkpt lat="46.55162" lon="5.44487">
        <ele>531</ele>
        <time>2021-05-29T08:04:25.742Z</time>
      </trkpt>
      <trkpt lat="46.55164" lon="5.44491">
        <ele>531</ele>
        <time>2021-05-29T08:04:26.741Z</time>
      </trkpt>
      <trkpt lat="46.55165" lon="5.44496">
        <ele>531</ele>
        <time>2021-05-29T08:04:27.741Z</time>
      </trkpt>
      <trkpt lat="46.55166" lon="5.44499">
        <ele>531</ele>
        <time>2021-05-29T08:04:28.742Z</time>
      </trkpt>
      <trkpt lat="46.55167" lon="5.44503">
        <ele>531</ele>
        <time>2021-05-29T08:04:29.742Z</time>
      </trkpt>
      <trkpt lat="46.55168" lon="5.44507">
        <ele>530</ele>
        <time>2021-05-29T08:04:30.742Z</time>
      </trkpt>
      <trkpt lat="46.55169" lon="5.4451">
        <ele>530</ele>
        <time>2021-05-29T08:04:31.742Z</time>
      </trkpt>
      <trkpt lat="46.5517" lon="5.44514">
        <ele>530</ele>
        <time>2021-05-29T08:04:32.742Z</time>
      </trkpt>
      <trkpt lat="46.55171" lon="5.44518">
        <ele>529</ele>
        <time>2021-05-29T08:04:33.742Z</time>
      </trkpt>
      <trkpt lat="46.55172" lon="5.4452">
        <ele>529</ele>
        <time>2021-05-29T08:04:34.742Z</time>
      </trkpt>
      <trkpt lat="46.55173" lon="5.44523">
        <ele>529</ele>
        <time>2021-05-29T08:04:35.742Z</time>
      </trkpt>
      <trkpt lat="46.55174" lon="5.44526">
        <ele>529</ele>
        <time>2021-05-29T08:04:36.742Z</time>
      </trkpt>
      <trkpt lat="46.55175" lon="5.44528">
        <ele>530</ele>
        <time>2021-05-29T08:04:37.742Z</time>
      </trkpt>
      <trkpt lat="46.55176" lon="5.4453">
        <ele>530</ele>
        <time>2021-05-29T08:04:38.742Z</time>
      </trkpt>
      <trkpt lat="46.55177" lon="5.44532">
        <ele>530</ele>
        <time>2021-05-29T08:04:39.742Z</time>
      </trkpt>
      <trkpt lat="46.55178" lon="5.44533">
        <ele>530</ele>
        <time>2021-05-29T08:04:40.742Z</time>
      </trkpt>
      <trkpt lat="46.55179" lon="5.44535">
        <ele>530</ele>
        <time>2021-05-29T08:04:41.741Z</time>
      </trkpt>
      <trkpt lat="46.55181" lon="5.44538">
        <ele>531</ele>
        <time>2021-05-29T08:04:42.742Z</time>
      </trkpt>
      <trkpt lat="46.55182" lon="5.4454">
        <ele>531</ele>
        <time>2021-05-29T08:04:43.742Z</time>
      </trkpt>
      <trkpt lat="46.55184" lon="5.44543">
        <ele>531</ele>
        <time>2021-05-29T08:04:44.742Z</time>
      </trkpt>
      <trkpt lat="46.55185" lon="5.44545">
        <ele>531</ele>
        <time>2021-05-29T08:04:45.742Z</time>
      </trkpt>
      <trkpt lat="46.55186" lon="5.44547">
        <ele>531</ele>
        <time>2021-05-29T08:04:46.742Z</time>
      </trkpt>
      <trkpt lat="46.55187" lon="5.44549">
        <ele>531</ele>
        <time>2021-05-29T08:04:47.742Z</time>
      </trkpt>
      <trkpt lat="46.55188" lon="5.44551">
        <ele>531</ele>
        <time>2021-05-29T08:04:48.741Z</time>
      </trkpt>
      <trkpt lat="46.55189" lon="5.44552">
        <ele>531</ele>
        <time>2021-05-29T08:04:49.741Z</time>
      </trkpt>
      <trkpt lat="46.5519" lon="5.44554">
        <ele>531</ele>
        <time>2021-05-29T08:04:50.742Z</time>
      </trkpt>
      <trkpt lat="46.55192" lon="5.44556">
        <ele>531</ele>
        <time>2021-05-29T08:04:51.742Z</time>
      </trkpt>
      <trkpt lat="46.55193" lon="5.44558">
        <ele>531</ele>
        <time>2021-05-29T08:04:52.741Z</time>
      </trkpt>
      <trkpt lat="46.55194" lon="5.44561">
        <ele>531</ele>
        <time>2021-05-29T08:04:53.742Z</time>
      </trkpt>
      <trkpt lat="46.55196" lon="5.44563">
        <ele>531</ele>
        <time>2021-05-29T08:04:54.742Z</time>
      </trkpt>
      <trkpt lat="46.55197" lon="5.44566">
        <ele>531</ele>
        <time>2021-05-29T08:04:55.742Z</time>
      </trkpt>
      <trkpt lat="46.55198" lon="5.44567">
        <ele>531</ele>
        <time>2021-05-29T08:04:56.742Z</time>
      </trkpt>
      <trkpt lat="46.55199" lon="5.4457">
        <ele>531</ele>
        <time>2021-05-29T08:04:57.742Z</time>
      </trkpt>
      <trkpt lat="46.552" lon="5.44571">
        <ele>531</ele>
        <time>2021-05-29T08:04:58.742Z</time>
      </trkpt>
      <trkpt lat="46.55202" lon="5.44573">
        <ele>531</ele>
        <time>2021-05-29T08:04:59.742Z</time>
      </trkpt>
      <trkpt lat="46.55203" lon="5.44575">
        <ele>531</ele>
        <time>2021-05-29T08:05:00.742Z</time>
      </trkpt>
      <trkpt lat="46.55205" lon="5.44576">
        <ele>530</ele>
        <time>2021-05-29T08:05:01.742Z</time>
      </trkpt>
      <trkpt lat="46.55206" lon="5.44578">
        <ele>530</ele>
        <time>2021-05-29T08:05:02.742Z</time>
      </trkpt>
      <trkpt lat="46.55209" lon="5.44582">
        <ele>530</ele>
        <time>2021-05-29T08:05:03.742Z</time>
      </trkpt>
      <trkpt lat="46.55212" lon="5.44585">
        <ele>530</ele>
        <time>2021-05-29T08:05:04.741Z</time>
      </trkpt>
      <trkpt lat="46.55215" lon="5.44589">
        <ele>530</ele>
        <time>2021-05-29T08:05:05.742Z</time>
      </trkpt>
      <trkpt lat="46.55217" lon="5.44591">
        <ele>529</ele>
        <time>2021-05-29T08:05:06.742Z</time>
      </trkpt>
      <trkpt lat="46.55219" lon="5.44593">
        <ele>529</ele>
        <time>2021-05-29T08:05:07.742Z</time>
      </trkpt>
      <trkpt lat="46.55221" lon="5.44596">
        <ele>529</ele>
        <time>2021-05-29T08:05:08.742Z</time>
      </trkpt>
      <trkpt lat="46.55223" lon="5.44598">
        <ele>529</ele>
        <time>2021-05-29T08:05:09.742Z</time>
      </trkpt>
      <trkpt lat="46.55225" lon="5.44601">
        <ele>528</ele>
        <time>2021-05-29T08:05:10.742Z</time>
      </trkpt>
      <trkpt lat="46.55226" lon="5.44603">
        <ele>528</ele>
        <time>2021-05-29T08:05:11.742Z</time>
      </trkpt>
      <trkpt lat="46.55227" lon="5.44605">
        <ele>528</ele>
        <time>2021-05-29T08:05:12.741Z</time>
      </trkpt>
      <trkpt lat="46.55229" lon="5.44607">
        <ele>528</ele>
        <time>2021-05-29T08:05:13.742Z</time>
      </trkpt>
      <trkpt lat="46.55231" lon="5.44609">
        <ele>528</ele>
        <time>2021-05-29T08:05:14.742Z</time>
      </trkpt>
      <trkpt lat="46.55232" lon="5.4461">
        <ele>529</ele>
        <time>2021-05-29T08:05:15.742Z</time>
      </trkpt>
      <trkpt lat="46.55234" lon="5.44612">
        <ele>529</ele>
        <time>2021-05-29T08:05:16.742Z</time>
      </trkpt>
      <trkpt lat="46.55236" lon="5.44615">
        <ele>528</ele>
        <time>2021-05-29T08:05:17.742Z</time>
      </trkpt>
      <trkpt lat="46.55237" lon="5.44618">
        <ele>528</ele>
        <time>2021-05-29T08:05:18.742Z</time>
      </trkpt>
      <trkpt lat="46.55239" lon="5.44621">
        <ele>528</ele>
        <time>2021-05-29T08:05:19.742Z</time>
      </trkpt>
      <trkpt lat="46.55241" lon="5.44623">
        <ele>528</ele>
        <time>2021-05-29T08:05:20.742Z</time>
      </trkpt>
      <trkpt lat="46.55243" lon="5.44625">
        <ele>528</ele>
        <time>2021-05-29T08:05:21.741Z</time>
      </trkpt>
      <trkpt lat="46.55245" lon="5.44627">
        <ele>528</ele>
        <time>2021-05-29T08:05:22.742Z</time>
      </trkpt>
      <trkpt lat="46.55246" lon="5.44629">
        <ele>528</ele>
        <time>2021-05-29T08:05:23.742Z</time>
      </trkpt>
      <trkpt lat="46.55247" lon="5.44632">
        <ele>528</ele>
        <time>2021-05-29T08:05:24.742Z</time>
      </trkpt>
      <trkpt lat="46.55248" lon="5.44635">
        <ele>529</ele>
        <time>2021-05-29T08:05:25.742Z</time>
      </trkpt>
      <trkpt lat="46.55249" lon="5.44637">
        <ele>529</ele>
        <time>2021-05-29T08:05:26.742Z</time>
      </trkpt>
      <trkpt lat="46.55251" lon="5.44639">
        <ele>529</ele>
        <time>2021-05-29T08:05:27.742Z</time>
      </trkpt>
      <trkpt lat="46.55252" lon="5.44641">
        <ele>529</ele>
        <time>2021-05-29T08:05:28.741Z</time>
      </trkpt>
      <trkpt lat="46.55253" lon="5.44644">
        <ele>529</ele>
        <time>2021-05-29T08:05:29.741Z</time>
      </trkpt>
      <trkpt lat="46.55255" lon="5.44646">
        <ele>530</ele>
        <time>2021-05-29T08:05:30.742Z</time>
      </trkpt>
      <trkpt lat="46.55258" lon="5.44649">
        <ele>530</ele>
        <time>2021-05-29T08:05:31.742Z</time>
      </trkpt>
      <trkpt lat="46.5526" lon="5.44651">
        <ele>530</ele>
        <time>2021-05-29T08:05:32.742Z</time>
      </trkpt>
      <trkpt lat="46.5526" lon="5.44653">
        <ele>530</ele>
        <time>2021-05-29T08:05:33.742Z</time>
      </trkpt>
      <trkpt lat="46.55262" lon="5.44655">
        <ele>530</ele>
        <time>2021-05-29T08:05:34.742Z</time>
      </trkpt>
      <trkpt lat="46.55263" lon="5.44656">
        <ele>530</ele>
        <time>2021-05-29T08:05:35.742Z</time>
      </trkpt>
      <trkpt lat="46.55264" lon="5.44658">
        <ele>531</ele>
        <time>2021-05-29T08:05:36.741Z</time>
      </trkpt>
      <trkpt lat="46.55268" lon="5.4466">
        <ele>531</ele>
        <time>2021-05-29T08:05:37.742Z</time>
      </trkpt>
      <trkpt lat="46.55271" lon="5.44662">
        <ele>531</ele>
        <time>2021-05-29T08:05:38.742Z</time>
      </trkpt>
      <trkpt lat="46.55273" lon="5.44663">
        <ele>531</ele>
        <time>2021-05-29T08:05:39.742Z</time>
      </trkpt>
      <trkpt lat="46.55275" lon="5.44665">
        <ele>531</ele>
        <time>2021-05-29T08:05:40.742Z</time>
      </trkpt>
      <trkpt lat="46.55276" lon="5.44667">
        <ele>531</ele>
        <time>2021-05-29T08:05:41.741Z</time>
      </trkpt>
      <trkpt lat="46.55278" lon="5.4467">
        <ele>531</ele>
        <time>2021-05-29T08:05:42.741Z</time>
      </trkpt>
      <trkpt lat="46.55279" lon="5.44672">
        <ele>532</ele>
        <time>2021-05-29T08:05:43.742Z</time>
      </trkpt>
      <trkpt lat="46.55281" lon="5.44674">
        <ele>532</ele>
        <time>2021-05-29T08:05:44.742Z</time>
      </trkpt>
      <trkpt lat="46.55283" lon="5.44677">
        <ele>532</ele>
        <time>2021-05-29T08:05:45.742Z</time>
      </trkpt>
      <trkpt lat="46.55285" lon="5.44679">
        <ele>532</ele>
        <time>2021-05-29T08:05:46.742Z</time>
      </trkpt>
      <trkpt lat="46.55286" lon="5.44681">
        <ele>532</ele>
        <time>2021-05-29T08:05:47.742Z</time>
      </trkpt>
      <trkpt lat="46.55288" lon="5.44682">
        <ele>532</ele>
        <time>2021-05-29T08:05:48.742Z</time>
      </trkpt>
      <trkpt lat="46.55289" lon="5.44685">
        <ele>532</ele>
        <time>2021-05-29T08:05:49.742Z</time>
      </trkpt>
      <trkpt lat="46.5529" lon="5.44687">
        <ele>532</ele>
        <time>2021-05-29T08:05:50.742Z</time>
      </trkpt>
      <trkpt lat="46.55292" lon="5.4469">
        <ele>532</ele>
        <time>2021-05-29T08:05:51.742Z</time>
      </trkpt>
      <trkpt lat="46.55293" lon="5.44691">
        <ele>532</ele>
        <time>2021-05-29T08:05:52.742Z</time>
      </trkpt>
      <trkpt lat="46.55295" lon="5.44693">
        <ele>532</ele>
        <time>2021-05-29T08:05:53.742Z</time>
      </trkpt>
      <trkpt lat="46.55298" lon="5.44697">
        <ele>532</ele>
        <time>2021-05-29T08:05:54.742Z</time>
      </trkpt>
      <trkpt lat="46.55299" lon="5.44699">
        <ele>532</ele>
        <time>2021-05-29T08:05:55.742Z</time>
      </trkpt>
      <trkpt lat="46.55301" lon="5.44701">
        <ele>532</ele>
        <time>2021-05-29T08:05:56.742Z</time>
      </trkpt>
      <trkpt lat="46.55302" lon="5.44702">
        <ele>533</ele>
        <time>2021-05-29T08:05:57.742Z</time>
      </trkpt>
      <trkpt lat="46.55304" lon="5.44705">
        <ele>533</ele>
        <time>2021-05-29T08:05:58.741Z</time>
      </trkpt>
      <trkpt lat="46.55306" lon="5.44707">
        <ele>533</ele>
        <time>2021-05-29T08:05:59.742Z</time>
      </trkpt>
      <trkpt lat="46.55308" lon="5.4471">
        <ele>533</ele>
        <time>2021-05-29T08:06:00.742Z</time>
      </trkpt>
      <trkpt lat="46.5531" lon="5.44712">
        <ele>533</ele>
        <time>2021-05-29T08:06:01.742Z</time>
      </trkpt>
      <trkpt lat="46.55312" lon="5.44714">
        <ele>534</ele>
        <time>2021-05-29T08:06:02.742Z</time>
      </trkpt>
      <trkpt lat="46.55314" lon="5.44716">
        <ele>534</ele>
        <time>2021-05-29T08:06:03.742Z</time>
      </trkpt>
      <trkpt lat="46.55316" lon="5.44718">
        <ele>534</ele>
        <time>2021-05-29T08:06:04.741Z</time>
      </trkpt>
      <trkpt lat="46.55317" lon="5.44719">
        <ele>534</ele>
        <time>2021-05-29T08:06:05.742Z</time>
      </trkpt>
      <trkpt lat="46.5532" lon="5.44721">
        <ele>535</ele>
        <time>2021-05-29T08:06:06.742Z</time>
      </trkpt>
      <trkpt lat="46.55322" lon="5.44723">
        <ele>535</ele>
        <time>2021-05-29T08:06:07.741Z</time>
      </trkpt>
      <trkpt lat="46.55323" lon="5.44725">
        <ele>535</ele>
        <time>2021-05-29T08:06:08.741Z</time>
      </trkpt>
      <trkpt lat="46.55324" lon="5.44726">
        <ele>535</ele>
        <time>2021-05-29T08:06:09.742Z</time>
      </trkpt>
      <trkpt lat="46.55325" lon="5.44727">
        <ele>535</ele>
        <time>2021-05-29T08:06:10.741Z</time>
      </trkpt>
      <trkpt lat="46.55326" lon="5.44728">
        <ele>535</ele>
        <time>2021-05-29T08:06:11.742Z</time>
      </trkpt>
      <trkpt lat="46.55327" lon="5.44729">
        <ele>535</ele>
        <time>2021-05-29T08:06:12.741Z</time>
      </trkpt>
      <trkpt lat="46.55328" lon="5.44731">
        <ele>535</ele>
        <time>2021-05-29T08:06:13.742Z</time>
      </trkpt>
      <trkpt lat="46.55329" lon="5.44732">
        <ele>535</ele>
        <time>2021-05-29T08:06:14.742Z</time>
      </trkpt>
      <trkpt lat="46.55331" lon="5.44733">
        <ele>536</ele>
        <time>2021-05-29T08:06:15.742Z</time>
      </trkpt>
      <trkpt lat="46.55332" lon="5.44734">
        <ele>536</ele>
        <time>2021-05-29T08:06:16.742Z</time>
      </trkpt>
      <trkpt lat="46.55334" lon="5.44736">
        <ele>536</ele>
        <time>2021-05-29T08:06:17.742Z</time>
      </trkpt>
      <trkpt lat="46.55336" lon="5.44738">
        <ele>537</ele>
        <time>2021-05-29T08:06:18.742Z</time>
      </trkpt>
      <trkpt lat="46.55337" lon="5.4474">
        <ele>537</ele>
        <time>2021-05-29T08:06:19.742Z</time>
      </trkpt>
      <trkpt lat="46.55339" lon="5.44742">
        <ele>537</ele>
        <time>2021-05-29T08:06:20.742Z</time>
      </trkpt>
      <trkpt lat="46.55341" lon="5.44744">
        <ele>538</ele>
        <time>2021-05-29T08:06:21.742Z</time>
      </trkpt>
      <trkpt lat="46.55344" lon="5.44748">
        <ele>538</ele>
        <time>2021-05-29T08:06:22.741Z</time>
      </trkpt>
      <trkpt lat="46.55346" lon="5.4475">
        <ele>537</ele>
        <time>2021-05-29T08:06:23.742Z</time>
      </trkpt>
      <trkpt lat="46.55349" lon="5.44753">
        <ele>537</ele>
        <time>2021-05-29T08:06:24.742Z</time>
      </trkpt>
      <trkpt lat="46.55351" lon="5.44754">
        <ele>537</ele>
        <time>2021-05-29T08:06:25.742Z</time>
      </trkpt>
      <trkpt lat="46.55353" lon="5.44756">
        <ele>537</ele>
        <time>2021-05-29T08:06:26.742Z</time>
      </trkpt>
      <trkpt lat="46.55356" lon="5.44758">
        <ele>537</ele>
        <time>2021-05-29T08:06:27.741Z</time>
      </trkpt>
      <trkpt lat="46.55358" lon="5.44759">
        <ele>537</ele>
        <time>2021-05-29T08:06:28.742Z</time>
      </trkpt>
      <trkpt lat="46.5536" lon="5.44761">
        <ele>537</ele>
        <time>2021-05-29T08:06:29.742Z</time>
      </trkpt>
      <trkpt lat="46.55361" lon="5.44762">
        <ele>537</ele>
        <time>2021-05-29T08:06:30.741Z</time>
      </trkpt>
      <trkpt lat="46.55364" lon="5.44764">
        <ele>537</ele>
        <time>2021-05-29T08:06:31.742Z</time>
      </trkpt>
      <trkpt lat="46.55366" lon="5.44765">
        <ele>537</ele>
        <time>2021-05-29T08:06:32.742Z</time>
      </trkpt>
      <trkpt lat="46.55368" lon="5.44766">
        <ele>537</ele>
        <time>2021-05-29T08:06:33.742Z</time>
      </trkpt>
      <trkpt lat="46.5537" lon="5.44767">
        <ele>537</ele>
        <time>2021-05-29T08:06:34.741Z</time>
      </trkpt>
      <trkpt lat="46.55373" lon="5.44768">
        <ele>537</ele>
        <time>2021-05-29T08:06:35.741Z</time>
      </trkpt>
      <trkpt lat="46.55375" lon="5.44769">
        <ele>537</ele>
        <time>2021-05-29T08:06:36.741Z</time>
      </trkpt>
      <trkpt lat="46.55377" lon="5.4477">
        <ele>537</ele>
        <time>2021-05-29T08:06:37.741Z</time>
      </trkpt>
      <trkpt lat="46.5538" lon="5.44771">
        <ele>537</ele>
        <time>2021-05-29T08:06:38.741Z</time>
      </trkpt>
      <trkpt lat="46.55382" lon="5.44773">
        <ele>538</ele>
        <time>2021-05-29T08:06:39.741Z</time>
      </trkpt>
      <trkpt lat="46.55384" lon="5.44775">
        <ele>538</ele>
        <time>2021-05-29T08:06:40.742Z</time>
      </trkpt>
      <trkpt lat="46.55386" lon="5.44776">
        <ele>538</ele>
        <time>2021-05-29T08:06:41.741Z</time>
      </trkpt>
      <trkpt lat="46.55388" lon="5.44778">
        <ele>538</ele>
        <time>2021-05-29T08:06:42.742Z</time>
      </trkpt>
      <trkpt lat="46.5539" lon="5.4478">
        <ele>538</ele>
        <time>2021-05-29T08:06:43.742Z</time>
      </trkpt>
      <trkpt lat="46.55392" lon="5.44782">
        <ele>538</ele>
        <time>2021-05-29T08:06:44.742Z</time>
      </trkpt>
      <trkpt lat="46.55394" lon="5.44784">
        <ele>538</ele>
        <time>2021-05-29T08:06:45.742Z</time>
      </trkpt>
      <trkpt lat="46.55397" lon="5.44786">
        <ele>538</ele>
        <time>2021-05-29T08:06:46.742Z</time>
      </trkpt>
      <trkpt lat="46.554" lon="5.4479">
        <ele>538</ele>
        <time>2021-05-29T08:06:47.742Z</time>
      </trkpt>
      <trkpt lat="46.55402" lon="5.44792">
        <ele>538</ele>
        <time>2021-05-29T08:06:48.742Z</time>
      </trkpt>
      <trkpt lat="46.55404" lon="5.44795">
        <ele>537</ele>
        <time>2021-05-29T08:06:49.742Z</time>
      </trkpt>
      <trkpt lat="46.55406" lon="5.44797">
        <ele>537</ele>
        <time>2021-05-29T08:06:50.742Z</time>
      </trkpt>
      <trkpt lat="46.55409" lon="5.44799">
        <ele>537</ele>
        <time>2021-05-29T08:06:51.742Z</time>
      </trkpt>
      <trkpt lat="46.55411" lon="5.44801">
        <ele>537</ele>
        <time>2021-05-29T08:06:52.741Z</time>
      </trkpt>
      <trkpt lat="46.55413" lon="5.44803">
        <ele>536</ele>
        <time>2021-05-29T08:06:53.742Z</time>
      </trkpt>
      <trkpt lat="46.55414" lon="5.44804">
        <ele>536</ele>
        <time>2021-05-29T08:06:54.742Z</time>
      </trkpt>
      <trkpt lat="46.55416" lon="5.44806">
        <ele>537</ele>
        <time>2021-05-29T08:06:55.742Z</time>
      </trkpt>
      <trkpt lat="46.55418" lon="5.44807">
        <ele>537</ele>
        <time>2021-05-29T08:06:56.742Z</time>
      </trkpt>
      <trkpt lat="46.5542" lon="5.44809">
        <ele>537</ele>
        <time>2021-05-29T08:06:57.741Z</time>
      </trkpt>
      <trkpt lat="46.55421" lon="5.44811">
        <ele>537</ele>
        <time>2021-05-29T08:06:58.742Z</time>
      </trkpt>
      <trkpt lat="46.55422" lon="5.44812">
        <ele>537</ele>
        <time>2021-05-29T08:06:59.742Z</time>
      </trkpt>
      <trkpt lat="46.55423" lon="5.44813">
        <ele>537</ele>
        <time>2021-05-29T08:07:00.741Z</time>
      </trkpt>
      <trkpt lat="46.55425" lon="5.44815">
        <ele>537</ele>
        <time>2021-05-29T08:07:01.741Z</time>
      </trkpt>
      <trkpt lat="46.55427" lon="5.44817">
        <ele>537</ele>
        <time>2021-05-29T08:07:02.741Z</time>
      </trkpt>
      <trkpt lat="46.55428" lon="5.44818">
        <ele>537</ele>
        <time>2021-05-29T08:07:03.742Z</time>
      </trkpt>
      <trkpt lat="46.5543" lon="5.4482">
        <ele>538</ele>
        <time>2021-05-29T08:07:04.742Z</time>
      </trkpt>
      <trkpt lat="46.55432" lon="5.44822">
        <ele>538</ele>
        <time>2021-05-29T08:07:05.742Z</time>
      </trkpt>
      <trkpt lat="46.55433" lon="5.44824">
        <ele>539</ele>
        <time>2021-05-29T08:07:06.742Z</time>
      </trkpt>
      <trkpt lat="46.55435" lon="5.44826">
        <ele>539</ele>
        <time>2021-05-29T08:07:07.742Z</time>
      </trkpt>
      <trkpt lat="46.55437" lon="5.44829">
        <ele>539</ele>
        <time>2021-05-29T08:07:08.741Z</time>
      </trkpt>
      <trkpt lat="46.5544" lon="5.44831">
        <ele>539</ele>
        <time>2021-05-29T08:07:09.742Z</time>
      </trkpt>
      <trkpt lat="46.55443" lon="5.44833">
        <ele>539</ele>
        <time>2021-05-29T08:07:10.742Z</time>
      </trkpt>
      <trkpt lat="46.55443" lon="5.44834">
        <ele>539</ele>
        <time>2021-05-29T08:07:11.742Z</time>
      </trkpt>
      <trkpt lat="46.55445" lon="5.44836">
        <ele>539</ele>
        <time>2021-05-29T08:07:12.742Z</time>
      </trkpt>
      <trkpt lat="46.55446" lon="5.44838">
        <ele>539</ele>
        <time>2021-05-29T08:07:13.742Z</time>
      </trkpt>
      <trkpt lat="46.55448" lon="5.44839">
        <ele>539</ele>
        <time>2021-05-29T08:07:14.742Z</time>
      </trkpt>
      <trkpt lat="46.55449" lon="5.4484">
        <ele>539</ele>
        <time>2021-05-29T08:07:15.742Z</time>
      </trkpt>
      <trkpt lat="46.5545" lon="5.44842">
        <ele>539</ele>
        <time>2021-05-29T08:07:16.741Z</time>
      </trkpt>
      <trkpt lat="46.55451" lon="5.44843">
        <ele>539</ele>
        <time>2021-05-29T08:07:17.742Z</time>
      </trkpt>
      <trkpt lat="46.55452" lon="5.44845">
        <ele>539</ele>
        <time>2021-05-29T08:07:18.741Z</time>
      </trkpt>
      <trkpt lat="46.55454" lon="5.44846">
        <ele>540</ele>
        <time>2021-05-29T08:07:19.742Z</time>
      </trkpt>
      <trkpt lat="46.55455" lon="5.44848">
        <ele>540</ele>
        <time>2021-05-29T08:07:20.742Z</time>
      </trkpt>
      <trkpt lat="46.55457" lon="5.44849">
        <ele>541</ele>
        <time>2021-05-29T08:07:21.741Z</time>
      </trkpt>
      <trkpt lat="46.55458" lon="5.44852">
        <ele>541</ele>
        <time>2021-05-29T08:07:22.742Z</time>
      </trkpt>
      <trkpt lat="46.5546" lon="5.44854">
        <ele>541</ele>
        <time>2021-05-29T08:07:23.741Z</time>
      </trkpt>
      <trkpt lat="46.55462" lon="5.44856">
        <ele>541</ele>
        <time>2021-05-29T08:07:24.742Z</time>
      </trkpt>
      <trkpt lat="46.55463" lon="5.44857">
        <ele>542</ele>
        <time>2021-05-29T08:07:25.741Z</time>
      </trkpt>
      <trkpt lat="46.55466" lon="5.44861">
        <ele>542</ele>
        <time>2021-05-29T08:07:26.742Z</time>
      </trkpt>
      <trkpt lat="46.55468" lon="5.44863">
        <ele>542</ele>
        <time>2021-05-29T08:07:27.742Z</time>
      </trkpt>
      <trkpt lat="46.5547" lon="5.44865">
        <ele>542</ele>
        <time>2021-05-29T08:07:28.742Z</time>
      </trkpt>
      <trkpt lat="46.55472" lon="5.44867">
        <ele>543</ele>
        <time>2021-05-29T08:07:29.742Z</time>
      </trkpt>
      <trkpt lat="46.55473" lon="5.44868">
        <ele>543</ele>
        <time>2021-05-29T08:07:30.741Z</time>
      </trkpt>
      <trkpt lat="46.55475" lon="5.4487">
        <ele>543</ele>
        <time>2021-05-29T08:07:31.742Z</time>
      </trkpt>
      <trkpt lat="46.55476" lon="5.44871">
        <ele>543</ele>
        <time>2021-05-29T08:07:32.742Z</time>
      </trkpt>
      <trkpt lat="46.55477" lon="5.44872">
        <ele>543</ele>
        <time>2021-05-29T08:07:33.742Z</time>
      </trkpt>
      <trkpt lat="46.55477" lon="5.44873">
        <ele>543</ele>
        <time>2021-05-29T08:07:34.741Z</time>
      </trkpt>
      <trkpt lat="46.55478" lon="5.44874">
        <ele>543</ele>
        <time>2021-05-29T08:07:35.742Z</time>
      </trkpt>
      <trkpt lat="46.55479" lon="5.44875">
        <ele>543</ele>
        <time>2021-05-29T08:07:36.742Z</time>
      </trkpt>
      <trkpt lat="46.5548" lon="5.44876">
        <ele>544</ele>
        <time>2021-05-29T08:07:37.741Z</time>
      </trkpt>
      <trkpt lat="46.55481" lon="5.44877">
        <ele>544</ele>
        <time>2021-05-29T08:07:38.742Z</time>
      </trkpt>
      <trkpt lat="46.55483" lon="5.44878">
        <ele>544</ele>
        <time>2021-05-29T08:07:39.741Z</time>
      </trkpt>
      <trkpt lat="46.55485" lon="5.44879">
        <ele>544</ele>
        <time>2021-05-29T08:07:40.742Z</time>
      </trkpt>
      <trkpt lat="46.55487" lon="5.44879">
        <ele>544</ele>
        <time>2021-05-29T08:07:41.742Z</time>
      </trkpt>
      <trkpt lat="46.55488" lon="5.44879">
        <ele>544</ele>
        <time>2021-05-29T08:07:42.742Z</time>
      </trkpt>
      <trkpt lat="46.55489" lon="5.44879">
        <ele>544</ele>
        <time>2021-05-29T08:07:43.742Z</time>
      </trkpt>
      <trkpt lat="46.55491" lon="5.44879">
        <ele>544</ele>
        <time>2021-05-29T08:07:44.742Z</time>
      </trkpt>
      <trkpt lat="46.55493" lon="5.4488">
        <ele>544</ele>
        <time>2021-05-29T08:07:45.742Z</time>
      </trkpt>
      <trkpt lat="46.55494" lon="5.44881">
        <ele>544</ele>
        <time>2021-05-29T08:07:46.742Z</time>
      </trkpt>
      <trkpt lat="46.55496" lon="5.44881">
        <ele>544</ele>
        <time>2021-05-29T08:07:47.742Z</time>
      </trkpt>
      <trkpt lat="46.55497" lon="5.44881">
        <ele>545</ele>
        <time>2021-05-29T08:07:48.741Z</time>
      </trkpt>
      <trkpt lat="46.55499" lon="5.44882">
        <ele>546</ele>
        <time>2021-05-29T08:07:49.742Z</time>
      </trkpt>
      <trkpt lat="46.555" lon="5.44883">
        <ele>546</ele>
        <time>2021-05-29T08:07:50.741Z</time>
      </trkpt>
      <trkpt lat="46.55501" lon="5.44885">
        <ele>547</ele>
        <time>2021-05-29T08:07:51.742Z</time>
      </trkpt>
      <trkpt lat="46.55502" lon="5.44887">
        <ele>547</ele>
        <time>2021-05-29T08:07:52.742Z</time>
      </trkpt>
      <trkpt lat="46.55504" lon="5.44888">
        <ele>547</ele>
        <time>2021-05-29T08:07:53.741Z</time>
      </trkpt>
      <trkpt lat="46.55506" lon="5.44889">
        <ele>548</ele>
        <time>2021-05-29T08:07:54.742Z</time>
      </trkpt>
      <trkpt lat="46.55508" lon="5.4489">
        <ele>548</ele>
        <time>2021-05-29T08:07:55.742Z</time>
      </trkpt>
      <trkpt lat="46.5551" lon="5.4489">
        <ele>548</ele>
        <time>2021-05-29T08:07:56.742Z</time>
      </trkpt>
      <trkpt lat="46.55512" lon="5.44891">
        <ele>549</ele>
        <time>2021-05-29T08:07:57.742Z</time>
      </trkpt>
      <trkpt lat="46.55513" lon="5.44892">
        <ele>549</ele>
        <time>2021-05-29T08:07:58.741Z</time>
      </trkpt>
      <trkpt lat="46.55514" lon="5.44893">
        <ele>549</ele>
        <time>2021-05-29T08:07:59.741Z</time>
      </trkpt>
      <trkpt lat="46.55515" lon="5.44893">
        <ele>549</ele>
        <time>2021-05-29T08:08:00.742Z</time>
      </trkpt>
      <trkpt lat="46.55517" lon="5.44894">
        <ele>549</ele>
        <time>2021-05-29T08:08:01.742Z</time>
      </trkpt>
      <trkpt lat="46.55519" lon="5.44894">
        <ele>549</ele>
        <time>2021-05-29T08:08:02.741Z</time>
      </trkpt>
      <trkpt lat="46.55521" lon="5.44895">
        <ele>549</ele>
        <time>2021-05-29T08:08:03.742Z</time>
      </trkpt>
      <trkpt lat="46.55522" lon="5.44895">
        <ele>549</ele>
        <time>2021-05-29T08:08:04.742Z</time>
      </trkpt>
      <trkpt lat="46.55524" lon="5.44895">
        <ele>549</ele>
        <time>2021-05-29T08:08:05.742Z</time>
      </trkpt>
      <trkpt lat="46.55525" lon="5.44895">
        <ele>550</ele>
        <time>2021-05-29T08:08:06.742Z</time>
      </trkpt>
      <trkpt lat="46.55527" lon="5.44895">
        <ele>550</ele>
        <time>2021-05-29T08:08:07.742Z</time>
      </trkpt>
      <trkpt lat="46.55528" lon="5.44894">
        <ele>550</ele>
        <time>2021-05-29T08:08:08.742Z</time>
      </trkpt>
      <trkpt lat="46.5553" lon="5.44894">
        <ele>551</ele>
        <time>2021-05-29T08:08:09.741Z</time>
      </trkpt>
      <trkpt lat="46.55532" lon="5.44895">
        <ele>552</ele>
        <time>2021-05-29T08:08:10.742Z</time>
      </trkpt>
      <trkpt lat="46.55533" lon="5.44895">
        <ele>552</ele>
        <time>2021-05-29T08:08:11.741Z</time>
      </trkpt>
      <trkpt lat="46.55535" lon="5.44895">
        <ele>553</ele>
        <time>2021-05-29T08:08:12.742Z</time>
      </trkpt>
      <trkpt lat="46.55536" lon="5.44895">
        <ele>554</ele>
        <time>2021-05-29T08:08:13.742Z</time>
      </trkpt>
      <trkpt lat="46.55537" lon="5.44895">
        <ele>554</ele>
        <time>2021-05-29T08:08:14.742Z</time>
      </trkpt>
      <trkpt lat="46.55539" lon="5.44896">
        <ele>554</ele>
        <time>2021-05-29T08:08:15.742Z</time>
      </trkpt>
      <trkpt lat="46.5554" lon="5.44896">
        <ele>554</ele>
        <time>2021-05-29T08:08:16.741Z</time>
      </trkpt>
      <trkpt lat="46.55541" lon="5.44898">
        <ele>554</ele>
        <time>2021-05-29T08:08:17.742Z</time>
      </trkpt>
      <trkpt lat="46.55543" lon="5.44899">
        <ele>554</ele>
        <time>2021-05-29T08:08:18.741Z</time>
      </trkpt>
      <trkpt lat="46.55544" lon="5.449">
        <ele>554</ele>
        <time>2021-05-29T08:08:19.742Z</time>
      </trkpt>
      <trkpt lat="46.55545" lon="5.44901">
        <ele>555</ele>
        <time>2021-05-29T08:08:20.742Z</time>
      </trkpt>
      <trkpt lat="46.55547" lon="5.44902">
        <ele>555</ele>
        <time>2021-05-29T08:08:21.742Z</time>
      </trkpt>
      <trkpt lat="46.55548" lon="5.44903">
        <ele>555</ele>
        <time>2021-05-29T08:08:22.742Z</time>
      </trkpt>
      <trkpt lat="46.55549" lon="5.44906">
        <ele>555</ele>
        <time>2021-05-29T08:08:23.742Z</time>
      </trkpt>
      <trkpt lat="46.55549" lon="5.44908">
        <ele>555</ele>
        <time>2021-05-29T08:08:24.742Z</time>
      </trkpt>
      <trkpt lat="46.55551" lon="5.4491">
        <ele>555</ele>
        <time>2021-05-29T08:08:25.741Z</time>
      </trkpt>
      <trkpt lat="46.55553" lon="5.44911">
        <ele>555</ele>
        <time>2021-05-29T08:08:26.742Z</time>
      </trkpt>
      <trkpt lat="46.55554" lon="5.44913">
        <ele>555</ele>
        <time>2021-05-29T08:08:27.742Z</time>
      </trkpt>
      <trkpt lat="46.55555" lon="5.44915">
        <ele>555</ele>
        <time>2021-05-29T08:08:28.742Z</time>
      </trkpt>
      <trkpt lat="46.55557" lon="5.44917">
        <ele>555</ele>
        <time>2021-05-29T08:08:29.741Z</time>
      </trkpt>
      <trkpt lat="46.55558" lon="5.44919">
        <ele>554</ele>
        <time>2021-05-29T08:08:30.742Z</time>
      </trkpt>
      <trkpt lat="46.55558" lon="5.4492">
        <ele>554</ele>
        <time>2021-05-29T08:08:31.742Z</time>
      </trkpt>
      <trkpt lat="46.5556" lon="5.44921">
        <ele>555</ele>
        <time>2021-05-29T08:08:32.742Z</time>
      </trkpt>
      <trkpt lat="46.55561" lon="5.44923">
        <ele>555</ele>
        <time>2021-05-29T08:08:33.742Z</time>
      </trkpt>
      <trkpt lat="46.55562" lon="5.44924">
        <ele>555</ele>
        <time>2021-05-29T08:08:34.741Z</time>
      </trkpt>
      <trkpt lat="46.55563" lon="5.44926">
        <ele>555</ele>
        <time>2021-05-29T08:08:35.742Z</time>
      </trkpt>
      <trkpt lat="46.55564" lon="5.44927">
        <ele>555</ele>
        <time>2021-05-29T08:08:36.742Z</time>
      </trkpt>
      <trkpt lat="46.55565" lon="5.44928">
        <ele>555</ele>
        <time>2021-05-29T08:08:37.742Z</time>
      </trkpt>
      <trkpt lat="46.55566" lon="5.44929">
        <ele>555</ele>
        <time>2021-05-29T08:08:38.742Z</time>
      </trkpt>
      <trkpt lat="46.55567" lon="5.4493">
        <ele>555</ele>
        <time>2021-05-29T08:08:39.742Z</time>
      </trkpt>
      <trkpt lat="46.55568" lon="5.44931">
        <ele>555</ele>
        <time>2021-05-29T08:08:40.742Z</time>
      </trkpt>
      <trkpt lat="46.5557" lon="5.44932">
        <ele>555</ele>
        <time>2021-05-29T08:08:41.741Z</time>
      </trkpt>
      <trkpt lat="46.55572" lon="5.44933">
        <ele>555</ele>
        <time>2021-05-29T08:08:42.742Z</time>
      </trkpt>
      <trkpt lat="46.55573" lon="5.44934">
        <ele>555</ele>
        <time>2021-05-29T08:08:43.742Z</time>
      </trkpt>
      <trkpt lat="46.55575" lon="5.44935">
        <ele>555</ele>
        <time>2021-05-29T08:08:44.742Z</time>
      </trkpt>
      <trkpt lat="46.55576" lon="5.44935">
        <ele>556</ele>
        <time>2021-05-29T08:08:45.742Z</time>
      </trkpt>
      <trkpt lat="46.55578" lon="5.44935">
        <ele>556</ele>
        <time>2021-05-29T08:08:46.741Z</time>
      </trkpt>
      <trkpt lat="46.5558" lon="5.44936">
        <ele>556</ele>
        <time>2021-05-29T08:08:47.742Z</time>
      </trkpt>
      <trkpt lat="46.55582" lon="5.44936">
        <ele>556</ele>
        <time>2021-05-29T08:08:48.742Z</time>
      </trkpt>
      <trkpt lat="46.55584" lon="5.44936">
        <ele>556</ele>
        <time>2021-05-29T08:08:49.742Z</time>
      </trkpt>
      <trkpt lat="46.55586" lon="5.44937">
        <ele>556</ele>
        <time>2021-05-29T08:08:50.742Z</time>
      </trkpt>
      <trkpt lat="46.55588" lon="5.44938">
        <ele>556</ele>
        <time>2021-05-29T08:08:51.742Z</time>
      </trkpt>
      <trkpt lat="46.55589" lon="5.44939">
        <ele>557</ele>
        <time>2021-05-29T08:08:52.742Z</time>
      </trkpt>
      <trkpt lat="46.55591" lon="5.4494">
        <ele>557</ele>
        <time>2021-05-29T08:08:53.742Z</time>
      </trkpt>
      <trkpt lat="46.55593" lon="5.44942">
        <ele>557</ele>
        <time>2021-05-29T08:08:54.741Z</time>
      </trkpt>
      <trkpt lat="46.55595" lon="5.44943">
        <ele>558</ele>
        <time>2021-05-29T08:08:55.742Z</time>
      </trkpt>
      <trkpt lat="46.55597" lon="5.44945">
        <ele>558</ele>
        <time>2021-05-29T08:08:56.742Z</time>
      </trkpt>
      <trkpt lat="46.55599" lon="5.44945">
        <ele>558</ele>
        <time>2021-05-29T08:08:57.742Z</time>
      </trkpt>
      <trkpt lat="46.556" lon="5.44946">
        <ele>559</ele>
        <time>2021-05-29T08:08:58.742Z</time>
      </trkpt>
      <trkpt lat="46.55602" lon="5.44948">
        <ele>559</ele>
        <time>2021-05-29T08:08:59.742Z</time>
      </trkpt>
      <trkpt lat="46.55604" lon="5.44949">
        <ele>560</ele>
        <time>2021-05-29T08:09:00.742Z</time>
      </trkpt>
      <trkpt lat="46.55606" lon="5.44951">
        <ele>560</ele>
        <time>2021-05-29T08:09:01.741Z</time>
      </trkpt>
      <trkpt lat="46.55607" lon="5.44952">
        <ele>561</ele>
        <time>2021-05-29T08:09:02.742Z</time>
      </trkpt>
      <trkpt lat="46.55609" lon="5.44954">
        <ele>561</ele>
        <time>2021-05-29T08:09:03.742Z</time>
      </trkpt>
      <trkpt lat="46.5561" lon="5.44956">
        <ele>561</ele>
        <time>2021-05-29T08:09:04.742Z</time>
      </trkpt>
      <trkpt lat="46.55612" lon="5.44958">
        <ele>561</ele>
        <time>2021-05-29T08:09:05.742Z</time>
      </trkpt>
      <trkpt lat="46.55613" lon="5.4496">
        <ele>561</ele>
        <time>2021-05-29T08:09:06.741Z</time>
      </trkpt>
      <trkpt lat="46.55614" lon="5.44962">
        <ele>561</ele>
        <time>2021-05-29T08:09:07.742Z</time>
      </trkpt>
      <trkpt lat="46.55616" lon="5.44964">
        <ele>561</ele>
        <time>2021-05-29T08:09:08.742Z</time>
      </trkpt>
      <trkpt lat="46.55618" lon="5.44966">
        <ele>561</ele>
        <time>2021-05-29T08:09:09.742Z</time>
      </trkpt>
      <trkpt lat="46.5562" lon="5.44968">
        <ele>561</ele>
        <time>2021-05-29T08:09:10.742Z</time>
      </trkpt>
      <trkpt lat="46.55621" lon="5.4497">
        <ele>562</ele>
        <time>2021-05-29T08:09:11.742Z</time>
      </trkpt>
      <trkpt lat="46.55623" lon="5.44973">
        <ele>562</ele>
        <time>2021-05-29T08:09:12.741Z</time>
      </trkpt>
      <trkpt lat="46.55625" lon="5.44975">
        <ele>562</ele>
        <time>2021-05-29T08:09:13.742Z</time>
      </trkpt>
      <trkpt lat="46.55627" lon="5.44977">
        <ele>563</ele>
        <time>2021-05-29T08:09:14.742Z</time>
      </trkpt>
      <trkpt lat="46.55629" lon="5.44979">
        <ele>563</ele>
        <time>2021-05-29T08:09:15.741Z</time>
      </trkpt>
      <trkpt lat="46.55631" lon="5.44983">
        <ele>563</ele>
        <time>2021-05-29T08:09:16.742Z</time>
      </trkpt>
      <trkpt lat="46.55633" lon="5.44986">
        <ele>563</ele>
        <time>2021-05-29T08:09:17.742Z</time>
      </trkpt>
      <trkpt lat="46.55635" lon="5.44988">
        <ele>564</ele>
        <time>2021-05-29T08:09:18.742Z</time>
      </trkpt>
      <trkpt lat="46.55639" lon="5.44991">
        <ele>564</ele>
        <time>2021-05-29T08:09:19.742Z</time>
      </trkpt>
      <trkpt lat="46.55641" lon="5.44994">
        <ele>564</ele>
        <time>2021-05-29T08:09:20.741Z</time>
      </trkpt>
      <trkpt lat="46.55643" lon="5.44998">
        <ele>565</ele>
        <time>2021-05-29T08:09:21.742Z</time>
      </trkpt>
      <trkpt lat="46.55645" lon="5.45001">
        <ele>565</ele>
        <time>2021-05-29T08:09:22.742Z</time>
      </trkpt>
      <trkpt lat="46.55648" lon="5.45004">
        <ele>565</ele>
        <time>2021-05-29T08:09:23.742Z</time>
      </trkpt>
      <trkpt lat="46.55649" lon="5.45006">
        <ele>565</ele>
        <time>2021-05-29T08:09:24.741Z</time>
      </trkpt>
      <trkpt lat="46.55651" lon="5.45009">
        <ele>564</ele>
        <time>2021-05-29T08:09:25.742Z</time>
      </trkpt>
      <trkpt lat="46.55653" lon="5.45012">
        <ele>564</ele>
        <time>2021-05-29T08:09:26.742Z</time>
      </trkpt>
      <trkpt lat="46.55654" lon="5.45013">
        <ele>564</ele>
        <time>2021-05-29T08:09:27.742Z</time>
      </trkpt>
      <trkpt lat="46.55656" lon="5.45016">
        <ele>564</ele>
        <time>2021-05-29T08:09:28.742Z</time>
      </trkpt>
      <trkpt lat="46.55658" lon="5.45018">
        <ele>564</ele>
        <time>2021-05-29T08:09:29.741Z</time>
      </trkpt>
      <trkpt lat="46.5566" lon="5.4502">
        <ele>564</ele>
        <time>2021-05-29T08:09:30.742Z</time>
      </trkpt>
      <trkpt lat="46.55662" lon="5.45021">
        <ele>563</ele>
        <time>2021-05-29T08:09:31.742Z</time>
      </trkpt>
      <trkpt lat="46.55664" lon="5.45023">
        <ele>563</ele>
        <time>2021-05-29T08:09:32.741Z</time>
      </trkpt>
      <trkpt lat="46.55666" lon="5.45025">
        <ele>563</ele>
        <time>2021-05-29T08:09:33.742Z</time>
      </trkpt>
      <trkpt lat="46.55668" lon="5.45027">
        <ele>563</ele>
        <time>2021-05-29T08:09:34.742Z</time>
      </trkpt>
      <trkpt lat="46.55671" lon="5.45029">
        <ele>563</ele>
        <time>2021-05-29T08:09:35.741Z</time>
      </trkpt>
      <trkpt lat="46.55674" lon="5.45032">
        <ele>563</ele>
        <time>2021-05-29T08:09:36.742Z</time>
      </trkpt>
      <trkpt lat="46.55675" lon="5.45034">
        <ele>564</ele>
        <time>2021-05-29T08:09:37.742Z</time>
      </trkpt>
      <trkpt lat="46.55677" lon="5.45037">
        <ele>563</ele>
        <time>2021-05-29T08:09:38.742Z</time>
      </trkpt>
      <trkpt lat="46.55679" lon="5.45039">
        <ele>563</ele>
        <time>2021-05-29T08:09:39.742Z</time>
      </trkpt>
      <trkpt lat="46.5568" lon="5.45041">
        <ele>563</ele>
        <time>2021-05-29T08:09:40.742Z</time>
      </trkpt>
      <trkpt lat="46.55681" lon="5.45042">
        <ele>563</ele>
        <time>2021-05-29T08:09:41.742Z</time>
      </trkpt>
      <trkpt lat="46.55682" lon="5.45044">
        <ele>563</ele>
        <time>2021-05-29T08:09:42.742Z</time>
      </trkpt>
      <trkpt lat="46.55683" lon="5.45046">
        <ele>563</ele>
        <time>2021-05-29T08:09:43.741Z</time>
      </trkpt>
      <trkpt lat="46.55684" lon="5.45048">
        <ele>563</ele>
        <time>2021-05-29T08:09:44.742Z</time>
      </trkpt>
      <trkpt lat="46.55685" lon="5.4505">
        <ele>563</ele>
        <time>2021-05-29T08:09:45.742Z</time>
      </trkpt>
      <trkpt lat="46.55686" lon="5.45053">
        <ele>563</ele>
        <time>2021-05-29T08:09:46.742Z</time>
      </trkpt>
      <trkpt lat="46.55687" lon="5.45055">
        <ele>563</ele>
        <time>2021-05-29T08:09:47.741Z</time>
      </trkpt>
      <trkpt lat="46.55688" lon="5.45057">
        <ele>562</ele>
        <time>2021-05-29T08:09:48.742Z</time>
      </trkpt>
      <trkpt lat="46.55689" lon="5.45059">
        <ele>562</ele>
        <time>2021-05-29T08:09:49.742Z</time>
      </trkpt>
      <trkpt lat="46.55691" lon="5.4506">
        <ele>562</ele>
        <time>2021-05-29T08:09:50.742Z</time>
      </trkpt>
      <trkpt lat="46.55692" lon="5.45062">
        <ele>562</ele>
        <time>2021-05-29T08:09:51.742Z</time>
      </trkpt>
      <trkpt lat="46.55693" lon="5.45064">
        <ele>562</ele>
        <time>2021-05-29T08:09:52.742Z</time>
      </trkpt>
      <trkpt lat="46.55694" lon="5.45066">
        <ele>562</ele>
        <time>2021-05-29T08:09:53.742Z</time>
      </trkpt>
      <trkpt lat="46.55696" lon="5.45068">
        <ele>562</ele>
        <time>2021-05-29T08:09:54.742Z</time>
      </trkpt>
      <trkpt lat="46.55698" lon="5.4507">
        <ele>561</ele>
        <time>2021-05-29T08:09:55.742Z</time>
      </trkpt>
      <trkpt lat="46.557" lon="5.45072">
        <ele>561</ele>
        <time>2021-05-29T08:09:56.741Z</time>
      </trkpt>
      <trkpt lat="46.55702" lon="5.45075">
        <ele>560</ele>
        <time>2021-05-29T08:09:57.742Z</time>
      </trkpt>
      <trkpt lat="46.55704" lon="5.45078">
        <ele>560</ele>
        <time>2021-05-29T08:09:58.742Z</time>
      </trkpt>
      <trkpt lat="46.55706" lon="5.45081">
        <ele>559</ele>
        <time>2021-05-29T08:09:59.742Z</time>
      </trkpt>
      <trkpt lat="46.55707" lon="5.45083">
        <ele>559</ele>
        <time>2021-05-29T08:10:00.742Z</time>
      </trkpt>
      <trkpt lat="46.5571" lon="5.45086">
        <ele>559</ele>
        <time>2021-05-29T08:10:01.742Z</time>
      </trkpt>
      <trkpt lat="46.55712" lon="5.45089">
        <ele>558</ele>
        <time>2021-05-29T08:10:02.742Z</time>
      </trkpt>
      <trkpt lat="46.55713" lon="5.45091">
        <ele>558</ele>
        <time>2021-05-29T08:10:03.742Z</time>
      </trkpt>
      <trkpt lat="46.55715" lon="5.45094">
        <ele>558</ele>
        <time>2021-05-29T08:10:04.742Z</time>
      </trkpt>
      <trkpt lat="46.55717" lon="5.45097">
        <ele>557</ele>
        <time>2021-05-29T08:10:05.741Z</time>
      </trkpt>
      <trkpt lat="46.55719" lon="5.45099">
        <ele>557</ele>
        <time>2021-05-29T08:10:06.742Z</time>
      </trkpt>
      <trkpt lat="46.5572" lon="5.45102">
        <ele>557</ele>
        <time>2021-05-29T08:10:07.742Z</time>
      </trkpt>
      <trkpt lat="46.55721" lon="5.45103">
        <ele>557</ele>
        <time>2021-05-29T08:10:08.742Z</time>
      </trkpt>
      <trkpt lat="46.55723" lon="5.45105">
        <ele>557</ele>
        <time>2021-05-29T08:10:09.742Z</time>
      </trkpt>
      <trkpt lat="46.55724" lon="5.45108">
        <ele>556</ele>
        <time>2021-05-29T08:10:10.741Z</time>
      </trkpt>
      <trkpt lat="46.55726" lon="5.4511">
        <ele>556</ele>
        <time>2021-05-29T08:10:11.742Z</time>
      </trkpt>
      <trkpt lat="46.55728" lon="5.45112">
        <ele>556</ele>
        <time>2021-05-29T08:10:12.742Z</time>
      </trkpt>
      <trkpt lat="46.5573" lon="5.45114">
        <ele>556</ele>
        <time>2021-05-29T08:10:13.742Z</time>
      </trkpt>
      <trkpt lat="46.55732" lon="5.45116">
        <ele>556</ele>
        <time>2021-05-29T08:10:14.742Z</time>
      </trkpt>
      <trkpt lat="46.55734" lon="5.45118">
        <ele>556</ele>
        <time>2021-05-29T08:10:15.741Z</time>
      </trkpt>
      <trkpt lat="46.55736" lon="5.4512">
        <ele>555</ele>
        <time>2021-05-29T08:10:16.742Z</time>
      </trkpt>
      <trkpt lat="46.55737" lon="5.45122">
        <ele>555</ele>
        <time>2021-05-29T08:10:17.742Z</time>
      </trkpt>
      <trkpt lat="46.55739" lon="5.45124">
        <ele>555</ele>
        <time>2021-05-29T08:10:18.742Z</time>
      </trkpt>
      <trkpt lat="46.5574" lon="5.45127">
        <ele>555</ele>
        <time>2021-05-29T08:10:19.742Z</time>
      </trkpt>
      <trkpt lat="46.55741" lon="5.45129">
        <ele>555</ele>
        <time>2021-05-29T08:10:20.742Z</time>
      </trkpt>
      <trkpt lat="46.55742" lon="5.45132">
        <ele>555</ele>
        <time>2021-05-29T08:10:21.741Z</time>
      </trkpt>
      <trkpt lat="46.55743" lon="5.45135">
        <ele>555</ele>
        <time>2021-05-29T08:10:22.741Z</time>
      </trkpt>
      <trkpt lat="46.55744" lon="5.4514">
        <ele>555</ele>
        <time>2021-05-29T08:10:23.742Z</time>
      </trkpt>
      <trkpt lat="46.55745" lon="5.45145">
        <ele>554</ele>
        <time>2021-05-29T08:10:24.742Z</time>
      </trkpt>
      <trkpt lat="46.55747" lon="5.4515">
        <ele>554</ele>
        <time>2021-05-29T08:10:25.742Z</time>
      </trkpt>
      <trkpt lat="46.55749" lon="5.45154">
        <ele>553</ele>
        <time>2021-05-29T08:10:26.742Z</time>
      </trkpt>
      <trkpt lat="46.55751" lon="5.45158">
        <ele>553</ele>
        <time>2021-05-29T08:10:27.742Z</time>
      </trkpt>
      <trkpt lat="46.55753" lon="5.45163">
        <ele>553</ele>
        <time>2021-05-29T08:10:28.742Z</time>
      </trkpt>
      <trkpt lat="46.55755" lon="5.45166">
        <ele>552</ele>
        <time>2021-05-29T08:10:29.742Z</time>
      </trkpt>
      <trkpt lat="46.55756" lon="5.45169">
        <ele>552</ele>
        <time>2021-05-29T08:10:30.742Z</time>
      </trkpt>
      <trkpt lat="46.55757" lon="5.45171">
        <ele>552</ele>
        <time>2021-05-29T08:10:31.742Z</time>
      </trkpt>
      <trkpt lat="46.55759" lon="5.45174">
        <ele>552</ele>
        <time>2021-05-29T08:10:32.742Z</time>
      </trkpt>
      <trkpt lat="46.55761" lon="5.45177">
        <ele>551</ele>
        <time>2021-05-29T08:10:33.742Z</time>
      </trkpt>
      <trkpt lat="46.55762" lon="5.4518">
        <ele>551</ele>
        <time>2021-05-29T08:10:34.742Z</time>
      </trkpt>
      <trkpt lat="46.55764" lon="5.45183">
        <ele>551</ele>
        <time>2021-05-29T08:10:35.742Z</time>
      </trkpt>
      <trkpt lat="46.55765" lon="5.45187">
        <ele>550</ele>
        <time>2021-05-29T08:10:36.742Z</time>
      </trkpt>
      <trkpt lat="46.55767" lon="5.4519">
        <ele>550</ele>
        <time>2021-05-29T08:10:37.742Z</time>
      </trkpt>
      <trkpt lat="46.55768" lon="5.45193">
        <ele>549</ele>
        <time>2021-05-29T08:10:38.742Z</time>
      </trkpt>
      <trkpt lat="46.55769" lon="5.45196">
        <ele>549</ele>
        <time>2021-05-29T08:10:39.742Z</time>
      </trkpt>
      <trkpt lat="46.55772" lon="5.45199">
        <ele>549</ele>
        <time>2021-05-29T08:10:40.742Z</time>
      </trkpt>
      <trkpt lat="46.55773" lon="5.45202">
        <ele>548</ele>
        <time>2021-05-29T08:10:41.741Z</time>
      </trkpt>
      <trkpt lat="46.55775" lon="5.45204">
        <ele>548</ele>
        <time>2021-05-29T08:10:42.742Z</time>
      </trkpt>
      <trkpt lat="46.55777" lon="5.45205">
        <ele>548</ele>
        <time>2021-05-29T08:10:43.742Z</time>
      </trkpt>
      <trkpt lat="46.55778" lon="5.45207">
        <ele>548</ele>
        <time>2021-05-29T08:10:44.742Z</time>
      </trkpt>
      <trkpt lat="46.5578" lon="5.45209">
        <ele>548</ele>
        <time>2021-05-29T08:10:45.742Z</time>
      </trkpt>
      <trkpt lat="46.55782" lon="5.45211">
        <ele>548</ele>
        <time>2021-05-29T08:10:46.742Z</time>
      </trkpt>
      <trkpt lat="46.55784" lon="5.45212">
        <ele>548</ele>
        <time>2021-05-29T08:10:47.742Z</time>
      </trkpt>
      <trkpt lat="46.55785" lon="5.45214">
        <ele>548</ele>
        <time>2021-05-29T08:10:48.742Z</time>
      </trkpt>
      <trkpt lat="46.55787" lon="5.45216">
        <ele>548</ele>
        <time>2021-05-29T08:10:49.742Z</time>
      </trkpt>
      <trkpt lat="46.55788" lon="5.45219">
        <ele>549</ele>
        <time>2021-05-29T08:10:50.742Z</time>
      </trkpt>
      <trkpt lat="46.5579" lon="5.45221">
        <ele>549</ele>
        <time>2021-05-29T08:10:51.742Z</time>
      </trkpt>
      <trkpt lat="46.55791" lon="5.45222">
        <ele>549</ele>
        <time>2021-05-29T08:10:52.741Z</time>
      </trkpt>
      <trkpt lat="46.55793" lon="5.45223">
        <ele>549</ele>
        <time>2021-05-29T08:10:53.741Z</time>
      </trkpt>
      <trkpt lat="46.55794" lon="5.45226">
        <ele>549</ele>
        <time>2021-05-29T08:10:54.741Z</time>
      </trkpt>
      <trkpt lat="46.55796" lon="5.45229">
        <ele>549</ele>
        <time>2021-05-29T08:10:55.742Z</time>
      </trkpt>
      <trkpt lat="46.55796" lon="5.45231">
        <ele>549</ele>
        <time>2021-05-29T08:10:56.741Z</time>
      </trkpt>
      <trkpt lat="46.55797" lon="5.45233">
        <ele>549</ele>
        <time>2021-05-29T08:10:57.741Z</time>
      </trkpt>
      <trkpt lat="46.55798" lon="5.45235">
        <ele>549</ele>
        <time>2021-05-29T08:10:58.742Z</time>
      </trkpt>
      <trkpt lat="46.55799" lon="5.45237">
        <ele>548</ele>
        <time>2021-05-29T08:10:59.742Z</time>
      </trkpt>
      <trkpt lat="46.558" lon="5.45239">
        <ele>548</ele>
        <time>2021-05-29T08:11:00.741Z</time>
      </trkpt>
      <trkpt lat="46.55802" lon="5.45241">
        <ele>548</ele>
        <time>2021-05-29T08:11:01.742Z</time>
      </trkpt>
      <trkpt lat="46.55803" lon="5.45243">
        <ele>548</ele>
        <time>2021-05-29T08:11:02.742Z</time>
      </trkpt>
      <trkpt lat="46.55804" lon="5.45245">
        <ele>548</ele>
        <time>2021-05-29T08:11:03.741Z</time>
      </trkpt>
      <trkpt lat="46.55804" lon="5.45247">
        <ele>548</ele>
        <time>2021-05-29T08:11:04.742Z</time>
      </trkpt>
      <trkpt lat="46.55805" lon="5.45249">
        <ele>548</ele>
        <time>2021-05-29T08:11:05.742Z</time>
      </trkpt>
      <trkpt lat="46.55806" lon="5.45252">
        <ele>548</ele>
        <time>2021-05-29T08:11:06.742Z</time>
      </trkpt>
      <trkpt lat="46.55807" lon="5.45254">
        <ele>548</ele>
        <time>2021-05-29T08:11:07.742Z</time>
      </trkpt>
      <trkpt lat="46.55808" lon="5.45256">
        <ele>547</ele>
        <time>2021-05-29T08:11:08.742Z</time>
      </trkpt>
      <trkpt lat="46.5581" lon="5.45258">
        <ele>547</ele>
        <time>2021-05-29T08:11:09.742Z</time>
      </trkpt>
      <trkpt lat="46.55811" lon="5.45259">
        <ele>547</ele>
        <time>2021-05-29T08:11:10.741Z</time>
      </trkpt>
      <trkpt lat="46.55812" lon="5.45261">
        <ele>547</ele>
        <time>2021-05-29T08:11:11.742Z</time>
      </trkpt>
      <trkpt lat="46.55812" lon="5.45263">
        <ele>547</ele>
        <time>2021-05-29T08:11:12.742Z</time>
      </trkpt>
      <trkpt lat="46.55814" lon="5.45265">
        <ele>547</ele>
        <time>2021-05-29T08:11:13.742Z</time>
      </trkpt>
      <trkpt lat="46.55815" lon="5.45267">
        <ele>547</ele>
        <time>2021-05-29T08:11:14.742Z</time>
      </trkpt>
      <trkpt lat="46.55817" lon="5.45271">
        <ele>547</ele>
        <time>2021-05-29T08:11:15.741Z</time>
      </trkpt>
      <trkpt lat="46.55819" lon="5.45275">
        <ele>547</ele>
        <time>2021-05-29T08:11:16.742Z</time>
      </trkpt>
      <trkpt lat="46.5582" lon="5.45277">
        <ele>547</ele>
        <time>2021-05-29T08:11:17.742Z</time>
      </trkpt>
      <trkpt lat="46.55821" lon="5.4528">
        <ele>547</ele>
        <time>2021-05-29T08:11:18.741Z</time>
      </trkpt>
      <trkpt lat="46.55823" lon="5.45283">
        <ele>547</ele>
        <time>2021-05-29T08:11:19.742Z</time>
      </trkpt>
      <trkpt lat="46.55825" lon="5.45286">
        <ele>547</ele>
        <time>2021-05-29T08:11:20.742Z</time>
      </trkpt>
      <trkpt lat="46.55827" lon="5.45288">
        <ele>547</ele>
        <time>2021-05-29T08:11:21.742Z</time>
      </trkpt>
      <trkpt lat="46.55829" lon="5.4529">
        <ele>547</ele>
        <time>2021-05-29T08:11:22.741Z</time>
      </trkpt>
      <trkpt lat="46.5583" lon="5.45292">
        <ele>547</ele>
        <time>2021-05-29T08:11:23.742Z</time>
      </trkpt>
      <trkpt lat="46.55831" lon="5.45295">
        <ele>547</ele>
        <time>2021-05-29T08:11:24.741Z</time>
      </trkpt>
      <trkpt lat="46.55832" lon="5.45298">
        <ele>547</ele>
        <time>2021-05-29T08:11:25.742Z</time>
      </trkpt>
      <trkpt lat="46.55833" lon="5.453">
        <ele>547</ele>
        <time>2021-05-29T08:11:26.742Z</time>
      </trkpt>
      <trkpt lat="46.55836" lon="5.45302">
        <ele>547</ele>
        <time>2021-05-29T08:11:27.741Z</time>
      </trkpt>
      <trkpt lat="46.55838" lon="5.45305">
        <ele>548</ele>
        <time>2021-05-29T08:11:28.742Z</time>
      </trkpt>
      <trkpt lat="46.55839" lon="5.45307">
        <ele>548</ele>
        <time>2021-05-29T08:11:29.742Z</time>
      </trkpt>
      <trkpt lat="46.55841" lon="5.45309">
        <ele>548</ele>
        <time>2021-05-29T08:11:30.742Z</time>
      </trkpt>
      <trkpt lat="46.55842" lon="5.4531">
        <ele>548</ele>
        <time>2021-05-29T08:11:31.742Z</time>
      </trkpt>
      <trkpt lat="46.55843" lon="5.45312">
        <ele>548</ele>
        <time>2021-05-29T08:11:32.741Z</time>
      </trkpt>
      <trkpt lat="46.55843" lon="5.45315">
        <ele>548</ele>
        <time>2021-05-29T08:11:33.742Z</time>
      </trkpt>
      <trkpt lat="46.55844" lon="5.45317">
        <ele>548</ele>
        <time>2021-05-29T08:11:34.741Z</time>
      </trkpt>
      <trkpt lat="46.55845" lon="5.45318">
        <ele>549</ele>
        <time>2021-05-29T08:11:35.741Z</time>
      </trkpt>
      <trkpt lat="46.55845" lon="5.45318">
        <ele>549</ele>
        <time>2021-05-29T08:11:36.741Z</time>
      </trkpt>
      <trkpt lat="46.55845" lon="5.45318">
        <ele>549</ele>
        <time>2021-05-29T08:11:37.742Z</time>
      </trkpt>
      <trkpt lat="46.55844" lon="5.45317">
        <ele>549</ele>
        <time>2021-05-29T08:11:38.741Z</time>
      </trkpt>
      <trkpt lat="46.55843" lon="5.45316">
        <ele>549</ele>
        <time>2021-05-29T08:11:39.742Z</time>
      </trkpt>
      <trkpt lat="46.55842" lon="5.45315">
        <ele>549</ele>
        <time>2021-05-29T08:11:40.742Z</time>
      </trkpt>
      <trkpt lat="46.55841" lon="5.45314">
        <ele>549</ele>
        <time>2021-05-29T08:11:41.742Z</time>
      </trkpt>
      <trkpt lat="46.5584" lon="5.45313">
        <ele>550</ele>
        <time>2021-05-29T08:11:42.742Z</time>
      </trkpt>
      <trkpt lat="46.55839" lon="5.45311">
        <ele>550</ele>
        <time>2021-05-29T08:11:43.741Z</time>
      </trkpt>
      <trkpt lat="46.55838" lon="5.4531">
        <ele>550</ele>
        <time>2021-05-29T08:11:44.742Z</time>
      </trkpt>
      <trkpt lat="46.55837" lon="5.45308">
        <ele>551</ele>
        <time>2021-05-29T08:11:45.741Z</time>
      </trkpt>
      <trkpt lat="46.55836" lon="5.45306">
        <ele>551</ele>
        <time>2021-05-29T08:11:46.741Z</time>
      </trkpt>
      <trkpt lat="46.55835" lon="5.45304">
        <ele>551</ele>
        <time>2021-05-29T08:11:47.742Z</time>
      </trkpt>
      <trkpt lat="46.55833" lon="5.45302">
        <ele>551</ele>
        <time>2021-05-29T08:11:48.742Z</time>
      </trkpt>
      <trkpt lat="46.55832" lon="5.453">
        <ele>551</ele>
        <time>2021-05-29T08:11:49.742Z</time>
      </trkpt>
      <trkpt lat="46.55831" lon="5.45298">
        <ele>551</ele>
        <time>2021-05-29T08:11:50.742Z</time>
      </trkpt>
      <trkpt lat="46.5583" lon="5.45296">
        <ele>551</ele>
        <time>2021-05-29T08:11:51.742Z</time>
      </trkpt>
      <trkpt lat="46.55829" lon="5.45293">
        <ele>552</ele>
        <time>2021-05-29T08:11:52.742Z</time>
      </trkpt>
      <trkpt lat="46.55828" lon="5.45291">
        <ele>552</ele>
        <time>2021-05-29T08:11:53.741Z</time>
      </trkpt>
      <trkpt lat="46.55826" lon="5.45289">
        <ele>552</ele>
        <time>2021-05-29T08:11:54.742Z</time>
      </trkpt>
      <trkpt lat="46.55824" lon="5.45287">
        <ele>552</ele>
        <time>2021-05-29T08:11:55.742Z</time>
      </trkpt>
      <trkpt lat="46.55823" lon="5.45284">
        <ele>552</ele>
        <time>2021-05-29T08:11:56.742Z</time>
      </trkpt>
      <trkpt lat="46.55822" lon="5.45282">
        <ele>552</ele>
        <time>2021-05-29T08:11:57.741Z</time>
      </trkpt>
      <trkpt lat="46.55821" lon="5.45279">
        <ele>552</ele>
        <time>2021-05-29T08:11:58.742Z</time>
      </trkpt>
      <trkpt lat="46.5582" lon="5.45277">
        <ele>552</ele>
        <time>2021-05-29T08:11:59.742Z</time>
      </trkpt>
      <trkpt lat="46.5582" lon="5.45275">
        <ele>552</ele>
        <time>2021-05-29T08:12:00.742Z</time>
      </trkpt>
      <trkpt lat="46.55819" lon="5.45275">
        <ele>552</ele>
        <time>2021-05-29T08:12:01.742Z</time>
      </trkpt>
      <trkpt lat="46.5582" lon="5.45275">
        <ele>552</ele>
        <time>2021-05-29T08:12:02.741Z</time>
      </trkpt>
      <trkpt lat="46.5582" lon="5.45275">
        <ele>552</ele>
        <time>2021-05-29T08:12:03.742Z</time>
      </trkpt>
      <trkpt lat="46.55821" lon="5.45276">
        <ele>552</ele>
        <time>2021-05-29T08:12:04.742Z</time>
      </trkpt>
      <trkpt lat="46.55821" lon="5.45278">
        <ele>552</ele>
        <time>2021-05-29T08:12:05.741Z</time>
      </trkpt>
      <trkpt lat="46.55823" lon="5.4528">
        <ele>552</ele>
        <time>2021-05-29T08:12:06.742Z</time>
      </trkpt>
      <trkpt lat="46.55824" lon="5.45281">
        <ele>552</ele>
        <time>2021-05-29T08:12:07.742Z</time>
      </trkpt>
      <trkpt lat="46.55824" lon="5.45283">
        <ele>552</ele>
        <time>2021-05-29T08:12:08.742Z</time>
      </trkpt>
      <trkpt lat="46.55825" lon="5.45285">
        <ele>552</ele>
        <time>2021-05-29T08:12:09.742Z</time>
      </trkpt>
      <trkpt lat="46.55826" lon="5.45287">
        <ele>552</ele>
        <time>2021-05-29T08:12:10.742Z</time>
      </trkpt>
      <trkpt lat="46.55826" lon="5.4529">
        <ele>552</ele>
        <time>2021-05-29T08:12:11.742Z</time>
      </trkpt>
      <trkpt lat="46.55827" lon="5.45292">
        <ele>552</ele>
        <time>2021-05-29T08:12:12.741Z</time>
      </trkpt>
      <trkpt lat="46.55828" lon="5.45294">
        <ele>552</ele>
        <time>2021-05-29T08:12:13.742Z</time>
      </trkpt>
      <trkpt lat="46.55829" lon="5.45297">
        <ele>552</ele>
        <time>2021-05-29T08:12:14.741Z</time>
      </trkpt>
      <trkpt lat="46.5583" lon="5.45298">
        <ele>552</ele>
        <time>2021-05-29T08:12:15.742Z</time>
      </trkpt>
      <trkpt lat="46.55832" lon="5.453">
        <ele>552</ele>
        <time>2021-05-29T08:12:16.741Z</time>
      </trkpt>
      <trkpt lat="46.55833" lon="5.45303">
        <ele>552</ele>
        <time>2021-05-29T08:12:17.742Z</time>
      </trkpt>
      <trkpt lat="46.55833" lon="5.45304">
        <ele>552</ele>
        <time>2021-05-29T08:12:18.742Z</time>
      </trkpt>
      <trkpt lat="46.55834" lon="5.45306">
        <ele>552</ele>
        <time>2021-05-29T08:12:19.742Z</time>
      </trkpt>
      <trkpt lat="46.55836" lon="5.45308">
        <ele>552</ele>
        <time>2021-05-29T08:12:20.741Z</time>
      </trkpt>
      <trkpt lat="46.55837" lon="5.4531">
        <ele>552</ele>
        <time>2021-05-29T08:12:21.742Z</time>
      </trkpt>
      <trkpt lat="46.55838" lon="5.45312">
        <ele>552</ele>
        <time>2021-05-29T08:12:22.742Z</time>
      </trkpt>
      <trkpt lat="46.55839" lon="5.45314">
        <ele>552</ele>
        <time>2021-05-29T08:12:23.742Z</time>
      </trkpt>
      <trkpt lat="46.5584" lon="5.45316">
        <ele>552</ele>
        <time>2021-05-29T08:12:24.742Z</time>
      </trkpt>
      <trkpt lat="46.55841" lon="5.45318">
        <ele>552</ele>
        <time>2021-05-29T08:12:25.742Z</time>
      </trkpt>
      <trkpt lat="46.55842" lon="5.45321">
        <ele>552</ele>
        <time>2021-05-29T08:12:26.742Z</time>
      </trkpt>
      <trkpt lat="46.55843" lon="5.45324">
        <ele>552</ele>
        <time>2021-05-29T08:12:27.742Z</time>
      </trkpt>
      <trkpt lat="46.55844" lon="5.45326">
        <ele>552</ele>
        <time>2021-05-29T08:12:28.742Z</time>
      </trkpt>
      <trkpt lat="46.55846" lon="5.45329">
        <ele>552</ele>
        <time>2021-05-29T08:12:29.741Z</time>
      </trkpt>
      <trkpt lat="46.55846" lon="5.45331">
        <ele>551</ele>
        <time>2021-05-29T08:12:30.742Z</time>
      </trkpt>
      <trkpt lat="46.55847" lon="5.45334">
        <ele>551</ele>
        <time>2021-05-29T08:12:31.741Z</time>
      </trkpt>
      <trkpt lat="46.55848" lon="5.45337">
        <ele>551</ele>
        <time>2021-05-29T08:12:32.742Z</time>
      </trkpt>
      <trkpt lat="46.55849" lon="5.4534">
        <ele>551</ele>
        <time>2021-05-29T08:12:33.742Z</time>
      </trkpt>
      <trkpt lat="46.5585" lon="5.45342">
        <ele>551</ele>
        <time>2021-05-29T08:12:34.741Z</time>
      </trkpt>
      <trkpt lat="46.55851" lon="5.45344">
        <ele>550</ele>
        <time>2021-05-29T08:12:35.742Z</time>
      </trkpt>
      <trkpt lat="46.55853" lon="5.45346">
        <ele>551</ele>
        <time>2021-05-29T08:12:36.741Z</time>
      </trkpt>
      <trkpt lat="46.55854" lon="5.45348">
        <ele>551</ele>
        <time>2021-05-29T08:12:37.741Z</time>
      </trkpt>
      <trkpt lat="46.55856" lon="5.45351">
        <ele>551</ele>
        <time>2021-05-29T08:12:38.741Z</time>
      </trkpt>
      <trkpt lat="46.55858" lon="5.45353">
        <ele>551</ele>
        <time>2021-05-29T08:12:39.741Z</time>
      </trkpt>
      <trkpt lat="46.5586" lon="5.45356">
        <ele>551</ele>
        <time>2021-05-29T08:12:40.742Z</time>
      </trkpt>
      <trkpt lat="46.55862" lon="5.45359">
        <ele>551</ele>
        <time>2021-05-29T08:12:41.742Z</time>
      </trkpt>
      <trkpt lat="46.55864" lon="5.45362">
        <ele>551</ele>
        <time>2021-05-29T08:12:42.742Z</time>
      </trkpt>
      <trkpt lat="46.55865" lon="5.45364">
        <ele>551</ele>
        <time>2021-05-29T08:12:43.742Z</time>
      </trkpt>
      <trkpt lat="46.55866" lon="5.45367">
        <ele>551</ele>
        <time>2021-05-29T08:12:44.742Z</time>
      </trkpt>
      <trkpt lat="46.55868" lon="5.45372">
        <ele>551</ele>
        <time>2021-05-29T08:12:45.742Z</time>
      </trkpt>
      <trkpt lat="46.5587" lon="5.45377">
        <ele>551</ele>
        <time>2021-05-29T08:12:46.742Z</time>
      </trkpt>
      <trkpt lat="46.55871" lon="5.45381">
        <ele>551</ele>
        <time>2021-05-29T08:12:47.741Z</time>
      </trkpt>
      <trkpt lat="46.55873" lon="5.45384">
        <ele>551</ele>
        <time>2021-05-29T08:12:48.742Z</time>
      </trkpt>
      <trkpt lat="46.55874" lon="5.45386">
        <ele>551</ele>
        <time>2021-05-29T08:12:49.742Z</time>
      </trkpt>
      <trkpt lat="46.55876" lon="5.45389">
        <ele>552</ele>
        <time>2021-05-29T08:12:50.742Z</time>
      </trkpt>
      <trkpt lat="46.55877" lon="5.45391">
        <ele>552</ele>
        <time>2021-05-29T08:12:51.742Z</time>
      </trkpt>
      <trkpt lat="46.55879" lon="5.45393">
        <ele>552</ele>
        <time>2021-05-29T08:12:52.742Z</time>
      </trkpt>
      <trkpt lat="46.55881" lon="5.45397">
        <ele>552</ele>
        <time>2021-05-29T08:12:53.742Z</time>
      </trkpt>
      <trkpt lat="46.55883" lon="5.454">
        <ele>552</ele>
        <time>2021-05-29T08:12:54.742Z</time>
      </trkpt>
      <trkpt lat="46.55884" lon="5.45402">
        <ele>552</ele>
        <time>2021-05-29T08:12:55.742Z</time>
      </trkpt>
      <trkpt lat="46.55886" lon="5.45405">
        <ele>552</ele>
        <time>2021-05-29T08:12:56.741Z</time>
      </trkpt>
      <trkpt lat="46.55887" lon="5.45407">
        <ele>552</ele>
        <time>2021-05-29T08:12:57.742Z</time>
      </trkpt>
      <trkpt lat="46.55888" lon="5.45409">
        <ele>552</ele>
        <time>2021-05-29T08:12:58.742Z</time>
      </trkpt>
      <trkpt lat="46.55889" lon="5.45412">
        <ele>552</ele>
        <time>2021-05-29T08:12:59.741Z</time>
      </trkpt>
      <trkpt lat="46.5589" lon="5.45414">
        <ele>552</ele>
        <time>2021-05-29T08:13:00.741Z</time>
      </trkpt>
      <trkpt lat="46.55891" lon="5.45416">
        <ele>552</ele>
        <time>2021-05-29T08:13:01.742Z</time>
      </trkpt>
      <trkpt lat="46.55892" lon="5.45418">
        <ele>552</ele>
        <time>2021-05-29T08:13:02.741Z</time>
      </trkpt>
      <trkpt lat="46.55893" lon="5.45421">
        <ele>552</ele>
        <time>2021-05-29T08:13:03.741Z</time>
      </trkpt>
      <trkpt lat="46.55895" lon="5.45423">
        <ele>552</ele>
        <time>2021-05-29T08:13:04.742Z</time>
      </trkpt>
      <trkpt lat="46.55897" lon="5.45426">
        <ele>552</ele>
        <time>2021-05-29T08:13:05.742Z</time>
      </trkpt>
      <trkpt lat="46.55899" lon="5.45428">
        <ele>552</ele>
        <time>2021-05-29T08:13:06.742Z</time>
      </trkpt>
      <trkpt lat="46.559" lon="5.45431">
        <ele>552</ele>
        <time>2021-05-29T08:13:07.742Z</time>
      </trkpt>
      <trkpt lat="46.55902" lon="5.45433">
        <ele>552</ele>
        <time>2021-05-29T08:13:08.742Z</time>
      </trkpt>
      <trkpt lat="46.55903" lon="5.45435">
        <ele>552</ele>
        <time>2021-05-29T08:13:09.742Z</time>
      </trkpt>
      <trkpt lat="46.55903" lon="5.45437">
        <ele>552</ele>
        <time>2021-05-29T08:13:10.742Z</time>
      </trkpt>
      <trkpt lat="46.55905" lon="5.45439">
        <ele>553</ele>
        <time>2021-05-29T08:13:11.742Z</time>
      </trkpt>
      <trkpt lat="46.55907" lon="5.45442">
        <ele>553</ele>
        <time>2021-05-29T08:13:12.741Z</time>
      </trkpt>
      <trkpt lat="46.55909" lon="5.45444">
        <ele>553</ele>
        <time>2021-05-29T08:13:13.742Z</time>
      </trkpt>
      <trkpt lat="46.5591" lon="5.45447">
        <ele>553</ele>
        <time>2021-05-29T08:13:14.742Z</time>
      </trkpt>
      <trkpt lat="46.55912" lon="5.45451">
        <ele>553</ele>
        <time>2021-05-29T08:13:15.742Z</time>
      </trkpt>
      <trkpt lat="46.55914" lon="5.45455">
        <ele>553</ele>
        <time>2021-05-29T08:13:16.742Z</time>
      </trkpt>
      <trkpt lat="46.55916" lon="5.45457">
        <ele>553</ele>
        <time>2021-05-29T08:13:17.742Z</time>
      </trkpt>
      <trkpt lat="46.55918" lon="5.45459">
        <ele>553</ele>
        <time>2021-05-29T08:13:18.742Z</time>
      </trkpt>
      <trkpt lat="46.5592" lon="5.4546">
        <ele>553</ele>
        <time>2021-05-29T08:13:19.742Z</time>
      </trkpt>
      <trkpt lat="46.55921" lon="5.45462">
        <ele>554</ele>
        <time>2021-05-29T08:13:20.742Z</time>
      </trkpt>
      <trkpt lat="46.55922" lon="5.45464">
        <ele>553</ele>
        <time>2021-05-29T08:13:21.742Z</time>
      </trkpt>
      <trkpt lat="46.55924" lon="5.45466">
        <ele>554</ele>
        <time>2021-05-29T08:13:22.742Z</time>
      </trkpt>
      <trkpt lat="46.55925" lon="5.45468">
        <ele>554</ele>
        <time>2021-05-29T08:13:23.742Z</time>
      </trkpt>
      <trkpt lat="46.55927" lon="5.4547">
        <ele>554</ele>
        <time>2021-05-29T08:13:24.742Z</time>
      </trkpt>
      <trkpt lat="46.55929" lon="5.45473">
        <ele>554</ele>
        <time>2021-05-29T08:13:25.741Z</time>
      </trkpt>
      <trkpt lat="46.5593" lon="5.45475">
        <ele>554</ele>
        <time>2021-05-29T08:13:26.742Z</time>
      </trkpt>
      <trkpt lat="46.55932" lon="5.45476">
        <ele>554</ele>
        <time>2021-05-29T08:13:27.742Z</time>
      </trkpt>
      <trkpt lat="46.55934" lon="5.45479">
        <ele>554</ele>
        <time>2021-05-29T08:13:28.741Z</time>
      </trkpt>
      <trkpt lat="46.55936" lon="5.45481">
        <ele>554</ele>
        <time>2021-05-29T08:13:29.742Z</time>
      </trkpt>
      <trkpt lat="46.55939" lon="5.45484">
        <ele>554</ele>
        <time>2021-05-29T08:13:30.742Z</time>
      </trkpt>
      <trkpt lat="46.55941" lon="5.45488">
        <ele>554</ele>
        <time>2021-05-29T08:13:31.742Z</time>
      </trkpt>
      <trkpt lat="46.55943" lon="5.45492">
        <ele>554</ele>
        <time>2021-05-29T08:13:32.742Z</time>
      </trkpt>
      <trkpt lat="46.55945" lon="5.45494">
        <ele>554</ele>
        <time>2021-05-29T08:13:33.741Z</time>
      </trkpt>
      <trkpt lat="46.55947" lon="5.45497">
        <ele>554</ele>
        <time>2021-05-29T08:13:34.742Z</time>
      </trkpt>
      <trkpt lat="46.55949" lon="5.45499">
        <ele>554</ele>
        <time>2021-05-29T08:13:35.742Z</time>
      </trkpt>
      <trkpt lat="46.55951" lon="5.45501">
        <ele>554</ele>
        <time>2021-05-29T08:13:36.742Z</time>
      </trkpt>
      <trkpt lat="46.55953" lon="5.45504">
        <ele>554</ele>
        <time>2021-05-29T08:13:37.742Z</time>
      </trkpt>
      <trkpt lat="46.55955" lon="5.45506">
        <ele>554</ele>
        <time>2021-05-29T08:13:38.742Z</time>
      </trkpt>
      <trkpt lat="46.55957" lon="5.45507">
        <ele>554</ele>
        <time>2021-05-29T08:13:39.741Z</time>
      </trkpt>
      <trkpt lat="46.55959" lon="5.45509">
        <ele>554</ele>
        <time>2021-05-29T08:13:40.741Z</time>
      </trkpt>
      <trkpt lat="46.55963" lon="5.45512">
        <ele>554</ele>
        <time>2021-05-29T08:13:41.741Z</time>
      </trkpt>
      <trkpt lat="46.55966" lon="5.45515">
        <ele>554</ele>
        <time>2021-05-29T08:13:42.742Z</time>
      </trkpt>
      <trkpt lat="46.55968" lon="5.45517">
        <ele>553</ele>
        <time>2021-05-29T08:13:43.741Z</time>
      </trkpt>
      <trkpt lat="46.5597" lon="5.45519">
        <ele>553</ele>
        <time>2021-05-29T08:13:44.742Z</time>
      </trkpt>
      <trkpt lat="46.55971" lon="5.45521">
        <ele>553</ele>
        <time>2021-05-29T08:13:45.742Z</time>
      </trkpt>
      <trkpt lat="46.55972" lon="5.45523">
        <ele>553</ele>
        <time>2021-05-29T08:13:46.741Z</time>
      </trkpt>
      <trkpt lat="46.55974" lon="5.45525">
        <ele>553</ele>
        <time>2021-05-29T08:13:47.742Z</time>
      </trkpt>
      <trkpt lat="46.55975" lon="5.45526">
        <ele>553</ele>
        <time>2021-05-29T08:13:48.741Z</time>
      </trkpt>
      <trkpt lat="46.55977" lon="5.45528">
        <ele>553</ele>
        <time>2021-05-29T08:13:49.741Z</time>
      </trkpt>
      <trkpt lat="46.55979" lon="5.45531">
        <ele>553</ele>
        <time>2021-05-29T08:13:50.742Z</time>
      </trkpt>
      <trkpt lat="46.55982" lon="5.45534">
        <ele>553</ele>
        <time>2021-05-29T08:13:51.742Z</time>
      </trkpt>
      <trkpt lat="46.55984" lon="5.45536">
        <ele>553</ele>
        <time>2021-05-29T08:13:52.742Z</time>
      </trkpt>
      <trkpt lat="46.55985" lon="5.45537">
        <ele>553</ele>
        <time>2021-05-29T08:13:53.741Z</time>
      </trkpt>
      <trkpt lat="46.55987" lon="5.45539">
        <ele>554</ele>
        <time>2021-05-29T08:13:54.742Z</time>
      </trkpt>
      <trkpt lat="46.55988" lon="5.45541">
        <ele>554</ele>
        <time>2021-05-29T08:13:55.742Z</time>
      </trkpt>
      <trkpt lat="46.55989" lon="5.45543">
        <ele>554</ele>
        <time>2021-05-29T08:13:56.742Z</time>
      </trkpt>
      <trkpt lat="46.5599" lon="5.45545">
        <ele>554</ele>
        <time>2021-05-29T08:13:57.742Z</time>
      </trkpt>
      <trkpt lat="46.55992" lon="5.45547">
        <ele>554</ele>
        <time>2021-05-29T08:13:58.742Z</time>
      </trkpt>
      <trkpt lat="46.55993" lon="5.45549">
        <ele>554</ele>
        <time>2021-05-29T08:13:59.742Z</time>
      </trkpt>
      <trkpt lat="46.55993" lon="5.45551">
        <ele>554</ele>
        <time>2021-05-29T08:14:00.742Z</time>
      </trkpt>
      <trkpt lat="46.55993" lon="5.45552">
        <ele>555</ele>
        <time>2021-05-29T08:14:01.741Z</time>
      </trkpt>
      <trkpt lat="46.55995" lon="5.45555">
        <ele>555</ele>
        <time>2021-05-29T08:14:02.742Z</time>
      </trkpt>
      <trkpt lat="46.55997" lon="5.45558">
        <ele>555</ele>
        <time>2021-05-29T08:14:03.741Z</time>
      </trkpt>
      <trkpt lat="46.55999" lon="5.45562">
        <ele>555</ele>
        <time>2021-05-29T08:14:04.742Z</time>
      </trkpt>
      <trkpt lat="46.56001" lon="5.45565">
        <ele>555</ele>
        <time>2021-05-29T08:14:05.742Z</time>
      </trkpt>
      <trkpt lat="46.56003" lon="5.45567">
        <ele>555</ele>
        <time>2021-05-29T08:14:06.742Z</time>
      </trkpt>
      <trkpt lat="46.56004" lon="5.45569">
        <ele>555</ele>
        <time>2021-05-29T08:14:07.742Z</time>
      </trkpt>
      <trkpt lat="46.56006" lon="5.45572">
        <ele>555</ele>
        <time>2021-05-29T08:14:08.741Z</time>
      </trkpt>
      <trkpt lat="46.56009" lon="5.45574">
        <ele>555</ele>
        <time>2021-05-29T08:14:09.741Z</time>
      </trkpt>
      <trkpt lat="46.56011" lon="5.45576">
        <ele>556</ele>
        <time>2021-05-29T08:14:10.741Z</time>
      </trkpt>
      <trkpt lat="46.56013" lon="5.45578">
        <ele>556</ele>
        <time>2021-05-29T08:14:11.742Z</time>
      </trkpt>
      <trkpt lat="46.56015" lon="5.45579">
        <ele>556</ele>
        <time>2021-05-29T08:14:12.741Z</time>
      </trkpt>
      <trkpt lat="46.56016" lon="5.45581">
        <ele>556</ele>
        <time>2021-05-29T08:14:13.742Z</time>
      </trkpt>
      <trkpt lat="46.56017" lon="5.45583">
        <ele>556</ele>
        <time>2021-05-29T08:14:14.742Z</time>
      </trkpt>
      <trkpt lat="46.56018" lon="5.45585">
        <ele>556</ele>
        <time>2021-05-29T08:14:15.741Z</time>
      </trkpt>
      <trkpt lat="46.56019" lon="5.45586">
        <ele>556</ele>
        <time>2021-05-29T08:14:16.742Z</time>
      </trkpt>
      <trkpt lat="46.56021" lon="5.45587">
        <ele>556</ele>
        <time>2021-05-29T08:14:17.742Z</time>
      </trkpt>
      <trkpt lat="46.56023" lon="5.45588">
        <ele>556</ele>
        <time>2021-05-29T08:14:18.742Z</time>
      </trkpt>
      <trkpt lat="46.56025" lon="5.45589">
        <ele>555</ele>
        <time>2021-05-29T08:14:19.742Z</time>
      </trkpt>
      <trkpt lat="46.56026" lon="5.45589">
        <ele>556</ele>
        <time>2021-05-29T08:14:20.742Z</time>
      </trkpt>
      <trkpt lat="46.56028" lon="5.4559">
        <ele>556</ele>
        <time>2021-05-29T08:14:21.742Z</time>
      </trkpt>
      <trkpt lat="46.56029" lon="5.45591">
        <ele>556</ele>
        <time>2021-05-29T08:14:22.742Z</time>
      </trkpt>
      <trkpt lat="46.56031" lon="5.45592">
        <ele>556</ele>
        <time>2021-05-29T08:14:23.741Z</time>
      </trkpt>
      <trkpt lat="46.56032" lon="5.45593">
        <ele>556</ele>
        <time>2021-05-29T08:14:24.742Z</time>
      </trkpt>
      <trkpt lat="46.56033" lon="5.45594">
        <ele>555</ele>
        <time>2021-05-29T08:14:25.742Z</time>
      </trkpt>
      <trkpt lat="46.56035" lon="5.45594">
        <ele>556</ele>
        <time>2021-05-29T08:14:26.741Z</time>
      </trkpt>
      <trkpt lat="46.56037" lon="5.45594">
        <ele>556</ele>
        <time>2021-05-29T08:14:27.742Z</time>
      </trkpt>
      <trkpt lat="46.56039" lon="5.45594">
        <ele>556</ele>
        <time>2021-05-29T08:14:28.742Z</time>
      </trkpt>
      <trkpt lat="46.56042" lon="5.45594">
        <ele>557</ele>
        <time>2021-05-29T08:14:29.742Z</time>
      </trkpt>
      <trkpt lat="46.56044" lon="5.45593">
        <ele>557</ele>
        <time>2021-05-29T08:14:30.742Z</time>
      </trkpt>
      <trkpt lat="46.56047" lon="5.45593">
        <ele>558</ele>
        <time>2021-05-29T08:14:31.742Z</time>
      </trkpt>
      <trkpt lat="46.5605" lon="5.45592">
        <ele>558</ele>
        <time>2021-05-29T08:14:32.742Z</time>
      </trkpt>
      <trkpt lat="46.56054" lon="5.45592">
        <ele>558</ele>
        <time>2021-05-29T08:14:33.742Z</time>
      </trkpt>
      <trkpt lat="46.56059" lon="5.45593">
        <ele>559</ele>
        <time>2021-05-29T08:14:34.741Z</time>
      </trkpt>
      <trkpt lat="46.56064" lon="5.45593">
        <ele>559</ele>
        <time>2021-05-29T08:14:35.742Z</time>
      </trkpt>
      <trkpt lat="46.56069" lon="5.45593">
        <ele>559</ele>
        <time>2021-05-29T08:14:36.742Z</time>
      </trkpt>
      <trkpt lat="46.56073" lon="5.45594">
        <ele>558</ele>
        <time>2021-05-29T08:14:37.742Z</time>
      </trkpt>
      <trkpt lat="46.56076" lon="5.45595">
        <ele>558</ele>
        <time>2021-05-29T08:14:38.742Z</time>
      </trkpt>
      <trkpt lat="46.56078" lon="5.45597">
        <ele>558</ele>
        <time>2021-05-29T08:14:39.742Z</time>
      </trkpt>
      <trkpt lat="46.5608" lon="5.45598">
        <ele>557</ele>
        <time>2021-05-29T08:14:40.742Z</time>
      </trkpt>
      <trkpt lat="46.56082" lon="5.45599">
        <ele>557</ele>
        <time>2021-05-29T08:14:41.742Z</time>
      </trkpt>
      <trkpt lat="46.56084" lon="5.456">
        <ele>556</ele>
        <time>2021-05-29T08:14:42.741Z</time>
      </trkpt>
      <trkpt lat="46.56086" lon="5.456">
        <ele>556</ele>
        <time>2021-05-29T08:14:43.742Z</time>
      </trkpt>
      <trkpt lat="46.56087" lon="5.45599">
        <ele>556</ele>
        <time>2021-05-29T08:14:44.742Z</time>
      </trkpt>
      <trkpt lat="46.5609" lon="5.45598">
        <ele>555</ele>
        <time>2021-05-29T08:14:45.742Z</time>
      </trkpt>
      <trkpt lat="46.56092" lon="5.45597">
        <ele>555</ele>
        <time>2021-05-29T08:14:46.742Z</time>
      </trkpt>
      <trkpt lat="46.56094" lon="5.45595">
        <ele>555</ele>
        <time>2021-05-29T08:14:47.742Z</time>
      </trkpt>
      <trkpt lat="46.56096" lon="5.45595">
        <ele>555</ele>
        <time>2021-05-29T08:14:48.742Z</time>
      </trkpt>
      <trkpt lat="46.56099" lon="5.45594">
        <ele>555</ele>
        <time>2021-05-29T08:14:49.742Z</time>
      </trkpt>
      <trkpt lat="46.56101" lon="5.45594">
        <ele>556</ele>
        <time>2021-05-29T08:14:50.742Z</time>
      </trkpt>
      <trkpt lat="46.56103" lon="5.45594">
        <ele>556</ele>
        <time>2021-05-29T08:14:51.742Z</time>
      </trkpt>
      <trkpt lat="46.56105" lon="5.45593">
        <ele>556</ele>
        <time>2021-05-29T08:14:52.742Z</time>
      </trkpt>
      <trkpt lat="46.56108" lon="5.45594">
        <ele>556</ele>
        <time>2021-05-29T08:14:53.742Z</time>
      </trkpt>
      <trkpt lat="46.5611" lon="5.45595">
        <ele>556</ele>
        <time>2021-05-29T08:14:54.742Z</time>
      </trkpt>
      <trkpt lat="46.56112" lon="5.45597">
        <ele>556</ele>
        <time>2021-05-29T08:14:55.742Z</time>
      </trkpt>
      <trkpt lat="46.56114" lon="5.45599">
        <ele>556</ele>
        <time>2021-05-29T08:14:56.742Z</time>
      </trkpt>
      <trkpt lat="46.56115" lon="5.45603">
        <ele>555</ele>
        <time>2021-05-29T08:14:57.741Z</time>
      </trkpt>
      <trkpt lat="46.56117" lon="5.45606">
        <ele>555</ele>
        <time>2021-05-29T08:14:58.742Z</time>
      </trkpt>
      <trkpt lat="46.56119" lon="5.45608">
        <ele>555</ele>
        <time>2021-05-29T08:14:59.742Z</time>
      </trkpt>
      <trkpt lat="46.5612" lon="5.45611">
        <ele>555</ele>
        <time>2021-05-29T08:15:00.742Z</time>
      </trkpt>
      <trkpt lat="46.5612" lon="5.45613">
        <ele>554</ele>
        <time>2021-05-29T08:15:01.742Z</time>
      </trkpt>
      <trkpt lat="46.5612" lon="5.45615">
        <ele>554</ele>
        <time>2021-05-29T08:15:02.742Z</time>
      </trkpt>
      <trkpt lat="46.56121" lon="5.45618">
        <ele>554</ele>
        <time>2021-05-29T08:15:03.742Z</time>
      </trkpt>
      <trkpt lat="46.56121" lon="5.45621">
        <ele>553</ele>
        <time>2021-05-29T08:15:04.742Z</time>
      </trkpt>
      <trkpt lat="46.56122" lon="5.45624">
        <ele>553</ele>
        <time>2021-05-29T08:15:05.742Z</time>
      </trkpt>
      <trkpt lat="46.56123" lon="5.45627">
        <ele>553</ele>
        <time>2021-05-29T08:15:06.742Z</time>
      </trkpt>
      <trkpt lat="46.56124" lon="5.45629">
        <ele>552</ele>
        <time>2021-05-29T08:15:07.742Z</time>
      </trkpt>
      <trkpt lat="46.56125" lon="5.45631">
        <ele>552</ele>
        <time>2021-05-29T08:15:08.742Z</time>
      </trkpt>
      <trkpt lat="46.56126" lon="5.45634">
        <ele>552</ele>
        <time>2021-05-29T08:15:09.742Z</time>
      </trkpt>
      <trkpt lat="46.56127" lon="5.45637">
        <ele>552</ele>
        <time>2021-05-29T08:15:10.742Z</time>
      </trkpt>
      <trkpt lat="46.56128" lon="5.4564">
        <ele>552</ele>
        <time>2021-05-29T08:15:11.742Z</time>
      </trkpt>
      <trkpt lat="46.56129" lon="5.45642">
        <ele>552</ele>
        <time>2021-05-29T08:15:12.742Z</time>
      </trkpt>
      <trkpt lat="46.56131" lon="5.45645">
        <ele>553</ele>
        <time>2021-05-29T08:15:13.742Z</time>
      </trkpt>
      <trkpt lat="46.56133" lon="5.45649">
        <ele>553</ele>
        <time>2021-05-29T08:15:14.741Z</time>
      </trkpt>
      <trkpt lat="46.56134" lon="5.45652">
        <ele>554</ele>
        <time>2021-05-29T08:15:15.742Z</time>
      </trkpt>
      <trkpt lat="46.56135" lon="5.45655">
        <ele>554</ele>
        <time>2021-05-29T08:15:16.742Z</time>
      </trkpt>
      <trkpt lat="46.56136" lon="5.45659">
        <ele>554</ele>
        <time>2021-05-29T08:15:17.742Z</time>
      </trkpt>
      <trkpt lat="46.56136" lon="5.45662">
        <ele>554</ele>
        <time>2021-05-29T08:15:18.742Z</time>
      </trkpt>
      <trkpt lat="46.56137" lon="5.45666">
        <ele>554</ele>
        <time>2021-05-29T08:15:19.741Z</time>
      </trkpt>
      <trkpt lat="46.56138" lon="5.4567">
        <ele>554</ele>
        <time>2021-05-29T08:15:20.742Z</time>
      </trkpt>
      <trkpt lat="46.56139" lon="5.45673">
        <ele>553</ele>
        <time>2021-05-29T08:15:21.741Z</time>
      </trkpt>
      <trkpt lat="46.56139" lon="5.45676">
        <ele>553</ele>
        <time>2021-05-29T08:15:22.742Z</time>
      </trkpt>
      <trkpt lat="46.5614" lon="5.4568">
        <ele>552</ele>
        <time>2021-05-29T08:15:23.741Z</time>
      </trkpt>
      <trkpt lat="46.5614" lon="5.45683">
        <ele>552</ele>
        <time>2021-05-29T08:15:24.742Z</time>
      </trkpt>
      <trkpt lat="46.56141" lon="5.45686">
        <ele>551</ele>
        <time>2021-05-29T08:15:25.742Z</time>
      </trkpt>
      <trkpt lat="46.56142" lon="5.45688">
        <ele>551</ele>
        <time>2021-05-29T08:15:26.742Z</time>
      </trkpt>
      <trkpt lat="46.56142" lon="5.4569">
        <ele>551</ele>
        <time>2021-05-29T08:15:27.741Z</time>
      </trkpt>
      <trkpt lat="46.56142" lon="5.45692">
        <ele>551</ele>
        <time>2021-05-29T08:15:28.742Z</time>
      </trkpt>
      <trkpt lat="46.56142" lon="5.45694">
        <ele>550</ele>
        <time>2021-05-29T08:15:29.742Z</time>
      </trkpt>
      <trkpt lat="46.56142" lon="5.45697">
        <ele>550</ele>
        <time>2021-05-29T08:15:30.742Z</time>
      </trkpt>
      <trkpt lat="46.56142" lon="5.457">
        <ele>550</ele>
        <time>2021-05-29T08:15:31.742Z</time>
      </trkpt>
      <trkpt lat="46.56141" lon="5.45702">
        <ele>549</ele>
        <time>2021-05-29T08:15:32.742Z</time>
      </trkpt>
      <trkpt lat="46.56141" lon="5.45704">
        <ele>549</ele>
        <time>2021-05-29T08:15:33.742Z</time>
      </trkpt>
      <trkpt lat="46.5614" lon="5.45707">
        <ele>549</ele>
        <time>2021-05-29T08:15:34.742Z</time>
      </trkpt>
      <trkpt lat="46.56141" lon="5.45709">
        <ele>549</ele>
        <time>2021-05-29T08:15:35.742Z</time>
      </trkpt>
      <trkpt lat="46.56141" lon="5.45712">
        <ele>549</ele>
        <time>2021-05-29T08:15:36.742Z</time>
      </trkpt>
      <trkpt lat="46.56141" lon="5.45714">
        <ele>549</ele>
        <time>2021-05-29T08:15:37.741Z</time>
      </trkpt>
      <trkpt lat="46.56141" lon="5.45717">
        <ele>549</ele>
        <time>2021-05-29T08:15:38.742Z</time>
      </trkpt>
      <trkpt lat="46.5614" lon="5.45719">
        <ele>549</ele>
        <time>2021-05-29T08:15:39.742Z</time>
      </trkpt>
      <trkpt lat="46.5614" lon="5.45722">
        <ele>549</ele>
        <time>2021-05-29T08:15:40.742Z</time>
      </trkpt>
      <trkpt lat="46.56141" lon="5.45725">
        <ele>549</ele>
        <time>2021-05-29T08:15:41.742Z</time>
      </trkpt>
      <trkpt lat="46.56142" lon="5.45728">
        <ele>549</ele>
        <time>2021-05-29T08:15:42.742Z</time>
      </trkpt>
      <trkpt lat="46.56143" lon="5.4573">
        <ele>549</ele>
        <time>2021-05-29T08:15:43.742Z</time>
      </trkpt>
      <trkpt lat="46.56144" lon="5.45734">
        <ele>549</ele>
        <time>2021-05-29T08:15:44.742Z</time>
      </trkpt>
      <trkpt lat="46.56144" lon="5.45737">
        <ele>549</ele>
        <time>2021-05-29T08:15:45.742Z</time>
      </trkpt>
      <trkpt lat="46.56144" lon="5.4574">
        <ele>549</ele>
        <time>2021-05-29T08:15:46.742Z</time>
      </trkpt>
      <trkpt lat="46.56144" lon="5.45743">
        <ele>549</ele>
        <time>2021-05-29T08:15:47.742Z</time>
      </trkpt>
      <trkpt lat="46.56144" lon="5.45746">
        <ele>550</ele>
        <time>2021-05-29T08:15:48.742Z</time>
      </trkpt>
      <trkpt lat="46.56144" lon="5.4575">
        <ele>550</ele>
        <time>2021-05-29T08:15:49.742Z</time>
      </trkpt>
      <trkpt lat="46.56144" lon="5.45753">
        <ele>550</ele>
        <time>2021-05-29T08:15:50.742Z</time>
      </trkpt>
      <trkpt lat="46.56143" lon="5.45757">
        <ele>550</ele>
        <time>2021-05-29T08:15:51.741Z</time>
      </trkpt>
      <trkpt lat="46.56144" lon="5.4576">
        <ele>550</ele>
        <time>2021-05-29T08:15:52.742Z</time>
      </trkpt>
      <trkpt lat="46.56144" lon="5.45763">
        <ele>551</ele>
        <time>2021-05-29T08:15:53.742Z</time>
      </trkpt>
      <trkpt lat="46.56145" lon="5.45766">
        <ele>551</ele>
        <time>2021-05-29T08:15:54.742Z</time>
      </trkpt>
      <trkpt lat="46.56146" lon="5.45769">
        <ele>551</ele>
        <time>2021-05-29T08:15:55.742Z</time>
      </trkpt>
      <trkpt lat="46.56147" lon="5.45772">
        <ele>551</ele>
        <time>2021-05-29T08:15:56.742Z</time>
      </trkpt>
      <trkpt lat="46.56149" lon="5.45775">
        <ele>551</ele>
        <time>2021-05-29T08:15:57.742Z</time>
      </trkpt>
      <trkpt lat="46.56151" lon="5.45777">
        <ele>551</ele>
        <time>2021-05-29T08:15:58.742Z</time>
      </trkpt>
      <trkpt lat="46.56153" lon="5.4578">
        <ele>551</ele>
        <time>2021-05-29T08:15:59.742Z</time>
      </trkpt>
      <trkpt lat="46.56155" lon="5.45784">
        <ele>551</ele>
        <time>2021-05-29T08:16:00.741Z</time>
      </trkpt>
      <trkpt lat="46.56157" lon="5.45787">
        <ele>551</ele>
        <time>2021-05-29T08:16:01.741Z</time>
      </trkpt>
      <trkpt lat="46.56159" lon="5.45791">
        <ele>551</ele>
        <time>2021-05-29T08:16:02.742Z</time>
      </trkpt>
      <trkpt lat="46.56161" lon="5.45794">
        <ele>551</ele>
        <time>2021-05-29T08:16:03.741Z</time>
      </trkpt>
      <trkpt lat="46.56162" lon="5.45798">
        <ele>551</ele>
        <time>2021-05-29T08:16:04.742Z</time>
      </trkpt>
      <trkpt lat="46.56164" lon="5.45801">
        <ele>550</ele>
        <time>2021-05-29T08:16:05.742Z</time>
      </trkpt>
      <trkpt lat="46.56166" lon="5.45804">
        <ele>550</ele>
        <time>2021-05-29T08:16:06.742Z</time>
      </trkpt>
      <trkpt lat="46.56167" lon="5.45808">
        <ele>550</ele>
        <time>2021-05-29T08:16:07.742Z</time>
      </trkpt>
      <trkpt lat="46.56169" lon="5.45811">
        <ele>550</ele>
        <time>2021-05-29T08:16:08.742Z</time>
      </trkpt>
      <trkpt lat="46.56172" lon="5.45814">
        <ele>550</ele>
        <time>2021-05-29T08:16:09.742Z</time>
      </trkpt>
      <trkpt lat="46.56176" lon="5.45818">
        <ele>550</ele>
        <time>2021-05-29T08:16:10.741Z</time>
      </trkpt>
      <trkpt lat="46.56179" lon="5.45822">
        <ele>549</ele>
        <time>2021-05-29T08:16:11.742Z</time>
      </trkpt>
      <trkpt lat="46.56182" lon="5.45827">
        <ele>549</ele>
        <time>2021-05-29T08:16:12.742Z</time>
      </trkpt>
      <trkpt lat="46.56185" lon="5.45831">
        <ele>549</ele>
        <time>2021-05-29T08:16:13.742Z</time>
      </trkpt>
      <trkpt lat="46.56188" lon="5.45835">
        <ele>549</ele>
        <time>2021-05-29T08:16:14.742Z</time>
      </trkpt>
      <trkpt lat="46.56191" lon="5.45838">
        <ele>549</ele>
        <time>2021-05-29T08:16:15.741Z</time>
      </trkpt>
      <trkpt lat="46.56193" lon="5.45843">
        <ele>549</ele>
        <time>2021-05-29T08:16:16.741Z</time>
      </trkpt>
      <trkpt lat="46.56196" lon="5.45846">
        <ele>549</ele>
        <time>2021-05-29T08:16:17.742Z</time>
      </trkpt>
      <trkpt lat="46.56198" lon="5.45849">
        <ele>549</ele>
        <time>2021-05-29T08:16:18.742Z</time>
      </trkpt>
      <trkpt lat="46.562" lon="5.45854">
        <ele>549</ele>
        <time>2021-05-29T08:16:19.742Z</time>
      </trkpt>
      <trkpt lat="46.56202" lon="5.45857">
        <ele>548</ele>
        <time>2021-05-29T08:16:20.741Z</time>
      </trkpt>
      <trkpt lat="46.56204" lon="5.4586">
        <ele>548</ele>
        <time>2021-05-29T08:16:21.742Z</time>
      </trkpt>
      <trkpt lat="46.56206" lon="5.45864">
        <ele>548</ele>
        <time>2021-05-29T08:16:22.742Z</time>
      </trkpt>
      <trkpt lat="46.56209" lon="5.45868">
        <ele>548</ele>
        <time>2021-05-29T08:16:23.742Z</time>
      </trkpt>
      <trkpt lat="46.5621" lon="5.45871">
        <ele>548</ele>
        <time>2021-05-29T08:16:24.742Z</time>
      </trkpt>
      <trkpt lat="46.56212" lon="5.45874">
        <ele>548</ele>
        <time>2021-05-29T08:16:25.742Z</time>
      </trkpt>
      <trkpt lat="46.56213" lon="5.45876">
        <ele>547</ele>
        <time>2021-05-29T08:16:26.742Z</time>
      </trkpt>
      <trkpt lat="46.56215" lon="5.45879">
        <ele>547</ele>
        <time>2021-05-29T08:16:27.742Z</time>
      </trkpt>
      <trkpt lat="46.56216" lon="5.45883">
        <ele>547</ele>
        <time>2021-05-29T08:16:28.742Z</time>
      </trkpt>
      <trkpt lat="46.56217" lon="5.45886">
        <ele>546</ele>
        <time>2021-05-29T08:16:29.742Z</time>
      </trkpt>
      <trkpt lat="46.56219" lon="5.45889">
        <ele>546</ele>
        <time>2021-05-29T08:16:30.742Z</time>
      </trkpt>
      <trkpt lat="46.56222" lon="5.45891">
        <ele>546</ele>
        <time>2021-05-29T08:16:31.742Z</time>
      </trkpt>
      <trkpt lat="46.56225" lon="5.45893">
        <ele>546</ele>
        <time>2021-05-29T08:16:32.741Z</time>
      </trkpt>
      <trkpt lat="46.56228" lon="5.45895">
        <ele>546</ele>
        <time>2021-05-29T08:16:33.742Z</time>
      </trkpt>
      <trkpt lat="46.5623" lon="5.45897">
        <ele>546</ele>
        <time>2021-05-29T08:16:34.742Z</time>
      </trkpt>
      <trkpt lat="46.56231" lon="5.45899">
        <ele>546</ele>
        <time>2021-05-29T08:16:35.742Z</time>
      </trkpt>
      <trkpt lat="46.56232" lon="5.45901">
        <ele>545</ele>
        <time>2021-05-29T08:16:36.742Z</time>
      </trkpt>
      <trkpt lat="46.56233" lon="5.45903">
        <ele>545</ele>
        <time>2021-05-29T08:16:37.742Z</time>
      </trkpt>
      <trkpt lat="46.56234" lon="5.45905">
        <ele>545</ele>
        <time>2021-05-29T08:16:38.741Z</time>
      </trkpt>
      <trkpt lat="46.56235" lon="5.45907">
        <ele>545</ele>
        <time>2021-05-29T08:16:39.742Z</time>
      </trkpt>
      <trkpt lat="46.56237" lon="5.45909">
        <ele>544</ele>
        <time>2021-05-29T08:16:40.741Z</time>
      </trkpt>
      <trkpt lat="46.56239" lon="5.45912">
        <ele>544</ele>
        <time>2021-05-29T08:16:41.742Z</time>
      </trkpt>
      <trkpt lat="46.5624" lon="5.45914">
        <ele>544</ele>
        <time>2021-05-29T08:16:42.742Z</time>
      </trkpt>
      <trkpt lat="46.56241" lon="5.45917">
        <ele>543</ele>
        <time>2021-05-29T08:16:43.742Z</time>
      </trkpt>
      <trkpt lat="46.56243" lon="5.45919">
        <ele>543</ele>
        <time>2021-05-29T08:16:44.742Z</time>
      </trkpt>
      <trkpt lat="46.56244" lon="5.45921">
        <ele>543</ele>
        <time>2021-05-29T08:16:45.741Z</time>
      </trkpt>
      <trkpt lat="46.56246" lon="5.45924">
        <ele>543</ele>
        <time>2021-05-29T08:16:46.741Z</time>
      </trkpt>
      <trkpt lat="46.56249" lon="5.45927">
        <ele>543</ele>
        <time>2021-05-29T08:16:47.742Z</time>
      </trkpt>
      <trkpt lat="46.56251" lon="5.45931">
        <ele>543</ele>
        <time>2021-05-29T08:16:48.742Z</time>
      </trkpt>
      <trkpt lat="46.56253" lon="5.45934">
        <ele>542</ele>
        <time>2021-05-29T08:16:49.742Z</time>
      </trkpt>
      <trkpt lat="46.56256" lon="5.45938">
        <ele>542</ele>
        <time>2021-05-29T08:16:50.742Z</time>
      </trkpt>
      <trkpt lat="46.56256" lon="5.45942">
        <ele>542</ele>
        <time>2021-05-29T08:16:51.741Z</time>
      </trkpt>
      <trkpt lat="46.56257" lon="5.45946">
        <ele>542</ele>
        <time>2021-05-29T08:16:52.742Z</time>
      </trkpt>
      <trkpt lat="46.56258" lon="5.45948">
        <ele>542</ele>
        <time>2021-05-29T08:16:53.741Z</time>
      </trkpt>
      <trkpt lat="46.5626" lon="5.4595">
        <ele>542</ele>
        <time>2021-05-29T08:16:54.742Z</time>
      </trkpt>
      <trkpt lat="46.56262" lon="5.45952">
        <ele>542</ele>
        <time>2021-05-29T08:16:55.742Z</time>
      </trkpt>
      <trkpt lat="46.56263" lon="5.45954">
        <ele>541</ele>
        <time>2021-05-29T08:16:56.742Z</time>
      </trkpt>
      <trkpt lat="46.56265" lon="5.45956">
        <ele>541</ele>
        <time>2021-05-29T08:16:57.742Z</time>
      </trkpt>
      <trkpt lat="46.56267" lon="5.45959">
        <ele>541</ele>
        <time>2021-05-29T08:16:58.742Z</time>
      </trkpt>
      <trkpt lat="46.56268" lon="5.45961">
        <ele>541</ele>
        <time>2021-05-29T08:16:59.742Z</time>
      </trkpt>
      <trkpt lat="46.56269" lon="5.45963">
        <ele>541</ele>
        <time>2021-05-29T08:17:00.742Z</time>
      </trkpt>
      <trkpt lat="46.5627" lon="5.45965">
        <ele>541</ele>
        <time>2021-05-29T08:17:01.742Z</time>
      </trkpt>
      <trkpt lat="46.56271" lon="5.45967">
        <ele>541</ele>
        <time>2021-05-29T08:17:02.741Z</time>
      </trkpt>
      <trkpt lat="46.56272" lon="5.45969">
        <ele>541</ele>
        <time>2021-05-29T08:17:03.741Z</time>
      </trkpt>
      <trkpt lat="46.56274" lon="5.45971">
        <ele>541</ele>
        <time>2021-05-29T08:17:04.742Z</time>
      </trkpt>
      <trkpt lat="46.56275" lon="5.45972">
        <ele>540</ele>
        <time>2021-05-29T08:17:05.742Z</time>
      </trkpt>
      <trkpt lat="46.56276" lon="5.45974">
        <ele>540</ele>
        <time>2021-05-29T08:17:06.742Z</time>
      </trkpt>
      <trkpt lat="46.56277" lon="5.45976">
        <ele>540</ele>
        <time>2021-05-29T08:17:07.742Z</time>
      </trkpt>
      <trkpt lat="46.56279" lon="5.45978">
        <ele>540</ele>
        <time>2021-05-29T08:17:08.742Z</time>
      </trkpt>
      <trkpt lat="46.5628" lon="5.4598">
        <ele>540</ele>
        <time>2021-05-29T08:17:09.741Z</time>
      </trkpt>
      <trkpt lat="46.56281" lon="5.45981">
        <ele>540</ele>
        <time>2021-05-29T08:17:10.742Z</time>
      </trkpt>
      <trkpt lat="46.56282" lon="5.45983">
        <ele>540</ele>
        <time>2021-05-29T08:17:11.742Z</time>
      </trkpt>
      <trkpt lat="46.56284" lon="5.45985">
        <ele>540</ele>
        <time>2021-05-29T08:17:12.742Z</time>
      </trkpt>
      <trkpt lat="46.56285" lon="5.45986">
        <ele>540</ele>
        <time>2021-05-29T08:17:13.742Z</time>
      </trkpt>
      <trkpt lat="46.56286" lon="5.45987">
        <ele>540</ele>
        <time>2021-05-29T08:17:14.742Z</time>
      </trkpt>
      <trkpt lat="46.56288" lon="5.45989">
        <ele>540</ele>
        <time>2021-05-29T08:17:15.742Z</time>
      </trkpt>
      <trkpt lat="46.5629" lon="5.4599">
        <ele>540</ele>
        <time>2021-05-29T08:17:16.742Z</time>
      </trkpt>
      <trkpt lat="46.56292" lon="5.45991">
        <ele>540</ele>
        <time>2021-05-29T08:17:17.742Z</time>
      </trkpt>
      <trkpt lat="46.56293" lon="5.45992">
        <ele>540</ele>
        <time>2021-05-29T08:17:18.741Z</time>
      </trkpt>
      <trkpt lat="46.56294" lon="5.45992">
        <ele>541</ele>
        <time>2021-05-29T08:17:19.742Z</time>
      </trkpt>
      <trkpt lat="46.56297" lon="5.45993">
        <ele>541</ele>
        <time>2021-05-29T08:17:20.742Z</time>
      </trkpt>
      <trkpt lat="46.56297" lon="5.45994">
        <ele>541</ele>
        <time>2021-05-29T08:17:21.741Z</time>
      </trkpt>
      <trkpt lat="46.56297" lon="5.45994">
        <ele>542</ele>
        <time>2021-05-29T08:17:22.742Z</time>
      </trkpt>
      <trkpt lat="46.56297" lon="5.45996">
        <ele>542</ele>
        <time>2021-05-29T08:17:23.741Z</time>
      </trkpt>
      <trkpt lat="46.56297" lon="5.45996">
        <ele>542</ele>
        <time>2021-05-29T08:17:24.742Z</time>
      </trkpt>
      <trkpt lat="46.56298" lon="5.45996">
        <ele>542</ele>
        <time>2021-05-29T08:17:25.741Z</time>
      </trkpt>
      <trkpt lat="46.56299" lon="5.45996">
        <ele>542</ele>
        <time>2021-05-29T08:17:26.742Z</time>
      </trkpt>
      <trkpt lat="46.56299" lon="5.45996">
        <ele>542</ele>
        <time>2021-05-29T08:17:27.742Z</time>
      </trkpt>
      <trkpt lat="46.563" lon="5.45996">
        <ele>542</ele>
        <time>2021-05-29T08:17:28.742Z</time>
      </trkpt>
      <trkpt lat="46.563" lon="5.45996">
        <ele>541</ele>
        <time>2021-05-29T08:17:29.742Z</time>
      </trkpt>
      <trkpt lat="46.56301" lon="5.45996">
        <ele>541</ele>
        <time>2021-05-29T08:17:30.742Z</time>
      </trkpt>
      <trkpt lat="46.56301" lon="5.45995">
        <ele>541</ele>
        <time>2021-05-29T08:17:31.742Z</time>
      </trkpt>
      <trkpt lat="46.56313" lon="5.46007">
        <ele>546</ele>
        <time>2021-05-29T08:17:32.743Z</time>
      </trkpt>
      <trkpt lat="46.56315" lon="5.46009">
        <ele>546</ele>
        <time>2021-05-29T08:17:33.742Z</time>
      </trkpt>
      <trkpt lat="46.56316" lon="5.46011">
        <ele>546</ele>
        <time>2021-05-29T08:17:34.742Z</time>
      </trkpt>
      <trkpt lat="46.56317" lon="5.46012">
        <ele>546</ele>
        <time>2021-05-29T08:17:35.743Z</time>
      </trkpt>
      <trkpt lat="46.56318" lon="5.46014">
        <ele>546</ele>
        <time>2021-05-29T08:17:36.743Z</time>
      </trkpt>
      <trkpt lat="46.5632" lon="5.46015">
        <ele>546</ele>
        <time>2021-05-29T08:17:37.743Z</time>
      </trkpt>
      <trkpt lat="46.56322" lon="5.46018">
        <ele>545</ele>
        <time>2021-05-29T08:17:38.742Z</time>
      </trkpt>
      <trkpt lat="46.56324" lon="5.46021">
        <ele>545</ele>
        <time>2021-05-29T08:17:39.743Z</time>
      </trkpt>
      <trkpt lat="46.56326" lon="5.46024">
        <ele>545</ele>
        <time>2021-05-29T08:17:40.742Z</time>
      </trkpt>
      <trkpt lat="46.56328" lon="5.46027">
        <ele>544</ele>
        <time>2021-05-29T08:17:41.743Z</time>
      </trkpt>
      <trkpt lat="46.5633" lon="5.4603">
        <ele>544</ele>
        <time>2021-05-29T08:17:42.743Z</time>
      </trkpt>
      <trkpt lat="46.56331" lon="5.46032">
        <ele>544</ele>
        <time>2021-05-29T08:17:43.743Z</time>
      </trkpt>
      <trkpt lat="46.56332" lon="5.46034">
        <ele>544</ele>
        <time>2021-05-29T08:17:44.743Z</time>
      </trkpt>
      <trkpt lat="46.56333" lon="5.46036">
        <ele>544</ele>
        <time>2021-05-29T08:17:45.743Z</time>
      </trkpt>
      <trkpt lat="46.56335" lon="5.46038">
        <ele>544</ele>
        <time>2021-05-29T08:17:46.742Z</time>
      </trkpt>
      <trkpt lat="46.56336" lon="5.46041">
        <ele>544</ele>
        <time>2021-05-29T08:17:47.743Z</time>
      </trkpt>
      <trkpt lat="46.56339" lon="5.46044">
        <ele>544</ele>
        <time>2021-05-29T08:17:48.743Z</time>
      </trkpt>
      <trkpt lat="46.56341" lon="5.46047">
        <ele>543</ele>
        <time>2021-05-29T08:17:49.743Z</time>
      </trkpt>
      <trkpt lat="46.56342" lon="5.4605">
        <ele>543</ele>
        <time>2021-05-29T08:17:50.743Z</time>
      </trkpt>
      <trkpt lat="46.56344" lon="5.46054">
        <ele>543</ele>
        <time>2021-05-29T08:17:51.742Z</time>
      </trkpt>
      <trkpt lat="46.56345" lon="5.46057">
        <ele>543</ele>
        <time>2021-05-29T08:17:52.742Z</time>
      </trkpt>
      <trkpt lat="46.56347" lon="5.4606">
        <ele>543</ele>
        <time>2021-05-29T08:17:53.743Z</time>
      </trkpt>
      <trkpt lat="46.56347" lon="5.46062">
        <ele>543</ele>
        <time>2021-05-29T08:17:54.742Z</time>
      </trkpt>
      <trkpt lat="46.56348" lon="5.46064">
        <ele>543</ele>
        <time>2021-05-29T08:17:55.743Z</time>
      </trkpt>
      <trkpt lat="46.56351" lon="5.46068">
        <ele>542</ele>
        <time>2021-05-29T08:17:56.743Z</time>
      </trkpt>
      <trkpt lat="46.56353" lon="5.46073">
        <ele>542</ele>
        <time>2021-05-29T08:17:57.743Z</time>
      </trkpt>
      <trkpt lat="46.56356" lon="5.46076">
        <ele>542</ele>
        <time>2021-05-29T08:17:58.743Z</time>
      </trkpt>
      <trkpt lat="46.56359" lon="5.4608">
        <ele>542</ele>
        <time>2021-05-29T08:17:59.742Z</time>
      </trkpt>
      <trkpt lat="46.56361" lon="5.46083">
        <ele>541</ele>
        <time>2021-05-29T08:18:00.743Z</time>
      </trkpt>
      <trkpt lat="46.56362" lon="5.46086">
        <ele>541</ele>
        <time>2021-05-29T08:18:01.742Z</time>
      </trkpt>
      <trkpt lat="46.56363" lon="5.46089">
        <ele>541</ele>
        <time>2021-05-29T08:18:02.743Z</time>
      </trkpt>
      <trkpt lat="46.56363" lon="5.46092">
        <ele>540</ele>
        <time>2021-05-29T08:18:03.743Z</time>
      </trkpt>
      <trkpt lat="46.56364" lon="5.46096">
        <ele>540</ele>
        <time>2021-05-29T08:18:04.743Z</time>
      </trkpt>
      <trkpt lat="46.56365" lon="5.46099">
        <ele>539</ele>
        <time>2021-05-29T08:18:05.743Z</time>
      </trkpt>
      <trkpt lat="46.56366" lon="5.46102">
        <ele>539</ele>
        <time>2021-05-29T08:18:06.743Z</time>
      </trkpt>
      <trkpt lat="46.56367" lon="5.46104">
        <ele>539</ele>
        <time>2021-05-29T08:18:07.743Z</time>
      </trkpt>
      <trkpt lat="46.56368" lon="5.46107">
        <ele>538</ele>
        <time>2021-05-29T08:18:08.742Z</time>
      </trkpt>
      <trkpt lat="46.56369" lon="5.4611">
        <ele>538</ele>
        <time>2021-05-29T08:18:09.742Z</time>
      </trkpt>
      <trkpt lat="46.5637" lon="5.46112">
        <ele>538</ele>
        <time>2021-05-29T08:18:10.742Z</time>
      </trkpt>
      <trkpt lat="46.56371" lon="5.46115">
        <ele>537</ele>
        <time>2021-05-29T08:18:11.742Z</time>
      </trkpt>
      <trkpt lat="46.56373" lon="5.46117">
        <ele>537</ele>
        <time>2021-05-29T08:18:12.743Z</time>
      </trkpt>
      <trkpt lat="46.56374" lon="5.4612">
        <ele>537</ele>
        <time>2021-05-29T08:18:13.743Z</time>
      </trkpt>
      <trkpt lat="46.56376" lon="5.46122">
        <ele>536</ele>
        <time>2021-05-29T08:18:14.742Z</time>
      </trkpt>
      <trkpt lat="46.56378" lon="5.46125">
        <ele>536</ele>
        <time>2021-05-29T08:18:15.742Z</time>
      </trkpt>
      <trkpt lat="46.5638" lon="5.46128">
        <ele>536</ele>
        <time>2021-05-29T08:18:16.743Z</time>
      </trkpt>
      <trkpt lat="46.56381" lon="5.46131">
        <ele>536</ele>
        <time>2021-05-29T08:18:17.742Z</time>
      </trkpt>
      <trkpt lat="46.56384" lon="5.46134">
        <ele>536</ele>
        <time>2021-05-29T08:18:18.742Z</time>
      </trkpt>
      <trkpt lat="46.56387" lon="5.46138">
        <ele>537</ele>
        <time>2021-05-29T08:18:19.743Z</time>
      </trkpt>
      <trkpt lat="46.56389" lon="5.46142">
        <ele>537</ele>
        <time>2021-05-29T08:18:20.742Z</time>
      </trkpt>
      <trkpt lat="46.56391" lon="5.46145">
        <ele>537</ele>
        <time>2021-05-29T08:18:21.742Z</time>
      </trkpt>
      <trkpt lat="46.56392" lon="5.46148">
        <ele>537</ele>
        <time>2021-05-29T08:18:22.743Z</time>
      </trkpt>
      <trkpt lat="46.56394" lon="5.46151">
        <ele>537</ele>
        <time>2021-05-29T08:18:23.743Z</time>
      </trkpt>
      <trkpt lat="46.56395" lon="5.46154">
        <ele>538</ele>
        <time>2021-05-29T08:18:24.742Z</time>
      </trkpt>
      <trkpt lat="46.56397" lon="5.46158">
        <ele>538</ele>
        <time>2021-05-29T08:18:25.743Z</time>
      </trkpt>
      <trkpt lat="46.56398" lon="5.46161">
        <ele>538</ele>
        <time>2021-05-29T08:18:26.743Z</time>
      </trkpt>
      <trkpt lat="46.56399" lon="5.46164">
        <ele>538</ele>
        <time>2021-05-29T08:18:27.743Z</time>
      </trkpt>
      <trkpt lat="46.56399" lon="5.46167">
        <ele>538</ele>
        <time>2021-05-29T08:18:28.742Z</time>
      </trkpt>
      <trkpt lat="46.56401" lon="5.4617">
        <ele>538</ele>
        <time>2021-05-29T08:18:29.743Z</time>
      </trkpt>
      <trkpt lat="46.56403" lon="5.46172">
        <ele>538</ele>
        <time>2021-05-29T08:18:30.743Z</time>
      </trkpt>
      <trkpt lat="46.56405" lon="5.46174">
        <ele>538</ele>
        <time>2021-05-29T08:18:31.742Z</time>
      </trkpt>
      <trkpt lat="46.56407" lon="5.46176">
        <ele>538</ele>
        <time>2021-05-29T08:18:32.743Z</time>
      </trkpt>
      <trkpt lat="46.56408" lon="5.46179">
        <ele>539</ele>
        <time>2021-05-29T08:18:33.743Z</time>
      </trkpt>
      <trkpt lat="46.5641" lon="5.46181">
        <ele>539</ele>
        <time>2021-05-29T08:18:34.743Z</time>
      </trkpt>
      <trkpt lat="46.56412" lon="5.46184">
        <ele>539</ele>
        <time>2021-05-29T08:18:35.743Z</time>
      </trkpt>
      <trkpt lat="46.56413" lon="5.46186">
        <ele>539</ele>
        <time>2021-05-29T08:18:36.743Z</time>
      </trkpt>
      <trkpt lat="46.56415" lon="5.46189">
        <ele>539</ele>
        <time>2021-05-29T08:18:37.742Z</time>
      </trkpt>
      <trkpt lat="46.56417" lon="5.46192">
        <ele>539</ele>
        <time>2021-05-29T08:18:38.743Z</time>
      </trkpt>
      <trkpt lat="46.56419" lon="5.46195">
        <ele>538</ele>
        <time>2021-05-29T08:18:39.743Z</time>
      </trkpt>
      <trkpt lat="46.56421" lon="5.46197">
        <ele>539</ele>
        <time>2021-05-29T08:18:40.743Z</time>
      </trkpt>
      <trkpt lat="46.56422" lon="5.46199">
        <ele>539</ele>
        <time>2021-05-29T08:18:41.743Z</time>
      </trkpt>
      <trkpt lat="46.56423" lon="5.462">
        <ele>539</ele>
        <time>2021-05-29T08:18:42.743Z</time>
      </trkpt>
      <trkpt lat="46.56426" lon="5.46203">
        <ele>539</ele>
        <time>2021-05-29T08:18:43.743Z</time>
      </trkpt>
      <trkpt lat="46.56428" lon="5.46205">
        <ele>539</ele>
        <time>2021-05-29T08:18:44.743Z</time>
      </trkpt>
      <trkpt lat="46.56429" lon="5.46206">
        <ele>539</ele>
        <time>2021-05-29T08:18:45.742Z</time>
      </trkpt>
      <trkpt lat="46.56429" lon="5.46207">
        <ele>539</ele>
        <time>2021-05-29T08:18:46.742Z</time>
      </trkpt>
      <trkpt lat="46.56429" lon="5.46208">
        <ele>539</ele>
        <time>2021-05-29T08:18:47.743Z</time>
      </trkpt>
      <trkpt lat="46.5643" lon="5.46208">
        <ele>539</ele>
        <time>2021-05-29T08:18:48.743Z</time>
      </trkpt>
      <trkpt lat="46.56431" lon="5.46209">
        <ele>539</ele>
        <time>2021-05-29T08:18:49.743Z</time>
      </trkpt>
      <trkpt lat="46.56431" lon="5.46209">
        <ele>539</ele>
        <time>2021-05-29T08:18:50.743Z</time>
      </trkpt>
      <trkpt lat="46.56431" lon="5.46209">
        <ele>539</ele>
        <time>2021-05-29T08:18:51.742Z</time>
      </trkpt>
      <trkpt lat="46.56432" lon="5.4621">
        <ele>539</ele>
        <time>2021-05-29T08:18:52.742Z</time>
      </trkpt>
      <trkpt lat="46.56432" lon="5.4621">
        <ele>539</ele>
        <time>2021-05-29T08:18:53.743Z</time>
      </trkpt>
      <trkpt lat="46.56443" lon="5.46225">
        <ele>543</ele>
        <time>2021-05-29T08:18:54.744Z</time>
      </trkpt>
      <trkpt lat="46.56443" lon="5.46225">
        <ele>543</ele>
        <time>2021-05-29T08:18:55.744Z</time>
      </trkpt>
      <trkpt lat="46.56443" lon="5.46225">
        <ele>543</ele>
        <time>2021-05-29T08:18:56.744Z</time>
      </trkpt>
      <trkpt lat="46.56443" lon="5.46226">
        <ele>543</ele>
        <time>2021-05-29T08:18:57.744Z</time>
      </trkpt>
      <trkpt lat="46.56444" lon="5.46227">
        <ele>543</ele>
        <time>2021-05-29T08:18:58.745Z</time>
      </trkpt>
      <trkpt lat="46.56445" lon="5.46228">
        <ele>543</ele>
        <time>2021-05-29T08:18:59.744Z</time>
      </trkpt>
      <trkpt lat="46.56446" lon="5.46229">
        <ele>543</ele>
        <time>2021-05-29T08:19:00.744Z</time>
      </trkpt>
      <trkpt lat="46.56447" lon="5.4623">
        <ele>543</ele>
        <time>2021-05-29T08:19:01.744Z</time>
      </trkpt>
      <trkpt lat="46.56448" lon="5.46232">
        <ele>543</ele>
        <time>2021-05-29T08:19:02.745Z</time>
      </trkpt>
      <trkpt lat="46.56449" lon="5.46233">
        <ele>543</ele>
        <time>2021-05-29T08:19:03.744Z</time>
      </trkpt>
      <trkpt lat="46.5645" lon="5.46234">
        <ele>542</ele>
        <time>2021-05-29T08:19:04.745Z</time>
      </trkpt>
      <trkpt lat="46.56451" lon="5.46236">
        <ele>542</ele>
        <time>2021-05-29T08:19:05.745Z</time>
      </trkpt>
      <trkpt lat="46.56452" lon="5.46238">
        <ele>542</ele>
        <time>2021-05-29T08:19:06.745Z</time>
      </trkpt>
      <trkpt lat="46.56453" lon="5.46239">
        <ele>541</ele>
        <time>2021-05-29T08:19:07.745Z</time>
      </trkpt>
      <trkpt lat="46.56454" lon="5.46241">
        <ele>541</ele>
        <time>2021-05-29T08:19:08.745Z</time>
      </trkpt>
      <trkpt lat="46.56455" lon="5.46243">
        <ele>541</ele>
        <time>2021-05-29T08:19:09.745Z</time>
      </trkpt>
      <trkpt lat="46.56457" lon="5.46244">
        <ele>541</ele>
        <time>2021-05-29T08:19:10.745Z</time>
      </trkpt>
      <trkpt lat="46.56458" lon="5.46246">
        <ele>542</ele>
        <time>2021-05-29T08:19:11.745Z</time>
      </trkpt>
      <trkpt lat="46.5646" lon="5.46248">
        <ele>542</ele>
        <time>2021-05-29T08:19:12.745Z</time>
      </trkpt>
      <trkpt lat="46.56462" lon="5.4625">
        <ele>542</ele>
        <time>2021-05-29T08:19:13.745Z</time>
      </trkpt>
      <trkpt lat="46.56463" lon="5.46253">
        <ele>542</ele>
        <time>2021-05-29T08:19:14.744Z</time>
      </trkpt>
      <trkpt lat="46.56464" lon="5.46254">
        <ele>543</ele>
        <time>2021-05-29T08:19:15.745Z</time>
      </trkpt>
      <trkpt lat="46.56463" lon="5.46256">
        <ele>543</ele>
        <time>2021-05-29T08:19:16.745Z</time>
      </trkpt>
      <trkpt lat="46.56464" lon="5.46258">
        <ele>543</ele>
        <time>2021-05-29T08:19:17.745Z</time>
      </trkpt>
      <trkpt lat="46.56465" lon="5.46259">
        <ele>543</ele>
        <time>2021-05-29T08:19:18.745Z</time>
      </trkpt>
      <trkpt lat="46.56466" lon="5.46259">
        <ele>543</ele>
        <time>2021-05-29T08:19:19.745Z</time>
      </trkpt>
      <trkpt lat="46.56467" lon="5.4626">
        <ele>544</ele>
        <time>2021-05-29T08:19:20.744Z</time>
      </trkpt>
      <trkpt lat="46.56468" lon="5.46261">
        <ele>544</ele>
        <time>2021-05-29T08:19:21.744Z</time>
      </trkpt>
      <trkpt lat="46.56469" lon="5.46262">
        <ele>544</ele>
        <time>2021-05-29T08:19:22.745Z</time>
      </trkpt>
      <trkpt lat="46.5647" lon="5.46263">
        <ele>544</ele>
        <time>2021-05-29T08:19:23.745Z</time>
      </trkpt>
      <trkpt lat="46.56471" lon="5.46264">
        <ele>544</ele>
        <time>2021-05-29T08:19:24.745Z</time>
      </trkpt>
      <trkpt lat="46.56473" lon="5.46264">
        <ele>544</ele>
        <time>2021-05-29T08:19:25.744Z</time>
      </trkpt>
      <trkpt lat="46.56474" lon="5.46265">
        <ele>544</ele>
        <time>2021-05-29T08:19:26.745Z</time>
      </trkpt>
      <trkpt lat="46.56474" lon="5.46266">
        <ele>544</ele>
        <time>2021-05-29T08:19:27.745Z</time>
      </trkpt>
      <trkpt lat="46.56475" lon="5.46268">
        <ele>544</ele>
        <time>2021-05-29T08:19:28.745Z</time>
      </trkpt>
      <trkpt lat="46.56477" lon="5.4627">
        <ele>543</ele>
        <time>2021-05-29T08:19:29.744Z</time>
      </trkpt>
      <trkpt lat="46.56478" lon="5.46272">
        <ele>543</ele>
        <time>2021-05-29T08:19:30.745Z</time>
      </trkpt>
      <trkpt lat="46.56479" lon="5.46273">
        <ele>543</ele>
        <time>2021-05-29T08:19:31.745Z</time>
      </trkpt>
      <trkpt lat="46.56481" lon="5.46274">
        <ele>542</ele>
        <time>2021-05-29T08:19:32.745Z</time>
      </trkpt>
      <trkpt lat="46.56482" lon="5.46276">
        <ele>542</ele>
        <time>2021-05-29T08:19:33.745Z</time>
      </trkpt>
      <trkpt lat="46.56483" lon="5.46278">
        <ele>541</ele>
        <time>2021-05-29T08:19:34.744Z</time>
      </trkpt>
      <trkpt lat="46.56484" lon="5.4628">
        <ele>541</ele>
        <time>2021-05-29T08:19:35.745Z</time>
      </trkpt>
      <trkpt lat="46.56484" lon="5.46282">
        <ele>541</ele>
        <time>2021-05-29T08:19:36.745Z</time>
      </trkpt>
      <trkpt lat="46.56485" lon="5.46284">
        <ele>541</ele>
        <time>2021-05-29T08:19:37.745Z</time>
      </trkpt>
      <trkpt lat="46.56486" lon="5.46285">
        <ele>540</ele>
        <time>2021-05-29T08:19:38.745Z</time>
      </trkpt>
      <trkpt lat="46.56486" lon="5.46287">
        <ele>540</ele>
        <time>2021-05-29T08:19:39.745Z</time>
      </trkpt>
      <trkpt lat="46.56487" lon="5.46288">
        <ele>540</ele>
        <time>2021-05-29T08:19:40.745Z</time>
      </trkpt>
      <trkpt lat="46.56487" lon="5.46289">
        <ele>541</ele>
        <time>2021-05-29T08:19:41.745Z</time>
      </trkpt>
      <trkpt lat="46.56488" lon="5.46291">
        <ele>541</ele>
        <time>2021-05-29T08:19:42.745Z</time>
      </trkpt>
      <trkpt lat="46.56489" lon="5.46293">
        <ele>541</ele>
        <time>2021-05-29T08:19:43.745Z</time>
      </trkpt>
      <trkpt lat="46.5649" lon="5.46294">
        <ele>541</ele>
        <time>2021-05-29T08:19:44.745Z</time>
      </trkpt>
      <trkpt lat="46.56491" lon="5.46296">
        <ele>541</ele>
        <time>2021-05-29T08:19:45.745Z</time>
      </trkpt>
      <trkpt lat="46.56492" lon="5.46298">
        <ele>542</ele>
        <time>2021-05-29T08:19:46.745Z</time>
      </trkpt>
      <trkpt lat="46.56493" lon="5.463">
        <ele>542</ele>
        <time>2021-05-29T08:19:47.744Z</time>
      </trkpt>
      <trkpt lat="46.56494" lon="5.46303">
        <ele>542</ele>
        <time>2021-05-29T08:19:48.745Z</time>
      </trkpt>
      <trkpt lat="46.56495" lon="5.46306">
        <ele>542</ele>
        <time>2021-05-29T08:19:49.745Z</time>
      </trkpt>
      <trkpt lat="46.56495" lon="5.46309">
        <ele>542</ele>
        <time>2021-05-29T08:19:50.744Z</time>
      </trkpt>
      <trkpt lat="46.56495" lon="5.46313">
        <ele>542</ele>
        <time>2021-05-29T08:19:51.745Z</time>
      </trkpt>
      <trkpt lat="46.56496" lon="5.46316">
        <ele>542</ele>
        <time>2021-05-29T08:19:52.744Z</time>
      </trkpt>
      <trkpt lat="46.56497" lon="5.46319">
        <ele>542</ele>
        <time>2021-05-29T08:19:53.745Z</time>
      </trkpt>
      <trkpt lat="46.56498" lon="5.46322">
        <ele>542</ele>
        <time>2021-05-29T08:19:54.745Z</time>
      </trkpt>
      <trkpt lat="46.56499" lon="5.46325">
        <ele>542</ele>
        <time>2021-05-29T08:19:55.744Z</time>
      </trkpt>
      <trkpt lat="46.56499" lon="5.46329">
        <ele>542</ele>
        <time>2021-05-29T08:19:56.745Z</time>
      </trkpt>
      <trkpt lat="46.56499" lon="5.46331">
        <ele>542</ele>
        <time>2021-05-29T08:19:57.745Z</time>
      </trkpt>
      <trkpt lat="46.565" lon="5.46334">
        <ele>542</ele>
        <time>2021-05-29T08:19:58.744Z</time>
      </trkpt>
      <trkpt lat="46.565" lon="5.46337">
        <ele>542</ele>
        <time>2021-05-29T08:19:59.745Z</time>
      </trkpt>
      <trkpt lat="46.56501" lon="5.46341">
        <ele>542</ele>
        <time>2021-05-29T08:20:00.745Z</time>
      </trkpt>
      <trkpt lat="46.56502" lon="5.46343">
        <ele>542</ele>
        <time>2021-05-29T08:20:01.745Z</time>
      </trkpt>
      <trkpt lat="46.56504" lon="5.46346">
        <ele>542</ele>
        <time>2021-05-29T08:20:02.745Z</time>
      </trkpt>
      <trkpt lat="46.56505" lon="5.46348">
        <ele>542</ele>
        <time>2021-05-29T08:20:03.745Z</time>
      </trkpt>
      <trkpt lat="46.56506" lon="5.46351">
        <ele>542</ele>
        <time>2021-05-29T08:20:04.745Z</time>
      </trkpt>
      <trkpt lat="46.56508" lon="5.46354">
        <ele>542</ele>
        <time>2021-05-29T08:20:05.745Z</time>
      </trkpt>
      <trkpt lat="46.56509" lon="5.46357">
        <ele>543</ele>
        <time>2021-05-29T08:20:06.745Z</time>
      </trkpt>
      <trkpt lat="46.5651" lon="5.46359">
        <ele>543</ele>
        <time>2021-05-29T08:20:07.745Z</time>
      </trkpt>
      <trkpt lat="46.56511" lon="5.46362">
        <ele>543</ele>
        <time>2021-05-29T08:20:08.745Z</time>
      </trkpt>
      <trkpt lat="46.56512" lon="5.46364">
        <ele>542</ele>
        <time>2021-05-29T08:20:09.745Z</time>
      </trkpt>
      <trkpt lat="46.56514" lon="5.46366">
        <ele>542</ele>
        <time>2021-05-29T08:20:10.745Z</time>
      </trkpt>
      <trkpt lat="46.56515" lon="5.4637">
        <ele>542</ele>
        <time>2021-05-29T08:20:11.745Z</time>
      </trkpt>
      <trkpt lat="46.56517" lon="5.46372">
        <ele>542</ele>
        <time>2021-05-29T08:20:12.745Z</time>
      </trkpt>
      <trkpt lat="46.56518" lon="5.46374">
        <ele>542</ele>
        <time>2021-05-29T08:20:13.745Z</time>
      </trkpt>
      <trkpt lat="46.56519" lon="5.46377">
        <ele>542</ele>
        <time>2021-05-29T08:20:14.745Z</time>
      </trkpt>
      <trkpt lat="46.5652" lon="5.46379">
        <ele>543</ele>
        <time>2021-05-29T08:20:15.745Z</time>
      </trkpt>
      <trkpt lat="46.56521" lon="5.46381">
        <ele>543</ele>
        <time>2021-05-29T08:20:16.745Z</time>
      </trkpt>
      <trkpt lat="46.56522" lon="5.46383">
        <ele>543</ele>
        <time>2021-05-29T08:20:17.745Z</time>
      </trkpt>
      <trkpt lat="46.56523" lon="5.46386">
        <ele>543</ele>
        <time>2021-05-29T08:20:18.745Z</time>
      </trkpt>
      <trkpt lat="46.56524" lon="5.46387">
        <ele>544</ele>
        <time>2021-05-29T08:20:19.745Z</time>
      </trkpt>
      <trkpt lat="46.56525" lon="5.4639">
        <ele>544</ele>
        <time>2021-05-29T08:20:20.745Z</time>
      </trkpt>
      <trkpt lat="46.56527" lon="5.46393">
        <ele>544</ele>
        <time>2021-05-29T08:20:21.745Z</time>
      </trkpt>
      <trkpt lat="46.56528" lon="5.46395">
        <ele>545</ele>
        <time>2021-05-29T08:20:22.745Z</time>
      </trkpt>
      <trkpt lat="46.56529" lon="5.46397">
        <ele>545</ele>
        <time>2021-05-29T08:20:23.745Z</time>
      </trkpt>
      <trkpt lat="46.5653" lon="5.46398">
        <ele>546</ele>
        <time>2021-05-29T08:20:24.744Z</time>
      </trkpt>
      <trkpt lat="46.56532" lon="5.464">
        <ele>546</ele>
        <time>2021-05-29T08:20:25.745Z</time>
      </trkpt>
      <trkpt lat="46.56533" lon="5.46402">
        <ele>546</ele>
        <time>2021-05-29T08:20:26.745Z</time>
      </trkpt>
      <trkpt lat="46.56534" lon="5.46405">
        <ele>546</ele>
        <time>2021-05-29T08:20:27.745Z</time>
      </trkpt>
      <trkpt lat="46.56535" lon="5.46407">
        <ele>546</ele>
        <time>2021-05-29T08:20:28.745Z</time>
      </trkpt>
      <trkpt lat="46.56536" lon="5.46409">
        <ele>547</ele>
        <time>2021-05-29T08:20:29.744Z</time>
      </trkpt>
      <trkpt lat="46.56538" lon="5.46412">
        <ele>547</ele>
        <time>2021-05-29T08:20:30.745Z</time>
      </trkpt>
      <trkpt lat="46.56539" lon="5.46414">
        <ele>547</ele>
        <time>2021-05-29T08:20:31.745Z</time>
      </trkpt>
      <trkpt lat="46.56539" lon="5.46415">
        <ele>548</ele>
        <time>2021-05-29T08:20:32.745Z</time>
      </trkpt>
      <trkpt lat="46.5654" lon="5.46417">
        <ele>548</ele>
        <time>2021-05-29T08:20:33.745Z</time>
      </trkpt>
      <trkpt lat="46.5654" lon="5.46419">
        <ele>549</ele>
        <time>2021-05-29T08:20:34.745Z</time>
      </trkpt>
      <trkpt lat="46.5654" lon="5.46421">
        <ele>549</ele>
        <time>2021-05-29T08:20:35.745Z</time>
      </trkpt>
      <trkpt lat="46.5654" lon="5.46423">
        <ele>549</ele>
        <time>2021-05-29T08:20:36.745Z</time>
      </trkpt>
      <trkpt lat="46.56541" lon="5.46425">
        <ele>549</ele>
        <time>2021-05-29T08:20:37.745Z</time>
      </trkpt>
      <trkpt lat="46.56542" lon="5.46427">
        <ele>550</ele>
        <time>2021-05-29T08:20:38.745Z</time>
      </trkpt>
      <trkpt lat="46.56543" lon="5.46429">
        <ele>550</ele>
        <time>2021-05-29T08:20:39.745Z</time>
      </trkpt>
      <trkpt lat="46.56544" lon="5.46433">
        <ele>550</ele>
        <time>2021-05-29T08:20:40.745Z</time>
      </trkpt>
      <trkpt lat="46.56545" lon="5.46436">
        <ele>550</ele>
        <time>2021-05-29T08:20:41.745Z</time>
      </trkpt>
      <trkpt lat="46.56546" lon="5.46438">
        <ele>550</ele>
        <time>2021-05-29T08:20:42.745Z</time>
      </trkpt>
      <trkpt lat="46.56547" lon="5.46442">
        <ele>550</ele>
        <time>2021-05-29T08:20:43.745Z</time>
      </trkpt>
      <trkpt lat="46.56549" lon="5.46444">
        <ele>550</ele>
        <time>2021-05-29T08:20:44.744Z</time>
      </trkpt>
      <trkpt lat="46.5655" lon="5.46447">
        <ele>550</ele>
        <time>2021-05-29T08:20:45.744Z</time>
      </trkpt>
      <trkpt lat="46.5655" lon="5.46449">
        <ele>551</ele>
        <time>2021-05-29T08:20:46.745Z</time>
      </trkpt>
      <trkpt lat="46.56551" lon="5.46451">
        <ele>551</ele>
        <time>2021-05-29T08:20:47.745Z</time>
      </trkpt>
      <trkpt lat="46.56551" lon="5.46454">
        <ele>551</ele>
        <time>2021-05-29T08:20:48.745Z</time>
      </trkpt>
      <trkpt lat="46.56553" lon="5.46456">
        <ele>551</ele>
        <time>2021-05-29T08:20:49.745Z</time>
      </trkpt>
      <trkpt lat="46.56555" lon="5.46459">
        <ele>551</ele>
        <time>2021-05-29T08:20:50.745Z</time>
      </trkpt>
      <trkpt lat="46.56557" lon="5.46461">
        <ele>551</ele>
        <time>2021-05-29T08:20:51.744Z</time>
      </trkpt>
      <trkpt lat="46.56559" lon="5.46464">
        <ele>551</ele>
        <time>2021-05-29T08:20:52.745Z</time>
      </trkpt>
      <trkpt lat="46.5656" lon="5.46466">
        <ele>551</ele>
        <time>2021-05-29T08:20:53.745Z</time>
      </trkpt>
      <trkpt lat="46.56561" lon="5.46467">
        <ele>551</ele>
        <time>2021-05-29T08:20:54.744Z</time>
      </trkpt>
      <trkpt lat="46.56561" lon="5.46469">
        <ele>551</ele>
        <time>2021-05-29T08:20:55.745Z</time>
      </trkpt>
      <trkpt lat="46.56561" lon="5.46471">
        <ele>551</ele>
        <time>2021-05-29T08:20:56.745Z</time>
      </trkpt>
      <trkpt lat="46.56561" lon="5.46473">
        <ele>552</ele>
        <time>2021-05-29T08:20:57.744Z</time>
      </trkpt>
      <trkpt lat="46.56562" lon="5.46474">
        <ele>552</ele>
        <time>2021-05-29T08:20:58.745Z</time>
      </trkpt>
      <trkpt lat="46.56562" lon="5.46476">
        <ele>552</ele>
        <time>2021-05-29T08:20:59.745Z</time>
      </trkpt>
      <trkpt lat="46.56562" lon="5.46478">
        <ele>553</ele>
        <time>2021-05-29T08:21:00.744Z</time>
      </trkpt>
      <trkpt lat="46.56563" lon="5.46479">
        <ele>553</ele>
        <time>2021-05-29T08:21:01.745Z</time>
      </trkpt>
      <trkpt lat="46.56564" lon="5.46481">
        <ele>553</ele>
        <time>2021-05-29T08:21:02.745Z</time>
      </trkpt>
      <trkpt lat="46.56564" lon="5.46482">
        <ele>554</ele>
        <time>2021-05-29T08:21:03.745Z</time>
      </trkpt>
      <trkpt lat="46.56565" lon="5.46484">
        <ele>554</ele>
        <time>2021-05-29T08:21:04.745Z</time>
      </trkpt>
      <trkpt lat="46.56566" lon="5.46486">
        <ele>554</ele>
        <time>2021-05-29T08:21:05.744Z</time>
      </trkpt>
      <trkpt lat="46.56567" lon="5.46488">
        <ele>554</ele>
        <time>2021-05-29T08:21:06.745Z</time>
      </trkpt>
      <trkpt lat="46.56567" lon="5.4649">
        <ele>554</ele>
        <time>2021-05-29T08:21:07.745Z</time>
      </trkpt>
      <trkpt lat="46.56568" lon="5.46491">
        <ele>554</ele>
        <time>2021-05-29T08:21:08.745Z</time>
      </trkpt>
      <trkpt lat="46.56569" lon="5.46493">
        <ele>555</ele>
        <time>2021-05-29T08:21:09.745Z</time>
      </trkpt>
      <trkpt lat="46.5657" lon="5.46495">
        <ele>555</ele>
        <time>2021-05-29T08:21:10.745Z</time>
      </trkpt>
      <trkpt lat="46.56572" lon="5.46498">
        <ele>555</ele>
        <time>2021-05-29T08:21:11.745Z</time>
      </trkpt>
      <trkpt lat="46.56573" lon="5.46501">
        <ele>555</ele>
        <time>2021-05-29T08:21:12.745Z</time>
      </trkpt>
      <trkpt lat="46.56574" lon="5.46503">
        <ele>555</ele>
        <time>2021-05-29T08:21:13.745Z</time>
      </trkpt>
      <trkpt lat="46.56576" lon="5.46506">
        <ele>556</ele>
        <time>2021-05-29T08:21:14.745Z</time>
      </trkpt>
      <trkpt lat="46.56577" lon="5.46509">
        <ele>556</ele>
        <time>2021-05-29T08:21:15.745Z</time>
      </trkpt>
      <trkpt lat="46.56579" lon="5.46513">
        <ele>556</ele>
        <time>2021-05-29T08:21:16.745Z</time>
      </trkpt>
      <trkpt lat="46.56581" lon="5.46517">
        <ele>556</ele>
        <time>2021-05-29T08:21:17.745Z</time>
      </trkpt>
      <trkpt lat="46.56582" lon="5.4652">
        <ele>556</ele>
        <time>2021-05-29T08:21:18.744Z</time>
      </trkpt>
      <trkpt lat="46.56584" lon="5.46524">
        <ele>556</ele>
        <time>2021-05-29T08:21:19.745Z</time>
      </trkpt>
      <trkpt lat="46.56585" lon="5.46527">
        <ele>556</ele>
        <time>2021-05-29T08:21:20.745Z</time>
      </trkpt>
      <trkpt lat="46.56587" lon="5.46529">
        <ele>555</ele>
        <time>2021-05-29T08:21:21.745Z</time>
      </trkpt>
      <trkpt lat="46.56588" lon="5.46532">
        <ele>555</ele>
        <time>2021-05-29T08:21:22.744Z</time>
      </trkpt>
      <trkpt lat="46.56589" lon="5.46535">
        <ele>554</ele>
        <time>2021-05-29T08:21:23.745Z</time>
      </trkpt>
      <trkpt lat="46.5659" lon="5.46537">
        <ele>554</ele>
        <time>2021-05-29T08:21:24.745Z</time>
      </trkpt>
      <trkpt lat="46.56591" lon="5.46539">
        <ele>553</ele>
        <time>2021-05-29T08:21:25.745Z</time>
      </trkpt>
      <trkpt lat="46.56592" lon="5.46541">
        <ele>553</ele>
        <time>2021-05-29T08:21:26.744Z</time>
      </trkpt>
      <trkpt lat="46.56594" lon="5.46543">
        <ele>553</ele>
        <time>2021-05-29T08:21:27.745Z</time>
      </trkpt>
      <trkpt lat="46.56596" lon="5.46545">
        <ele>553</ele>
        <time>2021-05-29T08:21:28.745Z</time>
      </trkpt>
      <trkpt lat="46.56597" lon="5.46548">
        <ele>553</ele>
        <time>2021-05-29T08:21:29.744Z</time>
      </trkpt>
      <trkpt lat="46.56598" lon="5.4655">
        <ele>553</ele>
        <time>2021-05-29T08:21:30.745Z</time>
      </trkpt>
      <trkpt lat="46.566" lon="5.46552">
        <ele>552</ele>
        <time>2021-05-29T08:21:31.745Z</time>
      </trkpt>
      <trkpt lat="46.56602" lon="5.46554">
        <ele>552</ele>
        <time>2021-05-29T08:21:32.744Z</time>
      </trkpt>
      <trkpt lat="46.56604" lon="5.46557">
        <ele>552</ele>
        <time>2021-05-29T08:21:33.745Z</time>
      </trkpt>
      <trkpt lat="46.56605" lon="5.46559">
        <ele>552</ele>
        <time>2021-05-29T08:21:34.744Z</time>
      </trkpt>
      <trkpt lat="46.56607" lon="5.46561">
        <ele>552</ele>
        <time>2021-05-29T08:21:35.745Z</time>
      </trkpt>
      <trkpt lat="46.56608" lon="5.46563">
        <ele>553</ele>
        <time>2021-05-29T08:21:36.745Z</time>
      </trkpt>
      <trkpt lat="46.5661" lon="5.46565">
        <ele>553</ele>
        <time>2021-05-29T08:21:37.744Z</time>
      </trkpt>
      <trkpt lat="46.56612" lon="5.46568">
        <ele>552</ele>
        <time>2021-05-29T08:21:38.744Z</time>
      </trkpt>
      <trkpt lat="46.56613" lon="5.4657">
        <ele>552</ele>
        <time>2021-05-29T08:21:39.745Z</time>
      </trkpt>
      <trkpt lat="46.56614" lon="5.46572">
        <ele>552</ele>
        <time>2021-05-29T08:21:40.745Z</time>
      </trkpt>
      <trkpt lat="46.56615" lon="5.46574">
        <ele>551</ele>
        <time>2021-05-29T08:21:41.745Z</time>
      </trkpt>
      <trkpt lat="46.56617" lon="5.46576">
        <ele>551</ele>
        <time>2021-05-29T08:21:42.745Z</time>
      </trkpt>
      <trkpt lat="46.56618" lon="5.46578">
        <ele>551</ele>
        <time>2021-05-29T08:21:43.745Z</time>
      </trkpt>
      <trkpt lat="46.56619" lon="5.4658">
        <ele>551</ele>
        <time>2021-05-29T08:21:44.745Z</time>
      </trkpt>
      <trkpt lat="46.56621" lon="5.46582">
        <ele>551</ele>
        <time>2021-05-29T08:21:45.745Z</time>
      </trkpt>
      <trkpt lat="46.56623" lon="5.46584">
        <ele>551</ele>
        <time>2021-05-29T08:21:46.744Z</time>
      </trkpt>
      <trkpt lat="46.56625" lon="5.46586">
        <ele>551</ele>
        <time>2021-05-29T08:21:47.745Z</time>
      </trkpt>
      <trkpt lat="46.56627" lon="5.46588">
        <ele>551</ele>
        <time>2021-05-29T08:21:48.745Z</time>
      </trkpt>
      <trkpt lat="46.56629" lon="5.46589">
        <ele>551</ele>
        <time>2021-05-29T08:21:49.744Z</time>
      </trkpt>
      <trkpt lat="46.5663" lon="5.46591">
        <ele>551</ele>
        <time>2021-05-29T08:21:50.745Z</time>
      </trkpt>
      <trkpt lat="46.56632" lon="5.46592">
        <ele>552</ele>
        <time>2021-05-29T08:21:51.745Z</time>
      </trkpt>
      <trkpt lat="46.56633" lon="5.46594">
        <ele>552</ele>
        <time>2021-05-29T08:21:52.745Z</time>
      </trkpt>
      <trkpt lat="46.56635" lon="5.46595">
        <ele>553</ele>
        <time>2021-05-29T08:21:53.745Z</time>
      </trkpt>
      <trkpt lat="46.56639" lon="5.46597">
        <ele>553</ele>
        <time>2021-05-29T08:21:54.745Z</time>
      </trkpt>
      <trkpt lat="46.56643" lon="5.466">
        <ele>554</ele>
        <time>2021-05-29T08:21:55.744Z</time>
      </trkpt>
      <trkpt lat="46.56645" lon="5.46602">
        <ele>555</ele>
        <time>2021-05-29T08:21:56.745Z</time>
      </trkpt>
      <trkpt lat="46.56648" lon="5.46604">
        <ele>555</ele>
        <time>2021-05-29T08:21:57.745Z</time>
      </trkpt>
      <trkpt lat="46.5665" lon="5.46606">
        <ele>556</ele>
        <time>2021-05-29T08:21:58.745Z</time>
      </trkpt>
      <trkpt lat="46.56653" lon="5.46607">
        <ele>557</ele>
        <time>2021-05-29T08:21:59.744Z</time>
      </trkpt>
      <trkpt lat="46.56656" lon="5.46609">
        <ele>557</ele>
        <time>2021-05-29T08:22:00.745Z</time>
      </trkpt>
      <trkpt lat="46.56657" lon="5.46611">
        <ele>558</ele>
        <time>2021-05-29T08:22:01.744Z</time>
      </trkpt>
      <trkpt lat="46.56659" lon="5.46613">
        <ele>558</ele>
        <time>2021-05-29T08:22:02.744Z</time>
      </trkpt>
      <trkpt lat="46.5666" lon="5.46615">
        <ele>559</ele>
        <time>2021-05-29T08:22:03.745Z</time>
      </trkpt>
      <trkpt lat="46.56662" lon="5.46616">
        <ele>559</ele>
        <time>2021-05-29T08:22:04.745Z</time>
      </trkpt>
      <trkpt lat="46.56664" lon="5.46618">
        <ele>559</ele>
        <time>2021-05-29T08:22:05.744Z</time>
      </trkpt>
      <trkpt lat="46.56667" lon="5.46621">
        <ele>560</ele>
        <time>2021-05-29T08:22:06.744Z</time>
      </trkpt>
      <trkpt lat="46.56671" lon="5.46624">
        <ele>560</ele>
        <time>2021-05-29T08:22:07.745Z</time>
      </trkpt>
      <trkpt lat="46.56674" lon="5.46627">
        <ele>561</ele>
        <time>2021-05-29T08:22:08.745Z</time>
      </trkpt>
      <trkpt lat="46.56674" lon="5.4663">
        <ele>561</ele>
        <time>2021-05-29T08:22:09.745Z</time>
      </trkpt>
      <trkpt lat="46.56675" lon="5.46632">
        <ele>561</ele>
        <time>2021-05-29T08:22:10.745Z</time>
      </trkpt>
      <trkpt lat="46.56675" lon="5.46635">
        <ele>561</ele>
        <time>2021-05-29T08:22:11.745Z</time>
      </trkpt>
      <trkpt lat="46.56676" lon="5.46637">
        <ele>561</ele>
        <time>2021-05-29T08:22:12.744Z</time>
      </trkpt>
      <trkpt lat="46.56677" lon="5.46639">
        <ele>561</ele>
        <time>2021-05-29T08:22:13.744Z</time>
      </trkpt>
      <trkpt lat="46.56678" lon="5.46641">
        <ele>560</ele>
        <time>2021-05-29T08:22:14.744Z</time>
      </trkpt>
      <trkpt lat="46.56679" lon="5.46643">
        <ele>560</ele>
        <time>2021-05-29T08:22:15.745Z</time>
      </trkpt>
      <trkpt lat="46.56679" lon="5.46644">
        <ele>560</ele>
        <time>2021-05-29T08:22:16.745Z</time>
      </trkpt>
      <trkpt lat="46.5668" lon="5.46646">
        <ele>560</ele>
        <time>2021-05-29T08:22:17.745Z</time>
      </trkpt>
      <trkpt lat="46.5668" lon="5.46647">
        <ele>560</ele>
        <time>2021-05-29T08:22:18.745Z</time>
      </trkpt>
      <trkpt lat="46.5668" lon="5.46649">
        <ele>560</ele>
        <time>2021-05-29T08:22:19.745Z</time>
      </trkpt>
      <trkpt lat="46.56681" lon="5.46651">
        <ele>560</ele>
        <time>2021-05-29T08:22:20.744Z</time>
      </trkpt>
      <trkpt lat="46.56682" lon="5.46652">
        <ele>560</ele>
        <time>2021-05-29T08:22:21.745Z</time>
      </trkpt>
      <trkpt lat="46.56683" lon="5.46654">
        <ele>560</ele>
        <time>2021-05-29T08:22:22.744Z</time>
      </trkpt>
      <trkpt lat="46.56684" lon="5.46656">
        <ele>560</ele>
        <time>2021-05-29T08:22:23.744Z</time>
      </trkpt>
      <trkpt lat="46.56686" lon="5.46658">
        <ele>560</ele>
        <time>2021-05-29T08:22:24.744Z</time>
      </trkpt>
      <trkpt lat="46.56688" lon="5.4666">
        <ele>561</ele>
        <time>2021-05-29T08:22:25.745Z</time>
      </trkpt>
      <trkpt lat="46.5669" lon="5.46662">
        <ele>561</ele>
        <time>2021-05-29T08:22:26.744Z</time>
      </trkpt>
      <trkpt lat="46.56692" lon="5.46665">
        <ele>561</ele>
        <time>2021-05-29T08:22:27.744Z</time>
      </trkpt>
      <trkpt lat="46.56694" lon="5.46668">
        <ele>561</ele>
        <time>2021-05-29T08:22:28.745Z</time>
      </trkpt>
      <trkpt lat="46.56697" lon="5.46672">
        <ele>561</ele>
        <time>2021-05-29T08:22:29.744Z</time>
      </trkpt>
      <trkpt lat="46.56699" lon="5.46676">
        <ele>561</ele>
        <time>2021-05-29T08:22:30.745Z</time>
      </trkpt>
      <trkpt lat="46.56702" lon="5.46679">
        <ele>561</ele>
        <time>2021-05-29T08:22:31.745Z</time>
      </trkpt>
      <trkpt lat="46.56705" lon="5.46681">
        <ele>561</ele>
        <time>2021-05-29T08:22:32.745Z</time>
      </trkpt>
      <trkpt lat="46.56707" lon="5.46684">
        <ele>561</ele>
        <time>2021-05-29T08:22:33.744Z</time>
      </trkpt>
      <trkpt lat="46.56708" lon="5.46686">
        <ele>561</ele>
        <time>2021-05-29T08:22:34.745Z</time>
      </trkpt>
      <trkpt lat="46.56709" lon="5.46688">
        <ele>561</ele>
        <time>2021-05-29T08:22:35.745Z</time>
      </trkpt>
      <trkpt lat="46.5671" lon="5.4669">
        <ele>562</ele>
        <time>2021-05-29T08:22:36.745Z</time>
      </trkpt>
      <trkpt lat="46.56712" lon="5.46692">
        <ele>562</ele>
        <time>2021-05-29T08:22:37.745Z</time>
      </trkpt>
      <trkpt lat="46.56714" lon="5.46694">
        <ele>562</ele>
        <time>2021-05-29T08:22:38.745Z</time>
      </trkpt>
      <trkpt lat="46.56716" lon="5.46696">
        <ele>562</ele>
        <time>2021-05-29T08:22:39.745Z</time>
      </trkpt>
      <trkpt lat="46.56718" lon="5.46698">
        <ele>562</ele>
        <time>2021-05-29T08:22:40.745Z</time>
      </trkpt>
      <trkpt lat="46.5672" lon="5.467">
        <ele>562</ele>
        <time>2021-05-29T08:22:41.744Z</time>
      </trkpt>
      <trkpt lat="46.56722" lon="5.46702">
        <ele>562</ele>
        <time>2021-05-29T08:22:42.745Z</time>
      </trkpt>
      <trkpt lat="46.56724" lon="5.46704">
        <ele>562</ele>
        <time>2021-05-29T08:22:43.745Z</time>
      </trkpt>
      <trkpt lat="46.56726" lon="5.46706">
        <ele>563</ele>
        <time>2021-05-29T08:22:44.745Z</time>
      </trkpt>
      <trkpt lat="46.56728" lon="5.46709">
        <ele>563</ele>
        <time>2021-05-29T08:22:45.744Z</time>
      </trkpt>
      <trkpt lat="46.5673" lon="5.46711">
        <ele>563</ele>
        <time>2021-05-29T08:22:46.745Z</time>
      </trkpt>
      <trkpt lat="46.56732" lon="5.46714">
        <ele>562</ele>
        <time>2021-05-29T08:22:47.745Z</time>
      </trkpt>
      <trkpt lat="46.56735" lon="5.46716">
        <ele>562</ele>
        <time>2021-05-29T08:22:48.744Z</time>
      </trkpt>
      <trkpt lat="46.56737" lon="5.46718">
        <ele>562</ele>
        <time>2021-05-29T08:22:49.745Z</time>
      </trkpt>
      <trkpt lat="46.56738" lon="5.46721">
        <ele>562</ele>
        <time>2021-05-29T08:22:50.745Z</time>
      </trkpt>
      <trkpt lat="46.5674" lon="5.46723">
        <ele>562</ele>
        <time>2021-05-29T08:22:51.744Z</time>
      </trkpt>
      <trkpt lat="46.56741" lon="5.46725">
        <ele>562</ele>
        <time>2021-05-29T08:22:52.745Z</time>
      </trkpt>
      <trkpt lat="46.56742" lon="5.46727">
        <ele>562</ele>
        <time>2021-05-29T08:22:53.744Z</time>
      </trkpt>
      <trkpt lat="46.56743" lon="5.46729">
        <ele>562</ele>
        <time>2021-05-29T08:22:54.745Z</time>
      </trkpt>
      <trkpt lat="46.56745" lon="5.46732">
        <ele>561</ele>
        <time>2021-05-29T08:22:55.744Z</time>
      </trkpt>
      <trkpt lat="46.56746" lon="5.46734">
        <ele>561</ele>
        <time>2021-05-29T08:22:56.745Z</time>
      </trkpt>
      <trkpt lat="46.56748" lon="5.46736">
        <ele>561</ele>
        <time>2021-05-29T08:22:57.745Z</time>
      </trkpt>
      <trkpt lat="46.5675" lon="5.46739">
        <ele>560</ele>
        <time>2021-05-29T08:22:58.745Z</time>
      </trkpt>
      <trkpt lat="46.56752" lon="5.46741">
        <ele>560</ele>
        <time>2021-05-29T08:22:59.745Z</time>
      </trkpt>
      <trkpt lat="46.56753" lon="5.46744">
        <ele>560</ele>
        <time>2021-05-29T08:23:00.744Z</time>
      </trkpt>
      <trkpt lat="46.56755" lon="5.46746">
        <ele>560</ele>
        <time>2021-05-29T08:23:01.744Z</time>
      </trkpt>
      <trkpt lat="46.56757" lon="5.46748">
        <ele>560</ele>
        <time>2021-05-29T08:23:02.745Z</time>
      </trkpt>
      <trkpt lat="46.56759" lon="5.4675">
        <ele>560</ele>
        <time>2021-05-29T08:23:03.745Z</time>
      </trkpt>
      <trkpt lat="46.56761" lon="5.46752">
        <ele>560</ele>
        <time>2021-05-29T08:23:04.745Z</time>
      </trkpt>
      <trkpt lat="46.56762" lon="5.46753">
        <ele>560</ele>
        <time>2021-05-29T08:23:05.745Z</time>
      </trkpt>
      <trkpt lat="46.56764" lon="5.46754">
        <ele>560</ele>
        <time>2021-05-29T08:23:06.744Z</time>
      </trkpt>
      <trkpt lat="46.56765" lon="5.46755">
        <ele>560</ele>
        <time>2021-05-29T08:23:07.744Z</time>
      </trkpt>
      <trkpt lat="46.56768" lon="5.46757">
        <ele>560</ele>
        <time>2021-05-29T08:23:08.744Z</time>
      </trkpt>
      <trkpt lat="46.5677" lon="5.46758">
        <ele>560</ele>
        <time>2021-05-29T08:23:09.745Z</time>
      </trkpt>
      <trkpt lat="46.56772" lon="5.46759">
        <ele>560</ele>
        <time>2021-05-29T08:23:10.745Z</time>
      </trkpt>
      <trkpt lat="46.56774" lon="5.46761">
        <ele>561</ele>
        <time>2021-05-29T08:23:11.744Z</time>
      </trkpt>
      <trkpt lat="46.56777" lon="5.46763">
        <ele>561</ele>
        <time>2021-05-29T08:23:12.745Z</time>
      </trkpt>
      <trkpt lat="46.56779" lon="5.46764">
        <ele>562</ele>
        <time>2021-05-29T08:23:13.744Z</time>
      </trkpt>
      <trkpt lat="46.56782" lon="5.46766">
        <ele>562</ele>
        <time>2021-05-29T08:23:14.745Z</time>
      </trkpt>
      <trkpt lat="46.56786" lon="5.46768">
        <ele>562</ele>
        <time>2021-05-29T08:23:15.745Z</time>
      </trkpt>
      <trkpt lat="46.56789" lon="5.46771">
        <ele>562</ele>
        <time>2021-05-29T08:23:16.745Z</time>
      </trkpt>
      <trkpt lat="46.56792" lon="5.46773">
        <ele>563</ele>
        <time>2021-05-29T08:23:17.744Z</time>
      </trkpt>
      <trkpt lat="46.56794" lon="5.46774">
        <ele>563</ele>
        <time>2021-05-29T08:23:18.745Z</time>
      </trkpt>
      <trkpt lat="46.56797" lon="5.46775">
        <ele>563</ele>
        <time>2021-05-29T08:23:19.745Z</time>
      </trkpt>
      <trkpt lat="46.56799" lon="5.46776">
        <ele>563</ele>
        <time>2021-05-29T08:23:20.744Z</time>
      </trkpt>
      <trkpt lat="46.56802" lon="5.46778">
        <ele>564</ele>
        <time>2021-05-29T08:23:21.745Z</time>
      </trkpt>
      <trkpt lat="46.56805" lon="5.46779">
        <ele>564</ele>
        <time>2021-05-29T08:23:22.745Z</time>
      </trkpt>
      <trkpt lat="46.56809" lon="5.4678">
        <ele>564</ele>
        <time>2021-05-29T08:23:23.745Z</time>
      </trkpt>
      <trkpt lat="46.56811" lon="5.46781">
        <ele>564</ele>
        <time>2021-05-29T08:23:24.744Z</time>
      </trkpt>
      <trkpt lat="46.56813" lon="5.46782">
        <ele>564</ele>
        <time>2021-05-29T08:23:25.744Z</time>
      </trkpt>
      <trkpt lat="46.56815" lon="5.46782">
        <ele>564</ele>
        <time>2021-05-29T08:23:26.745Z</time>
      </trkpt>
      <trkpt lat="46.56817" lon="5.46782">
        <ele>564</ele>
        <time>2021-05-29T08:23:27.745Z</time>
      </trkpt>
      <trkpt lat="46.5682" lon="5.46782">
        <ele>564</ele>
        <time>2021-05-29T08:23:28.744Z</time>
      </trkpt>
      <trkpt lat="46.56821" lon="5.46782">
        <ele>565</ele>
        <time>2021-05-29T08:23:29.745Z</time>
      </trkpt>
      <trkpt lat="46.56823" lon="5.46782">
        <ele>565</ele>
        <time>2021-05-29T08:23:30.745Z</time>
      </trkpt>
      <trkpt lat="46.56825" lon="5.46782">
        <ele>565</ele>
        <time>2021-05-29T08:23:31.745Z</time>
      </trkpt>
      <trkpt lat="46.56827" lon="5.46781">
        <ele>565</ele>
        <time>2021-05-29T08:23:32.745Z</time>
      </trkpt>
      <trkpt lat="46.56829" lon="5.4678">
        <ele>565</ele>
        <time>2021-05-29T08:23:33.745Z</time>
      </trkpt>
      <trkpt lat="46.56831" lon="5.46779">
        <ele>566</ele>
        <time>2021-05-29T08:23:34.744Z</time>
      </trkpt>
      <trkpt lat="46.56834" lon="5.46778">
        <ele>566</ele>
        <time>2021-05-29T08:23:35.745Z</time>
      </trkpt>
      <trkpt lat="46.56836" lon="5.46777">
        <ele>566</ele>
        <time>2021-05-29T08:23:36.744Z</time>
      </trkpt>
      <trkpt lat="46.56838" lon="5.46777">
        <ele>566</ele>
        <time>2021-05-29T08:23:37.745Z</time>
      </trkpt>
      <trkpt lat="46.5684" lon="5.46777">
        <ele>567</ele>
        <time>2021-05-29T08:23:38.745Z</time>
      </trkpt>
      <trkpt lat="46.56842" lon="5.46777">
        <ele>567</ele>
        <time>2021-05-29T08:23:39.745Z</time>
      </trkpt>
      <trkpt lat="46.56845" lon="5.46778">
        <ele>567</ele>
        <time>2021-05-29T08:23:40.745Z</time>
      </trkpt>
      <trkpt lat="46.56848" lon="5.46779">
        <ele>567</ele>
        <time>2021-05-29T08:23:41.744Z</time>
      </trkpt>
      <trkpt lat="46.5685" lon="5.4678">
        <ele>567</ele>
        <time>2021-05-29T08:23:42.745Z</time>
      </trkpt>
      <trkpt lat="46.56853" lon="5.46781">
        <ele>567</ele>
        <time>2021-05-29T08:23:43.745Z</time>
      </trkpt>
      <trkpt lat="46.56856" lon="5.46783">
        <ele>567</ele>
        <time>2021-05-29T08:23:44.745Z</time>
      </trkpt>
      <trkpt lat="46.56859" lon="5.46784">
        <ele>567</ele>
        <time>2021-05-29T08:23:45.744Z</time>
      </trkpt>
      <trkpt lat="46.56861" lon="5.46785">
        <ele>567</ele>
        <time>2021-05-29T08:23:46.745Z</time>
      </trkpt>
      <trkpt lat="46.56865" lon="5.46786">
        <ele>567</ele>
        <time>2021-05-29T08:23:47.745Z</time>
      </trkpt>
      <trkpt lat="46.56868" lon="5.46788">
        <ele>567</ele>
        <time>2021-05-29T08:23:48.745Z</time>
      </trkpt>
      <trkpt lat="46.56871" lon="5.46789">
        <ele>567</ele>
        <time>2021-05-29T08:23:49.745Z</time>
      </trkpt>
      <trkpt lat="46.56874" lon="5.4679">
        <ele>567</ele>
        <time>2021-05-29T08:23:50.744Z</time>
      </trkpt>
      <trkpt lat="46.56878" lon="5.46792">
        <ele>567</ele>
        <time>2021-05-29T08:23:51.744Z</time>
      </trkpt>
      <trkpt lat="46.56881" lon="5.46794">
        <ele>567</ele>
        <time>2021-05-29T08:23:52.744Z</time>
      </trkpt>
      <trkpt lat="46.56885" lon="5.46796">
        <ele>567</ele>
        <time>2021-05-29T08:23:53.745Z</time>
      </trkpt>
      <trkpt lat="46.5689" lon="5.46799">
        <ele>566</ele>
        <time>2021-05-29T08:23:54.745Z</time>
      </trkpt>
      <trkpt lat="46.56893" lon="5.46802">
        <ele>566</ele>
        <time>2021-05-29T08:23:55.745Z</time>
      </trkpt>
      <trkpt lat="46.56894" lon="5.46804">
        <ele>565</ele>
        <time>2021-05-29T08:23:56.745Z</time>
      </trkpt>
      <trkpt lat="46.56896" lon="5.46806">
        <ele>565</ele>
        <time>2021-05-29T08:23:57.745Z</time>
      </trkpt>
      <trkpt lat="46.56897" lon="5.46808">
        <ele>564</ele>
        <time>2021-05-29T08:23:58.744Z</time>
      </trkpt>
      <trkpt lat="46.56899" lon="5.4681">
        <ele>564</ele>
        <time>2021-05-29T08:23:59.745Z</time>
      </trkpt>
      <trkpt lat="46.56901" lon="5.46812">
        <ele>563</ele>
        <time>2021-05-29T08:24:00.745Z</time>
      </trkpt>
      <trkpt lat="46.56903" lon="5.46814">
        <ele>562</ele>
        <time>2021-05-29T08:24:01.745Z</time>
      </trkpt>
      <trkpt lat="46.56905" lon="5.46816">
        <ele>561</ele>
        <time>2021-05-29T08:24:02.745Z</time>
      </trkpt>
      <trkpt lat="46.56908" lon="5.46818">
        <ele>560</ele>
        <time>2021-05-29T08:24:03.745Z</time>
      </trkpt>
      <trkpt lat="46.5691" lon="5.4682">
        <ele>560</ele>
        <time>2021-05-29T08:24:04.744Z</time>
      </trkpt>
      <trkpt lat="46.56911" lon="5.46822">
        <ele>559</ele>
        <time>2021-05-29T08:24:05.745Z</time>
      </trkpt>
      <trkpt lat="46.56913" lon="5.46825">
        <ele>559</ele>
        <time>2021-05-29T08:24:06.744Z</time>
      </trkpt>
      <trkpt lat="46.56915" lon="5.46827">
        <ele>559</ele>
        <time>2021-05-29T08:24:07.744Z</time>
      </trkpt>
      <trkpt lat="46.56916" lon="5.4683">
        <ele>559</ele>
        <time>2021-05-29T08:24:08.744Z</time>
      </trkpt>
      <trkpt lat="46.56918" lon="5.46832">
        <ele>558</ele>
        <time>2021-05-29T08:24:09.745Z</time>
      </trkpt>
      <trkpt lat="46.56919" lon="5.46835">
        <ele>559</ele>
        <time>2021-05-29T08:24:10.744Z</time>
      </trkpt>
      <trkpt lat="46.56921" lon="5.46838">
        <ele>558</ele>
        <time>2021-05-29T08:24:11.744Z</time>
      </trkpt>
      <trkpt lat="46.56923" lon="5.46841">
        <ele>558</ele>
        <time>2021-05-29T08:24:12.745Z</time>
      </trkpt>
      <trkpt lat="46.56925" lon="5.46844">
        <ele>558</ele>
        <time>2021-05-29T08:24:13.744Z</time>
      </trkpt>
      <trkpt lat="46.56927" lon="5.46847">
        <ele>558</ele>
        <time>2021-05-29T08:24:14.744Z</time>
      </trkpt>
      <trkpt lat="46.56929" lon="5.4685">
        <ele>558</ele>
        <time>2021-05-29T08:24:15.745Z</time>
      </trkpt>
      <trkpt lat="46.56931" lon="5.46853">
        <ele>558</ele>
        <time>2021-05-29T08:24:16.745Z</time>
      </trkpt>
      <trkpt lat="46.56934" lon="5.46855">
        <ele>557</ele>
        <time>2021-05-29T08:24:17.745Z</time>
      </trkpt>
      <trkpt lat="46.56936" lon="5.46858">
        <ele>557</ele>
        <time>2021-05-29T08:24:18.745Z</time>
      </trkpt>
      <trkpt lat="46.56937" lon="5.4686">
        <ele>556</ele>
        <time>2021-05-29T08:24:19.745Z</time>
      </trkpt>
      <trkpt lat="46.56939" lon="5.46862">
        <ele>555</ele>
        <time>2021-05-29T08:24:20.745Z</time>
      </trkpt>
      <trkpt lat="46.56941" lon="5.46864">
        <ele>555</ele>
        <time>2021-05-29T08:24:21.745Z</time>
      </trkpt>
      <trkpt lat="46.56944" lon="5.46866">
        <ele>554</ele>
        <time>2021-05-29T08:24:22.745Z</time>
      </trkpt>
      <trkpt lat="46.56946" lon="5.46868">
        <ele>554</ele>
        <time>2021-05-29T08:24:23.745Z</time>
      </trkpt>
      <trkpt lat="46.56949" lon="5.4687">
        <ele>553</ele>
        <time>2021-05-29T08:24:24.744Z</time>
      </trkpt>
      <trkpt lat="46.56951" lon="5.46871">
        <ele>553</ele>
        <time>2021-05-29T08:24:25.745Z</time>
      </trkpt>
      <trkpt lat="46.56953" lon="5.46872">
        <ele>552</ele>
        <time>2021-05-29T08:24:26.744Z</time>
      </trkpt>
      <trkpt lat="46.56955" lon="5.46873">
        <ele>552</ele>
        <time>2021-05-29T08:24:27.745Z</time>
      </trkpt>
      <trkpt lat="46.56957" lon="5.46875">
        <ele>551</ele>
        <time>2021-05-29T08:24:28.744Z</time>
      </trkpt>
      <trkpt lat="46.56961" lon="5.46878">
        <ele>551</ele>
        <time>2021-05-29T08:24:29.745Z</time>
      </trkpt>
      <trkpt lat="46.56964" lon="5.4688">
        <ele>551</ele>
        <time>2021-05-29T08:24:30.745Z</time>
      </trkpt>
      <trkpt lat="46.56967" lon="5.46882">
        <ele>551</ele>
        <time>2021-05-29T08:24:31.744Z</time>
      </trkpt>
      <trkpt lat="46.56971" lon="5.46884">
        <ele>550</ele>
        <time>2021-05-29T08:24:32.744Z</time>
      </trkpt>
      <trkpt lat="46.56974" lon="5.46887">
        <ele>550</ele>
        <time>2021-05-29T08:24:33.745Z</time>
      </trkpt>
      <trkpt lat="46.56978" lon="5.4689">
        <ele>550</ele>
        <time>2021-05-29T08:24:34.745Z</time>
      </trkpt>
      <trkpt lat="46.56981" lon="5.46892">
        <ele>550</ele>
        <time>2021-05-29T08:24:35.745Z</time>
      </trkpt>
      <trkpt lat="46.56983" lon="5.46895">
        <ele>550</ele>
        <time>2021-05-29T08:24:36.745Z</time>
      </trkpt>
      <trkpt lat="46.56985" lon="5.46898">
        <ele>550</ele>
        <time>2021-05-29T08:24:37.745Z</time>
      </trkpt>
      <trkpt lat="46.56986" lon="5.469">
        <ele>550</ele>
        <time>2021-05-29T08:24:38.744Z</time>
      </trkpt>
      <trkpt lat="46.56988" lon="5.46902">
        <ele>549</ele>
        <time>2021-05-29T08:24:39.745Z</time>
      </trkpt>
      <trkpt lat="46.5699" lon="5.46904">
        <ele>549</ele>
        <time>2021-05-29T08:24:40.745Z</time>
      </trkpt>
      <trkpt lat="46.56992" lon="5.46906">
        <ele>549</ele>
        <time>2021-05-29T08:24:41.745Z</time>
      </trkpt>
      <trkpt lat="46.56993" lon="5.46908">
        <ele>549</ele>
        <time>2021-05-29T08:24:42.744Z</time>
      </trkpt>
      <trkpt lat="46.56994" lon="5.4691">
        <ele>548</ele>
        <time>2021-05-29T08:24:43.745Z</time>
      </trkpt>
      <trkpt lat="46.56995" lon="5.46912">
        <ele>548</ele>
        <time>2021-05-29T08:24:44.745Z</time>
      </trkpt>
      <trkpt lat="46.56996" lon="5.46914">
        <ele>548</ele>
        <time>2021-05-29T08:24:45.745Z</time>
      </trkpt>
      <trkpt lat="46.56997" lon="5.46917">
        <ele>548</ele>
        <time>2021-05-29T08:24:46.745Z</time>
      </trkpt>
      <trkpt lat="46.56998" lon="5.46919">
        <ele>548</ele>
        <time>2021-05-29T08:24:47.745Z</time>
      </trkpt>
      <trkpt lat="46.56999" lon="5.4692">
        <ele>548</ele>
        <time>2021-05-29T08:24:48.745Z</time>
      </trkpt>
      <trkpt lat="46.56999" lon="5.46922">
        <ele>547</ele>
        <time>2021-05-29T08:24:49.745Z</time>
      </trkpt>
      <trkpt lat="46.57001" lon="5.46924">
        <ele>547</ele>
        <time>2021-05-29T08:24:50.745Z</time>
      </trkpt>
      <trkpt lat="46.57002" lon="5.46925">
        <ele>546</ele>
        <time>2021-05-29T08:24:51.744Z</time>
      </trkpt>
      <trkpt lat="46.57002" lon="5.46927">
        <ele>546</ele>
        <time>2021-05-29T08:24:52.744Z</time>
      </trkpt>
      <trkpt lat="46.57003" lon="5.46928">
        <ele>545</ele>
        <time>2021-05-29T08:24:53.744Z</time>
      </trkpt>
      <trkpt lat="46.57004" lon="5.46928">
        <ele>545</ele>
        <time>2021-05-29T08:24:54.745Z</time>
      </trkpt>
      <trkpt lat="46.57004" lon="5.46929">
        <ele>544</ele>
        <time>2021-05-29T08:24:55.745Z</time>
      </trkpt>
      <trkpt lat="46.57005" lon="5.46929">
        <ele>544</ele>
        <time>2021-05-29T08:24:56.745Z</time>
      </trkpt>
      <trkpt lat="46.57007" lon="5.4693">
        <ele>543</ele>
        <time>2021-05-29T08:24:57.745Z</time>
      </trkpt>
      <trkpt lat="46.57008" lon="5.46931">
        <ele>543</ele>
        <time>2021-05-29T08:24:58.744Z</time>
      </trkpt>
      <trkpt lat="46.5701" lon="5.46932">
        <ele>542</ele>
        <time>2021-05-29T08:24:59.745Z</time>
      </trkpt>
      <trkpt lat="46.57011" lon="5.46933">
        <ele>542</ele>
        <time>2021-05-29T08:25:00.744Z</time>
      </trkpt>
      <trkpt lat="46.57013" lon="5.46935">
        <ele>541</ele>
        <time>2021-05-29T08:25:01.745Z</time>
      </trkpt>
      <trkpt lat="46.57015" lon="5.46937">
        <ele>541</ele>
        <time>2021-05-29T08:25:02.745Z</time>
      </trkpt>
      <trkpt lat="46.57016" lon="5.46938">
        <ele>540</ele>
        <time>2021-05-29T08:25:03.744Z</time>
      </trkpt>
      <trkpt lat="46.57018" lon="5.4694">
        <ele>540</ele>
        <time>2021-05-29T08:25:04.745Z</time>
      </trkpt>
      <trkpt lat="46.5702" lon="5.46942">
        <ele>540</ele>
        <time>2021-05-29T08:25:05.745Z</time>
      </trkpt>
      <trkpt lat="46.57022" lon="5.46944">
        <ele>540</ele>
        <time>2021-05-29T08:25:06.745Z</time>
      </trkpt>
      <trkpt lat="46.57024" lon="5.46947">
        <ele>541</ele>
        <time>2021-05-29T08:25:07.745Z</time>
      </trkpt>
      <trkpt lat="46.57025" lon="5.46949">
        <ele>541</ele>
        <time>2021-05-29T08:25:08.744Z</time>
      </trkpt>
      <trkpt lat="46.57025" lon="5.46951">
        <ele>541</ele>
        <time>2021-05-29T08:25:09.745Z</time>
      </trkpt>
      <trkpt lat="46.57026" lon="5.46953">
        <ele>541</ele>
        <time>2021-05-29T08:25:10.745Z</time>
      </trkpt>
      <trkpt lat="46.57027" lon="5.46955">
        <ele>541</ele>
        <time>2021-05-29T08:25:11.744Z</time>
      </trkpt>
      <trkpt lat="46.57028" lon="5.46956">
        <ele>541</ele>
        <time>2021-05-29T08:25:12.745Z</time>
      </trkpt>
      <trkpt lat="46.57029" lon="5.46959">
        <ele>541</ele>
        <time>2021-05-29T08:25:13.745Z</time>
      </trkpt>
      <trkpt lat="46.5703" lon="5.46962">
        <ele>541</ele>
        <time>2021-05-29T08:25:14.745Z</time>
      </trkpt>
      <trkpt lat="46.57033" lon="5.46964">
        <ele>541</ele>
        <time>2021-05-29T08:25:15.745Z</time>
      </trkpt>
      <trkpt lat="46.57036" lon="5.46966">
        <ele>540</ele>
        <time>2021-05-29T08:25:16.745Z</time>
      </trkpt>
      <trkpt lat="46.57039" lon="5.46969">
        <ele>540</ele>
        <time>2021-05-29T08:25:17.745Z</time>
      </trkpt>
      <trkpt lat="46.57043" lon="5.46973">
        <ele>540</ele>
        <time>2021-05-29T08:25:18.744Z</time>
      </trkpt>
      <trkpt lat="46.57045" lon="5.46976">
        <ele>540</ele>
        <time>2021-05-29T08:25:19.744Z</time>
      </trkpt>
      <trkpt lat="46.57046" lon="5.46978">
        <ele>540</ele>
        <time>2021-05-29T08:25:20.744Z</time>
      </trkpt>
      <trkpt lat="46.57048" lon="5.46981">
        <ele>540</ele>
        <time>2021-05-29T08:25:21.744Z</time>
      </trkpt>
      <trkpt lat="46.5705" lon="5.46983">
        <ele>541</ele>
        <time>2021-05-29T08:25:22.744Z</time>
      </trkpt>
      <trkpt lat="46.57052" lon="5.46985">
        <ele>541</ele>
        <time>2021-05-29T08:25:23.745Z</time>
      </trkpt>
      <trkpt lat="46.57054" lon="5.46988">
        <ele>542</ele>
        <time>2021-05-29T08:25:24.744Z</time>
      </trkpt>
      <trkpt lat="46.57056" lon="5.4699">
        <ele>542</ele>
        <time>2021-05-29T08:25:25.745Z</time>
      </trkpt>
      <trkpt lat="46.57058" lon="5.46992">
        <ele>542</ele>
        <time>2021-05-29T08:25:26.745Z</time>
      </trkpt>
      <trkpt lat="46.5706" lon="5.46994">
        <ele>542</ele>
        <time>2021-05-29T08:25:27.745Z</time>
      </trkpt>
      <trkpt lat="46.57062" lon="5.46996">
        <ele>542</ele>
        <time>2021-05-29T08:25:28.745Z</time>
      </trkpt>
      <trkpt lat="46.57065" lon="5.46998">
        <ele>542</ele>
        <time>2021-05-29T08:25:29.744Z</time>
      </trkpt>
      <trkpt lat="46.57068" lon="5.47">
        <ele>542</ele>
        <time>2021-05-29T08:25:30.745Z</time>
      </trkpt>
      <trkpt lat="46.5707" lon="5.47002">
        <ele>542</ele>
        <time>2021-05-29T08:25:31.744Z</time>
      </trkpt>
      <trkpt lat="46.57073" lon="5.47003">
        <ele>542</ele>
        <time>2021-05-29T08:25:32.745Z</time>
      </trkpt>
      <trkpt lat="46.57077" lon="5.47006">
        <ele>542</ele>
        <time>2021-05-29T08:25:33.745Z</time>
      </trkpt>
      <trkpt lat="46.5708" lon="5.47008">
        <ele>541</ele>
        <time>2021-05-29T08:25:34.744Z</time>
      </trkpt>
      <trkpt lat="46.57083" lon="5.4701">
        <ele>541</ele>
        <time>2021-05-29T08:25:35.745Z</time>
      </trkpt>
      <trkpt lat="46.57086" lon="5.47012">
        <ele>540</ele>
        <time>2021-05-29T08:25:36.744Z</time>
      </trkpt>
      <trkpt lat="46.57089" lon="5.47014">
        <ele>540</ele>
        <time>2021-05-29T08:25:37.745Z</time>
      </trkpt>
      <trkpt lat="46.57092" lon="5.47016">
        <ele>540</ele>
        <time>2021-05-29T08:25:38.745Z</time>
      </trkpt>
      <trkpt lat="46.57095" lon="5.47018">
        <ele>539</ele>
        <time>2021-05-29T08:25:39.745Z</time>
      </trkpt>
      <trkpt lat="46.57097" lon="5.4702">
        <ele>539</ele>
        <time>2021-05-29T08:25:40.744Z</time>
      </trkpt>
      <trkpt lat="46.571" lon="5.47022">
        <ele>539</ele>
        <time>2021-05-29T08:25:41.745Z</time>
      </trkpt>
      <trkpt lat="46.57102" lon="5.47024">
        <ele>539</ele>
        <time>2021-05-29T08:25:42.745Z</time>
      </trkpt>
      <trkpt lat="46.57105" lon="5.47027">
        <ele>539</ele>
        <time>2021-05-29T08:25:43.745Z</time>
      </trkpt>
      <trkpt lat="46.57108" lon="5.47029">
        <ele>539</ele>
        <time>2021-05-29T08:25:44.745Z</time>
      </trkpt>
      <trkpt lat="46.5711" lon="5.47032">
        <ele>539</ele>
        <time>2021-05-29T08:25:45.745Z</time>
      </trkpt>
      <trkpt lat="46.57113" lon="5.47034">
        <ele>538</ele>
        <time>2021-05-29T08:25:46.744Z</time>
      </trkpt>
      <trkpt lat="46.57115" lon="5.47038">
        <ele>538</ele>
        <time>2021-05-29T08:25:47.745Z</time>
      </trkpt>
      <trkpt lat="46.57117" lon="5.47041">
        <ele>538</ele>
        <time>2021-05-29T08:25:48.745Z</time>
      </trkpt>
      <trkpt lat="46.5712" lon="5.47043">
        <ele>537</ele>
        <time>2021-05-29T08:25:49.745Z</time>
      </trkpt>
      <trkpt lat="46.57122" lon="5.47046">
        <ele>537</ele>
        <time>2021-05-29T08:25:50.745Z</time>
      </trkpt>
      <trkpt lat="46.57125" lon="5.47048">
        <ele>536</ele>
        <time>2021-05-29T08:25:51.744Z</time>
      </trkpt>
      <trkpt lat="46.57126" lon="5.4705">
        <ele>535</ele>
        <time>2021-05-29T08:25:52.745Z</time>
      </trkpt>
      <trkpt lat="46.57128" lon="5.47052">
        <ele>535</ele>
        <time>2021-05-29T08:25:53.745Z</time>
      </trkpt>
      <trkpt lat="46.57129" lon="5.47054">
        <ele>534</ele>
        <time>2021-05-29T08:25:54.745Z</time>
      </trkpt>
      <trkpt lat="46.57131" lon="5.47057">
        <ele>534</ele>
        <time>2021-05-29T08:25:55.745Z</time>
      </trkpt>
      <trkpt lat="46.57132" lon="5.47059">
        <ele>533</ele>
        <time>2021-05-29T08:25:56.745Z</time>
      </trkpt>
      <trkpt lat="46.57134" lon="5.47061">
        <ele>533</ele>
        <time>2021-05-29T08:25:57.744Z</time>
      </trkpt>
      <trkpt lat="46.57135" lon="5.47064">
        <ele>533</ele>
        <time>2021-05-29T08:25:58.745Z</time>
      </trkpt>
      <trkpt lat="46.57137" lon="5.47066">
        <ele>533</ele>
        <time>2021-05-29T08:25:59.745Z</time>
      </trkpt>
      <trkpt lat="46.57138" lon="5.47068">
        <ele>533</ele>
        <time>2021-05-29T08:26:00.744Z</time>
      </trkpt>
      <trkpt lat="46.57139" lon="5.47069">
        <ele>533</ele>
        <time>2021-05-29T08:26:01.745Z</time>
      </trkpt>
      <trkpt lat="46.5714" lon="5.47071">
        <ele>533</ele>
        <time>2021-05-29T08:26:02.745Z</time>
      </trkpt>
      <trkpt lat="46.57141" lon="5.47072">
        <ele>533</ele>
        <time>2021-05-29T08:26:03.745Z</time>
      </trkpt>
      <trkpt lat="46.57143" lon="5.47074">
        <ele>534</ele>
        <time>2021-05-29T08:26:04.745Z</time>
      </trkpt>
      <trkpt lat="46.57144" lon="5.47075">
        <ele>534</ele>
        <time>2021-05-29T08:26:05.745Z</time>
      </trkpt>
      <trkpt lat="46.57146" lon="5.47077">
        <ele>534</ele>
        <time>2021-05-29T08:26:06.745Z</time>
      </trkpt>
      <trkpt lat="46.57148" lon="5.47079">
        <ele>534</ele>
        <time>2021-05-29T08:26:07.744Z</time>
      </trkpt>
      <trkpt lat="46.57149" lon="5.47081">
        <ele>535</ele>
        <time>2021-05-29T08:26:08.744Z</time>
      </trkpt>
      <trkpt lat="46.57151" lon="5.47083">
        <ele>535</ele>
        <time>2021-05-29T08:26:09.745Z</time>
      </trkpt>
      <trkpt lat="46.57152" lon="5.47084">
        <ele>535</ele>
        <time>2021-05-29T08:26:10.744Z</time>
      </trkpt>
      <trkpt lat="46.57155" lon="5.47086">
        <ele>535</ele>
        <time>2021-05-29T08:26:11.745Z</time>
      </trkpt>
      <trkpt lat="46.57158" lon="5.47088">
        <ele>535</ele>
        <time>2021-05-29T08:26:12.744Z</time>
      </trkpt>
      <trkpt lat="46.57161" lon="5.4709">
        <ele>535</ele>
        <time>2021-05-29T08:26:13.744Z</time>
      </trkpt>
      <trkpt lat="46.57165" lon="5.47093">
        <ele>535</ele>
        <time>2021-05-29T08:26:14.745Z</time>
      </trkpt>
      <trkpt lat="46.57168" lon="5.47095">
        <ele>534</ele>
        <time>2021-05-29T08:26:15.745Z</time>
      </trkpt>
      <trkpt lat="46.5717" lon="5.47095">
        <ele>534</ele>
        <time>2021-05-29T08:26:16.744Z</time>
      </trkpt>
      <trkpt lat="46.57172" lon="5.47097">
        <ele>534</ele>
        <time>2021-05-29T08:26:17.745Z</time>
      </trkpt>
      <trkpt lat="46.57175" lon="5.47098">
        <ele>534</ele>
        <time>2021-05-29T08:26:18.744Z</time>
      </trkpt>
      <trkpt lat="46.57178" lon="5.47099">
        <ele>533</ele>
        <time>2021-05-29T08:26:19.745Z</time>
      </trkpt>
      <trkpt lat="46.57181" lon="5.47101">
        <ele>533</ele>
        <time>2021-05-29T08:26:20.744Z</time>
      </trkpt>
      <trkpt lat="46.57184" lon="5.47103">
        <ele>532</ele>
        <time>2021-05-29T08:26:21.745Z</time>
      </trkpt>
      <trkpt lat="46.57187" lon="5.47105">
        <ele>532</ele>
        <time>2021-05-29T08:26:22.745Z</time>
      </trkpt>
      <trkpt lat="46.5719" lon="5.47108">
        <ele>532</ele>
        <time>2021-05-29T08:26:23.744Z</time>
      </trkpt>
      <trkpt lat="46.57192" lon="5.47109">
        <ele>531</ele>
        <time>2021-05-29T08:26:24.744Z</time>
      </trkpt>
      <trkpt lat="46.57193" lon="5.47111">
        <ele>531</ele>
        <time>2021-05-29T08:26:25.745Z</time>
      </trkpt>
      <trkpt lat="46.57195" lon="5.47113">
        <ele>530</ele>
        <time>2021-05-29T08:26:26.745Z</time>
      </trkpt>
      <trkpt lat="46.57196" lon="5.47115">
        <ele>530</ele>
        <time>2021-05-29T08:26:27.745Z</time>
      </trkpt>
      <trkpt lat="46.57198" lon="5.47116">
        <ele>529</ele>
        <time>2021-05-29T08:26:28.745Z</time>
      </trkpt>
      <trkpt lat="46.572" lon="5.47118">
        <ele>529</ele>
        <time>2021-05-29T08:26:29.744Z</time>
      </trkpt>
      <trkpt lat="46.57201" lon="5.47119">
        <ele>529</ele>
        <time>2021-05-29T08:26:30.744Z</time>
      </trkpt>
      <trkpt lat="46.57202" lon="5.47121">
        <ele>528</ele>
        <time>2021-05-29T08:26:31.745Z</time>
      </trkpt>
      <trkpt lat="46.57204" lon="5.47122">
        <ele>528</ele>
        <time>2021-05-29T08:26:32.744Z</time>
      </trkpt>
      <trkpt lat="46.57205" lon="5.47124">
        <ele>527</ele>
        <time>2021-05-29T08:26:33.744Z</time>
      </trkpt>
      <trkpt lat="46.57207" lon="5.47125">
        <ele>527</ele>
        <time>2021-05-29T08:26:34.745Z</time>
      </trkpt>
      <trkpt lat="46.57209" lon="5.47127">
        <ele>526</ele>
        <time>2021-05-29T08:26:35.745Z</time>
      </trkpt>
      <trkpt lat="46.57211" lon="5.47129">
        <ele>526</ele>
        <time>2021-05-29T08:26:36.745Z</time>
      </trkpt>
      <trkpt lat="46.57213" lon="5.4713">
        <ele>525</ele>
        <time>2021-05-29T08:26:37.745Z</time>
      </trkpt>
      <trkpt lat="46.57215" lon="5.47132">
        <ele>524</ele>
        <time>2021-05-29T08:26:38.745Z</time>
      </trkpt>
      <trkpt lat="46.57217" lon="5.47133">
        <ele>524</ele>
        <time>2021-05-29T08:26:39.744Z</time>
      </trkpt>
      <trkpt lat="46.5722" lon="5.47135">
        <ele>523</ele>
        <time>2021-05-29T08:26:40.745Z</time>
      </trkpt>
      <trkpt lat="46.57221" lon="5.47137">
        <ele>523</ele>
        <time>2021-05-29T08:26:41.744Z</time>
      </trkpt>
      <trkpt lat="46.57223" lon="5.47139">
        <ele>522</ele>
        <time>2021-05-29T08:26:42.744Z</time>
      </trkpt>
      <trkpt lat="46.57226" lon="5.47141">
        <ele>522</ele>
        <time>2021-05-29T08:26:43.744Z</time>
      </trkpt>
      <trkpt lat="46.57229" lon="5.47143">
        <ele>521</ele>
        <time>2021-05-29T08:26:44.744Z</time>
      </trkpt>
      <trkpt lat="46.57231" lon="5.47145">
        <ele>521</ele>
        <time>2021-05-29T08:26:45.744Z</time>
      </trkpt>
      <trkpt lat="46.57233" lon="5.47146">
        <ele>520</ele>
        <time>2021-05-29T08:26:46.745Z</time>
      </trkpt>
      <trkpt lat="46.57236" lon="5.47148">
        <ele>520</ele>
        <time>2021-05-29T08:26:47.744Z</time>
      </trkpt>
      <trkpt lat="46.5724" lon="5.47151">
        <ele>519</ele>
        <time>2021-05-29T08:26:48.745Z</time>
      </trkpt>
      <trkpt lat="46.57245" lon="5.47154">
        <ele>519</ele>
        <time>2021-05-29T08:26:49.745Z</time>
      </trkpt>
      <trkpt lat="46.57249" lon="5.47157">
        <ele>519</ele>
        <time>2021-05-29T08:26:50.745Z</time>
      </trkpt>
      <trkpt lat="46.57251" lon="5.4716">
        <ele>519</ele>
        <time>2021-05-29T08:26:51.745Z</time>
      </trkpt>
      <trkpt lat="46.57254" lon="5.47162">
        <ele>519</ele>
        <time>2021-05-29T08:26:52.745Z</time>
      </trkpt>
      <trkpt lat="46.57257" lon="5.47164">
        <ele>519</ele>
        <time>2021-05-29T08:26:53.744Z</time>
      </trkpt>
      <trkpt lat="46.57259" lon="5.47165">
        <ele>519</ele>
        <time>2021-05-29T08:26:54.744Z</time>
      </trkpt>
      <trkpt lat="46.57262" lon="5.47168">
        <ele>519</ele>
        <time>2021-05-29T08:26:55.745Z</time>
      </trkpt>
      <trkpt lat="46.57264" lon="5.4717">
        <ele>519</ele>
        <time>2021-05-29T08:26:56.745Z</time>
      </trkpt>
      <trkpt lat="46.57266" lon="5.47172">
        <ele>519</ele>
        <time>2021-05-29T08:26:57.745Z</time>
      </trkpt>
      <trkpt lat="46.57267" lon="5.47174">
        <ele>519</ele>
        <time>2021-05-29T08:26:58.745Z</time>
      </trkpt>
      <trkpt lat="46.5727" lon="5.47176">
        <ele>519</ele>
        <time>2021-05-29T08:26:59.745Z</time>
      </trkpt>
      <trkpt lat="46.57272" lon="5.47177">
        <ele>519</ele>
        <time>2021-05-29T08:27:00.745Z</time>
      </trkpt>
      <trkpt lat="46.57274" lon="5.47179">
        <ele>518</ele>
        <time>2021-05-29T08:27:01.744Z</time>
      </trkpt>
      <trkpt lat="46.57276" lon="5.4718">
        <ele>518</ele>
        <time>2021-05-29T08:27:02.745Z</time>
      </trkpt>
      <trkpt lat="46.57278" lon="5.47182">
        <ele>518</ele>
        <time>2021-05-29T08:27:03.745Z</time>
      </trkpt>
      <trkpt lat="46.5728" lon="5.47184">
        <ele>517</ele>
        <time>2021-05-29T08:27:04.745Z</time>
      </trkpt>
      <trkpt lat="46.57282" lon="5.47186">
        <ele>517</ele>
        <time>2021-05-29T08:27:05.745Z</time>
      </trkpt>
      <trkpt lat="46.57284" lon="5.47187">
        <ele>517</ele>
        <time>2021-05-29T08:27:06.744Z</time>
      </trkpt>
      <trkpt lat="46.57286" lon="5.47188">
        <ele>516</ele>
        <time>2021-05-29T08:27:07.745Z</time>
      </trkpt>
      <trkpt lat="46.57289" lon="5.4719">
        <ele>516</ele>
        <time>2021-05-29T08:27:08.744Z</time>
      </trkpt>
      <trkpt lat="46.57292" lon="5.47192">
        <ele>515</ele>
        <time>2021-05-29T08:27:09.745Z</time>
      </trkpt>
      <trkpt lat="46.57295" lon="5.47194">
        <ele>515</ele>
        <time>2021-05-29T08:27:10.744Z</time>
      </trkpt>
      <trkpt lat="46.57296" lon="5.47195">
        <ele>514</ele>
        <time>2021-05-29T08:27:11.744Z</time>
      </trkpt>
      <trkpt lat="46.57297" lon="5.47196">
        <ele>514</ele>
        <time>2021-05-29T08:27:12.744Z</time>
      </trkpt>
      <trkpt lat="46.57299" lon="5.47197">
        <ele>513</ele>
        <time>2021-05-29T08:27:13.744Z</time>
      </trkpt>
      <trkpt lat="46.573" lon="5.47198">
        <ele>513</ele>
        <time>2021-05-29T08:27:14.744Z</time>
      </trkpt>
      <trkpt lat="46.57302" lon="5.47199">
        <ele>513</ele>
        <time>2021-05-29T08:27:15.744Z</time>
      </trkpt>
      <trkpt lat="46.57304" lon="5.472">
        <ele>512</ele>
        <time>2021-05-29T08:27:16.744Z</time>
      </trkpt>
      <trkpt lat="46.57307" lon="5.47202">
        <ele>512</ele>
        <time>2021-05-29T08:27:17.745Z</time>
      </trkpt>
      <trkpt lat="46.57309" lon="5.47204">
        <ele>511</ele>
        <time>2021-05-29T08:27:18.745Z</time>
      </trkpt>
      <trkpt lat="46.57312" lon="5.47205">
        <ele>511</ele>
        <time>2021-05-29T08:27:19.745Z</time>
      </trkpt>
      <trkpt lat="46.57315" lon="5.47207">
        <ele>511</ele>
        <time>2021-05-29T08:27:20.745Z</time>
      </trkpt>
      <trkpt lat="46.57318" lon="5.47208">
        <ele>510</ele>
        <time>2021-05-29T08:27:21.745Z</time>
      </trkpt>
      <trkpt lat="46.57321" lon="5.4721">
        <ele>510</ele>
        <time>2021-05-29T08:27:22.745Z</time>
      </trkpt>
      <trkpt lat="46.57323" lon="5.47212">
        <ele>510</ele>
        <time>2021-05-29T08:27:23.745Z</time>
      </trkpt>
      <trkpt lat="46.57325" lon="5.47213">
        <ele>510</ele>
        <time>2021-05-29T08:27:24.745Z</time>
      </trkpt>
      <trkpt lat="46.57327" lon="5.47215">
        <ele>510</ele>
        <time>2021-05-29T08:27:25.745Z</time>
      </trkpt>
      <trkpt lat="46.57329" lon="5.47218">
        <ele>509</ele>
        <time>2021-05-29T08:27:26.745Z</time>
      </trkpt>
      <trkpt lat="46.57331" lon="5.4722">
        <ele>509</ele>
        <time>2021-05-29T08:27:27.744Z</time>
      </trkpt>
      <trkpt lat="46.57333" lon="5.47223">
        <ele>508</ele>
        <time>2021-05-29T08:27:28.744Z</time>
      </trkpt>
      <trkpt lat="46.57335" lon="5.47224">
        <ele>507</ele>
        <time>2021-05-29T08:27:29.745Z</time>
      </trkpt>
      <trkpt lat="46.57336" lon="5.47226">
        <ele>507</ele>
        <time>2021-05-29T08:27:30.744Z</time>
      </trkpt>
      <trkpt lat="46.57338" lon="5.47226">
        <ele>506</ele>
        <time>2021-05-29T08:27:31.744Z</time>
      </trkpt>
      <trkpt lat="46.5734" lon="5.47228">
        <ele>505</ele>
        <time>2021-05-29T08:27:32.745Z</time>
      </trkpt>
      <trkpt lat="46.57342" lon="5.47229">
        <ele>505</ele>
        <time>2021-05-29T08:27:33.745Z</time>
      </trkpt>
      <trkpt lat="46.57344" lon="5.47231">
        <ele>504</ele>
        <time>2021-05-29T08:27:34.745Z</time>
      </trkpt>
      <trkpt lat="46.57347" lon="5.47232">
        <ele>504</ele>
        <time>2021-05-29T08:27:35.745Z</time>
      </trkpt>
      <trkpt lat="46.57349" lon="5.47233">
        <ele>503</ele>
        <time>2021-05-29T08:27:36.744Z</time>
      </trkpt>
      <trkpt lat="46.57351" lon="5.47235">
        <ele>503</ele>
        <time>2021-05-29T08:27:37.745Z</time>
      </trkpt>
      <trkpt lat="46.57353" lon="5.47236">
        <ele>503</ele>
        <time>2021-05-29T08:27:38.745Z</time>
      </trkpt>
      <trkpt lat="46.57355" lon="5.47238">
        <ele>503</ele>
        <time>2021-05-29T08:27:39.745Z</time>
      </trkpt>
      <trkpt lat="46.57356" lon="5.47239">
        <ele>503</ele>
        <time>2021-05-29T08:27:40.744Z</time>
      </trkpt>
      <trkpt lat="46.57358" lon="5.47241">
        <ele>503</ele>
        <time>2021-05-29T08:27:41.745Z</time>
      </trkpt>
      <trkpt lat="46.57361" lon="5.47242">
        <ele>503</ele>
        <time>2021-05-29T08:27:42.745Z</time>
      </trkpt>
      <trkpt lat="46.57363" lon="5.47243">
        <ele>503</ele>
        <time>2021-05-29T08:27:43.744Z</time>
      </trkpt>
      <trkpt lat="46.57364" lon="5.47244">
        <ele>503</ele>
        <time>2021-05-29T08:27:44.745Z</time>
      </trkpt>
      <trkpt lat="46.57367" lon="5.47246">
        <ele>503</ele>
        <time>2021-05-29T08:27:45.745Z</time>
      </trkpt>
      <trkpt lat="46.57369" lon="5.47248">
        <ele>503</ele>
        <time>2021-05-29T08:27:46.745Z</time>
      </trkpt>
      <trkpt lat="46.57372" lon="5.4725">
        <ele>503</ele>
        <time>2021-05-29T08:27:47.744Z</time>
      </trkpt>
      <trkpt lat="46.57374" lon="5.47251">
        <ele>503</ele>
        <time>2021-05-29T08:27:48.745Z</time>
      </trkpt>
      <trkpt lat="46.57377" lon="5.47253">
        <ele>502</ele>
        <time>2021-05-29T08:27:49.745Z</time>
      </trkpt>
      <trkpt lat="46.5738" lon="5.47254">
        <ele>502</ele>
        <time>2021-05-29T08:27:50.744Z</time>
      </trkpt>
      <trkpt lat="46.57384" lon="5.47256">
        <ele>502</ele>
        <time>2021-05-29T08:27:51.744Z</time>
      </trkpt>
      <trkpt lat="46.57387" lon="5.47257">
        <ele>502</ele>
        <time>2021-05-29T08:27:52.745Z</time>
      </trkpt>
      <trkpt lat="46.5739" lon="5.47259">
        <ele>501</ele>
        <time>2021-05-29T08:27:53.745Z</time>
      </trkpt>
      <trkpt lat="46.57392" lon="5.47261">
        <ele>501</ele>
        <time>2021-05-29T08:27:54.745Z</time>
      </trkpt>
      <trkpt lat="46.57395" lon="5.47262">
        <ele>500</ele>
        <time>2021-05-29T08:27:55.744Z</time>
      </trkpt>
      <trkpt lat="46.57397" lon="5.47264">
        <ele>500</ele>
        <time>2021-05-29T08:27:56.745Z</time>
      </trkpt>
      <trkpt lat="46.57399" lon="5.47267">
        <ele>500</ele>
        <time>2021-05-29T08:27:57.744Z</time>
      </trkpt>
      <trkpt lat="46.57401" lon="5.47269">
        <ele>499</ele>
        <time>2021-05-29T08:27:58.745Z</time>
      </trkpt>
      <trkpt lat="46.57402" lon="5.47271">
        <ele>499</ele>
        <time>2021-05-29T08:27:59.745Z</time>
      </trkpt>
      <trkpt lat="46.57403" lon="5.47273">
        <ele>498</ele>
        <time>2021-05-29T08:28:00.745Z</time>
      </trkpt>
      <trkpt lat="46.57404" lon="5.47275">
        <ele>498</ele>
        <time>2021-05-29T08:28:01.745Z</time>
      </trkpt>
      <trkpt lat="46.57406" lon="5.47276">
        <ele>497</ele>
        <time>2021-05-29T08:28:02.745Z</time>
      </trkpt>
      <trkpt lat="46.57406" lon="5.47278">
        <ele>497</ele>
        <time>2021-05-29T08:28:03.745Z</time>
      </trkpt>
      <trkpt lat="46.57406" lon="5.4728">
        <ele>497</ele>
        <time>2021-05-29T08:28:04.745Z</time>
      </trkpt>
      <trkpt lat="46.57406" lon="5.47282">
        <ele>497</ele>
        <time>2021-05-29T08:28:05.745Z</time>
      </trkpt>
      <trkpt lat="46.57406" lon="5.47283">
        <ele>497</ele>
        <time>2021-05-29T08:28:06.745Z</time>
      </trkpt>
      <trkpt lat="46.57405" lon="5.47286">
        <ele>496</ele>
        <time>2021-05-29T08:28:07.744Z</time>
      </trkpt>
      <trkpt lat="46.57404" lon="5.47288">
        <ele>496</ele>
        <time>2021-05-29T08:28:08.745Z</time>
      </trkpt>
      <trkpt lat="46.57404" lon="5.4729">
        <ele>497</ele>
        <time>2021-05-29T08:28:09.744Z</time>
      </trkpt>
      <trkpt lat="46.57405" lon="5.47293">
        <ele>497</ele>
        <time>2021-05-29T08:28:10.744Z</time>
      </trkpt>
      <trkpt lat="46.57405" lon="5.47296">
        <ele>497</ele>
        <time>2021-05-29T08:28:11.745Z</time>
      </trkpt>
      <trkpt lat="46.57406" lon="5.47299">
        <ele>496</ele>
        <time>2021-05-29T08:28:12.745Z</time>
      </trkpt>
      <trkpt lat="46.57406" lon="5.47302">
        <ele>496</ele>
        <time>2021-05-29T08:28:13.744Z</time>
      </trkpt>
      <trkpt lat="46.57407" lon="5.47306">
        <ele>495</ele>
        <time>2021-05-29T08:28:14.745Z</time>
      </trkpt>
      <trkpt lat="46.57407" lon="5.47309">
        <ele>495</ele>
        <time>2021-05-29T08:28:15.745Z</time>
      </trkpt>
      <trkpt lat="46.57407" lon="5.47312">
        <ele>494</ele>
        <time>2021-05-29T08:28:16.744Z</time>
      </trkpt>
      <trkpt lat="46.57407" lon="5.47315">
        <ele>493</ele>
        <time>2021-05-29T08:28:17.745Z</time>
      </trkpt>
      <trkpt lat="46.57408" lon="5.47319">
        <ele>493</ele>
        <time>2021-05-29T08:28:18.744Z</time>
      </trkpt>
      <trkpt lat="46.57409" lon="5.47322">
        <ele>492</ele>
        <time>2021-05-29T08:28:19.744Z</time>
      </trkpt>
      <trkpt lat="46.57409" lon="5.47326">
        <ele>492</ele>
        <time>2021-05-29T08:28:20.745Z</time>
      </trkpt>
      <trkpt lat="46.5741" lon="5.47329">
        <ele>492</ele>
        <time>2021-05-29T08:28:21.745Z</time>
      </trkpt>
      <trkpt lat="46.5741" lon="5.47333">
        <ele>492</ele>
        <time>2021-05-29T08:28:22.745Z</time>
      </trkpt>
      <trkpt lat="46.57411" lon="5.47337">
        <ele>491</ele>
        <time>2021-05-29T08:28:23.745Z</time>
      </trkpt>
      <trkpt lat="46.57412" lon="5.47341">
        <ele>491</ele>
        <time>2021-05-29T08:28:24.745Z</time>
      </trkpt>
      <trkpt lat="46.57412" lon="5.47345">
        <ele>491</ele>
        <time>2021-05-29T08:28:25.744Z</time>
      </trkpt>
      <trkpt lat="46.57413" lon="5.4735">
        <ele>491</ele>
        <time>2021-05-29T08:28:26.745Z</time>
      </trkpt>
      <trkpt lat="46.57413" lon="5.47354">
        <ele>491</ele>
        <time>2021-05-29T08:28:27.745Z</time>
      </trkpt>
      <trkpt lat="46.57413" lon="5.47356">
        <ele>492</ele>
        <time>2021-05-29T08:28:28.745Z</time>
      </trkpt>
      <trkpt lat="46.57413" lon="5.47359">
        <ele>492</ele>
        <time>2021-05-29T08:28:29.744Z</time>
      </trkpt>
      <trkpt lat="46.57414" lon="5.47363">
        <ele>491</ele>
        <time>2021-05-29T08:28:30.745Z</time>
      </trkpt>
      <trkpt lat="46.57414" lon="5.47366">
        <ele>491</ele>
        <time>2021-05-29T08:28:31.745Z</time>
      </trkpt>
      <trkpt lat="46.57414" lon="5.4737">
        <ele>491</ele>
        <time>2021-05-29T08:28:32.744Z</time>
      </trkpt>
      <trkpt lat="46.57414" lon="5.47374">
        <ele>491</ele>
        <time>2021-05-29T08:28:33.744Z</time>
      </trkpt>
      <trkpt lat="46.57415" lon="5.47378">
        <ele>491</ele>
        <time>2021-05-29T08:28:34.744Z</time>
      </trkpt>
      <trkpt lat="46.57415" lon="5.47383">
        <ele>491</ele>
        <time>2021-05-29T08:28:35.745Z</time>
      </trkpt>
      <trkpt lat="46.57415" lon="5.47387">
        <ele>490</ele>
        <time>2021-05-29T08:28:36.744Z</time>
      </trkpt>
      <trkpt lat="46.57416" lon="5.47391">
        <ele>490</ele>
        <time>2021-05-29T08:28:37.744Z</time>
      </trkpt>
      <trkpt lat="46.57417" lon="5.47395">
        <ele>490</ele>
        <time>2021-05-29T08:28:38.744Z</time>
      </trkpt>
      <trkpt lat="46.57419" lon="5.47399">
        <ele>490</ele>
        <time>2021-05-29T08:28:39.745Z</time>
      </trkpt>
      <trkpt lat="46.57419" lon="5.47402">
        <ele>490</ele>
        <time>2021-05-29T08:28:40.745Z</time>
      </trkpt>
      <trkpt lat="46.5742" lon="5.47406">
        <ele>490</ele>
        <time>2021-05-29T08:28:41.745Z</time>
      </trkpt>
      <trkpt lat="46.57422" lon="5.47411">
        <ele>490</ele>
        <time>2021-05-29T08:28:42.745Z</time>
      </trkpt>
      <trkpt lat="46.57423" lon="5.47416">
        <ele>490</ele>
        <time>2021-05-29T08:28:43.744Z</time>
      </trkpt>
      <trkpt lat="46.57422" lon="5.4742">
        <ele>490</ele>
        <time>2021-05-29T08:28:44.745Z</time>
      </trkpt>
      <trkpt lat="46.57422" lon="5.47424">
        <ele>490</ele>
        <time>2021-05-29T08:28:45.745Z</time>
      </trkpt>
      <trkpt lat="46.57421" lon="5.47427">
        <ele>490</ele>
        <time>2021-05-29T08:28:46.745Z</time>
      </trkpt>
      <trkpt lat="46.57421" lon="5.4743">
        <ele>490</ele>
        <time>2021-05-29T08:28:47.745Z</time>
      </trkpt>
      <trkpt lat="46.57421" lon="5.47433">
        <ele>490</ele>
        <time>2021-05-29T08:28:48.744Z</time>
      </trkpt>
      <trkpt lat="46.57421" lon="5.47437">
        <ele>490</ele>
        <time>2021-05-29T08:28:49.745Z</time>
      </trkpt>
      <trkpt lat="46.57421" lon="5.4744">
        <ele>490</ele>
        <time>2021-05-29T08:28:50.744Z</time>
      </trkpt>
      <trkpt lat="46.57423" lon="5.47443">
        <ele>491</ele>
        <time>2021-05-29T08:28:51.745Z</time>
      </trkpt>
      <trkpt lat="46.57424" lon="5.47446">
        <ele>490</ele>
        <time>2021-05-29T08:28:52.745Z</time>
      </trkpt>
      <trkpt lat="46.57424" lon="5.47449">
        <ele>490</ele>
        <time>2021-05-29T08:28:53.745Z</time>
      </trkpt>
      <trkpt lat="46.57424" lon="5.47452">
        <ele>490</ele>
        <time>2021-05-29T08:28:54.744Z</time>
      </trkpt>
      <trkpt lat="46.57424" lon="5.47455">
        <ele>490</ele>
        <time>2021-05-29T08:28:55.745Z</time>
      </trkpt>
      <trkpt lat="46.57424" lon="5.47458">
        <ele>491</ele>
        <time>2021-05-29T08:28:56.745Z</time>
      </trkpt>
      <trkpt lat="46.57425" lon="5.4746">
        <ele>491</ele>
        <time>2021-05-29T08:28:57.745Z</time>
      </trkpt>
      <trkpt lat="46.57425" lon="5.47462">
        <ele>491</ele>
        <time>2021-05-29T08:28:58.744Z</time>
      </trkpt>
      <trkpt lat="46.57426" lon="5.47464">
        <ele>491</ele>
        <time>2021-05-29T08:28:59.744Z</time>
      </trkpt>
      <trkpt lat="46.57427" lon="5.47466">
        <ele>491</ele>
        <time>2021-05-29T08:29:00.745Z</time>
      </trkpt>
      <trkpt lat="46.57428" lon="5.47467">
        <ele>491</ele>
        <time>2021-05-29T08:29:01.744Z</time>
      </trkpt>
      <trkpt lat="46.5743" lon="5.47469">
        <ele>491</ele>
        <time>2021-05-29T08:29:02.745Z</time>
      </trkpt>
      <trkpt lat="46.57431" lon="5.47471">
        <ele>491</ele>
        <time>2021-05-29T08:29:03.744Z</time>
      </trkpt>
      <trkpt lat="46.57444" lon="5.47512">
        <ele>498</ele>
        <time>2021-05-29T08:29:04.745Z</time>
      </trkpt>
      <trkpt lat="46.57444" lon="5.47513">
        <ele>498</ele>
        <time>2021-05-29T08:29:05.745Z</time>
      </trkpt>
      <trkpt lat="46.57444" lon="5.47515">
        <ele>497</ele>
        <time>2021-05-29T08:29:06.744Z</time>
      </trkpt>
      <trkpt lat="46.57444" lon="5.47517">
        <ele>497</ele>
        <time>2021-05-29T08:29:07.745Z</time>
      </trkpt>
      <trkpt lat="46.57444" lon="5.47519">
        <ele>497</ele>
        <time>2021-05-29T08:29:08.744Z</time>
      </trkpt>
      <trkpt lat="46.57444" lon="5.47521">
        <ele>496</ele>
        <time>2021-05-29T08:29:09.744Z</time>
      </trkpt>
      <trkpt lat="46.57444" lon="5.47523">
        <ele>496</ele>
        <time>2021-05-29T08:29:10.745Z</time>
      </trkpt>
      <trkpt lat="46.57444" lon="5.47525">
        <ele>496</ele>
        <time>2021-05-29T08:29:11.745Z</time>
      </trkpt>
      <trkpt lat="46.57444" lon="5.47528">
        <ele>495</ele>
        <time>2021-05-29T08:29:12.745Z</time>
      </trkpt>
      <trkpt lat="46.57443" lon="5.47531">
        <ele>495</ele>
        <time>2021-05-29T08:29:13.745Z</time>
      </trkpt>
      <trkpt lat="46.57444" lon="5.47534">
        <ele>494</ele>
        <time>2021-05-29T08:29:14.745Z</time>
      </trkpt>
      <trkpt lat="46.57445" lon="5.47536">
        <ele>493</ele>
        <time>2021-05-29T08:29:15.745Z</time>
      </trkpt>
      <trkpt lat="46.57446" lon="5.47538">
        <ele>493</ele>
        <time>2021-05-29T08:29:16.745Z</time>
      </trkpt>
      <trkpt lat="46.57446" lon="5.47541">
        <ele>493</ele>
        <time>2021-05-29T08:29:17.745Z</time>
      </trkpt>
      <trkpt lat="46.57447" lon="5.47543">
        <ele>492</ele>
        <time>2021-05-29T08:29:18.744Z</time>
      </trkpt>
      <trkpt lat="46.57448" lon="5.47546">
        <ele>492</ele>
        <time>2021-05-29T08:29:19.744Z</time>
      </trkpt>
      <trkpt lat="46.57449" lon="5.47548">
        <ele>492</ele>
        <time>2021-05-29T08:29:20.745Z</time>
      </trkpt>
      <trkpt lat="46.5745" lon="5.47551">
        <ele>492</ele>
        <time>2021-05-29T08:29:21.745Z</time>
      </trkpt>
      <trkpt lat="46.57451" lon="5.47553">
        <ele>491</ele>
        <time>2021-05-29T08:29:22.745Z</time>
      </trkpt>
      <trkpt lat="46.57452" lon="5.47556">
        <ele>491</ele>
        <time>2021-05-29T08:29:23.744Z</time>
      </trkpt>
      <trkpt lat="46.57453" lon="5.47559">
        <ele>491</ele>
        <time>2021-05-29T08:29:24.745Z</time>
      </trkpt>
      <trkpt lat="46.57453" lon="5.47562">
        <ele>491</ele>
        <time>2021-05-29T08:29:25.745Z</time>
      </trkpt>
      <trkpt lat="46.57454" lon="5.47565">
        <ele>491</ele>
        <time>2021-05-29T08:29:26.745Z</time>
      </trkpt>
      <trkpt lat="46.57454" lon="5.47569">
        <ele>491</ele>
        <time>2021-05-29T08:29:27.745Z</time>
      </trkpt>
      <trkpt lat="46.57454" lon="5.47571">
        <ele>491</ele>
        <time>2021-05-29T08:29:28.745Z</time>
      </trkpt>
      <trkpt lat="46.57454" lon="5.47574">
        <ele>491</ele>
        <time>2021-05-29T08:29:29.744Z</time>
      </trkpt>
      <trkpt lat="46.57454" lon="5.47578">
        <ele>491</ele>
        <time>2021-05-29T08:29:30.745Z</time>
      </trkpt>
      <trkpt lat="46.57454" lon="5.47582">
        <ele>491</ele>
        <time>2021-05-29T08:29:31.744Z</time>
      </trkpt>
      <trkpt lat="46.57455" lon="5.47585">
        <ele>492</ele>
        <time>2021-05-29T08:29:32.744Z</time>
      </trkpt>
      <trkpt lat="46.57456" lon="5.4759">
        <ele>492</ele>
        <time>2021-05-29T08:29:33.744Z</time>
      </trkpt>
      <trkpt lat="46.57457" lon="5.47594">
        <ele>492</ele>
        <time>2021-05-29T08:29:34.744Z</time>
      </trkpt>
      <trkpt lat="46.57458" lon="5.47598">
        <ele>492</ele>
        <time>2021-05-29T08:29:35.745Z</time>
      </trkpt>
      <trkpt lat="46.57457" lon="5.47603">
        <ele>491</ele>
        <time>2021-05-29T08:29:36.745Z</time>
      </trkpt>
      <trkpt lat="46.57458" lon="5.47609">
        <ele>491</ele>
        <time>2021-05-29T08:29:37.745Z</time>
      </trkpt>
      <trkpt lat="46.57458" lon="5.47614">
        <ele>491</ele>
        <time>2021-05-29T08:29:38.745Z</time>
      </trkpt>
      <trkpt lat="46.57458" lon="5.47617">
        <ele>490</ele>
        <time>2021-05-29T08:29:39.744Z</time>
      </trkpt>
      <trkpt lat="46.57459" lon="5.47621">
        <ele>490</ele>
        <time>2021-05-29T08:29:40.745Z</time>
      </trkpt>
      <trkpt lat="46.57459" lon="5.47624">
        <ele>490</ele>
        <time>2021-05-29T08:29:41.745Z</time>
      </trkpt>
      <trkpt lat="46.57458" lon="5.47628">
        <ele>490</ele>
        <time>2021-05-29T08:29:42.744Z</time>
      </trkpt>
      <trkpt lat="46.57456" lon="5.47632">
        <ele>489</ele>
        <time>2021-05-29T08:29:43.745Z</time>
      </trkpt>
      <trkpt lat="46.57455" lon="5.47635">
        <ele>489</ele>
        <time>2021-05-29T08:29:44.745Z</time>
      </trkpt>
      <trkpt lat="46.57453" lon="5.4764">
        <ele>488</ele>
        <time>2021-05-29T08:29:45.745Z</time>
      </trkpt>
      <trkpt lat="46.57453" lon="5.47643">
        <ele>488</ele>
        <time>2021-05-29T08:29:46.745Z</time>
      </trkpt>
      <trkpt lat="46.57452" lon="5.47645">
        <ele>488</ele>
        <time>2021-05-29T08:29:47.745Z</time>
      </trkpt>
      <trkpt lat="46.57451" lon="5.47648">
        <ele>488</ele>
        <time>2021-05-29T08:29:48.745Z</time>
      </trkpt>
      <trkpt lat="46.5745" lon="5.47651">
        <ele>487</ele>
        <time>2021-05-29T08:29:49.745Z</time>
      </trkpt>
      <trkpt lat="46.57451" lon="5.47654">
        <ele>487</ele>
        <time>2021-05-29T08:29:50.745Z</time>
      </trkpt>
      <trkpt lat="46.57451" lon="5.47656">
        <ele>486</ele>
        <time>2021-05-29T08:29:51.745Z</time>
      </trkpt>
      <trkpt lat="46.57451" lon="5.47658">
        <ele>486</ele>
        <time>2021-05-29T08:29:52.745Z</time>
      </trkpt>
      <trkpt lat="46.57451" lon="5.47661">
        <ele>485</ele>
        <time>2021-05-29T08:29:53.745Z</time>
      </trkpt>
      <trkpt lat="46.57451" lon="5.47663">
        <ele>484</ele>
        <time>2021-05-29T08:29:54.745Z</time>
      </trkpt>
      <trkpt lat="46.57451" lon="5.47666">
        <ele>483</ele>
        <time>2021-05-29T08:29:55.745Z</time>
      </trkpt>
      <trkpt lat="46.57451" lon="5.47667">
        <ele>483</ele>
        <time>2021-05-29T08:29:56.744Z</time>
      </trkpt>
      <trkpt lat="46.57452" lon="5.47669">
        <ele>482</ele>
        <time>2021-05-29T08:29:57.745Z</time>
      </trkpt>
      <trkpt lat="46.57452" lon="5.47672">
        <ele>481</ele>
        <time>2021-05-29T08:29:58.745Z</time>
      </trkpt>
      <trkpt lat="46.57453" lon="5.47675">
        <ele>481</ele>
        <time>2021-05-29T08:29:59.745Z</time>
      </trkpt>
      <trkpt lat="46.57454" lon="5.47678">
        <ele>480</ele>
        <time>2021-05-29T08:30:00.745Z</time>
      </trkpt>
      <trkpt lat="46.57456" lon="5.47681">
        <ele>480</ele>
        <time>2021-05-29T08:30:01.744Z</time>
      </trkpt>
      <trkpt lat="46.57457" lon="5.47685">
        <ele>479</ele>
        <time>2021-05-29T08:30:02.744Z</time>
      </trkpt>
      <trkpt lat="46.57458" lon="5.47688">
        <ele>479</ele>
        <time>2021-05-29T08:30:03.745Z</time>
      </trkpt>
      <trkpt lat="46.5746" lon="5.47691">
        <ele>478</ele>
        <time>2021-05-29T08:30:04.745Z</time>
      </trkpt>
      <trkpt lat="46.57461" lon="5.47694">
        <ele>478</ele>
        <time>2021-05-29T08:30:05.745Z</time>
      </trkpt>
      <trkpt lat="46.57463" lon="5.47697">
        <ele>477</ele>
        <time>2021-05-29T08:30:06.745Z</time>
      </trkpt>
      <trkpt lat="46.57465" lon="5.47701">
        <ele>477</ele>
        <time>2021-05-29T08:30:07.744Z</time>
      </trkpt>
      <trkpt lat="46.57467" lon="5.47705">
        <ele>476</ele>
        <time>2021-05-29T08:30:08.745Z</time>
      </trkpt>
      <trkpt lat="46.57469" lon="5.47708">
        <ele>476</ele>
        <time>2021-05-29T08:30:09.745Z</time>
      </trkpt>
      <trkpt lat="46.57469" lon="5.47712">
        <ele>475</ele>
        <time>2021-05-29T08:30:10.745Z</time>
      </trkpt>
      <trkpt lat="46.5747" lon="5.47715">
        <ele>475</ele>
        <time>2021-05-29T08:30:11.745Z</time>
      </trkpt>
      <trkpt lat="46.57471" lon="5.47719">
        <ele>475</ele>
        <time>2021-05-29T08:30:12.745Z</time>
      </trkpt>
      <trkpt lat="46.57471" lon="5.47722">
        <ele>475</ele>
        <time>2021-05-29T08:30:13.744Z</time>
      </trkpt>
      <trkpt lat="46.57472" lon="5.47725">
        <ele>475</ele>
        <time>2021-05-29T08:30:14.745Z</time>
      </trkpt>
      <trkpt lat="46.57474" lon="5.47728">
        <ele>475</ele>
        <time>2021-05-29T08:30:15.744Z</time>
      </trkpt>
      <trkpt lat="46.57475" lon="5.47731">
        <ele>475</ele>
        <time>2021-05-29T08:30:16.745Z</time>
      </trkpt>
      <trkpt lat="46.57476" lon="5.47733">
        <ele>475</ele>
        <time>2021-05-29T08:30:17.745Z</time>
      </trkpt>
      <trkpt lat="46.57478" lon="5.47735">
        <ele>475</ele>
        <time>2021-05-29T08:30:18.745Z</time>
      </trkpt>
      <trkpt lat="46.5748" lon="5.47737">
        <ele>475</ele>
        <time>2021-05-29T08:30:19.745Z</time>
      </trkpt>
      <trkpt lat="46.57482" lon="5.47738">
        <ele>475</ele>
        <time>2021-05-29T08:30:20.744Z</time>
      </trkpt>
      <trkpt lat="46.57484" lon="5.4774">
        <ele>475</ele>
        <time>2021-05-29T08:30:21.745Z</time>
      </trkpt>
      <trkpt lat="46.57487" lon="5.47741">
        <ele>475</ele>
        <time>2021-05-29T08:30:22.744Z</time>
      </trkpt>
      <trkpt lat="46.57489" lon="5.47743">
        <ele>475</ele>
        <time>2021-05-29T08:30:23.744Z</time>
      </trkpt>
      <trkpt lat="46.57491" lon="5.47745">
        <ele>475</ele>
        <time>2021-05-29T08:30:24.745Z</time>
      </trkpt>
      <trkpt lat="46.57494" lon="5.47747">
        <ele>475</ele>
        <time>2021-05-29T08:30:25.744Z</time>
      </trkpt>
      <trkpt lat="46.57496" lon="5.4775">
        <ele>475</ele>
        <time>2021-05-29T08:30:26.745Z</time>
      </trkpt>
      <trkpt lat="46.57497" lon="5.47752">
        <ele>474</ele>
        <time>2021-05-29T08:30:27.745Z</time>
      </trkpt>
      <trkpt lat="46.57498" lon="5.47755">
        <ele>474</ele>
        <time>2021-05-29T08:30:28.745Z</time>
      </trkpt>
      <trkpt lat="46.57499" lon="5.47758">
        <ele>474</ele>
        <time>2021-05-29T08:30:29.744Z</time>
      </trkpt>
      <trkpt lat="46.57501" lon="5.47761">
        <ele>474</ele>
        <time>2021-05-29T08:30:30.744Z</time>
      </trkpt>
      <trkpt lat="46.57503" lon="5.47763">
        <ele>474</ele>
        <time>2021-05-29T08:30:31.744Z</time>
      </trkpt>
      <trkpt lat="46.57505" lon="5.47765">
        <ele>473</ele>
        <time>2021-05-29T08:30:32.745Z</time>
      </trkpt>
      <trkpt lat="46.57507" lon="5.47767">
        <ele>473</ele>
        <time>2021-05-29T08:30:33.745Z</time>
      </trkpt>
      <trkpt lat="46.5751" lon="5.47769">
        <ele>474</ele>
        <time>2021-05-29T08:30:34.745Z</time>
      </trkpt>
      <trkpt lat="46.57512" lon="5.47771">
        <ele>474</ele>
        <time>2021-05-29T08:30:35.745Z</time>
      </trkpt>
      <trkpt lat="46.57514" lon="5.47773">
        <ele>474</ele>
        <time>2021-05-29T08:30:36.744Z</time>
      </trkpt>
      <trkpt lat="46.57516" lon="5.47776">
        <ele>474</ele>
        <time>2021-05-29T08:30:37.745Z</time>
      </trkpt>
      <trkpt lat="46.57517" lon="5.47777">
        <ele>474</ele>
        <time>2021-05-29T08:30:38.745Z</time>
      </trkpt>
      <trkpt lat="46.57518" lon="5.47779">
        <ele>474</ele>
        <time>2021-05-29T08:30:39.745Z</time>
      </trkpt>
      <trkpt lat="46.57519" lon="5.4778">
        <ele>474</ele>
        <time>2021-05-29T08:30:40.744Z</time>
      </trkpt>
      <trkpt lat="46.57521" lon="5.47781">
        <ele>474</ele>
        <time>2021-05-29T08:30:41.745Z</time>
      </trkpt>
      <trkpt lat="46.57523" lon="5.47782">
        <ele>473</ele>
        <time>2021-05-29T08:30:42.745Z</time>
      </trkpt>
      <trkpt lat="46.57526" lon="5.47783">
        <ele>473</ele>
        <time>2021-05-29T08:30:43.745Z</time>
      </trkpt>
      <trkpt lat="46.57529" lon="5.47784">
        <ele>473</ele>
        <time>2021-05-29T08:30:44.745Z</time>
      </trkpt>
      <trkpt lat="46.57531" lon="5.47785">
        <ele>473</ele>
        <time>2021-05-29T08:30:45.744Z</time>
      </trkpt>
      <trkpt lat="46.57534" lon="5.47786">
        <ele>473</ele>
        <time>2021-05-29T08:30:46.745Z</time>
      </trkpt>
      <trkpt lat="46.57537" lon="5.47787">
        <ele>472</ele>
        <time>2021-05-29T08:30:47.744Z</time>
      </trkpt>
      <trkpt lat="46.57539" lon="5.47788">
        <ele>472</ele>
        <time>2021-05-29T08:30:48.745Z</time>
      </trkpt>
      <trkpt lat="46.57542" lon="5.47788">
        <ele>472</ele>
        <time>2021-05-29T08:30:49.745Z</time>
      </trkpt>
      <trkpt lat="46.57545" lon="5.47789">
        <ele>472</ele>
        <time>2021-05-29T08:30:50.744Z</time>
      </trkpt>
      <trkpt lat="46.57548" lon="5.4779">
        <ele>472</ele>
        <time>2021-05-29T08:30:51.745Z</time>
      </trkpt>
      <trkpt lat="46.57551" lon="5.47791">
        <ele>472</ele>
        <time>2021-05-29T08:30:52.744Z</time>
      </trkpt>
      <trkpt lat="46.57555" lon="5.47791">
        <ele>473</ele>
        <time>2021-05-29T08:30:53.745Z</time>
      </trkpt>
      <trkpt lat="46.57558" lon="5.47792">
        <ele>473</ele>
        <time>2021-05-29T08:30:54.745Z</time>
      </trkpt>
      <trkpt lat="46.57561" lon="5.47792">
        <ele>474</ele>
        <time>2021-05-29T08:30:55.745Z</time>
      </trkpt>
      <trkpt lat="46.57565" lon="5.47792">
        <ele>474</ele>
        <time>2021-05-29T08:30:56.745Z</time>
      </trkpt>
      <trkpt lat="46.57567" lon="5.47793">
        <ele>474</ele>
        <time>2021-05-29T08:30:57.744Z</time>
      </trkpt>
      <trkpt lat="46.5757" lon="5.47793">
        <ele>475</ele>
        <time>2021-05-29T08:30:58.744Z</time>
      </trkpt>
      <trkpt lat="46.57573" lon="5.47795">
        <ele>475</ele>
        <time>2021-05-29T08:30:59.745Z</time>
      </trkpt>
      <trkpt lat="46.57576" lon="5.47796">
        <ele>476</ele>
        <time>2021-05-29T08:31:00.745Z</time>
      </trkpt>
      <trkpt lat="46.57578" lon="5.47798">
        <ele>476</ele>
        <time>2021-05-29T08:31:01.745Z</time>
      </trkpt>
      <trkpt lat="46.57582" lon="5.47799">
        <ele>476</ele>
        <time>2021-05-29T08:31:02.745Z</time>
      </trkpt>
      <trkpt lat="46.57585" lon="5.47799">
        <ele>476</ele>
        <time>2021-05-29T08:31:03.744Z</time>
      </trkpt>
      <trkpt lat="46.57588" lon="5.478">
        <ele>477</ele>
        <time>2021-05-29T08:31:04.745Z</time>
      </trkpt>
      <trkpt lat="46.57591" lon="5.47801">
        <ele>477</ele>
        <time>2021-05-29T08:31:05.745Z</time>
      </trkpt>
      <trkpt lat="46.57594" lon="5.47801">
        <ele>477</ele>
        <time>2021-05-29T08:31:06.745Z</time>
      </trkpt>
      <trkpt lat="46.57597" lon="5.47801">
        <ele>478</ele>
        <time>2021-05-29T08:31:07.745Z</time>
      </trkpt>
      <trkpt lat="46.576" lon="5.47802">
        <ele>478</ele>
        <time>2021-05-29T08:31:08.744Z</time>
      </trkpt>
      <trkpt lat="46.57603" lon="5.47803">
        <ele>479</ele>
        <time>2021-05-29T08:31:09.745Z</time>
      </trkpt>
      <trkpt lat="46.57606" lon="5.47804">
        <ele>479</ele>
        <time>2021-05-29T08:31:10.745Z</time>
      </trkpt>
      <trkpt lat="46.5761" lon="5.47805">
        <ele>479</ele>
        <time>2021-05-29T08:31:11.745Z</time>
      </trkpt>
      <trkpt lat="46.57612" lon="5.47806">
        <ele>479</ele>
        <time>2021-05-29T08:31:12.745Z</time>
      </trkpt>
      <trkpt lat="46.57615" lon="5.47807">
        <ele>479</ele>
        <time>2021-05-29T08:31:13.745Z</time>
      </trkpt>
      <trkpt lat="46.57618" lon="5.47807">
        <ele>479</ele>
        <time>2021-05-29T08:31:14.744Z</time>
      </trkpt>
      <trkpt lat="46.5762" lon="5.47807">
        <ele>479</ele>
        <time>2021-05-29T08:31:15.745Z</time>
      </trkpt>
      <trkpt lat="46.57623" lon="5.47808">
        <ele>479</ele>
        <time>2021-05-29T08:31:16.745Z</time>
      </trkpt>
      <trkpt lat="46.57625" lon="5.47809">
        <ele>480</ele>
        <time>2021-05-29T08:31:17.745Z</time>
      </trkpt>
      <trkpt lat="46.57628" lon="5.47811">
        <ele>479</ele>
        <time>2021-05-29T08:31:18.745Z</time>
      </trkpt>
      <trkpt lat="46.5763" lon="5.47812">
        <ele>479</ele>
        <time>2021-05-29T08:31:19.744Z</time>
      </trkpt>
      <trkpt lat="46.57632" lon="5.47813">
        <ele>479</ele>
        <time>2021-05-29T08:31:20.745Z</time>
      </trkpt>
      <trkpt lat="46.57634" lon="5.47815">
        <ele>479</ele>
        <time>2021-05-29T08:31:21.745Z</time>
      </trkpt>
      <trkpt lat="46.57636" lon="5.47816">
        <ele>479</ele>
        <time>2021-05-29T08:31:22.745Z</time>
      </trkpt>
      <trkpt lat="46.57639" lon="5.47817">
        <ele>479</ele>
        <time>2021-05-29T08:31:23.745Z</time>
      </trkpt>
      <trkpt lat="46.57641" lon="5.47818">
        <ele>479</ele>
        <time>2021-05-29T08:31:24.745Z</time>
      </trkpt>
      <trkpt lat="46.57644" lon="5.47819">
        <ele>479</ele>
        <time>2021-05-29T08:31:25.745Z</time>
      </trkpt>
      <trkpt lat="46.57646" lon="5.47819">
        <ele>480</ele>
        <time>2021-05-29T08:31:26.745Z</time>
      </trkpt>
      <trkpt lat="46.57649" lon="5.4782">
        <ele>480</ele>
        <time>2021-05-29T08:31:27.745Z</time>
      </trkpt>
      <trkpt lat="46.57652" lon="5.47821">
        <ele>481</ele>
        <time>2021-05-29T08:31:28.745Z</time>
      </trkpt>
      <trkpt lat="46.57655" lon="5.47822">
        <ele>481</ele>
        <time>2021-05-29T08:31:29.745Z</time>
      </trkpt>
      <trkpt lat="46.57658" lon="5.47823">
        <ele>482</ele>
        <time>2021-05-29T08:31:30.744Z</time>
      </trkpt>
      <trkpt lat="46.57661" lon="5.47824">
        <ele>482</ele>
        <time>2021-05-29T08:31:31.745Z</time>
      </trkpt>
      <trkpt lat="46.57664" lon="5.47825">
        <ele>482</ele>
        <time>2021-05-29T08:31:32.744Z</time>
      </trkpt>
      <trkpt lat="46.57667" lon="5.47826">
        <ele>482</ele>
        <time>2021-05-29T08:31:33.745Z</time>
      </trkpt>
      <trkpt lat="46.5767" lon="5.47827">
        <ele>481</ele>
        <time>2021-05-29T08:31:34.745Z</time>
      </trkpt>
      <trkpt lat="46.57672" lon="5.47829">
        <ele>481</ele>
        <time>2021-05-29T08:31:35.745Z</time>
      </trkpt>
      <trkpt lat="46.57674" lon="5.47831">
        <ele>481</ele>
        <time>2021-05-29T08:31:36.744Z</time>
      </trkpt>
      <trkpt lat="46.57675" lon="5.47832">
        <ele>480</ele>
        <time>2021-05-29T08:31:37.744Z</time>
      </trkpt>
      <trkpt lat="46.57676" lon="5.47834">
        <ele>480</ele>
        <time>2021-05-29T08:31:38.745Z</time>
      </trkpt>
      <trkpt lat="46.57678" lon="5.47837">
        <ele>480</ele>
        <time>2021-05-29T08:31:39.745Z</time>
      </trkpt>
      <trkpt lat="46.57679" lon="5.47837">
        <ele>479</ele>
        <time>2021-05-29T08:31:40.745Z</time>
      </trkpt>
      <trkpt lat="46.5768" lon="5.47838">
        <ele>479</ele>
        <time>2021-05-29T08:31:41.744Z</time>
      </trkpt>
      <trkpt lat="46.57682" lon="5.47839">
        <ele>479</ele>
        <time>2021-05-29T08:31:42.745Z</time>
      </trkpt>
      <trkpt lat="46.57685" lon="5.47841">
        <ele>479</ele>
        <time>2021-05-29T08:31:43.745Z</time>
      </trkpt>
      <trkpt lat="46.57687" lon="5.47843">
        <ele>478</ele>
        <time>2021-05-29T08:31:44.745Z</time>
      </trkpt>
      <trkpt lat="46.57689" lon="5.47845">
        <ele>478</ele>
        <time>2021-05-29T08:31:45.745Z</time>
      </trkpt>
      <trkpt lat="46.57691" lon="5.47847">
        <ele>477</ele>
        <time>2021-05-29T08:31:46.745Z</time>
      </trkpt>
      <trkpt lat="46.57692" lon="5.47849">
        <ele>476</ele>
        <time>2021-05-29T08:31:47.745Z</time>
      </trkpt>
      <trkpt lat="46.57694" lon="5.47851">
        <ele>476</ele>
        <time>2021-05-29T08:31:48.745Z</time>
      </trkpt>
      <trkpt lat="46.57696" lon="5.47853">
        <ele>475</ele>
        <time>2021-05-29T08:31:49.745Z</time>
      </trkpt>
      <trkpt lat="46.57699" lon="5.47855">
        <ele>474</ele>
        <time>2021-05-29T08:31:50.745Z</time>
      </trkpt>
      <trkpt lat="46.57702" lon="5.47857">
        <ele>474</ele>
        <time>2021-05-29T08:31:51.745Z</time>
      </trkpt>
      <trkpt lat="46.57705" lon="5.47859">
        <ele>474</ele>
        <time>2021-05-29T08:31:52.745Z</time>
      </trkpt>
      <trkpt lat="46.57708" lon="5.47861">
        <ele>473</ele>
        <time>2021-05-29T08:31:53.744Z</time>
      </trkpt>
      <trkpt lat="46.5771" lon="5.47863">
        <ele>473</ele>
        <time>2021-05-29T08:31:54.745Z</time>
      </trkpt>
      <trkpt lat="46.57713" lon="5.47866">
        <ele>473</ele>
        <time>2021-05-29T08:31:55.745Z</time>
      </trkpt>
      <trkpt lat="46.57716" lon="5.47868">
        <ele>473</ele>
        <time>2021-05-29T08:31:56.745Z</time>
      </trkpt>
      <trkpt lat="46.57719" lon="5.47869">
        <ele>473</ele>
        <time>2021-05-29T08:31:57.745Z</time>
      </trkpt>
      <trkpt lat="46.57722" lon="5.47871">
        <ele>473</ele>
        <time>2021-05-29T08:31:58.745Z</time>
      </trkpt>
      <trkpt lat="46.57726" lon="5.47873">
        <ele>473</ele>
        <time>2021-05-29T08:31:59.745Z</time>
      </trkpt>
      <trkpt lat="46.57729" lon="5.47875">
        <ele>473</ele>
        <time>2021-05-29T08:32:00.745Z</time>
      </trkpt>
      <trkpt lat="46.57731" lon="5.47876">
        <ele>473</ele>
        <time>2021-05-29T08:32:01.745Z</time>
      </trkpt>
      <trkpt lat="46.57733" lon="5.47877">
        <ele>473</ele>
        <time>2021-05-29T08:32:02.744Z</time>
      </trkpt>
      <trkpt lat="46.57735" lon="5.47878">
        <ele>473</ele>
        <time>2021-05-29T08:32:03.744Z</time>
      </trkpt>
      <trkpt lat="46.57737" lon="5.47879">
        <ele>473</ele>
        <time>2021-05-29T08:32:04.745Z</time>
      </trkpt>
      <trkpt lat="46.57739" lon="5.47881">
        <ele>473</ele>
        <time>2021-05-29T08:32:05.745Z</time>
      </trkpt>
      <trkpt lat="46.57742" lon="5.47883">
        <ele>473</ele>
        <time>2021-05-29T08:32:06.745Z</time>
      </trkpt>
      <trkpt lat="46.57744" lon="5.47884">
        <ele>473</ele>
        <time>2021-05-29T08:32:07.745Z</time>
      </trkpt>
      <trkpt lat="46.57747" lon="5.47886">
        <ele>473</ele>
        <time>2021-05-29T08:32:08.745Z</time>
      </trkpt>
      <trkpt lat="46.57749" lon="5.47887">
        <ele>473</ele>
        <time>2021-05-29T08:32:09.745Z</time>
      </trkpt>
      <trkpt lat="46.57752" lon="5.47889">
        <ele>472</ele>
        <time>2021-05-29T08:32:10.745Z</time>
      </trkpt>
      <trkpt lat="46.57755" lon="5.47891">
        <ele>472</ele>
        <time>2021-05-29T08:32:11.745Z</time>
      </trkpt>
      <trkpt lat="46.57758" lon="5.47892">
        <ele>472</ele>
        <time>2021-05-29T08:32:12.745Z</time>
      </trkpt>
      <trkpt lat="46.5776" lon="5.47893">
        <ele>472</ele>
        <time>2021-05-29T08:32:13.744Z</time>
      </trkpt>
      <trkpt lat="46.57763" lon="5.47894">
        <ele>472</ele>
        <time>2021-05-29T08:32:14.744Z</time>
      </trkpt>
      <trkpt lat="46.57766" lon="5.47895">
        <ele>472</ele>
        <time>2021-05-29T08:32:15.745Z</time>
      </trkpt>
      <trkpt lat="46.57767" lon="5.47895">
        <ele>471</ele>
        <time>2021-05-29T08:32:16.744Z</time>
      </trkpt>
      <trkpt lat="46.57769" lon="5.47895">
        <ele>471</ele>
        <time>2021-05-29T08:32:17.744Z</time>
      </trkpt>
      <trkpt lat="46.57771" lon="5.47894">
        <ele>470</ele>
        <time>2021-05-29T08:32:18.744Z</time>
      </trkpt>
      <trkpt lat="46.57773" lon="5.47894">
        <ele>470</ele>
        <time>2021-05-29T08:32:19.744Z</time>
      </trkpt>
      <trkpt lat="46.57775" lon="5.47894">
        <ele>470</ele>
        <time>2021-05-29T08:32:20.745Z</time>
      </trkpt>
      <trkpt lat="46.57777" lon="5.47894">
        <ele>470</ele>
        <time>2021-05-29T08:32:21.745Z</time>
      </trkpt>
      <trkpt lat="46.57779" lon="5.47894">
        <ele>470</ele>
        <time>2021-05-29T08:32:22.745Z</time>
      </trkpt>
      <trkpt lat="46.57782" lon="5.47893">
        <ele>470</ele>
        <time>2021-05-29T08:32:23.745Z</time>
      </trkpt>
      <trkpt lat="46.57784" lon="5.47893">
        <ele>470</ele>
        <time>2021-05-29T08:32:24.745Z</time>
      </trkpt>
      <trkpt lat="46.57785" lon="5.47892">
        <ele>470</ele>
        <time>2021-05-29T08:32:25.745Z</time>
      </trkpt>
      <trkpt lat="46.57787" lon="5.47891">
        <ele>471</ele>
        <time>2021-05-29T08:32:26.745Z</time>
      </trkpt>
      <trkpt lat="46.57789" lon="5.47891">
        <ele>471</ele>
        <time>2021-05-29T08:32:27.745Z</time>
      </trkpt>
      <trkpt lat="46.57792" lon="5.4789">
        <ele>472</ele>
        <time>2021-05-29T08:32:28.744Z</time>
      </trkpt>
      <trkpt lat="46.57794" lon="5.4789">
        <ele>472</ele>
        <time>2021-05-29T08:32:29.745Z</time>
      </trkpt>
      <trkpt lat="46.57796" lon="5.4789">
        <ele>472</ele>
        <time>2021-05-29T08:32:30.745Z</time>
      </trkpt>
      <trkpt lat="46.57799" lon="5.47889">
        <ele>472</ele>
        <time>2021-05-29T08:32:31.745Z</time>
      </trkpt>
      <trkpt lat="46.57801" lon="5.47889">
        <ele>473</ele>
        <time>2021-05-29T08:32:32.745Z</time>
      </trkpt>
      <trkpt lat="46.57803" lon="5.47887">
        <ele>473</ele>
        <time>2021-05-29T08:32:33.745Z</time>
      </trkpt>
      <trkpt lat="46.57804" lon="5.47886">
        <ele>473</ele>
        <time>2021-05-29T08:32:34.745Z</time>
      </trkpt>
      <trkpt lat="46.57805" lon="5.47885">
        <ele>473</ele>
        <time>2021-05-29T08:32:35.745Z</time>
      </trkpt>
      <trkpt lat="46.57806" lon="5.47883">
        <ele>474</ele>
        <time>2021-05-29T08:32:36.745Z</time>
      </trkpt>
      <trkpt lat="46.57807" lon="5.47882">
        <ele>474</ele>
        <time>2021-05-29T08:32:37.745Z</time>
      </trkpt>
      <trkpt lat="46.57807" lon="5.47881">
        <ele>474</ele>
        <time>2021-05-29T08:32:38.745Z</time>
      </trkpt>
      <trkpt lat="46.57806" lon="5.47879">
        <ele>475</ele>
        <time>2021-05-29T08:32:39.745Z</time>
      </trkpt>
      <trkpt lat="46.57805" lon="5.4788">
        <ele>475</ele>
        <time>2021-05-29T08:32:40.745Z</time>
      </trkpt>
      <trkpt lat="46.57804" lon="5.47881">
        <ele>475</ele>
        <time>2021-05-29T08:32:41.745Z</time>
      </trkpt>
      <trkpt lat="46.57802" lon="5.47881">
        <ele>475</ele>
        <time>2021-05-29T08:32:42.745Z</time>
      </trkpt>
      <trkpt lat="46.57801" lon="5.47881">
        <ele>475</ele>
        <time>2021-05-29T08:32:43.745Z</time>
      </trkpt>
      <trkpt lat="46.57799" lon="5.47881">
        <ele>475</ele>
        <time>2021-05-29T08:32:44.745Z</time>
      </trkpt>
      <trkpt lat="46.57798" lon="5.4788">
        <ele>474</ele>
        <time>2021-05-29T08:32:45.744Z</time>
      </trkpt>
      <trkpt lat="46.57797" lon="5.47879">
        <ele>473</ele>
        <time>2021-05-29T08:32:46.745Z</time>
      </trkpt>
      <trkpt lat="46.57796" lon="5.47878">
        <ele>473</ele>
        <time>2021-05-29T08:32:47.744Z</time>
      </trkpt>
      <trkpt lat="46.57794" lon="5.47877">
        <ele>472</ele>
        <time>2021-05-29T08:32:48.745Z</time>
      </trkpt>
      <trkpt lat="46.57793" lon="5.47875">
        <ele>472</ele>
        <time>2021-05-29T08:32:49.745Z</time>
      </trkpt>
      <trkpt lat="46.57791" lon="5.47874">
        <ele>471</ele>
        <time>2021-05-29T08:32:50.745Z</time>
      </trkpt>
      <trkpt lat="46.5779" lon="5.47873">
        <ele>471</ele>
        <time>2021-05-29T08:32:51.745Z</time>
      </trkpt>
      <trkpt lat="46.57789" lon="5.47871">
        <ele>470</ele>
        <time>2021-05-29T08:32:52.745Z</time>
      </trkpt>
      <trkpt lat="46.57788" lon="5.4787">
        <ele>470</ele>
        <time>2021-05-29T08:32:53.745Z</time>
      </trkpt>
      <trkpt lat="46.57787" lon="5.47868">
        <ele>469</ele>
        <time>2021-05-29T08:32:54.745Z</time>
      </trkpt>
      <trkpt lat="46.57785" lon="5.47867">
        <ele>469</ele>
        <time>2021-05-29T08:32:55.745Z</time>
      </trkpt>
      <trkpt lat="46.57783" lon="5.47865">
        <ele>468</ele>
        <time>2021-05-29T08:32:56.745Z</time>
      </trkpt>
      <trkpt lat="46.5778" lon="5.47864">
        <ele>468</ele>
        <time>2021-05-29T08:32:57.745Z</time>
      </trkpt>
      <trkpt lat="46.57777" lon="5.47861">
        <ele>467</ele>
        <time>2021-05-29T08:32:58.744Z</time>
      </trkpt>
      <trkpt lat="46.57775" lon="5.4786">
        <ele>467</ele>
        <time>2021-05-29T08:32:59.745Z</time>
      </trkpt>
      <trkpt lat="46.57773" lon="5.47858">
        <ele>467</ele>
        <time>2021-05-29T08:33:00.745Z</time>
      </trkpt>
      <trkpt lat="46.5777" lon="5.47856">
        <ele>467</ele>
        <time>2021-05-29T08:33:01.744Z</time>
      </trkpt>
      <trkpt lat="46.57768" lon="5.47854">
        <ele>467</ele>
        <time>2021-05-29T08:33:02.745Z</time>
      </trkpt>
      <trkpt lat="46.57766" lon="5.47852">
        <ele>467</ele>
        <time>2021-05-29T08:33:03.745Z</time>
      </trkpt>
      <trkpt lat="46.57764" lon="5.4785">
        <ele>466</ele>
        <time>2021-05-29T08:33:04.745Z</time>
      </trkpt>
      <trkpt lat="46.57763" lon="5.47848">
        <ele>466</ele>
        <time>2021-05-29T08:33:05.745Z</time>
      </trkpt>
      <trkpt lat="46.57762" lon="5.47846">
        <ele>466</ele>
        <time>2021-05-29T08:33:06.745Z</time>
      </trkpt>
      <trkpt lat="46.5776" lon="5.47843">
        <ele>466</ele>
        <time>2021-05-29T08:33:07.745Z</time>
      </trkpt>
      <trkpt lat="46.57759" lon="5.47841">
        <ele>466</ele>
        <time>2021-05-29T08:33:08.745Z</time>
      </trkpt>
      <trkpt lat="46.57758" lon="5.47838">
        <ele>466</ele>
        <time>2021-05-29T08:33:09.744Z</time>
      </trkpt>
      <trkpt lat="46.57756" lon="5.47835">
        <ele>465</ele>
        <time>2021-05-29T08:33:10.745Z</time>
      </trkpt>
      <trkpt lat="46.57756" lon="5.47834">
        <ele>465</ele>
        <time>2021-05-29T08:33:11.745Z</time>
      </trkpt>
      <trkpt lat="46.57756" lon="5.47834">
        <ele>465</ele>
        <time>2021-05-29T08:33:12.745Z</time>
      </trkpt>
      <trkpt lat="46.57756" lon="5.47833">
        <ele>465</ele>
        <time>2021-05-29T08:33:13.744Z</time>
      </trkpt>
      <trkpt lat="46.57756" lon="5.47832">
        <ele>465</ele>
        <time>2021-05-29T08:33:14.745Z</time>
      </trkpt>
      <trkpt lat="46.57754" lon="5.4783">
        <ele>465</ele>
        <time>2021-05-29T08:33:15.745Z</time>
      </trkpt>
      <trkpt lat="46.57753" lon="5.47827">
        <ele>465</ele>
        <time>2021-05-29T08:33:16.745Z</time>
      </trkpt>
      <trkpt lat="46.57751" lon="5.47824">
        <ele>465</ele>
        <time>2021-05-29T08:33:17.745Z</time>
      </trkpt>
      <trkpt lat="46.57749" lon="5.47821">
        <ele>464</ele>
        <time>2021-05-29T08:33:18.745Z</time>
      </trkpt>
      <trkpt lat="46.57748" lon="5.47817">
        <ele>463</ele>
        <time>2021-05-29T08:33:19.745Z</time>
      </trkpt>
      <trkpt lat="46.57747" lon="5.47814">
        <ele>462</ele>
        <time>2021-05-29T08:33:20.744Z</time>
      </trkpt>
      <trkpt lat="46.57746" lon="5.47811">
        <ele>461</ele>
        <time>2021-05-29T08:33:21.745Z</time>
      </trkpt>
      <trkpt lat="46.57744" lon="5.47808">
        <ele>460</ele>
        <time>2021-05-29T08:33:22.745Z</time>
      </trkpt>
      <trkpt lat="46.57743" lon="5.47805">
        <ele>460</ele>
        <time>2021-05-29T08:33:23.745Z</time>
      </trkpt>
      <trkpt lat="46.57742" lon="5.47802">
        <ele>459</ele>
        <time>2021-05-29T08:33:24.744Z</time>
      </trkpt>
      <trkpt lat="46.5774" lon="5.47799">
        <ele>458</ele>
        <time>2021-05-29T08:33:25.745Z</time>
      </trkpt>
      <trkpt lat="46.57739" lon="5.47796">
        <ele>458</ele>
        <time>2021-05-29T08:33:26.745Z</time>
      </trkpt>
      <trkpt lat="46.57736" lon="5.47793">
        <ele>457</ele>
        <time>2021-05-29T08:33:27.744Z</time>
      </trkpt>
      <trkpt lat="46.57734" lon="5.47789">
        <ele>457</ele>
        <time>2021-05-29T08:33:28.745Z</time>
      </trkpt>
      <trkpt lat="46.57733" lon="5.47785">
        <ele>456</ele>
        <time>2021-05-29T08:33:29.745Z</time>
      </trkpt>
      <trkpt lat="46.5773" lon="5.4778">
        <ele>456</ele>
        <time>2021-05-29T08:33:30.745Z</time>
      </trkpt>
      <trkpt lat="46.57729" lon="5.47776">
        <ele>456</ele>
        <time>2021-05-29T08:33:31.745Z</time>
      </trkpt>
      <trkpt lat="46.57726" lon="5.47772">
        <ele>455</ele>
        <time>2021-05-29T08:33:32.745Z</time>
      </trkpt>
      <trkpt lat="46.57723" lon="5.4777">
        <ele>455</ele>
        <time>2021-05-29T08:33:33.745Z</time>
      </trkpt>
      <trkpt lat="46.57721" lon="5.47767">
        <ele>454</ele>
        <time>2021-05-29T08:33:34.745Z</time>
      </trkpt>
      <trkpt lat="46.57719" lon="5.47764">
        <ele>454</ele>
        <time>2021-05-29T08:33:35.745Z</time>
      </trkpt>
      <trkpt lat="46.57717" lon="5.47761">
        <ele>454</ele>
        <time>2021-05-29T08:33:36.744Z</time>
      </trkpt>
      <trkpt lat="46.57715" lon="5.47758">
        <ele>453</ele>
        <time>2021-05-29T08:33:37.745Z</time>
      </trkpt>
      <trkpt lat="46.57714" lon="5.47754">
        <ele>453</ele>
        <time>2021-05-29T08:33:38.744Z</time>
      </trkpt>
      <trkpt lat="46.57713" lon="5.47751">
        <ele>452</ele>
        <time>2021-05-29T08:33:39.745Z</time>
      </trkpt>
      <trkpt lat="46.57712" lon="5.47747">
        <ele>451</ele>
        <time>2021-05-29T08:33:40.745Z</time>
      </trkpt>
      <trkpt lat="46.57713" lon="5.47743">
        <ele>450</ele>
        <time>2021-05-29T08:33:41.745Z</time>
      </trkpt>
      <trkpt lat="46.57713" lon="5.47739">
        <ele>449</ele>
        <time>2021-05-29T08:33:42.745Z</time>
      </trkpt>
      <trkpt lat="46.57715" lon="5.47735">
        <ele>449</ele>
        <time>2021-05-29T08:33:43.744Z</time>
      </trkpt>
      <trkpt lat="46.57716" lon="5.4773">
        <ele>449</ele>
        <time>2021-05-29T08:33:44.745Z</time>
      </trkpt>
      <trkpt lat="46.57717" lon="5.47727">
        <ele>449</ele>
        <time>2021-05-29T08:33:45.745Z</time>
      </trkpt>
      <trkpt lat="46.57719" lon="5.47723">
        <ele>448</ele>
        <time>2021-05-29T08:33:46.744Z</time>
      </trkpt>
      <trkpt lat="46.57721" lon="5.47721">
        <ele>449</ele>
        <time>2021-05-29T08:33:47.745Z</time>
      </trkpt>
      <trkpt lat="46.57723" lon="5.47718">
        <ele>449</ele>
        <time>2021-05-29T08:33:48.745Z</time>
      </trkpt>
      <trkpt lat="46.57725" lon="5.47716">
        <ele>449</ele>
        <time>2021-05-29T08:33:49.745Z</time>
      </trkpt>
      <trkpt lat="46.57727" lon="5.47714">
        <ele>449</ele>
        <time>2021-05-29T08:33:50.745Z</time>
      </trkpt>
      <trkpt lat="46.57729" lon="5.47712">
        <ele>450</ele>
        <time>2021-05-29T08:33:51.745Z</time>
      </trkpt>
      <trkpt lat="46.57731" lon="5.4771">
        <ele>450</ele>
        <time>2021-05-29T08:33:52.745Z</time>
      </trkpt>
      <trkpt lat="46.57734" lon="5.47708">
        <ele>451</ele>
        <time>2021-05-29T08:33:53.745Z</time>
      </trkpt>
      <trkpt lat="46.57736" lon="5.47706">
        <ele>451</ele>
        <time>2021-05-29T08:33:54.745Z</time>
      </trkpt>
      <trkpt lat="46.5774" lon="5.47703">
        <ele>451</ele>
        <time>2021-05-29T08:33:55.744Z</time>
      </trkpt>
      <trkpt lat="46.57742" lon="5.47702">
        <ele>452</ele>
        <time>2021-05-29T08:33:56.745Z</time>
      </trkpt>
      <trkpt lat="46.57745" lon="5.477">
        <ele>453</ele>
        <time>2021-05-29T08:33:57.745Z</time>
      </trkpt>
      <trkpt lat="46.57748" lon="5.47699">
        <ele>454</ele>
        <time>2021-05-29T08:33:58.745Z</time>
      </trkpt>
      <trkpt lat="46.5775" lon="5.47698">
        <ele>454</ele>
        <time>2021-05-29T08:33:59.744Z</time>
      </trkpt>
      <trkpt lat="46.57753" lon="5.47697">
        <ele>455</ele>
        <time>2021-05-29T08:34:00.745Z</time>
      </trkpt>
      <trkpt lat="46.57757" lon="5.47695">
        <ele>455</ele>
        <time>2021-05-29T08:34:01.744Z</time>
      </trkpt>
      <trkpt lat="46.5776" lon="5.47694">
        <ele>456</ele>
        <time>2021-05-29T08:34:02.745Z</time>
      </trkpt>
      <trkpt lat="46.57763" lon="5.47693">
        <ele>457</ele>
        <time>2021-05-29T08:34:03.745Z</time>
      </trkpt>
      <trkpt lat="46.57766" lon="5.47693">
        <ele>457</ele>
        <time>2021-05-29T08:34:04.745Z</time>
      </trkpt>
      <trkpt lat="46.5777" lon="5.47693">
        <ele>457</ele>
        <time>2021-05-29T08:34:05.745Z</time>
      </trkpt>
      <trkpt lat="46.57772" lon="5.47694">
        <ele>457</ele>
        <time>2021-05-29T08:34:06.745Z</time>
      </trkpt>
      <trkpt lat="46.57774" lon="5.47696">
        <ele>457</ele>
        <time>2021-05-29T08:34:07.745Z</time>
      </trkpt>
      <trkpt lat="46.57776" lon="5.47698">
        <ele>457</ele>
        <time>2021-05-29T08:34:08.745Z</time>
      </trkpt>
      <trkpt lat="46.57778" lon="5.477">
        <ele>456</ele>
        <time>2021-05-29T08:34:09.745Z</time>
      </trkpt>
      <trkpt lat="46.5778" lon="5.47702">
        <ele>456</ele>
        <time>2021-05-29T08:34:10.745Z</time>
      </trkpt>
      <trkpt lat="46.57782" lon="5.47704">
        <ele>455</ele>
        <time>2021-05-29T08:34:11.745Z</time>
      </trkpt>
      <trkpt lat="46.57784" lon="5.47706">
        <ele>455</ele>
        <time>2021-05-29T08:34:12.745Z</time>
      </trkpt>
      <trkpt lat="46.57785" lon="5.47708">
        <ele>455</ele>
        <time>2021-05-29T08:34:13.744Z</time>
      </trkpt>
      <trkpt lat="46.57786" lon="5.47709">
        <ele>454</ele>
        <time>2021-05-29T08:34:14.745Z</time>
      </trkpt>
      <trkpt lat="46.57787" lon="5.47711">
        <ele>454</ele>
        <time>2021-05-29T08:34:15.744Z</time>
      </trkpt>
      <trkpt lat="46.57788" lon="5.47712">
        <ele>453</ele>
        <time>2021-05-29T08:34:16.745Z</time>
      </trkpt>
      <trkpt lat="46.57789" lon="5.47713">
        <ele>453</ele>
        <time>2021-05-29T08:34:17.744Z</time>
      </trkpt>
      <trkpt lat="46.57791" lon="5.47714">
        <ele>453</ele>
        <time>2021-05-29T08:34:18.745Z</time>
      </trkpt>
      <trkpt lat="46.57793" lon="5.47714">
        <ele>454</ele>
        <time>2021-05-29T08:34:19.745Z</time>
      </trkpt>
      <trkpt lat="46.57796" lon="5.47714">
        <ele>454</ele>
        <time>2021-05-29T08:34:20.744Z</time>
      </trkpt>
      <trkpt lat="46.57798" lon="5.47713">
        <ele>454</ele>
        <time>2021-05-29T08:34:21.745Z</time>
      </trkpt>
      <trkpt lat="46.57801" lon="5.47711">
        <ele>454</ele>
        <time>2021-05-29T08:34:22.745Z</time>
      </trkpt>
      <trkpt lat="46.57803" lon="5.47709">
        <ele>455</ele>
        <time>2021-05-29T08:34:23.744Z</time>
      </trkpt>
      <trkpt lat="46.57804" lon="5.47706">
        <ele>455</ele>
        <time>2021-05-29T08:34:24.745Z</time>
      </trkpt>
      <trkpt lat="46.57806" lon="5.47704">
        <ele>456</ele>
        <time>2021-05-29T08:34:25.745Z</time>
      </trkpt>
      <trkpt lat="46.57808" lon="5.47701">
        <ele>456</ele>
        <time>2021-05-29T08:34:26.744Z</time>
      </trkpt>
      <trkpt lat="46.57808" lon="5.47698">
        <ele>456</ele>
        <time>2021-05-29T08:34:27.745Z</time>
      </trkpt>
      <trkpt lat="46.57808" lon="5.47696">
        <ele>455</ele>
        <time>2021-05-29T08:34:28.745Z</time>
      </trkpt>
      <trkpt lat="46.5781" lon="5.47692">
        <ele>455</ele>
        <time>2021-05-29T08:34:29.745Z</time>
      </trkpt>
      <trkpt lat="46.57811" lon="5.47688">
        <ele>455</ele>
        <time>2021-05-29T08:34:30.745Z</time>
      </trkpt>
      <trkpt lat="46.57811" lon="5.47685">
        <ele>455</ele>
        <time>2021-05-29T08:34:31.745Z</time>
      </trkpt>
      <trkpt lat="46.57811" lon="5.47682">
        <ele>455</ele>
        <time>2021-05-29T08:34:32.744Z</time>
      </trkpt>
      <trkpt lat="46.57811" lon="5.47679">
        <ele>454</ele>
        <time>2021-05-29T08:34:33.745Z</time>
      </trkpt>
      <trkpt lat="46.57811" lon="5.47675">
        <ele>454</ele>
        <time>2021-05-29T08:34:34.745Z</time>
      </trkpt>
      <trkpt lat="46.5781" lon="5.47672">
        <ele>454</ele>
        <time>2021-05-29T08:34:35.745Z</time>
      </trkpt>
      <trkpt lat="46.5781" lon="5.47668">
        <ele>453</ele>
        <time>2021-05-29T08:34:36.745Z</time>
      </trkpt>
      <trkpt lat="46.5781" lon="5.47663">
        <ele>453</ele>
        <time>2021-05-29T08:34:37.744Z</time>
      </trkpt>
      <trkpt lat="46.5781" lon="5.47659">
        <ele>452</ele>
        <time>2021-05-29T08:34:38.745Z</time>
      </trkpt>
      <trkpt lat="46.5781" lon="5.47655">
        <ele>452</ele>
        <time>2021-05-29T08:34:39.745Z</time>
      </trkpt>
      <trkpt lat="46.5781" lon="5.4765">
        <ele>452</ele>
        <time>2021-05-29T08:34:40.745Z</time>
      </trkpt>
      <trkpt lat="46.57809" lon="5.47646">
        <ele>451</ele>
        <time>2021-05-29T08:34:41.745Z</time>
      </trkpt>
      <trkpt lat="46.57809" lon="5.47642">
        <ele>451</ele>
        <time>2021-05-29T08:34:42.745Z</time>
      </trkpt>
      <trkpt lat="46.57809" lon="5.47638">
        <ele>450</ele>
        <time>2021-05-29T08:34:43.745Z</time>
      </trkpt>
      <trkpt lat="46.57809" lon="5.47633">
        <ele>449</ele>
        <time>2021-05-29T08:34:44.745Z</time>
      </trkpt>
      <trkpt lat="46.5781" lon="5.47629">
        <ele>449</ele>
        <time>2021-05-29T08:34:45.745Z</time>
      </trkpt>
      <trkpt lat="46.5781" lon="5.47626">
        <ele>448</ele>
        <time>2021-05-29T08:34:46.745Z</time>
      </trkpt>
      <trkpt lat="46.5781" lon="5.47622">
        <ele>447</ele>
        <time>2021-05-29T08:34:47.745Z</time>
      </trkpt>
      <trkpt lat="46.57811" lon="5.47618">
        <ele>447</ele>
        <time>2021-05-29T08:34:48.744Z</time>
      </trkpt>
      <trkpt lat="46.57812" lon="5.47615">
        <ele>446</ele>
        <time>2021-05-29T08:34:49.745Z</time>
      </trkpt>
      <trkpt lat="46.57813" lon="5.47611">
        <ele>445</ele>
        <time>2021-05-29T08:34:50.745Z</time>
      </trkpt>
      <trkpt lat="46.57814" lon="5.47608">
        <ele>445</ele>
        <time>2021-05-29T08:34:51.744Z</time>
      </trkpt>
      <trkpt lat="46.57815" lon="5.47604">
        <ele>444</ele>
        <time>2021-05-29T08:34:52.745Z</time>
      </trkpt>
      <trkpt lat="46.57816" lon="5.47602">
        <ele>444</ele>
        <time>2021-05-29T08:34:53.745Z</time>
      </trkpt>
      <trkpt lat="46.57818" lon="5.47599">
        <ele>444</ele>
        <time>2021-05-29T08:34:54.745Z</time>
      </trkpt>
      <trkpt lat="46.57819" lon="5.47597">
        <ele>444</ele>
        <time>2021-05-29T08:34:55.745Z</time>
      </trkpt>
      <trkpt lat="46.57821" lon="5.47594">
        <ele>443</ele>
        <time>2021-05-29T08:34:56.745Z</time>
      </trkpt>
      <trkpt lat="46.57822" lon="5.47591">
        <ele>443</ele>
        <time>2021-05-29T08:34:57.745Z</time>
      </trkpt>
      <trkpt lat="46.57824" lon="5.47588">
        <ele>443</ele>
        <time>2021-05-29T08:34:58.744Z</time>
      </trkpt>
      <trkpt lat="46.57825" lon="5.47586">
        <ele>442</ele>
        <time>2021-05-29T08:34:59.745Z</time>
      </trkpt>
      <trkpt lat="46.57826" lon="5.47583">
        <ele>442</ele>
        <time>2021-05-29T08:35:00.744Z</time>
      </trkpt>
      <trkpt lat="46.57827" lon="5.47579">
        <ele>442</ele>
        <time>2021-05-29T08:35:01.745Z</time>
      </trkpt>
      <trkpt lat="46.57829" lon="5.47577">
        <ele>442</ele>
        <time>2021-05-29T08:35:02.745Z</time>
      </trkpt>
      <trkpt lat="46.5783" lon="5.47574">
        <ele>442</ele>
        <time>2021-05-29T08:35:03.745Z</time>
      </trkpt>
      <trkpt lat="46.57831" lon="5.47571">
        <ele>442</ele>
        <time>2021-05-29T08:35:04.745Z</time>
      </trkpt>
      <trkpt lat="46.57833" lon="5.47568">
        <ele>442</ele>
        <time>2021-05-29T08:35:05.745Z</time>
      </trkpt>
      <trkpt lat="46.57835" lon="5.47565">
        <ele>442</ele>
        <time>2021-05-29T08:35:06.745Z</time>
      </trkpt>
      <trkpt lat="46.57837" lon="5.47561">
        <ele>442</ele>
        <time>2021-05-29T08:35:07.745Z</time>
      </trkpt>
      <trkpt lat="46.57839" lon="5.47558">
        <ele>442</ele>
        <time>2021-05-29T08:35:08.745Z</time>
      </trkpt>
      <trkpt lat="46.5784" lon="5.47555">
        <ele>442</ele>
        <time>2021-05-29T08:35:09.745Z</time>
      </trkpt>
      <trkpt lat="46.57843" lon="5.47551">
        <ele>442</ele>
        <time>2021-05-29T08:35:10.745Z</time>
      </trkpt>
      <trkpt lat="46.57844" lon="5.47547">
        <ele>442</ele>
        <time>2021-05-29T08:35:11.744Z</time>
      </trkpt>
      <trkpt lat="46.57844" lon="5.47544">
        <ele>441</ele>
        <time>2021-05-29T08:35:12.745Z</time>
      </trkpt>
      <trkpt lat="46.57845" lon="5.4754">
        <ele>441</ele>
        <time>2021-05-29T08:35:13.744Z</time>
      </trkpt>
      <trkpt lat="46.57845" lon="5.47537">
        <ele>441</ele>
        <time>2021-05-29T08:35:14.744Z</time>
      </trkpt>
      <trkpt lat="46.57846" lon="5.47534">
        <ele>441</ele>
        <time>2021-05-29T08:35:15.745Z</time>
      </trkpt>
      <trkpt lat="46.57846" lon="5.47531">
        <ele>441</ele>
        <time>2021-05-29T08:35:16.745Z</time>
      </trkpt>
      <trkpt lat="46.57845" lon="5.47528">
        <ele>441</ele>
        <time>2021-05-29T08:35:17.745Z</time>
      </trkpt>
      <trkpt lat="46.57844" lon="5.47525">
        <ele>441</ele>
        <time>2021-05-29T08:35:18.745Z</time>
      </trkpt>
      <trkpt lat="46.57843" lon="5.47522">
        <ele>441</ele>
        <time>2021-05-29T08:35:19.745Z</time>
      </trkpt>
      <trkpt lat="46.57841" lon="5.4752">
        <ele>441</ele>
        <time>2021-05-29T08:35:20.745Z</time>
      </trkpt>
      <trkpt lat="46.5784" lon="5.47517">
        <ele>441</ele>
        <time>2021-05-29T08:35:21.745Z</time>
      </trkpt>
      <trkpt lat="46.57839" lon="5.47514">
        <ele>441</ele>
        <time>2021-05-29T08:35:22.744Z</time>
      </trkpt>
      <trkpt lat="46.57838" lon="5.4751">
        <ele>441</ele>
        <time>2021-05-29T08:35:23.745Z</time>
      </trkpt>
      <trkpt lat="46.57837" lon="5.47508">
        <ele>441</ele>
        <time>2021-05-29T08:35:24.745Z</time>
      </trkpt>
      <trkpt lat="46.57836" lon="5.47503">
        <ele>441</ele>
        <time>2021-05-29T08:35:25.744Z</time>
      </trkpt>
      <trkpt lat="46.57835" lon="5.47499">
        <ele>441</ele>
        <time>2021-05-29T08:35:26.745Z</time>
      </trkpt>
      <trkpt lat="46.57835" lon="5.47495">
        <ele>442</ele>
        <time>2021-05-29T08:35:27.744Z</time>
      </trkpt>
      <trkpt lat="46.57834" lon="5.47491">
        <ele>442</ele>
        <time>2021-05-29T08:35:28.745Z</time>
      </trkpt>
      <trkpt lat="46.57833" lon="5.47488">
        <ele>443</ele>
        <time>2021-05-29T08:35:29.744Z</time>
      </trkpt>
      <trkpt lat="46.57832" lon="5.47484">
        <ele>443</ele>
        <time>2021-05-29T08:35:30.745Z</time>
      </trkpt>
      <trkpt lat="46.57831" lon="5.4748">
        <ele>444</ele>
        <time>2021-05-29T08:35:31.745Z</time>
      </trkpt>
      <trkpt lat="46.57831" lon="5.47477">
        <ele>444</ele>
        <time>2021-05-29T08:35:32.745Z</time>
      </trkpt>
      <trkpt lat="46.57831" lon="5.47474">
        <ele>444</ele>
        <time>2021-05-29T08:35:33.744Z</time>
      </trkpt>
      <trkpt lat="46.57831" lon="5.47471">
        <ele>445</ele>
        <time>2021-05-29T08:35:34.745Z</time>
      </trkpt>
      <trkpt lat="46.5783" lon="5.47467">
        <ele>445</ele>
        <time>2021-05-29T08:35:35.745Z</time>
      </trkpt>
      <trkpt lat="46.5783" lon="5.47463">
        <ele>446</ele>
        <time>2021-05-29T08:35:36.745Z</time>
      </trkpt>
      <trkpt lat="46.57829" lon="5.47459">
        <ele>447</ele>
        <time>2021-05-29T08:35:37.744Z</time>
      </trkpt>
      <trkpt lat="46.57828" lon="5.47454">
        <ele>447</ele>
        <time>2021-05-29T08:35:38.745Z</time>
      </trkpt>
      <trkpt lat="46.57827" lon="5.47448">
        <ele>448</ele>
        <time>2021-05-29T08:35:39.745Z</time>
      </trkpt>
      <trkpt lat="46.57826" lon="5.47444">
        <ele>448</ele>
        <time>2021-05-29T08:35:40.745Z</time>
      </trkpt>
      <trkpt lat="46.57826" lon="5.4744">
        <ele>448</ele>
        <time>2021-05-29T08:35:41.745Z</time>
      </trkpt>
      <trkpt lat="46.57826" lon="5.47436">
        <ele>448</ele>
        <time>2021-05-29T08:35:42.744Z</time>
      </trkpt>
      <trkpt lat="46.57826" lon="5.47431">
        <ele>447</ele>
        <time>2021-05-29T08:35:43.744Z</time>
      </trkpt>
      <trkpt lat="46.57827" lon="5.47427">
        <ele>447</ele>
        <time>2021-05-29T08:35:44.745Z</time>
      </trkpt>
      <trkpt lat="46.57828" lon="5.47423">
        <ele>447</ele>
        <time>2021-05-29T08:35:45.745Z</time>
      </trkpt>
      <trkpt lat="46.57829" lon="5.47419">
        <ele>446</ele>
        <time>2021-05-29T08:35:46.745Z</time>
      </trkpt>
      <trkpt lat="46.5783" lon="5.47416">
        <ele>446</ele>
        <time>2021-05-29T08:35:47.745Z</time>
      </trkpt>
      <trkpt lat="46.57831" lon="5.47413">
        <ele>446</ele>
        <time>2021-05-29T08:35:48.745Z</time>
      </trkpt>
      <trkpt lat="46.57833" lon="5.47411">
        <ele>446</ele>
        <time>2021-05-29T08:35:49.745Z</time>
      </trkpt>
      <trkpt lat="46.57833" lon="5.47407">
        <ele>446</ele>
        <time>2021-05-29T08:35:50.744Z</time>
      </trkpt>
      <trkpt lat="46.57833" lon="5.47404">
        <ele>446</ele>
        <time>2021-05-29T08:35:51.745Z</time>
      </trkpt>
      <trkpt lat="46.57834" lon="5.47401">
        <ele>446</ele>
        <time>2021-05-29T08:35:52.745Z</time>
      </trkpt>
      <trkpt lat="46.57835" lon="5.47397">
        <ele>446</ele>
        <time>2021-05-29T08:35:53.745Z</time>
      </trkpt>
      <trkpt lat="46.57837" lon="5.47394">
        <ele>446</ele>
        <time>2021-05-29T08:35:54.744Z</time>
      </trkpt>
      <trkpt lat="46.57838" lon="5.47392">
        <ele>446</ele>
        <time>2021-05-29T08:35:55.745Z</time>
      </trkpt>
      <trkpt lat="46.57839" lon="5.47389">
        <ele>447</ele>
        <time>2021-05-29T08:35:56.745Z</time>
      </trkpt>
      <trkpt lat="46.5784" lon="5.47385">
        <ele>447</ele>
        <time>2021-05-29T08:35:57.744Z</time>
      </trkpt>
      <trkpt lat="46.57841" lon="5.47382">
        <ele>447</ele>
        <time>2021-05-29T08:35:58.745Z</time>
      </trkpt>
      <trkpt lat="46.57842" lon="5.47379">
        <ele>447</ele>
        <time>2021-05-29T08:35:59.744Z</time>
      </trkpt>
      <trkpt lat="46.57843" lon="5.47376">
        <ele>447</ele>
        <time>2021-05-29T08:36:00.745Z</time>
      </trkpt>
      <trkpt lat="46.57844" lon="5.47373">
        <ele>447</ele>
        <time>2021-05-29T08:36:01.745Z</time>
      </trkpt>
      <trkpt lat="46.57845" lon="5.4737">
        <ele>447</ele>
        <time>2021-05-29T08:36:02.744Z</time>
      </trkpt>
      <trkpt lat="46.57846" lon="5.47367">
        <ele>447</ele>
        <time>2021-05-29T08:36:03.745Z</time>
      </trkpt>
      <trkpt lat="46.57847" lon="5.47364">
        <ele>447</ele>
        <time>2021-05-29T08:36:04.745Z</time>
      </trkpt>
      <trkpt lat="46.57848" lon="5.47361">
        <ele>447</ele>
        <time>2021-05-29T08:36:05.745Z</time>
      </trkpt>
      <trkpt lat="46.57848" lon="5.47357">
        <ele>447</ele>
        <time>2021-05-29T08:36:06.745Z</time>
      </trkpt>
      <trkpt lat="46.57849" lon="5.47353">
        <ele>446</ele>
        <time>2021-05-29T08:36:07.744Z</time>
      </trkpt>
      <trkpt lat="46.5785" lon="5.4735">
        <ele>446</ele>
        <time>2021-05-29T08:36:08.745Z</time>
      </trkpt>
      <trkpt lat="46.57852" lon="5.47346">
        <ele>446</ele>
        <time>2021-05-29T08:36:09.745Z</time>
      </trkpt>
      <trkpt lat="46.57853" lon="5.47343">
        <ele>446</ele>
        <time>2021-05-29T08:36:10.745Z</time>
      </trkpt>
      <trkpt lat="46.57855" lon="5.4734">
        <ele>446</ele>
        <time>2021-05-29T08:36:11.745Z</time>
      </trkpt>
      <trkpt lat="46.57857" lon="5.47338">
        <ele>446</ele>
        <time>2021-05-29T08:36:12.745Z</time>
      </trkpt>
      <trkpt lat="46.57858" lon="5.47335">
        <ele>446</ele>
        <time>2021-05-29T08:36:13.745Z</time>
      </trkpt>
      <trkpt lat="46.57858" lon="5.47332">
        <ele>446</ele>
        <time>2021-05-29T08:36:14.744Z</time>
      </trkpt>
      <trkpt lat="46.57859" lon="5.47329">
        <ele>445</ele>
        <time>2021-05-29T08:36:15.745Z</time>
      </trkpt>
      <trkpt lat="46.57861" lon="5.47326">
        <ele>445</ele>
        <time>2021-05-29T08:36:16.745Z</time>
      </trkpt>
      <trkpt lat="46.57861" lon="5.47323">
        <ele>445</ele>
        <time>2021-05-29T08:36:17.744Z</time>
      </trkpt>
      <trkpt lat="46.57862" lon="5.47321">
        <ele>444</ele>
        <time>2021-05-29T08:36:18.745Z</time>
      </trkpt>
      <trkpt lat="46.57862" lon="5.47318">
        <ele>444</ele>
        <time>2021-05-29T08:36:19.744Z</time>
      </trkpt>
      <trkpt lat="46.57861" lon="5.47315">
        <ele>444</ele>
        <time>2021-05-29T08:36:20.745Z</time>
      </trkpt>
      <trkpt lat="46.5786" lon="5.47311">
        <ele>443</ele>
        <time>2021-05-29T08:36:21.745Z</time>
      </trkpt>
      <trkpt lat="46.5786" lon="5.47307">
        <ele>443</ele>
        <time>2021-05-29T08:36:22.745Z</time>
      </trkpt>
      <trkpt lat="46.57859" lon="5.47303">
        <ele>442</ele>
        <time>2021-05-29T08:36:23.744Z</time>
      </trkpt>
      <trkpt lat="46.57858" lon="5.47299">
        <ele>441</ele>
        <time>2021-05-29T08:36:24.745Z</time>
      </trkpt>
      <trkpt lat="46.57857" lon="5.47294">
        <ele>441</ele>
        <time>2021-05-29T08:36:25.745Z</time>
      </trkpt>
      <trkpt lat="46.57857" lon="5.47289">
        <ele>440</ele>
        <time>2021-05-29T08:36:26.745Z</time>
      </trkpt>
      <trkpt lat="46.57857" lon="5.47285">
        <ele>439</ele>
        <time>2021-05-29T08:36:27.745Z</time>
      </trkpt>
      <trkpt lat="46.57857" lon="5.47281">
        <ele>438</ele>
        <time>2021-05-29T08:36:28.745Z</time>
      </trkpt>
      <trkpt lat="46.57857" lon="5.47279">
        <ele>438</ele>
        <time>2021-05-29T08:36:29.745Z</time>
      </trkpt>
      <trkpt lat="46.57857" lon="5.47277">
        <ele>437</ele>
        <time>2021-05-29T08:36:30.745Z</time>
      </trkpt>
      <trkpt lat="46.57857" lon="5.47274">
        <ele>437</ele>
        <time>2021-05-29T08:36:31.745Z</time>
      </trkpt>
      <trkpt lat="46.57857" lon="5.47271">
        <ele>436</ele>
        <time>2021-05-29T08:36:32.745Z</time>
      </trkpt>
      <trkpt lat="46.57857" lon="5.47268">
        <ele>436</ele>
        <time>2021-05-29T08:36:33.745Z</time>
      </trkpt>
      <trkpt lat="46.57857" lon="5.47264">
        <ele>436</ele>
        <time>2021-05-29T08:36:34.745Z</time>
      </trkpt>
      <trkpt lat="46.57858" lon="5.4726">
        <ele>435</ele>
        <time>2021-05-29T08:36:35.745Z</time>
      </trkpt>
      <trkpt lat="46.57859" lon="5.47256">
        <ele>435</ele>
        <time>2021-05-29T08:36:36.745Z</time>
      </trkpt>
      <trkpt lat="46.5786" lon="5.47252">
        <ele>435</ele>
        <time>2021-05-29T08:36:37.745Z</time>
      </trkpt>
      <trkpt lat="46.57861" lon="5.47248">
        <ele>435</ele>
        <time>2021-05-29T08:36:38.745Z</time>
      </trkpt>
      <trkpt lat="46.57861" lon="5.47244">
        <ele>435</ele>
        <time>2021-05-29T08:36:39.745Z</time>
      </trkpt>
      <trkpt lat="46.57863" lon="5.47239">
        <ele>435</ele>
        <time>2021-05-29T08:36:40.744Z</time>
      </trkpt>
      <trkpt lat="46.57863" lon="5.47235">
        <ele>434</ele>
        <time>2021-05-29T08:36:41.745Z</time>
      </trkpt>
      <trkpt lat="46.57863" lon="5.47231">
        <ele>434</ele>
        <time>2021-05-29T08:36:42.744Z</time>
      </trkpt>
      <trkpt lat="46.57863" lon="5.47227">
        <ele>434</ele>
        <time>2021-05-29T08:36:43.745Z</time>
      </trkpt>
      <trkpt lat="46.57863" lon="5.47222">
        <ele>434</ele>
        <time>2021-05-29T08:36:44.745Z</time>
      </trkpt>
      <trkpt lat="46.57862" lon="5.47218">
        <ele>434</ele>
        <time>2021-05-29T08:36:45.745Z</time>
      </trkpt>
      <trkpt lat="46.57861" lon="5.47215">
        <ele>433</ele>
        <time>2021-05-29T08:36:46.745Z</time>
      </trkpt>
      <trkpt lat="46.57861" lon="5.47212">
        <ele>433</ele>
        <time>2021-05-29T08:36:47.745Z</time>
      </trkpt>
      <trkpt lat="46.57861" lon="5.47208">
        <ele>433</ele>
        <time>2021-05-29T08:36:48.745Z</time>
      </trkpt>
      <trkpt lat="46.57861" lon="5.47205">
        <ele>432</ele>
        <time>2021-05-29T08:36:49.745Z</time>
      </trkpt>
      <trkpt lat="46.5786" lon="5.47202">
        <ele>432</ele>
        <time>2021-05-29T08:36:50.745Z</time>
      </trkpt>
      <trkpt lat="46.57859" lon="5.47199">
        <ele>432</ele>
        <time>2021-05-29T08:36:51.744Z</time>
      </trkpt>
      <trkpt lat="46.57858" lon="5.47195">
        <ele>432</ele>
        <time>2021-05-29T08:36:52.745Z</time>
      </trkpt>
      <trkpt lat="46.57856" lon="5.47192">
        <ele>432</ele>
        <time>2021-05-29T08:36:53.744Z</time>
      </trkpt>
      <trkpt lat="46.57855" lon="5.47188">
        <ele>432</ele>
        <time>2021-05-29T08:36:54.745Z</time>
      </trkpt>
      <trkpt lat="46.57853" lon="5.47185">
        <ele>432</ele>
        <time>2021-05-29T08:36:55.745Z</time>
      </trkpt>
      <trkpt lat="46.57851" lon="5.47183">
        <ele>432</ele>
        <time>2021-05-29T08:36:56.744Z</time>
      </trkpt>
      <trkpt lat="46.5785" lon="5.47181">
        <ele>431</ele>
        <time>2021-05-29T08:36:57.745Z</time>
      </trkpt>
      <trkpt lat="46.57849" lon="5.47179">
        <ele>431</ele>
        <time>2021-05-29T08:36:58.745Z</time>
      </trkpt>
      <trkpt lat="46.57849" lon="5.47179">
        <ele>431</ele>
        <time>2021-05-29T08:36:59.745Z</time>
      </trkpt>
      <trkpt lat="46.57849" lon="5.47179">
        <ele>430</ele>
        <time>2021-05-29T08:37:00.745Z</time>
      </trkpt>
      <trkpt lat="46.57849" lon="5.4718">
        <ele>430</ele>
        <time>2021-05-29T08:37:01.745Z</time>
      </trkpt>
      <trkpt lat="46.57849" lon="5.4718">
        <ele>430</ele>
        <time>2021-05-29T08:37:02.745Z</time>
      </trkpt>
      <trkpt lat="46.57849" lon="5.4718">
        <ele>430</ele>
        <time>2021-05-29T08:37:03.745Z</time>
      </trkpt>
      <trkpt lat="46.57849" lon="5.4718">
        <ele>430</ele>
        <time>2021-05-29T08:37:04.745Z</time>
      </trkpt>
      <trkpt lat="46.57849" lon="5.4718">
        <ele>430</ele>
        <time>2021-05-29T08:37:05.745Z</time>
      </trkpt>
      <trkpt lat="46.57849" lon="5.4718">
        <ele>429</ele>
        <time>2021-05-29T08:37:06.744Z</time>
      </trkpt>
      <trkpt lat="46.57852" lon="5.47161">
        <ele>425</ele>
        <time>2021-05-29T08:37:07.746Z</time>
      </trkpt>
      <trkpt lat="46.57851" lon="5.47158">
        <ele>426</ele>
        <time>2021-05-29T08:37:08.746Z</time>
      </trkpt>
      <trkpt lat="46.57851" lon="5.47156">
        <ele>427</ele>
        <time>2021-05-29T08:37:09.746Z</time>
      </trkpt>
      <trkpt lat="46.57851" lon="5.47155">
        <ele>428</ele>
        <time>2021-05-29T08:37:10.746Z</time>
      </trkpt>
      <trkpt lat="46.57851" lon="5.47153">
        <ele>428</ele>
        <time>2021-05-29T08:37:11.746Z</time>
      </trkpt>
      <trkpt lat="46.57851" lon="5.47153">
        <ele>429</ele>
        <time>2021-05-29T08:37:12.746Z</time>
      </trkpt>
      <trkpt lat="46.57851" lon="5.47152">
        <ele>430</ele>
        <time>2021-05-29T08:37:13.746Z</time>
      </trkpt>
      <trkpt lat="46.57851" lon="5.4715">
        <ele>430</ele>
        <time>2021-05-29T08:37:14.746Z</time>
      </trkpt>
      <trkpt lat="46.57851" lon="5.47149">
        <ele>431</ele>
        <time>2021-05-29T08:37:15.745Z</time>
      </trkpt>
      <trkpt lat="46.57851" lon="5.47148">
        <ele>432</ele>
        <time>2021-05-29T08:37:16.746Z</time>
      </trkpt>
      <trkpt lat="46.57851" lon="5.47145">
        <ele>432</ele>
        <time>2021-05-29T08:37:17.746Z</time>
      </trkpt>
      <trkpt lat="46.5785" lon="5.47143">
        <ele>433</ele>
        <time>2021-05-29T08:37:18.746Z</time>
      </trkpt>
      <trkpt lat="46.57849" lon="5.47141">
        <ele>433</ele>
        <time>2021-05-29T08:37:19.746Z</time>
      </trkpt>
      <trkpt lat="46.57848" lon="5.47139">
        <ele>434</ele>
        <time>2021-05-29T08:37:20.746Z</time>
      </trkpt>
      <trkpt lat="46.57847" lon="5.47137">
        <ele>434</ele>
        <time>2021-05-29T08:37:21.746Z</time>
      </trkpt>
      <trkpt lat="46.57846" lon="5.47135">
        <ele>435</ele>
        <time>2021-05-29T08:37:22.745Z</time>
      </trkpt>
      <trkpt lat="46.57845" lon="5.47133">
        <ele>435</ele>
        <time>2021-05-29T08:37:23.746Z</time>
      </trkpt>
      <trkpt lat="46.57844" lon="5.47129">
        <ele>436</ele>
        <time>2021-05-29T08:37:24.746Z</time>
      </trkpt>
      <trkpt lat="46.57843" lon="5.47125">
        <ele>436</ele>
        <time>2021-05-29T08:37:25.746Z</time>
      </trkpt>
      <trkpt lat="46.57842" lon="5.47121">
        <ele>437</ele>
        <time>2021-05-29T08:37:26.746Z</time>
      </trkpt>
      <trkpt lat="46.57841" lon="5.47118">
        <ele>437</ele>
        <time>2021-05-29T08:37:27.746Z</time>
      </trkpt>
      <trkpt lat="46.57841" lon="5.47115">
        <ele>437</ele>
        <time>2021-05-29T08:37:28.746Z</time>
      </trkpt>
      <trkpt lat="46.57841" lon="5.47112">
        <ele>437</ele>
        <time>2021-05-29T08:37:29.746Z</time>
      </trkpt>
      <trkpt lat="46.57841" lon="5.47109">
        <ele>437</ele>
        <time>2021-05-29T08:37:30.746Z</time>
      </trkpt>
      <trkpt lat="46.57842" lon="5.47106">
        <ele>437</ele>
        <time>2021-05-29T08:37:31.746Z</time>
      </trkpt>
      <trkpt lat="46.57842" lon="5.47103">
        <ele>438</ele>
        <time>2021-05-29T08:37:32.746Z</time>
      </trkpt>
      <trkpt lat="46.57842" lon="5.471">
        <ele>438</ele>
        <time>2021-05-29T08:37:33.746Z</time>
      </trkpt>
      <trkpt lat="46.57844" lon="5.47097">
        <ele>438</ele>
        <time>2021-05-29T08:37:34.746Z</time>
      </trkpt>
      <trkpt lat="46.57845" lon="5.47095">
        <ele>438</ele>
        <time>2021-05-29T08:37:35.746Z</time>
      </trkpt>
      <trkpt lat="46.57846" lon="5.47092">
        <ele>438</ele>
        <time>2021-05-29T08:37:36.746Z</time>
      </trkpt>
      <trkpt lat="46.57847" lon="5.47089">
        <ele>438</ele>
        <time>2021-05-29T08:37:37.746Z</time>
      </trkpt>
      <trkpt lat="46.57847" lon="5.47085">
        <ele>438</ele>
        <time>2021-05-29T08:37:38.746Z</time>
      </trkpt>
      <trkpt lat="46.57848" lon="5.47081">
        <ele>438</ele>
        <time>2021-05-29T08:37:39.746Z</time>
      </trkpt>
      <trkpt lat="46.57849" lon="5.47077">
        <ele>438</ele>
        <time>2021-05-29T08:37:40.746Z</time>
      </trkpt>
      <trkpt lat="46.5785" lon="5.47072">
        <ele>437</ele>
        <time>2021-05-29T08:37:41.746Z</time>
      </trkpt>
      <trkpt lat="46.57851" lon="5.47068">
        <ele>437</ele>
        <time>2021-05-29T08:37:42.746Z</time>
      </trkpt>
      <trkpt lat="46.57852" lon="5.47064">
        <ele>437</ele>
        <time>2021-05-29T08:37:43.746Z</time>
      </trkpt>
      <trkpt lat="46.57854" lon="5.47059">
        <ele>436</ele>
        <time>2021-05-29T08:37:44.746Z</time>
      </trkpt>
      <trkpt lat="46.57855" lon="5.47055">
        <ele>436</ele>
        <time>2021-05-29T08:37:45.746Z</time>
      </trkpt>
      <trkpt lat="46.57855" lon="5.47051">
        <ele>436</ele>
        <time>2021-05-29T08:37:46.746Z</time>
      </trkpt>
      <trkpt lat="46.57855" lon="5.47047">
        <ele>435</ele>
        <time>2021-05-29T08:37:47.745Z</time>
      </trkpt>
      <trkpt lat="46.57856" lon="5.47043">
        <ele>435</ele>
        <time>2021-05-29T08:37:48.746Z</time>
      </trkpt>
      <trkpt lat="46.57856" lon="5.47039">
        <ele>435</ele>
        <time>2021-05-29T08:37:49.746Z</time>
      </trkpt>
      <trkpt lat="46.57856" lon="5.47036">
        <ele>435</ele>
        <time>2021-05-29T08:37:50.746Z</time>
      </trkpt>
      <trkpt lat="46.57857" lon="5.47033">
        <ele>435</ele>
        <time>2021-05-29T08:37:51.745Z</time>
      </trkpt>
      <trkpt lat="46.57857" lon="5.47029">
        <ele>435</ele>
        <time>2021-05-29T08:37:52.746Z</time>
      </trkpt>
      <trkpt lat="46.57857" lon="5.47026">
        <ele>435</ele>
        <time>2021-05-29T08:37:53.745Z</time>
      </trkpt>
      <trkpt lat="46.57858" lon="5.47022">
        <ele>434</ele>
        <time>2021-05-29T08:37:54.746Z</time>
      </trkpt>
      <trkpt lat="46.57859" lon="5.47018">
        <ele>434</ele>
        <time>2021-05-29T08:37:55.746Z</time>
      </trkpt>
      <trkpt lat="46.5786" lon="5.47016">
        <ele>434</ele>
        <time>2021-05-29T08:37:56.746Z</time>
      </trkpt>
      <trkpt lat="46.57861" lon="5.47014">
        <ele>434</ele>
        <time>2021-05-29T08:37:57.746Z</time>
      </trkpt>
      <trkpt lat="46.57863" lon="5.47011">
        <ele>433</ele>
        <time>2021-05-29T08:37:58.745Z</time>
      </trkpt>
      <trkpt lat="46.57864" lon="5.47008">
        <ele>433</ele>
        <time>2021-05-29T08:37:59.745Z</time>
      </trkpt>
      <trkpt lat="46.57866" lon="5.47004">
        <ele>433</ele>
        <time>2021-05-29T08:38:00.745Z</time>
      </trkpt>
      <trkpt lat="46.57867" lon="5.46998">
        <ele>433</ele>
        <time>2021-05-29T08:38:01.746Z</time>
      </trkpt>
      <trkpt lat="46.57868" lon="5.46996">
        <ele>432</ele>
        <time>2021-05-29T08:38:02.746Z</time>
      </trkpt>
      <trkpt lat="46.57869" lon="5.46993">
        <ele>432</ele>
        <time>2021-05-29T08:38:03.746Z</time>
      </trkpt>
      <trkpt lat="46.57869" lon="5.46989">
        <ele>432</ele>
        <time>2021-05-29T08:38:04.746Z</time>
      </trkpt>
      <trkpt lat="46.5787" lon="5.46986">
        <ele>432</ele>
        <time>2021-05-29T08:38:05.746Z</time>
      </trkpt>
      <trkpt lat="46.57871" lon="5.46982">
        <ele>431</ele>
        <time>2021-05-29T08:38:06.745Z</time>
      </trkpt>
      <trkpt lat="46.57872" lon="5.46979">
        <ele>431</ele>
        <time>2021-05-29T08:38:07.746Z</time>
      </trkpt>
      <trkpt lat="46.57873" lon="5.46974">
        <ele>430</ele>
        <time>2021-05-29T08:38:08.746Z</time>
      </trkpt>
      <trkpt lat="46.57875" lon="5.46971">
        <ele>430</ele>
        <time>2021-05-29T08:38:09.746Z</time>
      </trkpt>
      <trkpt lat="46.57877" lon="5.46968">
        <ele>429</ele>
        <time>2021-05-29T08:38:10.745Z</time>
      </trkpt>
      <trkpt lat="46.57878" lon="5.46964">
        <ele>429</ele>
        <time>2021-05-29T08:38:11.746Z</time>
      </trkpt>
      <trkpt lat="46.5788" lon="5.4696">
        <ele>429</ele>
        <time>2021-05-29T08:38:12.745Z</time>
      </trkpt>
      <trkpt lat="46.57882" lon="5.46957">
        <ele>428</ele>
        <time>2021-05-29T08:38:13.745Z</time>
      </trkpt>
      <trkpt lat="46.57884" lon="5.46954">
        <ele>428</ele>
        <time>2021-05-29T08:38:14.745Z</time>
      </trkpt>
      <trkpt lat="46.57886" lon="5.46951">
        <ele>427</ele>
        <time>2021-05-29T08:38:15.746Z</time>
      </trkpt>
      <trkpt lat="46.57887" lon="5.46949">
        <ele>427</ele>
        <time>2021-05-29T08:38:16.745Z</time>
      </trkpt>
      <trkpt lat="46.57888" lon="5.46946">
        <ele>426</ele>
        <time>2021-05-29T08:38:17.745Z</time>
      </trkpt>
      <trkpt lat="46.57889" lon="5.46943">
        <ele>426</ele>
        <time>2021-05-29T08:38:18.746Z</time>
      </trkpt>
      <trkpt lat="46.5789" lon="5.46941">
        <ele>426</ele>
        <time>2021-05-29T08:38:19.745Z</time>
      </trkpt>
      <trkpt lat="46.57892" lon="5.46938">
        <ele>425</ele>
        <time>2021-05-29T08:38:20.746Z</time>
      </trkpt>
      <trkpt lat="46.57894" lon="5.46935">
        <ele>425</ele>
        <time>2021-05-29T08:38:21.745Z</time>
      </trkpt>
      <trkpt lat="46.57896" lon="5.46933">
        <ele>425</ele>
        <time>2021-05-29T08:38:22.745Z</time>
      </trkpt>
      <trkpt lat="46.57898" lon="5.46932">
        <ele>425</ele>
        <time>2021-05-29T08:38:23.746Z</time>
      </trkpt>
      <trkpt lat="46.579" lon="5.4693">
        <ele>425</ele>
        <time>2021-05-29T08:38:24.746Z</time>
      </trkpt>
      <trkpt lat="46.57901" lon="5.46929">
        <ele>424</ele>
        <time>2021-05-29T08:38:25.745Z</time>
      </trkpt>
      <trkpt lat="46.57903" lon="5.46928">
        <ele>424</ele>
        <time>2021-05-29T08:38:26.746Z</time>
      </trkpt>
      <trkpt lat="46.57904" lon="5.46927">
        <ele>424</ele>
        <time>2021-05-29T08:38:27.745Z</time>
      </trkpt>
      <trkpt lat="46.57906" lon="5.46926">
        <ele>424</ele>
        <time>2021-05-29T08:38:28.746Z</time>
      </trkpt>
      <trkpt lat="46.57908" lon="5.46924">
        <ele>424</ele>
        <time>2021-05-29T08:38:29.746Z</time>
      </trkpt>
      <trkpt lat="46.5791" lon="5.46923">
        <ele>424</ele>
        <time>2021-05-29T08:38:30.745Z</time>
      </trkpt>
      <trkpt lat="46.57912" lon="5.46921">
        <ele>424</ele>
        <time>2021-05-29T08:38:31.746Z</time>
      </trkpt>
      <trkpt lat="46.57914" lon="5.4692">
        <ele>424</ele>
        <time>2021-05-29T08:38:32.746Z</time>
      </trkpt>
      <trkpt lat="46.57916" lon="5.46918">
        <ele>424</ele>
        <time>2021-05-29T08:38:33.746Z</time>
      </trkpt>
      <trkpt lat="46.57918" lon="5.46917">
        <ele>423</ele>
        <time>2021-05-29T08:38:34.746Z</time>
      </trkpt>
      <trkpt lat="46.57921" lon="5.46917">
        <ele>423</ele>
        <time>2021-05-29T08:38:35.746Z</time>
      </trkpt>
      <trkpt lat="46.57923" lon="5.46916">
        <ele>422</ele>
        <time>2021-05-29T08:38:36.746Z</time>
      </trkpt>
      <trkpt lat="46.57926" lon="5.46914">
        <ele>421</ele>
        <time>2021-05-29T08:38:37.746Z</time>
      </trkpt>
      <trkpt lat="46.57929" lon="5.46914">
        <ele>421</ele>
        <time>2021-05-29T08:38:38.745Z</time>
      </trkpt>
      <trkpt lat="46.57933" lon="5.46913">
        <ele>420</ele>
        <time>2021-05-29T08:38:39.745Z</time>
      </trkpt>
      <trkpt lat="46.57936" lon="5.46913">
        <ele>419</ele>
        <time>2021-05-29T08:38:40.746Z</time>
      </trkpt>
      <trkpt lat="46.5794" lon="5.46912">
        <ele>419</ele>
        <time>2021-05-29T08:38:41.745Z</time>
      </trkpt>
      <trkpt lat="46.57943" lon="5.4691">
        <ele>418</ele>
        <time>2021-05-29T08:38:42.746Z</time>
      </trkpt>
      <trkpt lat="46.57946" lon="5.46909">
        <ele>417</ele>
        <time>2021-05-29T08:38:43.746Z</time>
      </trkpt>
      <trkpt lat="46.57948" lon="5.46907">
        <ele>417</ele>
        <time>2021-05-29T08:38:44.746Z</time>
      </trkpt>
      <trkpt lat="46.57951" lon="5.46906">
        <ele>416</ele>
        <time>2021-05-29T08:38:45.746Z</time>
      </trkpt>
      <trkpt lat="46.57953" lon="5.46905">
        <ele>415</ele>
        <time>2021-05-29T08:38:46.746Z</time>
      </trkpt>
      <trkpt lat="46.57956" lon="5.46903">
        <ele>414</ele>
        <time>2021-05-29T08:38:47.746Z</time>
      </trkpt>
      <trkpt lat="46.57958" lon="5.46902">
        <ele>413</ele>
        <time>2021-05-29T08:38:48.745Z</time>
      </trkpt>
      <trkpt lat="46.5796" lon="5.469">
        <ele>412</ele>
        <time>2021-05-29T08:38:49.746Z</time>
      </trkpt>
      <trkpt lat="46.57963" lon="5.46898">
        <ele>412</ele>
        <time>2021-05-29T08:38:50.746Z</time>
      </trkpt>
      <trkpt lat="46.57965" lon="5.46896">
        <ele>411</ele>
        <time>2021-05-29T08:38:51.746Z</time>
      </trkpt>
      <trkpt lat="46.57967" lon="5.46894">
        <ele>410</ele>
        <time>2021-05-29T08:38:52.746Z</time>
      </trkpt>
      <trkpt lat="46.57968" lon="5.46892">
        <ele>410</ele>
        <time>2021-05-29T08:38:53.746Z</time>
      </trkpt>
      <trkpt lat="46.57969" lon="5.4689">
        <ele>409</ele>
        <time>2021-05-29T08:38:54.746Z</time>
      </trkpt>
      <trkpt lat="46.5797" lon="5.46887">
        <ele>409</ele>
        <time>2021-05-29T08:38:55.745Z</time>
      </trkpt>
      <trkpt lat="46.57971" lon="5.46883">
        <ele>409</ele>
        <time>2021-05-29T08:38:56.746Z</time>
      </trkpt>
      <trkpt lat="46.57971" lon="5.4688">
        <ele>408</ele>
        <time>2021-05-29T08:38:57.746Z</time>
      </trkpt>
      <trkpt lat="46.57972" lon="5.46877">
        <ele>408</ele>
        <time>2021-05-29T08:38:58.745Z</time>
      </trkpt>
      <trkpt lat="46.57972" lon="5.46874">
        <ele>407</ele>
        <time>2021-05-29T08:38:59.746Z</time>
      </trkpt>
      <trkpt lat="46.57972" lon="5.4687">
        <ele>407</ele>
        <time>2021-05-29T08:39:00.746Z</time>
      </trkpt>
      <trkpt lat="46.57972" lon="5.46868">
        <ele>407</ele>
        <time>2021-05-29T08:39:01.746Z</time>
      </trkpt>
      <trkpt lat="46.57972" lon="5.46864">
        <ele>406</ele>
        <time>2021-05-29T08:39:02.745Z</time>
      </trkpt>
      <trkpt lat="46.57972" lon="5.4686">
        <ele>406</ele>
        <time>2021-05-29T08:39:03.746Z</time>
      </trkpt>
      <trkpt lat="46.57972" lon="5.46856">
        <ele>406</ele>
        <time>2021-05-29T08:39:04.746Z</time>
      </trkpt>
      <trkpt lat="46.57971" lon="5.46851">
        <ele>405</ele>
        <time>2021-05-29T08:39:05.746Z</time>
      </trkpt>
      <trkpt lat="46.57971" lon="5.46848">
        <ele>405</ele>
        <time>2021-05-29T08:39:06.746Z</time>
      </trkpt>
      <trkpt lat="46.57969" lon="5.46845">
        <ele>405</ele>
        <time>2021-05-29T08:39:07.746Z</time>
      </trkpt>
      <trkpt lat="46.57969" lon="5.46841">
        <ele>404</ele>
        <time>2021-05-29T08:39:08.745Z</time>
      </trkpt>
      <trkpt lat="46.57967" lon="5.46837">
        <ele>404</ele>
        <time>2021-05-29T08:39:09.746Z</time>
      </trkpt>
      <trkpt lat="46.57966" lon="5.46834">
        <ele>404</ele>
        <time>2021-05-29T08:39:10.746Z</time>
      </trkpt>
      <trkpt lat="46.57965" lon="5.46831">
        <ele>404</ele>
        <time>2021-05-29T08:39:11.745Z</time>
      </trkpt>
      <trkpt lat="46.57963" lon="5.46829">
        <ele>403</ele>
        <time>2021-05-29T08:39:12.746Z</time>
      </trkpt>
      <trkpt lat="46.57963" lon="5.46826">
        <ele>403</ele>
        <time>2021-05-29T08:39:13.746Z</time>
      </trkpt>
      <trkpt lat="46.57961" lon="5.46823">
        <ele>403</ele>
        <time>2021-05-29T08:39:14.746Z</time>
      </trkpt>
      <trkpt lat="46.5796" lon="5.4682">
        <ele>403</ele>
        <time>2021-05-29T08:39:15.745Z</time>
      </trkpt>
      <trkpt lat="46.57959" lon="5.46817">
        <ele>403</ele>
        <time>2021-05-29T08:39:16.746Z</time>
      </trkpt>
      <trkpt lat="46.57958" lon="5.46814">
        <ele>402</ele>
        <time>2021-05-29T08:39:17.746Z</time>
      </trkpt>
      <trkpt lat="46.57956" lon="5.46811">
        <ele>402</ele>
        <time>2021-05-29T08:39:18.746Z</time>
      </trkpt>
      <trkpt lat="46.57955" lon="5.46808">
        <ele>402</ele>
        <time>2021-05-29T08:39:19.746Z</time>
      </trkpt>
      <trkpt lat="46.57954" lon="5.46805">
        <ele>401</ele>
        <time>2021-05-29T08:39:20.746Z</time>
      </trkpt>
      <trkpt lat="46.57953" lon="5.46801">
        <ele>401</ele>
        <time>2021-05-29T08:39:21.745Z</time>
      </trkpt>
      <trkpt lat="46.57952" lon="5.46797">
        <ele>401</ele>
        <time>2021-05-29T08:39:22.745Z</time>
      </trkpt>
      <trkpt lat="46.57951" lon="5.46794">
        <ele>401</ele>
        <time>2021-05-29T08:39:23.746Z</time>
      </trkpt>
      <trkpt lat="46.5795" lon="5.46791">
        <ele>400</ele>
        <time>2021-05-29T08:39:24.746Z</time>
      </trkpt>
      <trkpt lat="46.57948" lon="5.46788">
        <ele>400</ele>
        <time>2021-05-29T08:39:25.746Z</time>
      </trkpt>
      <trkpt lat="46.57947" lon="5.46785">
        <ele>400</ele>
        <time>2021-05-29T08:39:26.746Z</time>
      </trkpt>
      <trkpt lat="46.57945" lon="5.46782">
        <ele>400</ele>
        <time>2021-05-29T08:39:27.746Z</time>
      </trkpt>
      <trkpt lat="46.57943" lon="5.46779">
        <ele>400</ele>
        <time>2021-05-29T08:39:28.745Z</time>
      </trkpt>
      <trkpt lat="46.57942" lon="5.46776">
        <ele>399</ele>
        <time>2021-05-29T08:39:29.745Z</time>
      </trkpt>
      <trkpt lat="46.5794" lon="5.46772">
        <ele>399</ele>
        <time>2021-05-29T08:39:30.746Z</time>
      </trkpt>
      <trkpt lat="46.57938" lon="5.46769">
        <ele>399</ele>
        <time>2021-05-29T08:39:31.745Z</time>
      </trkpt>
      <trkpt lat="46.57936" lon="5.46764">
        <ele>399</ele>
        <time>2021-05-29T08:39:32.745Z</time>
      </trkpt>
      <trkpt lat="46.57935" lon="5.4676">
        <ele>399</ele>
        <time>2021-05-29T08:39:33.745Z</time>
      </trkpt>
      <trkpt lat="46.57933" lon="5.46757">
        <ele>399</ele>
        <time>2021-05-29T08:39:34.746Z</time>
      </trkpt>
      <trkpt lat="46.57931" lon="5.46753">
        <ele>399</ele>
        <time>2021-05-29T08:39:35.746Z</time>
      </trkpt>
      <trkpt lat="46.57931" lon="5.46749">
        <ele>399</ele>
        <time>2021-05-29T08:39:36.746Z</time>
      </trkpt>
      <trkpt lat="46.5793" lon="5.46745">
        <ele>399</ele>
        <time>2021-05-29T08:39:37.746Z</time>
      </trkpt>
      <trkpt lat="46.57929" lon="5.4674">
        <ele>398</ele>
        <time>2021-05-29T08:39:38.746Z</time>
      </trkpt>
      <trkpt lat="46.57929" lon="5.46736">
        <ele>398</ele>
        <time>2021-05-29T08:39:39.746Z</time>
      </trkpt>
      <trkpt lat="46.5793" lon="5.46732">
        <ele>398</ele>
        <time>2021-05-29T08:39:40.746Z</time>
      </trkpt>
      <trkpt lat="46.57932" lon="5.4673">
        <ele>398</ele>
        <time>2021-05-29T08:39:41.746Z</time>
      </trkpt>
      <trkpt lat="46.57934" lon="5.46729">
        <ele>398</ele>
        <time>2021-05-29T08:39:42.746Z</time>
      </trkpt>
      <trkpt lat="46.57937" lon="5.46729">
        <ele>398</ele>
        <time>2021-05-29T08:39:43.745Z</time>
      </trkpt>
      <trkpt lat="46.57939" lon="5.46731">
        <ele>398</ele>
        <time>2021-05-29T08:39:44.746Z</time>
      </trkpt>
      <trkpt lat="46.57941" lon="5.46734">
        <ele>398</ele>
        <time>2021-05-29T08:39:45.746Z</time>
      </trkpt>
      <trkpt lat="46.57944" lon="5.46737">
        <ele>398</ele>
        <time>2021-05-29T08:39:46.746Z</time>
      </trkpt>
      <trkpt lat="46.57946" lon="5.46739">
        <ele>398</ele>
        <time>2021-05-29T08:39:47.746Z</time>
      </trkpt>
      <trkpt lat="46.57948" lon="5.46741">
        <ele>398</ele>
        <time>2021-05-29T08:39:48.746Z</time>
      </trkpt>
      <trkpt lat="46.57949" lon="5.46744">
        <ele>397</ele>
        <time>2021-05-29T08:39:49.746Z</time>
      </trkpt>
      <trkpt lat="46.57952" lon="5.46746">
        <ele>397</ele>
        <time>2021-05-29T08:39:50.746Z</time>
      </trkpt>
      <trkpt lat="46.57954" lon="5.4675">
        <ele>397</ele>
        <time>2021-05-29T08:39:51.746Z</time>
      </trkpt>
      <trkpt lat="46.57955" lon="5.46753">
        <ele>396</ele>
        <time>2021-05-29T08:39:52.746Z</time>
      </trkpt>
      <trkpt lat="46.57956" lon="5.46756">
        <ele>396</ele>
        <time>2021-05-29T08:39:53.746Z</time>
      </trkpt>
      <trkpt lat="46.57958" lon="5.46759">
        <ele>396</ele>
        <time>2021-05-29T08:39:54.746Z</time>
      </trkpt>
      <trkpt lat="46.57959" lon="5.46763">
        <ele>395</ele>
        <time>2021-05-29T08:39:55.745Z</time>
      </trkpt>
      <trkpt lat="46.57962" lon="5.46765">
        <ele>395</ele>
        <time>2021-05-29T08:39:56.746Z</time>
      </trkpt>
      <trkpt lat="46.57963" lon="5.46767">
        <ele>395</ele>
        <time>2021-05-29T08:39:57.746Z</time>
      </trkpt>
      <trkpt lat="46.57964" lon="5.4677">
        <ele>394</ele>
        <time>2021-05-29T08:39:58.746Z</time>
      </trkpt>
      <trkpt lat="46.57966" lon="5.46772">
        <ele>394</ele>
        <time>2021-05-29T08:39:59.746Z</time>
      </trkpt>
      <trkpt lat="46.57967" lon="5.46775">
        <ele>394</ele>
        <time>2021-05-29T08:40:00.746Z</time>
      </trkpt>
      <trkpt lat="46.57969" lon="5.46778">
        <ele>393</ele>
        <time>2021-05-29T08:40:01.746Z</time>
      </trkpt>
      <trkpt lat="46.57972" lon="5.4678">
        <ele>393</ele>
        <time>2021-05-29T08:40:02.745Z</time>
      </trkpt>
      <trkpt lat="46.57974" lon="5.46783">
        <ele>393</ele>
        <time>2021-05-29T08:40:03.746Z</time>
      </trkpt>
      <trkpt lat="46.57976" lon="5.46785">
        <ele>392</ele>
        <time>2021-05-29T08:40:04.746Z</time>
      </trkpt>
      <trkpt lat="46.57977" lon="5.46788">
        <ele>392</ele>
        <time>2021-05-29T08:40:05.745Z</time>
      </trkpt>
      <trkpt lat="46.57979" lon="5.46791">
        <ele>391</ele>
        <time>2021-05-29T08:40:06.745Z</time>
      </trkpt>
      <trkpt lat="46.57981" lon="5.46794">
        <ele>391</ele>
        <time>2021-05-29T08:40:07.746Z</time>
      </trkpt>
      <trkpt lat="46.57982" lon="5.46796">
        <ele>391</ele>
        <time>2021-05-29T08:40:08.746Z</time>
      </trkpt>
      <trkpt lat="46.57983" lon="5.46799">
        <ele>390</ele>
        <time>2021-05-29T08:40:09.746Z</time>
      </trkpt>
      <trkpt lat="46.57985" lon="5.46802">
        <ele>390</ele>
        <time>2021-05-29T08:40:10.746Z</time>
      </trkpt>
      <trkpt lat="46.57986" lon="5.46805">
        <ele>390</ele>
        <time>2021-05-29T08:40:11.746Z</time>
      </trkpt>
      <trkpt lat="46.57988" lon="5.46809">
        <ele>390</ele>
        <time>2021-05-29T08:40:12.746Z</time>
      </trkpt>
      <trkpt lat="46.57989" lon="5.46812">
        <ele>390</ele>
        <time>2021-05-29T08:40:13.745Z</time>
      </trkpt>
      <trkpt lat="46.5799" lon="5.46816">
        <ele>389</ele>
        <time>2021-05-29T08:40:14.746Z</time>
      </trkpt>
      <trkpt lat="46.57991" lon="5.46819">
        <ele>389</ele>
        <time>2021-05-29T08:40:15.746Z</time>
      </trkpt>
      <trkpt lat="46.57992" lon="5.46822">
        <ele>389</ele>
        <time>2021-05-29T08:40:16.746Z</time>
      </trkpt>
      <trkpt lat="46.57992" lon="5.46826">
        <ele>388</ele>
        <time>2021-05-29T08:40:17.745Z</time>
      </trkpt>
      <trkpt lat="46.57993" lon="5.46829">
        <ele>388</ele>
        <time>2021-05-29T08:40:18.745Z</time>
      </trkpt>
      <trkpt lat="46.57995" lon="5.46832">
        <ele>387</ele>
        <time>2021-05-29T08:40:19.746Z</time>
      </trkpt>
      <trkpt lat="46.57995" lon="5.46836">
        <ele>387</ele>
        <time>2021-05-29T08:40:20.746Z</time>
      </trkpt>
      <trkpt lat="46.57996" lon="5.4684">
        <ele>386</ele>
        <time>2021-05-29T08:40:21.746Z</time>
      </trkpt>
      <trkpt lat="46.57996" lon="5.46843">
        <ele>386</ele>
        <time>2021-05-29T08:40:22.746Z</time>
      </trkpt>
      <trkpt lat="46.57997" lon="5.46846">
        <ele>386</ele>
        <time>2021-05-29T08:40:23.745Z</time>
      </trkpt>
      <trkpt lat="46.57998" lon="5.4685">
        <ele>386</ele>
        <time>2021-05-29T08:40:24.746Z</time>
      </trkpt>
      <trkpt lat="46.57999" lon="5.46853">
        <ele>385</ele>
        <time>2021-05-29T08:40:25.746Z</time>
      </trkpt>
      <trkpt lat="46.58" lon="5.46857">
        <ele>385</ele>
        <time>2021-05-29T08:40:26.745Z</time>
      </trkpt>
      <trkpt lat="46.58001" lon="5.4686">
        <ele>384</ele>
        <time>2021-05-29T08:40:27.746Z</time>
      </trkpt>
      <trkpt lat="46.58002" lon="5.46863">
        <ele>383</ele>
        <time>2021-05-29T08:40:28.746Z</time>
      </trkpt>
      <trkpt lat="46.58002" lon="5.46866">
        <ele>383</ele>
        <time>2021-05-29T08:40:29.745Z</time>
      </trkpt>
      <trkpt lat="46.58002" lon="5.4687">
        <ele>382</ele>
        <time>2021-05-29T08:40:30.746Z</time>
      </trkpt>
      <trkpt lat="46.58002" lon="5.46873">
        <ele>382</ele>
        <time>2021-05-29T08:40:31.746Z</time>
      </trkpt>
      <trkpt lat="46.58003" lon="5.46876">
        <ele>382</ele>
        <time>2021-05-29T08:40:32.746Z</time>
      </trkpt>
      <trkpt lat="46.58003" lon="5.46879">
        <ele>381</ele>
        <time>2021-05-29T08:40:33.745Z</time>
      </trkpt>
      <trkpt lat="46.58005" lon="5.46884">
        <ele>381</ele>
        <time>2021-05-29T08:40:34.746Z</time>
      </trkpt>
      <trkpt lat="46.58005" lon="5.46889">
        <ele>380</ele>
        <time>2021-05-29T08:40:35.746Z</time>
      </trkpt>
      <trkpt lat="46.58004" lon="5.46894">
        <ele>380</ele>
        <time>2021-05-29T08:40:36.746Z</time>
      </trkpt>
      <trkpt lat="46.58004" lon="5.46898">
        <ele>380</ele>
        <time>2021-05-29T08:40:37.745Z</time>
      </trkpt>
      <trkpt lat="46.58004" lon="5.46902">
        <ele>380</ele>
        <time>2021-05-29T08:40:38.746Z</time>
      </trkpt>
      <trkpt lat="46.58004" lon="5.46905">
        <ele>380</ele>
        <time>2021-05-29T08:40:39.746Z</time>
      </trkpt>
      <trkpt lat="46.58004" lon="5.46908">
        <ele>380</ele>
        <time>2021-05-29T08:40:40.746Z</time>
      </trkpt>
      <trkpt lat="46.58003" lon="5.46911">
        <ele>380</ele>
        <time>2021-05-29T08:40:41.745Z</time>
      </trkpt>
      <trkpt lat="46.58002" lon="5.46914">
        <ele>380</ele>
        <time>2021-05-29T08:40:42.746Z</time>
      </trkpt>
      <trkpt lat="46.58001" lon="5.46917">
        <ele>381</ele>
        <time>2021-05-29T08:40:43.746Z</time>
      </trkpt>
      <trkpt lat="46.58" lon="5.4692">
        <ele>380</ele>
        <time>2021-05-29T08:40:44.746Z</time>
      </trkpt>
      <trkpt lat="46.57998" lon="5.46923">
        <ele>380</ele>
        <time>2021-05-29T08:40:45.746Z</time>
      </trkpt>
      <trkpt lat="46.57996" lon="5.46925">
        <ele>380</ele>
        <time>2021-05-29T08:40:46.746Z</time>
      </trkpt>
      <trkpt lat="46.57994" lon="5.46927">
        <ele>380</ele>
        <time>2021-05-29T08:40:47.746Z</time>
      </trkpt>
      <trkpt lat="46.57992" lon="5.46928">
        <ele>380</ele>
        <time>2021-05-29T08:40:48.746Z</time>
      </trkpt>
      <trkpt lat="46.57989" lon="5.4693">
        <ele>380</ele>
        <time>2021-05-29T08:40:49.746Z</time>
      </trkpt>
      <trkpt lat="46.57987" lon="5.46931">
        <ele>379</ele>
        <time>2021-05-29T08:40:50.746Z</time>
      </trkpt>
      <trkpt lat="46.57985" lon="5.46932">
        <ele>379</ele>
        <time>2021-05-29T08:40:51.746Z</time>
      </trkpt>
      <trkpt lat="46.57983" lon="5.46933">
        <ele>379</ele>
        <time>2021-05-29T08:40:52.746Z</time>
      </trkpt>
      <trkpt lat="46.5798" lon="5.46934">
        <ele>379</ele>
        <time>2021-05-29T08:40:53.746Z</time>
      </trkpt>
      <trkpt lat="46.57977" lon="5.46935">
        <ele>379</ele>
        <time>2021-05-29T08:40:54.745Z</time>
      </trkpt>
      <trkpt lat="46.57975" lon="5.46937">
        <ele>379</ele>
        <time>2021-05-29T08:40:55.746Z</time>
      </trkpt>
      <trkpt lat="46.57972" lon="5.46938">
        <ele>379</ele>
        <time>2021-05-29T08:40:56.746Z</time>
      </trkpt>
      <trkpt lat="46.57971" lon="5.4694">
        <ele>379</ele>
        <time>2021-05-29T08:40:57.745Z</time>
      </trkpt>
      <trkpt lat="46.57969" lon="5.46942">
        <ele>379</ele>
        <time>2021-05-29T08:40:58.745Z</time>
      </trkpt>
      <trkpt lat="46.57967" lon="5.46944">
        <ele>380</ele>
        <time>2021-05-29T08:40:59.745Z</time>
      </trkpt>
      <trkpt lat="46.57965" lon="5.46947">
        <ele>380</ele>
        <time>2021-05-29T08:41:00.745Z</time>
      </trkpt>
      <trkpt lat="46.57962" lon="5.4695">
        <ele>380</ele>
        <time>2021-05-29T08:41:01.746Z</time>
      </trkpt>
      <trkpt lat="46.57961" lon="5.46953">
        <ele>381</ele>
        <time>2021-05-29T08:41:02.746Z</time>
      </trkpt>
      <trkpt lat="46.57961" lon="5.46957">
        <ele>381</ele>
        <time>2021-05-29T08:41:03.745Z</time>
      </trkpt>
      <trkpt lat="46.5796" lon="5.4696">
        <ele>381</ele>
        <time>2021-05-29T08:41:04.746Z</time>
      </trkpt>
      <trkpt lat="46.57958" lon="5.46963">
        <ele>381</ele>
        <time>2021-05-29T08:41:05.745Z</time>
      </trkpt>
      <trkpt lat="46.57957" lon="5.46967">
        <ele>381</ele>
        <time>2021-05-29T08:41:06.745Z</time>
      </trkpt>
      <trkpt lat="46.57957" lon="5.4697">
        <ele>380</ele>
        <time>2021-05-29T08:41:07.746Z</time>
      </trkpt>
      <trkpt lat="46.57957" lon="5.46973">
        <ele>380</ele>
        <time>2021-05-29T08:41:08.746Z</time>
      </trkpt>
      <trkpt lat="46.57958" lon="5.46976">
        <ele>379</ele>
        <time>2021-05-29T08:41:09.745Z</time>
      </trkpt>
      <trkpt lat="46.57959" lon="5.46979">
        <ele>379</ele>
        <time>2021-05-29T08:41:10.745Z</time>
      </trkpt>
      <trkpt lat="46.57961" lon="5.46982">
        <ele>378</ele>
        <time>2021-05-29T08:41:11.745Z</time>
      </trkpt>
      <trkpt lat="46.57962" lon="5.46984">
        <ele>378</ele>
        <time>2021-05-29T08:41:12.746Z</time>
      </trkpt>
      <trkpt lat="46.57963" lon="5.46987">
        <ele>377</ele>
        <time>2021-05-29T08:41:13.745Z</time>
      </trkpt>
      <trkpt lat="46.57963" lon="5.46989">
        <ele>377</ele>
        <time>2021-05-29T08:41:14.745Z</time>
      </trkpt>
      <trkpt lat="46.57963" lon="5.4701">
        <ele>373</ele>
        <time>2021-05-29T08:41:15.746Z</time>
      </trkpt>
      <trkpt lat="46.57961" lon="5.47012">
        <ele>372</ele>
        <time>2021-05-29T08:41:16.746Z</time>
      </trkpt>
      <trkpt lat="46.5796" lon="5.47013">
        <ele>371</ele>
        <time>2021-05-29T08:41:17.745Z</time>
      </trkpt>
      <trkpt lat="46.57959" lon="5.47014">
        <ele>371</ele>
        <time>2021-05-29T08:41:18.746Z</time>
      </trkpt>
      <trkpt lat="46.57958" lon="5.47016">
        <ele>371</ele>
        <time>2021-05-29T08:41:19.746Z</time>
      </trkpt>
      <trkpt lat="46.57958" lon="5.47018">
        <ele>372</ele>
        <time>2021-05-29T08:41:20.746Z</time>
      </trkpt>
      <trkpt lat="46.57957" lon="5.47018">
        <ele>373</ele>
        <time>2021-05-29T08:41:21.745Z</time>
      </trkpt>
      <trkpt lat="46.57956" lon="5.47019">
        <ele>373</ele>
        <time>2021-05-29T08:41:22.746Z</time>
      </trkpt>
      <trkpt lat="46.57954" lon="5.47019">
        <ele>372</ele>
        <time>2021-05-29T08:41:23.745Z</time>
      </trkpt>
      <trkpt lat="46.57954" lon="5.47019">
        <ele>372</ele>
        <time>2021-05-29T08:41:24.745Z</time>
      </trkpt>
      <trkpt lat="46.57953" lon="5.4702">
        <ele>372</ele>
        <time>2021-05-29T08:41:25.745Z</time>
      </trkpt>
      <trkpt lat="46.57954" lon="5.47021">
        <ele>371</ele>
        <time>2021-05-29T08:41:26.746Z</time>
      </trkpt>
      <trkpt lat="46.57954" lon="5.47022">
        <ele>371</ele>
        <time>2021-05-29T08:41:27.746Z</time>
      </trkpt>
      <trkpt lat="46.57954" lon="5.47022">
        <ele>371</ele>
        <time>2021-05-29T08:41:28.746Z</time>
      </trkpt>
      <trkpt lat="46.57954" lon="5.47023">
        <ele>371</ele>
        <time>2021-05-29T08:41:29.746Z</time>
      </trkpt>
      <trkpt lat="46.57954" lon="5.47023">
        <ele>371</ele>
        <time>2021-05-29T08:41:30.746Z</time>
      </trkpt>
      <trkpt lat="46.57953" lon="5.47023">
        <ele>371</ele>
        <time>2021-05-29T08:41:31.746Z</time>
      </trkpt>
      <trkpt lat="46.57953" lon="5.47023">
        <ele>371</ele>
        <time>2021-05-29T08:41:32.746Z</time>
      </trkpt>
      <trkpt lat="46.57953" lon="5.47023">
        <ele>371</ele>
        <time>2021-05-29T08:41:33.745Z</time>
      </trkpt>
      <trkpt lat="46.57952" lon="5.47024">
        <ele>371</ele>
        <time>2021-05-29T08:41:34.745Z</time>
      </trkpt>
      <trkpt lat="46.57952" lon="5.47024">
        <ele>371</ele>
        <time>2021-05-29T08:41:35.745Z</time>
      </trkpt>
      <trkpt lat="46.57952" lon="5.47024">
        <ele>371</ele>
        <time>2021-05-29T08:41:36.746Z</time>
      </trkpt>
      <trkpt lat="46.57952" lon="5.47026">
        <ele>371</ele>
        <time>2021-05-29T08:41:37.746Z</time>
      </trkpt>
      <trkpt lat="46.57951" lon="5.47027">
        <ele>371</ele>
        <time>2021-05-29T08:41:38.746Z</time>
      </trkpt>
      <trkpt lat="46.57951" lon="5.47027">
        <ele>371</ele>
        <time>2021-05-29T08:41:39.745Z</time>
      </trkpt>
      <trkpt lat="46.5795" lon="5.47028">
        <ele>372</ele>
        <time>2021-05-29T08:41:40.745Z</time>
      </trkpt>
      <trkpt lat="46.5795" lon="5.47028">
        <ele>372</ele>
        <time>2021-05-29T08:41:41.746Z</time>
      </trkpt>
      <trkpt lat="46.5795" lon="5.47029">
        <ele>372</ele>
        <time>2021-05-29T08:41:42.746Z</time>
      </trkpt>
      <trkpt lat="46.57949" lon="5.4703">
        <ele>373</ele>
        <time>2021-05-29T08:41:43.746Z</time>
      </trkpt>
      <trkpt lat="46.57949" lon="5.47031">
        <ele>373</ele>
        <time>2021-05-29T08:41:44.745Z</time>
      </trkpt>
      <trkpt lat="46.57949" lon="5.47032">
        <ele>374</ele>
        <time>2021-05-29T08:41:45.745Z</time>
      </trkpt>
      <trkpt lat="46.57949" lon="5.47034">
        <ele>374</ele>
        <time>2021-05-29T08:41:46.746Z</time>
      </trkpt>
      <trkpt lat="46.57948" lon="5.47035">
        <ele>375</ele>
        <time>2021-05-29T08:41:47.746Z</time>
      </trkpt>
      <trkpt lat="46.57948" lon="5.47037">
        <ele>375</ele>
        <time>2021-05-29T08:41:48.746Z</time>
      </trkpt>
      <trkpt lat="46.57948" lon="5.47039">
        <ele>375</ele>
        <time>2021-05-29T08:41:49.746Z</time>
      </trkpt>
      <trkpt lat="46.57948" lon="5.4704">
        <ele>375</ele>
        <time>2021-05-29T08:41:50.745Z</time>
      </trkpt>
      <trkpt lat="46.5795" lon="5.47041">
        <ele>375</ele>
        <time>2021-05-29T08:41:51.746Z</time>
      </trkpt>
      <trkpt lat="46.5795" lon="5.47042">
        <ele>376</ele>
        <time>2021-05-29T08:41:52.745Z</time>
      </trkpt>
      <trkpt lat="46.57949" lon="5.47044">
        <ele>376</ele>
        <time>2021-05-29T08:41:53.745Z</time>
      </trkpt>
      <trkpt lat="46.57949" lon="5.47046">
        <ele>377</ele>
        <time>2021-05-29T08:41:54.745Z</time>
      </trkpt>
      <trkpt lat="46.57949" lon="5.47047">
        <ele>377</ele>
        <time>2021-05-29T08:41:55.746Z</time>
      </trkpt>
      <trkpt lat="46.57949" lon="5.47048">
        <ele>378</ele>
        <time>2021-05-29T08:41:56.745Z</time>
      </trkpt>
      <trkpt lat="46.57948" lon="5.47049">
        <ele>378</ele>
        <time>2021-05-29T08:41:57.746Z</time>
      </trkpt>
      <trkpt lat="46.57948" lon="5.47051">
        <ele>379</ele>
        <time>2021-05-29T08:41:58.746Z</time>
      </trkpt>
      <trkpt lat="46.57947" lon="5.47052">
        <ele>379</ele>
        <time>2021-05-29T08:41:59.746Z</time>
      </trkpt>
      <trkpt lat="46.57946" lon="5.47054">
        <ele>379</ele>
        <time>2021-05-29T08:42:00.746Z</time>
      </trkpt>
      <trkpt lat="46.57944" lon="5.47055">
        <ele>379</ele>
        <time>2021-05-29T08:42:01.746Z</time>
      </trkpt>
      <trkpt lat="46.57943" lon="5.47057">
        <ele>379</ele>
        <time>2021-05-29T08:42:02.745Z</time>
      </trkpt>
      <trkpt lat="46.57942" lon="5.47059">
        <ele>379</ele>
        <time>2021-05-29T08:42:03.745Z</time>
      </trkpt>
      <trkpt lat="46.57941" lon="5.4706">
        <ele>379</ele>
        <time>2021-05-29T08:42:04.746Z</time>
      </trkpt>
      <trkpt lat="46.5794" lon="5.47062">
        <ele>378</ele>
        <time>2021-05-29T08:42:05.745Z</time>
      </trkpt>
      <trkpt lat="46.5794" lon="5.47063">
        <ele>378</ele>
        <time>2021-05-29T08:42:06.745Z</time>
      </trkpt>
      <trkpt lat="46.57938" lon="5.47065">
        <ele>377</ele>
        <time>2021-05-29T08:42:07.745Z</time>
      </trkpt>
      <trkpt lat="46.57938" lon="5.47066">
        <ele>377</ele>
        <time>2021-05-29T08:42:08.746Z</time>
      </trkpt>
      <trkpt lat="46.57938" lon="5.47069">
        <ele>377</ele>
        <time>2021-05-29T08:42:09.746Z</time>
      </trkpt>
      <trkpt lat="46.57938" lon="5.47071">
        <ele>378</ele>
        <time>2021-05-29T08:42:10.746Z</time>
      </trkpt>
      <trkpt lat="46.57937" lon="5.47073">
        <ele>378</ele>
        <time>2021-05-29T08:42:11.745Z</time>
      </trkpt>
      <trkpt lat="46.57936" lon="5.47075">
        <ele>378</ele>
        <time>2021-05-29T08:42:12.746Z</time>
      </trkpt>
      <trkpt lat="46.57936" lon="5.47076">
        <ele>378</ele>
        <time>2021-05-29T08:42:13.746Z</time>
      </trkpt>
      <trkpt lat="46.57936" lon="5.47078">
        <ele>378</ele>
        <time>2021-05-29T08:42:14.745Z</time>
      </trkpt>
      <trkpt lat="46.57936" lon="5.47079">
        <ele>378</ele>
        <time>2021-05-29T08:42:15.746Z</time>
      </trkpt>
      <trkpt lat="46.57936" lon="5.47081">
        <ele>378</ele>
        <time>2021-05-29T08:42:16.746Z</time>
      </trkpt>
      <trkpt lat="46.57937" lon="5.47083">
        <ele>378</ele>
        <time>2021-05-29T08:42:17.746Z</time>
      </trkpt>
      <trkpt lat="46.57937" lon="5.47084">
        <ele>378</ele>
        <time>2021-05-29T08:42:18.745Z</time>
      </trkpt>
      <trkpt lat="46.57937" lon="5.47086">
        <ele>378</ele>
        <time>2021-05-29T08:42:19.745Z</time>
      </trkpt>
      <trkpt lat="46.57937" lon="5.47087">
        <ele>378</ele>
        <time>2021-05-29T08:42:20.746Z</time>
      </trkpt>
      <trkpt lat="46.57937" lon="5.4709">
        <ele>378</ele>
        <time>2021-05-29T08:42:21.746Z</time>
      </trkpt>
      <trkpt lat="46.57936" lon="5.47092">
        <ele>378</ele>
        <time>2021-05-29T08:42:22.745Z</time>
      </trkpt>
      <trkpt lat="46.57935" lon="5.47094">
        <ele>379</ele>
        <time>2021-05-29T08:42:23.745Z</time>
      </trkpt>
      <trkpt lat="46.57935" lon="5.47095">
        <ele>379</ele>
        <time>2021-05-29T08:42:24.745Z</time>
      </trkpt>
      <trkpt lat="46.57935" lon="5.47096">
        <ele>380</ele>
        <time>2021-05-29T08:42:25.745Z</time>
      </trkpt>
      <trkpt lat="46.57934" lon="5.47097">
        <ele>381</ele>
        <time>2021-05-29T08:42:26.745Z</time>
      </trkpt>
      <trkpt lat="46.57934" lon="5.47098">
        <ele>381</ele>
        <time>2021-05-29T08:42:27.745Z</time>
      </trkpt>
      <trkpt lat="46.57934" lon="5.47099">
        <ele>382</ele>
        <time>2021-05-29T08:42:28.745Z</time>
      </trkpt>
      <trkpt lat="46.57934" lon="5.47099">
        <ele>382</ele>
        <time>2021-05-29T08:42:29.745Z</time>
      </trkpt>
      <trkpt lat="46.57934" lon="5.471">
        <ele>382</ele>
        <time>2021-05-29T08:42:30.746Z</time>
      </trkpt>
      <trkpt lat="46.57934" lon="5.47102">
        <ele>383</ele>
        <time>2021-05-29T08:42:31.746Z</time>
      </trkpt>
      <trkpt lat="46.57935" lon="5.47103">
        <ele>383</ele>
        <time>2021-05-29T08:42:32.746Z</time>
      </trkpt>
      <trkpt lat="46.57935" lon="5.47104">
        <ele>383</ele>
        <time>2021-05-29T08:42:33.745Z</time>
      </trkpt>
      <trkpt lat="46.57935" lon="5.47106">
        <ele>383</ele>
        <time>2021-05-29T08:42:34.746Z</time>
      </trkpt>
      <trkpt lat="46.57936" lon="5.47108">
        <ele>383</ele>
        <time>2021-05-29T08:42:35.745Z</time>
      </trkpt>
      <trkpt lat="46.57937" lon="5.4711">
        <ele>383</ele>
        <time>2021-05-29T08:42:36.746Z</time>
      </trkpt>
      <trkpt lat="46.57937" lon="5.47113">
        <ele>383</ele>
        <time>2021-05-29T08:42:37.746Z</time>
      </trkpt>
      <trkpt lat="46.57938" lon="5.47115">
        <ele>383</ele>
        <time>2021-05-29T08:42:38.745Z</time>
      </trkpt>
      <trkpt lat="46.57938" lon="5.47117">
        <ele>383</ele>
        <time>2021-05-29T08:42:39.746Z</time>
      </trkpt>
      <trkpt lat="46.57937" lon="5.47118">
        <ele>383</ele>
        <time>2021-05-29T08:42:40.746Z</time>
      </trkpt>
      <trkpt lat="46.57938" lon="5.47121">
        <ele>383</ele>
        <time>2021-05-29T08:42:41.745Z</time>
      </trkpt>
      <trkpt lat="46.57938" lon="5.47125">
        <ele>383</ele>
        <time>2021-05-29T08:42:42.746Z</time>
      </trkpt>
      <trkpt lat="46.57938" lon="5.47128">
        <ele>382</ele>
        <time>2021-05-29T08:42:43.746Z</time>
      </trkpt>
      <trkpt lat="46.57938" lon="5.47131">
        <ele>382</ele>
        <time>2021-05-29T08:42:44.745Z</time>
      </trkpt>
      <trkpt lat="46.57938" lon="5.47134">
        <ele>382</ele>
        <time>2021-05-29T08:42:45.746Z</time>
      </trkpt>
      <trkpt lat="46.57938" lon="5.47138">
        <ele>382</ele>
        <time>2021-05-29T08:42:46.745Z</time>
      </trkpt>
      <trkpt lat="46.57939" lon="5.47141">
        <ele>382</ele>
        <time>2021-05-29T08:42:47.745Z</time>
      </trkpt>
      <trkpt lat="46.57938" lon="5.47144">
        <ele>381</ele>
        <time>2021-05-29T08:42:48.746Z</time>
      </trkpt>
      <trkpt lat="46.57938" lon="5.47147">
        <ele>381</ele>
        <time>2021-05-29T08:42:49.746Z</time>
      </trkpt>
      <trkpt lat="46.57937" lon="5.47151">
        <ele>381</ele>
        <time>2021-05-29T08:42:50.746Z</time>
      </trkpt>
      <trkpt lat="46.57936" lon="5.47153">
        <ele>381</ele>
        <time>2021-05-29T08:42:51.746Z</time>
      </trkpt>
      <trkpt lat="46.57935" lon="5.47156">
        <ele>380</ele>
        <time>2021-05-29T08:42:52.745Z</time>
      </trkpt>
      <trkpt lat="46.57935" lon="5.47159">
        <ele>380</ele>
        <time>2021-05-29T08:42:53.746Z</time>
      </trkpt>
      <trkpt lat="46.57934" lon="5.47162">
        <ele>380</ele>
        <time>2021-05-29T08:42:54.746Z</time>
      </trkpt>
      <trkpt lat="46.57933" lon="5.47166">
        <ele>379</ele>
        <time>2021-05-29T08:42:55.746Z</time>
      </trkpt>
      <trkpt lat="46.57932" lon="5.47169">
        <ele>379</ele>
        <time>2021-05-29T08:42:56.745Z</time>
      </trkpt>
      <trkpt lat="46.57931" lon="5.47172">
        <ele>379</ele>
        <time>2021-05-29T08:42:57.746Z</time>
      </trkpt>
      <trkpt lat="46.5793" lon="5.47175">
        <ele>379</ele>
        <time>2021-05-29T08:42:58.746Z</time>
      </trkpt>
      <trkpt lat="46.57928" lon="5.47179">
        <ele>378</ele>
        <time>2021-05-29T08:42:59.746Z</time>
      </trkpt>
      <trkpt lat="46.57927" lon="5.47182">
        <ele>378</ele>
        <time>2021-05-29T08:43:00.745Z</time>
      </trkpt>
      <trkpt lat="46.57926" lon="5.47185">
        <ele>378</ele>
        <time>2021-05-29T08:43:01.746Z</time>
      </trkpt>
      <trkpt lat="46.57926" lon="5.47188">
        <ele>378</ele>
        <time>2021-05-29T08:43:02.745Z</time>
      </trkpt>
      <trkpt lat="46.57925" lon="5.47192">
        <ele>378</ele>
        <time>2021-05-29T08:43:03.745Z</time>
      </trkpt>
      <trkpt lat="46.57924" lon="5.47195">
        <ele>378</ele>
        <time>2021-05-29T08:43:04.745Z</time>
      </trkpt>
      <trkpt lat="46.57926" lon="5.472">
        <ele>378</ele>
        <time>2021-05-29T08:43:05.746Z</time>
      </trkpt>
      <trkpt lat="46.57925" lon="5.47204">
        <ele>378</ele>
        <time>2021-05-29T08:43:06.746Z</time>
      </trkpt>
      <trkpt lat="46.57925" lon="5.47208">
        <ele>378</ele>
        <time>2021-05-29T08:43:07.746Z</time>
      </trkpt>
      <trkpt lat="46.57924" lon="5.47212">
        <ele>378</ele>
        <time>2021-05-29T08:43:08.746Z</time>
      </trkpt>
      <trkpt lat="46.57924" lon="5.47215">
        <ele>378</ele>
        <time>2021-05-29T08:43:09.746Z</time>
      </trkpt>
      <trkpt lat="46.57924" lon="5.47219">
        <ele>378</ele>
        <time>2021-05-29T08:43:10.745Z</time>
      </trkpt>
      <trkpt lat="46.57925" lon="5.47222">
        <ele>378</ele>
        <time>2021-05-29T08:43:11.746Z</time>
      </trkpt>
      <trkpt lat="46.57924" lon="5.47226">
        <ele>378</ele>
        <time>2021-05-29T08:43:12.745Z</time>
      </trkpt>
      <trkpt lat="46.57923" lon="5.4723">
        <ele>378</ele>
        <time>2021-05-29T08:43:13.746Z</time>
      </trkpt>
      <trkpt lat="46.57922" lon="5.47233">
        <ele>378</ele>
        <time>2021-05-29T08:43:14.746Z</time>
      </trkpt>
      <trkpt lat="46.57921" lon="5.47235">
        <ele>377</ele>
        <time>2021-05-29T08:43:15.746Z</time>
      </trkpt>
      <trkpt lat="46.5792" lon="5.47238">
        <ele>378</ele>
        <time>2021-05-29T08:43:16.746Z</time>
      </trkpt>
      <trkpt lat="46.57919" lon="5.47239">
        <ele>377</ele>
        <time>2021-05-29T08:43:17.746Z</time>
      </trkpt>
      <trkpt lat="46.57919" lon="5.47241">
        <ele>377</ele>
        <time>2021-05-29T08:43:18.746Z</time>
      </trkpt>
      <trkpt lat="46.57918" lon="5.47243">
        <ele>377</ele>
        <time>2021-05-29T08:43:19.745Z</time>
      </trkpt>
      <trkpt lat="46.57917" lon="5.47245">
        <ele>377</ele>
        <time>2021-05-29T08:43:20.745Z</time>
      </trkpt>
      <trkpt lat="46.57916" lon="5.47247">
        <ele>377</ele>
        <time>2021-05-29T08:43:21.745Z</time>
      </trkpt>
      <trkpt lat="46.57916" lon="5.47249">
        <ele>376</ele>
        <time>2021-05-29T08:43:22.745Z</time>
      </trkpt>
      <trkpt lat="46.57916" lon="5.47251">
        <ele>376</ele>
        <time>2021-05-29T08:43:23.746Z</time>
      </trkpt>
      <trkpt lat="46.57916" lon="5.47254">
        <ele>376</ele>
        <time>2021-05-29T08:43:24.745Z</time>
      </trkpt>
      <trkpt lat="46.57917" lon="5.47256">
        <ele>376</ele>
        <time>2021-05-29T08:43:25.745Z</time>
      </trkpt>
      <trkpt lat="46.57916" lon="5.4726">
        <ele>376</ele>
        <time>2021-05-29T08:43:26.746Z</time>
      </trkpt>
      <trkpt lat="46.57916" lon="5.47263">
        <ele>377</ele>
        <time>2021-05-29T08:43:27.746Z</time>
      </trkpt>
      <trkpt lat="46.57915" lon="5.47265">
        <ele>377</ele>
        <time>2021-05-29T08:43:28.746Z</time>
      </trkpt>
      <trkpt lat="46.57914" lon="5.47268">
        <ele>377</ele>
        <time>2021-05-29T08:43:29.745Z</time>
      </trkpt>
      <trkpt lat="46.57914" lon="5.4727">
        <ele>377</ele>
        <time>2021-05-29T08:43:30.746Z</time>
      </trkpt>
      <trkpt lat="46.57913" lon="5.47272">
        <ele>377</ele>
        <time>2021-05-29T08:43:31.746Z</time>
      </trkpt>
      <trkpt lat="46.57913" lon="5.47274">
        <ele>376</ele>
        <time>2021-05-29T08:43:32.745Z</time>
      </trkpt>
      <trkpt lat="46.57913" lon="5.47276">
        <ele>377</ele>
        <time>2021-05-29T08:43:33.746Z</time>
      </trkpt>
      <trkpt lat="46.57912" lon="5.47278">
        <ele>377</ele>
        <time>2021-05-29T08:43:34.746Z</time>
      </trkpt>
      <trkpt lat="46.57912" lon="5.47281">
        <ele>377</ele>
        <time>2021-05-29T08:43:35.745Z</time>
      </trkpt>
      <trkpt lat="46.57911" lon="5.47283">
        <ele>378</ele>
        <time>2021-05-29T08:43:36.746Z</time>
      </trkpt>
      <trkpt lat="46.57911" lon="5.47287">
        <ele>378</ele>
        <time>2021-05-29T08:43:37.746Z</time>
      </trkpt>
      <trkpt lat="46.57911" lon="5.4729">
        <ele>379</ele>
        <time>2021-05-29T08:43:38.746Z</time>
      </trkpt>
      <trkpt lat="46.57911" lon="5.47292">
        <ele>379</ele>
        <time>2021-05-29T08:43:39.746Z</time>
      </trkpt>
      <trkpt lat="46.57911" lon="5.47294">
        <ele>380</ele>
        <time>2021-05-29T08:43:40.746Z</time>
      </trkpt>
      <trkpt lat="46.57911" lon="5.47297">
        <ele>380</ele>
        <time>2021-05-29T08:43:41.745Z</time>
      </trkpt>
      <trkpt lat="46.5791" lon="5.473">
        <ele>381</ele>
        <time>2021-05-29T08:43:42.746Z</time>
      </trkpt>
      <trkpt lat="46.57909" lon="5.47303">
        <ele>381</ele>
        <time>2021-05-29T08:43:43.746Z</time>
      </trkpt>
      <trkpt lat="46.57909" lon="5.47305">
        <ele>381</ele>
        <time>2021-05-29T08:43:44.746Z</time>
      </trkpt>
      <trkpt lat="46.57908" lon="5.47307">
        <ele>381</ele>
        <time>2021-05-29T08:43:45.745Z</time>
      </trkpt>
      <trkpt lat="46.57908" lon="5.47309">
        <ele>381</ele>
        <time>2021-05-29T08:43:46.746Z</time>
      </trkpt>
      <trkpt lat="46.57908" lon="5.47312">
        <ele>381</ele>
        <time>2021-05-29T08:43:47.746Z</time>
      </trkpt>
      <trkpt lat="46.57908" lon="5.47314">
        <ele>381</ele>
        <time>2021-05-29T08:43:48.746Z</time>
      </trkpt>
      <trkpt lat="46.57907" lon="5.47316">
        <ele>380</ele>
        <time>2021-05-29T08:43:49.746Z</time>
      </trkpt>
      <trkpt lat="46.57907" lon="5.47318">
        <ele>380</ele>
        <time>2021-05-29T08:43:50.745Z</time>
      </trkpt>
      <trkpt lat="46.57907" lon="5.47321">
        <ele>380</ele>
        <time>2021-05-29T08:43:51.745Z</time>
      </trkpt>
      <trkpt lat="46.57907" lon="5.47323">
        <ele>379</ele>
        <time>2021-05-29T08:43:52.745Z</time>
      </trkpt>
      <trkpt lat="46.57906" lon="5.47326">
        <ele>379</ele>
        <time>2021-05-29T08:43:53.746Z</time>
      </trkpt>
      <trkpt lat="46.57906" lon="5.47328">
        <ele>379</ele>
        <time>2021-05-29T08:43:54.746Z</time>
      </trkpt>
      <trkpt lat="46.57906" lon="5.47331">
        <ele>379</ele>
        <time>2021-05-29T08:43:55.746Z</time>
      </trkpt>
      <trkpt lat="46.57906" lon="5.47334">
        <ele>380</ele>
        <time>2021-05-29T08:43:56.746Z</time>
      </trkpt>
      <trkpt lat="46.57906" lon="5.47336">
        <ele>380</ele>
        <time>2021-05-29T08:43:57.746Z</time>
      </trkpt>
      <trkpt lat="46.57906" lon="5.47338">
        <ele>381</ele>
        <time>2021-05-29T08:43:58.746Z</time>
      </trkpt>
      <trkpt lat="46.57906" lon="5.4734">
        <ele>381</ele>
        <time>2021-05-29T08:43:59.745Z</time>
      </trkpt>
      <trkpt lat="46.57905" lon="5.47342">
        <ele>382</ele>
        <time>2021-05-29T08:44:00.746Z</time>
      </trkpt>
      <trkpt lat="46.57904" lon="5.47344">
        <ele>382</ele>
        <time>2021-05-29T08:44:01.746Z</time>
      </trkpt>
      <trkpt lat="46.57903" lon="5.47347">
        <ele>383</ele>
        <time>2021-05-29T08:44:02.746Z</time>
      </trkpt>
      <trkpt lat="46.57903" lon="5.47349">
        <ele>383</ele>
        <time>2021-05-29T08:44:03.746Z</time>
      </trkpt>
      <trkpt lat="46.57902" lon="5.47351">
        <ele>384</ele>
        <time>2021-05-29T08:44:04.745Z</time>
      </trkpt>
      <trkpt lat="46.57901" lon="5.47353">
        <ele>384</ele>
        <time>2021-05-29T08:44:05.746Z</time>
      </trkpt>
      <trkpt lat="46.57901" lon="5.47355">
        <ele>384</ele>
        <time>2021-05-29T08:44:06.746Z</time>
      </trkpt>
      <trkpt lat="46.579" lon="5.47357">
        <ele>384</ele>
        <time>2021-05-29T08:44:07.746Z</time>
      </trkpt>
      <trkpt lat="46.579" lon="5.4736">
        <ele>384</ele>
        <time>2021-05-29T08:44:08.746Z</time>
      </trkpt>
      <trkpt lat="46.579" lon="5.47363">
        <ele>384</ele>
        <time>2021-05-29T08:44:09.745Z</time>
      </trkpt>
      <trkpt lat="46.57899" lon="5.47365">
        <ele>384</ele>
        <time>2021-05-29T08:44:10.746Z</time>
      </trkpt>
      <trkpt lat="46.57897" lon="5.47367">
        <ele>383</ele>
        <time>2021-05-29T08:44:11.746Z</time>
      </trkpt>
      <trkpt lat="46.57895" lon="5.47369">
        <ele>383</ele>
        <time>2021-05-29T08:44:12.746Z</time>
      </trkpt>
      <trkpt lat="46.57894" lon="5.47371">
        <ele>383</ele>
        <time>2021-05-29T08:44:13.746Z</time>
      </trkpt>
      <trkpt lat="46.57892" lon="5.47373">
        <ele>383</ele>
        <time>2021-05-29T08:44:14.745Z</time>
      </trkpt>
      <trkpt lat="46.57891" lon="5.47375">
        <ele>383</ele>
        <time>2021-05-29T08:44:15.746Z</time>
      </trkpt>
      <trkpt lat="46.57889" lon="5.47378">
        <ele>382</ele>
        <time>2021-05-29T08:44:16.746Z</time>
      </trkpt>
      <trkpt lat="46.57888" lon="5.4738">
        <ele>382</ele>
        <time>2021-05-29T08:44:17.745Z</time>
      </trkpt>
      <trkpt lat="46.57887" lon="5.47383">
        <ele>382</ele>
        <time>2021-05-29T08:44:18.746Z</time>
      </trkpt>
      <trkpt lat="46.57886" lon="5.47386">
        <ele>381</ele>
        <time>2021-05-29T08:44:19.746Z</time>
      </trkpt>
      <trkpt lat="46.57886" lon="5.47389">
        <ele>380</ele>
        <time>2021-05-29T08:44:20.746Z</time>
      </trkpt>
      <trkpt lat="46.57885" lon="5.47392">
        <ele>380</ele>
        <time>2021-05-29T08:44:21.746Z</time>
      </trkpt>
      <trkpt lat="46.57884" lon="5.47394">
        <ele>380</ele>
        <time>2021-05-29T08:44:22.746Z</time>
      </trkpt>
      <trkpt lat="46.57883" lon="5.47396">
        <ele>379</ele>
        <time>2021-05-29T08:44:23.746Z</time>
      </trkpt>
      <trkpt lat="46.57883" lon="5.47399">
        <ele>379</ele>
        <time>2021-05-29T08:44:24.745Z</time>
      </trkpt>
      <trkpt lat="46.57884" lon="5.47401">
        <ele>380</ele>
        <time>2021-05-29T08:44:25.746Z</time>
      </trkpt>
      <trkpt lat="46.57885" lon="5.47403">
        <ele>380</ele>
        <time>2021-05-29T08:44:26.745Z</time>
      </trkpt>
      <trkpt lat="46.57886" lon="5.47405">
        <ele>381</ele>
        <time>2021-05-29T08:44:27.746Z</time>
      </trkpt>
      <trkpt lat="46.57886" lon="5.47407">
        <ele>382</ele>
        <time>2021-05-29T08:44:28.746Z</time>
      </trkpt>
      <trkpt lat="46.57886" lon="5.47409">
        <ele>383</ele>
        <time>2021-05-29T08:44:29.746Z</time>
      </trkpt>
      <trkpt lat="46.57887" lon="5.47411">
        <ele>384</ele>
        <time>2021-05-29T08:44:30.746Z</time>
      </trkpt>
      <trkpt lat="46.57888" lon="5.47412">
        <ele>385</ele>
        <time>2021-05-29T08:44:31.746Z</time>
      </trkpt>
      <trkpt lat="46.57888" lon="5.47414">
        <ele>386</ele>
        <time>2021-05-29T08:44:32.746Z</time>
      </trkpt>
      <trkpt lat="46.57888" lon="5.47416">
        <ele>387</ele>
        <time>2021-05-29T08:44:33.746Z</time>
      </trkpt>
      <trkpt lat="46.57888" lon="5.47418">
        <ele>388</ele>
        <time>2021-05-29T08:44:34.746Z</time>
      </trkpt>
      <trkpt lat="46.57888" lon="5.4742">
        <ele>389</ele>
        <time>2021-05-29T08:44:35.745Z</time>
      </trkpt>
      <trkpt lat="46.57886" lon="5.47422">
        <ele>390</ele>
        <time>2021-05-29T08:44:36.745Z</time>
      </trkpt>
      <trkpt lat="46.57885" lon="5.47425">
        <ele>390</ele>
        <time>2021-05-29T08:44:37.746Z</time>
      </trkpt>
      <trkpt lat="46.57884" lon="5.47427">
        <ele>391</ele>
        <time>2021-05-29T08:44:38.745Z</time>
      </trkpt>
      <trkpt lat="46.57883" lon="5.4743">
        <ele>391</ele>
        <time>2021-05-29T08:44:39.745Z</time>
      </trkpt>
      <trkpt lat="46.57882" lon="5.47432">
        <ele>391</ele>
        <time>2021-05-29T08:44:40.746Z</time>
      </trkpt>
      <trkpt lat="46.57881" lon="5.47434">
        <ele>391</ele>
        <time>2021-05-29T08:44:41.746Z</time>
      </trkpt>
      <trkpt lat="46.57881" lon="5.47437">
        <ele>392</ele>
        <time>2021-05-29T08:44:42.746Z</time>
      </trkpt>
      <trkpt lat="46.5788" lon="5.47439">
        <ele>392</ele>
        <time>2021-05-29T08:44:43.746Z</time>
      </trkpt>
      <trkpt lat="46.5788" lon="5.47441">
        <ele>392</ele>
        <time>2021-05-29T08:44:44.745Z</time>
      </trkpt>
      <trkpt lat="46.5788" lon="5.47442">
        <ele>392</ele>
        <time>2021-05-29T08:44:45.746Z</time>
      </trkpt>
      <trkpt lat="46.5788" lon="5.47444">
        <ele>392</ele>
        <time>2021-05-29T08:44:46.746Z</time>
      </trkpt>
      <trkpt lat="46.57879" lon="5.47446">
        <ele>392</ele>
        <time>2021-05-29T08:44:47.746Z</time>
      </trkpt>
      <trkpt lat="46.57878" lon="5.47448">
        <ele>392</ele>
        <time>2021-05-29T08:44:48.746Z</time>
      </trkpt>
      <trkpt lat="46.57878" lon="5.47449">
        <ele>392</ele>
        <time>2021-05-29T08:44:49.746Z</time>
      </trkpt>
      <trkpt lat="46.57878" lon="5.47451">
        <ele>392</ele>
        <time>2021-05-29T08:44:50.746Z</time>
      </trkpt>
      <trkpt lat="46.57878" lon="5.47453">
        <ele>392</ele>
        <time>2021-05-29T08:44:51.746Z</time>
      </trkpt>
      <trkpt lat="46.57878" lon="5.47455">
        <ele>393</ele>
        <time>2021-05-29T08:44:52.746Z</time>
      </trkpt>
      <trkpt lat="46.57879" lon="5.47456">
        <ele>393</ele>
        <time>2021-05-29T08:44:53.746Z</time>
      </trkpt>
      <trkpt lat="46.5788" lon="5.47458">
        <ele>394</ele>
        <time>2021-05-29T08:44:54.746Z</time>
      </trkpt>
      <trkpt lat="46.57881" lon="5.47459">
        <ele>394</ele>
        <time>2021-05-29T08:44:55.746Z</time>
      </trkpt>
      <trkpt lat="46.57883" lon="5.47461">
        <ele>394</ele>
        <time>2021-05-29T08:44:56.745Z</time>
      </trkpt>
      <trkpt lat="46.57885" lon="5.47462">
        <ele>394</ele>
        <time>2021-05-29T08:44:57.746Z</time>
      </trkpt>
      <trkpt lat="46.57889" lon="5.47463">
        <ele>394</ele>
        <time>2021-05-29T08:44:58.746Z</time>
      </trkpt>
      <trkpt lat="46.57892" lon="5.47465">
        <ele>394</ele>
        <time>2021-05-29T08:44:59.745Z</time>
      </trkpt>
      <trkpt lat="46.57895" lon="5.47468">
        <ele>395</ele>
        <time>2021-05-29T08:45:00.746Z</time>
      </trkpt>
      <trkpt lat="46.57899" lon="5.4747">
        <ele>395</ele>
        <time>2021-05-29T08:45:01.746Z</time>
      </trkpt>
      <trkpt lat="46.57902" lon="5.47472">
        <ele>395</ele>
        <time>2021-05-29T08:45:02.745Z</time>
      </trkpt>
      <trkpt lat="46.57905" lon="5.47475">
        <ele>395</ele>
        <time>2021-05-29T08:45:03.746Z</time>
      </trkpt>
      <trkpt lat="46.57908" lon="5.47477">
        <ele>396</ele>
        <time>2021-05-29T08:45:04.746Z</time>
      </trkpt>
      <trkpt lat="46.5791" lon="5.47479">
        <ele>396</ele>
        <time>2021-05-29T08:45:05.745Z</time>
      </trkpt>
      <trkpt lat="46.57912" lon="5.4748">
        <ele>396</ele>
        <time>2021-05-29T08:45:06.746Z</time>
      </trkpt>
      <trkpt lat="46.57914" lon="5.47482">
        <ele>396</ele>
        <time>2021-05-29T08:45:07.746Z</time>
      </trkpt>
      <trkpt lat="46.57916" lon="5.47484">
        <ele>396</ele>
        <time>2021-05-29T08:45:08.746Z</time>
      </trkpt>
      <trkpt lat="46.57918" lon="5.47485">
        <ele>397</ele>
        <time>2021-05-29T08:45:09.746Z</time>
      </trkpt>
      <trkpt lat="46.5792" lon="5.47486">
        <ele>397</ele>
        <time>2021-05-29T08:45:10.745Z</time>
      </trkpt>
      <trkpt lat="46.57921" lon="5.47487">
        <ele>397</ele>
        <time>2021-05-29T08:45:11.746Z</time>
      </trkpt>
      <trkpt lat="46.57922" lon="5.47489">
        <ele>397</ele>
        <time>2021-05-29T08:45:12.746Z</time>
      </trkpt>
      <trkpt lat="46.57924" lon="5.4749">
        <ele>397</ele>
        <time>2021-05-29T08:45:13.746Z</time>
      </trkpt>
      <trkpt lat="46.57926" lon="5.47492">
        <ele>398</ele>
        <time>2021-05-29T08:45:14.746Z</time>
      </trkpt>
      <trkpt lat="46.57929" lon="5.47494">
        <ele>398</ele>
        <time>2021-05-29T08:45:15.746Z</time>
      </trkpt>
      <trkpt lat="46.57931" lon="5.47495">
        <ele>399</ele>
        <time>2021-05-29T08:45:16.745Z</time>
      </trkpt>
      <trkpt lat="46.57933" lon="5.47497">
        <ele>399</ele>
        <time>2021-05-29T08:45:17.746Z</time>
      </trkpt>
      <trkpt lat="46.57935" lon="5.47497">
        <ele>399</ele>
        <time>2021-05-29T08:45:18.746Z</time>
      </trkpt>
      <trkpt lat="46.57937" lon="5.47499">
        <ele>399</ele>
        <time>2021-05-29T08:45:19.746Z</time>
      </trkpt>
      <trkpt lat="46.5794" lon="5.47501">
        <ele>399</ele>
        <time>2021-05-29T08:45:20.746Z</time>
      </trkpt>
      <trkpt lat="46.57942" lon="5.47502">
        <ele>399</ele>
        <time>2021-05-29T08:45:21.745Z</time>
      </trkpt>
      <trkpt lat="46.57944" lon="5.47503">
        <ele>398</ele>
        <time>2021-05-29T08:45:22.746Z</time>
      </trkpt>
      <trkpt lat="46.57946" lon="5.47505">
        <ele>398</ele>
        <time>2021-05-29T08:45:23.746Z</time>
      </trkpt>
      <trkpt lat="46.57948" lon="5.47506">
        <ele>398</ele>
        <time>2021-05-29T08:45:24.746Z</time>
      </trkpt>
      <trkpt lat="46.57949" lon="5.47508">
        <ele>398</ele>
        <time>2021-05-29T08:45:25.746Z</time>
      </trkpt>
      <trkpt lat="46.57951" lon="5.4751">
        <ele>397</ele>
        <time>2021-05-29T08:45:26.746Z</time>
      </trkpt>
      <trkpt lat="46.57952" lon="5.47513">
        <ele>397</ele>
        <time>2021-05-29T08:45:27.746Z</time>
      </trkpt>
      <trkpt lat="46.57953" lon="5.47515">
        <ele>396</ele>
        <time>2021-05-29T08:45:28.746Z</time>
      </trkpt>
      <trkpt lat="46.57954" lon="5.47518">
        <ele>395</ele>
        <time>2021-05-29T08:45:29.746Z</time>
      </trkpt>
      <trkpt lat="46.57956" lon="5.4752">
        <ele>394</ele>
        <time>2021-05-29T08:45:30.746Z</time>
      </trkpt>
      <trkpt lat="46.57957" lon="5.47524">
        <ele>393</ele>
        <time>2021-05-29T08:45:31.745Z</time>
      </trkpt>
      <trkpt lat="46.57957" lon="5.47527">
        <ele>391</ele>
        <time>2021-05-29T08:45:32.746Z</time>
      </trkpt>
      <trkpt lat="46.57957" lon="5.4753">
        <ele>389</ele>
        <time>2021-05-29T08:45:33.746Z</time>
      </trkpt>
      <trkpt lat="46.57957" lon="5.47534">
        <ele>388</ele>
        <time>2021-05-29T08:45:34.746Z</time>
      </trkpt>
      <trkpt lat="46.57956" lon="5.47538">
        <ele>386</ele>
        <time>2021-05-29T08:45:35.745Z</time>
      </trkpt>
      <trkpt lat="46.57955" lon="5.47541">
        <ele>384</ele>
        <time>2021-05-29T08:45:36.745Z</time>
      </trkpt>
      <trkpt lat="46.57955" lon="5.47544">
        <ele>383</ele>
        <time>2021-05-29T08:45:37.745Z</time>
      </trkpt>
      <trkpt lat="46.57954" lon="5.47546">
        <ele>382</ele>
        <time>2021-05-29T08:45:38.746Z</time>
      </trkpt>
      <trkpt lat="46.57953" lon="5.47549">
        <ele>380</ele>
        <time>2021-05-29T08:45:39.745Z</time>
      </trkpt>
      <trkpt lat="46.57953" lon="5.47551">
        <ele>379</ele>
        <time>2021-05-29T08:45:40.746Z</time>
      </trkpt>
      <trkpt lat="46.57952" lon="5.47554">
        <ele>377</ele>
        <time>2021-05-29T08:45:41.746Z</time>
      </trkpt>
      <trkpt lat="46.57952" lon="5.47557">
        <ele>376</ele>
        <time>2021-05-29T08:45:42.745Z</time>
      </trkpt>
      <trkpt lat="46.57952" lon="5.4756">
        <ele>375</ele>
        <time>2021-05-29T08:45:43.745Z</time>
      </trkpt>
      <trkpt lat="46.57951" lon="5.47563">
        <ele>374</ele>
        <time>2021-05-29T08:45:44.745Z</time>
      </trkpt>
      <trkpt lat="46.57949" lon="5.47566">
        <ele>374</ele>
        <time>2021-05-29T08:45:45.746Z</time>
      </trkpt>
      <trkpt lat="46.57948" lon="5.47569">
        <ele>373</ele>
        <time>2021-05-29T08:45:46.746Z</time>
      </trkpt>
      <trkpt lat="46.57947" lon="5.47573">
        <ele>372</ele>
        <time>2021-05-29T08:45:47.746Z</time>
      </trkpt>
      <trkpt lat="46.57946" lon="5.47577">
        <ele>372</ele>
        <time>2021-05-29T08:45:48.746Z</time>
      </trkpt>
      <trkpt lat="46.57946" lon="5.47581">
        <ele>372</ele>
        <time>2021-05-29T08:45:49.746Z</time>
      </trkpt>
      <trkpt lat="46.57945" lon="5.47585">
        <ele>371</ele>
        <time>2021-05-29T08:45:50.746Z</time>
      </trkpt>
      <trkpt lat="46.57945" lon="5.47589">
        <ele>371</ele>
        <time>2021-05-29T08:45:51.746Z</time>
      </trkpt>
      <trkpt lat="46.57945" lon="5.47592">
        <ele>371</ele>
        <time>2021-05-29T08:45:52.745Z</time>
      </trkpt>
      <trkpt lat="46.57945" lon="5.47595">
        <ele>371</ele>
        <time>2021-05-29T08:45:53.746Z</time>
      </trkpt>
      <trkpt lat="46.57945" lon="5.47599">
        <ele>371</ele>
        <time>2021-05-29T08:45:54.746Z</time>
      </trkpt>
      <trkpt lat="46.57946" lon="5.47602">
        <ele>371</ele>
        <time>2021-05-29T08:45:55.746Z</time>
      </trkpt>
      <trkpt lat="46.57947" lon="5.47605">
        <ele>372</ele>
        <time>2021-05-29T08:45:56.746Z</time>
      </trkpt>
      <trkpt lat="46.57947" lon="5.47608">
        <ele>373</ele>
        <time>2021-05-29T08:45:57.745Z</time>
      </trkpt>
      <trkpt lat="46.57948" lon="5.47611">
        <ele>373</ele>
        <time>2021-05-29T08:45:58.746Z</time>
      </trkpt>
      <trkpt lat="46.57948" lon="5.47614">
        <ele>374</ele>
        <time>2021-05-29T08:45:59.746Z</time>
      </trkpt>
      <trkpt lat="46.57948" lon="5.47617">
        <ele>375</ele>
        <time>2021-05-29T08:46:00.746Z</time>
      </trkpt>
      <trkpt lat="46.57948" lon="5.4762">
        <ele>376</ele>
        <time>2021-05-29T08:46:01.745Z</time>
      </trkpt>
      <trkpt lat="46.57949" lon="5.47621">
        <ele>377</ele>
        <time>2021-05-29T08:46:02.746Z</time>
      </trkpt>
      <trkpt lat="46.57948" lon="5.47624">
        <ele>378</ele>
        <time>2021-05-29T08:46:03.746Z</time>
      </trkpt>
      <trkpt lat="46.57947" lon="5.47626">
        <ele>378</ele>
        <time>2021-05-29T08:46:04.746Z</time>
      </trkpt>
      <trkpt lat="46.57948" lon="5.47629">
        <ele>379</ele>
        <time>2021-05-29T08:46:05.746Z</time>
      </trkpt>
      <trkpt lat="46.57951" lon="5.47631">
        <ele>380</ele>
        <time>2021-05-29T08:46:06.745Z</time>
      </trkpt>
      <trkpt lat="46.57954" lon="5.47633">
        <ele>381</ele>
        <time>2021-05-29T08:46:07.745Z</time>
      </trkpt>
      <trkpt lat="46.57956" lon="5.47635">
        <ele>381</ele>
        <time>2021-05-29T08:46:08.745Z</time>
      </trkpt>
      <trkpt lat="46.57957" lon="5.47637">
        <ele>382</ele>
        <time>2021-05-29T08:46:09.746Z</time>
      </trkpt>
      <trkpt lat="46.5796" lon="5.47641">
        <ele>383</ele>
        <time>2021-05-29T08:46:10.746Z</time>
      </trkpt>
      <trkpt lat="46.57963" lon="5.47644">
        <ele>384</ele>
        <time>2021-05-29T08:46:11.745Z</time>
      </trkpt>
      <trkpt lat="46.57965" lon="5.47646">
        <ele>384</ele>
        <time>2021-05-29T08:46:12.745Z</time>
      </trkpt>
      <trkpt lat="46.57967" lon="5.47648">
        <ele>385</ele>
        <time>2021-05-29T08:46:13.745Z</time>
      </trkpt>
      <trkpt lat="46.57969" lon="5.4765">
        <ele>385</ele>
        <time>2021-05-29T08:46:14.745Z</time>
      </trkpt>
      <trkpt lat="46.5797" lon="5.47652">
        <ele>386</ele>
        <time>2021-05-29T08:46:15.745Z</time>
      </trkpt>
      <trkpt lat="46.57973" lon="5.47654">
        <ele>386</ele>
        <time>2021-05-29T08:46:16.745Z</time>
      </trkpt>
      <trkpt lat="46.57974" lon="5.47656">
        <ele>387</ele>
        <time>2021-05-29T08:46:17.745Z</time>
      </trkpt>
      <trkpt lat="46.57976" lon="5.47658">
        <ele>387</ele>
        <time>2021-05-29T08:46:18.745Z</time>
      </trkpt>
      <trkpt lat="46.57978" lon="5.4766">
        <ele>388</ele>
        <time>2021-05-29T08:46:19.746Z</time>
      </trkpt>
      <trkpt lat="46.57979" lon="5.47662">
        <ele>388</ele>
        <time>2021-05-29T08:46:20.746Z</time>
      </trkpt>
      <trkpt lat="46.5798" lon="5.47665">
        <ele>388</ele>
        <time>2021-05-29T08:46:21.745Z</time>
      </trkpt>
      <trkpt lat="46.57981" lon="5.47668">
        <ele>389</ele>
        <time>2021-05-29T08:46:22.745Z</time>
      </trkpt>
      <trkpt lat="46.57983" lon="5.4767">
        <ele>389</ele>
        <time>2021-05-29T08:46:23.745Z</time>
      </trkpt>
      <trkpt lat="46.57984" lon="5.47672">
        <ele>390</ele>
        <time>2021-05-29T08:46:24.746Z</time>
      </trkpt>
      <trkpt lat="46.57985" lon="5.47674">
        <ele>390</ele>
        <time>2021-05-29T08:46:25.746Z</time>
      </trkpt>
      <trkpt lat="46.57986" lon="5.47677">
        <ele>390</ele>
        <time>2021-05-29T08:46:26.745Z</time>
      </trkpt>
      <trkpt lat="46.57988" lon="5.4768">
        <ele>390</ele>
        <time>2021-05-29T08:46:27.745Z</time>
      </trkpt>
      <trkpt lat="46.57989" lon="5.47683">
        <ele>390</ele>
        <time>2021-05-29T08:46:28.746Z</time>
      </trkpt>
      <trkpt lat="46.57988" lon="5.47685">
        <ele>390</ele>
        <time>2021-05-29T08:46:29.745Z</time>
      </trkpt>
      <trkpt lat="46.57988" lon="5.47688">
        <ele>389</ele>
        <time>2021-05-29T08:46:30.746Z</time>
      </trkpt>
      <trkpt lat="46.57989" lon="5.4769">
        <ele>389</ele>
        <time>2021-05-29T08:46:31.745Z</time>
      </trkpt>
      <trkpt lat="46.5799" lon="5.47692">
        <ele>389</ele>
        <time>2021-05-29T08:46:32.746Z</time>
      </trkpt>
      <trkpt lat="46.57992" lon="5.47695">
        <ele>389</ele>
        <time>2021-05-29T08:46:33.746Z</time>
      </trkpt>
      <trkpt lat="46.57993" lon="5.47698">
        <ele>388</ele>
        <time>2021-05-29T08:46:34.745Z</time>
      </trkpt>
      <trkpt lat="46.57995" lon="5.477">
        <ele>388</ele>
        <time>2021-05-29T08:46:35.746Z</time>
      </trkpt>
      <trkpt lat="46.57997" lon="5.47702">
        <ele>388</ele>
        <time>2021-05-29T08:46:36.745Z</time>
      </trkpt>
      <trkpt lat="46.57998" lon="5.47703">
        <ele>388</ele>
        <time>2021-05-29T08:46:37.745Z</time>
      </trkpt>
      <trkpt lat="46.57999" lon="5.47704">
        <ele>388</ele>
        <time>2021-05-29T08:46:38.746Z</time>
      </trkpt>
      <trkpt lat="46.58" lon="5.47705">
        <ele>387</ele>
        <time>2021-05-29T08:46:39.746Z</time>
      </trkpt>
      <trkpt lat="46.58001" lon="5.47706">
        <ele>387</ele>
        <time>2021-05-29T08:46:40.746Z</time>
      </trkpt>
      <trkpt lat="46.58003" lon="5.47707">
        <ele>387</ele>
        <time>2021-05-29T08:46:41.746Z</time>
      </trkpt>
      <trkpt lat="46.58005" lon="5.47709">
        <ele>387</ele>
        <time>2021-05-29T08:46:42.745Z</time>
      </trkpt>
      <trkpt lat="46.58006" lon="5.4771">
        <ele>386</ele>
        <time>2021-05-29T08:46:43.745Z</time>
      </trkpt>
      <trkpt lat="46.58008" lon="5.47711">
        <ele>386</ele>
        <time>2021-05-29T08:46:44.745Z</time>
      </trkpt>
      <trkpt lat="46.58009" lon="5.47713">
        <ele>386</ele>
        <time>2021-05-29T08:46:45.745Z</time>
      </trkpt>
      <trkpt lat="46.58011" lon="5.47715">
        <ele>385</ele>
        <time>2021-05-29T08:46:46.745Z</time>
      </trkpt>
      <trkpt lat="46.58012" lon="5.47717">
        <ele>385</ele>
        <time>2021-05-29T08:46:47.745Z</time>
      </trkpt>
      <trkpt lat="46.58013" lon="5.47719">
        <ele>384</ele>
        <time>2021-05-29T08:46:48.745Z</time>
      </trkpt>
      <trkpt lat="46.58013" lon="5.47721">
        <ele>383</ele>
        <time>2021-05-29T08:46:49.746Z</time>
      </trkpt>
      <trkpt lat="46.58015" lon="5.47724">
        <ele>383</ele>
        <time>2021-05-29T08:46:50.746Z</time>
      </trkpt>
      <trkpt lat="46.58016" lon="5.47727">
        <ele>382</ele>
        <time>2021-05-29T08:46:51.745Z</time>
      </trkpt>
      <trkpt lat="46.58019" lon="5.47729">
        <ele>382</ele>
        <time>2021-05-29T08:46:52.745Z</time>
      </trkpt>
      <trkpt lat="46.5802" lon="5.47731">
        <ele>381</ele>
        <time>2021-05-29T08:46:53.745Z</time>
      </trkpt>
      <trkpt lat="46.58021" lon="5.47732">
        <ele>381</ele>
        <time>2021-05-29T08:46:54.746Z</time>
      </trkpt>
      <trkpt lat="46.58023" lon="5.47733">
        <ele>380</ele>
        <time>2021-05-29T08:46:55.745Z</time>
      </trkpt>
      <trkpt lat="46.58026" lon="5.47734">
        <ele>379</ele>
        <time>2021-05-29T08:46:56.745Z</time>
      </trkpt>
      <trkpt lat="46.58028" lon="5.47735">
        <ele>379</ele>
        <time>2021-05-29T08:46:57.745Z</time>
      </trkpt>
      <trkpt lat="46.5803" lon="5.47736">
        <ele>379</ele>
        <time>2021-05-29T08:46:58.746Z</time>
      </trkpt>
      <trkpt lat="46.58032" lon="5.47736">
        <ele>379</ele>
        <time>2021-05-29T08:46:59.746Z</time>
      </trkpt>
      <trkpt lat="46.58035" lon="5.47737">
        <ele>378</ele>
        <time>2021-05-29T08:47:00.745Z</time>
      </trkpt>
      <trkpt lat="46.58037" lon="5.47738">
        <ele>378</ele>
        <time>2021-05-29T08:47:01.745Z</time>
      </trkpt>
      <trkpt lat="46.58039" lon="5.4774">
        <ele>378</ele>
        <time>2021-05-29T08:47:02.745Z</time>
      </trkpt>
      <trkpt lat="46.58041" lon="5.47741">
        <ele>378</ele>
        <time>2021-05-29T08:47:03.745Z</time>
      </trkpt>
      <trkpt lat="46.58044" lon="5.47741">
        <ele>377</ele>
        <time>2021-05-29T08:47:04.745Z</time>
      </trkpt>
      <trkpt lat="46.58046" lon="5.47743">
        <ele>377</ele>
        <time>2021-05-29T08:47:05.745Z</time>
      </trkpt>
      <trkpt lat="46.58048" lon="5.47746">
        <ele>376</ele>
        <time>2021-05-29T08:47:06.745Z</time>
      </trkpt>
      <trkpt lat="46.58051" lon="5.47748">
        <ele>376</ele>
        <time>2021-05-29T08:47:07.745Z</time>
      </trkpt>
      <trkpt lat="46.58053" lon="5.4775">
        <ele>376</ele>
        <time>2021-05-29T08:47:08.745Z</time>
      </trkpt>
      <trkpt lat="46.58055" lon="5.47751">
        <ele>375</ele>
        <time>2021-05-29T08:47:09.745Z</time>
      </trkpt>
      <trkpt lat="46.58056" lon="5.47753">
        <ele>375</ele>
        <time>2021-05-29T08:47:10.745Z</time>
      </trkpt>
      <trkpt lat="46.58058" lon="5.47754">
        <ele>374</ele>
        <time>2021-05-29T08:47:11.745Z</time>
      </trkpt>
      <trkpt lat="46.5806" lon="5.47755">
        <ele>373</ele>
        <time>2021-05-29T08:47:12.745Z</time>
      </trkpt>
      <trkpt lat="46.58062" lon="5.47756">
        <ele>372</ele>
        <time>2021-05-29T08:47:13.745Z</time>
      </trkpt>
      <trkpt lat="46.58064" lon="5.47757">
        <ele>372</ele>
        <time>2021-05-29T08:47:14.745Z</time>
      </trkpt>
      <trkpt lat="46.58066" lon="5.47758">
        <ele>371</ele>
        <time>2021-05-29T08:47:15.745Z</time>
      </trkpt>
      <trkpt lat="46.58068" lon="5.4776">
        <ele>370</ele>
        <time>2021-05-29T08:47:16.745Z</time>
      </trkpt>
      <trkpt lat="46.58069" lon="5.4776">
        <ele>369</ele>
        <time>2021-05-29T08:47:17.745Z</time>
      </trkpt>
      <trkpt lat="46.58071" lon="5.47761">
        <ele>368</ele>
        <time>2021-05-29T08:47:18.745Z</time>
      </trkpt>
      <trkpt lat="46.58073" lon="5.47762">
        <ele>367</ele>
        <time>2021-05-29T08:47:19.745Z</time>
      </trkpt>
      <trkpt lat="46.58074" lon="5.47764">
        <ele>367</ele>
        <time>2021-05-29T08:47:20.745Z</time>
      </trkpt>
      <trkpt lat="46.58075" lon="5.47766">
        <ele>366</ele>
        <time>2021-05-29T08:47:21.746Z</time>
      </trkpt>
      <trkpt lat="46.58076" lon="5.47769">
        <ele>365</ele>
        <time>2021-05-29T08:47:22.745Z</time>
      </trkpt>
      <trkpt lat="46.58078" lon="5.47771">
        <ele>364</ele>
        <time>2021-05-29T08:47:23.746Z</time>
      </trkpt>
      <trkpt lat="46.5808" lon="5.47773">
        <ele>363</ele>
        <time>2021-05-29T08:47:24.745Z</time>
      </trkpt>
      <trkpt lat="46.58082" lon="5.47775">
        <ele>362</ele>
        <time>2021-05-29T08:47:25.746Z</time>
      </trkpt>
      <trkpt lat="46.58085" lon="5.47778">
        <ele>361</ele>
        <time>2021-05-29T08:47:26.746Z</time>
      </trkpt>
      <trkpt lat="46.58088" lon="5.47782">
        <ele>360</ele>
        <time>2021-05-29T08:47:27.746Z</time>
      </trkpt>
      <trkpt lat="46.58091" lon="5.47786">
        <ele>359</ele>
        <time>2021-05-29T08:47:28.746Z</time>
      </trkpt>
      <trkpt lat="46.58094" lon="5.47789">
        <ele>358</ele>
        <time>2021-05-29T08:47:29.746Z</time>
      </trkpt>
      <trkpt lat="46.58096" lon="5.47792">
        <ele>357</ele>
        <time>2021-05-29T08:47:30.746Z</time>
      </trkpt>
      <trkpt lat="46.58097" lon="5.47795">
        <ele>356</ele>
        <time>2021-05-29T08:47:31.746Z</time>
      </trkpt>
      <trkpt lat="46.58097" lon="5.47797">
        <ele>355</ele>
        <time>2021-05-29T08:47:32.746Z</time>
      </trkpt>
      <trkpt lat="46.58098" lon="5.47799">
        <ele>354</ele>
        <time>2021-05-29T08:47:33.746Z</time>
      </trkpt>
      <trkpt lat="46.58099" lon="5.47802">
        <ele>353</ele>
        <time>2021-05-29T08:47:34.745Z</time>
      </trkpt>
      <trkpt lat="46.58099" lon="5.47804">
        <ele>353</ele>
        <time>2021-05-29T08:47:35.746Z</time>
      </trkpt>
      <trkpt lat="46.581" lon="5.47806">
        <ele>352</ele>
        <time>2021-05-29T08:47:36.746Z</time>
      </trkpt>
      <trkpt lat="46.58099" lon="5.47807">
        <ele>352</ele>
        <time>2021-05-29T08:47:37.746Z</time>
      </trkpt>
      <trkpt lat="46.581" lon="5.47809">
        <ele>351</ele>
        <time>2021-05-29T08:47:38.746Z</time>
      </trkpt>
      <trkpt lat="46.581" lon="5.47811">
        <ele>351</ele>
        <time>2021-05-29T08:47:39.746Z</time>
      </trkpt>
      <trkpt lat="46.58101" lon="5.47812">
        <ele>350</ele>
        <time>2021-05-29T08:47:40.746Z</time>
      </trkpt>
      <trkpt lat="46.58101" lon="5.47813">
        <ele>350</ele>
        <time>2021-05-29T08:47:41.746Z</time>
      </trkpt>
      <trkpt lat="46.58101" lon="5.47815">
        <ele>350</ele>
        <time>2021-05-29T08:47:42.746Z</time>
      </trkpt>
      <trkpt lat="46.58102" lon="5.47816">
        <ele>349</ele>
        <time>2021-05-29T08:47:43.746Z</time>
      </trkpt>
      <trkpt lat="46.58102" lon="5.47817">
        <ele>349</ele>
        <time>2021-05-29T08:47:44.746Z</time>
      </trkpt>
      <trkpt lat="46.58101" lon="5.47818">
        <ele>349</ele>
        <time>2021-05-29T08:47:45.746Z</time>
      </trkpt>
      <trkpt lat="46.58101" lon="5.47819">
        <ele>349</ele>
        <time>2021-05-29T08:47:46.746Z</time>
      </trkpt>
      <trkpt lat="46.581" lon="5.4782">
        <ele>349</ele>
        <time>2021-05-29T08:47:47.746Z</time>
      </trkpt>
      <trkpt lat="46.58099" lon="5.4782">
        <ele>349</ele>
        <time>2021-05-29T08:47:48.746Z</time>
      </trkpt>
      <trkpt lat="46.58098" lon="5.47822">
        <ele>349</ele>
        <time>2021-05-29T08:47:49.746Z</time>
      </trkpt>
      <trkpt lat="46.58098" lon="5.47823">
        <ele>349</ele>
        <time>2021-05-29T08:47:50.746Z</time>
      </trkpt>
      <trkpt lat="46.58097" lon="5.47824">
        <ele>349</ele>
        <time>2021-05-29T08:47:51.746Z</time>
      </trkpt>
      <trkpt lat="46.58097" lon="5.47826">
        <ele>349</ele>
        <time>2021-05-29T08:47:52.746Z</time>
      </trkpt>
      <trkpt lat="46.58096" lon="5.47827">
        <ele>349</ele>
        <time>2021-05-29T08:47:53.746Z</time>
      </trkpt>
      <trkpt lat="46.58097" lon="5.47829">
        <ele>349</ele>
        <time>2021-05-29T08:47:54.746Z</time>
      </trkpt>
      <trkpt lat="46.58097" lon="5.47829">
        <ele>349</ele>
        <time>2021-05-29T08:47:55.746Z</time>
      </trkpt>
      <trkpt lat="46.58097" lon="5.4783">
        <ele>349</ele>
        <time>2021-05-29T08:47:56.746Z</time>
      </trkpt>
      <trkpt lat="46.58097" lon="5.47831">
        <ele>349</ele>
        <time>2021-05-29T08:47:57.746Z</time>
      </trkpt>
      <trkpt lat="46.58097" lon="5.47833">
        <ele>349</ele>
        <time>2021-05-29T08:47:58.745Z</time>
      </trkpt>
      <trkpt lat="46.58097" lon="5.47834">
        <ele>349</ele>
        <time>2021-05-29T08:47:59.746Z</time>
      </trkpt>
      <trkpt lat="46.58096" lon="5.47835">
        <ele>349</ele>
        <time>2021-05-29T08:48:00.746Z</time>
      </trkpt>
      <trkpt lat="46.58096" lon="5.47836">
        <ele>349</ele>
        <time>2021-05-29T08:48:01.746Z</time>
      </trkpt>
      <trkpt lat="46.58096" lon="5.47837">
        <ele>349</ele>
        <time>2021-05-29T08:48:02.746Z</time>
      </trkpt>
      <trkpt lat="46.58096" lon="5.47837">
        <ele>349</ele>
        <time>2021-05-29T08:48:03.746Z</time>
      </trkpt>
      <trkpt lat="46.58096" lon="5.47838">
        <ele>350</ele>
        <time>2021-05-29T08:48:04.746Z</time>
      </trkpt>
      <trkpt lat="46.58097" lon="5.4784">
        <ele>350</ele>
        <time>2021-05-29T08:48:05.746Z</time>
      </trkpt>
      <trkpt lat="46.58098" lon="5.47843">
        <ele>351</ele>
        <time>2021-05-29T08:48:06.746Z</time>
      </trkpt>
      <trkpt lat="46.58099" lon="5.47845">
        <ele>351</ele>
        <time>2021-05-29T08:48:07.746Z</time>
      </trkpt>
      <trkpt lat="46.58101" lon="5.47847">
        <ele>352</ele>
        <time>2021-05-29T08:48:08.746Z</time>
      </trkpt>
      <trkpt lat="46.58102" lon="5.47848">
        <ele>352</ele>
        <time>2021-05-29T08:48:09.745Z</time>
      </trkpt>
      <trkpt lat="46.58103" lon="5.4785">
        <ele>352</ele>
        <time>2021-05-29T08:48:10.746Z</time>
      </trkpt>
      <trkpt lat="46.58104" lon="5.47851">
        <ele>353</ele>
        <time>2021-05-29T08:48:11.746Z</time>
      </trkpt>
      <trkpt lat="46.58106" lon="5.47852">
        <ele>353</ele>
        <time>2021-05-29T08:48:12.746Z</time>
      </trkpt>
      <trkpt lat="46.58107" lon="5.47853">
        <ele>353</ele>
        <time>2021-05-29T08:48:13.746Z</time>
      </trkpt>
      <trkpt lat="46.58108" lon="5.47855">
        <ele>353</ele>
        <time>2021-05-29T08:48:14.746Z</time>
      </trkpt>
      <trkpt lat="46.58109" lon="5.47857">
        <ele>353</ele>
        <time>2021-05-29T08:48:15.746Z</time>
      </trkpt>
      <trkpt lat="46.5811" lon="5.47858">
        <ele>353</ele>
        <time>2021-05-29T08:48:16.746Z</time>
      </trkpt>
      <trkpt lat="46.58111" lon="5.47858">
        <ele>353</ele>
        <time>2021-05-29T08:48:17.746Z</time>
      </trkpt>
      <trkpt lat="46.58113" lon="5.4786">
        <ele>353</ele>
        <time>2021-05-29T08:48:18.746Z</time>
      </trkpt>
      <trkpt lat="46.58115" lon="5.47861">
        <ele>353</ele>
        <time>2021-05-29T08:48:19.746Z</time>
      </trkpt>
      <trkpt lat="46.58115" lon="5.47861">
        <ele>353</ele>
        <time>2021-05-29T08:48:20.746Z</time>
      </trkpt>
      <trkpt lat="46.58115" lon="5.47862">
        <ele>353</ele>
        <time>2021-05-29T08:48:21.746Z</time>
      </trkpt>
      <trkpt lat="46.58116" lon="5.47864">
        <ele>353</ele>
        <time>2021-05-29T08:48:22.746Z</time>
      </trkpt>
      <trkpt lat="46.58117" lon="5.47865">
        <ele>353</ele>
        <time>2021-05-29T08:48:23.746Z</time>
      </trkpt>
      <trkpt lat="46.58118" lon="5.47865">
        <ele>353</ele>
        <time>2021-05-29T08:48:24.745Z</time>
      </trkpt>
      <trkpt lat="46.58118" lon="5.47866">
        <ele>353</ele>
        <time>2021-05-29T08:48:25.746Z</time>
      </trkpt>
      <trkpt lat="46.58117" lon="5.47866">
        <ele>353</ele>
        <time>2021-05-29T08:48:26.745Z</time>
      </trkpt>
      <trkpt lat="46.58117" lon="5.47867">
        <ele>353</ele>
        <time>2021-05-29T08:48:27.745Z</time>
      </trkpt>
      <trkpt lat="46.58117" lon="5.47868">
        <ele>353</ele>
        <time>2021-05-29T08:48:28.745Z</time>
      </trkpt>
      <trkpt lat="46.58117" lon="5.4787">
        <ele>353</ele>
        <time>2021-05-29T08:48:29.746Z</time>
      </trkpt>
      <trkpt lat="46.58117" lon="5.47872">
        <ele>353</ele>
        <time>2021-05-29T08:48:30.746Z</time>
      </trkpt>
      <trkpt lat="46.58118" lon="5.47874">
        <ele>354</ele>
        <time>2021-05-29T08:48:31.746Z</time>
      </trkpt>
      <trkpt lat="46.58119" lon="5.47875">
        <ele>354</ele>
        <time>2021-05-29T08:48:32.746Z</time>
      </trkpt>
      <trkpt lat="46.5812" lon="5.47877">
        <ele>354</ele>
        <time>2021-05-29T08:48:33.746Z</time>
      </trkpt>
      <trkpt lat="46.5812" lon="5.47878">
        <ele>354</ele>
        <time>2021-05-29T08:48:34.746Z</time>
      </trkpt>
      <trkpt lat="46.58121" lon="5.47878">
        <ele>355</ele>
        <time>2021-05-29T08:48:35.746Z</time>
      </trkpt>
      <trkpt lat="46.58121" lon="5.47879">
        <ele>355</ele>
        <time>2021-05-29T08:48:36.746Z</time>
      </trkpt>
      <trkpt lat="46.58121" lon="5.4788">
        <ele>355</ele>
        <time>2021-05-29T08:48:37.746Z</time>
      </trkpt>
      <trkpt lat="46.58121" lon="5.47882">
        <ele>356</ele>
        <time>2021-05-29T08:48:38.746Z</time>
      </trkpt>
      <trkpt lat="46.58121" lon="5.47883">
        <ele>356</ele>
        <time>2021-05-29T08:48:39.746Z</time>
      </trkpt>
      <trkpt lat="46.58122" lon="5.47884">
        <ele>357</ele>
        <time>2021-05-29T08:48:40.745Z</time>
      </trkpt>
      <trkpt lat="46.58122" lon="5.47884">
        <ele>357</ele>
        <time>2021-05-29T08:48:41.746Z</time>
      </trkpt>
      <trkpt lat="46.58123" lon="5.47885">
        <ele>358</ele>
        <time>2021-05-29T08:48:42.746Z</time>
      </trkpt>
      <trkpt lat="46.58123" lon="5.47886">
        <ele>358</ele>
        <time>2021-05-29T08:48:43.746Z</time>
      </trkpt>
      <trkpt lat="46.58123" lon="5.47887">
        <ele>359</ele>
        <time>2021-05-29T08:48:44.746Z</time>
      </trkpt>
      <trkpt lat="46.58123" lon="5.47888">
        <ele>359</ele>
        <time>2021-05-29T08:48:45.746Z</time>
      </trkpt>
      <trkpt lat="46.58124" lon="5.47889">
        <ele>359</ele>
        <time>2021-05-29T08:48:46.746Z</time>
      </trkpt>
      <trkpt lat="46.58125" lon="5.4789">
        <ele>359</ele>
        <time>2021-05-29T08:48:47.746Z</time>
      </trkpt>
      <trkpt lat="46.58126" lon="5.4789">
        <ele>359</ele>
        <time>2021-05-29T08:48:48.746Z</time>
      </trkpt>
      <trkpt lat="46.58127" lon="5.47891">
        <ele>358</ele>
        <time>2021-05-29T08:48:49.746Z</time>
      </trkpt>
      <trkpt lat="46.58128" lon="5.47893">
        <ele>358</ele>
        <time>2021-05-29T08:48:50.746Z</time>
      </trkpt>
      <trkpt lat="46.5813" lon="5.47895">
        <ele>358</ele>
        <time>2021-05-29T08:48:51.746Z</time>
      </trkpt>
      <trkpt lat="46.58131" lon="5.47896">
        <ele>358</ele>
        <time>2021-05-29T08:48:52.746Z</time>
      </trkpt>
      <trkpt lat="46.58134" lon="5.47898">
        <ele>357</ele>
        <time>2021-05-29T08:48:53.746Z</time>
      </trkpt>
      <trkpt lat="46.58137" lon="5.479">
        <ele>357</ele>
        <time>2021-05-29T08:48:54.746Z</time>
      </trkpt>
      <trkpt lat="46.58138" lon="5.47901">
        <ele>357</ele>
        <time>2021-05-29T08:48:55.745Z</time>
      </trkpt>
      <trkpt lat="46.5814" lon="5.47902">
        <ele>357</ele>
        <time>2021-05-29T08:48:56.746Z</time>
      </trkpt>
      <trkpt lat="46.58141" lon="5.47903">
        <ele>357</ele>
        <time>2021-05-29T08:48:57.746Z</time>
      </trkpt>
      <trkpt lat="46.58141" lon="5.47904">
        <ele>357</ele>
        <time>2021-05-29T08:48:58.746Z</time>
      </trkpt>
      <trkpt lat="46.58142" lon="5.47905">
        <ele>357</ele>
        <time>2021-05-29T08:48:59.746Z</time>
      </trkpt>
      <trkpt lat="46.58142" lon="5.47906">
        <ele>357</ele>
        <time>2021-05-29T08:49:00.746Z</time>
      </trkpt>
      <trkpt lat="46.58143" lon="5.47907">
        <ele>357</ele>
        <time>2021-05-29T08:49:01.746Z</time>
      </trkpt>
      <trkpt lat="46.58144" lon="5.47908">
        <ele>357</ele>
        <time>2021-05-29T08:49:02.746Z</time>
      </trkpt>
      <trkpt lat="46.58144" lon="5.47909">
        <ele>357</ele>
        <time>2021-05-29T08:49:03.745Z</time>
      </trkpt>
      <trkpt lat="46.58144" lon="5.47909">
        <ele>357</ele>
        <time>2021-05-29T08:49:04.746Z</time>
      </trkpt>
      <trkpt lat="46.58145" lon="5.47911">
        <ele>358</ele>
        <time>2021-05-29T08:49:05.746Z</time>
      </trkpt>
      <trkpt lat="46.58146" lon="5.47911">
        <ele>358</ele>
        <time>2021-05-29T08:49:06.746Z</time>
      </trkpt>
      <trkpt lat="46.58148" lon="5.47913">
        <ele>358</ele>
        <time>2021-05-29T08:49:07.746Z</time>
      </trkpt>
      <trkpt lat="46.58149" lon="5.47914">
        <ele>359</ele>
        <time>2021-05-29T08:49:08.746Z</time>
      </trkpt>
      <trkpt lat="46.58151" lon="5.47917">
        <ele>359</ele>
        <time>2021-05-29T08:49:09.746Z</time>
      </trkpt>
      <trkpt lat="46.58152" lon="5.47919">
        <ele>359</ele>
        <time>2021-05-29T08:49:10.746Z</time>
      </trkpt>
      <trkpt lat="46.58153" lon="5.47922">
        <ele>359</ele>
        <time>2021-05-29T08:49:11.746Z</time>
      </trkpt>
      <trkpt lat="46.58152" lon="5.47924">
        <ele>359</ele>
        <time>2021-05-29T08:49:12.746Z</time>
      </trkpt>
      <trkpt lat="46.58153" lon="5.47925">
        <ele>359</ele>
        <time>2021-05-29T08:49:13.746Z</time>
      </trkpt>
      <trkpt lat="46.58153" lon="5.47926">
        <ele>359</ele>
        <time>2021-05-29T08:49:14.746Z</time>
      </trkpt>
      <trkpt lat="46.58154" lon="5.47928">
        <ele>359</ele>
        <time>2021-05-29T08:49:15.746Z</time>
      </trkpt>
      <trkpt lat="46.58155" lon="5.4793">
        <ele>359</ele>
        <time>2021-05-29T08:49:16.746Z</time>
      </trkpt>
      <trkpt lat="46.58156" lon="5.47932">
        <ele>359</ele>
        <time>2021-05-29T08:49:17.746Z</time>
      </trkpt>
      <trkpt lat="46.58157" lon="5.47934">
        <ele>359</ele>
        <time>2021-05-29T08:49:18.746Z</time>
      </trkpt>
      <trkpt lat="46.58157" lon="5.47935">
        <ele>359</ele>
        <time>2021-05-29T08:49:19.746Z</time>
      </trkpt>
      <trkpt lat="46.58158" lon="5.47936">
        <ele>359</ele>
        <time>2021-05-29T08:49:20.746Z</time>
      </trkpt>
      <trkpt lat="46.58158" lon="5.47937">
        <ele>359</ele>
        <time>2021-05-29T08:49:21.746Z</time>
      </trkpt>
      <trkpt lat="46.58158" lon="5.47938">
        <ele>359</ele>
        <time>2021-05-29T08:49:22.746Z</time>
      </trkpt>
      <trkpt lat="46.58158" lon="5.47939">
        <ele>359</ele>
        <time>2021-05-29T08:49:23.745Z</time>
      </trkpt>
      <trkpt lat="46.58159" lon="5.47941">
        <ele>359</ele>
        <time>2021-05-29T08:49:24.746Z</time>
      </trkpt>
      <trkpt lat="46.58159" lon="5.47942">
        <ele>359</ele>
        <time>2021-05-29T08:49:25.746Z</time>
      </trkpt>
      <trkpt lat="46.58159" lon="5.47943">
        <ele>359</ele>
        <time>2021-05-29T08:49:26.746Z</time>
      </trkpt>
      <trkpt lat="46.58159" lon="5.47945">
        <ele>360</ele>
        <time>2021-05-29T08:49:27.746Z</time>
      </trkpt>
      <trkpt lat="46.58159" lon="5.47947">
        <ele>360</ele>
        <time>2021-05-29T08:49:28.746Z</time>
      </trkpt>
      <trkpt lat="46.58159" lon="5.47948">
        <ele>360</ele>
        <time>2021-05-29T08:49:29.746Z</time>
      </trkpt>
      <trkpt lat="46.5816" lon="5.4795">
        <ele>361</ele>
        <time>2021-05-29T08:49:30.746Z</time>
      </trkpt>
      <trkpt lat="46.5816" lon="5.47951">
        <ele>361</ele>
        <time>2021-05-29T08:49:31.745Z</time>
      </trkpt>
      <trkpt lat="46.5816" lon="5.47952">
        <ele>362</ele>
        <time>2021-05-29T08:49:32.746Z</time>
      </trkpt>
      <trkpt lat="46.5816" lon="5.47953">
        <ele>363</ele>
        <time>2021-05-29T08:49:33.746Z</time>
      </trkpt>
      <trkpt lat="46.58161" lon="5.47953">
        <ele>363</ele>
        <time>2021-05-29T08:49:34.746Z</time>
      </trkpt>
      <trkpt lat="46.58161" lon="5.47954">
        <ele>364</ele>
        <time>2021-05-29T08:49:35.746Z</time>
      </trkpt>
      <trkpt lat="46.58162" lon="5.47954">
        <ele>365</ele>
        <time>2021-05-29T08:49:36.746Z</time>
      </trkpt>
      <trkpt lat="46.58162" lon="5.47954">
        <ele>365</ele>
        <time>2021-05-29T08:49:37.746Z</time>
      </trkpt>
      <trkpt lat="46.58163" lon="5.47955">
        <ele>366</ele>
        <time>2021-05-29T08:49:38.746Z</time>
      </trkpt>
      <trkpt lat="46.58164" lon="5.47957">
        <ele>366</ele>
        <time>2021-05-29T08:49:39.746Z</time>
      </trkpt>
      <trkpt lat="46.58165" lon="5.47958">
        <ele>367</ele>
        <time>2021-05-29T08:49:40.746Z</time>
      </trkpt>
      <trkpt lat="46.58166" lon="5.47959">
        <ele>367</ele>
        <time>2021-05-29T08:49:41.746Z</time>
      </trkpt>
      <trkpt lat="46.58166" lon="5.47961">
        <ele>368</ele>
        <time>2021-05-29T08:49:42.746Z</time>
      </trkpt>
      <trkpt lat="46.58167" lon="5.47963">
        <ele>368</ele>
        <time>2021-05-29T08:49:43.746Z</time>
      </trkpt>
      <trkpt lat="46.58168" lon="5.47964">
        <ele>368</ele>
        <time>2021-05-29T08:49:44.746Z</time>
      </trkpt>
      <trkpt lat="46.58173" lon="5.47974">
        <ele>374</ele>
        <time>2021-05-29T08:49:45.747Z</time>
      </trkpt>
      <trkpt lat="46.58173" lon="5.47974">
        <ele>374</ele>
        <time>2021-05-29T08:49:46.747Z</time>
      </trkpt>
      <trkpt lat="46.58173" lon="5.47974">
        <ele>374</ele>
        <time>2021-05-29T08:49:47.747Z</time>
      </trkpt>
      <trkpt lat="46.58174" lon="5.47975">
        <ele>374</ele>
        <time>2021-05-29T08:49:48.747Z</time>
      </trkpt>
      <trkpt lat="46.58174" lon="5.47976">
        <ele>374</ele>
        <time>2021-05-29T08:49:49.747Z</time>
      </trkpt>
      <trkpt lat="46.58175" lon="5.47978">
        <ele>374</ele>
        <time>2021-05-29T08:49:50.747Z</time>
      </trkpt>
      <trkpt lat="46.58176" lon="5.47979">
        <ele>374</ele>
        <time>2021-05-29T08:49:51.747Z</time>
      </trkpt>
      <trkpt lat="46.58178" lon="5.47981">
        <ele>374</ele>
        <time>2021-05-29T08:49:52.747Z</time>
      </trkpt>
      <trkpt lat="46.58179" lon="5.47982">
        <ele>374</ele>
        <time>2021-05-29T08:49:53.747Z</time>
      </trkpt>
      <trkpt lat="46.5818" lon="5.47984">
        <ele>374</ele>
        <time>2021-05-29T08:49:54.746Z</time>
      </trkpt>
      <trkpt lat="46.58181" lon="5.47986">
        <ele>374</ele>
        <time>2021-05-29T08:49:55.746Z</time>
      </trkpt>
      <trkpt lat="46.58182" lon="5.47987">
        <ele>374</ele>
        <time>2021-05-29T08:49:56.746Z</time>
      </trkpt>
      <trkpt lat="46.58183" lon="5.47989">
        <ele>374</ele>
        <time>2021-05-29T08:49:57.746Z</time>
      </trkpt>
      <trkpt lat="46.58184" lon="5.4799">
        <ele>374</ele>
        <time>2021-05-29T08:49:58.747Z</time>
      </trkpt>
      <trkpt lat="46.58186" lon="5.47991">
        <ele>374</ele>
        <time>2021-05-29T08:49:59.747Z</time>
      </trkpt>
      <trkpt lat="46.58187" lon="5.47991">
        <ele>374</ele>
        <time>2021-05-29T08:50:00.747Z</time>
      </trkpt>
      <trkpt lat="46.58188" lon="5.47992">
        <ele>374</ele>
        <time>2021-05-29T08:50:01.747Z</time>
      </trkpt>
      <trkpt lat="46.58189" lon="5.47992">
        <ele>374</ele>
        <time>2021-05-29T08:50:02.747Z</time>
      </trkpt>
      <trkpt lat="46.58191" lon="5.47993">
        <ele>374</ele>
        <time>2021-05-29T08:50:03.747Z</time>
      </trkpt>
      <trkpt lat="46.58193" lon="5.47993">
        <ele>374</ele>
        <time>2021-05-29T08:50:04.747Z</time>
      </trkpt>
      <trkpt lat="46.58195" lon="5.47993">
        <ele>374</ele>
        <time>2021-05-29T08:50:05.747Z</time>
      </trkpt>
      <trkpt lat="46.58198" lon="5.47994">
        <ele>374</ele>
        <time>2021-05-29T08:50:06.747Z</time>
      </trkpt>
      <trkpt lat="46.582" lon="5.47995">
        <ele>374</ele>
        <time>2021-05-29T08:50:07.747Z</time>
      </trkpt>
      <trkpt lat="46.58202" lon="5.47995">
        <ele>374</ele>
        <time>2021-05-29T08:50:08.747Z</time>
      </trkpt>
      <trkpt lat="46.58204" lon="5.47995">
        <ele>374</ele>
        <time>2021-05-29T08:50:09.747Z</time>
      </trkpt>
      <trkpt lat="46.58206" lon="5.47995">
        <ele>374</ele>
        <time>2021-05-29T08:50:10.746Z</time>
      </trkpt>
      <trkpt lat="46.58209" lon="5.47996">
        <ele>374</ele>
        <time>2021-05-29T08:50:11.747Z</time>
      </trkpt>
      <trkpt lat="46.58211" lon="5.47997">
        <ele>374</ele>
        <time>2021-05-29T08:50:12.747Z</time>
      </trkpt>
      <trkpt lat="46.58213" lon="5.47997">
        <ele>374</ele>
        <time>2021-05-29T08:50:13.746Z</time>
      </trkpt>
      <trkpt lat="46.58214" lon="5.47997">
        <ele>374</ele>
        <time>2021-05-29T08:50:14.747Z</time>
      </trkpt>
      <trkpt lat="46.58216" lon="5.47998">
        <ele>374</ele>
        <time>2021-05-29T08:50:15.746Z</time>
      </trkpt>
      <trkpt lat="46.5823" lon="5.47998">
        <ele>379</ele>
        <time>2021-05-29T08:50:16.748Z</time>
      </trkpt>
      <trkpt lat="46.58231" lon="5.47997">
        <ele>380</ele>
        <time>2021-05-29T08:50:17.748Z</time>
      </trkpt>
      <trkpt lat="46.58232" lon="5.47995">
        <ele>380</ele>
        <time>2021-05-29T08:50:18.747Z</time>
      </trkpt>
      <trkpt lat="46.58234" lon="5.47993">
        <ele>380</ele>
        <time>2021-05-29T08:50:19.748Z</time>
      </trkpt>
      <trkpt lat="46.58235" lon="5.4799">
        <ele>380</ele>
        <time>2021-05-29T08:50:20.748Z</time>
      </trkpt>
      <trkpt lat="46.58237" lon="5.47989">
        <ele>381</ele>
        <time>2021-05-29T08:50:21.747Z</time>
      </trkpt>
      <trkpt lat="46.58238" lon="5.47987">
        <ele>381</ele>
        <time>2021-05-29T08:50:22.748Z</time>
      </trkpt>
      <trkpt lat="46.5824" lon="5.47985">
        <ele>381</ele>
        <time>2021-05-29T08:50:23.748Z</time>
      </trkpt>
      <trkpt lat="46.58241" lon="5.47984">
        <ele>381</ele>
        <time>2021-05-29T08:50:24.748Z</time>
      </trkpt>
      <trkpt lat="46.58242" lon="5.47983">
        <ele>382</ele>
        <time>2021-05-29T08:50:25.747Z</time>
      </trkpt>
      <trkpt lat="46.58244" lon="5.47982">
        <ele>382</ele>
        <time>2021-05-29T08:50:26.748Z</time>
      </trkpt>
      <trkpt lat="46.58245" lon="5.47981">
        <ele>382</ele>
        <time>2021-05-29T08:50:27.748Z</time>
      </trkpt>
      <trkpt lat="46.58247" lon="5.47981">
        <ele>382</ele>
        <time>2021-05-29T08:50:28.747Z</time>
      </trkpt>
      <trkpt lat="46.58248" lon="5.47979">
        <ele>382</ele>
        <time>2021-05-29T08:50:29.747Z</time>
      </trkpt>
      <trkpt lat="46.5825" lon="5.47978">
        <ele>383</ele>
        <time>2021-05-29T08:50:30.747Z</time>
      </trkpt>
      <trkpt lat="46.58252" lon="5.47977">
        <ele>383</ele>
        <time>2021-05-29T08:50:31.747Z</time>
      </trkpt>
      <trkpt lat="46.58253" lon="5.47976">
        <ele>383</ele>
        <time>2021-05-29T08:50:32.748Z</time>
      </trkpt>
      <trkpt lat="46.58254" lon="5.47975">
        <ele>383</ele>
        <time>2021-05-29T08:50:33.748Z</time>
      </trkpt>
      <trkpt lat="46.58255" lon="5.47973">
        <ele>383</ele>
        <time>2021-05-29T08:50:34.748Z</time>
      </trkpt>
      <trkpt lat="46.58256" lon="5.47971">
        <ele>383</ele>
        <time>2021-05-29T08:50:35.748Z</time>
      </trkpt>
      <trkpt lat="46.58258" lon="5.4797">
        <ele>383</ele>
        <time>2021-05-29T08:50:36.748Z</time>
      </trkpt>
      <trkpt lat="46.58259" lon="5.47968">
        <ele>384</ele>
        <time>2021-05-29T08:50:37.747Z</time>
      </trkpt>
      <trkpt lat="46.5826" lon="5.47965">
        <ele>384</ele>
        <time>2021-05-29T08:50:38.748Z</time>
      </trkpt>
      <trkpt lat="46.58262" lon="5.47964">
        <ele>384</ele>
        <time>2021-05-29T08:50:39.748Z</time>
      </trkpt>
      <trkpt lat="46.58263" lon="5.47964">
        <ele>384</ele>
        <time>2021-05-29T08:50:40.748Z</time>
      </trkpt>
      <trkpt lat="46.58266" lon="5.47962">
        <ele>384</ele>
        <time>2021-05-29T08:50:41.748Z</time>
      </trkpt>
      <trkpt lat="46.58268" lon="5.47962">
        <ele>384</ele>
        <time>2021-05-29T08:50:42.748Z</time>
      </trkpt>
      <trkpt lat="46.5827" lon="5.47961">
        <ele>384</ele>
        <time>2021-05-29T08:50:43.748Z</time>
      </trkpt>
      <trkpt lat="46.58273" lon="5.47961">
        <ele>384</ele>
        <time>2021-05-29T08:50:44.748Z</time>
      </trkpt>
      <trkpt lat="46.58275" lon="5.47961">
        <ele>384</ele>
        <time>2021-05-29T08:50:45.748Z</time>
      </trkpt>
      <trkpt lat="46.58277" lon="5.47961">
        <ele>384</ele>
        <time>2021-05-29T08:50:46.748Z</time>
      </trkpt>
      <trkpt lat="46.58279" lon="5.4796">
        <ele>385</ele>
        <time>2021-05-29T08:50:47.747Z</time>
      </trkpt>
      <trkpt lat="46.58281" lon="5.4796">
        <ele>385</ele>
        <time>2021-05-29T08:50:48.748Z</time>
      </trkpt>
      <trkpt lat="46.58283" lon="5.47959">
        <ele>386</ele>
        <time>2021-05-29T08:50:49.748Z</time>
      </trkpt>
      <trkpt lat="46.58285" lon="5.47959">
        <ele>386</ele>
        <time>2021-05-29T08:50:50.748Z</time>
      </trkpt>
      <trkpt lat="46.58287" lon="5.47958">
        <ele>387</ele>
        <time>2021-05-29T08:50:51.747Z</time>
      </trkpt>
      <trkpt lat="46.58289" lon="5.47958">
        <ele>387</ele>
        <time>2021-05-29T08:50:52.748Z</time>
      </trkpt>
      <trkpt lat="46.58291" lon="5.47957">
        <ele>388</ele>
        <time>2021-05-29T08:50:53.747Z</time>
      </trkpt>
      <trkpt lat="46.58293" lon="5.47956">
        <ele>388</ele>
        <time>2021-05-29T08:50:54.748Z</time>
      </trkpt>
      <trkpt lat="46.58294" lon="5.47955">
        <ele>388</ele>
        <time>2021-05-29T08:50:55.748Z</time>
      </trkpt>
      <trkpt lat="46.58296" lon="5.47954">
        <ele>388</ele>
        <time>2021-05-29T08:50:56.748Z</time>
      </trkpt>
      <trkpt lat="46.58297" lon="5.47953">
        <ele>388</ele>
        <time>2021-05-29T08:50:57.748Z</time>
      </trkpt>
      <trkpt lat="46.58298" lon="5.47953">
        <ele>388</ele>
        <time>2021-05-29T08:50:58.748Z</time>
      </trkpt>
      <trkpt lat="46.583" lon="5.47952">
        <ele>388</ele>
        <time>2021-05-29T08:50:59.748Z</time>
      </trkpt>
      <trkpt lat="46.58302" lon="5.47952">
        <ele>388</ele>
        <time>2021-05-29T08:51:00.747Z</time>
      </trkpt>
      <trkpt lat="46.58304" lon="5.47951">
        <ele>388</ele>
        <time>2021-05-29T08:51:01.748Z</time>
      </trkpt>
      <trkpt lat="46.58306" lon="5.47951">
        <ele>388</ele>
        <time>2021-05-29T08:51:02.748Z</time>
      </trkpt>
      <trkpt lat="46.58309" lon="5.47951">
        <ele>389</ele>
        <time>2021-05-29T08:51:03.748Z</time>
      </trkpt>
      <trkpt lat="46.58311" lon="5.4795">
        <ele>389</ele>
        <time>2021-05-29T08:51:04.748Z</time>
      </trkpt>
      <trkpt lat="46.58312" lon="5.4795">
        <ele>389</ele>
        <time>2021-05-29T08:51:05.748Z</time>
      </trkpt>
      <trkpt lat="46.58313" lon="5.4795">
        <ele>389</ele>
        <time>2021-05-29T08:51:06.747Z</time>
      </trkpt>
      <trkpt lat="46.58315" lon="5.4795">
        <ele>389</ele>
        <time>2021-05-29T08:51:07.748Z</time>
      </trkpt>
      <trkpt lat="46.58316" lon="5.4795">
        <ele>389</ele>
        <time>2021-05-29T08:51:08.748Z</time>
      </trkpt>
      <trkpt lat="46.58317" lon="5.47949">
        <ele>389</ele>
        <time>2021-05-29T08:51:09.748Z</time>
      </trkpt>
      <trkpt lat="46.58319" lon="5.47949">
        <ele>390</ele>
        <time>2021-05-29T08:51:10.748Z</time>
      </trkpt>
      <trkpt lat="46.58321" lon="5.4795">
        <ele>390</ele>
        <time>2021-05-29T08:51:11.748Z</time>
      </trkpt>
      <trkpt lat="46.58323" lon="5.4795">
        <ele>390</ele>
        <time>2021-05-29T08:51:12.748Z</time>
      </trkpt>
      <trkpt lat="46.58325" lon="5.4795">
        <ele>390</ele>
        <time>2021-05-29T08:51:13.748Z</time>
      </trkpt>
      <trkpt lat="46.58326" lon="5.4795">
        <ele>390</ele>
        <time>2021-05-29T08:51:14.748Z</time>
      </trkpt>
      <trkpt lat="46.58328" lon="5.47949">
        <ele>390</ele>
        <time>2021-05-29T08:51:15.748Z</time>
      </trkpt>
      <trkpt lat="46.58329" lon="5.47949">
        <ele>391</ele>
        <time>2021-05-29T08:51:16.748Z</time>
      </trkpt>
      <trkpt lat="46.58331" lon="5.47948">
        <ele>391</ele>
        <time>2021-05-29T08:51:17.747Z</time>
      </trkpt>
      <trkpt lat="46.58333" lon="5.47948">
        <ele>391</ele>
        <time>2021-05-29T08:51:18.747Z</time>
      </trkpt>
      <trkpt lat="46.58335" lon="5.47947">
        <ele>391</ele>
        <time>2021-05-29T08:51:19.747Z</time>
      </trkpt>
      <trkpt lat="46.58336" lon="5.47946">
        <ele>391</ele>
        <time>2021-05-29T08:51:20.747Z</time>
      </trkpt>
      <trkpt lat="46.58338" lon="5.47945">
        <ele>391</ele>
        <time>2021-05-29T08:51:21.747Z</time>
      </trkpt>
      <trkpt lat="46.58339" lon="5.47944">
        <ele>391</ele>
        <time>2021-05-29T08:51:22.747Z</time>
      </trkpt>
      <trkpt lat="46.58341" lon="5.47943">
        <ele>391</ele>
        <time>2021-05-29T08:51:23.748Z</time>
      </trkpt>
      <trkpt lat="46.58343" lon="5.47943">
        <ele>390</ele>
        <time>2021-05-29T08:51:24.747Z</time>
      </trkpt>
      <trkpt lat="46.58345" lon="5.47942">
        <ele>390</ele>
        <time>2021-05-29T08:51:25.748Z</time>
      </trkpt>
      <trkpt lat="46.58347" lon="5.4794">
        <ele>390</ele>
        <time>2021-05-29T08:51:26.748Z</time>
      </trkpt>
      <trkpt lat="46.5835" lon="5.47939">
        <ele>390</ele>
        <time>2021-05-29T08:51:27.748Z</time>
      </trkpt>
      <trkpt lat="46.58352" lon="5.47939">
        <ele>390</ele>
        <time>2021-05-29T08:51:28.748Z</time>
      </trkpt>
      <trkpt lat="46.58354" lon="5.47938">
        <ele>390</ele>
        <time>2021-05-29T08:51:29.748Z</time>
      </trkpt>
      <trkpt lat="46.58356" lon="5.47937">
        <ele>390</ele>
        <time>2021-05-29T08:51:30.747Z</time>
      </trkpt>
      <trkpt lat="46.58358" lon="5.47937">
        <ele>391</ele>
        <time>2021-05-29T08:51:31.748Z</time>
      </trkpt>
      <trkpt lat="46.5836" lon="5.47935">
        <ele>391</ele>
        <time>2021-05-29T08:51:32.747Z</time>
      </trkpt>
      <trkpt lat="46.58362" lon="5.47933">
        <ele>391</ele>
        <time>2021-05-29T08:51:33.747Z</time>
      </trkpt>
      <trkpt lat="46.58364" lon="5.47932">
        <ele>391</ele>
        <time>2021-05-29T08:51:34.748Z</time>
      </trkpt>
      <trkpt lat="46.58366" lon="5.47931">
        <ele>391</ele>
        <time>2021-05-29T08:51:35.747Z</time>
      </trkpt>
      <trkpt lat="46.58368" lon="5.4793">
        <ele>391</ele>
        <time>2021-05-29T08:51:36.747Z</time>
      </trkpt>
      <trkpt lat="46.58371" lon="5.47929">
        <ele>391</ele>
        <time>2021-05-29T08:51:37.748Z</time>
      </trkpt>
      <trkpt lat="46.58372" lon="5.47929">
        <ele>391</ele>
        <time>2021-05-29T08:51:38.748Z</time>
      </trkpt>
      <trkpt lat="46.58373" lon="5.47928">
        <ele>391</ele>
        <time>2021-05-29T08:51:39.748Z</time>
      </trkpt>
      <trkpt lat="46.58374" lon="5.47926">
        <ele>391</ele>
        <time>2021-05-29T08:51:40.748Z</time>
      </trkpt>
      <trkpt lat="46.58376" lon="5.47925">
        <ele>391</ele>
        <time>2021-05-29T08:51:41.747Z</time>
      </trkpt>
      <trkpt lat="46.58378" lon="5.47923">
        <ele>391</ele>
        <time>2021-05-29T08:51:42.748Z</time>
      </trkpt>
      <trkpt lat="46.5838" lon="5.47923">
        <ele>391</ele>
        <time>2021-05-29T08:51:43.748Z</time>
      </trkpt>
      <trkpt lat="46.58382" lon="5.47921">
        <ele>391</ele>
        <time>2021-05-29T08:51:44.748Z</time>
      </trkpt>
      <trkpt lat="46.58383" lon="5.4792">
        <ele>391</ele>
        <time>2021-05-29T08:51:45.748Z</time>
      </trkpt>
      <trkpt lat="46.58385" lon="5.47918">
        <ele>391</ele>
        <time>2021-05-29T08:51:46.748Z</time>
      </trkpt>
      <trkpt lat="46.58386" lon="5.47916">
        <ele>390</ele>
        <time>2021-05-29T08:51:47.748Z</time>
      </trkpt>
      <trkpt lat="46.58388" lon="5.47915">
        <ele>390</ele>
        <time>2021-05-29T08:51:48.748Z</time>
      </trkpt>
      <trkpt lat="46.5839" lon="5.47913">
        <ele>390</ele>
        <time>2021-05-29T08:51:49.748Z</time>
      </trkpt>
      <trkpt lat="46.58392" lon="5.47911">
        <ele>390</ele>
        <time>2021-05-29T08:51:50.748Z</time>
      </trkpt>
      <trkpt lat="46.58393" lon="5.47909">
        <ele>389</ele>
        <time>2021-05-29T08:51:51.748Z</time>
      </trkpt>
      <trkpt lat="46.58396" lon="5.47907">
        <ele>389</ele>
        <time>2021-05-29T08:51:52.747Z</time>
      </trkpt>
      <trkpt lat="46.58397" lon="5.47906">
        <ele>389</ele>
        <time>2021-05-29T08:51:53.748Z</time>
      </trkpt>
      <trkpt lat="46.58399" lon="5.47904">
        <ele>389</ele>
        <time>2021-05-29T08:51:54.748Z</time>
      </trkpt>
      <trkpt lat="46.58401" lon="5.47903">
        <ele>388</ele>
        <time>2021-05-29T08:51:55.748Z</time>
      </trkpt>
      <trkpt lat="46.58402" lon="5.47901">
        <ele>388</ele>
        <time>2021-05-29T08:51:56.748Z</time>
      </trkpt>
      <trkpt lat="46.58404" lon="5.47899">
        <ele>388</ele>
        <time>2021-05-29T08:51:57.748Z</time>
      </trkpt>
      <trkpt lat="46.58405" lon="5.47898">
        <ele>387</ele>
        <time>2021-05-29T08:51:58.748Z</time>
      </trkpt>
      <trkpt lat="46.58406" lon="5.47896">
        <ele>387</ele>
        <time>2021-05-29T08:51:59.748Z</time>
      </trkpt>
      <trkpt lat="46.58408" lon="5.47894">
        <ele>387</ele>
        <time>2021-05-29T08:52:00.747Z</time>
      </trkpt>
      <trkpt lat="46.58409" lon="5.47892">
        <ele>386</ele>
        <time>2021-05-29T08:52:01.748Z</time>
      </trkpt>
      <trkpt lat="46.58411" lon="5.4789">
        <ele>386</ele>
        <time>2021-05-29T08:52:02.748Z</time>
      </trkpt>
      <trkpt lat="46.58413" lon="5.47888">
        <ele>386</ele>
        <time>2021-05-29T08:52:03.748Z</time>
      </trkpt>
      <trkpt lat="46.58414" lon="5.47886">
        <ele>385</ele>
        <time>2021-05-29T08:52:04.748Z</time>
      </trkpt>
      <trkpt lat="46.58416" lon="5.47883">
        <ele>385</ele>
        <time>2021-05-29T08:52:05.748Z</time>
      </trkpt>
      <trkpt lat="46.58417" lon="5.47881">
        <ele>385</ele>
        <time>2021-05-29T08:52:06.748Z</time>
      </trkpt>
      <trkpt lat="46.58418" lon="5.47879">
        <ele>385</ele>
        <time>2021-05-29T08:52:07.748Z</time>
      </trkpt>
      <trkpt lat="46.58419" lon="5.47877">
        <ele>385</ele>
        <time>2021-05-29T08:52:08.748Z</time>
      </trkpt>
      <trkpt lat="46.58421" lon="5.47875">
        <ele>385</ele>
        <time>2021-05-29T08:52:09.748Z</time>
      </trkpt>
      <trkpt lat="46.58422" lon="5.47873">
        <ele>385</ele>
        <time>2021-05-29T08:52:10.748Z</time>
      </trkpt>
      <trkpt lat="46.58424" lon="5.47871">
        <ele>385</ele>
        <time>2021-05-29T08:52:11.748Z</time>
      </trkpt>
      <trkpt lat="46.58426" lon="5.47869">
        <ele>385</ele>
        <time>2021-05-29T08:52:12.748Z</time>
      </trkpt>
      <trkpt lat="46.58427" lon="5.47867">
        <ele>385</ele>
        <time>2021-05-29T08:52:13.748Z</time>
      </trkpt>
      <trkpt lat="46.58428" lon="5.47865">
        <ele>386</ele>
        <time>2021-05-29T08:52:14.748Z</time>
      </trkpt>
      <trkpt lat="46.5843" lon="5.47863">
        <ele>386</ele>
        <time>2021-05-29T08:52:15.748Z</time>
      </trkpt>
      <trkpt lat="46.58432" lon="5.47861">
        <ele>386</ele>
        <time>2021-05-29T08:52:16.748Z</time>
      </trkpt>
      <trkpt lat="46.58433" lon="5.4786">
        <ele>386</ele>
        <time>2021-05-29T08:52:17.748Z</time>
      </trkpt>
      <trkpt lat="46.58434" lon="5.47858">
        <ele>386</ele>
        <time>2021-05-29T08:52:18.748Z</time>
      </trkpt>
      <trkpt lat="46.58434" lon="5.47856">
        <ele>386</ele>
        <time>2021-05-29T08:52:19.747Z</time>
      </trkpt>
      <trkpt lat="46.58435" lon="5.47852">
        <ele>386</ele>
        <time>2021-05-29T08:52:20.748Z</time>
      </trkpt>
      <trkpt lat="46.58436" lon="5.47849">
        <ele>386</ele>
        <time>2021-05-29T08:52:21.748Z</time>
      </trkpt>
      <trkpt lat="46.58437" lon="5.47846">
        <ele>386</ele>
        <time>2021-05-29T08:52:22.748Z</time>
      </trkpt>
      <trkpt lat="46.58438" lon="5.47843">
        <ele>386</ele>
        <time>2021-05-29T08:52:23.748Z</time>
      </trkpt>
      <trkpt lat="46.5844" lon="5.47841">
        <ele>386</ele>
        <time>2021-05-29T08:52:24.748Z</time>
      </trkpt>
      <trkpt lat="46.58442" lon="5.47839">
        <ele>386</ele>
        <time>2021-05-29T08:52:25.747Z</time>
      </trkpt>
      <trkpt lat="46.58443" lon="5.47837">
        <ele>386</ele>
        <time>2021-05-29T08:52:26.748Z</time>
      </trkpt>
      <trkpt lat="46.58445" lon="5.47836">
        <ele>387</ele>
        <time>2021-05-29T08:52:27.748Z</time>
      </trkpt>
      <trkpt lat="46.58447" lon="5.47835">
        <ele>387</ele>
        <time>2021-05-29T08:52:28.748Z</time>
      </trkpt>
      <trkpt lat="46.58449" lon="5.47834">
        <ele>387</ele>
        <time>2021-05-29T08:52:29.747Z</time>
      </trkpt>
      <trkpt lat="46.58451" lon="5.47833">
        <ele>387</ele>
        <time>2021-05-29T08:52:30.748Z</time>
      </trkpt>
      <trkpt lat="46.58453" lon="5.47832">
        <ele>387</ele>
        <time>2021-05-29T08:52:31.747Z</time>
      </trkpt>
      <trkpt lat="46.58455" lon="5.47831">
        <ele>388</ele>
        <time>2021-05-29T08:52:32.748Z</time>
      </trkpt>
      <trkpt lat="46.58457" lon="5.47829">
        <ele>388</ele>
        <time>2021-05-29T08:52:33.748Z</time>
      </trkpt>
      <trkpt lat="46.58459" lon="5.47828">
        <ele>388</ele>
        <time>2021-05-29T08:52:34.748Z</time>
      </trkpt>
      <trkpt lat="46.58461" lon="5.47827">
        <ele>388</ele>
        <time>2021-05-29T08:52:35.748Z</time>
      </trkpt>
      <trkpt lat="46.58462" lon="5.47826">
        <ele>388</ele>
        <time>2021-05-29T08:52:36.747Z</time>
      </trkpt>
      <trkpt lat="46.58464" lon="5.47825">
        <ele>388</ele>
        <time>2021-05-29T08:52:37.748Z</time>
      </trkpt>
      <trkpt lat="46.58464" lon="5.47824">
        <ele>388</ele>
        <time>2021-05-29T08:52:38.748Z</time>
      </trkpt>
      <trkpt lat="46.58466" lon="5.47824">
        <ele>388</ele>
        <time>2021-05-29T08:52:39.748Z</time>
      </trkpt>
      <trkpt lat="46.58467" lon="5.47823">
        <ele>388</ele>
        <time>2021-05-29T08:52:40.748Z</time>
      </trkpt>
      <trkpt lat="46.5847" lon="5.47823">
        <ele>388</ele>
        <time>2021-05-29T08:52:41.747Z</time>
      </trkpt>
      <trkpt lat="46.58472" lon="5.47823">
        <ele>388</ele>
        <time>2021-05-29T08:52:42.748Z</time>
      </trkpt>
      <trkpt lat="46.58474" lon="5.47823">
        <ele>388</ele>
        <time>2021-05-29T08:52:43.748Z</time>
      </trkpt>
      <trkpt lat="46.58476" lon="5.47822">
        <ele>388</ele>
        <time>2021-05-29T08:52:44.748Z</time>
      </trkpt>
      <trkpt lat="46.58478" lon="5.47822">
        <ele>388</ele>
        <time>2021-05-29T08:52:45.748Z</time>
      </trkpt>
      <trkpt lat="46.58479" lon="5.47821">
        <ele>388</ele>
        <time>2021-05-29T08:52:46.748Z</time>
      </trkpt>
      <trkpt lat="46.5848" lon="5.47821">
        <ele>388</ele>
        <time>2021-05-29T08:52:47.748Z</time>
      </trkpt>
      <trkpt lat="46.58482" lon="5.47821">
        <ele>388</ele>
        <time>2021-05-29T08:52:48.748Z</time>
      </trkpt>
      <trkpt lat="46.58483" lon="5.4782">
        <ele>389</ele>
        <time>2021-05-29T08:52:49.747Z</time>
      </trkpt>
      <trkpt lat="46.58485" lon="5.47819">
        <ele>389</ele>
        <time>2021-05-29T08:52:50.748Z</time>
      </trkpt>
      <trkpt lat="46.58486" lon="5.47818">
        <ele>389</ele>
        <time>2021-05-29T08:52:51.748Z</time>
      </trkpt>
      <trkpt lat="46.58488" lon="5.47817">
        <ele>389</ele>
        <time>2021-05-29T08:52:52.747Z</time>
      </trkpt>
      <trkpt lat="46.58489" lon="5.47815">
        <ele>389</ele>
        <time>2021-05-29T08:52:53.747Z</time>
      </trkpt>
      <trkpt lat="46.58491" lon="5.47813">
        <ele>389</ele>
        <time>2021-05-29T08:52:54.748Z</time>
      </trkpt>
      <trkpt lat="46.58493" lon="5.47812">
        <ele>389</ele>
        <time>2021-05-29T08:52:55.748Z</time>
      </trkpt>
      <trkpt lat="46.58495" lon="5.4781">
        <ele>390</ele>
        <time>2021-05-29T08:52:56.747Z</time>
      </trkpt>
      <trkpt lat="46.58497" lon="5.47809">
        <ele>390</ele>
        <time>2021-05-29T08:52:57.747Z</time>
      </trkpt>
      <trkpt lat="46.58499" lon="5.47807">
        <ele>390</ele>
        <time>2021-05-29T08:52:58.747Z</time>
      </trkpt>
      <trkpt lat="46.58502" lon="5.47805">
        <ele>390</ele>
        <time>2021-05-29T08:52:59.747Z</time>
      </trkpt>
      <trkpt lat="46.58504" lon="5.47802">
        <ele>390</ele>
        <time>2021-05-29T08:53:00.748Z</time>
      </trkpt>
      <trkpt lat="46.58505" lon="5.478">
        <ele>390</ele>
        <time>2021-05-29T08:53:01.747Z</time>
      </trkpt>
      <trkpt lat="46.58507" lon="5.47797">
        <ele>390</ele>
        <time>2021-05-29T08:53:02.748Z</time>
      </trkpt>
      <trkpt lat="46.58509" lon="5.47794">
        <ele>391</ele>
        <time>2021-05-29T08:53:03.747Z</time>
      </trkpt>
      <trkpt lat="46.58511" lon="5.47792">
        <ele>391</ele>
        <time>2021-05-29T08:53:04.748Z</time>
      </trkpt>
      <trkpt lat="46.58514" lon="5.4779">
        <ele>391</ele>
        <time>2021-05-29T08:53:05.748Z</time>
      </trkpt>
      <trkpt lat="46.58516" lon="5.47788">
        <ele>391</ele>
        <time>2021-05-29T08:53:06.747Z</time>
      </trkpt>
      <trkpt lat="46.58519" lon="5.47786">
        <ele>391</ele>
        <time>2021-05-29T08:53:07.748Z</time>
      </trkpt>
      <trkpt lat="46.58523" lon="5.47784">
        <ele>391</ele>
        <time>2021-05-29T08:53:08.748Z</time>
      </trkpt>
      <trkpt lat="46.58526" lon="5.47783">
        <ele>391</ele>
        <time>2021-05-29T08:53:09.748Z</time>
      </trkpt>
      <trkpt lat="46.5853" lon="5.47782">
        <ele>391</ele>
        <time>2021-05-29T08:53:10.748Z</time>
      </trkpt>
      <trkpt lat="46.58532" lon="5.4778">
        <ele>391</ele>
        <time>2021-05-29T08:53:11.747Z</time>
      </trkpt>
      <trkpt lat="46.58534" lon="5.47777">
        <ele>391</ele>
        <time>2021-05-29T08:53:12.748Z</time>
      </trkpt>
      <trkpt lat="46.58537" lon="5.47775">
        <ele>391</ele>
        <time>2021-05-29T08:53:13.748Z</time>
      </trkpt>
      <trkpt lat="46.58539" lon="5.47772">
        <ele>392</ele>
        <time>2021-05-29T08:53:14.748Z</time>
      </trkpt>
      <trkpt lat="46.58541" lon="5.47769">
        <ele>392</ele>
        <time>2021-05-29T08:53:15.747Z</time>
      </trkpt>
      <trkpt lat="46.58543" lon="5.47767">
        <ele>392</ele>
        <time>2021-05-29T08:53:16.747Z</time>
      </trkpt>
      <trkpt lat="46.58544" lon="5.47763">
        <ele>392</ele>
        <time>2021-05-29T08:53:17.747Z</time>
      </trkpt>
      <trkpt lat="46.58545" lon="5.4776">
        <ele>392</ele>
        <time>2021-05-29T08:53:18.747Z</time>
      </trkpt>
      <trkpt lat="46.58548" lon="5.47757">
        <ele>392</ele>
        <time>2021-05-29T08:53:19.747Z</time>
      </trkpt>
      <trkpt lat="46.5855" lon="5.47754">
        <ele>392</ele>
        <time>2021-05-29T08:53:20.747Z</time>
      </trkpt>
      <trkpt lat="46.58552" lon="5.47751">
        <ele>392</ele>
        <time>2021-05-29T08:53:21.748Z</time>
      </trkpt>
      <trkpt lat="46.58554" lon="5.47748">
        <ele>392</ele>
        <time>2021-05-29T08:53:22.748Z</time>
      </trkpt>
      <trkpt lat="46.58555" lon="5.47745">
        <ele>392</ele>
        <time>2021-05-29T08:53:23.748Z</time>
      </trkpt>
      <trkpt lat="46.58557" lon="5.47742">
        <ele>392</ele>
        <time>2021-05-29T08:53:24.748Z</time>
      </trkpt>
      <trkpt lat="46.58559" lon="5.4774">
        <ele>392</ele>
        <time>2021-05-29T08:53:25.748Z</time>
      </trkpt>
      <trkpt lat="46.58561" lon="5.47738">
        <ele>392</ele>
        <time>2021-05-29T08:53:26.748Z</time>
      </trkpt>
      <trkpt lat="46.58562" lon="5.47736">
        <ele>392</ele>
        <time>2021-05-29T08:53:27.748Z</time>
      </trkpt>
      <trkpt lat="46.58565" lon="5.47735">
        <ele>392</ele>
        <time>2021-05-29T08:53:28.748Z</time>
      </trkpt>
      <trkpt lat="46.58568" lon="5.47733">
        <ele>392</ele>
        <time>2021-05-29T08:53:29.748Z</time>
      </trkpt>
      <trkpt lat="46.58571" lon="5.47732">
        <ele>392</ele>
        <time>2021-05-29T08:53:30.748Z</time>
      </trkpt>
      <trkpt lat="46.58574" lon="5.47731">
        <ele>392</ele>
        <time>2021-05-29T08:53:31.748Z</time>
      </trkpt>
      <trkpt lat="46.58576" lon="5.4773">
        <ele>392</ele>
        <time>2021-05-29T08:53:32.748Z</time>
      </trkpt>
      <trkpt lat="46.58578" lon="5.4773">
        <ele>392</ele>
        <time>2021-05-29T08:53:33.748Z</time>
      </trkpt>
      <trkpt lat="46.5858" lon="5.47729">
        <ele>391</ele>
        <time>2021-05-29T08:53:34.748Z</time>
      </trkpt>
      <trkpt lat="46.58581" lon="5.47729">
        <ele>391</ele>
        <time>2021-05-29T08:53:35.748Z</time>
      </trkpt>
      <trkpt lat="46.58583" lon="5.47727">
        <ele>391</ele>
        <time>2021-05-29T08:53:36.747Z</time>
      </trkpt>
      <trkpt lat="46.58584" lon="5.47726">
        <ele>391</ele>
        <time>2021-05-29T08:53:37.748Z</time>
      </trkpt>
      <trkpt lat="46.58585" lon="5.47724">
        <ele>391</ele>
        <time>2021-05-29T08:53:38.748Z</time>
      </trkpt>
      <trkpt lat="46.58587" lon="5.47721">
        <ele>390</ele>
        <time>2021-05-29T08:53:39.748Z</time>
      </trkpt>
      <trkpt lat="46.58587" lon="5.47718">
        <ele>390</ele>
        <time>2021-05-29T08:53:40.748Z</time>
      </trkpt>
      <trkpt lat="46.58587" lon="5.47715">
        <ele>390</ele>
        <time>2021-05-29T08:53:41.748Z</time>
      </trkpt>
      <trkpt lat="46.58586" lon="5.47713">
        <ele>390</ele>
        <time>2021-05-29T08:53:42.748Z</time>
      </trkpt>
      <trkpt lat="46.58584" lon="5.47711">
        <ele>390</ele>
        <time>2021-05-29T08:53:43.747Z</time>
      </trkpt>
      <trkpt lat="46.58582" lon="5.47709">
        <ele>390</ele>
        <time>2021-05-29T08:53:44.748Z</time>
      </trkpt>
      <trkpt lat="46.5858" lon="5.47707">
        <ele>390</ele>
        <time>2021-05-29T08:53:45.748Z</time>
      </trkpt>
      <trkpt lat="46.58578" lon="5.47705">
        <ele>389</ele>
        <time>2021-05-29T08:53:46.748Z</time>
      </trkpt>
      <trkpt lat="46.58576" lon="5.47704">
        <ele>389</ele>
        <time>2021-05-29T08:53:47.748Z</time>
      </trkpt>
      <trkpt lat="46.58575" lon="5.47703">
        <ele>389</ele>
        <time>2021-05-29T08:53:48.747Z</time>
      </trkpt>
      <trkpt lat="46.58573" lon="5.47701">
        <ele>389</ele>
        <time>2021-05-29T08:53:49.748Z</time>
      </trkpt>
      <trkpt lat="46.5857" lon="5.477">
        <ele>389</ele>
        <time>2021-05-29T08:53:50.748Z</time>
      </trkpt>
      <trkpt lat="46.58568" lon="5.47699">
        <ele>388</ele>
        <time>2021-05-29T08:53:51.747Z</time>
      </trkpt>
      <trkpt lat="46.58566" lon="5.47697">
        <ele>388</ele>
        <time>2021-05-29T08:53:52.748Z</time>
      </trkpt>
      <trkpt lat="46.58564" lon="5.47695">
        <ele>387</ele>
        <time>2021-05-29T08:53:53.748Z</time>
      </trkpt>
      <trkpt lat="46.58562" lon="5.47694">
        <ele>387</ele>
        <time>2021-05-29T08:53:54.748Z</time>
      </trkpt>
      <trkpt lat="46.5856" lon="5.47693">
        <ele>386</ele>
        <time>2021-05-29T08:53:55.747Z</time>
      </trkpt>
      <trkpt lat="46.58558" lon="5.47691">
        <ele>386</ele>
        <time>2021-05-29T08:53:56.748Z</time>
      </trkpt>
      <trkpt lat="46.58556" lon="5.47688">
        <ele>385</ele>
        <time>2021-05-29T08:53:57.747Z</time>
      </trkpt>
      <trkpt lat="46.58554" lon="5.47686">
        <ele>385</ele>
        <time>2021-05-29T08:53:58.748Z</time>
      </trkpt>
      <trkpt lat="46.58552" lon="5.47684">
        <ele>385</ele>
        <time>2021-05-29T08:53:59.748Z</time>
      </trkpt>
      <trkpt lat="46.5855" lon="5.47682">
        <ele>384</ele>
        <time>2021-05-29T08:54:00.748Z</time>
      </trkpt>
      <trkpt lat="46.58549" lon="5.4768">
        <ele>384</ele>
        <time>2021-05-29T08:54:01.748Z</time>
      </trkpt>
      <trkpt lat="46.58547" lon="5.47678">
        <ele>384</ele>
        <time>2021-05-29T08:54:02.748Z</time>
      </trkpt>
      <trkpt lat="46.58545" lon="5.47676">
        <ele>383</ele>
        <time>2021-05-29T08:54:03.747Z</time>
      </trkpt>
      <trkpt lat="46.58543" lon="5.47673">
        <ele>383</ele>
        <time>2021-05-29T08:54:04.747Z</time>
      </trkpt>
      <trkpt lat="46.5854" lon="5.4767">
        <ele>383</ele>
        <time>2021-05-29T08:54:05.747Z</time>
      </trkpt>
      <trkpt lat="46.58539" lon="5.47667">
        <ele>383</ele>
        <time>2021-05-29T08:54:06.748Z</time>
      </trkpt>
      <trkpt lat="46.58537" lon="5.47665">
        <ele>382</ele>
        <time>2021-05-29T08:54:07.748Z</time>
      </trkpt>
      <trkpt lat="46.58536" lon="5.47663">
        <ele>382</ele>
        <time>2021-05-29T08:54:08.747Z</time>
      </trkpt>
      <trkpt lat="46.58535" lon="5.4766">
        <ele>382</ele>
        <time>2021-05-29T08:54:09.748Z</time>
      </trkpt>
      <trkpt lat="46.58534" lon="5.47657">
        <ele>382</ele>
        <time>2021-05-29T08:54:10.748Z</time>
      </trkpt>
      <trkpt lat="46.58532" lon="5.47654">
        <ele>382</ele>
        <time>2021-05-29T08:54:11.748Z</time>
      </trkpt>
      <trkpt lat="46.5853" lon="5.47651">
        <ele>382</ele>
        <time>2021-05-29T08:54:12.748Z</time>
      </trkpt>
      <trkpt lat="46.58528" lon="5.47647">
        <ele>381</ele>
        <time>2021-05-29T08:54:13.748Z</time>
      </trkpt>
      <trkpt lat="46.58527" lon="5.47645">
        <ele>381</ele>
        <time>2021-05-29T08:54:14.748Z</time>
      </trkpt>
      <trkpt lat="46.58526" lon="5.47642">
        <ele>381</ele>
        <time>2021-05-29T08:54:15.748Z</time>
      </trkpt>
      <trkpt lat="46.58526" lon="5.47639">
        <ele>381</ele>
        <time>2021-05-29T08:54:16.747Z</time>
      </trkpt>
      <trkpt lat="46.58525" lon="5.47636">
        <ele>381</ele>
        <time>2021-05-29T08:54:17.748Z</time>
      </trkpt>
      <trkpt lat="46.58525" lon="5.47635">
        <ele>380</ele>
        <time>2021-05-29T08:54:18.748Z</time>
      </trkpt>
      <trkpt lat="46.58525" lon="5.47634">
        <ele>380</ele>
        <time>2021-05-29T08:54:19.748Z</time>
      </trkpt>
      <trkpt lat="46.58525" lon="5.47633">
        <ele>380</ele>
        <time>2021-05-29T08:54:20.748Z</time>
      </trkpt>
      <trkpt lat="46.58525" lon="5.47632">
        <ele>380</ele>
        <time>2021-05-29T08:54:21.747Z</time>
      </trkpt>
      <trkpt lat="46.58533" lon="5.47636">
        <ele>368</ele>
        <time>2021-05-29T08:54:22.748Z</time>
      </trkpt>
      <trkpt lat="46.58533" lon="5.47636">
        <ele>368</ele>
        <time>2021-05-29T08:54:23.748Z</time>
      </trkpt>
      <trkpt lat="46.58533" lon="5.47637">
        <ele>368</ele>
        <time>2021-05-29T08:54:24.747Z</time>
      </trkpt>
      <trkpt lat="46.58534" lon="5.47638">
        <ele>368</ele>
        <time>2021-05-29T08:54:25.748Z</time>
      </trkpt>
      <trkpt lat="46.58534" lon="5.47641">
        <ele>368</ele>
        <time>2021-05-29T08:54:26.748Z</time>
      </trkpt>
      <trkpt lat="46.58534" lon="5.47643">
        <ele>368</ele>
        <time>2021-05-29T08:54:27.747Z</time>
      </trkpt>
      <trkpt lat="46.58535" lon="5.47645">
        <ele>368</ele>
        <time>2021-05-29T08:54:28.748Z</time>
      </trkpt>
      <trkpt lat="46.58536" lon="5.47647">
        <ele>368</ele>
        <time>2021-05-29T08:54:29.747Z</time>
      </trkpt>
      <trkpt lat="46.58536" lon="5.47649">
        <ele>368</ele>
        <time>2021-05-29T08:54:30.748Z</time>
      </trkpt>
      <trkpt lat="46.58536" lon="5.47651">
        <ele>368</ele>
        <time>2021-05-29T08:54:31.747Z</time>
      </trkpt>
      <trkpt lat="46.58537" lon="5.47652">
        <ele>368</ele>
        <time>2021-05-29T08:54:32.747Z</time>
      </trkpt>
      <trkpt lat="46.58538" lon="5.47655">
        <ele>368</ele>
        <time>2021-05-29T08:54:33.748Z</time>
      </trkpt>
      <trkpt lat="46.58539" lon="5.47657">
        <ele>368</ele>
        <time>2021-05-29T08:54:34.747Z</time>
      </trkpt>
      <trkpt lat="46.5854" lon="5.47659">
        <ele>367</ele>
        <time>2021-05-29T08:54:35.747Z</time>
      </trkpt>
      <trkpt lat="46.5854" lon="5.47661">
        <ele>367</ele>
        <time>2021-05-29T08:54:36.748Z</time>
      </trkpt>
      <trkpt lat="46.58541" lon="5.47662">
        <ele>367</ele>
        <time>2021-05-29T08:54:37.747Z</time>
      </trkpt>
      <trkpt lat="46.58542" lon="5.47664">
        <ele>367</ele>
        <time>2021-05-29T08:54:38.747Z</time>
      </trkpt>
      <trkpt lat="46.58543" lon="5.47666">
        <ele>367</ele>
        <time>2021-05-29T08:54:39.748Z</time>
      </trkpt>
      <trkpt lat="46.58544" lon="5.47669">
        <ele>367</ele>
        <time>2021-05-29T08:54:40.748Z</time>
      </trkpt>
      <trkpt lat="46.58546" lon="5.47671">
        <ele>367</ele>
        <time>2021-05-29T08:54:41.747Z</time>
      </trkpt>
      <trkpt lat="46.58547" lon="5.47673">
        <ele>368</ele>
        <time>2021-05-29T08:54:42.747Z</time>
      </trkpt>
      <trkpt lat="46.58548" lon="5.47675">
        <ele>368</ele>
        <time>2021-05-29T08:54:43.748Z</time>
      </trkpt>
      <trkpt lat="46.58549" lon="5.47677">
        <ele>369</ele>
        <time>2021-05-29T08:54:44.747Z</time>
      </trkpt>
      <trkpt lat="46.5855" lon="5.47679">
        <ele>369</ele>
        <time>2021-05-29T08:54:45.748Z</time>
      </trkpt>
      <trkpt lat="46.58551" lon="5.47681">
        <ele>370</ele>
        <time>2021-05-29T08:54:46.748Z</time>
      </trkpt>
      <trkpt lat="46.58552" lon="5.47683">
        <ele>371</ele>
        <time>2021-05-29T08:54:47.748Z</time>
      </trkpt>
      <trkpt lat="46.58553" lon="5.47685">
        <ele>371</ele>
        <time>2021-05-29T08:54:48.748Z</time>
      </trkpt>
      <trkpt lat="46.58555" lon="5.47686">
        <ele>371</ele>
        <time>2021-05-29T08:54:49.748Z</time>
      </trkpt>
      <trkpt lat="46.58556" lon="5.47687">
        <ele>372</ele>
        <time>2021-05-29T08:54:50.748Z</time>
      </trkpt>
      <trkpt lat="46.58557" lon="5.47689">
        <ele>372</ele>
        <time>2021-05-29T08:54:51.747Z</time>
      </trkpt>
      <trkpt lat="46.58558" lon="5.4769">
        <ele>373</ele>
        <time>2021-05-29T08:54:52.748Z</time>
      </trkpt>
      <trkpt lat="46.5856" lon="5.47691">
        <ele>373</ele>
        <time>2021-05-29T08:54:53.748Z</time>
      </trkpt>
      <trkpt lat="46.58561" lon="5.47692">
        <ele>374</ele>
        <time>2021-05-29T08:54:54.748Z</time>
      </trkpt>
      <trkpt lat="46.58563" lon="5.47694">
        <ele>374</ele>
        <time>2021-05-29T08:54:55.748Z</time>
      </trkpt>
      <trkpt lat="46.58564" lon="5.47694">
        <ele>374</ele>
        <time>2021-05-29T08:54:56.747Z</time>
      </trkpt>
      <trkpt lat="46.58566" lon="5.47696">
        <ele>375</ele>
        <time>2021-05-29T08:54:57.748Z</time>
      </trkpt>
      <trkpt lat="46.58567" lon="5.47697">
        <ele>375</ele>
        <time>2021-05-29T08:54:58.748Z</time>
      </trkpt>
      <trkpt lat="46.58568" lon="5.47698">
        <ele>376</ele>
        <time>2021-05-29T08:54:59.748Z</time>
      </trkpt>
      <trkpt lat="46.5857" lon="5.47699">
        <ele>376</ele>
        <time>2021-05-29T08:55:00.747Z</time>
      </trkpt>
      <trkpt lat="46.58573" lon="5.47701">
        <ele>377</ele>
        <time>2021-05-29T08:55:01.748Z</time>
      </trkpt>
      <trkpt lat="46.58575" lon="5.47702">
        <ele>377</ele>
        <time>2021-05-29T08:55:02.748Z</time>
      </trkpt>
      <trkpt lat="46.58577" lon="5.47703">
        <ele>378</ele>
        <time>2021-05-29T08:55:03.748Z</time>
      </trkpt>
      <trkpt lat="46.58578" lon="5.47704">
        <ele>378</ele>
        <time>2021-05-29T08:55:04.748Z</time>
      </trkpt>
      <trkpt lat="46.5858" lon="5.47705">
        <ele>379</ele>
        <time>2021-05-29T08:55:05.748Z</time>
      </trkpt>
      <trkpt lat="46.58581" lon="5.47707">
        <ele>379</ele>
        <time>2021-05-29T08:55:06.748Z</time>
      </trkpt>
      <trkpt lat="46.58581" lon="5.4771">
        <ele>379</ele>
        <time>2021-05-29T08:55:07.747Z</time>
      </trkpt>
      <trkpt lat="46.58582" lon="5.47712">
        <ele>379</ele>
        <time>2021-05-29T08:55:08.748Z</time>
      </trkpt>
      <trkpt lat="46.58582" lon="5.47714">
        <ele>379</ele>
        <time>2021-05-29T08:55:09.748Z</time>
      </trkpt>
      <trkpt lat="46.58581" lon="5.47716">
        <ele>380</ele>
        <time>2021-05-29T08:55:10.748Z</time>
      </trkpt>
      <trkpt lat="46.58581" lon="5.47719">
        <ele>380</ele>
        <time>2021-05-29T08:55:11.748Z</time>
      </trkpt>
      <trkpt lat="46.5858" lon="5.4772">
        <ele>380</ele>
        <time>2021-05-29T08:55:12.747Z</time>
      </trkpt>
      <trkpt lat="46.5858" lon="5.47722">
        <ele>380</ele>
        <time>2021-05-29T08:55:13.748Z</time>
      </trkpt>
      <trkpt lat="46.58579" lon="5.47723">
        <ele>380</ele>
        <time>2021-05-29T08:55:14.747Z</time>
      </trkpt>
      <trkpt lat="46.58578" lon="5.47724">
        <ele>381</ele>
        <time>2021-05-29T08:55:15.747Z</time>
      </trkpt>
      <trkpt lat="46.58577" lon="5.47725">
        <ele>381</ele>
        <time>2021-05-29T08:55:16.748Z</time>
      </trkpt>
      <trkpt lat="46.58575" lon="5.47726">
        <ele>381</ele>
        <time>2021-05-29T08:55:17.748Z</time>
      </trkpt>
      <trkpt lat="46.58574" lon="5.47727">
        <ele>380</ele>
        <time>2021-05-29T08:55:18.747Z</time>
      </trkpt>
      <trkpt lat="46.58572" lon="5.47728">
        <ele>380</ele>
        <time>2021-05-29T08:55:19.748Z</time>
      </trkpt>
      <trkpt lat="46.58571" lon="5.47729">
        <ele>381</ele>
        <time>2021-05-29T08:55:20.748Z</time>
      </trkpt>
      <trkpt lat="46.58569" lon="5.4773">
        <ele>381</ele>
        <time>2021-05-29T08:55:21.748Z</time>
      </trkpt>
      <trkpt lat="46.58567" lon="5.47732">
        <ele>381</ele>
        <time>2021-05-29T08:55:22.748Z</time>
      </trkpt>
      <trkpt lat="46.58565" lon="5.47733">
        <ele>382</ele>
        <time>2021-05-29T08:55:23.748Z</time>
      </trkpt>
      <trkpt lat="46.58564" lon="5.47734">
        <ele>382</ele>
        <time>2021-05-29T08:55:24.747Z</time>
      </trkpt>
      <trkpt lat="46.58563" lon="5.47735">
        <ele>382</ele>
        <time>2021-05-29T08:55:25.747Z</time>
      </trkpt>
      <trkpt lat="46.58562" lon="5.47738">
        <ele>382</ele>
        <time>2021-05-29T08:55:26.748Z</time>
      </trkpt>
      <trkpt lat="46.5856" lon="5.4774">
        <ele>382</ele>
        <time>2021-05-29T08:55:27.748Z</time>
      </trkpt>
      <trkpt lat="46.58559" lon="5.47741">
        <ele>383</ele>
        <time>2021-05-29T08:55:28.748Z</time>
      </trkpt>
      <trkpt lat="46.58558" lon="5.47743">
        <ele>383</ele>
        <time>2021-05-29T08:55:29.748Z</time>
      </trkpt>
      <trkpt lat="46.58556" lon="5.47745">
        <ele>383</ele>
        <time>2021-05-29T08:55:30.748Z</time>
      </trkpt>
      <trkpt lat="46.58555" lon="5.47747">
        <ele>383</ele>
        <time>2021-05-29T08:55:31.747Z</time>
      </trkpt>
      <trkpt lat="46.58554" lon="5.4775">
        <ele>383</ele>
        <time>2021-05-29T08:55:32.748Z</time>
      </trkpt>
      <trkpt lat="46.58553" lon="5.47752">
        <ele>384</ele>
        <time>2021-05-29T08:55:33.748Z</time>
      </trkpt>
      <trkpt lat="46.58552" lon="5.47754">
        <ele>384</ele>
        <time>2021-05-29T08:55:34.748Z</time>
      </trkpt>
      <trkpt lat="46.58551" lon="5.47755">
        <ele>384</ele>
        <time>2021-05-29T08:55:35.747Z</time>
      </trkpt>
      <trkpt lat="46.5855" lon="5.47757">
        <ele>384</ele>
        <time>2021-05-29T08:55:36.748Z</time>
      </trkpt>
      <trkpt lat="46.58549" lon="5.47759">
        <ele>384</ele>
        <time>2021-05-29T08:55:37.748Z</time>
      </trkpt>
      <trkpt lat="46.58548" lon="5.47761">
        <ele>384</ele>
        <time>2021-05-29T08:55:38.748Z</time>
      </trkpt>
      <trkpt lat="46.58547" lon="5.47763">
        <ele>384</ele>
        <time>2021-05-29T08:55:39.747Z</time>
      </trkpt>
      <trkpt lat="46.58546" lon="5.47764">
        <ele>384</ele>
        <time>2021-05-29T08:55:40.747Z</time>
      </trkpt>
      <trkpt lat="46.58544" lon="5.47766">
        <ele>383</ele>
        <time>2021-05-29T08:55:41.748Z</time>
      </trkpt>
      <trkpt lat="46.58543" lon="5.47769">
        <ele>383</ele>
        <time>2021-05-29T08:55:42.748Z</time>
      </trkpt>
      <trkpt lat="46.5854" lon="5.47771">
        <ele>383</ele>
        <time>2021-05-29T08:55:43.747Z</time>
      </trkpt>
      <trkpt lat="46.58538" lon="5.47773">
        <ele>382</ele>
        <time>2021-05-29T08:55:44.747Z</time>
      </trkpt>
      <trkpt lat="46.58537" lon="5.47776">
        <ele>382</ele>
        <time>2021-05-29T08:55:45.747Z</time>
      </trkpt>
      <trkpt lat="46.58535" lon="5.47778">
        <ele>382</ele>
        <time>2021-05-29T08:55:46.748Z</time>
      </trkpt>
      <trkpt lat="46.58533" lon="5.4778">
        <ele>382</ele>
        <time>2021-05-29T08:55:47.748Z</time>
      </trkpt>
      <trkpt lat="46.58532" lon="5.47782">
        <ele>382</ele>
        <time>2021-05-29T08:55:48.748Z</time>
      </trkpt>
      <trkpt lat="46.5853" lon="5.47783">
        <ele>382</ele>
        <time>2021-05-29T08:55:49.748Z</time>
      </trkpt>
      <trkpt lat="46.58528" lon="5.47785">
        <ele>382</ele>
        <time>2021-05-29T08:55:50.748Z</time>
      </trkpt>
      <trkpt lat="46.58527" lon="5.47786">
        <ele>382</ele>
        <time>2021-05-29T08:55:51.747Z</time>
      </trkpt>
      <trkpt lat="46.58526" lon="5.47788">
        <ele>383</ele>
        <time>2021-05-29T08:55:52.748Z</time>
      </trkpt>
      <trkpt lat="46.58525" lon="5.47789">
        <ele>383</ele>
        <time>2021-05-29T08:55:53.748Z</time>
      </trkpt>
      <trkpt lat="46.58524" lon="5.4779">
        <ele>383</ele>
        <time>2021-05-29T08:55:54.748Z</time>
      </trkpt>
      <trkpt lat="46.58525" lon="5.47792">
        <ele>383</ele>
        <time>2021-05-29T08:55:55.748Z</time>
      </trkpt>
      <trkpt lat="46.58525" lon="5.47794">
        <ele>383</ele>
        <time>2021-05-29T08:55:56.747Z</time>
      </trkpt>
      <trkpt lat="46.58524" lon="5.47796">
        <ele>383</ele>
        <time>2021-05-29T08:55:57.748Z</time>
      </trkpt>
      <trkpt lat="46.58524" lon="5.47798">
        <ele>383</ele>
        <time>2021-05-29T08:55:58.747Z</time>
      </trkpt>
      <trkpt lat="46.58524" lon="5.47801">
        <ele>383</ele>
        <time>2021-05-29T08:55:59.748Z</time>
      </trkpt>
      <trkpt lat="46.58524" lon="5.47802">
        <ele>383</ele>
        <time>2021-05-29T08:56:00.747Z</time>
      </trkpt>
      <trkpt lat="46.58525" lon="5.47803">
        <ele>384</ele>
        <time>2021-05-29T08:56:01.748Z</time>
      </trkpt>
      <trkpt lat="46.58549" lon="5.4779">
        <ele>392</ele>
        <time>2021-05-29T08:56:02.749Z</time>
      </trkpt>
      <trkpt lat="46.5855" lon="5.47789">
        <ele>392</ele>
        <time>2021-05-29T08:56:03.749Z</time>
      </trkpt>
      <trkpt lat="46.58551" lon="5.47788">
        <ele>392</ele>
        <time>2021-05-29T08:56:04.748Z</time>
      </trkpt>
      <trkpt lat="46.58553" lon="5.47787">
        <ele>393</ele>
        <time>2021-05-29T08:56:05.749Z</time>
      </trkpt>
      <trkpt lat="46.58555" lon="5.47786">
        <ele>393</ele>
        <time>2021-05-29T08:56:06.749Z</time>
      </trkpt>
      <trkpt lat="46.58557" lon="5.47784">
        <ele>393</ele>
        <time>2021-05-29T08:56:07.749Z</time>
      </trkpt>
      <trkpt lat="46.58559" lon="5.47782">
        <ele>393</ele>
        <time>2021-05-29T08:56:08.749Z</time>
      </trkpt>
      <trkpt lat="46.58561" lon="5.4778">
        <ele>393</ele>
        <time>2021-05-29T08:56:09.749Z</time>
      </trkpt>
      <trkpt lat="46.58562" lon="5.47779">
        <ele>393</ele>
        <time>2021-05-29T08:56:10.749Z</time>
      </trkpt>
      <trkpt lat="46.58564" lon="5.47777">
        <ele>393</ele>
        <time>2021-05-29T08:56:11.749Z</time>
      </trkpt>
      <trkpt lat="46.58566" lon="5.47776">
        <ele>393</ele>
        <time>2021-05-29T08:56:12.749Z</time>
      </trkpt>
      <trkpt lat="46.58567" lon="5.47773">
        <ele>393</ele>
        <time>2021-05-29T08:56:13.749Z</time>
      </trkpt>
      <trkpt lat="46.58569" lon="5.47771">
        <ele>393</ele>
        <time>2021-05-29T08:56:14.749Z</time>
      </trkpt>
      <trkpt lat="46.5857" lon="5.4777">
        <ele>393</ele>
        <time>2021-05-29T08:56:15.749Z</time>
      </trkpt>
      <trkpt lat="46.58572" lon="5.47769">
        <ele>393</ele>
        <time>2021-05-29T08:56:16.749Z</time>
      </trkpt>
      <trkpt lat="46.58574" lon="5.47767">
        <ele>393</ele>
        <time>2021-05-29T08:56:17.749Z</time>
      </trkpt>
      <trkpt lat="46.58576" lon="5.47766">
        <ele>393</ele>
        <time>2021-05-29T08:56:18.748Z</time>
      </trkpt>
      <trkpt lat="46.58578" lon="5.47765">
        <ele>393</ele>
        <time>2021-05-29T08:56:19.749Z</time>
      </trkpt>
      <trkpt lat="46.5858" lon="5.47763">
        <ele>392</ele>
        <time>2021-05-29T08:56:20.749Z</time>
      </trkpt>
      <trkpt lat="46.58582" lon="5.47762">
        <ele>392</ele>
        <time>2021-05-29T08:56:21.749Z</time>
      </trkpt>
      <trkpt lat="46.58584" lon="5.47761">
        <ele>392</ele>
        <time>2021-05-29T08:56:22.749Z</time>
      </trkpt>
      <trkpt lat="46.58586" lon="5.47761">
        <ele>392</ele>
        <time>2021-05-29T08:56:23.749Z</time>
      </trkpt>
      <trkpt lat="46.58587" lon="5.4776">
        <ele>392</ele>
        <time>2021-05-29T08:56:24.749Z</time>
      </trkpt>
      <trkpt lat="46.58587" lon="5.47761">
        <ele>391</ele>
        <time>2021-05-29T08:56:25.749Z</time>
      </trkpt>
      <trkpt lat="46.58586" lon="5.4776">
        <ele>391</ele>
        <time>2021-05-29T08:56:26.749Z</time>
      </trkpt>
      <trkpt lat="46.58586" lon="5.47761">
        <ele>391</ele>
        <time>2021-05-29T08:56:27.749Z</time>
      </trkpt>
      <trkpt lat="46.58586" lon="5.47761">
        <ele>391</ele>
        <time>2021-05-29T08:56:28.749Z</time>
      </trkpt>
      <trkpt lat="46.58587" lon="5.47762">
        <ele>391</ele>
        <time>2021-05-29T08:56:29.749Z</time>
      </trkpt>
      <trkpt lat="46.58587" lon="5.47762">
        <ele>391</ele>
        <time>2021-05-29T08:56:30.748Z</time>
      </trkpt>
      <trkpt lat="46.58587" lon="5.47762">
        <ele>390</ele>
        <time>2021-05-29T08:56:31.749Z</time>
      </trkpt>
      <trkpt lat="46.58587" lon="5.47762">
        <ele>390</ele>
        <time>2021-05-29T08:56:32.749Z</time>
      </trkpt>
      <trkpt lat="46.58587" lon="5.47761">
        <ele>390</ele>
        <time>2021-05-29T08:56:33.749Z</time>
      </trkpt>
      <trkpt lat="46.58588" lon="5.47761">
        <ele>390</ele>
        <time>2021-05-29T08:56:34.748Z</time>
      </trkpt>
      <trkpt lat="46.58588" lon="5.47762">
        <ele>390</ele>
        <time>2021-05-29T08:56:35.749Z</time>
      </trkpt>
      <trkpt lat="46.58588" lon="5.47762">
        <ele>390</ele>
        <time>2021-05-29T08:56:36.749Z</time>
      </trkpt>
      <trkpt lat="46.58608" lon="5.47766">
        <ele>384</ele>
        <time>2021-05-29T08:56:37.750Z</time>
      </trkpt>
      <trkpt lat="46.58609" lon="5.47766">
        <ele>385</ele>
        <time>2021-05-29T08:56:38.750Z</time>
      </trkpt>
      <trkpt lat="46.5861" lon="5.47766">
        <ele>385</ele>
        <time>2021-05-29T08:56:39.750Z</time>
      </trkpt>
      <trkpt lat="46.5861" lon="5.47766">
        <ele>386</ele>
        <time>2021-05-29T08:56:40.749Z</time>
      </trkpt>
      <trkpt lat="46.58612" lon="5.47767">
        <ele>386</ele>
        <time>2021-05-29T08:56:41.749Z</time>
      </trkpt>
      <trkpt lat="46.58613" lon="5.47768">
        <ele>386</ele>
        <time>2021-05-29T08:56:42.750Z</time>
      </trkpt>
      <trkpt lat="46.58615" lon="5.47769">
        <ele>387</ele>
        <time>2021-05-29T08:56:43.750Z</time>
      </trkpt>
      <trkpt lat="46.58618" lon="5.4777">
        <ele>387</ele>
        <time>2021-05-29T08:56:44.750Z</time>
      </trkpt>
      <trkpt lat="46.5862" lon="5.47771">
        <ele>387</ele>
        <time>2021-05-29T08:56:45.750Z</time>
      </trkpt>
      <trkpt lat="46.58623" lon="5.47773">
        <ele>386</ele>
        <time>2021-05-29T08:56:46.749Z</time>
      </trkpt>
      <trkpt lat="46.58626" lon="5.47774">
        <ele>385</ele>
        <time>2021-05-29T08:56:47.749Z</time>
      </trkpt>
      <trkpt lat="46.58628" lon="5.47776">
        <ele>384</ele>
        <time>2021-05-29T08:56:48.750Z</time>
      </trkpt>
      <trkpt lat="46.5863" lon="5.47777">
        <ele>383</ele>
        <time>2021-05-29T08:56:49.750Z</time>
      </trkpt>
      <trkpt lat="46.58633" lon="5.47778">
        <ele>383</ele>
        <time>2021-05-29T08:56:50.750Z</time>
      </trkpt>
      <trkpt lat="46.58635" lon="5.4778">
        <ele>382</ele>
        <time>2021-05-29T08:56:51.749Z</time>
      </trkpt>
      <trkpt lat="46.58635" lon="5.47781">
        <ele>382</ele>
        <time>2021-05-29T08:56:52.750Z</time>
      </trkpt>
      <trkpt lat="46.58637" lon="5.47782">
        <ele>382</ele>
        <time>2021-05-29T08:56:53.750Z</time>
      </trkpt>
      <trkpt lat="46.58638" lon="5.47783">
        <ele>381</ele>
        <time>2021-05-29T08:56:54.750Z</time>
      </trkpt>
      <trkpt lat="46.5864" lon="5.47784">
        <ele>382</ele>
        <time>2021-05-29T08:56:55.750Z</time>
      </trkpt>
      <trkpt lat="46.58643" lon="5.47784">
        <ele>382</ele>
        <time>2021-05-29T08:56:56.750Z</time>
      </trkpt>
      <trkpt lat="46.58646" lon="5.47785">
        <ele>382</ele>
        <time>2021-05-29T08:56:57.750Z</time>
      </trkpt>
      <trkpt lat="46.58648" lon="5.47786">
        <ele>382</ele>
        <time>2021-05-29T08:56:58.749Z</time>
      </trkpt>
      <trkpt lat="46.58651" lon="5.47787">
        <ele>382</ele>
        <time>2021-05-29T08:56:59.750Z</time>
      </trkpt>
      <trkpt lat="46.58653" lon="5.47788">
        <ele>382</ele>
        <time>2021-05-29T08:57:00.750Z</time>
      </trkpt>
      <trkpt lat="46.58656" lon="5.4779">
        <ele>382</ele>
        <time>2021-05-29T08:57:01.749Z</time>
      </trkpt>
      <trkpt lat="46.58658" lon="5.47791">
        <ele>382</ele>
        <time>2021-05-29T08:57:02.750Z</time>
      </trkpt>
      <trkpt lat="46.5866" lon="5.47793">
        <ele>382</ele>
        <time>2021-05-29T08:57:03.750Z</time>
      </trkpt>
      <trkpt lat="46.58663" lon="5.47795">
        <ele>382</ele>
        <time>2021-05-29T08:57:04.749Z</time>
      </trkpt>
      <trkpt lat="46.58665" lon="5.47797">
        <ele>382</ele>
        <time>2021-05-29T08:57:05.750Z</time>
      </trkpt>
      <trkpt lat="46.58668" lon="5.47798">
        <ele>382</ele>
        <time>2021-05-29T08:57:06.749Z</time>
      </trkpt>
      <trkpt lat="46.5867" lon="5.478">
        <ele>382</ele>
        <time>2021-05-29T08:57:07.750Z</time>
      </trkpt>
      <trkpt lat="46.58672" lon="5.47802">
        <ele>382</ele>
        <time>2021-05-29T08:57:08.750Z</time>
      </trkpt>
      <trkpt lat="46.58674" lon="5.47805">
        <ele>382</ele>
        <time>2021-05-29T08:57:09.750Z</time>
      </trkpt>
      <trkpt lat="46.58676" lon="5.47807">
        <ele>382</ele>
        <time>2021-05-29T08:57:10.750Z</time>
      </trkpt>
      <trkpt lat="46.58678" lon="5.47809">
        <ele>382</ele>
        <time>2021-05-29T08:57:11.750Z</time>
      </trkpt>
      <trkpt lat="46.5868" lon="5.47812">
        <ele>382</ele>
        <time>2021-05-29T08:57:12.750Z</time>
      </trkpt>
      <trkpt lat="46.58682" lon="5.47814">
        <ele>382</ele>
        <time>2021-05-29T08:57:13.750Z</time>
      </trkpt>
      <trkpt lat="46.58683" lon="5.47817">
        <ele>382</ele>
        <time>2021-05-29T08:57:14.750Z</time>
      </trkpt>
      <trkpt lat="46.58685" lon="5.47819">
        <ele>381</ele>
        <time>2021-05-29T08:57:15.749Z</time>
      </trkpt>
      <trkpt lat="46.58686" lon="5.47822">
        <ele>381</ele>
        <time>2021-05-29T08:57:16.750Z</time>
      </trkpt>
      <trkpt lat="46.58688" lon="5.47825">
        <ele>380</ele>
        <time>2021-05-29T08:57:17.750Z</time>
      </trkpt>
      <trkpt lat="46.58689" lon="5.47828">
        <ele>380</ele>
        <time>2021-05-29T08:57:18.750Z</time>
      </trkpt>
      <trkpt lat="46.5869" lon="5.47832">
        <ele>380</ele>
        <time>2021-05-29T08:57:19.749Z</time>
      </trkpt>
      <trkpt lat="46.5869" lon="5.47835">
        <ele>379</ele>
        <time>2021-05-29T08:57:20.749Z</time>
      </trkpt>
      <trkpt lat="46.5869" lon="5.47838">
        <ele>379</ele>
        <time>2021-05-29T08:57:21.750Z</time>
      </trkpt>
      <trkpt lat="46.58691" lon="5.47841">
        <ele>379</ele>
        <time>2021-05-29T08:57:22.750Z</time>
      </trkpt>
      <trkpt lat="46.58691" lon="5.47844">
        <ele>379</ele>
        <time>2021-05-29T08:57:23.750Z</time>
      </trkpt>
      <trkpt lat="46.58691" lon="5.47847">
        <ele>378</ele>
        <time>2021-05-29T08:57:24.750Z</time>
      </trkpt>
      <trkpt lat="46.58691" lon="5.4785">
        <ele>378</ele>
        <time>2021-05-29T08:57:25.750Z</time>
      </trkpt>
      <trkpt lat="46.58691" lon="5.47854">
        <ele>378</ele>
        <time>2021-05-29T08:57:26.749Z</time>
      </trkpt>
      <trkpt lat="46.58691" lon="5.47857">
        <ele>378</ele>
        <time>2021-05-29T08:57:27.749Z</time>
      </trkpt>
      <trkpt lat="46.58691" lon="5.4786">
        <ele>377</ele>
        <time>2021-05-29T08:57:28.750Z</time>
      </trkpt>
      <trkpt lat="46.58691" lon="5.47863">
        <ele>377</ele>
        <time>2021-05-29T08:57:29.750Z</time>
      </trkpt>
      <trkpt lat="46.58691" lon="5.47866">
        <ele>377</ele>
        <time>2021-05-29T08:57:30.750Z</time>
      </trkpt>
      <trkpt lat="46.58692" lon="5.4787">
        <ele>378</ele>
        <time>2021-05-29T08:57:31.750Z</time>
      </trkpt>
      <trkpt lat="46.58692" lon="5.47873">
        <ele>378</ele>
        <time>2021-05-29T08:57:32.750Z</time>
      </trkpt>
      <trkpt lat="46.58692" lon="5.47877">
        <ele>378</ele>
        <time>2021-05-29T08:57:33.750Z</time>
      </trkpt>
      <trkpt lat="46.58693" lon="5.47881">
        <ele>378</ele>
        <time>2021-05-29T08:57:34.750Z</time>
      </trkpt>
      <trkpt lat="46.58693" lon="5.47885">
        <ele>379</ele>
        <time>2021-05-29T08:57:35.749Z</time>
      </trkpt>
      <trkpt lat="46.58693" lon="5.47888">
        <ele>379</ele>
        <time>2021-05-29T08:57:36.750Z</time>
      </trkpt>
      <trkpt lat="46.58692" lon="5.47892">
        <ele>379</ele>
        <time>2021-05-29T08:57:37.749Z</time>
      </trkpt>
      <trkpt lat="46.58692" lon="5.47896">
        <ele>379</ele>
        <time>2021-05-29T08:57:38.749Z</time>
      </trkpt>
      <trkpt lat="46.58692" lon="5.47899">
        <ele>379</ele>
        <time>2021-05-29T08:57:39.749Z</time>
      </trkpt>
      <trkpt lat="46.58691" lon="5.47903">
        <ele>378</ele>
        <time>2021-05-29T08:57:40.749Z</time>
      </trkpt>
      <trkpt lat="46.58691" lon="5.47906">
        <ele>378</ele>
        <time>2021-05-29T08:58:35.425Z</time>
      </trkpt>
      <trkpt lat="46.5869" lon="5.47909">
        <ele>378</ele>
        <time>2021-05-29T08:58:36.424Z</time>
      </trkpt>
      <trkpt lat="46.58689" lon="5.47913">
        <ele>378</ele>
        <time>2021-05-29T08:58:37.424Z</time>
      </trkpt>
      <trkpt lat="46.58689" lon="5.47916">
        <ele>377</ele>
        <time>2021-05-29T08:58:38.424Z</time>
      </trkpt>
      <trkpt lat="46.58688" lon="5.4792">
        <ele>377</ele>
        <time>2021-05-29T08:58:39.424Z</time>
      </trkpt>
      <trkpt lat="46.58688" lon="5.47924">
        <ele>377</ele>
        <time>2021-05-29T08:58:40.425Z</time>
      </trkpt>
      <trkpt lat="46.58687" lon="5.47927">
        <ele>377</ele>
        <time>2021-05-29T08:58:41.425Z</time>
      </trkpt>
      <trkpt lat="46.58687" lon="5.47931">
        <ele>377</ele>
        <time>2021-05-29T08:58:42.425Z</time>
      </trkpt>
      <trkpt lat="46.58687" lon="5.47935">
        <ele>376</ele>
        <time>2021-05-29T08:58:43.425Z</time>
      </trkpt>
      <trkpt lat="46.58687" lon="5.47939">
        <ele>376</ele>
        <time>2021-05-29T08:58:44.425Z</time>
      </trkpt>
      <trkpt lat="46.58687" lon="5.47943">
        <ele>376</ele>
        <time>2021-05-29T08:58:45.425Z</time>
      </trkpt>
      <trkpt lat="46.58688" lon="5.47947">
        <ele>375</ele>
        <time>2021-05-29T08:58:46.424Z</time>
      </trkpt>
      <trkpt lat="46.58687" lon="5.47951">
        <ele>375</ele>
        <time>2021-05-29T08:58:47.424Z</time>
      </trkpt>
      <trkpt lat="46.58687" lon="5.47954">
        <ele>375</ele>
        <time>2021-05-29T08:58:48.425Z</time>
      </trkpt>
      <trkpt lat="46.58687" lon="5.47958">
        <ele>374</ele>
        <time>2021-05-29T08:58:49.425Z</time>
      </trkpt>
      <trkpt lat="46.58687" lon="5.47962">
        <ele>374</ele>
        <time>2021-05-29T08:58:50.425Z</time>
      </trkpt>
      <trkpt lat="46.58687" lon="5.47965">
        <ele>374</ele>
        <time>2021-05-29T08:58:51.425Z</time>
      </trkpt>
      <trkpt lat="46.58687" lon="5.47969">
        <ele>374</ele>
        <time>2021-05-29T08:58:52.425Z</time>
      </trkpt>
      <trkpt lat="46.58687" lon="5.47972">
        <ele>374</ele>
        <time>2021-05-29T08:58:53.425Z</time>
      </trkpt>
      <trkpt lat="46.58687" lon="5.47976">
        <ele>374</ele>
        <time>2021-05-29T08:58:54.424Z</time>
      </trkpt>
      <trkpt lat="46.58687" lon="5.4798">
        <ele>373</ele>
        <time>2021-05-29T08:58:55.424Z</time>
      </trkpt>
      <trkpt lat="46.58686" lon="5.47984">
        <ele>373</ele>
        <time>2021-05-29T08:58:56.425Z</time>
      </trkpt>
      <trkpt lat="46.58686" lon="5.47989">
        <ele>373</ele>
        <time>2021-05-29T08:58:57.425Z</time>
      </trkpt>
      <trkpt lat="46.58687" lon="5.47993">
        <ele>373</ele>
        <time>2021-05-29T08:58:58.425Z</time>
      </trkpt>
      <trkpt lat="46.58688" lon="5.47997">
        <ele>373</ele>
        <time>2021-05-29T08:58:59.424Z</time>
      </trkpt>
      <trkpt lat="46.58688" lon="5.48001">
        <ele>373</ele>
        <time>2021-05-29T08:59:00.425Z</time>
      </trkpt>
      <trkpt lat="46.58689" lon="5.48005">
        <ele>373</ele>
        <time>2021-05-29T08:59:01.425Z</time>
      </trkpt>
      <trkpt lat="46.58689" lon="5.48009">
        <ele>373</ele>
        <time>2021-05-29T08:59:02.425Z</time>
      </trkpt>
      <trkpt lat="46.5869" lon="5.48013">
        <ele>374</ele>
        <time>2021-05-29T08:59:03.424Z</time>
      </trkpt>
      <trkpt lat="46.58691" lon="5.48017">
        <ele>374</ele>
        <time>2021-05-29T08:59:04.424Z</time>
      </trkpt>
      <trkpt lat="46.58692" lon="5.48021">
        <ele>374</ele>
        <time>2021-05-29T08:59:05.425Z</time>
      </trkpt>
      <trkpt lat="46.58693" lon="5.48024">
        <ele>375</ele>
        <time>2021-05-29T08:59:06.424Z</time>
      </trkpt>
      <trkpt lat="46.58695" lon="5.48028">
        <ele>375</ele>
        <time>2021-05-29T08:59:07.425Z</time>
      </trkpt>
      <trkpt lat="46.58696" lon="5.48032">
        <ele>376</ele>
        <time>2021-05-29T08:59:08.424Z</time>
      </trkpt>
      <trkpt lat="46.58697" lon="5.48036">
        <ele>376</ele>
        <time>2021-05-29T08:59:09.425Z</time>
      </trkpt>
      <trkpt lat="46.58697" lon="5.48039">
        <ele>377</ele>
        <time>2021-05-29T08:59:10.425Z</time>
      </trkpt>
      <trkpt lat="46.58698" lon="5.48043">
        <ele>378</ele>
        <time>2021-05-29T08:59:11.425Z</time>
      </trkpt>
      <trkpt lat="46.58699" lon="5.48047">
        <ele>378</ele>
        <time>2021-05-29T08:59:12.424Z</time>
      </trkpt>
      <trkpt lat="46.587" lon="5.4805">
        <ele>379</ele>
        <time>2021-05-29T08:59:13.425Z</time>
      </trkpt>
      <trkpt lat="46.58702" lon="5.48055">
        <ele>379</ele>
        <time>2021-05-29T08:59:14.425Z</time>
      </trkpt>
      <trkpt lat="46.58703" lon="5.48058">
        <ele>380</ele>
        <time>2021-05-29T08:59:15.424Z</time>
      </trkpt>
      <trkpt lat="46.58705" lon="5.48061">
        <ele>380</ele>
        <time>2021-05-29T08:59:16.425Z</time>
      </trkpt>
      <trkpt lat="46.58706" lon="5.48064">
        <ele>380</ele>
        <time>2021-05-29T08:59:17.425Z</time>
      </trkpt>
      <trkpt lat="46.58706" lon="5.48067">
        <ele>380</ele>
        <time>2021-05-29T08:59:18.425Z</time>
      </trkpt>
      <trkpt lat="46.58707" lon="5.48069">
        <ele>380</ele>
        <time>2021-05-29T08:59:19.424Z</time>
      </trkpt>
      <trkpt lat="46.58709" lon="5.48071">
        <ele>380</ele>
        <time>2021-05-29T08:59:20.424Z</time>
      </trkpt>
      <trkpt lat="46.5871" lon="5.48073">
        <ele>381</ele>
        <time>2021-05-29T08:59:21.425Z</time>
      </trkpt>
      <trkpt lat="46.58711" lon="5.48075">
        <ele>381</ele>
        <time>2021-05-29T08:59:22.425Z</time>
      </trkpt>
      <trkpt lat="46.58713" lon="5.48077">
        <ele>381</ele>
        <time>2021-05-29T08:59:23.424Z</time>
      </trkpt>
      <trkpt lat="46.58715" lon="5.48079">
        <ele>381</ele>
        <time>2021-05-29T08:59:24.425Z</time>
      </trkpt>
      <trkpt lat="46.58717" lon="5.48081">
        <ele>381</ele>
        <time>2021-05-29T08:59:25.424Z</time>
      </trkpt>
      <trkpt lat="46.58719" lon="5.48083">
        <ele>381</ele>
        <time>2021-05-29T08:59:26.425Z</time>
      </trkpt>
      <trkpt lat="46.58721" lon="5.48086">
        <ele>381</ele>
        <time>2021-05-29T08:59:27.425Z</time>
      </trkpt>
      <trkpt lat="46.58723" lon="5.48088">
        <ele>382</ele>
        <time>2021-05-29T08:59:28.425Z</time>
      </trkpt>
      <trkpt lat="46.58724" lon="5.4809">
        <ele>382</ele>
        <time>2021-05-29T08:59:29.425Z</time>
      </trkpt>
      <trkpt lat="46.58726" lon="5.48092">
        <ele>382</ele>
        <time>2021-05-29T08:59:30.425Z</time>
      </trkpt>
      <trkpt lat="46.58728" lon="5.48095">
        <ele>382</ele>
        <time>2021-05-29T08:59:31.425Z</time>
      </trkpt>
      <trkpt lat="46.5873" lon="5.48097">
        <ele>383</ele>
        <time>2021-05-29T08:59:32.425Z</time>
      </trkpt>
      <trkpt lat="46.58733" lon="5.481">
        <ele>383</ele>
        <time>2021-05-29T08:59:33.425Z</time>
      </trkpt>
      <trkpt lat="46.58735" lon="5.48102">
        <ele>384</ele>
        <time>2021-05-29T08:59:34.425Z</time>
      </trkpt>
      <trkpt lat="46.58738" lon="5.48105">
        <ele>384</ele>
        <time>2021-05-29T08:59:35.425Z</time>
      </trkpt>
      <trkpt lat="46.58739" lon="5.48107">
        <ele>384</ele>
        <time>2021-05-29T08:59:36.424Z</time>
      </trkpt>
      <trkpt lat="46.58741" lon="5.48109">
        <ele>385</ele>
        <time>2021-05-29T08:59:37.425Z</time>
      </trkpt>
      <trkpt lat="46.58742" lon="5.4811">
        <ele>385</ele>
        <time>2021-05-29T08:59:38.425Z</time>
      </trkpt>
      <trkpt lat="46.58744" lon="5.48113">
        <ele>386</ele>
        <time>2021-05-29T08:59:39.425Z</time>
      </trkpt>
      <trkpt lat="46.58745" lon="5.48115">
        <ele>387</ele>
        <time>2021-05-29T08:59:40.425Z</time>
      </trkpt>
      <trkpt lat="46.58746" lon="5.48117">
        <ele>387</ele>
        <time>2021-05-29T08:59:41.425Z</time>
      </trkpt>
      <trkpt lat="46.58748" lon="5.4812">
        <ele>387</ele>
        <time>2021-05-29T08:59:42.425Z</time>
      </trkpt>
      <trkpt lat="46.58749" lon="5.48122">
        <ele>388</ele>
        <time>2021-05-29T08:59:43.424Z</time>
      </trkpt>
      <trkpt lat="46.5875" lon="5.48123">
        <ele>388</ele>
        <time>2021-05-29T08:59:44.425Z</time>
      </trkpt>
      <trkpt lat="46.58751" lon="5.48125">
        <ele>388</ele>
        <time>2021-05-29T08:59:45.425Z</time>
      </trkpt>
      <trkpt lat="46.58752" lon="5.48126">
        <ele>388</ele>
        <time>2021-05-29T08:59:46.424Z</time>
      </trkpt>
      <trkpt lat="46.58753" lon="5.48127">
        <ele>388</ele>
        <time>2021-05-29T08:59:47.424Z</time>
      </trkpt>
      <trkpt lat="46.58754" lon="5.48127">
        <ele>389</ele>
        <time>2021-05-29T08:59:48.424Z</time>
      </trkpt>
      <trkpt lat="46.58755" lon="5.48128">
        <ele>389</ele>
        <time>2021-05-29T08:59:49.425Z</time>
      </trkpt>
      <trkpt lat="46.58755" lon="5.48129">
        <ele>389</ele>
        <time>2021-05-29T08:59:50.425Z</time>
      </trkpt>
      <trkpt lat="46.58756" lon="5.4813">
        <ele>389</ele>
        <time>2021-05-29T08:59:51.425Z</time>
      </trkpt>
      <trkpt lat="46.58758" lon="5.48131">
        <ele>389</ele>
        <time>2021-05-29T08:59:52.425Z</time>
      </trkpt>
      <trkpt lat="46.58759" lon="5.48132">
        <ele>389</ele>
        <time>2021-05-29T08:59:53.424Z</time>
      </trkpt>
      <trkpt lat="46.5876" lon="5.48133">
        <ele>389</ele>
        <time>2021-05-29T08:59:54.425Z</time>
      </trkpt>
      <trkpt lat="46.58761" lon="5.48132">
        <ele>389</ele>
        <time>2021-05-29T08:59:55.425Z</time>
      </trkpt>
      <trkpt lat="46.58762" lon="5.48132">
        <ele>389</ele>
        <time>2021-05-29T08:59:56.425Z</time>
      </trkpt>
      <trkpt lat="46.58764" lon="5.48133">
        <ele>389</ele>
        <time>2021-05-29T08:59:57.425Z</time>
      </trkpt>
      <trkpt lat="46.58766" lon="5.48133">
        <ele>389</ele>
        <time>2021-05-29T08:59:58.425Z</time>
      </trkpt>
      <trkpt lat="46.58769" lon="5.48133">
        <ele>389</ele>
        <time>2021-05-29T08:59:59.425Z</time>
      </trkpt>
      <trkpt lat="46.58772" lon="5.48133">
        <ele>388</ele>
        <time>2021-05-29T09:00:00.424Z</time>
      </trkpt>
      <trkpt lat="46.58775" lon="5.48135">
        <ele>388</ele>
        <time>2021-05-29T09:00:01.424Z</time>
      </trkpt>
      <trkpt lat="46.58777" lon="5.48137">
        <ele>388</ele>
        <time>2021-05-29T09:00:02.425Z</time>
      </trkpt>
      <trkpt lat="46.58779" lon="5.4814">
        <ele>387</ele>
        <time>2021-05-29T09:00:03.425Z</time>
      </trkpt>
      <trkpt lat="46.58782" lon="5.4814">
        <ele>387</ele>
        <time>2021-05-29T09:00:04.425Z</time>
      </trkpt>
      <trkpt lat="46.58784" lon="5.4814">
        <ele>387</ele>
        <time>2021-05-29T09:00:05.425Z</time>
      </trkpt>
      <trkpt lat="46.58786" lon="5.4814">
        <ele>387</ele>
        <time>2021-05-29T09:00:06.424Z</time>
      </trkpt>
      <trkpt lat="46.58788" lon="5.48141">
        <ele>386</ele>
        <time>2021-05-29T09:00:07.425Z</time>
      </trkpt>
      <trkpt lat="46.5879" lon="5.48142">
        <ele>386</ele>
        <time>2021-05-29T09:00:08.424Z</time>
      </trkpt>
      <trkpt lat="46.58793" lon="5.48144">
        <ele>386</ele>
        <time>2021-05-29T09:00:09.425Z</time>
      </trkpt>
      <trkpt lat="46.58795" lon="5.48147">
        <ele>386</ele>
        <time>2021-05-29T09:00:10.425Z</time>
      </trkpt>
      <trkpt lat="46.58797" lon="5.48149">
        <ele>386</ele>
        <time>2021-05-29T09:00:11.425Z</time>
      </trkpt>
      <trkpt lat="46.58798" lon="5.48152">
        <ele>386</ele>
        <time>2021-05-29T09:00:12.425Z</time>
      </trkpt>
      <trkpt lat="46.588" lon="5.48153">
        <ele>386</ele>
        <time>2021-05-29T09:00:13.425Z</time>
      </trkpt>
      <trkpt lat="46.58802" lon="5.48154">
        <ele>385</ele>
        <time>2021-05-29T09:00:14.425Z</time>
      </trkpt>
      <trkpt lat="46.58804" lon="5.48155">
        <ele>385</ele>
        <time>2021-05-29T09:00:15.425Z</time>
      </trkpt>
      <trkpt lat="46.58805" lon="5.48155">
        <ele>384</ele>
        <time>2021-05-29T09:00:16.424Z</time>
      </trkpt>
      <trkpt lat="46.58807" lon="5.48155">
        <ele>384</ele>
        <time>2021-05-29T09:00:17.424Z</time>
      </trkpt>
      <trkpt lat="46.58808" lon="5.48156">
        <ele>384</ele>
        <time>2021-05-29T09:00:18.425Z</time>
      </trkpt>
      <trkpt lat="46.5881" lon="5.48156">
        <ele>383</ele>
        <time>2021-05-29T09:00:19.425Z</time>
      </trkpt>
      <trkpt lat="46.58812" lon="5.48156">
        <ele>383</ele>
        <time>2021-05-29T09:00:20.424Z</time>
      </trkpt>
      <trkpt lat="46.58813" lon="5.48156">
        <ele>383</ele>
        <time>2021-05-29T09:00:21.425Z</time>
      </trkpt>
      <trkpt lat="46.58815" lon="5.48155">
        <ele>382</ele>
        <time>2021-05-29T09:00:22.425Z</time>
      </trkpt>
      <trkpt lat="46.58817" lon="5.48156">
        <ele>382</ele>
        <time>2021-05-29T09:00:23.424Z</time>
      </trkpt>
      <trkpt lat="46.58818" lon="5.48157">
        <ele>381</ele>
        <time>2021-05-29T09:00:24.425Z</time>
      </trkpt>
      <trkpt lat="46.5882" lon="5.48158">
        <ele>381</ele>
        <time>2021-05-29T09:00:25.425Z</time>
      </trkpt>
      <trkpt lat="46.58822" lon="5.48159">
        <ele>381</ele>
        <time>2021-05-29T09:00:26.425Z</time>
      </trkpt>
      <trkpt lat="46.58824" lon="5.48161">
        <ele>381</ele>
        <time>2021-05-29T09:00:27.425Z</time>
      </trkpt>
      <trkpt lat="46.58827" lon="5.48162">
        <ele>380</ele>
        <time>2021-05-29T09:00:28.425Z</time>
      </trkpt>
      <trkpt lat="46.58829" lon="5.48163">
        <ele>380</ele>
        <time>2021-05-29T09:00:29.424Z</time>
      </trkpt>
      <trkpt lat="46.58831" lon="5.48164">
        <ele>380</ele>
        <time>2021-05-29T09:00:30.425Z</time>
      </trkpt>
      <trkpt lat="46.58832" lon="5.48166">
        <ele>380</ele>
        <time>2021-05-29T09:00:31.425Z</time>
      </trkpt>
      <trkpt lat="46.58834" lon="5.48167">
        <ele>380</ele>
        <time>2021-05-29T09:00:32.425Z</time>
      </trkpt>
      <trkpt lat="46.58836" lon="5.48169">
        <ele>380</ele>
        <time>2021-05-29T09:00:33.425Z</time>
      </trkpt>
      <trkpt lat="46.58838" lon="5.48171">
        <ele>380</ele>
        <time>2021-05-29T09:00:34.425Z</time>
      </trkpt>
      <trkpt lat="46.5884" lon="5.48173">
        <ele>380</ele>
        <time>2021-05-29T09:00:35.424Z</time>
      </trkpt>
      <trkpt lat="46.58842" lon="5.48175">
        <ele>380</ele>
        <time>2021-05-29T09:00:36.425Z</time>
      </trkpt>
      <trkpt lat="46.58844" lon="5.48176">
        <ele>380</ele>
        <time>2021-05-29T09:00:37.424Z</time>
      </trkpt>
      <trkpt lat="46.58845" lon="5.48177">
        <ele>380</ele>
        <time>2021-05-29T09:00:38.424Z</time>
      </trkpt>
      <trkpt lat="46.58847" lon="5.48178">
        <ele>379</ele>
        <time>2021-05-29T09:00:39.425Z</time>
      </trkpt>
      <trkpt lat="46.58848" lon="5.4818">
        <ele>379</ele>
        <time>2021-05-29T09:00:40.425Z</time>
      </trkpt>
      <trkpt lat="46.58849" lon="5.48182">
        <ele>379</ele>
        <time>2021-05-29T09:00:41.425Z</time>
      </trkpt>
      <trkpt lat="46.5885" lon="5.48183">
        <ele>379</ele>
        <time>2021-05-29T09:00:42.425Z</time>
      </trkpt>
      <trkpt lat="46.58851" lon="5.48184">
        <ele>379</ele>
        <time>2021-05-29T09:00:43.424Z</time>
      </trkpt>
      <trkpt lat="46.58852" lon="5.48186">
        <ele>379</ele>
        <time>2021-05-29T09:00:44.424Z</time>
      </trkpt>
      <trkpt lat="46.58853" lon="5.48187">
        <ele>379</ele>
        <time>2021-05-29T09:00:45.424Z</time>
      </trkpt>
      <trkpt lat="46.58854" lon="5.48188">
        <ele>379</ele>
        <time>2021-05-29T09:00:46.425Z</time>
      </trkpt>
      <trkpt lat="46.58856" lon="5.48189">
        <ele>379</ele>
        <time>2021-05-29T09:00:47.425Z</time>
      </trkpt>
      <trkpt lat="46.58857" lon="5.4819">
        <ele>379</ele>
        <time>2021-05-29T09:00:48.425Z</time>
      </trkpt>
      <trkpt lat="46.58858" lon="5.48191">
        <ele>380</ele>
        <time>2021-05-29T09:00:49.425Z</time>
      </trkpt>
      <trkpt lat="46.58859" lon="5.48192">
        <ele>380</ele>
        <time>2021-05-29T09:00:50.424Z</time>
      </trkpt>
      <trkpt lat="46.58861" lon="5.48193">
        <ele>380</ele>
        <time>2021-05-29T09:00:51.425Z</time>
      </trkpt>
      <trkpt lat="46.58863" lon="5.48194">
        <ele>380</ele>
        <time>2021-05-29T09:00:52.425Z</time>
      </trkpt>
      <trkpt lat="46.58864" lon="5.48195">
        <ele>380</ele>
        <time>2021-05-29T09:00:53.425Z</time>
      </trkpt>
      <trkpt lat="46.58867" lon="5.48197">
        <ele>380</ele>
        <time>2021-05-29T09:00:54.425Z</time>
      </trkpt>
      <trkpt lat="46.58869" lon="5.48198">
        <ele>381</ele>
        <time>2021-05-29T09:00:55.424Z</time>
      </trkpt>
      <trkpt lat="46.58871" lon="5.482">
        <ele>381</ele>
        <time>2021-05-29T09:00:56.424Z</time>
      </trkpt>
      <trkpt lat="46.58873" lon="5.48201">
        <ele>381</ele>
        <time>2021-05-29T09:00:57.425Z</time>
      </trkpt>
      <trkpt lat="46.58875" lon="5.48202">
        <ele>381</ele>
        <time>2021-05-29T09:00:58.425Z</time>
      </trkpt>
      <trkpt lat="46.58876" lon="5.48204">
        <ele>381</ele>
        <time>2021-05-29T09:00:59.425Z</time>
      </trkpt>
      <trkpt lat="46.58878" lon="5.48206">
        <ele>381</ele>
        <time>2021-05-29T09:01:00.425Z</time>
      </trkpt>
      <trkpt lat="46.58881" lon="5.48208">
        <ele>381</ele>
        <time>2021-05-29T09:01:01.425Z</time>
      </trkpt>
      <trkpt lat="46.58883" lon="5.4821">
        <ele>381</ele>
        <time>2021-05-29T09:01:02.425Z</time>
      </trkpt>
      <trkpt lat="46.58885" lon="5.48212">
        <ele>381</ele>
        <time>2021-05-29T09:01:03.425Z</time>
      </trkpt>
      <trkpt lat="46.58886" lon="5.48214">
        <ele>381</ele>
        <time>2021-05-29T09:01:04.425Z</time>
      </trkpt>
      <trkpt lat="46.58888" lon="5.48216">
        <ele>381</ele>
        <time>2021-05-29T09:01:05.425Z</time>
      </trkpt>
      <trkpt lat="46.58891" lon="5.48217">
        <ele>381</ele>
        <time>2021-05-29T09:01:06.425Z</time>
      </trkpt>
      <trkpt lat="46.58893" lon="5.48219">
        <ele>382</ele>
        <time>2021-05-29T09:01:07.425Z</time>
      </trkpt>
      <trkpt lat="46.58894" lon="5.48221">
        <ele>382</ele>
        <time>2021-05-29T09:01:08.425Z</time>
      </trkpt>
      <trkpt lat="46.58896" lon="5.48224">
        <ele>382</ele>
        <time>2021-05-29T09:01:09.425Z</time>
      </trkpt>
      <trkpt lat="46.58897" lon="5.48226">
        <ele>382</ele>
        <time>2021-05-29T09:01:10.425Z</time>
      </trkpt>
      <trkpt lat="46.58899" lon="5.48229">
        <ele>382</ele>
        <time>2021-05-29T09:01:11.425Z</time>
      </trkpt>
      <trkpt lat="46.58902" lon="5.48232">
        <ele>382</ele>
        <time>2021-05-29T09:01:12.425Z</time>
      </trkpt>
      <trkpt lat="46.58904" lon="5.48233">
        <ele>383</ele>
        <time>2021-05-29T09:01:13.424Z</time>
      </trkpt>
      <trkpt lat="46.58906" lon="5.48235">
        <ele>383</ele>
        <time>2021-05-29T09:01:14.425Z</time>
      </trkpt>
      <trkpt lat="46.58908" lon="5.48238">
        <ele>383</ele>
        <time>2021-05-29T09:01:15.424Z</time>
      </trkpt>
      <trkpt lat="46.5891" lon="5.4824">
        <ele>383</ele>
        <time>2021-05-29T09:01:16.425Z</time>
      </trkpt>
      <trkpt lat="46.58912" lon="5.48241">
        <ele>383</ele>
        <time>2021-05-29T09:01:17.425Z</time>
      </trkpt>
      <trkpt lat="46.58914" lon="5.48244">
        <ele>384</ele>
        <time>2021-05-29T09:01:18.424Z</time>
      </trkpt>
      <trkpt lat="46.58916" lon="5.48245">
        <ele>384</ele>
        <time>2021-05-29T09:01:19.425Z</time>
      </trkpt>
      <trkpt lat="46.58917" lon="5.48247">
        <ele>384</ele>
        <time>2021-05-29T09:01:20.425Z</time>
      </trkpt>
      <trkpt lat="46.58917" lon="5.48249">
        <ele>385</ele>
        <time>2021-05-29T09:01:21.425Z</time>
      </trkpt>
      <trkpt lat="46.58918" lon="5.4825">
        <ele>385</ele>
        <time>2021-05-29T09:01:22.425Z</time>
      </trkpt>
      <trkpt lat="46.58919" lon="5.48253">
        <ele>385</ele>
        <time>2021-05-29T09:01:23.425Z</time>
      </trkpt>
      <trkpt lat="46.58921" lon="5.48255">
        <ele>385</ele>
        <time>2021-05-29T09:01:24.424Z</time>
      </trkpt>
      <trkpt lat="46.58923" lon="5.48257">
        <ele>386</ele>
        <time>2021-05-29T09:01:25.425Z</time>
      </trkpt>
      <trkpt lat="46.58924" lon="5.4826">
        <ele>386</ele>
        <time>2021-05-29T09:01:26.425Z</time>
      </trkpt>
      <trkpt lat="46.58925" lon="5.48262">
        <ele>385</ele>
        <time>2021-05-29T09:01:27.424Z</time>
      </trkpt>
      <trkpt lat="46.58927" lon="5.48265">
        <ele>385</ele>
        <time>2021-05-29T09:01:28.425Z</time>
      </trkpt>
      <trkpt lat="46.58928" lon="5.48267">
        <ele>385</ele>
        <time>2021-05-29T09:01:29.425Z</time>
      </trkpt>
      <trkpt lat="46.5893" lon="5.4827">
        <ele>385</ele>
        <time>2021-05-29T09:01:30.425Z</time>
      </trkpt>
      <trkpt lat="46.5893" lon="5.48273">
        <ele>385</ele>
        <time>2021-05-29T09:01:31.425Z</time>
      </trkpt>
      <trkpt lat="46.58931" lon="5.48276">
        <ele>384</ele>
        <time>2021-05-29T09:01:32.425Z</time>
      </trkpt>
      <trkpt lat="46.5893" lon="5.48279">
        <ele>384</ele>
        <time>2021-05-29T09:01:33.424Z</time>
      </trkpt>
      <trkpt lat="46.58929" lon="5.48282">
        <ele>384</ele>
        <time>2021-05-29T09:01:34.425Z</time>
      </trkpt>
      <trkpt lat="46.58929" lon="5.48285">
        <ele>384</ele>
        <time>2021-05-29T09:01:35.424Z</time>
      </trkpt>
      <trkpt lat="46.5893" lon="5.48288">
        <ele>384</ele>
        <time>2021-05-29T09:01:36.425Z</time>
      </trkpt>
      <trkpt lat="46.58929" lon="5.48291">
        <ele>383</ele>
        <time>2021-05-29T09:01:37.425Z</time>
      </trkpt>
      <trkpt lat="46.58928" lon="5.48294">
        <ele>383</ele>
        <time>2021-05-29T09:01:38.425Z</time>
      </trkpt>
      <trkpt lat="46.58927" lon="5.48297">
        <ele>383</ele>
        <time>2021-05-29T09:01:39.424Z</time>
      </trkpt>
      <trkpt lat="46.58927" lon="5.483">
        <ele>383</ele>
        <time>2021-05-29T09:01:40.424Z</time>
      </trkpt>
      <trkpt lat="46.58926" lon="5.48303">
        <ele>383</ele>
        <time>2021-05-29T09:01:41.425Z</time>
      </trkpt>
      <trkpt lat="46.58925" lon="5.48305">
        <ele>383</ele>
        <time>2021-05-29T09:01:42.425Z</time>
      </trkpt>
      <trkpt lat="46.58924" lon="5.48308">
        <ele>383</ele>
        <time>2021-05-29T09:01:43.424Z</time>
      </trkpt>
      <trkpt lat="46.58923" lon="5.48311">
        <ele>383</ele>
        <time>2021-05-29T09:01:44.425Z</time>
      </trkpt>
      <trkpt lat="46.58922" lon="5.48314">
        <ele>383</ele>
        <time>2021-05-29T09:01:45.425Z</time>
      </trkpt>
      <trkpt lat="46.5892" lon="5.48316">
        <ele>383</ele>
        <time>2021-05-29T09:01:46.425Z</time>
      </trkpt>
      <trkpt lat="46.5892" lon="5.4832">
        <ele>383</ele>
        <time>2021-05-29T09:01:47.425Z</time>
      </trkpt>
      <trkpt lat="46.58919" lon="5.48323">
        <ele>383</ele>
        <time>2021-05-29T09:01:48.425Z</time>
      </trkpt>
      <trkpt lat="46.58918" lon="5.48325">
        <ele>382</ele>
        <time>2021-05-29T09:01:49.425Z</time>
      </trkpt>
      <trkpt lat="46.58916" lon="5.48327">
        <ele>382</ele>
        <time>2021-05-29T09:01:50.425Z</time>
      </trkpt>
      <trkpt lat="46.58915" lon="5.4833">
        <ele>382</ele>
        <time>2021-05-29T09:01:51.424Z</time>
      </trkpt>
      <trkpt lat="46.58913" lon="5.48332">
        <ele>382</ele>
        <time>2021-05-29T09:01:52.425Z</time>
      </trkpt>
      <trkpt lat="46.58912" lon="5.48334">
        <ele>382</ele>
        <time>2021-05-29T09:01:53.425Z</time>
      </trkpt>
      <trkpt lat="46.5891" lon="5.48336">
        <ele>382</ele>
        <time>2021-05-29T09:01:54.425Z</time>
      </trkpt>
      <trkpt lat="46.58908" lon="5.48337">
        <ele>382</ele>
        <time>2021-05-29T09:01:55.425Z</time>
      </trkpt>
      <trkpt lat="46.58906" lon="5.48338">
        <ele>382</ele>
        <time>2021-05-29T09:01:56.425Z</time>
      </trkpt>
      <trkpt lat="46.58905" lon="5.48339">
        <ele>382</ele>
        <time>2021-05-29T09:01:57.425Z</time>
      </trkpt>
      <trkpt lat="46.58904" lon="5.4834">
        <ele>382</ele>
        <time>2021-05-29T09:01:58.425Z</time>
      </trkpt>
      <trkpt lat="46.58903" lon="5.48341">
        <ele>382</ele>
        <time>2021-05-29T09:01:59.424Z</time>
      </trkpt>
      <trkpt lat="46.58901" lon="5.48341">
        <ele>382</ele>
        <time>2021-05-29T09:02:00.425Z</time>
      </trkpt>
      <trkpt lat="46.589" lon="5.48341">
        <ele>382</ele>
        <time>2021-05-29T09:02:01.425Z</time>
      </trkpt>
      <trkpt lat="46.58898" lon="5.48342">
        <ele>382</ele>
        <time>2021-05-29T09:02:02.425Z</time>
      </trkpt>
      <trkpt lat="46.58897" lon="5.48343">
        <ele>382</ele>
        <time>2021-05-29T09:02:03.425Z</time>
      </trkpt>
      <trkpt lat="46.58896" lon="5.48343">
        <ele>382</ele>
        <time>2021-05-29T09:02:04.424Z</time>
      </trkpt>
      <trkpt lat="46.58895" lon="5.48343">
        <ele>383</ele>
        <time>2021-05-29T09:02:05.425Z</time>
      </trkpt>
      <trkpt lat="46.58893" lon="5.48344">
        <ele>383</ele>
        <time>2021-05-29T09:02:06.425Z</time>
      </trkpt>
      <trkpt lat="46.58892" lon="5.48344">
        <ele>383</ele>
        <time>2021-05-29T09:02:07.424Z</time>
      </trkpt>
      <trkpt lat="46.5889" lon="5.48344">
        <ele>383</ele>
        <time>2021-05-29T09:02:08.425Z</time>
      </trkpt>
      <trkpt lat="46.58889" lon="5.48345">
        <ele>384</ele>
        <time>2021-05-29T09:02:09.424Z</time>
      </trkpt>
      <trkpt lat="46.58888" lon="5.48345">
        <ele>384</ele>
        <time>2021-05-29T09:02:10.425Z</time>
      </trkpt>
      <trkpt lat="46.58886" lon="5.48346">
        <ele>384</ele>
        <time>2021-05-29T09:02:11.425Z</time>
      </trkpt>
      <trkpt lat="46.58884" lon="5.48346">
        <ele>384</ele>
        <time>2021-05-29T09:02:12.424Z</time>
      </trkpt>
      <trkpt lat="46.58882" lon="5.48346">
        <ele>384</ele>
        <time>2021-05-29T09:02:13.425Z</time>
      </trkpt>
      <trkpt lat="46.5888" lon="5.48346">
        <ele>384</ele>
        <time>2021-05-29T09:02:14.425Z</time>
      </trkpt>
      <trkpt lat="46.58878" lon="5.48347">
        <ele>385</ele>
        <time>2021-05-29T09:02:15.425Z</time>
      </trkpt>
      <trkpt lat="46.58878" lon="5.48348">
        <ele>385</ele>
        <time>2021-05-29T09:02:16.425Z</time>
      </trkpt>
      <trkpt lat="46.58877" lon="5.4835">
        <ele>385</ele>
        <time>2021-05-29T09:02:17.425Z</time>
      </trkpt>
      <trkpt lat="46.58876" lon="5.48351">
        <ele>386</ele>
        <time>2021-05-29T09:02:18.425Z</time>
      </trkpt>
      <trkpt lat="46.58874" lon="5.48352">
        <ele>386</ele>
        <time>2021-05-29T09:02:19.425Z</time>
      </trkpt>
      <trkpt lat="46.58873" lon="5.48354">
        <ele>387</ele>
        <time>2021-05-29T09:02:20.424Z</time>
      </trkpt>
      <trkpt lat="46.58872" lon="5.48355">
        <ele>387</ele>
        <time>2021-05-29T09:02:21.424Z</time>
      </trkpt>
      <trkpt lat="46.5887" lon="5.48355">
        <ele>387</ele>
        <time>2021-05-29T09:02:22.425Z</time>
      </trkpt>
      <trkpt lat="46.58869" lon="5.48356">
        <ele>387</ele>
        <time>2021-05-29T09:02:23.425Z</time>
      </trkpt>
      <trkpt lat="46.58868" lon="5.48357">
        <ele>388</ele>
        <time>2021-05-29T09:02:24.424Z</time>
      </trkpt>
      <trkpt lat="46.58866" lon="5.48357">
        <ele>388</ele>
        <time>2021-05-29T09:02:25.425Z</time>
      </trkpt>
      <trkpt lat="46.58865" lon="5.48358">
        <ele>388</ele>
        <time>2021-05-29T09:02:26.425Z</time>
      </trkpt>
      <trkpt lat="46.58863" lon="5.48358">
        <ele>389</ele>
        <time>2021-05-29T09:02:27.425Z</time>
      </trkpt>
      <trkpt lat="46.58862" lon="5.48359">
        <ele>389</ele>
        <time>2021-05-29T09:02:28.425Z</time>
      </trkpt>
      <trkpt lat="46.5886" lon="5.4836">
        <ele>389</ele>
        <time>2021-05-29T09:02:29.425Z</time>
      </trkpt>
      <trkpt lat="46.58858" lon="5.4836">
        <ele>389</ele>
        <time>2021-05-29T09:02:30.425Z</time>
      </trkpt>
      <trkpt lat="46.58855" lon="5.4836">
        <ele>390</ele>
        <time>2021-05-29T09:02:31.425Z</time>
      </trkpt>
      <trkpt lat="46.58854" lon="5.4836">
        <ele>390</ele>
        <time>2021-05-29T09:02:32.424Z</time>
      </trkpt>
      <trkpt lat="46.58852" lon="5.48361">
        <ele>390</ele>
        <time>2021-05-29T09:02:33.425Z</time>
      </trkpt>
      <trkpt lat="46.5885" lon="5.48362">
        <ele>391</ele>
        <time>2021-05-29T09:02:34.425Z</time>
      </trkpt>
      <trkpt lat="46.58848" lon="5.48362">
        <ele>391</ele>
        <time>2021-05-29T09:02:35.425Z</time>
      </trkpt>
      <trkpt lat="46.58846" lon="5.48362">
        <ele>391</ele>
        <time>2021-05-29T09:02:36.425Z</time>
      </trkpt>
      <trkpt lat="46.58844" lon="5.48363">
        <ele>391</ele>
        <time>2021-05-29T09:02:37.425Z</time>
      </trkpt>
      <trkpt lat="46.58842" lon="5.48364">
        <ele>391</ele>
        <time>2021-05-29T09:02:38.425Z</time>
      </trkpt>
      <trkpt lat="46.5884" lon="5.48365">
        <ele>391</ele>
        <time>2021-05-29T09:02:39.425Z</time>
      </trkpt>
      <trkpt lat="46.58838" lon="5.48366">
        <ele>391</ele>
        <time>2021-05-29T09:02:40.425Z</time>
      </trkpt>
      <trkpt lat="46.58837" lon="5.48367">
        <ele>391</ele>
        <time>2021-05-29T09:02:41.425Z</time>
      </trkpt>
      <trkpt lat="46.58835" lon="5.48368">
        <ele>392</ele>
        <time>2021-05-29T09:02:42.425Z</time>
      </trkpt>
      <trkpt lat="46.58833" lon="5.48369">
        <ele>392</ele>
        <time>2021-05-29T09:02:43.424Z</time>
      </trkpt>
      <trkpt lat="46.58831" lon="5.4837">
        <ele>392</ele>
        <time>2021-05-29T09:02:44.424Z</time>
      </trkpt>
      <trkpt lat="46.58829" lon="5.4837">
        <ele>392</ele>
        <time>2021-05-29T09:02:45.424Z</time>
      </trkpt>
      <trkpt lat="46.58828" lon="5.4837">
        <ele>392</ele>
        <time>2021-05-29T09:02:46.424Z</time>
      </trkpt>
      <trkpt lat="46.58826" lon="5.4837">
        <ele>392</ele>
        <time>2021-05-29T09:02:47.425Z</time>
      </trkpt>
      <trkpt lat="46.58824" lon="5.4837">
        <ele>392</ele>
        <time>2021-05-29T09:02:48.425Z</time>
      </trkpt>
      <trkpt lat="46.58822" lon="5.4837">
        <ele>392</ele>
        <time>2021-05-29T09:02:49.425Z</time>
      </trkpt>
      <trkpt lat="46.58821" lon="5.4837">
        <ele>392</ele>
        <time>2021-05-29T09:02:50.425Z</time>
      </trkpt>
      <trkpt lat="46.58819" lon="5.48371">
        <ele>392</ele>
        <time>2021-05-29T09:02:51.425Z</time>
      </trkpt>
      <trkpt lat="46.58816" lon="5.48371">
        <ele>392</ele>
        <time>2021-05-29T09:02:52.425Z</time>
      </trkpt>
      <trkpt lat="46.58814" lon="5.48371">
        <ele>393</ele>
        <time>2021-05-29T09:02:53.425Z</time>
      </trkpt>
      <trkpt lat="46.58813" lon="5.48371">
        <ele>393</ele>
        <time>2021-05-29T09:02:54.425Z</time>
      </trkpt>
      <trkpt lat="46.58811" lon="5.48371">
        <ele>393</ele>
        <time>2021-05-29T09:02:55.425Z</time>
      </trkpt>
      <trkpt lat="46.5881" lon="5.4837">
        <ele>393</ele>
        <time>2021-05-29T09:02:56.425Z</time>
      </trkpt>
      <trkpt lat="46.58809" lon="5.4837">
        <ele>393</ele>
        <time>2021-05-29T09:02:57.424Z</time>
      </trkpt>
      <trkpt lat="46.58808" lon="5.48369">
        <ele>393</ele>
        <time>2021-05-29T09:02:58.425Z</time>
      </trkpt>
      <trkpt lat="46.58807" lon="5.48368">
        <ele>393</ele>
        <time>2021-05-29T09:02:59.424Z</time>
      </trkpt>
      <trkpt lat="46.58804" lon="5.48367">
        <ele>394</ele>
        <time>2021-05-29T09:03:00.425Z</time>
      </trkpt>
      <trkpt lat="46.58801" lon="5.48367">
        <ele>394</ele>
        <time>2021-05-29T09:03:01.424Z</time>
      </trkpt>
      <trkpt lat="46.588" lon="5.48367">
        <ele>394</ele>
        <time>2021-05-29T09:03:02.425Z</time>
      </trkpt>
      <trkpt lat="46.58798" lon="5.48367">
        <ele>394</ele>
        <time>2021-05-29T09:03:03.425Z</time>
      </trkpt>
      <trkpt lat="46.58796" lon="5.48367">
        <ele>394</ele>
        <time>2021-05-29T09:03:04.425Z</time>
      </trkpt>
      <trkpt lat="46.58794" lon="5.48367">
        <ele>394</ele>
        <time>2021-05-29T09:03:05.425Z</time>
      </trkpt>
      <trkpt lat="46.58792" lon="5.48366">
        <ele>395</ele>
        <time>2021-05-29T09:03:06.424Z</time>
      </trkpt>
      <trkpt lat="46.5879" lon="5.48366">
        <ele>395</ele>
        <time>2021-05-29T09:03:07.424Z</time>
      </trkpt>
      <trkpt lat="46.58788" lon="5.48366">
        <ele>395</ele>
        <time>2021-05-29T09:03:08.424Z</time>
      </trkpt>
      <trkpt lat="46.58786" lon="5.48366">
        <ele>395</ele>
        <time>2021-05-29T09:03:09.425Z</time>
      </trkpt>
      <trkpt lat="46.58785" lon="5.48367">
        <ele>395</ele>
        <time>2021-05-29T09:03:10.425Z</time>
      </trkpt>
      <trkpt lat="46.58783" lon="5.48367">
        <ele>395</ele>
        <time>2021-05-29T09:03:11.425Z</time>
      </trkpt>
      <trkpt lat="46.58782" lon="5.48367">
        <ele>395</ele>
        <time>2021-05-29T09:03:12.424Z</time>
      </trkpt>
      <trkpt lat="46.58781" lon="5.48368">
        <ele>395</ele>
        <time>2021-05-29T09:03:13.425Z</time>
      </trkpt>
      <trkpt lat="46.5878" lon="5.48368">
        <ele>395</ele>
        <time>2021-05-29T09:03:14.425Z</time>
      </trkpt>
      <trkpt lat="46.58779" lon="5.48369">
        <ele>395</ele>
        <time>2021-05-29T09:03:15.424Z</time>
      </trkpt>
      <trkpt lat="46.58777" lon="5.48369">
        <ele>396</ele>
        <time>2021-05-29T09:03:16.424Z</time>
      </trkpt>
      <trkpt lat="46.58775" lon="5.48368">
        <ele>396</ele>
        <time>2021-05-29T09:03:17.424Z</time>
      </trkpt>
      <trkpt lat="46.58773" lon="5.48368">
        <ele>396</ele>
        <time>2021-05-29T09:03:18.425Z</time>
      </trkpt>
      <trkpt lat="46.58771" lon="5.48369">
        <ele>396</ele>
        <time>2021-05-29T09:03:19.425Z</time>
      </trkpt>
      <trkpt lat="46.58769" lon="5.4837">
        <ele>396</ele>
        <time>2021-05-29T09:03:20.425Z</time>
      </trkpt>
      <trkpt lat="46.58767" lon="5.4837">
        <ele>397</ele>
        <time>2021-05-29T09:03:21.425Z</time>
      </trkpt>
      <trkpt lat="46.58766" lon="5.4837">
        <ele>397</ele>
        <time>2021-05-29T09:03:22.424Z</time>
      </trkpt>
      <trkpt lat="46.58764" lon="5.48369">
        <ele>397</ele>
        <time>2021-05-29T09:03:23.424Z</time>
      </trkpt>
      <trkpt lat="46.58763" lon="5.48369">
        <ele>397</ele>
        <time>2021-05-29T09:03:24.425Z</time>
      </trkpt>
      <trkpt lat="46.58762" lon="5.48368">
        <ele>397</ele>
        <time>2021-05-29T09:03:25.425Z</time>
      </trkpt>
      <trkpt lat="46.5876" lon="5.48367">
        <ele>397</ele>
        <time>2021-05-29T09:03:26.424Z</time>
      </trkpt>
      <trkpt lat="46.58758" lon="5.48367">
        <ele>397</ele>
        <time>2021-05-29T09:03:27.425Z</time>
      </trkpt>
      <trkpt lat="46.58756" lon="5.48367">
        <ele>397</ele>
        <time>2021-05-29T09:03:28.425Z</time>
      </trkpt>
      <trkpt lat="46.58754" lon="5.48367">
        <ele>397</ele>
        <time>2021-05-29T09:03:29.424Z</time>
      </trkpt>
      <trkpt lat="46.58751" lon="5.48367">
        <ele>398</ele>
        <time>2021-05-29T09:03:30.425Z</time>
      </trkpt>
      <trkpt lat="46.58747" lon="5.48368">
        <ele>398</ele>
        <time>2021-05-29T09:03:31.424Z</time>
      </trkpt>
      <trkpt lat="46.58744" lon="5.48368">
        <ele>398</ele>
        <time>2021-05-29T09:03:32.425Z</time>
      </trkpt>
      <trkpt lat="46.58741" lon="5.48368">
        <ele>398</ele>
        <time>2021-05-29T09:03:33.425Z</time>
      </trkpt>
      <trkpt lat="46.58738" lon="5.48368">
        <ele>398</ele>
        <time>2021-05-29T09:03:34.425Z</time>
      </trkpt>
      <trkpt lat="46.58736" lon="5.48368">
        <ele>398</ele>
        <time>2021-05-29T09:03:35.425Z</time>
      </trkpt>
      <trkpt lat="46.58734" lon="5.48368">
        <ele>397</ele>
        <time>2021-05-29T09:03:36.424Z</time>
      </trkpt>
      <trkpt lat="46.58732" lon="5.48369">
        <ele>397</ele>
        <time>2021-05-29T09:03:37.425Z</time>
      </trkpt>
      <trkpt lat="46.58729" lon="5.48369">
        <ele>397</ele>
        <time>2021-05-29T09:03:38.425Z</time>
      </trkpt>
      <trkpt lat="46.58726" lon="5.4837">
        <ele>397</ele>
        <time>2021-05-29T09:03:39.425Z</time>
      </trkpt>
      <trkpt lat="46.58723" lon="5.48371">
        <ele>397</ele>
        <time>2021-05-29T09:03:40.425Z</time>
      </trkpt>
      <trkpt lat="46.5872" lon="5.48373">
        <ele>397</ele>
        <time>2021-05-29T09:03:41.425Z</time>
      </trkpt>
      <trkpt lat="46.58718" lon="5.48376">
        <ele>396</ele>
        <time>2021-05-29T09:03:42.424Z</time>
      </trkpt>
      <trkpt lat="46.58715" lon="5.48378">
        <ele>396</ele>
        <time>2021-05-29T09:03:43.425Z</time>
      </trkpt>
      <trkpt lat="46.58713" lon="5.4838">
        <ele>396</ele>
        <time>2021-05-29T09:03:44.425Z</time>
      </trkpt>
      <trkpt lat="46.58711" lon="5.48381">
        <ele>396</ele>
        <time>2021-05-29T09:03:45.424Z</time>
      </trkpt>
      <trkpt lat="46.58707" lon="5.48383">
        <ele>396</ele>
        <time>2021-05-29T09:03:46.425Z</time>
      </trkpt>
      <trkpt lat="46.58704" lon="5.48385">
        <ele>396</ele>
        <time>2021-05-29T09:03:47.425Z</time>
      </trkpt>
      <trkpt lat="46.58701" lon="5.48386">
        <ele>396</ele>
        <time>2021-05-29T09:03:48.425Z</time>
      </trkpt>
      <trkpt lat="46.58699" lon="5.48388">
        <ele>395</ele>
        <time>2021-05-29T09:03:49.425Z</time>
      </trkpt>
      <trkpt lat="46.58696" lon="5.4839">
        <ele>395</ele>
        <time>2021-05-29T09:03:50.425Z</time>
      </trkpt>
      <trkpt lat="46.58693" lon="5.48393">
        <ele>395</ele>
        <time>2021-05-29T09:03:51.425Z</time>
      </trkpt>
      <trkpt lat="46.5869" lon="5.48395">
        <ele>395</ele>
        <time>2021-05-29T09:03:52.424Z</time>
      </trkpt>
      <trkpt lat="46.58686" lon="5.48397">
        <ele>395</ele>
        <time>2021-05-29T09:03:53.424Z</time>
      </trkpt>
      <trkpt lat="46.58683" lon="5.48399">
        <ele>395</ele>
        <time>2021-05-29T09:03:54.425Z</time>
      </trkpt>
      <trkpt lat="46.5868" lon="5.48401">
        <ele>395</ele>
        <time>2021-05-29T09:03:55.425Z</time>
      </trkpt>
      <trkpt lat="46.58676" lon="5.48404">
        <ele>395</ele>
        <time>2021-05-29T09:03:56.424Z</time>
      </trkpt>
      <trkpt lat="46.58673" lon="5.48405">
        <ele>395</ele>
        <time>2021-05-29T09:03:57.425Z</time>
      </trkpt>
      <trkpt lat="46.5867" lon="5.48407">
        <ele>395</ele>
        <time>2021-05-29T09:03:58.425Z</time>
      </trkpt>
      <trkpt lat="46.58667" lon="5.48409">
        <ele>395</ele>
        <time>2021-05-29T09:03:59.425Z</time>
      </trkpt>
      <trkpt lat="46.58663" lon="5.4841">
        <ele>394</ele>
        <time>2021-05-29T09:04:00.424Z</time>
      </trkpt>
      <trkpt lat="46.5866" lon="5.48412">
        <ele>394</ele>
        <time>2021-05-29T09:04:01.425Z</time>
      </trkpt>
      <trkpt lat="46.58657" lon="5.48413">
        <ele>394</ele>
        <time>2021-05-29T09:04:02.425Z</time>
      </trkpt>
      <trkpt lat="46.58653" lon="5.48414">
        <ele>394</ele>
        <time>2021-05-29T09:04:03.424Z</time>
      </trkpt>
      <trkpt lat="46.5865" lon="5.48416">
        <ele>394</ele>
        <time>2021-05-29T09:04:04.424Z</time>
      </trkpt>
      <trkpt lat="46.58648" lon="5.48417">
        <ele>393</ele>
        <time>2021-05-29T09:04:05.424Z</time>
      </trkpt>
      <trkpt lat="46.58644" lon="5.48417">
        <ele>393</ele>
        <time>2021-05-29T09:04:06.425Z</time>
      </trkpt>
      <trkpt lat="46.58641" lon="5.4842">
        <ele>393</ele>
        <time>2021-05-29T09:04:07.424Z</time>
      </trkpt>
      <trkpt lat="46.58638" lon="5.48422">
        <ele>392</ele>
        <time>2021-05-29T09:04:08.425Z</time>
      </trkpt>
      <trkpt lat="46.58636" lon="5.48424">
        <ele>392</ele>
        <time>2021-05-29T09:04:09.424Z</time>
      </trkpt>
      <trkpt lat="46.58634" lon="5.48426">
        <ele>392</ele>
        <time>2021-05-29T09:04:10.425Z</time>
      </trkpt>
      <trkpt lat="46.58632" lon="5.48429">
        <ele>392</ele>
        <time>2021-05-29T09:04:11.425Z</time>
      </trkpt>
      <trkpt lat="46.58631" lon="5.48432">
        <ele>392</ele>
        <time>2021-05-29T09:04:12.424Z</time>
      </trkpt>
      <trkpt lat="46.58629" lon="5.48434">
        <ele>392</ele>
        <time>2021-05-29T09:04:13.425Z</time>
      </trkpt>
      <trkpt lat="46.58627" lon="5.48437">
        <ele>392</ele>
        <time>2021-05-29T09:04:14.425Z</time>
      </trkpt>
      <trkpt lat="46.58626" lon="5.48441">
        <ele>392</ele>
        <time>2021-05-29T09:04:15.424Z</time>
      </trkpt>
      <trkpt lat="46.58625" lon="5.48445">
        <ele>391</ele>
        <time>2021-05-29T09:04:16.425Z</time>
      </trkpt>
      <trkpt lat="46.58625" lon="5.48449">
        <ele>391</ele>
        <time>2021-05-29T09:04:17.424Z</time>
      </trkpt>
      <trkpt lat="46.58624" lon="5.48453">
        <ele>391</ele>
        <time>2021-05-29T09:04:18.425Z</time>
      </trkpt>
      <trkpt lat="46.58623" lon="5.48456">
        <ele>391</ele>
        <time>2021-05-29T09:04:19.424Z</time>
      </trkpt>
      <trkpt lat="46.58623" lon="5.48459">
        <ele>391</ele>
        <time>2021-05-29T09:04:20.424Z</time>
      </trkpt>
      <trkpt lat="46.58623" lon="5.48463">
        <ele>391</ele>
        <time>2021-05-29T09:04:21.424Z</time>
      </trkpt>
      <trkpt lat="46.58623" lon="5.48466">
        <ele>391</ele>
        <time>2021-05-29T09:04:22.425Z</time>
      </trkpt>
      <trkpt lat="46.58623" lon="5.4847">
        <ele>391</ele>
        <time>2021-05-29T09:04:23.425Z</time>
      </trkpt>
      <trkpt lat="46.58622" lon="5.48473">
        <ele>390</ele>
        <time>2021-05-29T09:04:24.425Z</time>
      </trkpt>
      <trkpt lat="46.58621" lon="5.48475">
        <ele>390</ele>
        <time>2021-05-29T09:04:25.424Z</time>
      </trkpt>
      <trkpt lat="46.58622" lon="5.48478">
        <ele>390</ele>
        <time>2021-05-29T09:04:26.425Z</time>
      </trkpt>
      <trkpt lat="46.58621" lon="5.48481">
        <ele>390</ele>
        <time>2021-05-29T09:04:27.425Z</time>
      </trkpt>
      <trkpt lat="46.58621" lon="5.48484">
        <ele>390</ele>
        <time>2021-05-29T09:04:28.424Z</time>
      </trkpt>
      <trkpt lat="46.5862" lon="5.48486">
        <ele>390</ele>
        <time>2021-05-29T09:04:29.424Z</time>
      </trkpt>
      <trkpt lat="46.5862" lon="5.48489">
        <ele>390</ele>
        <time>2021-05-29T09:04:30.424Z</time>
      </trkpt>
      <trkpt lat="46.58619" lon="5.48492">
        <ele>390</ele>
        <time>2021-05-29T09:04:31.425Z</time>
      </trkpt>
      <trkpt lat="46.58619" lon="5.48495">
        <ele>390</ele>
        <time>2021-05-29T09:04:32.425Z</time>
      </trkpt>
      <trkpt lat="46.58618" lon="5.48499">
        <ele>390</ele>
        <time>2021-05-29T09:04:33.424Z</time>
      </trkpt>
      <trkpt lat="46.58618" lon="5.48501">
        <ele>390</ele>
        <time>2021-05-29T09:04:34.424Z</time>
      </trkpt>
      <trkpt lat="46.58618" lon="5.48505">
        <ele>390</ele>
        <time>2021-05-29T09:04:35.424Z</time>
      </trkpt>
      <trkpt lat="46.58618" lon="5.48508">
        <ele>390</ele>
        <time>2021-05-29T09:04:36.425Z</time>
      </trkpt>
      <trkpt lat="46.58618" lon="5.48511">
        <ele>390</ele>
        <time>2021-05-29T09:04:37.425Z</time>
      </trkpt>
      <trkpt lat="46.58617" lon="5.48514">
        <ele>390</ele>
        <time>2021-05-29T09:04:38.425Z</time>
      </trkpt>
      <trkpt lat="46.58618" lon="5.48517">
        <ele>390</ele>
        <time>2021-05-29T09:04:39.425Z</time>
      </trkpt>
      <trkpt lat="46.58618" lon="5.4852">
        <ele>390</ele>
        <time>2021-05-29T09:04:40.424Z</time>
      </trkpt>
      <trkpt lat="46.58618" lon="5.48522">
        <ele>390</ele>
        <time>2021-05-29T09:04:41.424Z</time>
      </trkpt>
      <trkpt lat="46.58617" lon="5.48524">
        <ele>390</ele>
        <time>2021-05-29T09:04:42.425Z</time>
      </trkpt>
      <trkpt lat="46.58617" lon="5.48527">
        <ele>390</ele>
        <time>2021-05-29T09:04:43.424Z</time>
      </trkpt>
      <trkpt lat="46.58616" lon="5.4853">
        <ele>390</ele>
        <time>2021-05-29T09:04:44.424Z</time>
      </trkpt>
      <trkpt lat="46.58616" lon="5.48532">
        <ele>391</ele>
        <time>2021-05-29T09:04:45.424Z</time>
      </trkpt>
      <trkpt lat="46.58616" lon="5.48535">
        <ele>391</ele>
        <time>2021-05-29T09:04:46.424Z</time>
      </trkpt>
      <trkpt lat="46.58616" lon="5.48537">
        <ele>391</ele>
        <time>2021-05-29T09:04:47.424Z</time>
      </trkpt>
      <trkpt lat="46.58616" lon="5.48539">
        <ele>391</ele>
        <time>2021-05-29T09:04:48.424Z</time>
      </trkpt>
      <trkpt lat="46.58616" lon="5.48541">
        <ele>391</ele>
        <time>2021-05-29T09:04:49.424Z</time>
      </trkpt>
      <trkpt lat="46.58616" lon="5.48543">
        <ele>391</ele>
        <time>2021-05-29T09:04:50.424Z</time>
      </trkpt>
      <trkpt lat="46.58615" lon="5.48545">
        <ele>392</ele>
        <time>2021-05-29T09:04:51.425Z</time>
      </trkpt>
      <trkpt lat="46.58615" lon="5.48547">
        <ele>392</ele>
        <time>2021-05-29T09:04:52.425Z</time>
      </trkpt>
      <trkpt lat="46.58615" lon="5.4855">
        <ele>392</ele>
        <time>2021-05-29T09:04:53.425Z</time>
      </trkpt>
      <trkpt lat="46.58615" lon="5.48553">
        <ele>392</ele>
        <time>2021-05-29T09:04:54.424Z</time>
      </trkpt>
      <trkpt lat="46.58615" lon="5.48555">
        <ele>393</ele>
        <time>2021-05-29T09:04:55.424Z</time>
      </trkpt>
      <trkpt lat="46.58615" lon="5.48558">
        <ele>393</ele>
        <time>2021-05-29T09:04:56.424Z</time>
      </trkpt>
      <trkpt lat="46.58615" lon="5.4856">
        <ele>393</ele>
        <time>2021-05-29T09:04:57.424Z</time>
      </trkpt>
      <trkpt lat="46.58615" lon="5.48562">
        <ele>393</ele>
        <time>2021-05-29T09:04:58.424Z</time>
      </trkpt>
      <trkpt lat="46.58615" lon="5.48565">
        <ele>394</ele>
        <time>2021-05-29T09:04:59.424Z</time>
      </trkpt>
      <trkpt lat="46.58615" lon="5.48567">
        <ele>394</ele>
        <time>2021-05-29T09:05:00.425Z</time>
      </trkpt>
      <trkpt lat="46.58615" lon="5.48569">
        <ele>394</ele>
        <time>2021-05-29T09:05:01.424Z</time>
      </trkpt>
      <trkpt lat="46.58614" lon="5.48572">
        <ele>395</ele>
        <time>2021-05-29T09:05:02.424Z</time>
      </trkpt>
      <trkpt lat="46.58614" lon="5.48574">
        <ele>395</ele>
        <time>2021-05-29T09:05:03.424Z</time>
      </trkpt>
      <trkpt lat="46.58614" lon="5.48577">
        <ele>395</ele>
        <time>2021-05-29T09:05:04.424Z</time>
      </trkpt>
      <trkpt lat="46.58613" lon="5.4858">
        <ele>396</ele>
        <time>2021-05-29T09:05:05.425Z</time>
      </trkpt>
      <trkpt lat="46.58613" lon="5.48582">
        <ele>396</ele>
        <time>2021-05-29T09:05:06.424Z</time>
      </trkpt>
      <trkpt lat="46.58613" lon="5.48585">
        <ele>396</ele>
        <time>2021-05-29T09:05:07.424Z</time>
      </trkpt>
      <trkpt lat="46.58612" lon="5.48588">
        <ele>396</ele>
        <time>2021-05-29T09:05:08.424Z</time>
      </trkpt>
      <trkpt lat="46.58612" lon="5.48591">
        <ele>397</ele>
        <time>2021-05-29T09:05:09.425Z</time>
      </trkpt>
      <trkpt lat="46.58612" lon="5.48594">
        <ele>397</ele>
        <time>2021-05-29T09:05:10.425Z</time>
      </trkpt>
      <trkpt lat="46.58611" lon="5.48596">
        <ele>397</ele>
        <time>2021-05-29T09:05:11.425Z</time>
      </trkpt>
      <trkpt lat="46.58611" lon="5.48598">
        <ele>397</ele>
        <time>2021-05-29T09:05:12.425Z</time>
      </trkpt>
      <trkpt lat="46.58611" lon="5.486">
        <ele>397</ele>
        <time>2021-05-29T09:05:13.425Z</time>
      </trkpt>
      <trkpt lat="46.5861" lon="5.48602">
        <ele>397</ele>
        <time>2021-05-29T09:05:14.425Z</time>
      </trkpt>
      <trkpt lat="46.5861" lon="5.48605">
        <ele>397</ele>
        <time>2021-05-29T09:05:15.425Z</time>
      </trkpt>
      <trkpt lat="46.58609" lon="5.48607">
        <ele>397</ele>
        <time>2021-05-29T09:05:16.425Z</time>
      </trkpt>
      <trkpt lat="46.58609" lon="5.4861">
        <ele>397</ele>
        <time>2021-05-29T09:05:17.425Z</time>
      </trkpt>
      <trkpt lat="46.58609" lon="5.48612">
        <ele>397</ele>
        <time>2021-05-29T09:05:18.425Z</time>
      </trkpt>
      <trkpt lat="46.58609" lon="5.48615">
        <ele>397</ele>
        <time>2021-05-29T09:05:19.425Z</time>
      </trkpt>
      <trkpt lat="46.5861" lon="5.48618">
        <ele>398</ele>
        <time>2021-05-29T09:05:20.425Z</time>
      </trkpt>
      <trkpt lat="46.5861" lon="5.48621">
        <ele>397</ele>
        <time>2021-05-29T09:05:21.425Z</time>
      </trkpt>
      <trkpt lat="46.5861" lon="5.48623">
        <ele>397</ele>
        <time>2021-05-29T09:05:22.425Z</time>
      </trkpt>
      <trkpt lat="46.58611" lon="5.48626">
        <ele>397</ele>
        <time>2021-05-29T09:05:23.425Z</time>
      </trkpt>
      <trkpt lat="46.58611" lon="5.48629">
        <ele>397</ele>
        <time>2021-05-29T09:05:24.425Z</time>
      </trkpt>
      <trkpt lat="46.58612" lon="5.48631">
        <ele>397</ele>
        <time>2021-05-29T09:05:25.425Z</time>
      </trkpt>
      <trkpt lat="46.58612" lon="5.48634">
        <ele>397</ele>
        <time>2021-05-29T09:05:26.425Z</time>
      </trkpt>
      <trkpt lat="46.58612" lon="5.48636">
        <ele>398</ele>
        <time>2021-05-29T09:05:27.424Z</time>
      </trkpt>
      <trkpt lat="46.58613" lon="5.48638">
        <ele>398</ele>
        <time>2021-05-29T09:05:28.425Z</time>
      </trkpt>
      <trkpt lat="46.58613" lon="5.48641">
        <ele>398</ele>
        <time>2021-05-29T09:05:29.424Z</time>
      </trkpt>
      <trkpt lat="46.58613" lon="5.48643">
        <ele>399</ele>
        <time>2021-05-29T09:05:30.425Z</time>
      </trkpt>
      <trkpt lat="46.58613" lon="5.48646">
        <ele>399</ele>
        <time>2021-05-29T09:05:31.424Z</time>
      </trkpt>
      <trkpt lat="46.58613" lon="5.48648">
        <ele>400</ele>
        <time>2021-05-29T09:05:32.425Z</time>
      </trkpt>
      <trkpt lat="46.58613" lon="5.4865">
        <ele>400</ele>
        <time>2021-05-29T09:05:33.425Z</time>
      </trkpt>
      <trkpt lat="46.58613" lon="5.48653">
        <ele>401</ele>
        <time>2021-05-29T09:05:34.425Z</time>
      </trkpt>
      <trkpt lat="46.58613" lon="5.48655">
        <ele>401</ele>
        <time>2021-05-29T09:05:35.424Z</time>
      </trkpt>
      <trkpt lat="46.58612" lon="5.48658">
        <ele>402</ele>
        <time>2021-05-29T09:05:36.425Z</time>
      </trkpt>
      <trkpt lat="46.58612" lon="5.4866">
        <ele>402</ele>
        <time>2021-05-29T09:05:37.425Z</time>
      </trkpt>
      <trkpt lat="46.58612" lon="5.48663">
        <ele>402</ele>
        <time>2021-05-29T09:05:38.425Z</time>
      </trkpt>
      <trkpt lat="46.58612" lon="5.48666">
        <ele>402</ele>
        <time>2021-05-29T09:05:39.425Z</time>
      </trkpt>
      <trkpt lat="46.58611" lon="5.48669">
        <ele>403</ele>
        <time>2021-05-29T09:05:40.425Z</time>
      </trkpt>
      <trkpt lat="46.58611" lon="5.48671">
        <ele>403</ele>
        <time>2021-05-29T09:05:41.425Z</time>
      </trkpt>
      <trkpt lat="46.5861" lon="5.48674">
        <ele>403</ele>
        <time>2021-05-29T09:05:42.425Z</time>
      </trkpt>
      <trkpt lat="46.5861" lon="5.48676">
        <ele>403</ele>
        <time>2021-05-29T09:05:43.425Z</time>
      </trkpt>
      <trkpt lat="46.58609" lon="5.48678">
        <ele>404</ele>
        <time>2021-05-29T09:05:44.425Z</time>
      </trkpt>
      <trkpt lat="46.58609" lon="5.48681">
        <ele>404</ele>
        <time>2021-05-29T09:05:45.425Z</time>
      </trkpt>
      <trkpt lat="46.58608" lon="5.48683">
        <ele>404</ele>
        <time>2021-05-29T09:05:46.425Z</time>
      </trkpt>
      <trkpt lat="46.58607" lon="5.48685">
        <ele>405</ele>
        <time>2021-05-29T09:05:47.425Z</time>
      </trkpt>
      <trkpt lat="46.58607" lon="5.48686">
        <ele>405</ele>
        <time>2021-05-29T09:05:48.425Z</time>
      </trkpt>
      <trkpt lat="46.58606" lon="5.48689">
        <ele>405</ele>
        <time>2021-05-29T09:05:49.425Z</time>
      </trkpt>
      <trkpt lat="46.58605" lon="5.48691">
        <ele>406</ele>
        <time>2021-05-29T09:05:50.425Z</time>
      </trkpt>
      <trkpt lat="46.58604" lon="5.48693">
        <ele>406</ele>
        <time>2021-05-29T09:05:51.425Z</time>
      </trkpt>
      <trkpt lat="46.58604" lon="5.48695">
        <ele>406</ele>
        <time>2021-05-29T09:05:52.425Z</time>
      </trkpt>
      <trkpt lat="46.58604" lon="5.48698">
        <ele>406</ele>
        <time>2021-05-29T09:05:53.425Z</time>
      </trkpt>
      <trkpt lat="46.58603" lon="5.487">
        <ele>407</ele>
        <time>2021-05-29T09:05:54.425Z</time>
      </trkpt>
      <trkpt lat="46.58603" lon="5.48702">
        <ele>407</ele>
        <time>2021-05-29T09:05:55.425Z</time>
      </trkpt>
      <trkpt lat="46.58602" lon="5.48704">
        <ele>407</ele>
        <time>2021-05-29T09:05:56.425Z</time>
      </trkpt>
      <trkpt lat="46.58602" lon="5.48706">
        <ele>407</ele>
        <time>2021-05-29T09:05:57.425Z</time>
      </trkpt>
      <trkpt lat="46.58602" lon="5.48709">
        <ele>408</ele>
        <time>2021-05-29T09:05:58.424Z</time>
      </trkpt>
      <trkpt lat="46.58601" lon="5.48711">
        <ele>408</ele>
        <time>2021-05-29T09:05:59.425Z</time>
      </trkpt>
      <trkpt lat="46.58602" lon="5.48713">
        <ele>409</ele>
        <time>2021-05-29T09:06:00.425Z</time>
      </trkpt>
      <trkpt lat="46.58602" lon="5.48717">
        <ele>409</ele>
        <time>2021-05-29T09:06:01.425Z</time>
      </trkpt>
      <trkpt lat="46.58602" lon="5.4872">
        <ele>410</ele>
        <time>2021-05-29T09:06:02.425Z</time>
      </trkpt>
      <trkpt lat="46.58602" lon="5.48723">
        <ele>410</ele>
        <time>2021-05-29T09:06:03.425Z</time>
      </trkpt>
      <trkpt lat="46.58603" lon="5.48726">
        <ele>411</ele>
        <time>2021-05-29T09:06:04.425Z</time>
      </trkpt>
      <trkpt lat="46.58604" lon="5.48728">
        <ele>412</ele>
        <time>2021-05-29T09:06:05.425Z</time>
      </trkpt>
      <trkpt lat="46.58603" lon="5.48731">
        <ele>413</ele>
        <time>2021-05-29T09:06:06.425Z</time>
      </trkpt>
      <trkpt lat="46.58602" lon="5.48733">
        <ele>413</ele>
        <time>2021-05-29T09:06:07.425Z</time>
      </trkpt>
      <trkpt lat="46.58602" lon="5.48735">
        <ele>414</ele>
        <time>2021-05-29T09:06:08.425Z</time>
      </trkpt>
      <trkpt lat="46.58603" lon="5.48737">
        <ele>414</ele>
        <time>2021-05-29T09:06:09.425Z</time>
      </trkpt>
      <trkpt lat="46.58604" lon="5.48739">
        <ele>415</ele>
        <time>2021-05-29T09:06:10.425Z</time>
      </trkpt>
      <trkpt lat="46.58604" lon="5.48741">
        <ele>416</ele>
        <time>2021-05-29T09:06:11.425Z</time>
      </trkpt>
      <trkpt lat="46.58605" lon="5.48743">
        <ele>416</ele>
        <time>2021-05-29T09:06:12.425Z</time>
      </trkpt>
      <trkpt lat="46.58606" lon="5.48745">
        <ele>417</ele>
        <time>2021-05-29T09:06:13.425Z</time>
      </trkpt>
      <trkpt lat="46.58607" lon="5.48747">
        <ele>418</ele>
        <time>2021-05-29T09:06:14.425Z</time>
      </trkpt>
      <trkpt lat="46.58607" lon="5.48749">
        <ele>419</ele>
        <time>2021-05-29T09:06:15.425Z</time>
      </trkpt>
      <trkpt lat="46.58608" lon="5.48751">
        <ele>420</ele>
        <time>2021-05-29T09:06:16.424Z</time>
      </trkpt>
      <trkpt lat="46.5861" lon="5.48753">
        <ele>421</ele>
        <time>2021-05-29T09:06:17.425Z</time>
      </trkpt>
      <trkpt lat="46.58611" lon="5.48756">
        <ele>422</ele>
        <time>2021-05-29T09:06:18.425Z</time>
      </trkpt>
      <trkpt lat="46.58612" lon="5.48758">
        <ele>423</ele>
        <time>2021-05-29T09:06:19.425Z</time>
      </trkpt>
      <trkpt lat="46.58614" lon="5.4876">
        <ele>424</ele>
        <time>2021-05-29T09:06:20.425Z</time>
      </trkpt>
      <trkpt lat="46.58614" lon="5.48762">
        <ele>425</ele>
        <time>2021-05-29T09:06:21.425Z</time>
      </trkpt>
      <trkpt lat="46.58615" lon="5.48765">
        <ele>426</ele>
        <time>2021-05-29T09:06:22.425Z</time>
      </trkpt>
      <trkpt lat="46.58617" lon="5.48767">
        <ele>426</ele>
        <time>2021-05-29T09:06:23.425Z</time>
      </trkpt>
      <trkpt lat="46.58618" lon="5.48769">
        <ele>427</ele>
        <time>2021-05-29T09:06:24.425Z</time>
      </trkpt>
      <trkpt lat="46.5862" lon="5.48772">
        <ele>428</ele>
        <time>2021-05-29T09:06:25.425Z</time>
      </trkpt>
      <trkpt lat="46.58621" lon="5.48774">
        <ele>428</ele>
        <time>2021-05-29T09:06:26.425Z</time>
      </trkpt>
      <trkpt lat="46.58622" lon="5.48776">
        <ele>429</ele>
        <time>2021-05-29T09:06:27.425Z</time>
      </trkpt>
      <trkpt lat="46.58624" lon="5.48777">
        <ele>430</ele>
        <time>2021-05-29T09:06:28.425Z</time>
      </trkpt>
      <trkpt lat="46.58625" lon="5.48779">
        <ele>430</ele>
        <time>2021-05-29T09:06:29.425Z</time>
      </trkpt>
      <trkpt lat="46.58625" lon="5.4878">
        <ele>431</ele>
        <time>2021-05-29T09:06:30.424Z</time>
      </trkpt>
      <trkpt lat="46.58628" lon="5.48781">
        <ele>432</ele>
        <time>2021-05-29T09:06:31.425Z</time>
      </trkpt>
      <trkpt lat="46.5863" lon="5.48783">
        <ele>432</ele>
        <time>2021-05-29T09:06:32.425Z</time>
      </trkpt>
      <trkpt lat="46.58632" lon="5.48785">
        <ele>433</ele>
        <time>2021-05-29T09:06:33.425Z</time>
      </trkpt>
      <trkpt lat="46.58633" lon="5.48786">
        <ele>433</ele>
        <time>2021-05-29T09:06:34.425Z</time>
      </trkpt>
      <trkpt lat="46.58634" lon="5.48787">
        <ele>433</ele>
        <time>2021-05-29T09:06:35.425Z</time>
      </trkpt>
      <trkpt lat="46.58635" lon="5.48788">
        <ele>434</ele>
        <time>2021-05-29T09:06:36.425Z</time>
      </trkpt>
      <trkpt lat="46.58636" lon="5.48788">
        <ele>434</ele>
        <time>2021-05-29T09:06:37.425Z</time>
      </trkpt>
      <trkpt lat="46.58638" lon="5.48789">
        <ele>435</ele>
        <time>2021-05-29T09:06:38.425Z</time>
      </trkpt>
      <trkpt lat="46.58639" lon="5.48788">
        <ele>435</ele>
        <time>2021-05-29T09:06:39.425Z</time>
      </trkpt>
      <trkpt lat="46.58639" lon="5.48788">
        <ele>435</ele>
        <time>2021-05-29T09:06:40.425Z</time>
      </trkpt>
      <trkpt lat="46.5864" lon="5.48787">
        <ele>435</ele>
        <time>2021-05-29T09:06:41.425Z</time>
      </trkpt>
      <trkpt lat="46.58641" lon="5.48785">
        <ele>436</ele>
        <time>2021-05-29T09:06:42.425Z</time>
      </trkpt>
      <trkpt lat="46.58642" lon="5.48784">
        <ele>436</ele>
        <time>2021-05-29T09:06:43.425Z</time>
      </trkpt>
      <trkpt lat="46.58643" lon="5.48782">
        <ele>436</ele>
        <time>2021-05-29T09:06:44.425Z</time>
      </trkpt>
      <trkpt lat="46.58645" lon="5.48782">
        <ele>437</ele>
        <time>2021-05-29T09:06:45.425Z</time>
      </trkpt>
      <trkpt lat="46.58646" lon="5.48781">
        <ele>437</ele>
        <time>2021-05-29T09:06:46.425Z</time>
      </trkpt>
      <trkpt lat="46.58648" lon="5.4878">
        <ele>437</ele>
        <time>2021-05-29T09:06:47.425Z</time>
      </trkpt>
      <trkpt lat="46.58649" lon="5.4878">
        <ele>437</ele>
        <time>2021-05-29T09:06:48.425Z</time>
      </trkpt>
      <trkpt lat="46.58651" lon="5.48779">
        <ele>437</ele>
        <time>2021-05-29T09:06:49.425Z</time>
      </trkpt>
      <trkpt lat="46.58653" lon="5.48779">
        <ele>437</ele>
        <time>2021-05-29T09:06:50.425Z</time>
      </trkpt>
      <trkpt lat="46.58655" lon="5.48778">
        <ele>437</ele>
        <time>2021-05-29T09:06:51.425Z</time>
      </trkpt>
      <trkpt lat="46.58657" lon="5.48778">
        <ele>437</ele>
        <time>2021-05-29T09:06:52.424Z</time>
      </trkpt>
      <trkpt lat="46.58659" lon="5.48777">
        <ele>436</ele>
        <time>2021-05-29T09:06:53.425Z</time>
      </trkpt>
      <trkpt lat="46.58661" lon="5.48777">
        <ele>436</ele>
        <time>2021-05-29T09:06:54.425Z</time>
      </trkpt>
      <trkpt lat="46.58663" lon="5.48777">
        <ele>435</ele>
        <time>2021-05-29T09:06:55.425Z</time>
      </trkpt>
      <trkpt lat="46.58665" lon="5.48776">
        <ele>435</ele>
        <time>2021-05-29T09:06:56.424Z</time>
      </trkpt>
      <trkpt lat="46.58667" lon="5.48776">
        <ele>435</ele>
        <time>2021-05-29T09:06:57.425Z</time>
      </trkpt>
      <trkpt lat="46.58669" lon="5.48777">
        <ele>434</ele>
        <time>2021-05-29T09:06:58.425Z</time>
      </trkpt>
      <trkpt lat="46.58672" lon="5.48779">
        <ele>433</ele>
        <time>2021-05-29T09:06:59.425Z</time>
      </trkpt>
      <trkpt lat="46.58674" lon="5.4878">
        <ele>432</ele>
        <time>2021-05-29T09:07:00.425Z</time>
      </trkpt>
      <trkpt lat="46.58675" lon="5.48782">
        <ele>431</ele>
        <time>2021-05-29T09:07:01.424Z</time>
      </trkpt>
      <trkpt lat="46.58677" lon="5.48784">
        <ele>430</ele>
        <time>2021-05-29T09:07:02.425Z</time>
      </trkpt>
      <trkpt lat="46.58679" lon="5.48785">
        <ele>430</ele>
        <time>2021-05-29T09:07:03.425Z</time>
      </trkpt>
      <trkpt lat="46.58681" lon="5.48785">
        <ele>429</ele>
        <time>2021-05-29T09:07:04.424Z</time>
      </trkpt>
      <trkpt lat="46.58684" lon="5.48786">
        <ele>428</ele>
        <time>2021-05-29T09:07:05.424Z</time>
      </trkpt>
      <trkpt lat="46.58686" lon="5.48787">
        <ele>428</ele>
        <time>2021-05-29T09:07:06.424Z</time>
      </trkpt>
      <trkpt lat="46.58688" lon="5.48788">
        <ele>427</ele>
        <time>2021-05-29T09:07:07.425Z</time>
      </trkpt>
      <trkpt lat="46.5869" lon="5.48789">
        <ele>426</ele>
        <time>2021-05-29T09:07:08.425Z</time>
      </trkpt>
      <trkpt lat="46.58692" lon="5.48789">
        <ele>426</ele>
        <time>2021-05-29T09:07:09.425Z</time>
      </trkpt>
      <trkpt lat="46.58694" lon="5.48789">
        <ele>425</ele>
        <time>2021-05-29T09:07:10.424Z</time>
      </trkpt>
      <trkpt lat="46.58695" lon="5.4879">
        <ele>425</ele>
        <time>2021-05-29T09:07:11.425Z</time>
      </trkpt>
      <trkpt lat="46.58695" lon="5.48791">
        <ele>424</ele>
        <time>2021-05-29T09:07:12.425Z</time>
      </trkpt>
      <trkpt lat="46.58694" lon="5.48792">
        <ele>424</ele>
        <time>2021-05-29T09:07:13.424Z</time>
      </trkpt>
      <trkpt lat="46.58694" lon="5.48793">
        <ele>423</ele>
        <time>2021-05-29T09:07:14.425Z</time>
      </trkpt>
      <trkpt lat="46.58693" lon="5.48794">
        <ele>423</ele>
        <time>2021-05-29T09:07:15.425Z</time>
      </trkpt>
      <trkpt lat="46.58692" lon="5.48794">
        <ele>422</ele>
        <time>2021-05-29T09:07:16.425Z</time>
      </trkpt>
      <trkpt lat="46.5869" lon="5.48793">
        <ele>422</ele>
        <time>2021-05-29T09:07:17.424Z</time>
      </trkpt>
      <trkpt lat="46.58689" lon="5.48793">
        <ele>422</ele>
        <time>2021-05-29T09:07:18.425Z</time>
      </trkpt>
      <trkpt lat="46.58687" lon="5.48792">
        <ele>423</ele>
        <time>2021-05-29T09:07:19.425Z</time>
      </trkpt>
      <trkpt lat="46.58685" lon="5.48792">
        <ele>423</ele>
        <time>2021-05-29T09:07:20.424Z</time>
      </trkpt>
      <trkpt lat="46.58684" lon="5.48792">
        <ele>423</ele>
        <time>2021-05-29T09:07:21.425Z</time>
      </trkpt>
      <trkpt lat="46.58683" lon="5.48791">
        <ele>424</ele>
        <time>2021-05-29T09:07:22.425Z</time>
      </trkpt>
      <trkpt lat="46.58681" lon="5.48791">
        <ele>425</ele>
        <time>2021-05-29T09:07:23.424Z</time>
      </trkpt>
      <trkpt lat="46.5868" lon="5.4879">
        <ele>425</ele>
        <time>2021-05-29T09:07:24.425Z</time>
      </trkpt>
      <trkpt lat="46.5868" lon="5.48788">
        <ele>426</ele>
        <time>2021-05-29T09:07:25.425Z</time>
      </trkpt>
      <trkpt lat="46.58679" lon="5.48787">
        <ele>426</ele>
        <time>2021-05-29T09:07:26.425Z</time>
      </trkpt>
      <trkpt lat="46.58678" lon="5.48786">
        <ele>426</ele>
        <time>2021-05-29T09:07:27.425Z</time>
      </trkpt>
      <trkpt lat="46.58676" lon="5.48786">
        <ele>427</ele>
        <time>2021-05-29T09:07:28.425Z</time>
      </trkpt>
      <trkpt lat="46.58675" lon="5.48786">
        <ele>427</ele>
        <time>2021-05-29T09:07:29.425Z</time>
      </trkpt>
      <trkpt lat="46.58673" lon="5.48785">
        <ele>428</ele>
        <time>2021-05-29T09:07:30.425Z</time>
      </trkpt>
      <trkpt lat="46.58672" lon="5.48784">
        <ele>428</ele>
        <time>2021-05-29T09:07:31.424Z</time>
      </trkpt>
      <trkpt lat="46.58671" lon="5.48785">
        <ele>429</ele>
        <time>2021-05-29T09:07:32.425Z</time>
      </trkpt>
      <trkpt lat="46.58671" lon="5.48785">
        <ele>429</ele>
        <time>2021-05-29T09:07:33.425Z</time>
      </trkpt>
      <trkpt lat="46.58671" lon="5.48784">
        <ele>430</ele>
        <time>2021-05-29T09:07:34.425Z</time>
      </trkpt>
      <trkpt lat="46.58672" lon="5.48784">
        <ele>430</ele>
        <time>2021-05-29T09:07:35.425Z</time>
      </trkpt>
      <trkpt lat="46.58673" lon="5.48784">
        <ele>430</ele>
        <time>2021-05-29T09:07:36.425Z</time>
      </trkpt>
      <trkpt lat="46.58674" lon="5.48786">
        <ele>430</ele>
        <time>2021-05-29T09:07:37.425Z</time>
      </trkpt>
      <trkpt lat="46.58676" lon="5.48787">
        <ele>429</ele>
        <time>2021-05-29T09:07:38.425Z</time>
      </trkpt>
      <trkpt lat="46.58677" lon="5.48787">
        <ele>429</ele>
        <time>2021-05-29T09:07:39.425Z</time>
      </trkpt>
      <trkpt lat="46.58678" lon="5.48788">
        <ele>429</ele>
        <time>2021-05-29T09:07:40.425Z</time>
      </trkpt>
      <trkpt lat="46.5868" lon="5.48789">
        <ele>428</ele>
        <time>2021-05-29T09:07:41.425Z</time>
      </trkpt>
      <trkpt lat="46.58681" lon="5.48789">
        <ele>428</ele>
        <time>2021-05-29T09:07:42.425Z</time>
      </trkpt>
      <trkpt lat="46.58683" lon="5.4879">
        <ele>427</ele>
        <time>2021-05-29T09:07:43.425Z</time>
      </trkpt>
      <trkpt lat="46.58685" lon="5.4879">
        <ele>427</ele>
        <time>2021-05-29T09:07:44.425Z</time>
      </trkpt>
      <trkpt lat="46.58686" lon="5.4879">
        <ele>427</ele>
        <time>2021-05-29T09:07:45.424Z</time>
      </trkpt>
      <trkpt lat="46.58688" lon="5.4879">
        <ele>426</ele>
        <time>2021-05-29T09:07:46.425Z</time>
      </trkpt>
      <trkpt lat="46.5869" lon="5.4879">
        <ele>426</ele>
        <time>2021-05-29T09:07:47.425Z</time>
      </trkpt>
      <trkpt lat="46.58691" lon="5.4879">
        <ele>426</ele>
        <time>2021-05-29T09:07:48.425Z</time>
      </trkpt>
      <trkpt lat="46.58693" lon="5.4879">
        <ele>426</ele>
        <time>2021-05-29T09:07:49.425Z</time>
      </trkpt>
      <trkpt lat="46.58693" lon="5.4879">
        <ele>425</ele>
        <time>2021-05-29T09:07:50.424Z</time>
      </trkpt>
      <trkpt lat="46.58695" lon="5.4879">
        <ele>425</ele>
        <time>2021-05-29T09:07:51.424Z</time>
      </trkpt>
      <trkpt lat="46.58697" lon="5.48789">
        <ele>425</ele>
        <time>2021-05-29T09:07:52.425Z</time>
      </trkpt>
      <trkpt lat="46.58698" lon="5.48789">
        <ele>425</ele>
        <time>2021-05-29T09:07:53.425Z</time>
      </trkpt>
      <trkpt lat="46.58699" lon="5.48788">
        <ele>425</ele>
        <time>2021-05-29T09:07:54.425Z</time>
      </trkpt>
      <trkpt lat="46.58699" lon="5.48788">
        <ele>424</ele>
        <time>2021-05-29T09:07:55.425Z</time>
      </trkpt>
      <trkpt lat="46.587" lon="5.48787">
        <ele>424</ele>
        <time>2021-05-29T09:07:56.425Z</time>
      </trkpt>
      <trkpt lat="46.58701" lon="5.48791">
        <ele>420</ele>
        <time>2021-05-29T09:07:57.425Z</time>
      </trkpt>
      <trkpt lat="46.58701" lon="5.48791">
        <ele>420</ele>
        <time>2021-05-29T09:07:58.425Z</time>
      </trkpt>
      <trkpt lat="46.58701" lon="5.48791">
        <ele>420</ele>
        <time>2021-05-29T09:07:59.424Z</time>
      </trkpt>
      <trkpt lat="46.58701" lon="5.48791">
        <ele>420</ele>
        <time>2021-05-29T09:08:00.425Z</time>
      </trkpt>
      <trkpt lat="46.58701" lon="5.4879">
        <ele>420</ele>
        <time>2021-05-29T09:08:01.425Z</time>
      </trkpt>
      <trkpt lat="46.58701" lon="5.4879">
        <ele>420</ele>
        <time>2021-05-29T09:08:02.425Z</time>
      </trkpt>
      <trkpt lat="46.58701" lon="5.4879">
        <ele>420</ele>
        <time>2021-05-29T09:08:03.425Z</time>
      </trkpt>
      <trkpt lat="46.58701" lon="5.4879">
        <ele>420</ele>
        <time>2021-05-29T09:08:04.425Z</time>
      </trkpt>
      <trkpt lat="46.58701" lon="5.4879">
        <ele>420</ele>
        <time>2021-05-29T09:08:05.425Z</time>
      </trkpt>
      <trkpt lat="46.58703" lon="5.48788">
        <ele>420</ele>
        <time>2021-05-29T09:08:06.424Z</time>
      </trkpt>
      <trkpt lat="46.58704" lon="5.48787">
        <ele>420</ele>
        <time>2021-05-29T09:08:07.425Z</time>
      </trkpt>
      <trkpt lat="46.58706" lon="5.48785">
        <ele>420</ele>
        <time>2021-05-29T09:08:08.425Z</time>
      </trkpt>
      <trkpt lat="46.58707" lon="5.48783">
        <ele>419</ele>
        <time>2021-05-29T09:08:09.424Z</time>
      </trkpt>
      <trkpt lat="46.58709" lon="5.48781">
        <ele>419</ele>
        <time>2021-05-29T09:08:10.425Z</time>
      </trkpt>
      <trkpt lat="46.5871" lon="5.4878">
        <ele>419</ele>
        <time>2021-05-29T09:08:11.424Z</time>
      </trkpt>
      <trkpt lat="46.58712" lon="5.48778">
        <ele>419</ele>
        <time>2021-05-29T09:08:12.425Z</time>
      </trkpt>
      <trkpt lat="46.58714" lon="5.48777">
        <ele>419</ele>
        <time>2021-05-29T09:08:13.425Z</time>
      </trkpt>
      <trkpt lat="46.58716" lon="5.48776">
        <ele>419</ele>
        <time>2021-05-29T09:08:14.424Z</time>
      </trkpt>
      <trkpt lat="46.58717" lon="5.48778">
        <ele>419</ele>
        <time>2021-05-29T09:08:15.425Z</time>
      </trkpt>
      <trkpt lat="46.58719" lon="5.48779">
        <ele>419</ele>
        <time>2021-05-29T09:08:16.425Z</time>
      </trkpt>
      <trkpt lat="46.58721" lon="5.48781">
        <ele>419</ele>
        <time>2021-05-29T09:08:17.424Z</time>
      </trkpt>
      <trkpt lat="46.58722" lon="5.48785">
        <ele>419</ele>
        <time>2021-05-29T09:08:18.424Z</time>
      </trkpt>
      <trkpt lat="46.58723" lon="5.48788">
        <ele>419</ele>
        <time>2021-05-29T09:08:19.425Z</time>
      </trkpt>
      <trkpt lat="46.58724" lon="5.48791">
        <ele>419</ele>
        <time>2021-05-29T09:08:20.425Z</time>
      </trkpt>
      <trkpt lat="46.58725" lon="5.48795">
        <ele>419</ele>
        <time>2021-05-29T09:08:21.424Z</time>
      </trkpt>
      <trkpt lat="46.58726" lon="5.48798">
        <ele>419</ele>
        <time>2021-05-29T09:08:22.424Z</time>
      </trkpt>
      <trkpt lat="46.58727" lon="5.48801">
        <ele>419</ele>
        <time>2021-05-29T09:08:23.425Z</time>
      </trkpt>
      <trkpt lat="46.58726" lon="5.48804">
        <ele>419</ele>
        <time>2021-05-29T09:08:24.424Z</time>
      </trkpt>
      <trkpt lat="46.58726" lon="5.48807">
        <ele>418</ele>
        <time>2021-05-29T09:08:25.424Z</time>
      </trkpt>
      <trkpt lat="46.58726" lon="5.48811">
        <ele>418</ele>
        <time>2021-05-29T09:08:26.425Z</time>
      </trkpt>
      <trkpt lat="46.58725" lon="5.48814">
        <ele>417</ele>
        <time>2021-05-29T09:08:27.424Z</time>
      </trkpt>
      <trkpt lat="46.58725" lon="5.48818">
        <ele>416</ele>
        <time>2021-05-29T09:08:28.424Z</time>
      </trkpt>
      <trkpt lat="46.58725" lon="5.48822">
        <ele>416</ele>
        <time>2021-05-29T09:08:29.424Z</time>
      </trkpt>
      <trkpt lat="46.58723" lon="5.48825">
        <ele>415</ele>
        <time>2021-05-29T09:08:30.425Z</time>
      </trkpt>
      <trkpt lat="46.58722" lon="5.48829">
        <ele>415</ele>
        <time>2021-05-29T09:08:31.425Z</time>
      </trkpt>
      <trkpt lat="46.58721" lon="5.48832">
        <ele>415</ele>
        <time>2021-05-29T09:08:32.425Z</time>
      </trkpt>
      <trkpt lat="46.58719" lon="5.48834">
        <ele>415</ele>
        <time>2021-05-29T09:08:33.425Z</time>
      </trkpt>
      <trkpt lat="46.58717" lon="5.48837">
        <ele>414</ele>
        <time>2021-05-29T09:08:34.424Z</time>
      </trkpt>
      <trkpt lat="46.58716" lon="5.4884">
        <ele>414</ele>
        <time>2021-05-29T09:08:35.425Z</time>
      </trkpt>
      <trkpt lat="46.58714" lon="5.48842">
        <ele>414</ele>
        <time>2021-05-29T09:08:36.425Z</time>
      </trkpt>
      <trkpt lat="46.58712" lon="5.48844">
        <ele>414</ele>
        <time>2021-05-29T09:08:37.425Z</time>
      </trkpt>
      <trkpt lat="46.5871" lon="5.48845">
        <ele>414</ele>
        <time>2021-05-29T09:08:38.424Z</time>
      </trkpt>
      <trkpt lat="46.58706" lon="5.48847">
        <ele>415</ele>
        <time>2021-05-29T09:08:39.425Z</time>
      </trkpt>
      <trkpt lat="46.58703" lon="5.48848">
        <ele>415</ele>
        <time>2021-05-29T09:08:40.425Z</time>
      </trkpt>
      <trkpt lat="46.58701" lon="5.48848">
        <ele>415</ele>
        <time>2021-05-29T09:08:41.425Z</time>
      </trkpt>
      <trkpt lat="46.58699" lon="5.4885">
        <ele>415</ele>
        <time>2021-05-29T09:08:42.425Z</time>
      </trkpt>
      <trkpt lat="46.58697" lon="5.48851">
        <ele>416</ele>
        <time>2021-05-29T09:08:43.425Z</time>
      </trkpt>
      <trkpt lat="46.58695" lon="5.48852">
        <ele>416</ele>
        <time>2021-05-29T09:08:44.424Z</time>
      </trkpt>
      <trkpt lat="46.58694" lon="5.48854">
        <ele>416</ele>
        <time>2021-05-29T09:08:45.425Z</time>
      </trkpt>
      <trkpt lat="46.58693" lon="5.48857">
        <ele>417</ele>
        <time>2021-05-29T09:08:46.425Z</time>
      </trkpt>
      <trkpt lat="46.58691" lon="5.48859">
        <ele>417</ele>
        <time>2021-05-29T09:08:47.425Z</time>
      </trkpt>
      <trkpt lat="46.5869" lon="5.48861">
        <ele>417</ele>
        <time>2021-05-29T09:08:48.425Z</time>
      </trkpt>
      <trkpt lat="46.58689" lon="5.48864">
        <ele>417</ele>
        <time>2021-05-29T09:08:49.424Z</time>
      </trkpt>
      <trkpt lat="46.58687" lon="5.48866">
        <ele>417</ele>
        <time>2021-05-29T09:08:50.424Z</time>
      </trkpt>
      <trkpt lat="46.58686" lon="5.48869">
        <ele>417</ele>
        <time>2021-05-29T09:08:51.424Z</time>
      </trkpt>
      <trkpt lat="46.58685" lon="5.48872">
        <ele>417</ele>
        <time>2021-05-29T09:08:52.425Z</time>
      </trkpt>
      <trkpt lat="46.58684" lon="5.48875">
        <ele>417</ele>
        <time>2021-05-29T09:08:53.424Z</time>
      </trkpt>
      <trkpt lat="46.58683" lon="5.48879">
        <ele>417</ele>
        <time>2021-05-29T09:08:54.424Z</time>
      </trkpt>
      <trkpt lat="46.58683" lon="5.48882">
        <ele>417</ele>
        <time>2021-05-29T09:08:55.424Z</time>
      </trkpt>
      <trkpt lat="46.58682" lon="5.48886">
        <ele>417</ele>
        <time>2021-05-29T09:08:56.425Z</time>
      </trkpt>
      <trkpt lat="46.58681" lon="5.4889">
        <ele>417</ele>
        <time>2021-05-29T09:08:57.424Z</time>
      </trkpt>
      <trkpt lat="46.58681" lon="5.48894">
        <ele>417</ele>
        <time>2021-05-29T09:08:58.424Z</time>
      </trkpt>
      <trkpt lat="46.5868" lon="5.48897">
        <ele>417</ele>
        <time>2021-05-29T09:08:59.425Z</time>
      </trkpt>
      <trkpt lat="46.5868" lon="5.48901">
        <ele>417</ele>
        <time>2021-05-29T09:09:00.424Z</time>
      </trkpt>
      <trkpt lat="46.58679" lon="5.48904">
        <ele>417</ele>
        <time>2021-05-29T09:09:01.425Z</time>
      </trkpt>
      <trkpt lat="46.58679" lon="5.48908">
        <ele>417</ele>
        <time>2021-05-29T09:09:02.425Z</time>
      </trkpt>
      <trkpt lat="46.58679" lon="5.48911">
        <ele>417</ele>
        <time>2021-05-29T09:09:03.425Z</time>
      </trkpt>
      <trkpt lat="46.58679" lon="5.48916">
        <ele>417</ele>
        <time>2021-05-29T09:09:04.424Z</time>
      </trkpt>
      <trkpt lat="46.58679" lon="5.48921">
        <ele>417</ele>
        <time>2021-05-29T09:09:05.424Z</time>
      </trkpt>
      <trkpt lat="46.58679" lon="5.48925">
        <ele>417</ele>
        <time>2021-05-29T09:09:06.425Z</time>
      </trkpt>
      <trkpt lat="46.5868" lon="5.48928">
        <ele>416</ele>
        <time>2021-05-29T09:09:07.425Z</time>
      </trkpt>
      <trkpt lat="46.5868" lon="5.4893">
        <ele>416</ele>
        <time>2021-05-29T09:09:08.425Z</time>
      </trkpt>
      <trkpt lat="46.5868" lon="5.48933">
        <ele>416</ele>
        <time>2021-05-29T09:09:09.425Z</time>
      </trkpt>
      <trkpt lat="46.5868" lon="5.48935">
        <ele>416</ele>
        <time>2021-05-29T09:09:10.425Z</time>
      </trkpt>
      <trkpt lat="46.58681" lon="5.48937">
        <ele>416</ele>
        <time>2021-05-29T09:09:11.424Z</time>
      </trkpt>
      <trkpt lat="46.58681" lon="5.4894">
        <ele>416</ele>
        <time>2021-05-29T09:09:12.424Z</time>
      </trkpt>
      <trkpt lat="46.58682" lon="5.48942">
        <ele>417</ele>
        <time>2021-05-29T09:09:13.424Z</time>
      </trkpt>
      <trkpt lat="46.58682" lon="5.48945">
        <ele>417</ele>
        <time>2021-05-29T09:09:14.425Z</time>
      </trkpt>
      <trkpt lat="46.58683" lon="5.48947">
        <ele>417</ele>
        <time>2021-05-29T09:09:15.424Z</time>
      </trkpt>
      <trkpt lat="46.58684" lon="5.48949">
        <ele>417</ele>
        <time>2021-05-29T09:09:16.424Z</time>
      </trkpt>
      <trkpt lat="46.58685" lon="5.48951">
        <ele>417</ele>
        <time>2021-05-29T09:09:17.425Z</time>
      </trkpt>
      <trkpt lat="46.58686" lon="5.48953">
        <ele>416</ele>
        <time>2021-05-29T09:09:18.425Z</time>
      </trkpt>
      <trkpt lat="46.58687" lon="5.48956">
        <ele>416</ele>
        <time>2021-05-29T09:09:19.425Z</time>
      </trkpt>
      <trkpt lat="46.58689" lon="5.48959">
        <ele>416</ele>
        <time>2021-05-29T09:09:20.425Z</time>
      </trkpt>
      <trkpt lat="46.58689" lon="5.48961">
        <ele>416</ele>
        <time>2021-05-29T09:09:21.424Z</time>
      </trkpt>
      <trkpt lat="46.5869" lon="5.48964">
        <ele>416</ele>
        <time>2021-05-29T09:09:22.424Z</time>
      </trkpt>
      <trkpt lat="46.5869" lon="5.48966">
        <ele>416</ele>
        <time>2021-05-29T09:09:23.424Z</time>
      </trkpt>
      <trkpt lat="46.5869" lon="5.48968">
        <ele>416</ele>
        <time>2021-05-29T09:09:24.425Z</time>
      </trkpt>
      <trkpt lat="46.5869" lon="5.48971">
        <ele>416</ele>
        <time>2021-05-29T09:09:25.425Z</time>
      </trkpt>
      <trkpt lat="46.58691" lon="5.48974">
        <ele>416</ele>
        <time>2021-05-29T09:09:26.425Z</time>
      </trkpt>
      <trkpt lat="46.58692" lon="5.48977">
        <ele>416</ele>
        <time>2021-05-29T09:09:27.425Z</time>
      </trkpt>
      <trkpt lat="46.58693" lon="5.48982">
        <ele>416</ele>
        <time>2021-05-29T09:09:28.425Z</time>
      </trkpt>
      <trkpt lat="46.58694" lon="5.48985">
        <ele>416</ele>
        <time>2021-05-29T09:09:29.425Z</time>
      </trkpt>
      <trkpt lat="46.58695" lon="5.48988">
        <ele>416</ele>
        <time>2021-05-29T09:09:30.424Z</time>
      </trkpt>
      <trkpt lat="46.58695" lon="5.4899">
        <ele>416</ele>
        <time>2021-05-29T09:09:31.425Z</time>
      </trkpt>
      <trkpt lat="46.58696" lon="5.48992">
        <ele>416</ele>
        <time>2021-05-29T09:09:32.425Z</time>
      </trkpt>
      <trkpt lat="46.58696" lon="5.48994">
        <ele>416</ele>
        <time>2021-05-29T09:09:33.424Z</time>
      </trkpt>
      <trkpt lat="46.58697" lon="5.48997">
        <ele>416</ele>
        <time>2021-05-29T09:09:34.425Z</time>
      </trkpt>
      <trkpt lat="46.58698" lon="5.48999">
        <ele>416</ele>
        <time>2021-05-29T09:09:35.425Z</time>
      </trkpt>
      <trkpt lat="46.58698" lon="5.49002">
        <ele>416</ele>
        <time>2021-05-29T09:09:36.425Z</time>
      </trkpt>
      <trkpt lat="46.587" lon="5.49006">
        <ele>416</ele>
        <time>2021-05-29T09:09:37.425Z</time>
      </trkpt>
      <trkpt lat="46.587" lon="5.49009">
        <ele>415</ele>
        <time>2021-05-29T09:09:38.424Z</time>
      </trkpt>
      <trkpt lat="46.58701" lon="5.49012">
        <ele>415</ele>
        <time>2021-05-29T09:09:39.425Z</time>
      </trkpt>
      <trkpt lat="46.58701" lon="5.49014">
        <ele>415</ele>
        <time>2021-05-29T09:09:40.424Z</time>
      </trkpt>
      <trkpt lat="46.58701" lon="5.49017">
        <ele>415</ele>
        <time>2021-05-29T09:09:41.424Z</time>
      </trkpt>
      <trkpt lat="46.58701" lon="5.4902">
        <ele>414</ele>
        <time>2021-05-29T09:09:42.424Z</time>
      </trkpt>
      <trkpt lat="46.58702" lon="5.49024">
        <ele>414</ele>
        <time>2021-05-29T09:09:43.425Z</time>
      </trkpt>
      <trkpt lat="46.58702" lon="5.49027">
        <ele>414</ele>
        <time>2021-05-29T09:09:44.425Z</time>
      </trkpt>
      <trkpt lat="46.58703" lon="5.4903">
        <ele>414</ele>
        <time>2021-05-29T09:09:45.424Z</time>
      </trkpt>
      <trkpt lat="46.58703" lon="5.49034">
        <ele>414</ele>
        <time>2021-05-29T09:09:46.424Z</time>
      </trkpt>
      <trkpt lat="46.58703" lon="5.49038">
        <ele>413</ele>
        <time>2021-05-29T09:09:47.425Z</time>
      </trkpt>
      <trkpt lat="46.58703" lon="5.49041">
        <ele>413</ele>
        <time>2021-05-29T09:09:48.425Z</time>
      </trkpt>
      <trkpt lat="46.58704" lon="5.49045">
        <ele>413</ele>
        <time>2021-05-29T09:09:49.424Z</time>
      </trkpt>
      <trkpt lat="46.58704" lon="5.49049">
        <ele>413</ele>
        <time>2021-05-29T09:09:50.425Z</time>
      </trkpt>
      <trkpt lat="46.58704" lon="5.49051">
        <ele>413</ele>
        <time>2021-05-29T09:09:51.425Z</time>
      </trkpt>
      <trkpt lat="46.58703" lon="5.49054">
        <ele>413</ele>
        <time>2021-05-29T09:09:52.425Z</time>
      </trkpt>
      <trkpt lat="46.58703" lon="5.49056">
        <ele>413</ele>
        <time>2021-05-29T09:09:53.425Z</time>
      </trkpt>
      <trkpt lat="46.58703" lon="5.49059">
        <ele>413</ele>
        <time>2021-05-29T09:09:54.425Z</time>
      </trkpt>
      <trkpt lat="46.58702" lon="5.49062">
        <ele>414</ele>
        <time>2021-05-29T09:09:55.424Z</time>
      </trkpt>
      <trkpt lat="46.58703" lon="5.49065">
        <ele>414</ele>
        <time>2021-05-29T09:09:56.424Z</time>
      </trkpt>
      <trkpt lat="46.58703" lon="5.49068">
        <ele>414</ele>
        <time>2021-05-29T09:09:57.424Z</time>
      </trkpt>
      <trkpt lat="46.58704" lon="5.49072">
        <ele>414</ele>
        <time>2021-05-29T09:09:58.425Z</time>
      </trkpt>
      <trkpt lat="46.58704" lon="5.49076">
        <ele>414</ele>
        <time>2021-05-29T09:09:59.425Z</time>
      </trkpt>
      <trkpt lat="46.58707" lon="5.4908">
        <ele>414</ele>
        <time>2021-05-29T09:10:00.425Z</time>
      </trkpt>
      <trkpt lat="46.58709" lon="5.49084">
        <ele>414</ele>
        <time>2021-05-29T09:10:01.424Z</time>
      </trkpt>
      <trkpt lat="46.5871" lon="5.49087">
        <ele>414</ele>
        <time>2021-05-29T09:10:02.424Z</time>
      </trkpt>
      <trkpt lat="46.58711" lon="5.4909">
        <ele>414</ele>
        <time>2021-05-29T09:10:03.425Z</time>
      </trkpt>
      <trkpt lat="46.58711" lon="5.49093">
        <ele>414</ele>
        <time>2021-05-29T09:10:04.425Z</time>
      </trkpt>
      <trkpt lat="46.58712" lon="5.49095">
        <ele>415</ele>
        <time>2021-05-29T09:10:05.424Z</time>
      </trkpt>
      <trkpt lat="46.58713" lon="5.49097">
        <ele>415</ele>
        <time>2021-05-29T09:10:06.425Z</time>
      </trkpt>
      <trkpt lat="46.58715" lon="5.491">
        <ele>415</ele>
        <time>2021-05-29T09:10:07.425Z</time>
      </trkpt>
      <trkpt lat="46.58716" lon="5.49103">
        <ele>415</ele>
        <time>2021-05-29T09:10:08.425Z</time>
      </trkpt>
      <trkpt lat="46.58718" lon="5.49105">
        <ele>415</ele>
        <time>2021-05-29T09:10:09.424Z</time>
      </trkpt>
      <trkpt lat="46.5872" lon="5.49108">
        <ele>415</ele>
        <time>2021-05-29T09:10:10.425Z</time>
      </trkpt>
      <trkpt lat="46.58721" lon="5.4911">
        <ele>414</ele>
        <time>2021-05-29T09:10:11.425Z</time>
      </trkpt>
      <trkpt lat="46.58723" lon="5.49113">
        <ele>414</ele>
        <time>2021-05-29T09:10:12.425Z</time>
      </trkpt>
      <trkpt lat="46.58726" lon="5.49116">
        <ele>414</ele>
        <time>2021-05-29T09:10:13.425Z</time>
      </trkpt>
      <trkpt lat="46.58729" lon="5.4912">
        <ele>415</ele>
        <time>2021-05-29T09:10:14.424Z</time>
      </trkpt>
      <trkpt lat="46.58732" lon="5.49122">
        <ele>415</ele>
        <time>2021-05-29T09:10:15.424Z</time>
      </trkpt>
      <trkpt lat="46.58734" lon="5.49125">
        <ele>415</ele>
        <time>2021-05-29T09:10:16.425Z</time>
      </trkpt>
      <trkpt lat="46.58737" lon="5.49127">
        <ele>416</ele>
        <time>2021-05-29T09:10:17.425Z</time>
      </trkpt>
      <trkpt lat="46.58739" lon="5.49129">
        <ele>416</ele>
        <time>2021-05-29T09:10:18.425Z</time>
      </trkpt>
      <trkpt lat="46.58741" lon="5.49133">
        <ele>416</ele>
        <time>2021-05-29T09:10:19.425Z</time>
      </trkpt>
      <trkpt lat="46.58744" lon="5.49137">
        <ele>417</ele>
        <time>2021-05-29T09:10:20.424Z</time>
      </trkpt>
      <trkpt lat="46.58746" lon="5.4914">
        <ele>417</ele>
        <time>2021-05-29T09:10:21.425Z</time>
      </trkpt>
      <trkpt lat="46.58747" lon="5.49143">
        <ele>416</ele>
        <time>2021-05-29T09:10:22.425Z</time>
      </trkpt>
      <trkpt lat="46.5875" lon="5.49146">
        <ele>416</ele>
        <time>2021-05-29T09:10:23.425Z</time>
      </trkpt>
      <trkpt lat="46.58752" lon="5.49148">
        <ele>416</ele>
        <time>2021-05-29T09:10:24.425Z</time>
      </trkpt>
      <trkpt lat="46.58753" lon="5.49151">
        <ele>416</ele>
        <time>2021-05-29T09:10:25.424Z</time>
      </trkpt>
      <trkpt lat="46.58756" lon="5.49155">
        <ele>416</ele>
        <time>2021-05-29T09:10:26.424Z</time>
      </trkpt>
      <trkpt lat="46.58758" lon="5.49158">
        <ele>416</ele>
        <time>2021-05-29T09:10:27.424Z</time>
      </trkpt>
      <trkpt lat="46.58759" lon="5.49161">
        <ele>416</ele>
        <time>2021-05-29T09:10:28.425Z</time>
      </trkpt>
      <trkpt lat="46.58762" lon="5.49164">
        <ele>415</ele>
        <time>2021-05-29T09:10:29.425Z</time>
      </trkpt>
      <trkpt lat="46.58765" lon="5.49167">
        <ele>415</ele>
        <time>2021-05-29T09:10:30.425Z</time>
      </trkpt>
      <trkpt lat="46.58767" lon="5.49169">
        <ele>415</ele>
        <time>2021-05-29T09:10:31.425Z</time>
      </trkpt>
      <trkpt lat="46.58769" lon="5.49171">
        <ele>414</ele>
        <time>2021-05-29T09:10:32.425Z</time>
      </trkpt>
      <trkpt lat="46.58771" lon="5.49173">
        <ele>414</ele>
        <time>2021-05-29T09:10:33.424Z</time>
      </trkpt>
      <trkpt lat="46.58773" lon="5.49175">
        <ele>414</ele>
        <time>2021-05-29T09:10:34.425Z</time>
      </trkpt>
      <trkpt lat="46.58774" lon="5.49176">
        <ele>414</ele>
        <time>2021-05-29T09:10:35.425Z</time>
      </trkpt>
      <trkpt lat="46.58776" lon="5.49178">
        <ele>413</ele>
        <time>2021-05-29T09:10:36.425Z</time>
      </trkpt>
      <trkpt lat="46.58778" lon="5.49179">
        <ele>413</ele>
        <time>2021-05-29T09:10:37.425Z</time>
      </trkpt>
      <trkpt lat="46.5878" lon="5.4918">
        <ele>412</ele>
        <time>2021-05-29T09:10:38.425Z</time>
      </trkpt>
      <trkpt lat="46.58783" lon="5.49182">
        <ele>412</ele>
        <time>2021-05-29T09:10:39.425Z</time>
      </trkpt>
      <trkpt lat="46.58784" lon="5.49184">
        <ele>411</ele>
        <time>2021-05-29T09:10:40.425Z</time>
      </trkpt>
      <trkpt lat="46.58786" lon="5.49186">
        <ele>410</ele>
        <time>2021-05-29T09:10:41.424Z</time>
      </trkpt>
      <trkpt lat="46.58788" lon="5.49189">
        <ele>409</ele>
        <time>2021-05-29T09:10:42.424Z</time>
      </trkpt>
      <trkpt lat="46.5879" lon="5.49191">
        <ele>409</ele>
        <time>2021-05-29T09:10:43.425Z</time>
      </trkpt>
      <trkpt lat="46.58792" lon="5.49194">
        <ele>408</ele>
        <time>2021-05-29T09:10:44.425Z</time>
      </trkpt>
      <trkpt lat="46.58792" lon="5.49195">
        <ele>408</ele>
        <time>2021-05-29T09:10:45.425Z</time>
      </trkpt>
      <trkpt lat="46.58794" lon="5.49198">
        <ele>407</ele>
        <time>2021-05-29T09:10:46.425Z</time>
      </trkpt>
      <trkpt lat="46.58797" lon="5.49199">
        <ele>407</ele>
        <time>2021-05-29T09:10:47.424Z</time>
      </trkpt>
      <trkpt lat="46.58799" lon="5.49201">
        <ele>406</ele>
        <time>2021-05-29T09:10:48.424Z</time>
      </trkpt>
      <trkpt lat="46.58801" lon="5.49203">
        <ele>406</ele>
        <time>2021-05-29T09:10:49.425Z</time>
      </trkpt>
      <trkpt lat="46.58804" lon="5.49204">
        <ele>406</ele>
        <time>2021-05-29T09:10:50.425Z</time>
      </trkpt>
      <trkpt lat="46.58805" lon="5.49206">
        <ele>405</ele>
        <time>2021-05-29T09:10:51.425Z</time>
      </trkpt>
      <trkpt lat="46.58807" lon="5.49207">
        <ele>405</ele>
        <time>2021-05-29T09:10:52.425Z</time>
      </trkpt>
      <trkpt lat="46.58809" lon="5.49209">
        <ele>405</ele>
        <time>2021-05-29T09:10:53.425Z</time>
      </trkpt>
      <trkpt lat="46.58811" lon="5.49211">
        <ele>404</ele>
        <time>2021-05-29T09:10:54.425Z</time>
      </trkpt>
      <trkpt lat="46.58812" lon="5.49212">
        <ele>404</ele>
        <time>2021-05-29T09:10:55.424Z</time>
      </trkpt>
      <trkpt lat="46.58815" lon="5.49214">
        <ele>404</ele>
        <time>2021-05-29T09:10:56.424Z</time>
      </trkpt>
      <trkpt lat="46.58817" lon="5.49216">
        <ele>404</ele>
        <time>2021-05-29T09:10:57.424Z</time>
      </trkpt>
      <trkpt lat="46.58819" lon="5.49218">
        <ele>404</ele>
        <time>2021-05-29T09:10:58.425Z</time>
      </trkpt>
      <trkpt lat="46.58821" lon="5.4922">
        <ele>404</ele>
        <time>2021-05-29T09:10:59.424Z</time>
      </trkpt>
      <trkpt lat="46.58824" lon="5.49223">
        <ele>404</ele>
        <time>2021-05-29T09:11:00.425Z</time>
      </trkpt>
      <trkpt lat="46.58826" lon="5.49225">
        <ele>404</ele>
        <time>2021-05-29T09:11:01.424Z</time>
      </trkpt>
      <trkpt lat="46.58827" lon="5.49227">
        <ele>403</ele>
        <time>2021-05-29T09:11:02.424Z</time>
      </trkpt>
      <trkpt lat="46.58828" lon="5.49229">
        <ele>403</ele>
        <time>2021-05-29T09:11:03.425Z</time>
      </trkpt>
      <trkpt lat="46.58829" lon="5.49231">
        <ele>403</ele>
        <time>2021-05-29T09:11:04.425Z</time>
      </trkpt>
      <trkpt lat="46.58831" lon="5.49233">
        <ele>402</ele>
        <time>2021-05-29T09:11:05.425Z</time>
      </trkpt>
      <trkpt lat="46.58833" lon="5.49236">
        <ele>402</ele>
        <time>2021-05-29T09:11:06.424Z</time>
      </trkpt>
      <trkpt lat="46.58834" lon="5.49238">
        <ele>402</ele>
        <time>2021-05-29T09:11:07.425Z</time>
      </trkpt>
      <trkpt lat="46.58836" lon="5.49241">
        <ele>402</ele>
        <time>2021-05-29T09:11:08.424Z</time>
      </trkpt>
      <trkpt lat="46.58837" lon="5.49244">
        <ele>402</ele>
        <time>2021-05-29T09:11:09.425Z</time>
      </trkpt>
      <trkpt lat="46.5884" lon="5.49248">
        <ele>401</ele>
        <time>2021-05-29T09:11:10.424Z</time>
      </trkpt>
      <trkpt lat="46.58842" lon="5.49251">
        <ele>401</ele>
        <time>2021-05-29T09:11:11.425Z</time>
      </trkpt>
      <trkpt lat="46.58844" lon="5.49254">
        <ele>401</ele>
        <time>2021-05-29T09:11:12.425Z</time>
      </trkpt>
      <trkpt lat="46.58845" lon="5.49256">
        <ele>400</ele>
        <time>2021-05-29T09:11:13.424Z</time>
      </trkpt>
      <trkpt lat="46.58847" lon="5.49259">
        <ele>400</ele>
        <time>2021-05-29T09:11:14.425Z</time>
      </trkpt>
      <trkpt lat="46.58848" lon="5.49262">
        <ele>399</ele>
        <time>2021-05-29T09:11:15.425Z</time>
      </trkpt>
      <trkpt lat="46.58851" lon="5.49265">
        <ele>399</ele>
        <time>2021-05-29T09:11:16.425Z</time>
      </trkpt>
      <trkpt lat="46.58853" lon="5.49268">
        <ele>399</ele>
        <time>2021-05-29T09:11:17.425Z</time>
      </trkpt>
      <trkpt lat="46.58854" lon="5.49271">
        <ele>398</ele>
        <time>2021-05-29T09:11:18.425Z</time>
      </trkpt>
      <trkpt lat="46.58856" lon="5.49274">
        <ele>398</ele>
        <time>2021-05-29T09:11:19.425Z</time>
      </trkpt>
      <trkpt lat="46.58858" lon="5.49277">
        <ele>398</ele>
        <time>2021-05-29T09:11:20.424Z</time>
      </trkpt>
      <trkpt lat="46.5886" lon="5.4928">
        <ele>397</ele>
        <time>2021-05-29T09:11:21.425Z</time>
      </trkpt>
      <trkpt lat="46.58862" lon="5.49283">
        <ele>397</ele>
        <time>2021-05-29T09:11:22.425Z</time>
      </trkpt>
      <trkpt lat="46.58863" lon="5.49286">
        <ele>397</ele>
        <time>2021-05-29T09:11:23.425Z</time>
      </trkpt>
      <trkpt lat="46.58865" lon="5.49288">
        <ele>396</ele>
        <time>2021-05-29T09:11:24.425Z</time>
      </trkpt>
      <trkpt lat="46.58866" lon="5.4929">
        <ele>396</ele>
        <time>2021-05-29T09:11:25.424Z</time>
      </trkpt>
      <trkpt lat="46.58868" lon="5.49294">
        <ele>396</ele>
        <time>2021-05-29T09:11:26.424Z</time>
      </trkpt>
      <trkpt lat="46.5887" lon="5.49298">
        <ele>396</ele>
        <time>2021-05-29T09:11:27.425Z</time>
      </trkpt>
      <trkpt lat="46.58872" lon="5.49301">
        <ele>396</ele>
        <time>2021-05-29T09:11:28.425Z</time>
      </trkpt>
      <trkpt lat="46.58874" lon="5.49304">
        <ele>395</ele>
        <time>2021-05-29T09:11:29.425Z</time>
      </trkpt>
      <trkpt lat="46.58875" lon="5.49307">
        <ele>395</ele>
        <time>2021-05-29T09:11:30.424Z</time>
      </trkpt>
      <trkpt lat="46.58878" lon="5.49309">
        <ele>395</ele>
        <time>2021-05-29T09:11:31.424Z</time>
      </trkpt>
      <trkpt lat="46.5888" lon="5.49311">
        <ele>395</ele>
        <time>2021-05-29T09:11:32.425Z</time>
      </trkpt>
      <trkpt lat="46.58882" lon="5.49312">
        <ele>395</ele>
        <time>2021-05-29T09:11:33.425Z</time>
      </trkpt>
      <trkpt lat="46.58884" lon="5.49313">
        <ele>394</ele>
        <time>2021-05-29T09:11:34.424Z</time>
      </trkpt>
      <trkpt lat="46.58886" lon="5.49314">
        <ele>394</ele>
        <time>2021-05-29T09:11:35.424Z</time>
      </trkpt>
      <trkpt lat="46.58889" lon="5.49315">
        <ele>394</ele>
        <time>2021-05-29T09:11:36.424Z</time>
      </trkpt>
      <trkpt lat="46.58891" lon="5.49315">
        <ele>393</ele>
        <time>2021-05-29T09:11:37.424Z</time>
      </trkpt>
      <trkpt lat="46.58893" lon="5.49316">
        <ele>393</ele>
        <time>2021-05-29T09:11:38.425Z</time>
      </trkpt>
      <trkpt lat="46.58896" lon="5.49316">
        <ele>392</ele>
        <time>2021-05-29T09:11:39.425Z</time>
      </trkpt>
      <trkpt lat="46.58898" lon="5.49316">
        <ele>392</ele>
        <time>2021-05-29T09:11:40.424Z</time>
      </trkpt>
      <trkpt lat="46.589" lon="5.49316">
        <ele>391</ele>
        <time>2021-05-29T09:11:41.424Z</time>
      </trkpt>
      <trkpt lat="46.58903" lon="5.49316">
        <ele>391</ele>
        <time>2021-05-29T09:11:42.425Z</time>
      </trkpt>
      <trkpt lat="46.58905" lon="5.49316">
        <ele>391</ele>
        <time>2021-05-29T09:11:43.425Z</time>
      </trkpt>
      <trkpt lat="46.58907" lon="5.49316">
        <ele>391</ele>
        <time>2021-05-29T09:11:44.424Z</time>
      </trkpt>
      <trkpt lat="46.58909" lon="5.49316">
        <ele>390</ele>
        <time>2021-05-29T09:11:45.425Z</time>
      </trkpt>
      <trkpt lat="46.58912" lon="5.49317">
        <ele>390</ele>
        <time>2021-05-29T09:11:46.425Z</time>
      </trkpt>
      <trkpt lat="46.58914" lon="5.49316">
        <ele>390</ele>
        <time>2021-05-29T09:11:47.425Z</time>
      </trkpt>
      <trkpt lat="46.58916" lon="5.49316">
        <ele>389</ele>
        <time>2021-05-29T09:11:48.424Z</time>
      </trkpt>
      <trkpt lat="46.58919" lon="5.49315">
        <ele>388</ele>
        <time>2021-05-29T09:11:49.425Z</time>
      </trkpt>
      <trkpt lat="46.58922" lon="5.49315">
        <ele>388</ele>
        <time>2021-05-29T09:11:50.425Z</time>
      </trkpt>
      <trkpt lat="46.58924" lon="5.49314">
        <ele>388</ele>
        <time>2021-05-29T09:11:51.424Z</time>
      </trkpt>
      <trkpt lat="46.58927" lon="5.49313">
        <ele>387</ele>
        <time>2021-05-29T09:11:52.424Z</time>
      </trkpt>
      <trkpt lat="46.5893" lon="5.49313">
        <ele>387</ele>
        <time>2021-05-29T09:11:53.424Z</time>
      </trkpt>
      <trkpt lat="46.58932" lon="5.49312">
        <ele>387</ele>
        <time>2021-05-29T09:11:54.424Z</time>
      </trkpt>
      <trkpt lat="46.58935" lon="5.49312">
        <ele>387</ele>
        <time>2021-05-29T09:11:55.425Z</time>
      </trkpt>
      <trkpt lat="46.58937" lon="5.49311">
        <ele>387</ele>
        <time>2021-05-29T09:11:56.425Z</time>
      </trkpt>
      <trkpt lat="46.5894" lon="5.49311">
        <ele>387</ele>
        <time>2021-05-29T09:11:57.425Z</time>
      </trkpt>
      <trkpt lat="46.58942" lon="5.4931">
        <ele>387</ele>
        <time>2021-05-29T09:11:58.424Z</time>
      </trkpt>
      <trkpt lat="46.58944" lon="5.49309">
        <ele>387</ele>
        <time>2021-05-29T09:11:59.424Z</time>
      </trkpt>
      <trkpt lat="46.58947" lon="5.49308">
        <ele>387</ele>
        <time>2021-05-29T09:12:00.425Z</time>
      </trkpt>
      <trkpt lat="46.58949" lon="5.49307">
        <ele>387</ele>
        <time>2021-05-29T09:12:01.425Z</time>
      </trkpt>
      <trkpt lat="46.58951" lon="5.49306">
        <ele>386</ele>
        <time>2021-05-29T09:12:02.424Z</time>
      </trkpt>
      <trkpt lat="46.58953" lon="5.49305">
        <ele>386</ele>
        <time>2021-05-29T09:12:03.424Z</time>
      </trkpt>
      <trkpt lat="46.58956" lon="5.49305">
        <ele>385</ele>
        <time>2021-05-29T09:12:04.424Z</time>
      </trkpt>
      <trkpt lat="46.58958" lon="5.49305">
        <ele>385</ele>
        <time>2021-05-29T09:12:05.425Z</time>
      </trkpt>
      <trkpt lat="46.5896" lon="5.49304">
        <ele>385</ele>
        <time>2021-05-29T09:12:06.425Z</time>
      </trkpt>
      <trkpt lat="46.58963" lon="5.49303">
        <ele>385</ele>
        <time>2021-05-29T09:12:07.424Z</time>
      </trkpt>
      <trkpt lat="46.58966" lon="5.49303">
        <ele>385</ele>
        <time>2021-05-29T09:12:08.424Z</time>
      </trkpt>
      <trkpt lat="46.58968" lon="5.49302">
        <ele>385</ele>
        <time>2021-05-29T09:12:09.424Z</time>
      </trkpt>
      <trkpt lat="46.58971" lon="5.49302">
        <ele>385</ele>
        <time>2021-05-29T09:12:10.425Z</time>
      </trkpt>
      <trkpt lat="46.58974" lon="5.49301">
        <ele>385</ele>
        <time>2021-05-29T09:12:11.425Z</time>
      </trkpt>
      <trkpt lat="46.58977" lon="5.49301">
        <ele>385</ele>
        <time>2021-05-29T09:12:12.425Z</time>
      </trkpt>
      <trkpt lat="46.5898" lon="5.49301">
        <ele>385</ele>
        <time>2021-05-29T09:12:13.424Z</time>
      </trkpt>
      <trkpt lat="46.58983" lon="5.49302">
        <ele>385</ele>
        <time>2021-05-29T09:12:14.424Z</time>
      </trkpt>
      <trkpt lat="46.58986" lon="5.49303">
        <ele>385</ele>
        <time>2021-05-29T09:12:15.424Z</time>
      </trkpt>
      <trkpt lat="46.58988" lon="5.49304">
        <ele>384</ele>
        <time>2021-05-29T09:12:16.424Z</time>
      </trkpt>
      <trkpt lat="46.58991" lon="5.49305">
        <ele>384</ele>
        <time>2021-05-29T09:12:17.425Z</time>
      </trkpt>
      <trkpt lat="46.58993" lon="5.49307">
        <ele>384</ele>
        <time>2021-05-29T09:12:18.424Z</time>
      </trkpt>
      <trkpt lat="46.58995" lon="5.49309">
        <ele>384</ele>
        <time>2021-05-29T09:12:19.424Z</time>
      </trkpt>
      <trkpt lat="46.58997" lon="5.4931">
        <ele>384</ele>
        <time>2021-05-29T09:12:20.424Z</time>
      </trkpt>
      <trkpt lat="46.58999" lon="5.49312">
        <ele>383</ele>
        <time>2021-05-29T09:12:21.425Z</time>
      </trkpt>
      <trkpt lat="46.59001" lon="5.49314">
        <ele>383</ele>
        <time>2021-05-29T09:12:22.424Z</time>
      </trkpt>
      <trkpt lat="46.59003" lon="5.49317">
        <ele>383</ele>
        <time>2021-05-29T09:12:23.424Z</time>
      </trkpt>
      <trkpt lat="46.59005" lon="5.49319">
        <ele>382</ele>
        <time>2021-05-29T09:12:24.425Z</time>
      </trkpt>
      <trkpt lat="46.59007" lon="5.49323">
        <ele>382</ele>
        <time>2021-05-29T09:12:25.425Z</time>
      </trkpt>
      <trkpt lat="46.59009" lon="5.49327">
        <ele>382</ele>
        <time>2021-05-29T09:12:26.424Z</time>
      </trkpt>
      <trkpt lat="46.59011" lon="5.4933">
        <ele>381</ele>
        <time>2021-05-29T09:12:27.425Z</time>
      </trkpt>
      <trkpt lat="46.59013" lon="5.49334">
        <ele>381</ele>
        <time>2021-05-29T09:12:28.424Z</time>
      </trkpt>
      <trkpt lat="46.59015" lon="5.49338">
        <ele>381</ele>
        <time>2021-05-29T09:12:29.424Z</time>
      </trkpt>
      <trkpt lat="46.59016" lon="5.49341">
        <ele>380</ele>
        <time>2021-05-29T09:12:30.425Z</time>
      </trkpt>
      <trkpt lat="46.59017" lon="5.49343">
        <ele>380</ele>
        <time>2021-05-29T09:12:31.425Z</time>
      </trkpt>
      <trkpt lat="46.59019" lon="5.49346">
        <ele>380</ele>
        <time>2021-05-29T09:12:32.425Z</time>
      </trkpt>
      <trkpt lat="46.59021" lon="5.4935">
        <ele>379</ele>
        <time>2021-05-29T09:12:33.424Z</time>
      </trkpt>
      <trkpt lat="46.59023" lon="5.49353">
        <ele>379</ele>
        <time>2021-05-29T09:12:34.424Z</time>
      </trkpt>
      <trkpt lat="46.59025" lon="5.49355">
        <ele>379</ele>
        <time>2021-05-29T09:12:35.424Z</time>
      </trkpt>
      <trkpt lat="46.59027" lon="5.49357">
        <ele>378</ele>
        <time>2021-05-29T09:12:36.425Z</time>
      </trkpt>
      <trkpt lat="46.59029" lon="5.49359">
        <ele>378</ele>
        <time>2021-05-29T09:12:37.424Z</time>
      </trkpt>
      <trkpt lat="46.59031" lon="5.4936">
        <ele>378</ele>
        <time>2021-05-29T09:12:38.424Z</time>
      </trkpt>
      <trkpt lat="46.59033" lon="5.49361">
        <ele>377</ele>
        <time>2021-05-29T09:12:39.425Z</time>
      </trkpt>
      <trkpt lat="46.59036" lon="5.49362">
        <ele>377</ele>
        <time>2021-05-29T09:12:40.424Z</time>
      </trkpt>
      <trkpt lat="46.59038" lon="5.49362">
        <ele>376</ele>
        <time>2021-05-29T09:12:41.424Z</time>
      </trkpt>
      <trkpt lat="46.59041" lon="5.49363">
        <ele>375</ele>
        <time>2021-05-29T09:12:42.425Z</time>
      </trkpt>
      <trkpt lat="46.59044" lon="5.49363">
        <ele>375</ele>
        <time>2021-05-29T09:12:43.424Z</time>
      </trkpt>
      <trkpt lat="46.59048" lon="5.49364">
        <ele>374</ele>
        <time>2021-05-29T09:12:44.425Z</time>
      </trkpt>
      <trkpt lat="46.59051" lon="5.49364">
        <ele>374</ele>
        <time>2021-05-29T09:12:45.424Z</time>
      </trkpt>
      <trkpt lat="46.59053" lon="5.49365">
        <ele>373</ele>
        <time>2021-05-29T09:12:46.424Z</time>
      </trkpt>
      <trkpt lat="46.59055" lon="5.49366">
        <ele>372</ele>
        <time>2021-05-29T09:12:47.425Z</time>
      </trkpt>
      <trkpt lat="46.59058" lon="5.49366">
        <ele>372</ele>
        <time>2021-05-29T09:12:48.425Z</time>
      </trkpt>
      <trkpt lat="46.59061" lon="5.49367">
        <ele>371</ele>
        <time>2021-05-29T09:12:49.424Z</time>
      </trkpt>
      <trkpt lat="46.59064" lon="5.49369">
        <ele>371</ele>
        <time>2021-05-29T09:12:50.425Z</time>
      </trkpt>
      <trkpt lat="46.59067" lon="5.4937">
        <ele>370</ele>
        <time>2021-05-29T09:12:51.425Z</time>
      </trkpt>
      <trkpt lat="46.59069" lon="5.49371">
        <ele>370</ele>
        <time>2021-05-29T09:12:52.425Z</time>
      </trkpt>
      <trkpt lat="46.59071" lon="5.49372">
        <ele>369</ele>
        <time>2021-05-29T09:12:53.425Z</time>
      </trkpt>
      <trkpt lat="46.59074" lon="5.49372">
        <ele>368</ele>
        <time>2021-05-29T09:12:54.425Z</time>
      </trkpt>
      <trkpt lat="46.59076" lon="5.49373">
        <ele>368</ele>
        <time>2021-05-29T09:12:55.424Z</time>
      </trkpt>
      <trkpt lat="46.59079" lon="5.49374">
        <ele>368</ele>
        <time>2021-05-29T09:12:56.425Z</time>
      </trkpt>
      <trkpt lat="46.59081" lon="5.49375">
        <ele>367</ele>
        <time>2021-05-29T09:12:57.425Z</time>
      </trkpt>
      <trkpt lat="46.59083" lon="5.49375">
        <ele>367</ele>
        <time>2021-05-29T09:12:58.425Z</time>
      </trkpt>
      <trkpt lat="46.59085" lon="5.49377">
        <ele>367</ele>
        <time>2021-05-29T09:12:59.425Z</time>
      </trkpt>
      <trkpt lat="46.59087" lon="5.49379">
        <ele>366</ele>
        <time>2021-05-29T09:13:00.425Z</time>
      </trkpt>
      <trkpt lat="46.59089" lon="5.4938">
        <ele>366</ele>
        <time>2021-05-29T09:13:01.425Z</time>
      </trkpt>
      <trkpt lat="46.59091" lon="5.49382">
        <ele>366</ele>
        <time>2021-05-29T09:13:02.425Z</time>
      </trkpt>
      <trkpt lat="46.59094" lon="5.49385">
        <ele>366</ele>
        <time>2021-05-29T09:13:03.425Z</time>
      </trkpt>
      <trkpt lat="46.59096" lon="5.49387">
        <ele>366</ele>
        <time>2021-05-29T09:13:04.425Z</time>
      </trkpt>
      <trkpt lat="46.59099" lon="5.4939">
        <ele>366</ele>
        <time>2021-05-29T09:13:05.425Z</time>
      </trkpt>
      <trkpt lat="46.59101" lon="5.49392">
        <ele>366</ele>
        <time>2021-05-29T09:13:06.425Z</time>
      </trkpt>
      <trkpt lat="46.59103" lon="5.49395">
        <ele>365</ele>
        <time>2021-05-29T09:13:07.425Z</time>
      </trkpt>
      <trkpt lat="46.59105" lon="5.49397">
        <ele>365</ele>
        <time>2021-05-29T09:13:08.425Z</time>
      </trkpt>
      <trkpt lat="46.59108" lon="5.49399">
        <ele>364</ele>
        <time>2021-05-29T09:13:09.425Z</time>
      </trkpt>
      <trkpt lat="46.5911" lon="5.49402">
        <ele>364</ele>
        <time>2021-05-29T09:13:10.425Z</time>
      </trkpt>
      <trkpt lat="46.59112" lon="5.49404">
        <ele>364</ele>
        <time>2021-05-29T09:13:11.425Z</time>
      </trkpt>
      <trkpt lat="46.59114" lon="5.49406">
        <ele>364</ele>
        <time>2021-05-29T09:13:12.424Z</time>
      </trkpt>
      <trkpt lat="46.59116" lon="5.49408">
        <ele>364</ele>
        <time>2021-05-29T09:13:13.425Z</time>
      </trkpt>
      <trkpt lat="46.59118" lon="5.4941">
        <ele>363</ele>
        <time>2021-05-29T09:13:14.425Z</time>
      </trkpt>
      <trkpt lat="46.59121" lon="5.49413">
        <ele>363</ele>
        <time>2021-05-29T09:13:15.424Z</time>
      </trkpt>
      <trkpt lat="46.59123" lon="5.49415">
        <ele>363</ele>
        <time>2021-05-29T09:13:16.425Z</time>
      </trkpt>
      <trkpt lat="46.59125" lon="5.49417">
        <ele>363</ele>
        <time>2021-05-29T09:13:17.425Z</time>
      </trkpt>
      <trkpt lat="46.59127" lon="5.49419">
        <ele>363</ele>
        <time>2021-05-29T09:13:18.425Z</time>
      </trkpt>
      <trkpt lat="46.59129" lon="5.49421">
        <ele>363</ele>
        <time>2021-05-29T09:13:19.425Z</time>
      </trkpt>
      <trkpt lat="46.5913" lon="5.49423">
        <ele>362</ele>
        <time>2021-05-29T09:13:20.425Z</time>
      </trkpt>
      <trkpt lat="46.59132" lon="5.49426">
        <ele>362</ele>
        <time>2021-05-29T09:13:21.425Z</time>
      </trkpt>
      <trkpt lat="46.59134" lon="5.49428">
        <ele>362</ele>
        <time>2021-05-29T09:13:22.424Z</time>
      </trkpt>
      <trkpt lat="46.59136" lon="5.49429">
        <ele>362</ele>
        <time>2021-05-29T09:13:23.425Z</time>
      </trkpt>
      <trkpt lat="46.59138" lon="5.49431">
        <ele>362</ele>
        <time>2021-05-29T09:13:24.424Z</time>
      </trkpt>
      <trkpt lat="46.5914" lon="5.49433">
        <ele>362</ele>
        <time>2021-05-29T09:13:25.425Z</time>
      </trkpt>
      <trkpt lat="46.59142" lon="5.49435">
        <ele>362</ele>
        <time>2021-05-29T09:13:26.425Z</time>
      </trkpt>
      <trkpt lat="46.59143" lon="5.49437">
        <ele>362</ele>
        <time>2021-05-29T09:13:27.425Z</time>
      </trkpt>
      <trkpt lat="46.59145" lon="5.4944">
        <ele>362</ele>
        <time>2021-05-29T09:13:28.424Z</time>
      </trkpt>
      <trkpt lat="46.59146" lon="5.49442">
        <ele>362</ele>
        <time>2021-05-29T09:13:29.425Z</time>
      </trkpt>
      <trkpt lat="46.59145" lon="5.49446">
        <ele>362</ele>
        <time>2021-05-29T09:13:30.425Z</time>
      </trkpt>
      <trkpt lat="46.59144" lon="5.49449">
        <ele>362</ele>
        <time>2021-05-29T09:13:31.425Z</time>
      </trkpt>
      <trkpt lat="46.59142" lon="5.49451">
        <ele>362</ele>
        <time>2021-05-29T09:13:32.425Z</time>
      </trkpt>
      <trkpt lat="46.59141" lon="5.49454">
        <ele>361</ele>
        <time>2021-05-29T09:13:33.425Z</time>
      </trkpt>
      <trkpt lat="46.59139" lon="5.49458">
        <ele>361</ele>
        <time>2021-05-29T09:13:34.425Z</time>
      </trkpt>
      <trkpt lat="46.59138" lon="5.49461">
        <ele>361</ele>
        <time>2021-05-29T09:13:35.424Z</time>
      </trkpt>
      <trkpt lat="46.59137" lon="5.49463">
        <ele>360</ele>
        <time>2021-05-29T09:13:36.425Z</time>
      </trkpt>
      <trkpt lat="46.59135" lon="5.49463">
        <ele>360</ele>
        <time>2021-05-29T09:13:37.425Z</time>
      </trkpt>
      <trkpt lat="46.59133" lon="5.49462">
        <ele>360</ele>
        <time>2021-05-29T09:13:38.425Z</time>
      </trkpt>
      <trkpt lat="46.59133" lon="5.4946">
        <ele>360</ele>
        <time>2021-05-29T09:13:39.425Z</time>
      </trkpt>
      <trkpt lat="46.59134" lon="5.49458">
        <ele>360</ele>
        <time>2021-05-29T09:13:40.425Z</time>
      </trkpt>
      <trkpt lat="46.59135" lon="5.49456">
        <ele>359</ele>
        <time>2021-05-29T09:13:41.425Z</time>
      </trkpt>
      <trkpt lat="46.59136" lon="5.49454">
        <ele>358</ele>
        <time>2021-05-29T09:13:42.425Z</time>
      </trkpt>
      <trkpt lat="46.59137" lon="5.49452">
        <ele>358</ele>
        <time>2021-05-29T09:13:43.425Z</time>
      </trkpt>
      <trkpt lat="46.59139" lon="5.4945">
        <ele>358</ele>
        <time>2021-05-29T09:13:44.425Z</time>
      </trkpt>
      <trkpt lat="46.59139" lon="5.49448">
        <ele>357</ele>
        <time>2021-05-29T09:13:45.425Z</time>
      </trkpt>
      <trkpt lat="46.5914" lon="5.49446">
        <ele>357</ele>
        <time>2021-05-29T09:13:46.425Z</time>
      </trkpt>
      <trkpt lat="46.59141" lon="5.49444">
        <ele>357</ele>
        <time>2021-05-29T09:13:47.425Z</time>
      </trkpt>
      <trkpt lat="46.59141" lon="5.49442">
        <ele>357</ele>
        <time>2021-05-29T09:13:48.425Z</time>
      </trkpt>
      <trkpt lat="46.59141" lon="5.4944">
        <ele>357</ele>
        <time>2021-05-29T09:13:49.424Z</time>
      </trkpt>
      <trkpt lat="46.59141" lon="5.49439">
        <ele>357</ele>
        <time>2021-05-29T09:13:50.425Z</time>
      </trkpt>
      <trkpt lat="46.5914" lon="5.49438">
        <ele>357</ele>
        <time>2021-05-29T09:13:51.425Z</time>
      </trkpt>
      <trkpt lat="46.59139" lon="5.49437">
        <ele>357</ele>
        <time>2021-05-29T09:13:52.425Z</time>
      </trkpt>
      <trkpt lat="46.59139" lon="5.49435">
        <ele>357</ele>
        <time>2021-05-29T09:13:53.425Z</time>
      </trkpt>
      <trkpt lat="46.59138" lon="5.49434">
        <ele>357</ele>
        <time>2021-05-29T09:13:54.425Z</time>
      </trkpt>
      <trkpt lat="46.59137" lon="5.49432">
        <ele>358</ele>
        <time>2021-05-29T09:13:55.425Z</time>
      </trkpt>
      <trkpt lat="46.59135" lon="5.49431">
        <ele>358</ele>
        <time>2021-05-29T09:13:56.425Z</time>
      </trkpt>
      <trkpt lat="46.59133" lon="5.4943">
        <ele>359</ele>
        <time>2021-05-29T09:13:57.425Z</time>
      </trkpt>
      <trkpt lat="46.59132" lon="5.49428">
        <ele>359</ele>
        <time>2021-05-29T09:13:58.424Z</time>
      </trkpt>
      <trkpt lat="46.59131" lon="5.49427">
        <ele>359</ele>
        <time>2021-05-29T09:13:59.424Z</time>
      </trkpt>
      <trkpt lat="46.59129" lon="5.49427">
        <ele>359</ele>
        <time>2021-05-29T09:14:00.425Z</time>
      </trkpt>
      <trkpt lat="46.59128" lon="5.49428">
        <ele>359</ele>
        <time>2021-05-29T09:14:01.424Z</time>
      </trkpt>
      <trkpt lat="46.59127" lon="5.49427">
        <ele>359</ele>
        <time>2021-05-29T09:14:02.425Z</time>
      </trkpt>
      <trkpt lat="46.59127" lon="5.49425">
        <ele>359</ele>
        <time>2021-05-29T09:14:03.425Z</time>
      </trkpt>
      <trkpt lat="46.59136" lon="5.49432">
        <ele>363</ele>
        <time>2021-05-29T09:14:04.426Z</time>
      </trkpt>
      <trkpt lat="46.59137" lon="5.49433">
        <ele>363</ele>
        <time>2021-05-29T09:14:05.426Z</time>
      </trkpt>
      <trkpt lat="46.59139" lon="5.49434">
        <ele>363</ele>
        <time>2021-05-29T09:14:06.426Z</time>
      </trkpt>
      <trkpt lat="46.5914" lon="5.49436">
        <ele>363</ele>
        <time>2021-05-29T09:14:07.426Z</time>
      </trkpt>
      <trkpt lat="46.59142" lon="5.49438">
        <ele>363</ele>
        <time>2021-05-29T09:14:08.426Z</time>
      </trkpt>
      <trkpt lat="46.59144" lon="5.4944">
        <ele>363</ele>
        <time>2021-05-29T09:14:09.425Z</time>
      </trkpt>
      <trkpt lat="46.59145" lon="5.49443">
        <ele>363</ele>
        <time>2021-05-29T09:14:10.425Z</time>
      </trkpt>
      <trkpt lat="46.59146" lon="5.49446">
        <ele>362</ele>
        <time>2021-05-29T09:14:11.426Z</time>
      </trkpt>
      <trkpt lat="46.59145" lon="5.49448">
        <ele>362</ele>
        <time>2021-05-29T09:14:12.426Z</time>
      </trkpt>
      <trkpt lat="46.59145" lon="5.49451">
        <ele>362</ele>
        <time>2021-05-29T09:14:13.426Z</time>
      </trkpt>
      <trkpt lat="46.59144" lon="5.49454">
        <ele>361</ele>
        <time>2021-05-29T09:14:14.425Z</time>
      </trkpt>
      <trkpt lat="46.59142" lon="5.49457">
        <ele>361</ele>
        <time>2021-05-29T09:14:15.426Z</time>
      </trkpt>
      <trkpt lat="46.5914" lon="5.49459">
        <ele>361</ele>
        <time>2021-05-29T09:14:16.426Z</time>
      </trkpt>
      <trkpt lat="46.59139" lon="5.49461">
        <ele>360</ele>
        <time>2021-05-29T09:14:17.426Z</time>
      </trkpt>
      <trkpt lat="46.59137" lon="5.49464">
        <ele>360</ele>
        <time>2021-05-29T09:14:18.425Z</time>
      </trkpt>
      <trkpt lat="46.59135" lon="5.49466">
        <ele>360</ele>
        <time>2021-05-29T09:14:19.426Z</time>
      </trkpt>
      <trkpt lat="46.59133" lon="5.49468">
        <ele>360</ele>
        <time>2021-05-29T09:14:20.425Z</time>
      </trkpt>
      <trkpt lat="46.59132" lon="5.49471">
        <ele>360</ele>
        <time>2021-05-29T09:14:21.426Z</time>
      </trkpt>
      <trkpt lat="46.5913" lon="5.49473">
        <ele>359</ele>
        <time>2021-05-29T09:14:22.426Z</time>
      </trkpt>
      <trkpt lat="46.59128" lon="5.49476">
        <ele>359</ele>
        <time>2021-05-29T09:14:23.426Z</time>
      </trkpt>
      <trkpt lat="46.59126" lon="5.49478">
        <ele>359</ele>
        <time>2021-05-29T09:14:24.426Z</time>
      </trkpt>
      <trkpt lat="46.59125" lon="5.4948">
        <ele>359</ele>
        <time>2021-05-29T09:14:25.426Z</time>
      </trkpt>
      <trkpt lat="46.59123" lon="5.49482">
        <ele>359</ele>
        <time>2021-05-29T09:14:26.426Z</time>
      </trkpt>
      <trkpt lat="46.59121" lon="5.49485">
        <ele>358</ele>
        <time>2021-05-29T09:14:27.425Z</time>
      </trkpt>
      <trkpt lat="46.5912" lon="5.49487">
        <ele>358</ele>
        <time>2021-05-29T09:14:28.426Z</time>
      </trkpt>
      <trkpt lat="46.59118" lon="5.49489">
        <ele>358</ele>
        <time>2021-05-29T09:14:29.425Z</time>
      </trkpt>
      <trkpt lat="46.59116" lon="5.49492">
        <ele>358</ele>
        <time>2021-05-29T09:14:30.426Z</time>
      </trkpt>
      <trkpt lat="46.59113" lon="5.49494">
        <ele>358</ele>
        <time>2021-05-29T09:14:31.426Z</time>
      </trkpt>
      <trkpt lat="46.59111" lon="5.49497">
        <ele>358</ele>
        <time>2021-05-29T09:14:32.426Z</time>
      </trkpt>
      <trkpt lat="46.59109" lon="5.49499">
        <ele>358</ele>
        <time>2021-05-29T09:14:33.425Z</time>
      </trkpt>
      <trkpt lat="46.59107" lon="5.49501">
        <ele>358</ele>
        <time>2021-05-29T09:14:34.426Z</time>
      </trkpt>
      <trkpt lat="46.59105" lon="5.49504">
        <ele>358</ele>
        <time>2021-05-29T09:14:35.426Z</time>
      </trkpt>
      <trkpt lat="46.59103" lon="5.49506">
        <ele>358</ele>
        <time>2021-05-29T09:14:36.425Z</time>
      </trkpt>
      <trkpt lat="46.59101" lon="5.49508">
        <ele>358</ele>
        <time>2021-05-29T09:14:37.426Z</time>
      </trkpt>
      <trkpt lat="46.591" lon="5.49511">
        <ele>358</ele>
        <time>2021-05-29T09:14:38.425Z</time>
      </trkpt>
      <trkpt lat="46.59097" lon="5.49513">
        <ele>358</ele>
        <time>2021-05-29T09:14:39.426Z</time>
      </trkpt>
      <trkpt lat="46.59095" lon="5.49516">
        <ele>357</ele>
        <time>2021-05-29T09:14:40.426Z</time>
      </trkpt>
      <trkpt lat="46.59093" lon="5.49518">
        <ele>357</ele>
        <time>2021-05-29T09:14:41.425Z</time>
      </trkpt>
      <trkpt lat="46.59091" lon="5.4952">
        <ele>357</ele>
        <time>2021-05-29T09:14:42.426Z</time>
      </trkpt>
      <trkpt lat="46.59088" lon="5.49523">
        <ele>357</ele>
        <time>2021-05-29T09:14:43.426Z</time>
      </trkpt>
      <trkpt lat="46.59086" lon="5.49525">
        <ele>356</ele>
        <time>2021-05-29T09:14:44.426Z</time>
      </trkpt>
      <trkpt lat="46.59085" lon="5.49527">
        <ele>356</ele>
        <time>2021-05-29T09:14:45.426Z</time>
      </trkpt>
      <trkpt lat="46.59083" lon="5.49529">
        <ele>355</ele>
        <time>2021-05-29T09:14:46.425Z</time>
      </trkpt>
      <trkpt lat="46.59081" lon="5.49532">
        <ele>355</ele>
        <time>2021-05-29T09:14:47.426Z</time>
      </trkpt>
      <trkpt lat="46.5908" lon="5.49535">
        <ele>355</ele>
        <time>2021-05-29T09:14:48.425Z</time>
      </trkpt>
      <trkpt lat="46.59079" lon="5.49538">
        <ele>354</ele>
        <time>2021-05-29T09:14:49.426Z</time>
      </trkpt>
      <trkpt lat="46.59078" lon="5.49542">
        <ele>354</ele>
        <time>2021-05-29T09:14:50.426Z</time>
      </trkpt>
      <trkpt lat="46.59077" lon="5.49545">
        <ele>353</ele>
        <time>2021-05-29T09:14:51.425Z</time>
      </trkpt>
      <trkpt lat="46.59077" lon="5.49549">
        <ele>353</ele>
        <time>2021-05-29T09:14:52.426Z</time>
      </trkpt>
      <trkpt lat="46.59078" lon="5.49552">
        <ele>353</ele>
        <time>2021-05-29T09:14:53.426Z</time>
      </trkpt>
      <trkpt lat="46.59078" lon="5.49555">
        <ele>352</ele>
        <time>2021-05-29T09:14:54.426Z</time>
      </trkpt>
      <trkpt lat="46.59079" lon="5.49558">
        <ele>352</ele>
        <time>2021-05-29T09:14:55.426Z</time>
      </trkpt>
      <trkpt lat="46.59081" lon="5.49561">
        <ele>351</ele>
        <time>2021-05-29T09:14:56.425Z</time>
      </trkpt>
      <trkpt lat="46.59083" lon="5.49564">
        <ele>351</ele>
        <time>2021-05-29T09:14:57.425Z</time>
      </trkpt>
      <trkpt lat="46.59085" lon="5.49566">
        <ele>350</ele>
        <time>2021-05-29T09:14:58.426Z</time>
      </trkpt>
      <trkpt lat="46.59087" lon="5.49568">
        <ele>350</ele>
        <time>2021-05-29T09:14:59.425Z</time>
      </trkpt>
      <trkpt lat="46.59088" lon="5.4957">
        <ele>349</ele>
        <time>2021-05-29T09:15:00.426Z</time>
      </trkpt>
      <trkpt lat="46.5909" lon="5.49572">
        <ele>349</ele>
        <time>2021-05-29T09:15:01.425Z</time>
      </trkpt>
      <trkpt lat="46.59092" lon="5.49574">
        <ele>348</ele>
        <time>2021-05-29T09:15:02.426Z</time>
      </trkpt>
      <trkpt lat="46.59094" lon="5.49576">
        <ele>347</ele>
        <time>2021-05-29T09:15:03.426Z</time>
      </trkpt>
      <trkpt lat="46.59096" lon="5.49577">
        <ele>347</ele>
        <time>2021-05-29T09:15:04.426Z</time>
      </trkpt>
      <trkpt lat="46.59099" lon="5.49579">
        <ele>346</ele>
        <time>2021-05-29T09:15:05.426Z</time>
      </trkpt>
      <trkpt lat="46.59101" lon="5.49581">
        <ele>346</ele>
        <time>2021-05-29T09:15:06.425Z</time>
      </trkpt>
      <trkpt lat="46.59104" lon="5.49583">
        <ele>345</ele>
        <time>2021-05-29T09:15:07.426Z</time>
      </trkpt>
      <trkpt lat="46.59106" lon="5.49586">
        <ele>345</ele>
        <time>2021-05-29T09:15:08.425Z</time>
      </trkpt>
      <trkpt lat="46.59108" lon="5.49587">
        <ele>344</ele>
        <time>2021-05-29T09:15:09.426Z</time>
      </trkpt>
      <trkpt lat="46.5911" lon="5.49589">
        <ele>343</ele>
        <time>2021-05-29T09:15:10.426Z</time>
      </trkpt>
      <trkpt lat="46.59112" lon="5.49591">
        <ele>343</ele>
        <time>2021-05-29T09:15:11.426Z</time>
      </trkpt>
      <trkpt lat="46.59114" lon="5.49592">
        <ele>343</ele>
        <time>2021-05-29T09:15:12.425Z</time>
      </trkpt>
      <trkpt lat="46.59117" lon="5.49594">
        <ele>342</ele>
        <time>2021-05-29T09:15:13.426Z</time>
      </trkpt>
      <trkpt lat="46.59119" lon="5.49596">
        <ele>342</ele>
        <time>2021-05-29T09:15:14.425Z</time>
      </trkpt>
      <trkpt lat="46.59121" lon="5.49597">
        <ele>342</ele>
        <time>2021-05-29T09:15:15.426Z</time>
      </trkpt>
      <trkpt lat="46.59123" lon="5.49598">
        <ele>342</ele>
        <time>2021-05-29T09:15:16.426Z</time>
      </trkpt>
      <trkpt lat="46.59124" lon="5.49599">
        <ele>341</ele>
        <time>2021-05-29T09:15:17.425Z</time>
      </trkpt>
      <trkpt lat="46.59126" lon="5.496">
        <ele>341</ele>
        <time>2021-05-29T09:15:18.426Z</time>
      </trkpt>
      <trkpt lat="46.59128" lon="5.49602">
        <ele>340</ele>
        <time>2021-05-29T09:15:19.425Z</time>
      </trkpt>
      <trkpt lat="46.5913" lon="5.49603">
        <ele>340</ele>
        <time>2021-05-29T09:15:20.426Z</time>
      </trkpt>
      <trkpt lat="46.59131" lon="5.49603">
        <ele>339</ele>
        <time>2021-05-29T09:15:21.426Z</time>
      </trkpt>
      <trkpt lat="46.59132" lon="5.49604">
        <ele>339</ele>
        <time>2021-05-29T09:15:22.426Z</time>
      </trkpt>
      <trkpt lat="46.59134" lon="5.49604">
        <ele>339</ele>
        <time>2021-05-29T09:15:23.425Z</time>
      </trkpt>
      <trkpt lat="46.59135" lon="5.49604">
        <ele>338</ele>
        <time>2021-05-29T09:15:24.426Z</time>
      </trkpt>
      <trkpt lat="46.59137" lon="5.49604">
        <ele>337</ele>
        <time>2021-05-29T09:15:25.426Z</time>
      </trkpt>
      <trkpt lat="46.59138" lon="5.49605">
        <ele>336</ele>
        <time>2021-05-29T09:15:26.426Z</time>
      </trkpt>
      <trkpt lat="46.59141" lon="5.49605">
        <ele>336</ele>
        <time>2021-05-29T09:15:27.426Z</time>
      </trkpt>
      <trkpt lat="46.59143" lon="5.49604">
        <ele>336</ele>
        <time>2021-05-29T09:15:28.426Z</time>
      </trkpt>
      <trkpt lat="46.59145" lon="5.49604">
        <ele>336</ele>
        <time>2021-05-29T09:15:29.426Z</time>
      </trkpt>
      <trkpt lat="46.59147" lon="5.49603">
        <ele>336</ele>
        <time>2021-05-29T09:15:30.426Z</time>
      </trkpt>
      <trkpt lat="46.59149" lon="5.49604">
        <ele>336</ele>
        <time>2021-05-29T09:15:31.426Z</time>
      </trkpt>
      <trkpt lat="46.59151" lon="5.49605">
        <ele>336</ele>
        <time>2021-05-29T09:15:32.425Z</time>
      </trkpt>
      <trkpt lat="46.59153" lon="5.49607">
        <ele>336</ele>
        <time>2021-05-29T09:15:33.426Z</time>
      </trkpt>
      <trkpt lat="46.59154" lon="5.4961">
        <ele>336</ele>
        <time>2021-05-29T09:15:34.426Z</time>
      </trkpt>
      <trkpt lat="46.59155" lon="5.49614">
        <ele>336</ele>
        <time>2021-05-29T09:15:35.426Z</time>
      </trkpt>
      <trkpt lat="46.59155" lon="5.49618">
        <ele>335</ele>
        <time>2021-05-29T09:15:36.426Z</time>
      </trkpt>
      <trkpt lat="46.59153" lon="5.49622">
        <ele>335</ele>
        <time>2021-05-29T09:15:37.426Z</time>
      </trkpt>
      <trkpt lat="46.59151" lon="5.49625">
        <ele>334</ele>
        <time>2021-05-29T09:15:38.426Z</time>
      </trkpt>
      <trkpt lat="46.5915" lon="5.49629">
        <ele>334</ele>
        <time>2021-05-29T09:15:39.426Z</time>
      </trkpt>
      <trkpt lat="46.59147" lon="5.49632">
        <ele>334</ele>
        <time>2021-05-29T09:15:40.426Z</time>
      </trkpt>
      <trkpt lat="46.59145" lon="5.49635">
        <ele>334</ele>
        <time>2021-05-29T09:15:41.425Z</time>
      </trkpt>
      <trkpt lat="46.59143" lon="5.49637">
        <ele>334</ele>
        <time>2021-05-29T09:15:42.426Z</time>
      </trkpt>
      <trkpt lat="46.59141" lon="5.4964">
        <ele>334</ele>
        <time>2021-05-29T09:15:43.426Z</time>
      </trkpt>
      <trkpt lat="46.5914" lon="5.49642">
        <ele>334</ele>
        <time>2021-05-29T09:15:44.425Z</time>
      </trkpt>
      <trkpt lat="46.59138" lon="5.49644">
        <ele>334</ele>
        <time>2021-05-29T09:15:45.426Z</time>
      </trkpt>
      <trkpt lat="46.59136" lon="5.49646">
        <ele>334</ele>
        <time>2021-05-29T09:15:46.425Z</time>
      </trkpt>
      <trkpt lat="46.59134" lon="5.49648">
        <ele>334</ele>
        <time>2021-05-29T09:15:47.426Z</time>
      </trkpt>
      <trkpt lat="46.59132" lon="5.4965">
        <ele>334</ele>
        <time>2021-05-29T09:15:48.426Z</time>
      </trkpt>
      <trkpt lat="46.5913" lon="5.49652">
        <ele>333</ele>
        <time>2021-05-29T09:15:49.426Z</time>
      </trkpt>
      <trkpt lat="46.59128" lon="5.49654">
        <ele>333</ele>
        <time>2021-05-29T09:15:50.426Z</time>
      </trkpt>
      <trkpt lat="46.59126" lon="5.49656">
        <ele>333</ele>
        <time>2021-05-29T09:15:51.425Z</time>
      </trkpt>
      <trkpt lat="46.59125" lon="5.49657">
        <ele>333</ele>
        <time>2021-05-29T09:15:52.426Z</time>
      </trkpt>
      <trkpt lat="46.59122" lon="5.49659">
        <ele>332</ele>
        <time>2021-05-29T09:15:53.426Z</time>
      </trkpt>
      <trkpt lat="46.5912" lon="5.49661">
        <ele>332</ele>
        <time>2021-05-29T09:15:54.426Z</time>
      </trkpt>
      <trkpt lat="46.59119" lon="5.49663">
        <ele>331</ele>
        <time>2021-05-29T09:15:55.425Z</time>
      </trkpt>
      <trkpt lat="46.59117" lon="5.49665">
        <ele>331</ele>
        <time>2021-05-29T09:15:56.425Z</time>
      </trkpt>
      <trkpt lat="46.59114" lon="5.49667">
        <ele>330</ele>
        <time>2021-05-29T09:15:57.425Z</time>
      </trkpt>
      <trkpt lat="46.59113" lon="5.49668">
        <ele>330</ele>
        <time>2021-05-29T09:15:58.426Z</time>
      </trkpt>
      <trkpt lat="46.5911" lon="5.4967">
        <ele>330</ele>
        <time>2021-05-29T09:15:59.426Z</time>
      </trkpt>
      <trkpt lat="46.59108" lon="5.49671">
        <ele>330</ele>
        <time>2021-05-29T09:16:00.426Z</time>
      </trkpt>
      <trkpt lat="46.59107" lon="5.49673">
        <ele>330</ele>
        <time>2021-05-29T09:16:01.426Z</time>
      </trkpt>
      <trkpt lat="46.59104" lon="5.49675">
        <ele>329</ele>
        <time>2021-05-29T09:16:02.426Z</time>
      </trkpt>
      <trkpt lat="46.59102" lon="5.49676">
        <ele>329</ele>
        <time>2021-05-29T09:16:03.426Z</time>
      </trkpt>
      <trkpt lat="46.591" lon="5.49678">
        <ele>329</ele>
        <time>2021-05-29T09:16:04.425Z</time>
      </trkpt>
      <trkpt lat="46.59098" lon="5.4968">
        <ele>329</ele>
        <time>2021-05-29T09:16:05.426Z</time>
      </trkpt>
      <trkpt lat="46.59096" lon="5.49682">
        <ele>329</ele>
        <time>2021-05-29T09:16:06.426Z</time>
      </trkpt>
      <trkpt lat="46.59094" lon="5.49683">
        <ele>328</ele>
        <time>2021-05-29T09:16:07.425Z</time>
      </trkpt>
      <trkpt lat="46.59092" lon="5.49685">
        <ele>328</ele>
        <time>2021-05-29T09:16:08.426Z</time>
      </trkpt>
      <trkpt lat="46.5909" lon="5.49687">
        <ele>328</ele>
        <time>2021-05-29T09:16:09.426Z</time>
      </trkpt>
      <trkpt lat="46.59088" lon="5.49688">
        <ele>328</ele>
        <time>2021-05-29T09:16:10.426Z</time>
      </trkpt>
      <trkpt lat="46.59086" lon="5.4969">
        <ele>328</ele>
        <time>2021-05-29T09:16:11.426Z</time>
      </trkpt>
      <trkpt lat="46.59084" lon="5.49692">
        <ele>327</ele>
        <time>2021-05-29T09:16:12.426Z</time>
      </trkpt>
      <trkpt lat="46.59082" lon="5.49693">
        <ele>327</ele>
        <time>2021-05-29T09:16:13.426Z</time>
      </trkpt>
      <trkpt lat="46.5908" lon="5.49695">
        <ele>326</ele>
        <time>2021-05-29T09:16:14.426Z</time>
      </trkpt>
      <trkpt lat="46.59078" lon="5.49696">
        <ele>326</ele>
        <time>2021-05-29T09:16:15.426Z</time>
      </trkpt>
      <trkpt lat="46.59076" lon="5.49698">
        <ele>325</ele>
        <time>2021-05-29T09:16:16.425Z</time>
      </trkpt>
      <trkpt lat="46.59074" lon="5.497">
        <ele>324</ele>
        <time>2021-05-29T09:16:17.426Z</time>
      </trkpt>
      <trkpt lat="46.59072" lon="5.49701">
        <ele>324</ele>
        <time>2021-05-29T09:16:18.426Z</time>
      </trkpt>
      <trkpt lat="46.5907" lon="5.49702">
        <ele>323</ele>
        <time>2021-05-29T09:16:19.426Z</time>
      </trkpt>
      <trkpt lat="46.59067" lon="5.49704">
        <ele>323</ele>
        <time>2021-05-29T09:16:20.426Z</time>
      </trkpt>
      <trkpt lat="46.59065" lon="5.49705">
        <ele>322</ele>
        <time>2021-05-29T09:16:21.425Z</time>
      </trkpt>
      <trkpt lat="46.59063" lon="5.49707">
        <ele>322</ele>
        <time>2021-05-29T09:16:22.426Z</time>
      </trkpt>
      <trkpt lat="46.59062" lon="5.49708">
        <ele>321</ele>
        <time>2021-05-29T09:16:23.426Z</time>
      </trkpt>
      <trkpt lat="46.5906" lon="5.4971">
        <ele>320</ele>
        <time>2021-05-29T09:16:24.426Z</time>
      </trkpt>
      <trkpt lat="46.59058" lon="5.49711">
        <ele>320</ele>
        <time>2021-05-29T09:16:25.426Z</time>
      </trkpt>
      <trkpt lat="46.59056" lon="5.49712">
        <ele>319</ele>
        <time>2021-05-29T09:16:26.425Z</time>
      </trkpt>
      <trkpt lat="46.59054" lon="5.49714">
        <ele>319</ele>
        <time>2021-05-29T09:16:27.425Z</time>
      </trkpt>
      <trkpt lat="46.59052" lon="5.49715">
        <ele>318</ele>
        <time>2021-05-29T09:16:28.425Z</time>
      </trkpt>
      <trkpt lat="46.5905" lon="5.49717">
        <ele>318</ele>
        <time>2021-05-29T09:16:29.426Z</time>
      </trkpt>
      <trkpt lat="46.59048" lon="5.49718">
        <ele>318</ele>
        <time>2021-05-29T09:16:30.426Z</time>
      </trkpt>
      <trkpt lat="46.59046" lon="5.4972">
        <ele>317</ele>
        <time>2021-05-29T09:16:31.425Z</time>
      </trkpt>
      <trkpt lat="46.59044" lon="5.49722">
        <ele>317</ele>
        <time>2021-05-29T09:16:32.425Z</time>
      </trkpt>
      <trkpt lat="46.59042" lon="5.49724">
        <ele>317</ele>
        <time>2021-05-29T09:16:33.425Z</time>
      </trkpt>
      <trkpt lat="46.59039" lon="5.49726">
        <ele>317</ele>
        <time>2021-05-29T09:16:34.425Z</time>
      </trkpt>
      <trkpt lat="46.59037" lon="5.49727">
        <ele>317</ele>
        <time>2021-05-29T09:16:35.425Z</time>
      </trkpt>
      <trkpt lat="46.59035" lon="5.4973">
        <ele>318</ele>
        <time>2021-05-29T09:16:36.425Z</time>
      </trkpt>
      <trkpt lat="46.59032" lon="5.49732">
        <ele>318</ele>
        <time>2021-05-29T09:16:37.426Z</time>
      </trkpt>
      <trkpt lat="46.59031" lon="5.49733">
        <ele>318</ele>
        <time>2021-05-29T09:16:38.426Z</time>
      </trkpt>
      <trkpt lat="46.59029" lon="5.49735">
        <ele>317</ele>
        <time>2021-05-29T09:16:39.426Z</time>
      </trkpt>
      <trkpt lat="46.59027" lon="5.49736">
        <ele>317</ele>
        <time>2021-05-29T09:16:40.425Z</time>
      </trkpt>
      <trkpt lat="46.59026" lon="5.49738">
        <ele>317</ele>
        <time>2021-05-29T09:16:41.426Z</time>
      </trkpt>
      <trkpt lat="46.59024" lon="5.49739">
        <ele>316</ele>
        <time>2021-05-29T09:16:42.426Z</time>
      </trkpt>
      <trkpt lat="46.59022" lon="5.49741">
        <ele>316</ele>
        <time>2021-05-29T09:16:43.426Z</time>
      </trkpt>
      <trkpt lat="46.59019" lon="5.49743">
        <ele>316</ele>
        <time>2021-05-29T09:16:44.426Z</time>
      </trkpt>
      <trkpt lat="46.59018" lon="5.49745">
        <ele>315</ele>
        <time>2021-05-29T09:16:45.426Z</time>
      </trkpt>
      <trkpt lat="46.59015" lon="5.49747">
        <ele>315</ele>
        <time>2021-05-29T09:16:46.426Z</time>
      </trkpt>
      <trkpt lat="46.59013" lon="5.49749">
        <ele>315</ele>
        <time>2021-05-29T09:16:47.426Z</time>
      </trkpt>
      <trkpt lat="46.59011" lon="5.49751">
        <ele>314</ele>
        <time>2021-05-29T09:16:48.426Z</time>
      </trkpt>
      <trkpt lat="46.59009" lon="5.49753">
        <ele>314</ele>
        <time>2021-05-29T09:16:49.426Z</time>
      </trkpt>
      <trkpt lat="46.59007" lon="5.49755">
        <ele>314</ele>
        <time>2021-05-29T09:16:50.426Z</time>
      </trkpt>
      <trkpt lat="46.59004" lon="5.49756">
        <ele>313</ele>
        <time>2021-05-29T09:16:51.426Z</time>
      </trkpt>
      <trkpt lat="46.59002" lon="5.49758">
        <ele>313</ele>
        <time>2021-05-29T09:16:52.426Z</time>
      </trkpt>
      <trkpt lat="46.59" lon="5.49759">
        <ele>313</ele>
        <time>2021-05-29T09:16:53.425Z</time>
      </trkpt>
      <trkpt lat="46.58998" lon="5.49762">
        <ele>312</ele>
        <time>2021-05-29T09:16:54.426Z</time>
      </trkpt>
      <trkpt lat="46.58996" lon="5.49763">
        <ele>312</ele>
        <time>2021-05-29T09:16:55.425Z</time>
      </trkpt>
      <trkpt lat="46.58994" lon="5.49765">
        <ele>311</ele>
        <time>2021-05-29T09:16:56.426Z</time>
      </trkpt>
      <trkpt lat="46.58992" lon="5.49767">
        <ele>311</ele>
        <time>2021-05-29T09:16:57.426Z</time>
      </trkpt>
      <trkpt lat="46.58991" lon="5.49769">
        <ele>311</ele>
        <time>2021-05-29T09:16:58.426Z</time>
      </trkpt>
      <trkpt lat="46.58989" lon="5.49771">
        <ele>310</ele>
        <time>2021-05-29T09:16:59.426Z</time>
      </trkpt>
      <trkpt lat="46.58988" lon="5.49772">
        <ele>310</ele>
        <time>2021-05-29T09:17:00.425Z</time>
      </trkpt>
      <trkpt lat="46.58986" lon="5.49774">
        <ele>309</ele>
        <time>2021-05-29T09:17:01.425Z</time>
      </trkpt>
      <trkpt lat="46.58984" lon="5.49775">
        <ele>309</ele>
        <time>2021-05-29T09:17:02.426Z</time>
      </trkpt>
      <trkpt lat="46.58981" lon="5.49777">
        <ele>309</ele>
        <time>2021-05-29T09:17:03.426Z</time>
      </trkpt>
      <trkpt lat="46.58979" lon="5.49779">
        <ele>308</ele>
        <time>2021-05-29T09:17:04.425Z</time>
      </trkpt>
      <trkpt lat="46.58977" lon="5.4978">
        <ele>308</ele>
        <time>2021-05-29T09:17:05.426Z</time>
      </trkpt>
      <trkpt lat="46.58975" lon="5.49782">
        <ele>307</ele>
        <time>2021-05-29T09:17:06.426Z</time>
      </trkpt>
      <trkpt lat="46.58973" lon="5.49784">
        <ele>307</ele>
        <time>2021-05-29T09:17:07.425Z</time>
      </trkpt>
      <trkpt lat="46.58971" lon="5.49785">
        <ele>306</ele>
        <time>2021-05-29T09:17:08.425Z</time>
      </trkpt>
      <trkpt lat="46.58968" lon="5.49787">
        <ele>306</ele>
        <time>2021-05-29T09:17:09.426Z</time>
      </trkpt>
      <trkpt lat="46.58966" lon="5.49788">
        <ele>306</ele>
        <time>2021-05-29T09:17:10.426Z</time>
      </trkpt>
      <trkpt lat="46.58964" lon="5.4979">
        <ele>306</ele>
        <time>2021-05-29T09:17:11.425Z</time>
      </trkpt>
      <trkpt lat="46.58961" lon="5.49791">
        <ele>306</ele>
        <time>2021-05-29T09:17:12.426Z</time>
      </trkpt>
      <trkpt lat="46.58958" lon="5.49793">
        <ele>306</ele>
        <time>2021-05-29T09:17:13.425Z</time>
      </trkpt>
      <trkpt lat="46.58956" lon="5.49795">
        <ele>306</ele>
        <time>2021-05-29T09:17:14.426Z</time>
      </trkpt>
      <trkpt lat="46.58954" lon="5.49797">
        <ele>306</ele>
        <time>2021-05-29T09:17:15.426Z</time>
      </trkpt>
      <trkpt lat="46.58953" lon="5.49798">
        <ele>305</ele>
        <time>2021-05-29T09:17:16.426Z</time>
      </trkpt>
      <trkpt lat="46.58951" lon="5.49801">
        <ele>305</ele>
        <time>2021-05-29T09:17:17.426Z</time>
      </trkpt>
      <trkpt lat="46.5895" lon="5.49803">
        <ele>305</ele>
        <time>2021-05-29T09:17:18.425Z</time>
      </trkpt>
      <trkpt lat="46.5895" lon="5.49805">
        <ele>305</ele>
        <time>2021-05-29T09:17:19.426Z</time>
      </trkpt>
      <trkpt lat="46.5895" lon="5.49807">
        <ele>304</ele>
        <time>2021-05-29T09:17:20.426Z</time>
      </trkpt>
      <trkpt lat="46.58952" lon="5.49808">
        <ele>304</ele>
        <time>2021-05-29T09:17:21.425Z</time>
      </trkpt>
      <trkpt lat="46.58954" lon="5.49809">
        <ele>304</ele>
        <time>2021-05-29T09:17:22.425Z</time>
      </trkpt>
      <trkpt lat="46.58956" lon="5.4981">
        <ele>303</ele>
        <time>2021-05-29T09:17:23.426Z</time>
      </trkpt>
      <trkpt lat="46.58958" lon="5.4981">
        <ele>303</ele>
        <time>2021-05-29T09:17:24.426Z</time>
      </trkpt>
      <trkpt lat="46.5896" lon="5.49811">
        <ele>302</ele>
        <time>2021-05-29T09:17:25.425Z</time>
      </trkpt>
      <trkpt lat="46.58962" lon="5.49812">
        <ele>302</ele>
        <time>2021-05-29T09:17:26.426Z</time>
      </trkpt>
      <trkpt lat="46.58964" lon="5.49813">
        <ele>301</ele>
        <time>2021-05-29T09:17:27.426Z</time>
      </trkpt>
      <trkpt lat="46.58966" lon="5.49816">
        <ele>301</ele>
        <time>2021-05-29T09:17:28.426Z</time>
      </trkpt>
      <trkpt lat="46.58968" lon="5.49818">
        <ele>301</ele>
        <time>2021-05-29T09:17:29.425Z</time>
      </trkpt>
      <trkpt lat="46.58969" lon="5.49821">
        <ele>300</ele>
        <time>2021-05-29T09:17:30.425Z</time>
      </trkpt>
      <trkpt lat="46.58971" lon="5.49822">
        <ele>300</ele>
        <time>2021-05-29T09:17:31.426Z</time>
      </trkpt>
      <trkpt lat="46.58972" lon="5.49825">
        <ele>300</ele>
        <time>2021-05-29T09:17:32.425Z</time>
      </trkpt>
      <trkpt lat="46.58973" lon="5.49827">
        <ele>300</ele>
        <time>2021-05-29T09:17:33.425Z</time>
      </trkpt>
      <trkpt lat="46.58974" lon="5.4983">
        <ele>299</ele>
        <time>2021-05-29T09:17:34.425Z</time>
      </trkpt>
      <trkpt lat="46.58974" lon="5.49833">
        <ele>299</ele>
        <time>2021-05-29T09:17:35.425Z</time>
      </trkpt>
      <trkpt lat="46.58974" lon="5.49836">
        <ele>298</ele>
        <time>2021-05-29T09:17:36.425Z</time>
      </trkpt>
      <trkpt lat="46.58975" lon="5.49839">
        <ele>298</ele>
        <time>2021-05-29T09:17:37.425Z</time>
      </trkpt>
      <trkpt lat="46.58975" lon="5.49843">
        <ele>297</ele>
        <time>2021-05-29T09:17:38.425Z</time>
      </trkpt>
      <trkpt lat="46.58976" lon="5.49847">
        <ele>297</ele>
        <time>2021-05-29T09:17:39.425Z</time>
      </trkpt>
      <trkpt lat="46.58976" lon="5.49851">
        <ele>296</ele>
        <time>2021-05-29T09:17:40.425Z</time>
      </trkpt>
      <trkpt lat="46.58976" lon="5.49855">
        <ele>296</ele>
        <time>2021-05-29T09:17:41.425Z</time>
      </trkpt>
      <trkpt lat="46.58977" lon="5.49859">
        <ele>295</ele>
        <time>2021-05-29T09:17:42.425Z</time>
      </trkpt>
      <trkpt lat="46.58978" lon="5.49862">
        <ele>295</ele>
        <time>2021-05-29T09:17:43.426Z</time>
      </trkpt>
      <trkpt lat="46.58978" lon="5.49866">
        <ele>294</ele>
        <time>2021-05-29T09:17:44.426Z</time>
      </trkpt>
      <trkpt lat="46.58978" lon="5.49869">
        <ele>294</ele>
        <time>2021-05-29T09:17:45.425Z</time>
      </trkpt>
      <trkpt lat="46.58978" lon="5.49872">
        <ele>293</ele>
        <time>2021-05-29T09:17:46.425Z</time>
      </trkpt>
      <trkpt lat="46.58979" lon="5.49875">
        <ele>293</ele>
        <time>2021-05-29T09:17:47.426Z</time>
      </trkpt>
      <trkpt lat="46.58979" lon="5.49878">
        <ele>293</ele>
        <time>2021-05-29T09:17:48.425Z</time>
      </trkpt>
      <trkpt lat="46.5898" lon="5.4988">
        <ele>293</ele>
        <time>2021-05-29T09:17:49.425Z</time>
      </trkpt>
      <trkpt lat="46.58981" lon="5.49883">
        <ele>292</ele>
        <time>2021-05-29T09:17:50.425Z</time>
      </trkpt>
      <trkpt lat="46.58981" lon="5.49885">
        <ele>292</ele>
        <time>2021-05-29T09:17:51.425Z</time>
      </trkpt>
      <trkpt lat="46.58982" lon="5.49888">
        <ele>292</ele>
        <time>2021-05-29T09:17:52.425Z</time>
      </trkpt>
      <trkpt lat="46.58983" lon="5.4989">
        <ele>291</ele>
        <time>2021-05-29T09:17:53.425Z</time>
      </trkpt>
      <trkpt lat="46.58984" lon="5.49892">
        <ele>291</ele>
        <time>2021-05-29T09:17:54.426Z</time>
      </trkpt>
      <trkpt lat="46.58985" lon="5.49894">
        <ele>291</ele>
        <time>2021-05-29T09:17:55.426Z</time>
      </trkpt>
      <trkpt lat="46.58987" lon="5.49896">
        <ele>291</ele>
        <time>2021-05-29T09:17:56.426Z</time>
      </trkpt>
      <trkpt lat="46.58989" lon="5.49898">
        <ele>290</ele>
        <time>2021-05-29T09:17:57.426Z</time>
      </trkpt>
      <trkpt lat="46.58991" lon="5.499">
        <ele>290</ele>
        <time>2021-05-29T09:17:58.426Z</time>
      </trkpt>
      <trkpt lat="46.58992" lon="5.49902">
        <ele>290</ele>
        <time>2021-05-29T09:17:59.426Z</time>
      </trkpt>
      <trkpt lat="46.58994" lon="5.49904">
        <ele>290</ele>
        <time>2021-05-29T09:18:00.426Z</time>
      </trkpt>
      <trkpt lat="46.58996" lon="5.49906">
        <ele>290</ele>
        <time>2021-05-29T09:18:01.426Z</time>
      </trkpt>
      <trkpt lat="46.58998" lon="5.49908">
        <ele>289</ele>
        <time>2021-05-29T09:18:02.426Z</time>
      </trkpt>
      <trkpt lat="46.59" lon="5.4991">
        <ele>289</ele>
        <time>2021-05-29T09:18:03.426Z</time>
      </trkpt>
      <trkpt lat="46.59002" lon="5.49912">
        <ele>289</ele>
        <time>2021-05-29T09:18:04.426Z</time>
      </trkpt>
      <trkpt lat="46.59004" lon="5.49913">
        <ele>288</ele>
        <time>2021-05-29T09:18:05.426Z</time>
      </trkpt>
      <trkpt lat="46.59007" lon="5.49914">
        <ele>288</ele>
        <time>2021-05-29T09:18:06.425Z</time>
      </trkpt>
      <trkpt lat="46.5901" lon="5.49915">
        <ele>287</ele>
        <time>2021-05-29T09:18:07.426Z</time>
      </trkpt>
      <trkpt lat="46.59012" lon="5.49916">
        <ele>287</ele>
        <time>2021-05-29T09:18:08.426Z</time>
      </trkpt>
      <trkpt lat="46.59015" lon="5.49917">
        <ele>287</ele>
        <time>2021-05-29T09:18:09.426Z</time>
      </trkpt>
      <trkpt lat="46.59017" lon="5.49918">
        <ele>287</ele>
        <time>2021-05-29T09:18:10.426Z</time>
      </trkpt>
      <trkpt lat="46.59019" lon="5.49919">
        <ele>287</ele>
        <time>2021-05-29T09:18:11.425Z</time>
      </trkpt>
      <trkpt lat="46.59021" lon="5.4992">
        <ele>287</ele>
        <time>2021-05-29T09:18:12.426Z</time>
      </trkpt>
      <trkpt lat="46.59023" lon="5.49921">
        <ele>287</ele>
        <time>2021-05-29T09:18:13.426Z</time>
      </trkpt>
      <trkpt lat="46.59025" lon="5.49921">
        <ele>287</ele>
        <time>2021-05-29T09:18:14.425Z</time>
      </trkpt>
      <trkpt lat="46.59028" lon="5.49921">
        <ele>287</ele>
        <time>2021-05-29T09:18:15.425Z</time>
      </trkpt>
      <trkpt lat="46.59029" lon="5.49922">
        <ele>287</ele>
        <time>2021-05-29T09:18:16.426Z</time>
      </trkpt>
      <trkpt lat="46.59031" lon="5.49924">
        <ele>287</ele>
        <time>2021-05-29T09:18:17.425Z</time>
      </trkpt>
      <trkpt lat="46.59033" lon="5.49925">
        <ele>286</ele>
        <time>2021-05-29T09:18:18.426Z</time>
      </trkpt>
      <trkpt lat="46.59034" lon="5.49927">
        <ele>286</ele>
        <time>2021-05-29T09:18:19.426Z</time>
      </trkpt>
      <trkpt lat="46.59035" lon="5.49928">
        <ele>286</ele>
        <time>2021-05-29T09:18:20.426Z</time>
      </trkpt>
      <trkpt lat="46.59036" lon="5.49929">
        <ele>286</ele>
        <time>2021-05-29T09:18:21.426Z</time>
      </trkpt>
      <trkpt lat="46.59037" lon="5.49929">
        <ele>285</ele>
        <time>2021-05-29T09:18:22.425Z</time>
      </trkpt>
      <trkpt lat="46.59038" lon="5.4993">
        <ele>285</ele>
        <time>2021-05-29T09:18:23.426Z</time>
      </trkpt>
      <trkpt lat="46.5904" lon="5.49931">
        <ele>285</ele>
        <time>2021-05-29T09:18:24.426Z</time>
      </trkpt>
      <trkpt lat="46.59042" lon="5.49932">
        <ele>285</ele>
        <time>2021-05-29T09:18:25.426Z</time>
      </trkpt>
      <trkpt lat="46.59045" lon="5.49933">
        <ele>285</ele>
        <time>2021-05-29T09:18:26.426Z</time>
      </trkpt>
      <trkpt lat="46.59047" lon="5.49934">
        <ele>285</ele>
        <time>2021-05-29T09:18:27.426Z</time>
      </trkpt>
      <trkpt lat="46.59049" lon="5.49935">
        <ele>285</ele>
        <time>2021-05-29T09:18:28.426Z</time>
      </trkpt>
      <trkpt lat="46.59051" lon="5.49937">
        <ele>285</ele>
        <time>2021-05-29T09:18:29.425Z</time>
      </trkpt>
      <trkpt lat="46.59053" lon="5.49938">
        <ele>285</ele>
        <time>2021-05-29T09:18:30.425Z</time>
      </trkpt>
      <trkpt lat="46.59054" lon="5.49938">
        <ele>285</ele>
        <time>2021-05-29T09:18:31.426Z</time>
      </trkpt>
      <trkpt lat="46.59056" lon="5.49939">
        <ele>285</ele>
        <time>2021-05-29T09:18:32.426Z</time>
      </trkpt>
      <trkpt lat="46.59058" lon="5.4994">
        <ele>284</ele>
        <time>2021-05-29T09:18:33.425Z</time>
      </trkpt>
      <trkpt lat="46.59059" lon="5.4994">
        <ele>284</ele>
        <time>2021-05-29T09:18:34.425Z</time>
      </trkpt>
      <trkpt lat="46.59061" lon="5.49941">
        <ele>283</ele>
        <time>2021-05-29T09:18:35.426Z</time>
      </trkpt>
      <trkpt lat="46.59063" lon="5.49942">
        <ele>283</ele>
        <time>2021-05-29T09:18:36.426Z</time>
      </trkpt>
      <trkpt lat="46.59065" lon="5.49943">
        <ele>282</ele>
        <time>2021-05-29T09:18:37.426Z</time>
      </trkpt>
      <trkpt lat="46.59067" lon="5.49944">
        <ele>282</ele>
        <time>2021-05-29T09:18:38.426Z</time>
      </trkpt>
      <trkpt lat="46.59069" lon="5.49945">
        <ele>281</ele>
        <time>2021-05-29T09:18:39.426Z</time>
      </trkpt>
      <trkpt lat="46.59071" lon="5.49946">
        <ele>281</ele>
        <time>2021-05-29T09:18:40.426Z</time>
      </trkpt>
      <trkpt lat="46.59073" lon="5.49947">
        <ele>281</ele>
        <time>2021-05-29T09:18:41.426Z</time>
      </trkpt>
      <trkpt lat="46.59075" lon="5.49948">
        <ele>280</ele>
        <time>2021-05-29T09:18:42.426Z</time>
      </trkpt>
      <trkpt lat="46.59077" lon="5.49949">
        <ele>280</ele>
        <time>2021-05-29T09:18:43.425Z</time>
      </trkpt>
      <trkpt lat="46.59079" lon="5.49949">
        <ele>280</ele>
        <time>2021-05-29T09:18:44.426Z</time>
      </trkpt>
      <trkpt lat="46.59082" lon="5.4995">
        <ele>280</ele>
        <time>2021-05-29T09:18:45.425Z</time>
      </trkpt>
      <trkpt lat="46.59084" lon="5.4995">
        <ele>280</ele>
        <time>2021-05-29T09:18:46.426Z</time>
      </trkpt>
      <trkpt lat="46.59086" lon="5.49951">
        <ele>280</ele>
        <time>2021-05-29T09:18:47.425Z</time>
      </trkpt>
      <trkpt lat="46.59088" lon="5.49952">
        <ele>280</ele>
        <time>2021-05-29T09:18:48.426Z</time>
      </trkpt>
      <trkpt lat="46.59091" lon="5.49953">
        <ele>280</ele>
        <time>2021-05-29T09:18:49.426Z</time>
      </trkpt>
      <trkpt lat="46.59093" lon="5.49954">
        <ele>279</ele>
        <time>2021-05-29T09:18:50.426Z</time>
      </trkpt>
      <trkpt lat="46.59095" lon="5.49954">
        <ele>279</ele>
        <time>2021-05-29T09:18:51.425Z</time>
      </trkpt>
      <trkpt lat="46.59098" lon="5.49955">
        <ele>279</ele>
        <time>2021-05-29T09:18:52.425Z</time>
      </trkpt>
      <trkpt lat="46.591" lon="5.49956">
        <ele>279</ele>
        <time>2021-05-29T09:18:53.426Z</time>
      </trkpt>
      <trkpt lat="46.59103" lon="5.49956">
        <ele>279</ele>
        <time>2021-05-29T09:18:54.426Z</time>
      </trkpt>
      <trkpt lat="46.59105" lon="5.49957">
        <ele>279</ele>
        <time>2021-05-29T09:18:55.426Z</time>
      </trkpt>
      <trkpt lat="46.59108" lon="5.49957">
        <ele>279</ele>
        <time>2021-05-29T09:18:56.426Z</time>
      </trkpt>
      <trkpt lat="46.5911" lon="5.49958">
        <ele>280</ele>
        <time>2021-05-29T09:18:57.426Z</time>
      </trkpt>
      <trkpt lat="46.59113" lon="5.49958">
        <ele>280</ele>
        <time>2021-05-29T09:18:58.426Z</time>
      </trkpt>
      <trkpt lat="46.59115" lon="5.49959">
        <ele>280</ele>
        <time>2021-05-29T09:18:59.426Z</time>
      </trkpt>
      <trkpt lat="46.59119" lon="5.4996">
        <ele>280</ele>
        <time>2021-05-29T09:19:00.426Z</time>
      </trkpt>
      <trkpt lat="46.59122" lon="5.49961">
        <ele>280</ele>
        <time>2021-05-29T09:19:01.425Z</time>
      </trkpt>
      <trkpt lat="46.59125" lon="5.49961">
        <ele>280</ele>
        <time>2021-05-29T09:19:02.426Z</time>
      </trkpt>
      <trkpt lat="46.59127" lon="5.49962">
        <ele>279</ele>
        <time>2021-05-29T09:19:03.426Z</time>
      </trkpt>
      <trkpt lat="46.59129" lon="5.49963">
        <ele>279</ele>
        <time>2021-05-29T09:19:04.426Z</time>
      </trkpt>
      <trkpt lat="46.59132" lon="5.49964">
        <ele>279</ele>
        <time>2021-05-29T09:19:05.426Z</time>
      </trkpt>
      <trkpt lat="46.59134" lon="5.49965">
        <ele>278</ele>
        <time>2021-05-29T09:19:06.426Z</time>
      </trkpt>
      <trkpt lat="46.59137" lon="5.49966">
        <ele>278</ele>
        <time>2021-05-29T09:19:07.425Z</time>
      </trkpt>
      <trkpt lat="46.59139" lon="5.49968">
        <ele>278</ele>
        <time>2021-05-29T09:19:08.425Z</time>
      </trkpt>
      <trkpt lat="46.59141" lon="5.49969">
        <ele>278</ele>
        <time>2021-05-29T09:19:09.426Z</time>
      </trkpt>
      <trkpt lat="46.59142" lon="5.49971">
        <ele>278</ele>
        <time>2021-05-29T09:19:10.426Z</time>
      </trkpt>
      <trkpt lat="46.59144" lon="5.49972">
        <ele>278</ele>
        <time>2021-05-29T09:19:11.426Z</time>
      </trkpt>
      <trkpt lat="46.59146" lon="5.49974">
        <ele>278</ele>
        <time>2021-05-29T09:19:12.426Z</time>
      </trkpt>
      <trkpt lat="46.59148" lon="5.49975">
        <ele>279</ele>
        <time>2021-05-29T09:19:13.426Z</time>
      </trkpt>
      <trkpt lat="46.5915" lon="5.49977">
        <ele>279</ele>
        <time>2021-05-29T09:19:14.426Z</time>
      </trkpt>
      <trkpt lat="46.59151" lon="5.49978">
        <ele>279</ele>
        <time>2021-05-29T09:19:15.426Z</time>
      </trkpt>
      <trkpt lat="46.59153" lon="5.4998">
        <ele>279</ele>
        <time>2021-05-29T09:19:16.426Z</time>
      </trkpt>
      <trkpt lat="46.59155" lon="5.49981">
        <ele>279</ele>
        <time>2021-05-29T09:19:17.425Z</time>
      </trkpt>
      <trkpt lat="46.59156" lon="5.49983">
        <ele>279</ele>
        <time>2021-05-29T09:19:18.426Z</time>
      </trkpt>
      <trkpt lat="46.59157" lon="5.49985">
        <ele>280</ele>
        <time>2021-05-29T09:19:19.426Z</time>
      </trkpt>
      <trkpt lat="46.59158" lon="5.49987">
        <ele>280</ele>
        <time>2021-05-29T09:19:20.426Z</time>
      </trkpt>
      <trkpt lat="46.59159" lon="5.49988">
        <ele>280</ele>
        <time>2021-05-29T09:19:21.426Z</time>
      </trkpt>
      <trkpt lat="46.59161" lon="5.4999">
        <ele>280</ele>
        <time>2021-05-29T09:19:22.425Z</time>
      </trkpt>
      <trkpt lat="46.59163" lon="5.49991">
        <ele>280</ele>
        <time>2021-05-29T09:19:23.426Z</time>
      </trkpt>
      <trkpt lat="46.59165" lon="5.49993">
        <ele>280</ele>
        <time>2021-05-29T09:19:24.426Z</time>
      </trkpt>
      <trkpt lat="46.59167" lon="5.49994">
        <ele>280</ele>
        <time>2021-05-29T09:19:25.426Z</time>
      </trkpt>
      <trkpt lat="46.59169" lon="5.49996">
        <ele>281</ele>
        <time>2021-05-29T09:19:26.426Z</time>
      </trkpt>
      <trkpt lat="46.59171" lon="5.49997">
        <ele>281</ele>
        <time>2021-05-29T09:19:27.426Z</time>
      </trkpt>
      <trkpt lat="46.59172" lon="5.49999">
        <ele>281</ele>
        <time>2021-05-29T09:19:28.425Z</time>
      </trkpt>
      <trkpt lat="46.59175" lon="5.50001">
        <ele>282</ele>
        <time>2021-05-29T09:19:29.426Z</time>
      </trkpt>
      <trkpt lat="46.59177" lon="5.50002">
        <ele>282</ele>
        <time>2021-05-29T09:19:30.425Z</time>
      </trkpt>
      <trkpt lat="46.59179" lon="5.50004">
        <ele>282</ele>
        <time>2021-05-29T09:19:31.425Z</time>
      </trkpt>
      <trkpt lat="46.59181" lon="5.50005">
        <ele>282</ele>
        <time>2021-05-29T09:19:32.425Z</time>
      </trkpt>
      <trkpt lat="46.59183" lon="5.50006">
        <ele>282</ele>
        <time>2021-05-29T09:19:33.426Z</time>
      </trkpt>
      <trkpt lat="46.59186" lon="5.50007">
        <ele>283</ele>
        <time>2021-05-29T09:19:34.425Z</time>
      </trkpt>
      <trkpt lat="46.59188" lon="5.50009">
        <ele>283</ele>
        <time>2021-05-29T09:19:35.426Z</time>
      </trkpt>
      <trkpt lat="46.5919" lon="5.50011">
        <ele>283</ele>
        <time>2021-05-29T09:19:36.425Z</time>
      </trkpt>
      <trkpt lat="46.59192" lon="5.50012">
        <ele>282</ele>
        <time>2021-05-29T09:19:37.426Z</time>
      </trkpt>
      <trkpt lat="46.59193" lon="5.50013">
        <ele>283</ele>
        <time>2021-05-29T09:19:38.426Z</time>
      </trkpt>
      <trkpt lat="46.59195" lon="5.50013">
        <ele>283</ele>
        <time>2021-05-29T09:19:39.426Z</time>
      </trkpt>
      <trkpt lat="46.59196" lon="5.50014">
        <ele>283</ele>
        <time>2021-05-29T09:19:40.426Z</time>
      </trkpt>
      <trkpt lat="46.59199" lon="5.50015">
        <ele>282</ele>
        <time>2021-05-29T09:19:41.426Z</time>
      </trkpt>
      <trkpt lat="46.59201" lon="5.50016">
        <ele>282</ele>
        <time>2021-05-29T09:19:42.426Z</time>
      </trkpt>
      <trkpt lat="46.59203" lon="5.50017">
        <ele>282</ele>
        <time>2021-05-29T09:19:43.426Z</time>
      </trkpt>
      <trkpt lat="46.59205" lon="5.50017">
        <ele>282</ele>
        <time>2021-05-29T09:19:44.426Z</time>
      </trkpt>
      <trkpt lat="46.59207" lon="5.50017">
        <ele>282</ele>
        <time>2021-05-29T09:19:45.426Z</time>
      </trkpt>
      <trkpt lat="46.5921" lon="5.50018">
        <ele>283</ele>
        <time>2021-05-29T09:19:46.426Z</time>
      </trkpt>
      <trkpt lat="46.59212" lon="5.50018">
        <ele>283</ele>
        <time>2021-05-29T09:19:47.425Z</time>
      </trkpt>
      <trkpt lat="46.59215" lon="5.50019">
        <ele>284</ele>
        <time>2021-05-29T09:19:48.426Z</time>
      </trkpt>
      <trkpt lat="46.59216" lon="5.5002">
        <ele>284</ele>
        <time>2021-05-29T09:19:49.426Z</time>
      </trkpt>
      <trkpt lat="46.59218" lon="5.5002">
        <ele>284</ele>
        <time>2021-05-29T09:19:50.426Z</time>
      </trkpt>
      <trkpt lat="46.5922" lon="5.50021">
        <ele>284</ele>
        <time>2021-05-29T09:19:51.426Z</time>
      </trkpt>
      <trkpt lat="46.59222" lon="5.50022">
        <ele>284</ele>
        <time>2021-05-29T09:19:52.426Z</time>
      </trkpt>
      <trkpt lat="46.59224" lon="5.50022">
        <ele>284</ele>
        <time>2021-05-29T09:19:53.425Z</time>
      </trkpt>
      <trkpt lat="46.59225" lon="5.50022">
        <ele>284</ele>
        <time>2021-05-29T09:19:54.425Z</time>
      </trkpt>
      <trkpt lat="46.59227" lon="5.50022">
        <ele>284</ele>
        <time>2021-05-29T09:19:55.425Z</time>
      </trkpt>
      <trkpt lat="46.5923" lon="5.50021">
        <ele>284</ele>
        <time>2021-05-29T09:19:56.426Z</time>
      </trkpt>
      <trkpt lat="46.59232" lon="5.50021">
        <ele>284</ele>
        <time>2021-05-29T09:19:57.426Z</time>
      </trkpt>
      <trkpt lat="46.59235" lon="5.50023">
        <ele>284</ele>
        <time>2021-05-29T09:19:58.426Z</time>
      </trkpt>
      <trkpt lat="46.59237" lon="5.50026">
        <ele>284</ele>
        <time>2021-05-29T09:19:59.426Z</time>
      </trkpt>
      <trkpt lat="46.59239" lon="5.50029">
        <ele>284</ele>
        <time>2021-05-29T09:20:00.425Z</time>
      </trkpt>
      <trkpt lat="46.5924" lon="5.50032">
        <ele>283</ele>
        <time>2021-05-29T09:20:01.426Z</time>
      </trkpt>
      <trkpt lat="46.59437" lon="5.5024">
        <ele>245</ele>
        <time>2021-05-29T09:20:02.426Z</time>
      </trkpt>
      <trkpt lat="46.59438" lon="5.50238">
        <ele>245</ele>
        <time>2021-05-29T09:20:03.426Z</time>
      </trkpt>
      <trkpt lat="46.59439" lon="5.50237">
        <ele>246</ele>
        <time>2021-05-29T09:20:04.425Z</time>
      </trkpt>
      <trkpt lat="46.5944" lon="5.50236">
        <ele>245</ele>
        <time>2021-05-29T09:20:05.426Z</time>
      </trkpt>
      <trkpt lat="46.5944" lon="5.50235">
        <ele>245</ele>
        <time>2021-05-29T09:20:06.425Z</time>
      </trkpt>
      <trkpt lat="46.5944" lon="5.50234">
        <ele>244</ele>
        <time>2021-05-29T09:20:07.425Z</time>
      </trkpt>
      <trkpt lat="46.5944" lon="5.50234">
        <ele>244</ele>
        <time>2021-05-29T09:20:08.426Z</time>
      </trkpt>
      <trkpt lat="46.5944" lon="5.50234">
        <ele>244</ele>
        <time>2021-05-29T09:20:09.426Z</time>
      </trkpt>
      <trkpt lat="46.59439" lon="5.50234">
        <ele>244</ele>
        <time>2021-05-29T09:20:10.426Z</time>
      </trkpt>
      <trkpt lat="46.59439" lon="5.50234">
        <ele>244</ele>
        <time>2021-05-29T09:20:11.426Z</time>
      </trkpt>
      <trkpt lat="46.59439" lon="5.50234">
        <ele>244</ele>
        <time>2021-05-29T09:20:12.426Z</time>
      </trkpt>
      <trkpt lat="46.59439" lon="5.50234">
        <ele>244</ele>
        <time>2021-05-29T09:20:13.426Z</time>
      </trkpt>
      <trkpt lat="46.5944" lon="5.50234">
        <ele>245</ele>
        <time>2021-05-29T09:20:14.426Z</time>
      </trkpt>
      <trkpt lat="46.5944" lon="5.50234">
        <ele>245</ele>
        <time>2021-05-29T09:20:15.425Z</time>
      </trkpt>
      <trkpt lat="46.5944" lon="5.50234">
        <ele>245</ele>
        <time>2021-05-29T09:20:16.426Z</time>
      </trkpt>
      <trkpt lat="46.59439" lon="5.50234">
        <ele>245</ele>
        <time>2021-05-29T09:20:17.426Z</time>
      </trkpt>
      <trkpt lat="46.59439" lon="5.50234">
        <ele>245</ele>
        <time>2021-05-29T09:20:18.426Z</time>
      </trkpt>
      <trkpt lat="46.59439" lon="5.50234">
        <ele>245</ele>
        <time>2021-05-29T09:20:19.426Z</time>
      </trkpt>
      <trkpt lat="46.59439" lon="5.50234">
        <ele>245</ele>
        <time>2021-05-29T09:20:20.426Z</time>
      </trkpt>
      <trkpt lat="46.59439" lon="5.50234">
        <ele>245</ele>
        <time>2021-05-29T09:20:21.426Z</time>
      </trkpt>
      <trkpt lat="46.59439" lon="5.50234">
        <ele>245</ele>
        <time>2021-05-29T09:20:22.426Z</time>
      </trkpt>
      <trkpt lat="46.59439" lon="5.50234">
        <ele>244</ele>
        <time>2021-05-29T09:20:23.426Z</time>
      </trkpt>
      <trkpt lat="46.59439" lon="5.50234">
        <ele>244</ele>
        <time>2021-05-29T09:20:24.426Z</time>
      </trkpt>
      <trkpt lat="46.59439" lon="5.50234">
        <ele>244</ele>
        <time>2021-05-29T09:20:25.426Z</time>
      </trkpt>
      <trkpt lat="46.59439" lon="5.50234">
        <ele>244</ele>
        <time>2021-05-29T09:20:26.426Z</time>
      </trkpt>
      <trkpt lat="46.59439" lon="5.50234">
        <ele>243</ele>
        <time>2021-05-29T09:20:27.425Z</time>
      </trkpt>
      <trkpt lat="46.59439" lon="5.50234">
        <ele>243</ele>
        <time>2021-05-29T09:20:28.426Z</time>
      </trkpt>
      <trkpt lat="46.59439" lon="5.50234">
        <ele>243</ele>
        <time>2021-05-29T09:20:29.426Z</time>
      </trkpt>
      <trkpt lat="46.59439" lon="5.50234">
        <ele>243</ele>
        <time>2021-05-29T09:20:30.425Z</time>
      </trkpt>
      <trkpt lat="46.59439" lon="5.50234">
        <ele>243</ele>
        <time>2021-05-29T09:20:31.426Z</time>
      </trkpt>
      <trkpt lat="46.59439" lon="5.50234">
        <ele>243</ele>
        <time>2021-05-29T09:20:32.426Z</time>
      </trkpt>
      <trkpt lat="46.5944" lon="5.50234">
        <ele>243</ele>
        <time>2021-05-29T09:20:33.426Z</time>
      </trkpt>
      <trkpt lat="46.5944" lon="5.50234">
        <ele>243</ele>
        <time>2021-05-29T09:20:34.425Z</time>
      </trkpt>
      <trkpt lat="46.5944" lon="5.50234">
        <ele>243</ele>
        <time>2021-05-29T09:20:35.426Z</time>
      </trkpt>
      <trkpt lat="46.5944" lon="5.50234">
        <ele>243</ele>
        <time>2021-05-29T09:20:36.426Z</time>
      </trkpt>
      <trkpt lat="46.5944" lon="5.50234">
        <ele>243</ele>
        <time>2021-05-29T09:20:37.425Z</time>
      </trkpt>
      <trkpt lat="46.5944" lon="5.50234">
        <ele>243</ele>
        <time>2021-05-29T09:20:38.426Z</time>
      </trkpt>
      <trkpt lat="46.5944" lon="5.50234">
        <ele>243</ele>
        <time>2021-05-29T09:20:39.426Z</time>
      </trkpt>
      <trkpt lat="46.5944" lon="5.50233">
        <ele>243</ele>
        <time>2021-05-29T09:20:40.426Z</time>
      </trkpt>
      <trkpt lat="46.5944" lon="5.50233">
        <ele>243</ele>
        <time>2021-05-29T09:20:41.426Z</time>
      </trkpt>
      <trkpt lat="46.5944" lon="5.50232">
        <ele>243</ele>
        <time>2021-05-29T09:20:42.426Z</time>
      </trkpt>
      <trkpt lat="46.5944" lon="5.50232">
        <ele>243</ele>
        <time>2021-05-29T09:20:43.426Z</time>
      </trkpt>
      <trkpt lat="46.59443" lon="5.50231">
        <ele>243</ele>
        <time>2021-05-29T09:20:44.426Z</time>
      </trkpt>
      <trkpt lat="46.59445" lon="5.5023">
        <ele>243</ele>
        <time>2021-05-29T09:20:45.426Z</time>
      </trkpt>
      <trkpt lat="46.59447" lon="5.50229">
        <ele>242</ele>
        <time>2021-05-29T09:20:46.426Z</time>
      </trkpt>
      <trkpt lat="46.5945" lon="5.50228">
        <ele>242</ele>
        <time>2021-05-29T09:20:47.426Z</time>
      </trkpt>
      <trkpt lat="46.59453" lon="5.50227">
        <ele>243</ele>
        <time>2021-05-29T09:20:48.426Z</time>
      </trkpt>
      <trkpt lat="46.59455" lon="5.50227">
        <ele>243</ele>
        <time>2021-05-29T09:20:49.426Z</time>
      </trkpt>
      <trkpt lat="46.59458" lon="5.50228">
        <ele>243</ele>
        <time>2021-05-29T09:20:50.426Z</time>
      </trkpt>
      <trkpt lat="46.59461" lon="5.50229">
        <ele>243</ele>
        <time>2021-05-29T09:20:51.425Z</time>
      </trkpt>
      <trkpt lat="46.59464" lon="5.5023">
        <ele>243</ele>
        <time>2021-05-29T09:20:52.426Z</time>
      </trkpt>
      <trkpt lat="46.59465" lon="5.50231">
        <ele>243</ele>
        <time>2021-05-29T09:20:53.426Z</time>
      </trkpt>
      <trkpt lat="46.59467" lon="5.50232">
        <ele>242</ele>
        <time>2021-05-29T09:20:54.426Z</time>
      </trkpt>
      <trkpt lat="46.59468" lon="5.50233">
        <ele>242</ele>
        <time>2021-05-29T09:20:55.426Z</time>
      </trkpt>
      <trkpt lat="46.5947" lon="5.50235">
        <ele>242</ele>
        <time>2021-05-29T09:20:56.426Z</time>
      </trkpt>
      <trkpt lat="46.59472" lon="5.50237">
        <ele>242</ele>
        <time>2021-05-29T09:20:57.426Z</time>
      </trkpt>
      <trkpt lat="46.59475" lon="5.50239">
        <ele>242</ele>
        <time>2021-05-29T09:20:58.425Z</time>
      </trkpt>
      <trkpt lat="46.59477" lon="5.50241">
        <ele>242</ele>
        <time>2021-05-29T09:20:59.426Z</time>
      </trkpt>
      <trkpt lat="46.5948" lon="5.50244">
        <ele>242</ele>
        <time>2021-05-29T09:21:00.426Z</time>
      </trkpt>
      <trkpt lat="46.59481" lon="5.50246">
        <ele>243</ele>
        <time>2021-05-29T09:21:01.426Z</time>
      </trkpt>
      <trkpt lat="46.59483" lon="5.50248">
        <ele>243</ele>
        <time>2021-05-29T09:21:02.425Z</time>
      </trkpt>
      <trkpt lat="46.59485" lon="5.50251">
        <ele>243</ele>
        <time>2021-05-29T09:21:03.426Z</time>
      </trkpt>
      <trkpt lat="46.59486" lon="5.50254">
        <ele>243</ele>
        <time>2021-05-29T09:21:04.426Z</time>
      </trkpt>
      <trkpt lat="46.59488" lon="5.50257">
        <ele>244</ele>
        <time>2021-05-29T09:21:05.426Z</time>
      </trkpt>
      <trkpt lat="46.59489" lon="5.5026">
        <ele>244</ele>
        <time>2021-05-29T09:21:06.426Z</time>
      </trkpt>
      <trkpt lat="46.5949" lon="5.50263">
        <ele>244</ele>
        <time>2021-05-29T09:21:07.426Z</time>
      </trkpt>
      <trkpt lat="46.59492" lon="5.50266">
        <ele>244</ele>
        <time>2021-05-29T09:21:08.426Z</time>
      </trkpt>
      <trkpt lat="46.59493" lon="5.50269">
        <ele>244</ele>
        <time>2021-05-29T09:21:09.425Z</time>
      </trkpt>
      <trkpt lat="46.59494" lon="5.50272">
        <ele>244</ele>
        <time>2021-05-29T09:21:10.425Z</time>
      </trkpt>
      <trkpt lat="46.59495" lon="5.50276">
        <ele>244</ele>
        <time>2021-05-29T09:21:11.426Z</time>
      </trkpt>
      <trkpt lat="46.59496" lon="5.50279">
        <ele>244</ele>
        <time>2021-05-29T09:21:12.425Z</time>
      </trkpt>
      <trkpt lat="46.59498" lon="5.50282">
        <ele>243</ele>
        <time>2021-05-29T09:21:13.426Z</time>
      </trkpt>
      <trkpt lat="46.59499" lon="5.50284">
        <ele>243</ele>
        <time>2021-05-29T09:21:14.425Z</time>
      </trkpt>
      <trkpt lat="46.595" lon="5.50287">
        <ele>243</ele>
        <time>2021-05-29T09:21:15.425Z</time>
      </trkpt>
      <trkpt lat="46.59501" lon="5.5029">
        <ele>243</ele>
        <time>2021-05-29T09:21:16.426Z</time>
      </trkpt>
      <trkpt lat="46.59502" lon="5.50292">
        <ele>243</ele>
        <time>2021-05-29T09:21:17.426Z</time>
      </trkpt>
      <trkpt lat="46.59503" lon="5.50295">
        <ele>243</ele>
        <time>2021-05-29T09:21:18.426Z</time>
      </trkpt>
      <trkpt lat="46.59505" lon="5.50297">
        <ele>243</ele>
        <time>2021-05-29T09:21:19.426Z</time>
      </trkpt>
      <trkpt lat="46.59507" lon="5.503">
        <ele>243</ele>
        <time>2021-05-29T09:21:20.426Z</time>
      </trkpt>
      <trkpt lat="46.59509" lon="5.50302">
        <ele>243</ele>
        <time>2021-05-29T09:21:21.425Z</time>
      </trkpt>
      <trkpt lat="46.59511" lon="5.50304">
        <ele>244</ele>
        <time>2021-05-29T09:21:22.426Z</time>
      </trkpt>
      <trkpt lat="46.59512" lon="5.50307">
        <ele>244</ele>
        <time>2021-05-29T09:21:23.426Z</time>
      </trkpt>
      <trkpt lat="46.59514" lon="5.50309">
        <ele>244</ele>
        <time>2021-05-29T09:21:24.425Z</time>
      </trkpt>
      <trkpt lat="46.59516" lon="5.50312">
        <ele>244</ele>
        <time>2021-05-29T09:21:25.426Z</time>
      </trkpt>
      <trkpt lat="46.59517" lon="5.50313">
        <ele>244</ele>
        <time>2021-05-29T09:21:26.426Z</time>
      </trkpt>
      <trkpt lat="46.59519" lon="5.50315">
        <ele>245</ele>
        <time>2021-05-29T09:21:27.426Z</time>
      </trkpt>
      <trkpt lat="46.59521" lon="5.50316">
        <ele>245</ele>
        <time>2021-05-29T09:21:28.426Z</time>
      </trkpt>
      <trkpt lat="46.59523" lon="5.50318">
        <ele>246</ele>
        <time>2021-05-29T09:21:29.425Z</time>
      </trkpt>
      <trkpt lat="46.59525" lon="5.5032">
        <ele>246</ele>
        <time>2021-05-29T09:21:30.426Z</time>
      </trkpt>
      <trkpt lat="46.59526" lon="5.50321">
        <ele>247</ele>
        <time>2021-05-29T09:21:31.426Z</time>
      </trkpt>
      <trkpt lat="46.59528" lon="5.50322">
        <ele>247</ele>
        <time>2021-05-29T09:21:32.426Z</time>
      </trkpt>
      <trkpt lat="46.59529" lon="5.50323">
        <ele>247</ele>
        <time>2021-05-29T09:21:33.426Z</time>
      </trkpt>
      <trkpt lat="46.59531" lon="5.50323">
        <ele>248</ele>
        <time>2021-05-29T09:21:34.426Z</time>
      </trkpt>
      <trkpt lat="46.59533" lon="5.50324">
        <ele>247</ele>
        <time>2021-05-29T09:21:35.425Z</time>
      </trkpt>
      <trkpt lat="46.59535" lon="5.50325">
        <ele>247</ele>
        <time>2021-05-29T09:21:36.425Z</time>
      </trkpt>
      <trkpt lat="46.59537" lon="5.50325">
        <ele>247</ele>
        <time>2021-05-29T09:21:37.425Z</time>
      </trkpt>
      <trkpt lat="46.59539" lon="5.50325">
        <ele>248</ele>
        <time>2021-05-29T09:21:38.425Z</time>
      </trkpt>
      <trkpt lat="46.59541" lon="5.50324">
        <ele>248</ele>
        <time>2021-05-29T09:21:39.426Z</time>
      </trkpt>
      <trkpt lat="46.59543" lon="5.50324">
        <ele>248</ele>
        <time>2021-05-29T09:21:40.425Z</time>
      </trkpt>
      <trkpt lat="46.59545" lon="5.50324">
        <ele>248</ele>
        <time>2021-05-29T09:21:41.425Z</time>
      </trkpt>
      <trkpt lat="46.59548" lon="5.50323">
        <ele>249</ele>
        <time>2021-05-29T09:21:42.426Z</time>
      </trkpt>
      <trkpt lat="46.5955" lon="5.50322">
        <ele>249</ele>
        <time>2021-05-29T09:21:43.426Z</time>
      </trkpt>
      <trkpt lat="46.59552" lon="5.50322">
        <ele>249</ele>
        <time>2021-05-29T09:21:44.426Z</time>
      </trkpt>
      <trkpt lat="46.59554" lon="5.50321">
        <ele>249</ele>
        <time>2021-05-29T09:21:45.425Z</time>
      </trkpt>
      <trkpt lat="46.59555" lon="5.5032">
        <ele>248</ele>
        <time>2021-05-29T09:21:46.425Z</time>
      </trkpt>
      <trkpt lat="46.59557" lon="5.50319">
        <ele>248</ele>
        <time>2021-05-29T09:21:47.426Z</time>
      </trkpt>
      <trkpt lat="46.59558" lon="5.50318">
        <ele>247</ele>
        <time>2021-05-29T09:21:48.426Z</time>
      </trkpt>
      <trkpt lat="46.59559" lon="5.50318">
        <ele>247</ele>
        <time>2021-05-29T09:21:49.425Z</time>
      </trkpt>
      <trkpt lat="46.5956" lon="5.50318">
        <ele>247</ele>
        <time>2021-05-29T09:21:50.426Z</time>
      </trkpt>
      <trkpt lat="46.5956" lon="5.50318">
        <ele>247</ele>
        <time>2021-05-29T09:21:51.426Z</time>
      </trkpt>
      <trkpt lat="46.59561" lon="5.50318">
        <ele>247</ele>
        <time>2021-05-29T09:21:52.426Z</time>
      </trkpt>
      <trkpt lat="46.59561" lon="5.50317">
        <ele>247</ele>
        <time>2021-05-29T09:21:53.426Z</time>
      </trkpt>
      <trkpt lat="46.59562" lon="5.50316">
        <ele>247</ele>
        <time>2021-05-29T09:21:54.426Z</time>
      </trkpt>
      <trkpt lat="46.59563" lon="5.50315">
        <ele>247</ele>
        <time>2021-05-29T09:21:55.425Z</time>
      </trkpt>
      <trkpt lat="46.59564" lon="5.50313">
        <ele>247</ele>
        <time>2021-05-29T09:21:56.425Z</time>
      </trkpt>
      <trkpt lat="46.59565" lon="5.50311">
        <ele>247</ele>
        <time>2021-05-29T09:21:57.425Z</time>
      </trkpt>
      <trkpt lat="46.59566" lon="5.50309">
        <ele>247</ele>
        <time>2021-05-29T09:21:58.426Z</time>
      </trkpt>
      <trkpt lat="46.59567" lon="5.50307">
        <ele>247</ele>
        <time>2021-05-29T09:21:59.426Z</time>
      </trkpt>
      <trkpt lat="46.59568" lon="5.50305">
        <ele>247</ele>
        <time>2021-05-29T09:22:00.425Z</time>
      </trkpt>
      <trkpt lat="46.59569" lon="5.50303">
        <ele>247</ele>
        <time>2021-05-29T09:22:01.425Z</time>
      </trkpt>
      <trkpt lat="46.59571" lon="5.50301">
        <ele>247</ele>
        <time>2021-05-29T09:22:02.426Z</time>
      </trkpt>
      <trkpt lat="46.59572" lon="5.50299">
        <ele>247</ele>
        <time>2021-05-29T09:22:03.426Z</time>
      </trkpt>
      <trkpt lat="46.59574" lon="5.50298">
        <ele>247</ele>
        <time>2021-05-29T09:22:04.426Z</time>
      </trkpt>
      <trkpt lat="46.59575" lon="5.50296">
        <ele>247</ele>
        <time>2021-05-29T09:22:05.426Z</time>
      </trkpt>
      <trkpt lat="46.59576" lon="5.50294">
        <ele>248</ele>
        <time>2021-05-29T09:22:06.426Z</time>
      </trkpt>
      <trkpt lat="46.59578" lon="5.50292">
        <ele>248</ele>
        <time>2021-05-29T09:22:07.426Z</time>
      </trkpt>
      <trkpt lat="46.59579" lon="5.50291">
        <ele>248</ele>
        <time>2021-05-29T09:22:08.426Z</time>
      </trkpt>
      <trkpt lat="46.59581" lon="5.50289">
        <ele>248</ele>
        <time>2021-05-29T09:22:09.425Z</time>
      </trkpt>
      <trkpt lat="46.59583" lon="5.50287">
        <ele>248</ele>
        <time>2021-05-29T09:22:10.425Z</time>
      </trkpt>
      <trkpt lat="46.59585" lon="5.50286">
        <ele>248</ele>
        <time>2021-05-29T09:22:11.426Z</time>
      </trkpt>
      <trkpt lat="46.59586" lon="5.50284">
        <ele>248</ele>
        <time>2021-05-29T09:22:12.425Z</time>
      </trkpt>
      <trkpt lat="46.59588" lon="5.50282">
        <ele>248</ele>
        <time>2021-05-29T09:22:13.425Z</time>
      </trkpt>
      <trkpt lat="46.59589" lon="5.50281">
        <ele>249</ele>
        <time>2021-05-29T09:22:14.426Z</time>
      </trkpt>
      <trkpt lat="46.59591" lon="5.50279">
        <ele>249</ele>
        <time>2021-05-29T09:22:15.426Z</time>
      </trkpt>
      <trkpt lat="46.59593" lon="5.50278">
        <ele>249</ele>
        <time>2021-05-29T09:22:16.426Z</time>
      </trkpt>
      <trkpt lat="46.59595" lon="5.50277">
        <ele>250</ele>
        <time>2021-05-29T09:22:17.426Z</time>
      </trkpt>
      <trkpt lat="46.59597" lon="5.50276">
        <ele>250</ele>
        <time>2021-05-29T09:22:18.426Z</time>
      </trkpt>
      <trkpt lat="46.59599" lon="5.50275">
        <ele>250</ele>
        <time>2021-05-29T09:22:19.426Z</time>
      </trkpt>
      <trkpt lat="46.59601" lon="5.50273">
        <ele>250</ele>
        <time>2021-05-29T09:22:20.426Z</time>
      </trkpt>
      <trkpt lat="46.59603" lon="5.50272">
        <ele>249</ele>
        <time>2021-05-29T09:22:21.426Z</time>
      </trkpt>
      <trkpt lat="46.59605" lon="5.50272">
        <ele>249</ele>
        <time>2021-05-29T09:22:22.425Z</time>
      </trkpt>
      <trkpt lat="46.59607" lon="5.50271">
        <ele>249</ele>
        <time>2021-05-29T09:22:23.426Z</time>
      </trkpt>
      <trkpt lat="46.59609" lon="5.5027">
        <ele>250</ele>
        <time>2021-05-29T09:22:24.426Z</time>
      </trkpt>
      <trkpt lat="46.59611" lon="5.5027">
        <ele>250</ele>
        <time>2021-05-29T09:22:25.426Z</time>
      </trkpt>
      <trkpt lat="46.59613" lon="5.50269">
        <ele>250</ele>
        <time>2021-05-29T09:22:26.426Z</time>
      </trkpt>
      <trkpt lat="46.59614" lon="5.50268">
        <ele>250</ele>
        <time>2021-05-29T09:22:27.426Z</time>
      </trkpt>
      <trkpt lat="46.59616" lon="5.50267">
        <ele>250</ele>
        <time>2021-05-29T09:22:28.426Z</time>
      </trkpt>
      <trkpt lat="46.59618" lon="5.50267">
        <ele>251</ele>
        <time>2021-05-29T09:22:29.426Z</time>
      </trkpt>
      <trkpt lat="46.5962" lon="5.50266">
        <ele>251</ele>
        <time>2021-05-29T09:22:30.426Z</time>
      </trkpt>
      <trkpt lat="46.59622" lon="5.50265">
        <ele>251</ele>
        <time>2021-05-29T09:22:31.425Z</time>
      </trkpt>
      <trkpt lat="46.59625" lon="5.50265">
        <ele>252</ele>
        <time>2021-05-29T09:22:32.426Z</time>
      </trkpt>
      <trkpt lat="46.59627" lon="5.50264">
        <ele>252</ele>
        <time>2021-05-29T09:22:33.426Z</time>
      </trkpt>
      <trkpt lat="46.59629" lon="5.50264">
        <ele>252</ele>
        <time>2021-05-29T09:22:34.425Z</time>
      </trkpt>
      <trkpt lat="46.59631" lon="5.50263">
        <ele>252</ele>
        <time>2021-05-29T09:22:35.426Z</time>
      </trkpt>
      <trkpt lat="46.59633" lon="5.50263">
        <ele>252</ele>
        <time>2021-05-29T09:22:36.426Z</time>
      </trkpt>
      <trkpt lat="46.59635" lon="5.50262">
        <ele>252</ele>
        <time>2021-05-29T09:22:37.426Z</time>
      </trkpt>
      <trkpt lat="46.59637" lon="5.50262">
        <ele>252</ele>
        <time>2021-05-29T09:22:38.426Z</time>
      </trkpt>
      <trkpt lat="46.59639" lon="5.50262">
        <ele>253</ele>
        <time>2021-05-29T09:22:39.426Z</time>
      </trkpt>
      <trkpt lat="46.59642" lon="5.50261">
        <ele>253</ele>
        <time>2021-05-29T09:22:40.426Z</time>
      </trkpt>
      <trkpt lat="46.59644" lon="5.5026">
        <ele>253</ele>
        <time>2021-05-29T09:22:41.426Z</time>
      </trkpt>
      <trkpt lat="46.59646" lon="5.5026">
        <ele>254</ele>
        <time>2021-05-29T09:22:42.426Z</time>
      </trkpt>
      <trkpt lat="46.59649" lon="5.50259">
        <ele>254</ele>
        <time>2021-05-29T09:22:43.425Z</time>
      </trkpt>
      <trkpt lat="46.59651" lon="5.50258">
        <ele>254</ele>
        <time>2021-05-29T09:22:44.426Z</time>
      </trkpt>
      <trkpt lat="46.59653" lon="5.50257">
        <ele>254</ele>
        <time>2021-05-29T09:22:45.425Z</time>
      </trkpt>
      <trkpt lat="46.59656" lon="5.50257">
        <ele>254</ele>
        <time>2021-05-29T09:22:46.426Z</time>
      </trkpt>
      <trkpt lat="46.59658" lon="5.50257">
        <ele>254</ele>
        <time>2021-05-29T09:22:47.426Z</time>
      </trkpt>
      <trkpt lat="46.5966" lon="5.50256">
        <ele>253</ele>
        <time>2021-05-29T09:22:48.425Z</time>
      </trkpt>
      <trkpt lat="46.59662" lon="5.50256">
        <ele>253</ele>
        <time>2021-05-29T09:22:49.426Z</time>
      </trkpt>
      <trkpt lat="46.59664" lon="5.50255">
        <ele>253</ele>
        <time>2021-05-29T09:22:50.426Z</time>
      </trkpt>
      <trkpt lat="46.59667" lon="5.50254">
        <ele>253</ele>
        <time>2021-05-29T09:22:51.426Z</time>
      </trkpt>
      <trkpt lat="46.59669" lon="5.50254">
        <ele>253</ele>
        <time>2021-05-29T09:22:52.426Z</time>
      </trkpt>
      <trkpt lat="46.5967" lon="5.50254">
        <ele>253</ele>
        <time>2021-05-29T09:22:53.425Z</time>
      </trkpt>
      <trkpt lat="46.59672" lon="5.50254">
        <ele>253</ele>
        <time>2021-05-29T09:22:54.425Z</time>
      </trkpt>
      <trkpt lat="46.59674" lon="5.50254">
        <ele>253</ele>
        <time>2021-05-29T09:22:55.426Z</time>
      </trkpt>
      <trkpt lat="46.59676" lon="5.50255">
        <ele>254</ele>
        <time>2021-05-29T09:22:56.425Z</time>
      </trkpt>
      <trkpt lat="46.59677" lon="5.50256">
        <ele>254</ele>
        <time>2021-05-29T09:22:57.426Z</time>
      </trkpt>
      <trkpt lat="46.59679" lon="5.50258">
        <ele>254</ele>
        <time>2021-05-29T09:22:58.426Z</time>
      </trkpt>
      <trkpt lat="46.5968" lon="5.5026">
        <ele>255</ele>
        <time>2021-05-29T09:22:59.426Z</time>
      </trkpt>
      <trkpt lat="46.59681" lon="5.50262">
        <ele>255</ele>
        <time>2021-05-29T09:23:00.425Z</time>
      </trkpt>
      <trkpt lat="46.59682" lon="5.50265">
        <ele>255</ele>
        <time>2021-05-29T09:23:01.426Z</time>
      </trkpt>
      <trkpt lat="46.59682" lon="5.50268">
        <ele>256</ele>
        <time>2021-05-29T09:23:02.425Z</time>
      </trkpt>
      <trkpt lat="46.59684" lon="5.5027">
        <ele>256</ele>
        <time>2021-05-29T09:23:03.426Z</time>
      </trkpt>
      <trkpt lat="46.59684" lon="5.50273">
        <ele>256</ele>
        <time>2021-05-29T09:23:04.426Z</time>
      </trkpt>
      <trkpt lat="46.59685" lon="5.50275">
        <ele>256</ele>
        <time>2021-05-29T09:23:05.425Z</time>
      </trkpt>
      <trkpt lat="46.59685" lon="5.50278">
        <ele>256</ele>
        <time>2021-05-29T09:23:06.426Z</time>
      </trkpt>
      <trkpt lat="46.59685" lon="5.5028">
        <ele>257</ele>
        <time>2021-05-29T09:23:07.426Z</time>
      </trkpt>
      <trkpt lat="46.59685" lon="5.50282">
        <ele>257</ele>
        <time>2021-05-29T09:23:08.426Z</time>
      </trkpt>
      <trkpt lat="46.59686" lon="5.50285">
        <ele>257</ele>
        <time>2021-05-29T09:23:09.425Z</time>
      </trkpt>
      <trkpt lat="46.59687" lon="5.50288">
        <ele>257</ele>
        <time>2021-05-29T09:23:10.426Z</time>
      </trkpt>
      <trkpt lat="46.59688" lon="5.5029">
        <ele>257</ele>
        <time>2021-05-29T09:23:11.426Z</time>
      </trkpt>
      <trkpt lat="46.5969" lon="5.50291">
        <ele>257</ele>
        <time>2021-05-29T09:23:12.425Z</time>
      </trkpt>
      <trkpt lat="46.59691" lon="5.50292">
        <ele>257</ele>
        <time>2021-05-29T09:23:13.426Z</time>
      </trkpt>
      <trkpt lat="46.59693" lon="5.50293">
        <ele>258</ele>
        <time>2021-05-29T09:23:14.425Z</time>
      </trkpt>
      <trkpt lat="46.59694" lon="5.50295">
        <ele>258</ele>
        <time>2021-05-29T09:23:15.426Z</time>
      </trkpt>
      <trkpt lat="46.59695" lon="5.50296">
        <ele>259</ele>
        <time>2021-05-29T09:23:16.425Z</time>
      </trkpt>
      <trkpt lat="46.59696" lon="5.50297">
        <ele>260</ele>
        <time>2021-05-29T09:23:17.425Z</time>
      </trkpt>
      <trkpt lat="46.59698" lon="5.50298">
        <ele>260</ele>
        <time>2021-05-29T09:23:18.426Z</time>
      </trkpt>
      <trkpt lat="46.597" lon="5.50299">
        <ele>260</ele>
        <time>2021-05-29T09:23:19.426Z</time>
      </trkpt>
      <trkpt lat="46.59702" lon="5.50299">
        <ele>260</ele>
        <time>2021-05-29T09:23:20.426Z</time>
      </trkpt>
      <trkpt lat="46.59703" lon="5.50299">
        <ele>260</ele>
        <time>2021-05-29T09:23:21.426Z</time>
      </trkpt>
      <trkpt lat="46.59704" lon="5.50299">
        <ele>260</ele>
        <time>2021-05-29T09:23:22.425Z</time>
      </trkpt>
      <trkpt lat="46.59704" lon="5.50299">
        <ele>260</ele>
        <time>2021-05-29T09:23:23.426Z</time>
      </trkpt>
      <trkpt lat="46.59703" lon="5.50299">
        <ele>259</ele>
        <time>2021-05-29T09:23:24.426Z</time>
      </trkpt>
      <trkpt lat="46.59701" lon="5.50298">
        <ele>259</ele>
        <time>2021-05-29T09:23:25.426Z</time>
      </trkpt>
      <trkpt lat="46.59699" lon="5.50297">
        <ele>259</ele>
        <time>2021-05-29T09:23:26.425Z</time>
      </trkpt>
      <trkpt lat="46.59697" lon="5.50296">
        <ele>258</ele>
        <time>2021-05-29T09:23:27.426Z</time>
      </trkpt>
      <trkpt lat="46.59695" lon="5.50295">
        <ele>257</ele>
        <time>2021-05-29T09:23:28.426Z</time>
      </trkpt>
      <trkpt lat="46.59693" lon="5.50294">
        <ele>257</ele>
        <time>2021-05-29T09:23:29.426Z</time>
      </trkpt>
      <trkpt lat="46.59691" lon="5.50294">
        <ele>256</ele>
        <time>2021-05-29T09:23:30.425Z</time>
      </trkpt>
      <trkpt lat="46.59689" lon="5.50294">
        <ele>256</ele>
        <time>2021-05-29T09:23:31.426Z</time>
      </trkpt>
      <trkpt lat="46.59688" lon="5.50295">
        <ele>255</ele>
        <time>2021-05-29T09:23:32.426Z</time>
      </trkpt>
      <trkpt lat="46.59688" lon="5.50295">
        <ele>255</ele>
        <time>2021-05-29T09:23:33.426Z</time>
      </trkpt>
      <trkpt lat="46.59689" lon="5.50295">
        <ele>255</ele>
        <time>2021-05-29T09:23:34.426Z</time>
      </trkpt>
      <trkpt lat="46.5969" lon="5.50295">
        <ele>255</ele>
        <time>2021-05-29T09:23:35.425Z</time>
      </trkpt>
      <trkpt lat="46.59692" lon="5.50296">
        <ele>255</ele>
        <time>2021-05-29T09:23:36.426Z</time>
      </trkpt>
      <trkpt lat="46.59693" lon="5.50298">
        <ele>255</ele>
        <time>2021-05-29T09:23:37.425Z</time>
      </trkpt>
      <trkpt lat="46.59695" lon="5.50299">
        <ele>255</ele>
        <time>2021-05-29T09:23:38.426Z</time>
      </trkpt>
      <trkpt lat="46.59698" lon="5.503">
        <ele>256</ele>
        <time>2021-05-29T09:23:39.426Z</time>
      </trkpt>
      <trkpt lat="46.59699" lon="5.50301">
        <ele>256</ele>
        <time>2021-05-29T09:23:40.425Z</time>
      </trkpt>
      <trkpt lat="46.59702" lon="5.50302">
        <ele>256</ele>
        <time>2021-05-29T09:23:41.426Z</time>
      </trkpt>
      <trkpt lat="46.59704" lon="5.50302">
        <ele>257</ele>
        <time>2021-05-29T09:23:42.426Z</time>
      </trkpt>
      <trkpt lat="46.59706" lon="5.50301">
        <ele>257</ele>
        <time>2021-05-29T09:23:43.426Z</time>
      </trkpt>
      <trkpt lat="46.59708" lon="5.503">
        <ele>257</ele>
        <time>2021-05-29T09:23:44.426Z</time>
      </trkpt>
      <trkpt lat="46.59711" lon="5.503">
        <ele>257</ele>
        <time>2021-05-29T09:23:45.426Z</time>
      </trkpt>
      <trkpt lat="46.59713" lon="5.503">
        <ele>257</ele>
        <time>2021-05-29T09:23:46.426Z</time>
      </trkpt>
      <trkpt lat="46.59715" lon="5.50298">
        <ele>257</ele>
        <time>2021-05-29T09:23:47.425Z</time>
      </trkpt>
      <trkpt lat="46.59716" lon="5.50296">
        <ele>258</ele>
        <time>2021-05-29T09:23:48.425Z</time>
      </trkpt>
      <trkpt lat="46.59718" lon="5.50294">
        <ele>258</ele>
        <time>2021-05-29T09:23:49.425Z</time>
      </trkpt>
      <trkpt lat="46.59719" lon="5.50292">
        <ele>258</ele>
        <time>2021-05-29T09:23:50.426Z</time>
      </trkpt>
      <trkpt lat="46.59721" lon="5.5029">
        <ele>258</ele>
        <time>2021-05-29T09:23:51.426Z</time>
      </trkpt>
      <trkpt lat="46.59722" lon="5.50289">
        <ele>258</ele>
        <time>2021-05-29T09:23:52.426Z</time>
      </trkpt>
      <trkpt lat="46.59724" lon="5.50288">
        <ele>258</ele>
        <time>2021-05-29T09:23:53.425Z</time>
      </trkpt>
      <trkpt lat="46.59725" lon="5.50287">
        <ele>258</ele>
        <time>2021-05-29T09:23:54.426Z</time>
      </trkpt>
      <trkpt lat="46.59726" lon="5.50286">
        <ele>258</ele>
        <time>2021-05-29T09:23:55.425Z</time>
      </trkpt>
      <trkpt lat="46.59728" lon="5.50285">
        <ele>258</ele>
        <time>2021-05-29T09:23:56.426Z</time>
      </trkpt>
      <trkpt lat="46.59729" lon="5.50283">
        <ele>258</ele>
        <time>2021-05-29T09:23:57.426Z</time>
      </trkpt>
      <trkpt lat="46.59731" lon="5.50282">
        <ele>258</ele>
        <time>2021-05-29T09:23:58.426Z</time>
      </trkpt>
      <trkpt lat="46.59732" lon="5.50281">
        <ele>258</ele>
        <time>2021-05-29T09:23:59.426Z</time>
      </trkpt>
      <trkpt lat="46.59734" lon="5.5028">
        <ele>258</ele>
        <time>2021-05-29T09:24:00.426Z</time>
      </trkpt>
      <trkpt lat="46.59735" lon="5.50278">
        <ele>258</ele>
        <time>2021-05-29T09:24:01.426Z</time>
      </trkpt>
      <trkpt lat="46.59737" lon="5.50277">
        <ele>258</ele>
        <time>2021-05-29T09:24:02.425Z</time>
      </trkpt>
      <trkpt lat="46.59738" lon="5.50276">
        <ele>259</ele>
        <time>2021-05-29T09:24:03.426Z</time>
      </trkpt>
      <trkpt lat="46.5974" lon="5.50276">
        <ele>259</ele>
        <time>2021-05-29T09:24:04.425Z</time>
      </trkpt>
      <trkpt lat="46.59742" lon="5.50275">
        <ele>259</ele>
        <time>2021-05-29T09:24:05.425Z</time>
      </trkpt>
      <trkpt lat="46.59744" lon="5.50274">
        <ele>258</ele>
        <time>2021-05-29T09:24:06.425Z</time>
      </trkpt>
      <trkpt lat="46.59746" lon="5.50272">
        <ele>258</ele>
        <time>2021-05-29T09:24:07.425Z</time>
      </trkpt>
      <trkpt lat="46.59747" lon="5.50271">
        <ele>259</ele>
        <time>2021-05-29T09:24:08.426Z</time>
      </trkpt>
      <trkpt lat="46.59749" lon="5.5027">
        <ele>258</ele>
        <time>2021-05-29T09:24:09.425Z</time>
      </trkpt>
      <trkpt lat="46.59751" lon="5.50268">
        <ele>258</ele>
        <time>2021-05-29T09:24:10.426Z</time>
      </trkpt>
      <trkpt lat="46.59752" lon="5.50267">
        <ele>258</ele>
        <time>2021-05-29T09:24:11.426Z</time>
      </trkpt>
      <trkpt lat="46.59754" lon="5.50265">
        <ele>259</ele>
        <time>2021-05-29T09:24:12.426Z</time>
      </trkpt>
      <trkpt lat="46.59755" lon="5.50263">
        <ele>259</ele>
        <time>2021-05-29T09:24:13.426Z</time>
      </trkpt>
      <trkpt lat="46.59757" lon="5.50262">
        <ele>259</ele>
        <time>2021-05-29T09:24:14.426Z</time>
      </trkpt>
      <trkpt lat="46.59759" lon="5.50261">
        <ele>259</ele>
        <time>2021-05-29T09:24:15.425Z</time>
      </trkpt>
      <trkpt lat="46.59761" lon="5.5026">
        <ele>259</ele>
        <time>2021-05-29T09:24:16.426Z</time>
      </trkpt>
      <trkpt lat="46.59763" lon="5.50259">
        <ele>260</ele>
        <time>2021-05-29T09:24:17.426Z</time>
      </trkpt>
      <trkpt lat="46.59765" lon="5.50257">
        <ele>260</ele>
        <time>2021-05-29T09:24:18.425Z</time>
      </trkpt>
      <trkpt lat="46.59767" lon="5.50256">
        <ele>260</ele>
        <time>2021-05-29T09:24:19.426Z</time>
      </trkpt>
      <trkpt lat="46.59768" lon="5.50255">
        <ele>260</ele>
        <time>2021-05-29T09:24:20.425Z</time>
      </trkpt>
      <trkpt lat="46.59771" lon="5.50254">
        <ele>260</ele>
        <time>2021-05-29T09:24:21.425Z</time>
      </trkpt>
      <trkpt lat="46.59772" lon="5.50252">
        <ele>260</ele>
        <time>2021-05-29T09:24:22.426Z</time>
      </trkpt>
      <trkpt lat="46.59775" lon="5.50251">
        <ele>260</ele>
        <time>2021-05-29T09:24:23.426Z</time>
      </trkpt>
      <trkpt lat="46.59776" lon="5.50249">
        <ele>261</ele>
        <time>2021-05-29T09:24:24.426Z</time>
      </trkpt>
      <trkpt lat="46.59778" lon="5.50248">
        <ele>261</ele>
        <time>2021-05-29T09:24:25.425Z</time>
      </trkpt>
      <trkpt lat="46.59781" lon="5.50247">
        <ele>261</ele>
        <time>2021-05-29T09:24:26.426Z</time>
      </trkpt>
      <trkpt lat="46.59783" lon="5.50246">
        <ele>261</ele>
        <time>2021-05-29T09:24:27.425Z</time>
      </trkpt>
      <trkpt lat="46.59785" lon="5.50245">
        <ele>261</ele>
        <time>2021-05-29T09:24:28.426Z</time>
      </trkpt>
      <trkpt lat="46.59787" lon="5.50243">
        <ele>262</ele>
        <time>2021-05-29T09:24:29.425Z</time>
      </trkpt>
      <trkpt lat="46.59789" lon="5.50242">
        <ele>262</ele>
        <time>2021-05-29T09:24:30.425Z</time>
      </trkpt>
      <trkpt lat="46.5979" lon="5.50241">
        <ele>262</ele>
        <time>2021-05-29T09:24:31.426Z</time>
      </trkpt>
      <trkpt lat="46.59793" lon="5.5024">
        <ele>261</ele>
        <time>2021-05-29T09:24:32.425Z</time>
      </trkpt>
      <trkpt lat="46.59795" lon="5.50239">
        <ele>261</ele>
        <time>2021-05-29T09:24:33.426Z</time>
      </trkpt>
      <trkpt lat="46.59797" lon="5.50238">
        <ele>261</ele>
        <time>2021-05-29T09:24:34.426Z</time>
      </trkpt>
      <trkpt lat="46.59799" lon="5.50237">
        <ele>261</ele>
        <time>2021-05-29T09:24:35.425Z</time>
      </trkpt>
      <trkpt lat="46.598" lon="5.50236">
        <ele>261</ele>
        <time>2021-05-29T09:24:36.426Z</time>
      </trkpt>
      <trkpt lat="46.59802" lon="5.50234">
        <ele>261</ele>
        <time>2021-05-29T09:24:37.426Z</time>
      </trkpt>
      <trkpt lat="46.59805" lon="5.50233">
        <ele>262</ele>
        <time>2021-05-29T09:24:38.426Z</time>
      </trkpt>
      <trkpt lat="46.59807" lon="5.50232">
        <ele>262</ele>
        <time>2021-05-29T09:24:39.426Z</time>
      </trkpt>
      <trkpt lat="46.59809" lon="5.50231">
        <ele>263</ele>
        <time>2021-05-29T09:24:40.425Z</time>
      </trkpt>
      <trkpt lat="46.59811" lon="5.50229">
        <ele>263</ele>
        <time>2021-05-29T09:24:41.425Z</time>
      </trkpt>
      <trkpt lat="46.59813" lon="5.50228">
        <ele>263</ele>
        <time>2021-05-29T09:24:42.426Z</time>
      </trkpt>
      <trkpt lat="46.59815" lon="5.50227">
        <ele>263</ele>
        <time>2021-05-29T09:24:43.426Z</time>
      </trkpt>
      <trkpt lat="46.59818" lon="5.50226">
        <ele>263</ele>
        <time>2021-05-29T09:24:44.426Z</time>
      </trkpt>
      <trkpt lat="46.5982" lon="5.50225">
        <ele>263</ele>
        <time>2021-05-29T09:24:45.426Z</time>
      </trkpt>
      <trkpt lat="46.59821" lon="5.50224">
        <ele>263</ele>
        <time>2021-05-29T09:24:46.426Z</time>
      </trkpt>
      <trkpt lat="46.59823" lon="5.50222">
        <ele>263</ele>
        <time>2021-05-29T09:24:47.426Z</time>
      </trkpt>
      <trkpt lat="46.59825" lon="5.50221">
        <ele>263</ele>
        <time>2021-05-29T09:24:48.425Z</time>
      </trkpt>
      <trkpt lat="46.59827" lon="5.5022">
        <ele>264</ele>
        <time>2021-05-29T09:24:49.426Z</time>
      </trkpt>
      <trkpt lat="46.59829" lon="5.50218">
        <ele>264</ele>
        <time>2021-05-29T09:24:50.426Z</time>
      </trkpt>
      <trkpt lat="46.59831" lon="5.50216">
        <ele>265</ele>
        <time>2021-05-29T09:24:51.425Z</time>
      </trkpt>
      <trkpt lat="46.59832" lon="5.50215">
        <ele>265</ele>
        <time>2021-05-29T09:24:52.426Z</time>
      </trkpt>
      <trkpt lat="46.59834" lon="5.50213">
        <ele>266</ele>
        <time>2021-05-29T09:24:53.425Z</time>
      </trkpt>
      <trkpt lat="46.59835" lon="5.50211">
        <ele>267</ele>
        <time>2021-05-29T09:24:54.426Z</time>
      </trkpt>
      <trkpt lat="46.59837" lon="5.5021">
        <ele>267</ele>
        <time>2021-05-29T09:24:55.426Z</time>
      </trkpt>
      <trkpt lat="46.59839" lon="5.50209">
        <ele>268</ele>
        <time>2021-05-29T09:24:56.426Z</time>
      </trkpt>
      <trkpt lat="46.59842" lon="5.50208">
        <ele>268</ele>
        <time>2021-05-29T09:24:57.426Z</time>
      </trkpt>
      <trkpt lat="46.59844" lon="5.50207">
        <ele>269</ele>
        <time>2021-05-29T09:24:58.426Z</time>
      </trkpt>
      <trkpt lat="46.59846" lon="5.50206">
        <ele>269</ele>
        <time>2021-05-29T09:24:59.426Z</time>
      </trkpt>
      <trkpt lat="46.59849" lon="5.50204">
        <ele>270</ele>
        <time>2021-05-29T09:25:00.426Z</time>
      </trkpt>
      <trkpt lat="46.59852" lon="5.50204">
        <ele>270</ele>
        <time>2021-05-29T09:25:01.426Z</time>
      </trkpt>
      <trkpt lat="46.59853" lon="5.50203">
        <ele>270</ele>
        <time>2021-05-29T09:25:02.426Z</time>
      </trkpt>
      <trkpt lat="46.59855" lon="5.50202">
        <ele>270</ele>
        <time>2021-05-29T09:25:03.426Z</time>
      </trkpt>
      <trkpt lat="46.59857" lon="5.50201">
        <ele>270</ele>
        <time>2021-05-29T09:25:04.426Z</time>
      </trkpt>
      <trkpt lat="46.59859" lon="5.502">
        <ele>271</ele>
        <time>2021-05-29T09:25:05.425Z</time>
      </trkpt>
      <trkpt lat="46.59862" lon="5.502">
        <ele>271</ele>
        <time>2021-05-29T09:25:06.426Z</time>
      </trkpt>
      <trkpt lat="46.59864" lon="5.50199">
        <ele>271</ele>
        <time>2021-05-29T09:25:07.426Z</time>
      </trkpt>
      <trkpt lat="46.59866" lon="5.50198">
        <ele>271</ele>
        <time>2021-05-29T09:25:08.426Z</time>
      </trkpt>
      <trkpt lat="46.59868" lon="5.50196">
        <ele>271</ele>
        <time>2021-05-29T09:25:09.425Z</time>
      </trkpt>
      <trkpt lat="46.5987" lon="5.50196">
        <ele>271</ele>
        <time>2021-05-29T09:25:10.426Z</time>
      </trkpt>
      <trkpt lat="46.59873" lon="5.50196">
        <ele>271</ele>
        <time>2021-05-29T09:25:11.426Z</time>
      </trkpt>
      <trkpt lat="46.59875" lon="5.50195">
        <ele>271</ele>
        <time>2021-05-29T09:25:12.426Z</time>
      </trkpt>
      <trkpt lat="46.59877" lon="5.50194">
        <ele>271</ele>
        <time>2021-05-29T09:25:13.426Z</time>
      </trkpt>
      <trkpt lat="46.59879" lon="5.50193">
        <ele>271</ele>
        <time>2021-05-29T09:25:14.426Z</time>
      </trkpt>
      <trkpt lat="46.59881" lon="5.50192">
        <ele>272</ele>
        <time>2021-05-29T09:25:15.426Z</time>
      </trkpt>
      <trkpt lat="46.59883" lon="5.50192">
        <ele>272</ele>
        <time>2021-05-29T09:25:16.426Z</time>
      </trkpt>
      <trkpt lat="46.59885" lon="5.50191">
        <ele>272</ele>
        <time>2021-05-29T09:25:17.425Z</time>
      </trkpt>
      <trkpt lat="46.59887" lon="5.50191">
        <ele>271</ele>
        <time>2021-05-29T09:25:18.426Z</time>
      </trkpt>
      <trkpt lat="46.59889" lon="5.5019">
        <ele>271</ele>
        <time>2021-05-29T09:25:19.426Z</time>
      </trkpt>
      <trkpt lat="46.59891" lon="5.5019">
        <ele>271</ele>
        <time>2021-05-29T09:25:20.426Z</time>
      </trkpt>
      <trkpt lat="46.59893" lon="5.5019">
        <ele>271</ele>
        <time>2021-05-29T09:25:21.426Z</time>
      </trkpt>
      <trkpt lat="46.59895" lon="5.50189">
        <ele>271</ele>
        <time>2021-05-29T09:25:22.426Z</time>
      </trkpt>
      <trkpt lat="46.59896" lon="5.50188">
        <ele>272</ele>
        <time>2021-05-29T09:25:23.426Z</time>
      </trkpt>
      <trkpt lat="46.59898" lon="5.50187">
        <ele>272</ele>
        <time>2021-05-29T09:25:24.426Z</time>
      </trkpt>
      <trkpt lat="46.599" lon="5.50187">
        <ele>272</ele>
        <time>2021-05-29T09:25:25.426Z</time>
      </trkpt>
      <trkpt lat="46.59901" lon="5.50186">
        <ele>272</ele>
        <time>2021-05-29T09:25:26.425Z</time>
      </trkpt>
      <trkpt lat="46.59902" lon="5.50187">
        <ele>272</ele>
        <time>2021-05-29T09:25:27.425Z</time>
      </trkpt>
      <trkpt lat="46.59903" lon="5.50187">
        <ele>272</ele>
        <time>2021-05-29T09:25:28.426Z</time>
      </trkpt>
      <trkpt lat="46.59905" lon="5.50188">
        <ele>272</ele>
        <time>2021-05-29T09:25:29.425Z</time>
      </trkpt>
      <trkpt lat="46.59905" lon="5.50189">
        <ele>272</ele>
        <time>2021-05-29T09:25:30.426Z</time>
      </trkpt>
      <trkpt lat="46.59906" lon="5.5019">
        <ele>272</ele>
        <time>2021-05-29T09:25:31.426Z</time>
      </trkpt>
      <trkpt lat="46.59906" lon="5.50191">
        <ele>272</ele>
        <time>2021-05-29T09:25:32.426Z</time>
      </trkpt>
      <trkpt lat="46.59907" lon="5.50192">
        <ele>272</ele>
        <time>2021-05-29T09:25:33.426Z</time>
      </trkpt>
      <trkpt lat="46.59907" lon="5.50193">
        <ele>272</ele>
        <time>2021-05-29T09:25:34.426Z</time>
      </trkpt>
      <trkpt lat="46.59906" lon="5.50195">
        <ele>272</ele>
        <time>2021-05-29T09:25:35.426Z</time>
      </trkpt>
      <trkpt lat="46.59906" lon="5.50196">
        <ele>271</ele>
        <time>2021-05-29T09:25:36.426Z</time>
      </trkpt>
      <trkpt lat="46.59906" lon="5.50197">
        <ele>271</ele>
        <time>2021-05-29T09:25:37.425Z</time>
      </trkpt>
      <trkpt lat="46.59906" lon="5.50199">
        <ele>271</ele>
        <time>2021-05-29T09:25:38.426Z</time>
      </trkpt>
      <trkpt lat="46.59906" lon="5.502">
        <ele>271</ele>
        <time>2021-05-29T09:25:39.426Z</time>
      </trkpt>
      <trkpt lat="46.59906" lon="5.50201">
        <ele>271</ele>
        <time>2021-05-29T09:25:40.426Z</time>
      </trkpt>
      <trkpt lat="46.59905" lon="5.50202">
        <ele>271</ele>
        <time>2021-05-29T09:25:41.425Z</time>
      </trkpt>
      <trkpt lat="46.59905" lon="5.50203">
        <ele>271</ele>
        <time>2021-05-29T09:25:42.425Z</time>
      </trkpt>
      <trkpt lat="46.59904" lon="5.50204">
        <ele>272</ele>
        <time>2021-05-29T09:25:43.426Z</time>
      </trkpt>
      <trkpt lat="46.59903" lon="5.50205">
        <ele>272</ele>
        <time>2021-05-29T09:25:44.426Z</time>
      </trkpt>
      <trkpt lat="46.59903" lon="5.50206">
        <ele>272</ele>
        <time>2021-05-29T09:25:45.426Z</time>
      </trkpt>
      <trkpt lat="46.59902" lon="5.50208">
        <ele>272</ele>
        <time>2021-05-29T09:25:46.425Z</time>
      </trkpt>
      <trkpt lat="46.59902" lon="5.50209">
        <ele>272</ele>
        <time>2021-05-29T09:25:47.426Z</time>
      </trkpt>
      <trkpt lat="46.59901" lon="5.5021">
        <ele>272</ele>
        <time>2021-05-29T09:25:48.425Z</time>
      </trkpt>
      <trkpt lat="46.59901" lon="5.50212">
        <ele>272</ele>
        <time>2021-05-29T09:25:49.426Z</time>
      </trkpt>
      <trkpt lat="46.599" lon="5.50213">
        <ele>272</ele>
        <time>2021-05-29T09:25:50.426Z</time>
      </trkpt>
      <trkpt lat="46.599" lon="5.50214">
        <ele>272</ele>
        <time>2021-05-29T09:25:51.426Z</time>
      </trkpt>
      <trkpt lat="46.599" lon="5.50215">
        <ele>272</ele>
        <time>2021-05-29T09:25:52.426Z</time>
      </trkpt>
      <trkpt lat="46.599" lon="5.50216">
        <ele>273</ele>
        <time>2021-05-29T09:25:53.426Z</time>
      </trkpt>
      <trkpt lat="46.599" lon="5.50216">
        <ele>273</ele>
        <time>2021-05-29T09:25:54.426Z</time>
      </trkpt>
      <trkpt lat="46.59901" lon="5.50218">
        <ele>273</ele>
        <time>2021-05-29T09:25:55.426Z</time>
      </trkpt>
      <trkpt lat="46.59901" lon="5.50219">
        <ele>273</ele>
        <time>2021-05-29T09:25:56.426Z</time>
      </trkpt>
      <trkpt lat="46.59902" lon="5.5022">
        <ele>274</ele>
        <time>2021-05-29T09:25:57.425Z</time>
      </trkpt>
      <trkpt lat="46.59903" lon="5.50221">
        <ele>274</ele>
        <time>2021-05-29T09:25:58.426Z</time>
      </trkpt>
      <trkpt lat="46.59903" lon="5.50222">
        <ele>274</ele>
        <time>2021-05-29T09:25:59.426Z</time>
      </trkpt>
      <trkpt lat="46.59904" lon="5.50221">
        <ele>274</ele>
        <time>2021-05-29T09:26:00.426Z</time>
      </trkpt>
      <trkpt lat="46.59904" lon="5.50221">
        <ele>275</ele>
        <time>2021-05-29T09:26:01.426Z</time>
      </trkpt>
      <trkpt lat="46.59905" lon="5.50222">
        <ele>276</ele>
        <time>2021-05-29T09:26:02.426Z</time>
      </trkpt>
      <trkpt lat="46.59905" lon="5.50223">
        <ele>276</ele>
        <time>2021-05-29T09:26:03.426Z</time>
      </trkpt>
      <trkpt lat="46.59905" lon="5.50224">
        <ele>277</ele>
        <time>2021-05-29T09:26:04.426Z</time>
      </trkpt>
      <trkpt lat="46.59905" lon="5.50226">
        <ele>277</ele>
        <time>2021-05-29T09:26:05.426Z</time>
      </trkpt>
      <trkpt lat="46.59904" lon="5.50227">
        <ele>278</ele>
        <time>2021-05-29T09:26:06.426Z</time>
      </trkpt>
      <trkpt lat="46.59904" lon="5.50229">
        <ele>278</ele>
        <time>2021-05-29T09:26:07.426Z</time>
      </trkpt>
      <trkpt lat="46.59904" lon="5.5023">
        <ele>279</ele>
        <time>2021-05-29T09:26:08.426Z</time>
      </trkpt>
      <trkpt lat="46.59904" lon="5.50231">
        <ele>280</ele>
        <time>2021-05-29T09:26:09.426Z</time>
      </trkpt>
      <trkpt lat="46.59903" lon="5.50232">
        <ele>280</ele>
        <time>2021-05-29T09:26:10.425Z</time>
      </trkpt>
      <trkpt lat="46.59903" lon="5.50233">
        <ele>281</ele>
        <time>2021-05-29T09:26:11.425Z</time>
      </trkpt>
      <trkpt lat="46.59902" lon="5.50234">
        <ele>281</ele>
        <time>2021-05-29T09:26:12.426Z</time>
      </trkpt>
      <trkpt lat="46.59902" lon="5.50235">
        <ele>282</ele>
        <time>2021-05-29T09:26:13.426Z</time>
      </trkpt>
      <trkpt lat="46.59901" lon="5.50236">
        <ele>282</ele>
        <time>2021-05-29T09:26:14.426Z</time>
      </trkpt>
      <trkpt lat="46.59901" lon="5.50238">
        <ele>282</ele>
        <time>2021-05-29T09:26:15.426Z</time>
      </trkpt>
      <trkpt lat="46.599" lon="5.50239">
        <ele>282</ele>
        <time>2021-05-29T09:26:16.426Z</time>
      </trkpt>
      <trkpt lat="46.599" lon="5.5024">
        <ele>282</ele>
        <time>2021-05-29T09:26:17.426Z</time>
      </trkpt>
      <trkpt lat="46.59899" lon="5.50241">
        <ele>283</ele>
        <time>2021-05-29T09:26:18.426Z</time>
      </trkpt>
      <trkpt lat="46.59898" lon="5.50242">
        <ele>283</ele>
        <time>2021-05-29T09:26:19.425Z</time>
      </trkpt>
      <trkpt lat="46.59898" lon="5.50243">
        <ele>283</ele>
        <time>2021-05-29T09:26:20.425Z</time>
      </trkpt>
      <trkpt lat="46.59897" lon="5.50245">
        <ele>283</ele>
        <time>2021-05-29T09:26:21.426Z</time>
      </trkpt>
      <trkpt lat="46.59897" lon="5.50246">
        <ele>284</ele>
        <time>2021-05-29T09:26:22.426Z</time>
      </trkpt>
      <trkpt lat="46.59896" lon="5.50247">
        <ele>284</ele>
        <time>2021-05-29T09:26:23.426Z</time>
      </trkpt>
      <trkpt lat="46.59896" lon="5.50249">
        <ele>285</ele>
        <time>2021-05-29T09:26:24.425Z</time>
      </trkpt>
      <trkpt lat="46.59896" lon="5.5025">
        <ele>285</ele>
        <time>2021-05-29T09:26:25.426Z</time>
      </trkpt>
      <trkpt lat="46.59895" lon="5.50251">
        <ele>285</ele>
        <time>2021-05-29T09:26:26.426Z</time>
      </trkpt>
      <trkpt lat="46.59896" lon="5.50252">
        <ele>285</ele>
        <time>2021-05-29T09:26:27.426Z</time>
      </trkpt>
      <trkpt lat="46.59895" lon="5.50253">
        <ele>285</ele>
        <time>2021-05-29T09:26:28.426Z</time>
      </trkpt>
      <trkpt lat="46.59896" lon="5.50254">
        <ele>285</ele>
        <time>2021-05-29T09:26:29.426Z</time>
      </trkpt>
      <trkpt lat="46.59896" lon="5.50254">
        <ele>285</ele>
        <time>2021-05-29T09:26:30.426Z</time>
      </trkpt>
      <trkpt lat="46.59896" lon="5.50255">
        <ele>285</ele>
        <time>2021-05-29T09:26:31.426Z</time>
      </trkpt>
      <trkpt lat="46.59896" lon="5.50256">
        <ele>286</ele>
        <time>2021-05-29T09:26:32.426Z</time>
      </trkpt>
      <trkpt lat="46.59896" lon="5.50257">
        <ele>286</ele>
        <time>2021-05-29T09:26:33.426Z</time>
      </trkpt>
      <trkpt lat="46.59896" lon="5.50258">
        <ele>286</ele>
        <time>2021-05-29T09:26:34.426Z</time>
      </trkpt>
      <trkpt lat="46.59897" lon="5.50259">
        <ele>286</ele>
        <time>2021-05-29T09:26:35.426Z</time>
      </trkpt>
      <trkpt lat="46.59897" lon="5.5026">
        <ele>287</ele>
        <time>2021-05-29T09:26:36.426Z</time>
      </trkpt>
      <trkpt lat="46.59897" lon="5.50262">
        <ele>287</ele>
        <time>2021-05-29T09:26:37.426Z</time>
      </trkpt>
      <trkpt lat="46.59897" lon="5.50263">
        <ele>288</ele>
        <time>2021-05-29T09:26:38.426Z</time>
      </trkpt>
      <trkpt lat="46.59896" lon="5.50264">
        <ele>288</ele>
        <time>2021-05-29T09:26:39.426Z</time>
      </trkpt>
      <trkpt lat="46.59896" lon="5.50265">
        <ele>288</ele>
        <time>2021-05-29T09:26:40.426Z</time>
      </trkpt>
      <trkpt lat="46.59896" lon="5.50266">
        <ele>289</ele>
        <time>2021-05-29T09:26:41.425Z</time>
      </trkpt>
      <trkpt lat="46.59895" lon="5.50267">
        <ele>289</ele>
        <time>2021-05-29T09:26:42.426Z</time>
      </trkpt>
      <trkpt lat="46.59895" lon="5.50268">
        <ele>290</ele>
        <time>2021-05-29T09:26:43.426Z</time>
      </trkpt>
      <trkpt lat="46.59894" lon="5.5027">
        <ele>290</ele>
        <time>2021-05-29T09:26:44.426Z</time>
      </trkpt>
      <trkpt lat="46.59894" lon="5.50271">
        <ele>290</ele>
        <time>2021-05-29T09:26:45.425Z</time>
      </trkpt>
      <trkpt lat="46.59894" lon="5.50272">
        <ele>290</ele>
        <time>2021-05-29T09:26:46.426Z</time>
      </trkpt>
      <trkpt lat="46.59893" lon="5.50273">
        <ele>291</ele>
        <time>2021-05-29T09:26:47.426Z</time>
      </trkpt>
      <trkpt lat="46.59893" lon="5.50274">
        <ele>291</ele>
        <time>2021-05-29T09:26:48.426Z</time>
      </trkpt>
      <trkpt lat="46.59893" lon="5.50275">
        <ele>292</ele>
        <time>2021-05-29T09:26:49.426Z</time>
      </trkpt>
      <trkpt lat="46.59893" lon="5.50276">
        <ele>292</ele>
        <time>2021-05-29T09:26:50.425Z</time>
      </trkpt>
      <trkpt lat="46.59893" lon="5.50277">
        <ele>292</ele>
        <time>2021-05-29T09:26:51.425Z</time>
      </trkpt>
      <trkpt lat="46.59893" lon="5.50278">
        <ele>293</ele>
        <time>2021-05-29T09:26:52.426Z</time>
      </trkpt>
      <trkpt lat="46.59893" lon="5.5028">
        <ele>294</ele>
        <time>2021-05-29T09:26:53.426Z</time>
      </trkpt>
      <trkpt lat="46.59892" lon="5.50281">
        <ele>294</ele>
        <time>2021-05-29T09:26:54.426Z</time>
      </trkpt>
      <trkpt lat="46.59892" lon="5.50282">
        <ele>294</ele>
        <time>2021-05-29T09:26:55.426Z</time>
      </trkpt>
      <trkpt lat="46.59892" lon="5.50283">
        <ele>294</ele>
        <time>2021-05-29T09:26:56.426Z</time>
      </trkpt>
      <trkpt lat="46.59891" lon="5.50284">
        <ele>294</ele>
        <time>2021-05-29T09:26:57.425Z</time>
      </trkpt>
      <trkpt lat="46.59891" lon="5.50286">
        <ele>294</ele>
        <time>2021-05-29T09:26:58.425Z</time>
      </trkpt>
      <trkpt lat="46.5989" lon="5.50287">
        <ele>295</ele>
        <time>2021-05-29T09:26:59.425Z</time>
      </trkpt>
      <trkpt lat="46.59889" lon="5.50288">
        <ele>296</ele>
        <time>2021-05-29T09:27:00.426Z</time>
      </trkpt>
      <trkpt lat="46.59889" lon="5.50289">
        <ele>296</ele>
        <time>2021-05-29T09:27:01.425Z</time>
      </trkpt>
      <trkpt lat="46.59888" lon="5.5029">
        <ele>297</ele>
        <time>2021-05-29T09:27:02.426Z</time>
      </trkpt>
      <trkpt lat="46.59887" lon="5.50291">
        <ele>297</ele>
        <time>2021-05-29T09:27:03.426Z</time>
      </trkpt>
      <trkpt lat="46.59886" lon="5.50292">
        <ele>297</ele>
        <time>2021-05-29T09:27:04.426Z</time>
      </trkpt>
      <trkpt lat="46.59885" lon="5.50294">
        <ele>298</ele>
        <time>2021-05-29T09:27:05.425Z</time>
      </trkpt>
      <trkpt lat="46.59885" lon="5.50295">
        <ele>298</ele>
        <time>2021-05-29T09:27:06.426Z</time>
      </trkpt>
      <trkpt lat="46.59884" lon="5.50296">
        <ele>298</ele>
        <time>2021-05-29T09:27:07.426Z</time>
      </trkpt>
      <trkpt lat="46.59884" lon="5.50297">
        <ele>298</ele>
        <time>2021-05-29T09:27:08.426Z</time>
      </trkpt>
      <trkpt lat="46.59884" lon="5.50298">
        <ele>298</ele>
        <time>2021-05-29T09:27:09.426Z</time>
      </trkpt>
      <trkpt lat="46.59883" lon="5.50299">
        <ele>299</ele>
        <time>2021-05-29T09:27:10.425Z</time>
      </trkpt>
      <trkpt lat="46.59883" lon="5.503">
        <ele>299</ele>
        <time>2021-05-29T09:27:11.426Z</time>
      </trkpt>
      <trkpt lat="46.59883" lon="5.50301">
        <ele>300</ele>
        <time>2021-05-29T09:27:12.426Z</time>
      </trkpt>
      <trkpt lat="46.59883" lon="5.50302">
        <ele>301</ele>
        <time>2021-05-29T09:27:13.425Z</time>
      </trkpt>
      <trkpt lat="46.59882" lon="5.50303">
        <ele>302</ele>
        <time>2021-05-29T09:27:14.425Z</time>
      </trkpt>
      <trkpt lat="46.59882" lon="5.50304">
        <ele>302</ele>
        <time>2021-05-29T09:27:15.425Z</time>
      </trkpt>
      <trkpt lat="46.59882" lon="5.50305">
        <ele>302</ele>
        <time>2021-05-29T09:27:16.426Z</time>
      </trkpt>
      <trkpt lat="46.59882" lon="5.50306">
        <ele>303</ele>
        <time>2021-05-29T09:27:17.426Z</time>
      </trkpt>
      <trkpt lat="46.59882" lon="5.50307">
        <ele>303</ele>
        <time>2021-05-29T09:27:18.426Z</time>
      </trkpt>
      <trkpt lat="46.59882" lon="5.50308">
        <ele>302</ele>
        <time>2021-05-29T09:27:19.425Z</time>
      </trkpt>
      <trkpt lat="46.59881" lon="5.50309">
        <ele>302</ele>
        <time>2021-05-29T09:27:20.425Z</time>
      </trkpt>
      <trkpt lat="46.59881" lon="5.50311">
        <ele>302</ele>
        <time>2021-05-29T09:27:21.426Z</time>
      </trkpt>
      <trkpt lat="46.59881" lon="5.50312">
        <ele>302</ele>
        <time>2021-05-29T09:27:22.426Z</time>
      </trkpt>
      <trkpt lat="46.59881" lon="5.50313">
        <ele>302</ele>
        <time>2021-05-29T09:27:23.426Z</time>
      </trkpt>
      <trkpt lat="46.59881" lon="5.50314">
        <ele>302</ele>
        <time>2021-05-29T09:27:24.426Z</time>
      </trkpt>
      <trkpt lat="46.59881" lon="5.50315">
        <ele>302</ele>
        <time>2021-05-29T09:27:25.425Z</time>
      </trkpt>
      <trkpt lat="46.59881" lon="5.50316">
        <ele>303</ele>
        <time>2021-05-29T09:27:26.426Z</time>
      </trkpt>
      <trkpt lat="46.59881" lon="5.50317">
        <ele>303</ele>
        <time>2021-05-29T09:27:27.426Z</time>
      </trkpt>
      <trkpt lat="46.5988" lon="5.50318">
        <ele>303</ele>
        <time>2021-05-29T09:27:28.426Z</time>
      </trkpt>
      <trkpt lat="46.5988" lon="5.50319">
        <ele>304</ele>
        <time>2021-05-29T09:27:29.426Z</time>
      </trkpt>
      <trkpt lat="46.5988" lon="5.5032">
        <ele>304</ele>
        <time>2021-05-29T09:27:30.426Z</time>
      </trkpt>
      <trkpt lat="46.5988" lon="5.50321">
        <ele>305</ele>
        <time>2021-05-29T09:27:31.425Z</time>
      </trkpt>
      <trkpt lat="46.5988" lon="5.50322">
        <ele>305</ele>
        <time>2021-05-29T09:27:32.426Z</time>
      </trkpt>
      <trkpt lat="46.5988" lon="5.50323">
        <ele>306</ele>
        <time>2021-05-29T09:27:33.426Z</time>
      </trkpt>
      <trkpt lat="46.59879" lon="5.50324">
        <ele>306</ele>
        <time>2021-05-29T09:27:34.426Z</time>
      </trkpt>
      <trkpt lat="46.59879" lon="5.50325">
        <ele>307</ele>
        <time>2021-05-29T09:27:35.426Z</time>
      </trkpt>
      <trkpt lat="46.59879" lon="5.50327">
        <ele>308</ele>
        <time>2021-05-29T09:27:36.425Z</time>
      </trkpt>
      <trkpt lat="46.59879" lon="5.50328">
        <ele>309</ele>
        <time>2021-05-29T09:27:37.426Z</time>
      </trkpt>
      <trkpt lat="46.59878" lon="5.50329">
        <ele>310</ele>
        <time>2021-05-29T09:27:38.426Z</time>
      </trkpt>
      <trkpt lat="46.59878" lon="5.5033">
        <ele>311</ele>
        <time>2021-05-29T09:27:39.426Z</time>
      </trkpt>
      <trkpt lat="46.59877" lon="5.50331">
        <ele>312</ele>
        <time>2021-05-29T09:27:40.425Z</time>
      </trkpt>
      <trkpt lat="46.59877" lon="5.50332">
        <ele>312</ele>
        <time>2021-05-29T09:27:41.426Z</time>
      </trkpt>
      <trkpt lat="46.59877" lon="5.50333">
        <ele>312</ele>
        <time>2021-05-29T09:27:42.426Z</time>
      </trkpt>
      <trkpt lat="46.59877" lon="5.50334">
        <ele>312</ele>
        <time>2021-05-29T09:27:43.425Z</time>
      </trkpt>
      <trkpt lat="46.59876" lon="5.50335">
        <ele>312</ele>
        <time>2021-05-29T09:27:44.426Z</time>
      </trkpt>
      <trkpt lat="46.59875" lon="5.50336">
        <ele>312</ele>
        <time>2021-05-29T09:27:45.425Z</time>
      </trkpt>
      <trkpt lat="46.59875" lon="5.50337">
        <ele>312</ele>
        <time>2021-05-29T09:27:46.425Z</time>
      </trkpt>
      <trkpt lat="46.59874" lon="5.50338">
        <ele>313</ele>
        <time>2021-05-29T09:27:47.426Z</time>
      </trkpt>
      <trkpt lat="46.59873" lon="5.50339">
        <ele>313</ele>
        <time>2021-05-29T09:27:48.426Z</time>
      </trkpt>
      <trkpt lat="46.59872" lon="5.5034">
        <ele>313</ele>
        <time>2021-05-29T09:27:49.426Z</time>
      </trkpt>
      <trkpt lat="46.59871" lon="5.50342">
        <ele>313</ele>
        <time>2021-05-29T09:27:50.426Z</time>
      </trkpt>
      <trkpt lat="46.5987" lon="5.50343">
        <ele>314</ele>
        <time>2021-05-29T09:27:51.425Z</time>
      </trkpt>
      <trkpt lat="46.5987" lon="5.50345">
        <ele>314</ele>
        <time>2021-05-29T09:27:52.425Z</time>
      </trkpt>
      <trkpt lat="46.59869" lon="5.50346">
        <ele>315</ele>
        <time>2021-05-29T09:27:53.426Z</time>
      </trkpt>
      <trkpt lat="46.59869" lon="5.50348">
        <ele>315</ele>
        <time>2021-05-29T09:27:54.426Z</time>
      </trkpt>
      <trkpt lat="46.59868" lon="5.50349">
        <ele>316</ele>
        <time>2021-05-29T09:27:55.425Z</time>
      </trkpt>
      <trkpt lat="46.59868" lon="5.50351">
        <ele>317</ele>
        <time>2021-05-29T09:27:56.426Z</time>
      </trkpt>
      <trkpt lat="46.59867" lon="5.50352">
        <ele>317</ele>
        <time>2021-05-29T09:27:57.426Z</time>
      </trkpt>
      <trkpt lat="46.59866" lon="5.50354">
        <ele>317</ele>
        <time>2021-05-29T09:27:58.426Z</time>
      </trkpt>
      <trkpt lat="46.59866" lon="5.50355">
        <ele>318</ele>
        <time>2021-05-29T09:27:59.426Z</time>
      </trkpt>
      <trkpt lat="46.59865" lon="5.50357">
        <ele>318</ele>
        <time>2021-05-29T09:28:00.425Z</time>
      </trkpt>
      <trkpt lat="46.59864" lon="5.50358">
        <ele>318</ele>
        <time>2021-05-29T09:28:01.426Z</time>
      </trkpt>
      <trkpt lat="46.59863" lon="5.5036">
        <ele>319</ele>
        <time>2021-05-29T09:28:02.426Z</time>
      </trkpt>
      <trkpt lat="46.59861" lon="5.50361">
        <ele>319</ele>
        <time>2021-05-29T09:28:03.426Z</time>
      </trkpt>
      <trkpt lat="46.5986" lon="5.50363">
        <ele>320</ele>
        <time>2021-05-29T09:28:04.426Z</time>
      </trkpt>
      <trkpt lat="46.59859" lon="5.50364">
        <ele>320</ele>
        <time>2021-05-29T09:28:05.425Z</time>
      </trkpt>
      <trkpt lat="46.59858" lon="5.50366">
        <ele>320</ele>
        <time>2021-05-29T09:28:06.426Z</time>
      </trkpt>
      <trkpt lat="46.59857" lon="5.50368">
        <ele>320</ele>
        <time>2021-05-29T09:28:07.426Z</time>
      </trkpt>
      <trkpt lat="46.59856" lon="5.50369">
        <ele>319</ele>
        <time>2021-05-29T09:28:08.426Z</time>
      </trkpt>
      <trkpt lat="46.59856" lon="5.50371">
        <ele>319</ele>
        <time>2021-05-29T09:28:09.426Z</time>
      </trkpt>
      <trkpt lat="46.59855" lon="5.50373">
        <ele>319</ele>
        <time>2021-05-29T09:28:10.426Z</time>
      </trkpt>
      <trkpt lat="46.59853" lon="5.50374">
        <ele>319</ele>
        <time>2021-05-29T09:28:11.426Z</time>
      </trkpt>
      <trkpt lat="46.59852" lon="5.50376">
        <ele>319</ele>
        <time>2021-05-29T09:28:12.426Z</time>
      </trkpt>
      <trkpt lat="46.59851" lon="5.50378">
        <ele>319</ele>
        <time>2021-05-29T09:28:13.426Z</time>
      </trkpt>
      <trkpt lat="46.59851" lon="5.50379">
        <ele>319</ele>
        <time>2021-05-29T09:28:14.425Z</time>
      </trkpt>
      <trkpt lat="46.5985" lon="5.50381">
        <ele>319</ele>
        <time>2021-05-29T09:28:15.426Z</time>
      </trkpt>
      <trkpt lat="46.59849" lon="5.50383">
        <ele>319</ele>
        <time>2021-05-29T09:28:16.425Z</time>
      </trkpt>
      <trkpt lat="46.59848" lon="5.50385">
        <ele>319</ele>
        <time>2021-05-29T09:28:17.425Z</time>
      </trkpt>
      <trkpt lat="46.59848" lon="5.50386">
        <ele>319</ele>
        <time>2021-05-29T09:28:18.426Z</time>
      </trkpt>
      <trkpt lat="46.59847" lon="5.50388">
        <ele>319</ele>
        <time>2021-05-29T09:28:19.425Z</time>
      </trkpt>
      <trkpt lat="46.59845" lon="5.5039">
        <ele>319</ele>
        <time>2021-05-29T09:28:20.426Z</time>
      </trkpt>
      <trkpt lat="46.59844" lon="5.50392">
        <ele>319</ele>
        <time>2021-05-29T09:28:21.426Z</time>
      </trkpt>
      <trkpt lat="46.59843" lon="5.50393">
        <ele>320</ele>
        <time>2021-05-29T09:28:22.426Z</time>
      </trkpt>
      <trkpt lat="46.59843" lon="5.50395">
        <ele>320</ele>
        <time>2021-05-29T09:28:23.426Z</time>
      </trkpt>
      <trkpt lat="46.59842" lon="5.50398">
        <ele>321</ele>
        <time>2021-05-29T09:28:24.425Z</time>
      </trkpt>
      <trkpt lat="46.59842" lon="5.50399">
        <ele>321</ele>
        <time>2021-05-29T09:28:25.425Z</time>
      </trkpt>
      <trkpt lat="46.59841" lon="5.50402">
        <ele>321</ele>
        <time>2021-05-29T09:28:26.425Z</time>
      </trkpt>
      <trkpt lat="46.59841" lon="5.50403">
        <ele>322</ele>
        <time>2021-05-29T09:28:27.426Z</time>
      </trkpt>
      <trkpt lat="46.59841" lon="5.50406">
        <ele>322</ele>
        <time>2021-05-29T09:28:28.426Z</time>
      </trkpt>
      <trkpt lat="46.59841" lon="5.50408">
        <ele>321</ele>
        <time>2021-05-29T09:28:29.426Z</time>
      </trkpt>
      <trkpt lat="46.59841" lon="5.50411">
        <ele>321</ele>
        <time>2021-05-29T09:28:30.425Z</time>
      </trkpt>
      <trkpt lat="46.59841" lon="5.50413">
        <ele>321</ele>
        <time>2021-05-29T09:28:31.425Z</time>
      </trkpt>
      <trkpt lat="46.59841" lon="5.50415">
        <ele>322</ele>
        <time>2021-05-29T09:28:32.426Z</time>
      </trkpt>
      <trkpt lat="46.59841" lon="5.50417">
        <ele>322</ele>
        <time>2021-05-29T09:28:33.426Z</time>
      </trkpt>
      <trkpt lat="46.5984" lon="5.50418">
        <ele>322</ele>
        <time>2021-05-29T09:28:34.426Z</time>
      </trkpt>
      <trkpt lat="46.5984" lon="5.5042">
        <ele>322</ele>
        <time>2021-05-29T09:28:35.425Z</time>
      </trkpt>
      <trkpt lat="46.59839" lon="5.50422">
        <ele>322</ele>
        <time>2021-05-29T09:28:36.425Z</time>
      </trkpt>
      <trkpt lat="46.59839" lon="5.50424">
        <ele>322</ele>
        <time>2021-05-29T09:28:37.425Z</time>
      </trkpt>
      <trkpt lat="46.59839" lon="5.50425">
        <ele>323</ele>
        <time>2021-05-29T09:28:38.426Z</time>
      </trkpt>
      <trkpt lat="46.59839" lon="5.50427">
        <ele>323</ele>
        <time>2021-05-29T09:28:39.426Z</time>
      </trkpt>
      <trkpt lat="46.59839" lon="5.50429">
        <ele>323</ele>
        <time>2021-05-29T09:28:40.425Z</time>
      </trkpt>
      <trkpt lat="46.59839" lon="5.50431">
        <ele>323</ele>
        <time>2021-05-29T09:28:41.426Z</time>
      </trkpt>
      <trkpt lat="46.59839" lon="5.50433">
        <ele>324</ele>
        <time>2021-05-29T09:28:42.426Z</time>
      </trkpt>
      <trkpt lat="46.59839" lon="5.50435">
        <ele>324</ele>
        <time>2021-05-29T09:28:43.426Z</time>
      </trkpt>
      <trkpt lat="46.59839" lon="5.50437">
        <ele>324</ele>
        <time>2021-05-29T09:28:44.426Z</time>
      </trkpt>
      <trkpt lat="46.59839" lon="5.5044">
        <ele>324</ele>
        <time>2021-05-29T09:28:45.425Z</time>
      </trkpt>
      <trkpt lat="46.59839" lon="5.50442">
        <ele>324</ele>
        <time>2021-05-29T09:28:46.426Z</time>
      </trkpt>
      <trkpt lat="46.59839" lon="5.50444">
        <ele>324</ele>
        <time>2021-05-29T09:28:47.426Z</time>
      </trkpt>
      <trkpt lat="46.5984" lon="5.50446">
        <ele>324</ele>
        <time>2021-05-29T09:28:48.425Z</time>
      </trkpt>
      <trkpt lat="46.5984" lon="5.50448">
        <ele>324</ele>
        <time>2021-05-29T09:28:49.425Z</time>
      </trkpt>
      <trkpt lat="46.5984" lon="5.5045">
        <ele>324</ele>
        <time>2021-05-29T09:28:50.425Z</time>
      </trkpt>
      <trkpt lat="46.5984" lon="5.50452">
        <ele>325</ele>
        <time>2021-05-29T09:28:51.426Z</time>
      </trkpt>
      <trkpt lat="46.59841" lon="5.50454">
        <ele>325</ele>
        <time>2021-05-29T09:28:52.426Z</time>
      </trkpt>
      <trkpt lat="46.59841" lon="5.50456">
        <ele>325</ele>
        <time>2021-05-29T09:28:53.426Z</time>
      </trkpt>
      <trkpt lat="46.59841" lon="5.50458">
        <ele>325</ele>
        <time>2021-05-29T09:28:54.425Z</time>
      </trkpt>
      <trkpt lat="46.59842" lon="5.50461">
        <ele>326</ele>
        <time>2021-05-29T09:28:55.426Z</time>
      </trkpt>
      <trkpt lat="46.59842" lon="5.50463">
        <ele>326</ele>
        <time>2021-05-29T09:28:56.426Z</time>
      </trkpt>
      <trkpt lat="46.59842" lon="5.50465">
        <ele>327</ele>
        <time>2021-05-29T09:28:57.426Z</time>
      </trkpt>
      <trkpt lat="46.59842" lon="5.50467">
        <ele>327</ele>
        <time>2021-05-29T09:28:58.425Z</time>
      </trkpt>
      <trkpt lat="46.59843" lon="5.50468">
        <ele>328</ele>
        <time>2021-05-29T09:28:59.426Z</time>
      </trkpt>
      <trkpt lat="46.59843" lon="5.5047">
        <ele>328</ele>
        <time>2021-05-29T09:29:00.425Z</time>
      </trkpt>
      <trkpt lat="46.59844" lon="5.50473">
        <ele>328</ele>
        <time>2021-05-29T09:29:01.425Z</time>
      </trkpt>
      <trkpt lat="46.59844" lon="5.50475">
        <ele>329</ele>
        <time>2021-05-29T09:29:02.426Z</time>
      </trkpt>
      <trkpt lat="46.59844" lon="5.50477">
        <ele>329</ele>
        <time>2021-05-29T09:29:03.426Z</time>
      </trkpt>
      <trkpt lat="46.59844" lon="5.50479">
        <ele>329</ele>
        <time>2021-05-29T09:29:04.426Z</time>
      </trkpt>
      <trkpt lat="46.59845" lon="5.50482">
        <ele>329</ele>
        <time>2021-05-29T09:29:05.425Z</time>
      </trkpt>
      <trkpt lat="46.59845" lon="5.50484">
        <ele>329</ele>
        <time>2021-05-29T09:29:06.425Z</time>
      </trkpt>
      <trkpt lat="46.59845" lon="5.50486">
        <ele>329</ele>
        <time>2021-05-29T09:29:07.425Z</time>
      </trkpt>
      <trkpt lat="46.59846" lon="5.50489">
        <ele>329</ele>
        <time>2021-05-29T09:29:08.426Z</time>
      </trkpt>
      <trkpt lat="46.59846" lon="5.50491">
        <ele>328</ele>
        <time>2021-05-29T09:29:09.426Z</time>
      </trkpt>
      <trkpt lat="46.59847" lon="5.50494">
        <ele>328</ele>
        <time>2021-05-29T09:29:10.425Z</time>
      </trkpt>
      <trkpt lat="46.59847" lon="5.50496">
        <ele>328</ele>
        <time>2021-05-29T09:29:11.425Z</time>
      </trkpt>
      <trkpt lat="46.59847" lon="5.50497">
        <ele>328</ele>
        <time>2021-05-29T09:29:12.426Z</time>
      </trkpt>
      <trkpt lat="46.59847" lon="5.50499">
        <ele>328</ele>
        <time>2021-05-29T09:29:13.426Z</time>
      </trkpt>
      <trkpt lat="46.59847" lon="5.505">
        <ele>328</ele>
        <time>2021-05-29T09:29:14.426Z</time>
      </trkpt>
      <trkpt lat="46.59847" lon="5.50502">
        <ele>329</ele>
        <time>2021-05-29T09:29:15.425Z</time>
      </trkpt>
      <trkpt lat="46.59848" lon="5.50504">
        <ele>329</ele>
        <time>2021-05-29T09:29:16.426Z</time>
      </trkpt>
      <trkpt lat="46.59848" lon="5.50506">
        <ele>330</ele>
        <time>2021-05-29T09:29:17.425Z</time>
      </trkpt>
      <trkpt lat="46.59847" lon="5.50508">
        <ele>330</ele>
        <time>2021-05-29T09:29:18.425Z</time>
      </trkpt>
      <trkpt lat="46.59846" lon="5.5051">
        <ele>331</ele>
        <time>2021-05-29T09:29:19.426Z</time>
      </trkpt>
      <trkpt lat="46.59846" lon="5.50513">
        <ele>332</ele>
        <time>2021-05-29T09:29:20.426Z</time>
      </trkpt>
      <trkpt lat="46.59845" lon="5.50515">
        <ele>332</ele>
        <time>2021-05-29T09:29:21.426Z</time>
      </trkpt>
      <trkpt lat="46.59845" lon="5.50517">
        <ele>333</ele>
        <time>2021-05-29T09:29:22.426Z</time>
      </trkpt>
      <trkpt lat="46.59846" lon="5.50519">
        <ele>333</ele>
        <time>2021-05-29T09:29:23.425Z</time>
      </trkpt>
      <trkpt lat="46.59846" lon="5.50522">
        <ele>333</ele>
        <time>2021-05-29T09:29:24.425Z</time>
      </trkpt>
      <trkpt lat="46.59846" lon="5.50523">
        <ele>333</ele>
        <time>2021-05-29T09:29:25.425Z</time>
      </trkpt>
      <trkpt lat="46.59845" lon="5.50525">
        <ele>333</ele>
        <time>2021-05-29T09:29:26.426Z</time>
      </trkpt>
      <trkpt lat="46.59844" lon="5.50527">
        <ele>333</ele>
        <time>2021-05-29T09:29:27.426Z</time>
      </trkpt>
      <trkpt lat="46.59844" lon="5.50529">
        <ele>334</ele>
        <time>2021-05-29T09:29:28.426Z</time>
      </trkpt>
      <trkpt lat="46.59844" lon="5.50532">
        <ele>334</ele>
        <time>2021-05-29T09:29:29.425Z</time>
      </trkpt>
      <trkpt lat="46.59844" lon="5.50535">
        <ele>334</ele>
        <time>2021-05-29T09:29:30.426Z</time>
      </trkpt>
      <trkpt lat="46.59845" lon="5.50538">
        <ele>334</ele>
        <time>2021-05-29T09:29:31.425Z</time>
      </trkpt>
      <trkpt lat="46.59845" lon="5.5054">
        <ele>334</ele>
        <time>2021-05-29T09:29:32.425Z</time>
      </trkpt>
      <trkpt lat="46.59845" lon="5.50543">
        <ele>334</ele>
        <time>2021-05-29T09:29:33.425Z</time>
      </trkpt>
      <trkpt lat="46.59845" lon="5.50545">
        <ele>334</ele>
        <time>2021-05-29T09:29:34.426Z</time>
      </trkpt>
      <trkpt lat="46.59846" lon="5.50548">
        <ele>334</ele>
        <time>2021-05-29T09:29:35.425Z</time>
      </trkpt>
      <trkpt lat="46.59846" lon="5.50549">
        <ele>334</ele>
        <time>2021-05-29T09:29:36.425Z</time>
      </trkpt>
      <trkpt lat="46.59845" lon="5.50551">
        <ele>334</ele>
        <time>2021-05-29T09:29:37.425Z</time>
      </trkpt>
      <trkpt lat="46.59845" lon="5.50553">
        <ele>334</ele>
        <time>2021-05-29T09:29:38.425Z</time>
      </trkpt>
      <trkpt lat="46.59846" lon="5.50555">
        <ele>335</ele>
        <time>2021-05-29T09:29:39.425Z</time>
      </trkpt>
      <trkpt lat="46.59846" lon="5.50558">
        <ele>335</ele>
        <time>2021-05-29T09:29:40.426Z</time>
      </trkpt>
      <trkpt lat="46.59846" lon="5.5056">
        <ele>335</ele>
        <time>2021-05-29T09:29:41.426Z</time>
      </trkpt>
      <trkpt lat="46.59846" lon="5.50563">
        <ele>335</ele>
        <time>2021-05-29T09:29:42.426Z</time>
      </trkpt>
      <trkpt lat="46.59847" lon="5.50565">
        <ele>336</ele>
        <time>2021-05-29T09:29:43.426Z</time>
      </trkpt>
      <trkpt lat="46.59847" lon="5.50568">
        <ele>336</ele>
        <time>2021-05-29T09:29:44.426Z</time>
      </trkpt>
      <trkpt lat="46.59847" lon="5.5057">
        <ele>336</ele>
        <time>2021-05-29T09:29:45.426Z</time>
      </trkpt>
      <trkpt lat="46.59848" lon="5.50571">
        <ele>337</ele>
        <time>2021-05-29T09:29:46.426Z</time>
      </trkpt>
      <trkpt lat="46.59848" lon="5.50572">
        <ele>337</ele>
        <time>2021-05-29T09:29:47.426Z</time>
      </trkpt>
      <trkpt lat="46.59848" lon="5.50573">
        <ele>337</ele>
        <time>2021-05-29T09:29:48.426Z</time>
      </trkpt>
      <trkpt lat="46.59848" lon="5.50573">
        <ele>337</ele>
        <time>2021-05-29T09:29:49.426Z</time>
      </trkpt>
      <trkpt lat="46.59848" lon="5.50572">
        <ele>337</ele>
        <time>2021-05-29T09:29:50.426Z</time>
      </trkpt>
      <trkpt lat="46.59849" lon="5.50571">
        <ele>337</ele>
        <time>2021-05-29T09:29:51.426Z</time>
      </trkpt>
      <trkpt lat="46.59849" lon="5.50569">
        <ele>336</ele>
        <time>2021-05-29T09:29:52.426Z</time>
      </trkpt>
      <trkpt lat="46.59849" lon="5.50568">
        <ele>336</ele>
        <time>2021-05-29T09:29:53.426Z</time>
      </trkpt>
      <trkpt lat="46.59849" lon="5.50567">
        <ele>336</ele>
        <time>2021-05-29T09:29:54.426Z</time>
      </trkpt>
      <trkpt lat="46.59849" lon="5.50565">
        <ele>335</ele>
        <time>2021-05-29T09:29:55.425Z</time>
      </trkpt>
      <trkpt lat="46.59849" lon="5.50565">
        <ele>335</ele>
        <time>2021-05-29T09:29:56.426Z</time>
      </trkpt>
      <trkpt lat="46.5985" lon="5.50564">
        <ele>335</ele>
        <time>2021-05-29T09:29:57.426Z</time>
      </trkpt>
      <trkpt lat="46.5985" lon="5.50562">
        <ele>335</ele>
        <time>2021-05-29T09:29:58.426Z</time>
      </trkpt>
      <trkpt lat="46.5985" lon="5.50561">
        <ele>335</ele>
        <time>2021-05-29T09:29:59.426Z</time>
      </trkpt>
      <trkpt lat="46.5985" lon="5.50559">
        <ele>334</ele>
        <time>2021-05-29T09:30:00.426Z</time>
      </trkpt>
      <trkpt lat="46.5985" lon="5.50557">
        <ele>334</ele>
        <time>2021-05-29T09:30:01.426Z</time>
      </trkpt>
      <trkpt lat="46.59851" lon="5.50556">
        <ele>334</ele>
        <time>2021-05-29T09:30:02.426Z</time>
      </trkpt>
      <trkpt lat="46.59851" lon="5.50554">
        <ele>334</ele>
        <time>2021-05-29T09:30:03.426Z</time>
      </trkpt>
      <trkpt lat="46.59851" lon="5.50552">
        <ele>334</ele>
        <time>2021-05-29T09:30:04.426Z</time>
      </trkpt>
      <trkpt lat="46.59852" lon="5.50551">
        <ele>334</ele>
        <time>2021-05-29T09:30:05.426Z</time>
      </trkpt>
      <trkpt lat="46.59852" lon="5.50549">
        <ele>334</ele>
        <time>2021-05-29T09:30:06.426Z</time>
      </trkpt>
      <trkpt lat="46.59853" lon="5.50548">
        <ele>334</ele>
        <time>2021-05-29T09:30:07.426Z</time>
      </trkpt>
      <trkpt lat="46.59854" lon="5.50546">
        <ele>334</ele>
        <time>2021-05-29T09:30:08.426Z</time>
      </trkpt>
      <trkpt lat="46.59854" lon="5.50544">
        <ele>334</ele>
        <time>2021-05-29T09:30:09.426Z</time>
      </trkpt>
      <trkpt lat="46.59855" lon="5.50543">
        <ele>335</ele>
        <time>2021-05-29T09:30:10.426Z</time>
      </trkpt>
      <trkpt lat="46.59855" lon="5.50541">
        <ele>335</ele>
        <time>2021-05-29T09:30:11.426Z</time>
      </trkpt>
      <trkpt lat="46.59856" lon="5.50539">
        <ele>335</ele>
        <time>2021-05-29T09:30:12.426Z</time>
      </trkpt>
      <trkpt lat="46.59856" lon="5.50538">
        <ele>335</ele>
        <time>2021-05-29T09:30:13.426Z</time>
      </trkpt>
      <trkpt lat="46.59857" lon="5.50537">
        <ele>336</ele>
        <time>2021-05-29T09:30:14.426Z</time>
      </trkpt>
      <trkpt lat="46.59858" lon="5.50535">
        <ele>336</ele>
        <time>2021-05-29T09:30:15.426Z</time>
      </trkpt>
      <trkpt lat="46.59859" lon="5.50534">
        <ele>337</ele>
        <time>2021-05-29T09:30:16.426Z</time>
      </trkpt>
      <trkpt lat="46.5986" lon="5.50532">
        <ele>337</ele>
        <time>2021-05-29T09:30:17.426Z</time>
      </trkpt>
      <trkpt lat="46.5986" lon="5.5053">
        <ele>338</ele>
        <time>2021-05-29T09:30:18.426Z</time>
      </trkpt>
      <trkpt lat="46.59861" lon="5.50527">
        <ele>338</ele>
        <time>2021-05-29T09:30:19.426Z</time>
      </trkpt>
      <trkpt lat="46.59861" lon="5.50525">
        <ele>338</ele>
        <time>2021-05-29T09:30:20.426Z</time>
      </trkpt>
      <trkpt lat="46.59862" lon="5.50523">
        <ele>338</ele>
        <time>2021-05-29T09:30:21.426Z</time>
      </trkpt>
      <trkpt lat="46.59862" lon="5.50521">
        <ele>338</ele>
        <time>2021-05-29T09:30:22.426Z</time>
      </trkpt>
      <trkpt lat="46.59863" lon="5.50519">
        <ele>338</ele>
        <time>2021-05-29T09:30:23.426Z</time>
      </trkpt>
      <trkpt lat="46.59863" lon="5.50517">
        <ele>339</ele>
        <time>2021-05-29T09:30:24.426Z</time>
      </trkpt>
      <trkpt lat="46.59864" lon="5.50515">
        <ele>339</ele>
        <time>2021-05-29T09:30:25.426Z</time>
      </trkpt>
      <trkpt lat="46.59864" lon="5.50513">
        <ele>339</ele>
        <time>2021-05-29T09:30:26.426Z</time>
      </trkpt>
      <trkpt lat="46.59865" lon="5.5051">
        <ele>339</ele>
        <time>2021-05-29T09:30:27.426Z</time>
      </trkpt>
      <trkpt lat="46.59866" lon="5.50508">
        <ele>339</ele>
        <time>2021-05-29T09:30:28.426Z</time>
      </trkpt>
      <trkpt lat="46.59866" lon="5.50506">
        <ele>339</ele>
        <time>2021-05-29T09:30:29.426Z</time>
      </trkpt>
      <trkpt lat="46.59867" lon="5.50503">
        <ele>339</ele>
        <time>2021-05-29T09:30:30.426Z</time>
      </trkpt>
      <trkpt lat="46.59867" lon="5.50501">
        <ele>339</ele>
        <time>2021-05-29T09:30:31.426Z</time>
      </trkpt>
      <trkpt lat="46.59868" lon="5.50498">
        <ele>339</ele>
        <time>2021-05-29T09:30:32.426Z</time>
      </trkpt>
      <trkpt lat="46.59868" lon="5.50496">
        <ele>339</ele>
        <time>2021-05-29T09:30:33.426Z</time>
      </trkpt>
      <trkpt lat="46.59869" lon="5.50493">
        <ele>340</ele>
        <time>2021-05-29T09:30:34.426Z</time>
      </trkpt>
      <trkpt lat="46.5987" lon="5.50491">
        <ele>340</ele>
        <time>2021-05-29T09:30:35.426Z</time>
      </trkpt>
      <trkpt lat="46.5987" lon="5.50489">
        <ele>341</ele>
        <time>2021-05-29T09:30:36.426Z</time>
      </trkpt>
      <trkpt lat="46.59871" lon="5.50487">
        <ele>341</ele>
        <time>2021-05-29T09:30:37.426Z</time>
      </trkpt>
      <trkpt lat="46.59871" lon="5.50484">
        <ele>341</ele>
        <time>2021-05-29T09:30:38.426Z</time>
      </trkpt>
      <trkpt lat="46.59872" lon="5.50482">
        <ele>342</ele>
        <time>2021-05-29T09:30:39.426Z</time>
      </trkpt>
      <trkpt lat="46.59873" lon="5.5048">
        <ele>342</ele>
        <time>2021-05-29T09:30:40.426Z</time>
      </trkpt>
      <trkpt lat="46.59873" lon="5.50477">
        <ele>342</ele>
        <time>2021-05-29T09:30:41.426Z</time>
      </trkpt>
      <trkpt lat="46.59874" lon="5.50475">
        <ele>342</ele>
        <time>2021-05-29T09:30:42.425Z</time>
      </trkpt>
      <trkpt lat="46.59875" lon="5.50472">
        <ele>342</ele>
        <time>2021-05-29T09:30:43.426Z</time>
      </trkpt>
      <trkpt lat="46.59875" lon="5.5047">
        <ele>342</ele>
        <time>2021-05-29T09:30:44.426Z</time>
      </trkpt>
      <trkpt lat="46.59876" lon="5.50468">
        <ele>342</ele>
        <time>2021-05-29T09:30:45.426Z</time>
      </trkpt>
      <trkpt lat="46.59877" lon="5.50466">
        <ele>343</ele>
        <time>2021-05-29T09:30:46.425Z</time>
      </trkpt>
      <trkpt lat="46.59878" lon="5.50464">
        <ele>343</ele>
        <time>2021-05-29T09:30:47.425Z</time>
      </trkpt>
      <trkpt lat="46.59879" lon="5.50462">
        <ele>344</ele>
        <time>2021-05-29T09:30:48.425Z</time>
      </trkpt>
      <trkpt lat="46.5988" lon="5.5046">
        <ele>344</ele>
        <time>2021-05-29T09:30:49.426Z</time>
      </trkpt>
      <trkpt lat="46.59881" lon="5.50458">
        <ele>344</ele>
        <time>2021-05-29T09:30:50.426Z</time>
      </trkpt>
      <trkpt lat="46.59883" lon="5.50457">
        <ele>344</ele>
        <time>2021-05-29T09:30:51.426Z</time>
      </trkpt>
      <trkpt lat="46.59884" lon="5.50455">
        <ele>344</ele>
        <time>2021-05-29T09:30:52.426Z</time>
      </trkpt>
      <trkpt lat="46.59885" lon="5.50454">
        <ele>344</ele>
        <time>2021-05-29T09:30:53.426Z</time>
      </trkpt>
      <trkpt lat="46.59887" lon="5.50452">
        <ele>344</ele>
        <time>2021-05-29T09:30:54.426Z</time>
      </trkpt>
      <trkpt lat="46.59888" lon="5.50451">
        <ele>344</ele>
        <time>2021-05-29T09:30:55.426Z</time>
      </trkpt>
      <trkpt lat="46.59889" lon="5.50449">
        <ele>344</ele>
        <time>2021-05-29T09:30:56.426Z</time>
      </trkpt>
      <trkpt lat="46.5989" lon="5.50448">
        <ele>345</ele>
        <time>2021-05-29T09:30:57.425Z</time>
      </trkpt>
      <trkpt lat="46.59891" lon="5.50446">
        <ele>345</ele>
        <time>2021-05-29T09:30:58.426Z</time>
      </trkpt>
      <trkpt lat="46.59892" lon="5.50445">
        <ele>346</ele>
        <time>2021-05-29T09:30:59.426Z</time>
      </trkpt>
      <trkpt lat="46.59893" lon="5.50443">
        <ele>346</ele>
        <time>2021-05-29T09:31:00.426Z</time>
      </trkpt>
      <trkpt lat="46.59894" lon="5.50442">
        <ele>346</ele>
        <time>2021-05-29T09:31:01.425Z</time>
      </trkpt>
      <trkpt lat="46.59895" lon="5.50441">
        <ele>346</ele>
        <time>2021-05-29T09:31:02.426Z</time>
      </trkpt>
      <trkpt lat="46.59897" lon="5.50439">
        <ele>346</ele>
        <time>2021-05-29T09:31:03.426Z</time>
      </trkpt>
      <trkpt lat="46.59898" lon="5.50439">
        <ele>346</ele>
        <time>2021-05-29T09:31:04.426Z</time>
      </trkpt>
      <trkpt lat="46.59899" lon="5.50438">
        <ele>346</ele>
        <time>2021-05-29T09:31:05.426Z</time>
      </trkpt>
      <trkpt lat="46.59901" lon="5.50437">
        <ele>345</ele>
        <time>2021-05-29T09:31:06.426Z</time>
      </trkpt>
      <trkpt lat="46.59903" lon="5.50436">
        <ele>345</ele>
        <time>2021-05-29T09:31:07.426Z</time>
      </trkpt>
      <trkpt lat="46.59904" lon="5.50436">
        <ele>345</ele>
        <time>2021-05-29T09:31:08.426Z</time>
      </trkpt>
      <trkpt lat="46.59906" lon="5.50435">
        <ele>346</ele>
        <time>2021-05-29T09:31:09.425Z</time>
      </trkpt>
      <trkpt lat="46.59908" lon="5.50435">
        <ele>346</ele>
        <time>2021-05-29T09:31:10.426Z</time>
      </trkpt>
      <trkpt lat="46.59909" lon="5.50435">
        <ele>346</ele>
        <time>2021-05-29T09:31:11.426Z</time>
      </trkpt>
      <trkpt lat="46.5991" lon="5.50435">
        <ele>346</ele>
        <time>2021-05-29T09:31:12.425Z</time>
      </trkpt>
      <trkpt lat="46.59912" lon="5.50435">
        <ele>346</ele>
        <time>2021-05-29T09:31:13.426Z</time>
      </trkpt>
      <trkpt lat="46.59913" lon="5.50435">
        <ele>347</ele>
        <time>2021-05-29T09:31:14.426Z</time>
      </trkpt>
      <trkpt lat="46.59915" lon="5.50435">
        <ele>347</ele>
        <time>2021-05-29T09:31:15.426Z</time>
      </trkpt>
      <trkpt lat="46.59917" lon="5.50435">
        <ele>348</ele>
        <time>2021-05-29T09:31:16.426Z</time>
      </trkpt>
      <trkpt lat="46.59918" lon="5.50435">
        <ele>348</ele>
        <time>2021-05-29T09:31:17.426Z</time>
      </trkpt>
      <trkpt lat="46.5992" lon="5.50435">
        <ele>349</ele>
        <time>2021-05-29T09:31:18.426Z</time>
      </trkpt>
      <trkpt lat="46.59921" lon="5.50435">
        <ele>350</ele>
        <time>2021-05-29T09:31:19.426Z</time>
      </trkpt>
      <trkpt lat="46.59923" lon="5.50436">
        <ele>351</ele>
        <time>2021-05-29T09:31:20.426Z</time>
      </trkpt>
      <trkpt lat="46.59924" lon="5.50436">
        <ele>351</ele>
        <time>2021-05-29T09:31:21.426Z</time>
      </trkpt>
      <trkpt lat="46.59925" lon="5.50437">
        <ele>352</ele>
        <time>2021-05-29T09:31:22.426Z</time>
      </trkpt>
      <trkpt lat="46.59926" lon="5.50438">
        <ele>352</ele>
        <time>2021-05-29T09:31:23.426Z</time>
      </trkpt>
      <trkpt lat="46.59928" lon="5.50438">
        <ele>352</ele>
        <time>2021-05-29T09:31:24.426Z</time>
      </trkpt>
      <trkpt lat="46.59929" lon="5.50439">
        <ele>352</ele>
        <time>2021-05-29T09:31:25.426Z</time>
      </trkpt>
      <trkpt lat="46.59931" lon="5.50439">
        <ele>352</ele>
        <time>2021-05-29T09:31:26.426Z</time>
      </trkpt>
      <trkpt lat="46.59933" lon="5.5044">
        <ele>352</ele>
        <time>2021-05-29T09:31:27.425Z</time>
      </trkpt>
      <trkpt lat="46.59934" lon="5.5044">
        <ele>352</ele>
        <time>2021-05-29T09:31:28.426Z</time>
      </trkpt>
      <trkpt lat="46.59935" lon="5.5044">
        <ele>352</ele>
        <time>2021-05-29T09:31:29.425Z</time>
      </trkpt>
      <trkpt lat="46.59937" lon="5.50441">
        <ele>352</ele>
        <time>2021-05-29T09:31:30.426Z</time>
      </trkpt>
      <trkpt lat="46.59939" lon="5.50441">
        <ele>352</ele>
        <time>2021-05-29T09:31:31.426Z</time>
      </trkpt>
      <trkpt lat="46.5994" lon="5.50441">
        <ele>352</ele>
        <time>2021-05-29T09:31:32.425Z</time>
      </trkpt>
      <trkpt lat="46.59942" lon="5.50441">
        <ele>352</ele>
        <time>2021-05-29T09:31:33.426Z</time>
      </trkpt>
      <trkpt lat="46.59944" lon="5.50441">
        <ele>353</ele>
        <time>2021-05-29T09:31:34.426Z</time>
      </trkpt>
      <trkpt lat="46.59946" lon="5.50441">
        <ele>353</ele>
        <time>2021-05-29T09:31:35.426Z</time>
      </trkpt>
      <trkpt lat="46.59948" lon="5.50442">
        <ele>354</ele>
        <time>2021-05-29T09:31:36.426Z</time>
      </trkpt>
      <trkpt lat="46.59949" lon="5.50443">
        <ele>354</ele>
        <time>2021-05-29T09:31:37.426Z</time>
      </trkpt>
      <trkpt lat="46.59951" lon="5.50443">
        <ele>355</ele>
        <time>2021-05-29T09:31:38.425Z</time>
      </trkpt>
      <trkpt lat="46.59953" lon="5.50444">
        <ele>355</ele>
        <time>2021-05-29T09:31:39.426Z</time>
      </trkpt>
      <trkpt lat="46.59954" lon="5.50444">
        <ele>355</ele>
        <time>2021-05-29T09:31:40.426Z</time>
      </trkpt>
      <trkpt lat="46.59957" lon="5.50444">
        <ele>356</ele>
        <time>2021-05-29T09:31:41.426Z</time>
      </trkpt>
      <trkpt lat="46.59958" lon="5.50445">
        <ele>356</ele>
        <time>2021-05-29T09:31:42.426Z</time>
      </trkpt>
      <trkpt lat="46.5996" lon="5.50446">
        <ele>356</ele>
        <time>2021-05-29T09:31:43.426Z</time>
      </trkpt>
      <trkpt lat="46.59962" lon="5.50447">
        <ele>356</ele>
        <time>2021-05-29T09:31:44.426Z</time>
      </trkpt>
      <trkpt lat="46.59964" lon="5.50448">
        <ele>356</ele>
        <time>2021-05-29T09:31:45.426Z</time>
      </trkpt>
      <trkpt lat="46.59966" lon="5.50448">
        <ele>355</ele>
        <time>2021-05-29T09:31:46.426Z</time>
      </trkpt>
      <trkpt lat="46.59967" lon="5.50449">
        <ele>356</ele>
        <time>2021-05-29T09:31:47.426Z</time>
      </trkpt>
      <trkpt lat="46.59969" lon="5.5045">
        <ele>355</ele>
        <time>2021-05-29T09:31:48.426Z</time>
      </trkpt>
      <trkpt lat="46.59971" lon="5.5045">
        <ele>355</ele>
        <time>2021-05-29T09:31:49.426Z</time>
      </trkpt>
      <trkpt lat="46.59973" lon="5.5045">
        <ele>356</ele>
        <time>2021-05-29T09:31:50.426Z</time>
      </trkpt>
      <trkpt lat="46.59974" lon="5.50451">
        <ele>356</ele>
        <time>2021-05-29T09:31:51.426Z</time>
      </trkpt>
      <trkpt lat="46.59976" lon="5.50451">
        <ele>356</ele>
        <time>2021-05-29T09:31:52.426Z</time>
      </trkpt>
      <trkpt lat="46.59978" lon="5.50452">
        <ele>356</ele>
        <time>2021-05-29T09:31:53.426Z</time>
      </trkpt>
      <trkpt lat="46.5998" lon="5.50452">
        <ele>356</ele>
        <time>2021-05-29T09:31:54.425Z</time>
      </trkpt>
      <trkpt lat="46.59982" lon="5.50453">
        <ele>356</ele>
        <time>2021-05-29T09:31:55.426Z</time>
      </trkpt>
      <trkpt lat="46.59984" lon="5.50454">
        <ele>356</ele>
        <time>2021-05-29T09:31:56.426Z</time>
      </trkpt>
      <trkpt lat="46.59985" lon="5.50454">
        <ele>356</ele>
        <time>2021-05-29T09:31:57.426Z</time>
      </trkpt>
      <trkpt lat="46.59987" lon="5.50455">
        <ele>357</ele>
        <time>2021-05-29T09:31:58.426Z</time>
      </trkpt>
      <trkpt lat="46.59988" lon="5.50456">
        <ele>357</ele>
        <time>2021-05-29T09:31:59.426Z</time>
      </trkpt>
      <trkpt lat="46.5999" lon="5.50457">
        <ele>358</ele>
        <time>2021-05-29T09:32:00.426Z</time>
      </trkpt>
      <trkpt lat="46.59991" lon="5.50459">
        <ele>358</ele>
        <time>2021-05-29T09:32:01.426Z</time>
      </trkpt>
      <trkpt lat="46.59993" lon="5.50461">
        <ele>358</ele>
        <time>2021-05-29T09:32:02.426Z</time>
      </trkpt>
      <trkpt lat="46.59995" lon="5.50462">
        <ele>359</ele>
        <time>2021-05-29T09:32:03.426Z</time>
      </trkpt>
      <trkpt lat="46.59996" lon="5.50464">
        <ele>359</ele>
        <time>2021-05-29T09:32:04.426Z</time>
      </trkpt>
      <trkpt lat="46.59997" lon="5.50465">
        <ele>360</ele>
        <time>2021-05-29T09:32:05.426Z</time>
      </trkpt>
      <trkpt lat="46.59998" lon="5.50466">
        <ele>360</ele>
        <time>2021-05-29T09:32:06.426Z</time>
      </trkpt>
      <trkpt lat="46.59999" lon="5.50468">
        <ele>360</ele>
        <time>2021-05-29T09:32:07.426Z</time>
      </trkpt>
      <trkpt lat="46.6" lon="5.5047">
        <ele>361</ele>
        <time>2021-05-29T09:32:08.426Z</time>
      </trkpt>
      <trkpt lat="46.60001" lon="5.50472">
        <ele>361</ele>
        <time>2021-05-29T09:32:09.425Z</time>
      </trkpt>
      <trkpt lat="46.60002" lon="5.50473">
        <ele>361</ele>
        <time>2021-05-29T09:32:10.426Z</time>
      </trkpt>
      <trkpt lat="46.60002" lon="5.50475">
        <ele>361</ele>
        <time>2021-05-29T09:32:11.426Z</time>
      </trkpt>
      <trkpt lat="46.60003" lon="5.50476">
        <ele>361</ele>
        <time>2021-05-29T09:32:12.426Z</time>
      </trkpt>
      <trkpt lat="46.60004" lon="5.50478">
        <ele>361</ele>
        <time>2021-05-29T09:32:13.426Z</time>
      </trkpt>
      <trkpt lat="46.60005" lon="5.5048">
        <ele>361</ele>
        <time>2021-05-29T09:32:14.426Z</time>
      </trkpt>
      <trkpt lat="46.60006" lon="5.50482">
        <ele>361</ele>
        <time>2021-05-29T09:32:15.426Z</time>
      </trkpt>
      <trkpt lat="46.60006" lon="5.50483">
        <ele>362</ele>
        <time>2021-05-29T09:32:16.426Z</time>
      </trkpt>
      <trkpt lat="46.60006" lon="5.50485">
        <ele>362</ele>
        <time>2021-05-29T09:32:17.426Z</time>
      </trkpt>
      <trkpt lat="46.60007" lon="5.50486">
        <ele>362</ele>
        <time>2021-05-29T09:32:18.426Z</time>
      </trkpt>
      <trkpt lat="46.60008" lon="5.50488">
        <ele>361</ele>
        <time>2021-05-29T09:32:19.426Z</time>
      </trkpt>
      <trkpt lat="46.60008" lon="5.5049">
        <ele>361</ele>
        <time>2021-05-29T09:32:20.426Z</time>
      </trkpt>
      <trkpt lat="46.60008" lon="5.50491">
        <ele>361</ele>
        <time>2021-05-29T09:32:21.426Z</time>
      </trkpt>
      <trkpt lat="46.60009" lon="5.50493">
        <ele>361</ele>
        <time>2021-05-29T09:32:22.426Z</time>
      </trkpt>
      <trkpt lat="46.60009" lon="5.50495">
        <ele>360</ele>
        <time>2021-05-29T09:32:23.426Z</time>
      </trkpt>
      <trkpt lat="46.6001" lon="5.50496">
        <ele>361</ele>
        <time>2021-05-29T09:32:24.426Z</time>
      </trkpt>
      <trkpt lat="46.6001" lon="5.50498">
        <ele>361</ele>
        <time>2021-05-29T09:32:25.426Z</time>
      </trkpt>
      <trkpt lat="46.60011" lon="5.505">
        <ele>361</ele>
        <time>2021-05-29T09:32:26.426Z</time>
      </trkpt>
      <trkpt lat="46.60012" lon="5.50502">
        <ele>361</ele>
        <time>2021-05-29T09:32:27.426Z</time>
      </trkpt>
      <trkpt lat="46.60014" lon="5.50504">
        <ele>362</ele>
        <time>2021-05-29T09:32:28.425Z</time>
      </trkpt>
      <trkpt lat="46.60014" lon="5.50505">
        <ele>362</ele>
        <time>2021-05-29T09:32:29.426Z</time>
      </trkpt>
      <trkpt lat="46.60015" lon="5.50506">
        <ele>363</ele>
        <time>2021-05-29T09:32:30.426Z</time>
      </trkpt>
      <trkpt lat="46.60015" lon="5.50508">
        <ele>363</ele>
        <time>2021-05-29T09:32:31.426Z</time>
      </trkpt>
      <trkpt lat="46.60016" lon="5.50509">
        <ele>363</ele>
        <time>2021-05-29T09:32:32.425Z</time>
      </trkpt>
      <trkpt lat="46.60017" lon="5.50511">
        <ele>364</ele>
        <time>2021-05-29T09:32:33.426Z</time>
      </trkpt>
      <trkpt lat="46.60019" lon="5.50512">
        <ele>364</ele>
        <time>2021-05-29T09:32:34.426Z</time>
      </trkpt>
      <trkpt lat="46.60021" lon="5.50514">
        <ele>364</ele>
        <time>2021-05-29T09:32:35.426Z</time>
      </trkpt>
      <trkpt lat="46.60023" lon="5.50516">
        <ele>365</ele>
        <time>2021-05-29T09:32:36.426Z</time>
      </trkpt>
      <trkpt lat="46.60024" lon="5.50518">
        <ele>366</ele>
        <time>2021-05-29T09:32:37.426Z</time>
      </trkpt>
      <trkpt lat="46.60025" lon="5.5052">
        <ele>367</ele>
        <time>2021-05-29T09:32:38.426Z</time>
      </trkpt>
      <trkpt lat="46.60026" lon="5.50522">
        <ele>367</ele>
        <time>2021-05-29T09:32:39.426Z</time>
      </trkpt>
      <trkpt lat="46.60027" lon="5.50524">
        <ele>367</ele>
        <time>2021-05-29T09:32:40.426Z</time>
      </trkpt>
      <trkpt lat="46.60029" lon="5.50526">
        <ele>367</ele>
        <time>2021-05-29T09:32:41.426Z</time>
      </trkpt>
      <trkpt lat="46.6003" lon="5.50527">
        <ele>367</ele>
        <time>2021-05-29T09:32:42.426Z</time>
      </trkpt>
      <trkpt lat="46.60032" lon="5.50529">
        <ele>368</ele>
        <time>2021-05-29T09:32:43.426Z</time>
      </trkpt>
      <trkpt lat="46.60033" lon="5.50531">
        <ele>368</ele>
        <time>2021-05-29T09:32:44.425Z</time>
      </trkpt>
      <trkpt lat="46.60035" lon="5.50533">
        <ele>368</ele>
        <time>2021-05-29T09:32:45.425Z</time>
      </trkpt>
      <trkpt lat="46.60036" lon="5.50535">
        <ele>368</ele>
        <time>2021-05-29T09:32:46.425Z</time>
      </trkpt>
      <trkpt lat="46.60038" lon="5.50537">
        <ele>368</ele>
        <time>2021-05-29T09:32:47.425Z</time>
      </trkpt>
      <trkpt lat="46.60038" lon="5.50539">
        <ele>367</ele>
        <time>2021-05-29T09:32:48.425Z</time>
      </trkpt>
      <trkpt lat="46.60038" lon="5.50541">
        <ele>367</ele>
        <time>2021-05-29T09:32:49.425Z</time>
      </trkpt>
      <trkpt lat="46.60038" lon="5.50542">
        <ele>367</ele>
        <time>2021-05-29T09:32:50.426Z</time>
      </trkpt>
      <trkpt lat="46.60037" lon="5.50543">
        <ele>367</ele>
        <time>2021-05-29T09:32:51.426Z</time>
      </trkpt>
      <trkpt lat="46.60037" lon="5.50543">
        <ele>367</ele>
        <time>2021-05-29T09:32:52.426Z</time>
      </trkpt>
      <trkpt lat="46.60036" lon="5.50543">
        <ele>368</ele>
        <time>2021-05-29T09:32:53.426Z</time>
      </trkpt>
      <trkpt lat="46.60036" lon="5.50543">
        <ele>368</ele>
        <time>2021-05-29T09:32:54.425Z</time>
      </trkpt>
      <trkpt lat="46.60036" lon="5.50543">
        <ele>369</ele>
        <time>2021-05-29T09:32:55.426Z</time>
      </trkpt>
      <trkpt lat="46.60036" lon="5.50543">
        <ele>365</ele>
        <time>2021-05-29T09:32:56.427Z</time>
      </trkpt>
      <trkpt lat="46.60036" lon="5.50543">
        <ele>365</ele>
        <time>2021-05-29T09:32:57.427Z</time>
      </trkpt>
      <trkpt lat="46.60036" lon="5.50543">
        <ele>365</ele>
        <time>2021-05-29T09:32:58.426Z</time>
      </trkpt>
      <trkpt lat="46.60036" lon="5.50543">
        <ele>365</ele>
        <time>2021-05-29T09:32:59.427Z</time>
      </trkpt>
      <trkpt lat="46.60036" lon="5.50543">
        <ele>365</ele>
        <time>2021-05-29T09:33:00.426Z</time>
      </trkpt>
      <trkpt lat="46.60036" lon="5.50543">
        <ele>365</ele>
        <time>2021-05-29T09:33:01.427Z</time>
      </trkpt>
      <trkpt lat="46.60036" lon="5.50543">
        <ele>365</ele>
        <time>2021-05-29T09:33:02.426Z</time>
      </trkpt>
      <trkpt lat="46.60036" lon="5.50543">
        <ele>365</ele>
        <time>2021-05-29T09:33:03.427Z</time>
      </trkpt>
      <trkpt lat="46.60036" lon="5.50542">
        <ele>365</ele>
        <time>2021-05-29T09:33:04.426Z</time>
      </trkpt>
      <trkpt lat="46.60035" lon="5.50539">
        <ele>365</ele>
        <time>2021-05-29T09:33:05.426Z</time>
      </trkpt>
      <trkpt lat="46.60033" lon="5.50537">
        <ele>365</ele>
        <time>2021-05-29T09:33:06.426Z</time>
      </trkpt>
      <trkpt lat="46.60031" lon="5.50533">
        <ele>365</ele>
        <time>2021-05-29T09:33:07.427Z</time>
      </trkpt>
      <trkpt lat="46.60029" lon="5.5053">
        <ele>366</ele>
        <time>2021-05-29T09:33:08.427Z</time>
      </trkpt>
      <trkpt lat="46.60027" lon="5.50527">
        <ele>366</ele>
        <time>2021-05-29T09:33:09.426Z</time>
      </trkpt>
      <trkpt lat="46.60026" lon="5.50524">
        <ele>366</ele>
        <time>2021-05-29T09:33:10.427Z</time>
      </trkpt>
      <trkpt lat="46.60024" lon="5.5052">
        <ele>366</ele>
        <time>2021-05-29T09:33:11.427Z</time>
      </trkpt>
      <trkpt lat="46.60023" lon="5.50517">
        <ele>366</ele>
        <time>2021-05-29T09:33:12.426Z</time>
      </trkpt>
      <trkpt lat="46.60022" lon="5.50514">
        <ele>366</ele>
        <time>2021-05-29T09:33:13.426Z</time>
      </trkpt>
      <trkpt lat="46.60021" lon="5.50512">
        <ele>366</ele>
        <time>2021-05-29T09:33:14.426Z</time>
      </trkpt>
      <trkpt lat="46.6002" lon="5.50509">
        <ele>367</ele>
        <time>2021-05-29T09:33:15.427Z</time>
      </trkpt>
      <trkpt lat="46.60018" lon="5.50507">
        <ele>367</ele>
        <time>2021-05-29T09:33:16.426Z</time>
      </trkpt>
      <trkpt lat="46.60017" lon="5.50504">
        <ele>368</ele>
        <time>2021-05-29T09:33:17.426Z</time>
      </trkpt>
      <trkpt lat="46.60015" lon="5.50502">
        <ele>368</ele>
        <time>2021-05-29T09:33:18.427Z</time>
      </trkpt>
      <trkpt lat="46.60014" lon="5.505">
        <ele>368</ele>
        <time>2021-05-29T09:33:19.426Z</time>
      </trkpt>
      <trkpt lat="46.60012" lon="5.50497">
        <ele>368</ele>
        <time>2021-05-29T09:33:20.427Z</time>
      </trkpt>
      <trkpt lat="46.60011" lon="5.50494">
        <ele>367</ele>
        <time>2021-05-29T09:33:21.426Z</time>
      </trkpt>
      <trkpt lat="46.6001" lon="5.50492">
        <ele>366</ele>
        <time>2021-05-29T09:33:22.426Z</time>
      </trkpt>
      <trkpt lat="46.6001" lon="5.5049">
        <ele>365</ele>
        <time>2021-05-29T09:33:23.426Z</time>
      </trkpt>
      <trkpt lat="46.60009" lon="5.50487">
        <ele>365</ele>
        <time>2021-05-29T09:33:24.427Z</time>
      </trkpt>
      <trkpt lat="46.60008" lon="5.50485">
        <ele>364</ele>
        <time>2021-05-29T09:33:25.426Z</time>
      </trkpt>
      <trkpt lat="46.60007" lon="5.50483">
        <ele>364</ele>
        <time>2021-05-29T09:33:26.426Z</time>
      </trkpt>
      <trkpt lat="46.60006" lon="5.50481">
        <ele>363</ele>
        <time>2021-05-29T09:33:27.427Z</time>
      </trkpt>
      <trkpt lat="46.60004" lon="5.50479">
        <ele>363</ele>
        <time>2021-05-29T09:33:28.426Z</time>
      </trkpt>
      <trkpt lat="46.60003" lon="5.50476">
        <ele>362</ele>
        <time>2021-05-29T09:33:29.426Z</time>
      </trkpt>
      <trkpt lat="46.60002" lon="5.50474">
        <ele>362</ele>
        <time>2021-05-29T09:33:30.426Z</time>
      </trkpt>
      <trkpt lat="46.60001" lon="5.50472">
        <ele>361</ele>
        <time>2021-05-29T09:33:31.426Z</time>
      </trkpt>
      <trkpt lat="46.59999" lon="5.50469">
        <ele>361</ele>
        <time>2021-05-29T09:33:32.426Z</time>
      </trkpt>
      <trkpt lat="46.59998" lon="5.50467">
        <ele>361</ele>
        <time>2021-05-29T09:33:33.427Z</time>
      </trkpt>
      <trkpt lat="46.59997" lon="5.50465">
        <ele>361</ele>
        <time>2021-05-29T09:33:34.426Z</time>
      </trkpt>
      <trkpt lat="46.59995" lon="5.50463">
        <ele>361</ele>
        <time>2021-05-29T09:33:35.426Z</time>
      </trkpt>
      <trkpt lat="46.59993" lon="5.50461">
        <ele>361</ele>
        <time>2021-05-29T09:33:36.426Z</time>
      </trkpt>
      <trkpt lat="46.59992" lon="5.50459">
        <ele>361</ele>
        <time>2021-05-29T09:33:37.426Z</time>
      </trkpt>
      <trkpt lat="46.5999" lon="5.50457">
        <ele>361</ele>
        <time>2021-05-29T09:33:38.427Z</time>
      </trkpt>
      <trkpt lat="46.59989" lon="5.50456">
        <ele>361</ele>
        <time>2021-05-29T09:33:39.427Z</time>
      </trkpt>
      <trkpt lat="46.59988" lon="5.50454">
        <ele>361</ele>
        <time>2021-05-29T09:33:40.426Z</time>
      </trkpt>
      <trkpt lat="46.59986" lon="5.50453">
        <ele>361</ele>
        <time>2021-05-29T09:33:41.427Z</time>
      </trkpt>
      <trkpt lat="46.59984" lon="5.50451">
        <ele>361</ele>
        <time>2021-05-29T09:33:42.427Z</time>
      </trkpt>
      <trkpt lat="46.59983" lon="5.50451">
        <ele>360</ele>
        <time>2021-05-29T09:33:43.427Z</time>
      </trkpt>
      <trkpt lat="46.59981" lon="5.5045">
        <ele>360</ele>
        <time>2021-05-29T09:33:44.426Z</time>
      </trkpt>
      <trkpt lat="46.59979" lon="5.5045">
        <ele>360</ele>
        <time>2021-05-29T09:33:45.426Z</time>
      </trkpt>
      <trkpt lat="46.59977" lon="5.50449">
        <ele>359</ele>
        <time>2021-05-29T09:33:46.426Z</time>
      </trkpt>
      <trkpt lat="46.59976" lon="5.50449">
        <ele>359</ele>
        <time>2021-05-29T09:33:47.426Z</time>
      </trkpt>
      <trkpt lat="46.59974" lon="5.50448">
        <ele>359</ele>
        <time>2021-05-29T09:33:48.426Z</time>
      </trkpt>
      <trkpt lat="46.59971" lon="5.50448">
        <ele>359</ele>
        <time>2021-05-29T09:33:49.426Z</time>
      </trkpt>
      <trkpt lat="46.59969" lon="5.50448">
        <ele>359</ele>
        <time>2021-05-29T09:33:50.427Z</time>
      </trkpt>
      <trkpt lat="46.59967" lon="5.50447">
        <ele>359</ele>
        <time>2021-05-29T09:33:51.426Z</time>
      </trkpt>
      <trkpt lat="46.59965" lon="5.50446">
        <ele>359</ele>
        <time>2021-05-29T09:33:52.427Z</time>
      </trkpt>
      <trkpt lat="46.59962" lon="5.50446">
        <ele>359</ele>
        <time>2021-05-29T09:33:53.427Z</time>
      </trkpt>
      <trkpt lat="46.5996" lon="5.50445">
        <ele>360</ele>
        <time>2021-05-29T09:33:54.426Z</time>
      </trkpt>
      <trkpt lat="46.59957" lon="5.50444">
        <ele>360</ele>
        <time>2021-05-29T09:33:55.426Z</time>
      </trkpt>
      <trkpt lat="46.59956" lon="5.50444">
        <ele>360</ele>
        <time>2021-05-29T09:33:56.426Z</time>
      </trkpt>
      <trkpt lat="46.59954" lon="5.50444">
        <ele>360</ele>
        <time>2021-05-29T09:33:57.426Z</time>
      </trkpt>
      <trkpt lat="46.59951" lon="5.50444">
        <ele>361</ele>
        <time>2021-05-29T09:33:58.427Z</time>
      </trkpt>
      <trkpt lat="46.59948" lon="5.50444">
        <ele>361</ele>
        <time>2021-05-29T09:33:59.426Z</time>
      </trkpt>
      <trkpt lat="46.59947" lon="5.50443">
        <ele>361</ele>
        <time>2021-05-29T09:34:00.427Z</time>
      </trkpt>
      <trkpt lat="46.59945" lon="5.50442">
        <ele>361</ele>
        <time>2021-05-29T09:34:01.426Z</time>
      </trkpt>
      <trkpt lat="46.59942" lon="5.50442">
        <ele>361</ele>
        <time>2021-05-29T09:34:02.427Z</time>
      </trkpt>
      <trkpt lat="46.5994" lon="5.50441">
        <ele>361</ele>
        <time>2021-05-29T09:34:03.426Z</time>
      </trkpt>
      <trkpt lat="46.59938" lon="5.50441">
        <ele>361</ele>
        <time>2021-05-29T09:34:04.426Z</time>
      </trkpt>
      <trkpt lat="46.59936" lon="5.5044">
        <ele>362</ele>
        <time>2021-05-29T09:34:05.426Z</time>
      </trkpt>
      <trkpt lat="46.59934" lon="5.5044">
        <ele>362</ele>
        <time>2021-05-29T09:34:06.427Z</time>
      </trkpt>
      <trkpt lat="46.59931" lon="5.5044">
        <ele>362</ele>
        <time>2021-05-29T09:34:07.427Z</time>
      </trkpt>
      <trkpt lat="46.59929" lon="5.5044">
        <ele>362</ele>
        <time>2021-05-29T09:34:08.427Z</time>
      </trkpt>
      <trkpt lat="46.59927" lon="5.50439">
        <ele>362</ele>
        <time>2021-05-29T09:34:09.426Z</time>
      </trkpt>
      <trkpt lat="46.59925" lon="5.50439">
        <ele>362</ele>
        <time>2021-05-29T09:34:10.427Z</time>
      </trkpt>
      <trkpt lat="46.59923" lon="5.50439">
        <ele>363</ele>
        <time>2021-05-29T09:34:11.427Z</time>
      </trkpt>
      <trkpt lat="46.59921" lon="5.50438">
        <ele>363</ele>
        <time>2021-05-29T09:34:12.427Z</time>
      </trkpt>
      <trkpt lat="46.59919" lon="5.50438">
        <ele>363</ele>
        <time>2021-05-29T09:34:13.427Z</time>
      </trkpt>
      <trkpt lat="46.59918" lon="5.50437">
        <ele>363</ele>
        <time>2021-05-29T09:34:14.426Z</time>
      </trkpt>
      <trkpt lat="46.59917" lon="5.50437">
        <ele>362</ele>
        <time>2021-05-29T09:34:15.427Z</time>
      </trkpt>
      <trkpt lat="46.59916" lon="5.50437">
        <ele>362</ele>
        <time>2021-05-29T09:34:16.427Z</time>
      </trkpt>
      <trkpt lat="46.59916" lon="5.50437">
        <ele>362</ele>
        <time>2021-05-29T09:34:17.426Z</time>
      </trkpt>
      <trkpt lat="46.59916" lon="5.50436">
        <ele>362</ele>
        <time>2021-05-29T09:34:18.427Z</time>
      </trkpt>
      <trkpt lat="46.59917" lon="5.50436">
        <ele>362</ele>
        <time>2021-05-29T09:34:19.427Z</time>
      </trkpt>
      <trkpt lat="46.59917" lon="5.50436">
        <ele>362</ele>
        <time>2021-05-29T09:34:20.426Z</time>
      </trkpt>
      <trkpt lat="46.59918" lon="5.50437">
        <ele>361</ele>
        <time>2021-05-29T09:34:21.427Z</time>
      </trkpt>
      <trkpt lat="46.59919" lon="5.50437">
        <ele>361</ele>
        <time>2021-05-29T09:34:22.427Z</time>
      </trkpt>
      <trkpt lat="46.59921" lon="5.50437">
        <ele>360</ele>
        <time>2021-05-29T09:34:23.427Z</time>
      </trkpt>
      <trkpt lat="46.59922" lon="5.50437">
        <ele>360</ele>
        <time>2021-05-29T09:34:24.426Z</time>
      </trkpt>
      <trkpt lat="46.59923" lon="5.50437">
        <ele>359</ele>
        <time>2021-05-29T09:34:25.426Z</time>
      </trkpt>
      <trkpt lat="46.59924" lon="5.50437">
        <ele>359</ele>
        <time>2021-05-29T09:34:26.426Z</time>
      </trkpt>
      <trkpt lat="46.59926" lon="5.50438">
        <ele>359</ele>
        <time>2021-05-29T09:34:27.426Z</time>
      </trkpt>
      <trkpt lat="46.59927" lon="5.50438">
        <ele>358</ele>
        <time>2021-05-29T09:34:28.426Z</time>
      </trkpt>
      <trkpt lat="46.59928" lon="5.50438">
        <ele>358</ele>
        <time>2021-05-29T09:34:29.426Z</time>
      </trkpt>
      <trkpt lat="46.5993" lon="5.50438">
        <ele>358</ele>
        <time>2021-05-29T09:34:30.427Z</time>
      </trkpt>
      <trkpt lat="46.5993" lon="5.50438">
        <ele>357</ele>
        <time>2021-05-29T09:34:31.427Z</time>
      </trkpt>
      <trkpt lat="46.59931" lon="5.50438">
        <ele>356</ele>
        <time>2021-05-29T09:34:32.426Z</time>
      </trkpt>
      <trkpt lat="46.59932" lon="5.50439">
        <ele>356</ele>
        <time>2021-05-29T09:34:33.426Z</time>
      </trkpt>
      <trkpt lat="46.59933" lon="5.50439">
        <ele>355</ele>
        <time>2021-05-29T09:34:34.427Z</time>
      </trkpt>
      <trkpt lat="46.59935" lon="5.50439">
        <ele>355</ele>
        <time>2021-05-29T09:34:35.426Z</time>
      </trkpt>
      <trkpt lat="46.59936" lon="5.5044">
        <ele>355</ele>
        <time>2021-05-29T09:34:36.426Z</time>
      </trkpt>
      <trkpt lat="46.59938" lon="5.50439">
        <ele>355</ele>
        <time>2021-05-29T09:34:37.427Z</time>
      </trkpt>
      <trkpt lat="46.59939" lon="5.50439">
        <ele>355</ele>
        <time>2021-05-29T09:34:38.427Z</time>
      </trkpt>
      <trkpt lat="46.59941" lon="5.50439">
        <ele>356</ele>
        <time>2021-05-29T09:34:39.426Z</time>
      </trkpt>
      <trkpt lat="46.59943" lon="5.50439">
        <ele>356</ele>
        <time>2021-05-29T09:34:40.426Z</time>
      </trkpt>
      <trkpt lat="46.59945" lon="5.50439">
        <ele>356</ele>
        <time>2021-05-29T09:34:41.426Z</time>
      </trkpt>
      <trkpt lat="46.59946" lon="5.5044">
        <ele>357</ele>
        <time>2021-05-29T09:34:42.426Z</time>
      </trkpt>
      <trkpt lat="46.59948" lon="5.50441">
        <ele>357</ele>
        <time>2021-05-29T09:34:43.427Z</time>
      </trkpt>
      <trkpt lat="46.5995" lon="5.50442">
        <ele>357</ele>
        <time>2021-05-29T09:34:44.426Z</time>
      </trkpt>
      <trkpt lat="46.59952" lon="5.50443">
        <ele>356</ele>
        <time>2021-05-29T09:34:45.427Z</time>
      </trkpt>
      <trkpt lat="46.59954" lon="5.50444">
        <ele>356</ele>
        <time>2021-05-29T09:34:46.427Z</time>
      </trkpt>
      <trkpt lat="46.59956" lon="5.50445">
        <ele>355</ele>
        <time>2021-05-29T09:34:47.426Z</time>
      </trkpt>
      <trkpt lat="46.59958" lon="5.50446">
        <ele>355</ele>
        <time>2021-05-29T09:34:48.426Z</time>
      </trkpt>
      <trkpt lat="46.59959" lon="5.50446">
        <ele>355</ele>
        <time>2021-05-29T09:34:49.426Z</time>
      </trkpt>
      <trkpt lat="46.59961" lon="5.50445">
        <ele>355</ele>
        <time>2021-05-29T09:34:50.426Z</time>
      </trkpt>
      <trkpt lat="46.59964" lon="5.50445">
        <ele>355</ele>
        <time>2021-05-29T09:34:51.426Z</time>
      </trkpt>
      <trkpt lat="46.59966" lon="5.50446">
        <ele>355</ele>
        <time>2021-05-29T09:34:52.426Z</time>
      </trkpt>
      <trkpt lat="46.59968" lon="5.50446">
        <ele>355</ele>
        <time>2021-05-29T09:34:53.426Z</time>
      </trkpt>
      <trkpt lat="46.5997" lon="5.50446">
        <ele>355</ele>
        <time>2021-05-29T09:34:54.427Z</time>
      </trkpt>
      <trkpt lat="46.59973" lon="5.50447">
        <ele>354</ele>
        <time>2021-05-29T09:34:55.426Z</time>
      </trkpt>
      <trkpt lat="46.59975" lon="5.50448">
        <ele>354</ele>
        <time>2021-05-29T09:34:56.426Z</time>
      </trkpt>
      <trkpt lat="46.59977" lon="5.50448">
        <ele>354</ele>
        <time>2021-05-29T09:34:57.426Z</time>
      </trkpt>
      <trkpt lat="46.59979" lon="5.50448">
        <ele>354</ele>
        <time>2021-05-29T09:34:58.426Z</time>
      </trkpt>
      <trkpt lat="46.5998" lon="5.50448">
        <ele>354</ele>
        <time>2021-05-29T09:34:59.426Z</time>
      </trkpt>
      <trkpt lat="46.59982" lon="5.50448">
        <ele>354</ele>
        <time>2021-05-29T09:35:00.426Z</time>
      </trkpt>
      <trkpt lat="46.59984" lon="5.50449">
        <ele>354</ele>
        <time>2021-05-29T09:35:01.427Z</time>
      </trkpt>
      <trkpt lat="46.59985" lon="5.50449">
        <ele>354</ele>
        <time>2021-05-29T09:35:02.427Z</time>
      </trkpt>
      <trkpt lat="46.59987" lon="5.5045">
        <ele>354</ele>
        <time>2021-05-29T09:35:03.426Z</time>
      </trkpt>
      <trkpt lat="46.59988" lon="5.50451">
        <ele>355</ele>
        <time>2021-05-29T09:35:04.426Z</time>
      </trkpt>
      <trkpt lat="46.5999" lon="5.50453">
        <ele>355</ele>
        <time>2021-05-29T09:35:05.426Z</time>
      </trkpt>
      <trkpt lat="46.59992" lon="5.50454">
        <ele>355</ele>
        <time>2021-05-29T09:35:06.427Z</time>
      </trkpt>
      <trkpt lat="46.59993" lon="5.50456">
        <ele>356</ele>
        <time>2021-05-29T09:35:07.427Z</time>
      </trkpt>
      <trkpt lat="46.59994" lon="5.50457">
        <ele>356</ele>
        <time>2021-05-29T09:35:08.426Z</time>
      </trkpt>
      <trkpt lat="46.59995" lon="5.50458">
        <ele>357</ele>
        <time>2021-05-29T09:35:09.426Z</time>
      </trkpt>
      <trkpt lat="46.59997" lon="5.5046">
        <ele>358</ele>
        <time>2021-05-29T09:35:10.426Z</time>
      </trkpt>
      <trkpt lat="46.59998" lon="5.50461">
        <ele>359</ele>
        <time>2021-05-29T09:35:11.426Z</time>
      </trkpt>
      <trkpt lat="46.59999" lon="5.50463">
        <ele>360</ele>
        <time>2021-05-29T09:35:12.426Z</time>
      </trkpt>
      <trkpt lat="46.6" lon="5.50465">
        <ele>360</ele>
        <time>2021-05-29T09:35:13.427Z</time>
      </trkpt>
      <trkpt lat="46.60001" lon="5.50467">
        <ele>361</ele>
        <time>2021-05-29T09:35:14.426Z</time>
      </trkpt>
      <trkpt lat="46.60002" lon="5.50469">
        <ele>361</ele>
        <time>2021-05-29T09:35:15.427Z</time>
      </trkpt>
      <trkpt lat="46.60002" lon="5.50471">
        <ele>361</ele>
        <time>2021-05-29T09:35:16.426Z</time>
      </trkpt>
      <trkpt lat="46.60003" lon="5.50473">
        <ele>362</ele>
        <time>2021-05-29T09:35:17.426Z</time>
      </trkpt>
      <trkpt lat="46.60004" lon="5.50474">
        <ele>362</ele>
        <time>2021-05-29T09:35:18.426Z</time>
      </trkpt>
      <trkpt lat="46.60005" lon="5.50476">
        <ele>363</ele>
        <time>2021-05-29T09:35:19.426Z</time>
      </trkpt>
      <trkpt lat="46.60006" lon="5.50478">
        <ele>363</ele>
        <time>2021-05-29T09:35:20.426Z</time>
      </trkpt>
      <trkpt lat="46.60006" lon="5.50479">
        <ele>363</ele>
        <time>2021-05-29T09:35:21.426Z</time>
      </trkpt>
      <trkpt lat="46.60007" lon="5.50481">
        <ele>364</ele>
        <time>2021-05-29T09:35:22.426Z</time>
      </trkpt>
      <trkpt lat="46.60007" lon="5.50482">
        <ele>364</ele>
        <time>2021-05-29T09:35:23.426Z</time>
      </trkpt>
      <trkpt lat="46.60008" lon="5.50484">
        <ele>364</ele>
        <time>2021-05-29T09:35:24.426Z</time>
      </trkpt>
      <trkpt lat="46.60009" lon="5.50485">
        <ele>364</ele>
        <time>2021-05-29T09:35:25.426Z</time>
      </trkpt>
      <trkpt lat="46.60009" lon="5.50487">
        <ele>364</ele>
        <time>2021-05-29T09:35:26.426Z</time>
      </trkpt>
      <trkpt lat="46.6001" lon="5.5049">
        <ele>364</ele>
        <time>2021-05-29T09:35:27.427Z</time>
      </trkpt>
      <trkpt lat="46.60011" lon="5.50492">
        <ele>363</ele>
        <time>2021-05-29T09:35:28.426Z</time>
      </trkpt>
      <trkpt lat="46.60012" lon="5.50494">
        <ele>363</ele>
        <time>2021-05-29T09:35:29.426Z</time>
      </trkpt>
      <trkpt lat="46.60013" lon="5.50496">
        <ele>362</ele>
        <time>2021-05-29T09:35:30.426Z</time>
      </trkpt>
      <trkpt lat="46.60013" lon="5.50498">
        <ele>362</ele>
        <time>2021-05-29T09:35:31.426Z</time>
      </trkpt>
      <trkpt lat="46.60014" lon="5.505">
        <ele>362</ele>
        <time>2021-05-29T09:35:32.427Z</time>
      </trkpt>
      <trkpt lat="46.60014" lon="5.50501">
        <ele>362</ele>
        <time>2021-05-29T09:35:33.426Z</time>
      </trkpt>
      <trkpt lat="46.60016" lon="5.50503">
        <ele>362</ele>
        <time>2021-05-29T09:35:34.426Z</time>
      </trkpt>
      <trkpt lat="46.60017" lon="5.50505">
        <ele>363</ele>
        <time>2021-05-29T09:35:35.426Z</time>
      </trkpt>
      <trkpt lat="46.60018" lon="5.50506">
        <ele>363</ele>
        <time>2021-05-29T09:35:36.427Z</time>
      </trkpt>
      <trkpt lat="46.60018" lon="5.50508">
        <ele>363</ele>
        <time>2021-05-29T09:35:37.427Z</time>
      </trkpt>
      <trkpt lat="46.60019" lon="5.50509">
        <ele>364</ele>
        <time>2021-05-29T09:35:38.427Z</time>
      </trkpt>
      <trkpt lat="46.6002" lon="5.50511">
        <ele>364</ele>
        <time>2021-05-29T09:35:39.426Z</time>
      </trkpt>
      <trkpt lat="46.60021" lon="5.50513">
        <ele>365</ele>
        <time>2021-05-29T09:35:40.426Z</time>
      </trkpt>
      <trkpt lat="46.60022" lon="5.50516">
        <ele>365</ele>
        <time>2021-05-29T09:35:41.427Z</time>
      </trkpt>
      <trkpt lat="46.60024" lon="5.50518">
        <ele>366</ele>
        <time>2021-05-29T09:35:42.427Z</time>
      </trkpt>
      <trkpt lat="46.60025" lon="5.5052">
        <ele>366</ele>
        <time>2021-05-29T09:35:43.427Z</time>
      </trkpt>
      <trkpt lat="46.60026" lon="5.50522">
        <ele>367</ele>
        <time>2021-05-29T09:35:44.426Z</time>
      </trkpt>
      <trkpt lat="46.60028" lon="5.50524">
        <ele>368</ele>
        <time>2021-05-29T09:35:45.426Z</time>
      </trkpt>
      <trkpt lat="46.60029" lon="5.50526">
        <ele>368</ele>
        <time>2021-05-29T09:35:46.426Z</time>
      </trkpt>
      <trkpt lat="46.6003" lon="5.50528">
        <ele>369</ele>
        <time>2021-05-29T09:35:47.426Z</time>
      </trkpt>
      <trkpt lat="46.60031" lon="5.5053">
        <ele>369</ele>
        <time>2021-05-29T09:35:48.426Z</time>
      </trkpt>
      <trkpt lat="46.60032" lon="5.50532">
        <ele>369</ele>
        <time>2021-05-29T09:35:49.426Z</time>
      </trkpt>
      <trkpt lat="46.60034" lon="5.50534">
        <ele>370</ele>
        <time>2021-05-29T09:35:50.426Z</time>
      </trkpt>
      <trkpt lat="46.60035" lon="5.50536">
        <ele>370</ele>
        <time>2021-05-29T09:35:51.426Z</time>
      </trkpt>
      <trkpt lat="46.60037" lon="5.50538">
        <ele>370</ele>
        <time>2021-05-29T09:35:52.426Z</time>
      </trkpt>
      <trkpt lat="46.60037" lon="5.5054">
        <ele>371</ele>
        <time>2021-05-29T09:35:53.427Z</time>
      </trkpt>
      <trkpt lat="46.60038" lon="5.50541">
        <ele>370</ele>
        <time>2021-05-29T09:35:54.426Z</time>
      </trkpt>
      <trkpt lat="46.60037" lon="5.50542">
        <ele>370</ele>
        <time>2021-05-29T09:35:55.426Z</time>
      </trkpt>
      <trkpt lat="46.60037" lon="5.50542">
        <ele>370</ele>
        <time>2021-05-29T09:35:56.427Z</time>
      </trkpt>
      <trkpt lat="46.60036" lon="5.50542">
        <ele>370</ele>
        <time>2021-05-29T09:35:57.427Z</time>
      </trkpt>
      <trkpt lat="46.60035" lon="5.50542">
        <ele>370</ele>
        <time>2021-05-29T09:35:58.426Z</time>
      </trkpt>
      <trkpt lat="46.60034" lon="5.50542">
        <ele>370</ele>
        <time>2021-05-29T09:35:59.426Z</time>
      </trkpt>
      <trkpt lat="46.60033" lon="5.50542">
        <ele>370</ele>
        <time>2021-05-29T09:36:00.427Z</time>
      </trkpt>
      <trkpt lat="46.60032" lon="5.50541">
        <ele>370</ele>
        <time>2021-05-29T09:36:01.426Z</time>
      </trkpt>
      <trkpt lat="46.60031" lon="5.50541">
        <ele>370</ele>
        <time>2021-05-29T09:36:02.427Z</time>
      </trkpt>
      <trkpt lat="46.60029" lon="5.5054">
        <ele>370</ele>
        <time>2021-05-29T09:36:03.426Z</time>
      </trkpt>
      <trkpt lat="46.60028" lon="5.50539">
        <ele>371</ele>
        <time>2021-05-29T09:36:04.426Z</time>
      </trkpt>
      <trkpt lat="46.60026" lon="5.50538">
        <ele>371</ele>
        <time>2021-05-29T09:36:05.426Z</time>
      </trkpt>
      <trkpt lat="46.60024" lon="5.50538">
        <ele>372</ele>
        <time>2021-05-29T09:36:06.426Z</time>
      </trkpt>
      <trkpt lat="46.60022" lon="5.50537">
        <ele>372</ele>
        <time>2021-05-29T09:36:07.426Z</time>
      </trkpt>
      <trkpt lat="46.6002" lon="5.50536">
        <ele>373</ele>
        <time>2021-05-29T09:36:08.426Z</time>
      </trkpt>
      <trkpt lat="46.60019" lon="5.50535">
        <ele>373</ele>
        <time>2021-05-29T09:36:09.426Z</time>
      </trkpt>
      <trkpt lat="46.60017" lon="5.50535">
        <ele>374</ele>
        <time>2021-05-29T09:36:10.427Z</time>
      </trkpt>
      <trkpt lat="46.60015" lon="5.50534">
        <ele>375</ele>
        <time>2021-05-29T09:36:11.426Z</time>
      </trkpt>
      <trkpt lat="46.60012" lon="5.50533">
        <ele>375</ele>
        <time>2021-05-29T09:36:12.427Z</time>
      </trkpt>
      <trkpt lat="46.60012" lon="5.50533">
        <ele>376</ele>
        <time>2021-05-29T09:36:13.426Z</time>
      </trkpt>
      <trkpt lat="46.6001" lon="5.50532">
        <ele>376</ele>
        <time>2021-05-29T09:36:14.427Z</time>
      </trkpt>
      <trkpt lat="46.60007" lon="5.50532">
        <ele>377</ele>
        <time>2021-05-29T09:36:15.427Z</time>
      </trkpt>
      <trkpt lat="46.60005" lon="5.50531">
        <ele>378</ele>
        <time>2021-05-29T09:36:16.426Z</time>
      </trkpt>
      <trkpt lat="46.60003" lon="5.5053">
        <ele>378</ele>
        <time>2021-05-29T09:36:17.426Z</time>
      </trkpt>
      <trkpt lat="46.60001" lon="5.50529">
        <ele>379</ele>
        <time>2021-05-29T09:36:18.427Z</time>
      </trkpt>
      <trkpt lat="46.6" lon="5.50529">
        <ele>380</ele>
        <time>2021-05-29T09:36:19.426Z</time>
      </trkpt>
      <trkpt lat="46.59998" lon="5.50528">
        <ele>380</ele>
        <time>2021-05-29T09:36:20.426Z</time>
      </trkpt>
      <trkpt lat="46.59996" lon="5.50528">
        <ele>380</ele>
        <time>2021-05-29T09:36:21.427Z</time>
      </trkpt>
      <trkpt lat="46.59994" lon="5.50527">
        <ele>381</ele>
        <time>2021-05-29T09:36:22.427Z</time>
      </trkpt>
      <trkpt lat="46.59992" lon="5.50526">
        <ele>381</ele>
        <time>2021-05-29T09:36:23.426Z</time>
      </trkpt>
      <trkpt lat="46.5999" lon="5.50526">
        <ele>381</ele>
        <time>2021-05-29T09:36:24.426Z</time>
      </trkpt>
      <trkpt lat="46.59988" lon="5.50525">
        <ele>382</ele>
        <time>2021-05-29T09:36:25.427Z</time>
      </trkpt>
      <trkpt lat="46.59986" lon="5.50525">
        <ele>382</ele>
        <time>2021-05-29T09:36:26.426Z</time>
      </trkpt>
      <trkpt lat="46.59985" lon="5.50524">
        <ele>382</ele>
        <time>2021-05-29T09:36:27.426Z</time>
      </trkpt>
      <trkpt lat="46.59983" lon="5.50524">
        <ele>382</ele>
        <time>2021-05-29T09:36:28.426Z</time>
      </trkpt>
      <trkpt lat="46.59981" lon="5.50523">
        <ele>382</ele>
        <time>2021-05-29T09:36:29.426Z</time>
      </trkpt>
      <trkpt lat="46.59979" lon="5.50523">
        <ele>383</ele>
        <time>2021-05-29T09:36:30.427Z</time>
      </trkpt>
      <trkpt lat="46.59978" lon="5.50522">
        <ele>383</ele>
        <time>2021-05-29T09:36:31.427Z</time>
      </trkpt>
      <trkpt lat="46.59976" lon="5.50522">
        <ele>383</ele>
        <time>2021-05-29T09:36:32.426Z</time>
      </trkpt>
      <trkpt lat="46.59974" lon="5.50522">
        <ele>383</ele>
        <time>2021-05-29T09:36:33.426Z</time>
      </trkpt>
      <trkpt lat="46.59971" lon="5.50522">
        <ele>384</ele>
        <time>2021-05-29T09:36:34.427Z</time>
      </trkpt>
      <trkpt lat="46.59969" lon="5.50522">
        <ele>384</ele>
        <time>2021-05-29T09:36:35.426Z</time>
      </trkpt>
      <trkpt lat="46.59967" lon="5.50522">
        <ele>385</ele>
        <time>2021-05-29T09:36:36.426Z</time>
      </trkpt>
      <trkpt lat="46.59966" lon="5.50522">
        <ele>385</ele>
        <time>2021-05-29T09:36:37.426Z</time>
      </trkpt>
      <trkpt lat="46.59963" lon="5.50522">
        <ele>385</ele>
        <time>2021-05-29T09:36:38.427Z</time>
      </trkpt>
      <trkpt lat="46.59962" lon="5.50522">
        <ele>386</ele>
        <time>2021-05-29T09:36:39.426Z</time>
      </trkpt>
      <trkpt lat="46.5996" lon="5.50523">
        <ele>386</ele>
        <time>2021-05-29T09:36:40.426Z</time>
      </trkpt>
      <trkpt lat="46.59958" lon="5.50523">
        <ele>386</ele>
        <time>2021-05-29T09:36:41.426Z</time>
      </trkpt>
      <trkpt lat="46.59957" lon="5.50523">
        <ele>386</ele>
        <time>2021-05-29T09:36:42.426Z</time>
      </trkpt>
      <trkpt lat="46.59955" lon="5.50524">
        <ele>387</ele>
        <time>2021-05-29T09:36:43.426Z</time>
      </trkpt>
      <trkpt lat="46.59953" lon="5.50524">
        <ele>387</ele>
        <time>2021-05-29T09:36:44.427Z</time>
      </trkpt>
      <trkpt lat="46.59952" lon="5.50525">
        <ele>387</ele>
        <time>2021-05-29T09:36:45.426Z</time>
      </trkpt>
      <trkpt lat="46.5995" lon="5.50526">
        <ele>387</ele>
        <time>2021-05-29T09:36:46.427Z</time>
      </trkpt>
      <trkpt lat="46.59949" lon="5.50527">
        <ele>387</ele>
        <time>2021-05-29T09:36:47.427Z</time>
      </trkpt>
      <trkpt lat="46.59947" lon="5.50527">
        <ele>387</ele>
        <time>2021-05-29T09:36:48.427Z</time>
      </trkpt>
      <trkpt lat="46.59946" lon="5.50528">
        <ele>387</ele>
        <time>2021-05-29T09:36:49.426Z</time>
      </trkpt>
      <trkpt lat="46.59945" lon="5.5053">
        <ele>387</ele>
        <time>2021-05-29T09:36:50.427Z</time>
      </trkpt>
      <trkpt lat="46.59944" lon="5.50531">
        <ele>386</ele>
        <time>2021-05-29T09:36:51.426Z</time>
      </trkpt>
      <trkpt lat="46.59942" lon="5.50532">
        <ele>386</ele>
        <time>2021-05-29T09:36:52.426Z</time>
      </trkpt>
      <trkpt lat="46.59941" lon="5.50534">
        <ele>386</ele>
        <time>2021-05-29T09:36:53.426Z</time>
      </trkpt>
      <trkpt lat="46.5994" lon="5.50535">
        <ele>387</ele>
        <time>2021-05-29T09:36:54.427Z</time>
      </trkpt>
      <trkpt lat="46.59939" lon="5.50537">
        <ele>386</ele>
        <time>2021-05-29T09:36:55.427Z</time>
      </trkpt>
      <trkpt lat="46.59938" lon="5.50539">
        <ele>386</ele>
        <time>2021-05-29T09:36:56.426Z</time>
      </trkpt>
      <trkpt lat="46.59937" lon="5.5054">
        <ele>386</ele>
        <time>2021-05-29T09:36:57.426Z</time>
      </trkpt>
      <trkpt lat="46.59937" lon="5.50542">
        <ele>386</ele>
        <time>2021-05-29T09:36:58.427Z</time>
      </trkpt>
      <trkpt lat="46.59936" lon="5.50543">
        <ele>385</ele>
        <time>2021-05-29T09:36:59.426Z</time>
      </trkpt>
      <trkpt lat="46.59934" lon="5.50547">
        <ele>382</ele>
        <time>2021-05-29T09:37:00.428Z</time>
      </trkpt>
      <trkpt lat="46.59934" lon="5.50547">
        <ele>382</ele>
        <time>2021-05-29T09:37:01.428Z</time>
      </trkpt>
      <trkpt lat="46.59934" lon="5.50547">
        <ele>382</ele>
        <time>2021-05-29T09:37:02.427Z</time>
      </trkpt>
      <trkpt lat="46.59934" lon="5.50547">
        <ele>382</ele>
        <time>2021-05-29T09:37:03.428Z</time>
      </trkpt>
      <trkpt lat="46.59934" lon="5.50547">
        <ele>382</ele>
        <time>2021-05-29T09:37:04.428Z</time>
      </trkpt>
      <trkpt lat="46.59934" lon="5.50548">
        <ele>382</ele>
        <time>2021-05-29T09:37:05.427Z</time>
      </trkpt>
      <trkpt lat="46.59933" lon="5.5055">
        <ele>382</ele>
        <time>2021-05-29T09:37:06.428Z</time>
      </trkpt>
      <trkpt lat="46.59932" lon="5.50553">
        <ele>382</ele>
        <time>2021-05-29T09:37:07.427Z</time>
      </trkpt>
      <trkpt lat="46.59932" lon="5.50556">
        <ele>382</ele>
        <time>2021-05-29T09:37:08.428Z</time>
      </trkpt>
      <trkpt lat="46.59931" lon="5.5056">
        <ele>382</ele>
        <time>2021-05-29T09:37:09.428Z</time>
      </trkpt>
      <trkpt lat="46.59931" lon="5.50563">
        <ele>381</ele>
        <time>2021-05-29T09:37:10.428Z</time>
      </trkpt>
      <trkpt lat="46.59931" lon="5.50566">
        <ele>381</ele>
        <time>2021-05-29T09:37:11.428Z</time>
      </trkpt>
      <trkpt lat="46.59931" lon="5.50569">
        <ele>381</ele>
        <time>2021-05-29T09:37:12.428Z</time>
      </trkpt>
      <trkpt lat="46.59932" lon="5.50573">
        <ele>381</ele>
        <time>2021-05-29T09:37:13.427Z</time>
      </trkpt>
      <trkpt lat="46.59933" lon="5.50577">
        <ele>381</ele>
        <time>2021-05-29T09:37:14.428Z</time>
      </trkpt>
      <trkpt lat="46.59933" lon="5.50579">
        <ele>381</ele>
        <time>2021-05-29T09:37:15.428Z</time>
      </trkpt>
      <trkpt lat="46.59933" lon="5.50581">
        <ele>381</ele>
        <time>2021-05-29T09:37:16.428Z</time>
      </trkpt>
      <trkpt lat="46.59933" lon="5.50583">
        <ele>382</ele>
        <time>2021-05-29T09:37:17.428Z</time>
      </trkpt>
      <trkpt lat="46.59933" lon="5.50586">
        <ele>382</ele>
        <time>2021-05-29T09:37:18.427Z</time>
      </trkpt>
      <trkpt lat="46.59934" lon="5.50588">
        <ele>382</ele>
        <time>2021-05-29T09:37:19.427Z</time>
      </trkpt>
      <trkpt lat="46.59934" lon="5.50591">
        <ele>382</ele>
        <time>2021-05-29T09:37:20.428Z</time>
      </trkpt>
      <trkpt lat="46.59935" lon="5.50594">
        <ele>383</ele>
        <time>2021-05-29T09:37:21.428Z</time>
      </trkpt>
      <trkpt lat="46.59935" lon="5.50596">
        <ele>382</ele>
        <time>2021-05-29T09:37:22.428Z</time>
      </trkpt>
      <trkpt lat="46.59936" lon="5.50598">
        <ele>382</ele>
        <time>2021-05-29T09:37:23.427Z</time>
      </trkpt>
      <trkpt lat="46.59936" lon="5.506">
        <ele>382</ele>
        <time>2021-05-29T09:37:24.428Z</time>
      </trkpt>
      <trkpt lat="46.59937" lon="5.50601">
        <ele>381</ele>
        <time>2021-05-29T09:37:25.428Z</time>
      </trkpt>
      <trkpt lat="46.59937" lon="5.50602">
        <ele>381</ele>
        <time>2021-05-29T09:37:26.427Z</time>
      </trkpt>
      <trkpt lat="46.59938" lon="5.50603">
        <ele>381</ele>
        <time>2021-05-29T09:37:27.428Z</time>
      </trkpt>
      <trkpt lat="46.59939" lon="5.50603">
        <ele>381</ele>
        <time>2021-05-29T09:37:28.428Z</time>
      </trkpt>
      <trkpt lat="46.5994" lon="5.50602">
        <ele>381</ele>
        <time>2021-05-29T09:37:29.428Z</time>
      </trkpt>
      <trkpt lat="46.59941" lon="5.50602">
        <ele>381</ele>
        <time>2021-05-29T09:37:30.428Z</time>
      </trkpt>
      <trkpt lat="46.59942" lon="5.50601">
        <ele>382</ele>
        <time>2021-05-29T09:37:31.428Z</time>
      </trkpt>
      <trkpt lat="46.59943" lon="5.506">
        <ele>382</ele>
        <time>2021-05-29T09:37:32.428Z</time>
      </trkpt>
      <trkpt lat="46.59945" lon="5.50599">
        <ele>383</ele>
        <time>2021-05-29T09:37:33.427Z</time>
      </trkpt>
      <trkpt lat="46.59946" lon="5.50599">
        <ele>383</ele>
        <time>2021-05-29T09:37:34.428Z</time>
      </trkpt>
      <trkpt lat="46.59947" lon="5.50599">
        <ele>383</ele>
        <time>2021-05-29T09:37:35.428Z</time>
      </trkpt>
      <trkpt lat="46.59949" lon="5.50599">
        <ele>384</ele>
        <time>2021-05-29T09:37:36.428Z</time>
      </trkpt>
      <trkpt lat="46.5995" lon="5.50599">
        <ele>385</ele>
        <time>2021-05-29T09:37:37.428Z</time>
      </trkpt>
      <trkpt lat="46.59951" lon="5.50599">
        <ele>385</ele>
        <time>2021-05-29T09:37:38.428Z</time>
      </trkpt>
      <trkpt lat="46.59952" lon="5.50599">
        <ele>386</ele>
        <time>2021-05-29T09:37:39.428Z</time>
      </trkpt>
      <trkpt lat="46.59953" lon="5.50598">
        <ele>387</ele>
        <time>2021-05-29T09:37:40.428Z</time>
      </trkpt>
      <trkpt lat="46.59955" lon="5.50597">
        <ele>388</ele>
        <time>2021-05-29T09:37:41.428Z</time>
      </trkpt>
      <trkpt lat="46.59956" lon="5.50596">
        <ele>388</ele>
        <time>2021-05-29T09:37:42.428Z</time>
      </trkpt>
      <trkpt lat="46.59957" lon="5.50595">
        <ele>388</ele>
        <time>2021-05-29T09:37:43.428Z</time>
      </trkpt>
      <trkpt lat="46.59958" lon="5.50594">
        <ele>389</ele>
        <time>2021-05-29T09:37:44.428Z</time>
      </trkpt>
      <trkpt lat="46.5996" lon="5.50593">
        <ele>389</ele>
        <time>2021-05-29T09:37:45.427Z</time>
      </trkpt>
      <trkpt lat="46.59961" lon="5.50592">
        <ele>390</ele>
        <time>2021-05-29T09:37:46.428Z</time>
      </trkpt>
      <trkpt lat="46.59963" lon="5.50591">
        <ele>390</ele>
        <time>2021-05-29T09:37:47.428Z</time>
      </trkpt>
      <trkpt lat="46.59965" lon="5.50591">
        <ele>391</ele>
        <time>2021-05-29T09:37:48.428Z</time>
      </trkpt>
      <trkpt lat="46.59967" lon="5.50592">
        <ele>391</ele>
        <time>2021-05-29T09:37:49.428Z</time>
      </trkpt>
      <trkpt lat="46.59968" lon="5.50593">
        <ele>391</ele>
        <time>2021-05-29T09:37:50.428Z</time>
      </trkpt>
      <trkpt lat="46.59969" lon="5.50594">
        <ele>391</ele>
        <time>2021-05-29T09:37:51.428Z</time>
      </trkpt>
      <trkpt lat="46.59969" lon="5.50595">
        <ele>392</ele>
        <time>2021-05-29T09:37:52.427Z</time>
      </trkpt>
      <trkpt lat="46.5997" lon="5.50595">
        <ele>392</ele>
        <time>2021-05-29T09:37:53.428Z</time>
      </trkpt>
      <trkpt lat="46.59971" lon="5.50596">
        <ele>392</ele>
        <time>2021-05-29T09:37:54.428Z</time>
      </trkpt>
      <trkpt lat="46.59972" lon="5.50597">
        <ele>392</ele>
        <time>2021-05-29T09:37:55.428Z</time>
      </trkpt>
      <trkpt lat="46.59972" lon="5.50598">
        <ele>393</ele>
        <time>2021-05-29T09:37:56.428Z</time>
      </trkpt>
      <trkpt lat="46.59973" lon="5.50599">
        <ele>392</ele>
        <time>2021-05-29T09:37:57.428Z</time>
      </trkpt>
      <trkpt lat="46.59975" lon="5.506">
        <ele>392</ele>
        <time>2021-05-29T09:37:58.427Z</time>
      </trkpt>
      <trkpt lat="46.59976" lon="5.50602">
        <ele>392</ele>
        <time>2021-05-29T09:37:59.428Z</time>
      </trkpt>
      <trkpt lat="46.59978" lon="5.50603">
        <ele>392</ele>
        <time>2021-05-29T09:38:00.428Z</time>
      </trkpt>
      <trkpt lat="46.59981" lon="5.50605">
        <ele>392</ele>
        <time>2021-05-29T09:38:01.428Z</time>
      </trkpt>
      <trkpt lat="46.59982" lon="5.50606">
        <ele>392</ele>
        <time>2021-05-29T09:38:02.428Z</time>
      </trkpt>
      <trkpt lat="46.59983" lon="5.50608">
        <ele>392</ele>
        <time>2021-05-29T09:38:03.428Z</time>
      </trkpt>
      <trkpt lat="46.59985" lon="5.5061">
        <ele>392</ele>
        <time>2021-05-29T09:38:04.428Z</time>
      </trkpt>
      <trkpt lat="46.59986" lon="5.50611">
        <ele>392</ele>
        <time>2021-05-29T09:38:05.428Z</time>
      </trkpt>
      <trkpt lat="46.59988" lon="5.50613">
        <ele>392</ele>
        <time>2021-05-29T09:38:06.428Z</time>
      </trkpt>
      <trkpt lat="46.5999" lon="5.50616">
        <ele>392</ele>
        <time>2021-05-29T09:38:07.427Z</time>
      </trkpt>
      <trkpt lat="46.59992" lon="5.50618">
        <ele>393</ele>
        <time>2021-05-29T09:38:08.428Z</time>
      </trkpt>
      <trkpt lat="46.59993" lon="5.5062">
        <ele>393</ele>
        <time>2021-05-29T09:38:09.427Z</time>
      </trkpt>
      <trkpt lat="46.59995" lon="5.50622">
        <ele>393</ele>
        <time>2021-05-29T09:38:10.428Z</time>
      </trkpt>
      <trkpt lat="46.59997" lon="5.50625">
        <ele>393</ele>
        <time>2021-05-29T09:38:11.427Z</time>
      </trkpt>
      <trkpt lat="46.59998" lon="5.50628">
        <ele>393</ele>
        <time>2021-05-29T09:38:12.428Z</time>
      </trkpt>
      <trkpt lat="46.59999" lon="5.50631">
        <ele>393</ele>
        <time>2021-05-29T09:38:13.428Z</time>
      </trkpt>
      <trkpt lat="46.6" lon="5.50634">
        <ele>393</ele>
        <time>2021-05-29T09:38:14.428Z</time>
      </trkpt>
      <trkpt lat="46.6" lon="5.50636">
        <ele>393</ele>
        <time>2021-05-29T09:38:15.428Z</time>
      </trkpt>
      <trkpt lat="46.60001" lon="5.50639">
        <ele>392</ele>
        <time>2021-05-29T09:38:16.428Z</time>
      </trkpt>
      <trkpt lat="46.60002" lon="5.50641">
        <ele>392</ele>
        <time>2021-05-29T09:38:17.427Z</time>
      </trkpt>
      <trkpt lat="46.60003" lon="5.50643">
        <ele>391</ele>
        <time>2021-05-29T09:38:18.428Z</time>
      </trkpt>
      <trkpt lat="46.60003" lon="5.50646">
        <ele>391</ele>
        <time>2021-05-29T09:38:19.428Z</time>
      </trkpt>
      <trkpt lat="46.60004" lon="5.50648">
        <ele>391</ele>
        <time>2021-05-29T09:38:20.428Z</time>
      </trkpt>
      <trkpt lat="46.60006" lon="5.5065">
        <ele>390</ele>
        <time>2021-05-29T09:38:21.428Z</time>
      </trkpt>
      <trkpt lat="46.60007" lon="5.50653">
        <ele>390</ele>
        <time>2021-05-29T09:38:22.428Z</time>
      </trkpt>
      <trkpt lat="46.60007" lon="5.50654">
        <ele>391</ele>
        <time>2021-05-29T09:38:23.427Z</time>
      </trkpt>
      <trkpt lat="46.60008" lon="5.50656">
        <ele>391</ele>
        <time>2021-05-29T09:38:24.428Z</time>
      </trkpt>
      <trkpt lat="46.6001" lon="5.50658">
        <ele>391</ele>
        <time>2021-05-29T09:38:25.428Z</time>
      </trkpt>
      <trkpt lat="46.60011" lon="5.5066">
        <ele>391</ele>
        <time>2021-05-29T09:38:26.427Z</time>
      </trkpt>
      <trkpt lat="46.60013" lon="5.50661">
        <ele>392</ele>
        <time>2021-05-29T09:38:27.428Z</time>
      </trkpt>
      <trkpt lat="46.60015" lon="5.50662">
        <ele>392</ele>
        <time>2021-05-29T09:38:28.427Z</time>
      </trkpt>
      <trkpt lat="46.60017" lon="5.50664">
        <ele>393</ele>
        <time>2021-05-29T09:38:29.428Z</time>
      </trkpt>
      <trkpt lat="46.60019" lon="5.50665">
        <ele>394</ele>
        <time>2021-05-29T09:38:30.428Z</time>
      </trkpt>
      <trkpt lat="46.60021" lon="5.50666">
        <ele>394</ele>
        <time>2021-05-29T09:38:31.428Z</time>
      </trkpt>
      <trkpt lat="46.60024" lon="5.50667">
        <ele>394</ele>
        <time>2021-05-29T09:38:32.428Z</time>
      </trkpt>
      <trkpt lat="46.60026" lon="5.50668">
        <ele>394</ele>
        <time>2021-05-29T09:38:33.428Z</time>
      </trkpt>
      <trkpt lat="46.60028" lon="5.5067">
        <ele>394</ele>
        <time>2021-05-29T09:38:34.428Z</time>
      </trkpt>
      <trkpt lat="46.6003" lon="5.50671">
        <ele>394</ele>
        <time>2021-05-29T09:38:35.428Z</time>
      </trkpt>
      <trkpt lat="46.60031" lon="5.50672">
        <ele>395</ele>
        <time>2021-05-29T09:38:36.428Z</time>
      </trkpt>
      <trkpt lat="46.60033" lon="5.50673">
        <ele>396</ele>
        <time>2021-05-29T09:38:37.428Z</time>
      </trkpt>
      <trkpt lat="46.60035" lon="5.50674">
        <ele>397</ele>
        <time>2021-05-29T09:38:38.428Z</time>
      </trkpt>
      <trkpt lat="46.60036" lon="5.50676">
        <ele>398</ele>
        <time>2021-05-29T09:38:39.428Z</time>
      </trkpt>
      <trkpt lat="46.60038" lon="5.50677">
        <ele>399</ele>
        <time>2021-05-29T09:38:40.428Z</time>
      </trkpt>
      <trkpt lat="46.60039" lon="5.50679">
        <ele>400</ele>
        <time>2021-05-29T09:38:41.427Z</time>
      </trkpt>
      <trkpt lat="46.6004" lon="5.50681">
        <ele>400</ele>
        <time>2021-05-29T09:38:42.428Z</time>
      </trkpt>
      <trkpt lat="46.60042" lon="5.50683">
        <ele>401</ele>
        <time>2021-05-29T09:38:43.428Z</time>
      </trkpt>
      <trkpt lat="46.60044" lon="5.50685">
        <ele>401</ele>
        <time>2021-05-29T09:38:44.427Z</time>
      </trkpt>
      <trkpt lat="46.60045" lon="5.50687">
        <ele>402</ele>
        <time>2021-05-29T09:38:45.428Z</time>
      </trkpt>
      <trkpt lat="46.60047" lon="5.50689">
        <ele>402</ele>
        <time>2021-05-29T09:38:46.428Z</time>
      </trkpt>
      <trkpt lat="46.60048" lon="5.5069">
        <ele>402</ele>
        <time>2021-05-29T09:38:47.428Z</time>
      </trkpt>
      <trkpt lat="46.6005" lon="5.50692">
        <ele>403</ele>
        <time>2021-05-29T09:38:48.427Z</time>
      </trkpt>
      <trkpt lat="46.60051" lon="5.50694">
        <ele>403</ele>
        <time>2021-05-29T09:38:49.427Z</time>
      </trkpt>
      <trkpt lat="46.60052" lon="5.50695">
        <ele>403</ele>
        <time>2021-05-29T09:38:50.428Z</time>
      </trkpt>
      <trkpt lat="46.60053" lon="5.50697">
        <ele>403</ele>
        <time>2021-05-29T09:38:51.428Z</time>
      </trkpt>
      <trkpt lat="46.60054" lon="5.50698">
        <ele>403</ele>
        <time>2021-05-29T09:38:52.428Z</time>
      </trkpt>
      <trkpt lat="46.60055" lon="5.507">
        <ele>403</ele>
        <time>2021-05-29T09:38:53.428Z</time>
      </trkpt>
      <trkpt lat="46.60056" lon="5.50702">
        <ele>404</ele>
        <time>2021-05-29T09:38:54.428Z</time>
      </trkpt>
      <trkpt lat="46.60057" lon="5.50703">
        <ele>404</ele>
        <time>2021-05-29T09:38:55.427Z</time>
      </trkpt>
      <trkpt lat="46.60058" lon="5.50705">
        <ele>404</ele>
        <time>2021-05-29T09:38:56.428Z</time>
      </trkpt>
      <trkpt lat="46.60058" lon="5.50706">
        <ele>403</ele>
        <time>2021-05-29T09:38:57.427Z</time>
      </trkpt>
      <trkpt lat="46.60059" lon="5.50707">
        <ele>403</ele>
        <time>2021-05-29T09:38:58.428Z</time>
      </trkpt>
      <trkpt lat="46.6006" lon="5.50708">
        <ele>402</ele>
        <time>2021-05-29T09:38:59.428Z</time>
      </trkpt>
      <trkpt lat="46.60062" lon="5.50709">
        <ele>402</ele>
        <time>2021-05-29T09:39:00.428Z</time>
      </trkpt>
      <trkpt lat="46.60063" lon="5.50711">
        <ele>402</ele>
        <time>2021-05-29T09:39:01.427Z</time>
      </trkpt>
      <trkpt lat="46.60065" lon="5.50713">
        <ele>402</ele>
        <time>2021-05-29T09:39:02.428Z</time>
      </trkpt>
      <trkpt lat="46.60067" lon="5.50715">
        <ele>402</ele>
        <time>2021-05-29T09:39:03.428Z</time>
      </trkpt>
      <trkpt lat="46.60068" lon="5.50717">
        <ele>403</ele>
        <time>2021-05-29T09:39:04.428Z</time>
      </trkpt>
      <trkpt lat="46.60069" lon="5.50718">
        <ele>403</ele>
        <time>2021-05-29T09:39:05.427Z</time>
      </trkpt>
      <trkpt lat="46.60071" lon="5.5072">
        <ele>403</ele>
        <time>2021-05-29T09:39:06.428Z</time>
      </trkpt>
      <trkpt lat="46.60072" lon="5.50721">
        <ele>403</ele>
        <time>2021-05-29T09:39:07.428Z</time>
      </trkpt>
      <trkpt lat="46.60073" lon="5.50723">
        <ele>404</ele>
        <time>2021-05-29T09:39:08.427Z</time>
      </trkpt>
      <trkpt lat="46.60074" lon="5.50724">
        <ele>404</ele>
        <time>2021-05-29T09:39:09.428Z</time>
      </trkpt>
      <trkpt lat="46.60075" lon="5.50726">
        <ele>404</ele>
        <time>2021-05-29T09:39:10.428Z</time>
      </trkpt>
      <trkpt lat="46.60077" lon="5.50727">
        <ele>405</ele>
        <time>2021-05-29T09:39:11.428Z</time>
      </trkpt>
      <trkpt lat="46.60079" lon="5.50729">
        <ele>405</ele>
        <time>2021-05-29T09:39:12.428Z</time>
      </trkpt>
      <trkpt lat="46.60081" lon="5.50731">
        <ele>405</ele>
        <time>2021-05-29T09:39:13.428Z</time>
      </trkpt>
      <trkpt lat="46.60083" lon="5.50733">
        <ele>405</ele>
        <time>2021-05-29T09:39:14.428Z</time>
      </trkpt>
      <trkpt lat="46.60085" lon="5.50735">
        <ele>406</ele>
        <time>2021-05-29T09:39:15.428Z</time>
      </trkpt>
      <trkpt lat="46.60087" lon="5.50736">
        <ele>406</ele>
        <time>2021-05-29T09:39:16.428Z</time>
      </trkpt>
      <trkpt lat="46.60089" lon="5.50738">
        <ele>407</ele>
        <time>2021-05-29T09:39:17.428Z</time>
      </trkpt>
      <trkpt lat="46.6009" lon="5.50739">
        <ele>407</ele>
        <time>2021-05-29T09:39:18.428Z</time>
      </trkpt>
      <trkpt lat="46.60091" lon="5.5074">
        <ele>407</ele>
        <time>2021-05-29T09:39:19.428Z</time>
      </trkpt>
      <trkpt lat="46.60092" lon="5.50741">
        <ele>408</ele>
        <time>2021-05-29T09:39:20.428Z</time>
      </trkpt>
      <trkpt lat="46.60094" lon="5.50742">
        <ele>409</ele>
        <time>2021-05-29T09:39:21.427Z</time>
      </trkpt>
      <trkpt lat="46.60096" lon="5.50744">
        <ele>409</ele>
        <time>2021-05-29T09:39:22.428Z</time>
      </trkpt>
      <trkpt lat="46.60097" lon="5.50746">
        <ele>410</ele>
        <time>2021-05-29T09:39:23.428Z</time>
      </trkpt>
      <trkpt lat="46.60098" lon="5.50747">
        <ele>411</ele>
        <time>2021-05-29T09:39:24.428Z</time>
      </trkpt>
      <trkpt lat="46.60099" lon="5.50749">
        <ele>411</ele>
        <time>2021-05-29T09:39:25.428Z</time>
      </trkpt>
      <trkpt lat="46.601" lon="5.5075">
        <ele>412</ele>
        <time>2021-05-29T09:39:26.428Z</time>
      </trkpt>
      <trkpt lat="46.60101" lon="5.50752">
        <ele>412</ele>
        <time>2021-05-29T09:39:27.427Z</time>
      </trkpt>
      <trkpt lat="46.60103" lon="5.50754">
        <ele>413</ele>
        <time>2021-05-29T09:39:28.428Z</time>
      </trkpt>
      <trkpt lat="46.60104" lon="5.50756">
        <ele>413</ele>
        <time>2021-05-29T09:39:29.428Z</time>
      </trkpt>
      <trkpt lat="46.60105" lon="5.50757">
        <ele>413</ele>
        <time>2021-05-29T09:39:30.427Z</time>
      </trkpt>
      <trkpt lat="46.60107" lon="5.50758">
        <ele>414</ele>
        <time>2021-05-29T09:39:31.428Z</time>
      </trkpt>
      <trkpt lat="46.60108" lon="5.5076">
        <ele>414</ele>
        <time>2021-05-29T09:39:32.428Z</time>
      </trkpt>
      <trkpt lat="46.6011" lon="5.50761">
        <ele>415</ele>
        <time>2021-05-29T09:39:33.428Z</time>
      </trkpt>
      <trkpt lat="46.60112" lon="5.50763">
        <ele>415</ele>
        <time>2021-05-29T09:39:34.428Z</time>
      </trkpt>
      <trkpt lat="46.60114" lon="5.50764">
        <ele>416</ele>
        <time>2021-05-29T09:39:35.427Z</time>
      </trkpt>
      <trkpt lat="46.60115" lon="5.50766">
        <ele>417</ele>
        <time>2021-05-29T09:39:36.428Z</time>
      </trkpt>
      <trkpt lat="46.60117" lon="5.50767">
        <ele>417</ele>
        <time>2021-05-29T09:39:37.428Z</time>
      </trkpt>
      <trkpt lat="46.60118" lon="5.50769">
        <ele>418</ele>
        <time>2021-05-29T09:39:38.428Z</time>
      </trkpt>
      <trkpt lat="46.6012" lon="5.50771">
        <ele>419</ele>
        <time>2021-05-29T09:39:39.428Z</time>
      </trkpt>
      <trkpt lat="46.60121" lon="5.50773">
        <ele>419</ele>
        <time>2021-05-29T09:39:40.428Z</time>
      </trkpt>
      <trkpt lat="46.60123" lon="5.50774">
        <ele>419</ele>
        <time>2021-05-29T09:39:41.427Z</time>
      </trkpt>
      <trkpt lat="46.60124" lon="5.50775">
        <ele>420</ele>
        <time>2021-05-29T09:39:42.428Z</time>
      </trkpt>
      <trkpt lat="46.60125" lon="5.50777">
        <ele>421</ele>
        <time>2021-05-29T09:39:43.428Z</time>
      </trkpt>
      <trkpt lat="46.60126" lon="5.50778">
        <ele>421</ele>
        <time>2021-05-29T09:39:44.428Z</time>
      </trkpt>
      <trkpt lat="46.60126" lon="5.50779">
        <ele>422</ele>
        <time>2021-05-29T09:39:45.428Z</time>
      </trkpt>
      <trkpt lat="46.60127" lon="5.5078">
        <ele>422</ele>
        <time>2021-05-29T09:39:46.428Z</time>
      </trkpt>
      <trkpt lat="46.60129" lon="5.50781">
        <ele>423</ele>
        <time>2021-05-29T09:39:47.428Z</time>
      </trkpt>
      <trkpt lat="46.6013" lon="5.50781">
        <ele>423</ele>
        <time>2021-05-29T09:39:48.428Z</time>
      </trkpt>
      <trkpt lat="46.60131" lon="5.50782">
        <ele>423</ele>
        <time>2021-05-29T09:39:49.428Z</time>
      </trkpt>
      <trkpt lat="46.60133" lon="5.50784">
        <ele>423</ele>
        <time>2021-05-29T09:39:50.428Z</time>
      </trkpt>
      <trkpt lat="46.60134" lon="5.50785">
        <ele>423</ele>
        <time>2021-05-29T09:39:51.428Z</time>
      </trkpt>
      <trkpt lat="46.60135" lon="5.50787">
        <ele>423</ele>
        <time>2021-05-29T09:39:52.428Z</time>
      </trkpt>
      <trkpt lat="46.60137" lon="5.50788">
        <ele>424</ele>
        <time>2021-05-29T09:39:53.428Z</time>
      </trkpt>
      <trkpt lat="46.60138" lon="5.50789">
        <ele>424</ele>
        <time>2021-05-29T09:39:54.428Z</time>
      </trkpt>
      <trkpt lat="46.60138" lon="5.50791">
        <ele>424</ele>
        <time>2021-05-29T09:39:55.428Z</time>
      </trkpt>
      <trkpt lat="46.60139" lon="5.50792">
        <ele>424</ele>
        <time>2021-05-29T09:39:56.428Z</time>
      </trkpt>
      <trkpt lat="46.60139" lon="5.50794">
        <ele>424</ele>
        <time>2021-05-29T09:39:57.428Z</time>
      </trkpt>
      <trkpt lat="46.6014" lon="5.50796">
        <ele>424</ele>
        <time>2021-05-29T09:39:58.428Z</time>
      </trkpt>
      <trkpt lat="46.60141" lon="5.50797">
        <ele>424</ele>
        <time>2021-05-29T09:39:59.428Z</time>
      </trkpt>
      <trkpt lat="46.60142" lon="5.50799">
        <ele>424</ele>
        <time>2021-05-29T09:40:00.428Z</time>
      </trkpt>
      <trkpt lat="46.60143" lon="5.508">
        <ele>424</ele>
        <time>2021-05-29T09:40:01.428Z</time>
      </trkpt>
      <trkpt lat="46.60145" lon="5.50802">
        <ele>424</ele>
        <time>2021-05-29T09:40:02.428Z</time>
      </trkpt>
      <trkpt lat="46.60146" lon="5.50804">
        <ele>424</ele>
        <time>2021-05-29T09:40:03.428Z</time>
      </trkpt>
      <trkpt lat="46.60148" lon="5.50806">
        <ele>424</ele>
        <time>2021-05-29T09:40:04.427Z</time>
      </trkpt>
      <trkpt lat="46.60149" lon="5.50807">
        <ele>424</ele>
        <time>2021-05-29T09:40:05.428Z</time>
      </trkpt>
      <trkpt lat="46.6015" lon="5.50809">
        <ele>425</ele>
        <time>2021-05-29T09:40:06.428Z</time>
      </trkpt>
      <trkpt lat="46.60152" lon="5.5081">
        <ele>425</ele>
        <time>2021-05-29T09:40:07.428Z</time>
      </trkpt>
      <trkpt lat="46.60153" lon="5.50812">
        <ele>425</ele>
        <time>2021-05-29T09:40:08.427Z</time>
      </trkpt>
      <trkpt lat="46.60154" lon="5.50814">
        <ele>425</ele>
        <time>2021-05-29T09:40:09.428Z</time>
      </trkpt>
      <trkpt lat="46.60155" lon="5.50815">
        <ele>425</ele>
        <time>2021-05-29T09:40:10.428Z</time>
      </trkpt>
      <trkpt lat="46.60156" lon="5.50817">
        <ele>425</ele>
        <time>2021-05-29T09:40:11.428Z</time>
      </trkpt>
      <trkpt lat="46.60157" lon="5.50818">
        <ele>424</ele>
        <time>2021-05-29T09:40:12.427Z</time>
      </trkpt>
      <trkpt lat="46.60159" lon="5.5082">
        <ele>424</ele>
        <time>2021-05-29T09:40:13.428Z</time>
      </trkpt>
      <trkpt lat="46.6016" lon="5.50821">
        <ele>423</ele>
        <time>2021-05-29T09:40:14.427Z</time>
      </trkpt>
      <trkpt lat="46.60162" lon="5.50823">
        <ele>422</ele>
        <time>2021-05-29T09:40:15.427Z</time>
      </trkpt>
      <trkpt lat="46.60163" lon="5.50825">
        <ele>421</ele>
        <time>2021-05-29T09:40:16.428Z</time>
      </trkpt>
      <trkpt lat="46.60165" lon="5.50827">
        <ele>421</ele>
        <time>2021-05-29T09:40:17.428Z</time>
      </trkpt>
      <trkpt lat="46.60167" lon="5.50829">
        <ele>420</ele>
        <time>2021-05-29T09:40:18.428Z</time>
      </trkpt>
      <trkpt lat="46.60168" lon="5.5083">
        <ele>420</ele>
        <time>2021-05-29T09:40:19.428Z</time>
      </trkpt>
      <trkpt lat="46.60169" lon="5.50832">
        <ele>419</ele>
        <time>2021-05-29T09:40:20.427Z</time>
      </trkpt>
      <trkpt lat="46.60171" lon="5.50834">
        <ele>419</ele>
        <time>2021-05-29T09:40:21.428Z</time>
      </trkpt>
      <trkpt lat="46.60172" lon="5.50835">
        <ele>419</ele>
        <time>2021-05-29T09:40:22.428Z</time>
      </trkpt>
      <trkpt lat="46.60174" lon="5.50837">
        <ele>419</ele>
        <time>2021-05-29T09:40:23.428Z</time>
      </trkpt>
      <trkpt lat="46.60175" lon="5.50838">
        <ele>419</ele>
        <time>2021-05-29T09:40:24.428Z</time>
      </trkpt>
      <trkpt lat="46.60177" lon="5.5084">
        <ele>419</ele>
        <time>2021-05-29T09:40:25.428Z</time>
      </trkpt>
      <trkpt lat="46.60179" lon="5.50842">
        <ele>419</ele>
        <time>2021-05-29T09:40:26.428Z</time>
      </trkpt>
      <trkpt lat="46.60182" lon="5.50843">
        <ele>419</ele>
        <time>2021-05-29T09:40:27.428Z</time>
      </trkpt>
      <trkpt lat="46.60184" lon="5.50844">
        <ele>419</ele>
        <time>2021-05-29T09:40:28.428Z</time>
      </trkpt>
      <trkpt lat="46.60185" lon="5.50846">
        <ele>419</ele>
        <time>2021-05-29T09:40:29.427Z</time>
      </trkpt>
      <trkpt lat="46.60187" lon="5.50848">
        <ele>420</ele>
        <time>2021-05-29T09:40:30.428Z</time>
      </trkpt>
      <trkpt lat="46.60188" lon="5.50849">
        <ele>420</ele>
        <time>2021-05-29T09:40:31.428Z</time>
      </trkpt>
      <trkpt lat="46.60189" lon="5.50851">
        <ele>421</ele>
        <time>2021-05-29T09:40:32.428Z</time>
      </trkpt>
      <trkpt lat="46.6019" lon="5.50852">
        <ele>421</ele>
        <time>2021-05-29T09:40:33.428Z</time>
      </trkpt>
      <trkpt lat="46.60191" lon="5.50853">
        <ele>422</ele>
        <time>2021-05-29T09:40:34.428Z</time>
      </trkpt>
      <trkpt lat="46.60192" lon="5.50854">
        <ele>422</ele>
        <time>2021-05-29T09:40:35.428Z</time>
      </trkpt>
      <trkpt lat="46.60194" lon="5.50856">
        <ele>423</ele>
        <time>2021-05-29T09:40:36.428Z</time>
      </trkpt>
      <trkpt lat="46.60195" lon="5.50857">
        <ele>423</ele>
        <time>2021-05-29T09:40:37.428Z</time>
      </trkpt>
      <trkpt lat="46.60197" lon="5.50859">
        <ele>424</ele>
        <time>2021-05-29T09:40:38.427Z</time>
      </trkpt>
      <trkpt lat="46.60199" lon="5.5086">
        <ele>424</ele>
        <time>2021-05-29T09:40:39.428Z</time>
      </trkpt>
      <trkpt lat="46.602" lon="5.50861">
        <ele>424</ele>
        <time>2021-05-29T09:40:40.428Z</time>
      </trkpt>
      <trkpt lat="46.60201" lon="5.50862">
        <ele>425</ele>
        <time>2021-05-29T09:40:41.428Z</time>
      </trkpt>
      <trkpt lat="46.60202" lon="5.50863">
        <ele>425</ele>
        <time>2021-05-29T09:40:42.427Z</time>
      </trkpt>
      <trkpt lat="46.60204" lon="5.50865">
        <ele>425</ele>
        <time>2021-05-29T09:40:43.428Z</time>
      </trkpt>
      <trkpt lat="46.60205" lon="5.50866">
        <ele>425</ele>
        <time>2021-05-29T09:40:44.428Z</time>
      </trkpt>
      <trkpt lat="46.60207" lon="5.50867">
        <ele>426</ele>
        <time>2021-05-29T09:40:45.428Z</time>
      </trkpt>
      <trkpt lat="46.60208" lon="5.50869">
        <ele>426</ele>
        <time>2021-05-29T09:40:46.427Z</time>
      </trkpt>
      <trkpt lat="46.6021" lon="5.5087">
        <ele>426</ele>
        <time>2021-05-29T09:40:47.428Z</time>
      </trkpt>
      <trkpt lat="46.60211" lon="5.50871">
        <ele>427</ele>
        <time>2021-05-29T09:40:48.428Z</time>
      </trkpt>
      <trkpt lat="46.60213" lon="5.50873">
        <ele>428</ele>
        <time>2021-05-29T09:40:49.428Z</time>
      </trkpt>
      <trkpt lat="46.60214" lon="5.50874">
        <ele>428</ele>
        <time>2021-05-29T09:40:50.428Z</time>
      </trkpt>
      <trkpt lat="46.60216" lon="5.50876">
        <ele>428</ele>
        <time>2021-05-29T09:40:51.427Z</time>
      </trkpt>
      <trkpt lat="46.60217" lon="5.50877">
        <ele>428</ele>
        <time>2021-05-29T09:40:52.428Z</time>
      </trkpt>
      <trkpt lat="46.60219" lon="5.50878">
        <ele>428</ele>
        <time>2021-05-29T09:40:53.427Z</time>
      </trkpt>
      <trkpt lat="46.6022" lon="5.50879">
        <ele>428</ele>
        <time>2021-05-29T09:40:54.428Z</time>
      </trkpt>
      <trkpt lat="46.60221" lon="5.50881">
        <ele>427</ele>
        <time>2021-05-29T09:40:55.428Z</time>
      </trkpt>
      <trkpt lat="46.60223" lon="5.50882">
        <ele>427</ele>
        <time>2021-05-29T09:40:56.428Z</time>
      </trkpt>
      <trkpt lat="46.60224" lon="5.50884">
        <ele>427</ele>
        <time>2021-05-29T09:40:57.427Z</time>
      </trkpt>
      <trkpt lat="46.60226" lon="5.50886">
        <ele>427</ele>
        <time>2021-05-29T09:40:58.428Z</time>
      </trkpt>
      <trkpt lat="46.60227" lon="5.50887">
        <ele>426</ele>
        <time>2021-05-29T09:40:59.428Z</time>
      </trkpt>
      <trkpt lat="46.60228" lon="5.50889">
        <ele>426</ele>
        <time>2021-05-29T09:41:00.428Z</time>
      </trkpt>
      <trkpt lat="46.6023" lon="5.5089">
        <ele>426</ele>
        <time>2021-05-29T09:41:01.428Z</time>
      </trkpt>
      <trkpt lat="46.60231" lon="5.50892">
        <ele>426</ele>
        <time>2021-05-29T09:41:44.611Z</time>
      </trkpt>
      <trkpt lat="46.60233" lon="5.50894">
        <ele>426</ele>
        <time>2021-05-29T09:41:45.611Z</time>
      </trkpt>
      <trkpt lat="46.60234" lon="5.50895">
        <ele>426</ele>
        <time>2021-05-29T09:41:46.611Z</time>
      </trkpt>
      <trkpt lat="46.60237" lon="5.50897">
        <ele>426</ele>
        <time>2021-05-29T09:41:47.610Z</time>
      </trkpt>
      <trkpt lat="46.60239" lon="5.50899">
        <ele>426</ele>
        <time>2021-05-29T09:41:48.611Z</time>
      </trkpt>
      <trkpt lat="46.6024" lon="5.50901">
        <ele>426</ele>
        <time>2021-05-29T09:41:49.610Z</time>
      </trkpt>
      <trkpt lat="46.60242" lon="5.50902">
        <ele>426</ele>
        <time>2021-05-29T09:41:50.611Z</time>
      </trkpt>
      <trkpt lat="46.60244" lon="5.50904">
        <ele>426</ele>
        <time>2021-05-29T09:41:51.610Z</time>
      </trkpt>
      <trkpt lat="46.60246" lon="5.50906">
        <ele>427</ele>
        <time>2021-05-29T09:41:52.611Z</time>
      </trkpt>
      <trkpt lat="46.60247" lon="5.50907">
        <ele>427</ele>
        <time>2021-05-29T09:41:53.611Z</time>
      </trkpt>
      <trkpt lat="46.60249" lon="5.50908">
        <ele>427</ele>
        <time>2021-05-29T09:41:54.611Z</time>
      </trkpt>
      <trkpt lat="46.6025" lon="5.5091">
        <ele>428</ele>
        <time>2021-05-29T09:41:55.611Z</time>
      </trkpt>
      <trkpt lat="46.60252" lon="5.50911">
        <ele>428</ele>
        <time>2021-05-29T09:41:56.610Z</time>
      </trkpt>
      <trkpt lat="46.60253" lon="5.50912">
        <ele>429</ele>
        <time>2021-05-29T09:41:57.611Z</time>
      </trkpt>
      <trkpt lat="46.60255" lon="5.50914">
        <ele>430</ele>
        <time>2021-05-29T09:41:58.611Z</time>
      </trkpt>
      <trkpt lat="46.60257" lon="5.50915">
        <ele>430</ele>
        <time>2021-05-29T09:41:59.611Z</time>
      </trkpt>
      <trkpt lat="46.60259" lon="5.50916">
        <ele>430</ele>
        <time>2021-05-29T09:42:00.611Z</time>
      </trkpt>
      <trkpt lat="46.6026" lon="5.50918">
        <ele>431</ele>
        <time>2021-05-29T09:42:01.611Z</time>
      </trkpt>
      <trkpt lat="46.60261" lon="5.50919">
        <ele>431</ele>
        <time>2021-05-29T09:42:02.611Z</time>
      </trkpt>
      <trkpt lat="46.60263" lon="5.5092">
        <ele>432</ele>
        <time>2021-05-29T09:42:03.611Z</time>
      </trkpt>
      <trkpt lat="46.60264" lon="5.50922">
        <ele>433</ele>
        <time>2021-05-29T09:42:04.611Z</time>
      </trkpt>
      <trkpt lat="46.60266" lon="5.50923">
        <ele>433</ele>
        <time>2021-05-29T09:42:05.610Z</time>
      </trkpt>
      <trkpt lat="46.60268" lon="5.50924">
        <ele>434</ele>
        <time>2021-05-29T09:42:06.611Z</time>
      </trkpt>
      <trkpt lat="46.6027" lon="5.50925">
        <ele>435</ele>
        <time>2021-05-29T09:42:07.611Z</time>
      </trkpt>
      <trkpt lat="46.60271" lon="5.50927">
        <ele>436</ele>
        <time>2021-05-29T09:42:08.611Z</time>
      </trkpt>
      <trkpt lat="46.60274" lon="5.50928">
        <ele>436</ele>
        <time>2021-05-29T09:42:09.611Z</time>
      </trkpt>
      <trkpt lat="46.60276" lon="5.5093">
        <ele>437</ele>
        <time>2021-05-29T09:42:10.611Z</time>
      </trkpt>
      <trkpt lat="46.60278" lon="5.50931">
        <ele>437</ele>
        <time>2021-05-29T09:42:11.611Z</time>
      </trkpt>
      <trkpt lat="46.6028" lon="5.50933">
        <ele>438</ele>
        <time>2021-05-29T09:42:12.611Z</time>
      </trkpt>
      <trkpt lat="46.60281" lon="5.50934">
        <ele>438</ele>
        <time>2021-05-29T09:42:13.610Z</time>
      </trkpt>
      <trkpt lat="46.60283" lon="5.50936">
        <ele>438</ele>
        <time>2021-05-29T09:42:14.611Z</time>
      </trkpt>
      <trkpt lat="46.60285" lon="5.50938">
        <ele>439</ele>
        <time>2021-05-29T09:42:15.611Z</time>
      </trkpt>
      <trkpt lat="46.60286" lon="5.50941">
        <ele>439</ele>
        <time>2021-05-29T09:42:16.611Z</time>
      </trkpt>
      <trkpt lat="46.60286" lon="5.50943">
        <ele>439</ele>
        <time>2021-05-29T09:42:17.610Z</time>
      </trkpt>
      <trkpt lat="46.60287" lon="5.50945">
        <ele>440</ele>
        <time>2021-05-29T09:42:18.611Z</time>
      </trkpt>
      <trkpt lat="46.60288" lon="5.50947">
        <ele>440</ele>
        <time>2021-05-29T09:42:19.611Z</time>
      </trkpt>
      <trkpt lat="46.60288" lon="5.50949">
        <ele>440</ele>
        <time>2021-05-29T09:42:20.611Z</time>
      </trkpt>
      <trkpt lat="46.60289" lon="5.50951">
        <ele>440</ele>
        <time>2021-05-29T09:42:21.611Z</time>
      </trkpt>
      <trkpt lat="46.60289" lon="5.50953">
        <ele>439</ele>
        <time>2021-05-29T09:42:22.611Z</time>
      </trkpt>
      <trkpt lat="46.60289" lon="5.50955">
        <ele>439</ele>
        <time>2021-05-29T09:42:23.611Z</time>
      </trkpt>
      <trkpt lat="46.60289" lon="5.50958">
        <ele>438</ele>
        <time>2021-05-29T09:42:24.611Z</time>
      </trkpt>
      <trkpt lat="46.60289" lon="5.50959">
        <ele>438</ele>
        <time>2021-05-29T09:42:25.611Z</time>
      </trkpt>
      <trkpt lat="46.60288" lon="5.5096">
        <ele>437</ele>
        <time>2021-05-29T09:42:26.611Z</time>
      </trkpt>
      <trkpt lat="46.60287" lon="5.50961">
        <ele>437</ele>
        <time>2021-05-29T09:42:27.611Z</time>
      </trkpt>
      <trkpt lat="46.60285" lon="5.50961">
        <ele>436</ele>
        <time>2021-05-29T09:42:28.610Z</time>
      </trkpt>
      <trkpt lat="46.60283" lon="5.50961">
        <ele>435</ele>
        <time>2021-05-29T09:42:29.611Z</time>
      </trkpt>
      <trkpt lat="46.60281" lon="5.5096">
        <ele>435</ele>
        <time>2021-05-29T09:42:30.610Z</time>
      </trkpt>
      <trkpt lat="46.6028" lon="5.5096">
        <ele>435</ele>
        <time>2021-05-29T09:42:31.611Z</time>
      </trkpt>
      <trkpt lat="46.60279" lon="5.50961">
        <ele>434</ele>
        <time>2021-05-29T09:42:32.611Z</time>
      </trkpt>
      <trkpt lat="46.6028" lon="5.50962">
        <ele>434</ele>
        <time>2021-05-29T09:42:33.611Z</time>
      </trkpt>
      <trkpt lat="46.6028" lon="5.50962">
        <ele>433</ele>
        <time>2021-05-29T09:42:34.610Z</time>
      </trkpt>
      <trkpt lat="46.6028" lon="5.50963">
        <ele>432</ele>
        <time>2021-05-29T09:42:35.611Z</time>
      </trkpt>
      <trkpt lat="46.60279" lon="5.50963">
        <ele>432</ele>
        <time>2021-05-29T09:42:36.610Z</time>
      </trkpt>
      <trkpt lat="46.60278" lon="5.50963">
        <ele>432</ele>
        <time>2021-05-29T09:42:37.611Z</time>
      </trkpt>
      <trkpt lat="46.60276" lon="5.50963">
        <ele>432</ele>
        <time>2021-05-29T09:42:38.611Z</time>
      </trkpt>
      <trkpt lat="46.60275" lon="5.50963">
        <ele>433</ele>
        <time>2021-05-29T09:42:39.611Z</time>
      </trkpt>
      <trkpt lat="46.60273" lon="5.50963">
        <ele>433</ele>
        <time>2021-05-29T09:42:40.611Z</time>
      </trkpt>
      <trkpt lat="46.60272" lon="5.50963">
        <ele>433</ele>
        <time>2021-05-29T09:42:41.611Z</time>
      </trkpt>
      <trkpt lat="46.6027" lon="5.50963">
        <ele>434</ele>
        <time>2021-05-29T09:42:42.611Z</time>
      </trkpt>
      <trkpt lat="46.60269" lon="5.50962">
        <ele>434</ele>
        <time>2021-05-29T09:42:43.610Z</time>
      </trkpt>
      <trkpt lat="46.60267" lon="5.50962">
        <ele>434</ele>
        <time>2021-05-29T09:42:44.611Z</time>
      </trkpt>
      <trkpt lat="46.60266" lon="5.50961">
        <ele>435</ele>
        <time>2021-05-29T09:42:45.610Z</time>
      </trkpt>
      <trkpt lat="46.60264" lon="5.50961">
        <ele>435</ele>
        <time>2021-05-29T09:42:46.611Z</time>
      </trkpt>
      <trkpt lat="46.60262" lon="5.5096">
        <ele>435</ele>
        <time>2021-05-29T09:42:47.611Z</time>
      </trkpt>
      <trkpt lat="46.6026" lon="5.5096">
        <ele>436</ele>
        <time>2021-05-29T09:42:48.611Z</time>
      </trkpt>
      <trkpt lat="46.60258" lon="5.5096">
        <ele>436</ele>
        <time>2021-05-29T09:42:49.611Z</time>
      </trkpt>
      <trkpt lat="46.60257" lon="5.50959">
        <ele>436</ele>
        <time>2021-05-29T09:42:50.611Z</time>
      </trkpt>
      <trkpt lat="46.60254" lon="5.50959">
        <ele>437</ele>
        <time>2021-05-29T09:42:51.610Z</time>
      </trkpt>
      <trkpt lat="46.60253" lon="5.50959">
        <ele>437</ele>
        <time>2021-05-29T09:42:52.610Z</time>
      </trkpt>
      <trkpt lat="46.60252" lon="5.50959">
        <ele>437</ele>
        <time>2021-05-29T09:42:53.611Z</time>
      </trkpt>
      <trkpt lat="46.6025" lon="5.50959">
        <ele>438</ele>
        <time>2021-05-29T09:42:54.610Z</time>
      </trkpt>
      <trkpt lat="46.60248" lon="5.50958">
        <ele>438</ele>
        <time>2021-05-29T09:42:55.611Z</time>
      </trkpt>
      <trkpt lat="46.60247" lon="5.50958">
        <ele>438</ele>
        <time>2021-05-29T09:42:56.611Z</time>
      </trkpt>
      <trkpt lat="46.60246" lon="5.50958">
        <ele>438</ele>
        <time>2021-05-29T09:42:57.611Z</time>
      </trkpt>
      <trkpt lat="46.60244" lon="5.50957">
        <ele>438</ele>
        <time>2021-05-29T09:42:58.611Z</time>
      </trkpt>
      <trkpt lat="46.60243" lon="5.50957">
        <ele>439</ele>
        <time>2021-05-29T09:42:59.610Z</time>
      </trkpt>
      <trkpt lat="46.60241" lon="5.50956">
        <ele>439</ele>
        <time>2021-05-29T09:43:00.610Z</time>
      </trkpt>
      <trkpt lat="46.6024" lon="5.50956">
        <ele>440</ele>
        <time>2021-05-29T09:43:01.611Z</time>
      </trkpt>
      <trkpt lat="46.60238" lon="5.50955">
        <ele>440</ele>
        <time>2021-05-29T09:43:02.611Z</time>
      </trkpt>
      <trkpt lat="46.60237" lon="5.50955">
        <ele>441</ele>
        <time>2021-05-29T09:43:03.610Z</time>
      </trkpt>
      <trkpt lat="46.60235" lon="5.50955">
        <ele>442</ele>
        <time>2021-05-29T09:43:04.611Z</time>
      </trkpt>
      <trkpt lat="46.60233" lon="5.50955">
        <ele>442</ele>
        <time>2021-05-29T09:43:05.611Z</time>
      </trkpt>
      <trkpt lat="46.60231" lon="5.50955">
        <ele>442</ele>
        <time>2021-05-29T09:43:06.611Z</time>
      </trkpt>
      <trkpt lat="46.60229" lon="5.50955">
        <ele>443</ele>
        <time>2021-05-29T09:43:07.611Z</time>
      </trkpt>
      <trkpt lat="46.60228" lon="5.50955">
        <ele>443</ele>
        <time>2021-05-29T09:43:08.610Z</time>
      </trkpt>
      <trkpt lat="46.60226" lon="5.50954">
        <ele>443</ele>
        <time>2021-05-29T09:43:09.611Z</time>
      </trkpt>
      <trkpt lat="46.60224" lon="5.50954">
        <ele>444</ele>
        <time>2021-05-29T09:43:10.611Z</time>
      </trkpt>
      <trkpt lat="46.60222" lon="5.50953">
        <ele>444</ele>
        <time>2021-05-29T09:43:11.611Z</time>
      </trkpt>
      <trkpt lat="46.6022" lon="5.50953">
        <ele>445</ele>
        <time>2021-05-29T09:43:12.610Z</time>
      </trkpt>
      <trkpt lat="46.60219" lon="5.50952">
        <ele>445</ele>
        <time>2021-05-29T09:43:13.611Z</time>
      </trkpt>
      <trkpt lat="46.60217" lon="5.50952">
        <ele>445</ele>
        <time>2021-05-29T09:43:14.611Z</time>
      </trkpt>
      <trkpt lat="46.60216" lon="5.50952">
        <ele>446</ele>
        <time>2021-05-29T09:43:15.611Z</time>
      </trkpt>
      <trkpt lat="46.60214" lon="5.50951">
        <ele>446</ele>
        <time>2021-05-29T09:43:16.611Z</time>
      </trkpt>
      <trkpt lat="46.60212" lon="5.5095">
        <ele>446</ele>
        <time>2021-05-29T09:43:17.611Z</time>
      </trkpt>
      <trkpt lat="46.6021" lon="5.5095">
        <ele>447</ele>
        <time>2021-05-29T09:43:18.611Z</time>
      </trkpt>
      <trkpt lat="46.60209" lon="5.5095">
        <ele>447</ele>
        <time>2021-05-29T09:43:19.610Z</time>
      </trkpt>
      <trkpt lat="46.60207" lon="5.5095">
        <ele>447</ele>
        <time>2021-05-29T09:43:20.611Z</time>
      </trkpt>
      <trkpt lat="46.60206" lon="5.5095">
        <ele>447</ele>
        <time>2021-05-29T09:43:21.610Z</time>
      </trkpt>
      <trkpt lat="46.60204" lon="5.5095">
        <ele>447</ele>
        <time>2021-05-29T09:43:22.611Z</time>
      </trkpt>
      <trkpt lat="46.60203" lon="5.50949">
        <ele>447</ele>
        <time>2021-05-29T09:43:23.611Z</time>
      </trkpt>
      <trkpt lat="46.60201" lon="5.50948">
        <ele>447</ele>
        <time>2021-05-29T09:43:24.611Z</time>
      </trkpt>
      <trkpt lat="46.60199" lon="5.50948">
        <ele>447</ele>
        <time>2021-05-29T09:43:25.610Z</time>
      </trkpt>
      <trkpt lat="46.60197" lon="5.50947">
        <ele>447</ele>
        <time>2021-05-29T09:43:26.611Z</time>
      </trkpt>
      <trkpt lat="46.60196" lon="5.50946">
        <ele>447</ele>
        <time>2021-05-29T09:43:27.611Z</time>
      </trkpt>
      <trkpt lat="46.60194" lon="5.50945">
        <ele>447</ele>
        <time>2021-05-29T09:43:28.611Z</time>
      </trkpt>
      <trkpt lat="46.60192" lon="5.50944">
        <ele>447</ele>
        <time>2021-05-29T09:43:29.610Z</time>
      </trkpt>
      <trkpt lat="46.6019" lon="5.50944">
        <ele>447</ele>
        <time>2021-05-29T09:43:30.610Z</time>
      </trkpt>
      <trkpt lat="46.60188" lon="5.50943">
        <ele>447</ele>
        <time>2021-05-29T09:43:31.610Z</time>
      </trkpt>
      <trkpt lat="46.60187" lon="5.50943">
        <ele>446</ele>
        <time>2021-05-29T09:43:32.610Z</time>
      </trkpt>
      <trkpt lat="46.60185" lon="5.50943">
        <ele>446</ele>
        <time>2021-05-29T09:43:33.610Z</time>
      </trkpt>
      <trkpt lat="46.60184" lon="5.50942">
        <ele>446</ele>
        <time>2021-05-29T09:43:34.610Z</time>
      </trkpt>
      <trkpt lat="46.60183" lon="5.50942">
        <ele>445</ele>
        <time>2021-05-29T09:43:35.610Z</time>
      </trkpt>
      <trkpt lat="46.6018" lon="5.5094">
        <ele>445</ele>
        <time>2021-05-29T09:43:36.610Z</time>
      </trkpt>
      <trkpt lat="46.60178" lon="5.5094">
        <ele>445</ele>
        <time>2021-05-29T09:43:37.611Z</time>
      </trkpt>
      <trkpt lat="46.60177" lon="5.50941">
        <ele>444</ele>
        <time>2021-05-29T09:43:38.611Z</time>
      </trkpt>
      <trkpt lat="46.60175" lon="5.50941">
        <ele>444</ele>
        <time>2021-05-29T09:43:39.611Z</time>
      </trkpt>
      <trkpt lat="46.60174" lon="5.50941">
        <ele>444</ele>
        <time>2021-05-29T09:43:40.611Z</time>
      </trkpt>
      <trkpt lat="46.60172" lon="5.5094">
        <ele>444</ele>
        <time>2021-05-29T09:43:41.611Z</time>
      </trkpt>
      <trkpt lat="46.6017" lon="5.5094">
        <ele>444</ele>
        <time>2021-05-29T09:43:42.611Z</time>
      </trkpt>
      <trkpt lat="46.60168" lon="5.50939">
        <ele>444</ele>
        <time>2021-05-29T09:43:43.611Z</time>
      </trkpt>
      <trkpt lat="46.60166" lon="5.50938">
        <ele>444</ele>
        <time>2021-05-29T09:43:44.611Z</time>
      </trkpt>
      <trkpt lat="46.60165" lon="5.50938">
        <ele>444</ele>
        <time>2021-05-29T09:43:45.611Z</time>
      </trkpt>
      <trkpt lat="46.60164" lon="5.50937">
        <ele>444</ele>
        <time>2021-05-29T09:43:46.610Z</time>
      </trkpt>
      <trkpt lat="46.60162" lon="5.50936">
        <ele>444</ele>
        <time>2021-05-29T09:43:47.611Z</time>
      </trkpt>
      <trkpt lat="46.60161" lon="5.50935">
        <ele>444</ele>
        <time>2021-05-29T09:43:48.610Z</time>
      </trkpt>
      <trkpt lat="46.60159" lon="5.50934">
        <ele>444</ele>
        <time>2021-05-29T09:43:49.611Z</time>
      </trkpt>
      <trkpt lat="46.60158" lon="5.50933">
        <ele>444</ele>
        <time>2021-05-29T09:43:50.611Z</time>
      </trkpt>
      <trkpt lat="46.60156" lon="5.50933">
        <ele>444</ele>
        <time>2021-05-29T09:43:51.611Z</time>
      </trkpt>
      <trkpt lat="46.60154" lon="5.50932">
        <ele>444</ele>
        <time>2021-05-29T09:43:52.611Z</time>
      </trkpt>
      <trkpt lat="46.60153" lon="5.50931">
        <ele>445</ele>
        <time>2021-05-29T09:43:53.611Z</time>
      </trkpt>
      <trkpt lat="46.60151" lon="5.5093">
        <ele>445</ele>
        <time>2021-05-29T09:43:54.611Z</time>
      </trkpt>
      <trkpt lat="46.6015" lon="5.5093">
        <ele>445</ele>
        <time>2021-05-29T09:43:55.611Z</time>
      </trkpt>
      <trkpt lat="46.60149" lon="5.50929">
        <ele>446</ele>
        <time>2021-05-29T09:43:56.611Z</time>
      </trkpt>
      <trkpt lat="46.60148" lon="5.50929">
        <ele>446</ele>
        <time>2021-05-29T09:43:57.611Z</time>
      </trkpt>
      <trkpt lat="46.60146" lon="5.50928">
        <ele>446</ele>
        <time>2021-05-29T09:43:58.611Z</time>
      </trkpt>
      <trkpt lat="46.60145" lon="5.50927">
        <ele>446</ele>
        <time>2021-05-29T09:43:59.611Z</time>
      </trkpt>
      <trkpt lat="46.60143" lon="5.50926">
        <ele>446</ele>
        <time>2021-05-29T09:44:00.611Z</time>
      </trkpt>
      <trkpt lat="46.60141" lon="5.50926">
        <ele>446</ele>
        <time>2021-05-29T09:44:01.610Z</time>
      </trkpt>
      <trkpt lat="46.60139" lon="5.50925">
        <ele>446</ele>
        <time>2021-05-29T09:44:02.611Z</time>
      </trkpt>
      <trkpt lat="46.60138" lon="5.50924">
        <ele>446</ele>
        <time>2021-05-29T09:44:03.611Z</time>
      </trkpt>
      <trkpt lat="46.60136" lon="5.50923">
        <ele>447</ele>
        <time>2021-05-29T09:44:04.610Z</time>
      </trkpt>
      <trkpt lat="46.60134" lon="5.50922">
        <ele>447</ele>
        <time>2021-05-29T09:44:05.611Z</time>
      </trkpt>
      <trkpt lat="46.60132" lon="5.50921">
        <ele>448</ele>
        <time>2021-05-29T09:44:06.610Z</time>
      </trkpt>
      <trkpt lat="46.6013" lon="5.50921">
        <ele>448</ele>
        <time>2021-05-29T09:44:07.611Z</time>
      </trkpt>
      <trkpt lat="46.60128" lon="5.5092">
        <ele>448</ele>
        <time>2021-05-29T09:44:08.611Z</time>
      </trkpt>
      <trkpt lat="46.60126" lon="5.50919">
        <ele>448</ele>
        <time>2021-05-29T09:44:09.610Z</time>
      </trkpt>
      <trkpt lat="46.60125" lon="5.50919">
        <ele>448</ele>
        <time>2021-05-29T09:44:10.611Z</time>
      </trkpt>
      <trkpt lat="46.60123" lon="5.50918">
        <ele>448</ele>
        <time>2021-05-29T09:44:11.611Z</time>
      </trkpt>
      <trkpt lat="46.6012" lon="5.50918">
        <ele>448</ele>
        <time>2021-05-29T09:44:12.611Z</time>
      </trkpt>
      <trkpt lat="46.60118" lon="5.50917">
        <ele>448</ele>
        <time>2021-05-29T09:44:13.611Z</time>
      </trkpt>
      <trkpt lat="46.60116" lon="5.50917">
        <ele>448</ele>
        <time>2021-05-29T09:44:14.611Z</time>
      </trkpt>
      <trkpt lat="46.60113" lon="5.50916">
        <ele>448</ele>
        <time>2021-05-29T09:44:15.611Z</time>
      </trkpt>
      <trkpt lat="46.60111" lon="5.50916">
        <ele>449</ele>
        <time>2021-05-29T09:44:16.611Z</time>
      </trkpt>
      <trkpt lat="46.60108" lon="5.50916">
        <ele>450</ele>
        <time>2021-05-29T09:44:17.610Z</time>
      </trkpt>
      <trkpt lat="46.60106" lon="5.50916">
        <ele>450</ele>
        <time>2021-05-29T09:44:18.611Z</time>
      </trkpt>
      <trkpt lat="46.60104" lon="5.50916">
        <ele>451</ele>
        <time>2021-05-29T09:44:19.611Z</time>
      </trkpt>
      <trkpt lat="46.60102" lon="5.50916">
        <ele>451</ele>
        <time>2021-05-29T09:44:20.611Z</time>
      </trkpt>
      <trkpt lat="46.601" lon="5.50916">
        <ele>451</ele>
        <time>2021-05-29T09:44:21.611Z</time>
      </trkpt>
      <trkpt lat="46.60098" lon="5.50917">
        <ele>451</ele>
        <time>2021-05-29T09:44:22.611Z</time>
      </trkpt>
      <trkpt lat="46.60096" lon="5.50916">
        <ele>451</ele>
        <time>2021-05-29T09:44:23.611Z</time>
      </trkpt>
      <trkpt lat="46.60094" lon="5.50916">
        <ele>451</ele>
        <time>2021-05-29T09:44:24.611Z</time>
      </trkpt>
      <trkpt lat="46.60092" lon="5.50917">
        <ele>451</ele>
        <time>2021-05-29T09:44:25.611Z</time>
      </trkpt>
      <trkpt lat="46.6009" lon="5.50917">
        <ele>451</ele>
        <time>2021-05-29T09:44:26.611Z</time>
      </trkpt>
      <trkpt lat="46.60088" lon="5.50917">
        <ele>451</ele>
        <time>2021-05-29T09:44:27.611Z</time>
      </trkpt>
      <trkpt lat="46.60086" lon="5.50918">
        <ele>451</ele>
        <time>2021-05-29T09:44:28.610Z</time>
      </trkpt>
      <trkpt lat="46.60083" lon="5.50918">
        <ele>451</ele>
        <time>2021-05-29T09:44:29.610Z</time>
      </trkpt>
      <trkpt lat="46.60081" lon="5.50918">
        <ele>451</ele>
        <time>2021-05-29T09:44:30.611Z</time>
      </trkpt>
      <trkpt lat="46.60079" lon="5.50918">
        <ele>451</ele>
        <time>2021-05-29T09:44:31.611Z</time>
      </trkpt>
      <trkpt lat="46.60077" lon="5.50918">
        <ele>451</ele>
        <time>2021-05-29T09:44:32.611Z</time>
      </trkpt>
      <trkpt lat="46.60075" lon="5.50919">
        <ele>452</ele>
        <time>2021-05-29T09:44:33.610Z</time>
      </trkpt>
      <trkpt lat="46.60073" lon="5.50919">
        <ele>452</ele>
        <time>2021-05-29T09:44:34.611Z</time>
      </trkpt>
      <trkpt lat="46.60071" lon="5.5092">
        <ele>452</ele>
        <time>2021-05-29T09:44:35.611Z</time>
      </trkpt>
      <trkpt lat="46.60069" lon="5.5092">
        <ele>452</ele>
        <time>2021-05-29T09:44:36.611Z</time>
      </trkpt>
      <trkpt lat="46.60067" lon="5.50921">
        <ele>453</ele>
        <time>2021-05-29T09:44:37.611Z</time>
      </trkpt>
      <trkpt lat="46.60064" lon="5.50922">
        <ele>453</ele>
        <time>2021-05-29T09:44:38.611Z</time>
      </trkpt>
      <trkpt lat="46.60062" lon="5.50924">
        <ele>453</ele>
        <time>2021-05-29T09:44:39.611Z</time>
      </trkpt>
      <trkpt lat="46.6006" lon="5.50924">
        <ele>453</ele>
        <time>2021-05-29T09:44:40.610Z</time>
      </trkpt>
      <trkpt lat="46.60058" lon="5.50925">
        <ele>452</ele>
        <time>2021-05-29T09:44:41.611Z</time>
      </trkpt>
      <trkpt lat="46.60056" lon="5.50925">
        <ele>452</ele>
        <time>2021-05-29T09:44:42.611Z</time>
      </trkpt>
      <trkpt lat="46.60054" lon="5.50926">
        <ele>452</ele>
        <time>2021-05-29T09:44:43.611Z</time>
      </trkpt>
      <trkpt lat="46.60053" lon="5.50926">
        <ele>452</ele>
        <time>2021-05-29T09:44:44.610Z</time>
      </trkpt>
      <trkpt lat="46.60051" lon="5.50927">
        <ele>452</ele>
        <time>2021-05-29T09:44:45.611Z</time>
      </trkpt>
      <trkpt lat="46.60049" lon="5.50929">
        <ele>452</ele>
        <time>2021-05-29T09:44:46.611Z</time>
      </trkpt>
      <trkpt lat="46.60048" lon="5.5093">
        <ele>452</ele>
        <time>2021-05-29T09:44:47.611Z</time>
      </trkpt>
      <trkpt lat="46.60046" lon="5.50931">
        <ele>452</ele>
        <time>2021-05-29T09:44:48.611Z</time>
      </trkpt>
      <trkpt lat="46.60045" lon="5.50932">
        <ele>452</ele>
        <time>2021-05-29T09:44:49.611Z</time>
      </trkpt>
      <trkpt lat="46.60043" lon="5.50934">
        <ele>453</ele>
        <time>2021-05-29T09:44:50.611Z</time>
      </trkpt>
      <trkpt lat="46.60042" lon="5.50935">
        <ele>453</ele>
        <time>2021-05-29T09:44:51.610Z</time>
      </trkpt>
      <trkpt lat="46.6004" lon="5.50937">
        <ele>453</ele>
        <time>2021-05-29T09:44:52.611Z</time>
      </trkpt>
      <trkpt lat="46.60039" lon="5.50939">
        <ele>453</ele>
        <time>2021-05-29T09:44:53.611Z</time>
      </trkpt>
      <trkpt lat="46.60038" lon="5.50941">
        <ele>453</ele>
        <time>2021-05-29T09:44:54.611Z</time>
      </trkpt>
      <trkpt lat="46.60036" lon="5.50942">
        <ele>453</ele>
        <time>2021-05-29T09:44:55.611Z</time>
      </trkpt>
      <trkpt lat="46.60035" lon="5.50945">
        <ele>453</ele>
        <time>2021-05-29T09:44:56.611Z</time>
      </trkpt>
      <trkpt lat="46.60034" lon="5.50946">
        <ele>453</ele>
        <time>2021-05-29T09:44:57.611Z</time>
      </trkpt>
      <trkpt lat="46.60032" lon="5.50949">
        <ele>452</ele>
        <time>2021-05-29T09:44:58.611Z</time>
      </trkpt>
      <trkpt lat="46.60031" lon="5.50951">
        <ele>452</ele>
        <time>2021-05-29T09:44:59.611Z</time>
      </trkpt>
      <trkpt lat="46.6003" lon="5.50952">
        <ele>452</ele>
        <time>2021-05-29T09:45:00.611Z</time>
      </trkpt>
      <trkpt lat="46.60029" lon="5.50954">
        <ele>452</ele>
        <time>2021-05-29T09:45:01.611Z</time>
      </trkpt>
      <trkpt lat="46.60028" lon="5.50956">
        <ele>452</ele>
        <time>2021-05-29T09:45:02.610Z</time>
      </trkpt>
      <trkpt lat="46.60027" lon="5.50958">
        <ele>452</ele>
        <time>2021-05-29T09:45:03.611Z</time>
      </trkpt>
      <trkpt lat="46.60025" lon="5.50961">
        <ele>452</ele>
        <time>2021-05-29T09:45:04.611Z</time>
      </trkpt>
      <trkpt lat="46.60024" lon="5.50963">
        <ele>452</ele>
        <time>2021-05-29T09:45:05.610Z</time>
      </trkpt>
      <trkpt lat="46.60023" lon="5.50964">
        <ele>452</ele>
        <time>2021-05-29T09:45:06.611Z</time>
      </trkpt>
      <trkpt lat="46.60022" lon="5.50966">
        <ele>452</ele>
        <time>2021-05-29T09:45:07.611Z</time>
      </trkpt>
      <trkpt lat="46.60021" lon="5.50968">
        <ele>453</ele>
        <time>2021-05-29T09:45:08.611Z</time>
      </trkpt>
      <trkpt lat="46.6002" lon="5.5097">
        <ele>453</ele>
        <time>2021-05-29T09:45:09.611Z</time>
      </trkpt>
      <trkpt lat="46.60019" lon="5.50972">
        <ele>452</ele>
        <time>2021-05-29T09:45:10.611Z</time>
      </trkpt>
      <trkpt lat="46.60019" lon="5.50973">
        <ele>451</ele>
        <time>2021-05-29T09:45:11.611Z</time>
      </trkpt>
      <trkpt lat="46.60017" lon="5.50976">
        <ele>451</ele>
        <time>2021-05-29T09:45:12.611Z</time>
      </trkpt>
      <trkpt lat="46.60017" lon="5.50977">
        <ele>450</ele>
        <time>2021-05-29T09:45:13.610Z</time>
      </trkpt>
      <trkpt lat="46.60016" lon="5.50979">
        <ele>450</ele>
        <time>2021-05-29T09:45:14.611Z</time>
      </trkpt>
      <trkpt lat="46.60015" lon="5.50981">
        <ele>450</ele>
        <time>2021-05-29T09:45:15.611Z</time>
      </trkpt>
      <trkpt lat="46.60014" lon="5.50982">
        <ele>451</ele>
        <time>2021-05-29T09:45:16.611Z</time>
      </trkpt>
      <trkpt lat="46.60013" lon="5.50984">
        <ele>451</ele>
        <time>2021-05-29T09:45:17.610Z</time>
      </trkpt>
      <trkpt lat="46.60012" lon="5.50986">
        <ele>451</ele>
        <time>2021-05-29T09:45:18.611Z</time>
      </trkpt>
      <trkpt lat="46.60011" lon="5.50988">
        <ele>451</ele>
        <time>2021-05-29T09:45:19.611Z</time>
      </trkpt>
      <trkpt lat="46.6001" lon="5.5099">
        <ele>451</ele>
        <time>2021-05-29T09:45:20.611Z</time>
      </trkpt>
      <trkpt lat="46.60009" lon="5.50992">
        <ele>450</ele>
        <time>2021-05-29T09:45:21.611Z</time>
      </trkpt>
      <trkpt lat="46.60009" lon="5.50994">
        <ele>450</ele>
        <time>2021-05-29T09:45:22.611Z</time>
      </trkpt>
      <trkpt lat="46.60008" lon="5.50997">
        <ele>450</ele>
        <time>2021-05-29T09:45:23.611Z</time>
      </trkpt>
      <trkpt lat="46.60008" lon="5.50999">
        <ele>451</ele>
        <time>2021-05-29T09:45:24.611Z</time>
      </trkpt>
      <trkpt lat="46.60007" lon="5.51001">
        <ele>451</ele>
        <time>2021-05-29T09:45:25.611Z</time>
      </trkpt>
      <trkpt lat="46.60006" lon="5.51003">
        <ele>452</ele>
        <time>2021-05-29T09:45:26.610Z</time>
      </trkpt>
      <trkpt lat="46.60005" lon="5.51005">
        <ele>452</ele>
        <time>2021-05-29T09:45:27.611Z</time>
      </trkpt>
      <trkpt lat="46.60004" lon="5.51007">
        <ele>452</ele>
        <time>2021-05-29T09:45:28.611Z</time>
      </trkpt>
      <trkpt lat="46.60004" lon="5.51009">
        <ele>452</ele>
        <time>2021-05-29T09:45:29.611Z</time>
      </trkpt>
      <trkpt lat="46.60002" lon="5.51011">
        <ele>452</ele>
        <time>2021-05-29T09:45:30.610Z</time>
      </trkpt>
      <trkpt lat="46.60001" lon="5.51013">
        <ele>453</ele>
        <time>2021-05-29T09:45:31.611Z</time>
      </trkpt>
      <trkpt lat="46.6" lon="5.51015">
        <ele>453</ele>
        <time>2021-05-29T09:45:32.611Z</time>
      </trkpt>
      <trkpt lat="46.59999" lon="5.51017">
        <ele>454</ele>
        <time>2021-05-29T09:45:33.611Z</time>
      </trkpt>
      <trkpt lat="46.59998" lon="5.51019">
        <ele>455</ele>
        <time>2021-05-29T09:45:34.611Z</time>
      </trkpt>
      <trkpt lat="46.59997" lon="5.51021">
        <ele>455</ele>
        <time>2021-05-29T09:45:35.611Z</time>
      </trkpt>
      <trkpt lat="46.59996" lon="5.51023">
        <ele>456</ele>
        <time>2021-05-29T09:45:36.611Z</time>
      </trkpt>
      <trkpt lat="46.59995" lon="5.51025">
        <ele>456</ele>
        <time>2021-05-29T09:45:37.611Z</time>
      </trkpt>
      <trkpt lat="46.59995" lon="5.51027">
        <ele>456</ele>
        <time>2021-05-29T09:45:38.611Z</time>
      </trkpt>
      <trkpt lat="46.59994" lon="5.51029">
        <ele>456</ele>
        <time>2021-05-29T09:45:39.611Z</time>
      </trkpt>
      <trkpt lat="46.59993" lon="5.51031">
        <ele>456</ele>
        <time>2021-05-29T09:45:40.610Z</time>
      </trkpt>
      <trkpt lat="46.59992" lon="5.51033">
        <ele>455</ele>
        <time>2021-05-29T09:45:41.611Z</time>
      </trkpt>
      <trkpt lat="46.59991" lon="5.51035">
        <ele>455</ele>
        <time>2021-05-29T09:45:42.611Z</time>
      </trkpt>
      <trkpt lat="46.5999" lon="5.51038">
        <ele>455</ele>
        <time>2021-05-29T09:45:43.611Z</time>
      </trkpt>
      <trkpt lat="46.5999" lon="5.51041">
        <ele>455</ele>
        <time>2021-05-29T09:45:44.610Z</time>
      </trkpt>
      <trkpt lat="46.59989" lon="5.51043">
        <ele>454</ele>
        <time>2021-05-29T09:45:45.610Z</time>
      </trkpt>
      <trkpt lat="46.59989" lon="5.51045">
        <ele>454</ele>
        <time>2021-05-29T09:45:46.611Z</time>
      </trkpt>
      <trkpt lat="46.59988" lon="5.51048">
        <ele>455</ele>
        <time>2021-05-29T09:45:47.611Z</time>
      </trkpt>
      <trkpt lat="46.59987" lon="5.5105">
        <ele>456</ele>
        <time>2021-05-29T09:45:48.611Z</time>
      </trkpt>
      <trkpt lat="46.59987" lon="5.51053">
        <ele>456</ele>
        <time>2021-05-29T09:45:49.611Z</time>
      </trkpt>
      <trkpt lat="46.59986" lon="5.51055">
        <ele>457</ele>
        <time>2021-05-29T09:45:50.611Z</time>
      </trkpt>
      <trkpt lat="46.59986" lon="5.51057">
        <ele>457</ele>
        <time>2021-05-29T09:45:51.611Z</time>
      </trkpt>
      <trkpt lat="46.59984" lon="5.51059">
        <ele>458</ele>
        <time>2021-05-29T09:45:52.611Z</time>
      </trkpt>
      <trkpt lat="46.59984" lon="5.51061">
        <ele>458</ele>
        <time>2021-05-29T09:45:53.611Z</time>
      </trkpt>
      <trkpt lat="46.59983" lon="5.51062">
        <ele>458</ele>
        <time>2021-05-29T09:45:54.611Z</time>
      </trkpt>
      <trkpt lat="46.59982" lon="5.51065">
        <ele>458</ele>
        <time>2021-05-29T09:45:55.611Z</time>
      </trkpt>
      <trkpt lat="46.59981" lon="5.51068">
        <ele>458</ele>
        <time>2021-05-29T09:45:56.611Z</time>
      </trkpt>
      <trkpt lat="46.5998" lon="5.51072">
        <ele>458</ele>
        <time>2021-05-29T09:45:57.611Z</time>
      </trkpt>
      <trkpt lat="46.5998" lon="5.51074">
        <ele>458</ele>
        <time>2021-05-29T09:45:58.611Z</time>
      </trkpt>
      <trkpt lat="46.5998" lon="5.51076">
        <ele>458</ele>
        <time>2021-05-29T09:45:59.610Z</time>
      </trkpt>
      <trkpt lat="46.59979" lon="5.51079">
        <ele>458</ele>
        <time>2021-05-29T09:46:00.611Z</time>
      </trkpt>
      <trkpt lat="46.59979" lon="5.51081">
        <ele>458</ele>
        <time>2021-05-29T09:46:01.611Z</time>
      </trkpt>
      <trkpt lat="46.59978" lon="5.51083">
        <ele>458</ele>
        <time>2021-05-29T09:46:02.611Z</time>
      </trkpt>
      <trkpt lat="46.59978" lon="5.51086">
        <ele>458</ele>
        <time>2021-05-29T09:46:03.611Z</time>
      </trkpt>
      <trkpt lat="46.59978" lon="5.51088">
        <ele>458</ele>
        <time>2021-05-29T09:46:04.611Z</time>
      </trkpt>
      <trkpt lat="46.59977" lon="5.5109">
        <ele>459</ele>
        <time>2021-05-29T09:46:05.611Z</time>
      </trkpt>
      <trkpt lat="46.59977" lon="5.51092">
        <ele>459</ele>
        <time>2021-05-29T09:46:06.611Z</time>
      </trkpt>
      <trkpt lat="46.59977" lon="5.51094">
        <ele>459</ele>
        <time>2021-05-29T09:46:07.611Z</time>
      </trkpt>
      <trkpt lat="46.59978" lon="5.51096">
        <ele>459</ele>
        <time>2021-05-29T09:46:08.611Z</time>
      </trkpt>
      <trkpt lat="46.59978" lon="5.51098">
        <ele>460</ele>
        <time>2021-05-29T09:46:09.611Z</time>
      </trkpt>
      <trkpt lat="46.59978" lon="5.51101">
        <ele>460</ele>
        <time>2021-05-29T09:46:10.611Z</time>
      </trkpt>
      <trkpt lat="46.59978" lon="5.51103">
        <ele>459</ele>
        <time>2021-05-29T09:46:11.611Z</time>
      </trkpt>
      <trkpt lat="46.59978" lon="5.51105">
        <ele>459</ele>
        <time>2021-05-29T09:46:12.610Z</time>
      </trkpt>
      <trkpt lat="46.59977" lon="5.51108">
        <ele>460</ele>
        <time>2021-05-29T09:46:13.611Z</time>
      </trkpt>
      <trkpt lat="46.59977" lon="5.5111">
        <ele>460</ele>
        <time>2021-05-29T09:46:14.611Z</time>
      </trkpt>
      <trkpt lat="46.59978" lon="5.51114">
        <ele>460</ele>
        <time>2021-05-29T09:46:15.611Z</time>
      </trkpt>
      <trkpt lat="46.59978" lon="5.51117">
        <ele>460</ele>
        <time>2021-05-29T09:46:16.611Z</time>
      </trkpt>
      <trkpt lat="46.59977" lon="5.51119">
        <ele>461</ele>
        <time>2021-05-29T09:46:17.611Z</time>
      </trkpt>
      <trkpt lat="46.59977" lon="5.51121">
        <ele>462</ele>
        <time>2021-05-29T09:46:18.610Z</time>
      </trkpt>
      <trkpt lat="46.59977" lon="5.51124">
        <ele>462</ele>
        <time>2021-05-29T09:46:19.611Z</time>
      </trkpt>
      <trkpt lat="46.59977" lon="5.51126">
        <ele>463</ele>
        <time>2021-05-29T09:46:20.611Z</time>
      </trkpt>
      <trkpt lat="46.59977" lon="5.51129">
        <ele>463</ele>
        <time>2021-05-29T09:46:21.611Z</time>
      </trkpt>
      <trkpt lat="46.59977" lon="5.51132">
        <ele>463</ele>
        <time>2021-05-29T09:46:22.611Z</time>
      </trkpt>
      <trkpt lat="46.59976" lon="5.51134">
        <ele>463</ele>
        <time>2021-05-29T09:46:23.611Z</time>
      </trkpt>
      <trkpt lat="46.59976" lon="5.51137">
        <ele>463</ele>
        <time>2021-05-29T09:46:45.677Z</time>
      </trkpt>
      <trkpt lat="46.59976" lon="5.51139">
        <ele>464</ele>
        <time>2021-05-29T09:46:46.676Z</time>
      </trkpt>
      <trkpt lat="46.59976" lon="5.51141">
        <ele>464</ele>
        <time>2021-05-29T09:46:47.677Z</time>
      </trkpt>
      <trkpt lat="46.59976" lon="5.51143">
        <ele>464</ele>
        <time>2021-05-29T09:46:48.677Z</time>
      </trkpt>
      <trkpt lat="46.59976" lon="5.51146">
        <ele>465</ele>
        <time>2021-05-29T09:46:49.677Z</time>
      </trkpt>
      <trkpt lat="46.59977" lon="5.51149">
        <ele>465</ele>
        <time>2021-05-29T09:46:50.677Z</time>
      </trkpt>
      <trkpt lat="46.59977" lon="5.51152">
        <ele>466</ele>
        <time>2021-05-29T09:46:51.677Z</time>
      </trkpt>
      <trkpt lat="46.59977" lon="5.51154">
        <ele>466</ele>
        <time>2021-05-29T09:46:52.677Z</time>
      </trkpt>
      <trkpt lat="46.59977" lon="5.51156">
        <ele>466</ele>
        <time>2021-05-29T09:46:53.677Z</time>
      </trkpt>
      <trkpt lat="46.59978" lon="5.51159">
        <ele>467</ele>
        <time>2021-05-29T09:46:54.677Z</time>
      </trkpt>
      <trkpt lat="46.59978" lon="5.51161">
        <ele>467</ele>
        <time>2021-05-29T09:46:55.677Z</time>
      </trkpt>
      <trkpt lat="46.59978" lon="5.51164">
        <ele>467</ele>
        <time>2021-05-29T09:46:56.677Z</time>
      </trkpt>
      <trkpt lat="46.59979" lon="5.51167">
        <ele>467</ele>
        <time>2021-05-29T09:46:57.677Z</time>
      </trkpt>
      <trkpt lat="46.59979" lon="5.5117">
        <ele>467</ele>
        <time>2021-05-29T09:46:58.677Z</time>
      </trkpt>
      <trkpt lat="46.59978" lon="5.51173">
        <ele>471</ele>
        <time>2021-05-29T09:46:59.676Z</time>
      </trkpt>
      <trkpt lat="46.59978" lon="5.51173">
        <ele>470</ele>
        <time>2021-05-29T09:47:00.676Z</time>
      </trkpt>
      <trkpt lat="46.59978" lon="5.51173">
        <ele>470</ele>
        <time>2021-05-29T09:47:01.676Z</time>
      </trkpt>
      <trkpt lat="46.59978" lon="5.51173">
        <ele>470</ele>
        <time>2021-05-29T09:47:02.677Z</time>
      </trkpt>
      <trkpt lat="46.59978" lon="5.51172">
        <ele>470</ele>
        <time>2021-05-29T09:47:03.677Z</time>
      </trkpt>
      <trkpt lat="46.59978" lon="5.51169">
        <ele>470</ele>
        <time>2021-05-29T09:47:04.677Z</time>
      </trkpt>
      <trkpt lat="46.59977" lon="5.51165">
        <ele>470</ele>
        <time>2021-05-29T09:47:05.677Z</time>
      </trkpt>
      <trkpt lat="46.59977" lon="5.51161">
        <ele>469</ele>
        <time>2021-05-29T09:47:06.676Z</time>
      </trkpt>
      <trkpt lat="46.59977" lon="5.51157">
        <ele>469</ele>
        <time>2021-05-29T09:47:07.677Z</time>
      </trkpt>
      <trkpt lat="46.59976" lon="5.51153">
        <ele>469</ele>
        <time>2021-05-29T09:47:08.677Z</time>
      </trkpt>
      <trkpt lat="46.59976" lon="5.51149">
        <ele>469</ele>
        <time>2021-05-29T09:47:09.677Z</time>
      </trkpt>
      <trkpt lat="46.59975" lon="5.51145">
        <ele>470</ele>
        <time>2021-05-29T09:47:10.677Z</time>
      </trkpt>
      <trkpt lat="46.59975" lon="5.5114">
        <ele>469</ele>
        <time>2021-05-29T09:47:11.676Z</time>
      </trkpt>
      <trkpt lat="46.59974" lon="5.51136">
        <ele>469</ele>
        <time>2021-05-29T09:47:12.677Z</time>
      </trkpt>
      <trkpt lat="46.59974" lon="5.51133">
        <ele>468</ele>
        <time>2021-05-29T09:47:13.677Z</time>
      </trkpt>
      <trkpt lat="46.59973" lon="5.51129">
        <ele>467</ele>
        <time>2021-05-29T09:47:14.677Z</time>
      </trkpt>
      <trkpt lat="46.59973" lon="5.51125">
        <ele>466</ele>
        <time>2021-05-29T09:47:15.677Z</time>
      </trkpt>
      <trkpt lat="46.59973" lon="5.51121">
        <ele>465</ele>
        <time>2021-05-29T09:47:16.676Z</time>
      </trkpt>
      <trkpt lat="46.59973" lon="5.51117">
        <ele>465</ele>
        <time>2021-05-29T09:47:17.677Z</time>
      </trkpt>
      <trkpt lat="46.59973" lon="5.51114">
        <ele>464</ele>
        <time>2021-05-29T09:47:18.677Z</time>
      </trkpt>
      <trkpt lat="46.59973" lon="5.5111">
        <ele>464</ele>
        <time>2021-05-29T09:47:19.676Z</time>
      </trkpt>
      <trkpt lat="46.59972" lon="5.51106">
        <ele>463</ele>
        <time>2021-05-29T09:47:20.676Z</time>
      </trkpt>
      <trkpt lat="46.59973" lon="5.51102">
        <ele>463</ele>
        <time>2021-05-29T09:47:21.677Z</time>
      </trkpt>
      <trkpt lat="46.59973" lon="5.51099">
        <ele>463</ele>
        <time>2021-05-29T09:47:22.677Z</time>
      </trkpt>
      <trkpt lat="46.59973" lon="5.51095">
        <ele>463</ele>
        <time>2021-05-29T09:47:23.677Z</time>
      </trkpt>
      <trkpt lat="46.59973" lon="5.51092">
        <ele>462</ele>
        <time>2021-05-29T09:47:24.677Z</time>
      </trkpt>
      <trkpt lat="46.59974" lon="5.51088">
        <ele>462</ele>
        <time>2021-05-29T09:47:25.676Z</time>
      </trkpt>
      <trkpt lat="46.59974" lon="5.51085">
        <ele>462</ele>
        <time>2021-05-29T09:47:26.677Z</time>
      </trkpt>
      <trkpt lat="46.59974" lon="5.51082">
        <ele>461</ele>
        <time>2021-05-29T09:47:27.677Z</time>
      </trkpt>
      <trkpt lat="46.59975" lon="5.51078">
        <ele>461</ele>
        <time>2021-05-29T09:47:28.677Z</time>
      </trkpt>
      <trkpt lat="46.59975" lon="5.51074">
        <ele>461</ele>
        <time>2021-05-29T09:47:29.677Z</time>
      </trkpt>
      <trkpt lat="46.59976" lon="5.51071">
        <ele>461</ele>
        <time>2021-05-29T09:47:30.677Z</time>
      </trkpt>
      <trkpt lat="46.59977" lon="5.51067">
        <ele>461</ele>
        <time>2021-05-29T09:47:31.676Z</time>
      </trkpt>
      <trkpt lat="46.59978" lon="5.51064">
        <ele>460</ele>
        <time>2021-05-29T09:47:32.677Z</time>
      </trkpt>
      <trkpt lat="46.59979" lon="5.51061">
        <ele>461</ele>
        <time>2021-05-29T09:47:33.677Z</time>
      </trkpt>
      <trkpt lat="46.5998" lon="5.51058">
        <ele>461</ele>
        <time>2021-05-29T09:47:34.677Z</time>
      </trkpt>
      <trkpt lat="46.59981" lon="5.51055">
        <ele>461</ele>
        <time>2021-05-29T09:47:35.677Z</time>
      </trkpt>
      <trkpt lat="46.59982" lon="5.51052">
        <ele>461</ele>
        <time>2021-05-29T09:47:36.676Z</time>
      </trkpt>
      <trkpt lat="46.59983" lon="5.51048">
        <ele>461</ele>
        <time>2021-05-29T09:47:37.677Z</time>
      </trkpt>
      <trkpt lat="46.59984" lon="5.51045">
        <ele>461</ele>
        <time>2021-05-29T09:47:38.677Z</time>
      </trkpt>
      <trkpt lat="46.59985" lon="5.51042">
        <ele>461</ele>
        <time>2021-05-29T09:47:39.677Z</time>
      </trkpt>
      <trkpt lat="46.59987" lon="5.51039">
        <ele>461</ele>
        <time>2021-05-29T09:47:40.677Z</time>
      </trkpt>
      <trkpt lat="46.59989" lon="5.51035">
        <ele>461</ele>
        <time>2021-05-29T09:47:41.676Z</time>
      </trkpt>
      <trkpt lat="46.5999" lon="5.51032">
        <ele>461</ele>
        <time>2021-05-29T09:47:42.677Z</time>
      </trkpt>
      <trkpt lat="46.59991" lon="5.51028">
        <ele>461</ele>
        <time>2021-05-29T09:47:43.677Z</time>
      </trkpt>
      <trkpt lat="46.59993" lon="5.51024">
        <ele>461</ele>
        <time>2021-05-29T09:47:44.676Z</time>
      </trkpt>
      <trkpt lat="46.59995" lon="5.51021">
        <ele>461</ele>
        <time>2021-05-29T09:47:45.677Z</time>
      </trkpt>
      <trkpt lat="46.59996" lon="5.51019">
        <ele>461</ele>
        <time>2021-05-29T09:47:46.677Z</time>
      </trkpt>
      <trkpt lat="46.59997" lon="5.51015">
        <ele>461</ele>
        <time>2021-05-29T09:47:47.677Z</time>
      </trkpt>
      <trkpt lat="46.59999" lon="5.51013">
        <ele>460</ele>
        <time>2021-05-29T09:47:48.677Z</time>
      </trkpt>
      <trkpt lat="46.60001" lon="5.5101">
        <ele>460</ele>
        <time>2021-05-29T09:47:49.677Z</time>
      </trkpt>
      <trkpt lat="46.60002" lon="5.51008">
        <ele>460</ele>
        <time>2021-05-29T09:47:50.677Z</time>
      </trkpt>
      <trkpt lat="46.60003" lon="5.51005">
        <ele>460</ele>
        <time>2021-05-29T09:47:51.677Z</time>
      </trkpt>
      <trkpt lat="46.60004" lon="5.51002">
        <ele>460</ele>
        <time>2021-05-29T09:47:52.677Z</time>
      </trkpt>
      <trkpt lat="46.60006" lon="5.50999">
        <ele>460</ele>
        <time>2021-05-29T09:47:53.676Z</time>
      </trkpt>
      <trkpt lat="46.60007" lon="5.50997">
        <ele>460</ele>
        <time>2021-05-29T09:47:54.677Z</time>
      </trkpt>
      <trkpt lat="46.60008" lon="5.50994">
        <ele>460</ele>
        <time>2021-05-29T09:47:55.677Z</time>
      </trkpt>
      <trkpt lat="46.60008" lon="5.50992">
        <ele>460</ele>
        <time>2021-05-29T09:47:56.677Z</time>
      </trkpt>
      <trkpt lat="46.6001" lon="5.50989">
        <ele>460</ele>
        <time>2021-05-29T09:47:57.677Z</time>
      </trkpt>
      <trkpt lat="46.6001" lon="5.50987">
        <ele>460</ele>
        <time>2021-05-29T09:47:58.677Z</time>
      </trkpt>
      <trkpt lat="46.60011" lon="5.50986">
        <ele>460</ele>
        <time>2021-05-29T09:47:59.677Z</time>
      </trkpt>
      <trkpt lat="46.6001" lon="5.50985">
        <ele>460</ele>
        <time>2021-05-29T09:48:00.677Z</time>
      </trkpt>
      <trkpt lat="46.6001" lon="5.50984">
        <ele>460</ele>
        <time>2021-05-29T09:48:01.677Z</time>
      </trkpt>
      <trkpt lat="46.60011" lon="5.50984">
        <ele>460</ele>
        <time>2021-05-29T09:48:02.677Z</time>
      </trkpt>
      <trkpt lat="46.6001" lon="5.50984">
        <ele>460</ele>
        <time>2021-05-29T09:48:03.677Z</time>
      </trkpt>
      <trkpt lat="46.60015" lon="5.5098">
        <ele>455</ele>
        <time>2021-05-29T09:48:04.677Z</time>
      </trkpt>
      <trkpt lat="46.60015" lon="5.5098">
        <ele>455</ele>
        <time>2021-05-29T09:48:05.677Z</time>
      </trkpt>
      <trkpt lat="46.60015" lon="5.50979">
        <ele>455</ele>
        <time>2021-05-29T09:48:06.677Z</time>
      </trkpt>
      <trkpt lat="46.60015" lon="5.50979">
        <ele>455</ele>
        <time>2021-05-29T09:48:07.676Z</time>
      </trkpt>
      <trkpt lat="46.60015" lon="5.50979">
        <ele>455</ele>
        <time>2021-05-29T09:48:08.677Z</time>
      </trkpt>
      <trkpt lat="46.60015" lon="5.50979">
        <ele>455</ele>
        <time>2021-05-29T09:48:09.677Z</time>
      </trkpt>
      <trkpt lat="46.60015" lon="5.5098">
        <ele>455</ele>
        <time>2021-05-29T09:48:10.676Z</time>
      </trkpt>
      <trkpt lat="46.60014" lon="5.50982">
        <ele>455</ele>
        <time>2021-05-29T09:48:11.677Z</time>
      </trkpt>
      <trkpt lat="46.60013" lon="5.50984">
        <ele>455</ele>
        <time>2021-05-29T09:48:12.676Z</time>
      </trkpt>
      <trkpt lat="46.60012" lon="5.50985">
        <ele>455</ele>
        <time>2021-05-29T09:48:13.677Z</time>
      </trkpt>
      <trkpt lat="46.60011" lon="5.50986">
        <ele>455</ele>
        <time>2021-05-29T09:48:14.676Z</time>
      </trkpt>
      <trkpt lat="46.6001" lon="5.50988">
        <ele>455</ele>
        <time>2021-05-29T09:48:15.677Z</time>
      </trkpt>
      <trkpt lat="46.60009" lon="5.5099">
        <ele>455</ele>
        <time>2021-05-29T09:48:16.676Z</time>
      </trkpt>
      <trkpt lat="46.60008" lon="5.50992">
        <ele>455</ele>
        <time>2021-05-29T09:48:17.677Z</time>
      </trkpt>
      <trkpt lat="46.60007" lon="5.50995">
        <ele>455</ele>
        <time>2021-05-29T09:48:18.676Z</time>
      </trkpt>
      <trkpt lat="46.60007" lon="5.50997">
        <ele>455</ele>
        <time>2021-05-29T09:48:19.677Z</time>
      </trkpt>
      <trkpt lat="46.60006" lon="5.50999">
        <ele>455</ele>
        <time>2021-05-29T09:48:20.677Z</time>
      </trkpt>
      <trkpt lat="46.60006" lon="5.51001">
        <ele>455</ele>
        <time>2021-05-29T09:48:21.676Z</time>
      </trkpt>
      <trkpt lat="46.60005" lon="5.51002">
        <ele>456</ele>
        <time>2021-05-29T09:48:22.676Z</time>
      </trkpt>
      <trkpt lat="46.60004" lon="5.51004">
        <ele>456</ele>
        <time>2021-05-29T09:48:23.677Z</time>
      </trkpt>
      <trkpt lat="46.60003" lon="5.51005">
        <ele>457</ele>
        <time>2021-05-29T09:48:24.677Z</time>
      </trkpt>
      <trkpt lat="46.60002" lon="5.51006">
        <ele>457</ele>
        <time>2021-05-29T09:48:25.677Z</time>
      </trkpt>
      <trkpt lat="46.60002" lon="5.51008">
        <ele>457</ele>
        <time>2021-05-29T09:48:26.677Z</time>
      </trkpt>
      <trkpt lat="46.60001" lon="5.51009">
        <ele>458</ele>
        <time>2021-05-29T09:48:27.677Z</time>
      </trkpt>
      <trkpt lat="46.6" lon="5.51011">
        <ele>458</ele>
        <time>2021-05-29T09:48:28.676Z</time>
      </trkpt>
      <trkpt lat="46.59999" lon="5.51012">
        <ele>458</ele>
        <time>2021-05-29T09:48:29.677Z</time>
      </trkpt>
      <trkpt lat="46.59998" lon="5.51013">
        <ele>458</ele>
        <time>2021-05-29T09:48:30.677Z</time>
      </trkpt>
      <trkpt lat="46.59997" lon="5.51014">
        <ele>459</ele>
        <time>2021-05-29T09:48:31.677Z</time>
      </trkpt>
      <trkpt lat="46.59996" lon="5.51015">
        <ele>459</ele>
        <time>2021-05-29T09:48:32.677Z</time>
      </trkpt>
      <trkpt lat="46.59996" lon="5.51017">
        <ele>460</ele>
        <time>2021-05-29T09:48:33.677Z</time>
      </trkpt>
      <trkpt lat="46.59995" lon="5.51018">
        <ele>460</ele>
        <time>2021-05-29T09:48:34.677Z</time>
      </trkpt>
      <trkpt lat="46.59995" lon="5.5102">
        <ele>460</ele>
        <time>2021-05-29T09:48:35.676Z</time>
      </trkpt>
      <trkpt lat="46.59994" lon="5.51022">
        <ele>460</ele>
        <time>2021-05-29T09:48:36.677Z</time>
      </trkpt>
      <trkpt lat="46.59994" lon="5.51024">
        <ele>460</ele>
        <time>2021-05-29T09:48:37.677Z</time>
      </trkpt>
      <trkpt lat="46.59993" lon="5.51025">
        <ele>459</ele>
        <time>2021-05-29T09:48:38.677Z</time>
      </trkpt>
      <trkpt lat="46.59992" lon="5.51026">
        <ele>459</ele>
        <time>2021-05-29T09:48:39.677Z</time>
      </trkpt>
      <trkpt lat="46.59992" lon="5.51028">
        <ele>458</ele>
        <time>2021-05-29T09:48:40.677Z</time>
      </trkpt>
      <trkpt lat="46.59991" lon="5.51029">
        <ele>458</ele>
        <time>2021-05-29T09:48:41.677Z</time>
      </trkpt>
      <trkpt lat="46.59991" lon="5.5103">
        <ele>457</ele>
        <time>2021-05-29T09:48:42.676Z</time>
      </trkpt>
      <trkpt lat="46.5999" lon="5.51031">
        <ele>457</ele>
        <time>2021-05-29T09:48:43.676Z</time>
      </trkpt>
      <trkpt lat="46.5999" lon="5.51032">
        <ele>457</ele>
        <time>2021-05-29T09:48:44.677Z</time>
      </trkpt>
      <trkpt lat="46.59989" lon="5.51033">
        <ele>457</ele>
        <time>2021-05-29T09:48:45.677Z</time>
      </trkpt>
      <trkpt lat="46.59989" lon="5.51035">
        <ele>457</ele>
        <time>2021-05-29T09:48:46.677Z</time>
      </trkpt>
      <trkpt lat="46.59989" lon="5.51037">
        <ele>457</ele>
        <time>2021-05-29T09:48:47.676Z</time>
      </trkpt>
      <trkpt lat="46.59988" lon="5.51038">
        <ele>457</ele>
        <time>2021-05-29T09:48:48.676Z</time>
      </trkpt>
      <trkpt lat="46.59987" lon="5.5104">
        <ele>457</ele>
        <time>2021-05-29T09:48:49.676Z</time>
      </trkpt>
      <trkpt lat="46.59987" lon="5.51041">
        <ele>458</ele>
        <time>2021-05-29T09:48:50.677Z</time>
      </trkpt>
      <trkpt lat="46.59986" lon="5.51042">
        <ele>458</ele>
        <time>2021-05-29T09:48:51.676Z</time>
      </trkpt>
      <trkpt lat="46.59985" lon="5.51043">
        <ele>459</ele>
        <time>2021-05-29T09:48:52.677Z</time>
      </trkpt>
      <trkpt lat="46.59985" lon="5.51044">
        <ele>459</ele>
        <time>2021-05-29T09:48:53.677Z</time>
      </trkpt>
      <trkpt lat="46.59984" lon="5.51046">
        <ele>459</ele>
        <time>2021-05-29T09:48:54.677Z</time>
      </trkpt>
      <trkpt lat="46.59984" lon="5.51047">
        <ele>460</ele>
        <time>2021-05-29T09:48:55.677Z</time>
      </trkpt>
      <trkpt lat="46.59983" lon="5.51048">
        <ele>460</ele>
        <time>2021-05-29T09:48:56.677Z</time>
      </trkpt>
      <trkpt lat="46.59982" lon="5.51049">
        <ele>461</ele>
        <time>2021-05-29T09:48:57.677Z</time>
      </trkpt>
      <trkpt lat="46.59982" lon="5.5105">
        <ele>461</ele>
        <time>2021-05-29T09:48:58.677Z</time>
      </trkpt>
      <trkpt lat="46.59981" lon="5.51051">
        <ele>461</ele>
        <time>2021-05-29T09:48:59.677Z</time>
      </trkpt>
      <trkpt lat="46.59981" lon="5.51052">
        <ele>461</ele>
        <time>2021-05-29T09:49:00.676Z</time>
      </trkpt>
      <trkpt lat="46.59981" lon="5.51053">
        <ele>462</ele>
        <time>2021-05-29T09:49:01.677Z</time>
      </trkpt>
      <trkpt lat="46.59981" lon="5.51054">
        <ele>462</ele>
        <time>2021-05-29T09:49:02.677Z</time>
      </trkpt>
      <trkpt lat="46.5998" lon="5.51056">
        <ele>462</ele>
        <time>2021-05-29T09:49:03.677Z</time>
      </trkpt>
      <trkpt lat="46.5998" lon="5.51057">
        <ele>463</ele>
        <time>2021-05-29T09:49:04.677Z</time>
      </trkpt>
      <trkpt lat="46.5998" lon="5.51059">
        <ele>463</ele>
        <time>2021-05-29T09:49:05.676Z</time>
      </trkpt>
      <trkpt lat="46.59979" lon="5.5106">
        <ele>464</ele>
        <time>2021-05-29T09:49:06.677Z</time>
      </trkpt>
      <trkpt lat="46.59979" lon="5.51062">
        <ele>465</ele>
        <time>2021-05-29T09:49:07.677Z</time>
      </trkpt>
      <trkpt lat="46.59979" lon="5.51064">
        <ele>465</ele>
        <time>2021-05-29T09:49:08.677Z</time>
      </trkpt>
      <trkpt lat="46.59978" lon="5.51066">
        <ele>466</ele>
        <time>2021-05-29T09:49:09.677Z</time>
      </trkpt>
      <trkpt lat="46.59978" lon="5.51067">
        <ele>466</ele>
        <time>2021-05-29T09:49:10.677Z</time>
      </trkpt>
      <trkpt lat="46.59977" lon="5.51069">
        <ele>467</ele>
        <time>2021-05-29T09:49:11.676Z</time>
      </trkpt>
      <trkpt lat="46.59977" lon="5.5107">
        <ele>468</ele>
        <time>2021-05-29T09:49:18.643Z</time>
      </trkpt>
      <trkpt lat="46.59977" lon="5.51072">
        <ele>468</ele>
        <time>2021-05-29T09:49:19.643Z</time>
      </trkpt>
      <trkpt lat="46.59977" lon="5.51073">
        <ele>468</ele>
        <time>2021-05-29T09:49:20.643Z</time>
      </trkpt>
      <trkpt lat="46.59976" lon="5.51075">
        <ele>468</ele>
        <time>2021-05-29T09:49:21.643Z</time>
      </trkpt>
      <trkpt lat="46.59976" lon="5.51077">
        <ele>468</ele>
        <time>2021-05-29T09:49:22.643Z</time>
      </trkpt>
      <trkpt lat="46.59976" lon="5.51078">
        <ele>468</ele>
        <time>2021-05-29T09:49:23.643Z</time>
      </trkpt>
      <trkpt lat="46.59976" lon="5.5108">
        <ele>468</ele>
        <time>2021-05-29T09:49:24.643Z</time>
      </trkpt>
      <trkpt lat="46.59976" lon="5.51082">
        <ele>468</ele>
        <time>2021-05-29T09:49:25.643Z</time>
      </trkpt>
      <trkpt lat="46.59976" lon="5.51084">
        <ele>468</ele>
        <time>2021-05-29T09:49:26.643Z</time>
      </trkpt>
      <trkpt lat="46.59976" lon="5.51085">
        <ele>469</ele>
        <time>2021-05-29T09:49:27.643Z</time>
      </trkpt>
      <trkpt lat="46.59975" lon="5.51087">
        <ele>469</ele>
        <time>2021-05-29T09:49:28.643Z</time>
      </trkpt>
      <trkpt lat="46.59975" lon="5.5109">
        <ele>469</ele>
        <time>2021-05-29T09:49:29.643Z</time>
      </trkpt>
      <trkpt lat="46.59975" lon="5.51092">
        <ele>470</ele>
        <time>2021-05-29T09:49:30.643Z</time>
      </trkpt>
      <trkpt lat="46.59975" lon="5.51094">
        <ele>470</ele>
        <time>2021-05-29T09:49:31.643Z</time>
      </trkpt>
      <trkpt lat="46.59975" lon="5.51096">
        <ele>470</ele>
        <time>2021-05-29T09:49:32.642Z</time>
      </trkpt>
      <trkpt lat="46.59975" lon="5.51098">
        <ele>469</ele>
        <time>2021-05-29T09:49:33.643Z</time>
      </trkpt>
      <trkpt lat="46.59975" lon="5.511">
        <ele>468</ele>
        <time>2021-05-29T09:49:34.643Z</time>
      </trkpt>
      <trkpt lat="46.59975" lon="5.51103">
        <ele>468</ele>
        <time>2021-05-29T09:49:35.643Z</time>
      </trkpt>
      <trkpt lat="46.59975" lon="5.51105">
        <ele>467</ele>
        <time>2021-05-29T09:49:36.642Z</time>
      </trkpt>
      <trkpt lat="46.59975" lon="5.51108">
        <ele>467</ele>
        <time>2021-05-29T09:49:37.642Z</time>
      </trkpt>
      <trkpt lat="46.59975" lon="5.5111">
        <ele>467</ele>
        <time>2021-05-29T09:49:38.643Z</time>
      </trkpt>
      <trkpt lat="46.59975" lon="5.51112">
        <ele>467</ele>
        <time>2021-05-29T09:49:39.642Z</time>
      </trkpt>
      <trkpt lat="46.59975" lon="5.51113">
        <ele>467</ele>
        <time>2021-05-29T09:49:40.643Z</time>
      </trkpt>
      <trkpt lat="46.59975" lon="5.51116">
        <ele>467</ele>
        <time>2021-05-29T09:49:41.643Z</time>
      </trkpt>
      <trkpt lat="46.59975" lon="5.51118">
        <ele>467</ele>
        <time>2021-05-29T09:49:42.643Z</time>
      </trkpt>
      <trkpt lat="46.59975" lon="5.5112">
        <ele>467</ele>
        <time>2021-05-29T09:49:43.643Z</time>
      </trkpt>
      <trkpt lat="46.59975" lon="5.51121">
        <ele>467</ele>
        <time>2021-05-29T09:49:44.642Z</time>
      </trkpt>
      <trkpt lat="46.59975" lon="5.51123">
        <ele>467</ele>
        <time>2021-05-29T09:49:45.643Z</time>
      </trkpt>
      <trkpt lat="46.59976" lon="5.51124">
        <ele>467</ele>
        <time>2021-05-29T09:49:46.643Z</time>
      </trkpt>
      <trkpt lat="46.59976" lon="5.51126">
        <ele>467</ele>
        <time>2021-05-29T09:49:47.643Z</time>
      </trkpt>
      <trkpt lat="46.59976" lon="5.51128">
        <ele>466</ele>
        <time>2021-05-29T09:49:48.643Z</time>
      </trkpt>
      <trkpt lat="46.59976" lon="5.51131">
        <ele>466</ele>
        <time>2021-05-29T09:49:49.643Z</time>
      </trkpt>
      <trkpt lat="46.59976" lon="5.51134">
        <ele>465</ele>
        <time>2021-05-29T09:49:50.643Z</time>
      </trkpt>
      <trkpt lat="46.59976" lon="5.51136">
        <ele>465</ele>
        <time>2021-05-29T09:49:51.643Z</time>
      </trkpt>
      <trkpt lat="46.59976" lon="5.51137">
        <ele>465</ele>
        <time>2021-05-29T09:49:52.642Z</time>
      </trkpt>
      <trkpt lat="46.59976" lon="5.51139">
        <ele>465</ele>
        <time>2021-05-29T09:49:53.643Z</time>
      </trkpt>
      <trkpt lat="46.59976" lon="5.51141">
        <ele>465</ele>
        <time>2021-05-29T09:49:54.643Z</time>
      </trkpt>
      <trkpt lat="46.59976" lon="5.51143">
        <ele>465</ele>
        <time>2021-05-29T09:49:55.643Z</time>
      </trkpt>
      <trkpt lat="46.59976" lon="5.51144">
        <ele>465</ele>
        <time>2021-05-29T09:49:56.643Z</time>
      </trkpt>
      <trkpt lat="46.59977" lon="5.51146">
        <ele>465</ele>
        <time>2021-05-29T09:49:57.643Z</time>
      </trkpt>
      <trkpt lat="46.59977" lon="5.51147">
        <ele>466</ele>
        <time>2021-05-29T09:49:58.643Z</time>
      </trkpt>
      <trkpt lat="46.59977" lon="5.51148">
        <ele>466</ele>
        <time>2021-05-29T09:49:59.643Z</time>
      </trkpt>
      <trkpt lat="46.59977" lon="5.51149">
        <ele>467</ele>
        <time>2021-05-29T09:50:00.643Z</time>
      </trkpt>
      <trkpt lat="46.59977" lon="5.5115">
        <ele>467</ele>
        <time>2021-05-29T09:50:01.643Z</time>
      </trkpt>
      <trkpt lat="46.59977" lon="5.51151">
        <ele>468</ele>
        <time>2021-05-29T09:50:02.643Z</time>
      </trkpt>
      <trkpt lat="46.59977" lon="5.51152">
        <ele>468</ele>
        <time>2021-05-29T09:50:03.643Z</time>
      </trkpt>
      <trkpt lat="46.59977" lon="5.51154">
        <ele>469</ele>
        <time>2021-05-29T09:50:04.643Z</time>
      </trkpt>
      <trkpt lat="46.59977" lon="5.51155">
        <ele>470</ele>
        <time>2021-05-29T09:50:05.643Z</time>
      </trkpt>
      <trkpt lat="46.59977" lon="5.51157">
        <ele>470</ele>
        <time>2021-05-29T09:50:06.643Z</time>
      </trkpt>
      <trkpt lat="46.59977" lon="5.51158">
        <ele>471</ele>
        <time>2021-05-29T09:50:07.643Z</time>
      </trkpt>
      <trkpt lat="46.59977" lon="5.5116">
        <ele>471</ele>
        <time>2021-05-29T09:50:08.643Z</time>
      </trkpt>
      <trkpt lat="46.59977" lon="5.51162">
        <ele>471</ele>
        <time>2021-05-29T09:50:09.643Z</time>
      </trkpt>
      <trkpt lat="46.59977" lon="5.51164">
        <ele>471</ele>
        <time>2021-05-29T09:50:10.643Z</time>
      </trkpt>
      <trkpt lat="46.59977" lon="5.51165">
        <ele>471</ele>
        <time>2021-05-29T09:50:11.643Z</time>
      </trkpt>
      <trkpt lat="46.59977" lon="5.51167">
        <ele>471</ele>
        <time>2021-05-29T09:50:12.643Z</time>
      </trkpt>
      <trkpt lat="46.59977" lon="5.51168">
        <ele>471</ele>
        <time>2021-05-29T09:50:13.642Z</time>
      </trkpt>
      <trkpt lat="46.59978" lon="5.5117">
        <ele>471</ele>
        <time>2021-05-29T09:50:14.643Z</time>
      </trkpt>
      <trkpt lat="46.59978" lon="5.51171">
        <ele>471</ele>
        <time>2021-05-29T09:50:15.643Z</time>
      </trkpt>
      <trkpt lat="46.59977" lon="5.51173">
        <ele>471</ele>
        <time>2021-05-29T09:50:16.643Z</time>
      </trkpt>
      <trkpt lat="46.59977" lon="5.51175">
        <ele>470</ele>
        <time>2021-05-29T09:50:17.643Z</time>
      </trkpt>
      <trkpt lat="46.59977" lon="5.51177">
        <ele>470</ele>
        <time>2021-05-29T09:50:18.643Z</time>
      </trkpt>
      <trkpt lat="46.59977" lon="5.51179">
        <ele>470</ele>
        <time>2021-05-29T09:50:19.643Z</time>
      </trkpt>
      <trkpt lat="46.59976" lon="5.51181">
        <ele>470</ele>
        <time>2021-05-29T09:50:20.643Z</time>
      </trkpt>
      <trkpt lat="46.59976" lon="5.51182">
        <ele>470</ele>
        <time>2021-05-29T09:50:21.642Z</time>
      </trkpt>
      <trkpt lat="46.59976" lon="5.51183">
        <ele>471</ele>
        <time>2021-05-29T09:50:22.643Z</time>
      </trkpt>
      <trkpt lat="46.59976" lon="5.51184">
        <ele>471</ele>
        <time>2021-05-29T09:50:23.643Z</time>
      </trkpt>
      <trkpt lat="46.59976" lon="5.51186">
        <ele>471</ele>
        <time>2021-05-29T09:50:24.643Z</time>
      </trkpt>
      <trkpt lat="46.59977" lon="5.51187">
        <ele>471</ele>
        <time>2021-05-29T09:50:25.642Z</time>
      </trkpt>
      <trkpt lat="46.59977" lon="5.51189">
        <ele>471</ele>
        <time>2021-05-29T09:50:26.642Z</time>
      </trkpt>
      <trkpt lat="46.59977" lon="5.51189">
        <ele>472</ele>
        <time>2021-05-29T09:50:27.643Z</time>
      </trkpt>
      <trkpt lat="46.59977" lon="5.51189">
        <ele>472</ele>
        <time>2021-05-29T09:50:28.642Z</time>
      </trkpt>
      <trkpt lat="46.59977" lon="5.51189">
        <ele>472</ele>
        <time>2021-05-29T09:50:29.643Z</time>
      </trkpt>
      <trkpt lat="46.59977" lon="5.5119">
        <ele>473</ele>
        <time>2021-05-29T09:50:30.643Z</time>
      </trkpt>
      <trkpt lat="46.59977" lon="5.51189">
        <ele>473</ele>
        <time>2021-05-29T09:50:31.643Z</time>
      </trkpt>
      <trkpt lat="46.59977" lon="5.51188">
        <ele>473</ele>
        <time>2021-05-29T09:50:32.643Z</time>
      </trkpt>
      <trkpt lat="46.59978" lon="5.51188">
        <ele>473</ele>
        <time>2021-05-29T09:50:33.642Z</time>
      </trkpt>
      <trkpt lat="46.59978" lon="5.51188">
        <ele>474</ele>
        <time>2021-05-29T09:50:34.643Z</time>
      </trkpt>
      <trkpt lat="46.59978" lon="5.51188">
        <ele>474</ele>
        <time>2021-05-29T09:50:35.642Z</time>
      </trkpt>
      <trkpt lat="46.59978" lon="5.51188">
        <ele>474</ele>
        <time>2021-05-29T09:50:36.643Z</time>
      </trkpt>
      <trkpt lat="46.59977" lon="5.51188">
        <ele>474</ele>
        <time>2021-05-29T09:50:37.642Z</time>
      </trkpt>
      <trkpt lat="46.59977" lon="5.51189">
        <ele>474</ele>
        <time>2021-05-29T09:50:38.643Z</time>
      </trkpt>
      <trkpt lat="46.59977" lon="5.5119">
        <ele>474</ele>
        <time>2021-05-29T09:50:39.642Z</time>
      </trkpt>
      <trkpt lat="46.59976" lon="5.5119">
        <ele>474</ele>
        <time>2021-05-29T09:50:40.642Z</time>
      </trkpt>
      <trkpt lat="46.59975" lon="5.5119">
        <ele>474</ele>
        <time>2021-05-29T09:50:41.643Z</time>
      </trkpt>
      <trkpt lat="46.59975" lon="5.5119">
        <ele>474</ele>
        <time>2021-05-29T09:50:42.643Z</time>
      </trkpt>
      <trkpt lat="46.59974" lon="5.5119">
        <ele>474</ele>
        <time>2021-05-29T09:50:43.642Z</time>
      </trkpt>
      <trkpt lat="46.59974" lon="5.5119">
        <ele>474</ele>
        <time>2021-05-29T09:50:44.643Z</time>
      </trkpt>
      <trkpt lat="46.59974" lon="5.5119">
        <ele>474</ele>
        <time>2021-05-29T09:50:45.643Z</time>
      </trkpt>
      <trkpt lat="46.59974" lon="5.5119">
        <ele>474</ele>
        <time>2021-05-29T09:50:46.643Z</time>
      </trkpt>
      <trkpt lat="46.59974" lon="5.5119">
        <ele>473</ele>
        <time>2021-05-29T09:50:47.643Z</time>
      </trkpt>
      <trkpt lat="46.59974" lon="5.5119">
        <ele>474</ele>
        <time>2021-05-29T09:50:48.643Z</time>
      </trkpt>
      <trkpt lat="46.59974" lon="5.5119">
        <ele>474</ele>
        <time>2021-05-29T09:50:49.643Z</time>
      </trkpt>
      <trkpt lat="46.59974" lon="5.5119">
        <ele>475</ele>
        <time>2021-05-29T09:50:50.642Z</time>
      </trkpt>
      <trkpt lat="46.59974" lon="5.5119">
        <ele>475</ele>
        <time>2021-05-29T09:50:51.643Z</time>
      </trkpt>
      <trkpt lat="46.59974" lon="5.5119">
        <ele>475</ele>
        <time>2021-05-29T09:50:52.643Z</time>
      </trkpt>
      <trkpt lat="46.59974" lon="5.5119">
        <ele>475</ele>
        <time>2021-05-29T09:50:53.643Z</time>
      </trkpt>
      <trkpt lat="46.59974" lon="5.5119">
        <ele>475</ele>
        <time>2021-05-29T09:50:54.643Z</time>
      </trkpt>
      <trkpt lat="46.59974" lon="5.5119">
        <ele>475</ele>
        <time>2021-05-29T09:50:55.642Z</time>
      </trkpt>
      <trkpt lat="46.59974" lon="5.5119">
        <ele>475</ele>
        <time>2021-05-29T09:50:56.642Z</time>
      </trkpt>
      <trkpt lat="46.59974" lon="5.5119">
        <ele>475</ele>
        <time>2021-05-29T09:50:57.642Z</time>
      </trkpt>
      <trkpt lat="46.59974" lon="5.51191">
        <ele>475</ele>
        <time>2021-05-29T09:50:58.643Z</time>
      </trkpt>
      <trkpt lat="46.59973" lon="5.51194">
        <ele>475</ele>
        <time>2021-05-29T09:50:59.643Z</time>
      </trkpt>
      <trkpt lat="46.59973" lon="5.51197">
        <ele>475</ele>
        <time>2021-05-29T09:51:00.642Z</time>
      </trkpt>
      <trkpt lat="46.59973" lon="5.512">
        <ele>476</ele>
        <time>2021-05-29T09:51:01.643Z</time>
      </trkpt>
      <trkpt lat="46.59972" lon="5.51204">
        <ele>476</ele>
        <time>2021-05-29T09:51:02.643Z</time>
      </trkpt>
      <trkpt lat="46.59972" lon="5.51207">
        <ele>476</ele>
        <time>2021-05-29T09:51:03.643Z</time>
      </trkpt>
      <trkpt lat="46.59972" lon="5.51211">
        <ele>475</ele>
        <time>2021-05-29T09:51:04.642Z</time>
      </trkpt>
      <trkpt lat="46.59971" lon="5.51214">
        <ele>475</ele>
        <time>2021-05-29T09:51:05.643Z</time>
      </trkpt>
      <trkpt lat="46.59971" lon="5.51217">
        <ele>474</ele>
        <time>2021-05-29T09:51:06.643Z</time>
      </trkpt>
      <trkpt lat="46.59971" lon="5.51221">
        <ele>474</ele>
        <time>2021-05-29T09:51:07.643Z</time>
      </trkpt>
      <trkpt lat="46.5997" lon="5.51223">
        <ele>473</ele>
        <time>2021-05-29T09:51:08.643Z</time>
      </trkpt>
      <trkpt lat="46.5997" lon="5.51225">
        <ele>473</ele>
        <time>2021-05-29T09:51:09.642Z</time>
      </trkpt>
      <trkpt lat="46.59969" lon="5.51228">
        <ele>472</ele>
        <time>2021-05-29T09:51:10.643Z</time>
      </trkpt>
      <trkpt lat="46.59969" lon="5.51231">
        <ele>472</ele>
        <time>2021-05-29T09:51:11.642Z</time>
      </trkpt>
      <trkpt lat="46.59968" lon="5.51234">
        <ele>471</ele>
        <time>2021-05-29T09:51:12.643Z</time>
      </trkpt>
      <trkpt lat="46.59967" lon="5.51236">
        <ele>471</ele>
        <time>2021-05-29T09:51:13.643Z</time>
      </trkpt>
      <trkpt lat="46.59966" lon="5.51239">
        <ele>471</ele>
        <time>2021-05-29T09:51:14.643Z</time>
      </trkpt>
      <trkpt lat="46.59966" lon="5.51242">
        <ele>471</ele>
        <time>2021-05-29T09:51:15.643Z</time>
      </trkpt>
      <trkpt lat="46.59965" lon="5.51245">
        <ele>471</ele>
        <time>2021-05-29T09:51:16.642Z</time>
      </trkpt>
      <trkpt lat="46.59964" lon="5.51249">
        <ele>471</ele>
        <time>2021-05-29T09:51:17.643Z</time>
      </trkpt>
      <trkpt lat="46.59963" lon="5.51251">
        <ele>471</ele>
        <time>2021-05-29T09:51:18.643Z</time>
      </trkpt>
      <trkpt lat="46.59962" lon="5.51254">
        <ele>471</ele>
        <time>2021-05-29T09:51:19.643Z</time>
      </trkpt>
      <trkpt lat="46.59962" lon="5.51257">
        <ele>471</ele>
        <time>2021-05-29T09:51:20.642Z</time>
      </trkpt>
      <trkpt lat="46.59961" lon="5.5126">
        <ele>470</ele>
        <time>2021-05-29T09:51:21.642Z</time>
      </trkpt>
      <trkpt lat="46.59961" lon="5.51262">
        <ele>470</ele>
        <time>2021-05-29T09:51:22.642Z</time>
      </trkpt>
      <trkpt lat="46.5996" lon="5.51265">
        <ele>470</ele>
        <time>2021-05-29T09:51:23.643Z</time>
      </trkpt>
      <trkpt lat="46.5996" lon="5.51267">
        <ele>469</ele>
        <time>2021-05-29T09:51:24.643Z</time>
      </trkpt>
      <trkpt lat="46.59959" lon="5.5127">
        <ele>470</ele>
        <time>2021-05-29T09:51:25.643Z</time>
      </trkpt>
      <trkpt lat="46.5996" lon="5.51273">
        <ele>470</ele>
        <time>2021-05-29T09:51:26.643Z</time>
      </trkpt>
      <trkpt lat="46.5996" lon="5.51276">
        <ele>470</ele>
        <time>2021-05-29T09:51:27.642Z</time>
      </trkpt>
      <trkpt lat="46.59961" lon="5.51278">
        <ele>470</ele>
        <time>2021-05-29T09:51:28.642Z</time>
      </trkpt>
      <trkpt lat="46.59962" lon="5.5128">
        <ele>470</ele>
        <time>2021-05-29T09:51:29.643Z</time>
      </trkpt>
      <trkpt lat="46.59962" lon="5.51282">
        <ele>470</ele>
        <time>2021-05-29T09:51:30.642Z</time>
      </trkpt>
      <trkpt lat="46.59963" lon="5.51283">
        <ele>471</ele>
        <time>2021-05-29T09:51:31.643Z</time>
      </trkpt>
      <trkpt lat="46.59965" lon="5.51284">
        <ele>472</ele>
        <time>2021-05-29T09:51:32.643Z</time>
      </trkpt>
      <trkpt lat="46.59967" lon="5.51284">
        <ele>473</ele>
        <time>2021-05-29T09:51:33.643Z</time>
      </trkpt>
      <trkpt lat="46.59968" lon="5.51284">
        <ele>474</ele>
        <time>2021-05-29T09:51:34.643Z</time>
      </trkpt>
      <trkpt lat="46.5997" lon="5.51283">
        <ele>475</ele>
        <time>2021-05-29T09:51:35.643Z</time>
      </trkpt>
      <trkpt lat="46.59972" lon="5.51282">
        <ele>475</ele>
        <time>2021-05-29T09:51:36.642Z</time>
      </trkpt>
      <trkpt lat="46.59973" lon="5.51282">
        <ele>476</ele>
        <time>2021-05-29T09:51:37.643Z</time>
      </trkpt>
      <trkpt lat="46.59976" lon="5.51281">
        <ele>476</ele>
        <time>2021-05-29T09:51:38.643Z</time>
      </trkpt>
      <trkpt lat="46.59977" lon="5.5128">
        <ele>477</ele>
        <time>2021-05-29T09:51:39.643Z</time>
      </trkpt>
      <trkpt lat="46.59979" lon="5.51279">
        <ele>477</ele>
        <time>2021-05-29T09:51:40.643Z</time>
      </trkpt>
      <trkpt lat="46.59981" lon="5.51277">
        <ele>477</ele>
        <time>2021-05-29T09:51:41.643Z</time>
      </trkpt>
      <trkpt lat="46.59983" lon="5.51276">
        <ele>478</ele>
        <time>2021-05-29T09:51:42.643Z</time>
      </trkpt>
      <trkpt lat="46.59985" lon="5.51275">
        <ele>478</ele>
        <time>2021-05-29T09:51:43.643Z</time>
      </trkpt>
      <trkpt lat="46.59987" lon="5.51275">
        <ele>478</ele>
        <time>2021-05-29T09:51:44.643Z</time>
      </trkpt>
      <trkpt lat="46.59988" lon="5.51274">
        <ele>478</ele>
        <time>2021-05-29T09:51:45.642Z</time>
      </trkpt>
      <trkpt lat="46.5999" lon="5.51274">
        <ele>478</ele>
        <time>2021-05-29T09:51:46.643Z</time>
      </trkpt>
      <trkpt lat="46.59992" lon="5.51273">
        <ele>479</ele>
        <time>2021-05-29T09:51:47.643Z</time>
      </trkpt>
      <trkpt lat="46.59994" lon="5.51273">
        <ele>479</ele>
        <time>2021-05-29T09:51:48.643Z</time>
      </trkpt>
      <trkpt lat="46.59996" lon="5.51272">
        <ele>480</ele>
        <time>2021-05-29T09:51:49.643Z</time>
      </trkpt>
      <trkpt lat="46.59998" lon="5.51271">
        <ele>480</ele>
        <time>2021-05-29T09:51:50.643Z</time>
      </trkpt>
      <trkpt lat="46.59999" lon="5.5127">
        <ele>480</ele>
        <time>2021-05-29T09:51:51.643Z</time>
      </trkpt>
      <trkpt lat="46.60001" lon="5.51269">
        <ele>481</ele>
        <time>2021-05-29T09:51:52.642Z</time>
      </trkpt>
      <trkpt lat="46.60003" lon="5.51268">
        <ele>481</ele>
        <time>2021-05-29T09:51:53.643Z</time>
      </trkpt>
      <trkpt lat="46.60004" lon="5.51267">
        <ele>482</ele>
        <time>2021-05-29T09:51:54.643Z</time>
      </trkpt>
      <trkpt lat="46.60006" lon="5.51267">
        <ele>483</ele>
        <time>2021-05-29T09:51:55.642Z</time>
      </trkpt>
      <trkpt lat="46.60007" lon="5.51266">
        <ele>483</ele>
        <time>2021-05-29T09:51:56.643Z</time>
      </trkpt>
      <trkpt lat="46.60008" lon="5.51265">
        <ele>484</ele>
        <time>2021-05-29T09:51:57.642Z</time>
      </trkpt>
      <trkpt lat="46.6001" lon="5.51264">
        <ele>484</ele>
        <time>2021-05-29T09:51:58.643Z</time>
      </trkpt>
      <trkpt lat="46.60011" lon="5.51263">
        <ele>485</ele>
        <time>2021-05-29T09:51:59.643Z</time>
      </trkpt>
      <trkpt lat="46.60013" lon="5.51261">
        <ele>485</ele>
        <time>2021-05-29T09:52:00.643Z</time>
      </trkpt>
      <trkpt lat="46.60015" lon="5.5126">
        <ele>485</ele>
        <time>2021-05-29T09:52:01.642Z</time>
      </trkpt>
      <trkpt lat="46.60016" lon="5.51258">
        <ele>486</ele>
        <time>2021-05-29T09:52:02.643Z</time>
      </trkpt>
      <trkpt lat="46.60016" lon="5.51256">
        <ele>486</ele>
        <time>2021-05-29T09:52:03.643Z</time>
      </trkpt>
      <trkpt lat="46.60017" lon="5.51254">
        <ele>486</ele>
        <time>2021-05-29T09:52:04.642Z</time>
      </trkpt>
      <trkpt lat="46.60019" lon="5.51253">
        <ele>487</ele>
        <time>2021-05-29T09:52:05.643Z</time>
      </trkpt>
      <trkpt lat="46.60019" lon="5.51251">
        <ele>487</ele>
        <time>2021-05-29T09:52:06.643Z</time>
      </trkpt>
      <trkpt lat="46.60021" lon="5.5125">
        <ele>488</ele>
        <time>2021-05-29T09:52:07.643Z</time>
      </trkpt>
      <trkpt lat="46.60022" lon="5.51248">
        <ele>488</ele>
        <time>2021-05-29T09:52:08.642Z</time>
      </trkpt>
      <trkpt lat="46.60023" lon="5.51247">
        <ele>488</ele>
        <time>2021-05-29T09:52:09.643Z</time>
      </trkpt>
      <trkpt lat="46.60024" lon="5.51245">
        <ele>488</ele>
        <time>2021-05-29T09:52:10.643Z</time>
      </trkpt>
      <trkpt lat="46.60025" lon="5.51243">
        <ele>488</ele>
        <time>2021-05-29T09:52:11.643Z</time>
      </trkpt>
      <trkpt lat="46.60026" lon="5.51241">
        <ele>488</ele>
        <time>2021-05-29T09:52:12.643Z</time>
      </trkpt>
      <trkpt lat="46.60026" lon="5.5124">
        <ele>488</ele>
        <time>2021-05-29T09:52:13.642Z</time>
      </trkpt>
      <trkpt lat="46.60027" lon="5.51237">
        <ele>488</ele>
        <time>2021-05-29T09:52:14.642Z</time>
      </trkpt>
      <trkpt lat="46.60028" lon="5.51236">
        <ele>487</ele>
        <time>2021-05-29T09:52:15.643Z</time>
      </trkpt>
      <trkpt lat="46.6003" lon="5.51234">
        <ele>487</ele>
        <time>2021-05-29T09:52:16.642Z</time>
      </trkpt>
      <trkpt lat="46.6003" lon="5.51232">
        <ele>487</ele>
        <time>2021-05-29T09:52:17.643Z</time>
      </trkpt>
      <trkpt lat="46.60031" lon="5.5123">
        <ele>486</ele>
        <time>2021-05-29T09:52:18.643Z</time>
      </trkpt>
      <trkpt lat="46.60032" lon="5.51228">
        <ele>486</ele>
        <time>2021-05-29T09:52:19.643Z</time>
      </trkpt>
      <trkpt lat="46.60032" lon="5.51225">
        <ele>486</ele>
        <time>2021-05-29T09:52:20.643Z</time>
      </trkpt>
      <trkpt lat="46.60032" lon="5.51222">
        <ele>485</ele>
        <time>2021-05-29T09:52:21.643Z</time>
      </trkpt>
      <trkpt lat="46.60033" lon="5.5122">
        <ele>485</ele>
        <time>2021-05-29T09:52:22.643Z</time>
      </trkpt>
      <trkpt lat="46.60034" lon="5.51218">
        <ele>485</ele>
        <time>2021-05-29T09:52:23.643Z</time>
      </trkpt>
      <trkpt lat="46.60035" lon="5.51217">
        <ele>485</ele>
        <time>2021-05-29T09:52:24.643Z</time>
      </trkpt>
      <trkpt lat="46.60036" lon="5.51216">
        <ele>485</ele>
        <time>2021-05-29T09:52:25.643Z</time>
      </trkpt>
      <trkpt lat="46.60038" lon="5.51215">
        <ele>485</ele>
        <time>2021-05-29T09:52:26.643Z</time>
      </trkpt>
      <trkpt lat="46.6004" lon="5.51214">
        <ele>486</ele>
        <time>2021-05-29T09:52:27.643Z</time>
      </trkpt>
      <trkpt lat="46.60041" lon="5.51213">
        <ele>486</ele>
        <time>2021-05-29T09:52:28.643Z</time>
      </trkpt>
      <trkpt lat="46.60043" lon="5.51213">
        <ele>487</ele>
        <time>2021-05-29T09:52:29.643Z</time>
      </trkpt>
      <trkpt lat="46.60045" lon="5.51212">
        <ele>487</ele>
        <time>2021-05-29T09:52:30.643Z</time>
      </trkpt>
      <trkpt lat="46.60046" lon="5.51211">
        <ele>488</ele>
        <time>2021-05-29T09:52:31.642Z</time>
      </trkpt>
      <trkpt lat="46.60048" lon="5.5121">
        <ele>489</ele>
        <time>2021-05-29T09:52:32.643Z</time>
      </trkpt>
      <trkpt lat="46.60049" lon="5.5121">
        <ele>489</ele>
        <time>2021-05-29T09:52:33.643Z</time>
      </trkpt>
      <trkpt lat="46.60051" lon="5.51209">
        <ele>489</ele>
        <time>2021-05-29T09:52:34.643Z</time>
      </trkpt>
      <trkpt lat="46.60052" lon="5.51209">
        <ele>489</ele>
        <time>2021-05-29T09:52:35.643Z</time>
      </trkpt>
      <trkpt lat="46.60054" lon="5.51208">
        <ele>489</ele>
        <time>2021-05-29T09:52:36.642Z</time>
      </trkpt>
      <trkpt lat="46.60056" lon="5.51208">
        <ele>490</ele>
        <time>2021-05-29T09:52:37.643Z</time>
      </trkpt>
      <trkpt lat="46.60057" lon="5.51207">
        <ele>490</ele>
        <time>2021-05-29T09:52:38.643Z</time>
      </trkpt>
      <trkpt lat="46.60059" lon="5.51207">
        <ele>490</ele>
        <time>2021-05-29T09:52:39.643Z</time>
      </trkpt>
      <trkpt lat="46.6006" lon="5.51206">
        <ele>490</ele>
        <time>2021-05-29T09:52:40.643Z</time>
      </trkpt>
      <trkpt lat="46.60061" lon="5.51205">
        <ele>490</ele>
        <time>2021-05-29T09:52:41.642Z</time>
      </trkpt>
      <trkpt lat="46.60063" lon="5.51205">
        <ele>490</ele>
        <time>2021-05-29T09:52:42.643Z</time>
      </trkpt>
      <trkpt lat="46.60065" lon="5.51204">
        <ele>490</ele>
        <time>2021-05-29T09:52:43.643Z</time>
      </trkpt>
      <trkpt lat="46.60066" lon="5.51203">
        <ele>490</ele>
        <time>2021-05-29T09:52:44.643Z</time>
      </trkpt>
      <trkpt lat="46.60067" lon="5.51202">
        <ele>490</ele>
        <time>2021-05-29T09:52:45.643Z</time>
      </trkpt>
      <trkpt lat="46.60069" lon="5.51202">
        <ele>490</ele>
        <time>2021-05-29T09:52:46.643Z</time>
      </trkpt>
      <trkpt lat="46.60071" lon="5.51201">
        <ele>490</ele>
        <time>2021-05-29T09:52:47.643Z</time>
      </trkpt>
      <trkpt lat="46.60072" lon="5.512">
        <ele>491</ele>
        <time>2021-05-29T09:52:48.642Z</time>
      </trkpt>
      <trkpt lat="46.60073" lon="5.51199">
        <ele>491</ele>
        <time>2021-05-29T09:52:49.643Z</time>
      </trkpt>
      <trkpt lat="46.60075" lon="5.51199">
        <ele>491</ele>
        <time>2021-05-29T09:52:50.642Z</time>
      </trkpt>
      <trkpt lat="46.60076" lon="5.51198">
        <ele>491</ele>
        <time>2021-05-29T09:52:51.643Z</time>
      </trkpt>
      <trkpt lat="46.60078" lon="5.51197">
        <ele>491</ele>
        <time>2021-05-29T09:52:52.643Z</time>
      </trkpt>
      <trkpt lat="46.60079" lon="5.51197">
        <ele>490</ele>
        <time>2021-05-29T09:52:53.642Z</time>
      </trkpt>
      <trkpt lat="46.60081" lon="5.51196">
        <ele>490</ele>
        <time>2021-05-29T09:52:54.642Z</time>
      </trkpt>
      <trkpt lat="46.60082" lon="5.51195">
        <ele>491</ele>
        <time>2021-05-29T09:52:55.642Z</time>
      </trkpt>
      <trkpt lat="46.60084" lon="5.51195">
        <ele>491</ele>
        <time>2021-05-29T09:52:56.642Z</time>
      </trkpt>
      <trkpt lat="46.60086" lon="5.51194">
        <ele>492</ele>
        <time>2021-05-29T09:52:57.642Z</time>
      </trkpt>
      <trkpt lat="46.60087" lon="5.51194">
        <ele>492</ele>
        <time>2021-05-29T09:52:58.643Z</time>
      </trkpt>
      <trkpt lat="46.60089" lon="5.51194">
        <ele>492</ele>
        <time>2021-05-29T09:52:59.642Z</time>
      </trkpt>
      <trkpt lat="46.6009" lon="5.51195">
        <ele>492</ele>
        <time>2021-05-29T09:53:00.642Z</time>
      </trkpt>
      <trkpt lat="46.6009" lon="5.51195">
        <ele>492</ele>
        <time>2021-05-29T09:53:01.643Z</time>
      </trkpt>
      <trkpt lat="46.6009" lon="5.51195">
        <ele>492</ele>
        <time>2021-05-29T09:53:02.643Z</time>
      </trkpt>
      <trkpt lat="46.6009" lon="5.51195">
        <ele>493</ele>
        <time>2021-05-29T09:53:03.643Z</time>
      </trkpt>
      <trkpt lat="46.6009" lon="5.51195">
        <ele>493</ele>
        <time>2021-05-29T09:53:04.643Z</time>
      </trkpt>
      <trkpt lat="46.6009" lon="5.51195">
        <ele>494</ele>
        <time>2021-05-29T09:53:05.643Z</time>
      </trkpt>
      <trkpt lat="46.6009" lon="5.51194">
        <ele>494</ele>
        <time>2021-05-29T09:53:06.643Z</time>
      </trkpt>
      <trkpt lat="46.60091" lon="5.51193">
        <ele>494</ele>
        <time>2021-05-29T09:53:07.642Z</time>
      </trkpt>
      <trkpt lat="46.60092" lon="5.51193">
        <ele>494</ele>
        <time>2021-05-29T09:53:08.643Z</time>
      </trkpt>
      <trkpt lat="46.60092" lon="5.51192">
        <ele>494</ele>
        <time>2021-05-29T09:53:09.643Z</time>
      </trkpt>
      <trkpt lat="46.60092" lon="5.51191">
        <ele>494</ele>
        <time>2021-05-29T09:53:10.643Z</time>
      </trkpt>
      <trkpt lat="46.60092" lon="5.5119">
        <ele>493</ele>
        <time>2021-05-29T09:53:11.643Z</time>
      </trkpt>
      <trkpt lat="46.60092" lon="5.51189">
        <ele>493</ele>
        <time>2021-05-29T09:53:12.643Z</time>
      </trkpt>
      <trkpt lat="46.60091" lon="5.51188">
        <ele>492</ele>
        <time>2021-05-29T09:53:13.643Z</time>
      </trkpt>
      <trkpt lat="46.60089" lon="5.51189">
        <ele>491</ele>
        <time>2021-05-29T09:53:14.643Z</time>
      </trkpt>
      <trkpt lat="46.60088" lon="5.51189">
        <ele>491</ele>
        <time>2021-05-29T09:53:15.643Z</time>
      </trkpt>
      <trkpt lat="46.60087" lon="5.5119">
        <ele>491</ele>
        <time>2021-05-29T09:53:16.643Z</time>
      </trkpt>
      <trkpt lat="46.60086" lon="5.51189">
        <ele>491</ele>
        <time>2021-05-29T09:53:17.643Z</time>
      </trkpt>
      <trkpt lat="46.60085" lon="5.51189">
        <ele>491</ele>
        <time>2021-05-29T09:53:18.642Z</time>
      </trkpt>
      <trkpt lat="46.60085" lon="5.51189">
        <ele>492</ele>
        <time>2021-05-29T09:53:19.642Z</time>
      </trkpt>
      <trkpt lat="46.60085" lon="5.51188">
        <ele>492</ele>
        <time>2021-05-29T09:53:20.643Z</time>
      </trkpt>
      <trkpt lat="46.60085" lon="5.51187">
        <ele>492</ele>
        <time>2021-05-29T09:53:21.643Z</time>
      </trkpt>
      <trkpt lat="46.60086" lon="5.51186">
        <ele>492</ele>
        <time>2021-05-29T09:53:22.643Z</time>
      </trkpt>
      <trkpt lat="46.60087" lon="5.51185">
        <ele>493</ele>
        <time>2021-05-29T09:53:23.643Z</time>
      </trkpt>
      <trkpt lat="46.60087" lon="5.51185">
        <ele>493</ele>
        <time>2021-05-29T09:53:24.642Z</time>
      </trkpt>
      <trkpt lat="46.60088" lon="5.51185">
        <ele>493</ele>
        <time>2021-05-29T09:53:25.643Z</time>
      </trkpt>
      <trkpt lat="46.60088" lon="5.51185">
        <ele>493</ele>
        <time>2021-05-29T09:53:26.643Z</time>
      </trkpt>
      <trkpt lat="46.60089" lon="5.51185">
        <ele>493</ele>
        <time>2021-05-29T09:53:27.642Z</time>
      </trkpt>
      <trkpt lat="46.60088" lon="5.51184">
        <ele>493</ele>
        <time>2021-05-29T09:53:28.643Z</time>
      </trkpt>
      <trkpt lat="46.60088" lon="5.51184">
        <ele>493</ele>
        <time>2021-05-29T09:53:29.643Z</time>
      </trkpt>
      <trkpt lat="46.60089" lon="5.51184">
        <ele>493</ele>
        <time>2021-05-29T09:53:30.643Z</time>
      </trkpt>
      <trkpt lat="46.6009" lon="5.51183">
        <ele>493</ele>
        <time>2021-05-29T09:53:31.643Z</time>
      </trkpt>
      <trkpt lat="46.60091" lon="5.51183">
        <ele>493</ele>
        <time>2021-05-29T09:53:32.643Z</time>
      </trkpt>
      <trkpt lat="46.60092" lon="5.51183">
        <ele>494</ele>
        <time>2021-05-29T09:53:33.643Z</time>
      </trkpt>
      <trkpt lat="46.60093" lon="5.51182">
        <ele>494</ele>
        <time>2021-05-29T09:53:34.643Z</time>
      </trkpt>
      <trkpt lat="46.60094" lon="5.51182">
        <ele>494</ele>
        <time>2021-05-29T09:53:35.642Z</time>
      </trkpt>
      <trkpt lat="46.60095" lon="5.51181">
        <ele>494</ele>
        <time>2021-05-29T09:53:36.643Z</time>
      </trkpt>
      <trkpt lat="46.60096" lon="5.5118">
        <ele>494</ele>
        <time>2021-05-29T09:53:37.643Z</time>
      </trkpt>
      <trkpt lat="46.60097" lon="5.51179">
        <ele>494</ele>
        <time>2021-05-29T09:53:38.643Z</time>
      </trkpt>
      <trkpt lat="46.60098" lon="5.51179">
        <ele>494</ele>
        <time>2021-05-29T09:53:39.643Z</time>
      </trkpt>
      <trkpt lat="46.601" lon="5.51178">
        <ele>494</ele>
        <time>2021-05-29T09:53:40.642Z</time>
      </trkpt>
      <trkpt lat="46.60101" lon="5.51177">
        <ele>495</ele>
        <time>2021-05-29T09:53:41.643Z</time>
      </trkpt>
      <trkpt lat="46.60102" lon="5.51176">
        <ele>495</ele>
        <time>2021-05-29T09:53:42.643Z</time>
      </trkpt>
      <trkpt lat="46.60103" lon="5.51176">
        <ele>496</ele>
        <time>2021-05-29T09:53:43.643Z</time>
      </trkpt>
      <trkpt lat="46.60105" lon="5.51175">
        <ele>496</ele>
        <time>2021-05-29T09:53:44.643Z</time>
      </trkpt>
      <trkpt lat="46.60106" lon="5.51175">
        <ele>496</ele>
        <time>2021-05-29T09:53:45.643Z</time>
      </trkpt>
      <trkpt lat="46.60107" lon="5.51174">
        <ele>497</ele>
        <time>2021-05-29T09:53:46.643Z</time>
      </trkpt>
      <trkpt lat="46.60108" lon="5.51174">
        <ele>497</ele>
        <time>2021-05-29T09:53:47.643Z</time>
      </trkpt>
      <trkpt lat="46.60109" lon="5.51173">
        <ele>498</ele>
        <time>2021-05-29T09:53:48.642Z</time>
      </trkpt>
      <trkpt lat="46.6011" lon="5.51172">
        <ele>498</ele>
        <time>2021-05-29T09:53:49.643Z</time>
      </trkpt>
      <trkpt lat="46.60112" lon="5.51171">
        <ele>499</ele>
        <time>2021-05-29T09:53:50.643Z</time>
      </trkpt>
      <trkpt lat="46.60113" lon="5.5117">
        <ele>499</ele>
        <time>2021-05-29T09:53:51.642Z</time>
      </trkpt>
      <trkpt lat="46.60115" lon="5.51168">
        <ele>500</ele>
        <time>2021-05-29T09:53:52.643Z</time>
      </trkpt>
      <trkpt lat="46.60116" lon="5.51167">
        <ele>500</ele>
        <time>2021-05-29T09:53:53.643Z</time>
      </trkpt>
      <trkpt lat="46.60117" lon="5.51164">
        <ele>500</ele>
        <time>2021-05-29T09:53:54.642Z</time>
      </trkpt>
      <trkpt lat="46.60118" lon="5.51162">
        <ele>500</ele>
        <time>2021-05-29T09:53:55.643Z</time>
      </trkpt>
      <trkpt lat="46.60118" lon="5.5116">
        <ele>500</ele>
        <time>2021-05-29T09:53:56.643Z</time>
      </trkpt>
      <trkpt lat="46.60119" lon="5.51157">
        <ele>501</ele>
        <time>2021-05-29T09:53:57.643Z</time>
      </trkpt>
      <trkpt lat="46.6012" lon="5.51155">
        <ele>501</ele>
        <time>2021-05-29T09:53:58.643Z</time>
      </trkpt>
      <trkpt lat="46.6012" lon="5.51153">
        <ele>501</ele>
        <time>2021-05-29T09:53:59.643Z</time>
      </trkpt>
      <trkpt lat="46.60121" lon="5.51152">
        <ele>502</ele>
        <time>2021-05-29T09:54:00.643Z</time>
      </trkpt>
      <trkpt lat="46.60122" lon="5.5115">
        <ele>502</ele>
        <time>2021-05-29T09:54:01.643Z</time>
      </trkpt>
      <trkpt lat="46.60122" lon="5.51148">
        <ele>502</ele>
        <time>2021-05-29T09:54:02.643Z</time>
      </trkpt>
      <trkpt lat="46.60122" lon="5.51145">
        <ele>501</ele>
        <time>2021-05-29T09:54:03.643Z</time>
      </trkpt>
      <trkpt lat="46.60122" lon="5.51143">
        <ele>501</ele>
        <time>2021-05-29T09:54:04.643Z</time>
      </trkpt>
      <trkpt lat="46.60122" lon="5.51141">
        <ele>501</ele>
        <time>2021-05-29T09:54:05.643Z</time>
      </trkpt>
      <trkpt lat="46.60123" lon="5.51138">
        <ele>500</ele>
        <time>2021-05-29T09:54:06.643Z</time>
      </trkpt>
      <trkpt lat="46.60123" lon="5.51136">
        <ele>500</ele>
        <time>2021-05-29T09:54:07.643Z</time>
      </trkpt>
      <trkpt lat="46.60123" lon="5.51134">
        <ele>499</ele>
        <time>2021-05-29T09:54:08.643Z</time>
      </trkpt>
      <trkpt lat="46.60124" lon="5.51131">
        <ele>499</ele>
        <time>2021-05-29T09:54:09.643Z</time>
      </trkpt>
      <trkpt lat="46.60124" lon="5.51129">
        <ele>499</ele>
        <time>2021-05-29T09:54:10.643Z</time>
      </trkpt>
      <trkpt lat="46.60124" lon="5.51128">
        <ele>499</ele>
        <time>2021-05-29T09:54:11.643Z</time>
      </trkpt>
      <trkpt lat="46.60123" lon="5.51126">
        <ele>499</ele>
        <time>2021-05-29T09:54:12.643Z</time>
      </trkpt>
      <trkpt lat="46.60123" lon="5.51124">
        <ele>499</ele>
        <time>2021-05-29T09:54:13.643Z</time>
      </trkpt>
      <trkpt lat="46.60122" lon="5.51123">
        <ele>500</ele>
        <time>2021-05-29T09:54:14.643Z</time>
      </trkpt>
      <trkpt lat="46.6012" lon="5.51122">
        <ele>501</ele>
        <time>2021-05-29T09:54:15.643Z</time>
      </trkpt>
      <trkpt lat="46.60119" lon="5.51121">
        <ele>501</ele>
        <time>2021-05-29T09:54:16.643Z</time>
      </trkpt>
      <trkpt lat="46.60116" lon="5.51121">
        <ele>502</ele>
        <time>2021-05-29T09:54:17.643Z</time>
      </trkpt>
      <trkpt lat="46.60114" lon="5.51121">
        <ele>503</ele>
        <time>2021-05-29T09:54:18.643Z</time>
      </trkpt>
      <trkpt lat="46.60112" lon="5.5112">
        <ele>503</ele>
        <time>2021-05-29T09:54:19.643Z</time>
      </trkpt>
      <trkpt lat="46.6011" lon="5.5112">
        <ele>504</ele>
        <time>2021-05-29T09:54:20.642Z</time>
      </trkpt>
      <trkpt lat="46.60108" lon="5.51119">
        <ele>505</ele>
        <time>2021-05-29T09:54:21.642Z</time>
      </trkpt>
      <trkpt lat="46.60106" lon="5.51119">
        <ele>505</ele>
        <time>2021-05-29T09:54:22.643Z</time>
      </trkpt>
      <trkpt lat="46.60105" lon="5.5112">
        <ele>506</ele>
        <time>2021-05-29T09:54:23.643Z</time>
      </trkpt>
      <trkpt lat="46.60103" lon="5.5112">
        <ele>507</ele>
        <time>2021-05-29T09:54:24.642Z</time>
      </trkpt>
      <trkpt lat="46.60102" lon="5.51119">
        <ele>507</ele>
        <time>2021-05-29T09:54:25.643Z</time>
      </trkpt>
      <trkpt lat="46.601" lon="5.51118">
        <ele>508</ele>
        <time>2021-05-29T09:54:26.642Z</time>
      </trkpt>
      <trkpt lat="46.60099" lon="5.51117">
        <ele>509</ele>
        <time>2021-05-29T09:54:27.643Z</time>
      </trkpt>
      <trkpt lat="46.60097" lon="5.51116">
        <ele>509</ele>
        <time>2021-05-29T09:54:28.643Z</time>
      </trkpt>
      <trkpt lat="46.60095" lon="5.51115">
        <ele>509</ele>
        <time>2021-05-29T09:54:29.643Z</time>
      </trkpt>
      <trkpt lat="46.60094" lon="5.51114">
        <ele>509</ele>
        <time>2021-05-29T09:54:30.643Z</time>
      </trkpt>
      <trkpt lat="46.60092" lon="5.51113">
        <ele>509</ele>
        <time>2021-05-29T09:54:31.643Z</time>
      </trkpt>
      <trkpt lat="46.6009" lon="5.51113">
        <ele>510</ele>
        <time>2021-05-29T09:54:32.643Z</time>
      </trkpt>
      <trkpt lat="46.60088" lon="5.51112">
        <ele>510</ele>
        <time>2021-05-29T09:54:33.643Z</time>
      </trkpt>
      <trkpt lat="46.60087" lon="5.5111">
        <ele>510</ele>
        <time>2021-05-29T09:54:34.643Z</time>
      </trkpt>
      <trkpt lat="46.60085" lon="5.51109">
        <ele>510</ele>
        <time>2021-05-29T09:54:35.642Z</time>
      </trkpt>
      <trkpt lat="46.60083" lon="5.51108">
        <ele>510</ele>
        <time>2021-05-29T09:54:36.643Z</time>
      </trkpt>
      <trkpt lat="46.60081" lon="5.51107">
        <ele>510</ele>
        <time>2021-05-29T09:54:37.643Z</time>
      </trkpt>
      <trkpt lat="46.60079" lon="5.51105">
        <ele>510</ele>
        <time>2021-05-29T09:54:38.643Z</time>
      </trkpt>
      <trkpt lat="46.60077" lon="5.51104">
        <ele>511</ele>
        <time>2021-05-29T09:54:39.643Z</time>
      </trkpt>
      <trkpt lat="46.60075" lon="5.51104">
        <ele>511</ele>
        <time>2021-05-29T09:54:40.643Z</time>
      </trkpt>
      <trkpt lat="46.60072" lon="5.51103">
        <ele>512</ele>
        <time>2021-05-29T09:54:41.643Z</time>
      </trkpt>
      <trkpt lat="46.60068" lon="5.51102">
        <ele>512</ele>
        <time>2021-05-29T09:54:42.643Z</time>
      </trkpt>
      <trkpt lat="46.60066" lon="5.51103">
        <ele>513</ele>
        <time>2021-05-29T09:54:43.643Z</time>
      </trkpt>
      <trkpt lat="46.60063" lon="5.51103">
        <ele>514</ele>
        <time>2021-05-29T09:54:44.643Z</time>
      </trkpt>
      <trkpt lat="46.60061" lon="5.51103">
        <ele>514</ele>
        <time>2021-05-29T09:54:45.643Z</time>
      </trkpt>
      <trkpt lat="46.60059" lon="5.51103">
        <ele>515</ele>
        <time>2021-05-29T09:54:46.643Z</time>
      </trkpt>
      <trkpt lat="46.60057" lon="5.51102">
        <ele>515</ele>
        <time>2021-05-29T09:54:47.643Z</time>
      </trkpt>
      <trkpt lat="46.60056" lon="5.51102">
        <ele>515</ele>
        <time>2021-05-29T09:54:48.643Z</time>
      </trkpt>
      <trkpt lat="46.60054" lon="5.51101">
        <ele>515</ele>
        <time>2021-05-29T09:54:49.643Z</time>
      </trkpt>
      <trkpt lat="46.60052" lon="5.511">
        <ele>515</ele>
        <time>2021-05-29T09:54:50.642Z</time>
      </trkpt>
      <trkpt lat="46.6005" lon="5.511">
        <ele>516</ele>
        <time>2021-05-29T09:54:51.643Z</time>
      </trkpt>
      <trkpt lat="46.60049" lon="5.511">
        <ele>516</ele>
        <time>2021-05-29T09:54:52.643Z</time>
      </trkpt>
      <trkpt lat="46.60048" lon="5.511">
        <ele>516</ele>
        <time>2021-05-29T09:54:53.643Z</time>
      </trkpt>
      <trkpt lat="46.60046" lon="5.511">
        <ele>516</ele>
        <time>2021-05-29T09:54:54.643Z</time>
      </trkpt>
      <trkpt lat="46.60051" lon="5.51104">
        <ele>517</ele>
        <time>2021-05-29T09:54:55.642Z</time>
      </trkpt>
      <trkpt lat="46.60051" lon="5.51103">
        <ele>517</ele>
        <time>2021-05-29T09:54:56.643Z</time>
      </trkpt>
      <trkpt lat="46.60052" lon="5.51103">
        <ele>517</ele>
        <time>2021-05-29T09:54:57.642Z</time>
      </trkpt>
      <trkpt lat="46.60053" lon="5.51103">
        <ele>517</ele>
        <time>2021-05-29T09:54:58.642Z</time>
      </trkpt>
      <trkpt lat="46.60054" lon="5.51103">
        <ele>517</ele>
        <time>2021-05-29T09:54:59.643Z</time>
      </trkpt>
      <trkpt lat="46.60055" lon="5.51103">
        <ele>517</ele>
        <time>2021-05-29T09:55:00.643Z</time>
      </trkpt>
      <trkpt lat="46.60056" lon="5.51102">
        <ele>517</ele>
        <time>2021-05-29T09:55:01.642Z</time>
      </trkpt>
      <trkpt lat="46.60057" lon="5.51102">
        <ele>517</ele>
        <time>2021-05-29T09:55:02.643Z</time>
      </trkpt>
      <trkpt lat="46.60058" lon="5.51103">
        <ele>517</ele>
        <time>2021-05-29T09:55:03.643Z</time>
      </trkpt>
      <trkpt lat="46.60059" lon="5.51103">
        <ele>517</ele>
        <time>2021-05-29T09:55:04.643Z</time>
      </trkpt>
      <trkpt lat="46.6006" lon="5.51104">
        <ele>517</ele>
        <time>2021-05-29T09:55:05.643Z</time>
      </trkpt>
      <trkpt lat="46.60061" lon="5.51105">
        <ele>517</ele>
        <time>2021-05-29T09:55:06.643Z</time>
      </trkpt>
      <trkpt lat="46.60061" lon="5.51105">
        <ele>517</ele>
        <time>2021-05-29T09:55:07.643Z</time>
      </trkpt>
      <trkpt lat="46.60061" lon="5.51105">
        <ele>517</ele>
        <time>2021-05-29T09:55:08.643Z</time>
      </trkpt>
      <trkpt lat="46.60061" lon="5.51105">
        <ele>518</ele>
        <time>2021-05-29T09:55:09.642Z</time>
      </trkpt>
      <trkpt lat="46.60061" lon="5.51105">
        <ele>518</ele>
        <time>2021-05-29T09:55:10.643Z</time>
      </trkpt>
      <trkpt lat="46.60062" lon="5.51105">
        <ele>517</ele>
        <time>2021-05-29T09:55:11.643Z</time>
      </trkpt>
      <trkpt lat="46.60062" lon="5.51106">
        <ele>517</ele>
        <time>2021-05-29T09:55:12.643Z</time>
      </trkpt>
      <trkpt lat="46.60064" lon="5.51106">
        <ele>517</ele>
        <time>2021-05-29T09:55:13.642Z</time>
      </trkpt>
      <trkpt lat="46.60064" lon="5.51106">
        <ele>517</ele>
        <time>2021-05-29T09:55:14.643Z</time>
      </trkpt>
      <trkpt lat="46.60065" lon="5.51106">
        <ele>517</ele>
        <time>2021-05-29T09:55:15.643Z</time>
      </trkpt>
      <trkpt lat="46.60066" lon="5.51107">
        <ele>517</ele>
        <time>2021-05-29T09:55:16.643Z</time>
      </trkpt>
      <trkpt lat="46.60067" lon="5.51107">
        <ele>517</ele>
        <time>2021-05-29T09:55:17.642Z</time>
      </trkpt>
      <trkpt lat="46.60066" lon="5.51106">
        <ele>517</ele>
        <time>2021-05-29T09:55:18.643Z</time>
      </trkpt>
      <trkpt lat="46.60065" lon="5.51106">
        <ele>517</ele>
        <time>2021-05-29T09:55:19.642Z</time>
      </trkpt>
      <trkpt lat="46.60065" lon="5.51106">
        <ele>517</ele>
        <time>2021-05-29T09:55:20.643Z</time>
      </trkpt>
      <trkpt lat="46.60065" lon="5.51105">
        <ele>517</ele>
        <time>2021-05-29T09:55:21.643Z</time>
      </trkpt>
      <trkpt lat="46.60065" lon="5.51105">
        <ele>517</ele>
        <time>2021-05-29T09:55:22.643Z</time>
      </trkpt>
      <trkpt lat="46.60064" lon="5.51105">
        <ele>517</ele>
        <time>2021-05-29T09:55:23.643Z</time>
      </trkpt>
      <trkpt lat="46.60064" lon="5.51105">
        <ele>517</ele>
        <time>2021-05-29T09:55:24.643Z</time>
      </trkpt>
      <trkpt lat="46.60064" lon="5.51105">
        <ele>516</ele>
        <time>2021-05-29T09:55:25.643Z</time>
      </trkpt>
      <trkpt lat="46.60065" lon="5.51105">
        <ele>516</ele>
        <time>2021-05-29T09:55:26.642Z</time>
      </trkpt>
      <trkpt lat="46.60065" lon="5.51106">
        <ele>516</ele>
        <time>2021-05-29T09:55:27.642Z</time>
      </trkpt>
      <trkpt lat="46.60065" lon="5.51106">
        <ele>516</ele>
        <time>2021-05-29T09:55:28.643Z</time>
      </trkpt>
      <trkpt lat="46.60066" lon="5.51106">
        <ele>516</ele>
        <time>2021-05-29T09:55:29.643Z</time>
      </trkpt>
      <trkpt lat="46.60067" lon="5.51107">
        <ele>516</ele>
        <time>2021-05-29T09:55:30.643Z</time>
      </trkpt>
      <trkpt lat="46.60068" lon="5.51108">
        <ele>516</ele>
        <time>2021-05-29T09:55:31.643Z</time>
      </trkpt>
      <trkpt lat="46.60069" lon="5.51108">
        <ele>516</ele>
        <time>2021-05-29T09:55:32.643Z</time>
      </trkpt>
      <trkpt lat="46.60069" lon="5.51108">
        <ele>516</ele>
        <time>2021-05-29T09:55:33.642Z</time>
      </trkpt>
      <trkpt lat="46.60069" lon="5.51107">
        <ele>515</ele>
        <time>2021-05-29T09:55:34.643Z</time>
      </trkpt>
      <trkpt lat="46.60069" lon="5.51107">
        <ele>515</ele>
        <time>2021-05-29T09:55:35.643Z</time>
      </trkpt>
      <trkpt lat="46.6007" lon="5.51107">
        <ele>514</ele>
        <time>2021-05-29T09:55:36.643Z</time>
      </trkpt>
      <trkpt lat="46.60071" lon="5.51107">
        <ele>514</ele>
        <time>2021-05-29T09:55:37.642Z</time>
      </trkpt>
      <trkpt lat="46.60072" lon="5.51107">
        <ele>514</ele>
        <time>2021-05-29T09:55:38.643Z</time>
      </trkpt>
      <trkpt lat="46.60072" lon="5.51107">
        <ele>514</ele>
        <time>2021-05-29T09:55:39.643Z</time>
      </trkpt>
      <trkpt lat="46.60073" lon="5.51106">
        <ele>514</ele>
        <time>2021-05-29T09:55:40.643Z</time>
      </trkpt>
      <trkpt lat="46.60074" lon="5.51105">
        <ele>514</ele>
        <time>2021-05-29T09:55:41.643Z</time>
      </trkpt>
      <trkpt lat="46.60075" lon="5.51105">
        <ele>515</ele>
        <time>2021-05-29T09:55:42.643Z</time>
      </trkpt>
      <trkpt lat="46.60076" lon="5.51105">
        <ele>515</ele>
        <time>2021-05-29T09:55:43.643Z</time>
      </trkpt>
      <trkpt lat="46.60077" lon="5.51105">
        <ele>514</ele>
        <time>2021-05-29T09:55:44.643Z</time>
      </trkpt>
      <trkpt lat="46.60078" lon="5.51105">
        <ele>514</ele>
        <time>2021-05-29T09:55:45.643Z</time>
      </trkpt>
      <trkpt lat="46.60079" lon="5.51105">
        <ele>514</ele>
        <time>2021-05-29T09:55:46.643Z</time>
      </trkpt>
      <trkpt lat="46.60081" lon="5.51106">
        <ele>514</ele>
        <time>2021-05-29T09:55:47.643Z</time>
      </trkpt>
      <trkpt lat="46.60082" lon="5.51107">
        <ele>514</ele>
        <time>2021-05-29T09:55:48.643Z</time>
      </trkpt>
      <trkpt lat="46.60083" lon="5.51107">
        <ele>513</ele>
        <time>2021-05-29T09:55:49.642Z</time>
      </trkpt>
      <trkpt lat="46.60083" lon="5.51108">
        <ele>513</ele>
        <time>2021-05-29T09:55:50.642Z</time>
      </trkpt>
      <trkpt lat="46.60083" lon="5.51108">
        <ele>513</ele>
        <time>2021-05-29T09:55:51.643Z</time>
      </trkpt>
      <trkpt lat="46.60084" lon="5.51109">
        <ele>512</ele>
        <time>2021-05-29T09:55:52.643Z</time>
      </trkpt>
      <trkpt lat="46.60085" lon="5.51109">
        <ele>512</ele>
        <time>2021-05-29T09:55:53.642Z</time>
      </trkpt>
      <trkpt lat="46.60086" lon="5.5111">
        <ele>511</ele>
        <time>2021-05-29T09:55:54.642Z</time>
      </trkpt>
      <trkpt lat="46.60087" lon="5.5111">
        <ele>511</ele>
        <time>2021-05-29T09:55:55.643Z</time>
      </trkpt>
      <trkpt lat="46.60088" lon="5.51111">
        <ele>511</ele>
        <time>2021-05-29T09:55:56.643Z</time>
      </trkpt>
      <trkpt lat="46.60089" lon="5.51111">
        <ele>511</ele>
        <time>2021-05-29T09:55:57.643Z</time>
      </trkpt>
      <trkpt lat="46.6009" lon="5.51112">
        <ele>511</ele>
        <time>2021-05-29T09:55:58.642Z</time>
      </trkpt>
      <trkpt lat="46.6009" lon="5.51112">
        <ele>511</ele>
        <time>2021-05-29T09:55:59.643Z</time>
      </trkpt>
      <trkpt lat="46.60091" lon="5.51113">
        <ele>511</ele>
        <time>2021-05-29T09:56:00.643Z</time>
      </trkpt>
      <trkpt lat="46.60092" lon="5.51114">
        <ele>511</ele>
        <time>2021-05-29T09:56:01.643Z</time>
      </trkpt>
      <trkpt lat="46.60093" lon="5.51115">
        <ele>512</ele>
        <time>2021-05-29T09:56:02.642Z</time>
      </trkpt>
      <trkpt lat="46.60095" lon="5.51115">
        <ele>512</ele>
        <time>2021-05-29T09:56:03.643Z</time>
      </trkpt>
      <trkpt lat="46.60096" lon="5.51116">
        <ele>512</ele>
        <time>2021-05-29T09:56:04.643Z</time>
      </trkpt>
      <trkpt lat="46.60097" lon="5.51116">
        <ele>513</ele>
        <time>2021-05-29T09:56:05.643Z</time>
      </trkpt>
      <trkpt lat="46.60099" lon="5.51117">
        <ele>513</ele>
        <time>2021-05-29T09:56:06.643Z</time>
      </trkpt>
      <trkpt lat="46.601" lon="5.51117">
        <ele>513</ele>
        <time>2021-05-29T09:56:07.642Z</time>
      </trkpt>
      <trkpt lat="46.60101" lon="5.51117">
        <ele>513</ele>
        <time>2021-05-29T09:56:08.643Z</time>
      </trkpt>
      <trkpt lat="46.60102" lon="5.51118">
        <ele>513</ele>
        <time>2021-05-29T09:56:09.643Z</time>
      </trkpt>
      <trkpt lat="46.60103" lon="5.51119">
        <ele>513</ele>
        <time>2021-05-29T09:56:10.643Z</time>
      </trkpt>
      <trkpt lat="46.60104" lon="5.51119">
        <ele>512</ele>
        <time>2021-05-29T09:56:11.642Z</time>
      </trkpt>
      <trkpt lat="46.60105" lon="5.5112">
        <ele>512</ele>
        <time>2021-05-29T09:56:12.642Z</time>
      </trkpt>
      <trkpt lat="46.60106" lon="5.5112">
        <ele>513</ele>
        <time>2021-05-29T09:56:13.643Z</time>
      </trkpt>
      <trkpt lat="46.60107" lon="5.51121">
        <ele>513</ele>
        <time>2021-05-29T09:56:14.643Z</time>
      </trkpt>
      <trkpt lat="46.60108" lon="5.51121">
        <ele>513</ele>
        <time>2021-05-29T09:56:15.643Z</time>
      </trkpt>
      <trkpt lat="46.60109" lon="5.51122">
        <ele>513</ele>
        <time>2021-05-29T09:56:16.643Z</time>
      </trkpt>
      <trkpt lat="46.6011" lon="5.51122">
        <ele>512</ele>
        <time>2021-05-29T09:56:17.643Z</time>
      </trkpt>
      <trkpt lat="46.60112" lon="5.51122">
        <ele>512</ele>
        <time>2021-05-29T09:56:18.643Z</time>
      </trkpt>
      <trkpt lat="46.60113" lon="5.51122">
        <ele>512</ele>
        <time>2021-05-29T09:56:19.643Z</time>
      </trkpt>
      <trkpt lat="46.60114" lon="5.51123">
        <ele>512</ele>
        <time>2021-05-29T09:56:20.643Z</time>
      </trkpt>
      <trkpt lat="46.60115" lon="5.51123">
        <ele>512</ele>
        <time>2021-05-29T09:56:21.643Z</time>
      </trkpt>
      <trkpt lat="46.60116" lon="5.51122">
        <ele>512</ele>
        <time>2021-05-29T09:56:22.643Z</time>
      </trkpt>
      <trkpt lat="46.60117" lon="5.51122">
        <ele>512</ele>
        <time>2021-05-29T09:56:23.642Z</time>
      </trkpt>
      <trkpt lat="46.60118" lon="5.51122">
        <ele>511</ele>
        <time>2021-05-29T09:56:24.642Z</time>
      </trkpt>
      <trkpt lat="46.60119" lon="5.51122">
        <ele>511</ele>
        <time>2021-05-29T09:56:25.643Z</time>
      </trkpt>
      <trkpt lat="46.6012" lon="5.51122">
        <ele>511</ele>
        <time>2021-05-29T09:56:26.643Z</time>
      </trkpt>
      <trkpt lat="46.60121" lon="5.51123">
        <ele>511</ele>
        <time>2021-05-29T09:56:27.643Z</time>
      </trkpt>
      <trkpt lat="46.60122" lon="5.51123">
        <ele>510</ele>
        <time>2021-05-29T09:56:28.643Z</time>
      </trkpt>
      <trkpt lat="46.60123" lon="5.51124">
        <ele>510</ele>
        <time>2021-05-29T09:56:29.643Z</time>
      </trkpt>
      <trkpt lat="46.60123" lon="5.51126">
        <ele>508</ele>
        <time>2021-05-29T09:56:30.643Z</time>
      </trkpt>
      <trkpt lat="46.60124" lon="5.51127">
        <ele>508</ele>
        <time>2021-05-29T09:56:31.643Z</time>
      </trkpt>
      <trkpt lat="46.60124" lon="5.51128">
        <ele>507</ele>
        <time>2021-05-29T09:56:32.643Z</time>
      </trkpt>
      <trkpt lat="46.60125" lon="5.51129">
        <ele>507</ele>
        <time>2021-05-29T09:56:33.643Z</time>
      </trkpt>
      <trkpt lat="46.60125" lon="5.51131">
        <ele>507</ele>
        <time>2021-05-29T09:56:34.643Z</time>
      </trkpt>
      <trkpt lat="46.60125" lon="5.51132">
        <ele>507</ele>
        <time>2021-05-29T09:56:35.643Z</time>
      </trkpt>
      <trkpt lat="46.60125" lon="5.51133">
        <ele>507</ele>
        <time>2021-05-29T09:56:36.643Z</time>
      </trkpt>
      <trkpt lat="46.60126" lon="5.51134">
        <ele>507</ele>
        <time>2021-05-29T09:56:37.643Z</time>
      </trkpt>
      <trkpt lat="46.60126" lon="5.51135">
        <ele>506</ele>
        <time>2021-05-29T09:56:38.643Z</time>
      </trkpt>
      <trkpt lat="46.60126" lon="5.51136">
        <ele>506</ele>
        <time>2021-05-29T09:56:39.643Z</time>
      </trkpt>
      <trkpt lat="46.60126" lon="5.51137">
        <ele>506</ele>
        <time>2021-05-29T09:56:40.643Z</time>
      </trkpt>
      <trkpt lat="46.60126" lon="5.51138">
        <ele>505</ele>
        <time>2021-05-29T09:56:41.642Z</time>
      </trkpt>
      <trkpt lat="46.60126" lon="5.51139">
        <ele>505</ele>
        <time>2021-05-29T09:56:42.643Z</time>
      </trkpt>
      <trkpt lat="46.60125" lon="5.5114">
        <ele>504</ele>
        <time>2021-05-29T09:56:43.643Z</time>
      </trkpt>
      <trkpt lat="46.60125" lon="5.51141">
        <ele>505</ele>
        <time>2021-05-29T09:56:44.643Z</time>
      </trkpt>
      <trkpt lat="46.60125" lon="5.51142">
        <ele>505</ele>
        <time>2021-05-29T09:56:45.643Z</time>
      </trkpt>
      <trkpt lat="46.60124" lon="5.51144">
        <ele>506</ele>
        <time>2021-05-29T09:56:46.643Z</time>
      </trkpt>
      <trkpt lat="46.60124" lon="5.51146">
        <ele>506</ele>
        <time>2021-05-29T09:56:47.643Z</time>
      </trkpt>
      <trkpt lat="46.60124" lon="5.51147">
        <ele>506</ele>
        <time>2021-05-29T09:56:48.643Z</time>
      </trkpt>
      <trkpt lat="46.60124" lon="5.51148">
        <ele>506</ele>
        <time>2021-05-29T09:56:49.643Z</time>
      </trkpt>
      <trkpt lat="46.60123" lon="5.5115">
        <ele>505</ele>
        <time>2021-05-29T09:56:50.643Z</time>
      </trkpt>
      <trkpt lat="46.60123" lon="5.51151">
        <ele>505</ele>
        <time>2021-05-29T09:56:51.643Z</time>
      </trkpt>
      <trkpt lat="46.60123" lon="5.51152">
        <ele>505</ele>
        <time>2021-05-29T09:56:52.643Z</time>
      </trkpt>
      <trkpt lat="46.60122" lon="5.51153">
        <ele>505</ele>
        <time>2021-05-29T09:56:53.643Z</time>
      </trkpt>
      <trkpt lat="46.60122" lon="5.51153">
        <ele>505</ele>
        <time>2021-05-29T09:56:54.643Z</time>
      </trkpt>
      <trkpt lat="46.60121" lon="5.51154">
        <ele>505</ele>
        <time>2021-05-29T09:56:55.643Z</time>
      </trkpt>
      <trkpt lat="46.60121" lon="5.51155">
        <ele>505</ele>
        <time>2021-05-29T09:56:56.642Z</time>
      </trkpt>
      <trkpt lat="46.60121" lon="5.51156">
        <ele>505</ele>
        <time>2021-05-29T09:56:57.643Z</time>
      </trkpt>
      <trkpt lat="46.60121" lon="5.51157">
        <ele>505</ele>
        <time>2021-05-29T09:56:58.643Z</time>
      </trkpt>
      <trkpt lat="46.6012" lon="5.51158">
        <ele>505</ele>
        <time>2021-05-29T09:56:59.643Z</time>
      </trkpt>
      <trkpt lat="46.6012" lon="5.5116">
        <ele>505</ele>
        <time>2021-05-29T09:57:00.643Z</time>
      </trkpt>
      <trkpt lat="46.60119" lon="5.51162">
        <ele>505</ele>
        <time>2021-05-29T09:57:01.643Z</time>
      </trkpt>
      <trkpt lat="46.60118" lon="5.51164">
        <ele>505</ele>
        <time>2021-05-29T09:57:02.643Z</time>
      </trkpt>
      <trkpt lat="46.60118" lon="5.51165">
        <ele>504</ele>
        <time>2021-05-29T09:57:03.642Z</time>
      </trkpt>
      <trkpt lat="46.60117" lon="5.51167">
        <ele>504</ele>
        <time>2021-05-29T09:57:04.643Z</time>
      </trkpt>
      <trkpt lat="46.60117" lon="5.51168">
        <ele>504</ele>
        <time>2021-05-29T09:57:05.643Z</time>
      </trkpt>
      <trkpt lat="46.60116" lon="5.51169">
        <ele>504</ele>
        <time>2021-05-29T09:57:06.643Z</time>
      </trkpt>
      <trkpt lat="46.60115" lon="5.5117">
        <ele>503</ele>
        <time>2021-05-29T09:57:07.643Z</time>
      </trkpt>
      <trkpt lat="46.60114" lon="5.5117">
        <ele>503</ele>
        <time>2021-05-29T09:57:08.643Z</time>
      </trkpt>
      <trkpt lat="46.60113" lon="5.51171">
        <ele>504</ele>
        <time>2021-05-29T09:57:09.643Z</time>
      </trkpt>
      <trkpt lat="46.60113" lon="5.51172">
        <ele>504</ele>
        <time>2021-05-29T09:57:10.642Z</time>
      </trkpt>
      <trkpt lat="46.60112" lon="5.51173">
        <ele>504</ele>
        <time>2021-05-29T09:57:11.643Z</time>
      </trkpt>
      <trkpt lat="46.60111" lon="5.51174">
        <ele>504</ele>
        <time>2021-05-29T09:57:12.642Z</time>
      </trkpt>
      <trkpt lat="46.6011" lon="5.51174">
        <ele>504</ele>
        <time>2021-05-29T09:57:13.643Z</time>
      </trkpt>
      <trkpt lat="46.60109" lon="5.51175">
        <ele>504</ele>
        <time>2021-05-29T09:57:14.643Z</time>
      </trkpt>
      <trkpt lat="46.60108" lon="5.51175">
        <ele>504</ele>
        <time>2021-05-29T09:57:15.643Z</time>
      </trkpt>
      <trkpt lat="46.60107" lon="5.51176">
        <ele>504</ele>
        <time>2021-05-29T09:57:16.643Z</time>
      </trkpt>
      <trkpt lat="46.60106" lon="5.51176">
        <ele>504</ele>
        <time>2021-05-29T09:57:17.643Z</time>
      </trkpt>
      <trkpt lat="46.60104" lon="5.51176">
        <ele>503</ele>
        <time>2021-05-29T09:57:18.643Z</time>
      </trkpt>
      <trkpt lat="46.60103" lon="5.51177">
        <ele>503</ele>
        <time>2021-05-29T09:57:19.643Z</time>
      </trkpt>
      <trkpt lat="46.60102" lon="5.51178">
        <ele>502</ele>
        <time>2021-05-29T09:57:20.643Z</time>
      </trkpt>
      <trkpt lat="46.60101" lon="5.51178">
        <ele>502</ele>
        <time>2021-05-29T09:57:21.642Z</time>
      </trkpt>
      <trkpt lat="46.601" lon="5.51179">
        <ele>502</ele>
        <time>2021-05-29T09:57:22.642Z</time>
      </trkpt>
      <trkpt lat="46.60099" lon="5.51179">
        <ele>502</ele>
        <time>2021-05-29T09:57:23.643Z</time>
      </trkpt>
      <trkpt lat="46.60098" lon="5.5118">
        <ele>502</ele>
        <time>2021-05-29T09:57:24.643Z</time>
      </trkpt>
      <trkpt lat="46.60097" lon="5.5118">
        <ele>502</ele>
        <time>2021-05-29T09:57:25.643Z</time>
      </trkpt>
      <trkpt lat="46.60097" lon="5.51181">
        <ele>501</ele>
        <time>2021-05-29T09:57:26.643Z</time>
      </trkpt>
      <trkpt lat="46.60095" lon="5.51182">
        <ele>501</ele>
        <time>2021-05-29T09:57:27.643Z</time>
      </trkpt>
      <trkpt lat="46.60095" lon="5.51182">
        <ele>500</ele>
        <time>2021-05-29T09:57:28.643Z</time>
      </trkpt>
      <trkpt lat="46.60094" lon="5.51182">
        <ele>500</ele>
        <time>2021-05-29T09:57:29.643Z</time>
      </trkpt>
      <trkpt lat="46.60093" lon="5.51183">
        <ele>499</ele>
        <time>2021-05-29T09:57:30.643Z</time>
      </trkpt>
      <trkpt lat="46.60092" lon="5.51184">
        <ele>499</ele>
        <time>2021-05-29T09:57:31.643Z</time>
      </trkpt>
      <trkpt lat="46.60092" lon="5.51184">
        <ele>499</ele>
        <time>2021-05-29T09:57:32.643Z</time>
      </trkpt>
      <trkpt lat="46.60092" lon="5.51185">
        <ele>499</ele>
        <time>2021-05-29T09:57:33.643Z</time>
      </trkpt>
      <trkpt lat="46.60091" lon="5.51185">
        <ele>498</ele>
        <time>2021-05-29T09:57:34.643Z</time>
      </trkpt>
      <trkpt lat="46.60091" lon="5.51185">
        <ele>498</ele>
        <time>2021-05-29T09:57:35.643Z</time>
      </trkpt>
      <trkpt lat="46.6009" lon="5.51186">
        <ele>498</ele>
        <time>2021-05-29T09:57:36.642Z</time>
      </trkpt>
      <trkpt lat="46.60089" lon="5.51187">
        <ele>498</ele>
        <time>2021-05-29T09:57:37.642Z</time>
      </trkpt>
      <trkpt lat="46.60089" lon="5.51188">
        <ele>498</ele>
        <time>2021-05-29T09:57:38.643Z</time>
      </trkpt>
      <trkpt lat="46.60089" lon="5.51188">
        <ele>498</ele>
        <time>2021-05-29T09:57:39.643Z</time>
      </trkpt>
      <trkpt lat="46.6009" lon="5.51189">
        <ele>498</ele>
        <time>2021-05-29T09:57:40.643Z</time>
      </trkpt>
      <trkpt lat="46.60091" lon="5.51189">
        <ele>498</ele>
        <time>2021-05-29T09:57:41.643Z</time>
      </trkpt>
      <trkpt lat="46.60092" lon="5.51188">
        <ele>498</ele>
        <time>2021-05-29T09:57:42.642Z</time>
      </trkpt>
      <trkpt lat="46.60094" lon="5.51189">
        <ele>498</ele>
        <time>2021-05-29T09:57:43.642Z</time>
      </trkpt>
      <trkpt lat="46.60095" lon="5.5119">
        <ele>498</ele>
        <time>2021-05-29T09:57:44.643Z</time>
      </trkpt>
      <trkpt lat="46.60096" lon="5.5119">
        <ele>498</ele>
        <time>2021-05-29T09:57:45.643Z</time>
      </trkpt>
      <trkpt lat="46.60097" lon="5.51191">
        <ele>497</ele>
        <time>2021-05-29T09:57:46.642Z</time>
      </trkpt>
      <trkpt lat="46.60097" lon="5.51192">
        <ele>497</ele>
        <time>2021-05-29T09:57:47.643Z</time>
      </trkpt>
      <trkpt lat="46.60098" lon="5.51192">
        <ele>497</ele>
        <time>2021-05-29T09:57:48.643Z</time>
      </trkpt>
      <trkpt lat="46.60099" lon="5.51192">
        <ele>497</ele>
        <time>2021-05-29T09:57:49.643Z</time>
      </trkpt>
      <trkpt lat="46.60099" lon="5.51193">
        <ele>497</ele>
        <time>2021-05-29T09:57:50.642Z</time>
      </trkpt>
      <trkpt lat="46.601" lon="5.51193">
        <ele>497</ele>
        <time>2021-05-29T09:57:51.643Z</time>
      </trkpt>
      <trkpt lat="46.601" lon="5.51194">
        <ele>497</ele>
        <time>2021-05-29T09:57:52.643Z</time>
      </trkpt>
      <trkpt lat="46.601" lon="5.51195">
        <ele>497</ele>
        <time>2021-05-29T09:57:53.643Z</time>
      </trkpt>
      <trkpt lat="46.601" lon="5.51195">
        <ele>497</ele>
        <time>2021-05-29T09:57:54.643Z</time>
      </trkpt>
      <trkpt lat="46.60101" lon="5.51195">
        <ele>497</ele>
        <time>2021-05-29T09:57:55.643Z</time>
      </trkpt>
      <trkpt lat="46.60101" lon="5.51194">
        <ele>497</ele>
        <time>2021-05-29T09:57:56.642Z</time>
      </trkpt>
      <trkpt lat="46.60102" lon="5.51193">
        <ele>496</ele>
        <time>2021-05-29T09:57:57.642Z</time>
      </trkpt>
      <trkpt lat="46.60102" lon="5.51192">
        <ele>496</ele>
        <time>2021-05-29T09:57:58.643Z</time>
      </trkpt>
      <trkpt lat="46.60102" lon="5.51192">
        <ele>496</ele>
        <time>2021-05-29T09:57:59.643Z</time>
      </trkpt>
      <trkpt lat="46.60102" lon="5.51191">
        <ele>495</ele>
        <time>2021-05-29T09:58:00.642Z</time>
      </trkpt>
      <trkpt lat="46.60102" lon="5.51191">
        <ele>495</ele>
        <time>2021-05-29T09:58:01.643Z</time>
      </trkpt>
      <trkpt lat="46.60102" lon="5.5119">
        <ele>495</ele>
        <time>2021-05-29T09:58:02.643Z</time>
      </trkpt>
      <trkpt lat="46.60102" lon="5.5119">
        <ele>495</ele>
        <time>2021-05-29T09:58:03.643Z</time>
      </trkpt>
      <trkpt lat="46.60102" lon="5.5119">
        <ele>495</ele>
        <time>2021-05-29T09:58:04.643Z</time>
      </trkpt>
      <trkpt lat="46.60102" lon="5.5119">
        <ele>495</ele>
        <time>2021-05-29T09:58:05.643Z</time>
      </trkpt>
      <trkpt lat="46.60102" lon="5.5119">
        <ele>495</ele>
        <time>2021-05-29T09:58:06.643Z</time>
      </trkpt>
      <trkpt lat="46.60102" lon="5.5119">
        <ele>495</ele>
        <time>2021-05-29T09:58:07.643Z</time>
      </trkpt>
      <trkpt lat="46.60102" lon="5.5119">
        <ele>495</ele>
        <time>2021-05-29T09:58:08.643Z</time>
      </trkpt>
      <trkpt lat="46.60102" lon="5.5119">
        <ele>495</ele>
        <time>2021-05-29T09:58:09.643Z</time>
      </trkpt>
      <trkpt lat="46.60102" lon="5.5119">
        <ele>495</ele>
        <time>2021-05-29T09:58:10.643Z</time>
      </trkpt>
      <trkpt lat="46.60102" lon="5.5119">
        <ele>495</ele>
        <time>2021-05-29T09:58:11.643Z</time>
      </trkpt>
      <trkpt lat="46.60102" lon="5.5119">
        <ele>495</ele>
        <time>2021-05-29T09:58:12.642Z</time>
      </trkpt>
      <trkpt lat="46.60102" lon="5.5119">
        <ele>495</ele>
        <time>2021-05-29T09:58:13.643Z</time>
      </trkpt>
      <trkpt lat="46.60102" lon="5.51191">
        <ele>495</ele>
        <time>2021-05-29T09:58:14.642Z</time>
      </trkpt>
      <trkpt lat="46.60102" lon="5.51191">
        <ele>496</ele>
        <time>2021-05-29T09:58:15.643Z</time>
      </trkpt>
      <trkpt lat="46.60102" lon="5.51191">
        <ele>496</ele>
        <time>2021-05-29T09:58:16.643Z</time>
      </trkpt>
      <trkpt lat="46.60102" lon="5.51191">
        <ele>496</ele>
        <time>2021-05-29T09:58:17.643Z</time>
      </trkpt>
      <trkpt lat="46.60102" lon="5.51191">
        <ele>496</ele>
        <time>2021-05-29T09:58:18.643Z</time>
      </trkpt>
      <trkpt lat="46.60102" lon="5.51191">
        <ele>496</ele>
        <time>2021-05-29T09:58:19.643Z</time>
      </trkpt>
      <trkpt lat="46.60102" lon="5.51192">
        <ele>496</ele>
        <time>2021-05-29T09:58:20.643Z</time>
      </trkpt>
      <trkpt lat="46.60103" lon="5.51193">
        <ele>496</ele>
        <time>2021-05-29T09:58:21.643Z</time>
      </trkpt>
      <trkpt lat="46.60103" lon="5.51194">
        <ele>496</ele>
        <time>2021-05-29T09:58:22.643Z</time>
      </trkpt>
      <trkpt lat="46.60104" lon="5.51194">
        <ele>495</ele>
        <time>2021-05-29T09:58:23.643Z</time>
      </trkpt>
      <trkpt lat="46.60104" lon="5.51195">
        <ele>495</ele>
        <time>2021-05-29T09:58:24.643Z</time>
      </trkpt>
      <trkpt lat="46.60105" lon="5.51195">
        <ele>495</ele>
        <time>2021-05-29T09:58:25.643Z</time>
      </trkpt>
      <trkpt lat="46.60105" lon="5.51195">
        <ele>496</ele>
        <time>2021-05-29T09:58:26.643Z</time>
      </trkpt>
      <trkpt lat="46.60105" lon="5.51196">
        <ele>496</ele>
        <time>2021-05-29T09:58:27.643Z</time>
      </trkpt>
      <trkpt lat="46.60105" lon="5.51196">
        <ele>496</ele>
        <time>2021-05-29T09:58:28.643Z</time>
      </trkpt>
      <trkpt lat="46.60105" lon="5.51196">
        <ele>496</ele>
        <time>2021-05-29T09:58:29.643Z</time>
      </trkpt>
      <trkpt lat="46.60105" lon="5.51196">
        <ele>496</ele>
        <time>2021-05-29T09:58:30.643Z</time>
      </trkpt>
      <trkpt lat="46.60105" lon="5.51196">
        <ele>496</ele>
        <time>2021-05-29T09:58:31.643Z</time>
      </trkpt>
      <trkpt lat="46.60105" lon="5.51196">
        <ele>496</ele>
        <time>2021-05-29T09:58:32.643Z</time>
      </trkpt>
      <trkpt lat="46.60105" lon="5.51196">
        <ele>496</ele>
        <time>2021-05-29T09:58:33.642Z</time>
      </trkpt>
      <trkpt lat="46.60105" lon="5.51196">
        <ele>496</ele>
        <time>2021-05-29T09:58:34.643Z</time>
      </trkpt>
      <trkpt lat="46.60105" lon="5.51196">
        <ele>496</ele>
        <time>2021-05-29T09:58:35.643Z</time>
      </trkpt>
      <trkpt lat="46.60105" lon="5.51196">
        <ele>496</ele>
        <time>2021-05-29T09:58:36.643Z</time>
      </trkpt>
      <trkpt lat="46.60105" lon="5.51196">
        <ele>495</ele>
        <time>2021-05-29T09:58:37.643Z</time>
      </trkpt>
      <trkpt lat="46.60105" lon="5.51196">
        <ele>495</ele>
        <time>2021-05-29T09:58:38.643Z</time>
      </trkpt>
      <trkpt lat="46.60105" lon="5.51196">
        <ele>495</ele>
        <time>2021-05-29T09:58:39.643Z</time>
      </trkpt>
      <trkpt lat="46.60105" lon="5.51196">
        <ele>495</ele>
        <time>2021-05-29T09:58:40.643Z</time>
      </trkpt>
      <trkpt lat="46.60106" lon="5.51196">
        <ele>495</ele>
        <time>2021-05-29T09:58:41.643Z</time>
      </trkpt>
      <trkpt lat="46.60106" lon="5.51196">
        <ele>495</ele>
        <time>2021-05-29T09:58:42.643Z</time>
      </trkpt>
      <trkpt lat="46.60106" lon="5.51196">
        <ele>495</ele>
        <time>2021-05-29T09:58:43.643Z</time>
      </trkpt>
      <trkpt lat="46.60106" lon="5.51196">
        <ele>495</ele>
        <time>2021-05-29T09:58:44.643Z</time>
      </trkpt>
      <trkpt lat="46.60106" lon="5.51196">
        <ele>495</ele>
        <time>2021-05-29T09:58:45.643Z</time>
      </trkpt>
      <trkpt lat="46.60106" lon="5.51196">
        <ele>495</ele>
        <time>2021-05-29T09:58:46.643Z</time>
      </trkpt>
      <trkpt lat="46.60106" lon="5.51196">
        <ele>495</ele>
        <time>2021-05-29T09:58:47.643Z</time>
      </trkpt>
      <trkpt lat="46.60107" lon="5.51196">
        <ele>495</ele>
        <time>2021-05-29T09:58:48.643Z</time>
      </trkpt>
      <trkpt lat="46.60107" lon="5.51196">
        <ele>495</ele>
        <time>2021-05-29T09:58:49.643Z</time>
      </trkpt>
      <trkpt lat="46.60108" lon="5.51196">
        <ele>495</ele>
        <time>2021-05-29T09:58:50.643Z</time>
      </trkpt>
      <trkpt lat="46.60108" lon="5.51196">
        <ele>495</ele>
        <time>2021-05-29T09:58:51.643Z</time>
      </trkpt>
      <trkpt lat="46.60109" lon="5.51196">
        <ele>495</ele>
        <time>2021-05-29T09:58:52.642Z</time>
      </trkpt>
      <trkpt lat="46.60109" lon="5.51196">
        <ele>495</ele>
        <time>2021-05-29T09:58:53.642Z</time>
      </trkpt>
      <trkpt lat="46.6011" lon="5.51196">
        <ele>495</ele>
        <time>2021-05-29T09:58:54.643Z</time>
      </trkpt>
      <trkpt lat="46.6011" lon="5.51196">
        <ele>495</ele>
        <time>2021-05-29T09:58:55.643Z</time>
      </trkpt>
      <trkpt lat="46.6011" lon="5.51196">
        <ele>495</ele>
        <time>2021-05-29T09:58:56.643Z</time>
      </trkpt>
      <trkpt lat="46.6011" lon="5.51196">
        <ele>495</ele>
        <time>2021-05-29T09:58:57.642Z</time>
      </trkpt>
      <trkpt lat="46.6011" lon="5.51196">
        <ele>495</ele>
        <time>2021-05-29T09:58:58.643Z</time>
      </trkpt>
      <trkpt lat="46.6011" lon="5.51196">
        <ele>495</ele>
        <time>2021-05-29T09:58:59.643Z</time>
      </trkpt>
      <trkpt lat="46.6011" lon="5.51196">
        <ele>495</ele>
        <time>2021-05-29T09:59:00.642Z</time>
      </trkpt>
      <trkpt lat="46.6011" lon="5.51196">
        <ele>495</ele>
        <time>2021-05-29T09:59:01.643Z</time>
      </trkpt>
      <trkpt lat="46.6011" lon="5.51196">
        <ele>495</ele>
        <time>2021-05-29T09:59:02.643Z</time>
      </trkpt>
      <trkpt lat="46.6011" lon="5.51196">
        <ele>495</ele>
        <time>2021-05-29T09:59:03.643Z</time>
      </trkpt>
      <trkpt lat="46.6011" lon="5.51197">
        <ele>495</ele>
        <time>2021-05-29T09:59:04.643Z</time>
      </trkpt>
      <trkpt lat="46.6011" lon="5.51197">
        <ele>495</ele>
        <time>2021-05-29T09:59:05.643Z</time>
      </trkpt>
      <trkpt lat="46.60111" lon="5.51197">
        <ele>495</ele>
        <time>2021-05-29T09:59:06.643Z</time>
      </trkpt>
      <trkpt lat="46.60112" lon="5.51198">
        <ele>495</ele>
        <time>2021-05-29T09:59:07.642Z</time>
      </trkpt>
      <trkpt lat="46.60113" lon="5.51198">
        <ele>495</ele>
        <time>2021-05-29T09:59:08.643Z</time>
      </trkpt>
      <trkpt lat="46.60114" lon="5.51198">
        <ele>495</ele>
        <time>2021-05-29T09:59:09.643Z</time>
      </trkpt>
      <trkpt lat="46.60115" lon="5.51197">
        <ele>494</ele>
        <time>2021-05-29T09:59:10.642Z</time>
      </trkpt>
      <trkpt lat="46.60116" lon="5.51197">
        <ele>493</ele>
        <time>2021-05-29T09:59:11.643Z</time>
      </trkpt>
      <trkpt lat="46.60118" lon="5.51196">
        <ele>493</ele>
        <time>2021-05-29T09:59:12.643Z</time>
      </trkpt>
      <trkpt lat="46.6012" lon="5.51196">
        <ele>493</ele>
        <time>2021-05-29T09:59:13.643Z</time>
      </trkpt>
      <trkpt lat="46.60121" lon="5.51195">
        <ele>494</ele>
        <time>2021-05-29T09:59:14.642Z</time>
      </trkpt>
      <trkpt lat="46.60124" lon="5.51195">
        <ele>493</ele>
        <time>2021-05-29T09:59:15.643Z</time>
      </trkpt>
      <trkpt lat="46.60125" lon="5.51195">
        <ele>493</ele>
        <time>2021-05-29T09:59:16.643Z</time>
      </trkpt>
      <trkpt lat="46.60127" lon="5.51194">
        <ele>493</ele>
        <time>2021-05-29T09:59:17.643Z</time>
      </trkpt>
      <trkpt lat="46.60128" lon="5.51193">
        <ele>492</ele>
        <time>2021-05-29T09:59:18.643Z</time>
      </trkpt>
      <trkpt lat="46.6013" lon="5.51192">
        <ele>492</ele>
        <time>2021-05-29T09:59:19.642Z</time>
      </trkpt>
      <trkpt lat="46.60132" lon="5.51191">
        <ele>492</ele>
        <time>2021-05-29T09:59:20.642Z</time>
      </trkpt>
      <trkpt lat="46.60133" lon="5.5119">
        <ele>492</ele>
        <time>2021-05-29T09:59:21.643Z</time>
      </trkpt>
      <trkpt lat="46.60135" lon="5.5119">
        <ele>492</ele>
        <time>2021-05-29T09:59:22.643Z</time>
      </trkpt>
      <trkpt lat="46.60137" lon="5.5119">
        <ele>493</ele>
        <time>2021-05-29T09:59:23.643Z</time>
      </trkpt>
      <trkpt lat="46.60139" lon="5.5119">
        <ele>493</ele>
        <time>2021-05-29T09:59:24.642Z</time>
      </trkpt>
      <trkpt lat="46.60141" lon="5.5119">
        <ele>493</ele>
        <time>2021-05-29T09:59:25.643Z</time>
      </trkpt>
      <trkpt lat="46.60143" lon="5.5119">
        <ele>493</ele>
        <time>2021-05-29T09:59:26.643Z</time>
      </trkpt>
      <trkpt lat="46.60145" lon="5.5119">
        <ele>494</ele>
        <time>2021-05-29T09:59:27.642Z</time>
      </trkpt>
      <trkpt lat="46.60146" lon="5.5119">
        <ele>494</ele>
        <time>2021-05-29T09:59:28.642Z</time>
      </trkpt>
      <trkpt lat="46.60148" lon="5.5119">
        <ele>494</ele>
        <time>2021-05-29T09:59:29.643Z</time>
      </trkpt>
      <trkpt lat="46.6015" lon="5.51189">
        <ele>493</ele>
        <time>2021-05-29T09:59:30.643Z</time>
      </trkpt>
      <trkpt lat="46.60152" lon="5.51188">
        <ele>493</ele>
        <time>2021-05-29T09:59:31.643Z</time>
      </trkpt>
      <trkpt lat="46.60155" lon="5.51189">
        <ele>492</ele>
        <time>2021-05-29T09:59:32.643Z</time>
      </trkpt>
      <trkpt lat="46.60158" lon="5.51189">
        <ele>492</ele>
        <time>2021-05-29T09:59:33.642Z</time>
      </trkpt>
      <trkpt lat="46.6016" lon="5.5119">
        <ele>492</ele>
        <time>2021-05-29T09:59:34.643Z</time>
      </trkpt>
      <trkpt lat="46.60162" lon="5.51191">
        <ele>492</ele>
        <time>2021-05-29T09:59:35.643Z</time>
      </trkpt>
      <trkpt lat="46.60165" lon="5.51192">
        <ele>492</ele>
        <time>2021-05-29T09:59:36.642Z</time>
      </trkpt>
      <trkpt lat="46.60167" lon="5.51193">
        <ele>492</ele>
        <time>2021-05-29T09:59:37.642Z</time>
      </trkpt>
      <trkpt lat="46.6017" lon="5.51194">
        <ele>491</ele>
        <time>2021-05-29T09:59:38.642Z</time>
      </trkpt>
      <trkpt lat="46.60173" lon="5.51195">
        <ele>491</ele>
        <time>2021-05-29T09:59:39.642Z</time>
      </trkpt>
      <trkpt lat="46.60176" lon="5.51196">
        <ele>491</ele>
        <time>2021-05-29T09:59:40.643Z</time>
      </trkpt>
      <trkpt lat="46.60179" lon="5.51197">
        <ele>491</ele>
        <time>2021-05-29T09:59:41.643Z</time>
      </trkpt>
      <trkpt lat="46.60181" lon="5.51198">
        <ele>490</ele>
        <time>2021-05-29T09:59:42.643Z</time>
      </trkpt>
      <trkpt lat="46.60183" lon="5.51199">
        <ele>490</ele>
        <time>2021-05-29T09:59:43.643Z</time>
      </trkpt>
      <trkpt lat="46.60184" lon="5.512">
        <ele>489</ele>
        <time>2021-05-29T09:59:44.642Z</time>
      </trkpt>
      <trkpt lat="46.60186" lon="5.51202">
        <ele>489</ele>
        <time>2021-05-29T09:59:45.643Z</time>
      </trkpt>
      <trkpt lat="46.60188" lon="5.51202">
        <ele>489</ele>
        <time>2021-05-29T09:59:46.643Z</time>
      </trkpt>
      <trkpt lat="46.6019" lon="5.51203">
        <ele>489</ele>
        <time>2021-05-29T09:59:47.643Z</time>
      </trkpt>
      <trkpt lat="46.60192" lon="5.51204">
        <ele>489</ele>
        <time>2021-05-29T09:59:48.643Z</time>
      </trkpt>
      <trkpt lat="46.60195" lon="5.51205">
        <ele>489</ele>
        <time>2021-05-29T09:59:49.643Z</time>
      </trkpt>
      <trkpt lat="46.60197" lon="5.51207">
        <ele>488</ele>
        <time>2021-05-29T09:59:50.643Z</time>
      </trkpt>
      <trkpt lat="46.60198" lon="5.51208">
        <ele>488</ele>
        <time>2021-05-29T09:59:51.643Z</time>
      </trkpt>
      <trkpt lat="46.60201" lon="5.51209">
        <ele>488</ele>
        <time>2021-05-29T09:59:52.643Z</time>
      </trkpt>
      <trkpt lat="46.60202" lon="5.5121">
        <ele>488</ele>
        <time>2021-05-29T09:59:53.642Z</time>
      </trkpt>
      <trkpt lat="46.60205" lon="5.51212">
        <ele>488</ele>
        <time>2021-05-29T09:59:54.643Z</time>
      </trkpt>
      <trkpt lat="46.60208" lon="5.51214">
        <ele>488</ele>
        <time>2021-05-29T09:59:55.643Z</time>
      </trkpt>
      <trkpt lat="46.60208" lon="5.51215">
        <ele>488</ele>
        <time>2021-05-29T09:59:56.643Z</time>
      </trkpt>
      <trkpt lat="46.60209" lon="5.51215">
        <ele>488</ele>
        <time>2021-05-29T09:59:57.643Z</time>
      </trkpt>
      <trkpt lat="46.6021" lon="5.51216">
        <ele>488</ele>
        <time>2021-05-29T09:59:58.643Z</time>
      </trkpt>
      <trkpt lat="46.60212" lon="5.51217">
        <ele>488</ele>
        <time>2021-05-29T09:59:59.643Z</time>
      </trkpt>
      <trkpt lat="46.60214" lon="5.51219">
        <ele>487</ele>
        <time>2021-05-29T10:00:00.643Z</time>
      </trkpt>
      <trkpt lat="46.60216" lon="5.5122">
        <ele>486</ele>
        <time>2021-05-29T10:00:01.643Z</time>
      </trkpt>
      <trkpt lat="46.60218" lon="5.51221">
        <ele>485</ele>
        <time>2021-05-29T10:00:02.643Z</time>
      </trkpt>
      <trkpt lat="46.6022" lon="5.51222">
        <ele>485</ele>
        <time>2021-05-29T10:00:03.643Z</time>
      </trkpt>
      <trkpt lat="46.60222" lon="5.51223">
        <ele>484</ele>
        <time>2021-05-29T10:00:04.642Z</time>
      </trkpt>
      <trkpt lat="46.60224" lon="5.51224">
        <ele>484</ele>
        <time>2021-05-29T10:00:05.643Z</time>
      </trkpt>
      <trkpt lat="46.60226" lon="5.51226">
        <ele>484</ele>
        <time>2021-05-29T10:00:06.643Z</time>
      </trkpt>
      <trkpt lat="46.60228" lon="5.51228">
        <ele>483</ele>
        <time>2021-05-29T10:00:07.643Z</time>
      </trkpt>
      <trkpt lat="46.60231" lon="5.5123">
        <ele>483</ele>
        <time>2021-05-29T10:00:08.643Z</time>
      </trkpt>
      <trkpt lat="46.60233" lon="5.51232">
        <ele>483</ele>
        <time>2021-05-29T10:00:09.643Z</time>
      </trkpt>
      <trkpt lat="46.60235" lon="5.51234">
        <ele>482</ele>
        <time>2021-05-29T10:00:10.643Z</time>
      </trkpt>
      <trkpt lat="46.60238" lon="5.51235">
        <ele>482</ele>
        <time>2021-05-29T10:00:11.643Z</time>
      </trkpt>
      <trkpt lat="46.6024" lon="5.51237">
        <ele>481</ele>
        <time>2021-05-29T10:00:12.643Z</time>
      </trkpt>
      <trkpt lat="46.60243" lon="5.5124">
        <ele>481</ele>
        <time>2021-05-29T10:00:13.643Z</time>
      </trkpt>
      <trkpt lat="46.60245" lon="5.51243">
        <ele>480</ele>
        <time>2021-05-29T10:00:14.643Z</time>
      </trkpt>
      <trkpt lat="46.60247" lon="5.51246">
        <ele>480</ele>
        <time>2021-05-29T10:00:15.643Z</time>
      </trkpt>
      <trkpt lat="46.60249" lon="5.51249">
        <ele>480</ele>
        <time>2021-05-29T10:00:16.643Z</time>
      </trkpt>
      <trkpt lat="46.6025" lon="5.51251">
        <ele>480</ele>
        <time>2021-05-29T10:00:17.642Z</time>
      </trkpt>
      <trkpt lat="46.60252" lon="5.51253">
        <ele>480</ele>
        <time>2021-05-29T10:00:18.643Z</time>
      </trkpt>
      <trkpt lat="46.60254" lon="5.51254">
        <ele>481</ele>
        <time>2021-05-29T10:00:19.643Z</time>
      </trkpt>
      <trkpt lat="46.60255" lon="5.51255">
        <ele>481</ele>
        <time>2021-05-29T10:00:20.643Z</time>
      </trkpt>
      <trkpt lat="46.60257" lon="5.51257">
        <ele>482</ele>
        <time>2021-05-29T10:00:21.642Z</time>
      </trkpt>
      <trkpt lat="46.60259" lon="5.51258">
        <ele>482</ele>
        <time>2021-05-29T10:00:22.643Z</time>
      </trkpt>
      <trkpt lat="46.60261" lon="5.5126">
        <ele>482</ele>
        <time>2021-05-29T10:00:23.643Z</time>
      </trkpt>
      <trkpt lat="46.60263" lon="5.51261">
        <ele>482</ele>
        <time>2021-05-29T10:00:24.642Z</time>
      </trkpt>
      <trkpt lat="46.60265" lon="5.51263">
        <ele>483</ele>
        <time>2021-05-29T10:00:25.642Z</time>
      </trkpt>
      <trkpt lat="46.60268" lon="5.51265">
        <ele>483</ele>
        <time>2021-05-29T10:00:26.643Z</time>
      </trkpt>
      <trkpt lat="46.6027" lon="5.51266">
        <ele>484</ele>
        <time>2021-05-29T10:00:27.643Z</time>
      </trkpt>
      <trkpt lat="46.60271" lon="5.51268">
        <ele>484</ele>
        <time>2021-05-29T10:00:28.643Z</time>
      </trkpt>
      <trkpt lat="46.60273" lon="5.51271">
        <ele>485</ele>
        <time>2021-05-29T10:00:29.642Z</time>
      </trkpt>
      <trkpt lat="46.60275" lon="5.51273">
        <ele>485</ele>
        <time>2021-05-29T10:00:30.643Z</time>
      </trkpt>
      <trkpt lat="46.60276" lon="5.51275">
        <ele>485</ele>
        <time>2021-05-29T10:00:31.643Z</time>
      </trkpt>
      <trkpt lat="46.60278" lon="5.51276">
        <ele>486</ele>
        <time>2021-05-29T10:00:32.643Z</time>
      </trkpt>
      <trkpt lat="46.6028" lon="5.51277">
        <ele>486</ele>
        <time>2021-05-29T10:00:33.642Z</time>
      </trkpt>
      <trkpt lat="46.60283" lon="5.51278">
        <ele>486</ele>
        <time>2021-05-29T10:00:34.643Z</time>
      </trkpt>
      <trkpt lat="46.60285" lon="5.51278">
        <ele>486</ele>
        <time>2021-05-29T10:00:35.643Z</time>
      </trkpt>
      <trkpt lat="46.60287" lon="5.51278">
        <ele>485</ele>
        <time>2021-05-29T10:00:36.643Z</time>
      </trkpt>
      <trkpt lat="46.6029" lon="5.51277">
        <ele>484</ele>
        <time>2021-05-29T10:00:37.643Z</time>
      </trkpt>
      <trkpt lat="46.60292" lon="5.51276">
        <ele>484</ele>
        <time>2021-05-29T10:00:38.643Z</time>
      </trkpt>
      <trkpt lat="46.60295" lon="5.51276">
        <ele>483</ele>
        <time>2021-05-29T10:00:39.642Z</time>
      </trkpt>
      <trkpt lat="46.60297" lon="5.51277">
        <ele>483</ele>
        <time>2021-05-29T10:00:40.643Z</time>
      </trkpt>
      <trkpt lat="46.60301" lon="5.51277">
        <ele>483</ele>
        <time>2021-05-29T10:00:41.643Z</time>
      </trkpt>
      <trkpt lat="46.60303" lon="5.51277">
        <ele>483</ele>
        <time>2021-05-29T10:00:42.642Z</time>
      </trkpt>
      <trkpt lat="46.60306" lon="5.51276">
        <ele>483</ele>
        <time>2021-05-29T10:00:43.643Z</time>
      </trkpt>
      <trkpt lat="46.60308" lon="5.51276">
        <ele>483</ele>
        <time>2021-05-29T10:00:44.643Z</time>
      </trkpt>
      <trkpt lat="46.6031" lon="5.51276">
        <ele>483</ele>
        <time>2021-05-29T10:00:45.643Z</time>
      </trkpt>
      <trkpt lat="46.60313" lon="5.51276">
        <ele>483</ele>
        <time>2021-05-29T10:00:46.643Z</time>
      </trkpt>
      <trkpt lat="46.60315" lon="5.51275">
        <ele>482</ele>
        <time>2021-05-29T10:00:47.643Z</time>
      </trkpt>
      <trkpt lat="46.60318" lon="5.51275">
        <ele>482</ele>
        <time>2021-05-29T10:00:48.643Z</time>
      </trkpt>
      <trkpt lat="46.60319" lon="5.51275">
        <ele>482</ele>
        <time>2021-05-29T10:00:49.643Z</time>
      </trkpt>
      <trkpt lat="46.60322" lon="5.51276">
        <ele>481</ele>
        <time>2021-05-29T10:00:50.642Z</time>
      </trkpt>
      <trkpt lat="46.60324" lon="5.51277">
        <ele>480</ele>
        <time>2021-05-29T10:00:51.643Z</time>
      </trkpt>
      <trkpt lat="46.60326" lon="5.51278">
        <ele>480</ele>
        <time>2021-05-29T10:00:52.642Z</time>
      </trkpt>
      <trkpt lat="46.60328" lon="5.51279">
        <ele>480</ele>
        <time>2021-05-29T10:00:53.643Z</time>
      </trkpt>
      <trkpt lat="46.60331" lon="5.5128">
        <ele>480</ele>
        <time>2021-05-29T10:00:54.643Z</time>
      </trkpt>
      <trkpt lat="46.60333" lon="5.51281">
        <ele>480</ele>
        <time>2021-05-29T10:00:55.643Z</time>
      </trkpt>
      <trkpt lat="46.60335" lon="5.51283">
        <ele>480</ele>
        <time>2021-05-29T10:00:56.643Z</time>
      </trkpt>
      <trkpt lat="46.60337" lon="5.51284">
        <ele>480</ele>
        <time>2021-05-29T10:00:57.643Z</time>
      </trkpt>
      <trkpt lat="46.60339" lon="5.51285">
        <ele>480</ele>
        <time>2021-05-29T10:00:58.643Z</time>
      </trkpt>
      <trkpt lat="46.60341" lon="5.51287">
        <ele>480</ele>
        <time>2021-05-29T10:00:59.643Z</time>
      </trkpt>
      <trkpt lat="46.60342" lon="5.51289">
        <ele>479</ele>
        <time>2021-05-29T10:01:00.643Z</time>
      </trkpt>
      <trkpt lat="46.60344" lon="5.51292">
        <ele>479</ele>
        <time>2021-05-29T10:01:01.643Z</time>
      </trkpt>
      <trkpt lat="46.60346" lon="5.51294">
        <ele>479</ele>
        <time>2021-05-29T10:01:02.643Z</time>
      </trkpt>
      <trkpt lat="46.60348" lon="5.51296">
        <ele>478</ele>
        <time>2021-05-29T10:01:03.643Z</time>
      </trkpt>
      <trkpt lat="46.6035" lon="5.51299">
        <ele>478</ele>
        <time>2021-05-29T10:01:04.643Z</time>
      </trkpt>
      <trkpt lat="46.60352" lon="5.51302">
        <ele>477</ele>
        <time>2021-05-29T10:01:05.642Z</time>
      </trkpt>
      <trkpt lat="46.60353" lon="5.51305">
        <ele>477</ele>
        <time>2021-05-29T10:01:06.642Z</time>
      </trkpt>
      <trkpt lat="46.60354" lon="5.51308">
        <ele>476</ele>
        <time>2021-05-29T10:01:07.643Z</time>
      </trkpt>
      <trkpt lat="46.60355" lon="5.51312">
        <ele>476</ele>
        <time>2021-05-29T10:01:08.643Z</time>
      </trkpt>
      <trkpt lat="46.60357" lon="5.51315">
        <ele>476</ele>
        <time>2021-05-29T10:01:09.643Z</time>
      </trkpt>
      <trkpt lat="46.60357" lon="5.51318">
        <ele>475</ele>
        <time>2021-05-29T10:01:10.642Z</time>
      </trkpt>
      <trkpt lat="46.60358" lon="5.51322">
        <ele>475</ele>
        <time>2021-05-29T10:01:11.643Z</time>
      </trkpt>
      <trkpt lat="46.60359" lon="5.51325">
        <ele>475</ele>
        <time>2021-05-29T10:01:12.642Z</time>
      </trkpt>
      <trkpt lat="46.60359" lon="5.51329">
        <ele>476</ele>
        <time>2021-05-29T10:01:13.642Z</time>
      </trkpt>
      <trkpt lat="46.6036" lon="5.51332">
        <ele>476</ele>
        <time>2021-05-29T10:01:14.643Z</time>
      </trkpt>
      <trkpt lat="46.6036" lon="5.51335">
        <ele>476</ele>
        <time>2021-05-29T10:01:15.642Z</time>
      </trkpt>
      <trkpt lat="46.6036" lon="5.51339">
        <ele>476</ele>
        <time>2021-05-29T10:01:16.642Z</time>
      </trkpt>
      <trkpt lat="46.60361" lon="5.51342">
        <ele>476</ele>
        <time>2021-05-29T10:01:17.643Z</time>
      </trkpt>
      <trkpt lat="46.60361" lon="5.51345">
        <ele>475</ele>
        <time>2021-05-29T10:01:18.643Z</time>
      </trkpt>
      <trkpt lat="46.60361" lon="5.51349">
        <ele>475</ele>
        <time>2021-05-29T10:01:19.643Z</time>
      </trkpt>
      <trkpt lat="46.60361" lon="5.51352">
        <ele>475</ele>
        <time>2021-05-29T10:01:20.643Z</time>
      </trkpt>
      <trkpt lat="46.60361" lon="5.51355">
        <ele>475</ele>
        <time>2021-05-29T10:01:21.643Z</time>
      </trkpt>
      <trkpt lat="46.60361" lon="5.51358">
        <ele>474</ele>
        <time>2021-05-29T10:01:22.643Z</time>
      </trkpt>
      <trkpt lat="46.60361" lon="5.51362">
        <ele>474</ele>
        <time>2021-05-29T10:01:23.643Z</time>
      </trkpt>
      <trkpt lat="46.60362" lon="5.51365">
        <ele>473</ele>
        <time>2021-05-29T10:01:24.643Z</time>
      </trkpt>
      <trkpt lat="46.60362" lon="5.51369">
        <ele>473</ele>
        <time>2021-05-29T10:01:25.643Z</time>
      </trkpt>
      <trkpt lat="46.60362" lon="5.51373">
        <ele>473</ele>
        <time>2021-05-29T10:01:26.643Z</time>
      </trkpt>
      <trkpt lat="46.60362" lon="5.51377">
        <ele>473</ele>
        <time>2021-05-29T10:01:27.643Z</time>
      </trkpt>
      <trkpt lat="46.60362" lon="5.51381">
        <ele>473</ele>
        <time>2021-05-29T10:01:28.643Z</time>
      </trkpt>
      <trkpt lat="46.60361" lon="5.51384">
        <ele>473</ele>
        <time>2021-05-29T10:01:29.643Z</time>
      </trkpt>
      <trkpt lat="46.60361" lon="5.51388">
        <ele>473</ele>
        <time>2021-05-29T10:01:30.643Z</time>
      </trkpt>
      <trkpt lat="46.60361" lon="5.5139">
        <ele>473</ele>
        <time>2021-05-29T10:01:31.643Z</time>
      </trkpt>
      <trkpt lat="46.6036" lon="5.51394">
        <ele>473</ele>
        <time>2021-05-29T10:01:32.642Z</time>
      </trkpt>
      <trkpt lat="46.6036" lon="5.51397">
        <ele>472</ele>
        <time>2021-05-29T10:01:33.642Z</time>
      </trkpt>
      <trkpt lat="46.6036" lon="5.514">
        <ele>472</ele>
        <time>2021-05-29T10:01:34.643Z</time>
      </trkpt>
      <trkpt lat="46.6036" lon="5.51404">
        <ele>471</ele>
        <time>2021-05-29T10:01:35.642Z</time>
      </trkpt>
      <trkpt lat="46.6036" lon="5.51407">
        <ele>471</ele>
        <time>2021-05-29T10:01:36.642Z</time>
      </trkpt>
      <trkpt lat="46.6036" lon="5.5141">
        <ele>471</ele>
        <time>2021-05-29T10:01:37.643Z</time>
      </trkpt>
      <trkpt lat="46.60361" lon="5.51413">
        <ele>471</ele>
        <time>2021-05-29T10:01:38.642Z</time>
      </trkpt>
      <trkpt lat="46.60362" lon="5.51415">
        <ele>471</ele>
        <time>2021-05-29T10:01:39.643Z</time>
      </trkpt>
      <trkpt lat="46.60362" lon="5.51417">
        <ele>471</ele>
        <time>2021-05-29T10:01:40.643Z</time>
      </trkpt>
      <trkpt lat="46.60364" lon="5.51419">
        <ele>470</ele>
        <time>2021-05-29T10:01:41.643Z</time>
      </trkpt>
      <trkpt lat="46.60366" lon="5.51421">
        <ele>470</ele>
        <time>2021-05-29T10:01:42.643Z</time>
      </trkpt>
      <trkpt lat="46.60368" lon="5.51422">
        <ele>470</ele>
        <time>2021-05-29T10:01:43.643Z</time>
      </trkpt>
      <trkpt lat="46.60369" lon="5.51423">
        <ele>470</ele>
        <time>2021-05-29T10:01:44.643Z</time>
      </trkpt>
      <trkpt lat="46.60371" lon="5.51424">
        <ele>470</ele>
        <time>2021-05-29T10:01:45.643Z</time>
      </trkpt>
      <trkpt lat="46.60373" lon="5.51425">
        <ele>470</ele>
        <time>2021-05-29T10:01:46.643Z</time>
      </trkpt>
      <trkpt lat="46.60374" lon="5.51426">
        <ele>470</ele>
        <time>2021-05-29T10:01:47.642Z</time>
      </trkpt>
      <trkpt lat="46.60376" lon="5.51427">
        <ele>470</ele>
        <time>2021-05-29T10:01:48.643Z</time>
      </trkpt>
      <trkpt lat="46.60377" lon="5.51428">
        <ele>470</ele>
        <time>2021-05-29T10:01:49.643Z</time>
      </trkpt>
      <trkpt lat="46.60379" lon="5.51428">
        <ele>470</ele>
        <time>2021-05-29T10:01:50.642Z</time>
      </trkpt>
      <trkpt lat="46.6038" lon="5.51429">
        <ele>470</ele>
        <time>2021-05-29T10:01:51.642Z</time>
      </trkpt>
      <trkpt lat="46.60381" lon="5.5143">
        <ele>470</ele>
        <time>2021-05-29T10:01:52.643Z</time>
      </trkpt>
      <trkpt lat="46.60382" lon="5.51431">
        <ele>470</ele>
        <time>2021-05-29T10:01:53.642Z</time>
      </trkpt>
      <trkpt lat="46.60383" lon="5.51432">
        <ele>471</ele>
        <time>2021-05-29T10:01:54.643Z</time>
      </trkpt>
      <trkpt lat="46.60384" lon="5.51434">
        <ele>471</ele>
        <time>2021-05-29T10:01:55.642Z</time>
      </trkpt>
      <trkpt lat="46.60384" lon="5.51436">
        <ele>471</ele>
        <time>2021-05-29T10:01:56.643Z</time>
      </trkpt>
      <trkpt lat="46.60383" lon="5.51437">
        <ele>471</ele>
        <time>2021-05-29T10:01:57.643Z</time>
      </trkpt>
      <trkpt lat="46.60383" lon="5.51438">
        <ele>471</ele>
        <time>2021-05-29T10:01:58.643Z</time>
      </trkpt>
      <trkpt lat="46.60383" lon="5.51441">
        <ele>472</ele>
        <time>2021-05-29T10:01:59.643Z</time>
      </trkpt>
      <trkpt lat="46.60382" lon="5.51442">
        <ele>472</ele>
        <time>2021-05-29T10:02:00.643Z</time>
      </trkpt>
      <trkpt lat="46.60381" lon="5.51444">
        <ele>472</ele>
        <time>2021-05-29T10:02:01.643Z</time>
      </trkpt>
      <trkpt lat="46.60381" lon="5.51445">
        <ele>472</ele>
        <time>2021-05-29T10:02:02.643Z</time>
      </trkpt>
      <trkpt lat="46.6038" lon="5.51446">
        <ele>473</ele>
        <time>2021-05-29T10:02:03.643Z</time>
      </trkpt>
      <trkpt lat="46.60375" lon="5.5157">
        <ele>505</ele>
        <time>2021-05-29T10:02:04.643Z</time>
      </trkpt>
      <trkpt lat="46.60376" lon="5.51571">
        <ele>505</ele>
        <time>2021-05-29T10:02:05.643Z</time>
      </trkpt>
      <trkpt lat="46.60377" lon="5.51571">
        <ele>505</ele>
        <time>2021-05-29T10:02:06.643Z</time>
      </trkpt>
      <trkpt lat="46.60379" lon="5.51572">
        <ele>505</ele>
        <time>2021-05-29T10:02:07.643Z</time>
      </trkpt>
      <trkpt lat="46.6038" lon="5.51573">
        <ele>505</ele>
        <time>2021-05-29T10:02:08.643Z</time>
      </trkpt>
      <trkpt lat="46.60381" lon="5.51573">
        <ele>505</ele>
        <time>2021-05-29T10:02:09.644Z</time>
      </trkpt>
      <trkpt lat="46.60382" lon="5.51574">
        <ele>505</ele>
        <time>2021-05-29T10:02:10.643Z</time>
      </trkpt>
      <trkpt lat="46.60384" lon="5.51575">
        <ele>506</ele>
        <time>2021-05-29T10:02:11.643Z</time>
      </trkpt>
      <trkpt lat="46.60385" lon="5.51575">
        <ele>506</ele>
        <time>2021-05-29T10:02:12.644Z</time>
      </trkpt>
      <trkpt lat="46.60386" lon="5.51576">
        <ele>506</ele>
        <time>2021-05-29T10:02:13.643Z</time>
      </trkpt>
      <trkpt lat="46.60388" lon="5.51577">
        <ele>507</ele>
        <time>2021-05-29T10:02:14.643Z</time>
      </trkpt>
      <trkpt lat="46.60389" lon="5.51577">
        <ele>507</ele>
        <time>2021-05-29T10:02:15.644Z</time>
      </trkpt>
      <trkpt lat="46.6039" lon="5.51578">
        <ele>507</ele>
        <time>2021-05-29T10:02:16.643Z</time>
      </trkpt>
      <trkpt lat="46.60391" lon="5.51579">
        <ele>508</ele>
        <time>2021-05-29T10:02:17.643Z</time>
      </trkpt>
      <trkpt lat="46.60392" lon="5.51579">
        <ele>508</ele>
        <time>2021-05-29T10:02:18.643Z</time>
      </trkpt>
      <trkpt lat="46.60393" lon="5.5158">
        <ele>508</ele>
        <time>2021-05-29T10:02:19.643Z</time>
      </trkpt>
      <trkpt lat="46.60394" lon="5.51581">
        <ele>508</ele>
        <time>2021-05-29T10:02:20.643Z</time>
      </trkpt>
      <trkpt lat="46.60395" lon="5.51581">
        <ele>508</ele>
        <time>2021-05-29T10:02:21.643Z</time>
      </trkpt>
      <trkpt lat="46.60397" lon="5.51581">
        <ele>508</ele>
        <time>2021-05-29T10:02:22.643Z</time>
      </trkpt>
      <trkpt lat="46.60398" lon="5.51582">
        <ele>509</ele>
        <time>2021-05-29T10:02:23.643Z</time>
      </trkpt>
      <trkpt lat="46.604" lon="5.51583">
        <ele>509</ele>
        <time>2021-05-29T10:02:24.643Z</time>
      </trkpt>
      <trkpt lat="46.60401" lon="5.51584">
        <ele>510</ele>
        <time>2021-05-29T10:02:25.643Z</time>
      </trkpt>
      <trkpt lat="46.60401" lon="5.51584">
        <ele>510</ele>
        <time>2021-05-29T10:02:26.643Z</time>
      </trkpt>
      <trkpt lat="46.60403" lon="5.51584">
        <ele>510</ele>
        <time>2021-05-29T10:02:27.643Z</time>
      </trkpt>
      <trkpt lat="46.60403" lon="5.51585">
        <ele>511</ele>
        <time>2021-05-29T10:02:28.643Z</time>
      </trkpt>
      <trkpt lat="46.60405" lon="5.51585">
        <ele>511</ele>
        <time>2021-05-29T10:02:29.643Z</time>
      </trkpt>
      <trkpt lat="46.60406" lon="5.51586">
        <ele>511</ele>
        <time>2021-05-29T10:02:30.643Z</time>
      </trkpt>
      <trkpt lat="46.60407" lon="5.51587">
        <ele>511</ele>
        <time>2021-05-29T10:02:31.643Z</time>
      </trkpt>
      <trkpt lat="46.60408" lon="5.51587">
        <ele>511</ele>
        <time>2021-05-29T10:02:32.643Z</time>
      </trkpt>
      <trkpt lat="46.6041" lon="5.51588">
        <ele>512</ele>
        <time>2021-05-29T10:02:33.644Z</time>
      </trkpt>
      <trkpt lat="46.60411" lon="5.51588">
        <ele>512</ele>
        <time>2021-05-29T10:02:34.644Z</time>
      </trkpt>
      <trkpt lat="46.60412" lon="5.51589">
        <ele>513</ele>
        <time>2021-05-29T10:02:35.643Z</time>
      </trkpt>
      <trkpt lat="46.60413" lon="5.5159">
        <ele>513</ele>
        <time>2021-05-29T10:02:36.644Z</time>
      </trkpt>
      <trkpt lat="46.60414" lon="5.51591">
        <ele>512</ele>
        <time>2021-05-29T10:02:37.644Z</time>
      </trkpt>
      <trkpt lat="46.60415" lon="5.51591">
        <ele>513</ele>
        <time>2021-05-29T10:02:38.643Z</time>
      </trkpt>
      <trkpt lat="46.60417" lon="5.51592">
        <ele>513</ele>
        <time>2021-05-29T10:02:39.644Z</time>
      </trkpt>
      <trkpt lat="46.60418" lon="5.51593">
        <ele>513</ele>
        <time>2021-05-29T10:02:40.643Z</time>
      </trkpt>
      <trkpt lat="46.60419" lon="5.51594">
        <ele>514</ele>
        <time>2021-05-29T10:02:41.643Z</time>
      </trkpt>
      <trkpt lat="46.60421" lon="5.51595">
        <ele>514</ele>
        <time>2021-05-29T10:02:42.643Z</time>
      </trkpt>
      <trkpt lat="46.60422" lon="5.51595">
        <ele>515</ele>
        <time>2021-05-29T10:02:43.643Z</time>
      </trkpt>
      <trkpt lat="46.60423" lon="5.51596">
        <ele>515</ele>
        <time>2021-05-29T10:02:44.643Z</time>
      </trkpt>
      <trkpt lat="46.60425" lon="5.51597">
        <ele>516</ele>
        <time>2021-05-29T10:02:45.643Z</time>
      </trkpt>
      <trkpt lat="46.60426" lon="5.51597">
        <ele>516</ele>
        <time>2021-05-29T10:02:46.643Z</time>
      </trkpt>
      <trkpt lat="46.60427" lon="5.51598">
        <ele>516</ele>
        <time>2021-05-29T10:02:47.644Z</time>
      </trkpt>
      <trkpt lat="46.60429" lon="5.51599">
        <ele>517</ele>
        <time>2021-05-29T10:02:48.643Z</time>
      </trkpt>
      <trkpt lat="46.6043" lon="5.516">
        <ele>517</ele>
        <time>2021-05-29T10:02:49.643Z</time>
      </trkpt>
      <trkpt lat="46.60431" lon="5.516">
        <ele>517</ele>
        <time>2021-05-29T10:02:50.643Z</time>
      </trkpt>
      <trkpt lat="46.60432" lon="5.51601">
        <ele>517</ele>
        <time>2021-05-29T10:02:51.643Z</time>
      </trkpt>
      <trkpt lat="46.60433" lon="5.51602">
        <ele>518</ele>
        <time>2021-05-29T10:02:52.643Z</time>
      </trkpt>
      <trkpt lat="46.60435" lon="5.51603">
        <ele>518</ele>
        <time>2021-05-29T10:02:53.643Z</time>
      </trkpt>
      <trkpt lat="46.60436" lon="5.51604">
        <ele>518</ele>
        <time>2021-05-29T10:02:54.644Z</time>
      </trkpt>
      <trkpt lat="46.60437" lon="5.51604">
        <ele>519</ele>
        <time>2021-05-29T10:02:55.644Z</time>
      </trkpt>
      <trkpt lat="46.60438" lon="5.51605">
        <ele>519</ele>
        <time>2021-05-29T10:02:56.643Z</time>
      </trkpt>
      <trkpt lat="46.60439" lon="5.51606">
        <ele>519</ele>
        <time>2021-05-29T10:02:57.643Z</time>
      </trkpt>
      <trkpt lat="46.60441" lon="5.51606">
        <ele>519</ele>
        <time>2021-05-29T10:02:58.643Z</time>
      </trkpt>
      <trkpt lat="46.60442" lon="5.51607">
        <ele>519</ele>
        <time>2021-05-29T10:02:59.643Z</time>
      </trkpt>
      <trkpt lat="46.60443" lon="5.51608">
        <ele>519</ele>
        <time>2021-05-29T10:03:00.643Z</time>
      </trkpt>
      <trkpt lat="46.60445" lon="5.51608">
        <ele>519</ele>
        <time>2021-05-29T10:03:01.643Z</time>
      </trkpt>
      <trkpt lat="46.60446" lon="5.51609">
        <ele>519</ele>
        <time>2021-05-29T10:03:02.644Z</time>
      </trkpt>
      <trkpt lat="46.60447" lon="5.51609">
        <ele>519</ele>
        <time>2021-05-29T10:03:03.643Z</time>
      </trkpt>
      <trkpt lat="46.60448" lon="5.5161">
        <ele>520</ele>
        <time>2021-05-29T10:03:04.643Z</time>
      </trkpt>
      <trkpt lat="46.6045" lon="5.51611">
        <ele>520</ele>
        <time>2021-05-29T10:03:05.643Z</time>
      </trkpt>
      <trkpt lat="46.60451" lon="5.51611">
        <ele>520</ele>
        <time>2021-05-29T10:03:06.643Z</time>
      </trkpt>
      <trkpt lat="46.60452" lon="5.51612">
        <ele>521</ele>
        <time>2021-05-29T10:03:07.643Z</time>
      </trkpt>
      <trkpt lat="46.60453" lon="5.51612">
        <ele>521</ele>
        <time>2021-05-29T10:03:08.643Z</time>
      </trkpt>
      <trkpt lat="46.60455" lon="5.51613">
        <ele>521</ele>
        <time>2021-05-29T10:03:09.643Z</time>
      </trkpt>
      <trkpt lat="46.60456" lon="5.51614">
        <ele>522</ele>
        <time>2021-05-29T10:03:10.644Z</time>
      </trkpt>
      <trkpt lat="46.60457" lon="5.51614">
        <ele>522</ele>
        <time>2021-05-29T10:03:11.643Z</time>
      </trkpt>
      <trkpt lat="46.60458" lon="5.51614">
        <ele>523</ele>
        <time>2021-05-29T10:03:12.643Z</time>
      </trkpt>
      <trkpt lat="46.60459" lon="5.51615">
        <ele>523</ele>
        <time>2021-05-29T10:03:13.643Z</time>
      </trkpt>
      <trkpt lat="46.6046" lon="5.51616">
        <ele>523</ele>
        <time>2021-05-29T10:03:14.643Z</time>
      </trkpt>
      <trkpt lat="46.60461" lon="5.51617">
        <ele>523</ele>
        <time>2021-05-29T10:03:15.643Z</time>
      </trkpt>
      <trkpt lat="46.60462" lon="5.51617">
        <ele>523</ele>
        <time>2021-05-29T10:03:16.643Z</time>
      </trkpt>
      <trkpt lat="46.60464" lon="5.51618">
        <ele>523</ele>
        <time>2021-05-29T10:03:17.643Z</time>
      </trkpt>
      <trkpt lat="46.60465" lon="5.51619">
        <ele>523</ele>
        <time>2021-05-29T10:03:18.644Z</time>
      </trkpt>
      <trkpt lat="46.60467" lon="5.51619">
        <ele>523</ele>
        <time>2021-05-29T10:03:19.643Z</time>
      </trkpt>
      <trkpt lat="46.60468" lon="5.5162">
        <ele>523</ele>
        <time>2021-05-29T10:03:20.643Z</time>
      </trkpt>
      <trkpt lat="46.60469" lon="5.51621">
        <ele>523</ele>
        <time>2021-05-29T10:03:21.643Z</time>
      </trkpt>
      <trkpt lat="46.6047" lon="5.51622">
        <ele>524</ele>
        <time>2021-05-29T10:03:22.643Z</time>
      </trkpt>
      <trkpt lat="46.60472" lon="5.51622">
        <ele>524</ele>
        <time>2021-05-29T10:03:23.644Z</time>
      </trkpt>
      <trkpt lat="46.60473" lon="5.51623">
        <ele>525</ele>
        <time>2021-05-29T10:03:24.643Z</time>
      </trkpt>
      <trkpt lat="46.60474" lon="5.51623">
        <ele>525</ele>
        <time>2021-05-29T10:03:25.644Z</time>
      </trkpt>
      <trkpt lat="46.60475" lon="5.51623">
        <ele>526</ele>
        <time>2021-05-29T10:03:26.643Z</time>
      </trkpt>
      <trkpt lat="46.60477" lon="5.51624">
        <ele>526</ele>
        <time>2021-05-29T10:03:27.643Z</time>
      </trkpt>
      <trkpt lat="46.60478" lon="5.51624">
        <ele>527</ele>
        <time>2021-05-29T10:03:28.643Z</time>
      </trkpt>
      <trkpt lat="46.6048" lon="5.51625">
        <ele>527</ele>
        <time>2021-05-29T10:03:29.643Z</time>
      </trkpt>
      <trkpt lat="46.60481" lon="5.51626">
        <ele>527</ele>
        <time>2021-05-29T10:03:30.643Z</time>
      </trkpt>
      <trkpt lat="46.60482" lon="5.51626">
        <ele>527</ele>
        <time>2021-05-29T10:03:31.643Z</time>
      </trkpt>
      <trkpt lat="46.60483" lon="5.51627">
        <ele>527</ele>
        <time>2021-05-29T10:03:32.643Z</time>
      </trkpt>
      <trkpt lat="46.60485" lon="5.51628">
        <ele>527</ele>
        <time>2021-05-29T10:03:33.643Z</time>
      </trkpt>
      <trkpt lat="46.60486" lon="5.51628">
        <ele>528</ele>
        <time>2021-05-29T10:03:34.643Z</time>
      </trkpt>
      <trkpt lat="46.60487" lon="5.51629">
        <ele>528</ele>
        <time>2021-05-29T10:03:35.643Z</time>
      </trkpt>
      <trkpt lat="46.60488" lon="5.5163">
        <ele>528</ele>
        <time>2021-05-29T10:03:36.644Z</time>
      </trkpt>
      <trkpt lat="46.60489" lon="5.51631">
        <ele>528</ele>
        <time>2021-05-29T10:03:37.643Z</time>
      </trkpt>
      <trkpt lat="46.60491" lon="5.51631">
        <ele>529</ele>
        <time>2021-05-29T10:03:38.643Z</time>
      </trkpt>
      <trkpt lat="46.60492" lon="5.51632">
        <ele>529</ele>
        <time>2021-05-29T10:03:39.644Z</time>
      </trkpt>
      <trkpt lat="46.60493" lon="5.51633">
        <ele>530</ele>
        <time>2021-05-29T10:03:40.644Z</time>
      </trkpt>
      <trkpt lat="46.60495" lon="5.51633">
        <ele>530</ele>
        <time>2021-05-29T10:03:41.643Z</time>
      </trkpt>
      <trkpt lat="46.60495" lon="5.51634">
        <ele>530</ele>
        <time>2021-05-29T10:03:42.643Z</time>
      </trkpt>
      <trkpt lat="46.60497" lon="5.51635">
        <ele>530</ele>
        <time>2021-05-29T10:03:43.644Z</time>
      </trkpt>
      <trkpt lat="46.60498" lon="5.51636">
        <ele>531</ele>
        <time>2021-05-29T10:03:44.643Z</time>
      </trkpt>
      <trkpt lat="46.60499" lon="5.51636">
        <ele>531</ele>
        <time>2021-05-29T10:03:45.643Z</time>
      </trkpt>
      <trkpt lat="46.605" lon="5.51637">
        <ele>532</ele>
        <time>2021-05-29T10:03:46.644Z</time>
      </trkpt>
      <trkpt lat="46.60502" lon="5.51638">
        <ele>532</ele>
        <time>2021-05-29T10:03:47.643Z</time>
      </trkpt>
      <trkpt lat="46.60503" lon="5.51638">
        <ele>532</ele>
        <time>2021-05-29T10:03:48.643Z</time>
      </trkpt>
      <trkpt lat="46.60504" lon="5.51639">
        <ele>532</ele>
        <time>2021-05-29T10:03:49.643Z</time>
      </trkpt>
      <trkpt lat="46.60506" lon="5.5164">
        <ele>532</ele>
        <time>2021-05-29T10:03:50.643Z</time>
      </trkpt>
      <trkpt lat="46.60507" lon="5.5164">
        <ele>532</ele>
        <time>2021-05-29T10:03:51.643Z</time>
      </trkpt>
      <trkpt lat="46.60508" lon="5.51641">
        <ele>532</ele>
        <time>2021-05-29T10:03:52.644Z</time>
      </trkpt>
      <trkpt lat="46.6051" lon="5.51642">
        <ele>533</ele>
        <time>2021-05-29T10:03:53.643Z</time>
      </trkpt>
      <trkpt lat="46.60511" lon="5.51642">
        <ele>533</ele>
        <time>2021-05-29T10:03:54.643Z</time>
      </trkpt>
      <trkpt lat="46.60513" lon="5.51643">
        <ele>533</ele>
        <time>2021-05-29T10:03:55.643Z</time>
      </trkpt>
      <trkpt lat="46.60514" lon="5.51643">
        <ele>533</ele>
        <time>2021-05-29T10:03:56.643Z</time>
      </trkpt>
      <trkpt lat="46.60515" lon="5.51644">
        <ele>534</ele>
        <time>2021-05-29T10:03:57.643Z</time>
      </trkpt>
      <trkpt lat="46.60516" lon="5.51644">
        <ele>534</ele>
        <time>2021-05-29T10:03:58.644Z</time>
      </trkpt>
      <trkpt lat="46.60517" lon="5.51645">
        <ele>534</ele>
        <time>2021-05-29T10:03:59.644Z</time>
      </trkpt>
      <trkpt lat="46.60519" lon="5.51645">
        <ele>534</ele>
        <time>2021-05-29T10:04:00.644Z</time>
      </trkpt>
      <trkpt lat="46.6052" lon="5.51645">
        <ele>535</ele>
        <time>2021-05-29T10:04:01.644Z</time>
      </trkpt>
      <trkpt lat="46.60521" lon="5.51646">
        <ele>535</ele>
        <time>2021-05-29T10:04:02.643Z</time>
      </trkpt>
      <trkpt lat="46.60523" lon="5.51646">
        <ele>536</ele>
        <time>2021-05-29T10:04:03.643Z</time>
      </trkpt>
      <trkpt lat="46.60524" lon="5.51647">
        <ele>536</ele>
        <time>2021-05-29T10:04:04.643Z</time>
      </trkpt>
      <trkpt lat="46.60526" lon="5.51647">
        <ele>536</ele>
        <time>2021-05-29T10:04:05.644Z</time>
      </trkpt>
      <trkpt lat="46.60527" lon="5.51648">
        <ele>536</ele>
        <time>2021-05-29T10:04:06.643Z</time>
      </trkpt>
      <trkpt lat="46.60529" lon="5.51649">
        <ele>536</ele>
        <time>2021-05-29T10:04:07.643Z</time>
      </trkpt>
      <trkpt lat="46.6053" lon="5.5165">
        <ele>536</ele>
        <time>2021-05-29T10:04:08.643Z</time>
      </trkpt>
      <trkpt lat="46.60532" lon="5.5165">
        <ele>536</ele>
        <time>2021-05-29T10:04:09.643Z</time>
      </trkpt>
      <trkpt lat="46.60533" lon="5.51651">
        <ele>536</ele>
        <time>2021-05-29T10:04:10.643Z</time>
      </trkpt>
      <trkpt lat="46.60535" lon="5.51652">
        <ele>536</ele>
        <time>2021-05-29T10:04:11.643Z</time>
      </trkpt>
      <trkpt lat="46.60536" lon="5.51652">
        <ele>536</ele>
        <time>2021-05-29T10:04:12.644Z</time>
      </trkpt>
      <trkpt lat="46.60537" lon="5.51653">
        <ele>537</ele>
        <time>2021-05-29T10:04:13.643Z</time>
      </trkpt>
      <trkpt lat="46.60538" lon="5.51653">
        <ele>537</ele>
        <time>2021-05-29T10:04:14.643Z</time>
      </trkpt>
      <trkpt lat="46.6054" lon="5.51654">
        <ele>537</ele>
        <time>2021-05-29T10:04:15.643Z</time>
      </trkpt>
      <trkpt lat="46.60541" lon="5.51655">
        <ele>538</ele>
        <time>2021-05-29T10:04:16.643Z</time>
      </trkpt>
      <trkpt lat="46.60543" lon="5.51656">
        <ele>538</ele>
        <time>2021-05-29T10:04:17.643Z</time>
      </trkpt>
      <trkpt lat="46.60544" lon="5.51656">
        <ele>538</ele>
        <time>2021-05-29T10:04:18.643Z</time>
      </trkpt>
      <trkpt lat="46.60545" lon="5.51657">
        <ele>539</ele>
        <time>2021-05-29T10:04:19.643Z</time>
      </trkpt>
      <trkpt lat="46.60547" lon="5.51658">
        <ele>539</ele>
        <time>2021-05-29T10:04:20.643Z</time>
      </trkpt>
      <trkpt lat="46.60548" lon="5.51658">
        <ele>540</ele>
        <time>2021-05-29T10:04:21.644Z</time>
      </trkpt>
      <trkpt lat="46.60549" lon="5.51659">
        <ele>540</ele>
        <time>2021-05-29T10:04:22.643Z</time>
      </trkpt>
      <trkpt lat="46.60551" lon="5.5166">
        <ele>540</ele>
        <time>2021-05-29T10:04:23.643Z</time>
      </trkpt>
      <trkpt lat="46.60552" lon="5.5166">
        <ele>541</ele>
        <time>2021-05-29T10:04:24.643Z</time>
      </trkpt>
      <trkpt lat="46.60553" lon="5.51661">
        <ele>541</ele>
        <time>2021-05-29T10:04:25.643Z</time>
      </trkpt>
      <trkpt lat="46.60555" lon="5.51662">
        <ele>541</ele>
        <time>2021-05-29T10:04:26.644Z</time>
      </trkpt>
      <trkpt lat="46.60557" lon="5.51662">
        <ele>541</ele>
        <time>2021-05-29T10:04:27.644Z</time>
      </trkpt>
      <trkpt lat="46.60558" lon="5.51663">
        <ele>542</ele>
        <time>2021-05-29T10:04:28.643Z</time>
      </trkpt>
      <trkpt lat="46.60559" lon="5.51663">
        <ele>542</ele>
        <time>2021-05-29T10:04:29.643Z</time>
      </trkpt>
      <trkpt lat="46.60561" lon="5.51664">
        <ele>542</ele>
        <time>2021-05-29T10:04:30.643Z</time>
      </trkpt>
      <trkpt lat="46.60562" lon="5.51664">
        <ele>542</ele>
        <time>2021-05-29T10:04:31.644Z</time>
      </trkpt>
      <trkpt lat="46.60563" lon="5.51665">
        <ele>542</ele>
        <time>2021-05-29T10:04:32.644Z</time>
      </trkpt>
      <trkpt lat="46.60565" lon="5.51666">
        <ele>542</ele>
        <time>2021-05-29T10:04:33.644Z</time>
      </trkpt>
      <trkpt lat="46.60566" lon="5.51666">
        <ele>542</ele>
        <time>2021-05-29T10:04:34.644Z</time>
      </trkpt>
      <trkpt lat="46.60568" lon="5.51667">
        <ele>543</ele>
        <time>2021-05-29T10:04:35.643Z</time>
      </trkpt>
      <trkpt lat="46.60569" lon="5.51668">
        <ele>543</ele>
        <time>2021-05-29T10:04:36.643Z</time>
      </trkpt>
      <trkpt lat="46.60571" lon="5.51669">
        <ele>543</ele>
        <time>2021-05-29T10:04:37.643Z</time>
      </trkpt>
      <trkpt lat="46.60572" lon="5.51669">
        <ele>543</ele>
        <time>2021-05-29T10:04:38.643Z</time>
      </trkpt>
      <trkpt lat="46.60574" lon="5.5167">
        <ele>544</ele>
        <time>2021-05-29T10:04:39.643Z</time>
      </trkpt>
      <trkpt lat="46.60575" lon="5.51671">
        <ele>544</ele>
        <time>2021-05-29T10:04:40.643Z</time>
      </trkpt>
      <trkpt lat="46.60576" lon="5.51671">
        <ele>544</ele>
        <time>2021-05-29T10:04:41.644Z</time>
      </trkpt>
      <trkpt lat="46.60578" lon="5.51672">
        <ele>544</ele>
        <time>2021-05-29T10:04:42.643Z</time>
      </trkpt>
      <trkpt lat="46.60579" lon="5.51673">
        <ele>544</ele>
        <time>2021-05-29T10:04:43.643Z</time>
      </trkpt>
      <trkpt lat="46.60581" lon="5.51674">
        <ele>544</ele>
        <time>2021-05-29T10:04:44.643Z</time>
      </trkpt>
      <trkpt lat="46.60582" lon="5.51675">
        <ele>544</ele>
        <time>2021-05-29T10:04:45.643Z</time>
      </trkpt>
      <trkpt lat="46.60584" lon="5.51675">
        <ele>544</ele>
        <time>2021-05-29T10:04:46.643Z</time>
      </trkpt>
      <trkpt lat="46.60585" lon="5.51676">
        <ele>544</ele>
        <time>2021-05-29T10:04:47.643Z</time>
      </trkpt>
      <trkpt lat="46.60586" lon="5.51676">
        <ele>545</ele>
        <time>2021-05-29T10:04:48.643Z</time>
      </trkpt>
      <trkpt lat="46.60588" lon="5.51677">
        <ele>545</ele>
        <time>2021-05-29T10:04:49.644Z</time>
      </trkpt>
      <trkpt lat="46.60589" lon="5.51678">
        <ele>545</ele>
        <time>2021-05-29T10:04:50.643Z</time>
      </trkpt>
      <trkpt lat="46.60591" lon="5.51678">
        <ele>545</ele>
        <time>2021-05-29T10:04:51.643Z</time>
      </trkpt>
      <trkpt lat="46.60592" lon="5.51679">
        <ele>545</ele>
        <time>2021-05-29T10:04:52.643Z</time>
      </trkpt>
      <trkpt lat="46.60594" lon="5.51679">
        <ele>546</ele>
        <time>2021-05-29T10:04:53.644Z</time>
      </trkpt>
      <trkpt lat="46.60595" lon="5.5168">
        <ele>546</ele>
        <time>2021-05-29T10:04:54.643Z</time>
      </trkpt>
      <trkpt lat="46.60597" lon="5.51681">
        <ele>546</ele>
        <time>2021-05-29T10:04:55.643Z</time>
      </trkpt>
      <trkpt lat="46.60598" lon="5.51681">
        <ele>546</ele>
        <time>2021-05-29T10:04:56.643Z</time>
      </trkpt>
      <trkpt lat="46.606" lon="5.51682">
        <ele>546</ele>
        <time>2021-05-29T10:04:57.643Z</time>
      </trkpt>
      <trkpt lat="46.60602" lon="5.51682">
        <ele>546</ele>
        <time>2021-05-29T10:04:58.643Z</time>
      </trkpt>
      <trkpt lat="46.60603" lon="5.51683">
        <ele>546</ele>
        <time>2021-05-29T10:04:59.644Z</time>
      </trkpt>
      <trkpt lat="46.60605" lon="5.51683">
        <ele>546</ele>
        <time>2021-05-29T10:05:00.643Z</time>
      </trkpt>
      <trkpt lat="46.60606" lon="5.51684">
        <ele>546</ele>
        <time>2021-05-29T10:05:01.643Z</time>
      </trkpt>
      <trkpt lat="46.60608" lon="5.51685">
        <ele>546</ele>
        <time>2021-05-29T10:05:02.643Z</time>
      </trkpt>
      <trkpt lat="46.60609" lon="5.51685">
        <ele>546</ele>
        <time>2021-05-29T10:05:03.643Z</time>
      </trkpt>
      <trkpt lat="46.60611" lon="5.51686">
        <ele>546</ele>
        <time>2021-05-29T10:05:04.643Z</time>
      </trkpt>
      <trkpt lat="46.60613" lon="5.51687">
        <ele>546</ele>
        <time>2021-05-29T10:05:05.643Z</time>
      </trkpt>
      <trkpt lat="46.60615" lon="5.51687">
        <ele>546</ele>
        <time>2021-05-29T10:05:06.644Z</time>
      </trkpt>
      <trkpt lat="46.60616" lon="5.51688">
        <ele>547</ele>
        <time>2021-05-29T10:05:07.643Z</time>
      </trkpt>
      <trkpt lat="46.60618" lon="5.51689">
        <ele>547</ele>
        <time>2021-05-29T10:05:08.643Z</time>
      </trkpt>
      <trkpt lat="46.60619" lon="5.51689">
        <ele>547</ele>
        <time>2021-05-29T10:05:09.643Z</time>
      </trkpt>
      <trkpt lat="46.6062" lon="5.5169">
        <ele>548</ele>
        <time>2021-05-29T10:05:10.644Z</time>
      </trkpt>
      <trkpt lat="46.60621" lon="5.51691">
        <ele>548</ele>
        <time>2021-05-29T10:05:11.643Z</time>
      </trkpt>
      <trkpt lat="46.60623" lon="5.51691">
        <ele>548</ele>
        <time>2021-05-29T10:05:12.643Z</time>
      </trkpt>
      <trkpt lat="46.60625" lon="5.51692">
        <ele>548</ele>
        <time>2021-05-29T10:05:13.643Z</time>
      </trkpt>
      <trkpt lat="46.60626" lon="5.51693">
        <ele>549</ele>
        <time>2021-05-29T10:05:14.643Z</time>
      </trkpt>
      <trkpt lat="46.60628" lon="5.51694">
        <ele>549</ele>
        <time>2021-05-29T10:05:15.643Z</time>
      </trkpt>
      <trkpt lat="46.60629" lon="5.51695">
        <ele>549</ele>
        <time>2021-05-29T10:05:16.643Z</time>
      </trkpt>
      <trkpt lat="46.6063" lon="5.51696">
        <ele>548</ele>
        <time>2021-05-29T10:05:17.643Z</time>
      </trkpt>
      <trkpt lat="46.60632" lon="5.51697">
        <ele>548</ele>
        <time>2021-05-29T10:05:18.643Z</time>
      </trkpt>
      <trkpt lat="46.60634" lon="5.51699">
        <ele>549</ele>
        <time>2021-05-29T10:05:19.643Z</time>
      </trkpt>
      <trkpt lat="46.60635" lon="5.517">
        <ele>548</ele>
        <time>2021-05-29T10:05:20.643Z</time>
      </trkpt>
      <trkpt lat="46.60636" lon="5.51701">
        <ele>548</ele>
        <time>2021-05-29T10:05:21.644Z</time>
      </trkpt>
      <trkpt lat="46.60637" lon="5.51703">
        <ele>547</ele>
        <time>2021-05-29T10:05:22.643Z</time>
      </trkpt>
      <trkpt lat="46.60639" lon="5.51704">
        <ele>547</ele>
        <time>2021-05-29T10:05:23.643Z</time>
      </trkpt>
      <trkpt lat="46.6064" lon="5.51706">
        <ele>547</ele>
        <time>2021-05-29T10:05:24.643Z</time>
      </trkpt>
      <trkpt lat="46.60642" lon="5.51707">
        <ele>548</ele>
        <time>2021-05-29T10:05:25.644Z</time>
      </trkpt>
      <trkpt lat="46.60643" lon="5.51709">
        <ele>548</ele>
        <time>2021-05-29T10:05:26.643Z</time>
      </trkpt>
      <trkpt lat="46.60644" lon="5.5171">
        <ele>548</ele>
        <time>2021-05-29T10:05:27.643Z</time>
      </trkpt>
      <trkpt lat="46.60646" lon="5.51712">
        <ele>548</ele>
        <time>2021-05-29T10:05:28.643Z</time>
      </trkpt>
      <trkpt lat="46.60647" lon="5.51714">
        <ele>548</ele>
        <time>2021-05-29T10:05:29.643Z</time>
      </trkpt>
      <trkpt lat="46.60649" lon="5.51715">
        <ele>548</ele>
        <time>2021-05-29T10:05:30.643Z</time>
      </trkpt>
      <trkpt lat="46.6065" lon="5.51717">
        <ele>548</ele>
        <time>2021-05-29T10:05:31.643Z</time>
      </trkpt>
      <trkpt lat="46.60651" lon="5.51718">
        <ele>548</ele>
        <time>2021-05-29T10:05:32.643Z</time>
      </trkpt>
      <trkpt lat="46.60653" lon="5.5172">
        <ele>549</ele>
        <time>2021-05-29T10:05:33.643Z</time>
      </trkpt>
      <trkpt lat="46.60655" lon="5.51721">
        <ele>549</ele>
        <time>2021-05-29T10:05:34.643Z</time>
      </trkpt>
      <trkpt lat="46.60657" lon="5.51723">
        <ele>549</ele>
        <time>2021-05-29T10:05:35.643Z</time>
      </trkpt>
      <trkpt lat="46.60658" lon="5.51724">
        <ele>550</ele>
        <time>2021-05-29T10:05:36.644Z</time>
      </trkpt>
      <trkpt lat="46.6066" lon="5.51726">
        <ele>550</ele>
        <time>2021-05-29T10:05:37.644Z</time>
      </trkpt>
      <trkpt lat="46.60662" lon="5.51727">
        <ele>551</ele>
        <time>2021-05-29T10:05:38.644Z</time>
      </trkpt>
      <trkpt lat="46.60664" lon="5.51729">
        <ele>551</ele>
        <time>2021-05-29T10:05:39.643Z</time>
      </trkpt>
      <trkpt lat="46.60665" lon="5.5173">
        <ele>551</ele>
        <time>2021-05-29T10:05:40.643Z</time>
      </trkpt>
      <trkpt lat="46.60667" lon="5.51731">
        <ele>551</ele>
        <time>2021-05-29T10:05:41.643Z</time>
      </trkpt>
      <trkpt lat="46.60668" lon="5.51732">
        <ele>552</ele>
        <time>2021-05-29T10:05:42.643Z</time>
      </trkpt>
      <trkpt lat="46.6067" lon="5.51733">
        <ele>552</ele>
        <time>2021-05-29T10:05:43.643Z</time>
      </trkpt>
      <trkpt lat="46.60672" lon="5.51734">
        <ele>552</ele>
        <time>2021-05-29T10:05:44.643Z</time>
      </trkpt>
      <trkpt lat="46.60674" lon="5.51736">
        <ele>552</ele>
        <time>2021-05-29T10:05:45.643Z</time>
      </trkpt>
      <trkpt lat="46.60675" lon="5.51737">
        <ele>552</ele>
        <time>2021-05-29T10:05:46.643Z</time>
      </trkpt>
      <trkpt lat="46.60678" lon="5.51738">
        <ele>552</ele>
        <time>2021-05-29T10:05:47.644Z</time>
      </trkpt>
      <trkpt lat="46.60679" lon="5.51739">
        <ele>552</ele>
        <time>2021-05-29T10:05:48.643Z</time>
      </trkpt>
      <trkpt lat="46.60681" lon="5.5174">
        <ele>552</ele>
        <time>2021-05-29T10:05:49.643Z</time>
      </trkpt>
      <trkpt lat="46.60683" lon="5.5174">
        <ele>553</ele>
        <time>2021-05-29T10:05:50.643Z</time>
      </trkpt>
      <trkpt lat="46.60684" lon="5.51741">
        <ele>553</ele>
        <time>2021-05-29T10:05:51.643Z</time>
      </trkpt>
      <trkpt lat="46.60686" lon="5.51742">
        <ele>553</ele>
        <time>2021-05-29T10:05:52.643Z</time>
      </trkpt>
      <trkpt lat="46.60687" lon="5.51743">
        <ele>553</ele>
        <time>2021-05-29T10:05:53.643Z</time>
      </trkpt>
      <trkpt lat="46.60688" lon="5.51742">
        <ele>553</ele>
        <time>2021-05-29T10:05:54.644Z</time>
      </trkpt>
      <trkpt lat="46.60688" lon="5.51742">
        <ele>553</ele>
        <time>2021-05-29T10:05:55.643Z</time>
      </trkpt>
      <trkpt lat="46.60693" lon="5.5174">
        <ele>555</ele>
        <time>2021-05-29T10:05:56.645Z</time>
      </trkpt>
      <trkpt lat="46.60693" lon="5.5174">
        <ele>555</ele>
        <time>2021-05-29T10:05:57.644Z</time>
      </trkpt>
      <trkpt lat="46.60694" lon="5.51741">
        <ele>555</ele>
        <time>2021-05-29T10:05:58.644Z</time>
      </trkpt>
      <trkpt lat="46.60695" lon="5.51743">
        <ele>555</ele>
        <time>2021-05-29T10:05:59.644Z</time>
      </trkpt>
      <trkpt lat="46.60697" lon="5.51744">
        <ele>555</ele>
        <time>2021-05-29T10:06:00.645Z</time>
      </trkpt>
      <trkpt lat="46.60699" lon="5.51745">
        <ele>555</ele>
        <time>2021-05-29T10:06:01.645Z</time>
      </trkpt>
      <trkpt lat="46.60701" lon="5.51747">
        <ele>555</ele>
        <time>2021-05-29T10:06:02.645Z</time>
      </trkpt>
      <trkpt lat="46.60703" lon="5.51748">
        <ele>555</ele>
        <time>2021-05-29T10:06:03.644Z</time>
      </trkpt>
      <trkpt lat="46.60705" lon="5.5175">
        <ele>555</ele>
        <time>2021-05-29T10:06:04.645Z</time>
      </trkpt>
      <trkpt lat="46.60707" lon="5.51751">
        <ele>555</ele>
        <time>2021-05-29T10:06:05.645Z</time>
      </trkpt>
      <trkpt lat="46.6071" lon="5.51752">
        <ele>555</ele>
        <time>2021-05-29T10:06:06.645Z</time>
      </trkpt>
      <trkpt lat="46.60712" lon="5.51753">
        <ele>555</ele>
        <time>2021-05-29T10:06:07.645Z</time>
      </trkpt>
      <trkpt lat="46.60714" lon="5.51754">
        <ele>554</ele>
        <time>2021-05-29T10:06:08.644Z</time>
      </trkpt>
      <trkpt lat="46.60717" lon="5.51755">
        <ele>554</ele>
        <time>2021-05-29T10:06:09.645Z</time>
      </trkpt>
      <trkpt lat="46.60719" lon="5.51756">
        <ele>554</ele>
        <time>2021-05-29T10:06:10.644Z</time>
      </trkpt>
      <trkpt lat="46.60721" lon="5.51757">
        <ele>554</ele>
        <time>2021-05-29T10:06:11.645Z</time>
      </trkpt>
      <trkpt lat="46.60723" lon="5.51757">
        <ele>554</ele>
        <time>2021-05-29T10:06:12.645Z</time>
      </trkpt>
      <trkpt lat="46.60726" lon="5.51758">
        <ele>553</ele>
        <time>2021-05-29T10:06:13.644Z</time>
      </trkpt>
      <trkpt lat="46.60728" lon="5.51758">
        <ele>553</ele>
        <time>2021-05-29T10:06:14.645Z</time>
      </trkpt>
      <trkpt lat="46.6073" lon="5.51759">
        <ele>553</ele>
        <time>2021-05-29T10:06:15.644Z</time>
      </trkpt>
      <trkpt lat="46.60733" lon="5.5176">
        <ele>553</ele>
        <time>2021-05-29T10:06:16.645Z</time>
      </trkpt>
      <trkpt lat="46.60735" lon="5.51762">
        <ele>552</ele>
        <time>2021-05-29T10:06:17.645Z</time>
      </trkpt>
      <trkpt lat="46.60738" lon="5.51763">
        <ele>552</ele>
        <time>2021-05-29T10:06:18.645Z</time>
      </trkpt>
      <trkpt lat="46.6074" lon="5.51765">
        <ele>552</ele>
        <time>2021-05-29T10:06:19.645Z</time>
      </trkpt>
      <trkpt lat="46.60742" lon="5.51767">
        <ele>552</ele>
        <time>2021-05-29T10:06:20.645Z</time>
      </trkpt>
      <trkpt lat="46.60744" lon="5.51768">
        <ele>551</ele>
        <time>2021-05-29T10:06:21.645Z</time>
      </trkpt>
      <trkpt lat="46.60746" lon="5.5177">
        <ele>550</ele>
        <time>2021-05-29T10:06:22.645Z</time>
      </trkpt>
      <trkpt lat="46.60748" lon="5.51772">
        <ele>549</ele>
        <time>2021-05-29T10:06:23.644Z</time>
      </trkpt>
      <trkpt lat="46.6075" lon="5.51773">
        <ele>549</ele>
        <time>2021-05-29T10:06:24.644Z</time>
      </trkpt>
      <trkpt lat="46.60752" lon="5.51775">
        <ele>549</ele>
        <time>2021-05-29T10:06:25.644Z</time>
      </trkpt>
      <trkpt lat="46.60754" lon="5.51776">
        <ele>549</ele>
        <time>2021-05-29T10:06:26.645Z</time>
      </trkpt>
      <trkpt lat="46.60755" lon="5.51777">
        <ele>549</ele>
        <time>2021-05-29T10:06:27.645Z</time>
      </trkpt>
      <trkpt lat="46.60757" lon="5.51779">
        <ele>549</ele>
        <time>2021-05-29T10:06:28.645Z</time>
      </trkpt>
      <trkpt lat="46.60759" lon="5.5178">
        <ele>549</ele>
        <time>2021-05-29T10:06:29.644Z</time>
      </trkpt>
      <trkpt lat="46.6076" lon="5.51781">
        <ele>549</ele>
        <time>2021-05-29T10:06:30.644Z</time>
      </trkpt>
      <trkpt lat="46.60763" lon="5.51782">
        <ele>549</ele>
        <time>2021-05-29T10:06:31.644Z</time>
      </trkpt>
      <trkpt lat="46.60764" lon="5.51783">
        <ele>549</ele>
        <time>2021-05-29T10:06:32.645Z</time>
      </trkpt>
      <trkpt lat="46.60766" lon="5.51783">
        <ele>548</ele>
        <time>2021-05-29T10:06:33.645Z</time>
      </trkpt>
      <trkpt lat="46.60767" lon="5.51783">
        <ele>548</ele>
        <time>2021-05-29T10:06:34.645Z</time>
      </trkpt>
      <trkpt lat="46.60769" lon="5.51782">
        <ele>548</ele>
        <time>2021-05-29T10:06:35.645Z</time>
      </trkpt>
      <trkpt lat="46.60771" lon="5.51781">
        <ele>548</ele>
        <time>2021-05-29T10:06:36.644Z</time>
      </trkpt>
      <trkpt lat="46.60772" lon="5.51781">
        <ele>548</ele>
        <time>2021-05-29T10:06:37.645Z</time>
      </trkpt>
      <trkpt lat="46.60774" lon="5.5178">
        <ele>547</ele>
        <time>2021-05-29T10:06:38.645Z</time>
      </trkpt>
      <trkpt lat="46.60775" lon="5.5178">
        <ele>547</ele>
        <time>2021-05-29T10:06:39.645Z</time>
      </trkpt>
      <trkpt lat="46.60777" lon="5.51779">
        <ele>547</ele>
        <time>2021-05-29T10:06:40.645Z</time>
      </trkpt>
      <trkpt lat="46.60778" lon="5.51779">
        <ele>547</ele>
        <time>2021-05-29T10:06:41.644Z</time>
      </trkpt>
      <trkpt lat="46.6078" lon="5.51779">
        <ele>547</ele>
        <time>2021-05-29T10:06:42.645Z</time>
      </trkpt>
      <trkpt lat="46.60781" lon="5.51779">
        <ele>547</ele>
        <time>2021-05-29T10:06:43.645Z</time>
      </trkpt>
      <trkpt lat="46.60783" lon="5.51779">
        <ele>547</ele>
        <time>2021-05-29T10:06:44.645Z</time>
      </trkpt>
      <trkpt lat="46.60784" lon="5.51778">
        <ele>546</ele>
        <time>2021-05-29T10:06:45.644Z</time>
      </trkpt>
      <trkpt lat="46.60785" lon="5.51778">
        <ele>546</ele>
        <time>2021-05-29T10:06:46.645Z</time>
      </trkpt>
      <trkpt lat="46.60787" lon="5.51777">
        <ele>545</ele>
        <time>2021-05-29T10:06:47.645Z</time>
      </trkpt>
      <trkpt lat="46.60789" lon="5.51776">
        <ele>545</ele>
        <time>2021-05-29T10:06:48.645Z</time>
      </trkpt>
      <trkpt lat="46.60791" lon="5.51776">
        <ele>544</ele>
        <time>2021-05-29T10:06:49.645Z</time>
      </trkpt>
      <trkpt lat="46.60793" lon="5.51776">
        <ele>543</ele>
        <time>2021-05-29T10:06:50.645Z</time>
      </trkpt>
      <trkpt lat="46.60794" lon="5.51777">
        <ele>542</ele>
        <time>2021-05-29T10:06:51.645Z</time>
      </trkpt>
      <trkpt lat="46.60796" lon="5.51777">
        <ele>541</ele>
        <time>2021-05-29T10:06:52.645Z</time>
      </trkpt>
      <trkpt lat="46.60798" lon="5.51777">
        <ele>540</ele>
        <time>2021-05-29T10:06:53.645Z</time>
      </trkpt>
      <trkpt lat="46.60799" lon="5.51778">
        <ele>540</ele>
        <time>2021-05-29T10:06:54.644Z</time>
      </trkpt>
      <trkpt lat="46.60801" lon="5.51778">
        <ele>539</ele>
        <time>2021-05-29T10:06:55.645Z</time>
      </trkpt>
      <trkpt lat="46.60802" lon="5.51779">
        <ele>539</ele>
        <time>2021-05-29T10:06:56.645Z</time>
      </trkpt>
      <trkpt lat="46.60804" lon="5.5178">
        <ele>538</ele>
        <time>2021-05-29T10:06:57.644Z</time>
      </trkpt>
      <trkpt lat="46.60806" lon="5.5178">
        <ele>538</ele>
        <time>2021-05-29T10:06:58.645Z</time>
      </trkpt>
      <trkpt lat="46.60808" lon="5.51781">
        <ele>537</ele>
        <time>2021-05-29T10:06:59.645Z</time>
      </trkpt>
      <trkpt lat="46.6081" lon="5.5178">
        <ele>537</ele>
        <time>2021-05-29T10:07:00.645Z</time>
      </trkpt>
      <trkpt lat="46.60812" lon="5.5178">
        <ele>537</ele>
        <time>2021-05-29T10:07:01.645Z</time>
      </trkpt>
      <trkpt lat="46.60813" lon="5.5178">
        <ele>537</ele>
        <time>2021-05-29T10:07:02.645Z</time>
      </trkpt>
      <trkpt lat="46.60815" lon="5.51781">
        <ele>537</ele>
        <time>2021-05-29T10:07:03.644Z</time>
      </trkpt>
      <trkpt lat="46.60817" lon="5.51783">
        <ele>537</ele>
        <time>2021-05-29T10:07:04.645Z</time>
      </trkpt>
      <trkpt lat="46.60819" lon="5.51785">
        <ele>537</ele>
        <time>2021-05-29T10:07:05.644Z</time>
      </trkpt>
      <trkpt lat="46.60822" lon="5.51788">
        <ele>537</ele>
        <time>2021-05-29T10:07:06.645Z</time>
      </trkpt>
      <trkpt lat="46.60824" lon="5.51791">
        <ele>537</ele>
        <time>2021-05-29T10:07:07.645Z</time>
      </trkpt>
      <trkpt lat="46.60827" lon="5.51794">
        <ele>536</ele>
        <time>2021-05-29T10:07:08.645Z</time>
      </trkpt>
      <trkpt lat="46.6083" lon="5.51797">
        <ele>536</ele>
        <time>2021-05-29T10:07:09.645Z</time>
      </trkpt>
      <trkpt lat="46.60833" lon="5.51799">
        <ele>535</ele>
        <time>2021-05-29T10:07:10.645Z</time>
      </trkpt>
      <trkpt lat="46.60836" lon="5.51802">
        <ele>534</ele>
        <time>2021-05-29T10:07:11.644Z</time>
      </trkpt>
      <trkpt lat="46.60839" lon="5.51804">
        <ele>534</ele>
        <time>2021-05-29T10:07:12.645Z</time>
      </trkpt>
      <trkpt lat="46.60841" lon="5.51806">
        <ele>533</ele>
        <time>2021-05-29T10:07:13.645Z</time>
      </trkpt>
      <trkpt lat="46.60844" lon="5.51808">
        <ele>532</ele>
        <time>2021-05-29T10:07:14.645Z</time>
      </trkpt>
      <trkpt lat="46.60847" lon="5.5181">
        <ele>532</ele>
        <time>2021-05-29T10:07:15.645Z</time>
      </trkpt>
      <trkpt lat="46.60849" lon="5.51812">
        <ele>531</ele>
        <time>2021-05-29T10:07:16.645Z</time>
      </trkpt>
      <trkpt lat="46.60852" lon="5.51813">
        <ele>531</ele>
        <time>2021-05-29T10:07:17.645Z</time>
      </trkpt>
      <trkpt lat="46.60854" lon="5.51815">
        <ele>531</ele>
        <time>2021-05-29T10:07:18.644Z</time>
      </trkpt>
      <trkpt lat="46.60856" lon="5.51817">
        <ele>531</ele>
        <time>2021-05-29T10:07:19.644Z</time>
      </trkpt>
      <trkpt lat="46.6086" lon="5.51819">
        <ele>530</ele>
        <time>2021-05-29T10:07:20.645Z</time>
      </trkpt>
      <trkpt lat="46.60862" lon="5.51821">
        <ele>530</ele>
        <time>2021-05-29T10:07:21.645Z</time>
      </trkpt>
      <trkpt lat="46.60864" lon="5.51823">
        <ele>530</ele>
        <time>2021-05-29T10:07:22.645Z</time>
      </trkpt>
      <trkpt lat="46.60867" lon="5.51825">
        <ele>530</ele>
        <time>2021-05-29T10:07:23.645Z</time>
      </trkpt>
      <trkpt lat="46.60868" lon="5.51827">
        <ele>530</ele>
        <time>2021-05-29T10:07:24.644Z</time>
      </trkpt>
      <trkpt lat="46.60871" lon="5.51829">
        <ele>529</ele>
        <time>2021-05-29T10:07:25.645Z</time>
      </trkpt>
      <trkpt lat="46.60873" lon="5.51831">
        <ele>529</ele>
        <time>2021-05-29T10:07:26.645Z</time>
      </trkpt>
      <trkpt lat="46.60876" lon="5.51833">
        <ele>529</ele>
        <time>2021-05-29T10:07:27.645Z</time>
      </trkpt>
      <trkpt lat="46.60878" lon="5.51834">
        <ele>529</ele>
        <time>2021-05-29T10:07:28.644Z</time>
      </trkpt>
      <trkpt lat="46.6088" lon="5.51836">
        <ele>529</ele>
        <time>2021-05-29T10:07:29.644Z</time>
      </trkpt>
      <trkpt lat="46.60882" lon="5.51838">
        <ele>528</ele>
        <time>2021-05-29T10:07:30.645Z</time>
      </trkpt>
      <trkpt lat="46.60884" lon="5.5184">
        <ele>528</ele>
        <time>2021-05-29T10:07:31.645Z</time>
      </trkpt>
      <trkpt lat="46.60886" lon="5.51842">
        <ele>528</ele>
        <time>2021-05-29T10:07:32.645Z</time>
      </trkpt>
      <trkpt lat="46.60888" lon="5.51843">
        <ele>528</ele>
        <time>2021-05-29T10:07:33.645Z</time>
      </trkpt>
      <trkpt lat="46.60891" lon="5.51845">
        <ele>528</ele>
        <time>2021-05-29T10:07:34.644Z</time>
      </trkpt>
      <trkpt lat="46.60893" lon="5.51847">
        <ele>528</ele>
        <time>2021-05-29T10:07:35.644Z</time>
      </trkpt>
      <trkpt lat="46.60895" lon="5.51848">
        <ele>528</ele>
        <time>2021-05-29T10:07:36.644Z</time>
      </trkpt>
      <trkpt lat="46.60897" lon="5.5185">
        <ele>528</ele>
        <time>2021-05-29T10:07:37.644Z</time>
      </trkpt>
      <trkpt lat="46.60899" lon="5.51851">
        <ele>528</ele>
        <time>2021-05-29T10:07:38.645Z</time>
      </trkpt>
      <trkpt lat="46.60901" lon="5.51852">
        <ele>529</ele>
        <time>2021-05-29T10:07:39.645Z</time>
      </trkpt>
      <trkpt lat="46.60903" lon="5.51853">
        <ele>529</ele>
        <time>2021-05-29T10:07:40.644Z</time>
      </trkpt>
      <trkpt lat="46.60906" lon="5.51854">
        <ele>528</ele>
        <time>2021-05-29T10:07:41.645Z</time>
      </trkpt>
      <trkpt lat="46.60907" lon="5.51855">
        <ele>528</ele>
        <time>2021-05-29T10:07:42.645Z</time>
      </trkpt>
      <trkpt lat="46.6091" lon="5.51856">
        <ele>528</ele>
        <time>2021-05-29T10:07:43.645Z</time>
      </trkpt>
      <trkpt lat="46.60912" lon="5.51857">
        <ele>527</ele>
        <time>2021-05-29T10:07:44.645Z</time>
      </trkpt>
      <trkpt lat="46.60915" lon="5.51857">
        <ele>527</ele>
        <time>2021-05-29T10:07:45.644Z</time>
      </trkpt>
      <trkpt lat="46.60917" lon="5.51858">
        <ele>526</ele>
        <time>2021-05-29T10:07:46.645Z</time>
      </trkpt>
      <trkpt lat="46.60919" lon="5.51858">
        <ele>525</ele>
        <time>2021-05-29T10:07:47.645Z</time>
      </trkpt>
      <trkpt lat="46.60922" lon="5.51859">
        <ele>525</ele>
        <time>2021-05-29T10:07:48.645Z</time>
      </trkpt>
      <trkpt lat="46.60924" lon="5.51859">
        <ele>524</ele>
        <time>2021-05-29T10:07:49.644Z</time>
      </trkpt>
      <trkpt lat="46.60927" lon="5.51859">
        <ele>524</ele>
        <time>2021-05-29T10:07:50.645Z</time>
      </trkpt>
      <trkpt lat="46.60929" lon="5.51859">
        <ele>523</ele>
        <time>2021-05-29T10:07:51.644Z</time>
      </trkpt>
      <trkpt lat="46.60932" lon="5.51858">
        <ele>523</ele>
        <time>2021-05-29T10:07:52.645Z</time>
      </trkpt>
      <trkpt lat="46.60935" lon="5.51858">
        <ele>523</ele>
        <time>2021-05-29T10:07:53.645Z</time>
      </trkpt>
      <trkpt lat="46.60938" lon="5.51858">
        <ele>523</ele>
        <time>2021-05-29T10:07:54.645Z</time>
      </trkpt>
      <trkpt lat="46.60941" lon="5.51859">
        <ele>522</ele>
        <time>2021-05-29T10:07:55.645Z</time>
      </trkpt>
      <trkpt lat="46.60944" lon="5.51859">
        <ele>522</ele>
        <time>2021-05-29T10:07:56.645Z</time>
      </trkpt>
      <trkpt lat="46.60948" lon="5.5186">
        <ele>521</ele>
        <time>2021-05-29T10:07:57.645Z</time>
      </trkpt>
      <trkpt lat="46.60951" lon="5.51862">
        <ele>521</ele>
        <time>2021-05-29T10:07:58.644Z</time>
      </trkpt>
      <trkpt lat="46.60953" lon="5.51863">
        <ele>521</ele>
        <time>2021-05-29T10:07:59.645Z</time>
      </trkpt>
      <trkpt lat="46.60956" lon="5.51865">
        <ele>520</ele>
        <time>2021-05-29T10:08:00.645Z</time>
      </trkpt>
      <trkpt lat="46.60959" lon="5.51866">
        <ele>519</ele>
        <time>2021-05-29T10:08:01.645Z</time>
      </trkpt>
      <trkpt lat="46.60962" lon="5.51867">
        <ele>519</ele>
        <time>2021-05-29T10:08:02.645Z</time>
      </trkpt>
      <trkpt lat="46.60965" lon="5.51868">
        <ele>518</ele>
        <time>2021-05-29T10:08:03.644Z</time>
      </trkpt>
      <trkpt lat="46.60967" lon="5.51867">
        <ele>518</ele>
        <time>2021-05-29T10:08:04.645Z</time>
      </trkpt>
      <trkpt lat="46.6097" lon="5.51867">
        <ele>518</ele>
        <time>2021-05-29T10:08:05.644Z</time>
      </trkpt>
      <trkpt lat="46.60973" lon="5.51865">
        <ele>518</ele>
        <time>2021-05-29T10:08:06.645Z</time>
      </trkpt>
      <trkpt lat="46.60976" lon="5.51864">
        <ele>518</ele>
        <time>2021-05-29T10:08:07.645Z</time>
      </trkpt>
      <trkpt lat="46.60978" lon="5.51864">
        <ele>517</ele>
        <time>2021-05-29T10:08:08.645Z</time>
      </trkpt>
      <trkpt lat="46.60981" lon="5.51863">
        <ele>517</ele>
        <time>2021-05-29T10:08:09.645Z</time>
      </trkpt>
      <trkpt lat="46.60984" lon="5.51863">
        <ele>517</ele>
        <time>2021-05-29T10:08:10.644Z</time>
      </trkpt>
      <trkpt lat="46.60987" lon="5.51863">
        <ele>517</ele>
        <time>2021-05-29T10:08:11.644Z</time>
      </trkpt>
      <trkpt lat="46.6099" lon="5.51863">
        <ele>517</ele>
        <time>2021-05-29T10:08:12.645Z</time>
      </trkpt>
      <trkpt lat="46.60993" lon="5.51864">
        <ele>516</ele>
        <time>2021-05-29T10:08:13.645Z</time>
      </trkpt>
      <trkpt lat="46.60996" lon="5.51865">
        <ele>516</ele>
        <time>2021-05-29T10:08:14.644Z</time>
      </trkpt>
      <trkpt lat="46.60998" lon="5.51865">
        <ele>516</ele>
        <time>2021-05-29T10:08:15.645Z</time>
      </trkpt>
      <trkpt lat="46.61001" lon="5.51866">
        <ele>516</ele>
        <time>2021-05-29T10:08:16.645Z</time>
      </trkpt>
      <trkpt lat="46.61003" lon="5.51866">
        <ele>515</ele>
        <time>2021-05-29T10:08:17.645Z</time>
      </trkpt>
      <trkpt lat="46.61005" lon="5.51867">
        <ele>515</ele>
        <time>2021-05-29T10:08:18.645Z</time>
      </trkpt>
      <trkpt lat="46.61008" lon="5.51867">
        <ele>515</ele>
        <time>2021-05-29T10:08:19.645Z</time>
      </trkpt>
      <trkpt lat="46.6101" lon="5.51867">
        <ele>515</ele>
        <time>2021-05-29T10:08:20.645Z</time>
      </trkpt>
      <trkpt lat="46.61013" lon="5.51867">
        <ele>515</ele>
        <time>2021-05-29T10:08:21.645Z</time>
      </trkpt>
      <trkpt lat="46.61016" lon="5.51867">
        <ele>514</ele>
        <time>2021-05-29T10:08:22.645Z</time>
      </trkpt>
      <trkpt lat="46.61018" lon="5.51867">
        <ele>514</ele>
        <time>2021-05-29T10:08:23.644Z</time>
      </trkpt>
      <trkpt lat="46.61021" lon="5.51868">
        <ele>514</ele>
        <time>2021-05-29T10:08:24.645Z</time>
      </trkpt>
      <trkpt lat="46.61023" lon="5.51868">
        <ele>513</ele>
        <time>2021-05-29T10:08:25.644Z</time>
      </trkpt>
      <trkpt lat="46.61025" lon="5.51869">
        <ele>513</ele>
        <time>2021-05-29T10:08:26.645Z</time>
      </trkpt>
      <trkpt lat="46.61027" lon="5.5187">
        <ele>513</ele>
        <time>2021-05-29T10:08:27.644Z</time>
      </trkpt>
      <trkpt lat="46.61029" lon="5.51871">
        <ele>512</ele>
        <time>2021-05-29T10:08:28.645Z</time>
      </trkpt>
      <trkpt lat="46.61032" lon="5.51872">
        <ele>512</ele>
        <time>2021-05-29T10:08:29.644Z</time>
      </trkpt>
      <trkpt lat="46.61034" lon="5.51874">
        <ele>513</ele>
        <time>2021-05-29T10:08:30.645Z</time>
      </trkpt>
      <trkpt lat="46.61035" lon="5.51875">
        <ele>513</ele>
        <time>2021-05-29T10:08:31.644Z</time>
      </trkpt>
      <trkpt lat="46.61036" lon="5.51876">
        <ele>513</ele>
        <time>2021-05-29T10:08:32.645Z</time>
      </trkpt>
      <trkpt lat="46.61036" lon="5.51877">
        <ele>513</ele>
        <time>2021-05-29T10:08:33.644Z</time>
      </trkpt>
      <trkpt lat="46.61036" lon="5.51877">
        <ele>513</ele>
        <time>2021-05-29T10:08:34.645Z</time>
      </trkpt>
      <trkpt lat="46.61036" lon="5.51877">
        <ele>513</ele>
        <time>2021-05-29T10:08:35.645Z</time>
      </trkpt>
      <trkpt lat="46.61036" lon="5.51877">
        <ele>513</ele>
        <time>2021-05-29T10:08:36.645Z</time>
      </trkpt>
      <trkpt lat="46.61036" lon="5.51876">
        <ele>514</ele>
        <time>2021-05-29T10:08:37.645Z</time>
      </trkpt>
      <trkpt lat="46.61036" lon="5.51876">
        <ele>514</ele>
        <time>2021-05-29T10:08:38.644Z</time>
      </trkpt>
      <trkpt lat="46.61036" lon="5.51876">
        <ele>514</ele>
        <time>2021-05-29T10:08:39.644Z</time>
      </trkpt>
      <trkpt lat="46.61036" lon="5.51876">
        <ele>514</ele>
        <time>2021-05-29T10:08:40.644Z</time>
      </trkpt>
      <trkpt lat="46.61036" lon="5.51876">
        <ele>514</ele>
        <time>2021-05-29T10:08:41.645Z</time>
      </trkpt>
      <trkpt lat="46.61037" lon="5.51876">
        <ele>513</ele>
        <time>2021-05-29T10:08:42.645Z</time>
      </trkpt>
      <trkpt lat="46.61037" lon="5.51876">
        <ele>513</ele>
        <time>2021-05-29T10:08:43.644Z</time>
      </trkpt>
      <trkpt lat="46.61037" lon="5.51876">
        <ele>513</ele>
        <time>2021-05-29T10:08:44.645Z</time>
      </trkpt>
      <trkpt lat="46.61037" lon="5.51877">
        <ele>510</ele>
        <time>2021-05-29T10:08:45.645Z</time>
      </trkpt>
      <trkpt lat="46.61037" lon="5.51877">
        <ele>510</ele>
        <time>2021-05-29T10:08:46.645Z</time>
      </trkpt>
      <trkpt lat="46.61037" lon="5.51877">
        <ele>510</ele>
        <time>2021-05-29T10:08:47.644Z</time>
      </trkpt>
      <trkpt lat="46.61038" lon="5.51878">
        <ele>510</ele>
        <time>2021-05-29T10:08:48.645Z</time>
      </trkpt>
      <trkpt lat="46.61039" lon="5.51879">
        <ele>510</ele>
        <time>2021-05-29T10:08:49.644Z</time>
      </trkpt>
      <trkpt lat="46.61041" lon="5.5188">
        <ele>510</ele>
        <time>2021-05-29T10:08:50.645Z</time>
      </trkpt>
      <trkpt lat="46.61043" lon="5.5188">
        <ele>510</ele>
        <time>2021-05-29T10:08:51.645Z</time>
      </trkpt>
      <trkpt lat="46.61045" lon="5.51881">
        <ele>510</ele>
        <time>2021-05-29T10:08:52.645Z</time>
      </trkpt>
      <trkpt lat="46.61047" lon="5.51882">
        <ele>510</ele>
        <time>2021-05-29T10:08:53.645Z</time>
      </trkpt>
      <trkpt lat="46.6105" lon="5.51882">
        <ele>510</ele>
        <time>2021-05-29T10:08:54.645Z</time>
      </trkpt>
      <trkpt lat="46.61053" lon="5.51883">
        <ele>510</ele>
        <time>2021-05-29T10:08:55.645Z</time>
      </trkpt>
      <trkpt lat="46.61056" lon="5.51883">
        <ele>510</ele>
        <time>2021-05-29T10:08:56.644Z</time>
      </trkpt>
      <trkpt lat="46.61059" lon="5.51884">
        <ele>510</ele>
        <time>2021-05-29T10:08:57.645Z</time>
      </trkpt>
      <trkpt lat="46.61061" lon="5.51884">
        <ele>510</ele>
        <time>2021-05-29T10:08:58.645Z</time>
      </trkpt>
      <trkpt lat="46.61064" lon="5.51884">
        <ele>510</ele>
        <time>2021-05-29T10:08:59.645Z</time>
      </trkpt>
      <trkpt lat="46.61067" lon="5.51885">
        <ele>510</ele>
        <time>2021-05-29T10:09:00.645Z</time>
      </trkpt>
      <trkpt lat="46.61069" lon="5.51885">
        <ele>509</ele>
        <time>2021-05-29T10:09:01.644Z</time>
      </trkpt>
      <trkpt lat="46.61072" lon="5.51885">
        <ele>509</ele>
        <time>2021-05-29T10:09:02.645Z</time>
      </trkpt>
      <trkpt lat="46.61075" lon="5.51885">
        <ele>509</ele>
        <time>2021-05-29T10:09:03.645Z</time>
      </trkpt>
      <trkpt lat="46.61077" lon="5.51885">
        <ele>508</ele>
        <time>2021-05-29T10:09:04.645Z</time>
      </trkpt>
      <trkpt lat="46.6108" lon="5.51885">
        <ele>508</ele>
        <time>2021-05-29T10:09:05.645Z</time>
      </trkpt>
      <trkpt lat="46.61082" lon="5.51885">
        <ele>508</ele>
        <time>2021-05-29T10:09:06.644Z</time>
      </trkpt>
      <trkpt lat="46.61085" lon="5.51885">
        <ele>508</ele>
        <time>2021-05-29T10:09:07.644Z</time>
      </trkpt>
      <trkpt lat="46.61088" lon="5.51886">
        <ele>508</ele>
        <time>2021-05-29T10:09:08.645Z</time>
      </trkpt>
      <trkpt lat="46.61091" lon="5.51886">
        <ele>507</ele>
        <time>2021-05-29T10:09:09.645Z</time>
      </trkpt>
      <trkpt lat="46.61094" lon="5.51887">
        <ele>507</ele>
        <time>2021-05-29T10:09:10.645Z</time>
      </trkpt>
      <trkpt lat="46.61096" lon="5.51887">
        <ele>506</ele>
        <time>2021-05-29T10:09:11.645Z</time>
      </trkpt>
      <trkpt lat="46.61099" lon="5.51887">
        <ele>506</ele>
        <time>2021-05-29T10:09:12.645Z</time>
      </trkpt>
      <trkpt lat="46.61102" lon="5.51887">
        <ele>506</ele>
        <time>2021-05-29T10:09:13.645Z</time>
      </trkpt>
      <trkpt lat="46.61105" lon="5.51888">
        <ele>506</ele>
        <time>2021-05-29T10:09:14.645Z</time>
      </trkpt>
      <trkpt lat="46.61107" lon="5.51888">
        <ele>506</ele>
        <time>2021-05-29T10:09:15.645Z</time>
      </trkpt>
      <trkpt lat="46.6111" lon="5.51888">
        <ele>506</ele>
        <time>2021-05-29T10:09:16.645Z</time>
      </trkpt>
      <trkpt lat="46.61112" lon="5.51889">
        <ele>506</ele>
        <time>2021-05-29T10:09:17.645Z</time>
      </trkpt>
      <trkpt lat="46.61115" lon="5.5189">
        <ele>505</ele>
        <time>2021-05-29T10:09:18.645Z</time>
      </trkpt>
      <trkpt lat="46.61117" lon="5.51891">
        <ele>505</ele>
        <time>2021-05-29T10:09:19.645Z</time>
      </trkpt>
      <trkpt lat="46.61119" lon="5.51891">
        <ele>505</ele>
        <time>2021-05-29T10:09:20.644Z</time>
      </trkpt>
      <trkpt lat="46.61121" lon="5.51892">
        <ele>505</ele>
        <time>2021-05-29T10:09:21.644Z</time>
      </trkpt>
      <trkpt lat="46.61124" lon="5.51893">
        <ele>504</ele>
        <time>2021-05-29T10:09:22.645Z</time>
      </trkpt>
      <trkpt lat="46.61126" lon="5.51893">
        <ele>504</ele>
        <time>2021-05-29T10:09:23.645Z</time>
      </trkpt>
      <trkpt lat="46.61128" lon="5.51893">
        <ele>504</ele>
        <time>2021-05-29T10:09:24.645Z</time>
      </trkpt>
      <trkpt lat="46.61131" lon="5.51894">
        <ele>504</ele>
        <time>2021-05-29T10:09:25.645Z</time>
      </trkpt>
      <trkpt lat="46.61133" lon="5.51894">
        <ele>504</ele>
        <time>2021-05-29T10:09:26.645Z</time>
      </trkpt>
      <trkpt lat="46.61136" lon="5.51894">
        <ele>504</ele>
        <time>2021-05-29T10:09:27.645Z</time>
      </trkpt>
      <trkpt lat="46.61138" lon="5.51894">
        <ele>504</ele>
        <time>2021-05-29T10:09:28.645Z</time>
      </trkpt>
      <trkpt lat="46.61141" lon="5.51894">
        <ele>504</ele>
        <time>2021-05-29T10:09:29.645Z</time>
      </trkpt>
      <trkpt lat="46.61144" lon="5.51894">
        <ele>504</ele>
        <time>2021-05-29T10:09:30.645Z</time>
      </trkpt>
      <trkpt lat="46.61146" lon="5.51894">
        <ele>503</ele>
        <time>2021-05-29T10:09:31.645Z</time>
      </trkpt>
      <trkpt lat="46.61149" lon="5.51893">
        <ele>503</ele>
        <time>2021-05-29T10:09:32.645Z</time>
      </trkpt>
      <trkpt lat="46.61152" lon="5.51893">
        <ele>503</ele>
        <time>2021-05-29T10:09:33.645Z</time>
      </trkpt>
      <trkpt lat="46.61155" lon="5.51893">
        <ele>504</ele>
        <time>2021-05-29T10:09:34.645Z</time>
      </trkpt>
      <trkpt lat="46.61157" lon="5.51894">
        <ele>504</ele>
        <time>2021-05-29T10:09:35.644Z</time>
      </trkpt>
      <trkpt lat="46.6116" lon="5.51894">
        <ele>504</ele>
        <time>2021-05-29T10:09:36.645Z</time>
      </trkpt>
      <trkpt lat="46.61163" lon="5.51894">
        <ele>504</ele>
        <time>2021-05-29T10:09:37.644Z</time>
      </trkpt>
      <trkpt lat="46.61165" lon="5.51895">
        <ele>504</ele>
        <time>2021-05-29T10:09:38.644Z</time>
      </trkpt>
      <trkpt lat="46.61167" lon="5.51896">
        <ele>504</ele>
        <time>2021-05-29T10:09:39.644Z</time>
      </trkpt>
      <trkpt lat="46.6117" lon="5.51896">
        <ele>503</ele>
        <time>2021-05-29T10:09:40.645Z</time>
      </trkpt>
      <trkpt lat="46.61172" lon="5.51896">
        <ele>503</ele>
        <time>2021-05-29T10:09:41.644Z</time>
      </trkpt>
      <trkpt lat="46.61175" lon="5.51896">
        <ele>503</ele>
        <time>2021-05-29T10:09:42.644Z</time>
      </trkpt>
      <trkpt lat="46.61177" lon="5.51896">
        <ele>503</ele>
        <time>2021-05-29T10:09:43.645Z</time>
      </trkpt>
      <trkpt lat="46.6118" lon="5.51896">
        <ele>503</ele>
        <time>2021-05-29T10:09:44.645Z</time>
      </trkpt>
      <trkpt lat="46.61183" lon="5.51896">
        <ele>503</ele>
        <time>2021-05-29T10:09:45.644Z</time>
      </trkpt>
      <trkpt lat="46.61185" lon="5.51896">
        <ele>503</ele>
        <time>2021-05-29T10:09:46.645Z</time>
      </trkpt>
      <trkpt lat="46.61188" lon="5.51896">
        <ele>503</ele>
        <time>2021-05-29T10:09:47.644Z</time>
      </trkpt>
      <trkpt lat="46.61191" lon="5.51895">
        <ele>503</ele>
        <time>2021-05-29T10:09:48.644Z</time>
      </trkpt>
      <trkpt lat="46.61194" lon="5.51895">
        <ele>503</ele>
        <time>2021-05-29T10:09:49.645Z</time>
      </trkpt>
      <trkpt lat="46.61197" lon="5.51895">
        <ele>503</ele>
        <time>2021-05-29T10:09:50.645Z</time>
      </trkpt>
      <trkpt lat="46.612" lon="5.51895">
        <ele>503</ele>
        <time>2021-05-29T10:09:51.645Z</time>
      </trkpt>
      <trkpt lat="46.61202" lon="5.51895">
        <ele>503</ele>
        <time>2021-05-29T10:09:52.645Z</time>
      </trkpt>
      <trkpt lat="46.61205" lon="5.51895">
        <ele>503</ele>
        <time>2021-05-29T10:09:53.645Z</time>
      </trkpt>
      <trkpt lat="46.61208" lon="5.51894">
        <ele>503</ele>
        <time>2021-05-29T10:09:54.644Z</time>
      </trkpt>
      <trkpt lat="46.61211" lon="5.51894">
        <ele>503</ele>
        <time>2021-05-29T10:09:55.644Z</time>
      </trkpt>
      <trkpt lat="46.61213" lon="5.51894">
        <ele>503</ele>
        <time>2021-05-29T10:09:56.645Z</time>
      </trkpt>
      <trkpt lat="46.61216" lon="5.51893">
        <ele>503</ele>
        <time>2021-05-29T10:09:57.645Z</time>
      </trkpt>
      <trkpt lat="46.61218" lon="5.51893">
        <ele>502</ele>
        <time>2021-05-29T10:09:58.645Z</time>
      </trkpt>
      <trkpt lat="46.61221" lon="5.51893">
        <ele>502</ele>
        <time>2021-05-29T10:09:59.645Z</time>
      </trkpt>
      <trkpt lat="46.61223" lon="5.51892">
        <ele>502</ele>
        <time>2021-05-29T10:10:00.645Z</time>
      </trkpt>
      <trkpt lat="46.61226" lon="5.51892">
        <ele>502</ele>
        <time>2021-05-29T10:10:01.645Z</time>
      </trkpt>
      <trkpt lat="46.61228" lon="5.51892">
        <ele>502</ele>
        <time>2021-05-29T10:10:02.645Z</time>
      </trkpt>
      <trkpt lat="46.6123" lon="5.51891">
        <ele>502</ele>
        <time>2021-05-29T10:10:03.644Z</time>
      </trkpt>
      <trkpt lat="46.61233" lon="5.51891">
        <ele>502</ele>
        <time>2021-05-29T10:10:04.645Z</time>
      </trkpt>
      <trkpt lat="46.61235" lon="5.51891">
        <ele>501</ele>
        <time>2021-05-29T10:10:05.645Z</time>
      </trkpt>
      <trkpt lat="46.61237" lon="5.51891">
        <ele>501</ele>
        <time>2021-05-29T10:10:06.645Z</time>
      </trkpt>
      <trkpt lat="46.6124" lon="5.51891">
        <ele>500</ele>
        <time>2021-05-29T10:10:07.645Z</time>
      </trkpt>
      <trkpt lat="46.61242" lon="5.51891">
        <ele>500</ele>
        <time>2021-05-29T10:10:08.645Z</time>
      </trkpt>
      <trkpt lat="46.61245" lon="5.51891">
        <ele>500</ele>
        <time>2021-05-29T10:10:09.645Z</time>
      </trkpt>
      <trkpt lat="46.61247" lon="5.51891">
        <ele>500</ele>
        <time>2021-05-29T10:10:10.645Z</time>
      </trkpt>
      <trkpt lat="46.61249" lon="5.51891">
        <ele>500</ele>
        <time>2021-05-29T10:10:11.644Z</time>
      </trkpt>
      <trkpt lat="46.61252" lon="5.51891">
        <ele>500</ele>
        <time>2021-05-29T10:10:12.644Z</time>
      </trkpt>
      <trkpt lat="46.61254" lon="5.51891">
        <ele>500</ele>
        <time>2021-05-29T10:10:13.645Z</time>
      </trkpt>
      <trkpt lat="46.61256" lon="5.51891">
        <ele>500</ele>
        <time>2021-05-29T10:10:14.645Z</time>
      </trkpt>
      <trkpt lat="46.61259" lon="5.51891">
        <ele>499</ele>
        <time>2021-05-29T10:10:15.645Z</time>
      </trkpt>
      <trkpt lat="46.61262" lon="5.5189">
        <ele>499</ele>
        <time>2021-05-29T10:10:16.645Z</time>
      </trkpt>
      <trkpt lat="46.61264" lon="5.5189">
        <ele>499</ele>
        <time>2021-05-29T10:10:17.645Z</time>
      </trkpt>
      <trkpt lat="46.61266" lon="5.51891">
        <ele>498</ele>
        <time>2021-05-29T10:10:18.645Z</time>
      </trkpt>
      <trkpt lat="46.61269" lon="5.51891">
        <ele>498</ele>
        <time>2021-05-29T10:10:19.645Z</time>
      </trkpt>
      <trkpt lat="46.61272" lon="5.51892">
        <ele>498</ele>
        <time>2021-05-29T10:10:20.645Z</time>
      </trkpt>
      <trkpt lat="46.61275" lon="5.51892">
        <ele>498</ele>
        <time>2021-05-29T10:10:21.644Z</time>
      </trkpt>
      <trkpt lat="46.61277" lon="5.51892">
        <ele>498</ele>
        <time>2021-05-29T10:10:22.645Z</time>
      </trkpt>
      <trkpt lat="46.6128" lon="5.51892">
        <ele>498</ele>
        <time>2021-05-29T10:10:23.645Z</time>
      </trkpt>
      <trkpt lat="46.61282" lon="5.51892">
        <ele>498</ele>
        <time>2021-05-29T10:10:24.645Z</time>
      </trkpt>
      <trkpt lat="46.61285" lon="5.51892">
        <ele>498</ele>
        <time>2021-05-29T10:10:25.645Z</time>
      </trkpt>
      <trkpt lat="46.61288" lon="5.51893">
        <ele>498</ele>
        <time>2021-05-29T10:10:26.645Z</time>
      </trkpt>
      <trkpt lat="46.61291" lon="5.51893">
        <ele>498</ele>
        <time>2021-05-29T10:10:27.645Z</time>
      </trkpt>
      <trkpt lat="46.61293" lon="5.51893">
        <ele>499</ele>
        <time>2021-05-29T10:10:28.645Z</time>
      </trkpt>
      <trkpt lat="46.61296" lon="5.51893">
        <ele>499</ele>
        <time>2021-05-29T10:10:29.645Z</time>
      </trkpt>
      <trkpt lat="46.61299" lon="5.51892">
        <ele>499</ele>
        <time>2021-05-29T10:10:30.645Z</time>
      </trkpt>
      <trkpt lat="46.61301" lon="5.51892">
        <ele>499</ele>
        <time>2021-05-29T10:10:31.644Z</time>
      </trkpt>
      <trkpt lat="46.61304" lon="5.51892">
        <ele>498</ele>
        <time>2021-05-29T10:10:32.645Z</time>
      </trkpt>
      <trkpt lat="46.61306" lon="5.51892">
        <ele>498</ele>
        <time>2021-05-29T10:10:33.645Z</time>
      </trkpt>
      <trkpt lat="46.61309" lon="5.51893">
        <ele>498</ele>
        <time>2021-05-29T10:10:34.645Z</time>
      </trkpt>
      <trkpt lat="46.61312" lon="5.51893">
        <ele>498</ele>
        <time>2021-05-29T10:10:35.645Z</time>
      </trkpt>
      <trkpt lat="46.61315" lon="5.51893">
        <ele>498</ele>
        <time>2021-05-29T10:10:36.644Z</time>
      </trkpt>
      <trkpt lat="46.61318" lon="5.51892">
        <ele>497</ele>
        <time>2021-05-29T10:10:37.645Z</time>
      </trkpt>
      <trkpt lat="46.6132" lon="5.51892">
        <ele>497</ele>
        <time>2021-05-29T10:10:38.645Z</time>
      </trkpt>
      <trkpt lat="46.61323" lon="5.51892">
        <ele>497</ele>
        <time>2021-05-29T10:10:39.645Z</time>
      </trkpt>
      <trkpt lat="46.61326" lon="5.51892">
        <ele>497</ele>
        <time>2021-05-29T10:10:40.645Z</time>
      </trkpt>
      <trkpt lat="46.61328" lon="5.51892">
        <ele>497</ele>
        <time>2021-05-29T10:10:41.645Z</time>
      </trkpt>
      <trkpt lat="46.61331" lon="5.51891">
        <ele>497</ele>
        <time>2021-05-29T10:10:42.645Z</time>
      </trkpt>
      <trkpt lat="46.61334" lon="5.51891">
        <ele>497</ele>
        <time>2021-05-29T10:10:43.645Z</time>
      </trkpt>
      <trkpt lat="46.61336" lon="5.5189">
        <ele>497</ele>
        <time>2021-05-29T10:10:44.645Z</time>
      </trkpt>
      <trkpt lat="46.61339" lon="5.5189">
        <ele>497</ele>
        <time>2021-05-29T10:10:45.645Z</time>
      </trkpt>
      <trkpt lat="46.61341" lon="5.5189">
        <ele>496</ele>
        <time>2021-05-29T10:10:46.645Z</time>
      </trkpt>
      <trkpt lat="46.61344" lon="5.51889">
        <ele>496</ele>
        <time>2021-05-29T10:10:47.645Z</time>
      </trkpt>
      <trkpt lat="46.61347" lon="5.51888">
        <ele>496</ele>
        <time>2021-05-29T10:10:48.645Z</time>
      </trkpt>
      <trkpt lat="46.61349" lon="5.51888">
        <ele>496</ele>
        <time>2021-05-29T10:10:49.645Z</time>
      </trkpt>
      <trkpt lat="46.61352" lon="5.51887">
        <ele>496</ele>
        <time>2021-05-29T10:10:50.645Z</time>
      </trkpt>
      <trkpt lat="46.61355" lon="5.51887">
        <ele>496</ele>
        <time>2021-05-29T10:10:51.644Z</time>
      </trkpt>
      <trkpt lat="46.61357" lon="5.51887">
        <ele>496</ele>
        <time>2021-05-29T10:10:52.645Z</time>
      </trkpt>
      <trkpt lat="46.6136" lon="5.51887">
        <ele>496</ele>
        <time>2021-05-29T10:10:53.645Z</time>
      </trkpt>
      <trkpt lat="46.61362" lon="5.51887">
        <ele>496</ele>
        <time>2021-05-29T10:10:54.644Z</time>
      </trkpt>
      <trkpt lat="46.61365" lon="5.51887">
        <ele>496</ele>
        <time>2021-05-29T10:10:55.645Z</time>
      </trkpt>
      <trkpt lat="46.61368" lon="5.51887">
        <ele>496</ele>
        <time>2021-05-29T10:10:56.644Z</time>
      </trkpt>
      <trkpt lat="46.6137" lon="5.51888">
        <ele>496</ele>
        <time>2021-05-29T10:10:57.645Z</time>
      </trkpt>
      <trkpt lat="46.61373" lon="5.51888">
        <ele>496</ele>
        <time>2021-05-29T10:10:58.645Z</time>
      </trkpt>
      <trkpt lat="46.61376" lon="5.51888">
        <ele>495</ele>
        <time>2021-05-29T10:10:59.645Z</time>
      </trkpt>
      <trkpt lat="46.61379" lon="5.51888">
        <ele>495</ele>
        <time>2021-05-29T10:11:00.645Z</time>
      </trkpt>
      <trkpt lat="46.61381" lon="5.51887">
        <ele>495</ele>
        <time>2021-05-29T10:11:01.644Z</time>
      </trkpt>
      <trkpt lat="46.61384" lon="5.51887">
        <ele>495</ele>
        <time>2021-05-29T10:11:02.645Z</time>
      </trkpt>
      <trkpt lat="46.61386" lon="5.51887">
        <ele>495</ele>
        <time>2021-05-29T10:11:03.645Z</time>
      </trkpt>
      <trkpt lat="46.61388" lon="5.51887">
        <ele>495</ele>
        <time>2021-05-29T10:11:04.645Z</time>
      </trkpt>
      <trkpt lat="46.61391" lon="5.51887">
        <ele>495</ele>
        <time>2021-05-29T10:11:05.645Z</time>
      </trkpt>
      <trkpt lat="46.61393" lon="5.51887">
        <ele>495</ele>
        <time>2021-05-29T10:11:06.644Z</time>
      </trkpt>
      <trkpt lat="46.61395" lon="5.51887">
        <ele>494</ele>
        <time>2021-05-29T10:11:07.644Z</time>
      </trkpt>
      <trkpt lat="46.61398" lon="5.51888">
        <ele>494</ele>
        <time>2021-05-29T10:11:08.645Z</time>
      </trkpt>
      <trkpt lat="46.614" lon="5.51889">
        <ele>494</ele>
        <time>2021-05-29T10:11:09.645Z</time>
      </trkpt>
      <trkpt lat="46.61403" lon="5.5189">
        <ele>493</ele>
        <time>2021-05-29T10:11:10.644Z</time>
      </trkpt>
      <trkpt lat="46.61406" lon="5.51891">
        <ele>493</ele>
        <time>2021-05-29T10:11:11.644Z</time>
      </trkpt>
      <trkpt lat="46.61408" lon="5.51892">
        <ele>493</ele>
        <time>2021-05-29T10:11:12.645Z</time>
      </trkpt>
      <trkpt lat="46.6141" lon="5.51894">
        <ele>493</ele>
        <time>2021-05-29T10:11:13.645Z</time>
      </trkpt>
      <trkpt lat="46.61413" lon="5.51896">
        <ele>493</ele>
        <time>2021-05-29T10:11:14.645Z</time>
      </trkpt>
      <trkpt lat="46.61415" lon="5.51897">
        <ele>492</ele>
        <time>2021-05-29T10:11:15.645Z</time>
      </trkpt>
      <trkpt lat="46.61417" lon="5.51899">
        <ele>492</ele>
        <time>2021-05-29T10:11:16.645Z</time>
      </trkpt>
      <trkpt lat="46.6142" lon="5.51901">
        <ele>492</ele>
        <time>2021-05-29T10:11:17.645Z</time>
      </trkpt>
      <trkpt lat="46.61422" lon="5.51902">
        <ele>492</ele>
        <time>2021-05-29T10:11:18.645Z</time>
      </trkpt>
      <trkpt lat="46.61424" lon="5.51903">
        <ele>492</ele>
        <time>2021-05-29T10:11:19.644Z</time>
      </trkpt>
      <trkpt lat="46.61426" lon="5.51905">
        <ele>492</ele>
        <time>2021-05-29T10:11:20.645Z</time>
      </trkpt>
      <trkpt lat="46.61428" lon="5.51907">
        <ele>492</ele>
        <time>2021-05-29T10:11:21.645Z</time>
      </trkpt>
      <trkpt lat="46.6143" lon="5.51908">
        <ele>492</ele>
        <time>2021-05-29T10:11:22.645Z</time>
      </trkpt>
      <trkpt lat="46.61432" lon="5.5191">
        <ele>491</ele>
        <time>2021-05-29T10:11:23.645Z</time>
      </trkpt>
      <trkpt lat="46.61434" lon="5.51911">
        <ele>491</ele>
        <time>2021-05-29T10:11:24.645Z</time>
      </trkpt>
      <trkpt lat="46.61437" lon="5.51912">
        <ele>490</ele>
        <time>2021-05-29T10:11:25.645Z</time>
      </trkpt>
      <trkpt lat="46.61439" lon="5.51914">
        <ele>490</ele>
        <time>2021-05-29T10:11:26.645Z</time>
      </trkpt>
      <trkpt lat="46.61441" lon="5.51916">
        <ele>490</ele>
        <time>2021-05-29T10:11:27.645Z</time>
      </trkpt>
      <trkpt lat="46.61443" lon="5.51917">
        <ele>490</ele>
        <time>2021-05-29T10:11:28.645Z</time>
      </trkpt>
      <trkpt lat="46.61445" lon="5.51917">
        <ele>490</ele>
        <time>2021-05-29T10:11:29.644Z</time>
      </trkpt>
      <trkpt lat="46.61448" lon="5.51919">
        <ele>490</ele>
        <time>2021-05-29T10:11:30.644Z</time>
      </trkpt>
      <trkpt lat="46.61451" lon="5.5192">
        <ele>490</ele>
        <time>2021-05-29T10:11:31.645Z</time>
      </trkpt>
      <trkpt lat="46.61453" lon="5.51922">
        <ele>491</ele>
        <time>2021-05-29T10:11:32.645Z</time>
      </trkpt>
      <trkpt lat="46.61456" lon="5.51923">
        <ele>491</ele>
        <time>2021-05-29T10:11:33.645Z</time>
      </trkpt>
      <trkpt lat="46.61458" lon="5.51924">
        <ele>491</ele>
        <time>2021-05-29T10:11:34.645Z</time>
      </trkpt>
      <trkpt lat="46.6146" lon="5.51925">
        <ele>490</ele>
        <time>2021-05-29T10:11:35.645Z</time>
      </trkpt>
      <trkpt lat="46.61463" lon="5.51926">
        <ele>490</ele>
        <time>2021-05-29T10:11:36.645Z</time>
      </trkpt>
      <trkpt lat="46.61465" lon="5.51927">
        <ele>490</ele>
        <time>2021-05-29T10:11:37.645Z</time>
      </trkpt>
      <trkpt lat="46.61468" lon="5.51927">
        <ele>490</ele>
        <time>2021-05-29T10:11:38.645Z</time>
      </trkpt>
      <trkpt lat="46.6147" lon="5.51928">
        <ele>490</ele>
        <time>2021-05-29T10:11:39.644Z</time>
      </trkpt>
      <trkpt lat="46.61472" lon="5.51929">
        <ele>490</ele>
        <time>2021-05-29T10:11:40.645Z</time>
      </trkpt>
      <trkpt lat="46.61474" lon="5.51929">
        <ele>489</ele>
        <time>2021-05-29T10:11:41.645Z</time>
      </trkpt>
      <trkpt lat="46.61476" lon="5.5193">
        <ele>489</ele>
        <time>2021-05-29T10:11:42.645Z</time>
      </trkpt>
      <trkpt lat="46.61479" lon="5.5193">
        <ele>489</ele>
        <time>2021-05-29T10:11:43.645Z</time>
      </trkpt>
      <trkpt lat="46.61482" lon="5.51931">
        <ele>489</ele>
        <time>2021-05-29T10:11:44.645Z</time>
      </trkpt>
      <trkpt lat="46.61485" lon="5.51931">
        <ele>488</ele>
        <time>2021-05-29T10:11:45.645Z</time>
      </trkpt>
      <trkpt lat="46.61488" lon="5.51932">
        <ele>488</ele>
        <time>2021-05-29T10:11:46.645Z</time>
      </trkpt>
      <trkpt lat="46.6149" lon="5.51932">
        <ele>488</ele>
        <time>2021-05-29T10:11:47.644Z</time>
      </trkpt>
      <trkpt lat="46.61493" lon="5.51933">
        <ele>488</ele>
        <time>2021-05-29T10:11:48.644Z</time>
      </trkpt>
      <trkpt lat="46.61496" lon="5.51933">
        <ele>487</ele>
        <time>2021-05-29T10:11:49.645Z</time>
      </trkpt>
      <trkpt lat="46.61499" lon="5.51933">
        <ele>487</ele>
        <time>2021-05-29T10:11:50.645Z</time>
      </trkpt>
      <trkpt lat="46.61501" lon="5.51933">
        <ele>487</ele>
        <time>2021-05-29T10:11:51.644Z</time>
      </trkpt>
      <trkpt lat="46.61503" lon="5.51933">
        <ele>486</ele>
        <time>2021-05-29T10:11:52.645Z</time>
      </trkpt>
      <trkpt lat="46.61505" lon="5.51932">
        <ele>486</ele>
        <time>2021-05-29T10:11:53.645Z</time>
      </trkpt>
      <trkpt lat="46.61507" lon="5.51932">
        <ele>486</ele>
        <time>2021-05-29T10:11:54.645Z</time>
      </trkpt>
      <trkpt lat="46.61509" lon="5.51931">
        <ele>486</ele>
        <time>2021-05-29T10:11:55.645Z</time>
      </trkpt>
      <trkpt lat="46.61512" lon="5.51931">
        <ele>486</ele>
        <time>2021-05-29T10:11:56.645Z</time>
      </trkpt>
      <trkpt lat="46.61514" lon="5.5193">
        <ele>486</ele>
        <time>2021-05-29T10:11:57.644Z</time>
      </trkpt>
      <trkpt lat="46.61517" lon="5.5193">
        <ele>486</ele>
        <time>2021-05-29T10:11:58.645Z</time>
      </trkpt>
      <trkpt lat="46.6152" lon="5.5193">
        <ele>486</ele>
        <time>2021-05-29T10:11:59.645Z</time>
      </trkpt>
      <trkpt lat="46.61522" lon="5.5193">
        <ele>486</ele>
        <time>2021-05-29T10:12:00.645Z</time>
      </trkpt>
      <trkpt lat="46.61525" lon="5.5193">
        <ele>486</ele>
        <time>2021-05-29T10:12:01.645Z</time>
      </trkpt>
      <trkpt lat="46.61528" lon="5.5193">
        <ele>485</ele>
        <time>2021-05-29T10:12:02.645Z</time>
      </trkpt>
      <trkpt lat="46.6153" lon="5.5193">
        <ele>485</ele>
        <time>2021-05-29T10:12:03.645Z</time>
      </trkpt>
      <trkpt lat="46.61533" lon="5.51929">
        <ele>485</ele>
        <time>2021-05-29T10:12:04.645Z</time>
      </trkpt>
      <trkpt lat="46.61535" lon="5.51929">
        <ele>484</ele>
        <time>2021-05-29T10:12:05.644Z</time>
      </trkpt>
      <trkpt lat="46.61539" lon="5.51929">
        <ele>484</ele>
        <time>2021-05-29T10:12:06.644Z</time>
      </trkpt>
      <trkpt lat="46.61541" lon="5.51928">
        <ele>484</ele>
        <time>2021-05-29T10:12:07.645Z</time>
      </trkpt>
      <trkpt lat="46.61544" lon="5.51927">
        <ele>483</ele>
        <time>2021-05-29T10:12:08.645Z</time>
      </trkpt>
      <trkpt lat="46.61547" lon="5.51926">
        <ele>483</ele>
        <time>2021-05-29T10:12:09.645Z</time>
      </trkpt>
      <trkpt lat="46.61549" lon="5.51926">
        <ele>483</ele>
        <time>2021-05-29T10:12:10.645Z</time>
      </trkpt>
      <trkpt lat="46.61552" lon="5.51925">
        <ele>483</ele>
        <time>2021-05-29T10:12:11.645Z</time>
      </trkpt>
      <trkpt lat="46.61555" lon="5.51925">
        <ele>482</ele>
        <time>2021-05-29T10:12:12.644Z</time>
      </trkpt>
      <trkpt lat="46.61557" lon="5.51924">
        <ele>482</ele>
        <time>2021-05-29T10:12:13.645Z</time>
      </trkpt>
      <trkpt lat="46.61559" lon="5.51924">
        <ele>481</ele>
        <time>2021-05-29T10:12:14.645Z</time>
      </trkpt>
      <trkpt lat="46.61561" lon="5.51923">
        <ele>481</ele>
        <time>2021-05-29T10:12:15.645Z</time>
      </trkpt>
      <trkpt lat="46.61564" lon="5.51922">
        <ele>481</ele>
        <time>2021-05-29T10:12:16.645Z</time>
      </trkpt>
      <trkpt lat="46.61565" lon="5.51922">
        <ele>481</ele>
        <time>2021-05-29T10:12:17.645Z</time>
      </trkpt>
      <trkpt lat="46.61567" lon="5.51921">
        <ele>481</ele>
        <time>2021-05-29T10:12:18.645Z</time>
      </trkpt>
      <trkpt lat="46.61569" lon="5.5192">
        <ele>481</ele>
        <time>2021-05-29T10:12:19.645Z</time>
      </trkpt>
      <trkpt lat="46.61571" lon="5.51919">
        <ele>481</ele>
        <time>2021-05-29T10:12:20.645Z</time>
      </trkpt>
      <trkpt lat="46.61573" lon="5.51919">
        <ele>481</ele>
        <time>2021-05-29T10:12:21.645Z</time>
      </trkpt>
      <trkpt lat="46.61575" lon="5.51918">
        <ele>480</ele>
        <time>2021-05-29T10:12:22.645Z</time>
      </trkpt>
      <trkpt lat="46.61577" lon="5.51917">
        <ele>479</ele>
        <time>2021-05-29T10:12:23.645Z</time>
      </trkpt>
      <trkpt lat="46.6158" lon="5.51917">
        <ele>479</ele>
        <time>2021-05-29T10:12:24.645Z</time>
      </trkpt>
      <trkpt lat="46.61582" lon="5.51916">
        <ele>479</ele>
        <time>2021-05-29T10:12:25.644Z</time>
      </trkpt>
      <trkpt lat="46.61584" lon="5.51915">
        <ele>478</ele>
        <time>2021-05-29T10:12:26.645Z</time>
      </trkpt>
      <trkpt lat="46.61587" lon="5.51915">
        <ele>478</ele>
        <time>2021-05-29T10:12:27.645Z</time>
      </trkpt>
      <trkpt lat="46.61589" lon="5.51915">
        <ele>479</ele>
        <time>2021-05-29T10:12:28.644Z</time>
      </trkpt>
      <trkpt lat="46.61591" lon="5.51914">
        <ele>479</ele>
        <time>2021-05-29T10:12:29.645Z</time>
      </trkpt>
      <trkpt lat="46.61594" lon="5.51913">
        <ele>479</ele>
        <time>2021-05-29T10:12:30.644Z</time>
      </trkpt>
      <trkpt lat="46.61596" lon="5.51912">
        <ele>479</ele>
        <time>2021-05-29T10:12:31.644Z</time>
      </trkpt>
      <trkpt lat="46.61598" lon="5.51911">
        <ele>479</ele>
        <time>2021-05-29T10:12:32.644Z</time>
      </trkpt>
      <trkpt lat="46.616" lon="5.5191">
        <ele>479</ele>
        <time>2021-05-29T10:12:33.645Z</time>
      </trkpt>
      <trkpt lat="46.61603" lon="5.51909">
        <ele>479</ele>
        <time>2021-05-29T10:12:34.644Z</time>
      </trkpt>
      <trkpt lat="46.61605" lon="5.51908">
        <ele>479</ele>
        <time>2021-05-29T10:12:35.645Z</time>
      </trkpt>
      <trkpt lat="46.61608" lon="5.51907">
        <ele>479</ele>
        <time>2021-05-29T10:12:36.645Z</time>
      </trkpt>
      <trkpt lat="46.6161" lon="5.51906">
        <ele>479</ele>
        <time>2021-05-29T10:12:37.644Z</time>
      </trkpt>
      <trkpt lat="46.61612" lon="5.51905">
        <ele>480</ele>
        <time>2021-05-29T10:12:38.645Z</time>
      </trkpt>
      <trkpt lat="46.61615" lon="5.51904">
        <ele>480</ele>
        <time>2021-05-29T10:12:39.644Z</time>
      </trkpt>
      <trkpt lat="46.61617" lon="5.51902">
        <ele>480</ele>
        <time>2021-05-29T10:12:40.644Z</time>
      </trkpt>
      <trkpt lat="46.61619" lon="5.51901">
        <ele>480</ele>
        <time>2021-05-29T10:12:41.645Z</time>
      </trkpt>
      <trkpt lat="46.61621" lon="5.519">
        <ele>480</ele>
        <time>2021-05-29T10:12:42.645Z</time>
      </trkpt>
      <trkpt lat="46.61624" lon="5.51899">
        <ele>480</ele>
        <time>2021-05-29T10:12:43.644Z</time>
      </trkpt>
      <trkpt lat="46.61625" lon="5.51897">
        <ele>480</ele>
        <time>2021-05-29T10:12:44.645Z</time>
      </trkpt>
      <trkpt lat="46.61628" lon="5.51896">
        <ele>480</ele>
        <time>2021-05-29T10:12:45.645Z</time>
      </trkpt>
      <trkpt lat="46.6163" lon="5.51895">
        <ele>480</ele>
        <time>2021-05-29T10:12:46.644Z</time>
      </trkpt>
      <trkpt lat="46.61632" lon="5.51893">
        <ele>480</ele>
        <time>2021-05-29T10:12:47.645Z</time>
      </trkpt>
      <trkpt lat="46.61634" lon="5.51892">
        <ele>480</ele>
        <time>2021-05-29T10:12:48.645Z</time>
      </trkpt>
      <trkpt lat="46.61636" lon="5.5189">
        <ele>481</ele>
        <time>2021-05-29T10:12:49.644Z</time>
      </trkpt>
      <trkpt lat="46.61639" lon="5.51888">
        <ele>481</ele>
        <time>2021-05-29T10:12:50.645Z</time>
      </trkpt>
      <trkpt lat="46.61641" lon="5.51887">
        <ele>481</ele>
        <time>2021-05-29T10:12:51.644Z</time>
      </trkpt>
      <trkpt lat="46.61643" lon="5.51885">
        <ele>481</ele>
        <time>2021-05-29T10:12:52.645Z</time>
      </trkpt>
      <trkpt lat="46.61645" lon="5.51883">
        <ele>481</ele>
        <time>2021-05-29T10:12:53.645Z</time>
      </trkpt>
      <trkpt lat="46.61647" lon="5.51882">
        <ele>481</ele>
        <time>2021-05-29T10:12:54.645Z</time>
      </trkpt>
      <trkpt lat="46.61649" lon="5.5188">
        <ele>481</ele>
        <time>2021-05-29T10:12:55.645Z</time>
      </trkpt>
      <trkpt lat="46.61651" lon="5.51879">
        <ele>481</ele>
        <time>2021-05-29T10:12:56.645Z</time>
      </trkpt>
      <trkpt lat="46.61653" lon="5.51877">
        <ele>480</ele>
        <time>2021-05-29T10:12:57.645Z</time>
      </trkpt>
      <trkpt lat="46.61655" lon="5.51876">
        <ele>480</ele>
        <time>2021-05-29T10:12:58.645Z</time>
      </trkpt>
      <trkpt lat="46.61658" lon="5.51875">
        <ele>480</ele>
        <time>2021-05-29T10:12:59.644Z</time>
      </trkpt>
      <trkpt lat="46.6166" lon="5.51873">
        <ele>480</ele>
        <time>2021-05-29T10:13:00.645Z</time>
      </trkpt>
      <trkpt lat="46.61663" lon="5.51873">
        <ele>479</ele>
        <time>2021-05-29T10:13:01.645Z</time>
      </trkpt>
      <trkpt lat="46.61667" lon="5.51872">
        <ele>479</ele>
        <time>2021-05-29T10:13:02.644Z</time>
      </trkpt>
      <trkpt lat="46.6167" lon="5.51871">
        <ele>479</ele>
        <time>2021-05-29T10:13:03.645Z</time>
      </trkpt>
      <trkpt lat="46.61673" lon="5.51872">
        <ele>479</ele>
        <time>2021-05-29T10:13:04.645Z</time>
      </trkpt>
      <trkpt lat="46.61675" lon="5.51872">
        <ele>479</ele>
        <time>2021-05-29T10:13:05.645Z</time>
      </trkpt>
      <trkpt lat="46.61677" lon="5.51873">
        <ele>479</ele>
        <time>2021-05-29T10:13:06.644Z</time>
      </trkpt>
      <trkpt lat="46.6168" lon="5.51873">
        <ele>478</ele>
        <time>2021-05-29T10:13:07.644Z</time>
      </trkpt>
      <trkpt lat="46.61682" lon="5.51874">
        <ele>478</ele>
        <time>2021-05-29T10:13:08.644Z</time>
      </trkpt>
      <trkpt lat="46.61684" lon="5.51874">
        <ele>478</ele>
        <time>2021-05-29T10:13:09.644Z</time>
      </trkpt>
      <trkpt lat="46.61686" lon="5.51875">
        <ele>477</ele>
        <time>2021-05-29T10:13:10.645Z</time>
      </trkpt>
      <trkpt lat="46.61689" lon="5.51876">
        <ele>477</ele>
        <time>2021-05-29T10:13:11.644Z</time>
      </trkpt>
      <trkpt lat="46.61691" lon="5.51876">
        <ele>477</ele>
        <time>2021-05-29T10:13:12.645Z</time>
      </trkpt>
      <trkpt lat="46.61693" lon="5.51877">
        <ele>477</ele>
        <time>2021-05-29T10:13:13.645Z</time>
      </trkpt>
      <trkpt lat="46.61696" lon="5.51878">
        <ele>476</ele>
        <time>2021-05-29T10:13:14.644Z</time>
      </trkpt>
      <trkpt lat="46.61699" lon="5.51878">
        <ele>476</ele>
        <time>2021-05-29T10:13:15.645Z</time>
      </trkpt>
      <trkpt lat="46.61701" lon="5.51879">
        <ele>476</ele>
        <time>2021-05-29T10:13:16.645Z</time>
      </trkpt>
      <trkpt lat="46.61703" lon="5.51879">
        <ele>476</ele>
        <time>2021-05-29T10:13:17.645Z</time>
      </trkpt>
      <trkpt lat="46.61706" lon="5.5188">
        <ele>476</ele>
        <time>2021-05-29T10:13:18.644Z</time>
      </trkpt>
      <trkpt lat="46.61708" lon="5.5188">
        <ele>476</ele>
        <time>2021-05-29T10:13:19.645Z</time>
      </trkpt>
      <trkpt lat="46.61711" lon="5.5188">
        <ele>476</ele>
        <time>2021-05-29T10:13:20.645Z</time>
      </trkpt>
      <trkpt lat="46.61713" lon="5.5188">
        <ele>476</ele>
        <time>2021-05-29T10:13:21.645Z</time>
      </trkpt>
      <trkpt lat="46.61716" lon="5.5188">
        <ele>476</ele>
        <time>2021-05-29T10:13:22.644Z</time>
      </trkpt>
      <trkpt lat="46.61718" lon="5.5188">
        <ele>476</ele>
        <time>2021-05-29T10:13:23.645Z</time>
      </trkpt>
      <trkpt lat="46.61721" lon="5.51879">
        <ele>476</ele>
        <time>2021-05-29T10:13:24.645Z</time>
      </trkpt>
      <trkpt lat="46.61723" lon="5.51879">
        <ele>475</ele>
        <time>2021-05-29T10:13:25.645Z</time>
      </trkpt>
      <trkpt lat="46.61726" lon="5.51878">
        <ele>475</ele>
        <time>2021-05-29T10:13:26.645Z</time>
      </trkpt>
      <trkpt lat="46.61728" lon="5.51876">
        <ele>475</ele>
        <time>2021-05-29T10:13:27.645Z</time>
      </trkpt>
      <trkpt lat="46.61731" lon="5.51875">
        <ele>475</ele>
        <time>2021-05-29T10:13:28.644Z</time>
      </trkpt>
      <trkpt lat="46.61733" lon="5.51873">
        <ele>475</ele>
        <time>2021-05-29T10:13:29.645Z</time>
      </trkpt>
      <trkpt lat="46.61736" lon="5.51872">
        <ele>475</ele>
        <time>2021-05-29T10:13:30.645Z</time>
      </trkpt>
      <trkpt lat="46.6174" lon="5.51872">
        <ele>475</ele>
        <time>2021-05-29T10:13:31.645Z</time>
      </trkpt>
      <trkpt lat="46.61743" lon="5.51872">
        <ele>475</ele>
        <time>2021-05-29T10:13:32.645Z</time>
      </trkpt>
      <trkpt lat="46.61745" lon="5.51872">
        <ele>475</ele>
        <time>2021-05-29T10:13:33.645Z</time>
      </trkpt>
      <trkpt lat="46.61748" lon="5.51872">
        <ele>474</ele>
        <time>2021-05-29T10:13:34.645Z</time>
      </trkpt>
      <trkpt lat="46.6175" lon="5.51872">
        <ele>474</ele>
        <time>2021-05-29T10:13:35.645Z</time>
      </trkpt>
      <trkpt lat="46.61753" lon="5.51872">
        <ele>474</ele>
        <time>2021-05-29T10:13:36.645Z</time>
      </trkpt>
      <trkpt lat="46.61754" lon="5.51872">
        <ele>473</ele>
        <time>2021-05-29T10:13:37.644Z</time>
      </trkpt>
      <trkpt lat="46.61757" lon="5.51872">
        <ele>473</ele>
        <time>2021-05-29T10:13:38.645Z</time>
      </trkpt>
      <trkpt lat="46.61759" lon="5.51872">
        <ele>473</ele>
        <time>2021-05-29T10:13:39.644Z</time>
      </trkpt>
      <trkpt lat="46.61761" lon="5.51872">
        <ele>473</ele>
        <time>2021-05-29T10:13:40.645Z</time>
      </trkpt>
      <trkpt lat="46.61763" lon="5.51872">
        <ele>473</ele>
        <time>2021-05-29T10:13:41.644Z</time>
      </trkpt>
      <trkpt lat="46.61765" lon="5.51873">
        <ele>473</ele>
        <time>2021-05-29T10:13:42.645Z</time>
      </trkpt>
      <trkpt lat="46.61768" lon="5.51873">
        <ele>472</ele>
        <time>2021-05-29T10:13:43.645Z</time>
      </trkpt>
      <trkpt lat="46.6177" lon="5.51873">
        <ele>472</ele>
        <time>2021-05-29T10:13:44.645Z</time>
      </trkpt>
      <trkpt lat="46.61772" lon="5.51873">
        <ele>473</ele>
        <time>2021-05-29T10:13:45.644Z</time>
      </trkpt>
      <trkpt lat="46.61775" lon="5.51873">
        <ele>473</ele>
        <time>2021-05-29T10:13:46.645Z</time>
      </trkpt>
      <trkpt lat="46.61777" lon="5.51873">
        <ele>473</ele>
        <time>2021-05-29T10:13:47.645Z</time>
      </trkpt>
      <trkpt lat="46.6178" lon="5.51873">
        <ele>473</ele>
        <time>2021-05-29T10:13:48.645Z</time>
      </trkpt>
      <trkpt lat="46.61782" lon="5.51873">
        <ele>473</ele>
        <time>2021-05-29T10:13:49.645Z</time>
      </trkpt>
      <trkpt lat="46.61785" lon="5.51873">
        <ele>473</ele>
        <time>2021-05-29T10:13:50.644Z</time>
      </trkpt>
      <trkpt lat="46.61787" lon="5.51873">
        <ele>473</ele>
        <time>2021-05-29T10:13:51.645Z</time>
      </trkpt>
      <trkpt lat="46.6179" lon="5.51872">
        <ele>473</ele>
        <time>2021-05-29T10:13:52.645Z</time>
      </trkpt>
      <trkpt lat="46.61792" lon="5.51872">
        <ele>472</ele>
        <time>2021-05-29T10:13:53.644Z</time>
      </trkpt>
      <trkpt lat="46.61795" lon="5.51872">
        <ele>472</ele>
        <time>2021-05-29T10:13:54.645Z</time>
      </trkpt>
      <trkpt lat="46.61797" lon="5.51872">
        <ele>472</ele>
        <time>2021-05-29T10:13:55.645Z</time>
      </trkpt>
      <trkpt lat="46.618" lon="5.51871">
        <ele>472</ele>
        <time>2021-05-29T10:13:56.644Z</time>
      </trkpt>
      <trkpt lat="46.61803" lon="5.51871">
        <ele>472</ele>
        <time>2021-05-29T10:13:57.644Z</time>
      </trkpt>
      <trkpt lat="46.61806" lon="5.51871">
        <ele>471</ele>
        <time>2021-05-29T10:13:58.645Z</time>
      </trkpt>
      <trkpt lat="46.61808" lon="5.51871">
        <ele>471</ele>
        <time>2021-05-29T10:13:59.645Z</time>
      </trkpt>
      <trkpt lat="46.61811" lon="5.51871">
        <ele>471</ele>
        <time>2021-05-29T10:14:00.645Z</time>
      </trkpt>
      <trkpt lat="46.61814" lon="5.51871">
        <ele>471</ele>
        <time>2021-05-29T10:14:01.645Z</time>
      </trkpt>
      <trkpt lat="46.61817" lon="5.51871">
        <ele>471</ele>
        <time>2021-05-29T10:14:02.645Z</time>
      </trkpt>
      <trkpt lat="46.61819" lon="5.51871">
        <ele>471</ele>
        <time>2021-05-29T10:14:03.644Z</time>
      </trkpt>
      <trkpt lat="46.61821" lon="5.51871">
        <ele>471</ele>
        <time>2021-05-29T10:14:04.645Z</time>
      </trkpt>
      <trkpt lat="46.61824" lon="5.51871">
        <ele>470</ele>
        <time>2021-05-29T10:14:05.644Z</time>
      </trkpt>
      <trkpt lat="46.61827" lon="5.51871">
        <ele>470</ele>
        <time>2021-05-29T10:14:06.645Z</time>
      </trkpt>
      <trkpt lat="46.61829" lon="5.51871">
        <ele>470</ele>
        <time>2021-05-29T10:14:07.645Z</time>
      </trkpt>
      <trkpt lat="46.61832" lon="5.5187">
        <ele>470</ele>
        <time>2021-05-29T10:14:08.645Z</time>
      </trkpt>
      <trkpt lat="46.61834" lon="5.5187">
        <ele>470</ele>
        <time>2021-05-29T10:14:09.644Z</time>
      </trkpt>
      <trkpt lat="46.61836" lon="5.51869">
        <ele>470</ele>
        <time>2021-05-29T10:14:10.644Z</time>
      </trkpt>
      <trkpt lat="46.61838" lon="5.51868">
        <ele>469</ele>
        <time>2021-05-29T10:14:11.645Z</time>
      </trkpt>
      <trkpt lat="46.61841" lon="5.51867">
        <ele>469</ele>
        <time>2021-05-29T10:14:12.644Z</time>
      </trkpt>
      <trkpt lat="46.61844" lon="5.51867">
        <ele>469</ele>
        <time>2021-05-29T10:14:13.645Z</time>
      </trkpt>
      <trkpt lat="46.61847" lon="5.51866">
        <ele>469</ele>
        <time>2021-05-29T10:14:14.645Z</time>
      </trkpt>
      <trkpt lat="46.6185" lon="5.51866">
        <ele>469</ele>
        <time>2021-05-29T10:14:15.645Z</time>
      </trkpt>
      <trkpt lat="46.61852" lon="5.51865">
        <ele>469</ele>
        <time>2021-05-29T10:14:16.645Z</time>
      </trkpt>
      <trkpt lat="46.61855" lon="5.51865">
        <ele>469</ele>
        <time>2021-05-29T10:14:17.645Z</time>
      </trkpt>
      <trkpt lat="46.61857" lon="5.51865">
        <ele>470</ele>
        <time>2021-05-29T10:14:18.644Z</time>
      </trkpt>
      <trkpt lat="46.6186" lon="5.51864">
        <ele>469</ele>
        <time>2021-05-29T10:14:19.645Z</time>
      </trkpt>
      <trkpt lat="46.61862" lon="5.51864">
        <ele>469</ele>
        <time>2021-05-29T10:14:20.645Z</time>
      </trkpt>
      <trkpt lat="46.61865" lon="5.51864">
        <ele>469</ele>
        <time>2021-05-29T10:14:21.644Z</time>
      </trkpt>
      <trkpt lat="46.61867" lon="5.51864">
        <ele>469</ele>
        <time>2021-05-29T10:14:22.645Z</time>
      </trkpt>
      <trkpt lat="46.61869" lon="5.51864">
        <ele>469</ele>
        <time>2021-05-29T10:14:23.645Z</time>
      </trkpt>
      <trkpt lat="46.61872" lon="5.51864">
        <ele>469</ele>
        <time>2021-05-29T10:14:24.645Z</time>
      </trkpt>
      <trkpt lat="46.61875" lon="5.51864">
        <ele>469</ele>
        <time>2021-05-29T10:14:25.644Z</time>
      </trkpt>
      <trkpt lat="46.61878" lon="5.51864">
        <ele>469</ele>
        <time>2021-05-29T10:14:26.645Z</time>
      </trkpt>
      <trkpt lat="46.61881" lon="5.51864">
        <ele>469</ele>
        <time>2021-05-29T10:14:27.644Z</time>
      </trkpt>
      <trkpt lat="46.61883" lon="5.51864">
        <ele>470</ele>
        <time>2021-05-29T10:14:28.645Z</time>
      </trkpt>
      <trkpt lat="46.61886" lon="5.51865">
        <ele>470</ele>
        <time>2021-05-29T10:14:29.645Z</time>
      </trkpt>
      <trkpt lat="46.61888" lon="5.51865">
        <ele>470</ele>
        <time>2021-05-29T10:14:30.645Z</time>
      </trkpt>
      <trkpt lat="46.6189" lon="5.51865">
        <ele>471</ele>
        <time>2021-05-29T10:14:31.645Z</time>
      </trkpt>
      <trkpt lat="46.61893" lon="5.51866">
        <ele>471</ele>
        <time>2021-05-29T10:14:32.645Z</time>
      </trkpt>
      <trkpt lat="46.61896" lon="5.51866">
        <ele>471</ele>
        <time>2021-05-29T10:14:33.645Z</time>
      </trkpt>
      <trkpt lat="46.61898" lon="5.51867">
        <ele>471</ele>
        <time>2021-05-29T10:14:34.645Z</time>
      </trkpt>
      <trkpt lat="46.61901" lon="5.51868">
        <ele>470</ele>
        <time>2021-05-29T10:14:35.645Z</time>
      </trkpt>
      <trkpt lat="46.61903" lon="5.51868">
        <ele>470</ele>
        <time>2021-05-29T10:14:36.645Z</time>
      </trkpt>
      <trkpt lat="46.61906" lon="5.51869">
        <ele>470</ele>
        <time>2021-05-29T10:14:37.645Z</time>
      </trkpt>
      <trkpt lat="46.61909" lon="5.51869">
        <ele>470</ele>
        <time>2021-05-29T10:14:38.645Z</time>
      </trkpt>
      <trkpt lat="46.61911" lon="5.5187">
        <ele>470</ele>
        <time>2021-05-29T10:14:39.645Z</time>
      </trkpt>
      <trkpt lat="46.61914" lon="5.5187">
        <ele>470</ele>
        <time>2021-05-29T10:14:40.644Z</time>
      </trkpt>
      <trkpt lat="46.61916" lon="5.5187">
        <ele>470</ele>
        <time>2021-05-29T10:14:41.645Z</time>
      </trkpt>
      <trkpt lat="46.61919" lon="5.5187">
        <ele>470</ele>
        <time>2021-05-29T10:14:42.644Z</time>
      </trkpt>
      <trkpt lat="46.61921" lon="5.5187">
        <ele>470</ele>
        <time>2021-05-29T10:14:43.645Z</time>
      </trkpt>
      <trkpt lat="46.61924" lon="5.5187">
        <ele>470</ele>
        <time>2021-05-29T10:14:44.644Z</time>
      </trkpt>
      <trkpt lat="46.61926" lon="5.5187">
        <ele>470</ele>
        <time>2021-05-29T10:14:45.645Z</time>
      </trkpt>
      <trkpt lat="46.61929" lon="5.5187">
        <ele>470</ele>
        <time>2021-05-29T10:14:46.645Z</time>
      </trkpt>
      <trkpt lat="46.61931" lon="5.51871">
        <ele>470</ele>
        <time>2021-05-29T10:14:47.645Z</time>
      </trkpt>
      <trkpt lat="46.61934" lon="5.51871">
        <ele>470</ele>
        <time>2021-05-29T10:14:48.645Z</time>
      </trkpt>
      <trkpt lat="46.61936" lon="5.51872">
        <ele>470</ele>
        <time>2021-05-29T10:14:49.645Z</time>
      </trkpt>
      <trkpt lat="46.61939" lon="5.51873">
        <ele>470</ele>
        <time>2021-05-29T10:14:50.645Z</time>
      </trkpt>
      <trkpt lat="46.61942" lon="5.51873">
        <ele>470</ele>
        <time>2021-05-29T10:14:51.645Z</time>
      </trkpt>
      <trkpt lat="46.61944" lon="5.51875">
        <ele>470</ele>
        <time>2021-05-29T10:14:52.645Z</time>
      </trkpt>
      <trkpt lat="46.61947" lon="5.51876">
        <ele>470</ele>
        <time>2021-05-29T10:14:53.645Z</time>
      </trkpt>
      <trkpt lat="46.61949" lon="5.51878">
        <ele>470</ele>
        <time>2021-05-29T10:14:54.644Z</time>
      </trkpt>
      <trkpt lat="46.61951" lon="5.51879">
        <ele>470</ele>
        <time>2021-05-29T10:14:55.645Z</time>
      </trkpt>
      <trkpt lat="46.61953" lon="5.51881">
        <ele>470</ele>
        <time>2021-05-29T10:14:56.645Z</time>
      </trkpt>
      <trkpt lat="46.61955" lon="5.51882">
        <ele>470</ele>
        <time>2021-05-29T10:14:57.645Z</time>
      </trkpt>
      <trkpt lat="46.61956" lon="5.51883">
        <ele>470</ele>
        <time>2021-05-29T10:14:58.645Z</time>
      </trkpt>
      <trkpt lat="46.61958" lon="5.51884">
        <ele>469</ele>
        <time>2021-05-29T10:14:59.645Z</time>
      </trkpt>
      <trkpt lat="46.6196" lon="5.51884">
        <ele>469</ele>
        <time>2021-05-29T10:15:00.645Z</time>
      </trkpt>
      <trkpt lat="46.61962" lon="5.51885">
        <ele>469</ele>
        <time>2021-05-29T10:15:01.645Z</time>
      </trkpt>
      <trkpt lat="46.61964" lon="5.51885">
        <ele>469</ele>
        <time>2021-05-29T10:15:02.644Z</time>
      </trkpt>
      <trkpt lat="46.61966" lon="5.51885">
        <ele>469</ele>
        <time>2021-05-29T10:15:03.644Z</time>
      </trkpt>
      <trkpt lat="46.61968" lon="5.51886">
        <ele>469</ele>
        <time>2021-05-29T10:15:04.645Z</time>
      </trkpt>
      <trkpt lat="46.61971" lon="5.51886">
        <ele>469</ele>
        <time>2021-05-29T10:15:05.644Z</time>
      </trkpt>
      <trkpt lat="46.61973" lon="5.51886">
        <ele>469</ele>
        <time>2021-05-29T10:15:06.644Z</time>
      </trkpt>
      <trkpt lat="46.61975" lon="5.51887">
        <ele>469</ele>
        <time>2021-05-29T10:15:07.645Z</time>
      </trkpt>
      <trkpt lat="46.61978" lon="5.51888">
        <ele>470</ele>
        <time>2021-05-29T10:15:08.644Z</time>
      </trkpt>
      <trkpt lat="46.6198" lon="5.51888">
        <ele>469</ele>
        <time>2021-05-29T10:15:09.645Z</time>
      </trkpt>
      <trkpt lat="46.61982" lon="5.51889">
        <ele>469</ele>
        <time>2021-05-29T10:15:10.645Z</time>
      </trkpt>
      <trkpt lat="46.61984" lon="5.5189">
        <ele>469</ele>
        <time>2021-05-29T10:15:11.645Z</time>
      </trkpt>
      <trkpt lat="46.61987" lon="5.51891">
        <ele>470</ele>
        <time>2021-05-29T10:15:12.644Z</time>
      </trkpt>
      <trkpt lat="46.61989" lon="5.51892">
        <ele>470</ele>
        <time>2021-05-29T10:15:13.645Z</time>
      </trkpt>
      <trkpt lat="46.61991" lon="5.51893">
        <ele>471</ele>
        <time>2021-05-29T10:15:14.645Z</time>
      </trkpt>
      <trkpt lat="46.61993" lon="5.51894">
        <ele>471</ele>
        <time>2021-05-29T10:15:15.645Z</time>
      </trkpt>
      <trkpt lat="46.61995" lon="5.51895">
        <ele>471</ele>
        <time>2021-05-29T10:15:16.645Z</time>
      </trkpt>
      <trkpt lat="46.61997" lon="5.51896">
        <ele>471</ele>
        <time>2021-05-29T10:15:17.645Z</time>
      </trkpt>
      <trkpt lat="46.61999" lon="5.51897">
        <ele>471</ele>
        <time>2021-05-29T10:15:18.645Z</time>
      </trkpt>
      <trkpt lat="46.62002" lon="5.51898">
        <ele>471</ele>
        <time>2021-05-29T10:15:19.644Z</time>
      </trkpt>
      <trkpt lat="46.62004" lon="5.51898">
        <ele>472</ele>
        <time>2021-05-29T10:15:20.645Z</time>
      </trkpt>
      <trkpt lat="46.62006" lon="5.51898">
        <ele>472</ele>
        <time>2021-05-29T10:15:21.645Z</time>
      </trkpt>
      <trkpt lat="46.62009" lon="5.51899">
        <ele>471</ele>
        <time>2021-05-29T10:15:22.645Z</time>
      </trkpt>
      <trkpt lat="46.62011" lon="5.51899">
        <ele>471</ele>
        <time>2021-05-29T10:15:23.645Z</time>
      </trkpt>
      <trkpt lat="46.62014" lon="5.51899">
        <ele>471</ele>
        <time>2021-05-29T10:15:24.645Z</time>
      </trkpt>
      <trkpt lat="46.62016" lon="5.51899">
        <ele>471</ele>
        <time>2021-05-29T10:15:25.645Z</time>
      </trkpt>
      <trkpt lat="46.62018" lon="5.51899">
        <ele>471</ele>
        <time>2021-05-29T10:15:26.644Z</time>
      </trkpt>
      <trkpt lat="46.62021" lon="5.519">
        <ele>470</ele>
        <time>2021-05-29T10:15:27.645Z</time>
      </trkpt>
      <trkpt lat="46.62023" lon="5.519">
        <ele>470</ele>
        <time>2021-05-29T10:15:28.645Z</time>
      </trkpt>
      <trkpt lat="46.62026" lon="5.519">
        <ele>470</ele>
        <time>2021-05-29T10:15:29.645Z</time>
      </trkpt>
      <trkpt lat="46.62028" lon="5.519">
        <ele>471</ele>
        <time>2021-05-29T10:15:30.645Z</time>
      </trkpt>
      <trkpt lat="46.62031" lon="5.519">
        <ele>471</ele>
        <time>2021-05-29T10:15:31.644Z</time>
      </trkpt>
      <trkpt lat="46.62033" lon="5.519">
        <ele>471</ele>
        <time>2021-05-29T10:15:32.645Z</time>
      </trkpt>
      <trkpt lat="46.62035" lon="5.519">
        <ele>471</ele>
        <time>2021-05-29T10:15:33.645Z</time>
      </trkpt>
      <trkpt lat="46.62038" lon="5.51901">
        <ele>471</ele>
        <time>2021-05-29T10:15:34.645Z</time>
      </trkpt>
      <trkpt lat="46.6204" lon="5.51901">
        <ele>471</ele>
        <time>2021-05-29T10:15:35.644Z</time>
      </trkpt>
      <trkpt lat="46.62043" lon="5.51902">
        <ele>471</ele>
        <time>2021-05-29T10:15:36.645Z</time>
      </trkpt>
      <trkpt lat="46.62045" lon="5.51903">
        <ele>471</ele>
        <time>2021-05-29T10:15:37.645Z</time>
      </trkpt>
      <trkpt lat="46.62048" lon="5.51903">
        <ele>471</ele>
        <time>2021-05-29T10:15:38.645Z</time>
      </trkpt>
      <trkpt lat="46.6205" lon="5.51903">
        <ele>470</ele>
        <time>2021-05-29T10:15:39.645Z</time>
      </trkpt>
      <trkpt lat="46.62053" lon="5.51904">
        <ele>470</ele>
        <time>2021-05-29T10:15:40.644Z</time>
      </trkpt>
      <trkpt lat="46.62055" lon="5.51905">
        <ele>471</ele>
        <time>2021-05-29T10:15:41.645Z</time>
      </trkpt>
      <trkpt lat="46.62058" lon="5.51905">
        <ele>471</ele>
        <time>2021-05-29T10:15:42.644Z</time>
      </trkpt>
      <trkpt lat="46.6206" lon="5.51906">
        <ele>471</ele>
        <time>2021-05-29T10:15:43.645Z</time>
      </trkpt>
      <trkpt lat="46.62063" lon="5.51907">
        <ele>471</ele>
        <time>2021-05-29T10:15:44.645Z</time>
      </trkpt>
      <trkpt lat="46.62065" lon="5.51908">
        <ele>471</ele>
        <time>2021-05-29T10:15:45.644Z</time>
      </trkpt>
      <trkpt lat="46.62068" lon="5.51908">
        <ele>471</ele>
        <time>2021-05-29T10:15:46.645Z</time>
      </trkpt>
      <trkpt lat="46.6207" lon="5.51909">
        <ele>471</ele>
        <time>2021-05-29T10:15:47.644Z</time>
      </trkpt>
      <trkpt lat="46.62073" lon="5.5191">
        <ele>471</ele>
        <time>2021-05-29T10:15:48.644Z</time>
      </trkpt>
      <trkpt lat="46.62075" lon="5.51911">
        <ele>471</ele>
        <time>2021-05-29T10:15:49.644Z</time>
      </trkpt>
      <trkpt lat="46.62078" lon="5.51912">
        <ele>471</ele>
        <time>2021-05-29T10:15:50.645Z</time>
      </trkpt>
      <trkpt lat="46.6208" lon="5.51913">
        <ele>471</ele>
        <time>2021-05-29T10:15:51.645Z</time>
      </trkpt>
      <trkpt lat="46.62083" lon="5.51914">
        <ele>471</ele>
        <time>2021-05-29T10:15:52.645Z</time>
      </trkpt>
      <trkpt lat="46.62085" lon="5.51915">
        <ele>471</ele>
        <time>2021-05-29T10:15:53.645Z</time>
      </trkpt>
      <trkpt lat="46.62087" lon="5.51916">
        <ele>471</ele>
        <time>2021-05-29T10:15:54.645Z</time>
      </trkpt>
      <trkpt lat="46.62089" lon="5.51917">
        <ele>471</ele>
        <time>2021-05-29T10:15:55.645Z</time>
      </trkpt>
      <trkpt lat="46.62092" lon="5.51918">
        <ele>471</ele>
        <time>2021-05-29T10:15:56.645Z</time>
      </trkpt>
      <trkpt lat="46.62094" lon="5.51919">
        <ele>471</ele>
        <time>2021-05-29T10:15:57.645Z</time>
      </trkpt>
      <trkpt lat="46.62096" lon="5.5192">
        <ele>471</ele>
        <time>2021-05-29T10:15:58.645Z</time>
      </trkpt>
      <trkpt lat="46.62099" lon="5.5192">
        <ele>471</ele>
        <time>2021-05-29T10:15:59.645Z</time>
      </trkpt>
      <trkpt lat="46.62101" lon="5.51921">
        <ele>471</ele>
        <time>2021-05-29T10:16:00.644Z</time>
      </trkpt>
      <trkpt lat="46.62104" lon="5.51921">
        <ele>471</ele>
        <time>2021-05-29T10:16:01.645Z</time>
      </trkpt>
      <trkpt lat="46.62106" lon="5.51921">
        <ele>471</ele>
        <time>2021-05-29T10:16:02.644Z</time>
      </trkpt>
      <trkpt lat="46.62108" lon="5.51922">
        <ele>471</ele>
        <time>2021-05-29T10:16:03.645Z</time>
      </trkpt>
      <trkpt lat="46.6211" lon="5.51922">
        <ele>470</ele>
        <time>2021-05-29T10:16:04.645Z</time>
      </trkpt>
      <trkpt lat="46.62112" lon="5.51923">
        <ele>470</ele>
        <time>2021-05-29T10:16:05.645Z</time>
      </trkpt>
      <trkpt lat="46.62114" lon="5.51923">
        <ele>470</ele>
        <time>2021-05-29T10:16:06.645Z</time>
      </trkpt>
      <trkpt lat="46.62117" lon="5.51924">
        <ele>470</ele>
        <time>2021-05-29T10:16:07.645Z</time>
      </trkpt>
      <trkpt lat="46.62118" lon="5.51924">
        <ele>470</ele>
        <time>2021-05-29T10:16:08.644Z</time>
      </trkpt>
      <trkpt lat="46.62121" lon="5.51925">
        <ele>470</ele>
        <time>2021-05-29T10:16:09.645Z</time>
      </trkpt>
      <trkpt lat="46.62123" lon="5.51925">
        <ele>471</ele>
        <time>2021-05-29T10:16:10.645Z</time>
      </trkpt>
      <trkpt lat="46.62126" lon="5.51925">
        <ele>471</ele>
        <time>2021-05-29T10:16:11.644Z</time>
      </trkpt>
      <trkpt lat="46.62128" lon="5.51926">
        <ele>471</ele>
        <time>2021-05-29T10:16:12.644Z</time>
      </trkpt>
      <trkpt lat="46.6213" lon="5.51926">
        <ele>471</ele>
        <time>2021-05-29T10:16:13.645Z</time>
      </trkpt>
      <trkpt lat="46.62132" lon="5.51927">
        <ele>471</ele>
        <time>2021-05-29T10:16:14.644Z</time>
      </trkpt>
      <trkpt lat="46.62135" lon="5.51927">
        <ele>470</ele>
        <time>2021-05-29T10:16:15.645Z</time>
      </trkpt>
      <trkpt lat="46.62137" lon="5.51928">
        <ele>470</ele>
        <time>2021-05-29T10:16:16.644Z</time>
      </trkpt>
      <trkpt lat="46.62139" lon="5.51929">
        <ele>470</ele>
        <time>2021-05-29T10:16:17.645Z</time>
      </trkpt>
      <trkpt lat="46.62142" lon="5.5193">
        <ele>469</ele>
        <time>2021-05-29T10:16:18.644Z</time>
      </trkpt>
      <trkpt lat="46.62144" lon="5.51931">
        <ele>469</ele>
        <time>2021-05-29T10:16:19.645Z</time>
      </trkpt>
      <trkpt lat="46.62146" lon="5.51931">
        <ele>469</ele>
        <time>2021-05-29T10:16:20.644Z</time>
      </trkpt>
      <trkpt lat="46.62148" lon="5.51932">
        <ele>469</ele>
        <time>2021-05-29T10:16:21.644Z</time>
      </trkpt>
      <trkpt lat="46.6215" lon="5.51933">
        <ele>469</ele>
        <time>2021-05-29T10:16:22.644Z</time>
      </trkpt>
      <trkpt lat="46.62152" lon="5.51934">
        <ele>469</ele>
        <time>2021-05-29T10:16:23.644Z</time>
      </trkpt>
      <trkpt lat="46.62154" lon="5.51935">
        <ele>469</ele>
        <time>2021-05-29T10:16:24.645Z</time>
      </trkpt>
      <trkpt lat="46.62156" lon="5.51936">
        <ele>469</ele>
        <time>2021-05-29T10:16:25.645Z</time>
      </trkpt>
      <trkpt lat="46.62159" lon="5.51936">
        <ele>469</ele>
        <time>2021-05-29T10:16:26.645Z</time>
      </trkpt>
      <trkpt lat="46.62161" lon="5.51937">
        <ele>469</ele>
        <time>2021-05-29T10:16:27.645Z</time>
      </trkpt>
      <trkpt lat="46.62163" lon="5.51938">
        <ele>469</ele>
        <time>2021-05-29T10:16:28.645Z</time>
      </trkpt>
      <trkpt lat="46.62165" lon="5.51939">
        <ele>469</ele>
        <time>2021-05-29T10:16:29.645Z</time>
      </trkpt>
      <trkpt lat="46.62167" lon="5.5194">
        <ele>469</ele>
        <time>2021-05-29T10:16:30.644Z</time>
      </trkpt>
      <trkpt lat="46.62169" lon="5.51941">
        <ele>469</ele>
        <time>2021-05-29T10:16:31.645Z</time>
      </trkpt>
      <trkpt lat="46.62172" lon="5.51942">
        <ele>469</ele>
        <time>2021-05-29T10:16:32.645Z</time>
      </trkpt>
      <trkpt lat="46.62174" lon="5.51942">
        <ele>468</ele>
        <time>2021-05-29T10:16:33.645Z</time>
      </trkpt>
      <trkpt lat="46.62176" lon="5.51943">
        <ele>468</ele>
        <time>2021-05-29T10:16:34.645Z</time>
      </trkpt>
      <trkpt lat="46.62178" lon="5.51944">
        <ele>467</ele>
        <time>2021-05-29T10:16:35.645Z</time>
      </trkpt>
      <trkpt lat="46.62181" lon="5.51945">
        <ele>467</ele>
        <time>2021-05-29T10:16:36.645Z</time>
      </trkpt>
      <trkpt lat="46.62183" lon="5.51946">
        <ele>467</ele>
        <time>2021-05-29T10:16:37.645Z</time>
      </trkpt>
      <trkpt lat="46.62185" lon="5.51947">
        <ele>467</ele>
        <time>2021-05-29T10:16:38.645Z</time>
      </trkpt>
      <trkpt lat="46.62187" lon="5.51948">
        <ele>467</ele>
        <time>2021-05-29T10:16:39.645Z</time>
      </trkpt>
      <trkpt lat="46.6219" lon="5.51949">
        <ele>467</ele>
        <time>2021-05-29T10:16:40.644Z</time>
      </trkpt>
      <trkpt lat="46.62192" lon="5.51949">
        <ele>467</ele>
        <time>2021-05-29T10:16:41.645Z</time>
      </trkpt>
      <trkpt lat="46.62194" lon="5.5195">
        <ele>467</ele>
        <time>2021-05-29T10:16:42.645Z</time>
      </trkpt>
      <trkpt lat="46.62196" lon="5.51952">
        <ele>467</ele>
        <time>2021-05-29T10:16:43.645Z</time>
      </trkpt>
      <trkpt lat="46.62198" lon="5.51953">
        <ele>467</ele>
        <time>2021-05-29T10:16:44.645Z</time>
      </trkpt>
      <trkpt lat="46.622" lon="5.51954">
        <ele>466</ele>
        <time>2021-05-29T10:16:45.645Z</time>
      </trkpt>
      <trkpt lat="46.62203" lon="5.51955">
        <ele>466</ele>
        <time>2021-05-29T10:16:46.644Z</time>
      </trkpt>
      <trkpt lat="46.62205" lon="5.51956">
        <ele>466</ele>
        <time>2021-05-29T10:16:47.645Z</time>
      </trkpt>
      <trkpt lat="46.62207" lon="5.51956">
        <ele>466</ele>
        <time>2021-05-29T10:16:48.644Z</time>
      </trkpt>
      <trkpt lat="46.6221" lon="5.51957">
        <ele>466</ele>
        <time>2021-05-29T10:16:49.645Z</time>
      </trkpt>
      <trkpt lat="46.62212" lon="5.51957">
        <ele>466</ele>
        <time>2021-05-29T10:16:50.645Z</time>
      </trkpt>
      <trkpt lat="46.62215" lon="5.51958">
        <ele>466</ele>
        <time>2021-05-29T10:16:51.644Z</time>
      </trkpt>
      <trkpt lat="46.62217" lon="5.51959">
        <ele>466</ele>
        <time>2021-05-29T10:16:52.644Z</time>
      </trkpt>
      <trkpt lat="46.6222" lon="5.5196">
        <ele>466</ele>
        <time>2021-05-29T10:16:53.644Z</time>
      </trkpt>
      <trkpt lat="46.62222" lon="5.51961">
        <ele>465</ele>
        <time>2021-05-29T10:16:54.645Z</time>
      </trkpt>
      <trkpt lat="46.62224" lon="5.51962">
        <ele>465</ele>
        <time>2021-05-29T10:16:55.645Z</time>
      </trkpt>
      <trkpt lat="46.62227" lon="5.51962">
        <ele>465</ele>
        <time>2021-05-29T10:16:56.644Z</time>
      </trkpt>
      <trkpt lat="46.62229" lon="5.51963">
        <ele>465</ele>
        <time>2021-05-29T10:16:57.645Z</time>
      </trkpt>
      <trkpt lat="46.62232" lon="5.51964">
        <ele>465</ele>
        <time>2021-05-29T10:16:58.644Z</time>
      </trkpt>
      <trkpt lat="46.62234" lon="5.51965">
        <ele>464</ele>
        <time>2021-05-29T10:16:59.645Z</time>
      </trkpt>
      <trkpt lat="46.62237" lon="5.51966">
        <ele>464</ele>
        <time>2021-05-29T10:17:00.645Z</time>
      </trkpt>
      <trkpt lat="46.6224" lon="5.51967">
        <ele>464</ele>
        <time>2021-05-29T10:17:01.644Z</time>
      </trkpt>
      <trkpt lat="46.62243" lon="5.51968">
        <ele>464</ele>
        <time>2021-05-29T10:17:02.645Z</time>
      </trkpt>
      <trkpt lat="46.62245" lon="5.51969">
        <ele>464</ele>
        <time>2021-05-29T10:17:03.645Z</time>
      </trkpt>
      <trkpt lat="46.62248" lon="5.5197">
        <ele>464</ele>
        <time>2021-05-29T10:17:04.645Z</time>
      </trkpt>
      <trkpt lat="46.62251" lon="5.51971">
        <ele>464</ele>
        <time>2021-05-29T10:17:05.645Z</time>
      </trkpt>
      <trkpt lat="46.62253" lon="5.51972">
        <ele>464</ele>
        <time>2021-05-29T10:17:06.645Z</time>
      </trkpt>
      <trkpt lat="46.62256" lon="5.51973">
        <ele>464</ele>
        <time>2021-05-29T10:17:07.644Z</time>
      </trkpt>
      <trkpt lat="46.62258" lon="5.51974">
        <ele>464</ele>
        <time>2021-05-29T10:17:08.645Z</time>
      </trkpt>
      <trkpt lat="46.62261" lon="5.51975">
        <ele>464</ele>
        <time>2021-05-29T10:17:09.644Z</time>
      </trkpt>
      <trkpt lat="46.62263" lon="5.51976">
        <ele>464</ele>
        <time>2021-05-29T10:17:10.645Z</time>
      </trkpt>
      <trkpt lat="46.62266" lon="5.51978">
        <ele>464</ele>
        <time>2021-05-29T10:17:11.644Z</time>
      </trkpt>
      <trkpt lat="46.62268" lon="5.51979">
        <ele>464</ele>
        <time>2021-05-29T10:17:12.645Z</time>
      </trkpt>
      <trkpt lat="46.6227" lon="5.5198">
        <ele>464</ele>
        <time>2021-05-29T10:17:13.645Z</time>
      </trkpt>
      <trkpt lat="46.62272" lon="5.5198">
        <ele>464</ele>
        <time>2021-05-29T10:17:14.644Z</time>
      </trkpt>
      <trkpt lat="46.62276" lon="5.51981">
        <ele>464</ele>
        <time>2021-05-29T10:17:15.645Z</time>
      </trkpt>
      <trkpt lat="46.62278" lon="5.51982">
        <ele>464</ele>
        <time>2021-05-29T10:17:16.645Z</time>
      </trkpt>
      <trkpt lat="46.62281" lon="5.51983">
        <ele>464</ele>
        <time>2021-05-29T10:17:17.645Z</time>
      </trkpt>
      <trkpt lat="46.62283" lon="5.51985">
        <ele>464</ele>
        <time>2021-05-29T10:17:18.644Z</time>
      </trkpt>
      <trkpt lat="46.62285" lon="5.51986">
        <ele>463</ele>
        <time>2021-05-29T10:17:19.645Z</time>
      </trkpt>
      <trkpt lat="46.62288" lon="5.51987">
        <ele>464</ele>
        <time>2021-05-29T10:17:20.644Z</time>
      </trkpt>
      <trkpt lat="46.6229" lon="5.51988">
        <ele>464</ele>
        <time>2021-05-29T10:17:21.645Z</time>
      </trkpt>
      <trkpt lat="46.62292" lon="5.51989">
        <ele>464</ele>
        <time>2021-05-29T10:17:22.645Z</time>
      </trkpt>
      <trkpt lat="46.62295" lon="5.51991">
        <ele>464</ele>
        <time>2021-05-29T10:17:23.645Z</time>
      </trkpt>
      <trkpt lat="46.62297" lon="5.51992">
        <ele>464</ele>
        <time>2021-05-29T10:17:24.645Z</time>
      </trkpt>
      <trkpt lat="46.62299" lon="5.51992">
        <ele>464</ele>
        <time>2021-05-29T10:17:25.645Z</time>
      </trkpt>
      <trkpt lat="46.62302" lon="5.51992">
        <ele>464</ele>
        <time>2021-05-29T10:17:26.645Z</time>
      </trkpt>
      <trkpt lat="46.62304" lon="5.51992">
        <ele>464</ele>
        <time>2021-05-29T10:17:27.645Z</time>
      </trkpt>
      <trkpt lat="46.62306" lon="5.51992">
        <ele>464</ele>
        <time>2021-05-29T10:17:28.645Z</time>
      </trkpt>
      <trkpt lat="46.62308" lon="5.51993">
        <ele>463</ele>
        <time>2021-05-29T10:17:29.645Z</time>
      </trkpt>
      <trkpt lat="46.62311" lon="5.51993">
        <ele>463</ele>
        <time>2021-05-29T10:17:30.644Z</time>
      </trkpt>
      <trkpt lat="46.62313" lon="5.51994">
        <ele>463</ele>
        <time>2021-05-29T10:17:31.645Z</time>
      </trkpt>
      <trkpt lat="46.62315" lon="5.51995">
        <ele>463</ele>
        <time>2021-05-29T10:17:32.644Z</time>
      </trkpt>
      <trkpt lat="46.62317" lon="5.51997">
        <ele>463</ele>
        <time>2021-05-29T10:17:33.645Z</time>
      </trkpt>
      <trkpt lat="46.62318" lon="5.51998">
        <ele>462</ele>
        <time>2021-05-29T10:17:34.645Z</time>
      </trkpt>
      <trkpt lat="46.62319" lon="5.52">
        <ele>462</ele>
        <time>2021-05-29T10:17:35.645Z</time>
      </trkpt>
      <trkpt lat="46.62321" lon="5.52002">
        <ele>462</ele>
        <time>2021-05-29T10:17:36.645Z</time>
      </trkpt>
      <trkpt lat="46.62322" lon="5.52004">
        <ele>462</ele>
        <time>2021-05-29T10:17:37.644Z</time>
      </trkpt>
      <trkpt lat="46.62323" lon="5.52006">
        <ele>462</ele>
        <time>2021-05-29T10:17:38.645Z</time>
      </trkpt>
      <trkpt lat="46.62324" lon="5.52008">
        <ele>462</ele>
        <time>2021-05-29T10:17:39.645Z</time>
      </trkpt>
      <trkpt lat="46.62324" lon="5.52009">
        <ele>462</ele>
        <time>2021-05-29T10:17:40.645Z</time>
      </trkpt>
      <trkpt lat="46.62325" lon="5.52011">
        <ele>462</ele>
        <time>2021-05-29T10:17:41.645Z</time>
      </trkpt>
      <trkpt lat="46.62326" lon="5.52011">
        <ele>462</ele>
        <time>2021-05-29T10:17:42.645Z</time>
      </trkpt>
      <trkpt lat="46.62327" lon="5.52012">
        <ele>462</ele>
        <time>2021-05-29T10:17:43.644Z</time>
      </trkpt>
      <trkpt lat="46.62328" lon="5.52011">
        <ele>462</ele>
        <time>2021-05-29T10:17:44.645Z</time>
      </trkpt>
      <trkpt lat="46.62329" lon="5.52011">
        <ele>462</ele>
        <time>2021-05-29T10:17:45.644Z</time>
      </trkpt>
      <trkpt lat="46.62329" lon="5.52011">
        <ele>462</ele>
        <time>2021-05-29T10:17:46.644Z</time>
      </trkpt>
      <trkpt lat="46.62329" lon="5.52011">
        <ele>462</ele>
        <time>2021-05-29T10:17:47.645Z</time>
      </trkpt>
      <trkpt lat="46.62333" lon="5.52015">
        <ele>460</ele>
        <time>2021-05-29T10:17:48.645Z</time>
      </trkpt>
      <trkpt lat="46.62333" lon="5.52015">
        <ele>460</ele>
        <time>2021-05-29T10:17:49.645Z</time>
      </trkpt>
      <trkpt lat="46.62333" lon="5.52015">
        <ele>460</ele>
        <time>2021-05-29T10:17:50.645Z</time>
      </trkpt>
      <trkpt lat="46.62333" lon="5.52015">
        <ele>460</ele>
        <time>2021-05-29T10:17:51.645Z</time>
      </trkpt>
      <trkpt lat="46.62333" lon="5.52015">
        <ele>460</ele>
        <time>2021-05-29T10:17:52.645Z</time>
      </trkpt>
      <trkpt lat="46.62333" lon="5.52015">
        <ele>460</ele>
        <time>2021-05-29T10:17:53.645Z</time>
      </trkpt>
      <trkpt lat="46.62333" lon="5.52015">
        <ele>460</ele>
        <time>2021-05-29T10:17:54.645Z</time>
      </trkpt>
      <trkpt lat="46.62333" lon="5.52016">
        <ele>460</ele>
        <time>2021-05-29T10:17:55.644Z</time>
      </trkpt>
      <trkpt lat="46.62333" lon="5.52018">
        <ele>460</ele>
        <time>2021-05-29T10:17:56.645Z</time>
      </trkpt>
      <trkpt lat="46.62333" lon="5.5202">
        <ele>460</ele>
        <time>2021-05-29T10:17:57.645Z</time>
      </trkpt>
      <trkpt lat="46.62333" lon="5.52023">
        <ele>459</ele>
        <time>2021-05-29T10:17:58.645Z</time>
      </trkpt>
      <trkpt lat="46.62333" lon="5.52025">
        <ele>459</ele>
        <time>2021-05-29T10:17:59.645Z</time>
      </trkpt>
      <trkpt lat="46.62332" lon="5.52028">
        <ele>459</ele>
        <time>2021-05-29T10:18:00.645Z</time>
      </trkpt>
      <trkpt lat="46.62332" lon="5.5203">
        <ele>459</ele>
        <time>2021-05-29T10:18:01.645Z</time>
      </trkpt>
      <trkpt lat="46.62331" lon="5.52033">
        <ele>459</ele>
        <time>2021-05-29T10:18:02.644Z</time>
      </trkpt>
      <trkpt lat="46.62331" lon="5.52037">
        <ele>458</ele>
        <time>2021-05-29T10:18:03.645Z</time>
      </trkpt>
      <trkpt lat="46.6233" lon="5.5204">
        <ele>457</ele>
        <time>2021-05-29T10:18:04.645Z</time>
      </trkpt>
      <trkpt lat="46.6233" lon="5.52043">
        <ele>457</ele>
        <time>2021-05-29T10:18:05.645Z</time>
      </trkpt>
      <trkpt lat="46.62329" lon="5.52046">
        <ele>457</ele>
        <time>2021-05-29T10:18:06.645Z</time>
      </trkpt>
      <trkpt lat="46.62329" lon="5.5205">
        <ele>457</ele>
        <time>2021-05-29T10:18:07.645Z</time>
      </trkpt>
      <trkpt lat="46.62329" lon="5.52052">
        <ele>457</ele>
        <time>2021-05-29T10:18:08.645Z</time>
      </trkpt>
      <trkpt lat="46.62328" lon="5.52056">
        <ele>457</ele>
        <time>2021-05-29T10:18:09.644Z</time>
      </trkpt>
      <trkpt lat="46.62329" lon="5.52059">
        <ele>457</ele>
        <time>2021-05-29T10:18:10.645Z</time>
      </trkpt>
      <trkpt lat="46.62329" lon="5.52063">
        <ele>457</ele>
        <time>2021-05-29T10:18:11.645Z</time>
      </trkpt>
      <trkpt lat="46.62329" lon="5.52066">
        <ele>457</ele>
        <time>2021-05-29T10:18:12.645Z</time>
      </trkpt>
      <trkpt lat="46.6233" lon="5.5207">
        <ele>457</ele>
        <time>2021-05-29T10:18:13.644Z</time>
      </trkpt>
      <trkpt lat="46.6233" lon="5.52072">
        <ele>457</ele>
        <time>2021-05-29T10:18:14.645Z</time>
      </trkpt>
      <trkpt lat="46.62331" lon="5.52076">
        <ele>457</ele>
        <time>2021-05-29T10:18:15.645Z</time>
      </trkpt>
      <trkpt lat="46.62333" lon="5.5208">
        <ele>457</ele>
        <time>2021-05-29T10:18:16.645Z</time>
      </trkpt>
      <trkpt lat="46.62334" lon="5.52082">
        <ele>457</ele>
        <time>2021-05-29T10:18:17.645Z</time>
      </trkpt>
      <trkpt lat="46.62335" lon="5.52085">
        <ele>457</ele>
        <time>2021-05-29T10:18:18.645Z</time>
      </trkpt>
      <trkpt lat="46.62336" lon="5.52088">
        <ele>457</ele>
        <time>2021-05-29T10:18:19.645Z</time>
      </trkpt>
      <trkpt lat="46.62338" lon="5.52091">
        <ele>457</ele>
        <time>2021-05-29T10:18:20.645Z</time>
      </trkpt>
      <trkpt lat="46.6234" lon="5.52095">
        <ele>457</ele>
        <time>2021-05-29T10:18:21.644Z</time>
      </trkpt>
      <trkpt lat="46.62341" lon="5.52097">
        <ele>457</ele>
        <time>2021-05-29T10:18:22.645Z</time>
      </trkpt>
      <trkpt lat="46.62342" lon="5.52099">
        <ele>457</ele>
        <time>2021-05-29T10:18:23.645Z</time>
      </trkpt>
      <trkpt lat="46.62344" lon="5.52102">
        <ele>456</ele>
        <time>2021-05-29T10:18:24.645Z</time>
      </trkpt>
      <trkpt lat="46.62345" lon="5.52104">
        <ele>456</ele>
        <time>2021-05-29T10:18:25.644Z</time>
      </trkpt>
      <trkpt lat="46.62346" lon="5.52107">
        <ele>456</ele>
        <time>2021-05-29T10:18:26.645Z</time>
      </trkpt>
      <trkpt lat="46.62348" lon="5.52109">
        <ele>456</ele>
        <time>2021-05-29T10:18:27.644Z</time>
      </trkpt>
      <trkpt lat="46.6235" lon="5.52112">
        <ele>456</ele>
        <time>2021-05-29T10:18:28.645Z</time>
      </trkpt>
      <trkpt lat="46.62351" lon="5.52114">
        <ele>456</ele>
        <time>2021-05-29T10:18:29.645Z</time>
      </trkpt>
      <trkpt lat="46.62353" lon="5.52118">
        <ele>455</ele>
        <time>2021-05-29T10:18:30.645Z</time>
      </trkpt>
      <trkpt lat="46.62354" lon="5.5212">
        <ele>455</ele>
        <time>2021-05-29T10:18:31.644Z</time>
      </trkpt>
      <trkpt lat="46.62356" lon="5.52122">
        <ele>455</ele>
        <time>2021-05-29T10:18:32.645Z</time>
      </trkpt>
      <trkpt lat="46.62358" lon="5.52125">
        <ele>455</ele>
        <time>2021-05-29T10:18:33.645Z</time>
      </trkpt>
      <trkpt lat="46.62359" lon="5.52127">
        <ele>454</ele>
        <time>2021-05-29T10:18:34.645Z</time>
      </trkpt>
      <trkpt lat="46.62361" lon="5.5213">
        <ele>454</ele>
        <time>2021-05-29T10:18:35.645Z</time>
      </trkpt>
      <trkpt lat="46.62362" lon="5.52133">
        <ele>453</ele>
        <time>2021-05-29T10:18:36.645Z</time>
      </trkpt>
      <trkpt lat="46.62363" lon="5.52135">
        <ele>453</ele>
        <time>2021-05-29T10:18:37.645Z</time>
      </trkpt>
      <trkpt lat="46.62365" lon="5.52138">
        <ele>453</ele>
        <time>2021-05-29T10:18:38.645Z</time>
      </trkpt>
      <trkpt lat="46.62367" lon="5.5214">
        <ele>452</ele>
        <time>2021-05-29T10:18:39.644Z</time>
      </trkpt>
      <trkpt lat="46.62368" lon="5.52143">
        <ele>452</ele>
        <time>2021-05-29T10:18:40.645Z</time>
      </trkpt>
      <trkpt lat="46.62369" lon="5.52146">
        <ele>452</ele>
        <time>2021-05-29T10:18:41.645Z</time>
      </trkpt>
      <trkpt lat="46.62371" lon="5.52148">
        <ele>451</ele>
        <time>2021-05-29T10:18:42.645Z</time>
      </trkpt>
      <trkpt lat="46.62372" lon="5.52151">
        <ele>451</ele>
        <time>2021-05-29T10:18:43.645Z</time>
      </trkpt>
      <trkpt lat="46.62374" lon="5.52154">
        <ele>451</ele>
        <time>2021-05-29T10:18:44.644Z</time>
      </trkpt>
      <trkpt lat="46.62376" lon="5.52156">
        <ele>451</ele>
        <time>2021-05-29T10:18:45.645Z</time>
      </trkpt>
      <trkpt lat="46.62378" lon="5.52159">
        <ele>451</ele>
        <time>2021-05-29T10:18:46.645Z</time>
      </trkpt>
      <trkpt lat="46.62379" lon="5.52162">
        <ele>451</ele>
        <time>2021-05-29T10:18:47.645Z</time>
      </trkpt>
      <trkpt lat="46.62381" lon="5.52164">
        <ele>451</ele>
        <time>2021-05-29T10:18:48.645Z</time>
      </trkpt>
      <trkpt lat="46.62382" lon="5.52167">
        <ele>451</ele>
        <time>2021-05-29T10:18:49.645Z</time>
      </trkpt>
      <trkpt lat="46.62384" lon="5.5217">
        <ele>451</ele>
        <time>2021-05-29T10:18:50.645Z</time>
      </trkpt>
      <trkpt lat="46.62385" lon="5.52173">
        <ele>451</ele>
        <time>2021-05-29T10:18:51.645Z</time>
      </trkpt>
      <trkpt lat="46.62387" lon="5.52175">
        <ele>451</ele>
        <time>2021-05-29T10:18:52.645Z</time>
      </trkpt>
      <trkpt lat="46.62388" lon="5.52178">
        <ele>451</ele>
        <time>2021-05-29T10:18:53.644Z</time>
      </trkpt>
      <trkpt lat="46.6239" lon="5.5218">
        <ele>451</ele>
        <time>2021-05-29T10:18:54.645Z</time>
      </trkpt>
      <trkpt lat="46.62391" lon="5.52183">
        <ele>451</ele>
        <time>2021-05-29T10:18:55.644Z</time>
      </trkpt>
      <trkpt lat="46.62393" lon="5.52186">
        <ele>451</ele>
        <time>2021-05-29T10:18:56.645Z</time>
      </trkpt>
      <trkpt lat="46.62395" lon="5.52188">
        <ele>452</ele>
        <time>2021-05-29T10:18:57.645Z</time>
      </trkpt>
      <trkpt lat="46.62397" lon="5.52191">
        <ele>452</ele>
        <time>2021-05-29T10:18:58.645Z</time>
      </trkpt>
      <trkpt lat="46.62398" lon="5.52193">
        <ele>452</ele>
        <time>2021-05-29T10:18:59.645Z</time>
      </trkpt>
      <trkpt lat="46.624" lon="5.52196">
        <ele>452</ele>
        <time>2021-05-29T10:19:00.645Z</time>
      </trkpt>
      <trkpt lat="46.62401" lon="5.52199">
        <ele>451</ele>
        <time>2021-05-29T10:19:01.645Z</time>
      </trkpt>
      <trkpt lat="46.62403" lon="5.52201">
        <ele>451</ele>
        <time>2021-05-29T10:19:02.645Z</time>
      </trkpt>
      <trkpt lat="46.62404" lon="5.52204">
        <ele>451</ele>
        <time>2021-05-29T10:19:03.645Z</time>
      </trkpt>
      <trkpt lat="46.62406" lon="5.52206">
        <ele>451</ele>
        <time>2021-05-29T10:19:04.645Z</time>
      </trkpt>
      <trkpt lat="46.62407" lon="5.52209">
        <ele>451</ele>
        <time>2021-05-29T10:19:05.645Z</time>
      </trkpt>
      <trkpt lat="46.62409" lon="5.52212">
        <ele>451</ele>
        <time>2021-05-29T10:19:06.645Z</time>
      </trkpt>
      <trkpt lat="46.62411" lon="5.52214">
        <ele>451</ele>
        <time>2021-05-29T10:19:07.644Z</time>
      </trkpt>
      <trkpt lat="46.62412" lon="5.52217">
        <ele>452</ele>
        <time>2021-05-29T10:19:08.645Z</time>
      </trkpt>
      <trkpt lat="46.62414" lon="5.5222">
        <ele>452</ele>
        <time>2021-05-29T10:19:09.645Z</time>
      </trkpt>
      <trkpt lat="46.62416" lon="5.52222">
        <ele>452</ele>
        <time>2021-05-29T10:19:10.645Z</time>
      </trkpt>
      <trkpt lat="46.62417" lon="5.52225">
        <ele>452</ele>
        <time>2021-05-29T10:19:11.645Z</time>
      </trkpt>
      <trkpt lat="46.62419" lon="5.52228">
        <ele>451</ele>
        <time>2021-05-29T10:19:12.645Z</time>
      </trkpt>
      <trkpt lat="46.62421" lon="5.5223">
        <ele>451</ele>
        <time>2021-05-29T10:19:13.645Z</time>
      </trkpt>
      <trkpt lat="46.62423" lon="5.52233">
        <ele>451</ele>
        <time>2021-05-29T10:19:14.644Z</time>
      </trkpt>
      <trkpt lat="46.62424" lon="5.52236">
        <ele>451</ele>
        <time>2021-05-29T10:19:15.645Z</time>
      </trkpt>
      <trkpt lat="46.62426" lon="5.52239">
        <ele>451</ele>
        <time>2021-05-29T10:19:16.644Z</time>
      </trkpt>
      <trkpt lat="46.62428" lon="5.52242">
        <ele>451</ele>
        <time>2021-05-29T10:19:17.645Z</time>
      </trkpt>
      <trkpt lat="46.6243" lon="5.52244">
        <ele>450</ele>
        <time>2021-05-29T10:19:18.645Z</time>
      </trkpt>
      <trkpt lat="46.62431" lon="5.52247">
        <ele>450</ele>
        <time>2021-05-29T10:19:19.644Z</time>
      </trkpt>
      <trkpt lat="46.62433" lon="5.5225">
        <ele>450</ele>
        <time>2021-05-29T10:19:20.645Z</time>
      </trkpt>
      <trkpt lat="46.62434" lon="5.52252">
        <ele>449</ele>
        <time>2021-05-29T10:19:21.645Z</time>
      </trkpt>
      <trkpt lat="46.62435" lon="5.52255">
        <ele>449</ele>
        <time>2021-05-29T10:19:22.644Z</time>
      </trkpt>
      <trkpt lat="46.62437" lon="5.52257">
        <ele>448</ele>
        <time>2021-05-29T10:19:23.645Z</time>
      </trkpt>
      <trkpt lat="46.62438" lon="5.5226">
        <ele>448</ele>
        <time>2021-05-29T10:19:24.644Z</time>
      </trkpt>
      <trkpt lat="46.6244" lon="5.52263">
        <ele>448</ele>
        <time>2021-05-29T10:19:25.645Z</time>
      </trkpt>
      <trkpt lat="46.62441" lon="5.52266">
        <ele>448</ele>
        <time>2021-05-29T10:19:26.645Z</time>
      </trkpt>
      <trkpt lat="46.62443" lon="5.52269">
        <ele>448</ele>
        <time>2021-05-29T10:19:27.645Z</time>
      </trkpt>
      <trkpt lat="46.62444" lon="5.52272">
        <ele>448</ele>
        <time>2021-05-29T10:19:28.645Z</time>
      </trkpt>
      <trkpt lat="46.62446" lon="5.52274">
        <ele>448</ele>
        <time>2021-05-29T10:19:29.645Z</time>
      </trkpt>
      <trkpt lat="46.62447" lon="5.52277">
        <ele>448</ele>
        <time>2021-05-29T10:19:30.645Z</time>
      </trkpt>
      <trkpt lat="46.62449" lon="5.5228">
        <ele>448</ele>
        <time>2021-05-29T10:19:31.644Z</time>
      </trkpt>
      <trkpt lat="46.6245" lon="5.52282">
        <ele>448</ele>
        <time>2021-05-29T10:19:32.644Z</time>
      </trkpt>
      <trkpt lat="46.62452" lon="5.52285">
        <ele>447</ele>
        <time>2021-05-29T10:19:33.644Z</time>
      </trkpt>
      <trkpt lat="46.62453" lon="5.52288">
        <ele>447</ele>
        <time>2021-05-29T10:19:34.645Z</time>
      </trkpt>
      <trkpt lat="46.62455" lon="5.5229">
        <ele>447</ele>
        <time>2021-05-29T10:19:53.605Z</time>
      </trkpt>
      <trkpt lat="46.62456" lon="5.52293">
        <ele>447</ele>
        <time>2021-05-29T10:19:54.605Z</time>
      </trkpt>
      <trkpt lat="46.62458" lon="5.52295">
        <ele>447</ele>
        <time>2021-05-29T10:19:55.605Z</time>
      </trkpt>
      <trkpt lat="46.6246" lon="5.52298">
        <ele>447</ele>
        <time>2021-05-29T10:19:56.605Z</time>
      </trkpt>
      <trkpt lat="46.62462" lon="5.52301">
        <ele>447</ele>
        <time>2021-05-29T10:19:57.605Z</time>
      </trkpt>
      <trkpt lat="46.62464" lon="5.52303">
        <ele>446</ele>
        <time>2021-05-29T10:19:58.605Z</time>
      </trkpt>
      <trkpt lat="46.62466" lon="5.52305">
        <ele>446</ele>
        <time>2021-05-29T10:19:59.605Z</time>
      </trkpt>
      <trkpt lat="46.62468" lon="5.52308">
        <ele>446</ele>
        <time>2021-05-29T10:20:00.605Z</time>
      </trkpt>
      <trkpt lat="46.6247" lon="5.5231">
        <ele>445</ele>
        <time>2021-05-29T10:20:01.605Z</time>
      </trkpt>
      <trkpt lat="46.62472" lon="5.52312">
        <ele>445</ele>
        <time>2021-05-29T10:20:02.605Z</time>
      </trkpt>
      <trkpt lat="46.62474" lon="5.52314">
        <ele>445</ele>
        <time>2021-05-29T10:20:03.605Z</time>
      </trkpt>
      <trkpt lat="46.62476" lon="5.52316">
        <ele>444</ele>
        <time>2021-05-29T10:20:04.604Z</time>
      </trkpt>
      <trkpt lat="46.62478" lon="5.52318">
        <ele>444</ele>
        <time>2021-05-29T10:20:05.605Z</time>
      </trkpt>
      <trkpt lat="46.6248" lon="5.5232">
        <ele>444</ele>
        <time>2021-05-29T10:20:06.604Z</time>
      </trkpt>
      <trkpt lat="46.62482" lon="5.52322">
        <ele>444</ele>
        <time>2021-05-29T10:20:07.605Z</time>
      </trkpt>
      <trkpt lat="46.62484" lon="5.52324">
        <ele>444</ele>
        <time>2021-05-29T10:20:08.605Z</time>
      </trkpt>
      <trkpt lat="46.62486" lon="5.52326">
        <ele>444</ele>
        <time>2021-05-29T10:20:09.604Z</time>
      </trkpt>
      <trkpt lat="46.62488" lon="5.52328">
        <ele>444</ele>
        <time>2021-05-29T10:20:10.605Z</time>
      </trkpt>
      <trkpt lat="46.6249" lon="5.5233">
        <ele>444</ele>
        <time>2021-05-29T10:20:11.605Z</time>
      </trkpt>
      <trkpt lat="46.62492" lon="5.52332">
        <ele>444</ele>
        <time>2021-05-29T10:20:12.605Z</time>
      </trkpt>
      <trkpt lat="46.62494" lon="5.52334">
        <ele>444</ele>
        <time>2021-05-29T10:20:13.605Z</time>
      </trkpt>
      <trkpt lat="46.62496" lon="5.52336">
        <ele>444</ele>
        <time>2021-05-29T10:20:14.605Z</time>
      </trkpt>
      <trkpt lat="46.62499" lon="5.52338">
        <ele>445</ele>
        <time>2021-05-29T10:20:15.605Z</time>
      </trkpt>
      <trkpt lat="46.62501" lon="5.5234">
        <ele>445</ele>
        <time>2021-05-29T10:20:16.605Z</time>
      </trkpt>
      <trkpt lat="46.62503" lon="5.52342">
        <ele>445</ele>
        <time>2021-05-29T10:20:17.605Z</time>
      </trkpt>
      <trkpt lat="46.62505" lon="5.52344">
        <ele>445</ele>
        <time>2021-05-29T10:20:18.605Z</time>
      </trkpt>
      <trkpt lat="46.62508" lon="5.52346">
        <ele>445</ele>
        <time>2021-05-29T10:20:19.605Z</time>
      </trkpt>
      <trkpt lat="46.6251" lon="5.52348">
        <ele>445</ele>
        <time>2021-05-29T10:20:20.604Z</time>
      </trkpt>
      <trkpt lat="46.62512" lon="5.5235">
        <ele>445</ele>
        <time>2021-05-29T10:20:21.605Z</time>
      </trkpt>
      <trkpt lat="46.62514" lon="5.52352">
        <ele>444</ele>
        <time>2021-05-29T10:20:22.605Z</time>
      </trkpt>
      <trkpt lat="46.62516" lon="5.52354">
        <ele>444</ele>
        <time>2021-05-29T10:20:23.604Z</time>
      </trkpt>
      <trkpt lat="46.62518" lon="5.52356">
        <ele>444</ele>
        <time>2021-05-29T10:20:24.605Z</time>
      </trkpt>
      <trkpt lat="46.6252" lon="5.52358">
        <ele>443</ele>
        <time>2021-05-29T10:20:25.605Z</time>
      </trkpt>
      <trkpt lat="46.62522" lon="5.52359">
        <ele>443</ele>
        <time>2021-05-29T10:20:26.605Z</time>
      </trkpt>
      <trkpt lat="46.62524" lon="5.52361">
        <ele>443</ele>
        <time>2021-05-29T10:20:27.605Z</time>
      </trkpt>
      <trkpt lat="46.62526" lon="5.52363">
        <ele>443</ele>
        <time>2021-05-29T10:20:28.604Z</time>
      </trkpt>
      <trkpt lat="46.62528" lon="5.52365">
        <ele>442</ele>
        <time>2021-05-29T10:20:29.605Z</time>
      </trkpt>
      <trkpt lat="46.6253" lon="5.52367">
        <ele>442</ele>
        <time>2021-05-29T10:20:30.605Z</time>
      </trkpt>
      <trkpt lat="46.62533" lon="5.52369">
        <ele>442</ele>
        <time>2021-05-29T10:20:31.604Z</time>
      </trkpt>
      <trkpt lat="46.62535" lon="5.52371">
        <ele>442</ele>
        <time>2021-05-29T10:20:32.605Z</time>
      </trkpt>
      <trkpt lat="46.62537" lon="5.52372">
        <ele>441</ele>
        <time>2021-05-29T10:20:33.604Z</time>
      </trkpt>
      <trkpt lat="46.62539" lon="5.52374">
        <ele>441</ele>
        <time>2021-05-29T10:20:34.605Z</time>
      </trkpt>
      <trkpt lat="46.62542" lon="5.52376">
        <ele>441</ele>
        <time>2021-05-29T10:20:35.605Z</time>
      </trkpt>
      <trkpt lat="46.62544" lon="5.52377">
        <ele>441</ele>
        <time>2021-05-29T10:20:36.605Z</time>
      </trkpt>
      <trkpt lat="46.62546" lon="5.52379">
        <ele>441</ele>
        <time>2021-05-29T10:20:37.605Z</time>
      </trkpt>
      <trkpt lat="46.62549" lon="5.52381">
        <ele>441</ele>
        <time>2021-05-29T10:20:38.605Z</time>
      </trkpt>
      <trkpt lat="46.62551" lon="5.52382">
        <ele>441</ele>
        <time>2021-05-29T10:20:39.604Z</time>
      </trkpt>
      <trkpt lat="46.62553" lon="5.52384">
        <ele>440</ele>
        <time>2021-05-29T10:20:40.605Z</time>
      </trkpt>
      <trkpt lat="46.62556" lon="5.52386">
        <ele>440</ele>
        <time>2021-05-29T10:20:41.605Z</time>
      </trkpt>
      <trkpt lat="46.62558" lon="5.52387">
        <ele>439</ele>
        <time>2021-05-29T10:20:42.604Z</time>
      </trkpt>
      <trkpt lat="46.62561" lon="5.52389">
        <ele>439</ele>
        <time>2021-05-29T10:20:43.605Z</time>
      </trkpt>
      <trkpt lat="46.62563" lon="5.52391">
        <ele>439</ele>
        <time>2021-05-29T10:20:44.604Z</time>
      </trkpt>
      <trkpt lat="46.62565" lon="5.52393">
        <ele>439</ele>
        <time>2021-05-29T10:20:45.605Z</time>
      </trkpt>
      <trkpt lat="46.62568" lon="5.52395">
        <ele>439</ele>
        <time>2021-05-29T10:20:46.605Z</time>
      </trkpt>
      <trkpt lat="46.6257" lon="5.52397">
        <ele>439</ele>
        <time>2021-05-29T10:20:47.605Z</time>
      </trkpt>
      <trkpt lat="46.62572" lon="5.52398">
        <ele>439</ele>
        <time>2021-05-29T10:20:48.605Z</time>
      </trkpt>
      <trkpt lat="46.62575" lon="5.524">
        <ele>439</ele>
        <time>2021-05-29T10:20:49.605Z</time>
      </trkpt>
      <trkpt lat="46.62578" lon="5.52402">
        <ele>440</ele>
        <time>2021-05-29T10:20:50.605Z</time>
      </trkpt>
      <trkpt lat="46.6258" lon="5.52404">
        <ele>440</ele>
        <time>2021-05-29T10:20:51.605Z</time>
      </trkpt>
      <trkpt lat="46.62583" lon="5.52405">
        <ele>440</ele>
        <time>2021-05-29T10:20:52.605Z</time>
      </trkpt>
      <trkpt lat="46.62585" lon="5.52407">
        <ele>440</ele>
        <time>2021-05-29T10:20:53.605Z</time>
      </trkpt>
      <trkpt lat="46.62587" lon="5.52409">
        <ele>440</ele>
        <time>2021-05-29T10:20:54.605Z</time>
      </trkpt>
      <trkpt lat="46.6259" lon="5.52411">
        <ele>440</ele>
        <time>2021-05-29T10:20:55.605Z</time>
      </trkpt>
      <trkpt lat="46.62592" lon="5.52412">
        <ele>440</ele>
        <time>2021-05-29T10:20:56.605Z</time>
      </trkpt>
      <trkpt lat="46.62595" lon="5.52414">
        <ele>440</ele>
        <time>2021-05-29T10:20:57.605Z</time>
      </trkpt>
      <trkpt lat="46.62597" lon="5.52417">
        <ele>440</ele>
        <time>2021-05-29T10:20:58.605Z</time>
      </trkpt>
      <trkpt lat="46.62599" lon="5.52419">
        <ele>439</ele>
        <time>2021-05-29T10:20:59.605Z</time>
      </trkpt>
      <trkpt lat="46.62601" lon="5.52421">
        <ele>439</ele>
        <time>2021-05-29T10:21:00.605Z</time>
      </trkpt>
      <trkpt lat="46.62604" lon="5.52423">
        <ele>439</ele>
        <time>2021-05-29T10:21:01.605Z</time>
      </trkpt>
      <trkpt lat="46.62606" lon="5.52426">
        <ele>438</ele>
        <time>2021-05-29T10:21:02.605Z</time>
      </trkpt>
      <trkpt lat="46.62608" lon="5.52428">
        <ele>438</ele>
        <time>2021-05-29T10:21:03.605Z</time>
      </trkpt>
      <trkpt lat="46.6261" lon="5.5243">
        <ele>438</ele>
        <time>2021-05-29T10:21:04.605Z</time>
      </trkpt>
      <trkpt lat="46.62612" lon="5.52433">
        <ele>437</ele>
        <time>2021-05-29T10:21:05.605Z</time>
      </trkpt>
      <trkpt lat="46.62614" lon="5.52435">
        <ele>437</ele>
        <time>2021-05-29T10:21:06.604Z</time>
      </trkpt>
      <trkpt lat="46.62616" lon="5.52438">
        <ele>437</ele>
        <time>2021-05-29T10:21:07.604Z</time>
      </trkpt>
      <trkpt lat="46.62618" lon="5.5244">
        <ele>437</ele>
        <time>2021-05-29T10:21:08.605Z</time>
      </trkpt>
      <trkpt lat="46.6262" lon="5.52442">
        <ele>437</ele>
        <time>2021-05-29T10:21:09.605Z</time>
      </trkpt>
      <trkpt lat="46.62622" lon="5.52445">
        <ele>437</ele>
        <time>2021-05-29T10:21:10.605Z</time>
      </trkpt>
      <trkpt lat="46.62624" lon="5.52448">
        <ele>437</ele>
        <time>2021-05-29T10:21:11.605Z</time>
      </trkpt>
      <trkpt lat="46.62626" lon="5.5245">
        <ele>437</ele>
        <time>2021-05-29T10:21:12.605Z</time>
      </trkpt>
      <trkpt lat="46.62628" lon="5.52453">
        <ele>437</ele>
        <time>2021-05-29T10:21:13.604Z</time>
      </trkpt>
      <trkpt lat="46.6263" lon="5.52456">
        <ele>437</ele>
        <time>2021-05-29T10:21:14.605Z</time>
      </trkpt>
      <trkpt lat="46.62632" lon="5.52459">
        <ele>437</ele>
        <time>2021-05-29T10:21:47.890Z</time>
      </trkpt>
      <trkpt lat="46.62634" lon="5.52462">
        <ele>436</ele>
        <time>2021-05-29T10:21:48.890Z</time>
      </trkpt>
      <trkpt lat="46.62635" lon="5.52464">
        <ele>436</ele>
        <time>2021-05-29T10:21:49.891Z</time>
      </trkpt>
      <trkpt lat="46.62637" lon="5.52467">
        <ele>436</ele>
        <time>2021-05-29T10:21:50.891Z</time>
      </trkpt>
      <trkpt lat="46.62639" lon="5.52469">
        <ele>436</ele>
        <time>2021-05-29T10:21:51.891Z</time>
      </trkpt>
      <trkpt lat="46.62641" lon="5.52472">
        <ele>435</ele>
        <time>2021-05-29T10:21:52.891Z</time>
      </trkpt>
      <trkpt lat="46.62643" lon="5.52475">
        <ele>435</ele>
        <time>2021-05-29T10:21:53.891Z</time>
      </trkpt>
      <trkpt lat="46.62645" lon="5.52478">
        <ele>435</ele>
        <time>2021-05-29T10:21:54.891Z</time>
      </trkpt>
      <trkpt lat="46.62647" lon="5.52481">
        <ele>435</ele>
        <time>2021-05-29T10:21:55.891Z</time>
      </trkpt>
      <trkpt lat="46.62649" lon="5.52484">
        <ele>435</ele>
        <time>2021-05-29T10:21:56.891Z</time>
      </trkpt>
      <trkpt lat="46.62651" lon="5.52487">
        <ele>434</ele>
        <time>2021-05-29T10:21:57.891Z</time>
      </trkpt>
      <trkpt lat="46.62653" lon="5.52489">
        <ele>434</ele>
        <time>2021-05-29T10:21:58.891Z</time>
      </trkpt>
      <trkpt lat="46.62654" lon="5.52492">
        <ele>433</ele>
        <time>2021-05-29T10:21:59.890Z</time>
      </trkpt>
      <trkpt lat="46.62656" lon="5.52495">
        <ele>433</ele>
        <time>2021-05-29T10:22:00.891Z</time>
      </trkpt>
      <trkpt lat="46.62658" lon="5.52498">
        <ele>433</ele>
        <time>2021-05-29T10:22:01.891Z</time>
      </trkpt>
      <trkpt lat="46.6266" lon="5.52501">
        <ele>433</ele>
        <time>2021-05-29T10:22:02.890Z</time>
      </trkpt>
      <trkpt lat="46.62661" lon="5.52504">
        <ele>434</ele>
        <time>2021-05-29T10:22:03.891Z</time>
      </trkpt>
      <trkpt lat="46.62663" lon="5.52507">
        <ele>434</ele>
        <time>2021-05-29T10:22:04.891Z</time>
      </trkpt>
      <trkpt lat="46.62665" lon="5.52511">
        <ele>435</ele>
        <time>2021-05-29T10:22:05.891Z</time>
      </trkpt>
      <trkpt lat="46.62667" lon="5.52514">
        <ele>435</ele>
        <time>2021-05-29T10:22:06.891Z</time>
      </trkpt>
      <trkpt lat="46.62669" lon="5.52517">
        <ele>435</ele>
        <time>2021-05-29T10:22:07.891Z</time>
      </trkpt>
      <trkpt lat="46.62671" lon="5.5252">
        <ele>435</ele>
        <time>2021-05-29T10:22:08.891Z</time>
      </trkpt>
      <trkpt lat="46.62672" lon="5.52523">
        <ele>435</ele>
        <time>2021-05-29T10:22:09.891Z</time>
      </trkpt>
      <trkpt lat="46.62674" lon="5.52526">
        <ele>434</ele>
        <time>2021-05-29T10:22:10.891Z</time>
      </trkpt>
      <trkpt lat="46.62676" lon="5.52529">
        <ele>434</ele>
        <time>2021-05-29T10:22:11.891Z</time>
      </trkpt>
      <trkpt lat="46.62677" lon="5.52532">
        <ele>433</ele>
        <time>2021-05-29T10:22:12.891Z</time>
      </trkpt>
      <trkpt lat="46.62679" lon="5.52535">
        <ele>433</ele>
        <time>2021-05-29T10:22:13.890Z</time>
      </trkpt>
      <trkpt lat="46.6268" lon="5.52538">
        <ele>433</ele>
        <time>2021-05-29T10:22:14.890Z</time>
      </trkpt>
      <trkpt lat="46.62681" lon="5.52541">
        <ele>432</ele>
        <time>2021-05-29T10:22:15.891Z</time>
      </trkpt>
      <trkpt lat="46.62683" lon="5.52545">
        <ele>432</ele>
        <time>2021-05-29T10:22:16.891Z</time>
      </trkpt>
      <trkpt lat="46.62684" lon="5.52548">
        <ele>432</ele>
        <time>2021-05-29T10:22:17.891Z</time>
      </trkpt>
      <trkpt lat="46.62685" lon="5.52552">
        <ele>432</ele>
        <time>2021-05-29T10:22:18.891Z</time>
      </trkpt>
      <trkpt lat="46.62686" lon="5.52555">
        <ele>431</ele>
        <time>2021-05-29T10:22:19.891Z</time>
      </trkpt>
      <trkpt lat="46.62687" lon="5.52559">
        <ele>431</ele>
        <time>2021-05-29T10:22:20.891Z</time>
      </trkpt>
      <trkpt lat="46.62687" lon="5.52563">
        <ele>431</ele>
        <time>2021-05-29T10:22:21.891Z</time>
      </trkpt>
      <trkpt lat="46.62688" lon="5.52567">
        <ele>431</ele>
        <time>2021-05-29T10:22:22.891Z</time>
      </trkpt>
      <trkpt lat="46.62688" lon="5.52571">
        <ele>431</ele>
        <time>2021-05-29T10:22:23.890Z</time>
      </trkpt>
      <trkpt lat="46.62688" lon="5.52575">
        <ele>430</ele>
        <time>2021-05-29T10:22:24.891Z</time>
      </trkpt>
      <trkpt lat="46.62688" lon="5.52579">
        <ele>430</ele>
        <time>2021-05-29T10:22:25.891Z</time>
      </trkpt>
      <trkpt lat="46.62688" lon="5.52583">
        <ele>430</ele>
        <time>2021-05-29T10:22:26.891Z</time>
      </trkpt>
      <trkpt lat="46.62687" lon="5.52587">
        <ele>429</ele>
        <time>2021-05-29T10:22:27.891Z</time>
      </trkpt>
      <trkpt lat="46.62687" lon="5.52591">
        <ele>429</ele>
        <time>2021-05-29T10:22:28.890Z</time>
      </trkpt>
      <trkpt lat="46.62686" lon="5.52595">
        <ele>429</ele>
        <time>2021-05-29T10:22:29.890Z</time>
      </trkpt>
      <trkpt lat="46.62686" lon="5.52599">
        <ele>429</ele>
        <time>2021-05-29T10:22:30.891Z</time>
      </trkpt>
      <trkpt lat="46.62685" lon="5.52603">
        <ele>429</ele>
        <time>2021-05-29T10:22:31.891Z</time>
      </trkpt>
      <trkpt lat="46.62685" lon="5.52607">
        <ele>429</ele>
        <time>2021-05-29T10:22:32.891Z</time>
      </trkpt>
      <trkpt lat="46.62684" lon="5.5261">
        <ele>429</ele>
        <time>2021-05-29T10:22:33.891Z</time>
      </trkpt>
      <trkpt lat="46.62684" lon="5.52614">
        <ele>429</ele>
        <time>2021-05-29T10:22:34.891Z</time>
      </trkpt>
      <trkpt lat="46.62683" lon="5.52618">
        <ele>429</ele>
        <time>2021-05-29T10:22:35.891Z</time>
      </trkpt>
      <trkpt lat="46.62682" lon="5.52622">
        <ele>429</ele>
        <time>2021-05-29T10:22:36.891Z</time>
      </trkpt>
      <trkpt lat="46.62682" lon="5.52625">
        <ele>429</ele>
        <time>2021-05-29T10:22:37.891Z</time>
      </trkpt>
      <trkpt lat="46.62681" lon="5.52629">
        <ele>429</ele>
        <time>2021-05-29T10:22:38.891Z</time>
      </trkpt>
      <trkpt lat="46.6268" lon="5.52633">
        <ele>428</ele>
        <time>2021-05-29T10:22:39.890Z</time>
      </trkpt>
      <trkpt lat="46.6268" lon="5.52637">
        <ele>428</ele>
        <time>2021-05-29T10:22:40.891Z</time>
      </trkpt>
      <trkpt lat="46.62679" lon="5.5264">
        <ele>428</ele>
        <time>2021-05-29T10:22:41.890Z</time>
      </trkpt>
      <trkpt lat="46.62678" lon="5.52644">
        <ele>427</ele>
        <time>2021-05-29T10:22:42.891Z</time>
      </trkpt>
      <trkpt lat="46.62677" lon="5.52647">
        <ele>427</ele>
        <time>2021-05-29T10:22:43.891Z</time>
      </trkpt>
      <trkpt lat="46.62677" lon="5.52651">
        <ele>427</ele>
        <time>2021-05-29T10:22:44.891Z</time>
      </trkpt>
      <trkpt lat="46.62676" lon="5.52655">
        <ele>427</ele>
        <time>2021-05-29T10:22:45.891Z</time>
      </trkpt>
      <trkpt lat="46.62676" lon="5.52658">
        <ele>427</ele>
        <time>2021-05-29T10:22:46.890Z</time>
      </trkpt>
      <trkpt lat="46.62675" lon="5.52662">
        <ele>428</ele>
        <time>2021-05-29T10:22:47.891Z</time>
      </trkpt>
      <trkpt lat="46.62674" lon="5.52666">
        <ele>428</ele>
        <time>2021-05-29T10:22:48.891Z</time>
      </trkpt>
      <trkpt lat="46.62674" lon="5.52669">
        <ele>428</ele>
        <time>2021-05-29T10:22:49.891Z</time>
      </trkpt>
      <trkpt lat="46.62673" lon="5.52673">
        <ele>428</ele>
        <time>2021-05-29T10:22:50.891Z</time>
      </trkpt>
      <trkpt lat="46.62673" lon="5.52677">
        <ele>427</ele>
        <time>2021-05-29T10:22:51.891Z</time>
      </trkpt>
      <trkpt lat="46.62672" lon="5.5268">
        <ele>427</ele>
        <time>2021-05-29T10:22:52.891Z</time>
      </trkpt>
      <trkpt lat="46.62672" lon="5.52684">
        <ele>427</ele>
        <time>2021-05-29T10:22:53.891Z</time>
      </trkpt>
      <trkpt lat="46.62671" lon="5.52688">
        <ele>428</ele>
        <time>2021-05-29T10:22:54.890Z</time>
      </trkpt>
      <trkpt lat="46.6267" lon="5.52691">
        <ele>428</ele>
        <time>2021-05-29T10:22:55.891Z</time>
      </trkpt>
      <trkpt lat="46.62669" lon="5.52695">
        <ele>428</ele>
        <time>2021-05-29T10:22:56.890Z</time>
      </trkpt>
      <trkpt lat="46.62669" lon="5.52698">
        <ele>428</ele>
        <time>2021-05-29T10:22:57.891Z</time>
      </trkpt>
      <trkpt lat="46.62668" lon="5.52701">
        <ele>428</ele>
        <time>2021-05-29T10:22:58.891Z</time>
      </trkpt>
      <trkpt lat="46.62668" lon="5.52705">
        <ele>428</ele>
        <time>2021-05-29T10:22:59.891Z</time>
      </trkpt>
      <trkpt lat="46.62668" lon="5.52708">
        <ele>428</ele>
        <time>2021-05-29T10:23:00.891Z</time>
      </trkpt>
      <trkpt lat="46.62668" lon="5.52712">
        <ele>428</ele>
        <time>2021-05-29T10:23:01.891Z</time>
      </trkpt>
      <trkpt lat="46.62668" lon="5.52716">
        <ele>429</ele>
        <time>2021-05-29T10:23:02.891Z</time>
      </trkpt>
      <trkpt lat="46.62668" lon="5.5272">
        <ele>429</ele>
        <time>2021-05-29T10:23:03.891Z</time>
      </trkpt>
      <trkpt lat="46.62668" lon="5.52723">
        <ele>428</ele>
        <time>2021-05-29T10:23:04.890Z</time>
      </trkpt>
      <trkpt lat="46.62668" lon="5.52727">
        <ele>428</ele>
        <time>2021-05-29T10:23:05.891Z</time>
      </trkpt>
      <trkpt lat="46.62668" lon="5.5273">
        <ele>428</ele>
        <time>2021-05-29T10:23:06.890Z</time>
      </trkpt>
      <trkpt lat="46.62668" lon="5.52733">
        <ele>428</ele>
        <time>2021-05-29T10:23:07.891Z</time>
      </trkpt>
      <trkpt lat="46.62668" lon="5.52736">
        <ele>429</ele>
        <time>2021-05-29T10:23:08.890Z</time>
      </trkpt>
      <trkpt lat="46.62668" lon="5.52739">
        <ele>429</ele>
        <time>2021-05-29T10:23:09.891Z</time>
      </trkpt>
      <trkpt lat="46.62668" lon="5.52742">
        <ele>429</ele>
        <time>2021-05-29T10:23:10.891Z</time>
      </trkpt>
      <trkpt lat="46.62668" lon="5.52745">
        <ele>429</ele>
        <time>2021-05-29T10:23:11.891Z</time>
      </trkpt>
      <trkpt lat="46.62668" lon="5.52748">
        <ele>429</ele>
        <time>2021-05-29T10:23:12.891Z</time>
      </trkpt>
      <trkpt lat="46.62668" lon="5.52752">
        <ele>430</ele>
        <time>2021-05-29T10:23:13.891Z</time>
      </trkpt>
      <trkpt lat="46.62668" lon="5.52755">
        <ele>430</ele>
        <time>2021-05-29T10:23:14.891Z</time>
      </trkpt>
      <trkpt lat="46.62668" lon="5.52757">
        <ele>431</ele>
        <time>2021-05-29T10:23:15.891Z</time>
      </trkpt>
      <trkpt lat="46.62668" lon="5.5276">
        <ele>431</ele>
        <time>2021-05-29T10:23:16.891Z</time>
      </trkpt>
      <trkpt lat="46.62668" lon="5.52764">
        <ele>431</ele>
        <time>2021-05-29T10:23:17.891Z</time>
      </trkpt>
      <trkpt lat="46.62668" lon="5.52767">
        <ele>432</ele>
        <time>2021-05-29T10:23:18.891Z</time>
      </trkpt>
      <trkpt lat="46.62653" lon="5.52779">
        <ele>447</ele>
        <time>2021-05-29T10:23:19.892Z</time>
      </trkpt>
      <trkpt lat="46.62654" lon="5.52779">
        <ele>446</ele>
        <time>2021-05-29T10:23:20.891Z</time>
      </trkpt>
      <trkpt lat="46.62654" lon="5.52778">
        <ele>445</ele>
        <time>2021-05-29T10:23:21.891Z</time>
      </trkpt>
      <trkpt lat="46.62655" lon="5.52778">
        <ele>444</ele>
        <time>2021-05-29T10:23:22.892Z</time>
      </trkpt>
      <trkpt lat="46.62657" lon="5.52777">
        <ele>443</ele>
        <time>2021-05-29T10:23:23.891Z</time>
      </trkpt>
      <trkpt lat="46.62658" lon="5.52777">
        <ele>442</ele>
        <time>2021-05-29T10:23:24.892Z</time>
      </trkpt>
      <trkpt lat="46.62659" lon="5.52776">
        <ele>441</ele>
        <time>2021-05-29T10:23:25.891Z</time>
      </trkpt>
      <trkpt lat="46.6266" lon="5.52775">
        <ele>440</ele>
        <time>2021-05-29T10:23:26.892Z</time>
      </trkpt>
      <trkpt lat="46.62662" lon="5.52774">
        <ele>440</ele>
        <time>2021-05-29T10:23:27.892Z</time>
      </trkpt>
      <trkpt lat="46.62664" lon="5.52774">
        <ele>439</ele>
        <time>2021-05-29T10:23:28.891Z</time>
      </trkpt>
      <trkpt lat="46.62665" lon="5.52774">
        <ele>438</ele>
        <time>2021-05-29T10:23:29.891Z</time>
      </trkpt>
      <trkpt lat="46.62667" lon="5.52774">
        <ele>437</ele>
        <time>2021-05-29T10:23:30.892Z</time>
      </trkpt>
      <trkpt lat="46.62668" lon="5.52774">
        <ele>436</ele>
        <time>2021-05-29T10:23:31.891Z</time>
      </trkpt>
      <trkpt lat="46.6267" lon="5.52774">
        <ele>435</ele>
        <time>2021-05-29T10:23:32.892Z</time>
      </trkpt>
      <trkpt lat="46.62691" lon="5.52789">
        <ele>432</ele>
        <time>2021-05-29T10:23:33.893Z</time>
      </trkpt>
      <trkpt lat="46.62692" lon="5.5279">
        <ele>432</ele>
        <time>2021-05-29T10:23:34.892Z</time>
      </trkpt>
      <trkpt lat="46.62692" lon="5.52791">
        <ele>433</ele>
        <time>2021-05-29T10:23:35.892Z</time>
      </trkpt>
      <trkpt lat="46.62693" lon="5.52791">
        <ele>433</ele>
        <time>2021-05-29T10:23:36.892Z</time>
      </trkpt>
      <trkpt lat="46.62693" lon="5.52792">
        <ele>433</ele>
        <time>2021-05-29T10:23:37.893Z</time>
      </trkpt>
      <trkpt lat="46.62694" lon="5.52792">
        <ele>434</ele>
        <time>2021-05-29T10:23:38.893Z</time>
      </trkpt>
      <trkpt lat="46.62694" lon="5.52792">
        <ele>434</ele>
        <time>2021-05-29T10:23:39.892Z</time>
      </trkpt>
      <trkpt lat="46.62694" lon="5.52792">
        <ele>434</ele>
        <time>2021-05-29T10:23:40.893Z</time>
      </trkpt>
      <trkpt lat="46.62695" lon="5.52793">
        <ele>434</ele>
        <time>2021-05-29T10:23:41.893Z</time>
      </trkpt>
      <trkpt lat="46.62696" lon="5.52793">
        <ele>434</ele>
        <time>2021-05-29T10:23:42.892Z</time>
      </trkpt>
      <trkpt lat="46.62696" lon="5.52793">
        <ele>434</ele>
        <time>2021-05-29T10:23:43.893Z</time>
      </trkpt>
      <trkpt lat="46.62697" lon="5.52793">
        <ele>434</ele>
        <time>2021-05-29T10:23:44.892Z</time>
      </trkpt>
      <trkpt lat="46.62698" lon="5.52794">
        <ele>434</ele>
        <time>2021-05-29T10:23:45.893Z</time>
      </trkpt>
      <trkpt lat="46.62699" lon="5.52794">
        <ele>434</ele>
        <time>2021-05-29T10:23:46.893Z</time>
      </trkpt>
      <trkpt lat="46.62701" lon="5.52794">
        <ele>434</ele>
        <time>2021-05-29T10:23:47.893Z</time>
      </trkpt>
      <trkpt lat="46.62701" lon="5.52795">
        <ele>434</ele>
        <time>2021-05-29T10:23:48.893Z</time>
      </trkpt>
      <trkpt lat="46.62702" lon="5.52795">
        <ele>435</ele>
        <time>2021-05-29T10:23:49.893Z</time>
      </trkpt>
      <trkpt lat="46.62703" lon="5.52796">
        <ele>435</ele>
        <time>2021-05-29T10:23:50.893Z</time>
      </trkpt>
      <trkpt lat="46.62704" lon="5.52796">
        <ele>435</ele>
        <time>2021-05-29T10:23:51.893Z</time>
      </trkpt>
      <trkpt lat="46.62704" lon="5.52796">
        <ele>435</ele>
        <time>2021-05-29T10:23:52.893Z</time>
      </trkpt>
      <trkpt lat="46.62705" lon="5.52797">
        <ele>434</ele>
        <time>2021-05-29T10:23:53.893Z</time>
      </trkpt>
      <trkpt lat="46.62706" lon="5.52797">
        <ele>434</ele>
        <time>2021-05-29T10:23:54.893Z</time>
      </trkpt>
      <trkpt lat="46.62707" lon="5.52798">
        <ele>434</ele>
        <time>2021-05-29T10:23:55.893Z</time>
      </trkpt>
      <trkpt lat="46.62708" lon="5.52799">
        <ele>435</ele>
        <time>2021-05-29T10:23:56.893Z</time>
      </trkpt>
      <trkpt lat="46.62709" lon="5.528">
        <ele>435</ele>
        <time>2021-05-29T10:23:57.893Z</time>
      </trkpt>
      <trkpt lat="46.6271" lon="5.52801">
        <ele>436</ele>
        <time>2021-05-29T10:23:58.893Z</time>
      </trkpt>
      <trkpt lat="46.6271" lon="5.52802">
        <ele>436</ele>
        <time>2021-05-29T10:23:59.893Z</time>
      </trkpt>
      <trkpt lat="46.62711" lon="5.52802">
        <ele>436</ele>
        <time>2021-05-29T10:24:00.893Z</time>
      </trkpt>
      <trkpt lat="46.62712" lon="5.52803">
        <ele>436</ele>
        <time>2021-05-29T10:24:01.893Z</time>
      </trkpt>
      <trkpt lat="46.62713" lon="5.52803">
        <ele>436</ele>
        <time>2021-05-29T10:24:02.892Z</time>
      </trkpt>
      <trkpt lat="46.62713" lon="5.52804">
        <ele>436</ele>
        <time>2021-05-29T10:24:03.893Z</time>
      </trkpt>
      <trkpt lat="46.62714" lon="5.52805">
        <ele>436</ele>
        <time>2021-05-29T10:24:04.892Z</time>
      </trkpt>
      <trkpt lat="46.62715" lon="5.52806">
        <ele>436</ele>
        <time>2021-05-29T10:24:05.892Z</time>
      </trkpt>
      <trkpt lat="46.62716" lon="5.52806">
        <ele>437</ele>
        <time>2021-05-29T10:24:06.893Z</time>
      </trkpt>
      <trkpt lat="46.62717" lon="5.52807">
        <ele>437</ele>
        <time>2021-05-29T10:24:07.893Z</time>
      </trkpt>
      <trkpt lat="46.62718" lon="5.52807">
        <ele>437</ele>
        <time>2021-05-29T10:24:08.893Z</time>
      </trkpt>
      <trkpt lat="46.62719" lon="5.52807">
        <ele>437</ele>
        <time>2021-05-29T10:24:09.893Z</time>
      </trkpt>
      <trkpt lat="46.62719" lon="5.52808">
        <ele>437</ele>
        <time>2021-05-29T10:24:10.892Z</time>
      </trkpt>
      <trkpt lat="46.62719" lon="5.52808">
        <ele>437</ele>
        <time>2021-05-29T10:24:11.893Z</time>
      </trkpt>
      <trkpt lat="46.6272" lon="5.52808">
        <ele>436</ele>
        <time>2021-05-29T10:24:12.892Z</time>
      </trkpt>
      <trkpt lat="46.6272" lon="5.52809">
        <ele>436</ele>
        <time>2021-05-29T10:24:13.893Z</time>
      </trkpt>
      <trkpt lat="46.62721" lon="5.52809">
        <ele>436</ele>
        <time>2021-05-29T10:24:14.892Z</time>
      </trkpt>
      <trkpt lat="46.62721" lon="5.5281">
        <ele>436</ele>
        <time>2021-05-29T10:24:15.893Z</time>
      </trkpt>
      <trkpt lat="46.62721" lon="5.5281">
        <ele>435</ele>
        <time>2021-05-29T10:24:16.893Z</time>
      </trkpt>
      <trkpt lat="46.62721" lon="5.52811">
        <ele>435</ele>
        <time>2021-05-29T10:24:17.893Z</time>
      </trkpt>
      <trkpt lat="46.62721" lon="5.52811">
        <ele>435</ele>
        <time>2021-05-29T10:24:18.893Z</time>
      </trkpt>
      <trkpt lat="46.62721" lon="5.52811">
        <ele>434</ele>
        <time>2021-05-29T10:24:19.893Z</time>
      </trkpt>
      <trkpt lat="46.62721" lon="5.52812">
        <ele>434</ele>
        <time>2021-05-29T10:24:20.893Z</time>
      </trkpt>
      <trkpt lat="46.62721" lon="5.52812">
        <ele>434</ele>
        <time>2021-05-29T10:24:21.893Z</time>
      </trkpt>
      <trkpt lat="46.62721" lon="5.52813">
        <ele>434</ele>
        <time>2021-05-29T10:24:22.893Z</time>
      </trkpt>
      <trkpt lat="46.62721" lon="5.52814">
        <ele>435</ele>
        <time>2021-05-29T10:24:23.893Z</time>
      </trkpt>
      <trkpt lat="46.62721" lon="5.52814">
        <ele>435</ele>
        <time>2021-05-29T10:24:24.892Z</time>
      </trkpt>
      <trkpt lat="46.62721" lon="5.52814">
        <ele>435</ele>
        <time>2021-05-29T10:24:25.893Z</time>
      </trkpt>
      <trkpt lat="46.62721" lon="5.52814">
        <ele>435</ele>
        <time>2021-05-29T10:24:26.892Z</time>
      </trkpt>
      <trkpt lat="46.62721" lon="5.52814">
        <ele>436</ele>
        <time>2021-05-29T10:24:27.893Z</time>
      </trkpt>
      <trkpt lat="46.62721" lon="5.52814">
        <ele>436</ele>
        <time>2021-05-29T10:24:28.893Z</time>
      </trkpt>
      <trkpt lat="46.62721" lon="5.52814">
        <ele>436</ele>
        <time>2021-05-29T10:24:29.892Z</time>
      </trkpt>
      <trkpt lat="46.62721" lon="5.52814">
        <ele>437</ele>
        <time>2021-05-29T10:24:30.893Z</time>
      </trkpt>
      <trkpt lat="46.62721" lon="5.52814">
        <ele>437</ele>
        <time>2021-05-29T10:24:31.892Z</time>
      </trkpt>
      <trkpt lat="46.62721" lon="5.52814">
        <ele>437</ele>
        <time>2021-05-29T10:24:32.893Z</time>
      </trkpt>
      <trkpt lat="46.62721" lon="5.52814">
        <ele>437</ele>
        <time>2021-05-29T10:24:33.892Z</time>
      </trkpt>
      <trkpt lat="46.62721" lon="5.52814">
        <ele>437</ele>
        <time>2021-05-29T10:24:34.892Z</time>
      </trkpt>
      <trkpt lat="46.62721" lon="5.52814">
        <ele>438</ele>
        <time>2021-05-29T10:24:35.893Z</time>
      </trkpt>
      <trkpt lat="46.62721" lon="5.52814">
        <ele>438</ele>
        <time>2021-05-29T10:24:36.893Z</time>
      </trkpt>
      <trkpt lat="46.62721" lon="5.52814">
        <ele>438</ele>
        <time>2021-05-29T10:24:37.893Z</time>
      </trkpt>
      <trkpt lat="46.62721" lon="5.52814">
        <ele>438</ele>
        <time>2021-05-29T10:24:38.892Z</time>
      </trkpt>
      <trkpt lat="46.62721" lon="5.52814">
        <ele>438</ele>
        <time>2021-05-29T10:24:39.893Z</time>
      </trkpt>
      <trkpt lat="46.62721" lon="5.52814">
        <ele>438</ele>
        <time>2021-05-29T10:24:40.893Z</time>
      </trkpt>
      <trkpt lat="46.62721" lon="5.52814">
        <ele>438</ele>
        <time>2021-05-29T10:24:41.892Z</time>
      </trkpt>
      <trkpt lat="46.62721" lon="5.52814">
        <ele>438</ele>
        <time>2021-05-29T10:24:42.893Z</time>
      </trkpt>
      <trkpt lat="46.62721" lon="5.52814">
        <ele>438</ele>
        <time>2021-05-29T10:24:43.893Z</time>
      </trkpt>
      <trkpt lat="46.62721" lon="5.52814">
        <ele>438</ele>
        <time>2021-05-29T10:24:44.893Z</time>
      </trkpt>
      <trkpt lat="46.62721" lon="5.52814">
        <ele>438</ele>
        <time>2021-05-29T10:24:45.893Z</time>
      </trkpt>
      <trkpt lat="46.62721" lon="5.52814">
        <ele>438</ele>
        <time>2021-05-29T10:24:46.892Z</time>
      </trkpt>
      <trkpt lat="46.62721" lon="5.52814">
        <ele>438</ele>
        <time>2021-05-29T10:24:47.893Z</time>
      </trkpt>
      <trkpt lat="46.62721" lon="5.52814">
        <ele>438</ele>
        <time>2021-05-29T10:24:48.893Z</time>
      </trkpt>
      <trkpt lat="46.62721" lon="5.52814">
        <ele>438</ele>
        <time>2021-05-29T10:24:49.893Z</time>
      </trkpt>
      <trkpt lat="46.62721" lon="5.52814">
        <ele>438</ele>
        <time>2021-05-29T10:24:50.893Z</time>
      </trkpt>
      <trkpt lat="46.62721" lon="5.52814">
        <ele>438</ele>
        <time>2021-05-29T10:24:51.892Z</time>
      </trkpt>
      <trkpt lat="46.62721" lon="5.52814">
        <ele>438</ele>
        <time>2021-05-29T10:24:52.893Z</time>
      </trkpt>
      <trkpt lat="46.6272" lon="5.52814">
        <ele>438</ele>
        <time>2021-05-29T10:24:53.893Z</time>
      </trkpt>
      <trkpt lat="46.6272" lon="5.52814">
        <ele>438</ele>
        <time>2021-05-29T10:24:54.892Z</time>
      </trkpt>
      <trkpt lat="46.6272" lon="5.52814">
        <ele>438</ele>
        <time>2021-05-29T10:24:55.892Z</time>
      </trkpt>
      <trkpt lat="46.6272" lon="5.52814">
        <ele>438</ele>
        <time>2021-05-29T10:24:56.893Z</time>
      </trkpt>
      <trkpt lat="46.6272" lon="5.52814">
        <ele>438</ele>
        <time>2021-05-29T10:24:57.893Z</time>
      </trkpt>
      <trkpt lat="46.6272" lon="5.52814">
        <ele>438</ele>
        <time>2021-05-29T10:24:58.892Z</time>
      </trkpt>
      <trkpt lat="46.6272" lon="5.52814">
        <ele>438</ele>
        <time>2021-05-29T10:24:59.893Z</time>
      </trkpt>
      <trkpt lat="46.6272" lon="5.52815">
        <ele>438</ele>
        <time>2021-05-29T10:25:00.892Z</time>
      </trkpt>
      <trkpt lat="46.6272" lon="5.52815">
        <ele>438</ele>
        <time>2021-05-29T10:25:01.893Z</time>
      </trkpt>
      <trkpt lat="46.6272" lon="5.52815">
        <ele>438</ele>
        <time>2021-05-29T10:25:02.892Z</time>
      </trkpt>
      <trkpt lat="46.6272" lon="5.52815">
        <ele>438</ele>
        <time>2021-05-29T10:25:03.893Z</time>
      </trkpt>
      <trkpt lat="46.6272" lon="5.52815">
        <ele>438</ele>
        <time>2021-05-29T10:25:04.892Z</time>
      </trkpt>
      <trkpt lat="46.6272" lon="5.52815">
        <ele>438</ele>
        <time>2021-05-29T10:25:05.893Z</time>
      </trkpt>
      <trkpt lat="46.6272" lon="5.52815">
        <ele>438</ele>
        <time>2021-05-29T10:25:06.893Z</time>
      </trkpt>
      <trkpt lat="46.6272" lon="5.52816">
        <ele>438</ele>
        <time>2021-05-29T10:25:07.892Z</time>
      </trkpt>
      <trkpt lat="46.6272" lon="5.52816">
        <ele>438</ele>
        <time>2021-05-29T10:25:08.893Z</time>
      </trkpt>
      <trkpt lat="46.6272" lon="5.52816">
        <ele>438</ele>
        <time>2021-05-29T10:25:09.893Z</time>
      </trkpt>
      <trkpt lat="46.6272" lon="5.52816">
        <ele>438</ele>
        <time>2021-05-29T10:25:10.893Z</time>
      </trkpt>
      <trkpt lat="46.6272" lon="5.52816">
        <ele>438</ele>
        <time>2021-05-29T10:25:11.893Z</time>
      </trkpt>
      <trkpt lat="46.6272" lon="5.52816">
        <ele>438</ele>
        <time>2021-05-29T10:25:12.893Z</time>
      </trkpt>
      <trkpt lat="46.62719" lon="5.52818">
        <ele>438</ele>
        <time>2021-05-29T10:25:13.892Z</time>
      </trkpt>
      <trkpt lat="46.62719" lon="5.52821">
        <ele>438</ele>
        <time>2021-05-29T10:25:14.893Z</time>
      </trkpt>
      <trkpt lat="46.62718" lon="5.52823">
        <ele>438</ele>
        <time>2021-05-29T10:25:15.893Z</time>
      </trkpt>
      <trkpt lat="46.62716" lon="5.52826">
        <ele>438</ele>
        <time>2021-05-29T10:25:16.892Z</time>
      </trkpt>
      <trkpt lat="46.62714" lon="5.52829">
        <ele>437</ele>
        <time>2021-05-29T10:25:17.893Z</time>
      </trkpt>
      <trkpt lat="46.62713" lon="5.52831">
        <ele>437</ele>
        <time>2021-05-29T10:25:18.893Z</time>
      </trkpt>
      <trkpt lat="46.62712" lon="5.52834">
        <ele>436</ele>
        <time>2021-05-29T10:25:19.893Z</time>
      </trkpt>
      <trkpt lat="46.6271" lon="5.52836">
        <ele>436</ele>
        <time>2021-05-29T10:25:20.893Z</time>
      </trkpt>
      <trkpt lat="46.62709" lon="5.52838">
        <ele>435</ele>
        <time>2021-05-29T10:25:21.892Z</time>
      </trkpt>
      <trkpt lat="46.62708" lon="5.52839">
        <ele>435</ele>
        <time>2021-05-29T10:25:22.893Z</time>
      </trkpt>
      <trkpt lat="46.62707" lon="5.52841">
        <ele>435</ele>
        <time>2021-05-29T10:25:23.892Z</time>
      </trkpt>
      <trkpt lat="46.62706" lon="5.52842">
        <ele>435</ele>
        <time>2021-05-29T10:25:24.893Z</time>
      </trkpt>
      <trkpt lat="46.62705" lon="5.52844">
        <ele>435</ele>
        <time>2021-05-29T10:25:25.893Z</time>
      </trkpt>
      <trkpt lat="46.62705" lon="5.52846">
        <ele>435</ele>
        <time>2021-05-29T10:25:26.892Z</time>
      </trkpt>
      <trkpt lat="46.62704" lon="5.52849">
        <ele>435</ele>
        <time>2021-05-29T10:25:27.892Z</time>
      </trkpt>
      <trkpt lat="46.62704" lon="5.52851">
        <ele>436</ele>
        <time>2021-05-29T10:25:28.893Z</time>
      </trkpt>
      <trkpt lat="46.62703" lon="5.52853">
        <ele>436</ele>
        <time>2021-05-29T10:25:29.893Z</time>
      </trkpt>
      <trkpt lat="46.62702" lon="5.52856">
        <ele>436</ele>
        <time>2021-05-29T10:25:30.893Z</time>
      </trkpt>
      <trkpt lat="46.62701" lon="5.52858">
        <ele>437</ele>
        <time>2021-05-29T10:25:31.893Z</time>
      </trkpt>
      <trkpt lat="46.62701" lon="5.52859">
        <ele>437</ele>
        <time>2021-05-29T10:25:32.893Z</time>
      </trkpt>
      <trkpt lat="46.627" lon="5.52861">
        <ele>437</ele>
        <time>2021-05-29T10:25:33.892Z</time>
      </trkpt>
      <trkpt lat="46.627" lon="5.52862">
        <ele>438</ele>
        <time>2021-05-29T10:25:34.892Z</time>
      </trkpt>
      <trkpt lat="46.627" lon="5.52863">
        <ele>438</ele>
        <time>2021-05-29T10:25:35.893Z</time>
      </trkpt>
      <trkpt lat="46.627" lon="5.52863">
        <ele>439</ele>
        <time>2021-05-29T10:25:36.893Z</time>
      </trkpt>
      <trkpt lat="46.62699" lon="5.52864">
        <ele>439</ele>
        <time>2021-05-29T10:25:37.892Z</time>
      </trkpt>
      <trkpt lat="46.62699" lon="5.52864">
        <ele>440</ele>
        <time>2021-05-29T10:25:38.892Z</time>
      </trkpt>
      <trkpt lat="46.627" lon="5.52864">
        <ele>441</ele>
        <time>2021-05-29T10:25:39.893Z</time>
      </trkpt>
      <trkpt lat="46.62701" lon="5.52864">
        <ele>442</ele>
        <time>2021-05-29T10:25:40.892Z</time>
      </trkpt>
      <trkpt lat="46.62701" lon="5.52864">
        <ele>443</ele>
        <time>2021-05-29T10:25:41.893Z</time>
      </trkpt>
      <trkpt lat="46.62702" lon="5.52864">
        <ele>443</ele>
        <time>2021-05-29T10:25:42.892Z</time>
      </trkpt>
      <trkpt lat="46.62701" lon="5.52864">
        <ele>444</ele>
        <time>2021-05-29T10:25:43.892Z</time>
      </trkpt>
      <trkpt lat="46.62701" lon="5.52864">
        <ele>445</ele>
        <time>2021-05-29T10:25:44.893Z</time>
      </trkpt>
      <trkpt lat="46.627" lon="5.52863">
        <ele>444</ele>
        <time>2021-05-29T10:25:45.893Z</time>
      </trkpt>
      <trkpt lat="46.627" lon="5.52864">
        <ele>444</ele>
        <time>2021-05-29T10:25:46.893Z</time>
      </trkpt>
      <trkpt lat="46.627" lon="5.52865">
        <ele>444</ele>
        <time>2021-05-29T10:25:47.892Z</time>
      </trkpt>
      <trkpt lat="46.627" lon="5.52866">
        <ele>443</ele>
        <time>2021-05-29T10:25:48.893Z</time>
      </trkpt>
      <trkpt lat="46.627" lon="5.52866">
        <ele>443</ele>
        <time>2021-05-29T10:25:49.893Z</time>
      </trkpt>
      <trkpt lat="46.627" lon="5.52866">
        <ele>442</ele>
        <time>2021-05-29T10:25:50.893Z</time>
      </trkpt>
      <trkpt lat="46.627" lon="5.52866">
        <ele>442</ele>
        <time>2021-05-29T10:25:51.893Z</time>
      </trkpt>
      <trkpt lat="46.627" lon="5.52866">
        <ele>442</ele>
        <time>2021-05-29T10:25:52.893Z</time>
      </trkpt>
      <trkpt lat="46.627" lon="5.52866">
        <ele>443</ele>
        <time>2021-05-29T10:25:53.893Z</time>
      </trkpt>
      <trkpt lat="46.627" lon="5.52867">
        <ele>443</ele>
        <time>2021-05-29T10:25:54.892Z</time>
      </trkpt>
      <trkpt lat="46.62701" lon="5.52867">
        <ele>443</ele>
        <time>2021-05-29T10:25:55.892Z</time>
      </trkpt>
      <trkpt lat="46.62701" lon="5.52867">
        <ele>443</ele>
        <time>2021-05-29T10:25:56.892Z</time>
      </trkpt>
      <trkpt lat="46.62702" lon="5.52867">
        <ele>443</ele>
        <time>2021-05-29T10:25:57.893Z</time>
      </trkpt>
      <trkpt lat="46.62703" lon="5.52866">
        <ele>444</ele>
        <time>2021-05-29T10:25:58.893Z</time>
      </trkpt>
      <trkpt lat="46.62705" lon="5.52867">
        <ele>444</ele>
        <time>2021-05-29T10:25:59.892Z</time>
      </trkpt>
      <trkpt lat="46.62706" lon="5.52867">
        <ele>444</ele>
        <time>2021-05-29T10:26:00.892Z</time>
      </trkpt>
      <trkpt lat="46.62707" lon="5.52868">
        <ele>444</ele>
        <time>2021-05-29T10:26:01.893Z</time>
      </trkpt>
      <trkpt lat="46.62708" lon="5.52868">
        <ele>444</ele>
        <time>2021-05-29T10:26:02.892Z</time>
      </trkpt>
      <trkpt lat="46.62708" lon="5.52868">
        <ele>444</ele>
        <time>2021-05-29T10:26:03.892Z</time>
      </trkpt>
      <trkpt lat="46.62709" lon="5.52869">
        <ele>444</ele>
        <time>2021-05-29T10:26:04.892Z</time>
      </trkpt>
      <trkpt lat="46.62709" lon="5.52869">
        <ele>444</ele>
        <time>2021-05-29T10:26:05.892Z</time>
      </trkpt>
      <trkpt lat="46.6271" lon="5.5287">
        <ele>444</ele>
        <time>2021-05-29T10:26:06.893Z</time>
      </trkpt>
      <trkpt lat="46.62711" lon="5.52871">
        <ele>445</ele>
        <time>2021-05-29T10:26:07.893Z</time>
      </trkpt>
      <trkpt lat="46.62712" lon="5.52872">
        <ele>445</ele>
        <time>2021-05-29T10:26:08.892Z</time>
      </trkpt>
      <trkpt lat="46.62712" lon="5.52873">
        <ele>445</ele>
        <time>2021-05-29T10:26:09.893Z</time>
      </trkpt>
      <trkpt lat="46.62713" lon="5.52873">
        <ele>445</ele>
        <time>2021-05-29T10:26:10.893Z</time>
      </trkpt>
      <trkpt lat="46.62713" lon="5.52873">
        <ele>446</ele>
        <time>2021-05-29T10:26:11.893Z</time>
      </trkpt>
      <trkpt lat="46.62714" lon="5.52874">
        <ele>446</ele>
        <time>2021-05-29T10:26:12.893Z</time>
      </trkpt>
      <trkpt lat="46.62715" lon="5.52874">
        <ele>446</ele>
        <time>2021-05-29T10:26:13.892Z</time>
      </trkpt>
      <trkpt lat="46.62716" lon="5.52875">
        <ele>446</ele>
        <time>2021-05-29T10:26:14.893Z</time>
      </trkpt>
      <trkpt lat="46.62717" lon="5.52875">
        <ele>446</ele>
        <time>2021-05-29T10:26:15.893Z</time>
      </trkpt>
      <trkpt lat="46.62718" lon="5.52875">
        <ele>446</ele>
        <time>2021-05-29T10:26:16.893Z</time>
      </trkpt>
      <trkpt lat="46.62719" lon="5.52876">
        <ele>446</ele>
        <time>2021-05-29T10:26:17.893Z</time>
      </trkpt>
      <trkpt lat="46.6272" lon="5.52876">
        <ele>445</ele>
        <time>2021-05-29T10:26:18.892Z</time>
      </trkpt>
      <trkpt lat="46.62721" lon="5.52877">
        <ele>445</ele>
        <time>2021-05-29T10:26:19.893Z</time>
      </trkpt>
      <trkpt lat="46.62722" lon="5.52879">
        <ele>444</ele>
        <time>2021-05-29T10:26:20.893Z</time>
      </trkpt>
      <trkpt lat="46.62723" lon="5.52879">
        <ele>444</ele>
        <time>2021-05-29T10:26:21.892Z</time>
      </trkpt>
      <trkpt lat="46.62724" lon="5.5288">
        <ele>443</ele>
        <time>2021-05-29T10:26:22.893Z</time>
      </trkpt>
      <trkpt lat="46.62725" lon="5.5288">
        <ele>443</ele>
        <time>2021-05-29T10:26:23.893Z</time>
      </trkpt>
      <trkpt lat="46.62726" lon="5.5288">
        <ele>443</ele>
        <time>2021-05-29T10:26:24.893Z</time>
      </trkpt>
      <trkpt lat="46.62727" lon="5.52881">
        <ele>443</ele>
        <time>2021-05-29T10:26:25.892Z</time>
      </trkpt>
      <trkpt lat="46.62729" lon="5.52882">
        <ele>443</ele>
        <time>2021-05-29T10:26:26.893Z</time>
      </trkpt>
      <trkpt lat="46.6273" lon="5.52882">
        <ele>443</ele>
        <time>2021-05-29T10:26:27.893Z</time>
      </trkpt>
      <trkpt lat="46.62731" lon="5.52883">
        <ele>443</ele>
        <time>2021-05-29T10:26:28.893Z</time>
      </trkpt>
      <trkpt lat="46.62732" lon="5.52883">
        <ele>444</ele>
        <time>2021-05-29T10:26:29.893Z</time>
      </trkpt>
      <trkpt lat="46.62733" lon="5.52884">
        <ele>444</ele>
        <time>2021-05-29T10:26:30.893Z</time>
      </trkpt>
      <trkpt lat="46.62735" lon="5.52884">
        <ele>444</ele>
        <time>2021-05-29T10:26:31.893Z</time>
      </trkpt>
      <trkpt lat="46.62736" lon="5.52884">
        <ele>444</ele>
        <time>2021-05-29T10:26:32.893Z</time>
      </trkpt>
      <trkpt lat="46.62737" lon="5.52885">
        <ele>444</ele>
        <time>2021-05-29T10:26:33.893Z</time>
      </trkpt>
      <trkpt lat="46.62738" lon="5.52885">
        <ele>444</ele>
        <time>2021-05-29T10:26:34.893Z</time>
      </trkpt>
      <trkpt lat="46.62739" lon="5.52886">
        <ele>444</ele>
        <time>2021-05-29T10:26:35.892Z</time>
      </trkpt>
      <trkpt lat="46.6274" lon="5.52886">
        <ele>444</ele>
        <time>2021-05-29T10:26:36.893Z</time>
      </trkpt>
      <trkpt lat="46.62742" lon="5.52886">
        <ele>444</ele>
        <time>2021-05-29T10:26:37.893Z</time>
      </trkpt>
      <trkpt lat="46.62743" lon="5.52887">
        <ele>445</ele>
        <time>2021-05-29T10:26:38.893Z</time>
      </trkpt>
      <trkpt lat="46.62744" lon="5.52887">
        <ele>445</ele>
        <time>2021-05-29T10:26:39.893Z</time>
      </trkpt>
      <trkpt lat="46.62745" lon="5.52887">
        <ele>445</ele>
        <time>2021-05-29T10:26:40.893Z</time>
      </trkpt>
      <trkpt lat="46.62746" lon="5.52888">
        <ele>446</ele>
        <time>2021-05-29T10:26:41.893Z</time>
      </trkpt>
      <trkpt lat="46.62748" lon="5.52888">
        <ele>446</ele>
        <time>2021-05-29T10:26:42.893Z</time>
      </trkpt>
      <trkpt lat="46.62749" lon="5.52889">
        <ele>445</ele>
        <time>2021-05-29T10:26:43.893Z</time>
      </trkpt>
      <trkpt lat="46.6275" lon="5.52889">
        <ele>445</ele>
        <time>2021-05-29T10:26:44.893Z</time>
      </trkpt>
      <trkpt lat="46.62751" lon="5.5289">
        <ele>445</ele>
        <time>2021-05-29T10:26:45.892Z</time>
      </trkpt>
      <trkpt lat="46.62752" lon="5.5289">
        <ele>444</ele>
        <time>2021-05-29T10:26:46.893Z</time>
      </trkpt>
      <trkpt lat="46.62753" lon="5.5289">
        <ele>444</ele>
        <time>2021-05-29T10:26:47.893Z</time>
      </trkpt>
      <trkpt lat="46.62754" lon="5.5289">
        <ele>444</ele>
        <time>2021-05-29T10:26:48.893Z</time>
      </trkpt>
      <trkpt lat="46.62755" lon="5.5289">
        <ele>444</ele>
        <time>2021-05-29T10:26:49.892Z</time>
      </trkpt>
      <trkpt lat="46.62756" lon="5.52891">
        <ele>444</ele>
        <time>2021-05-29T10:26:50.892Z</time>
      </trkpt>
      <trkpt lat="46.62757" lon="5.52891">
        <ele>444</ele>
        <time>2021-05-29T10:26:51.893Z</time>
      </trkpt>
      <trkpt lat="46.62758" lon="5.52891">
        <ele>444</ele>
        <time>2021-05-29T10:26:52.892Z</time>
      </trkpt>
      <trkpt lat="46.62759" lon="5.52891">
        <ele>445</ele>
        <time>2021-05-29T10:26:53.893Z</time>
      </trkpt>
      <trkpt lat="46.6276" lon="5.52892">
        <ele>445</ele>
        <time>2021-05-29T10:26:54.893Z</time>
      </trkpt>
      <trkpt lat="46.62761" lon="5.52892">
        <ele>444</ele>
        <time>2021-05-29T10:26:55.893Z</time>
      </trkpt>
      <trkpt lat="46.62762" lon="5.52892">
        <ele>444</ele>
        <time>2021-05-29T10:26:56.893Z</time>
      </trkpt>
      <trkpt lat="46.62763" lon="5.52893">
        <ele>444</ele>
        <time>2021-05-29T10:26:57.892Z</time>
      </trkpt>
      <trkpt lat="46.62763" lon="5.52893">
        <ele>444</ele>
        <time>2021-05-29T10:26:58.893Z</time>
      </trkpt>
      <trkpt lat="46.62764" lon="5.52894">
        <ele>444</ele>
        <time>2021-05-29T10:26:59.892Z</time>
      </trkpt>
      <trkpt lat="46.62766" lon="5.52894">
        <ele>444</ele>
        <time>2021-05-29T10:27:00.893Z</time>
      </trkpt>
      <trkpt lat="46.62767" lon="5.52895">
        <ele>444</ele>
        <time>2021-05-29T10:27:01.893Z</time>
      </trkpt>
      <trkpt lat="46.62768" lon="5.52896">
        <ele>444</ele>
        <time>2021-05-29T10:27:02.893Z</time>
      </trkpt>
      <trkpt lat="46.62769" lon="5.52897">
        <ele>444</ele>
        <time>2021-05-29T10:27:03.893Z</time>
      </trkpt>
      <trkpt lat="46.6277" lon="5.52897">
        <ele>444</ele>
        <time>2021-05-29T10:27:04.893Z</time>
      </trkpt>
      <trkpt lat="46.62771" lon="5.52899">
        <ele>444</ele>
        <time>2021-05-29T10:27:05.893Z</time>
      </trkpt>
      <trkpt lat="46.62772" lon="5.52899">
        <ele>444</ele>
        <time>2021-05-29T10:27:06.892Z</time>
      </trkpt>
      <trkpt lat="46.62772" lon="5.52899">
        <ele>444</ele>
        <time>2021-05-29T10:27:07.893Z</time>
      </trkpt>
      <trkpt lat="46.62773" lon="5.529">
        <ele>444</ele>
        <time>2021-05-29T10:27:08.892Z</time>
      </trkpt>
      <trkpt lat="46.62773" lon="5.52901">
        <ele>444</ele>
        <time>2021-05-29T10:27:09.892Z</time>
      </trkpt>
      <trkpt lat="46.62774" lon="5.52901">
        <ele>444</ele>
        <time>2021-05-29T10:27:10.893Z</time>
      </trkpt>
      <trkpt lat="46.62774" lon="5.52901">
        <ele>443</ele>
        <time>2021-05-29T10:27:11.892Z</time>
      </trkpt>
      <trkpt lat="46.62774" lon="5.52901">
        <ele>443</ele>
        <time>2021-05-29T10:27:12.892Z</time>
      </trkpt>
      <trkpt lat="46.62774" lon="5.52901">
        <ele>443</ele>
        <time>2021-05-29T10:27:13.892Z</time>
      </trkpt>
      <trkpt lat="46.62774" lon="5.52901">
        <ele>443</ele>
        <time>2021-05-29T10:27:14.893Z</time>
      </trkpt>
      <trkpt lat="46.62774" lon="5.52901">
        <ele>443</ele>
        <time>2021-05-29T10:27:15.893Z</time>
      </trkpt>
      <trkpt lat="46.62775" lon="5.52901">
        <ele>443</ele>
        <time>2021-05-29T10:27:16.893Z</time>
      </trkpt>
      <trkpt lat="46.62777" lon="5.529">
        <ele>443</ele>
        <time>2021-05-29T10:27:17.892Z</time>
      </trkpt>
      <trkpt lat="46.6278" lon="5.529">
        <ele>443</ele>
        <time>2021-05-29T10:27:18.892Z</time>
      </trkpt>
      <trkpt lat="46.62783" lon="5.529">
        <ele>443</ele>
        <time>2021-05-29T10:27:19.892Z</time>
      </trkpt>
      <trkpt lat="46.62785" lon="5.529">
        <ele>444</ele>
        <time>2021-05-29T10:27:20.893Z</time>
      </trkpt>
      <trkpt lat="46.62788" lon="5.529">
        <ele>444</ele>
        <time>2021-05-29T10:27:21.892Z</time>
      </trkpt>
      <trkpt lat="46.6279" lon="5.529">
        <ele>444</ele>
        <time>2021-05-29T10:27:22.893Z</time>
      </trkpt>
      <trkpt lat="46.62793" lon="5.529">
        <ele>444</ele>
        <time>2021-05-29T10:27:23.892Z</time>
      </trkpt>
      <trkpt lat="46.62795" lon="5.52901">
        <ele>444</ele>
        <time>2021-05-29T10:27:24.892Z</time>
      </trkpt>
      <trkpt lat="46.62798" lon="5.52901">
        <ele>444</ele>
        <time>2021-05-29T10:27:25.893Z</time>
      </trkpt>
      <trkpt lat="46.628" lon="5.52901">
        <ele>444</ele>
        <time>2021-05-29T10:27:26.893Z</time>
      </trkpt>
      <trkpt lat="46.62801" lon="5.52902">
        <ele>444</ele>
        <time>2021-05-29T10:27:27.893Z</time>
      </trkpt>
      <trkpt lat="46.62803" lon="5.52903">
        <ele>443</ele>
        <time>2021-05-29T10:27:28.893Z</time>
      </trkpt>
      <trkpt lat="46.62805" lon="5.52903">
        <ele>443</ele>
        <time>2021-05-29T10:27:29.892Z</time>
      </trkpt>
      <trkpt lat="46.62807" lon="5.52904">
        <ele>442</ele>
        <time>2021-05-29T10:27:30.893Z</time>
      </trkpt>
      <trkpt lat="46.62809" lon="5.52904">
        <ele>443</ele>
        <time>2021-05-29T10:27:31.892Z</time>
      </trkpt>
      <trkpt lat="46.62811" lon="5.52904">
        <ele>443</ele>
        <time>2021-05-29T10:27:32.893Z</time>
      </trkpt>
      <trkpt lat="46.62813" lon="5.52904">
        <ele>443</ele>
        <time>2021-05-29T10:27:33.893Z</time>
      </trkpt>
      <trkpt lat="46.62815" lon="5.52904">
        <ele>443</ele>
        <time>2021-05-29T10:27:34.893Z</time>
      </trkpt>
      <trkpt lat="46.62817" lon="5.52903">
        <ele>443</ele>
        <time>2021-05-29T10:27:35.893Z</time>
      </trkpt>
      <trkpt lat="46.62819" lon="5.52903">
        <ele>444</ele>
        <time>2021-05-29T10:27:36.893Z</time>
      </trkpt>
      <trkpt lat="46.62821" lon="5.52902">
        <ele>444</ele>
        <time>2021-05-29T10:27:37.893Z</time>
      </trkpt>
      <trkpt lat="46.62823" lon="5.529">
        <ele>445</ele>
        <time>2021-05-29T10:27:38.893Z</time>
      </trkpt>
      <trkpt lat="46.62825" lon="5.52899">
        <ele>445</ele>
        <time>2021-05-29T10:27:39.892Z</time>
      </trkpt>
      <trkpt lat="46.62827" lon="5.52898">
        <ele>446</ele>
        <time>2021-05-29T10:27:40.892Z</time>
      </trkpt>
      <trkpt lat="46.62828" lon="5.52896">
        <ele>447</ele>
        <time>2021-05-29T10:27:41.892Z</time>
      </trkpt>
      <trkpt lat="46.6283" lon="5.52895">
        <ele>447</ele>
        <time>2021-05-29T10:27:42.892Z</time>
      </trkpt>
      <trkpt lat="46.62832" lon="5.52894">
        <ele>447</ele>
        <time>2021-05-29T10:27:43.893Z</time>
      </trkpt>
      <trkpt lat="46.62834" lon="5.52893">
        <ele>447</ele>
        <time>2021-05-29T10:27:44.893Z</time>
      </trkpt>
      <trkpt lat="46.62836" lon="5.52893">
        <ele>447</ele>
        <time>2021-05-29T10:27:45.892Z</time>
      </trkpt>
      <trkpt lat="46.62838" lon="5.52893">
        <ele>447</ele>
        <time>2021-05-29T10:27:46.893Z</time>
      </trkpt>
      <trkpt lat="46.6284" lon="5.52894">
        <ele>447</ele>
        <time>2021-05-29T10:27:47.893Z</time>
      </trkpt>
      <trkpt lat="46.62842" lon="5.52894">
        <ele>447</ele>
        <time>2021-05-29T10:27:48.893Z</time>
      </trkpt>
      <trkpt lat="46.62844" lon="5.52895">
        <ele>446</ele>
        <time>2021-05-29T10:27:49.893Z</time>
      </trkpt>
      <trkpt lat="46.62846" lon="5.52896">
        <ele>447</ele>
        <time>2021-05-29T10:27:50.893Z</time>
      </trkpt>
      <trkpt lat="46.62848" lon="5.52896">
        <ele>447</ele>
        <time>2021-05-29T10:27:51.893Z</time>
      </trkpt>
      <trkpt lat="46.62851" lon="5.52897">
        <ele>447</ele>
        <time>2021-05-29T10:27:52.893Z</time>
      </trkpt>
      <trkpt lat="46.62853" lon="5.52898">
        <ele>447</ele>
        <time>2021-05-29T10:27:53.893Z</time>
      </trkpt>
      <trkpt lat="46.62855" lon="5.52898">
        <ele>448</ele>
        <time>2021-05-29T10:27:54.893Z</time>
      </trkpt>
      <trkpt lat="46.62857" lon="5.52898">
        <ele>448</ele>
        <time>2021-05-29T10:27:55.893Z</time>
      </trkpt>
      <trkpt lat="46.62859" lon="5.52899">
        <ele>448</ele>
        <time>2021-05-29T10:27:56.893Z</time>
      </trkpt>
      <trkpt lat="46.62861" lon="5.529">
        <ele>448</ele>
        <time>2021-05-29T10:27:57.893Z</time>
      </trkpt>
      <trkpt lat="46.62863" lon="5.52901">
        <ele>448</ele>
        <time>2021-05-29T10:27:58.892Z</time>
      </trkpt>
      <trkpt lat="46.62865" lon="5.52902">
        <ele>449</ele>
        <time>2021-05-29T10:27:59.892Z</time>
      </trkpt>
      <trkpt lat="46.62867" lon="5.52902">
        <ele>449</ele>
        <time>2021-05-29T10:28:00.893Z</time>
      </trkpt>
      <trkpt lat="46.62869" lon="5.52903">
        <ele>450</ele>
        <time>2021-05-29T10:28:01.893Z</time>
      </trkpt>
      <trkpt lat="46.62871" lon="5.52903">
        <ele>450</ele>
        <time>2021-05-29T10:28:02.892Z</time>
      </trkpt>
      <trkpt lat="46.62873" lon="5.52903">
        <ele>450</ele>
        <time>2021-05-29T10:28:03.892Z</time>
      </trkpt>
      <trkpt lat="46.62876" lon="5.52903">
        <ele>449</ele>
        <time>2021-05-29T10:28:04.892Z</time>
      </trkpt>
      <trkpt lat="46.62878" lon="5.52904">
        <ele>449</ele>
        <time>2021-05-29T10:28:05.893Z</time>
      </trkpt>
      <trkpt lat="46.6288" lon="5.52904">
        <ele>448</ele>
        <time>2021-05-29T10:28:06.892Z</time>
      </trkpt>
      <trkpt lat="46.62882" lon="5.52905">
        <ele>448</ele>
        <time>2021-05-29T10:28:07.893Z</time>
      </trkpt>
      <trkpt lat="46.62884" lon="5.52906">
        <ele>448</ele>
        <time>2021-05-29T10:28:08.893Z</time>
      </trkpt>
      <trkpt lat="46.62886" lon="5.52907">
        <ele>448</ele>
        <time>2021-05-29T10:28:09.892Z</time>
      </trkpt>
      <trkpt lat="46.62888" lon="5.52908">
        <ele>447</ele>
        <time>2021-05-29T10:28:10.892Z</time>
      </trkpt>
      <trkpt lat="46.6289" lon="5.5291">
        <ele>447</ele>
        <time>2021-05-29T10:28:11.893Z</time>
      </trkpt>
      <trkpt lat="46.62893" lon="5.52911">
        <ele>447</ele>
        <time>2021-05-29T10:28:12.893Z</time>
      </trkpt>
      <trkpt lat="46.62895" lon="5.52912">
        <ele>447</ele>
        <time>2021-05-29T10:28:13.892Z</time>
      </trkpt>
      <trkpt lat="46.62897" lon="5.52912">
        <ele>446</ele>
        <time>2021-05-29T10:28:14.893Z</time>
      </trkpt>
      <trkpt lat="46.62899" lon="5.52913">
        <ele>445</ele>
        <time>2021-05-29T10:28:15.892Z</time>
      </trkpt>
      <trkpt lat="46.62901" lon="5.52915">
        <ele>445</ele>
        <time>2021-05-29T10:28:16.892Z</time>
      </trkpt>
      <trkpt lat="46.62903" lon="5.52916">
        <ele>445</ele>
        <time>2021-05-29T10:28:17.892Z</time>
      </trkpt>
      <trkpt lat="46.62905" lon="5.52919">
        <ele>445</ele>
        <time>2021-05-29T10:28:18.893Z</time>
      </trkpt>
      <trkpt lat="46.62907" lon="5.52921">
        <ele>445</ele>
        <time>2021-05-29T10:28:19.892Z</time>
      </trkpt>
      <trkpt lat="46.62909" lon="5.52923">
        <ele>444</ele>
        <time>2021-05-29T10:28:20.892Z</time>
      </trkpt>
      <trkpt lat="46.6291" lon="5.52924">
        <ele>444</ele>
        <time>2021-05-29T10:28:21.893Z</time>
      </trkpt>
      <trkpt lat="46.62912" lon="5.52926">
        <ele>444</ele>
        <time>2021-05-29T10:28:22.893Z</time>
      </trkpt>
      <trkpt lat="46.62914" lon="5.52928">
        <ele>444</ele>
        <time>2021-05-29T10:28:23.893Z</time>
      </trkpt>
      <trkpt lat="46.62915" lon="5.5293">
        <ele>445</ele>
        <time>2021-05-29T10:28:24.892Z</time>
      </trkpt>
      <trkpt lat="46.62917" lon="5.52931">
        <ele>446</ele>
        <time>2021-05-29T10:28:25.893Z</time>
      </trkpt>
      <trkpt lat="46.62919" lon="5.52933">
        <ele>446</ele>
        <time>2021-05-29T10:28:26.893Z</time>
      </trkpt>
      <trkpt lat="46.6292" lon="5.52935">
        <ele>446</ele>
        <time>2021-05-29T10:28:27.893Z</time>
      </trkpt>
      <trkpt lat="46.62922" lon="5.52937">
        <ele>446</ele>
        <time>2021-05-29T10:28:28.892Z</time>
      </trkpt>
      <trkpt lat="46.62923" lon="5.52939">
        <ele>447</ele>
        <time>2021-05-29T10:28:29.893Z</time>
      </trkpt>
      <trkpt lat="46.62925" lon="5.52941">
        <ele>447</ele>
        <time>2021-05-29T10:28:30.893Z</time>
      </trkpt>
      <trkpt lat="46.62927" lon="5.52943">
        <ele>447</ele>
        <time>2021-05-29T10:28:31.892Z</time>
      </trkpt>
      <trkpt lat="46.62929" lon="5.52945">
        <ele>447</ele>
        <time>2021-05-29T10:28:32.893Z</time>
      </trkpt>
      <trkpt lat="46.62931" lon="5.52947">
        <ele>447</ele>
        <time>2021-05-29T10:28:33.893Z</time>
      </trkpt>
      <trkpt lat="46.62933" lon="5.52949">
        <ele>447</ele>
        <time>2021-05-29T10:28:34.893Z</time>
      </trkpt>
      <trkpt lat="46.62935" lon="5.52951">
        <ele>448</ele>
        <time>2021-05-29T10:28:35.893Z</time>
      </trkpt>
      <trkpt lat="46.62937" lon="5.52953">
        <ele>448</ele>
        <time>2021-05-29T10:28:36.893Z</time>
      </trkpt>
      <trkpt lat="46.62939" lon="5.52955">
        <ele>448</ele>
        <time>2021-05-29T10:28:37.893Z</time>
      </trkpt>
      <trkpt lat="46.62941" lon="5.52957">
        <ele>448</ele>
        <time>2021-05-29T10:28:38.893Z</time>
      </trkpt>
      <trkpt lat="46.62943" lon="5.52958">
        <ele>448</ele>
        <time>2021-05-29T10:28:39.892Z</time>
      </trkpt>
      <trkpt lat="46.62944" lon="5.5296">
        <ele>448</ele>
        <time>2021-05-29T10:28:40.892Z</time>
      </trkpt>
      <trkpt lat="46.62946" lon="5.52962">
        <ele>448</ele>
        <time>2021-05-29T10:28:41.893Z</time>
      </trkpt>
      <trkpt lat="46.62948" lon="5.52964">
        <ele>448</ele>
        <time>2021-05-29T10:28:42.893Z</time>
      </trkpt>
      <trkpt lat="46.62951" lon="5.52965">
        <ele>449</ele>
        <time>2021-05-29T10:28:43.893Z</time>
      </trkpt>
      <trkpt lat="46.62953" lon="5.52966">
        <ele>449</ele>
        <time>2021-05-29T10:28:44.892Z</time>
      </trkpt>
      <trkpt lat="46.62956" lon="5.52967">
        <ele>449</ele>
        <time>2021-05-29T10:28:45.893Z</time>
      </trkpt>
      <trkpt lat="46.62959" lon="5.52968">
        <ele>450</ele>
        <time>2021-05-29T10:28:46.892Z</time>
      </trkpt>
      <trkpt lat="46.62962" lon="5.5297">
        <ele>450</ele>
        <time>2021-05-29T10:28:47.893Z</time>
      </trkpt>
      <trkpt lat="46.62964" lon="5.52971">
        <ele>450</ele>
        <time>2021-05-29T10:28:48.893Z</time>
      </trkpt>
      <trkpt lat="46.62967" lon="5.52972">
        <ele>450</ele>
        <time>2021-05-29T10:28:49.893Z</time>
      </trkpt>
      <trkpt lat="46.62969" lon="5.52973">
        <ele>450</ele>
        <time>2021-05-29T10:28:50.893Z</time>
      </trkpt>
      <trkpt lat="46.62971" lon="5.52974">
        <ele>450</ele>
        <time>2021-05-29T10:28:51.893Z</time>
      </trkpt>
      <trkpt lat="46.62974" lon="5.52975">
        <ele>450</ele>
        <time>2021-05-29T10:28:52.893Z</time>
      </trkpt>
      <trkpt lat="46.62976" lon="5.52976">
        <ele>450</ele>
        <time>2021-05-29T10:28:53.893Z</time>
      </trkpt>
      <trkpt lat="46.62978" lon="5.52976">
        <ele>450</ele>
        <time>2021-05-29T10:28:54.893Z</time>
      </trkpt>
      <trkpt lat="46.6298" lon="5.52977">
        <ele>450</ele>
        <time>2021-05-29T10:28:55.893Z</time>
      </trkpt>
      <trkpt lat="46.62982" lon="5.52978">
        <ele>450</ele>
        <time>2021-05-29T10:28:56.893Z</time>
      </trkpt>
      <trkpt lat="46.62984" lon="5.52978">
        <ele>449</ele>
        <time>2021-05-29T10:28:57.892Z</time>
      </trkpt>
      <trkpt lat="46.62986" lon="5.52979">
        <ele>449</ele>
        <time>2021-05-29T10:28:58.893Z</time>
      </trkpt>
      <trkpt lat="46.62988" lon="5.5298">
        <ele>449</ele>
        <time>2021-05-29T10:28:59.892Z</time>
      </trkpt>
      <trkpt lat="46.6299" lon="5.5298">
        <ele>449</ele>
        <time>2021-05-29T10:29:00.893Z</time>
      </trkpt>
      <trkpt lat="46.62992" lon="5.52981">
        <ele>449</ele>
        <time>2021-05-29T10:29:01.892Z</time>
      </trkpt>
      <trkpt lat="46.62995" lon="5.52982">
        <ele>449</ele>
        <time>2021-05-29T10:29:02.893Z</time>
      </trkpt>
      <trkpt lat="46.62997" lon="5.52982">
        <ele>449</ele>
        <time>2021-05-29T10:29:03.893Z</time>
      </trkpt>
      <trkpt lat="46.62999" lon="5.52982">
        <ele>449</ele>
        <time>2021-05-29T10:29:04.893Z</time>
      </trkpt>
      <trkpt lat="46.63001" lon="5.52982">
        <ele>449</ele>
        <time>2021-05-29T10:29:05.893Z</time>
      </trkpt>
      <trkpt lat="46.63003" lon="5.52982">
        <ele>449</ele>
        <time>2021-05-29T10:29:06.893Z</time>
      </trkpt>
      <trkpt lat="46.63005" lon="5.52982">
        <ele>449</ele>
        <time>2021-05-29T10:29:07.892Z</time>
      </trkpt>
      <trkpt lat="46.63008" lon="5.52981">
        <ele>449</ele>
        <time>2021-05-29T10:29:08.892Z</time>
      </trkpt>
      <trkpt lat="46.6301" lon="5.52981">
        <ele>449</ele>
        <time>2021-05-29T10:29:09.893Z</time>
      </trkpt>
      <trkpt lat="46.63012" lon="5.5298">
        <ele>449</ele>
        <time>2021-05-29T10:29:10.893Z</time>
      </trkpt>
      <trkpt lat="46.63014" lon="5.52979">
        <ele>450</ele>
        <time>2021-05-29T10:29:11.893Z</time>
      </trkpt>
      <trkpt lat="46.63016" lon="5.52979">
        <ele>450</ele>
        <time>2021-05-29T10:29:12.893Z</time>
      </trkpt>
      <trkpt lat="46.63019" lon="5.52978">
        <ele>451</ele>
        <time>2021-05-29T10:29:13.893Z</time>
      </trkpt>
      <trkpt lat="46.63021" lon="5.52977">
        <ele>452</ele>
        <time>2021-05-29T10:29:14.892Z</time>
      </trkpt>
      <trkpt lat="46.63023" lon="5.52976">
        <ele>453</ele>
        <time>2021-05-29T10:29:15.893Z</time>
      </trkpt>
      <trkpt lat="46.63025" lon="5.52974">
        <ele>453</ele>
        <time>2021-05-29T10:29:16.893Z</time>
      </trkpt>
      <trkpt lat="46.63028" lon="5.52973">
        <ele>454</ele>
        <time>2021-05-29T10:29:17.893Z</time>
      </trkpt>
      <trkpt lat="46.6303" lon="5.52972">
        <ele>454</ele>
        <time>2021-05-29T10:29:18.893Z</time>
      </trkpt>
      <trkpt lat="46.63032" lon="5.52971">
        <ele>454</ele>
        <time>2021-05-29T10:29:19.893Z</time>
      </trkpt>
      <trkpt lat="46.63034" lon="5.52971">
        <ele>454</ele>
        <time>2021-05-29T10:29:20.893Z</time>
      </trkpt>
      <trkpt lat="46.63036" lon="5.52969">
        <ele>453</ele>
        <time>2021-05-29T10:29:21.893Z</time>
      </trkpt>
      <trkpt lat="46.63038" lon="5.52968">
        <ele>453</ele>
        <time>2021-05-29T10:29:22.892Z</time>
      </trkpt>
      <trkpt lat="46.6304" lon="5.52967">
        <ele>453</ele>
        <time>2021-05-29T10:29:23.892Z</time>
      </trkpt>
      <trkpt lat="46.63042" lon="5.52965">
        <ele>453</ele>
        <time>2021-05-29T10:29:24.893Z</time>
      </trkpt>
      <trkpt lat="46.63044" lon="5.52964">
        <ele>453</ele>
        <time>2021-05-29T10:29:25.893Z</time>
      </trkpt>
      <trkpt lat="46.63046" lon="5.52963">
        <ele>453</ele>
        <time>2021-05-29T10:29:26.893Z</time>
      </trkpt>
      <trkpt lat="46.63048" lon="5.52962">
        <ele>453</ele>
        <time>2021-05-29T10:29:27.893Z</time>
      </trkpt>
      <trkpt lat="46.6305" lon="5.5296">
        <ele>454</ele>
        <time>2021-05-29T10:29:28.893Z</time>
      </trkpt>
      <trkpt lat="46.63052" lon="5.52958">
        <ele>454</ele>
        <time>2021-05-29T10:29:29.892Z</time>
      </trkpt>
      <trkpt lat="46.63054" lon="5.52957">
        <ele>454</ele>
        <time>2021-05-29T10:29:30.893Z</time>
      </trkpt>
      <trkpt lat="46.63056" lon="5.52954">
        <ele>455</ele>
        <time>2021-05-29T10:29:31.893Z</time>
      </trkpt>
      <trkpt lat="46.63058" lon="5.52952">
        <ele>455</ele>
        <time>2021-05-29T10:29:32.893Z</time>
      </trkpt>
      <trkpt lat="46.63059" lon="5.5295">
        <ele>455</ele>
        <time>2021-05-29T10:29:33.892Z</time>
      </trkpt>
      <trkpt lat="46.63061" lon="5.52948">
        <ele>455</ele>
        <time>2021-05-29T10:29:34.893Z</time>
      </trkpt>
      <trkpt lat="46.63063" lon="5.52946">
        <ele>455</ele>
        <time>2021-05-29T10:29:35.892Z</time>
      </trkpt>
      <trkpt lat="46.63065" lon="5.52944">
        <ele>455</ele>
        <time>2021-05-29T10:29:36.893Z</time>
      </trkpt>
      <trkpt lat="46.63067" lon="5.52942">
        <ele>455</ele>
        <time>2021-05-29T10:29:37.893Z</time>
      </trkpt>
      <trkpt lat="46.63069" lon="5.5294">
        <ele>454</ele>
        <time>2021-05-29T10:29:38.893Z</time>
      </trkpt>
      <trkpt lat="46.6307" lon="5.52939">
        <ele>454</ele>
        <time>2021-05-29T10:29:39.892Z</time>
      </trkpt>
      <trkpt lat="46.63072" lon="5.52937">
        <ele>454</ele>
        <time>2021-05-29T10:29:40.893Z</time>
      </trkpt>
      <trkpt lat="46.63073" lon="5.52935">
        <ele>454</ele>
        <time>2021-05-29T10:29:41.893Z</time>
      </trkpt>
      <trkpt lat="46.63075" lon="5.52932">
        <ele>453</ele>
        <time>2021-05-29T10:29:42.893Z</time>
      </trkpt>
      <trkpt lat="46.63077" lon="5.52931">
        <ele>453</ele>
        <time>2021-05-29T10:29:43.893Z</time>
      </trkpt>
      <trkpt lat="46.63078" lon="5.52929">
        <ele>453</ele>
        <time>2021-05-29T10:29:44.893Z</time>
      </trkpt>
      <trkpt lat="46.6308" lon="5.52927">
        <ele>453</ele>
        <time>2021-05-29T10:29:45.893Z</time>
      </trkpt>
      <trkpt lat="46.63081" lon="5.52926">
        <ele>453</ele>
        <time>2021-05-29T10:29:46.892Z</time>
      </trkpt>
      <trkpt lat="46.63083" lon="5.52924">
        <ele>453</ele>
        <time>2021-05-29T10:29:47.892Z</time>
      </trkpt>
      <trkpt lat="46.63085" lon="5.52923">
        <ele>453</ele>
        <time>2021-05-29T10:29:48.893Z</time>
      </trkpt>
      <trkpt lat="46.63086" lon="5.52921">
        <ele>453</ele>
        <time>2021-05-29T10:29:49.893Z</time>
      </trkpt>
      <trkpt lat="46.63088" lon="5.52919">
        <ele>453</ele>
        <time>2021-05-29T10:29:50.893Z</time>
      </trkpt>
      <trkpt lat="46.6309" lon="5.52918">
        <ele>452</ele>
        <time>2021-05-29T10:29:51.893Z</time>
      </trkpt>
      <trkpt lat="46.63091" lon="5.52916">
        <ele>452</ele>
        <time>2021-05-29T10:29:52.893Z</time>
      </trkpt>
      <trkpt lat="46.63093" lon="5.52914">
        <ele>452</ele>
        <time>2021-05-29T10:29:53.893Z</time>
      </trkpt>
      <trkpt lat="46.63094" lon="5.52912">
        <ele>453</ele>
        <time>2021-05-29T10:29:54.892Z</time>
      </trkpt>
      <trkpt lat="46.63096" lon="5.52909">
        <ele>453</ele>
        <time>2021-05-29T10:29:55.893Z</time>
      </trkpt>
      <trkpt lat="46.63097" lon="5.52907">
        <ele>453</ele>
        <time>2021-05-29T10:29:56.893Z</time>
      </trkpt>
      <trkpt lat="46.63098" lon="5.52905">
        <ele>453</ele>
        <time>2021-05-29T10:29:57.893Z</time>
      </trkpt>
      <trkpt lat="46.63099" lon="5.52904">
        <ele>453</ele>
        <time>2021-05-29T10:29:58.893Z</time>
      </trkpt>
      <trkpt lat="46.63101" lon="5.52904">
        <ele>453</ele>
        <time>2021-05-29T10:29:59.893Z</time>
      </trkpt>
      <trkpt lat="46.63101" lon="5.52906">
        <ele>453</ele>
        <time>2021-05-29T10:30:00.893Z</time>
      </trkpt>
      <trkpt lat="46.63101" lon="5.52908">
        <ele>453</ele>
        <time>2021-05-29T10:30:01.892Z</time>
      </trkpt>
      <trkpt lat="46.631" lon="5.52909">
        <ele>453</ele>
        <time>2021-05-29T10:30:02.892Z</time>
      </trkpt>
      <trkpt lat="46.63099" lon="5.52912">
        <ele>453</ele>
        <time>2021-05-29T10:30:03.893Z</time>
      </trkpt>
      <trkpt lat="46.63097" lon="5.52915">
        <ele>453</ele>
        <time>2021-05-29T10:30:04.893Z</time>
      </trkpt>
      <trkpt lat="46.63096" lon="5.52917">
        <ele>453</ele>
        <time>2021-05-29T10:30:05.892Z</time>
      </trkpt>
      <trkpt lat="46.63094" lon="5.52919">
        <ele>453</ele>
        <time>2021-05-29T10:30:06.893Z</time>
      </trkpt>
      <trkpt lat="46.63093" lon="5.5292">
        <ele>453</ele>
        <time>2021-05-29T10:30:07.893Z</time>
      </trkpt>
      <trkpt lat="46.63092" lon="5.52922">
        <ele>453</ele>
        <time>2021-05-29T10:30:08.893Z</time>
      </trkpt>
      <trkpt lat="46.63091" lon="5.52924">
        <ele>453</ele>
        <time>2021-05-29T10:30:09.892Z</time>
      </trkpt>
      <trkpt lat="46.63089" lon="5.52926">
        <ele>453</ele>
        <time>2021-05-29T10:30:10.893Z</time>
      </trkpt>
      <trkpt lat="46.63088" lon="5.52928">
        <ele>453</ele>
        <time>2021-05-29T10:30:11.893Z</time>
      </trkpt>
      <trkpt lat="46.63088" lon="5.5293">
        <ele>453</ele>
        <time>2021-05-29T10:30:12.893Z</time>
      </trkpt>
      <trkpt lat="46.63086" lon="5.52932">
        <ele>453</ele>
        <time>2021-05-29T10:30:13.893Z</time>
      </trkpt>
      <trkpt lat="46.63085" lon="5.52932">
        <ele>453</ele>
        <time>2021-05-29T10:30:14.893Z</time>
      </trkpt>
      <trkpt lat="46.63084" lon="5.52931">
        <ele>453</ele>
        <time>2021-05-29T10:30:15.892Z</time>
      </trkpt>
      <trkpt lat="46.63084" lon="5.52928">
        <ele>453</ele>
        <time>2021-05-29T10:30:16.893Z</time>
      </trkpt>
      <trkpt lat="46.63085" lon="5.52926">
        <ele>453</ele>
        <time>2021-05-29T10:30:17.893Z</time>
      </trkpt>
      <trkpt lat="46.63087" lon="5.52923">
        <ele>453</ele>
        <time>2021-05-29T10:30:18.893Z</time>
      </trkpt>
      <trkpt lat="46.63089" lon="5.52921">
        <ele>453</ele>
        <time>2021-05-29T10:30:19.893Z</time>
      </trkpt>
      <trkpt lat="46.6309" lon="5.52918">
        <ele>453</ele>
        <time>2021-05-29T10:30:20.893Z</time>
      </trkpt>
      <trkpt lat="46.63092" lon="5.52916">
        <ele>453</ele>
        <time>2021-05-29T10:30:21.892Z</time>
      </trkpt>
      <trkpt lat="46.63094" lon="5.52914">
        <ele>453</ele>
        <time>2021-05-29T10:30:22.892Z</time>
      </trkpt>
      <trkpt lat="46.63095" lon="5.52911">
        <ele>453</ele>
        <time>2021-05-29T10:30:23.892Z</time>
      </trkpt>
      <trkpt lat="46.63097" lon="5.52909">
        <ele>453</ele>
        <time>2021-05-29T10:30:24.893Z</time>
      </trkpt>
      <trkpt lat="46.63099" lon="5.52907">
        <ele>452</ele>
        <time>2021-05-29T10:30:25.893Z</time>
      </trkpt>
      <trkpt lat="46.63101" lon="5.52905">
        <ele>452</ele>
        <time>2021-05-29T10:30:26.893Z</time>
      </trkpt>
      <trkpt lat="46.63103" lon="5.52903">
        <ele>452</ele>
        <time>2021-05-29T10:30:27.892Z</time>
      </trkpt>
      <trkpt lat="46.63105" lon="5.52901">
        <ele>451</ele>
        <time>2021-05-29T10:30:28.893Z</time>
      </trkpt>
      <trkpt lat="46.63106" lon="5.52899">
        <ele>451</ele>
        <time>2021-05-29T10:30:29.893Z</time>
      </trkpt>
      <trkpt lat="46.63108" lon="5.52897">
        <ele>451</ele>
        <time>2021-05-29T10:30:30.893Z</time>
      </trkpt>
      <trkpt lat="46.6311" lon="5.52895">
        <ele>452</ele>
        <time>2021-05-29T10:30:31.893Z</time>
      </trkpt>
      <trkpt lat="46.63112" lon="5.52894">
        <ele>452</ele>
        <time>2021-05-29T10:30:32.892Z</time>
      </trkpt>
      <trkpt lat="46.63114" lon="5.52892">
        <ele>452</ele>
        <time>2021-05-29T10:30:33.893Z</time>
      </trkpt>
      <trkpt lat="46.63115" lon="5.5289">
        <ele>452</ele>
        <time>2021-05-29T10:30:34.892Z</time>
      </trkpt>
      <trkpt lat="46.63117" lon="5.52888">
        <ele>452</ele>
        <time>2021-05-29T10:30:35.892Z</time>
      </trkpt>
      <trkpt lat="46.63119" lon="5.52886">
        <ele>453</ele>
        <time>2021-05-29T10:30:36.892Z</time>
      </trkpt>
      <trkpt lat="46.63121" lon="5.52884">
        <ele>453</ele>
        <time>2021-05-29T10:30:37.893Z</time>
      </trkpt>
      <trkpt lat="46.63123" lon="5.52882">
        <ele>453</ele>
        <time>2021-05-29T10:30:38.893Z</time>
      </trkpt>
      <trkpt lat="46.63125" lon="5.52881">
        <ele>453</ele>
        <time>2021-05-29T10:30:39.893Z</time>
      </trkpt>
      <trkpt lat="46.63127" lon="5.52879">
        <ele>453</ele>
        <time>2021-05-29T10:30:40.893Z</time>
      </trkpt>
      <trkpt lat="46.63129" lon="5.52878">
        <ele>453</ele>
        <time>2021-05-29T10:30:41.893Z</time>
      </trkpt>
      <trkpt lat="46.63131" lon="5.52877">
        <ele>453</ele>
        <time>2021-05-29T10:30:42.893Z</time>
      </trkpt>
      <trkpt lat="46.63134" lon="5.52876">
        <ele>453</ele>
        <time>2021-05-29T10:30:43.893Z</time>
      </trkpt>
      <trkpt lat="46.63136" lon="5.52875">
        <ele>453</ele>
        <time>2021-05-29T10:30:44.892Z</time>
      </trkpt>
      <trkpt lat="46.63138" lon="5.52873">
        <ele>453</ele>
        <time>2021-05-29T10:30:45.893Z</time>
      </trkpt>
      <trkpt lat="46.6314" lon="5.52872">
        <ele>453</ele>
        <time>2021-05-29T10:30:46.893Z</time>
      </trkpt>
      <trkpt lat="46.63142" lon="5.5287">
        <ele>453</ele>
        <time>2021-05-29T10:30:47.893Z</time>
      </trkpt>
      <trkpt lat="46.63144" lon="5.52869">
        <ele>453</ele>
        <time>2021-05-29T10:30:48.893Z</time>
      </trkpt>
      <trkpt lat="46.63147" lon="5.52867">
        <ele>453</ele>
        <time>2021-05-29T10:30:49.892Z</time>
      </trkpt>
      <trkpt lat="46.63149" lon="5.52866">
        <ele>453</ele>
        <time>2021-05-29T10:30:50.892Z</time>
      </trkpt>
      <trkpt lat="46.63152" lon="5.52864">
        <ele>453</ele>
        <time>2021-05-29T10:30:51.893Z</time>
      </trkpt>
      <trkpt lat="46.63154" lon="5.52863">
        <ele>454</ele>
        <time>2021-05-29T10:30:52.893Z</time>
      </trkpt>
      <trkpt lat="46.63156" lon="5.52861">
        <ele>454</ele>
        <time>2021-05-29T10:30:53.892Z</time>
      </trkpt>
      <trkpt lat="46.63159" lon="5.5286">
        <ele>454</ele>
        <time>2021-05-29T10:30:54.893Z</time>
      </trkpt>
      <trkpt lat="46.63161" lon="5.52859">
        <ele>454</ele>
        <time>2021-05-29T10:30:55.893Z</time>
      </trkpt>
      <trkpt lat="46.63164" lon="5.52858">
        <ele>454</ele>
        <time>2021-05-29T10:30:56.893Z</time>
      </trkpt>
      <trkpt lat="46.63166" lon="5.52857">
        <ele>454</ele>
        <time>2021-05-29T10:30:57.893Z</time>
      </trkpt>
      <trkpt lat="46.63168" lon="5.52856">
        <ele>455</ele>
        <time>2021-05-29T10:30:58.893Z</time>
      </trkpt>
      <trkpt lat="46.6317" lon="5.52855">
        <ele>455</ele>
        <time>2021-05-29T10:30:59.893Z</time>
      </trkpt>
      <trkpt lat="46.63172" lon="5.52854">
        <ele>455</ele>
        <time>2021-05-29T10:31:00.893Z</time>
      </trkpt>
      <trkpt lat="46.63175" lon="5.52853">
        <ele>455</ele>
        <time>2021-05-29T10:31:01.892Z</time>
      </trkpt>
      <trkpt lat="46.63177" lon="5.52852">
        <ele>455</ele>
        <time>2021-05-29T10:31:02.892Z</time>
      </trkpt>
      <trkpt lat="46.63179" lon="5.52851">
        <ele>454</ele>
        <time>2021-05-29T10:31:03.892Z</time>
      </trkpt>
      <trkpt lat="46.63181" lon="5.52851">
        <ele>454</ele>
        <time>2021-05-29T10:31:04.892Z</time>
      </trkpt>
      <trkpt lat="46.63184" lon="5.5285">
        <ele>453</ele>
        <time>2021-05-29T10:31:05.893Z</time>
      </trkpt>
      <trkpt lat="46.63186" lon="5.5285">
        <ele>453</ele>
        <time>2021-05-29T10:31:06.893Z</time>
      </trkpt>
      <trkpt lat="46.63188" lon="5.5285">
        <ele>453</ele>
        <time>2021-05-29T10:31:07.893Z</time>
      </trkpt>
      <trkpt lat="46.6319" lon="5.52849">
        <ele>453</ele>
        <time>2021-05-29T10:31:08.892Z</time>
      </trkpt>
      <trkpt lat="46.63192" lon="5.52849">
        <ele>453</ele>
        <time>2021-05-29T10:31:09.893Z</time>
      </trkpt>
      <trkpt lat="46.63194" lon="5.52848">
        <ele>453</ele>
        <time>2021-05-29T10:31:10.893Z</time>
      </trkpt>
      <trkpt lat="46.63197" lon="5.52848">
        <ele>454</ele>
        <time>2021-05-29T10:31:11.892Z</time>
      </trkpt>
      <trkpt lat="46.63199" lon="5.52847">
        <ele>454</ele>
        <time>2021-05-29T10:31:12.892Z</time>
      </trkpt>
      <trkpt lat="46.63201" lon="5.52847">
        <ele>455</ele>
        <time>2021-05-29T10:31:13.893Z</time>
      </trkpt>
      <trkpt lat="46.63203" lon="5.52847">
        <ele>455</ele>
        <time>2021-05-29T10:31:14.893Z</time>
      </trkpt>
      <trkpt lat="46.63206" lon="5.52847">
        <ele>455</ele>
        <time>2021-05-29T10:31:15.893Z</time>
      </trkpt>
      <trkpt lat="46.63208" lon="5.52847">
        <ele>454</ele>
        <time>2021-05-29T10:31:16.893Z</time>
      </trkpt>
      <trkpt lat="46.6321" lon="5.52847">
        <ele>454</ele>
        <time>2021-05-29T10:31:17.893Z</time>
      </trkpt>
      <trkpt lat="46.63212" lon="5.52847">
        <ele>454</ele>
        <time>2021-05-29T10:31:18.893Z</time>
      </trkpt>
      <trkpt lat="46.63215" lon="5.52847">
        <ele>453</ele>
        <time>2021-05-29T10:31:19.893Z</time>
      </trkpt>
      <trkpt lat="46.63217" lon="5.52847">
        <ele>453</ele>
        <time>2021-05-29T10:31:20.893Z</time>
      </trkpt>
      <trkpt lat="46.63219" lon="5.52847">
        <ele>453</ele>
        <time>2021-05-29T10:31:21.893Z</time>
      </trkpt>
      <trkpt lat="46.63221" lon="5.52847">
        <ele>453</ele>
        <time>2021-05-29T10:31:22.893Z</time>
      </trkpt>
      <trkpt lat="46.63223" lon="5.52847">
        <ele>453</ele>
        <time>2021-05-29T10:31:23.893Z</time>
      </trkpt>
      <trkpt lat="46.63226" lon="5.52847">
        <ele>452</ele>
        <time>2021-05-29T10:31:24.892Z</time>
      </trkpt>
      <trkpt lat="46.63228" lon="5.52847">
        <ele>452</ele>
        <time>2021-05-29T10:31:25.893Z</time>
      </trkpt>
      <trkpt lat="46.6323" lon="5.52847">
        <ele>452</ele>
        <time>2021-05-29T10:31:26.893Z</time>
      </trkpt>
      <trkpt lat="46.63232" lon="5.52847">
        <ele>451</ele>
        <time>2021-05-29T10:31:27.893Z</time>
      </trkpt>
      <trkpt lat="46.63234" lon="5.52847">
        <ele>451</ele>
        <time>2021-05-29T10:31:28.893Z</time>
      </trkpt>
      <trkpt lat="46.63236" lon="5.52847">
        <ele>450</ele>
        <time>2021-05-29T10:31:29.892Z</time>
      </trkpt>
      <trkpt lat="46.63238" lon="5.52847">
        <ele>450</ele>
        <time>2021-05-29T10:31:30.892Z</time>
      </trkpt>
      <trkpt lat="46.6324" lon="5.52847">
        <ele>450</ele>
        <time>2021-05-29T10:31:31.893Z</time>
      </trkpt>
      <trkpt lat="46.63242" lon="5.52847">
        <ele>450</ele>
        <time>2021-05-29T10:31:32.893Z</time>
      </trkpt>
      <trkpt lat="46.63244" lon="5.52847">
        <ele>450</ele>
        <time>2021-05-29T10:31:33.893Z</time>
      </trkpt>
      <trkpt lat="46.63246" lon="5.52847">
        <ele>451</ele>
        <time>2021-05-29T10:31:34.892Z</time>
      </trkpt>
      <trkpt lat="46.63248" lon="5.52847">
        <ele>451</ele>
        <time>2021-05-29T10:31:35.893Z</time>
      </trkpt>
      <trkpt lat="46.6325" lon="5.52847">
        <ele>451</ele>
        <time>2021-05-29T10:31:36.892Z</time>
      </trkpt>
      <trkpt lat="46.63252" lon="5.52846">
        <ele>451</ele>
        <time>2021-05-29T10:31:37.893Z</time>
      </trkpt>
      <trkpt lat="46.63254" lon="5.52846">
        <ele>452</ele>
        <time>2021-05-29T10:31:38.893Z</time>
      </trkpt>
      <trkpt lat="46.63256" lon="5.52846">
        <ele>452</ele>
        <time>2021-05-29T10:31:39.893Z</time>
      </trkpt>
      <trkpt lat="46.63258" lon="5.52846">
        <ele>452</ele>
        <time>2021-05-29T10:31:40.893Z</time>
      </trkpt>
      <trkpt lat="46.6326" lon="5.52846">
        <ele>452</ele>
        <time>2021-05-29T10:31:41.893Z</time>
      </trkpt>
      <trkpt lat="46.63262" lon="5.52846">
        <ele>452</ele>
        <time>2021-05-29T10:31:42.893Z</time>
      </trkpt>
      <trkpt lat="46.63264" lon="5.52846">
        <ele>451</ele>
        <time>2021-05-29T10:31:43.893Z</time>
      </trkpt>
      <trkpt lat="46.63266" lon="5.52846">
        <ele>451</ele>
        <time>2021-05-29T10:31:44.892Z</time>
      </trkpt>
      <trkpt lat="46.63268" lon="5.52846">
        <ele>451</ele>
        <time>2021-05-29T10:31:45.893Z</time>
      </trkpt>
      <trkpt lat="46.6327" lon="5.52846">
        <ele>451</ele>
        <time>2021-05-29T10:31:46.893Z</time>
      </trkpt>
      <trkpt lat="46.63272" lon="5.52846">
        <ele>451</ele>
        <time>2021-05-29T10:31:47.892Z</time>
      </trkpt>
      <trkpt lat="46.63274" lon="5.52846">
        <ele>451</ele>
        <time>2021-05-29T10:31:48.892Z</time>
      </trkpt>
      <trkpt lat="46.63276" lon="5.52846">
        <ele>451</ele>
        <time>2021-05-29T10:31:49.892Z</time>
      </trkpt>
      <trkpt lat="46.63279" lon="5.52847">
        <ele>452</ele>
        <time>2021-05-29T10:31:50.893Z</time>
      </trkpt>
      <trkpt lat="46.63281" lon="5.52847">
        <ele>452</ele>
        <time>2021-05-29T10:31:51.893Z</time>
      </trkpt>
      <trkpt lat="46.63283" lon="5.52847">
        <ele>452</ele>
        <time>2021-05-29T10:31:52.893Z</time>
      </trkpt>
      <trkpt lat="46.63285" lon="5.52848">
        <ele>452</ele>
        <time>2021-05-29T10:31:53.893Z</time>
      </trkpt>
      <trkpt lat="46.63287" lon="5.52848">
        <ele>453</ele>
        <time>2021-05-29T10:31:54.893Z</time>
      </trkpt>
      <trkpt lat="46.6329" lon="5.52848">
        <ele>453</ele>
        <time>2021-05-29T10:31:55.893Z</time>
      </trkpt>
      <trkpt lat="46.63292" lon="5.52848">
        <ele>454</ele>
        <time>2021-05-29T10:31:56.893Z</time>
      </trkpt>
      <trkpt lat="46.63294" lon="5.52848">
        <ele>454</ele>
        <time>2021-05-29T10:33:58.525Z</time>
      </trkpt>
      <trkpt lat="46.63296" lon="5.52849">
        <ele>454</ele>
        <time>2021-05-29T10:33:59.524Z</time>
      </trkpt>
      <trkpt lat="46.63298" lon="5.52849">
        <ele>454</ele>
        <time>2021-05-29T10:34:00.525Z</time>
      </trkpt>
      <trkpt lat="46.633" lon="5.5285">
        <ele>454</ele>
        <time>2021-05-29T10:34:01.525Z</time>
      </trkpt>
      <trkpt lat="46.63302" lon="5.5285">
        <ele>453</ele>
        <time>2021-05-29T10:34:02.524Z</time>
      </trkpt>
      <trkpt lat="46.63305" lon="5.5285">
        <ele>453</ele>
        <time>2021-05-29T10:34:03.524Z</time>
      </trkpt>
      <trkpt lat="46.63307" lon="5.5285">
        <ele>453</ele>
        <time>2021-05-29T10:34:04.525Z</time>
      </trkpt>
      <trkpt lat="46.63309" lon="5.5285">
        <ele>453</ele>
        <time>2021-05-29T10:34:05.524Z</time>
      </trkpt>
      <trkpt lat="46.63311" lon="5.5285">
        <ele>453</ele>
        <time>2021-05-29T10:34:06.524Z</time>
      </trkpt>
      <trkpt lat="46.63313" lon="5.5285">
        <ele>453</ele>
        <time>2021-05-29T10:34:07.524Z</time>
      </trkpt>
      <trkpt lat="46.63315" lon="5.5285">
        <ele>453</ele>
        <time>2021-05-29T10:34:08.525Z</time>
      </trkpt>
      <trkpt lat="46.63318" lon="5.5285">
        <ele>453</ele>
        <time>2021-05-29T10:34:09.525Z</time>
      </trkpt>
      <trkpt lat="46.6332" lon="5.5285">
        <ele>454</ele>
        <time>2021-05-29T10:34:10.525Z</time>
      </trkpt>
      <trkpt lat="46.63322" lon="5.5285">
        <ele>454</ele>
        <time>2021-05-29T10:34:11.525Z</time>
      </trkpt>
      <trkpt lat="46.63324" lon="5.5285">
        <ele>454</ele>
        <time>2021-05-29T10:34:12.525Z</time>
      </trkpt>
      <trkpt lat="46.63326" lon="5.5285">
        <ele>454</ele>
        <time>2021-05-29T10:34:13.525Z</time>
      </trkpt>
      <trkpt lat="46.63328" lon="5.5285">
        <ele>454</ele>
        <time>2021-05-29T10:34:14.525Z</time>
      </trkpt>
      <trkpt lat="46.63331" lon="5.5285">
        <ele>455</ele>
        <time>2021-05-29T10:34:15.525Z</time>
      </trkpt>
      <trkpt lat="46.63332" lon="5.5285">
        <ele>454</ele>
        <time>2021-05-29T10:34:16.524Z</time>
      </trkpt>
      <trkpt lat="46.63334" lon="5.5285">
        <ele>454</ele>
        <time>2021-05-29T10:34:17.525Z</time>
      </trkpt>
      <trkpt lat="46.63336" lon="5.52849">
        <ele>454</ele>
        <time>2021-05-29T10:34:18.524Z</time>
      </trkpt>
      <trkpt lat="46.63338" lon="5.52849">
        <ele>455</ele>
        <time>2021-05-29T10:34:19.525Z</time>
      </trkpt>
      <trkpt lat="46.6334" lon="5.52849">
        <ele>455</ele>
        <time>2021-05-29T10:34:20.525Z</time>
      </trkpt>
      <trkpt lat="46.63342" lon="5.52849">
        <ele>454</ele>
        <time>2021-05-29T10:34:21.525Z</time>
      </trkpt>
      <trkpt lat="46.63344" lon="5.52849">
        <ele>454</ele>
        <time>2021-05-29T10:34:22.525Z</time>
      </trkpt>
      <trkpt lat="46.63346" lon="5.52849">
        <ele>453</ele>
        <time>2021-05-29T10:34:23.525Z</time>
      </trkpt>
      <trkpt lat="46.63348" lon="5.52849">
        <ele>453</ele>
        <time>2021-05-29T10:34:24.524Z</time>
      </trkpt>
      <trkpt lat="46.6335" lon="5.52849">
        <ele>453</ele>
        <time>2021-05-29T10:34:25.525Z</time>
      </trkpt>
      <trkpt lat="46.63352" lon="5.52849">
        <ele>452</ele>
        <time>2021-05-29T10:34:26.525Z</time>
      </trkpt>
      <trkpt lat="46.63354" lon="5.52848">
        <ele>453</ele>
        <time>2021-05-29T10:34:27.524Z</time>
      </trkpt>
      <trkpt lat="46.63356" lon="5.52847">
        <ele>453</ele>
        <time>2021-05-29T10:34:28.525Z</time>
      </trkpt>
      <trkpt lat="46.63357" lon="5.52846">
        <ele>454</ele>
        <time>2021-05-29T10:34:29.525Z</time>
      </trkpt>
      <trkpt lat="46.63359" lon="5.52845">
        <ele>454</ele>
        <time>2021-05-29T10:34:30.524Z</time>
      </trkpt>
      <trkpt lat="46.63361" lon="5.52844">
        <ele>455</ele>
        <time>2021-05-29T10:34:31.524Z</time>
      </trkpt>
      <trkpt lat="46.63363" lon="5.52842">
        <ele>455</ele>
        <time>2021-05-29T10:34:32.524Z</time>
      </trkpt>
      <trkpt lat="46.63365" lon="5.52841">
        <ele>455</ele>
        <time>2021-05-29T10:34:33.525Z</time>
      </trkpt>
      <trkpt lat="46.63367" lon="5.52839">
        <ele>455</ele>
        <time>2021-05-29T10:34:34.525Z</time>
      </trkpt>
      <trkpt lat="46.63368" lon="5.52838">
        <ele>456</ele>
        <time>2021-05-29T10:34:35.525Z</time>
      </trkpt>
      <trkpt lat="46.6337" lon="5.52836">
        <ele>456</ele>
        <time>2021-05-29T10:34:36.525Z</time>
      </trkpt>
      <trkpt lat="46.63371" lon="5.52834">
        <ele>456</ele>
        <time>2021-05-29T10:34:37.525Z</time>
      </trkpt>
      <trkpt lat="46.63373" lon="5.52831">
        <ele>457</ele>
        <time>2021-05-29T10:34:38.525Z</time>
      </trkpt>
      <trkpt lat="46.63374" lon="5.52829">
        <ele>457</ele>
        <time>2021-05-29T10:34:39.525Z</time>
      </trkpt>
      <trkpt lat="46.63375" lon="5.52827">
        <ele>458</ele>
        <time>2021-05-29T10:34:40.525Z</time>
      </trkpt>
      <trkpt lat="46.63377" lon="5.52825">
        <ele>458</ele>
        <time>2021-05-29T10:34:41.524Z</time>
      </trkpt>
      <trkpt lat="46.63378" lon="5.52823">
        <ele>458</ele>
        <time>2021-05-29T10:34:42.525Z</time>
      </trkpt>
      <trkpt lat="46.6338" lon="5.52821">
        <ele>458</ele>
        <time>2021-05-29T10:34:43.525Z</time>
      </trkpt>
      <trkpt lat="46.63381" lon="5.52819">
        <ele>458</ele>
        <time>2021-05-29T10:34:44.525Z</time>
      </trkpt>
      <trkpt lat="46.63382" lon="5.52816">
        <ele>458</ele>
        <time>2021-05-29T10:34:45.525Z</time>
      </trkpt>
      <trkpt lat="46.63384" lon="5.52814">
        <ele>458</ele>
        <time>2021-05-29T10:34:46.525Z</time>
      </trkpt>
      <trkpt lat="46.63385" lon="5.52811">
        <ele>459</ele>
        <time>2021-05-29T10:34:47.525Z</time>
      </trkpt>
      <trkpt lat="46.63386" lon="5.52808">
        <ele>459</ele>
        <time>2021-05-29T10:34:48.525Z</time>
      </trkpt>
      <trkpt lat="46.63387" lon="5.52805">
        <ele>459</ele>
        <time>2021-05-29T10:34:49.525Z</time>
      </trkpt>
      <trkpt lat="46.63388" lon="5.52802">
        <ele>459</ele>
        <time>2021-05-29T10:34:50.525Z</time>
      </trkpt>
      <trkpt lat="46.63389" lon="5.52799">
        <ele>459</ele>
        <time>2021-05-29T10:34:51.524Z</time>
      </trkpt>
      <trkpt lat="46.6339" lon="5.52796">
        <ele>459</ele>
        <time>2021-05-29T10:34:52.525Z</time>
      </trkpt>
      <trkpt lat="46.63391" lon="5.52794">
        <ele>459</ele>
        <time>2021-05-29T10:34:53.525Z</time>
      </trkpt>
      <trkpt lat="46.63392" lon="5.52792">
        <ele>459</ele>
        <time>2021-05-29T10:34:54.524Z</time>
      </trkpt>
      <trkpt lat="46.63394" lon="5.52789">
        <ele>460</ele>
        <time>2021-05-29T10:34:55.525Z</time>
      </trkpt>
      <trkpt lat="46.63395" lon="5.52787">
        <ele>460</ele>
        <time>2021-05-29T10:34:56.524Z</time>
      </trkpt>
      <trkpt lat="46.63396" lon="5.52784">
        <ele>460</ele>
        <time>2021-05-29T10:34:57.525Z</time>
      </trkpt>
      <trkpt lat="46.63397" lon="5.52782">
        <ele>460</ele>
        <time>2021-05-29T10:34:58.525Z</time>
      </trkpt>
      <trkpt lat="46.63398" lon="5.52779">
        <ele>460</ele>
        <time>2021-05-29T10:34:59.525Z</time>
      </trkpt>
      <trkpt lat="46.634" lon="5.52777">
        <ele>460</ele>
        <time>2021-05-29T10:35:00.525Z</time>
      </trkpt>
      <trkpt lat="46.63401" lon="5.52775">
        <ele>460</ele>
        <time>2021-05-29T10:35:01.525Z</time>
      </trkpt>
      <trkpt lat="46.63402" lon="5.52773">
        <ele>460</ele>
        <time>2021-05-29T10:35:02.525Z</time>
      </trkpt>
      <trkpt lat="46.63403" lon="5.52771">
        <ele>460</ele>
        <time>2021-05-29T10:35:03.525Z</time>
      </trkpt>
      <trkpt lat="46.63405" lon="5.52768">
        <ele>460</ele>
        <time>2021-05-29T10:35:04.524Z</time>
      </trkpt>
      <trkpt lat="46.63406" lon="5.52766">
        <ele>460</ele>
        <time>2021-05-29T10:35:05.524Z</time>
      </trkpt>
      <trkpt lat="46.63408" lon="5.52765">
        <ele>460</ele>
        <time>2021-05-29T10:35:06.524Z</time>
      </trkpt>
      <trkpt lat="46.6341" lon="5.52763">
        <ele>460</ele>
        <time>2021-05-29T10:35:07.525Z</time>
      </trkpt>
      <trkpt lat="46.63411" lon="5.52763">
        <ele>460</ele>
        <time>2021-05-29T10:35:08.524Z</time>
      </trkpt>
      <trkpt lat="46.63414" lon="5.52763">
        <ele>460</ele>
        <time>2021-05-29T10:35:09.525Z</time>
      </trkpt>
      <trkpt lat="46.63416" lon="5.52763">
        <ele>460</ele>
        <time>2021-05-29T10:35:10.525Z</time>
      </trkpt>
      <trkpt lat="46.63417" lon="5.52764">
        <ele>460</ele>
        <time>2021-05-29T10:35:11.524Z</time>
      </trkpt>
      <trkpt lat="46.63419" lon="5.52765">
        <ele>460</ele>
        <time>2021-05-29T10:35:12.524Z</time>
      </trkpt>
      <trkpt lat="46.63421" lon="5.52766">
        <ele>459</ele>
        <time>2021-05-29T10:35:13.524Z</time>
      </trkpt>
      <trkpt lat="46.63424" lon="5.52767">
        <ele>459</ele>
        <time>2021-05-29T10:35:14.524Z</time>
      </trkpt>
      <trkpt lat="46.63425" lon="5.52769">
        <ele>459</ele>
        <time>2021-05-29T10:35:15.525Z</time>
      </trkpt>
      <trkpt lat="46.63428" lon="5.5277">
        <ele>459</ele>
        <time>2021-05-29T10:35:16.525Z</time>
      </trkpt>
      <trkpt lat="46.6343" lon="5.52771">
        <ele>459</ele>
        <time>2021-05-29T10:35:17.524Z</time>
      </trkpt>
      <trkpt lat="46.63432" lon="5.52772">
        <ele>459</ele>
        <time>2021-05-29T10:35:18.524Z</time>
      </trkpt>
      <trkpt lat="46.63434" lon="5.52773">
        <ele>459</ele>
        <time>2021-05-29T10:35:19.525Z</time>
      </trkpt>
      <trkpt lat="46.63436" lon="5.52774">
        <ele>459</ele>
        <time>2021-05-29T10:35:20.524Z</time>
      </trkpt>
      <trkpt lat="46.63438" lon="5.52775">
        <ele>459</ele>
        <time>2021-05-29T10:35:21.525Z</time>
      </trkpt>
      <trkpt lat="46.6344" lon="5.52775">
        <ele>460</ele>
        <time>2021-05-29T10:35:22.525Z</time>
      </trkpt>
      <trkpt lat="46.63442" lon="5.52776">
        <ele>460</ele>
        <time>2021-05-29T10:35:23.525Z</time>
      </trkpt>
      <trkpt lat="46.63445" lon="5.52776">
        <ele>461</ele>
        <time>2021-05-29T10:35:24.524Z</time>
      </trkpt>
      <trkpt lat="46.63447" lon="5.52777">
        <ele>461</ele>
        <time>2021-05-29T10:35:25.524Z</time>
      </trkpt>
      <trkpt lat="46.63449" lon="5.52777">
        <ele>462</ele>
        <time>2021-05-29T10:35:26.525Z</time>
      </trkpt>
      <trkpt lat="46.63452" lon="5.52777">
        <ele>462</ele>
        <time>2021-05-29T10:35:27.524Z</time>
      </trkpt>
      <trkpt lat="46.63454" lon="5.52778">
        <ele>463</ele>
        <time>2021-05-29T10:35:28.525Z</time>
      </trkpt>
      <trkpt lat="46.63457" lon="5.52779">
        <ele>463</ele>
        <time>2021-05-29T10:35:29.525Z</time>
      </trkpt>
      <trkpt lat="46.63459" lon="5.52779">
        <ele>463</ele>
        <time>2021-05-29T10:35:30.525Z</time>
      </trkpt>
      <trkpt lat="46.63461" lon="5.52779">
        <ele>464</ele>
        <time>2021-05-29T10:35:31.524Z</time>
      </trkpt>
      <trkpt lat="46.63463" lon="5.52779">
        <ele>464</ele>
        <time>2021-05-29T10:35:32.525Z</time>
      </trkpt>
      <trkpt lat="46.63466" lon="5.52779">
        <ele>465</ele>
        <time>2021-05-29T10:35:33.525Z</time>
      </trkpt>
      <trkpt lat="46.63468" lon="5.52779">
        <ele>465</ele>
        <time>2021-05-29T10:35:34.524Z</time>
      </trkpt>
      <trkpt lat="46.63471" lon="5.52779">
        <ele>466</ele>
        <time>2021-05-29T10:35:35.525Z</time>
      </trkpt>
      <trkpt lat="46.63473" lon="5.52779">
        <ele>466</ele>
        <time>2021-05-29T10:35:36.525Z</time>
      </trkpt>
      <trkpt lat="46.63475" lon="5.52779">
        <ele>467</ele>
        <time>2021-05-29T10:35:37.525Z</time>
      </trkpt>
      <trkpt lat="46.63477" lon="5.52779">
        <ele>467</ele>
        <time>2021-05-29T10:35:38.525Z</time>
      </trkpt>
      <trkpt lat="46.63479" lon="5.52779">
        <ele>466</ele>
        <time>2021-05-29T10:35:39.525Z</time>
      </trkpt>
      <trkpt lat="46.63481" lon="5.52779">
        <ele>466</ele>
        <time>2021-05-29T10:35:40.525Z</time>
      </trkpt>
      <trkpt lat="46.63483" lon="5.52779">
        <ele>466</ele>
        <time>2021-05-29T10:35:41.525Z</time>
      </trkpt>
      <trkpt lat="46.63485" lon="5.52779">
        <ele>466</ele>
        <time>2021-05-29T10:35:42.525Z</time>
      </trkpt>
      <trkpt lat="46.63488" lon="5.5278">
        <ele>466</ele>
        <time>2021-05-29T10:35:43.525Z</time>
      </trkpt>
      <trkpt lat="46.6349" lon="5.5278">
        <ele>466</ele>
        <time>2021-05-29T10:35:44.524Z</time>
      </trkpt>
      <trkpt lat="46.63493" lon="5.52781">
        <ele>466</ele>
        <time>2021-05-29T10:35:45.525Z</time>
      </trkpt>
      <trkpt lat="46.63495" lon="5.52781">
        <ele>465</ele>
        <time>2021-05-29T10:35:46.524Z</time>
      </trkpt>
      <trkpt lat="46.63497" lon="5.52781">
        <ele>465</ele>
        <time>2021-05-29T10:35:47.525Z</time>
      </trkpt>
      <trkpt lat="46.635" lon="5.52781">
        <ele>466</ele>
        <time>2021-05-29T10:35:48.524Z</time>
      </trkpt>
      <trkpt lat="46.63502" lon="5.52781">
        <ele>466</ele>
        <time>2021-05-29T10:35:49.525Z</time>
      </trkpt>
      <trkpt lat="46.63504" lon="5.52781">
        <ele>466</ele>
        <time>2021-05-29T10:35:50.525Z</time>
      </trkpt>
      <trkpt lat="46.63506" lon="5.52781">
        <ele>466</ele>
        <time>2021-05-29T10:35:51.525Z</time>
      </trkpt>
      <trkpt lat="46.63509" lon="5.52781">
        <ele>466</ele>
        <time>2021-05-29T10:35:52.525Z</time>
      </trkpt>
      <trkpt lat="46.63511" lon="5.52782">
        <ele>466</ele>
        <time>2021-05-29T10:35:53.525Z</time>
      </trkpt>
      <trkpt lat="46.63513" lon="5.52782">
        <ele>465</ele>
        <time>2021-05-29T10:35:54.524Z</time>
      </trkpt>
      <trkpt lat="46.63515" lon="5.52782">
        <ele>465</ele>
        <time>2021-05-29T10:35:55.525Z</time>
      </trkpt>
      <trkpt lat="46.63517" lon="5.52782">
        <ele>465</ele>
        <time>2021-05-29T10:35:56.525Z</time>
      </trkpt>
      <trkpt lat="46.63519" lon="5.52782">
        <ele>465</ele>
        <time>2021-05-29T10:35:57.525Z</time>
      </trkpt>
      <trkpt lat="46.63522" lon="5.52783">
        <ele>465</ele>
        <time>2021-05-29T10:35:58.525Z</time>
      </trkpt>
      <trkpt lat="46.63524" lon="5.52783">
        <ele>465</ele>
        <time>2021-05-29T10:35:59.524Z</time>
      </trkpt>
      <trkpt lat="46.63526" lon="5.52784">
        <ele>465</ele>
        <time>2021-05-29T10:36:00.525Z</time>
      </trkpt>
      <trkpt lat="46.63529" lon="5.52784">
        <ele>465</ele>
        <time>2021-05-29T10:36:01.525Z</time>
      </trkpt>
      <trkpt lat="46.63531" lon="5.52784">
        <ele>465</ele>
        <time>2021-05-29T10:36:02.525Z</time>
      </trkpt>
      <trkpt lat="46.63533" lon="5.52784">
        <ele>465</ele>
        <time>2021-05-29T10:36:03.525Z</time>
      </trkpt>
      <trkpt lat="46.63536" lon="5.52784">
        <ele>465</ele>
        <time>2021-05-29T10:36:04.525Z</time>
      </trkpt>
      <trkpt lat="46.63538" lon="5.52784">
        <ele>465</ele>
        <time>2021-05-29T10:36:05.525Z</time>
      </trkpt>
      <trkpt lat="46.6354" lon="5.52784">
        <ele>465</ele>
        <time>2021-05-29T10:36:06.525Z</time>
      </trkpt>
      <trkpt lat="46.63542" lon="5.52784">
        <ele>465</ele>
        <time>2021-05-29T10:36:07.525Z</time>
      </trkpt>
      <trkpt lat="46.63545" lon="5.52785">
        <ele>465</ele>
        <time>2021-05-29T10:36:08.524Z</time>
      </trkpt>
      <trkpt lat="46.63547" lon="5.52785">
        <ele>465</ele>
        <time>2021-05-29T10:36:09.524Z</time>
      </trkpt>
      <trkpt lat="46.63549" lon="5.52785">
        <ele>466</ele>
        <time>2021-05-29T10:36:10.524Z</time>
      </trkpt>
      <trkpt lat="46.63551" lon="5.52785">
        <ele>466</ele>
        <time>2021-05-29T10:36:11.525Z</time>
      </trkpt>
      <trkpt lat="46.63554" lon="5.52786">
        <ele>466</ele>
        <time>2021-05-29T10:36:12.524Z</time>
      </trkpt>
      <trkpt lat="46.63556" lon="5.52786">
        <ele>466</ele>
        <time>2021-05-29T10:36:13.525Z</time>
      </trkpt>
      <trkpt lat="46.63558" lon="5.52786">
        <ele>466</ele>
        <time>2021-05-29T10:36:14.524Z</time>
      </trkpt>
      <trkpt lat="46.6356" lon="5.52787">
        <ele>466</ele>
        <time>2021-05-29T10:36:15.525Z</time>
      </trkpt>
      <trkpt lat="46.63562" lon="5.52787">
        <ele>466</ele>
        <time>2021-05-29T10:36:16.525Z</time>
      </trkpt>
      <trkpt lat="46.63565" lon="5.52787">
        <ele>465</ele>
        <time>2021-05-29T10:36:17.525Z</time>
      </trkpt>
      <trkpt lat="46.63568" lon="5.52788">
        <ele>464</ele>
        <time>2021-05-29T10:36:18.525Z</time>
      </trkpt>
      <trkpt lat="46.63569" lon="5.52788">
        <ele>464</ele>
        <time>2021-05-29T10:36:19.525Z</time>
      </trkpt>
      <trkpt lat="46.63572" lon="5.52788">
        <ele>465</ele>
        <time>2021-05-29T10:36:20.525Z</time>
      </trkpt>
      <trkpt lat="46.63574" lon="5.52788">
        <ele>465</ele>
        <time>2021-05-29T10:36:21.525Z</time>
      </trkpt>
      <trkpt lat="46.63577" lon="5.52789">
        <ele>465</ele>
        <time>2021-05-29T10:36:22.525Z</time>
      </trkpt>
      <trkpt lat="46.63579" lon="5.52789">
        <ele>465</ele>
        <time>2021-05-29T10:36:23.525Z</time>
      </trkpt>
      <trkpt lat="46.63581" lon="5.52789">
        <ele>465</ele>
        <time>2021-05-29T10:36:24.524Z</time>
      </trkpt>
      <trkpt lat="46.63584" lon="5.5279">
        <ele>465</ele>
        <time>2021-05-29T10:36:25.525Z</time>
      </trkpt>
      <trkpt lat="46.63586" lon="5.5279">
        <ele>465</ele>
        <time>2021-05-29T10:36:26.524Z</time>
      </trkpt>
      <trkpt lat="46.63589" lon="5.52791">
        <ele>465</ele>
        <time>2021-05-29T10:36:27.525Z</time>
      </trkpt>
      <trkpt lat="46.63591" lon="5.52792">
        <ele>465</ele>
        <time>2021-05-29T10:36:28.525Z</time>
      </trkpt>
      <trkpt lat="46.63593" lon="5.52792">
        <ele>466</ele>
        <time>2021-05-29T10:36:29.524Z</time>
      </trkpt>
      <trkpt lat="46.63596" lon="5.52792">
        <ele>467</ele>
        <time>2021-05-29T10:36:30.525Z</time>
      </trkpt>
      <trkpt lat="46.63598" lon="5.52793">
        <ele>467</ele>
        <time>2021-05-29T10:36:31.525Z</time>
      </trkpt>
      <trkpt lat="46.636" lon="5.52793">
        <ele>467</ele>
        <time>2021-05-29T10:36:32.525Z</time>
      </trkpt>
      <trkpt lat="46.63603" lon="5.52794">
        <ele>468</ele>
        <time>2021-05-29T10:36:33.525Z</time>
      </trkpt>
      <trkpt lat="46.63605" lon="5.52794">
        <ele>468</ele>
        <time>2021-05-29T10:36:34.525Z</time>
      </trkpt>
      <trkpt lat="46.63607" lon="5.52794">
        <ele>468</ele>
        <time>2021-05-29T10:36:35.524Z</time>
      </trkpt>
      <trkpt lat="46.63609" lon="5.52794">
        <ele>468</ele>
        <time>2021-05-29T10:36:36.525Z</time>
      </trkpt>
      <trkpt lat="46.63611" lon="5.52794">
        <ele>468</ele>
        <time>2021-05-29T10:36:37.525Z</time>
      </trkpt>
      <trkpt lat="46.63613" lon="5.52795">
        <ele>468</ele>
        <time>2021-05-29T10:36:38.524Z</time>
      </trkpt>
      <trkpt lat="46.63616" lon="5.52795">
        <ele>467</ele>
        <time>2021-05-29T10:36:39.525Z</time>
      </trkpt>
      <trkpt lat="46.63618" lon="5.52795">
        <ele>468</ele>
        <time>2021-05-29T10:36:40.525Z</time>
      </trkpt>
      <trkpt lat="46.63621" lon="5.52796">
        <ele>468</ele>
        <time>2021-05-29T10:36:41.525Z</time>
      </trkpt>
      <trkpt lat="46.63623" lon="5.52796">
        <ele>468</ele>
        <time>2021-05-29T10:36:42.525Z</time>
      </trkpt>
      <trkpt lat="46.63625" lon="5.52797">
        <ele>467</ele>
        <time>2021-05-29T10:36:43.524Z</time>
      </trkpt>
      <trkpt lat="46.63627" lon="5.52797">
        <ele>467</ele>
        <time>2021-05-29T10:36:44.525Z</time>
      </trkpt>
      <trkpt lat="46.6363" lon="5.52798">
        <ele>466</ele>
        <time>2021-05-29T10:36:45.525Z</time>
      </trkpt>
      <trkpt lat="46.63632" lon="5.52798">
        <ele>466</ele>
        <time>2021-05-29T10:36:46.525Z</time>
      </trkpt>
      <trkpt lat="46.63634" lon="5.52798">
        <ele>466</ele>
        <time>2021-05-29T10:36:47.525Z</time>
      </trkpt>
      <trkpt lat="46.63636" lon="5.52799">
        <ele>466</ele>
        <time>2021-05-29T10:36:48.524Z</time>
      </trkpt>
      <trkpt lat="46.63638" lon="5.52799">
        <ele>466</ele>
        <time>2021-05-29T10:36:49.525Z</time>
      </trkpt>
      <trkpt lat="46.6364" lon="5.52799">
        <ele>466</ele>
        <time>2021-05-29T10:36:50.525Z</time>
      </trkpt>
      <trkpt lat="46.63643" lon="5.52799">
        <ele>466</ele>
        <time>2021-05-29T10:36:51.524Z</time>
      </trkpt>
      <trkpt lat="46.63645" lon="5.528">
        <ele>466</ele>
        <time>2021-05-29T10:36:52.525Z</time>
      </trkpt>
      <trkpt lat="46.63648" lon="5.528">
        <ele>466</ele>
        <time>2021-05-29T10:36:53.525Z</time>
      </trkpt>
      <trkpt lat="46.6365" lon="5.52801">
        <ele>466</ele>
        <time>2021-05-29T10:36:54.525Z</time>
      </trkpt>
      <trkpt lat="46.63652" lon="5.52801">
        <ele>466</ele>
        <time>2021-05-29T10:36:55.525Z</time>
      </trkpt>
      <trkpt lat="46.63654" lon="5.52801">
        <ele>466</ele>
        <time>2021-05-29T10:36:56.525Z</time>
      </trkpt>
      <trkpt lat="46.63657" lon="5.52801">
        <ele>466</ele>
        <time>2021-05-29T10:36:57.524Z</time>
      </trkpt>
      <trkpt lat="46.63659" lon="5.52801">
        <ele>466</ele>
        <time>2021-05-29T10:36:58.525Z</time>
      </trkpt>
      <trkpt lat="46.63662" lon="5.52802">
        <ele>466</ele>
        <time>2021-05-29T10:36:59.525Z</time>
      </trkpt>
      <trkpt lat="46.63664" lon="5.52802">
        <ele>466</ele>
        <time>2021-05-29T10:37:00.525Z</time>
      </trkpt>
      <trkpt lat="46.63666" lon="5.52802">
        <ele>467</ele>
        <time>2021-05-29T10:37:01.524Z</time>
      </trkpt>
      <trkpt lat="46.63668" lon="5.52802">
        <ele>466</ele>
        <time>2021-05-29T10:37:02.525Z</time>
      </trkpt>
      <trkpt lat="46.63671" lon="5.52801">
        <ele>467</ele>
        <time>2021-05-29T10:37:03.524Z</time>
      </trkpt>
      <trkpt lat="46.63673" lon="5.52801">
        <ele>467</ele>
        <time>2021-05-29T10:37:04.524Z</time>
      </trkpt>
      <trkpt lat="46.63674" lon="5.52801">
        <ele>467</ele>
        <time>2021-05-29T10:37:05.525Z</time>
      </trkpt>
      <trkpt lat="46.63676" lon="5.52801">
        <ele>467</ele>
        <time>2021-05-29T10:37:06.525Z</time>
      </trkpt>
      <trkpt lat="46.63679" lon="5.52801">
        <ele>467</ele>
        <time>2021-05-29T10:37:07.525Z</time>
      </trkpt>
      <trkpt lat="46.63681" lon="5.528">
        <ele>467</ele>
        <time>2021-05-29T10:37:08.525Z</time>
      </trkpt>
      <trkpt lat="46.63684" lon="5.52799">
        <ele>468</ele>
        <time>2021-05-29T10:37:09.525Z</time>
      </trkpt>
      <trkpt lat="46.63685" lon="5.52799">
        <ele>468</ele>
        <time>2021-05-29T10:37:10.524Z</time>
      </trkpt>
      <trkpt lat="46.63688" lon="5.52798">
        <ele>468</ele>
        <time>2021-05-29T10:37:11.525Z</time>
      </trkpt>
      <trkpt lat="46.6369" lon="5.52798">
        <ele>469</ele>
        <time>2021-05-29T10:37:12.525Z</time>
      </trkpt>
      <trkpt lat="46.63692" lon="5.52797">
        <ele>469</ele>
        <time>2021-05-29T10:37:13.525Z</time>
      </trkpt>
      <trkpt lat="46.63694" lon="5.52796">
        <ele>469</ele>
        <time>2021-05-29T10:37:14.524Z</time>
      </trkpt>
      <trkpt lat="46.63696" lon="5.52796">
        <ele>469</ele>
        <time>2021-05-29T10:37:15.525Z</time>
      </trkpt>
      <trkpt lat="46.63699" lon="5.52795">
        <ele>469</ele>
        <time>2021-05-29T10:37:16.524Z</time>
      </trkpt>
      <trkpt lat="46.63702" lon="5.52795">
        <ele>470</ele>
        <time>2021-05-29T10:37:17.524Z</time>
      </trkpt>
      <trkpt lat="46.63704" lon="5.52794">
        <ele>470</ele>
        <time>2021-05-29T10:37:18.525Z</time>
      </trkpt>
      <trkpt lat="46.63707" lon="5.52793">
        <ele>470</ele>
        <time>2021-05-29T10:37:19.525Z</time>
      </trkpt>
      <trkpt lat="46.63708" lon="5.52792">
        <ele>470</ele>
        <time>2021-05-29T10:37:20.525Z</time>
      </trkpt>
      <trkpt lat="46.63711" lon="5.52792">
        <ele>470</ele>
        <time>2021-05-29T10:37:21.524Z</time>
      </trkpt>
      <trkpt lat="46.63713" lon="5.52792">
        <ele>471</ele>
        <time>2021-05-29T10:37:22.524Z</time>
      </trkpt>
      <trkpt lat="46.63717" lon="5.52792">
        <ele>471</ele>
        <time>2021-05-29T10:37:23.524Z</time>
      </trkpt>
      <trkpt lat="46.63719" lon="5.52791">
        <ele>471</ele>
        <time>2021-05-29T10:37:24.524Z</time>
      </trkpt>
      <trkpt lat="46.63721" lon="5.52791">
        <ele>471</ele>
        <time>2021-05-29T10:37:25.525Z</time>
      </trkpt>
      <trkpt lat="46.63724" lon="5.5279">
        <ele>471</ele>
        <time>2021-05-29T10:37:26.525Z</time>
      </trkpt>
      <trkpt lat="46.63727" lon="5.5279">
        <ele>472</ele>
        <time>2021-05-29T10:37:27.525Z</time>
      </trkpt>
      <trkpt lat="46.63729" lon="5.5279">
        <ele>472</ele>
        <time>2021-05-29T10:37:28.525Z</time>
      </trkpt>
      <trkpt lat="46.63732" lon="5.52791">
        <ele>472</ele>
        <time>2021-05-29T10:37:29.525Z</time>
      </trkpt>
      <trkpt lat="46.63734" lon="5.52791">
        <ele>472</ele>
        <time>2021-05-29T10:37:30.525Z</time>
      </trkpt>
      <trkpt lat="46.63737" lon="5.52791">
        <ele>472</ele>
        <time>2021-05-29T10:37:31.525Z</time>
      </trkpt>
      <trkpt lat="46.63739" lon="5.52791">
        <ele>472</ele>
        <time>2021-05-29T10:37:32.525Z</time>
      </trkpt>
      <trkpt lat="46.63741" lon="5.52791">
        <ele>471</ele>
        <time>2021-05-29T10:37:33.525Z</time>
      </trkpt>
      <trkpt lat="46.63744" lon="5.52791">
        <ele>471</ele>
        <time>2021-05-29T10:37:34.525Z</time>
      </trkpt>
      <trkpt lat="46.63747" lon="5.52791">
        <ele>471</ele>
        <time>2021-05-29T10:37:35.525Z</time>
      </trkpt>
      <trkpt lat="46.6375" lon="5.52791">
        <ele>470</ele>
        <time>2021-05-29T10:37:36.524Z</time>
      </trkpt>
      <trkpt lat="46.63752" lon="5.5279">
        <ele>470</ele>
        <time>2021-05-29T10:37:37.525Z</time>
      </trkpt>
      <trkpt lat="46.63755" lon="5.5279">
        <ele>470</ele>
        <time>2021-05-29T10:37:38.525Z</time>
      </trkpt>
      <trkpt lat="46.63757" lon="5.5279">
        <ele>469</ele>
        <time>2021-05-29T10:37:39.525Z</time>
      </trkpt>
      <trkpt lat="46.63759" lon="5.52789">
        <ele>469</ele>
        <time>2021-05-29T10:37:40.524Z</time>
      </trkpt>
      <trkpt lat="46.63762" lon="5.52789">
        <ele>469</ele>
        <time>2021-05-29T10:37:41.524Z</time>
      </trkpt>
      <trkpt lat="46.63764" lon="5.52788">
        <ele>470</ele>
        <time>2021-05-29T10:37:42.525Z</time>
      </trkpt>
      <trkpt lat="46.63765" lon="5.52788">
        <ele>470</ele>
        <time>2021-05-29T10:37:43.524Z</time>
      </trkpt>
      <trkpt lat="46.63768" lon="5.52787">
        <ele>470</ele>
        <time>2021-05-29T10:37:44.525Z</time>
      </trkpt>
      <trkpt lat="46.6377" lon="5.52786">
        <ele>471</ele>
        <time>2021-05-29T10:37:45.524Z</time>
      </trkpt>
      <trkpt lat="46.63773" lon="5.52785">
        <ele>471</ele>
        <time>2021-05-29T10:37:46.525Z</time>
      </trkpt>
      <trkpt lat="46.63775" lon="5.52784">
        <ele>471</ele>
        <time>2021-05-29T10:37:47.524Z</time>
      </trkpt>
      <trkpt lat="46.63777" lon="5.52784">
        <ele>472</ele>
        <time>2021-05-29T10:37:48.525Z</time>
      </trkpt>
      <trkpt lat="46.6378" lon="5.52783">
        <ele>472</ele>
        <time>2021-05-29T10:37:49.525Z</time>
      </trkpt>
      <trkpt lat="46.63783" lon="5.52781">
        <ele>472</ele>
        <time>2021-05-29T10:37:50.525Z</time>
      </trkpt>
      <trkpt lat="46.63785" lon="5.5278">
        <ele>473</ele>
        <time>2021-05-29T10:37:51.524Z</time>
      </trkpt>
      <trkpt lat="46.63787" lon="5.5278">
        <ele>473</ele>
        <time>2021-05-29T10:37:52.525Z</time>
      </trkpt>
      <trkpt lat="46.6379" lon="5.52779">
        <ele>473</ele>
        <time>2021-05-29T10:37:53.525Z</time>
      </trkpt>
      <trkpt lat="46.63792" lon="5.52779">
        <ele>473</ele>
        <time>2021-05-29T10:37:54.525Z</time>
      </trkpt>
      <trkpt lat="46.63794" lon="5.52779">
        <ele>473</ele>
        <time>2021-05-29T10:37:55.524Z</time>
      </trkpt>
      <trkpt lat="46.63796" lon="5.52778">
        <ele>473</ele>
        <time>2021-05-29T10:37:56.525Z</time>
      </trkpt>
      <trkpt lat="46.63798" lon="5.52777">
        <ele>473</ele>
        <time>2021-05-29T10:37:57.525Z</time>
      </trkpt>
      <trkpt lat="46.63801" lon="5.52776">
        <ele>473</ele>
        <time>2021-05-29T10:37:58.525Z</time>
      </trkpt>
      <trkpt lat="46.63803" lon="5.52775">
        <ele>473</ele>
        <time>2021-05-29T10:37:59.524Z</time>
      </trkpt>
      <trkpt lat="46.63806" lon="5.52774">
        <ele>474</ele>
        <time>2021-05-29T10:38:00.525Z</time>
      </trkpt>
      <trkpt lat="46.63808" lon="5.52773">
        <ele>474</ele>
        <time>2021-05-29T10:38:01.525Z</time>
      </trkpt>
      <trkpt lat="46.63811" lon="5.52772">
        <ele>475</ele>
        <time>2021-05-29T10:38:02.525Z</time>
      </trkpt>
      <trkpt lat="46.63813" lon="5.52771">
        <ele>475</ele>
        <time>2021-05-29T10:38:03.524Z</time>
      </trkpt>
      <trkpt lat="46.63815" lon="5.52769">
        <ele>476</ele>
        <time>2021-05-29T10:38:04.525Z</time>
      </trkpt>
      <trkpt lat="46.63817" lon="5.52768">
        <ele>476</ele>
        <time>2021-05-29T10:38:05.525Z</time>
      </trkpt>
      <trkpt lat="46.63819" lon="5.52766">
        <ele>476</ele>
        <time>2021-05-29T10:38:06.525Z</time>
      </trkpt>
      <trkpt lat="46.63821" lon="5.52763">
        <ele>476</ele>
        <time>2021-05-29T10:38:07.524Z</time>
      </trkpt>
      <trkpt lat="46.63823" lon="5.52761">
        <ele>476</ele>
        <time>2021-05-29T10:38:08.525Z</time>
      </trkpt>
      <trkpt lat="46.63825" lon="5.52759">
        <ele>476</ele>
        <time>2021-05-29T10:38:09.524Z</time>
      </trkpt>
      <trkpt lat="46.63827" lon="5.52758">
        <ele>476</ele>
        <time>2021-05-29T10:38:10.525Z</time>
      </trkpt>
      <trkpt lat="46.63829" lon="5.52756">
        <ele>476</ele>
        <time>2021-05-29T10:38:11.525Z</time>
      </trkpt>
      <trkpt lat="46.63831" lon="5.52754">
        <ele>476</ele>
        <time>2021-05-29T10:38:12.524Z</time>
      </trkpt>
      <trkpt lat="46.63833" lon="5.52752">
        <ele>476</ele>
        <time>2021-05-29T10:38:13.525Z</time>
      </trkpt>
      <trkpt lat="46.63834" lon="5.52749">
        <ele>476</ele>
        <time>2021-05-29T10:38:14.525Z</time>
      </trkpt>
      <trkpt lat="46.63835" lon="5.52747">
        <ele>476</ele>
        <time>2021-05-29T10:38:15.525Z</time>
      </trkpt>
      <trkpt lat="46.63837" lon="5.52744">
        <ele>476</ele>
        <time>2021-05-29T10:38:16.524Z</time>
      </trkpt>
      <trkpt lat="46.63838" lon="5.52741">
        <ele>476</ele>
        <time>2021-05-29T10:38:17.525Z</time>
      </trkpt>
      <trkpt lat="46.6384" lon="5.52739">
        <ele>476</ele>
        <time>2021-05-29T10:38:18.525Z</time>
      </trkpt>
      <trkpt lat="46.63842" lon="5.52737">
        <ele>476</ele>
        <time>2021-05-29T10:38:19.524Z</time>
      </trkpt>
      <trkpt lat="46.63843" lon="5.52735">
        <ele>476</ele>
        <time>2021-05-29T10:38:20.524Z</time>
      </trkpt>
      <trkpt lat="46.63845" lon="5.52733">
        <ele>476</ele>
        <time>2021-05-29T10:38:21.525Z</time>
      </trkpt>
      <trkpt lat="46.63847" lon="5.52731">
        <ele>476</ele>
        <time>2021-05-29T10:38:22.525Z</time>
      </trkpt>
      <trkpt lat="46.63848" lon="5.5273">
        <ele>476</ele>
        <time>2021-05-29T10:38:23.525Z</time>
      </trkpt>
      <trkpt lat="46.63851" lon="5.52727">
        <ele>477</ele>
        <time>2021-05-29T10:38:24.525Z</time>
      </trkpt>
      <trkpt lat="46.63852" lon="5.52725">
        <ele>477</ele>
        <time>2021-05-29T10:38:25.525Z</time>
      </trkpt>
      <trkpt lat="46.63854" lon="5.52722">
        <ele>477</ele>
        <time>2021-05-29T10:38:26.524Z</time>
      </trkpt>
      <trkpt lat="46.63857" lon="5.52718">
        <ele>478</ele>
        <time>2021-05-29T10:38:27.525Z</time>
      </trkpt>
      <trkpt lat="46.63859" lon="5.52715">
        <ele>478</ele>
        <time>2021-05-29T10:38:28.525Z</time>
      </trkpt>
      <trkpt lat="46.63861" lon="5.52714">
        <ele>478</ele>
        <time>2021-05-29T10:38:29.525Z</time>
      </trkpt>
      <trkpt lat="46.63864" lon="5.52712">
        <ele>478</ele>
        <time>2021-05-29T10:38:30.524Z</time>
      </trkpt>
      <trkpt lat="46.63867" lon="5.5271">
        <ele>478</ele>
        <time>2021-05-29T10:38:31.525Z</time>
      </trkpt>
      <trkpt lat="46.63869" lon="5.52708">
        <ele>478</ele>
        <time>2021-05-29T10:38:32.525Z</time>
      </trkpt>
      <trkpt lat="46.6387" lon="5.52707">
        <ele>478</ele>
        <time>2021-05-29T10:38:33.525Z</time>
      </trkpt>
      <trkpt lat="46.63872" lon="5.52706">
        <ele>478</ele>
        <time>2021-05-29T10:38:34.525Z</time>
      </trkpt>
      <trkpt lat="46.63874" lon="5.52705">
        <ele>479</ele>
        <time>2021-05-29T10:38:35.524Z</time>
      </trkpt>
      <trkpt lat="46.63876" lon="5.52704">
        <ele>479</ele>
        <time>2021-05-29T10:38:36.524Z</time>
      </trkpt>
      <trkpt lat="46.63878" lon="5.52702">
        <ele>479</ele>
        <time>2021-05-29T10:38:37.525Z</time>
      </trkpt>
      <trkpt lat="46.6388" lon="5.52701">
        <ele>480</ele>
        <time>2021-05-29T10:38:38.525Z</time>
      </trkpt>
      <trkpt lat="46.63881" lon="5.52699">
        <ele>480</ele>
        <time>2021-05-29T10:38:39.524Z</time>
      </trkpt>
      <trkpt lat="46.63883" lon="5.52697">
        <ele>480</ele>
        <time>2021-05-29T10:38:40.524Z</time>
      </trkpt>
      <trkpt lat="46.63884" lon="5.52695">
        <ele>480</ele>
        <time>2021-05-29T10:38:41.525Z</time>
      </trkpt>
      <trkpt lat="46.63887" lon="5.52694">
        <ele>480</ele>
        <time>2021-05-29T10:38:42.524Z</time>
      </trkpt>
      <trkpt lat="46.63888" lon="5.52693">
        <ele>480</ele>
        <time>2021-05-29T10:38:43.524Z</time>
      </trkpt>
      <trkpt lat="46.6389" lon="5.52692">
        <ele>479</ele>
        <time>2021-05-29T10:38:44.525Z</time>
      </trkpt>
      <trkpt lat="46.63893" lon="5.52691">
        <ele>479</ele>
        <time>2021-05-29T10:38:45.525Z</time>
      </trkpt>
      <trkpt lat="46.63895" lon="5.5269">
        <ele>479</ele>
        <time>2021-05-29T10:38:46.524Z</time>
      </trkpt>
      <trkpt lat="46.63897" lon="5.52688">
        <ele>479</ele>
        <time>2021-05-29T10:38:47.524Z</time>
      </trkpt>
      <trkpt lat="46.63899" lon="5.52687">
        <ele>479</ele>
        <time>2021-05-29T10:38:48.525Z</time>
      </trkpt>
      <trkpt lat="46.63901" lon="5.52687">
        <ele>478</ele>
        <time>2021-05-29T10:38:49.525Z</time>
      </trkpt>
      <trkpt lat="46.63903" lon="5.52687">
        <ele>478</ele>
        <time>2021-05-29T10:38:50.525Z</time>
      </trkpt>
      <trkpt lat="46.63906" lon="5.52687">
        <ele>478</ele>
        <time>2021-05-29T10:38:51.524Z</time>
      </trkpt>
      <trkpt lat="46.63908" lon="5.52688">
        <ele>477</ele>
        <time>2021-05-29T10:38:52.525Z</time>
      </trkpt>
      <trkpt lat="46.63911" lon="5.52689">
        <ele>477</ele>
        <time>2021-05-29T10:38:53.525Z</time>
      </trkpt>
      <trkpt lat="46.63913" lon="5.5269">
        <ele>477</ele>
        <time>2021-05-29T10:38:54.525Z</time>
      </trkpt>
      <trkpt lat="46.63915" lon="5.52691">
        <ele>476</ele>
        <time>2021-05-29T10:38:55.524Z</time>
      </trkpt>
      <trkpt lat="46.63917" lon="5.52691">
        <ele>476</ele>
        <time>2021-05-29T10:38:56.525Z</time>
      </trkpt>
      <trkpt lat="46.63919" lon="5.52692">
        <ele>476</ele>
        <time>2021-05-29T10:38:57.525Z</time>
      </trkpt>
      <trkpt lat="46.63921" lon="5.52692">
        <ele>476</ele>
        <time>2021-05-29T10:38:58.525Z</time>
      </trkpt>
      <trkpt lat="46.63923" lon="5.52692">
        <ele>476</ele>
        <time>2021-05-29T10:38:59.524Z</time>
      </trkpt>
      <trkpt lat="46.63925" lon="5.52692">
        <ele>476</ele>
        <time>2021-05-29T10:39:00.525Z</time>
      </trkpt>
      <trkpt lat="46.63927" lon="5.52692">
        <ele>476</ele>
        <time>2021-05-29T10:39:01.524Z</time>
      </trkpt>
      <trkpt lat="46.63928" lon="5.52691">
        <ele>476</ele>
        <time>2021-05-29T10:39:02.525Z</time>
      </trkpt>
      <trkpt lat="46.63929" lon="5.52691">
        <ele>476</ele>
        <time>2021-05-29T10:39:03.524Z</time>
      </trkpt>
      <trkpt lat="46.6393" lon="5.5269">
        <ele>476</ele>
        <time>2021-05-29T10:39:04.525Z</time>
      </trkpt>
      <trkpt lat="46.63931" lon="5.52689">
        <ele>475</ele>
        <time>2021-05-29T10:39:05.525Z</time>
      </trkpt>
      <trkpt lat="46.63932" lon="5.52688">
        <ele>475</ele>
        <time>2021-05-29T10:39:06.525Z</time>
      </trkpt>
      <trkpt lat="46.63934" lon="5.52687">
        <ele>475</ele>
        <time>2021-05-29T10:39:07.525Z</time>
      </trkpt>
      <trkpt lat="46.63936" lon="5.52688">
        <ele>475</ele>
        <time>2021-05-29T10:39:08.524Z</time>
      </trkpt>
      <trkpt lat="46.63938" lon="5.52688">
        <ele>475</ele>
        <time>2021-05-29T10:39:09.524Z</time>
      </trkpt>
      <trkpt lat="46.63939" lon="5.52688">
        <ele>475</ele>
        <time>2021-05-29T10:39:10.525Z</time>
      </trkpt>
      <trkpt lat="46.6394" lon="5.5269">
        <ele>474</ele>
        <time>2021-05-29T10:39:11.524Z</time>
      </trkpt>
      <trkpt lat="46.63942" lon="5.52691">
        <ele>474</ele>
        <time>2021-05-29T10:39:12.525Z</time>
      </trkpt>
      <trkpt lat="46.63944" lon="5.52692">
        <ele>474</ele>
        <time>2021-05-29T10:39:13.525Z</time>
      </trkpt>
      <trkpt lat="46.63945" lon="5.52693">
        <ele>474</ele>
        <time>2021-05-29T10:39:14.525Z</time>
      </trkpt>
      <trkpt lat="46.63945" lon="5.52694">
        <ele>474</ele>
        <time>2021-05-29T10:39:15.525Z</time>
      </trkpt>
      <trkpt lat="46.63947" lon="5.52694">
        <ele>474</ele>
        <time>2021-05-29T10:39:16.524Z</time>
      </trkpt>
      <trkpt lat="46.63949" lon="5.52694">
        <ele>474</ele>
        <time>2021-05-29T10:39:17.525Z</time>
      </trkpt>
      <trkpt lat="46.63951" lon="5.52694">
        <ele>474</ele>
        <time>2021-05-29T10:39:18.524Z</time>
      </trkpt>
      <trkpt lat="46.63952" lon="5.52693">
        <ele>473</ele>
        <time>2021-05-29T10:39:19.524Z</time>
      </trkpt>
      <trkpt lat="46.63953" lon="5.52692">
        <ele>473</ele>
        <time>2021-05-29T10:39:20.525Z</time>
      </trkpt>
      <trkpt lat="46.63956" lon="5.52692">
        <ele>473</ele>
        <time>2021-05-29T10:39:21.525Z</time>
      </trkpt>
      <trkpt lat="46.63957" lon="5.52692">
        <ele>472</ele>
        <time>2021-05-29T10:39:22.525Z</time>
      </trkpt>
      <trkpt lat="46.63959" lon="5.52692">
        <ele>472</ele>
        <time>2021-05-29T10:39:23.525Z</time>
      </trkpt>
      <trkpt lat="46.63961" lon="5.52692">
        <ele>472</ele>
        <time>2021-05-29T10:39:24.524Z</time>
      </trkpt>
      <trkpt lat="46.63963" lon="5.52691">
        <ele>471</ele>
        <time>2021-05-29T10:39:25.525Z</time>
      </trkpt>
      <trkpt lat="46.63966" lon="5.52691">
        <ele>471</ele>
        <time>2021-05-29T10:39:26.525Z</time>
      </trkpt>
      <trkpt lat="46.63968" lon="5.52691">
        <ele>470</ele>
        <time>2021-05-29T10:39:27.524Z</time>
      </trkpt>
      <trkpt lat="46.6397" lon="5.5269">
        <ele>470</ele>
        <time>2021-05-29T10:39:28.525Z</time>
      </trkpt>
      <trkpt lat="46.63972" lon="5.52691">
        <ele>470</ele>
        <time>2021-05-29T10:39:29.525Z</time>
      </trkpt>
      <trkpt lat="46.63973" lon="5.52692">
        <ele>469</ele>
        <time>2021-05-29T10:39:30.525Z</time>
      </trkpt>
      <trkpt lat="46.63975" lon="5.52693">
        <ele>469</ele>
        <time>2021-05-29T10:39:31.525Z</time>
      </trkpt>
      <trkpt lat="46.63976" lon="5.52693">
        <ele>469</ele>
        <time>2021-05-29T10:39:32.524Z</time>
      </trkpt>
      <trkpt lat="46.63977" lon="5.52693">
        <ele>469</ele>
        <time>2021-05-29T10:39:33.524Z</time>
      </trkpt>
      <trkpt lat="46.63978" lon="5.52693">
        <ele>469</ele>
        <time>2021-05-29T10:39:34.525Z</time>
      </trkpt>
      <trkpt lat="46.63979" lon="5.52693">
        <ele>468</ele>
        <time>2021-05-29T10:39:35.525Z</time>
      </trkpt>
      <trkpt lat="46.6398" lon="5.52693">
        <ele>468</ele>
        <time>2021-05-29T10:39:36.525Z</time>
      </trkpt>
      <trkpt lat="46.63981" lon="5.52694">
        <ele>468</ele>
        <time>2021-05-29T10:39:37.524Z</time>
      </trkpt>
      <trkpt lat="46.63982" lon="5.52695">
        <ele>468</ele>
        <time>2021-05-29T10:39:38.525Z</time>
      </trkpt>
      <trkpt lat="46.63983" lon="5.52696">
        <ele>468</ele>
        <time>2021-05-29T10:39:39.525Z</time>
      </trkpt>
      <trkpt lat="46.63983" lon="5.52698">
        <ele>468</ele>
        <time>2021-05-29T10:39:40.525Z</time>
      </trkpt>
      <trkpt lat="46.63983" lon="5.52699">
        <ele>468</ele>
        <time>2021-05-29T10:39:41.525Z</time>
      </trkpt>
      <trkpt lat="46.63983" lon="5.527">
        <ele>468</ele>
        <time>2021-05-29T10:39:42.525Z</time>
      </trkpt>
      <trkpt lat="46.63983" lon="5.527">
        <ele>468</ele>
        <time>2021-05-29T10:39:43.525Z</time>
      </trkpt>
      <trkpt lat="46.63983" lon="5.52698">
        <ele>468</ele>
        <time>2021-05-29T10:39:44.525Z</time>
      </trkpt>
      <trkpt lat="46.63984" lon="5.52697">
        <ele>468</ele>
        <time>2021-05-29T10:39:45.525Z</time>
      </trkpt>
      <trkpt lat="46.63984" lon="5.52695">
        <ele>468</ele>
        <time>2021-05-29T10:39:46.524Z</time>
      </trkpt>
      <trkpt lat="46.63985" lon="5.52693">
        <ele>468</ele>
        <time>2021-05-29T10:39:47.525Z</time>
      </trkpt>
      <trkpt lat="46.63985" lon="5.52691">
        <ele>468</ele>
        <time>2021-05-29T10:39:48.525Z</time>
      </trkpt>
      <trkpt lat="46.63986" lon="5.52689">
        <ele>468</ele>
        <time>2021-05-29T10:39:49.525Z</time>
      </trkpt>
      <trkpt lat="46.63987" lon="5.52687">
        <ele>469</ele>
        <time>2021-05-29T10:39:50.524Z</time>
      </trkpt>
      <trkpt lat="46.63988" lon="5.52685">
        <ele>469</ele>
        <time>2021-05-29T10:39:51.524Z</time>
      </trkpt>
      <trkpt lat="46.6399" lon="5.52683">
        <ele>469</ele>
        <time>2021-05-29T10:39:52.525Z</time>
      </trkpt>
      <trkpt lat="46.63991" lon="5.52682">
        <ele>469</ele>
        <time>2021-05-29T10:39:53.524Z</time>
      </trkpt>
      <trkpt lat="46.63992" lon="5.52681">
        <ele>469</ele>
        <time>2021-05-29T10:39:54.524Z</time>
      </trkpt>
      <trkpt lat="46.63993" lon="5.52681">
        <ele>469</ele>
        <time>2021-05-29T10:39:55.525Z</time>
      </trkpt>
      <trkpt lat="46.63994" lon="5.52681">
        <ele>469</ele>
        <time>2021-05-29T10:39:56.524Z</time>
      </trkpt>
      <trkpt lat="46.63994" lon="5.52681">
        <ele>469</ele>
        <time>2021-05-29T10:39:57.525Z</time>
      </trkpt>
      <trkpt lat="46.63995" lon="5.52682">
        <ele>469</ele>
        <time>2021-05-29T10:39:58.525Z</time>
      </trkpt>
      <trkpt lat="46.63995" lon="5.52682">
        <ele>469</ele>
        <time>2021-05-29T10:39:59.524Z</time>
      </trkpt>
      <trkpt lat="46.63995" lon="5.52682">
        <ele>468</ele>
        <time>2021-05-29T10:40:00.524Z</time>
      </trkpt>
      <trkpt lat="46.63996" lon="5.52682">
        <ele>468</ele>
        <time>2021-05-29T10:40:01.525Z</time>
      </trkpt>
      <trkpt lat="46.63996" lon="5.52682">
        <ele>468</ele>
        <time>2021-05-29T10:40:02.524Z</time>
      </trkpt>
      <trkpt lat="46.63996" lon="5.52682">
        <ele>468</ele>
        <time>2021-05-29T10:40:03.525Z</time>
      </trkpt>
      <trkpt lat="46.63995" lon="5.52682">
        <ele>467</ele>
        <time>2021-05-29T10:40:04.525Z</time>
      </trkpt>
      <trkpt lat="46.63995" lon="5.52682">
        <ele>467</ele>
        <time>2021-05-29T10:40:05.525Z</time>
      </trkpt>
      <trkpt lat="46.63995" lon="5.52682">
        <ele>466</ele>
        <time>2021-05-29T10:40:06.525Z</time>
      </trkpt>
      <trkpt lat="46.63994" lon="5.52681">
        <ele>466</ele>
        <time>2021-05-29T10:40:07.525Z</time>
      </trkpt>
      <trkpt lat="46.63995" lon="5.52681">
        <ele>466</ele>
        <time>2021-05-29T10:40:08.525Z</time>
      </trkpt>
      <trkpt lat="46.63995" lon="5.5268">
        <ele>465</ele>
        <time>2021-05-29T10:40:09.525Z</time>
      </trkpt>
      <trkpt lat="46.63995" lon="5.5268">
        <ele>465</ele>
        <time>2021-05-29T10:40:10.525Z</time>
      </trkpt>
      <trkpt lat="46.63995" lon="5.5268">
        <ele>465</ele>
        <time>2021-05-29T10:40:11.525Z</time>
      </trkpt>
      <trkpt lat="46.63995" lon="5.5268">
        <ele>466</ele>
        <time>2021-05-29T10:40:12.524Z</time>
      </trkpt>
      <trkpt lat="46.63995" lon="5.5268">
        <ele>466</ele>
        <time>2021-05-29T10:40:13.525Z</time>
      </trkpt>
      <trkpt lat="46.63995" lon="5.5268">
        <ele>466</ele>
        <time>2021-05-29T10:40:14.525Z</time>
      </trkpt>
      <trkpt lat="46.63995" lon="5.5268">
        <ele>466</ele>
        <time>2021-05-29T10:40:15.525Z</time>
      </trkpt>
      <trkpt lat="46.63995" lon="5.5268">
        <ele>466</ele>
        <time>2021-05-29T10:40:16.525Z</time>
      </trkpt>
      <trkpt lat="46.63995" lon="5.5268">
        <ele>466</ele>
        <time>2021-05-29T10:40:17.524Z</time>
      </trkpt>
      <trkpt lat="46.63995" lon="5.5268">
        <ele>466</ele>
        <time>2021-05-29T10:40:18.525Z</time>
      </trkpt>
      <trkpt lat="46.63995" lon="5.5268">
        <ele>466</ele>
        <time>2021-05-29T10:40:19.525Z</time>
      </trkpt>
      <trkpt lat="46.63995" lon="5.5268">
        <ele>466</ele>
        <time>2021-05-29T10:40:20.524Z</time>
      </trkpt>
      <trkpt lat="46.63995" lon="5.5268">
        <ele>466</ele>
        <time>2021-05-29T10:40:21.525Z</time>
      </trkpt>
      <trkpt lat="46.63995" lon="5.5268">
        <ele>466</ele>
        <time>2021-05-29T10:40:22.525Z</time>
      </trkpt>
      <trkpt lat="46.63995" lon="5.5268">
        <ele>466</ele>
        <time>2021-05-29T10:40:23.524Z</time>
      </trkpt>
      <trkpt lat="46.63995" lon="5.5268">
        <ele>466</ele>
        <time>2021-05-29T10:40:24.524Z</time>
      </trkpt>
      <trkpt lat="46.63996" lon="5.5268">
        <ele>466</ele>
        <time>2021-05-29T10:40:25.525Z</time>
      </trkpt>
      <trkpt lat="46.63996" lon="5.5268">
        <ele>466</ele>
        <time>2021-05-29T10:40:26.524Z</time>
      </trkpt>
      <trkpt lat="46.63996" lon="5.5268">
        <ele>466</ele>
        <time>2021-05-29T10:40:27.524Z</time>
      </trkpt>
      <trkpt lat="46.63996" lon="5.5268">
        <ele>466</ele>
        <time>2021-05-29T10:40:28.524Z</time>
      </trkpt>
      <trkpt lat="46.63996" lon="5.5268">
        <ele>466</ele>
        <time>2021-05-29T10:40:29.524Z</time>
      </trkpt>
      <trkpt lat="46.63996" lon="5.5268">
        <ele>466</ele>
        <time>2021-05-29T10:40:30.524Z</time>
      </trkpt>
      <trkpt lat="46.63996" lon="5.5268">
        <ele>466</ele>
        <time>2021-05-29T10:40:31.524Z</time>
      </trkpt>
      <trkpt lat="46.63996" lon="5.5268">
        <ele>466</ele>
        <time>2021-05-29T10:40:32.525Z</time>
      </trkpt>
      <trkpt lat="46.63996" lon="5.5268">
        <ele>466</ele>
        <time>2021-05-29T10:40:33.525Z</time>
      </trkpt>
      <trkpt lat="46.63996" lon="5.5268">
        <ele>466</ele>
        <time>2021-05-29T10:40:34.525Z</time>
      </trkpt>
      <trkpt lat="46.63964" lon="5.52701">
        <ele>467</ele>
        <time>2021-05-29T10:40:35.527Z</time>
      </trkpt>
      <trkpt lat="46.63964" lon="5.52701">
        <ele>467</ele>
        <time>2021-05-29T10:40:36.526Z</time>
      </trkpt>
      <trkpt lat="46.63963" lon="5.52701">
        <ele>467</ele>
        <time>2021-05-29T10:40:37.526Z</time>
      </trkpt>
      <trkpt lat="46.63962" lon="5.52701">
        <ele>467</ele>
        <time>2021-05-29T10:40:38.527Z</time>
      </trkpt>
      <trkpt lat="46.6396" lon="5.527">
        <ele>467</ele>
        <time>2021-05-29T10:40:39.526Z</time>
      </trkpt>
      <trkpt lat="46.63958" lon="5.527">
        <ele>467</ele>
        <time>2021-05-29T10:40:40.526Z</time>
      </trkpt>
      <trkpt lat="46.63956" lon="5.52699">
        <ele>467</ele>
        <time>2021-05-29T10:40:41.526Z</time>
      </trkpt>
      <trkpt lat="46.63955" lon="5.52699">
        <ele>467</ele>
        <time>2021-05-29T10:40:42.526Z</time>
      </trkpt>
      <trkpt lat="46.63954" lon="5.52699">
        <ele>466</ele>
        <time>2021-05-29T10:40:43.526Z</time>
      </trkpt>
      <trkpt lat="46.63953" lon="5.52699">
        <ele>466</ele>
        <time>2021-05-29T10:40:44.526Z</time>
      </trkpt>
      <trkpt lat="46.63952" lon="5.52697">
        <ele>466</ele>
        <time>2021-05-29T10:40:45.526Z</time>
      </trkpt>
      <trkpt lat="46.63951" lon="5.52696">
        <ele>465</ele>
        <time>2021-05-29T10:40:46.526Z</time>
      </trkpt>
      <trkpt lat="46.63951" lon="5.52696">
        <ele>465</ele>
        <time>2021-05-29T10:40:47.526Z</time>
      </trkpt>
      <trkpt lat="46.6395" lon="5.52696">
        <ele>464</ele>
        <time>2021-05-29T10:40:48.526Z</time>
      </trkpt>
      <trkpt lat="46.6395" lon="5.52696">
        <ele>464</ele>
        <time>2021-05-29T10:40:49.527Z</time>
      </trkpt>
      <trkpt lat="46.63949" lon="5.52695">
        <ele>464</ele>
        <time>2021-05-29T10:40:50.526Z</time>
      </trkpt>
      <trkpt lat="46.63948" lon="5.52696">
        <ele>464</ele>
        <time>2021-05-29T10:40:51.527Z</time>
      </trkpt>
      <trkpt lat="46.63947" lon="5.52697">
        <ele>465</ele>
        <time>2021-05-29T10:40:52.526Z</time>
      </trkpt>
      <trkpt lat="46.63946" lon="5.52698">
        <ele>465</ele>
        <time>2021-05-29T10:40:53.527Z</time>
      </trkpt>
      <trkpt lat="46.63947" lon="5.52698">
        <ele>466</ele>
        <time>2021-05-29T10:40:54.527Z</time>
      </trkpt>
      <trkpt lat="46.63948" lon="5.52698">
        <ele>466</ele>
        <time>2021-05-29T10:40:55.526Z</time>
      </trkpt>
      <trkpt lat="46.63949" lon="5.52698">
        <ele>467</ele>
        <time>2021-05-29T10:40:56.526Z</time>
      </trkpt>
      <trkpt lat="46.63949" lon="5.52698">
        <ele>467</ele>
        <time>2021-05-29T10:40:57.527Z</time>
      </trkpt>
      <trkpt lat="46.63949" lon="5.52699">
        <ele>468</ele>
        <time>2021-05-29T10:40:58.527Z</time>
      </trkpt>
      <trkpt lat="46.63949" lon="5.52699">
        <ele>468</ele>
        <time>2021-05-29T10:40:59.527Z</time>
      </trkpt>
      <trkpt lat="46.63949" lon="5.527">
        <ele>469</ele>
        <time>2021-05-29T10:41:00.526Z</time>
      </trkpt>
      <trkpt lat="46.63949" lon="5.52701">
        <ele>469</ele>
        <time>2021-05-29T10:41:01.527Z</time>
      </trkpt>
      <trkpt lat="46.63949" lon="5.52702">
        <ele>470</ele>
        <time>2021-05-29T10:41:02.527Z</time>
      </trkpt>
      <trkpt lat="46.63949" lon="5.52703">
        <ele>470</ele>
        <time>2021-05-29T10:41:03.527Z</time>
      </trkpt>
      <trkpt lat="46.63949" lon="5.52705">
        <ele>470</ele>
        <time>2021-05-29T10:41:04.527Z</time>
      </trkpt>
      <trkpt lat="46.63949" lon="5.52706">
        <ele>470</ele>
        <time>2021-05-29T10:41:05.527Z</time>
      </trkpt>
      <trkpt lat="46.6395" lon="5.52707">
        <ele>470</ele>
        <time>2021-05-29T10:41:06.527Z</time>
      </trkpt>
      <trkpt lat="46.63951" lon="5.52708">
        <ele>470</ele>
        <time>2021-05-29T10:41:07.526Z</time>
      </trkpt>
      <trkpt lat="46.63952" lon="5.52709">
        <ele>470</ele>
        <time>2021-05-29T10:41:08.527Z</time>
      </trkpt>
      <trkpt lat="46.63953" lon="5.52709">
        <ele>470</ele>
        <time>2021-05-29T10:41:09.526Z</time>
      </trkpt>
      <trkpt lat="46.63954" lon="5.5271">
        <ele>470</ele>
        <time>2021-05-29T10:41:10.527Z</time>
      </trkpt>
      <trkpt lat="46.63955" lon="5.52711">
        <ele>469</ele>
        <time>2021-05-29T10:41:11.527Z</time>
      </trkpt>
      <trkpt lat="46.63956" lon="5.52712">
        <ele>469</ele>
        <time>2021-05-29T10:41:12.527Z</time>
      </trkpt>
      <trkpt lat="46.63958" lon="5.52713">
        <ele>469</ele>
        <time>2021-05-29T10:41:13.527Z</time>
      </trkpt>
      <trkpt lat="46.63959" lon="5.52713">
        <ele>469</ele>
        <time>2021-05-29T10:41:14.527Z</time>
      </trkpt>
      <trkpt lat="46.6396" lon="5.52714">
        <ele>469</ele>
        <time>2021-05-29T10:41:15.527Z</time>
      </trkpt>
      <trkpt lat="46.63961" lon="5.52715">
        <ele>470</ele>
        <time>2021-05-29T10:41:16.527Z</time>
      </trkpt>
      <trkpt lat="46.63962" lon="5.52716">
        <ele>470</ele>
        <time>2021-05-29T10:41:17.527Z</time>
      </trkpt>
      <trkpt lat="46.63964" lon="5.52717">
        <ele>469</ele>
        <time>2021-05-29T10:41:18.527Z</time>
      </trkpt>
      <trkpt lat="46.63965" lon="5.52718">
        <ele>469</ele>
        <time>2021-05-29T10:41:19.527Z</time>
      </trkpt>
      <trkpt lat="46.63966" lon="5.5272">
        <ele>469</ele>
        <time>2021-05-29T10:41:20.526Z</time>
      </trkpt>
      <trkpt lat="46.63968" lon="5.52722">
        <ele>468</ele>
        <time>2021-05-29T10:41:21.527Z</time>
      </trkpt>
      <trkpt lat="46.63969" lon="5.52725">
        <ele>468</ele>
        <time>2021-05-29T10:41:22.527Z</time>
      </trkpt>
      <trkpt lat="46.6397" lon="5.52727">
        <ele>467</ele>
        <time>2021-05-29T10:41:23.527Z</time>
      </trkpt>
      <trkpt lat="46.63971" lon="5.52728">
        <ele>467</ele>
        <time>2021-05-29T10:41:24.527Z</time>
      </trkpt>
      <trkpt lat="46.63973" lon="5.52731">
        <ele>466</ele>
        <time>2021-05-29T10:41:25.527Z</time>
      </trkpt>
      <trkpt lat="46.63974" lon="5.52734">
        <ele>466</ele>
        <time>2021-05-29T10:41:26.527Z</time>
      </trkpt>
      <trkpt lat="46.63974" lon="5.52736">
        <ele>465</ele>
        <time>2021-05-29T10:41:27.527Z</time>
      </trkpt>
      <trkpt lat="46.63973" lon="5.52739">
        <ele>465</ele>
        <time>2021-05-29T10:41:28.527Z</time>
      </trkpt>
      <trkpt lat="46.63973" lon="5.52741">
        <ele>464</ele>
        <time>2021-05-29T10:41:29.527Z</time>
      </trkpt>
      <trkpt lat="46.63972" lon="5.52742">
        <ele>463</ele>
        <time>2021-05-29T10:41:30.527Z</time>
      </trkpt>
      <trkpt lat="46.63972" lon="5.52744">
        <ele>463</ele>
        <time>2021-05-29T10:41:31.527Z</time>
      </trkpt>
      <trkpt lat="46.63972" lon="5.52746">
        <ele>462</ele>
        <time>2021-05-29T10:41:32.527Z</time>
      </trkpt>
      <trkpt lat="46.63972" lon="5.52748">
        <ele>462</ele>
        <time>2021-05-29T10:41:33.527Z</time>
      </trkpt>
      <trkpt lat="46.63972" lon="5.52751">
        <ele>462</ele>
        <time>2021-05-29T10:41:34.527Z</time>
      </trkpt>
      <trkpt lat="46.63973" lon="5.52753">
        <ele>462</ele>
        <time>2021-05-29T10:41:35.527Z</time>
      </trkpt>
      <trkpt lat="46.63973" lon="5.52756">
        <ele>461</ele>
        <time>2021-05-29T10:41:36.527Z</time>
      </trkpt>
      <trkpt lat="46.63973" lon="5.52759">
        <ele>461</ele>
        <time>2021-05-29T10:41:37.527Z</time>
      </trkpt>
      <trkpt lat="46.63973" lon="5.52761">
        <ele>460</ele>
        <time>2021-05-29T10:41:38.526Z</time>
      </trkpt>
      <trkpt lat="46.63973" lon="5.52765">
        <ele>460</ele>
        <time>2021-05-29T10:41:39.527Z</time>
      </trkpt>
      <trkpt lat="46.63973" lon="5.52767">
        <ele>459</ele>
        <time>2021-05-29T10:41:40.526Z</time>
      </trkpt>
      <trkpt lat="46.63973" lon="5.52769">
        <ele>459</ele>
        <time>2021-05-29T10:41:41.527Z</time>
      </trkpt>
      <trkpt lat="46.63973" lon="5.52771">
        <ele>459</ele>
        <time>2021-05-29T10:41:42.527Z</time>
      </trkpt>
      <trkpt lat="46.63973" lon="5.52774">
        <ele>459</ele>
        <time>2021-05-29T10:41:43.526Z</time>
      </trkpt>
      <trkpt lat="46.63973" lon="5.52775">
        <ele>459</ele>
        <time>2021-05-29T10:41:44.527Z</time>
      </trkpt>
      <trkpt lat="46.63973" lon="5.52777">
        <ele>459</ele>
        <time>2021-05-29T10:41:45.527Z</time>
      </trkpt>
      <trkpt lat="46.63973" lon="5.52778">
        <ele>459</ele>
        <time>2021-05-29T10:41:46.527Z</time>
      </trkpt>
      <trkpt lat="46.63973" lon="5.5278">
        <ele>459</ele>
        <time>2021-05-29T10:41:47.527Z</time>
      </trkpt>
      <trkpt lat="46.63973" lon="5.52782">
        <ele>459</ele>
        <time>2021-05-29T10:41:48.527Z</time>
      </trkpt>
      <trkpt lat="46.63973" lon="5.52783">
        <ele>459</ele>
        <time>2021-05-29T10:41:49.527Z</time>
      </trkpt>
      <trkpt lat="46.63973" lon="5.52785">
        <ele>459</ele>
        <time>2021-05-29T10:41:50.527Z</time>
      </trkpt>
      <trkpt lat="46.63973" lon="5.52785">
        <ele>459</ele>
        <time>2021-05-29T10:41:51.527Z</time>
      </trkpt>
      <trkpt lat="46.63974" lon="5.52786">
        <ele>459</ele>
        <time>2021-05-29T10:41:52.527Z</time>
      </trkpt>
      <trkpt lat="46.63975" lon="5.52786">
        <ele>459</ele>
        <time>2021-05-29T10:41:53.527Z</time>
      </trkpt>
      <trkpt lat="46.63976" lon="5.52786">
        <ele>459</ele>
        <time>2021-05-29T10:41:54.527Z</time>
      </trkpt>
      <trkpt lat="46.63978" lon="5.52787">
        <ele>458</ele>
        <time>2021-05-29T10:41:55.526Z</time>
      </trkpt>
      <trkpt lat="46.6398" lon="5.52787">
        <ele>458</ele>
        <time>2021-05-29T10:41:56.527Z</time>
      </trkpt>
      <trkpt lat="46.63981" lon="5.52788">
        <ele>458</ele>
        <time>2021-05-29T10:41:57.527Z</time>
      </trkpt>
      <trkpt lat="46.63984" lon="5.52789">
        <ele>457</ele>
        <time>2021-05-29T10:41:58.527Z</time>
      </trkpt>
      <trkpt lat="46.63985" lon="5.52791">
        <ele>457</ele>
        <time>2021-05-29T10:41:59.527Z</time>
      </trkpt>
      <trkpt lat="46.63987" lon="5.52791">
        <ele>457</ele>
        <time>2021-05-29T10:42:00.527Z</time>
      </trkpt>
      <trkpt lat="46.63988" lon="5.52793">
        <ele>456</ele>
        <time>2021-05-29T10:44:10.742Z</time>
      </trkpt>
      <trkpt lat="46.6399" lon="5.52794">
        <ele>456</ele>
        <time>2021-05-29T10:44:11.742Z</time>
      </trkpt>
      <trkpt lat="46.63991" lon="5.52795">
        <ele>455</ele>
        <time>2021-05-29T10:44:12.742Z</time>
      </trkpt>
      <trkpt lat="46.63993" lon="5.52796">
        <ele>455</ele>
        <time>2021-05-29T10:44:13.742Z</time>
      </trkpt>
      <trkpt lat="46.63994" lon="5.52797">
        <ele>454</ele>
        <time>2021-05-29T10:44:14.742Z</time>
      </trkpt>
      <trkpt lat="46.63994" lon="5.52798">
        <ele>454</ele>
        <time>2021-05-29T10:44:15.741Z</time>
      </trkpt>
      <trkpt lat="46.63995" lon="5.52799">
        <ele>454</ele>
        <time>2021-05-29T10:44:16.742Z</time>
      </trkpt>
      <trkpt lat="46.63995" lon="5.52799">
        <ele>453</ele>
        <time>2021-05-29T10:44:17.742Z</time>
      </trkpt>
      <trkpt lat="46.63996" lon="5.528">
        <ele>452</ele>
        <time>2021-05-29T10:44:18.742Z</time>
      </trkpt>
      <trkpt lat="46.63997" lon="5.528">
        <ele>451</ele>
        <time>2021-05-29T10:44:19.742Z</time>
      </trkpt>
      <trkpt lat="46.63999" lon="5.528">
        <ele>450</ele>
        <time>2021-05-29T10:44:20.742Z</time>
      </trkpt>
      <trkpt lat="46.64" lon="5.528">
        <ele>450</ele>
        <time>2021-05-29T10:44:21.742Z</time>
      </trkpt>
      <trkpt lat="46.64001" lon="5.52801">
        <ele>450</ele>
        <time>2021-05-29T10:44:22.742Z</time>
      </trkpt>
      <trkpt lat="46.64001" lon="5.52803">
        <ele>450</ele>
        <time>2021-05-29T10:44:23.741Z</time>
      </trkpt>
      <trkpt lat="46.64002" lon="5.52804">
        <ele>450</ele>
        <time>2021-05-29T10:44:24.742Z</time>
      </trkpt>
      <trkpt lat="46.64003" lon="5.52805">
        <ele>450</ele>
        <time>2021-05-29T10:44:25.742Z</time>
      </trkpt>
      <trkpt lat="46.64003" lon="5.52806">
        <ele>450</ele>
        <time>2021-05-29T10:44:26.741Z</time>
      </trkpt>
      <trkpt lat="46.64005" lon="5.52807">
        <ele>449</ele>
        <time>2021-05-29T10:44:27.741Z</time>
      </trkpt>
      <trkpt lat="46.64006" lon="5.52809">
        <ele>449</ele>
        <time>2021-05-29T10:44:28.742Z</time>
      </trkpt>
      <trkpt lat="46.64007" lon="5.52809">
        <ele>449</ele>
        <time>2021-05-29T10:44:29.741Z</time>
      </trkpt>
      <trkpt lat="46.64008" lon="5.52811">
        <ele>449</ele>
        <time>2021-05-29T10:44:30.742Z</time>
      </trkpt>
      <trkpt lat="46.64008" lon="5.52812">
        <ele>449</ele>
        <time>2021-05-29T10:44:31.742Z</time>
      </trkpt>
      <trkpt lat="46.64009" lon="5.52814">
        <ele>449</ele>
        <time>2021-05-29T10:44:32.742Z</time>
      </trkpt>
      <trkpt lat="46.64009" lon="5.52817">
        <ele>449</ele>
        <time>2021-05-29T10:44:33.741Z</time>
      </trkpt>
      <trkpt lat="46.64009" lon="5.5282">
        <ele>448</ele>
        <time>2021-05-29T10:44:34.742Z</time>
      </trkpt>
      <trkpt lat="46.64009" lon="5.52823">
        <ele>448</ele>
        <time>2021-05-29T10:44:35.742Z</time>
      </trkpt>
      <trkpt lat="46.64009" lon="5.52825">
        <ele>448</ele>
        <time>2021-05-29T10:44:36.741Z</time>
      </trkpt>
      <trkpt lat="46.6401" lon="5.52826">
        <ele>448</ele>
        <time>2021-05-29T10:44:37.742Z</time>
      </trkpt>
      <trkpt lat="46.6401" lon="5.52828">
        <ele>448</ele>
        <time>2021-05-29T10:44:38.742Z</time>
      </trkpt>
      <trkpt lat="46.64011" lon="5.52829">
        <ele>447</ele>
        <time>2021-05-29T10:44:39.742Z</time>
      </trkpt>
      <trkpt lat="46.64011" lon="5.5283">
        <ele>447</ele>
        <time>2021-05-29T10:44:40.742Z</time>
      </trkpt>
      <trkpt lat="46.64011" lon="5.52831">
        <ele>446</ele>
        <time>2021-05-29T10:44:41.742Z</time>
      </trkpt>
      <trkpt lat="46.64012" lon="5.52832">
        <ele>446</ele>
        <time>2021-05-29T10:44:42.742Z</time>
      </trkpt>
      <trkpt lat="46.64012" lon="5.52833">
        <ele>445</ele>
        <time>2021-05-29T10:44:43.741Z</time>
      </trkpt>
      <trkpt lat="46.64012" lon="5.52835">
        <ele>445</ele>
        <time>2021-05-29T10:44:44.742Z</time>
      </trkpt>
      <trkpt lat="46.64013" lon="5.52836">
        <ele>444</ele>
        <time>2021-05-29T10:44:45.742Z</time>
      </trkpt>
      <trkpt lat="46.64014" lon="5.52837">
        <ele>444</ele>
        <time>2021-05-29T10:44:46.742Z</time>
      </trkpt>
      <trkpt lat="46.64015" lon="5.52838">
        <ele>443</ele>
        <time>2021-05-29T10:44:47.742Z</time>
      </trkpt>
      <trkpt lat="46.64017" lon="5.52838">
        <ele>443</ele>
        <time>2021-05-29T10:44:48.742Z</time>
      </trkpt>
      <trkpt lat="46.64018" lon="5.52839">
        <ele>442</ele>
        <time>2021-05-29T10:44:49.742Z</time>
      </trkpt>
      <trkpt lat="46.64018" lon="5.52841">
        <ele>441</ele>
        <time>2021-05-29T10:44:50.742Z</time>
      </trkpt>
      <trkpt lat="46.64017" lon="5.52843">
        <ele>441</ele>
        <time>2021-05-29T10:44:51.742Z</time>
      </trkpt>
      <trkpt lat="46.64018" lon="5.52845">
        <ele>440</ele>
        <time>2021-05-29T10:44:52.742Z</time>
      </trkpt>
      <trkpt lat="46.64019" lon="5.52846">
        <ele>440</ele>
        <time>2021-05-29T10:44:53.742Z</time>
      </trkpt>
      <trkpt lat="46.64021" lon="5.52848">
        <ele>439</ele>
        <time>2021-05-29T10:44:54.741Z</time>
      </trkpt>
      <trkpt lat="46.64023" lon="5.52849">
        <ele>439</ele>
        <time>2021-05-29T10:44:55.742Z</time>
      </trkpt>
      <trkpt lat="46.64025" lon="5.52851">
        <ele>438</ele>
        <time>2021-05-29T10:44:56.742Z</time>
      </trkpt>
      <trkpt lat="46.64025" lon="5.52853">
        <ele>438</ele>
        <time>2021-05-29T10:44:57.742Z</time>
      </trkpt>
      <trkpt lat="46.64026" lon="5.52854">
        <ele>438</ele>
        <time>2021-05-29T10:44:58.742Z</time>
      </trkpt>
      <trkpt lat="46.64025" lon="5.52855">
        <ele>437</ele>
        <time>2021-05-29T10:44:59.742Z</time>
      </trkpt>
      <trkpt lat="46.64024" lon="5.52856">
        <ele>436</ele>
        <time>2021-05-29T10:45:00.742Z</time>
      </trkpt>
      <trkpt lat="46.64023" lon="5.52857">
        <ele>435</ele>
        <time>2021-05-29T10:45:01.742Z</time>
      </trkpt>
      <trkpt lat="46.64023" lon="5.52859">
        <ele>434</ele>
        <time>2021-05-29T10:45:02.742Z</time>
      </trkpt>
      <trkpt lat="46.64023" lon="5.5286">
        <ele>433</ele>
        <time>2021-05-29T10:45:03.742Z</time>
      </trkpt>
      <trkpt lat="46.64024" lon="5.52862">
        <ele>432</ele>
        <time>2021-05-29T10:45:04.742Z</time>
      </trkpt>
      <trkpt lat="46.64025" lon="5.52863">
        <ele>431</ele>
        <time>2021-05-29T10:45:05.742Z</time>
      </trkpt>
      <trkpt lat="46.64026" lon="5.52865">
        <ele>431</ele>
        <time>2021-05-29T10:45:06.742Z</time>
      </trkpt>
      <trkpt lat="46.64026" lon="5.52868">
        <ele>430</ele>
        <time>2021-05-29T10:45:07.742Z</time>
      </trkpt>
      <trkpt lat="46.64026" lon="5.52871">
        <ele>429</ele>
        <time>2021-05-29T10:45:08.742Z</time>
      </trkpt>
      <trkpt lat="46.64026" lon="5.52873">
        <ele>429</ele>
        <time>2021-05-29T10:45:09.741Z</time>
      </trkpt>
      <trkpt lat="46.64025" lon="5.52875">
        <ele>429</ele>
        <time>2021-05-29T10:45:10.742Z</time>
      </trkpt>
      <trkpt lat="46.64025" lon="5.52877">
        <ele>428</ele>
        <time>2021-05-29T10:45:11.741Z</time>
      </trkpt>
      <trkpt lat="46.64024" lon="5.52877">
        <ele>428</ele>
        <time>2021-05-29T10:45:12.742Z</time>
      </trkpt>
      <trkpt lat="46.64023" lon="5.52878">
        <ele>428</ele>
        <time>2021-05-29T10:45:13.742Z</time>
      </trkpt>
      <trkpt lat="46.64022" lon="5.52879">
        <ele>428</ele>
        <time>2021-05-29T10:45:14.741Z</time>
      </trkpt>
      <trkpt lat="46.64021" lon="5.52879">
        <ele>428</ele>
        <time>2021-05-29T10:45:15.741Z</time>
      </trkpt>
      <trkpt lat="46.6402" lon="5.52881">
        <ele>428</ele>
        <time>2021-05-29T10:45:16.742Z</time>
      </trkpt>
      <trkpt lat="46.64019" lon="5.52882">
        <ele>428</ele>
        <time>2021-05-29T10:45:17.741Z</time>
      </trkpt>
      <trkpt lat="46.64018" lon="5.52882">
        <ele>427</ele>
        <time>2021-05-29T10:45:18.742Z</time>
      </trkpt>
      <trkpt lat="46.64017" lon="5.52884">
        <ele>427</ele>
        <time>2021-05-29T10:45:19.741Z</time>
      </trkpt>
      <trkpt lat="46.64016" lon="5.52884">
        <ele>427</ele>
        <time>2021-05-29T10:45:20.742Z</time>
      </trkpt>
      <trkpt lat="46.64015" lon="5.52885">
        <ele>427</ele>
        <time>2021-05-29T10:45:21.741Z</time>
      </trkpt>
      <trkpt lat="46.64013" lon="5.52885">
        <ele>427</ele>
        <time>2021-05-29T10:45:22.742Z</time>
      </trkpt>
      <trkpt lat="46.64012" lon="5.52886">
        <ele>427</ele>
        <time>2021-05-29T10:45:23.742Z</time>
      </trkpt>
      <trkpt lat="46.6401" lon="5.52888">
        <ele>427</ele>
        <time>2021-05-29T10:45:24.741Z</time>
      </trkpt>
      <trkpt lat="46.64009" lon="5.52889">
        <ele>427</ele>
        <time>2021-05-29T10:45:25.742Z</time>
      </trkpt>
      <trkpt lat="46.64008" lon="5.5289">
        <ele>427</ele>
        <time>2021-05-29T10:45:26.742Z</time>
      </trkpt>
      <trkpt lat="46.64008" lon="5.52892">
        <ele>427</ele>
        <time>2021-05-29T10:45:27.742Z</time>
      </trkpt>
      <trkpt lat="46.64007" lon="5.52894">
        <ele>427</ele>
        <time>2021-05-29T10:45:28.742Z</time>
      </trkpt>
      <trkpt lat="46.64007" lon="5.52896">
        <ele>427</ele>
        <time>2021-05-29T10:45:29.742Z</time>
      </trkpt>
      <trkpt lat="46.64007" lon="5.52898">
        <ele>427</ele>
        <time>2021-05-29T10:45:30.742Z</time>
      </trkpt>
      <trkpt lat="46.64006" lon="5.529">
        <ele>427</ele>
        <time>2021-05-29T10:45:31.742Z</time>
      </trkpt>
      <trkpt lat="46.64005" lon="5.52902">
        <ele>426</ele>
        <time>2021-05-29T10:45:32.741Z</time>
      </trkpt>
      <trkpt lat="46.64005" lon="5.52905">
        <ele>426</ele>
        <time>2021-05-29T10:45:33.742Z</time>
      </trkpt>
      <trkpt lat="46.64004" lon="5.52908">
        <ele>426</ele>
        <time>2021-05-29T10:45:34.742Z</time>
      </trkpt>
      <trkpt lat="46.64003" lon="5.52911">
        <ele>426</ele>
        <time>2021-05-29T10:45:35.742Z</time>
      </trkpt>
      <trkpt lat="46.64003" lon="5.52913">
        <ele>426</ele>
        <time>2021-05-29T10:45:36.742Z</time>
      </trkpt>
      <trkpt lat="46.64003" lon="5.52915">
        <ele>426</ele>
        <time>2021-05-29T10:45:37.742Z</time>
      </trkpt>
      <trkpt lat="46.64003" lon="5.52918">
        <ele>426</ele>
        <time>2021-05-29T10:45:38.742Z</time>
      </trkpt>
      <trkpt lat="46.64002" lon="5.52922">
        <ele>426</ele>
        <time>2021-05-29T10:45:39.742Z</time>
      </trkpt>
      <trkpt lat="46.64003" lon="5.52925">
        <ele>426</ele>
        <time>2021-05-29T10:45:40.742Z</time>
      </trkpt>
      <trkpt lat="46.64003" lon="5.52927">
        <ele>426</ele>
        <time>2021-05-29T10:45:41.742Z</time>
      </trkpt>
      <trkpt lat="46.64004" lon="5.52928">
        <ele>426</ele>
        <time>2021-05-29T10:45:42.741Z</time>
      </trkpt>
      <trkpt lat="46.64004" lon="5.52929">
        <ele>426</ele>
        <time>2021-05-29T10:45:43.742Z</time>
      </trkpt>
      <trkpt lat="46.64004" lon="5.52929">
        <ele>426</ele>
        <time>2021-05-29T10:45:44.742Z</time>
      </trkpt>
      <trkpt lat="46.64004" lon="5.5293">
        <ele>426</ele>
        <time>2021-05-29T10:45:45.741Z</time>
      </trkpt>
      <trkpt lat="46.64005" lon="5.52931">
        <ele>426</ele>
        <time>2021-05-29T10:45:46.741Z</time>
      </trkpt>
      <trkpt lat="46.64006" lon="5.52933">
        <ele>426</ele>
        <time>2021-05-29T10:45:47.742Z</time>
      </trkpt>
      <trkpt lat="46.64007" lon="5.52933">
        <ele>426</ele>
        <time>2021-05-29T10:45:48.742Z</time>
      </trkpt>
      <trkpt lat="46.64008" lon="5.52934">
        <ele>426</ele>
        <time>2021-05-29T10:45:49.742Z</time>
      </trkpt>
      <trkpt lat="46.6401" lon="5.52935">
        <ele>426</ele>
        <time>2021-05-29T10:45:50.742Z</time>
      </trkpt>
      <trkpt lat="46.64011" lon="5.52936">
        <ele>426</ele>
        <time>2021-05-29T10:45:51.742Z</time>
      </trkpt>
      <trkpt lat="46.64013" lon="5.52936">
        <ele>426</ele>
        <time>2021-05-29T10:45:52.742Z</time>
      </trkpt>
      <trkpt lat="46.64014" lon="5.52937">
        <ele>426</ele>
        <time>2021-05-29T10:45:53.741Z</time>
      </trkpt>
      <trkpt lat="46.64015" lon="5.52939">
        <ele>426</ele>
        <time>2021-05-29T10:45:54.741Z</time>
      </trkpt>
      <trkpt lat="46.64017" lon="5.5294">
        <ele>426</ele>
        <time>2021-05-29T10:45:55.742Z</time>
      </trkpt>
      <trkpt lat="46.64018" lon="5.52941">
        <ele>426</ele>
        <time>2021-05-29T10:45:56.742Z</time>
      </trkpt>
      <trkpt lat="46.64019" lon="5.52942">
        <ele>426</ele>
        <time>2021-05-29T10:45:57.742Z</time>
      </trkpt>
      <trkpt lat="46.6402" lon="5.52942">
        <ele>426</ele>
        <time>2021-05-29T10:45:58.742Z</time>
      </trkpt>
      <trkpt lat="46.6402" lon="5.52943">
        <ele>425</ele>
        <time>2021-05-29T10:45:59.741Z</time>
      </trkpt>
      <trkpt lat="46.64021" lon="5.52945">
        <ele>425</ele>
        <time>2021-05-29T10:46:00.742Z</time>
      </trkpt>
      <trkpt lat="46.64022" lon="5.52947">
        <ele>425</ele>
        <time>2021-05-29T10:46:01.742Z</time>
      </trkpt>
      <trkpt lat="46.64022" lon="5.52948">
        <ele>425</ele>
        <time>2021-05-29T10:46:02.742Z</time>
      </trkpt>
      <trkpt lat="46.64021" lon="5.52949">
        <ele>425</ele>
        <time>2021-05-29T10:46:03.742Z</time>
      </trkpt>
      <trkpt lat="46.64021" lon="5.52948">
        <ele>424</ele>
        <time>2021-05-29T10:46:04.742Z</time>
      </trkpt>
      <trkpt lat="46.64021" lon="5.52948">
        <ele>424</ele>
        <time>2021-05-29T10:46:05.741Z</time>
      </trkpt>
      <trkpt lat="46.6402" lon="5.52947">
        <ele>424</ele>
        <time>2021-05-29T10:46:06.741Z</time>
      </trkpt>
      <trkpt lat="46.6402" lon="5.52947">
        <ele>424</ele>
        <time>2021-05-29T10:46:07.742Z</time>
      </trkpt>
      <trkpt lat="46.6402" lon="5.52947">
        <ele>424</ele>
        <time>2021-05-29T10:46:08.742Z</time>
      </trkpt>
      <trkpt lat="46.6402" lon="5.52946">
        <ele>424</ele>
        <time>2021-05-29T10:46:09.742Z</time>
      </trkpt>
      <trkpt lat="46.64021" lon="5.52947">
        <ele>424</ele>
        <time>2021-05-29T10:46:10.742Z</time>
      </trkpt>
      <trkpt lat="46.64021" lon="5.52948">
        <ele>424</ele>
        <time>2021-05-29T10:46:11.742Z</time>
      </trkpt>
      <trkpt lat="46.64022" lon="5.5295">
        <ele>424</ele>
        <time>2021-05-29T10:46:12.742Z</time>
      </trkpt>
      <trkpt lat="46.64022" lon="5.52951">
        <ele>424</ele>
        <time>2021-05-29T10:46:13.742Z</time>
      </trkpt>
      <trkpt lat="46.64022" lon="5.52953">
        <ele>424</ele>
        <time>2021-05-29T10:46:14.742Z</time>
      </trkpt>
      <trkpt lat="46.64022" lon="5.52954">
        <ele>424</ele>
        <time>2021-05-29T10:46:15.742Z</time>
      </trkpt>
      <trkpt lat="46.64021" lon="5.52955">
        <ele>425</ele>
        <time>2021-05-29T10:46:16.742Z</time>
      </trkpt>
      <trkpt lat="46.6402" lon="5.52956">
        <ele>425</ele>
        <time>2021-05-29T10:46:17.742Z</time>
      </trkpt>
      <trkpt lat="46.6402" lon="5.52956">
        <ele>425</ele>
        <time>2021-05-29T10:46:18.742Z</time>
      </trkpt>
      <trkpt lat="46.64019" lon="5.52956">
        <ele>426</ele>
        <time>2021-05-29T10:46:19.742Z</time>
      </trkpt>
      <trkpt lat="46.64019" lon="5.52957">
        <ele>426</ele>
        <time>2021-05-29T10:46:20.742Z</time>
      </trkpt>
      <trkpt lat="46.64019" lon="5.52958">
        <ele>427</ele>
        <time>2021-05-29T10:46:21.741Z</time>
      </trkpt>
      <trkpt lat="46.64019" lon="5.52958">
        <ele>427</ele>
        <time>2021-05-29T10:46:22.742Z</time>
      </trkpt>
      <trkpt lat="46.64018" lon="5.52959">
        <ele>428</ele>
        <time>2021-05-29T10:46:23.742Z</time>
      </trkpt>
      <trkpt lat="46.64017" lon="5.5296">
        <ele>428</ele>
        <time>2021-05-29T10:46:24.742Z</time>
      </trkpt>
      <trkpt lat="46.64016" lon="5.52961">
        <ele>429</ele>
        <time>2021-05-29T10:46:25.742Z</time>
      </trkpt>
      <trkpt lat="46.64016" lon="5.52963">
        <ele>429</ele>
        <time>2021-05-29T10:46:26.742Z</time>
      </trkpt>
      <trkpt lat="46.64015" lon="5.52964">
        <ele>430</ele>
        <time>2021-05-29T10:46:27.742Z</time>
      </trkpt>
      <trkpt lat="46.64016" lon="5.52965">
        <ele>430</ele>
        <time>2021-05-29T10:46:28.742Z</time>
      </trkpt>
      <trkpt lat="46.64016" lon="5.52966">
        <ele>431</ele>
        <time>2021-05-29T10:46:29.742Z</time>
      </trkpt>
      <trkpt lat="46.64017" lon="5.52966">
        <ele>432</ele>
        <time>2021-05-29T10:46:30.742Z</time>
      </trkpt>
      <trkpt lat="46.64018" lon="5.52966">
        <ele>432</ele>
        <time>2021-05-29T10:46:31.742Z</time>
      </trkpt>
      <trkpt lat="46.64019" lon="5.52966">
        <ele>433</ele>
        <time>2021-05-29T10:46:32.742Z</time>
      </trkpt>
      <trkpt lat="46.6402" lon="5.52966">
        <ele>433</ele>
        <time>2021-05-29T10:46:33.742Z</time>
      </trkpt>
      <trkpt lat="46.64021" lon="5.52966">
        <ele>433</ele>
        <time>2021-05-29T10:46:34.741Z</time>
      </trkpt>
      <trkpt lat="46.64021" lon="5.52965">
        <ele>433</ele>
        <time>2021-05-29T10:46:35.742Z</time>
      </trkpt>
      <trkpt lat="46.64022" lon="5.52965">
        <ele>433</ele>
        <time>2021-05-29T10:46:36.742Z</time>
      </trkpt>
      <trkpt lat="46.64023" lon="5.52965">
        <ele>433</ele>
        <time>2021-05-29T10:46:37.742Z</time>
      </trkpt>
      <trkpt lat="46.64024" lon="5.52965">
        <ele>434</ele>
        <time>2021-05-29T10:46:38.742Z</time>
      </trkpt>
      <trkpt lat="46.64025" lon="5.52967">
        <ele>434</ele>
        <time>2021-05-29T10:46:39.741Z</time>
      </trkpt>
      <trkpt lat="46.64026" lon="5.52968">
        <ele>434</ele>
        <time>2021-05-29T10:46:40.742Z</time>
      </trkpt>
      <trkpt lat="46.64027" lon="5.52969">
        <ele>434</ele>
        <time>2021-05-29T10:46:41.742Z</time>
      </trkpt>
      <trkpt lat="46.64028" lon="5.5297">
        <ele>434</ele>
        <time>2021-05-29T10:46:42.741Z</time>
      </trkpt>
      <trkpt lat="46.6403" lon="5.5297">
        <ele>434</ele>
        <time>2021-05-29T10:46:43.742Z</time>
      </trkpt>
      <trkpt lat="46.64031" lon="5.52971">
        <ele>435</ele>
        <time>2021-05-29T10:46:44.742Z</time>
      </trkpt>
      <trkpt lat="46.64033" lon="5.52972">
        <ele>435</ele>
        <time>2021-05-29T10:46:45.742Z</time>
      </trkpt>
      <trkpt lat="46.64035" lon="5.52973">
        <ele>435</ele>
        <time>2021-05-29T10:46:46.742Z</time>
      </trkpt>
      <trkpt lat="46.64037" lon="5.52975">
        <ele>434</ele>
        <time>2021-05-29T10:46:47.742Z</time>
      </trkpt>
      <trkpt lat="46.64038" lon="5.52976">
        <ele>434</ele>
        <time>2021-05-29T10:46:48.741Z</time>
      </trkpt>
      <trkpt lat="46.6404" lon="5.52977">
        <ele>434</ele>
        <time>2021-05-29T10:46:49.742Z</time>
      </trkpt>
      <trkpt lat="46.64042" lon="5.52977">
        <ele>434</ele>
        <time>2021-05-29T10:46:50.742Z</time>
      </trkpt>
      <trkpt lat="46.64043" lon="5.52978">
        <ele>435</ele>
        <time>2021-05-29T10:46:51.742Z</time>
      </trkpt>
      <trkpt lat="46.64043" lon="5.52978">
        <ele>435</ele>
        <time>2021-05-29T10:46:52.742Z</time>
      </trkpt>
      <trkpt lat="46.64043" lon="5.52979">
        <ele>435</ele>
        <time>2021-05-29T10:46:53.741Z</time>
      </trkpt>
      <trkpt lat="46.64043" lon="5.5298">
        <ele>435</ele>
        <time>2021-05-29T10:46:54.742Z</time>
      </trkpt>
      <trkpt lat="46.64042" lon="5.5298">
        <ele>435</ele>
        <time>2021-05-29T10:46:55.742Z</time>
      </trkpt>
      <trkpt lat="46.64041" lon="5.52978">
        <ele>435</ele>
        <time>2021-05-29T10:46:56.742Z</time>
      </trkpt>
      <trkpt lat="46.64041" lon="5.52977">
        <ele>435</ele>
        <time>2021-05-29T10:46:57.742Z</time>
      </trkpt>
      <trkpt lat="46.64041" lon="5.52976">
        <ele>435</ele>
        <time>2021-05-29T10:46:58.741Z</time>
      </trkpt>
      <trkpt lat="46.64042" lon="5.52975">
        <ele>435</ele>
        <time>2021-05-29T10:46:59.742Z</time>
      </trkpt>
      <trkpt lat="46.64042" lon="5.52975">
        <ele>435</ele>
        <time>2021-05-29T10:47:00.742Z</time>
      </trkpt>
      <trkpt lat="46.64041" lon="5.52976">
        <ele>435</ele>
        <time>2021-05-29T10:47:01.741Z</time>
      </trkpt>
      <trkpt lat="46.64041" lon="5.52976">
        <ele>436</ele>
        <time>2021-05-29T10:47:02.741Z</time>
      </trkpt>
      <trkpt lat="46.64042" lon="5.52975">
        <ele>436</ele>
        <time>2021-05-29T10:47:03.742Z</time>
      </trkpt>
      <trkpt lat="46.64043" lon="5.52976">
        <ele>436</ele>
        <time>2021-05-29T10:47:04.742Z</time>
      </trkpt>
      <trkpt lat="46.64044" lon="5.52976">
        <ele>436</ele>
        <time>2021-05-29T10:47:05.742Z</time>
      </trkpt>
      <trkpt lat="46.64045" lon="5.52977">
        <ele>436</ele>
        <time>2021-05-29T10:47:06.742Z</time>
      </trkpt>
      <trkpt lat="46.64046" lon="5.52977">
        <ele>436</ele>
        <time>2021-05-29T10:47:07.742Z</time>
      </trkpt>
      <trkpt lat="46.64047" lon="5.52978">
        <ele>437</ele>
        <time>2021-05-29T10:47:08.742Z</time>
      </trkpt>
      <trkpt lat="46.64048" lon="5.52979">
        <ele>437</ele>
        <time>2021-05-29T10:47:09.742Z</time>
      </trkpt>
      <trkpt lat="46.64049" lon="5.52979">
        <ele>437</ele>
        <time>2021-05-29T10:47:10.742Z</time>
      </trkpt>
      <trkpt lat="46.6405" lon="5.5298">
        <ele>437</ele>
        <time>2021-05-29T10:47:11.742Z</time>
      </trkpt>
      <trkpt lat="46.64051" lon="5.52979">
        <ele>437</ele>
        <time>2021-05-29T10:47:12.742Z</time>
      </trkpt>
      <trkpt lat="46.64052" lon="5.52979">
        <ele>437</ele>
        <time>2021-05-29T10:47:13.742Z</time>
      </trkpt>
      <trkpt lat="46.64053" lon="5.52979">
        <ele>437</ele>
        <time>2021-05-29T10:47:14.742Z</time>
      </trkpt>
      <trkpt lat="46.64054" lon="5.52979">
        <ele>438</ele>
        <time>2021-05-29T10:47:15.741Z</time>
      </trkpt>
      <trkpt lat="46.64056" lon="5.5298">
        <ele>438</ele>
        <time>2021-05-29T10:47:16.742Z</time>
      </trkpt>
      <trkpt lat="46.64057" lon="5.52979">
        <ele>439</ele>
        <time>2021-05-29T10:47:17.742Z</time>
      </trkpt>
      <trkpt lat="46.64059" lon="5.52979">
        <ele>439</ele>
        <time>2021-05-29T10:47:18.742Z</time>
      </trkpt>
      <trkpt lat="46.6406" lon="5.52979">
        <ele>439</ele>
        <time>2021-05-29T10:47:19.742Z</time>
      </trkpt>
      <trkpt lat="46.64061" lon="5.52979">
        <ele>439</ele>
        <time>2021-05-29T10:47:20.742Z</time>
      </trkpt>
      <trkpt lat="46.64061" lon="5.52979">
        <ele>439</ele>
        <time>2021-05-29T10:47:21.741Z</time>
      </trkpt>
      <trkpt lat="46.64061" lon="5.5298">
        <ele>439</ele>
        <time>2021-05-29T10:47:22.742Z</time>
      </trkpt>
      <trkpt lat="46.64061" lon="5.5298">
        <ele>439</ele>
        <time>2021-05-29T10:47:23.742Z</time>
      </trkpt>
      <trkpt lat="46.64062" lon="5.5298">
        <ele>439</ele>
        <time>2021-05-29T10:47:24.742Z</time>
      </trkpt>
      <trkpt lat="46.64063" lon="5.52979">
        <ele>439</ele>
        <time>2021-05-29T10:47:25.742Z</time>
      </trkpt>
      <trkpt lat="46.64064" lon="5.52978">
        <ele>439</ele>
        <time>2021-05-29T10:47:26.741Z</time>
      </trkpt>
      <trkpt lat="46.64064" lon="5.52978">
        <ele>438</ele>
        <time>2021-05-29T10:47:27.742Z</time>
      </trkpt>
      <trkpt lat="46.64063" lon="5.52978">
        <ele>438</ele>
        <time>2021-05-29T10:47:28.741Z</time>
      </trkpt>
      <trkpt lat="46.64062" lon="5.52978">
        <ele>438</ele>
        <time>2021-05-29T10:47:29.742Z</time>
      </trkpt>
      <trkpt lat="46.64061" lon="5.52978">
        <ele>438</ele>
        <time>2021-05-29T10:47:30.741Z</time>
      </trkpt>
      <trkpt lat="46.6406" lon="5.52978">
        <ele>438</ele>
        <time>2021-05-29T10:47:31.742Z</time>
      </trkpt>
      <trkpt lat="46.6406" lon="5.52978">
        <ele>437</ele>
        <time>2021-05-29T10:47:32.742Z</time>
      </trkpt>
      <trkpt lat="46.6406" lon="5.52978">
        <ele>437</ele>
        <time>2021-05-29T10:47:33.741Z</time>
      </trkpt>
      <trkpt lat="46.6406" lon="5.52978">
        <ele>437</ele>
        <time>2021-05-29T10:47:34.742Z</time>
      </trkpt>
      <trkpt lat="46.6406" lon="5.52978">
        <ele>437</ele>
        <time>2021-05-29T10:47:35.741Z</time>
      </trkpt>
      <trkpt lat="46.6406" lon="5.52978">
        <ele>436</ele>
        <time>2021-05-29T10:47:36.742Z</time>
      </trkpt>
      <trkpt lat="46.6406" lon="5.52978">
        <ele>436</ele>
        <time>2021-05-29T10:47:37.741Z</time>
      </trkpt>
      <trkpt lat="46.6406" lon="5.52978">
        <ele>436</ele>
        <time>2021-05-29T10:47:38.742Z</time>
      </trkpt>
      <trkpt lat="46.6406" lon="5.52978">
        <ele>436</ele>
        <time>2021-05-29T10:47:39.742Z</time>
      </trkpt>
      <trkpt lat="46.6406" lon="5.52978">
        <ele>436</ele>
        <time>2021-05-29T10:47:40.741Z</time>
      </trkpt>
      <trkpt lat="46.6406" lon="5.52978">
        <ele>435</ele>
        <time>2021-05-29T10:47:41.742Z</time>
      </trkpt>
      <trkpt lat="46.6406" lon="5.52978">
        <ele>435</ele>
        <time>2021-05-29T10:47:42.742Z</time>
      </trkpt>
      <trkpt lat="46.64061" lon="5.52978">
        <ele>435</ele>
        <time>2021-05-29T10:47:43.742Z</time>
      </trkpt>
      <trkpt lat="46.64062" lon="5.52978">
        <ele>435</ele>
        <time>2021-05-29T10:47:44.742Z</time>
      </trkpt>
      <trkpt lat="46.64063" lon="5.52979">
        <ele>435</ele>
        <time>2021-05-29T10:47:45.741Z</time>
      </trkpt>
      <trkpt lat="46.64064" lon="5.5298">
        <ele>435</ele>
        <time>2021-05-29T10:47:46.742Z</time>
      </trkpt>
      <trkpt lat="46.64065" lon="5.5298">
        <ele>435</ele>
        <time>2021-05-29T10:47:47.741Z</time>
      </trkpt>
      <trkpt lat="46.64067" lon="5.5298">
        <ele>434</ele>
        <time>2021-05-29T10:47:48.742Z</time>
      </trkpt>
      <trkpt lat="46.64068" lon="5.52979">
        <ele>433</ele>
        <time>2021-05-29T10:47:49.742Z</time>
      </trkpt>
      <trkpt lat="46.64069" lon="5.52979">
        <ele>433</ele>
        <time>2021-05-29T10:47:50.742Z</time>
      </trkpt>
      <trkpt lat="46.64071" lon="5.52979">
        <ele>432</ele>
        <time>2021-05-29T10:47:51.742Z</time>
      </trkpt>
      <trkpt lat="46.64072" lon="5.52979">
        <ele>431</ele>
        <time>2021-05-29T10:47:52.742Z</time>
      </trkpt>
      <trkpt lat="46.64073" lon="5.52979">
        <ele>431</ele>
        <time>2021-05-29T10:47:53.741Z</time>
      </trkpt>
      <trkpt lat="46.64074" lon="5.52979">
        <ele>431</ele>
        <time>2021-05-29T10:47:54.742Z</time>
      </trkpt>
      <trkpt lat="46.64076" lon="5.52979">
        <ele>430</ele>
        <time>2021-05-29T10:47:55.742Z</time>
      </trkpt>
      <trkpt lat="46.64078" lon="5.5298">
        <ele>430</ele>
        <time>2021-05-29T10:47:56.742Z</time>
      </trkpt>
      <trkpt lat="46.6408" lon="5.52982">
        <ele>430</ele>
        <time>2021-05-29T10:47:57.742Z</time>
      </trkpt>
      <trkpt lat="46.64083" lon="5.52985">
        <ele>429</ele>
        <time>2021-05-29T10:47:58.742Z</time>
      </trkpt>
      <trkpt lat="46.64084" lon="5.52987">
        <ele>428</ele>
        <time>2021-05-29T10:47:59.742Z</time>
      </trkpt>
      <trkpt lat="46.64084" lon="5.52988">
        <ele>428</ele>
        <time>2021-05-29T10:48:00.742Z</time>
      </trkpt>
      <trkpt lat="46.64085" lon="5.52989">
        <ele>427</ele>
        <time>2021-05-29T10:48:01.742Z</time>
      </trkpt>
      <trkpt lat="46.64085" lon="5.5299">
        <ele>427</ele>
        <time>2021-05-29T10:48:02.742Z</time>
      </trkpt>
      <trkpt lat="46.64086" lon="5.52991">
        <ele>426</ele>
        <time>2021-05-29T10:48:03.742Z</time>
      </trkpt>
      <trkpt lat="46.64087" lon="5.52991">
        <ele>426</ele>
        <time>2021-05-29T10:48:04.742Z</time>
      </trkpt>
      <trkpt lat="46.64088" lon="5.52992">
        <ele>425</ele>
        <time>2021-05-29T10:48:05.742Z</time>
      </trkpt>
      <trkpt lat="46.64089" lon="5.52992">
        <ele>425</ele>
        <time>2021-05-29T10:48:06.741Z</time>
      </trkpt>
      <trkpt lat="46.6409" lon="5.52992">
        <ele>425</ele>
        <time>2021-05-29T10:48:07.742Z</time>
      </trkpt>
      <trkpt lat="46.6409" lon="5.52992">
        <ele>425</ele>
        <time>2021-05-29T10:48:08.742Z</time>
      </trkpt>
      <trkpt lat="46.64091" lon="5.52992">
        <ele>424</ele>
        <time>2021-05-29T10:48:09.742Z</time>
      </trkpt>
      <trkpt lat="46.64092" lon="5.52992">
        <ele>424</ele>
        <time>2021-05-29T10:48:10.742Z</time>
      </trkpt>
      <trkpt lat="46.64093" lon="5.52992">
        <ele>424</ele>
        <time>2021-05-29T10:48:11.742Z</time>
      </trkpt>
      <trkpt lat="46.64095" lon="5.52992">
        <ele>424</ele>
        <time>2021-05-29T10:48:12.742Z</time>
      </trkpt>
      <trkpt lat="46.64096" lon="5.52991">
        <ele>424</ele>
        <time>2021-05-29T10:48:13.742Z</time>
      </trkpt>
      <trkpt lat="46.64098" lon="5.5299">
        <ele>423</ele>
        <time>2021-05-29T10:48:14.742Z</time>
      </trkpt>
      <trkpt lat="46.64099" lon="5.52989">
        <ele>423</ele>
        <time>2021-05-29T10:48:15.741Z</time>
      </trkpt>
      <trkpt lat="46.64101" lon="5.52989">
        <ele>423</ele>
        <time>2021-05-29T10:48:16.742Z</time>
      </trkpt>
      <trkpt lat="46.64103" lon="5.52988">
        <ele>422</ele>
        <time>2021-05-29T10:48:17.742Z</time>
      </trkpt>
      <trkpt lat="46.64105" lon="5.52988">
        <ele>422</ele>
        <time>2021-05-29T10:51:19.675Z</time>
      </trkpt>
      <trkpt lat="46.64106" lon="5.52989">
        <ele>421</ele>
        <time>2021-05-29T10:51:20.675Z</time>
      </trkpt>
      <trkpt lat="46.64107" lon="5.5299">
        <ele>421</ele>
        <time>2021-05-29T10:51:21.675Z</time>
      </trkpt>
      <trkpt lat="46.64109" lon="5.52991">
        <ele>420</ele>
        <time>2021-05-29T10:51:22.675Z</time>
      </trkpt>
      <trkpt lat="46.64111" lon="5.52993">
        <ele>420</ele>
        <time>2021-05-29T10:51:23.675Z</time>
      </trkpt>
      <trkpt lat="46.64112" lon="5.52994">
        <ele>419</ele>
        <time>2021-05-29T10:51:24.675Z</time>
      </trkpt>
      <trkpt lat="46.64113" lon="5.52995">
        <ele>418</ele>
        <time>2021-05-29T10:51:25.675Z</time>
      </trkpt>
      <trkpt lat="46.64116" lon="5.52996">
        <ele>418</ele>
        <time>2021-05-29T10:51:26.674Z</time>
      </trkpt>
      <trkpt lat="46.64118" lon="5.52997">
        <ele>417</ele>
        <time>2021-05-29T10:51:27.675Z</time>
      </trkpt>
      <trkpt lat="46.64121" lon="5.52997">
        <ele>416</ele>
        <time>2021-05-29T10:51:28.675Z</time>
      </trkpt>
      <trkpt lat="46.64123" lon="5.52998">
        <ele>415</ele>
        <time>2021-05-29T10:51:29.675Z</time>
      </trkpt>
      <trkpt lat="46.64125" lon="5.52998">
        <ele>415</ele>
        <time>2021-05-29T10:51:30.675Z</time>
      </trkpt>
      <trkpt lat="46.64128" lon="5.52999">
        <ele>414</ele>
        <time>2021-05-29T10:51:31.674Z</time>
      </trkpt>
      <trkpt lat="46.64129" lon="5.52999">
        <ele>414</ele>
        <time>2021-05-29T10:51:32.674Z</time>
      </trkpt>
      <trkpt lat="46.6413" lon="5.52998">
        <ele>414</ele>
        <time>2021-05-29T10:51:33.675Z</time>
      </trkpt>
      <trkpt lat="46.64131" lon="5.52998">
        <ele>414</ele>
        <time>2021-05-29T10:51:34.675Z</time>
      </trkpt>
      <trkpt lat="46.64132" lon="5.52996">
        <ele>413</ele>
        <time>2021-05-29T10:51:35.675Z</time>
      </trkpt>
      <trkpt lat="46.64133" lon="5.52995">
        <ele>412</ele>
        <time>2021-05-29T10:51:36.675Z</time>
      </trkpt>
      <trkpt lat="46.64135" lon="5.52994">
        <ele>411</ele>
        <time>2021-05-29T10:51:37.675Z</time>
      </trkpt>
      <trkpt lat="46.64136" lon="5.52993">
        <ele>410</ele>
        <time>2021-05-29T10:51:38.675Z</time>
      </trkpt>
      <trkpt lat="46.64137" lon="5.52992">
        <ele>410</ele>
        <time>2021-05-29T10:51:39.675Z</time>
      </trkpt>
      <trkpt lat="46.64138" lon="5.52991">
        <ele>409</ele>
        <time>2021-05-29T10:51:40.674Z</time>
      </trkpt>
      <trkpt lat="46.64139" lon="5.52991">
        <ele>408</ele>
        <time>2021-05-29T10:51:41.674Z</time>
      </trkpt>
      <trkpt lat="46.64141" lon="5.5299">
        <ele>407</ele>
        <time>2021-05-29T10:51:42.675Z</time>
      </trkpt>
      <trkpt lat="46.64142" lon="5.52989">
        <ele>407</ele>
        <time>2021-05-29T10:51:43.675Z</time>
      </trkpt>
      <trkpt lat="46.64143" lon="5.52987">
        <ele>406</ele>
        <time>2021-05-29T10:51:44.675Z</time>
      </trkpt>
      <trkpt lat="46.64144" lon="5.52986">
        <ele>406</ele>
        <time>2021-05-29T10:51:45.675Z</time>
      </trkpt>
      <trkpt lat="46.64145" lon="5.52985">
        <ele>406</ele>
        <time>2021-05-29T10:51:46.675Z</time>
      </trkpt>
      <trkpt lat="46.64146" lon="5.52983">
        <ele>406</ele>
        <time>2021-05-29T10:51:47.675Z</time>
      </trkpt>
      <trkpt lat="46.64147" lon="5.52982">
        <ele>405</ele>
        <time>2021-05-29T10:51:48.675Z</time>
      </trkpt>
      <trkpt lat="46.64148" lon="5.52982">
        <ele>405</ele>
        <time>2021-05-29T10:51:49.675Z</time>
      </trkpt>
      <trkpt lat="46.6415" lon="5.52982">
        <ele>404</ele>
        <time>2021-05-29T10:51:50.675Z</time>
      </trkpt>
      <trkpt lat="46.64151" lon="5.52983">
        <ele>404</ele>
        <time>2021-05-29T10:51:51.675Z</time>
      </trkpt>
      <trkpt lat="46.64152" lon="5.52985">
        <ele>403</ele>
        <time>2021-05-29T10:51:52.675Z</time>
      </trkpt>
      <trkpt lat="46.64154" lon="5.52988">
        <ele>402</ele>
        <time>2021-05-29T10:51:53.675Z</time>
      </trkpt>
      <trkpt lat="46.64154" lon="5.52989">
        <ele>401</ele>
        <time>2021-05-29T10:51:54.675Z</time>
      </trkpt>
      <trkpt lat="46.64155" lon="5.52991">
        <ele>400</ele>
        <time>2021-05-29T10:51:55.675Z</time>
      </trkpt>
      <trkpt lat="46.64155" lon="5.52992">
        <ele>400</ele>
        <time>2021-05-29T10:51:56.675Z</time>
      </trkpt>
      <trkpt lat="46.64155" lon="5.52994">
        <ele>399</ele>
        <time>2021-05-29T10:51:57.674Z</time>
      </trkpt>
      <trkpt lat="46.64155" lon="5.52995">
        <ele>399</ele>
        <time>2021-05-29T10:51:58.675Z</time>
      </trkpt>
      <trkpt lat="46.64155" lon="5.52997">
        <ele>398</ele>
        <time>2021-05-29T10:51:59.674Z</time>
      </trkpt>
      <trkpt lat="46.64156" lon="5.52999">
        <ele>398</ele>
        <time>2021-05-29T10:52:00.675Z</time>
      </trkpt>
      <trkpt lat="46.64156" lon="5.53001">
        <ele>398</ele>
        <time>2021-05-29T10:52:01.675Z</time>
      </trkpt>
      <trkpt lat="46.64157" lon="5.53002">
        <ele>398</ele>
        <time>2021-05-29T10:52:02.675Z</time>
      </trkpt>
      <trkpt lat="46.64158" lon="5.53004">
        <ele>398</ele>
        <time>2021-05-29T10:52:03.675Z</time>
      </trkpt>
      <trkpt lat="46.64158" lon="5.53006">
        <ele>398</ele>
        <time>2021-05-29T10:52:04.675Z</time>
      </trkpt>
      <trkpt lat="46.6416" lon="5.53008">
        <ele>398</ele>
        <time>2021-05-29T10:52:05.675Z</time>
      </trkpt>
      <trkpt lat="46.64162" lon="5.5301">
        <ele>398</ele>
        <time>2021-05-29T10:52:06.675Z</time>
      </trkpt>
      <trkpt lat="46.64164" lon="5.53012">
        <ele>398</ele>
        <time>2021-05-29T10:52:07.675Z</time>
      </trkpt>
      <trkpt lat="46.64166" lon="5.53013">
        <ele>398</ele>
        <time>2021-05-29T10:52:08.675Z</time>
      </trkpt>
      <trkpt lat="46.64167" lon="5.53014">
        <ele>398</ele>
        <time>2021-05-29T10:52:09.675Z</time>
      </trkpt>
      <trkpt lat="46.64167" lon="5.53016">
        <ele>398</ele>
        <time>2021-05-29T10:52:10.675Z</time>
      </trkpt>
      <trkpt lat="46.64168" lon="5.53016">
        <ele>398</ele>
        <time>2021-05-29T10:52:11.674Z</time>
      </trkpt>
      <trkpt lat="46.64167" lon="5.53017">
        <ele>398</ele>
        <time>2021-05-29T10:52:12.675Z</time>
      </trkpt>
      <trkpt lat="46.64167" lon="5.53017">
        <ele>397</ele>
        <time>2021-05-29T10:52:13.675Z</time>
      </trkpt>
      <trkpt lat="46.64167" lon="5.53018">
        <ele>397</ele>
        <time>2021-05-29T10:52:14.675Z</time>
      </trkpt>
      <trkpt lat="46.64167" lon="5.53018">
        <ele>397</ele>
        <time>2021-05-29T10:52:15.675Z</time>
      </trkpt>
      <trkpt lat="46.64168" lon="5.53018">
        <ele>396</ele>
        <time>2021-05-29T10:52:16.675Z</time>
      </trkpt>
      <trkpt lat="46.64169" lon="5.53018">
        <ele>396</ele>
        <time>2021-05-29T10:52:17.674Z</time>
      </trkpt>
      <trkpt lat="46.6417" lon="5.53018">
        <ele>395</ele>
        <time>2021-05-29T10:52:18.675Z</time>
      </trkpt>
      <trkpt lat="46.64171" lon="5.53019">
        <ele>395</ele>
        <time>2021-05-29T10:52:19.675Z</time>
      </trkpt>
      <trkpt lat="46.64171" lon="5.53019">
        <ele>395</ele>
        <time>2021-05-29T10:52:20.675Z</time>
      </trkpt>
      <trkpt lat="46.64171" lon="5.5302">
        <ele>394</ele>
        <time>2021-05-29T10:52:21.675Z</time>
      </trkpt>
      <trkpt lat="46.64172" lon="5.5302">
        <ele>394</ele>
        <time>2021-05-29T10:52:22.674Z</time>
      </trkpt>
      <trkpt lat="46.64172" lon="5.5302">
        <ele>394</ele>
        <time>2021-05-29T10:52:23.675Z</time>
      </trkpt>
      <trkpt lat="46.64173" lon="5.5302">
        <ele>394</ele>
        <time>2021-05-29T10:52:24.675Z</time>
      </trkpt>
      <trkpt lat="46.64173" lon="5.53021">
        <ele>393</ele>
        <time>2021-05-29T10:52:25.675Z</time>
      </trkpt>
      <trkpt lat="46.64174" lon="5.53022">
        <ele>393</ele>
        <time>2021-05-29T10:52:26.675Z</time>
      </trkpt>
      <trkpt lat="46.64174" lon="5.53023">
        <ele>392</ele>
        <time>2021-05-29T10:52:27.675Z</time>
      </trkpt>
      <trkpt lat="46.64175" lon="5.53024">
        <ele>392</ele>
        <time>2021-05-29T10:52:28.675Z</time>
      </trkpt>
      <trkpt lat="46.64176" lon="5.53025">
        <ele>392</ele>
        <time>2021-05-29T10:52:29.675Z</time>
      </trkpt>
      <trkpt lat="46.64178" lon="5.53026">
        <ele>392</ele>
        <time>2021-05-29T10:52:30.675Z</time>
      </trkpt>
      <trkpt lat="46.64181" lon="5.53027">
        <ele>392</ele>
        <time>2021-05-29T10:52:31.675Z</time>
      </trkpt>
      <trkpt lat="46.64185" lon="5.53028">
        <ele>392</ele>
        <time>2021-05-29T10:52:32.675Z</time>
      </trkpt>
      <trkpt lat="46.64188" lon="5.53029">
        <ele>392</ele>
        <time>2021-05-29T10:52:33.675Z</time>
      </trkpt>
      <trkpt lat="46.6419" lon="5.53031">
        <ele>392</ele>
        <time>2021-05-29T10:52:34.675Z</time>
      </trkpt>
      <trkpt lat="46.64193" lon="5.53031">
        <ele>392</ele>
        <time>2021-05-29T10:52:35.674Z</time>
      </trkpt>
      <trkpt lat="46.64196" lon="5.53031">
        <ele>392</ele>
        <time>2021-05-29T10:52:36.675Z</time>
      </trkpt>
      <trkpt lat="46.64198" lon="5.53031">
        <ele>392</ele>
        <time>2021-05-29T10:52:37.675Z</time>
      </trkpt>
      <trkpt lat="46.64201" lon="5.53031">
        <ele>392</ele>
        <time>2021-05-29T10:52:38.675Z</time>
      </trkpt>
      <trkpt lat="46.64203" lon="5.53031">
        <ele>391</ele>
        <time>2021-05-29T10:52:39.675Z</time>
      </trkpt>
      <trkpt lat="46.64205" lon="5.53031">
        <ele>391</ele>
        <time>2021-05-29T10:52:40.675Z</time>
      </trkpt>
      <trkpt lat="46.64207" lon="5.53032">
        <ele>391</ele>
        <time>2021-05-29T10:52:41.675Z</time>
      </trkpt>
      <trkpt lat="46.64209" lon="5.53032">
        <ele>391</ele>
        <time>2021-05-29T10:52:42.675Z</time>
      </trkpt>
      <trkpt lat="46.64211" lon="5.53032">
        <ele>391</ele>
        <time>2021-05-29T10:52:43.674Z</time>
      </trkpt>
      <trkpt lat="46.64213" lon="5.53033">
        <ele>392</ele>
        <time>2021-05-29T10:52:44.675Z</time>
      </trkpt>
      <trkpt lat="46.64215" lon="5.53035">
        <ele>392</ele>
        <time>2021-05-29T10:52:45.675Z</time>
      </trkpt>
      <trkpt lat="46.64217" lon="5.53036">
        <ele>392</ele>
        <time>2021-05-29T10:52:46.675Z</time>
      </trkpt>
      <trkpt lat="46.64219" lon="5.53038">
        <ele>392</ele>
        <time>2021-05-29T10:52:47.675Z</time>
      </trkpt>
      <trkpt lat="46.64221" lon="5.5304">
        <ele>391</ele>
        <time>2021-05-29T10:52:48.674Z</time>
      </trkpt>
      <trkpt lat="46.64223" lon="5.53042">
        <ele>391</ele>
        <time>2021-05-29T10:52:49.675Z</time>
      </trkpt>
      <trkpt lat="46.64225" lon="5.53043">
        <ele>391</ele>
        <time>2021-05-29T10:52:50.675Z</time>
      </trkpt>
      <trkpt lat="46.64228" lon="5.53044">
        <ele>391</ele>
        <time>2021-05-29T10:52:51.675Z</time>
      </trkpt>
      <trkpt lat="46.6423" lon="5.53045">
        <ele>391</ele>
        <time>2021-05-29T10:52:52.675Z</time>
      </trkpt>
      <trkpt lat="46.64233" lon="5.53046">
        <ele>391</ele>
        <time>2021-05-29T10:52:53.675Z</time>
      </trkpt>
      <trkpt lat="46.64236" lon="5.53046">
        <ele>390</ele>
        <time>2021-05-29T10:52:54.675Z</time>
      </trkpt>
      <trkpt lat="46.64239" lon="5.53046">
        <ele>390</ele>
        <time>2021-05-29T10:52:55.675Z</time>
      </trkpt>
      <trkpt lat="46.64241" lon="5.53047">
        <ele>390</ele>
        <time>2021-05-29T10:52:56.674Z</time>
      </trkpt>
      <trkpt lat="46.64244" lon="5.53047">
        <ele>390</ele>
        <time>2021-05-29T10:52:57.675Z</time>
      </trkpt>
      <trkpt lat="46.64246" lon="5.53048">
        <ele>390</ele>
        <time>2021-05-29T10:52:58.675Z</time>
      </trkpt>
      <trkpt lat="46.64247" lon="5.53048">
        <ele>390</ele>
        <time>2021-05-29T10:52:59.675Z</time>
      </trkpt>
      <trkpt lat="46.6425" lon="5.53046">
        <ele>390</ele>
        <time>2021-05-29T10:53:00.675Z</time>
      </trkpt>
      <trkpt lat="46.64252" lon="5.53045">
        <ele>389</ele>
        <time>2021-05-29T10:53:01.675Z</time>
      </trkpt>
      <trkpt lat="46.64255" lon="5.53044">
        <ele>389</ele>
        <time>2021-05-29T10:53:02.675Z</time>
      </trkpt>
      <trkpt lat="46.64257" lon="5.53043">
        <ele>388</ele>
        <time>2021-05-29T10:53:03.675Z</time>
      </trkpt>
      <trkpt lat="46.6426" lon="5.53044">
        <ele>388</ele>
        <time>2021-05-29T10:53:04.675Z</time>
      </trkpt>
      <trkpt lat="46.64263" lon="5.53044">
        <ele>388</ele>
        <time>2021-05-29T10:53:05.675Z</time>
      </trkpt>
      <trkpt lat="46.64265" lon="5.53043">
        <ele>387</ele>
        <time>2021-05-29T10:53:06.675Z</time>
      </trkpt>
      <trkpt lat="46.64268" lon="5.53042">
        <ele>387</ele>
        <time>2021-05-29T10:53:07.674Z</time>
      </trkpt>
      <trkpt lat="46.6427" lon="5.53041">
        <ele>386</ele>
        <time>2021-05-29T10:53:08.675Z</time>
      </trkpt>
      <trkpt lat="46.64272" lon="5.53041">
        <ele>386</ele>
        <time>2021-05-29T10:53:09.675Z</time>
      </trkpt>
      <trkpt lat="46.64275" lon="5.53042">
        <ele>385</ele>
        <time>2021-05-29T10:53:10.675Z</time>
      </trkpt>
      <trkpt lat="46.64277" lon="5.53042">
        <ele>385</ele>
        <time>2021-05-29T10:53:11.675Z</time>
      </trkpt>
      <trkpt lat="46.6428" lon="5.53043">
        <ele>384</ele>
        <time>2021-05-29T10:53:12.674Z</time>
      </trkpt>
      <trkpt lat="46.64281" lon="5.53043">
        <ele>384</ele>
        <time>2021-05-29T10:53:13.674Z</time>
      </trkpt>
      <trkpt lat="46.64284" lon="5.53044">
        <ele>383</ele>
        <time>2021-05-29T10:53:14.674Z</time>
      </trkpt>
      <trkpt lat="46.64287" lon="5.53044">
        <ele>383</ele>
        <time>2021-05-29T10:53:15.675Z</time>
      </trkpt>
      <trkpt lat="46.6429" lon="5.53044">
        <ele>382</ele>
        <time>2021-05-29T10:53:16.674Z</time>
      </trkpt>
      <trkpt lat="46.64293" lon="5.53044">
        <ele>382</ele>
        <time>2021-05-29T10:53:17.675Z</time>
      </trkpt>
      <trkpt lat="46.64294" lon="5.53045">
        <ele>381</ele>
        <time>2021-05-29T10:53:18.675Z</time>
      </trkpt>
      <trkpt lat="46.64297" lon="5.53045">
        <ele>380</ele>
        <time>2021-05-29T10:53:19.674Z</time>
      </trkpt>
      <trkpt lat="46.643" lon="5.53045">
        <ele>379</ele>
        <time>2021-05-29T10:53:20.675Z</time>
      </trkpt>
      <trkpt lat="46.64302" lon="5.53046">
        <ele>379</ele>
        <time>2021-05-29T10:53:21.674Z</time>
      </trkpt>
      <trkpt lat="46.64304" lon="5.53047">
        <ele>378</ele>
        <time>2021-05-29T10:53:22.675Z</time>
      </trkpt>
      <trkpt lat="46.64305" lon="5.53047">
        <ele>377</ele>
        <time>2021-05-29T10:53:23.675Z</time>
      </trkpt>
      <trkpt lat="46.64307" lon="5.53048">
        <ele>376</ele>
        <time>2021-05-29T10:53:24.674Z</time>
      </trkpt>
      <trkpt lat="46.64309" lon="5.53049">
        <ele>376</ele>
        <time>2021-05-29T10:53:25.675Z</time>
      </trkpt>
      <trkpt lat="46.6431" lon="5.53049">
        <ele>375</ele>
        <time>2021-05-29T10:53:26.674Z</time>
      </trkpt>
      <trkpt lat="46.64311" lon="5.53047">
        <ele>374</ele>
        <time>2021-05-29T10:53:27.675Z</time>
      </trkpt>
      <trkpt lat="46.64311" lon="5.53045">
        <ele>373</ele>
        <time>2021-05-29T10:53:28.674Z</time>
      </trkpt>
      <trkpt lat="46.64311" lon="5.53042">
        <ele>373</ele>
        <time>2021-05-29T10:53:29.674Z</time>
      </trkpt>
      <trkpt lat="46.64311" lon="5.53041">
        <ele>372</ele>
        <time>2021-05-29T10:53:30.675Z</time>
      </trkpt>
      <trkpt lat="46.6431" lon="5.53039">
        <ele>371</ele>
        <time>2021-05-29T10:53:31.675Z</time>
      </trkpt>
      <trkpt lat="46.64309" lon="5.53038">
        <ele>371</ele>
        <time>2021-05-29T10:53:32.675Z</time>
      </trkpt>
      <trkpt lat="46.64309" lon="5.53037">
        <ele>370</ele>
        <time>2021-05-29T10:53:33.675Z</time>
      </trkpt>
      <trkpt lat="46.64308" lon="5.53036">
        <ele>370</ele>
        <time>2021-05-29T10:53:34.674Z</time>
      </trkpt>
      <trkpt lat="46.64308" lon="5.53035">
        <ele>369</ele>
        <time>2021-05-29T10:53:35.675Z</time>
      </trkpt>
      <trkpt lat="46.64307" lon="5.53033">
        <ele>369</ele>
        <time>2021-05-29T10:53:36.675Z</time>
      </trkpt>
      <trkpt lat="46.64306" lon="5.53032">
        <ele>368</ele>
        <time>2021-05-29T10:53:37.674Z</time>
      </trkpt>
      <trkpt lat="46.64305" lon="5.5303">
        <ele>368</ele>
        <time>2021-05-29T10:53:38.675Z</time>
      </trkpt>
      <trkpt lat="46.64303" lon="5.53028">
        <ele>368</ele>
        <time>2021-05-29T10:53:39.675Z</time>
      </trkpt>
      <trkpt lat="46.64302" lon="5.53026">
        <ele>367</ele>
        <time>2021-05-29T10:53:40.674Z</time>
      </trkpt>
      <trkpt lat="46.64301" lon="5.53023">
        <ele>367</ele>
        <time>2021-05-29T10:53:41.675Z</time>
      </trkpt>
      <trkpt lat="46.64299" lon="5.5302">
        <ele>367</ele>
        <time>2021-05-29T10:53:42.674Z</time>
      </trkpt>
      <trkpt lat="46.64298" lon="5.53016">
        <ele>367</ele>
        <time>2021-05-29T10:53:43.675Z</time>
      </trkpt>
      <trkpt lat="46.64296" lon="5.53013">
        <ele>366</ele>
        <time>2021-05-29T10:53:44.675Z</time>
      </trkpt>
      <trkpt lat="46.64295" lon="5.5301">
        <ele>366</ele>
        <time>2021-05-29T10:53:45.674Z</time>
      </trkpt>
      <trkpt lat="46.64293" lon="5.53007">
        <ele>366</ele>
        <time>2021-05-29T10:53:46.675Z</time>
      </trkpt>
      <trkpt lat="46.64292" lon="5.53004">
        <ele>365</ele>
        <time>2021-05-29T10:53:47.675Z</time>
      </trkpt>
      <trkpt lat="46.64291" lon="5.53002">
        <ele>365</ele>
        <time>2021-05-29T10:53:48.674Z</time>
      </trkpt>
      <trkpt lat="46.64289" lon="5.52999">
        <ele>365</ele>
        <time>2021-05-29T10:53:49.675Z</time>
      </trkpt>
      <trkpt lat="46.64287" lon="5.52997">
        <ele>365</ele>
        <time>2021-05-29T10:53:50.675Z</time>
      </trkpt>
      <trkpt lat="46.64286" lon="5.52994">
        <ele>365</ele>
        <time>2021-05-29T10:53:51.674Z</time>
      </trkpt>
      <trkpt lat="46.64284" lon="5.52992">
        <ele>365</ele>
        <time>2021-05-29T10:53:52.674Z</time>
      </trkpt>
      <trkpt lat="46.64283" lon="5.5299">
        <ele>364</ele>
        <time>2021-05-29T10:53:53.675Z</time>
      </trkpt>
      <trkpt lat="46.64282" lon="5.52987">
        <ele>364</ele>
        <time>2021-05-29T10:53:54.675Z</time>
      </trkpt>
      <trkpt lat="46.64281" lon="5.52983">
        <ele>364</ele>
        <time>2021-05-29T10:53:55.675Z</time>
      </trkpt>
      <trkpt lat="46.64279" lon="5.52979">
        <ele>364</ele>
        <time>2021-05-29T10:53:56.675Z</time>
      </trkpt>
      <trkpt lat="46.64278" lon="5.52976">
        <ele>364</ele>
        <time>2021-05-29T10:53:57.674Z</time>
      </trkpt>
      <trkpt lat="46.64277" lon="5.52973">
        <ele>363</ele>
        <time>2021-05-29T10:53:58.675Z</time>
      </trkpt>
      <trkpt lat="46.64276" lon="5.52971">
        <ele>363</ele>
        <time>2021-05-29T10:53:59.675Z</time>
      </trkpt>
      <trkpt lat="46.64274" lon="5.52969">
        <ele>363</ele>
        <time>2021-05-29T10:54:00.674Z</time>
      </trkpt>
      <trkpt lat="46.64273" lon="5.52967">
        <ele>363</ele>
        <time>2021-05-29T10:54:01.675Z</time>
      </trkpt>
      <trkpt lat="46.64272" lon="5.52965">
        <ele>363</ele>
        <time>2021-05-29T10:54:02.675Z</time>
      </trkpt>
      <trkpt lat="46.64271" lon="5.52964">
        <ele>363</ele>
        <time>2021-05-29T10:54:03.675Z</time>
      </trkpt>
      <trkpt lat="46.6427" lon="5.52961">
        <ele>363</ele>
        <time>2021-05-29T10:54:04.674Z</time>
      </trkpt>
      <trkpt lat="46.64268" lon="5.52958">
        <ele>363</ele>
        <time>2021-05-29T10:54:05.674Z</time>
      </trkpt>
      <trkpt lat="46.64267" lon="5.52956">
        <ele>363</ele>
        <time>2021-05-29T10:54:06.675Z</time>
      </trkpt>
      <trkpt lat="46.64266" lon="5.52952">
        <ele>363</ele>
        <time>2021-05-29T10:54:07.675Z</time>
      </trkpt>
      <trkpt lat="46.64265" lon="5.52949">
        <ele>362</ele>
        <time>2021-05-29T10:54:08.674Z</time>
      </trkpt>
      <trkpt lat="46.64264" lon="5.52945">
        <ele>362</ele>
        <time>2021-05-29T10:54:09.675Z</time>
      </trkpt>
      <trkpt lat="46.64265" lon="5.52941">
        <ele>362</ele>
        <time>2021-05-29T10:54:10.675Z</time>
      </trkpt>
      <trkpt lat="46.64265" lon="5.52938">
        <ele>362</ele>
        <time>2021-05-29T10:54:11.675Z</time>
      </trkpt>
      <trkpt lat="46.64265" lon="5.52933">
        <ele>362</ele>
        <time>2021-05-29T10:54:12.675Z</time>
      </trkpt>
      <trkpt lat="46.64266" lon="5.52929">
        <ele>361</ele>
        <time>2021-05-29T10:54:13.675Z</time>
      </trkpt>
      <trkpt lat="46.64268" lon="5.52925">
        <ele>361</ele>
        <time>2021-05-29T10:54:14.675Z</time>
      </trkpt>
      <trkpt lat="46.6427" lon="5.52923">
        <ele>360</ele>
        <time>2021-05-29T10:54:15.675Z</time>
      </trkpt>
      <trkpt lat="46.64272" lon="5.52921">
        <ele>360</ele>
        <time>2021-05-29T10:54:16.675Z</time>
      </trkpt>
      <trkpt lat="46.64275" lon="5.52921">
        <ele>359</ele>
        <time>2021-05-29T10:54:17.674Z</time>
      </trkpt>
      <trkpt lat="46.64278" lon="5.52921">
        <ele>359</ele>
        <time>2021-05-29T10:54:18.675Z</time>
      </trkpt>
      <trkpt lat="46.6428" lon="5.52922">
        <ele>358</ele>
        <time>2021-05-29T10:54:19.675Z</time>
      </trkpt>
      <trkpt lat="46.64281" lon="5.52922">
        <ele>357</ele>
        <time>2021-05-29T10:54:20.675Z</time>
      </trkpt>
      <trkpt lat="46.64282" lon="5.52923">
        <ele>356</ele>
        <time>2021-05-29T10:54:21.675Z</time>
      </trkpt>
      <trkpt lat="46.64284" lon="5.52924">
        <ele>355</ele>
        <time>2021-05-29T10:54:22.675Z</time>
      </trkpt>
      <trkpt lat="46.64286" lon="5.52925">
        <ele>354</ele>
        <time>2021-05-29T10:54:23.675Z</time>
      </trkpt>
      <trkpt lat="46.64288" lon="5.52925">
        <ele>354</ele>
        <time>2021-05-29T10:54:24.675Z</time>
      </trkpt>
      <trkpt lat="46.64291" lon="5.52925">
        <ele>353</ele>
        <time>2021-05-29T10:54:25.675Z</time>
      </trkpt>
      <trkpt lat="46.64293" lon="5.52926">
        <ele>353</ele>
        <time>2021-05-29T10:54:26.674Z</time>
      </trkpt>
      <trkpt lat="46.64295" lon="5.52926">
        <ele>352</ele>
        <time>2021-05-29T10:54:27.675Z</time>
      </trkpt>
      <trkpt lat="46.64297" lon="5.52926">
        <ele>352</ele>
        <time>2021-05-29T10:54:28.675Z</time>
      </trkpt>
      <trkpt lat="46.64299" lon="5.52926">
        <ele>352</ele>
        <time>2021-05-29T10:54:29.675Z</time>
      </trkpt>
      <trkpt lat="46.64302" lon="5.52926">
        <ele>351</ele>
        <time>2021-05-29T10:54:30.675Z</time>
      </trkpt>
      <trkpt lat="46.64305" lon="5.52927">
        <ele>351</ele>
        <time>2021-05-29T10:54:31.674Z</time>
      </trkpt>
      <trkpt lat="46.64307" lon="5.52926">
        <ele>350</ele>
        <time>2021-05-29T10:54:32.675Z</time>
      </trkpt>
      <trkpt lat="46.6431" lon="5.52926">
        <ele>350</ele>
        <time>2021-05-29T10:54:33.675Z</time>
      </trkpt>
      <trkpt lat="46.64313" lon="5.52925">
        <ele>350</ele>
        <time>2021-05-29T10:54:34.675Z</time>
      </trkpt>
      <trkpt lat="46.64315" lon="5.52925">
        <ele>350</ele>
        <time>2021-05-29T10:54:35.675Z</time>
      </trkpt>
      <trkpt lat="46.64318" lon="5.52924">
        <ele>350</ele>
        <time>2021-05-29T10:54:36.674Z</time>
      </trkpt>
      <trkpt lat="46.64322" lon="5.52924">
        <ele>350</ele>
        <time>2021-05-29T10:54:37.675Z</time>
      </trkpt>
      <trkpt lat="46.64325" lon="5.52924">
        <ele>350</ele>
        <time>2021-05-29T10:54:38.675Z</time>
      </trkpt>
      <trkpt lat="46.64327" lon="5.52924">
        <ele>350</ele>
        <time>2021-05-29T10:54:39.674Z</time>
      </trkpt>
      <trkpt lat="46.6433" lon="5.52925">
        <ele>350</ele>
        <time>2021-05-29T10:54:40.675Z</time>
      </trkpt>
      <trkpt lat="46.64332" lon="5.52925">
        <ele>350</ele>
        <time>2021-05-29T10:54:41.674Z</time>
      </trkpt>
      <trkpt lat="46.64335" lon="5.52924">
        <ele>349</ele>
        <time>2021-05-29T10:54:42.674Z</time>
      </trkpt>
      <trkpt lat="46.64338" lon="5.52923">
        <ele>349</ele>
        <time>2021-05-29T10:54:43.675Z</time>
      </trkpt>
      <trkpt lat="46.6434" lon="5.52922">
        <ele>349</ele>
        <time>2021-05-29T10:54:44.675Z</time>
      </trkpt>
      <trkpt lat="46.64342" lon="5.5292">
        <ele>349</ele>
        <time>2021-05-29T10:54:45.674Z</time>
      </trkpt>
      <trkpt lat="46.64345" lon="5.5292">
        <ele>350</ele>
        <time>2021-05-29T10:54:46.675Z</time>
      </trkpt>
      <trkpt lat="46.64347" lon="5.5292">
        <ele>350</ele>
        <time>2021-05-29T10:54:47.674Z</time>
      </trkpt>
      <trkpt lat="46.6435" lon="5.52919">
        <ele>349</ele>
        <time>2021-05-29T10:54:48.675Z</time>
      </trkpt>
      <trkpt lat="46.64352" lon="5.52918">
        <ele>349</ele>
        <time>2021-05-29T10:54:49.675Z</time>
      </trkpt>
      <trkpt lat="46.64355" lon="5.52917">
        <ele>349</ele>
        <time>2021-05-29T10:54:50.675Z</time>
      </trkpt>
      <trkpt lat="46.64358" lon="5.52917">
        <ele>349</ele>
        <time>2021-05-29T10:54:51.675Z</time>
      </trkpt>
      <trkpt lat="46.6436" lon="5.52916">
        <ele>348</ele>
        <time>2021-05-29T10:54:52.675Z</time>
      </trkpt>
      <trkpt lat="46.64362" lon="5.52916">
        <ele>348</ele>
        <time>2021-05-29T10:54:53.675Z</time>
      </trkpt>
      <trkpt lat="46.64364" lon="5.52915">
        <ele>348</ele>
        <time>2021-05-29T10:54:54.675Z</time>
      </trkpt>
      <trkpt lat="46.64366" lon="5.52915">
        <ele>347</ele>
        <time>2021-05-29T10:54:55.675Z</time>
      </trkpt>
      <trkpt lat="46.64369" lon="5.52916">
        <ele>347</ele>
        <time>2021-05-29T10:54:56.675Z</time>
      </trkpt>
      <trkpt lat="46.64371" lon="5.52916">
        <ele>347</ele>
        <time>2021-05-29T10:54:57.674Z</time>
      </trkpt>
      <trkpt lat="46.64374" lon="5.52916">
        <ele>346</ele>
        <time>2021-05-29T10:54:58.675Z</time>
      </trkpt>
      <trkpt lat="46.64376" lon="5.52917">
        <ele>346</ele>
        <time>2021-05-29T10:54:59.675Z</time>
      </trkpt>
      <trkpt lat="46.64378" lon="5.52917">
        <ele>346</ele>
        <time>2021-05-29T10:55:00.675Z</time>
      </trkpt>
      <trkpt lat="46.6438" lon="5.52918">
        <ele>345</ele>
        <time>2021-05-29T10:55:01.675Z</time>
      </trkpt>
      <trkpt lat="46.64381" lon="5.52917">
        <ele>345</ele>
        <time>2021-05-29T10:55:02.675Z</time>
      </trkpt>
      <trkpt lat="46.64384" lon="5.52917">
        <ele>344</ele>
        <time>2021-05-29T10:55:03.675Z</time>
      </trkpt>
      <trkpt lat="46.64386" lon="5.52918">
        <ele>344</ele>
        <time>2021-05-29T10:55:04.675Z</time>
      </trkpt>
      <trkpt lat="46.64388" lon="5.52918">
        <ele>343</ele>
        <time>2021-05-29T10:55:05.675Z</time>
      </trkpt>
      <trkpt lat="46.64391" lon="5.5292">
        <ele>342</ele>
        <time>2021-05-29T10:55:06.675Z</time>
      </trkpt>
      <trkpt lat="46.64393" lon="5.5292">
        <ele>342</ele>
        <time>2021-05-29T10:55:07.674Z</time>
      </trkpt>
      <trkpt lat="46.64395" lon="5.52921">
        <ele>341</ele>
        <time>2021-05-29T10:55:08.675Z</time>
      </trkpt>
      <trkpt lat="46.64398" lon="5.52921">
        <ele>341</ele>
        <time>2021-05-29T10:55:09.674Z</time>
      </trkpt>
      <trkpt lat="46.644" lon="5.52922">
        <ele>340</ele>
        <time>2021-05-29T10:55:10.675Z</time>
      </trkpt>
      <trkpt lat="46.64403" lon="5.52922">
        <ele>340</ele>
        <time>2021-05-29T10:55:11.675Z</time>
      </trkpt>
      <trkpt lat="46.64406" lon="5.52923">
        <ele>339</ele>
        <time>2021-05-29T10:55:12.675Z</time>
      </trkpt>
      <trkpt lat="46.64409" lon="5.52923">
        <ele>339</ele>
        <time>2021-05-29T10:55:13.675Z</time>
      </trkpt>
      <trkpt lat="46.64412" lon="5.52924">
        <ele>338</ele>
        <time>2021-05-29T10:55:14.675Z</time>
      </trkpt>
      <trkpt lat="46.64415" lon="5.52924">
        <ele>337</ele>
        <time>2021-05-29T10:55:15.675Z</time>
      </trkpt>
      <trkpt lat="46.64416" lon="5.52924">
        <ele>336</ele>
        <time>2021-05-29T10:55:16.675Z</time>
      </trkpt>
      <trkpt lat="46.64419" lon="5.52925">
        <ele>335</ele>
        <time>2021-05-29T10:55:17.675Z</time>
      </trkpt>
      <trkpt lat="46.64422" lon="5.52925">
        <ele>335</ele>
        <time>2021-05-29T10:55:18.675Z</time>
      </trkpt>
      <trkpt lat="46.64424" lon="5.52926">
        <ele>334</ele>
        <time>2021-05-29T10:55:19.675Z</time>
      </trkpt>
      <trkpt lat="46.64427" lon="5.52927">
        <ele>333</ele>
        <time>2021-05-29T10:55:20.675Z</time>
      </trkpt>
      <trkpt lat="46.64429" lon="5.52928">
        <ele>332</ele>
        <time>2021-05-29T10:55:21.675Z</time>
      </trkpt>
      <trkpt lat="46.64431" lon="5.52929">
        <ele>332</ele>
        <time>2021-05-29T10:55:22.674Z</time>
      </trkpt>
      <trkpt lat="46.64434" lon="5.52929">
        <ele>331</ele>
        <time>2021-05-29T10:55:23.674Z</time>
      </trkpt>
      <trkpt lat="46.64436" lon="5.5293">
        <ele>331</ele>
        <time>2021-05-29T10:55:24.675Z</time>
      </trkpt>
      <trkpt lat="46.64438" lon="5.52931">
        <ele>330</ele>
        <time>2021-05-29T10:55:25.675Z</time>
      </trkpt>
      <trkpt lat="46.64441" lon="5.52932">
        <ele>329</ele>
        <time>2021-05-29T10:55:26.675Z</time>
      </trkpt>
      <trkpt lat="46.64443" lon="5.52933">
        <ele>329</ele>
        <time>2021-05-29T10:55:27.674Z</time>
      </trkpt>
      <trkpt lat="46.64445" lon="5.52934">
        <ele>328</ele>
        <time>2021-05-29T10:55:28.674Z</time>
      </trkpt>
      <trkpt lat="46.64448" lon="5.52935">
        <ele>327</ele>
        <time>2021-05-29T10:55:29.675Z</time>
      </trkpt>
      <trkpt lat="46.64451" lon="5.52936">
        <ele>326</ele>
        <time>2021-05-29T10:55:30.674Z</time>
      </trkpt>
      <trkpt lat="46.64454" lon="5.52936">
        <ele>326</ele>
        <time>2021-05-29T10:55:31.675Z</time>
      </trkpt>
      <trkpt lat="46.64457" lon="5.52937">
        <ele>326</ele>
        <time>2021-05-29T10:55:32.674Z</time>
      </trkpt>
      <trkpt lat="46.6446" lon="5.52937">
        <ele>326</ele>
        <time>2021-05-29T10:55:33.674Z</time>
      </trkpt>
      <trkpt lat="46.64462" lon="5.52937">
        <ele>326</ele>
        <time>2021-05-29T10:55:34.675Z</time>
      </trkpt>
      <trkpt lat="46.64465" lon="5.52939">
        <ele>326</ele>
        <time>2021-05-29T10:55:35.674Z</time>
      </trkpt>
      <trkpt lat="46.64468" lon="5.52939">
        <ele>327</ele>
        <time>2021-05-29T10:55:36.675Z</time>
      </trkpt>
      <trkpt lat="46.64471" lon="5.5294">
        <ele>327</ele>
        <time>2021-05-29T10:55:37.675Z</time>
      </trkpt>
      <trkpt lat="46.64474" lon="5.52941">
        <ele>327</ele>
        <time>2021-05-29T10:55:38.675Z</time>
      </trkpt>
      <trkpt lat="46.64477" lon="5.52941">
        <ele>327</ele>
        <time>2021-05-29T10:55:39.675Z</time>
      </trkpt>
      <trkpt lat="46.64479" lon="5.52941">
        <ele>327</ele>
        <time>2021-05-29T10:55:40.675Z</time>
      </trkpt>
      <trkpt lat="46.64481" lon="5.52942">
        <ele>327</ele>
        <time>2021-05-29T10:55:41.675Z</time>
      </trkpt>
      <trkpt lat="46.64483" lon="5.52942">
        <ele>326</ele>
        <time>2021-05-29T10:55:42.675Z</time>
      </trkpt>
      <trkpt lat="46.64485" lon="5.52941">
        <ele>326</ele>
        <time>2021-05-29T10:55:43.675Z</time>
      </trkpt>
      <trkpt lat="46.64487" lon="5.5294">
        <ele>326</ele>
        <time>2021-05-29T10:55:44.675Z</time>
      </trkpt>
      <trkpt lat="46.64488" lon="5.52938">
        <ele>326</ele>
        <time>2021-05-29T10:55:45.675Z</time>
      </trkpt>
      <trkpt lat="46.6449" lon="5.52936">
        <ele>326</ele>
        <time>2021-05-29T10:55:46.674Z</time>
      </trkpt>
      <trkpt lat="46.64493" lon="5.52933">
        <ele>326</ele>
        <time>2021-05-29T10:55:47.674Z</time>
      </trkpt>
      <trkpt lat="46.64495" lon="5.52932">
        <ele>325</ele>
        <time>2021-05-29T10:55:48.674Z</time>
      </trkpt>
      <trkpt lat="46.64497" lon="5.52931">
        <ele>325</ele>
        <time>2021-05-29T10:55:49.675Z</time>
      </trkpt>
      <trkpt lat="46.64499" lon="5.52931">
        <ele>325</ele>
        <time>2021-05-29T10:55:50.675Z</time>
      </trkpt>
      <trkpt lat="46.64502" lon="5.5293">
        <ele>324</ele>
        <time>2021-05-29T10:55:51.674Z</time>
      </trkpt>
      <trkpt lat="46.64505" lon="5.5293">
        <ele>324</ele>
        <time>2021-05-29T10:55:52.675Z</time>
      </trkpt>
      <trkpt lat="46.64508" lon="5.5293">
        <ele>323</ele>
        <time>2021-05-29T10:55:53.675Z</time>
      </trkpt>
      <trkpt lat="46.6451" lon="5.52931">
        <ele>322</ele>
        <time>2021-05-29T10:55:54.675Z</time>
      </trkpt>
      <trkpt lat="46.64512" lon="5.52931">
        <ele>322</ele>
        <time>2021-05-29T10:55:55.675Z</time>
      </trkpt>
      <trkpt lat="46.64515" lon="5.52931">
        <ele>321</ele>
        <time>2021-05-29T10:55:56.675Z</time>
      </trkpt>
      <trkpt lat="46.64518" lon="5.52931">
        <ele>321</ele>
        <time>2021-05-29T10:55:57.675Z</time>
      </trkpt>
      <trkpt lat="46.64521" lon="5.52931">
        <ele>320</ele>
        <time>2021-05-29T10:55:58.674Z</time>
      </trkpt>
      <trkpt lat="46.64524" lon="5.52931">
        <ele>320</ele>
        <time>2021-05-29T10:55:59.675Z</time>
      </trkpt>
      <trkpt lat="46.64526" lon="5.52931">
        <ele>319</ele>
        <time>2021-05-29T10:56:00.675Z</time>
      </trkpt>
      <trkpt lat="46.64529" lon="5.5293">
        <ele>318</ele>
        <time>2021-05-29T10:56:01.675Z</time>
      </trkpt>
      <trkpt lat="46.64532" lon="5.5293">
        <ele>318</ele>
        <time>2021-05-29T10:56:02.675Z</time>
      </trkpt>
      <trkpt lat="46.64534" lon="5.5293">
        <ele>317</ele>
        <time>2021-05-29T10:56:03.675Z</time>
      </trkpt>
      <trkpt lat="46.64537" lon="5.5293">
        <ele>317</ele>
        <time>2021-05-29T10:56:04.675Z</time>
      </trkpt>
      <trkpt lat="46.64539" lon="5.5293">
        <ele>316</ele>
        <time>2021-05-29T10:56:05.675Z</time>
      </trkpt>
      <trkpt lat="46.64542" lon="5.5293">
        <ele>316</ele>
        <time>2021-05-29T10:56:06.675Z</time>
      </trkpt>
      <trkpt lat="46.64545" lon="5.52931">
        <ele>315</ele>
        <time>2021-05-29T10:56:07.674Z</time>
      </trkpt>
      <trkpt lat="46.64547" lon="5.52932">
        <ele>314</ele>
        <time>2021-05-29T10:56:08.675Z</time>
      </trkpt>
      <trkpt lat="46.6455" lon="5.52933">
        <ele>314</ele>
        <time>2021-05-29T10:56:09.675Z</time>
      </trkpt>
      <trkpt lat="46.64552" lon="5.52934">
        <ele>313</ele>
        <time>2021-05-29T10:56:10.675Z</time>
      </trkpt>
      <trkpt lat="46.64555" lon="5.52935">
        <ele>313</ele>
        <time>2021-05-29T10:56:11.674Z</time>
      </trkpt>
      <trkpt lat="46.64557" lon="5.52935">
        <ele>312</ele>
        <time>2021-05-29T10:56:12.675Z</time>
      </trkpt>
      <trkpt lat="46.64559" lon="5.52935">
        <ele>311</ele>
        <time>2021-05-29T10:56:13.674Z</time>
      </trkpt>
      <trkpt lat="46.64561" lon="5.52935">
        <ele>311</ele>
        <time>2021-05-29T10:56:14.675Z</time>
      </trkpt>
      <trkpt lat="46.64564" lon="5.52936">
        <ele>311</ele>
        <time>2021-05-29T10:56:15.675Z</time>
      </trkpt>
      <trkpt lat="46.64567" lon="5.52936">
        <ele>310</ele>
        <time>2021-05-29T10:56:16.674Z</time>
      </trkpt>
      <trkpt lat="46.6457" lon="5.52936">
        <ele>310</ele>
        <time>2021-05-29T10:56:17.675Z</time>
      </trkpt>
      <trkpt lat="46.64573" lon="5.52937">
        <ele>310</ele>
        <time>2021-05-29T10:56:18.675Z</time>
      </trkpt>
      <trkpt lat="46.64575" lon="5.52937">
        <ele>310</ele>
        <time>2021-05-29T10:56:19.675Z</time>
      </trkpt>
      <trkpt lat="46.64578" lon="5.52937">
        <ele>310</ele>
        <time>2021-05-29T10:56:20.675Z</time>
      </trkpt>
      <trkpt lat="46.64581" lon="5.52938">
        <ele>309</ele>
        <time>2021-05-29T10:56:21.675Z</time>
      </trkpt>
      <trkpt lat="46.64583" lon="5.52938">
        <ele>309</ele>
        <time>2021-05-29T10:56:22.675Z</time>
      </trkpt>
      <trkpt lat="46.64585" lon="5.52939">
        <ele>309</ele>
        <time>2021-05-29T10:56:23.675Z</time>
      </trkpt>
      <trkpt lat="46.64587" lon="5.5294">
        <ele>309</ele>
        <time>2021-05-29T10:56:24.675Z</time>
      </trkpt>
      <trkpt lat="46.6459" lon="5.5294">
        <ele>309</ele>
        <time>2021-05-29T10:56:25.675Z</time>
      </trkpt>
      <trkpt lat="46.64593" lon="5.52941">
        <ele>309</ele>
        <time>2021-05-29T10:56:26.675Z</time>
      </trkpt>
      <trkpt lat="46.64596" lon="5.52942">
        <ele>309</ele>
        <time>2021-05-29T10:56:27.675Z</time>
      </trkpt>
      <trkpt lat="46.64598" lon="5.52943">
        <ele>309</ele>
        <time>2021-05-29T10:56:28.675Z</time>
      </trkpt>
      <trkpt lat="46.64599" lon="5.52943">
        <ele>309</ele>
        <time>2021-05-29T10:56:29.675Z</time>
      </trkpt>
      <trkpt lat="46.64602" lon="5.52944">
        <ele>309</ele>
        <time>2021-05-29T10:56:30.675Z</time>
      </trkpt>
      <trkpt lat="46.64604" lon="5.52945">
        <ele>309</ele>
        <time>2021-05-29T10:56:31.675Z</time>
      </trkpt>
      <trkpt lat="46.64607" lon="5.52945">
        <ele>309</ele>
        <time>2021-05-29T10:56:32.675Z</time>
      </trkpt>
      <trkpt lat="46.64609" lon="5.52945">
        <ele>309</ele>
        <time>2021-05-29T10:56:33.675Z</time>
      </trkpt>
      <trkpt lat="46.64612" lon="5.52945">
        <ele>309</ele>
        <time>2021-05-29T10:56:34.675Z</time>
      </trkpt>
      <trkpt lat="46.64615" lon="5.52945">
        <ele>309</ele>
        <time>2021-05-29T10:56:35.675Z</time>
      </trkpt>
      <trkpt lat="46.64618" lon="5.52946">
        <ele>308</ele>
        <time>2021-05-29T10:56:36.674Z</time>
      </trkpt>
      <trkpt lat="46.6462" lon="5.52946">
        <ele>308</ele>
        <time>2021-05-29T10:56:37.675Z</time>
      </trkpt>
      <trkpt lat="46.64623" lon="5.52946">
        <ele>307</ele>
        <time>2021-05-29T10:56:38.675Z</time>
      </trkpt>
      <trkpt lat="46.64626" lon="5.52946">
        <ele>307</ele>
        <time>2021-05-29T10:56:39.675Z</time>
      </trkpt>
      <trkpt lat="46.64629" lon="5.52945">
        <ele>307</ele>
        <time>2021-05-29T10:56:40.675Z</time>
      </trkpt>
      <trkpt lat="46.64631" lon="5.52945">
        <ele>306</ele>
        <time>2021-05-29T10:56:41.675Z</time>
      </trkpt>
      <trkpt lat="46.64633" lon="5.52944">
        <ele>306</ele>
        <time>2021-05-29T10:56:42.675Z</time>
      </trkpt>
      <trkpt lat="46.64636" lon="5.52943">
        <ele>306</ele>
        <time>2021-05-29T10:56:43.675Z</time>
      </trkpt>
      <trkpt lat="46.64638" lon="5.52942">
        <ele>306</ele>
        <time>2021-05-29T10:56:44.675Z</time>
      </trkpt>
      <trkpt lat="46.6464" lon="5.52941">
        <ele>306</ele>
        <time>2021-05-29T10:56:45.674Z</time>
      </trkpt>
      <trkpt lat="46.64643" lon="5.5294">
        <ele>305</ele>
        <time>2021-05-29T10:56:46.675Z</time>
      </trkpt>
      <trkpt lat="46.64644" lon="5.5294">
        <ele>305</ele>
        <time>2021-05-29T10:56:47.675Z</time>
      </trkpt>
      <trkpt lat="46.64647" lon="5.5294">
        <ele>305</ele>
        <time>2021-05-29T10:56:48.674Z</time>
      </trkpt>
      <trkpt lat="46.64649" lon="5.5294">
        <ele>305</ele>
        <time>2021-05-29T10:56:49.675Z</time>
      </trkpt>
      <trkpt lat="46.6465" lon="5.52939">
        <ele>304</ele>
        <time>2021-05-29T10:56:50.674Z</time>
      </trkpt>
      <trkpt lat="46.64652" lon="5.52939">
        <ele>304</ele>
        <time>2021-05-29T10:56:51.675Z</time>
      </trkpt>
      <trkpt lat="46.64654" lon="5.52938">
        <ele>303</ele>
        <time>2021-05-29T10:56:52.675Z</time>
      </trkpt>
      <trkpt lat="46.64657" lon="5.52938">
        <ele>303</ele>
        <time>2021-05-29T10:56:53.675Z</time>
      </trkpt>
      <trkpt lat="46.6466" lon="5.52938">
        <ele>303</ele>
        <time>2021-05-29T10:56:54.675Z</time>
      </trkpt>
      <trkpt lat="46.64662" lon="5.52938">
        <ele>302</ele>
        <time>2021-05-29T10:56:55.674Z</time>
      </trkpt>
      <trkpt lat="46.64665" lon="5.52938">
        <ele>302</ele>
        <time>2021-05-29T10:56:56.674Z</time>
      </trkpt>
      <trkpt lat="46.64668" lon="5.52939">
        <ele>301</ele>
        <time>2021-05-29T10:56:57.675Z</time>
      </trkpt>
      <trkpt lat="46.64672" lon="5.5294">
        <ele>300</ele>
        <time>2021-05-29T10:56:58.675Z</time>
      </trkpt>
      <trkpt lat="46.64674" lon="5.52941">
        <ele>299</ele>
        <time>2021-05-29T10:56:59.675Z</time>
      </trkpt>
      <trkpt lat="46.64678" lon="5.52943">
        <ele>298</ele>
        <time>2021-05-29T10:57:00.675Z</time>
      </trkpt>
      <trkpt lat="46.6468" lon="5.52944">
        <ele>297</ele>
        <time>2021-05-29T10:57:01.675Z</time>
      </trkpt>
      <trkpt lat="46.64683" lon="5.52945">
        <ele>296</ele>
        <time>2021-05-29T10:57:02.675Z</time>
      </trkpt>
      <trkpt lat="46.64686" lon="5.52947">
        <ele>296</ele>
        <time>2021-05-29T10:57:03.674Z</time>
      </trkpt>
      <trkpt lat="46.64689" lon="5.52948">
        <ele>295</ele>
        <time>2021-05-29T10:57:04.675Z</time>
      </trkpt>
      <trkpt lat="46.64691" lon="5.52949">
        <ele>294</ele>
        <time>2021-05-29T10:57:05.675Z</time>
      </trkpt>
      <trkpt lat="46.64694" lon="5.5295">
        <ele>293</ele>
        <time>2021-05-29T10:57:06.675Z</time>
      </trkpt>
      <trkpt lat="46.64697" lon="5.52952">
        <ele>292</ele>
        <time>2021-05-29T10:57:07.675Z</time>
      </trkpt>
      <trkpt lat="46.64699" lon="5.52953">
        <ele>291</ele>
        <time>2021-05-29T10:57:08.674Z</time>
      </trkpt>
      <trkpt lat="46.64702" lon="5.52955">
        <ele>290</ele>
        <time>2021-05-29T10:57:09.675Z</time>
      </trkpt>
      <trkpt lat="46.64704" lon="5.52957">
        <ele>290</ele>
        <time>2021-05-29T10:57:10.674Z</time>
      </trkpt>
      <trkpt lat="46.64706" lon="5.52958">
        <ele>289</ele>
        <time>2021-05-29T10:57:11.675Z</time>
      </trkpt>
      <trkpt lat="46.64708" lon="5.5296">
        <ele>289</ele>
        <time>2021-05-29T10:57:12.675Z</time>
      </trkpt>
      <trkpt lat="46.6471" lon="5.52962">
        <ele>289</ele>
        <time>2021-05-29T10:57:13.674Z</time>
      </trkpt>
      <trkpt lat="46.64713" lon="5.52964">
        <ele>288</ele>
        <time>2021-05-29T10:57:14.675Z</time>
      </trkpt>
      <trkpt lat="46.64715" lon="5.52965">
        <ele>288</ele>
        <time>2021-05-29T10:57:15.674Z</time>
      </trkpt>
      <trkpt lat="46.64718" lon="5.52967">
        <ele>288</ele>
        <time>2021-05-29T10:57:16.675Z</time>
      </trkpt>
      <trkpt lat="46.64721" lon="5.52969">
        <ele>287</ele>
        <time>2021-05-29T10:57:17.675Z</time>
      </trkpt>
      <trkpt lat="46.64723" lon="5.52971">
        <ele>287</ele>
        <time>2021-05-29T10:57:18.674Z</time>
      </trkpt>
      <trkpt lat="46.64725" lon="5.52972">
        <ele>286</ele>
        <time>2021-05-29T10:57:19.675Z</time>
      </trkpt>
      <trkpt lat="46.64727" lon="5.52973">
        <ele>286</ele>
        <time>2021-05-29T10:57:20.675Z</time>
      </trkpt>
      <trkpt lat="46.6473" lon="5.52975">
        <ele>285</ele>
        <time>2021-05-29T10:57:21.675Z</time>
      </trkpt>
      <trkpt lat="46.64732" lon="5.52976">
        <ele>285</ele>
        <time>2021-05-29T10:57:22.674Z</time>
      </trkpt>
      <trkpt lat="46.64735" lon="5.52976">
        <ele>285</ele>
        <time>2021-05-29T10:57:23.675Z</time>
      </trkpt>
      <trkpt lat="46.64738" lon="5.52976">
        <ele>285</ele>
        <time>2021-05-29T10:57:24.675Z</time>
      </trkpt>
      <trkpt lat="46.6474" lon="5.52976">
        <ele>284</ele>
        <time>2021-05-29T10:57:25.675Z</time>
      </trkpt>
      <trkpt lat="46.64743" lon="5.52976">
        <ele>284</ele>
        <time>2021-05-29T10:57:26.674Z</time>
      </trkpt>
      <trkpt lat="46.64745" lon="5.52976">
        <ele>284</ele>
        <time>2021-05-29T10:57:27.675Z</time>
      </trkpt>
      <trkpt lat="46.64747" lon="5.52975">
        <ele>284</ele>
        <time>2021-05-29T10:57:28.675Z</time>
      </trkpt>
      <trkpt lat="46.64749" lon="5.52974">
        <ele>284</ele>
        <time>2021-05-29T10:57:29.675Z</time>
      </trkpt>
      <trkpt lat="46.6475" lon="5.52974">
        <ele>284</ele>
        <time>2021-05-29T10:57:30.674Z</time>
      </trkpt>
      <trkpt lat="46.6475" lon="5.52975">
        <ele>284</ele>
        <time>2021-05-29T10:57:31.675Z</time>
      </trkpt>
      <trkpt lat="46.6475" lon="5.52975">
        <ele>283</ele>
        <time>2021-05-29T10:57:32.675Z</time>
      </trkpt>
      <trkpt lat="46.6475" lon="5.52975">
        <ele>283</ele>
        <time>2021-05-29T10:57:33.674Z</time>
      </trkpt>
      <trkpt lat="46.64751" lon="5.52975">
        <ele>283</ele>
        <time>2021-05-29T10:57:34.675Z</time>
      </trkpt>
      <trkpt lat="46.64752" lon="5.52973">
        <ele>284</ele>
        <time>2021-05-29T10:57:35.675Z</time>
      </trkpt>
      <trkpt lat="46.64752" lon="5.52972">
        <ele>284</ele>
        <time>2021-05-29T10:57:36.675Z</time>
      </trkpt>
      <trkpt lat="46.64752" lon="5.52971">
        <ele>284</ele>
        <time>2021-05-29T10:57:37.675Z</time>
      </trkpt>
      <trkpt lat="46.64752" lon="5.52971">
        <ele>284</ele>
        <time>2021-05-29T10:57:38.675Z</time>
      </trkpt>
      <trkpt lat="46.64752" lon="5.5297">
        <ele>285</ele>
        <time>2021-05-29T10:57:39.675Z</time>
      </trkpt>
      <trkpt lat="46.64752" lon="5.52968">
        <ele>285</ele>
        <time>2021-05-29T10:57:40.675Z</time>
      </trkpt>
      <trkpt lat="46.64753" lon="5.52966">
        <ele>285</ele>
        <time>2021-05-29T10:57:41.674Z</time>
      </trkpt>
      <trkpt lat="46.64754" lon="5.52965">
        <ele>285</ele>
        <time>2021-05-29T10:57:42.675Z</time>
      </trkpt>
      <trkpt lat="46.64756" lon="5.52963">
        <ele>285</ele>
        <time>2021-05-29T10:57:43.675Z</time>
      </trkpt>
      <trkpt lat="46.64757" lon="5.52961">
        <ele>286</ele>
        <time>2021-05-29T10:57:44.675Z</time>
      </trkpt>
      <trkpt lat="46.64758" lon="5.5296">
        <ele>286</ele>
        <time>2021-05-29T10:57:45.675Z</time>
      </trkpt>
      <trkpt lat="46.64759" lon="5.52958">
        <ele>286</ele>
        <time>2021-05-29T10:57:46.675Z</time>
      </trkpt>
      <trkpt lat="46.6476" lon="5.52958">
        <ele>287</ele>
        <time>2021-05-29T10:57:47.674Z</time>
      </trkpt>
      <trkpt lat="46.6476" lon="5.52958">
        <ele>287</ele>
        <time>2021-05-29T10:57:48.675Z</time>
      </trkpt>
      <trkpt lat="46.6476" lon="5.52957">
        <ele>288</ele>
        <time>2021-05-29T10:57:49.675Z</time>
      </trkpt>
      <trkpt lat="46.6476" lon="5.52957">
        <ele>288</ele>
        <time>2021-05-29T10:57:50.675Z</time>
      </trkpt>
      <trkpt lat="46.64759" lon="5.52957">
        <ele>289</ele>
        <time>2021-05-29T10:57:51.675Z</time>
      </trkpt>
      <trkpt lat="46.64758" lon="5.52957">
        <ele>289</ele>
        <time>2021-05-29T10:57:52.675Z</time>
      </trkpt>
      <trkpt lat="46.64758" lon="5.52957">
        <ele>290</ele>
        <time>2021-05-29T10:57:53.675Z</time>
      </trkpt>
      <trkpt lat="46.64759" lon="5.52958">
        <ele>290</ele>
        <time>2021-05-29T10:57:54.675Z</time>
      </trkpt>
      <trkpt lat="46.6476" lon="5.52958">
        <ele>290</ele>
        <time>2021-05-29T10:57:55.675Z</time>
      </trkpt>
      <trkpt lat="46.64761" lon="5.52959">
        <ele>290</ele>
        <time>2021-05-29T10:57:56.675Z</time>
      </trkpt>
      <trkpt lat="46.64762" lon="5.52959">
        <ele>291</ele>
        <time>2021-05-29T10:57:57.675Z</time>
      </trkpt>
      <trkpt lat="46.64762" lon="5.52958">
        <ele>291</ele>
        <time>2021-05-29T10:57:58.674Z</time>
      </trkpt>
      <trkpt lat="46.64763" lon="5.52958">
        <ele>291</ele>
        <time>2021-05-29T10:57:59.675Z</time>
      </trkpt>
      <trkpt lat="46.64763" lon="5.52957">
        <ele>291</ele>
        <time>2021-05-29T10:58:00.675Z</time>
      </trkpt>
      <trkpt lat="46.64764" lon="5.52957">
        <ele>291</ele>
        <time>2021-05-29T10:58:01.675Z</time>
      </trkpt>
      <trkpt lat="46.64765" lon="5.52956">
        <ele>291</ele>
        <time>2021-05-29T10:58:02.675Z</time>
      </trkpt>
      <trkpt lat="46.64765" lon="5.52956">
        <ele>292</ele>
        <time>2021-05-29T10:58:03.674Z</time>
      </trkpt>
      <trkpt lat="46.64766" lon="5.52955">
        <ele>292</ele>
        <time>2021-05-29T10:58:04.674Z</time>
      </trkpt>
      <trkpt lat="46.64767" lon="5.52955">
        <ele>292</ele>
        <time>2021-05-29T10:58:05.674Z</time>
      </trkpt>
      <trkpt lat="46.64767" lon="5.52954">
        <ele>292</ele>
        <time>2021-05-29T10:58:06.674Z</time>
      </trkpt>
      <trkpt lat="46.64768" lon="5.52954">
        <ele>292</ele>
        <time>2021-05-29T10:58:07.674Z</time>
      </trkpt>
      <trkpt lat="46.64768" lon="5.52953">
        <ele>292</ele>
        <time>2021-05-29T10:58:08.675Z</time>
      </trkpt>
      <trkpt lat="46.64769" lon="5.52952">
        <ele>292</ele>
        <time>2021-05-29T10:58:09.674Z</time>
      </trkpt>
      <trkpt lat="46.64769" lon="5.52951">
        <ele>292</ele>
        <time>2021-05-29T10:58:10.675Z</time>
      </trkpt>
      <trkpt lat="46.64769" lon="5.52949">
        <ele>292</ele>
        <time>2021-05-29T10:58:11.674Z</time>
      </trkpt>
      <trkpt lat="46.64769" lon="5.52947">
        <ele>292</ele>
        <time>2021-05-29T10:58:12.675Z</time>
      </trkpt>
      <trkpt lat="46.6477" lon="5.52946">
        <ele>292</ele>
        <time>2021-05-29T10:58:13.674Z</time>
      </trkpt>
      <trkpt lat="46.6477" lon="5.52946">
        <ele>293</ele>
        <time>2021-05-29T10:58:14.674Z</time>
      </trkpt>
      <trkpt lat="46.64771" lon="5.52945">
        <ele>293</ele>
        <time>2021-05-29T10:58:15.674Z</time>
      </trkpt>
      <trkpt lat="46.64772" lon="5.52944">
        <ele>293</ele>
        <time>2021-05-29T10:58:16.674Z</time>
      </trkpt>
      <trkpt lat="46.64772" lon="5.52943">
        <ele>294</ele>
        <time>2021-05-29T10:58:17.674Z</time>
      </trkpt>
      <trkpt lat="46.64773" lon="5.52942">
        <ele>294</ele>
        <time>2021-05-29T10:58:18.675Z</time>
      </trkpt>
      <trkpt lat="46.64774" lon="5.52941">
        <ele>294</ele>
        <time>2021-05-29T10:58:19.674Z</time>
      </trkpt>
      <trkpt lat="46.64774" lon="5.5294">
        <ele>294</ele>
        <time>2021-05-29T10:58:20.675Z</time>
      </trkpt>
      <trkpt lat="46.64775" lon="5.5294">
        <ele>294</ele>
        <time>2021-05-29T10:58:21.675Z</time>
      </trkpt>
      <trkpt lat="46.64777" lon="5.52939">
        <ele>295</ele>
        <time>2021-05-29T10:58:22.675Z</time>
      </trkpt>
      <trkpt lat="46.64778" lon="5.52939">
        <ele>294</ele>
        <time>2021-05-29T10:58:23.674Z</time>
      </trkpt>
      <trkpt lat="46.64779" lon="5.52938">
        <ele>294</ele>
        <time>2021-05-29T10:58:24.674Z</time>
      </trkpt>
      <trkpt lat="46.64779" lon="5.52936">
        <ele>294</ele>
        <time>2021-05-29T10:58:25.675Z</time>
      </trkpt>
      <trkpt lat="46.6478" lon="5.52934">
        <ele>294</ele>
        <time>2021-05-29T10:58:26.675Z</time>
      </trkpt>
      <trkpt lat="46.6478" lon="5.52933">
        <ele>294</ele>
        <time>2021-05-29T10:58:27.675Z</time>
      </trkpt>
      <trkpt lat="46.6478" lon="5.52932">
        <ele>294</ele>
        <time>2021-05-29T10:58:28.675Z</time>
      </trkpt>
      <trkpt lat="46.64781" lon="5.52931">
        <ele>294</ele>
        <time>2021-05-29T10:58:29.675Z</time>
      </trkpt>
      <trkpt lat="46.64782" lon="5.5293">
        <ele>295</ele>
        <time>2021-05-29T10:58:30.675Z</time>
      </trkpt>
      <trkpt lat="46.64783" lon="5.5293">
        <ele>295</ele>
        <time>2021-05-29T10:58:31.675Z</time>
      </trkpt>
      <trkpt lat="46.64783" lon="5.52928">
        <ele>296</ele>
        <time>2021-05-29T10:58:32.675Z</time>
      </trkpt>
      <trkpt lat="46.64784" lon="5.52927">
        <ele>296</ele>
        <time>2021-05-29T10:58:33.675Z</time>
      </trkpt>
      <trkpt lat="46.64784" lon="5.52926">
        <ele>296</ele>
        <time>2021-05-29T10:58:34.675Z</time>
      </trkpt>
      <trkpt lat="46.64785" lon="5.52925">
        <ele>297</ele>
        <time>2021-05-29T10:58:35.675Z</time>
      </trkpt>
      <trkpt lat="46.64786" lon="5.52924">
        <ele>297</ele>
        <time>2021-05-29T10:58:36.674Z</time>
      </trkpt>
      <trkpt lat="46.64786" lon="5.52923">
        <ele>297</ele>
        <time>2021-05-29T10:58:37.675Z</time>
      </trkpt>
      <trkpt lat="46.64787" lon="5.52922">
        <ele>297</ele>
        <time>2021-05-29T10:58:38.675Z</time>
      </trkpt>
      <trkpt lat="46.64788" lon="5.52922">
        <ele>297</ele>
        <time>2021-05-29T10:58:39.675Z</time>
      </trkpt>
      <trkpt lat="46.64789" lon="5.52921">
        <ele>297</ele>
        <time>2021-05-29T10:58:40.674Z</time>
      </trkpt>
      <trkpt lat="46.6479" lon="5.52921">
        <ele>297</ele>
        <time>2021-05-29T10:58:41.675Z</time>
      </trkpt>
      <trkpt lat="46.64791" lon="5.5292">
        <ele>297</ele>
        <time>2021-05-29T10:58:42.675Z</time>
      </trkpt>
      <trkpt lat="46.64792" lon="5.5292">
        <ele>296</ele>
        <time>2021-05-29T10:58:43.675Z</time>
      </trkpt>
      <trkpt lat="46.64794" lon="5.52919">
        <ele>296</ele>
        <time>2021-05-29T10:58:44.675Z</time>
      </trkpt>
      <trkpt lat="46.64796" lon="5.52919">
        <ele>295</ele>
        <time>2021-05-29T10:58:45.675Z</time>
      </trkpt>
      <trkpt lat="46.64798" lon="5.52918">
        <ele>294</ele>
        <time>2021-05-29T10:58:46.675Z</time>
      </trkpt>
      <trkpt lat="46.648" lon="5.52916">
        <ele>294</ele>
        <time>2021-05-29T10:58:47.675Z</time>
      </trkpt>
      <trkpt lat="46.64802" lon="5.52913">
        <ele>295</ele>
        <time>2021-05-29T10:58:48.675Z</time>
      </trkpt>
      <trkpt lat="46.64804" lon="5.52912">
        <ele>295</ele>
        <time>2021-05-29T10:58:49.675Z</time>
      </trkpt>
      <trkpt lat="46.64807" lon="5.52909">
        <ele>295</ele>
        <time>2021-05-29T10:58:50.674Z</time>
      </trkpt>
      <trkpt lat="46.64809" lon="5.52907">
        <ele>295</ele>
        <time>2021-05-29T10:58:51.674Z</time>
      </trkpt>
      <trkpt lat="46.64811" lon="5.52905">
        <ele>295</ele>
        <time>2021-05-29T10:58:52.675Z</time>
      </trkpt>
      <trkpt lat="46.64814" lon="5.52904">
        <ele>295</ele>
        <time>2021-05-29T10:58:53.675Z</time>
      </trkpt>
      <trkpt lat="46.64816" lon="5.52902">
        <ele>294</ele>
        <time>2021-05-29T10:58:54.675Z</time>
      </trkpt>
      <trkpt lat="46.64819" lon="5.529">
        <ele>294</ele>
        <time>2021-05-29T10:58:55.675Z</time>
      </trkpt>
      <trkpt lat="46.64821" lon="5.52898">
        <ele>294</ele>
        <time>2021-05-29T10:58:56.674Z</time>
      </trkpt>
      <trkpt lat="46.64823" lon="5.52895">
        <ele>295</ele>
        <time>2021-05-29T10:58:57.675Z</time>
      </trkpt>
      <trkpt lat="46.64825" lon="5.52893">
        <ele>295</ele>
        <time>2021-05-29T10:58:58.675Z</time>
      </trkpt>
      <trkpt lat="46.64827" lon="5.5289">
        <ele>295</ele>
        <time>2021-05-29T10:58:59.674Z</time>
      </trkpt>
      <trkpt lat="46.64829" lon="5.52888">
        <ele>295</ele>
        <time>2021-05-29T10:59:00.674Z</time>
      </trkpt>
      <trkpt lat="46.64831" lon="5.52886">
        <ele>295</ele>
        <time>2021-05-29T10:59:01.675Z</time>
      </trkpt>
      <trkpt lat="46.64833" lon="5.52884">
        <ele>296</ele>
        <time>2021-05-29T10:59:02.675Z</time>
      </trkpt>
      <trkpt lat="46.64835" lon="5.52882">
        <ele>296</ele>
        <time>2021-05-29T10:59:03.675Z</time>
      </trkpt>
      <trkpt lat="46.64837" lon="5.5288">
        <ele>296</ele>
        <time>2021-05-29T10:59:04.675Z</time>
      </trkpt>
      <trkpt lat="46.64839" lon="5.52878">
        <ele>297</ele>
        <time>2021-05-29T10:59:05.675Z</time>
      </trkpt>
      <trkpt lat="46.64841" lon="5.52877">
        <ele>297</ele>
        <time>2021-05-29T10:59:06.675Z</time>
      </trkpt>
      <trkpt lat="46.64843" lon="5.52876">
        <ele>297</ele>
        <time>2021-05-29T10:59:07.675Z</time>
      </trkpt>
      <trkpt lat="46.64845" lon="5.52875">
        <ele>297</ele>
        <time>2021-05-29T10:59:08.674Z</time>
      </trkpt>
      <trkpt lat="46.64848" lon="5.52873">
        <ele>297</ele>
        <time>2021-05-29T10:59:09.674Z</time>
      </trkpt>
      <trkpt lat="46.6485" lon="5.52871">
        <ele>297</ele>
        <time>2021-05-29T10:59:10.675Z</time>
      </trkpt>
      <trkpt lat="46.64851" lon="5.52869">
        <ele>298</ele>
        <time>2021-05-29T10:59:11.675Z</time>
      </trkpt>
      <trkpt lat="46.64853" lon="5.52865">
        <ele>298</ele>
        <time>2021-05-29T10:59:12.675Z</time>
      </trkpt>
      <trkpt lat="46.64855" lon="5.52863">
        <ele>299</ele>
        <time>2021-05-29T10:59:13.675Z</time>
      </trkpt>
      <trkpt lat="46.64856" lon="5.5286">
        <ele>299</ele>
        <time>2021-05-29T10:59:14.675Z</time>
      </trkpt>
      <trkpt lat="46.64858" lon="5.52857">
        <ele>299</ele>
        <time>2021-05-29T10:59:15.675Z</time>
      </trkpt>
      <trkpt lat="46.64859" lon="5.52855">
        <ele>298</ele>
        <time>2021-05-29T10:59:16.675Z</time>
      </trkpt>
      <trkpt lat="46.64861" lon="5.52851">
        <ele>298</ele>
        <time>2021-05-29T10:59:17.674Z</time>
      </trkpt>
      <trkpt lat="46.64863" lon="5.52848">
        <ele>298</ele>
        <time>2021-05-29T10:59:18.674Z</time>
      </trkpt>
      <trkpt lat="46.64864" lon="5.52845">
        <ele>298</ele>
        <time>2021-05-29T10:59:19.675Z</time>
      </trkpt>
      <trkpt lat="46.64865" lon="5.52842">
        <ele>298</ele>
        <time>2021-05-29T10:59:20.674Z</time>
      </trkpt>
      <trkpt lat="46.64866" lon="5.52839">
        <ele>297</ele>
        <time>2021-05-29T10:59:21.675Z</time>
      </trkpt>
      <trkpt lat="46.64867" lon="5.52835">
        <ele>297</ele>
        <time>2021-05-29T10:59:22.675Z</time>
      </trkpt>
      <trkpt lat="46.64868" lon="5.52832">
        <ele>297</ele>
        <time>2021-05-29T10:59:23.675Z</time>
      </trkpt>
      <trkpt lat="46.64869" lon="5.52829">
        <ele>297</ele>
        <time>2021-05-29T10:59:24.675Z</time>
      </trkpt>
      <trkpt lat="46.6487" lon="5.52826">
        <ele>296</ele>
        <time>2021-05-29T10:59:25.675Z</time>
      </trkpt>
      <trkpt lat="46.64871" lon="5.52823">
        <ele>295</ele>
        <time>2021-05-29T10:59:26.675Z</time>
      </trkpt>
      <trkpt lat="46.64872" lon="5.5282">
        <ele>295</ele>
        <time>2021-05-29T10:59:27.675Z</time>
      </trkpt>
      <trkpt lat="46.64874" lon="5.52817">
        <ele>295</ele>
        <time>2021-05-29T10:59:28.675Z</time>
      </trkpt>
      <trkpt lat="46.64875" lon="5.52814">
        <ele>295</ele>
        <time>2021-05-29T10:59:29.675Z</time>
      </trkpt>
      <trkpt lat="46.64876" lon="5.52811">
        <ele>294</ele>
        <time>2021-05-29T10:59:30.675Z</time>
      </trkpt>
      <trkpt lat="46.64878" lon="5.52809">
        <ele>294</ele>
        <time>2021-05-29T10:59:31.675Z</time>
      </trkpt>
      <trkpt lat="46.64879" lon="5.52807">
        <ele>293</ele>
        <time>2021-05-29T10:59:32.674Z</time>
      </trkpt>
      <trkpt lat="46.64881" lon="5.52805">
        <ele>292</ele>
        <time>2021-05-29T10:59:33.675Z</time>
      </trkpt>
      <trkpt lat="46.64882" lon="5.52804">
        <ele>291</ele>
        <time>2021-05-29T10:59:34.675Z</time>
      </trkpt>
      <trkpt lat="46.64885" lon="5.52802">
        <ele>290</ele>
        <time>2021-05-29T10:59:35.675Z</time>
      </trkpt>
      <trkpt lat="46.64887" lon="5.52801">
        <ele>289</ele>
        <time>2021-05-29T10:59:36.675Z</time>
      </trkpt>
      <trkpt lat="46.64889" lon="5.52799">
        <ele>288</ele>
        <time>2021-05-29T10:59:37.675Z</time>
      </trkpt>
      <trkpt lat="46.64891" lon="5.52799">
        <ele>287</ele>
        <time>2021-05-29T10:59:38.674Z</time>
      </trkpt>
      <trkpt lat="46.64893" lon="5.52798">
        <ele>287</ele>
        <time>2021-05-29T10:59:39.675Z</time>
      </trkpt>
      <trkpt lat="46.64895" lon="5.52797">
        <ele>286</ele>
        <time>2021-05-29T10:59:40.674Z</time>
      </trkpt>
      <trkpt lat="46.64897" lon="5.52796">
        <ele>285</ele>
        <time>2021-05-29T10:59:41.675Z</time>
      </trkpt>
      <trkpt lat="46.649" lon="5.52795">
        <ele>284</ele>
        <time>2021-05-29T10:59:42.674Z</time>
      </trkpt>
      <trkpt lat="46.64902" lon="5.52794">
        <ele>283</ele>
        <time>2021-05-29T10:59:43.675Z</time>
      </trkpt>
      <trkpt lat="46.64904" lon="5.52793">
        <ele>283</ele>
        <time>2021-05-29T10:59:44.675Z</time>
      </trkpt>
      <trkpt lat="46.64907" lon="5.52792">
        <ele>282</ele>
        <time>2021-05-29T10:59:45.675Z</time>
      </trkpt>
      <trkpt lat="46.64909" lon="5.52791">
        <ele>282</ele>
        <time>2021-05-29T10:59:46.675Z</time>
      </trkpt>
      <trkpt lat="46.64911" lon="5.5279">
        <ele>282</ele>
        <time>2021-05-29T10:59:47.675Z</time>
      </trkpt>
      <trkpt lat="46.64913" lon="5.5279">
        <ele>282</ele>
        <time>2021-05-29T10:59:48.674Z</time>
      </trkpt>
      <trkpt lat="46.64916" lon="5.52788">
        <ele>281</ele>
        <time>2021-05-29T11:01:17.376Z</time>
      </trkpt>
      <trkpt lat="46.64918" lon="5.52788">
        <ele>281</ele>
        <time>2021-05-29T11:01:18.375Z</time>
      </trkpt>
      <trkpt lat="46.6492" lon="5.52786">
        <ele>280</ele>
        <time>2021-05-29T11:01:19.376Z</time>
      </trkpt>
      <trkpt lat="46.64923" lon="5.52785">
        <ele>280</ele>
        <time>2021-05-29T11:01:20.376Z</time>
      </trkpt>
      <trkpt lat="46.64925" lon="5.52784">
        <ele>279</ele>
        <time>2021-05-29T11:01:21.375Z</time>
      </trkpt>
      <trkpt lat="46.64928" lon="5.52783">
        <ele>279</ele>
        <time>2021-05-29T11:01:22.376Z</time>
      </trkpt>
      <trkpt lat="46.6493" lon="5.52783">
        <ele>278</ele>
        <time>2021-05-29T11:01:23.376Z</time>
      </trkpt>
      <trkpt lat="46.64932" lon="5.52782">
        <ele>278</ele>
        <time>2021-05-29T11:01:24.375Z</time>
      </trkpt>
      <trkpt lat="46.64935" lon="5.52781">
        <ele>278</ele>
        <time>2021-05-29T11:01:25.376Z</time>
      </trkpt>
      <trkpt lat="46.64937" lon="5.5278">
        <ele>278</ele>
        <time>2021-05-29T11:01:26.375Z</time>
      </trkpt>
      <trkpt lat="46.64939" lon="5.52779">
        <ele>277</ele>
        <time>2021-05-29T11:01:27.376Z</time>
      </trkpt>
      <trkpt lat="46.64941" lon="5.52779">
        <ele>277</ele>
        <time>2021-05-29T11:01:28.376Z</time>
      </trkpt>
      <trkpt lat="46.64943" lon="5.52778">
        <ele>278</ele>
        <time>2021-05-29T11:01:29.376Z</time>
      </trkpt>
      <trkpt lat="46.64944" lon="5.52778">
        <ele>278</ele>
        <time>2021-05-29T11:01:30.376Z</time>
      </trkpt>
      <trkpt lat="46.64945" lon="5.52778">
        <ele>277</ele>
        <time>2021-05-29T11:01:31.376Z</time>
      </trkpt>
      <trkpt lat="46.64947" lon="5.52778">
        <ele>277</ele>
        <time>2021-05-29T11:01:32.375Z</time>
      </trkpt>
      <trkpt lat="46.64951" lon="5.52779">
        <ele>277</ele>
        <time>2021-05-29T11:01:33.376Z</time>
      </trkpt>
      <trkpt lat="46.64953" lon="5.52778">
        <ele>277</ele>
        <time>2021-05-29T11:01:34.376Z</time>
      </trkpt>
      <trkpt lat="46.64957" lon="5.52778">
        <ele>277</ele>
        <time>2021-05-29T11:01:35.376Z</time>
      </trkpt>
      <trkpt lat="46.6496" lon="5.52778">
        <ele>278</ele>
        <time>2021-05-29T11:01:36.376Z</time>
      </trkpt>
      <trkpt lat="46.64963" lon="5.52779">
        <ele>278</ele>
        <time>2021-05-29T11:01:37.376Z</time>
      </trkpt>
      <trkpt lat="46.64964" lon="5.52781">
        <ele>277</ele>
        <time>2021-05-29T11:01:38.375Z</time>
      </trkpt>
      <trkpt lat="46.64967" lon="5.52783">
        <ele>276</ele>
        <time>2021-05-29T11:01:39.376Z</time>
      </trkpt>
      <trkpt lat="46.64969" lon="5.52785">
        <ele>276</ele>
        <time>2021-05-29T11:01:40.376Z</time>
      </trkpt>
      <trkpt lat="46.64971" lon="5.52786">
        <ele>275</ele>
        <time>2021-05-29T11:01:41.376Z</time>
      </trkpt>
      <trkpt lat="46.64973" lon="5.52786">
        <ele>275</ele>
        <time>2021-05-29T11:01:42.376Z</time>
      </trkpt>
      <trkpt lat="46.64975" lon="5.52786">
        <ele>275</ele>
        <time>2021-05-29T11:01:43.376Z</time>
      </trkpt>
      <trkpt lat="46.64977" lon="5.52786">
        <ele>275</ele>
        <time>2021-05-29T11:01:44.376Z</time>
      </trkpt>
      <trkpt lat="46.64979" lon="5.52786">
        <ele>275</ele>
        <time>2021-05-29T11:01:45.376Z</time>
      </trkpt>
      <trkpt lat="46.64981" lon="5.52786">
        <ele>276</ele>
        <time>2021-05-29T11:01:46.376Z</time>
      </trkpt>
      <trkpt lat="46.64983" lon="5.52786">
        <ele>276</ele>
        <time>2021-05-29T11:01:47.376Z</time>
      </trkpt>
      <trkpt lat="46.64986" lon="5.52786">
        <ele>276</ele>
        <time>2021-05-29T11:02:24.775Z</time>
      </trkpt>
      <trkpt lat="46.64988" lon="5.52787">
        <ele>276</ele>
        <time>2021-05-29T11:02:25.775Z</time>
      </trkpt>
      <trkpt lat="46.6499" lon="5.52788">
        <ele>277</ele>
        <time>2021-05-29T11:02:26.775Z</time>
      </trkpt>
      <trkpt lat="46.64992" lon="5.52789">
        <ele>276</ele>
        <time>2021-05-29T11:02:27.775Z</time>
      </trkpt>
      <trkpt lat="46.64995" lon="5.52789">
        <ele>276</ele>
        <time>2021-05-29T11:02:28.775Z</time>
      </trkpt>
      <trkpt lat="46.64998" lon="5.52789">
        <ele>276</ele>
        <time>2021-05-29T11:02:29.775Z</time>
      </trkpt>
      <trkpt lat="46.65" lon="5.5279">
        <ele>276</ele>
        <time>2021-05-29T11:02:30.775Z</time>
      </trkpt>
      <trkpt lat="46.65002" lon="5.5279">
        <ele>276</ele>
        <time>2021-05-29T11:02:31.775Z</time>
      </trkpt>
      <trkpt lat="46.65005" lon="5.52792">
        <ele>276</ele>
        <time>2021-05-29T11:02:32.775Z</time>
      </trkpt>
      <trkpt lat="46.65008" lon="5.52792">
        <ele>276</ele>
        <time>2021-05-29T11:02:33.775Z</time>
      </trkpt>
      <trkpt lat="46.6501" lon="5.52793">
        <ele>276</ele>
        <time>2021-05-29T11:02:34.774Z</time>
      </trkpt>
      <trkpt lat="46.65012" lon="5.52794">
        <ele>275</ele>
        <time>2021-05-29T11:02:35.774Z</time>
      </trkpt>
      <trkpt lat="46.65014" lon="5.52795">
        <ele>275</ele>
        <time>2021-05-29T11:02:36.775Z</time>
      </trkpt>
      <trkpt lat="46.65015" lon="5.52796">
        <ele>274</ele>
        <time>2021-05-29T11:02:37.775Z</time>
      </trkpt>
      <trkpt lat="46.65016" lon="5.52796">
        <ele>274</ele>
        <time>2021-05-29T11:02:38.775Z</time>
      </trkpt>
      <trkpt lat="46.65019" lon="5.52796">
        <ele>274</ele>
        <time>2021-05-29T11:02:39.775Z</time>
      </trkpt>
      <trkpt lat="46.65022" lon="5.52797">
        <ele>274</ele>
        <time>2021-05-29T11:02:40.775Z</time>
      </trkpt>
      <trkpt lat="46.65024" lon="5.52797">
        <ele>274</ele>
        <time>2021-05-29T11:02:41.775Z</time>
      </trkpt>
      <trkpt lat="46.65025" lon="5.52798">
        <ele>274</ele>
        <time>2021-05-29T11:02:42.775Z</time>
      </trkpt>
      <trkpt lat="46.65027" lon="5.52798">
        <ele>274</ele>
        <time>2021-05-29T11:02:43.775Z</time>
      </trkpt>
      <trkpt lat="46.65029" lon="5.52798">
        <ele>274</ele>
        <time>2021-05-29T11:02:44.775Z</time>
      </trkpt>
      <trkpt lat="46.65031" lon="5.52799">
        <ele>274</ele>
        <time>2021-05-29T11:02:45.775Z</time>
      </trkpt>
      <trkpt lat="46.65033" lon="5.52799">
        <ele>275</ele>
        <time>2021-05-29T11:02:46.775Z</time>
      </trkpt>
      <trkpt lat="46.65035" lon="5.52799">
        <ele>274</ele>
        <time>2021-05-29T11:02:47.775Z</time>
      </trkpt>
      <trkpt lat="46.65037" lon="5.528">
        <ele>274</ele>
        <time>2021-05-29T11:02:48.775Z</time>
      </trkpt>
      <trkpt lat="46.6504" lon="5.52801">
        <ele>274</ele>
        <time>2021-05-29T11:02:49.774Z</time>
      </trkpt>
      <trkpt lat="46.65042" lon="5.52802">
        <ele>274</ele>
        <time>2021-05-29T11:02:50.775Z</time>
      </trkpt>
      <trkpt lat="46.65044" lon="5.52803">
        <ele>273</ele>
        <time>2021-05-29T11:02:51.775Z</time>
      </trkpt>
      <trkpt lat="46.65046" lon="5.52804">
        <ele>273</ele>
        <time>2021-05-29T11:02:52.775Z</time>
      </trkpt>
      <trkpt lat="46.65048" lon="5.52804">
        <ele>274</ele>
        <time>2021-05-29T11:02:53.774Z</time>
      </trkpt>
      <trkpt lat="46.6505" lon="5.52804">
        <ele>274</ele>
        <time>2021-05-29T11:02:54.775Z</time>
      </trkpt>
      <trkpt lat="46.65052" lon="5.52805">
        <ele>274</ele>
        <time>2021-05-29T11:02:55.775Z</time>
      </trkpt>
      <trkpt lat="46.65055" lon="5.52805">
        <ele>274</ele>
        <time>2021-05-29T11:02:56.775Z</time>
      </trkpt>
      <trkpt lat="46.65058" lon="5.52805">
        <ele>273</ele>
        <time>2021-05-29T11:02:57.774Z</time>
      </trkpt>
      <trkpt lat="46.6506" lon="5.52805">
        <ele>273</ele>
        <time>2021-05-29T11:02:58.774Z</time>
      </trkpt>
      <trkpt lat="46.65063" lon="5.52805">
        <ele>273</ele>
        <time>2021-05-29T11:02:59.775Z</time>
      </trkpt>
      <trkpt lat="46.65064" lon="5.52804">
        <ele>272</ele>
        <time>2021-05-29T11:03:00.775Z</time>
      </trkpt>
      <trkpt lat="46.65067" lon="5.52804">
        <ele>272</ele>
        <time>2021-05-29T11:03:01.774Z</time>
      </trkpt>
      <trkpt lat="46.65069" lon="5.52804">
        <ele>272</ele>
        <time>2021-05-29T11:03:02.775Z</time>
      </trkpt>
      <trkpt lat="46.65071" lon="5.52805">
        <ele>272</ele>
        <time>2021-05-29T11:03:03.774Z</time>
      </trkpt>
      <trkpt lat="46.65073" lon="5.52805">
        <ele>272</ele>
        <time>2021-05-29T11:03:04.775Z</time>
      </trkpt>
      <trkpt lat="46.65075" lon="5.52805">
        <ele>273</ele>
        <time>2021-05-29T11:03:05.775Z</time>
      </trkpt>
      <trkpt lat="46.65077" lon="5.52806">
        <ele>273</ele>
        <time>2021-05-29T11:03:06.775Z</time>
      </trkpt>
      <trkpt lat="46.65079" lon="5.52807">
        <ele>274</ele>
        <time>2021-05-29T11:03:07.774Z</time>
      </trkpt>
      <trkpt lat="46.65081" lon="5.52808">
        <ele>274</ele>
        <time>2021-05-29T11:03:08.775Z</time>
      </trkpt>
      <trkpt lat="46.65083" lon="5.52808">
        <ele>275</ele>
        <time>2021-05-29T11:03:09.775Z</time>
      </trkpt>
      <trkpt lat="46.65085" lon="5.52809">
        <ele>275</ele>
        <time>2021-05-29T11:03:10.774Z</time>
      </trkpt>
      <trkpt lat="46.65088" lon="5.5281">
        <ele>276</ele>
        <time>2021-05-29T11:03:11.775Z</time>
      </trkpt>
      <trkpt lat="46.6509" lon="5.5281">
        <ele>277</ele>
        <time>2021-05-29T11:03:12.775Z</time>
      </trkpt>
      <trkpt lat="46.65094" lon="5.5281">
        <ele>277</ele>
        <time>2021-05-29T11:03:13.775Z</time>
      </trkpt>
      <trkpt lat="46.65097" lon="5.52812">
        <ele>277</ele>
        <time>2021-05-29T11:03:14.775Z</time>
      </trkpt>
      <trkpt lat="46.65099" lon="5.52814">
        <ele>277</ele>
        <time>2021-05-29T11:03:15.775Z</time>
      </trkpt>
      <trkpt lat="46.65101" lon="5.52816">
        <ele>276</ele>
        <time>2021-05-29T11:03:16.775Z</time>
      </trkpt>
      <trkpt lat="46.65103" lon="5.52818">
        <ele>276</ele>
        <time>2021-05-29T11:03:17.775Z</time>
      </trkpt>
      <trkpt lat="46.65105" lon="5.52819">
        <ele>275</ele>
        <time>2021-05-29T11:03:18.775Z</time>
      </trkpt>
      <trkpt lat="46.65108" lon="5.5282">
        <ele>275</ele>
        <time>2021-05-29T11:03:19.775Z</time>
      </trkpt>
      <trkpt lat="46.6511" lon="5.52821">
        <ele>274</ele>
        <time>2021-05-29T11:03:20.775Z</time>
      </trkpt>
      <trkpt lat="46.65112" lon="5.52823">
        <ele>274</ele>
        <time>2021-05-29T11:03:21.775Z</time>
      </trkpt>
      <trkpt lat="46.65113" lon="5.52822">
        <ele>271</ele>
        <time>2021-05-29T11:03:22.775Z</time>
      </trkpt>
      <trkpt lat="46.65114" lon="5.52822">
        <ele>271</ele>
        <time>2021-05-29T11:03:23.775Z</time>
      </trkpt>
      <trkpt lat="46.65116" lon="5.52822">
        <ele>271</ele>
        <time>2021-05-29T11:03:24.775Z</time>
      </trkpt>
      <trkpt lat="46.65118" lon="5.52822">
        <ele>271</ele>
        <time>2021-05-29T11:03:25.775Z</time>
      </trkpt>
      <trkpt lat="46.6512" lon="5.52821">
        <ele>271</ele>
        <time>2021-05-29T11:03:26.775Z</time>
      </trkpt>
      <trkpt lat="46.65123" lon="5.52822">
        <ele>271</ele>
        <time>2021-05-29T11:03:27.775Z</time>
      </trkpt>
      <trkpt lat="46.65126" lon="5.52822">
        <ele>271</ele>
        <time>2021-05-29T11:03:28.776Z</time>
      </trkpt>
      <trkpt lat="46.65129" lon="5.52822">
        <ele>271</ele>
        <time>2021-05-29T11:03:29.775Z</time>
      </trkpt>
      <trkpt lat="46.65131" lon="5.52823">
        <ele>272</ele>
        <time>2021-05-29T11:03:30.776Z</time>
      </trkpt>
      <trkpt lat="46.65135" lon="5.52824">
        <ele>272</ele>
        <time>2021-05-29T11:03:31.776Z</time>
      </trkpt>
      <trkpt lat="46.65139" lon="5.52825">
        <ele>272</ele>
        <time>2021-05-29T11:03:32.776Z</time>
      </trkpt>
      <trkpt lat="46.65141" lon="5.52826">
        <ele>271</ele>
        <time>2021-05-29T11:03:33.775Z</time>
      </trkpt>
      <trkpt lat="46.65144" lon="5.52828">
        <ele>271</ele>
        <time>2021-05-29T11:03:34.776Z</time>
      </trkpt>
      <trkpt lat="46.65147" lon="5.52829">
        <ele>271</ele>
        <time>2021-05-29T11:03:35.775Z</time>
      </trkpt>
      <trkpt lat="46.65148" lon="5.5283">
        <ele>271</ele>
        <time>2021-05-29T11:03:36.775Z</time>
      </trkpt>
      <trkpt lat="46.65151" lon="5.52831">
        <ele>271</ele>
        <time>2021-05-29T11:03:37.776Z</time>
      </trkpt>
      <trkpt lat="46.65154" lon="5.52832">
        <ele>271</ele>
        <time>2021-05-29T11:03:38.776Z</time>
      </trkpt>
      <trkpt lat="46.65156" lon="5.52832">
        <ele>270</ele>
        <time>2021-05-29T11:03:39.776Z</time>
      </trkpt>
      <trkpt lat="46.65159" lon="5.52834">
        <ele>270</ele>
        <time>2021-05-29T11:03:40.775Z</time>
      </trkpt>
      <trkpt lat="46.65162" lon="5.52835">
        <ele>270</ele>
        <time>2021-05-29T11:03:41.775Z</time>
      </trkpt>
      <trkpt lat="46.65164" lon="5.52837">
        <ele>269</ele>
        <time>2021-05-29T11:03:42.776Z</time>
      </trkpt>
      <trkpt lat="46.65166" lon="5.52839">
        <ele>269</ele>
        <time>2021-05-29T11:03:43.776Z</time>
      </trkpt>
      <trkpt lat="46.65166" lon="5.52841">
        <ele>268</ele>
        <time>2021-05-29T11:03:44.775Z</time>
      </trkpt>
      <trkpt lat="46.65166" lon="5.52845">
        <ele>267</ele>
        <time>2021-05-29T11:03:45.776Z</time>
      </trkpt>
      <trkpt lat="46.65165" lon="5.52849">
        <ele>267</ele>
        <time>2021-05-29T11:03:46.775Z</time>
      </trkpt>
      <trkpt lat="46.65164" lon="5.52852">
        <ele>266</ele>
        <time>2021-05-29T11:03:47.776Z</time>
      </trkpt>
      <trkpt lat="46.65163" lon="5.52855">
        <ele>266</ele>
        <time>2021-05-29T11:03:48.775Z</time>
      </trkpt>
      <trkpt lat="46.65162" lon="5.52858">
        <ele>265</ele>
        <time>2021-05-29T11:03:49.775Z</time>
      </trkpt>
      <trkpt lat="46.65161" lon="5.52862">
        <ele>265</ele>
        <time>2021-05-29T11:03:50.775Z</time>
      </trkpt>
      <trkpt lat="46.6516" lon="5.52865">
        <ele>265</ele>
        <time>2021-05-29T11:03:51.776Z</time>
      </trkpt>
      <trkpt lat="46.65158" lon="5.52868">
        <ele>265</ele>
        <time>2021-05-29T11:03:52.775Z</time>
      </trkpt>
      <trkpt lat="46.65157" lon="5.52871">
        <ele>264</ele>
        <time>2021-05-29T11:03:53.775Z</time>
      </trkpt>
      <trkpt lat="46.65156" lon="5.52873">
        <ele>264</ele>
        <time>2021-05-29T11:03:54.775Z</time>
      </trkpt>
      <trkpt lat="46.65155" lon="5.52876">
        <ele>264</ele>
        <time>2021-05-29T11:03:55.775Z</time>
      </trkpt>
      <trkpt lat="46.65154" lon="5.52879">
        <ele>263</ele>
        <time>2021-05-29T11:03:56.775Z</time>
      </trkpt>
      <trkpt lat="46.65152" lon="5.52881">
        <ele>263</ele>
        <time>2021-05-29T11:03:57.776Z</time>
      </trkpt>
      <trkpt lat="46.65152" lon="5.52883">
        <ele>263</ele>
        <time>2021-05-29T11:03:58.776Z</time>
      </trkpt>
      <trkpt lat="46.65151" lon="5.52885">
        <ele>263</ele>
        <time>2021-05-29T11:03:59.775Z</time>
      </trkpt>
      <trkpt lat="46.6515" lon="5.52886">
        <ele>262</ele>
        <time>2021-05-29T11:04:00.775Z</time>
      </trkpt>
      <trkpt lat="46.65151" lon="5.52888">
        <ele>262</ele>
        <time>2021-05-29T11:04:01.775Z</time>
      </trkpt>
      <trkpt lat="46.65151" lon="5.52889">
        <ele>262</ele>
        <time>2021-05-29T11:04:02.775Z</time>
      </trkpt>
      <trkpt lat="46.65151" lon="5.5289">
        <ele>262</ele>
        <time>2021-05-29T11:04:03.775Z</time>
      </trkpt>
      <trkpt lat="46.65151" lon="5.52891">
        <ele>263</ele>
        <time>2021-05-29T11:04:04.775Z</time>
      </trkpt>
      <trkpt lat="46.6515" lon="5.52892">
        <ele>263</ele>
        <time>2021-05-29T11:04:05.775Z</time>
      </trkpt>
      <trkpt lat="46.65149" lon="5.52892">
        <ele>263</ele>
        <time>2021-05-29T11:04:06.776Z</time>
      </trkpt>
      <trkpt lat="46.65148" lon="5.52891">
        <ele>263</ele>
        <time>2021-05-29T11:04:07.775Z</time>
      </trkpt>
      <trkpt lat="46.65146" lon="5.52892">
        <ele>262</ele>
        <time>2021-05-29T11:04:08.775Z</time>
      </trkpt>
      <trkpt lat="46.65145" lon="5.52892">
        <ele>262</ele>
        <time>2021-05-29T11:04:09.775Z</time>
      </trkpt>
      <trkpt lat="46.65144" lon="5.52893">
        <ele>262</ele>
        <time>2021-05-29T11:04:10.775Z</time>
      </trkpt>
      <trkpt lat="46.65143" lon="5.52894">
        <ele>262</ele>
        <time>2021-05-29T11:04:11.775Z</time>
      </trkpt>
      <trkpt lat="46.65143" lon="5.52895">
        <ele>262</ele>
        <time>2021-05-29T11:04:12.775Z</time>
      </trkpt>
      <trkpt lat="46.65142" lon="5.52896">
        <ele>262</ele>
        <time>2021-05-29T11:04:13.776Z</time>
      </trkpt>
      <trkpt lat="46.65141" lon="5.52897">
        <ele>262</ele>
        <time>2021-05-29T11:04:14.775Z</time>
      </trkpt>
      <trkpt lat="46.6514" lon="5.52897">
        <ele>262</ele>
        <time>2021-05-29T11:04:15.776Z</time>
      </trkpt>
      <trkpt lat="46.6514" lon="5.52897">
        <ele>262</ele>
        <time>2021-05-29T11:04:16.775Z</time>
      </trkpt>
      <trkpt lat="46.65139" lon="5.52897">
        <ele>262</ele>
        <time>2021-05-29T11:04:17.775Z</time>
      </trkpt>
      <trkpt lat="46.65139" lon="5.52897">
        <ele>262</ele>
        <time>2021-05-29T11:04:18.775Z</time>
      </trkpt>
      <trkpt lat="46.65138" lon="5.52898">
        <ele>262</ele>
        <time>2021-05-29T11:04:19.775Z</time>
      </trkpt>
      <trkpt lat="46.65137" lon="5.52898">
        <ele>262</ele>
        <time>2021-05-29T11:04:20.775Z</time>
      </trkpt>
      <trkpt lat="46.65136" lon="5.529">
        <ele>263</ele>
        <time>2021-05-29T11:04:21.776Z</time>
      </trkpt>
      <trkpt lat="46.65135" lon="5.52902">
        <ele>263</ele>
        <time>2021-05-29T11:04:22.775Z</time>
      </trkpt>
      <trkpt lat="46.65134" lon="5.52903">
        <ele>263</ele>
        <time>2021-05-29T11:04:23.776Z</time>
      </trkpt>
      <trkpt lat="46.65132" lon="5.52905">
        <ele>263</ele>
        <time>2021-05-29T11:04:24.776Z</time>
      </trkpt>
      <trkpt lat="46.65131" lon="5.52906">
        <ele>263</ele>
        <time>2021-05-29T11:04:25.775Z</time>
      </trkpt>
      <trkpt lat="46.6513" lon="5.52908">
        <ele>263</ele>
        <time>2021-05-29T11:04:26.775Z</time>
      </trkpt>
      <trkpt lat="46.65128" lon="5.5291">
        <ele>263</ele>
        <time>2021-05-29T11:04:27.776Z</time>
      </trkpt>
      <trkpt lat="46.65127" lon="5.52911">
        <ele>263</ele>
        <time>2021-05-29T11:04:28.775Z</time>
      </trkpt>
      <trkpt lat="46.65126" lon="5.52913">
        <ele>262</ele>
        <time>2021-05-29T11:04:29.776Z</time>
      </trkpt>
      <trkpt lat="46.65124" lon="5.52914">
        <ele>262</ele>
        <time>2021-05-29T11:04:30.775Z</time>
      </trkpt>
      <trkpt lat="46.65123" lon="5.52916">
        <ele>262</ele>
        <time>2021-05-29T11:04:31.775Z</time>
      </trkpt>
      <trkpt lat="46.65121" lon="5.52918">
        <ele>262</ele>
        <time>2021-05-29T11:04:32.775Z</time>
      </trkpt>
      <trkpt lat="46.6512" lon="5.52919">
        <ele>262</ele>
        <time>2021-05-29T11:04:33.776Z</time>
      </trkpt>
      <trkpt lat="46.65119" lon="5.5292">
        <ele>263</ele>
        <time>2021-05-29T11:04:34.776Z</time>
      </trkpt>
      <trkpt lat="46.65118" lon="5.5292">
        <ele>263</ele>
        <time>2021-05-29T11:04:35.775Z</time>
      </trkpt>
      <trkpt lat="46.65117" lon="5.5292">
        <ele>263</ele>
        <time>2021-05-29T11:04:36.776Z</time>
      </trkpt>
      <trkpt lat="46.65116" lon="5.5292">
        <ele>263</ele>
        <time>2021-05-29T11:04:37.776Z</time>
      </trkpt>
      <trkpt lat="46.65115" lon="5.5292">
        <ele>263</ele>
        <time>2021-05-29T11:04:38.776Z</time>
      </trkpt>
      <trkpt lat="46.65114" lon="5.52919">
        <ele>264</ele>
        <time>2021-05-29T11:04:39.776Z</time>
      </trkpt>
      <trkpt lat="46.65113" lon="5.52918">
        <ele>264</ele>
        <time>2021-05-29T11:04:40.775Z</time>
      </trkpt>
      <trkpt lat="46.65112" lon="5.52917">
        <ele>264</ele>
        <time>2021-05-29T11:04:41.775Z</time>
      </trkpt>
      <trkpt lat="46.6511" lon="5.52916">
        <ele>264</ele>
        <time>2021-05-29T11:04:42.776Z</time>
      </trkpt>
      <trkpt lat="46.65109" lon="5.52915">
        <ele>265</ele>
        <time>2021-05-29T11:04:43.775Z</time>
      </trkpt>
      <trkpt lat="46.65108" lon="5.52914">
        <ele>265</ele>
        <time>2021-05-29T11:04:44.775Z</time>
      </trkpt>
      <trkpt lat="46.65108" lon="5.52913">
        <ele>265</ele>
        <time>2021-05-29T11:04:45.775Z</time>
      </trkpt>
      <trkpt lat="46.65107" lon="5.52912">
        <ele>265</ele>
        <time>2021-05-29T11:04:46.775Z</time>
      </trkpt>
      <trkpt lat="46.65106" lon="5.52911">
        <ele>265</ele>
        <time>2021-05-29T11:04:47.776Z</time>
      </trkpt>
      <trkpt lat="46.65105" lon="5.52911">
        <ele>264</ele>
        <time>2021-05-29T11:04:48.775Z</time>
      </trkpt>
      <trkpt lat="46.65105" lon="5.5291">
        <ele>264</ele>
        <time>2021-05-29T11:04:49.775Z</time>
      </trkpt>
      <trkpt lat="46.65104" lon="5.52908">
        <ele>264</ele>
        <time>2021-05-29T11:04:50.775Z</time>
      </trkpt>
      <trkpt lat="46.65104" lon="5.52906">
        <ele>265</ele>
        <time>2021-05-29T11:04:51.775Z</time>
      </trkpt>
      <trkpt lat="46.65104" lon="5.52905">
        <ele>265</ele>
        <time>2021-05-29T11:04:52.776Z</time>
      </trkpt>
      <trkpt lat="46.65104" lon="5.52903">
        <ele>265</ele>
        <time>2021-05-29T11:04:53.776Z</time>
      </trkpt>
      <trkpt lat="46.65104" lon="5.52902">
        <ele>265</ele>
        <time>2021-05-29T11:04:54.776Z</time>
      </trkpt>
      <trkpt lat="46.65103" lon="5.52901">
        <ele>265</ele>
        <time>2021-05-29T11:04:55.775Z</time>
      </trkpt>
      <trkpt lat="46.65103" lon="5.52901">
        <ele>266</ele>
        <time>2021-05-29T11:04:56.776Z</time>
      </trkpt>
      <trkpt lat="46.65103" lon="5.52901">
        <ele>266</ele>
        <time>2021-05-29T11:04:57.775Z</time>
      </trkpt>
      <trkpt lat="46.65103" lon="5.52901">
        <ele>267</ele>
        <time>2021-05-29T11:04:58.775Z</time>
      </trkpt>
      <trkpt lat="46.65103" lon="5.52901">
        <ele>268</ele>
        <time>2021-05-29T11:04:59.776Z</time>
      </trkpt>
      <trkpt lat="46.65104" lon="5.52902">
        <ele>268</ele>
        <time>2021-05-29T11:05:00.775Z</time>
      </trkpt>
      <trkpt lat="46.65105" lon="5.52902">
        <ele>269</ele>
        <time>2021-05-29T11:05:01.775Z</time>
      </trkpt>
      <trkpt lat="46.65106" lon="5.52903">
        <ele>270</ele>
        <time>2021-05-29T11:05:02.775Z</time>
      </trkpt>
      <trkpt lat="46.65106" lon="5.52905">
        <ele>270</ele>
        <time>2021-05-29T11:05:03.776Z</time>
      </trkpt>
      <trkpt lat="46.65106" lon="5.52905">
        <ele>269</ele>
        <time>2021-05-29T11:05:04.775Z</time>
      </trkpt>
      <trkpt lat="46.65106" lon="5.52906">
        <ele>269</ele>
        <time>2021-05-29T11:05:05.775Z</time>
      </trkpt>
      <trkpt lat="46.65106" lon="5.52907">
        <ele>269</ele>
        <time>2021-05-29T11:05:06.775Z</time>
      </trkpt>
      <trkpt lat="46.65105" lon="5.52907">
        <ele>268</ele>
        <time>2021-05-29T11:05:07.776Z</time>
      </trkpt>
      <trkpt lat="46.65105" lon="5.52907">
        <ele>268</ele>
        <time>2021-05-29T11:05:08.776Z</time>
      </trkpt>
      <trkpt lat="46.65105" lon="5.52907">
        <ele>267</ele>
        <time>2021-05-29T11:05:09.776Z</time>
      </trkpt>
      <trkpt lat="46.65105" lon="5.52907">
        <ele>267</ele>
        <time>2021-05-29T11:05:10.775Z</time>
      </trkpt>
      <trkpt lat="46.65105" lon="5.52907">
        <ele>266</ele>
        <time>2021-05-29T11:05:11.775Z</time>
      </trkpt>
      <trkpt lat="46.65105" lon="5.52907">
        <ele>266</ele>
        <time>2021-05-29T11:05:12.776Z</time>
      </trkpt>
      <trkpt lat="46.65105" lon="5.52907">
        <ele>265</ele>
        <time>2021-05-29T11:05:13.776Z</time>
      </trkpt>
      <trkpt lat="46.65105" lon="5.52907">
        <ele>265</ele>
        <time>2021-05-29T11:05:14.776Z</time>
      </trkpt>
      <trkpt lat="46.65105" lon="5.52907">
        <ele>265</ele>
        <time>2021-05-29T11:05:15.776Z</time>
      </trkpt>
      <trkpt lat="46.65105" lon="5.52907">
        <ele>265</ele>
        <time>2021-05-29T11:05:16.775Z</time>
      </trkpt>
      <trkpt lat="46.65105" lon="5.52907">
        <ele>265</ele>
        <time>2021-05-29T11:05:17.775Z</time>
      </trkpt>
      <trkpt lat="46.65105" lon="5.52907">
        <ele>265</ele>
        <time>2021-05-29T11:05:18.775Z</time>
      </trkpt>
      <trkpt lat="46.65105" lon="5.52907">
        <ele>265</ele>
        <time>2021-05-29T11:05:19.776Z</time>
      </trkpt>
      <trkpt lat="46.65105" lon="5.52907">
        <ele>265</ele>
        <time>2021-05-29T11:05:20.775Z</time>
      </trkpt>
      <trkpt lat="46.65105" lon="5.52907">
        <ele>264</ele>
        <time>2021-05-29T11:05:21.776Z</time>
      </trkpt>
      <trkpt lat="46.65105" lon="5.52908">
        <ele>264</ele>
        <time>2021-05-29T11:05:22.775Z</time>
      </trkpt>
      <trkpt lat="46.65104" lon="5.52907">
        <ele>264</ele>
        <time>2021-05-29T11:05:23.775Z</time>
      </trkpt>
      <trkpt lat="46.65104" lon="5.52907">
        <ele>264</ele>
        <time>2021-05-29T11:05:24.775Z</time>
      </trkpt>
      <trkpt lat="46.65104" lon="5.52908">
        <ele>264</ele>
        <time>2021-05-29T11:05:25.776Z</time>
      </trkpt>
      <trkpt lat="46.65104" lon="5.52908">
        <ele>265</ele>
        <time>2021-05-29T11:05:26.776Z</time>
      </trkpt>
      <trkpt lat="46.65104" lon="5.52908">
        <ele>265</ele>
        <time>2021-05-29T11:05:27.776Z</time>
      </trkpt>
      <trkpt lat="46.65104" lon="5.52908">
        <ele>265</ele>
        <time>2021-05-29T11:05:28.776Z</time>
      </trkpt>
      <trkpt lat="46.65104" lon="5.52908">
        <ele>265</ele>
        <time>2021-05-29T11:05:29.775Z</time>
      </trkpt>
      <trkpt lat="46.65104" lon="5.52908">
        <ele>265</ele>
        <time>2021-05-29T11:05:30.776Z</time>
      </trkpt>
      <trkpt lat="46.65104" lon="5.52908">
        <ele>265</ele>
        <time>2021-05-29T11:05:31.776Z</time>
      </trkpt>
      <trkpt lat="46.65104" lon="5.52908">
        <ele>265</ele>
        <time>2021-05-29T11:05:32.776Z</time>
      </trkpt>
      <trkpt lat="46.65104" lon="5.52908">
        <ele>265</ele>
        <time>2021-05-29T11:05:33.776Z</time>
      </trkpt>
      <trkpt lat="46.65104" lon="5.52908">
        <ele>265</ele>
        <time>2021-05-29T11:05:34.775Z</time>
      </trkpt>
      <trkpt lat="46.65104" lon="5.52908">
        <ele>265</ele>
        <time>2021-05-29T11:05:35.776Z</time>
      </trkpt>
      <trkpt lat="46.65104" lon="5.52908">
        <ele>265</ele>
        <time>2021-05-29T11:05:36.776Z</time>
      </trkpt>
      <trkpt lat="46.65104" lon="5.52908">
        <ele>265</ele>
        <time>2021-05-29T11:05:37.776Z</time>
      </trkpt>
      <trkpt lat="46.65104" lon="5.52908">
        <ele>265</ele>
        <time>2021-05-29T11:05:38.776Z</time>
      </trkpt>
      <trkpt lat="46.65104" lon="5.52908">
        <ele>265</ele>
        <time>2021-05-29T11:05:39.775Z</time>
      </trkpt>
      <trkpt lat="46.65104" lon="5.52908">
        <ele>265</ele>
        <time>2021-05-29T11:05:40.775Z</time>
      </trkpt>
      <trkpt lat="46.65104" lon="5.52908">
        <ele>265</ele>
        <time>2021-05-29T11:05:41.775Z</time>
      </trkpt>
      <trkpt lat="46.65104" lon="5.52908">
        <ele>266</ele>
        <time>2021-05-29T11:05:42.776Z</time>
      </trkpt>
      <trkpt lat="46.65104" lon="5.52908">
        <ele>266</ele>
        <time>2021-05-29T11:05:43.776Z</time>
      </trkpt>
      <trkpt lat="46.65104" lon="5.52908">
        <ele>266</ele>
        <time>2021-05-29T11:05:44.776Z</time>
      </trkpt>
      <trkpt lat="46.65104" lon="5.52908">
        <ele>266</ele>
        <time>2021-05-29T11:05:45.776Z</time>
      </trkpt>
      <trkpt lat="46.65104" lon="5.52908">
        <ele>266</ele>
        <time>2021-05-29T11:05:46.776Z</time>
      </trkpt>
      <trkpt lat="46.65104" lon="5.52908">
        <ele>266</ele>
        <time>2021-05-29T11:05:47.776Z</time>
      </trkpt>
      <trkpt lat="46.65104" lon="5.52908">
        <ele>266</ele>
        <time>2021-05-29T11:05:48.776Z</time>
      </trkpt>
      <trkpt lat="46.65103" lon="5.52908">
        <ele>266</ele>
        <time>2021-05-29T11:05:49.775Z</time>
      </trkpt>
      <trkpt lat="46.65103" lon="5.52908">
        <ele>266</ele>
        <time>2021-05-29T11:05:50.776Z</time>
      </trkpt>
      <trkpt lat="46.65103" lon="5.52908">
        <ele>266</ele>
        <time>2021-05-29T11:05:51.776Z</time>
      </trkpt>
      <trkpt lat="46.65103" lon="5.52908">
        <ele>266</ele>
        <time>2021-05-29T11:05:52.776Z</time>
      </trkpt>
      <trkpt lat="46.65103" lon="5.52908">
        <ele>266</ele>
        <time>2021-05-29T11:05:53.776Z</time>
      </trkpt>
      <trkpt lat="46.65103" lon="5.52908">
        <ele>265</ele>
        <time>2021-05-29T11:05:54.776Z</time>
      </trkpt>
      <trkpt lat="46.65103" lon="5.52908">
        <ele>265</ele>
        <time>2021-05-29T11:05:55.775Z</time>
      </trkpt>
      <trkpt lat="46.65103" lon="5.52908">
        <ele>265</ele>
        <time>2021-05-29T11:05:56.776Z</time>
      </trkpt>
      <trkpt lat="46.65104" lon="5.52908">
        <ele>265</ele>
        <time>2021-05-29T11:05:57.776Z</time>
      </trkpt>
      <trkpt lat="46.65104" lon="5.52908">
        <ele>265</ele>
        <time>2021-05-29T11:05:58.776Z</time>
      </trkpt>
      <trkpt lat="46.65104" lon="5.52908">
        <ele>265</ele>
        <time>2021-05-29T11:05:59.776Z</time>
      </trkpt>
      <trkpt lat="46.65104" lon="5.52908">
        <ele>265</ele>
        <time>2021-05-29T11:06:00.776Z</time>
      </trkpt>
      <trkpt lat="46.65104" lon="5.52908">
        <ele>265</ele>
        <time>2021-05-29T11:06:01.775Z</time>
      </trkpt>
      <trkpt lat="46.65104" lon="5.52908">
        <ele>265</ele>
        <time>2021-05-29T11:06:02.776Z</time>
      </trkpt>
      <trkpt lat="46.65104" lon="5.52908">
        <ele>265</ele>
        <time>2021-05-29T11:06:03.775Z</time>
      </trkpt>
      <trkpt lat="46.65105" lon="5.52911">
        <ele>265</ele>
        <time>2021-05-29T11:06:04.775Z</time>
      </trkpt>
      <trkpt lat="46.65107" lon="5.52913">
        <ele>265</ele>
        <time>2021-05-29T11:06:05.775Z</time>
      </trkpt>
      <trkpt lat="46.65108" lon="5.52916">
        <ele>265</ele>
        <time>2021-05-29T11:06:06.775Z</time>
      </trkpt>
      <trkpt lat="46.6511" lon="5.52918">
        <ele>265</ele>
        <time>2021-05-29T11:06:07.775Z</time>
      </trkpt>
      <trkpt lat="46.65113" lon="5.52919">
        <ele>265</ele>
        <time>2021-05-29T11:06:08.775Z</time>
      </trkpt>
      <trkpt lat="46.65115" lon="5.5292">
        <ele>265</ele>
        <time>2021-05-29T11:06:09.776Z</time>
      </trkpt>
      <trkpt lat="46.65117" lon="5.5292">
        <ele>265</ele>
        <time>2021-05-29T11:06:10.775Z</time>
      </trkpt>
      <trkpt lat="46.65118" lon="5.5292">
        <ele>264</ele>
        <time>2021-05-29T11:06:11.776Z</time>
      </trkpt>
      <trkpt lat="46.65118" lon="5.52921">
        <ele>264</ele>
        <time>2021-05-29T11:06:12.775Z</time>
      </trkpt>
      <trkpt lat="46.65119" lon="5.52921">
        <ele>264</ele>
        <time>2021-05-29T11:06:13.776Z</time>
      </trkpt>
      <trkpt lat="46.65119" lon="5.52921">
        <ele>263</ele>
        <time>2021-05-29T11:06:14.775Z</time>
      </trkpt>
      <trkpt lat="46.65119" lon="5.52922">
        <ele>263</ele>
        <time>2021-05-29T11:06:15.775Z</time>
      </trkpt>
      <trkpt lat="46.65119" lon="5.52922">
        <ele>263</ele>
        <time>2021-05-29T11:06:16.775Z</time>
      </trkpt>
      <trkpt lat="46.6512" lon="5.52923">
        <ele>263</ele>
        <time>2021-05-29T11:06:17.775Z</time>
      </trkpt>
      <trkpt lat="46.6512" lon="5.52924">
        <ele>263</ele>
        <time>2021-05-29T11:06:18.775Z</time>
      </trkpt>
      <trkpt lat="46.65121" lon="5.52926">
        <ele>262</ele>
        <time>2021-05-29T11:06:19.775Z</time>
      </trkpt>
      <trkpt lat="46.65122" lon="5.52928">
        <ele>262</ele>
        <time>2021-05-29T11:06:20.775Z</time>
      </trkpt>
      <trkpt lat="46.65123" lon="5.5293">
        <ele>262</ele>
        <time>2021-05-29T11:06:21.775Z</time>
      </trkpt>
      <trkpt lat="46.65124" lon="5.52932">
        <ele>261</ele>
        <time>2021-05-29T11:06:22.775Z</time>
      </trkpt>
      <trkpt lat="46.65125" lon="5.52935">
        <ele>261</ele>
        <time>2021-05-29T11:06:23.776Z</time>
      </trkpt>
      <trkpt lat="46.65126" lon="5.52937">
        <ele>261</ele>
        <time>2021-05-29T11:06:24.775Z</time>
      </trkpt>
      <trkpt lat="46.65127" lon="5.52939">
        <ele>260</ele>
        <time>2021-05-29T11:06:25.775Z</time>
      </trkpt>
      <trkpt lat="46.65128" lon="5.52942">
        <ele>260</ele>
        <time>2021-05-29T11:06:26.775Z</time>
      </trkpt>
      <trkpt lat="46.65129" lon="5.52943">
        <ele>260</ele>
        <time>2021-05-29T11:06:27.775Z</time>
      </trkpt>
      <trkpt lat="46.65132" lon="5.52945">
        <ele>260</ele>
        <time>2021-05-29T11:06:28.776Z</time>
      </trkpt>
      <trkpt lat="46.65134" lon="5.52947">
        <ele>260</ele>
        <time>2021-05-29T11:06:29.775Z</time>
      </trkpt>
      <trkpt lat="46.65137" lon="5.52949">
        <ele>259</ele>
        <time>2021-05-29T11:10:18.435Z</time>
      </trkpt>
      <trkpt lat="46.65138" lon="5.52951">
        <ele>259</ele>
        <time>2021-05-29T11:10:19.435Z</time>
      </trkpt>
      <trkpt lat="46.6514" lon="5.52952">
        <ele>259</ele>
        <time>2021-05-29T11:10:20.436Z</time>
      </trkpt>
      <trkpt lat="46.6514" lon="5.52952">
        <ele>259</ele>
        <time>2021-05-29T11:10:21.435Z</time>
      </trkpt>
      <trkpt lat="46.65141" lon="5.52953">
        <ele>259</ele>
        <time>2021-05-29T11:10:22.435Z</time>
      </trkpt>
      <trkpt lat="46.6514" lon="5.52954">
        <ele>259</ele>
        <time>2021-05-29T11:10:23.435Z</time>
      </trkpt>
      <trkpt lat="46.6514" lon="5.52956">
        <ele>259</ele>
        <time>2021-05-29T11:10:24.436Z</time>
      </trkpt>
      <trkpt lat="46.65138" lon="5.52957">
        <ele>259</ele>
        <time>2021-05-29T11:10:25.435Z</time>
      </trkpt>
      <trkpt lat="46.65138" lon="5.52958">
        <ele>259</ele>
        <time>2021-05-29T11:10:26.436Z</time>
      </trkpt>
      <trkpt lat="46.65138" lon="5.52959">
        <ele>259</ele>
        <time>2021-05-29T11:10:27.435Z</time>
      </trkpt>
      <trkpt lat="46.65139" lon="5.52961">
        <ele>259</ele>
        <time>2021-05-29T11:10:28.435Z</time>
      </trkpt>
      <trkpt lat="46.65139" lon="5.52964">
        <ele>259</ele>
        <time>2021-05-29T11:10:29.435Z</time>
      </trkpt>
      <trkpt lat="46.65139" lon="5.52967">
        <ele>259</ele>
        <time>2021-05-29T11:10:30.436Z</time>
      </trkpt>
      <trkpt lat="46.65139" lon="5.52968">
        <ele>259</ele>
        <time>2021-05-29T11:10:31.436Z</time>
      </trkpt>
      <trkpt lat="46.65139" lon="5.5297">
        <ele>258</ele>
        <time>2021-05-29T11:10:32.435Z</time>
      </trkpt>
      <trkpt lat="46.65138" lon="5.52971">
        <ele>258</ele>
        <time>2021-05-29T11:10:33.435Z</time>
      </trkpt>
      <trkpt lat="46.65138" lon="5.52972">
        <ele>258</ele>
        <time>2021-05-29T11:10:34.436Z</time>
      </trkpt>
      <trkpt lat="46.65137" lon="5.52973">
        <ele>258</ele>
        <time>2021-05-29T11:10:35.435Z</time>
      </trkpt>
      <trkpt lat="46.65136" lon="5.52974">
        <ele>258</ele>
        <time>2021-05-29T11:10:36.435Z</time>
      </trkpt>
      <trkpt lat="46.65135" lon="5.52976">
        <ele>258</ele>
        <time>2021-05-29T11:10:37.436Z</time>
      </trkpt>
      <trkpt lat="46.65134" lon="5.52978">
        <ele>258</ele>
        <time>2021-05-29T11:10:38.435Z</time>
      </trkpt>
      <trkpt lat="46.65133" lon="5.52981">
        <ele>258</ele>
        <time>2021-05-29T11:10:39.436Z</time>
      </trkpt>
      <trkpt lat="46.65132" lon="5.52983">
        <ele>258</ele>
        <time>2021-05-29T11:10:40.435Z</time>
      </trkpt>
      <trkpt lat="46.65131" lon="5.52985">
        <ele>258</ele>
        <time>2021-05-29T11:10:41.436Z</time>
      </trkpt>
      <trkpt lat="46.6513" lon="5.52988">
        <ele>258</ele>
        <time>2021-05-29T11:10:42.435Z</time>
      </trkpt>
      <trkpt lat="46.65129" lon="5.5299">
        <ele>258</ele>
        <time>2021-05-29T11:10:43.435Z</time>
      </trkpt>
      <trkpt lat="46.65127" lon="5.52993">
        <ele>258</ele>
        <time>2021-05-29T11:10:44.436Z</time>
      </trkpt>
      <trkpt lat="46.65126" lon="5.52995">
        <ele>258</ele>
        <time>2021-05-29T11:10:45.436Z</time>
      </trkpt>
      <trkpt lat="46.65125" lon="5.52997">
        <ele>258</ele>
        <time>2021-05-29T11:10:46.435Z</time>
      </trkpt>
      <trkpt lat="46.65124" lon="5.53">
        <ele>258</ele>
        <time>2021-05-29T11:10:47.435Z</time>
      </trkpt>
      <trkpt lat="46.65123" lon="5.53003">
        <ele>258</ele>
        <time>2021-05-29T11:10:48.435Z</time>
      </trkpt>
      <trkpt lat="46.65122" lon="5.53005">
        <ele>258</ele>
        <time>2021-05-29T11:10:49.435Z</time>
      </trkpt>
      <trkpt lat="46.65121" lon="5.53007">
        <ele>258</ele>
        <time>2021-05-29T11:10:50.436Z</time>
      </trkpt>
      <trkpt lat="46.6512" lon="5.53009">
        <ele>258</ele>
        <time>2021-05-29T11:10:51.436Z</time>
      </trkpt>
      <trkpt lat="46.65119" lon="5.53012">
        <ele>258</ele>
        <time>2021-05-29T11:10:52.435Z</time>
      </trkpt>
      <trkpt lat="46.65118" lon="5.53014">
        <ele>258</ele>
        <time>2021-05-29T11:10:53.436Z</time>
      </trkpt>
      <trkpt lat="46.65117" lon="5.53017">
        <ele>258</ele>
        <time>2021-05-29T11:10:54.435Z</time>
      </trkpt>
      <trkpt lat="46.65115" lon="5.5302">
        <ele>258</ele>
        <time>2021-05-29T11:10:55.435Z</time>
      </trkpt>
      <trkpt lat="46.65114" lon="5.53022">
        <ele>258</ele>
        <time>2021-05-29T11:10:56.436Z</time>
      </trkpt>
      <trkpt lat="46.65113" lon="5.53024">
        <ele>257</ele>
        <time>2021-05-29T11:10:57.435Z</time>
      </trkpt>
      <trkpt lat="46.65112" lon="5.53027">
        <ele>257</ele>
        <time>2021-05-29T11:10:58.435Z</time>
      </trkpt>
      <trkpt lat="46.65111" lon="5.53029">
        <ele>257</ele>
        <time>2021-05-29T11:10:59.435Z</time>
      </trkpt>
      <trkpt lat="46.6511" lon="5.53032">
        <ele>257</ele>
        <time>2021-05-29T11:11:00.436Z</time>
      </trkpt>
      <trkpt lat="46.65109" lon="5.53035">
        <ele>257</ele>
        <time>2021-05-29T11:11:01.436Z</time>
      </trkpt>
      <trkpt lat="46.65108" lon="5.53038">
        <ele>257</ele>
        <time>2021-05-29T11:11:02.436Z</time>
      </trkpt>
      <trkpt lat="46.65107" lon="5.5304">
        <ele>257</ele>
        <time>2021-05-29T11:11:03.436Z</time>
      </trkpt>
      <trkpt lat="46.65106" lon="5.53043">
        <ele>258</ele>
        <time>2021-05-29T11:11:04.435Z</time>
      </trkpt>
      <trkpt lat="46.65104" lon="5.53045">
        <ele>258</ele>
        <time>2021-05-29T11:11:05.436Z</time>
      </trkpt>
      <trkpt lat="46.65103" lon="5.53048">
        <ele>258</ele>
        <time>2021-05-29T11:11:06.435Z</time>
      </trkpt>
      <trkpt lat="46.65101" lon="5.53051">
        <ele>258</ele>
        <time>2021-05-29T11:11:07.435Z</time>
      </trkpt>
      <trkpt lat="46.651" lon="5.53054">
        <ele>258</ele>
        <time>2021-05-29T11:11:08.436Z</time>
      </trkpt>
      <trkpt lat="46.65099" lon="5.53057">
        <ele>258</ele>
        <time>2021-05-29T11:11:09.435Z</time>
      </trkpt>
      <trkpt lat="46.65098" lon="5.5306">
        <ele>258</ele>
        <time>2021-05-29T11:11:10.435Z</time>
      </trkpt>
      <trkpt lat="46.65096" lon="5.53063">
        <ele>258</ele>
        <time>2021-05-29T11:11:11.435Z</time>
      </trkpt>
      <trkpt lat="46.65095" lon="5.53065">
        <ele>258</ele>
        <time>2021-05-29T11:11:12.435Z</time>
      </trkpt>
      <trkpt lat="46.65094" lon="5.53068">
        <ele>258</ele>
        <time>2021-05-29T11:11:13.435Z</time>
      </trkpt>
      <trkpt lat="46.65093" lon="5.53071">
        <ele>258</ele>
        <time>2021-05-29T11:11:14.435Z</time>
      </trkpt>
      <trkpt lat="46.65092" lon="5.53074">
        <ele>258</ele>
        <time>2021-05-29T11:11:15.435Z</time>
      </trkpt>
      <trkpt lat="46.65091" lon="5.53077">
        <ele>258</ele>
        <time>2021-05-29T11:11:16.436Z</time>
      </trkpt>
      <trkpt lat="46.65089" lon="5.53079">
        <ele>258</ele>
        <time>2021-05-29T11:11:17.435Z</time>
      </trkpt>
      <trkpt lat="46.65088" lon="5.53081">
        <ele>258</ele>
        <time>2021-05-29T11:11:18.435Z</time>
      </trkpt>
      <trkpt lat="46.65087" lon="5.53083">
        <ele>259</ele>
        <time>2021-05-29T11:11:19.435Z</time>
      </trkpt>
      <trkpt lat="46.65086" lon="5.53086">
        <ele>259</ele>
        <time>2021-05-29T11:11:20.436Z</time>
      </trkpt>
      <trkpt lat="46.65085" lon="5.53089">
        <ele>260</ele>
        <time>2021-05-29T11:11:21.436Z</time>
      </trkpt>
      <trkpt lat="46.65084" lon="5.53092">
        <ele>259</ele>
        <time>2021-05-29T11:11:22.435Z</time>
      </trkpt>
      <trkpt lat="46.65083" lon="5.53094">
        <ele>259</ele>
        <time>2021-05-29T11:11:23.435Z</time>
      </trkpt>
      <trkpt lat="46.65081" lon="5.53096">
        <ele>259</ele>
        <time>2021-05-29T11:11:24.435Z</time>
      </trkpt>
      <trkpt lat="46.6508" lon="5.53099">
        <ele>259</ele>
        <time>2021-05-29T11:11:25.436Z</time>
      </trkpt>
      <trkpt lat="46.65079" lon="5.53101">
        <ele>258</ele>
        <time>2021-05-29T11:11:26.435Z</time>
      </trkpt>
      <trkpt lat="46.65077" lon="5.53104">
        <ele>258</ele>
        <time>2021-05-29T11:11:27.435Z</time>
      </trkpt>
      <trkpt lat="46.65076" lon="5.53107">
        <ele>258</ele>
        <time>2021-05-29T11:11:28.435Z</time>
      </trkpt>
      <trkpt lat="46.65075" lon="5.5311">
        <ele>258</ele>
        <time>2021-05-29T11:11:29.435Z</time>
      </trkpt>
      <trkpt lat="46.65073" lon="5.53113">
        <ele>258</ele>
        <time>2021-05-29T11:11:30.435Z</time>
      </trkpt>
      <trkpt lat="46.65072" lon="5.53116">
        <ele>258</ele>
        <time>2021-05-29T11:11:31.435Z</time>
      </trkpt>
      <trkpt lat="46.65071" lon="5.53118">
        <ele>258</ele>
        <time>2021-05-29T11:11:32.435Z</time>
      </trkpt>
      <trkpt lat="46.65069" lon="5.53121">
        <ele>258</ele>
        <time>2021-05-29T11:11:33.435Z</time>
      </trkpt>
      <trkpt lat="46.65068" lon="5.53123">
        <ele>258</ele>
        <time>2021-05-29T11:11:34.435Z</time>
      </trkpt>
      <trkpt lat="46.65066" lon="5.53125">
        <ele>257</ele>
        <time>2021-05-29T11:11:35.436Z</time>
      </trkpt>
      <trkpt lat="46.65064" lon="5.53128">
        <ele>257</ele>
        <time>2021-05-29T11:11:36.436Z</time>
      </trkpt>
      <trkpt lat="46.65063" lon="5.53131">
        <ele>257</ele>
        <time>2021-05-29T11:11:37.436Z</time>
      </trkpt>
      <trkpt lat="46.65061" lon="5.53134">
        <ele>257</ele>
        <time>2021-05-29T11:11:38.435Z</time>
      </trkpt>
      <trkpt lat="46.6506" lon="5.53137">
        <ele>257</ele>
        <time>2021-05-29T11:11:39.435Z</time>
      </trkpt>
      <trkpt lat="46.65058" lon="5.5314">
        <ele>257</ele>
        <time>2021-05-29T11:11:40.435Z</time>
      </trkpt>
      <trkpt lat="46.65057" lon="5.53143">
        <ele>258</ele>
        <time>2021-05-29T11:11:41.436Z</time>
      </trkpt>
      <trkpt lat="46.65055" lon="5.53146">
        <ele>258</ele>
        <time>2021-05-29T11:11:42.436Z</time>
      </trkpt>
      <trkpt lat="46.65054" lon="5.53148">
        <ele>258</ele>
        <time>2021-05-29T11:11:43.435Z</time>
      </trkpt>
      <trkpt lat="46.65052" lon="5.53151">
        <ele>258</ele>
        <time>2021-05-29T11:11:44.435Z</time>
      </trkpt>
      <trkpt lat="46.65051" lon="5.53154">
        <ele>258</ele>
        <time>2021-05-29T11:11:45.436Z</time>
      </trkpt>
      <trkpt lat="46.6505" lon="5.53157">
        <ele>257</ele>
        <time>2021-05-29T11:11:46.435Z</time>
      </trkpt>
      <trkpt lat="46.65048" lon="5.5316">
        <ele>258</ele>
        <time>2021-05-29T11:11:47.435Z</time>
      </trkpt>
      <trkpt lat="46.65047" lon="5.53163">
        <ele>258</ele>
        <time>2021-05-29T11:11:48.435Z</time>
      </trkpt>
      <trkpt lat="46.65046" lon="5.53166">
        <ele>258</ele>
        <time>2021-05-29T11:11:49.435Z</time>
      </trkpt>
      <trkpt lat="46.65045" lon="5.53169">
        <ele>258</ele>
        <time>2021-05-29T11:11:50.436Z</time>
      </trkpt>
      <trkpt lat="46.65043" lon="5.53172">
        <ele>258</ele>
        <time>2021-05-29T11:11:51.436Z</time>
      </trkpt>
      <trkpt lat="46.65042" lon="5.53175">
        <ele>259</ele>
        <time>2021-05-29T11:11:52.435Z</time>
      </trkpt>
      <trkpt lat="46.65041" lon="5.53178">
        <ele>259</ele>
        <time>2021-05-29T11:11:53.435Z</time>
      </trkpt>
      <trkpt lat="46.6504" lon="5.53181">
        <ele>259</ele>
        <time>2021-05-29T11:11:54.435Z</time>
      </trkpt>
      <trkpt lat="46.65039" lon="5.53183">
        <ele>260</ele>
        <time>2021-05-29T11:11:55.436Z</time>
      </trkpt>
      <trkpt lat="46.65037" lon="5.53186">
        <ele>260</ele>
        <time>2021-05-29T11:11:56.435Z</time>
      </trkpt>
      <trkpt lat="46.65036" lon="5.53189">
        <ele>260</ele>
        <time>2021-05-29T11:11:57.435Z</time>
      </trkpt>
      <trkpt lat="46.65035" lon="5.53192">
        <ele>260</ele>
        <time>2021-05-29T11:12:41.690Z</time>
      </trkpt>
      <trkpt lat="46.65034" lon="5.53195">
        <ele>260</ele>
        <time>2021-05-29T11:12:42.690Z</time>
      </trkpt>
      <trkpt lat="46.65032" lon="5.53198">
        <ele>260</ele>
        <time>2021-05-29T11:12:43.691Z</time>
      </trkpt>
      <trkpt lat="46.65032" lon="5.53201">
        <ele>260</ele>
        <time>2021-05-29T11:12:44.690Z</time>
      </trkpt>
      <trkpt lat="46.6503" lon="5.53204">
        <ele>260</ele>
        <time>2021-05-29T11:12:45.690Z</time>
      </trkpt>
      <trkpt lat="46.65029" lon="5.53207">
        <ele>259</ele>
        <time>2021-05-29T11:12:46.690Z</time>
      </trkpt>
      <trkpt lat="46.65028" lon="5.53211">
        <ele>259</ele>
        <time>2021-05-29T11:12:47.690Z</time>
      </trkpt>
      <trkpt lat="46.65027" lon="5.53214">
        <ele>259</ele>
        <time>2021-05-29T11:12:48.691Z</time>
      </trkpt>
      <trkpt lat="46.65025" lon="5.53216">
        <ele>259</ele>
        <time>2021-05-29T11:12:49.691Z</time>
      </trkpt>
      <trkpt lat="46.65024" lon="5.53219">
        <ele>259</ele>
        <time>2021-05-29T11:12:50.690Z</time>
      </trkpt>
      <trkpt lat="46.65023" lon="5.53222">
        <ele>259</ele>
        <time>2021-05-29T11:12:51.690Z</time>
      </trkpt>
      <trkpt lat="46.65022" lon="5.53225">
        <ele>258</ele>
        <time>2021-05-29T11:12:52.690Z</time>
      </trkpt>
      <trkpt lat="46.6502" lon="5.53228">
        <ele>258</ele>
        <time>2021-05-29T11:12:53.691Z</time>
      </trkpt>
      <trkpt lat="46.65019" lon="5.53231">
        <ele>258</ele>
        <time>2021-05-29T11:12:54.691Z</time>
      </trkpt>
      <trkpt lat="46.65018" lon="5.53234">
        <ele>258</ele>
        <time>2021-05-29T11:12:55.690Z</time>
      </trkpt>
      <trkpt lat="46.65017" lon="5.53236">
        <ele>258</ele>
        <time>2021-05-29T11:12:56.690Z</time>
      </trkpt>
      <trkpt lat="46.65016" lon="5.53239">
        <ele>258</ele>
        <time>2021-05-29T11:12:57.691Z</time>
      </trkpt>
      <trkpt lat="46.65015" lon="5.53242">
        <ele>258</ele>
        <time>2021-05-29T11:12:58.690Z</time>
      </trkpt>
      <trkpt lat="46.65013" lon="5.53244">
        <ele>258</ele>
        <time>2021-05-29T11:12:59.690Z</time>
      </trkpt>
      <trkpt lat="46.65012" lon="5.53247">
        <ele>258</ele>
        <time>2021-05-29T11:13:00.690Z</time>
      </trkpt>
      <trkpt lat="46.65011" lon="5.5325">
        <ele>258</ele>
        <time>2021-05-29T11:13:01.690Z</time>
      </trkpt>
      <trkpt lat="46.6501" lon="5.53253">
        <ele>259</ele>
        <time>2021-05-29T11:13:02.690Z</time>
      </trkpt>
      <trkpt lat="46.65009" lon="5.53256">
        <ele>259</ele>
        <time>2021-05-29T11:13:03.690Z</time>
      </trkpt>
      <trkpt lat="46.65008" lon="5.53259">
        <ele>259</ele>
        <time>2021-05-29T11:13:04.690Z</time>
      </trkpt>
      <trkpt lat="46.65007" lon="5.53261">
        <ele>259</ele>
        <time>2021-05-29T11:13:05.691Z</time>
      </trkpt>
      <trkpt lat="46.65006" lon="5.53264">
        <ele>259</ele>
        <time>2021-05-29T11:13:06.690Z</time>
      </trkpt>
      <trkpt lat="46.65005" lon="5.53267">
        <ele>258</ele>
        <time>2021-05-29T11:13:07.690Z</time>
      </trkpt>
      <trkpt lat="46.65003" lon="5.5327">
        <ele>258</ele>
        <time>2021-05-29T11:13:08.690Z</time>
      </trkpt>
      <trkpt lat="46.65002" lon="5.53273">
        <ele>258</ele>
        <time>2021-05-29T11:13:09.690Z</time>
      </trkpt>
      <trkpt lat="46.65001" lon="5.53276">
        <ele>258</ele>
        <time>2021-05-29T11:13:10.690Z</time>
      </trkpt>
      <trkpt lat="46.65" lon="5.53279">
        <ele>258</ele>
        <time>2021-05-29T11:13:11.690Z</time>
      </trkpt>
      <trkpt lat="46.64998" lon="5.53281">
        <ele>258</ele>
        <time>2021-05-29T11:13:12.691Z</time>
      </trkpt>
      <trkpt lat="46.64997" lon="5.53284">
        <ele>259</ele>
        <time>2021-05-29T11:13:13.690Z</time>
      </trkpt>
      <trkpt lat="46.64995" lon="5.53287">
        <ele>259</ele>
        <time>2021-05-29T11:13:14.691Z</time>
      </trkpt>
      <trkpt lat="46.64993" lon="5.53289">
        <ele>259</ele>
        <time>2021-05-29T11:13:15.690Z</time>
      </trkpt>
      <trkpt lat="46.64992" lon="5.53292">
        <ele>260</ele>
        <time>2021-05-29T11:14:38.620Z</time>
      </trkpt>
      <trkpt lat="46.64991" lon="5.53295">
        <ele>260</ele>
        <time>2021-05-29T11:14:39.620Z</time>
      </trkpt>
      <trkpt lat="46.64989" lon="5.53298">
        <ele>260</ele>
        <time>2021-05-29T11:14:40.620Z</time>
      </trkpt>
      <trkpt lat="46.64988" lon="5.533">
        <ele>260</ele>
        <time>2021-05-29T11:14:41.619Z</time>
      </trkpt>
      <trkpt lat="46.64987" lon="5.53303">
        <ele>260</ele>
        <time>2021-05-29T11:14:42.620Z</time>
      </trkpt>
      <trkpt lat="46.64985" lon="5.53306">
        <ele>260</ele>
        <time>2021-05-29T11:14:43.619Z</time>
      </trkpt>
      <trkpt lat="46.64984" lon="5.53309">
        <ele>260</ele>
        <time>2021-05-29T11:14:44.619Z</time>
      </trkpt>
      <trkpt lat="46.64983" lon="5.53311">
        <ele>260</ele>
        <time>2021-05-29T11:14:45.619Z</time>
      </trkpt>
      <trkpt lat="46.64981" lon="5.53313">
        <ele>260</ele>
        <time>2021-05-29T11:14:46.620Z</time>
      </trkpt>
      <trkpt lat="46.6498" lon="5.53316">
        <ele>260</ele>
        <time>2021-05-29T11:14:47.620Z</time>
      </trkpt>
      <trkpt lat="46.64979" lon="5.53318">
        <ele>260</ele>
        <time>2021-05-29T11:14:48.620Z</time>
      </trkpt>
      <trkpt lat="46.64977" lon="5.53321">
        <ele>260</ele>
        <time>2021-05-29T11:14:49.620Z</time>
      </trkpt>
      <trkpt lat="46.64976" lon="5.53323">
        <ele>260</ele>
        <time>2021-05-29T11:14:50.619Z</time>
      </trkpt>
      <trkpt lat="46.64974" lon="5.53326">
        <ele>260</ele>
        <time>2021-05-29T11:14:51.620Z</time>
      </trkpt>
      <trkpt lat="46.64973" lon="5.53329">
        <ele>260</ele>
        <time>2021-05-29T11:14:52.620Z</time>
      </trkpt>
      <trkpt lat="46.64972" lon="5.53332">
        <ele>260</ele>
        <time>2021-05-29T11:14:53.619Z</time>
      </trkpt>
      <trkpt lat="46.6497" lon="5.53334">
        <ele>261</ele>
        <time>2021-05-29T11:14:54.620Z</time>
      </trkpt>
      <trkpt lat="46.64969" lon="5.53338">
        <ele>261</ele>
        <time>2021-05-29T11:14:55.620Z</time>
      </trkpt>
      <trkpt lat="46.64967" lon="5.53341">
        <ele>261</ele>
        <time>2021-05-29T11:14:56.620Z</time>
      </trkpt>
      <trkpt lat="46.64966" lon="5.53344">
        <ele>261</ele>
        <time>2021-05-29T11:14:57.619Z</time>
      </trkpt>
      <trkpt lat="46.64965" lon="5.53346">
        <ele>261</ele>
        <time>2021-05-29T11:14:58.620Z</time>
      </trkpt>
      <trkpt lat="46.64964" lon="5.53349">
        <ele>261</ele>
        <time>2021-05-29T11:14:59.620Z</time>
      </trkpt>
      <trkpt lat="46.64962" lon="5.53352">
        <ele>261</ele>
        <time>2021-05-29T11:15:00.620Z</time>
      </trkpt>
      <trkpt lat="46.64961" lon="5.53355">
        <ele>260</ele>
        <time>2021-05-29T11:15:01.619Z</time>
      </trkpt>
      <trkpt lat="46.64959" lon="5.53358">
        <ele>260</ele>
        <time>2021-05-29T11:15:02.620Z</time>
      </trkpt>
      <trkpt lat="46.64958" lon="5.53361">
        <ele>260</ele>
        <time>2021-05-29T11:15:03.619Z</time>
      </trkpt>
      <trkpt lat="46.64957" lon="5.53363">
        <ele>260</ele>
        <time>2021-05-29T11:15:04.620Z</time>
      </trkpt>
      <trkpt lat="46.64956" lon="5.53366">
        <ele>260</ele>
        <time>2021-05-29T11:15:05.620Z</time>
      </trkpt>
      <trkpt lat="46.64955" lon="5.53369">
        <ele>261</ele>
        <time>2021-05-29T11:15:06.620Z</time>
      </trkpt>
      <trkpt lat="46.64954" lon="5.53372">
        <ele>261</ele>
        <time>2021-05-29T11:15:07.620Z</time>
      </trkpt>
      <trkpt lat="46.64952" lon="5.53374">
        <ele>261</ele>
        <time>2021-05-29T11:15:08.619Z</time>
      </trkpt>
      <trkpt lat="46.64951" lon="5.53377">
        <ele>261</ele>
        <time>2021-05-29T11:15:09.620Z</time>
      </trkpt>
      <trkpt lat="46.6495" lon="5.5338">
        <ele>261</ele>
        <time>2021-05-29T11:15:10.619Z</time>
      </trkpt>
      <trkpt lat="46.64948" lon="5.53383">
        <ele>261</ele>
        <time>2021-05-29T11:15:11.620Z</time>
      </trkpt>
      <trkpt lat="46.64947" lon="5.53386">
        <ele>262</ele>
        <time>2021-05-29T11:15:12.619Z</time>
      </trkpt>
      <trkpt lat="46.64946" lon="5.53389">
        <ele>262</ele>
        <time>2021-05-29T11:15:13.620Z</time>
      </trkpt>
      <trkpt lat="46.64944" lon="5.53392">
        <ele>262</ele>
        <time>2021-05-29T11:15:14.620Z</time>
      </trkpt>
      <trkpt lat="46.64943" lon="5.53394">
        <ele>262</ele>
        <time>2021-05-29T11:15:15.619Z</time>
      </trkpt>
      <trkpt lat="46.64942" lon="5.53397">
        <ele>262</ele>
        <time>2021-05-29T11:15:16.620Z</time>
      </trkpt>
      <trkpt lat="46.6494" lon="5.534">
        <ele>262</ele>
        <time>2021-05-29T11:15:17.620Z</time>
      </trkpt>
      <trkpt lat="46.64939" lon="5.53403">
        <ele>262</ele>
        <time>2021-05-29T11:15:18.620Z</time>
      </trkpt>
      <trkpt lat="46.64938" lon="5.53406">
        <ele>262</ele>
        <time>2021-05-29T11:15:19.619Z</time>
      </trkpt>
      <trkpt lat="46.64937" lon="5.53409">
        <ele>263</ele>
        <time>2021-05-29T11:15:20.620Z</time>
      </trkpt>
      <trkpt lat="46.64936" lon="5.53412">
        <ele>263</ele>
        <time>2021-05-29T11:15:21.620Z</time>
      </trkpt>
      <trkpt lat="46.64934" lon="5.53415">
        <ele>263</ele>
        <time>2021-05-29T11:15:22.620Z</time>
      </trkpt>
      <trkpt lat="46.64933" lon="5.53418">
        <ele>263</ele>
        <time>2021-05-29T11:15:23.620Z</time>
      </trkpt>
      <trkpt lat="46.64932" lon="5.53421">
        <ele>264</ele>
        <time>2021-05-29T11:15:24.620Z</time>
      </trkpt>
      <trkpt lat="46.64931" lon="5.53424">
        <ele>264</ele>
        <time>2021-05-29T11:15:25.620Z</time>
      </trkpt>
      <trkpt lat="46.6493" lon="5.53426">
        <ele>264</ele>
        <time>2021-05-29T11:15:26.620Z</time>
      </trkpt>
      <trkpt lat="46.64928" lon="5.53429">
        <ele>264</ele>
        <time>2021-05-29T11:15:27.619Z</time>
      </trkpt>
      <trkpt lat="46.64927" lon="5.53432">
        <ele>264</ele>
        <time>2021-05-29T11:15:28.619Z</time>
      </trkpt>
      <trkpt lat="46.64926" lon="5.53434">
        <ele>264</ele>
        <time>2021-05-29T11:15:29.620Z</time>
      </trkpt>
      <trkpt lat="46.64925" lon="5.53437">
        <ele>264</ele>
        <time>2021-05-29T11:15:30.619Z</time>
      </trkpt>
      <trkpt lat="46.64924" lon="5.5344">
        <ele>263</ele>
        <time>2021-05-29T11:15:31.620Z</time>
      </trkpt>
      <trkpt lat="46.64922" lon="5.53442">
        <ele>263</ele>
        <time>2021-05-29T11:15:32.619Z</time>
      </trkpt>
      <trkpt lat="46.64922" lon="5.53445">
        <ele>263</ele>
        <time>2021-05-29T11:15:33.619Z</time>
      </trkpt>
      <trkpt lat="46.6492" lon="5.53448">
        <ele>263</ele>
        <time>2021-05-29T11:15:34.619Z</time>
      </trkpt>
      <trkpt lat="46.6492" lon="5.53451">
        <ele>263</ele>
        <time>2021-05-29T11:15:35.619Z</time>
      </trkpt>
      <trkpt lat="46.64918" lon="5.53454">
        <ele>263</ele>
        <time>2021-05-29T11:15:36.619Z</time>
      </trkpt>
      <trkpt lat="46.64917" lon="5.53457">
        <ele>263</ele>
        <time>2021-05-29T11:15:37.619Z</time>
      </trkpt>
      <trkpt lat="46.64916" lon="5.5346">
        <ele>263</ele>
        <time>2021-05-29T11:15:38.619Z</time>
      </trkpt>
      <trkpt lat="46.64914" lon="5.53462">
        <ele>262</ele>
        <time>2021-05-29T11:15:39.620Z</time>
      </trkpt>
      <trkpt lat="46.64913" lon="5.53465">
        <ele>263</ele>
        <time>2021-05-29T11:15:40.620Z</time>
      </trkpt>
      <trkpt lat="46.64912" lon="5.53468">
        <ele>263</ele>
        <time>2021-05-29T11:15:41.620Z</time>
      </trkpt>
      <trkpt lat="46.64911" lon="5.53471">
        <ele>263</ele>
        <time>2021-05-29T11:15:42.620Z</time>
      </trkpt>
      <trkpt lat="46.6491" lon="5.53474">
        <ele>263</ele>
        <time>2021-05-29T11:15:43.619Z</time>
      </trkpt>
      <trkpt lat="46.64908" lon="5.53476">
        <ele>263</ele>
        <time>2021-05-29T11:15:44.619Z</time>
      </trkpt>
      <trkpt lat="46.64907" lon="5.53479">
        <ele>263</ele>
        <time>2021-05-29T11:15:45.619Z</time>
      </trkpt>
      <trkpt lat="46.64906" lon="5.53482">
        <ele>263</ele>
        <time>2021-05-29T11:15:46.619Z</time>
      </trkpt>
      <trkpt lat="46.64905" lon="5.53484">
        <ele>263</ele>
        <time>2021-05-29T11:15:47.619Z</time>
      </trkpt>
      <trkpt lat="46.64903" lon="5.53487">
        <ele>263</ele>
        <time>2021-05-29T11:15:48.619Z</time>
      </trkpt>
      <trkpt lat="46.64902" lon="5.5349">
        <ele>263</ele>
        <time>2021-05-29T11:15:49.619Z</time>
      </trkpt>
      <trkpt lat="46.64901" lon="5.53493">
        <ele>263</ele>
        <time>2021-05-29T11:15:50.619Z</time>
      </trkpt>
      <trkpt lat="46.649" lon="5.53496">
        <ele>263</ele>
        <time>2021-05-29T11:15:51.619Z</time>
      </trkpt>
      <trkpt lat="46.64898" lon="5.53498">
        <ele>263</ele>
        <time>2021-05-29T11:15:52.619Z</time>
      </trkpt>
      <trkpt lat="46.64897" lon="5.53501">
        <ele>263</ele>
        <time>2021-05-29T11:15:53.619Z</time>
      </trkpt>
      <trkpt lat="46.64896" lon="5.53504">
        <ele>263</ele>
        <time>2021-05-29T11:15:54.620Z</time>
      </trkpt>
      <trkpt lat="46.64895" lon="5.53506">
        <ele>263</ele>
        <time>2021-05-29T11:15:55.619Z</time>
      </trkpt>
      <trkpt lat="46.64894" lon="5.53509">
        <ele>263</ele>
        <time>2021-05-29T11:15:56.619Z</time>
      </trkpt>
      <trkpt lat="46.64893" lon="5.53512">
        <ele>263</ele>
        <time>2021-05-29T11:15:57.619Z</time>
      </trkpt>
      <trkpt lat="46.64892" lon="5.53515">
        <ele>264</ele>
        <time>2021-05-29T11:15:58.619Z</time>
      </trkpt>
      <trkpt lat="46.6489" lon="5.53517">
        <ele>264</ele>
        <time>2021-05-29T11:15:59.619Z</time>
      </trkpt>
      <trkpt lat="46.64889" lon="5.53519">
        <ele>264</ele>
        <time>2021-05-29T11:16:00.620Z</time>
      </trkpt>
      <trkpt lat="46.64888" lon="5.53522">
        <ele>263</ele>
        <time>2021-05-29T11:16:01.620Z</time>
      </trkpt>
      <trkpt lat="46.64887" lon="5.53525">
        <ele>264</ele>
        <time>2021-05-29T11:16:02.619Z</time>
      </trkpt>
      <trkpt lat="46.64886" lon="5.53528">
        <ele>264</ele>
        <time>2021-05-29T11:16:03.619Z</time>
      </trkpt>
      <trkpt lat="46.64885" lon="5.5353">
        <ele>264</ele>
        <time>2021-05-29T11:16:04.620Z</time>
      </trkpt>
      <trkpt lat="46.64884" lon="5.53533">
        <ele>264</ele>
        <time>2021-05-29T11:16:05.620Z</time>
      </trkpt>
      <trkpt lat="46.64883" lon="5.53536">
        <ele>264</ele>
        <time>2021-05-29T11:16:06.620Z</time>
      </trkpt>
      <trkpt lat="46.64881" lon="5.53539">
        <ele>264</ele>
        <time>2021-05-29T11:16:07.620Z</time>
      </trkpt>
      <trkpt lat="46.6488" lon="5.53542">
        <ele>265</ele>
        <time>2021-05-29T11:16:08.620Z</time>
      </trkpt>
      <trkpt lat="46.64879" lon="5.53545">
        <ele>265</ele>
        <time>2021-05-29T11:16:09.620Z</time>
      </trkpt>
      <trkpt lat="46.64877" lon="5.53547">
        <ele>265</ele>
        <time>2021-05-29T11:16:10.620Z</time>
      </trkpt>
      <trkpt lat="46.64876" lon="5.53551">
        <ele>265</ele>
        <time>2021-05-29T11:16:11.619Z</time>
      </trkpt>
      <trkpt lat="46.64875" lon="5.53554">
        <ele>265</ele>
        <time>2021-05-29T11:16:12.619Z</time>
      </trkpt>
      <trkpt lat="46.64874" lon="5.53557">
        <ele>264</ele>
        <time>2021-05-29T11:16:13.620Z</time>
      </trkpt>
      <trkpt lat="46.64872" lon="5.5356">
        <ele>264</ele>
        <time>2021-05-29T11:16:14.619Z</time>
      </trkpt>
      <trkpt lat="46.64871" lon="5.53564">
        <ele>264</ele>
        <time>2021-05-29T11:16:15.620Z</time>
      </trkpt>
      <trkpt lat="46.6487" lon="5.53567">
        <ele>264</ele>
        <time>2021-05-29T11:16:16.619Z</time>
      </trkpt>
      <trkpt lat="46.64869" lon="5.53571">
        <ele>264</ele>
        <time>2021-05-29T11:16:17.620Z</time>
      </trkpt>
      <trkpt lat="46.64868" lon="5.53574">
        <ele>264</ele>
        <time>2021-05-29T11:16:18.619Z</time>
      </trkpt>
      <trkpt lat="46.64866" lon="5.53577">
        <ele>264</ele>
        <time>2021-05-29T11:16:19.620Z</time>
      </trkpt>
      <trkpt lat="46.64865" lon="5.53581">
        <ele>264</ele>
        <time>2021-05-29T11:16:20.619Z</time>
      </trkpt>
      <trkpt lat="46.64864" lon="5.53584">
        <ele>265</ele>
        <time>2021-05-29T11:16:21.619Z</time>
      </trkpt>
      <trkpt lat="46.64863" lon="5.53588">
        <ele>265</ele>
        <time>2021-05-29T11:16:22.620Z</time>
      </trkpt>
      <trkpt lat="46.64862" lon="5.53592">
        <ele>265</ele>
        <time>2021-05-29T11:16:23.619Z</time>
      </trkpt>
      <trkpt lat="46.64861" lon="5.53595">
        <ele>265</ele>
        <time>2021-05-29T11:16:24.619Z</time>
      </trkpt>
      <trkpt lat="46.6486" lon="5.53598">
        <ele>265</ele>
        <time>2021-05-29T11:16:25.620Z</time>
      </trkpt>
      <trkpt lat="46.64859" lon="5.53601">
        <ele>265</ele>
        <time>2021-05-29T11:16:26.619Z</time>
      </trkpt>
      <trkpt lat="46.64858" lon="5.53604">
        <ele>264</ele>
        <time>2021-05-29T11:16:27.619Z</time>
      </trkpt>
      <trkpt lat="46.64857" lon="5.53607">
        <ele>264</ele>
        <time>2021-05-29T11:16:28.620Z</time>
      </trkpt>
      <trkpt lat="46.64855" lon="5.53611">
        <ele>264</ele>
        <time>2021-05-29T11:16:29.620Z</time>
      </trkpt>
      <trkpt lat="46.64854" lon="5.53614">
        <ele>264</ele>
        <time>2021-05-29T11:16:30.619Z</time>
      </trkpt>
      <trkpt lat="46.64853" lon="5.53617">
        <ele>264</ele>
        <time>2021-05-29T11:16:31.619Z</time>
      </trkpt>
      <trkpt lat="46.64852" lon="5.5362">
        <ele>264</ele>
        <time>2021-05-29T11:16:32.619Z</time>
      </trkpt>
      <trkpt lat="46.64851" lon="5.53623">
        <ele>264</ele>
        <time>2021-05-29T11:16:33.620Z</time>
      </trkpt>
      <trkpt lat="46.6485" lon="5.53626">
        <ele>265</ele>
        <time>2021-05-29T11:16:34.619Z</time>
      </trkpt>
      <trkpt lat="46.64849" lon="5.5363">
        <ele>265</ele>
        <time>2021-05-29T11:16:35.619Z</time>
      </trkpt>
      <trkpt lat="46.64847" lon="5.53633">
        <ele>265</ele>
        <time>2021-05-29T11:16:36.620Z</time>
      </trkpt>
      <trkpt lat="46.64846" lon="5.53636">
        <ele>265</ele>
        <time>2021-05-29T11:16:37.620Z</time>
      </trkpt>
      <trkpt lat="46.64845" lon="5.53639">
        <ele>265</ele>
        <time>2021-05-29T11:16:38.620Z</time>
      </trkpt>
      <trkpt lat="46.64844" lon="5.53643">
        <ele>265</ele>
        <time>2021-05-29T11:16:39.619Z</time>
      </trkpt>
      <trkpt lat="46.64842" lon="5.53646">
        <ele>265</ele>
        <time>2021-05-29T11:16:40.619Z</time>
      </trkpt>
      <trkpt lat="46.64841" lon="5.53649">
        <ele>265</ele>
        <time>2021-05-29T11:16:41.619Z</time>
      </trkpt>
      <trkpt lat="46.6484" lon="5.53652">
        <ele>265</ele>
        <time>2021-05-29T11:16:42.620Z</time>
      </trkpt>
      <trkpt lat="46.64838" lon="5.53655">
        <ele>265</ele>
        <time>2021-05-29T11:16:43.620Z</time>
      </trkpt>
      <trkpt lat="46.64837" lon="5.53658">
        <ele>265</ele>
        <time>2021-05-29T11:16:44.620Z</time>
      </trkpt>
      <trkpt lat="46.64836" lon="5.53662">
        <ele>265</ele>
        <time>2021-05-29T11:16:45.619Z</time>
      </trkpt>
      <trkpt lat="46.64835" lon="5.53665">
        <ele>264</ele>
        <time>2021-05-29T11:16:46.619Z</time>
      </trkpt>
      <trkpt lat="46.64834" lon="5.53668">
        <ele>265</ele>
        <time>2021-05-29T11:16:47.619Z</time>
      </trkpt>
      <trkpt lat="46.64832" lon="5.53671">
        <ele>265</ele>
        <time>2021-05-29T11:16:48.620Z</time>
      </trkpt>
      <trkpt lat="46.64831" lon="5.53674">
        <ele>265</ele>
        <time>2021-05-29T11:16:49.620Z</time>
      </trkpt>
      <trkpt lat="46.64829" lon="5.53677">
        <ele>265</ele>
        <time>2021-05-29T11:16:50.620Z</time>
      </trkpt>
      <trkpt lat="46.64829" lon="5.53679">
        <ele>265</ele>
        <time>2021-05-29T11:16:51.619Z</time>
      </trkpt>
      <trkpt lat="46.64828" lon="5.53682">
        <ele>265</ele>
        <time>2021-05-29T11:16:52.620Z</time>
      </trkpt>
      <trkpt lat="46.64827" lon="5.53686">
        <ele>265</ele>
        <time>2021-05-29T11:16:53.619Z</time>
      </trkpt>
      <trkpt lat="46.64825" lon="5.53689">
        <ele>265</ele>
        <time>2021-05-29T11:16:54.620Z</time>
      </trkpt>
      <trkpt lat="46.64824" lon="5.53693">
        <ele>265</ele>
        <time>2021-05-29T11:16:55.619Z</time>
      </trkpt>
      <trkpt lat="46.64823" lon="5.53696">
        <ele>265</ele>
        <time>2021-05-29T11:16:56.619Z</time>
      </trkpt>
      <trkpt lat="46.64822" lon="5.537">
        <ele>265</ele>
        <time>2021-05-29T11:16:57.619Z</time>
      </trkpt>
      <trkpt lat="46.64821" lon="5.53704">
        <ele>265</ele>
        <time>2021-05-29T11:16:58.619Z</time>
      </trkpt>
      <trkpt lat="46.6482" lon="5.53707">
        <ele>265</ele>
        <time>2021-05-29T11:16:59.619Z</time>
      </trkpt>
      <trkpt lat="46.64819" lon="5.5371">
        <ele>265</ele>
        <time>2021-05-29T11:17:00.620Z</time>
      </trkpt>
      <trkpt lat="46.64818" lon="5.53713">
        <ele>265</ele>
        <time>2021-05-29T11:17:01.620Z</time>
      </trkpt>
      <trkpt lat="46.64817" lon="5.53715">
        <ele>265</ele>
        <time>2021-05-29T11:17:02.619Z</time>
      </trkpt>
      <trkpt lat="46.64816" lon="5.53718">
        <ele>265</ele>
        <time>2021-05-29T11:17:03.619Z</time>
      </trkpt>
      <trkpt lat="46.64815" lon="5.53721">
        <ele>265</ele>
        <time>2021-05-29T11:17:04.620Z</time>
      </trkpt>
      <trkpt lat="46.64814" lon="5.53724">
        <ele>265</ele>
        <time>2021-05-29T11:17:05.619Z</time>
      </trkpt>
      <trkpt lat="46.64813" lon="5.53727">
        <ele>265</ele>
        <time>2021-05-29T11:17:06.620Z</time>
      </trkpt>
      <trkpt lat="46.64812" lon="5.5373">
        <ele>265</ele>
        <time>2021-05-29T11:17:07.619Z</time>
      </trkpt>
      <trkpt lat="46.64811" lon="5.53734">
        <ele>265</ele>
        <time>2021-05-29T11:17:08.620Z</time>
      </trkpt>
      <trkpt lat="46.6481" lon="5.53737">
        <ele>265</ele>
        <time>2021-05-29T11:17:09.620Z</time>
      </trkpt>
      <trkpt lat="46.64809" lon="5.53739">
        <ele>265</ele>
        <time>2021-05-29T11:17:10.619Z</time>
      </trkpt>
      <trkpt lat="46.64807" lon="5.53742">
        <ele>266</ele>
        <time>2021-05-29T11:17:11.619Z</time>
      </trkpt>
      <trkpt lat="46.64806" lon="5.53745">
        <ele>266</ele>
        <time>2021-05-29T11:17:12.620Z</time>
      </trkpt>
      <trkpt lat="46.64805" lon="5.53748">
        <ele>266</ele>
        <time>2021-05-29T11:17:13.619Z</time>
      </trkpt>
      <trkpt lat="46.64804" lon="5.53751">
        <ele>266</ele>
        <time>2021-05-29T11:17:14.619Z</time>
      </trkpt>
      <trkpt lat="46.64803" lon="5.53754">
        <ele>266</ele>
        <time>2021-05-29T11:17:15.620Z</time>
      </trkpt>
      <trkpt lat="46.64802" lon="5.53757">
        <ele>266</ele>
        <time>2021-05-29T11:17:16.619Z</time>
      </trkpt>
      <trkpt lat="46.64801" lon="5.5376">
        <ele>266</ele>
        <time>2021-05-29T11:17:17.619Z</time>
      </trkpt>
      <trkpt lat="46.648" lon="5.53764">
        <ele>266</ele>
        <time>2021-05-29T11:17:18.620Z</time>
      </trkpt>
      <trkpt lat="46.64799" lon="5.53767">
        <ele>267</ele>
        <time>2021-05-29T11:17:19.619Z</time>
      </trkpt>
      <trkpt lat="46.64797" lon="5.5377">
        <ele>267</ele>
        <time>2021-05-29T11:17:20.619Z</time>
      </trkpt>
      <trkpt lat="46.64796" lon="5.53774">
        <ele>267</ele>
        <time>2021-05-29T11:17:21.619Z</time>
      </trkpt>
      <trkpt lat="46.64795" lon="5.53777">
        <ele>267</ele>
        <time>2021-05-29T11:17:22.620Z</time>
      </trkpt>
      <trkpt lat="46.64794" lon="5.5378">
        <ele>267</ele>
        <time>2021-05-29T11:17:23.620Z</time>
      </trkpt>
      <trkpt lat="46.64792" lon="5.53783">
        <ele>267</ele>
        <time>2021-05-29T11:17:24.620Z</time>
      </trkpt>
      <trkpt lat="46.64791" lon="5.53786">
        <ele>268</ele>
        <time>2021-05-29T11:17:25.620Z</time>
      </trkpt>
      <trkpt lat="46.6479" lon="5.53789">
        <ele>268</ele>
        <time>2021-05-29T11:17:26.620Z</time>
      </trkpt>
      <trkpt lat="46.64789" lon="5.53792">
        <ele>268</ele>
        <time>2021-05-29T11:17:27.619Z</time>
      </trkpt>
      <trkpt lat="46.64788" lon="5.53795">
        <ele>269</ele>
        <time>2021-05-29T11:17:28.619Z</time>
      </trkpt>
      <trkpt lat="46.64787" lon="5.53798">
        <ele>268</ele>
        <time>2021-05-29T11:17:29.619Z</time>
      </trkpt>
      <trkpt lat="46.64786" lon="5.53801">
        <ele>268</ele>
        <time>2021-05-29T11:17:30.619Z</time>
      </trkpt>
      <trkpt lat="46.64784" lon="5.53804">
        <ele>268</ele>
        <time>2021-05-29T11:17:31.620Z</time>
      </trkpt>
      <trkpt lat="46.64783" lon="5.53807">
        <ele>268</ele>
        <time>2021-05-29T11:17:32.619Z</time>
      </trkpt>
      <trkpt lat="46.64782" lon="5.5381">
        <ele>268</ele>
        <time>2021-05-29T11:17:33.620Z</time>
      </trkpt>
      <trkpt lat="46.64781" lon="5.53813">
        <ele>268</ele>
        <time>2021-05-29T11:17:34.619Z</time>
      </trkpt>
      <trkpt lat="46.64779" lon="5.53816">
        <ele>267</ele>
        <time>2021-05-29T11:17:35.620Z</time>
      </trkpt>
      <trkpt lat="46.64778" lon="5.53819">
        <ele>267</ele>
        <time>2021-05-29T11:17:36.619Z</time>
      </trkpt>
      <trkpt lat="46.64776" lon="5.53821">
        <ele>267</ele>
        <time>2021-05-29T11:17:37.619Z</time>
      </trkpt>
      <trkpt lat="46.64775" lon="5.53824">
        <ele>267</ele>
        <time>2021-05-29T11:17:38.619Z</time>
      </trkpt>
      <trkpt lat="46.64773" lon="5.53827">
        <ele>267</ele>
        <time>2021-05-29T11:17:39.620Z</time>
      </trkpt>
      <trkpt lat="46.64771" lon="5.5383">
        <ele>268</ele>
        <time>2021-05-29T11:17:40.620Z</time>
      </trkpt>
      <trkpt lat="46.6477" lon="5.53832">
        <ele>268</ele>
        <time>2021-05-29T11:17:41.619Z</time>
      </trkpt>
      <trkpt lat="46.64768" lon="5.53835">
        <ele>268</ele>
        <time>2021-05-29T11:17:42.619Z</time>
      </trkpt>
      <trkpt lat="46.64767" lon="5.53838">
        <ele>268</ele>
        <time>2021-05-29T11:17:43.620Z</time>
      </trkpt>
      <trkpt lat="46.64766" lon="5.5384">
        <ele>268</ele>
        <time>2021-05-29T11:17:44.619Z</time>
      </trkpt>
      <trkpt lat="46.64764" lon="5.53843">
        <ele>268</ele>
        <time>2021-05-29T11:17:45.620Z</time>
      </trkpt>
      <trkpt lat="46.64763" lon="5.53845">
        <ele>268</ele>
        <time>2021-05-29T11:17:46.620Z</time>
      </trkpt>
      <trkpt lat="46.64762" lon="5.53848">
        <ele>268</ele>
        <time>2021-05-29T11:17:47.620Z</time>
      </trkpt>
      <trkpt lat="46.6476" lon="5.53851">
        <ele>269</ele>
        <time>2021-05-29T11:17:48.619Z</time>
      </trkpt>
      <trkpt lat="46.64758" lon="5.53854">
        <ele>269</ele>
        <time>2021-05-29T11:17:49.620Z</time>
      </trkpt>
      <trkpt lat="46.64757" lon="5.53857">
        <ele>270</ele>
        <time>2021-05-29T11:17:50.619Z</time>
      </trkpt>
      <trkpt lat="46.64755" lon="5.53859">
        <ele>270</ele>
        <time>2021-05-29T11:17:51.619Z</time>
      </trkpt>
      <trkpt lat="46.64753" lon="5.53861">
        <ele>270</ele>
        <time>2021-05-29T11:17:52.620Z</time>
      </trkpt>
      <trkpt lat="46.64751" lon="5.53863">
        <ele>270</ele>
        <time>2021-05-29T11:17:53.619Z</time>
      </trkpt>
      <trkpt lat="46.64749" lon="5.53865">
        <ele>270</ele>
        <time>2021-05-29T11:17:54.619Z</time>
      </trkpt>
      <trkpt lat="46.64747" lon="5.53867">
        <ele>270</ele>
        <time>2021-05-29T11:17:55.619Z</time>
      </trkpt>
      <trkpt lat="46.64745" lon="5.53869">
        <ele>271</ele>
        <time>2021-05-29T11:17:56.619Z</time>
      </trkpt>
      <trkpt lat="46.64743" lon="5.5387">
        <ele>271</ele>
        <time>2021-05-29T11:17:57.620Z</time>
      </trkpt>
      <trkpt lat="46.64741" lon="5.53872">
        <ele>271</ele>
        <time>2021-05-29T11:17:58.619Z</time>
      </trkpt>
      <trkpt lat="46.64738" lon="5.53874">
        <ele>271</ele>
        <time>2021-05-29T11:17:59.619Z</time>
      </trkpt>
      <trkpt lat="46.64736" lon="5.53876">
        <ele>271</ele>
        <time>2021-05-29T11:18:00.620Z</time>
      </trkpt>
      <trkpt lat="46.64733" lon="5.53877">
        <ele>271</ele>
        <time>2021-05-29T11:18:01.619Z</time>
      </trkpt>
      <trkpt lat="46.64731" lon="5.53878">
        <ele>271</ele>
        <time>2021-05-29T11:18:02.619Z</time>
      </trkpt>
      <trkpt lat="46.64729" lon="5.5388">
        <ele>271</ele>
        <time>2021-05-29T11:18:03.619Z</time>
      </trkpt>
      <trkpt lat="46.64727" lon="5.53881">
        <ele>271</ele>
        <time>2021-05-29T11:18:04.619Z</time>
      </trkpt>
      <trkpt lat="46.64725" lon="5.53882">
        <ele>271</ele>
        <time>2021-05-29T11:18:05.619Z</time>
      </trkpt>
      <trkpt lat="46.64722" lon="5.53882">
        <ele>271</ele>
        <time>2021-05-29T11:18:06.620Z</time>
      </trkpt>
      <trkpt lat="46.64721" lon="5.53883">
        <ele>271</ele>
        <time>2021-05-29T11:18:07.619Z</time>
      </trkpt>
      <trkpt lat="46.64719" lon="5.53884">
        <ele>271</ele>
        <time>2021-05-29T11:18:08.619Z</time>
      </trkpt>
      <trkpt lat="46.64717" lon="5.53885">
        <ele>271</ele>
        <time>2021-05-29T11:18:09.619Z</time>
      </trkpt>
      <trkpt lat="46.64714" lon="5.53886">
        <ele>271</ele>
        <time>2021-05-29T11:18:10.619Z</time>
      </trkpt>
      <trkpt lat="46.64712" lon="5.53887">
        <ele>271</ele>
        <time>2021-05-29T11:18:11.619Z</time>
      </trkpt>
      <trkpt lat="46.6471" lon="5.53888">
        <ele>271</ele>
        <time>2021-05-29T11:18:12.620Z</time>
      </trkpt>
      <trkpt lat="46.64708" lon="5.53888">
        <ele>271</ele>
        <time>2021-05-29T11:18:13.620Z</time>
      </trkpt>
      <trkpt lat="46.64706" lon="5.53889">
        <ele>271</ele>
        <time>2021-05-29T11:18:14.620Z</time>
      </trkpt>
      <trkpt lat="46.64704" lon="5.5389">
        <ele>271</ele>
        <time>2021-05-29T11:18:15.620Z</time>
      </trkpt>
      <trkpt lat="46.64702" lon="5.5389">
        <ele>271</ele>
        <time>2021-05-29T11:18:16.619Z</time>
      </trkpt>
      <trkpt lat="46.64701" lon="5.53891">
        <ele>271</ele>
        <time>2021-05-29T11:18:17.619Z</time>
      </trkpt>
      <trkpt lat="46.64699" lon="5.53892">
        <ele>271</ele>
        <time>2021-05-29T11:18:18.619Z</time>
      </trkpt>
      <trkpt lat="46.64697" lon="5.53893">
        <ele>270</ele>
        <time>2021-05-29T11:18:19.620Z</time>
      </trkpt>
      <trkpt lat="46.64695" lon="5.53894">
        <ele>270</ele>
        <time>2021-05-29T11:18:20.619Z</time>
      </trkpt>
      <trkpt lat="46.64693" lon="5.53895">
        <ele>270</ele>
        <time>2021-05-29T11:18:21.619Z</time>
      </trkpt>
      <trkpt lat="46.64692" lon="5.53897">
        <ele>270</ele>
        <time>2021-05-29T11:18:22.619Z</time>
      </trkpt>
      <trkpt lat="46.6469" lon="5.53898">
        <ele>270</ele>
        <time>2021-05-29T11:18:23.619Z</time>
      </trkpt>
      <trkpt lat="46.64688" lon="5.539">
        <ele>270</ele>
        <time>2021-05-29T11:18:24.619Z</time>
      </trkpt>
      <trkpt lat="46.64685" lon="5.53901">
        <ele>270</ele>
        <time>2021-05-29T11:18:25.619Z</time>
      </trkpt>
      <trkpt lat="46.64683" lon="5.53902">
        <ele>270</ele>
        <time>2021-05-29T11:18:26.619Z</time>
      </trkpt>
      <trkpt lat="46.6468" lon="5.53903">
        <ele>270</ele>
        <time>2021-05-29T11:18:27.619Z</time>
      </trkpt>
      <trkpt lat="46.64678" lon="5.53904">
        <ele>269</ele>
        <time>2021-05-29T11:18:28.620Z</time>
      </trkpt>
      <trkpt lat="46.64676" lon="5.53905">
        <ele>270</ele>
        <time>2021-05-29T11:18:29.620Z</time>
      </trkpt>
      <trkpt lat="46.64674" lon="5.53906">
        <ele>270</ele>
        <time>2021-05-29T11:18:30.619Z</time>
      </trkpt>
      <trkpt lat="46.64672" lon="5.53907">
        <ele>270</ele>
        <time>2021-05-29T11:18:31.619Z</time>
      </trkpt>
      <trkpt lat="46.6467" lon="5.53907">
        <ele>270</ele>
        <time>2021-05-29T11:18:32.620Z</time>
      </trkpt>
      <trkpt lat="46.64669" lon="5.53908">
        <ele>270</ele>
        <time>2021-05-29T11:18:33.619Z</time>
      </trkpt>
      <trkpt lat="46.64668" lon="5.53908">
        <ele>270</ele>
        <time>2021-05-29T11:18:34.620Z</time>
      </trkpt>
      <trkpt lat="46.64667" lon="5.53909">
        <ele>271</ele>
        <time>2021-05-29T11:18:35.619Z</time>
      </trkpt>
      <trkpt lat="46.64666" lon="5.5391">
        <ele>271</ele>
        <time>2021-05-29T11:18:36.620Z</time>
      </trkpt>
      <trkpt lat="46.64665" lon="5.5391">
        <ele>271</ele>
        <time>2021-05-29T11:18:37.619Z</time>
      </trkpt>
      <trkpt lat="46.64664" lon="5.5391">
        <ele>270</ele>
        <time>2021-05-29T11:18:38.619Z</time>
      </trkpt>
      <trkpt lat="46.64664" lon="5.53909">
        <ele>270</ele>
        <time>2021-05-29T11:18:39.620Z</time>
      </trkpt>
      <trkpt lat="46.64664" lon="5.53909">
        <ele>270</ele>
        <time>2021-05-29T11:18:40.619Z</time>
      </trkpt>
      <trkpt lat="46.64664" lon="5.53909">
        <ele>271</ele>
        <time>2021-05-29T11:18:41.619Z</time>
      </trkpt>
      <trkpt lat="46.64663" lon="5.53909">
        <ele>270</ele>
        <time>2021-05-29T11:18:42.620Z</time>
      </trkpt>
      <trkpt lat="46.64663" lon="5.53909">
        <ele>270</ele>
        <time>2021-05-29T11:18:43.620Z</time>
      </trkpt>
      <trkpt lat="46.64663" lon="5.53909">
        <ele>270</ele>
        <time>2021-05-29T11:18:44.620Z</time>
      </trkpt>
      <trkpt lat="46.64663" lon="5.53909">
        <ele>270</ele>
        <time>2021-05-29T11:18:45.621Z</time>
      </trkpt>
      <trkpt lat="46.64663" lon="5.53909">
        <ele>270</ele>
        <time>2021-05-29T11:18:46.621Z</time>
      </trkpt>
      <trkpt lat="46.64663" lon="5.53909">
        <ele>270</ele>
        <time>2021-05-29T11:18:47.620Z</time>
      </trkpt>
      <trkpt lat="46.64663" lon="5.53909">
        <ele>270</ele>
        <time>2021-05-29T11:18:48.621Z</time>
      </trkpt>
      <trkpt lat="46.64663" lon="5.53909">
        <ele>270</ele>
        <time>2021-05-29T11:18:49.621Z</time>
      </trkpt>
      <trkpt lat="46.64663" lon="5.53909">
        <ele>270</ele>
        <time>2021-05-29T11:18:50.620Z</time>
      </trkpt>
      <trkpt lat="46.64663" lon="5.53909">
        <ele>270</ele>
        <time>2021-05-29T11:18:51.621Z</time>
      </trkpt>
      <trkpt lat="46.64663" lon="5.53909">
        <ele>270</ele>
        <time>2021-05-29T11:18:52.621Z</time>
      </trkpt>
      <trkpt lat="46.64664" lon="5.5391">
        <ele>270</ele>
        <time>2021-05-29T11:18:53.621Z</time>
      </trkpt>
      <trkpt lat="46.64664" lon="5.5391">
        <ele>270</ele>
        <time>2021-05-29T11:18:54.620Z</time>
      </trkpt>
      <trkpt lat="46.64664" lon="5.5391">
        <ele>270</ele>
        <time>2021-05-29T11:18:55.620Z</time>
      </trkpt>
      <trkpt lat="46.64664" lon="5.5391">
        <ele>270</ele>
        <time>2021-05-29T11:18:56.621Z</time>
      </trkpt>
      <trkpt lat="46.64664" lon="5.5391">
        <ele>270</ele>
        <time>2021-05-29T11:18:57.621Z</time>
      </trkpt>
      <trkpt lat="46.64665" lon="5.5391">
        <ele>270</ele>
        <time>2021-05-29T11:18:58.620Z</time>
      </trkpt>
      <trkpt lat="46.64665" lon="5.5391">
        <ele>270</ele>
        <time>2021-05-29T11:18:59.621Z</time>
      </trkpt>
      <trkpt lat="46.64665" lon="5.5391">
        <ele>270</ele>
        <time>2021-05-29T11:19:00.621Z</time>
      </trkpt>
      <trkpt lat="46.64665" lon="5.5391">
        <ele>270</ele>
        <time>2021-05-29T11:19:01.621Z</time>
      </trkpt>
      <trkpt lat="46.64665" lon="5.5391">
        <ele>270</ele>
        <time>2021-05-29T11:19:02.621Z</time>
      </trkpt>
      <trkpt lat="46.64665" lon="5.5391">
        <ele>270</ele>
        <time>2021-05-29T11:19:03.621Z</time>
      </trkpt>
      <trkpt lat="46.64666" lon="5.5391">
        <ele>270</ele>
        <time>2021-05-29T11:19:04.621Z</time>
      </trkpt>
      <trkpt lat="46.64666" lon="5.5391">
        <ele>270</ele>
        <time>2021-05-29T11:19:05.621Z</time>
      </trkpt>
      <trkpt lat="46.64666" lon="5.53911">
        <ele>270</ele>
        <time>2021-05-29T11:19:06.621Z</time>
      </trkpt>
      <trkpt lat="46.64668" lon="5.53912">
        <ele>270</ele>
        <time>2021-05-29T11:19:07.621Z</time>
      </trkpt>
      <trkpt lat="46.64671" lon="5.53915">
        <ele>270</ele>
        <time>2021-05-29T11:19:08.621Z</time>
      </trkpt>
      <trkpt lat="46.64672" lon="5.53917">
        <ele>270</ele>
        <time>2021-05-29T11:19:09.621Z</time>
      </trkpt>
      <trkpt lat="46.64673" lon="5.5392">
        <ele>270</ele>
        <time>2021-05-29T11:19:10.620Z</time>
      </trkpt>
      <trkpt lat="46.64675" lon="5.53923">
        <ele>270</ele>
        <time>2021-05-29T11:19:11.621Z</time>
      </trkpt>
      <trkpt lat="46.64677" lon="5.53926">
        <ele>270</ele>
        <time>2021-05-29T11:19:12.621Z</time>
      </trkpt>
      <trkpt lat="46.64678" lon="5.53929">
        <ele>270</ele>
        <time>2021-05-29T11:19:13.621Z</time>
      </trkpt>
      <trkpt lat="46.6468" lon="5.53932">
        <ele>270</ele>
        <time>2021-05-29T11:19:14.621Z</time>
      </trkpt>
      <trkpt lat="46.64682" lon="5.53934">
        <ele>270</ele>
        <time>2021-05-29T11:19:15.620Z</time>
      </trkpt>
      <trkpt lat="46.64683" lon="5.53937">
        <ele>270</ele>
        <time>2021-05-29T11:19:16.620Z</time>
      </trkpt>
      <trkpt lat="46.64684" lon="5.53939">
        <ele>270</ele>
        <time>2021-05-29T11:19:17.620Z</time>
      </trkpt>
      <trkpt lat="46.64685" lon="5.53942">
        <ele>270</ele>
        <time>2021-05-29T11:19:18.621Z</time>
      </trkpt>
      <trkpt lat="46.64686" lon="5.53945">
        <ele>271</ele>
        <time>2021-05-29T11:19:19.620Z</time>
      </trkpt>
      <trkpt lat="46.64687" lon="5.53949">
        <ele>271</ele>
        <time>2021-05-29T11:19:20.621Z</time>
      </trkpt>
      <trkpt lat="46.64688" lon="5.53952">
        <ele>271</ele>
        <time>2021-05-29T11:19:21.621Z</time>
      </trkpt>
      <trkpt lat="46.64688" lon="5.53954">
        <ele>271</ele>
        <time>2021-05-29T11:19:22.621Z</time>
      </trkpt>
      <trkpt lat="46.64689" lon="5.53957">
        <ele>271</ele>
        <time>2021-05-29T11:19:23.620Z</time>
      </trkpt>
      <trkpt lat="46.6469" lon="5.5396">
        <ele>271</ele>
        <time>2021-05-29T11:19:24.621Z</time>
      </trkpt>
      <trkpt lat="46.64691" lon="5.53963">
        <ele>271</ele>
        <time>2021-05-29T11:19:25.620Z</time>
      </trkpt>
      <trkpt lat="46.64691" lon="5.53965">
        <ele>272</ele>
        <time>2021-05-29T11:19:26.621Z</time>
      </trkpt>
      <trkpt lat="46.64692" lon="5.53967">
        <ele>272</ele>
        <time>2021-05-29T11:19:27.621Z</time>
      </trkpt>
      <trkpt lat="46.64692" lon="5.53971">
        <ele>272</ele>
        <time>2021-05-29T11:19:28.621Z</time>
      </trkpt>
      <trkpt lat="46.64693" lon="5.53973">
        <ele>272</ele>
        <time>2021-05-29T11:19:29.620Z</time>
      </trkpt>
      <trkpt lat="46.64693" lon="5.53976">
        <ele>272</ele>
        <time>2021-05-29T11:19:30.620Z</time>
      </trkpt>
      <trkpt lat="46.64694" lon="5.53979">
        <ele>273</ele>
        <time>2021-05-29T11:19:31.620Z</time>
      </trkpt>
      <trkpt lat="46.64694" lon="5.53982">
        <ele>273</ele>
        <time>2021-05-29T11:19:32.621Z</time>
      </trkpt>
      <trkpt lat="46.64695" lon="5.53985">
        <ele>273</ele>
        <time>2021-05-29T11:19:33.621Z</time>
      </trkpt>
      <trkpt lat="46.64696" lon="5.53987">
        <ele>274</ele>
        <time>2021-05-29T11:19:34.621Z</time>
      </trkpt>
      <trkpt lat="46.64696" lon="5.53989">
        <ele>274</ele>
        <time>2021-05-29T11:19:35.621Z</time>
      </trkpt>
      <trkpt lat="46.64698" lon="5.53992">
        <ele>274</ele>
        <time>2021-05-29T11:19:36.620Z</time>
      </trkpt>
      <trkpt lat="46.64699" lon="5.53995">
        <ele>274</ele>
        <time>2021-05-29T11:19:37.621Z</time>
      </trkpt>
      <trkpt lat="46.64699" lon="5.53998">
        <ele>274</ele>
        <time>2021-05-29T11:19:38.621Z</time>
      </trkpt>
      <trkpt lat="46.647" lon="5.54001">
        <ele>274</ele>
        <time>2021-05-29T11:19:39.621Z</time>
      </trkpt>
      <trkpt lat="46.647" lon="5.54003">
        <ele>274</ele>
        <time>2021-05-29T11:19:40.621Z</time>
      </trkpt>
      <trkpt lat="46.647" lon="5.54005">
        <ele>274</ele>
        <time>2021-05-29T11:19:41.620Z</time>
      </trkpt>
      <trkpt lat="46.647" lon="5.54006">
        <ele>274</ele>
        <time>2021-05-29T11:19:42.621Z</time>
      </trkpt>
      <trkpt lat="46.64699" lon="5.54006">
        <ele>274</ele>
        <time>2021-05-29T11:19:43.620Z</time>
      </trkpt>
      <trkpt lat="46.64698" lon="5.54006">
        <ele>274</ele>
        <time>2021-05-29T11:19:44.621Z</time>
      </trkpt>
      <trkpt lat="46.64698" lon="5.54006">
        <ele>274</ele>
        <time>2021-05-29T11:19:45.621Z</time>
      </trkpt>
      <trkpt lat="46.64698" lon="5.54006">
        <ele>273</ele>
        <time>2021-05-29T11:19:46.621Z</time>
      </trkpt>
      <trkpt lat="46.64699" lon="5.54007">
        <ele>273</ele>
        <time>2021-05-29T11:19:47.621Z</time>
      </trkpt>
      <trkpt lat="46.64699" lon="5.54009">
        <ele>273</ele>
        <time>2021-05-29T11:19:48.621Z</time>
      </trkpt>
      <trkpt lat="46.647" lon="5.54011">
        <ele>273</ele>
        <time>2021-05-29T11:19:49.621Z</time>
      </trkpt>
      <trkpt lat="46.647" lon="5.54013">
        <ele>273</ele>
        <time>2021-05-29T11:19:50.620Z</time>
      </trkpt>
      <trkpt lat="46.64701" lon="5.54015">
        <ele>272</ele>
        <time>2021-05-29T11:19:51.621Z</time>
      </trkpt>
      <trkpt lat="46.64701" lon="5.54017">
        <ele>272</ele>
        <time>2021-05-29T11:19:52.620Z</time>
      </trkpt>
      <trkpt lat="46.64702" lon="5.54019">
        <ele>272</ele>
        <time>2021-05-29T11:19:53.621Z</time>
      </trkpt>
      <trkpt lat="46.64703" lon="5.54021">
        <ele>273</ele>
        <time>2021-05-29T11:19:54.621Z</time>
      </trkpt>
      <trkpt lat="46.64703" lon="5.54023">
        <ele>273</ele>
        <time>2021-05-29T11:19:55.621Z</time>
      </trkpt>
      <trkpt lat="46.64704" lon="5.54026">
        <ele>273</ele>
        <time>2021-05-29T11:19:56.621Z</time>
      </trkpt>
      <trkpt lat="46.64704" lon="5.54029">
        <ele>272</ele>
        <time>2021-05-29T11:19:57.621Z</time>
      </trkpt>
      <trkpt lat="46.64704" lon="5.54031">
        <ele>273</ele>
        <time>2021-05-29T11:19:58.621Z</time>
      </trkpt>
      <trkpt lat="46.64705" lon="5.54033">
        <ele>273</ele>
        <time>2021-05-29T11:19:59.620Z</time>
      </trkpt>
      <trkpt lat="46.64706" lon="5.54035">
        <ele>273</ele>
        <time>2021-05-29T11:20:00.621Z</time>
      </trkpt>
      <trkpt lat="46.64706" lon="5.54036">
        <ele>273</ele>
        <time>2021-05-29T11:20:01.621Z</time>
      </trkpt>
      <trkpt lat="46.64707" lon="5.54036">
        <ele>273</ele>
        <time>2021-05-29T11:20:02.621Z</time>
      </trkpt>
      <trkpt lat="46.64708" lon="5.54037">
        <ele>273</ele>
        <time>2021-05-29T11:20:03.621Z</time>
      </trkpt>
      <trkpt lat="46.64711" lon="5.54038">
        <ele>273</ele>
        <time>2021-05-29T11:20:04.620Z</time>
      </trkpt>
      <trkpt lat="46.64712" lon="5.54038">
        <ele>273</ele>
        <time>2021-05-29T11:20:05.620Z</time>
      </trkpt>
      <trkpt lat="46.64714" lon="5.54038">
        <ele>273</ele>
        <time>2021-05-29T11:20:06.620Z</time>
      </trkpt>
      <trkpt lat="46.64715" lon="5.54037">
        <ele>273</ele>
        <time>2021-05-29T11:20:07.620Z</time>
      </trkpt>
      <trkpt lat="46.64716" lon="5.54037">
        <ele>272</ele>
        <time>2021-05-29T11:20:08.620Z</time>
      </trkpt>
      <trkpt lat="46.64718" lon="5.54036">
        <ele>272</ele>
        <time>2021-05-29T11:20:09.621Z</time>
      </trkpt>
      <trkpt lat="46.6472" lon="5.54034">
        <ele>273</ele>
        <time>2021-05-29T11:20:10.620Z</time>
      </trkpt>
      <trkpt lat="46.64722" lon="5.54033">
        <ele>273</ele>
        <time>2021-05-29T11:20:11.621Z</time>
      </trkpt>
      <trkpt lat="46.64724" lon="5.54033">
        <ele>273</ele>
        <time>2021-05-29T11:20:12.620Z</time>
      </trkpt>
      <trkpt lat="46.64725" lon="5.54032">
        <ele>273</ele>
        <time>2021-05-29T11:20:13.621Z</time>
      </trkpt>
      <trkpt lat="46.64728" lon="5.54031">
        <ele>273</ele>
        <time>2021-05-29T11:20:14.621Z</time>
      </trkpt>
      <trkpt lat="46.6473" lon="5.5403">
        <ele>273</ele>
        <time>2021-05-29T11:20:15.620Z</time>
      </trkpt>
      <trkpt lat="46.64731" lon="5.54029">
        <ele>273</ele>
        <time>2021-05-29T11:20:16.621Z</time>
      </trkpt>
      <trkpt lat="46.64733" lon="5.54028">
        <ele>273</ele>
        <time>2021-05-29T11:20:17.621Z</time>
      </trkpt>
      <trkpt lat="46.64736" lon="5.54027">
        <ele>273</ele>
        <time>2021-05-29T11:20:18.621Z</time>
      </trkpt>
      <trkpt lat="46.64739" lon="5.54026">
        <ele>273</ele>
        <time>2021-05-29T11:20:19.620Z</time>
      </trkpt>
      <trkpt lat="46.64741" lon="5.54025">
        <ele>273</ele>
        <time>2021-05-29T11:20:20.621Z</time>
      </trkpt>
      <trkpt lat="46.64743" lon="5.54023">
        <ele>273</ele>
        <time>2021-05-29T11:20:21.621Z</time>
      </trkpt>
      <trkpt lat="46.64745" lon="5.54021">
        <ele>273</ele>
        <time>2021-05-29T11:20:22.621Z</time>
      </trkpt>
      <trkpt lat="46.64745" lon="5.54019">
        <ele>273</ele>
        <time>2021-05-29T11:20:23.621Z</time>
      </trkpt>
      <trkpt lat="46.64747" lon="5.54017">
        <ele>273</ele>
        <time>2021-05-29T11:20:24.620Z</time>
      </trkpt>
      <trkpt lat="46.64749" lon="5.54016">
        <ele>274</ele>
        <time>2021-05-29T11:20:25.621Z</time>
      </trkpt>
      <trkpt lat="46.64751" lon="5.54014">
        <ele>274</ele>
        <time>2021-05-29T11:20:26.621Z</time>
      </trkpt>
      <trkpt lat="46.64753" lon="5.54013">
        <ele>274</ele>
        <time>2021-05-29T11:20:27.621Z</time>
      </trkpt>
      <trkpt lat="46.64755" lon="5.54011">
        <ele>273</ele>
        <time>2021-05-29T11:20:28.621Z</time>
      </trkpt>
      <trkpt lat="46.64758" lon="5.5401">
        <ele>274</ele>
        <time>2021-05-29T11:20:29.621Z</time>
      </trkpt>
      <trkpt lat="46.6476" lon="5.54008">
        <ele>274</ele>
        <time>2021-05-29T11:20:30.620Z</time>
      </trkpt>
      <trkpt lat="46.64762" lon="5.54007">
        <ele>273</ele>
        <time>2021-05-29T11:20:31.620Z</time>
      </trkpt>
      <trkpt lat="46.64764" lon="5.54006">
        <ele>273</ele>
        <time>2021-05-29T11:20:32.621Z</time>
      </trkpt>
      <trkpt lat="46.64767" lon="5.54004">
        <ele>273</ele>
        <time>2021-05-29T11:20:33.621Z</time>
      </trkpt>
      <trkpt lat="46.64769" lon="5.54003">
        <ele>272</ele>
        <time>2021-05-29T11:20:34.621Z</time>
      </trkpt>
      <trkpt lat="46.6477" lon="5.54001">
        <ele>273</ele>
        <time>2021-05-29T11:20:35.621Z</time>
      </trkpt>
      <trkpt lat="46.64772" lon="5.53999">
        <ele>273</ele>
        <time>2021-05-29T11:20:36.621Z</time>
      </trkpt>
      <trkpt lat="46.64774" lon="5.53998">
        <ele>273</ele>
        <time>2021-05-29T11:20:37.620Z</time>
      </trkpt>
      <trkpt lat="46.64776" lon="5.53996">
        <ele>273</ele>
        <time>2021-05-29T11:20:38.621Z</time>
      </trkpt>
      <trkpt lat="46.64778" lon="5.53995">
        <ele>273</ele>
        <time>2021-05-29T11:20:39.621Z</time>
      </trkpt>
      <trkpt lat="46.64779" lon="5.53993">
        <ele>273</ele>
        <time>2021-05-29T11:20:40.621Z</time>
      </trkpt>
      <trkpt lat="46.64782" lon="5.53991">
        <ele>273</ele>
        <time>2021-05-29T11:20:41.621Z</time>
      </trkpt>
      <trkpt lat="46.64784" lon="5.5399">
        <ele>273</ele>
        <time>2021-05-29T11:20:42.620Z</time>
      </trkpt>
      <trkpt lat="46.64786" lon="5.53987">
        <ele>273</ele>
        <time>2021-05-29T11:20:43.621Z</time>
      </trkpt>
      <trkpt lat="46.64788" lon="5.53985">
        <ele>274</ele>
        <time>2021-05-29T11:20:44.620Z</time>
      </trkpt>
      <trkpt lat="46.64789" lon="5.53984">
        <ele>274</ele>
        <time>2021-05-29T11:20:45.621Z</time>
      </trkpt>
      <trkpt lat="46.64792" lon="5.53981">
        <ele>274</ele>
        <time>2021-05-29T11:20:46.621Z</time>
      </trkpt>
      <trkpt lat="46.64794" lon="5.53979">
        <ele>275</ele>
        <time>2021-05-29T11:20:47.621Z</time>
      </trkpt>
      <trkpt lat="46.64796" lon="5.53977">
        <ele>275</ele>
        <time>2021-05-29T11:20:48.621Z</time>
      </trkpt>
      <trkpt lat="46.64798" lon="5.53976">
        <ele>276</ele>
        <time>2021-05-29T11:20:49.620Z</time>
      </trkpt>
      <trkpt lat="46.648" lon="5.53974">
        <ele>276</ele>
        <time>2021-05-29T11:20:50.621Z</time>
      </trkpt>
      <trkpt lat="46.64803" lon="5.53973">
        <ele>276</ele>
        <time>2021-05-29T11:20:51.621Z</time>
      </trkpt>
      <trkpt lat="46.64806" lon="5.53972">
        <ele>276</ele>
        <time>2021-05-29T11:20:52.621Z</time>
      </trkpt>
      <trkpt lat="46.64808" lon="5.5397">
        <ele>276</ele>
        <time>2021-05-29T11:20:53.621Z</time>
      </trkpt>
      <trkpt lat="46.64811" lon="5.53969">
        <ele>275</ele>
        <time>2021-05-29T11:20:54.620Z</time>
      </trkpt>
      <trkpt lat="46.64813" lon="5.53967">
        <ele>275</ele>
        <time>2021-05-29T11:20:55.621Z</time>
      </trkpt>
      <trkpt lat="46.64816" lon="5.53965">
        <ele>275</ele>
        <time>2021-05-29T11:20:56.621Z</time>
      </trkpt>
      <trkpt lat="46.64819" lon="5.53964">
        <ele>275</ele>
        <time>2021-05-29T11:20:57.621Z</time>
      </trkpt>
      <trkpt lat="46.64821" lon="5.53964">
        <ele>275</ele>
        <time>2021-05-29T11:20:58.621Z</time>
      </trkpt>
      <trkpt lat="46.64823" lon="5.53962">
        <ele>274</ele>
        <time>2021-05-29T11:20:59.621Z</time>
      </trkpt>
      <trkpt lat="46.64826" lon="5.53961">
        <ele>274</ele>
        <time>2021-05-29T11:21:00.621Z</time>
      </trkpt>
      <trkpt lat="46.64828" lon="5.5396">
        <ele>274</ele>
        <time>2021-05-29T11:21:01.621Z</time>
      </trkpt>
      <trkpt lat="46.6483" lon="5.5396">
        <ele>273</ele>
        <time>2021-05-29T11:21:02.621Z</time>
      </trkpt>
      <trkpt lat="46.64832" lon="5.53959">
        <ele>273</ele>
        <time>2021-05-29T11:21:03.620Z</time>
      </trkpt>
      <trkpt lat="46.64834" lon="5.53959">
        <ele>272</ele>
        <time>2021-05-29T11:21:04.621Z</time>
      </trkpt>
      <trkpt lat="46.64837" lon="5.53958">
        <ele>272</ele>
        <time>2021-05-29T11:21:05.621Z</time>
      </trkpt>
      <trkpt lat="46.6484" lon="5.53957">
        <ele>272</ele>
        <time>2021-05-29T11:21:06.621Z</time>
      </trkpt>
      <trkpt lat="46.64842" lon="5.53956">
        <ele>271</ele>
        <time>2021-05-29T11:21:07.620Z</time>
      </trkpt>
      <trkpt lat="46.64844" lon="5.53954">
        <ele>271</ele>
        <time>2021-05-29T11:21:08.620Z</time>
      </trkpt>
      <trkpt lat="46.64847" lon="5.53953">
        <ele>270</ele>
        <time>2021-05-29T11:21:09.621Z</time>
      </trkpt>
      <trkpt lat="46.64849" lon="5.53951">
        <ele>270</ele>
        <time>2021-05-29T11:21:10.621Z</time>
      </trkpt>
      <trkpt lat="46.64851" lon="5.5395">
        <ele>270</ele>
        <time>2021-05-29T11:21:11.621Z</time>
      </trkpt>
      <trkpt lat="46.64853" lon="5.53948">
        <ele>270</ele>
        <time>2021-05-29T11:21:12.621Z</time>
      </trkpt>
      <trkpt lat="46.64855" lon="5.53946">
        <ele>269</ele>
        <time>2021-05-29T11:21:13.621Z</time>
      </trkpt>
      <trkpt lat="46.64857" lon="5.53944">
        <ele>269</ele>
        <time>2021-05-29T11:21:14.621Z</time>
      </trkpt>
      <trkpt lat="46.64859" lon="5.53943">
        <ele>269</ele>
        <time>2021-05-29T11:21:15.621Z</time>
      </trkpt>
      <trkpt lat="46.64861" lon="5.53942">
        <ele>269</ele>
        <time>2021-05-29T11:21:16.621Z</time>
      </trkpt>
      <trkpt lat="46.64864" lon="5.5394">
        <ele>269</ele>
        <time>2021-05-29T11:21:17.621Z</time>
      </trkpt>
      <trkpt lat="46.64866" lon="5.53939">
        <ele>269</ele>
        <time>2021-05-29T11:21:18.621Z</time>
      </trkpt>
      <trkpt lat="46.64869" lon="5.53937">
        <ele>269</ele>
        <time>2021-05-29T11:21:19.621Z</time>
      </trkpt>
      <trkpt lat="46.64871" lon="5.53936">
        <ele>269</ele>
        <time>2021-05-29T11:21:20.621Z</time>
      </trkpt>
      <trkpt lat="46.64873" lon="5.53934">
        <ele>269</ele>
        <time>2021-05-29T11:21:21.620Z</time>
      </trkpt>
      <trkpt lat="46.64875" lon="5.53932">
        <ele>269</ele>
        <time>2021-05-29T11:21:22.621Z</time>
      </trkpt>
      <trkpt lat="46.64877" lon="5.5393">
        <ele>270</ele>
        <time>2021-05-29T11:21:23.621Z</time>
      </trkpt>
      <trkpt lat="46.64879" lon="5.53929">
        <ele>270</ele>
        <time>2021-05-29T11:21:24.621Z</time>
      </trkpt>
      <trkpt lat="46.64881" lon="5.53927">
        <ele>270</ele>
        <time>2021-05-29T11:21:25.621Z</time>
      </trkpt>
      <trkpt lat="46.64883" lon="5.53926">
        <ele>270</ele>
        <time>2021-05-29T11:21:26.620Z</time>
      </trkpt>
      <trkpt lat="46.64885" lon="5.53923">
        <ele>270</ele>
        <time>2021-05-29T11:21:27.621Z</time>
      </trkpt>
      <trkpt lat="46.64886" lon="5.53921">
        <ele>270</ele>
        <time>2021-05-29T11:21:28.621Z</time>
      </trkpt>
      <trkpt lat="46.64888" lon="5.53919">
        <ele>270</ele>
        <time>2021-05-29T11:21:29.621Z</time>
      </trkpt>
      <trkpt lat="46.6489" lon="5.53917">
        <ele>270</ele>
        <time>2021-05-29T11:21:30.620Z</time>
      </trkpt>
      <trkpt lat="46.64893" lon="5.53916">
        <ele>270</ele>
        <time>2021-05-29T11:21:31.621Z</time>
      </trkpt>
      <trkpt lat="46.64895" lon="5.53915">
        <ele>270</ele>
        <time>2021-05-29T11:21:32.620Z</time>
      </trkpt>
      <trkpt lat="46.64897" lon="5.53914">
        <ele>270</ele>
        <time>2021-05-29T11:21:33.621Z</time>
      </trkpt>
      <trkpt lat="46.649" lon="5.53912">
        <ele>270</ele>
        <time>2021-05-29T11:21:34.621Z</time>
      </trkpt>
      <trkpt lat="46.64903" lon="5.53911">
        <ele>269</ele>
        <time>2021-05-29T11:21:35.621Z</time>
      </trkpt>
      <trkpt lat="46.64904" lon="5.53908">
        <ele>269</ele>
        <time>2021-05-29T11:21:36.621Z</time>
      </trkpt>
      <trkpt lat="46.64906" lon="5.53906">
        <ele>270</ele>
        <time>2021-05-29T11:21:37.621Z</time>
      </trkpt>
      <trkpt lat="46.64908" lon="5.53906">
        <ele>270</ele>
        <time>2021-05-29T11:21:38.620Z</time>
      </trkpt>
      <trkpt lat="46.64909" lon="5.53904">
        <ele>270</ele>
        <time>2021-05-29T11:21:39.621Z</time>
      </trkpt>
      <trkpt lat="46.64911" lon="5.53903">
        <ele>270</ele>
        <time>2021-05-29T11:21:40.621Z</time>
      </trkpt>
      <trkpt lat="46.64913" lon="5.53902">
        <ele>270</ele>
        <time>2021-05-29T11:21:41.621Z</time>
      </trkpt>
      <trkpt lat="46.64915" lon="5.53902">
        <ele>270</ele>
        <time>2021-05-29T11:21:42.621Z</time>
      </trkpt>
      <trkpt lat="46.64917" lon="5.53901">
        <ele>270</ele>
        <time>2021-05-29T11:21:43.620Z</time>
      </trkpt>
      <trkpt lat="46.64919" lon="5.53901">
        <ele>270</ele>
        <time>2021-05-29T11:21:44.621Z</time>
      </trkpt>
      <trkpt lat="46.6492" lon="5.53901">
        <ele>270</ele>
        <time>2021-05-29T11:21:45.621Z</time>
      </trkpt>
      <trkpt lat="46.6492" lon="5.539">
        <ele>270</ele>
        <time>2021-05-29T11:21:46.620Z</time>
      </trkpt>
      <trkpt lat="46.64921" lon="5.53901">
        <ele>269</ele>
        <time>2021-05-29T11:21:47.621Z</time>
      </trkpt>
      <trkpt lat="46.64921" lon="5.53901">
        <ele>269</ele>
        <time>2021-05-29T11:21:48.621Z</time>
      </trkpt>
      <trkpt lat="46.64921" lon="5.53901">
        <ele>269</ele>
        <time>2021-05-29T11:21:49.621Z</time>
      </trkpt>
      <trkpt lat="46.6492" lon="5.53902">
        <ele>268</ele>
        <time>2021-05-29T11:21:50.621Z</time>
      </trkpt>
      <trkpt lat="46.6492" lon="5.53902">
        <ele>268</ele>
        <time>2021-05-29T11:21:51.620Z</time>
      </trkpt>
      <trkpt lat="46.6492" lon="5.53902">
        <ele>268</ele>
        <time>2021-05-29T11:21:52.620Z</time>
      </trkpt>
      <trkpt lat="46.64921" lon="5.53901">
        <ele>268</ele>
        <time>2021-05-29T11:21:53.621Z</time>
      </trkpt>
      <trkpt lat="46.64921" lon="5.53901">
        <ele>268</ele>
        <time>2021-05-29T11:21:54.621Z</time>
      </trkpt>
      <trkpt lat="46.64922" lon="5.53902">
        <ele>268</ele>
        <time>2021-05-29T11:21:55.620Z</time>
      </trkpt>
      <trkpt lat="46.64923" lon="5.53902">
        <ele>267</ele>
        <time>2021-05-29T11:21:56.621Z</time>
      </trkpt>
      <trkpt lat="46.64925" lon="5.53902">
        <ele>266</ele>
        <time>2021-05-29T11:21:57.620Z</time>
      </trkpt>
      <trkpt lat="46.64925" lon="5.53902">
        <ele>267</ele>
        <time>2021-05-29T11:21:58.621Z</time>
      </trkpt>
      <trkpt lat="46.64925" lon="5.53903">
        <ele>267</ele>
        <time>2021-05-29T11:21:59.621Z</time>
      </trkpt>
      <trkpt lat="46.64924" lon="5.53903">
        <ele>266</ele>
        <time>2021-05-29T11:22:00.621Z</time>
      </trkpt>
      <trkpt lat="46.64922" lon="5.53903">
        <ele>267</ele>
        <time>2021-05-29T11:22:01.621Z</time>
      </trkpt>
      <trkpt lat="46.64921" lon="5.53903">
        <ele>267</ele>
        <time>2021-05-29T11:22:02.621Z</time>
      </trkpt>
      <trkpt lat="46.64919" lon="5.53902">
        <ele>268</ele>
        <time>2021-05-29T11:22:03.621Z</time>
      </trkpt>
      <trkpt lat="46.64919" lon="5.53902">
        <ele>268</ele>
        <time>2021-05-29T11:22:04.621Z</time>
      </trkpt>
      <trkpt lat="46.64918" lon="5.53902">
        <ele>268</ele>
        <time>2021-05-29T11:22:05.621Z</time>
      </trkpt>
      <trkpt lat="46.64917" lon="5.53903">
        <ele>268</ele>
        <time>2021-05-29T11:22:06.620Z</time>
      </trkpt>
      <trkpt lat="46.64916" lon="5.53903">
        <ele>268</ele>
        <time>2021-05-29T11:22:07.621Z</time>
      </trkpt>
      <trkpt lat="46.64917" lon="5.53904">
        <ele>268</ele>
        <time>2021-05-29T11:22:08.621Z</time>
      </trkpt>
      <trkpt lat="46.64917" lon="5.53905">
        <ele>268</ele>
        <time>2021-05-29T11:22:09.621Z</time>
      </trkpt>
      <trkpt lat="46.64917" lon="5.53905">
        <ele>268</ele>
        <time>2021-05-29T11:22:10.621Z</time>
      </trkpt>
      <trkpt lat="46.64917" lon="5.53905">
        <ele>268</ele>
        <time>2021-05-29T11:22:11.621Z</time>
      </trkpt>
      <trkpt lat="46.64917" lon="5.53905">
        <ele>268</ele>
        <time>2021-05-29T11:22:12.621Z</time>
      </trkpt>
      <trkpt lat="46.64917" lon="5.53904">
        <ele>267</ele>
        <time>2021-05-29T11:22:13.621Z</time>
      </trkpt>
      <trkpt lat="46.64916" lon="5.53903">
        <ele>267</ele>
        <time>2021-05-29T11:22:14.620Z</time>
      </trkpt>
      <trkpt lat="46.64916" lon="5.53903">
        <ele>267</ele>
        <time>2021-05-29T11:22:15.620Z</time>
      </trkpt>
      <trkpt lat="46.64916" lon="5.53903">
        <ele>267</ele>
        <time>2021-05-29T11:22:16.621Z</time>
      </trkpt>
      <trkpt lat="46.64916" lon="5.53904">
        <ele>267</ele>
        <time>2021-05-29T11:22:17.621Z</time>
      </trkpt>
      <trkpt lat="46.64916" lon="5.53904">
        <ele>267</ele>
        <time>2021-05-29T11:22:18.621Z</time>
      </trkpt>
      <trkpt lat="46.64916" lon="5.53904">
        <ele>267</ele>
        <time>2021-05-29T11:22:19.621Z</time>
      </trkpt>
      <trkpt lat="46.64916" lon="5.53904">
        <ele>267</ele>
        <time>2021-05-29T11:22:20.620Z</time>
      </trkpt>
      <trkpt lat="46.64916" lon="5.53904">
        <ele>267</ele>
        <time>2021-05-29T11:22:21.620Z</time>
      </trkpt>
      <trkpt lat="46.64916" lon="5.53904">
        <ele>267</ele>
        <time>2021-05-29T11:22:22.620Z</time>
      </trkpt>
      <trkpt lat="46.64916" lon="5.53904">
        <ele>267</ele>
        <time>2021-05-29T11:22:23.620Z</time>
      </trkpt>
      <trkpt lat="46.64916" lon="5.53904">
        <ele>268</ele>
        <time>2021-05-29T11:22:24.621Z</time>
      </trkpt>
      <trkpt lat="46.64916" lon="5.53904">
        <ele>268</ele>
        <time>2021-05-29T11:22:25.620Z</time>
      </trkpt>
      <trkpt lat="46.64916" lon="5.53904">
        <ele>268</ele>
        <time>2021-05-29T11:22:26.620Z</time>
      </trkpt>
      <trkpt lat="46.64916" lon="5.53904">
        <ele>268</ele>
        <time>2021-05-29T11:22:27.621Z</time>
      </trkpt>
      <trkpt lat="46.64916" lon="5.53904">
        <ele>268</ele>
        <time>2021-05-29T11:22:28.621Z</time>
      </trkpt>
      <trkpt lat="46.64916" lon="5.53904">
        <ele>268</ele>
        <time>2021-05-29T11:22:29.620Z</time>
      </trkpt>
      <trkpt lat="46.64916" lon="5.53904">
        <ele>268</ele>
        <time>2021-05-29T11:22:30.621Z</time>
      </trkpt>
      <trkpt lat="46.64914" lon="5.53905">
        <ele>268</ele>
        <time>2021-05-29T11:22:31.621Z</time>
      </trkpt>
      <trkpt lat="46.64912" lon="5.53906">
        <ele>268</ele>
        <time>2021-05-29T11:22:32.620Z</time>
      </trkpt>
      <trkpt lat="46.6491" lon="5.53908">
        <ele>268</ele>
        <time>2021-05-29T11:22:33.620Z</time>
      </trkpt>
      <trkpt lat="46.64908" lon="5.53908">
        <ele>268</ele>
        <time>2021-05-29T11:22:34.621Z</time>
      </trkpt>
      <trkpt lat="46.64907" lon="5.53909">
        <ele>268</ele>
        <time>2021-05-29T11:22:35.621Z</time>
      </trkpt>
      <trkpt lat="46.64905" lon="5.5391">
        <ele>268</ele>
        <time>2021-05-29T11:22:36.621Z</time>
      </trkpt>
      <trkpt lat="46.64902" lon="5.53912">
        <ele>268</ele>
        <time>2021-05-29T11:22:37.621Z</time>
      </trkpt>
      <trkpt lat="46.649" lon="5.53913">
        <ele>268</ele>
        <time>2021-05-29T11:22:38.621Z</time>
      </trkpt>
      <trkpt lat="46.64898" lon="5.53915">
        <ele>269</ele>
        <time>2021-05-29T11:22:39.621Z</time>
      </trkpt>
      <trkpt lat="46.64897" lon="5.53916">
        <ele>269</ele>
        <time>2021-05-29T11:22:40.621Z</time>
      </trkpt>
      <trkpt lat="46.64896" lon="5.53917">
        <ele>269</ele>
        <time>2021-05-29T11:22:41.621Z</time>
      </trkpt>
      <trkpt lat="46.64894" lon="5.53918">
        <ele>269</ele>
        <time>2021-05-29T11:22:42.620Z</time>
      </trkpt>
      <trkpt lat="46.64892" lon="5.53919">
        <ele>270</ele>
        <time>2021-05-29T11:22:43.621Z</time>
      </trkpt>
      <trkpt lat="46.6489" lon="5.5392">
        <ele>270</ele>
        <time>2021-05-29T11:22:44.621Z</time>
      </trkpt>
      <trkpt lat="46.64888" lon="5.53922">
        <ele>271</ele>
        <time>2021-05-29T11:22:45.621Z</time>
      </trkpt>
      <trkpt lat="46.64886" lon="5.53924">
        <ele>271</ele>
        <time>2021-05-29T11:22:46.621Z</time>
      </trkpt>
      <trkpt lat="46.64883" lon="5.53926">
        <ele>272</ele>
        <time>2021-05-29T11:22:47.620Z</time>
      </trkpt>
      <trkpt lat="46.64881" lon="5.53928">
        <ele>272</ele>
        <time>2021-05-29T11:22:48.621Z</time>
      </trkpt>
      <trkpt lat="46.64879" lon="5.5393">
        <ele>272</ele>
        <time>2021-05-29T11:22:49.621Z</time>
      </trkpt>
      <trkpt lat="46.64877" lon="5.53931">
        <ele>272</ele>
        <time>2021-05-29T11:22:50.620Z</time>
      </trkpt>
      <trkpt lat="46.64871" lon="5.53937">
        <ele>260</ele>
        <time>2021-05-29T11:22:51.622Z</time>
      </trkpt>
      <trkpt lat="46.64871" lon="5.53937">
        <ele>260</ele>
        <time>2021-05-29T11:22:52.621Z</time>
      </trkpt>
      <trkpt lat="46.64869" lon="5.53938">
        <ele>260</ele>
        <time>2021-05-29T11:22:53.621Z</time>
      </trkpt>
      <trkpt lat="46.64869" lon="5.53938">
        <ele>260</ele>
        <time>2021-05-29T11:22:54.621Z</time>
      </trkpt>
      <trkpt lat="46.64868" lon="5.53938">
        <ele>260</ele>
        <time>2021-05-29T11:22:55.621Z</time>
      </trkpt>
      <trkpt lat="46.64868" lon="5.53938">
        <ele>261</ele>
        <time>2021-05-29T11:22:56.622Z</time>
      </trkpt>
      <trkpt lat="46.64867" lon="5.53938">
        <ele>261</ele>
        <time>2021-05-29T11:22:57.622Z</time>
      </trkpt>
      <trkpt lat="46.64867" lon="5.53938">
        <ele>262</ele>
        <time>2021-05-29T11:22:58.621Z</time>
      </trkpt>
      <trkpt lat="46.64866" lon="5.53939">
        <ele>262</ele>
        <time>2021-05-29T11:22:59.621Z</time>
      </trkpt>
      <trkpt lat="46.64866" lon="5.53939">
        <ele>262</ele>
        <time>2021-05-29T11:23:00.621Z</time>
      </trkpt>
      <trkpt lat="46.64866" lon="5.53939">
        <ele>263</ele>
        <time>2021-05-29T11:23:01.622Z</time>
      </trkpt>
      <trkpt lat="46.64866" lon="5.53939">
        <ele>263</ele>
        <time>2021-05-29T11:23:02.622Z</time>
      </trkpt>
      <trkpt lat="46.64866" lon="5.53939">
        <ele>264</ele>
        <time>2021-05-29T11:23:03.622Z</time>
      </trkpt>
      <trkpt lat="46.64866" lon="5.53939">
        <ele>264</ele>
        <time>2021-05-29T11:23:04.621Z</time>
      </trkpt>
      <trkpt lat="46.64865" lon="5.53939">
        <ele>264</ele>
        <time>2021-05-29T11:23:05.621Z</time>
      </trkpt>
      <trkpt lat="46.64863" lon="5.53941">
        <ele>265</ele>
        <time>2021-05-29T11:23:06.621Z</time>
      </trkpt>
      <trkpt lat="46.6486" lon="5.53944">
        <ele>265</ele>
        <time>2021-05-29T11:23:07.622Z</time>
      </trkpt>
      <trkpt lat="46.64857" lon="5.53947">
        <ele>265</ele>
        <time>2021-05-29T11:23:08.622Z</time>
      </trkpt>
      <trkpt lat="46.64855" lon="5.5395">
        <ele>265</ele>
        <time>2021-05-29T11:23:09.621Z</time>
      </trkpt>
      <trkpt lat="46.64853" lon="5.53954">
        <ele>265</ele>
        <time>2021-05-29T11:23:10.621Z</time>
      </trkpt>
      <trkpt lat="46.64852" lon="5.53956">
        <ele>265</ele>
        <time>2021-05-29T11:23:11.622Z</time>
      </trkpt>
      <trkpt lat="46.6485" lon="5.5396">
        <ele>266</ele>
        <time>2021-05-29T11:23:12.622Z</time>
      </trkpt>
      <trkpt lat="46.64849" lon="5.53963">
        <ele>266</ele>
        <time>2021-05-29T11:23:13.622Z</time>
      </trkpt>
      <trkpt lat="46.64849" lon="5.53966">
        <ele>266</ele>
        <time>2021-05-29T11:23:14.621Z</time>
      </trkpt>
      <trkpt lat="46.64849" lon="5.5397">
        <ele>266</ele>
        <time>2021-05-29T11:23:15.621Z</time>
      </trkpt>
      <trkpt lat="46.64849" lon="5.53973">
        <ele>266</ele>
        <time>2021-05-29T11:23:16.622Z</time>
      </trkpt>
      <trkpt lat="46.6485" lon="5.53977">
        <ele>266</ele>
        <time>2021-05-29T11:23:17.622Z</time>
      </trkpt>
      <trkpt lat="46.6485" lon="5.5398">
        <ele>266</ele>
        <time>2021-05-29T11:23:18.622Z</time>
      </trkpt>
      <trkpt lat="46.6485" lon="5.53982">
        <ele>266</ele>
        <time>2021-05-29T11:23:19.621Z</time>
      </trkpt>
      <trkpt lat="46.64851" lon="5.53984">
        <ele>267</ele>
        <time>2021-05-29T11:23:20.621Z</time>
      </trkpt>
      <trkpt lat="46.64851" lon="5.53986">
        <ele>267</ele>
        <time>2021-05-29T11:23:21.622Z</time>
      </trkpt>
      <trkpt lat="46.64852" lon="5.53989">
        <ele>267</ele>
        <time>2021-05-29T11:23:22.622Z</time>
      </trkpt>
      <trkpt lat="46.64852" lon="5.53991">
        <ele>267</ele>
        <time>2021-05-29T11:23:23.621Z</time>
      </trkpt>
      <trkpt lat="46.64852" lon="5.53994">
        <ele>268</ele>
        <time>2021-05-29T11:23:24.621Z</time>
      </trkpt>
      <trkpt lat="46.64853" lon="5.53997">
        <ele>268</ele>
        <time>2021-05-29T11:23:25.622Z</time>
      </trkpt>
      <trkpt lat="46.64853" lon="5.54">
        <ele>268</ele>
        <time>2021-05-29T11:23:26.622Z</time>
      </trkpt>
      <trkpt lat="46.64854" lon="5.54003">
        <ele>269</ele>
        <time>2021-05-29T11:23:27.621Z</time>
      </trkpt>
      <trkpt lat="46.64855" lon="5.54006">
        <ele>269</ele>
        <time>2021-05-29T11:23:28.621Z</time>
      </trkpt>
      <trkpt lat="46.64855" lon="5.54009">
        <ele>269</ele>
        <time>2021-05-29T11:23:29.621Z</time>
      </trkpt>
      <trkpt lat="46.64855" lon="5.54013">
        <ele>269</ele>
        <time>2021-05-29T11:23:30.621Z</time>
      </trkpt>
      <trkpt lat="46.64856" lon="5.54016">
        <ele>269</ele>
        <time>2021-05-29T11:23:31.621Z</time>
      </trkpt>
      <trkpt lat="46.64856" lon="5.54019">
        <ele>270</ele>
        <time>2021-05-29T11:23:32.622Z</time>
      </trkpt>
      <trkpt lat="46.64856" lon="5.54021">
        <ele>270</ele>
        <time>2021-05-29T11:23:33.622Z</time>
      </trkpt>
      <trkpt lat="46.64857" lon="5.54023">
        <ele>271</ele>
        <time>2021-05-29T11:23:34.621Z</time>
      </trkpt>
      <trkpt lat="46.64857" lon="5.54026">
        <ele>271</ele>
        <time>2021-05-29T11:23:35.621Z</time>
      </trkpt>
      <trkpt lat="46.64858" lon="5.54028">
        <ele>271</ele>
        <time>2021-05-29T11:23:36.622Z</time>
      </trkpt>
      <trkpt lat="46.64858" lon="5.5403">
        <ele>271</ele>
        <time>2021-05-29T11:23:37.622Z</time>
      </trkpt>
      <trkpt lat="46.64858" lon="5.54033">
        <ele>271</ele>
        <time>2021-05-29T11:23:38.622Z</time>
      </trkpt>
      <trkpt lat="46.64858" lon="5.54036">
        <ele>271</ele>
        <time>2021-05-29T11:23:39.621Z</time>
      </trkpt>
      <trkpt lat="46.64858" lon="5.54038">
        <ele>271</ele>
        <time>2021-05-29T11:23:40.621Z</time>
      </trkpt>
      <trkpt lat="46.64859" lon="5.54042">
        <ele>271</ele>
        <time>2021-05-29T11:23:41.621Z</time>
      </trkpt>
      <trkpt lat="46.64859" lon="5.54044">
        <ele>271</ele>
        <time>2021-05-29T11:23:42.622Z</time>
      </trkpt>
      <trkpt lat="46.6486" lon="5.54047">
        <ele>270</ele>
        <time>2021-05-29T11:23:43.621Z</time>
      </trkpt>
      <trkpt lat="46.6486" lon="5.5405">
        <ele>270</ele>
        <time>2021-05-29T11:23:44.622Z</time>
      </trkpt>
      <trkpt lat="46.6486" lon="5.54053">
        <ele>270</ele>
        <time>2021-05-29T11:23:45.622Z</time>
      </trkpt>
      <trkpt lat="46.64861" lon="5.54055">
        <ele>270</ele>
        <time>2021-05-29T11:23:46.622Z</time>
      </trkpt>
      <trkpt lat="46.64861" lon="5.54058">
        <ele>269</ele>
        <time>2021-05-29T11:23:47.621Z</time>
      </trkpt>
      <trkpt lat="46.6486" lon="5.54062">
        <ele>269</ele>
        <time>2021-05-29T11:23:48.622Z</time>
      </trkpt>
      <trkpt lat="46.6486" lon="5.54065">
        <ele>269</ele>
        <time>2021-05-29T11:23:49.622Z</time>
      </trkpt>
      <trkpt lat="46.6486" lon="5.54068">
        <ele>269</ele>
        <time>2021-05-29T11:23:50.622Z</time>
      </trkpt>
      <trkpt lat="46.6486" lon="5.54071">
        <ele>269</ele>
        <time>2021-05-29T11:23:51.622Z</time>
      </trkpt>
      <trkpt lat="46.64859" lon="5.54074">
        <ele>269</ele>
        <time>2021-05-29T11:23:52.621Z</time>
      </trkpt>
      <trkpt lat="46.64859" lon="5.54078">
        <ele>269</ele>
        <time>2021-05-29T11:23:53.621Z</time>
      </trkpt>
      <trkpt lat="46.64859" lon="5.54082">
        <ele>269</ele>
        <time>2021-05-29T11:23:54.621Z</time>
      </trkpt>
      <trkpt lat="46.64859" lon="5.54085">
        <ele>270</ele>
        <time>2021-05-29T11:23:55.622Z</time>
      </trkpt>
      <trkpt lat="46.64858" lon="5.54088">
        <ele>270</ele>
        <time>2021-05-29T11:23:56.622Z</time>
      </trkpt>
      <trkpt lat="46.64858" lon="5.54092">
        <ele>270</ele>
        <time>2021-05-29T11:23:57.622Z</time>
      </trkpt>
      <trkpt lat="46.64857" lon="5.54096">
        <ele>270</ele>
        <time>2021-05-29T11:23:58.621Z</time>
      </trkpt>
      <trkpt lat="46.64856" lon="5.54099">
        <ele>269</ele>
        <time>2021-05-29T11:23:59.622Z</time>
      </trkpt>
      <trkpt lat="46.64855" lon="5.54102">
        <ele>269</ele>
        <time>2021-05-29T11:24:00.622Z</time>
      </trkpt>
      <trkpt lat="46.64854" lon="5.54106">
        <ele>270</ele>
        <time>2021-05-29T11:24:01.622Z</time>
      </trkpt>
      <trkpt lat="46.64853" lon="5.54109">
        <ele>270</ele>
        <time>2021-05-29T11:24:02.622Z</time>
      </trkpt>
      <trkpt lat="46.64853" lon="5.54112">
        <ele>271</ele>
        <time>2021-05-29T11:24:03.622Z</time>
      </trkpt>
      <trkpt lat="46.64853" lon="5.54114">
        <ele>271</ele>
        <time>2021-05-29T11:24:04.622Z</time>
      </trkpt>
      <trkpt lat="46.64852" lon="5.54114">
        <ele>271</ele>
        <time>2021-05-29T11:24:05.622Z</time>
      </trkpt>
      <trkpt lat="46.64852" lon="5.54115">
        <ele>271</ele>
        <time>2021-05-29T11:24:06.622Z</time>
      </trkpt>
      <trkpt lat="46.64852" lon="5.54115">
        <ele>271</ele>
        <time>2021-05-29T11:24:07.621Z</time>
      </trkpt>
      <trkpt lat="46.64852" lon="5.54115">
        <ele>271</ele>
        <time>2021-05-29T11:24:08.622Z</time>
      </trkpt>
      <trkpt lat="46.64853" lon="5.54116">
        <ele>271</ele>
        <time>2021-05-29T11:24:09.622Z</time>
      </trkpt>
      <trkpt lat="46.64853" lon="5.54119">
        <ele>271</ele>
        <time>2021-05-29T11:24:10.622Z</time>
      </trkpt>
      <trkpt lat="46.64854" lon="5.54121">
        <ele>271</ele>
        <time>2021-05-29T11:24:11.622Z</time>
      </trkpt>
      <trkpt lat="46.64854" lon="5.54123">
        <ele>271</ele>
        <time>2021-05-29T11:24:12.622Z</time>
      </trkpt>
      <trkpt lat="46.64855" lon="5.54126">
        <ele>271</ele>
        <time>2021-05-29T11:24:13.622Z</time>
      </trkpt>
      <trkpt lat="46.64855" lon="5.54129">
        <ele>271</ele>
        <time>2021-05-29T11:24:14.622Z</time>
      </trkpt>
      <trkpt lat="46.64855" lon="5.54132">
        <ele>271</ele>
        <time>2021-05-29T11:24:15.622Z</time>
      </trkpt>
      <trkpt lat="46.64856" lon="5.54135">
        <ele>271</ele>
        <time>2021-05-29T11:24:16.621Z</time>
      </trkpt>
      <trkpt lat="46.64857" lon="5.54138">
        <ele>271</ele>
        <time>2021-05-29T11:24:17.622Z</time>
      </trkpt>
      <trkpt lat="46.64858" lon="5.54142">
        <ele>271</ele>
        <time>2021-05-29T11:24:18.622Z</time>
      </trkpt>
      <trkpt lat="46.64858" lon="5.54145">
        <ele>271</ele>
        <time>2021-05-29T11:24:19.622Z</time>
      </trkpt>
      <trkpt lat="46.64859" lon="5.54148">
        <ele>272</ele>
        <time>2021-05-29T11:24:20.621Z</time>
      </trkpt>
      <trkpt lat="46.64859" lon="5.54151">
        <ele>272</ele>
        <time>2021-05-29T11:24:21.622Z</time>
      </trkpt>
      <trkpt lat="46.64859" lon="5.54155">
        <ele>272</ele>
        <time>2021-05-29T11:24:22.622Z</time>
      </trkpt>
      <trkpt lat="46.64859" lon="5.54159">
        <ele>273</ele>
        <time>2021-05-29T11:24:23.622Z</time>
      </trkpt>
      <trkpt lat="46.64859" lon="5.54163">
        <ele>273</ele>
        <time>2021-05-29T11:24:24.622Z</time>
      </trkpt>
      <trkpt lat="46.64859" lon="5.54166">
        <ele>273</ele>
        <time>2021-05-29T11:24:25.622Z</time>
      </trkpt>
      <trkpt lat="46.64859" lon="5.54168">
        <ele>273</ele>
        <time>2021-05-29T11:24:26.622Z</time>
      </trkpt>
      <trkpt lat="46.64859" lon="5.54169">
        <ele>273</ele>
        <time>2021-05-29T11:24:27.622Z</time>
      </trkpt>
      <trkpt lat="46.64859" lon="5.5417">
        <ele>273</ele>
        <time>2021-05-29T11:24:28.622Z</time>
      </trkpt>
      <trkpt lat="46.64859" lon="5.5417">
        <ele>272</ele>
        <time>2021-05-29T11:24:29.622Z</time>
      </trkpt>
      <trkpt lat="46.64859" lon="5.5417">
        <ele>271</ele>
        <time>2021-05-29T11:24:30.622Z</time>
      </trkpt>
      <trkpt lat="46.64859" lon="5.54171">
        <ele>270</ele>
        <time>2021-05-29T11:24:31.622Z</time>
      </trkpt>
      <trkpt lat="46.64859" lon="5.54173">
        <ele>270</ele>
        <time>2021-05-29T11:24:32.622Z</time>
      </trkpt>
      <trkpt lat="46.64858" lon="5.54175">
        <ele>270</ele>
        <time>2021-05-29T11:24:33.622Z</time>
      </trkpt>
      <trkpt lat="46.64858" lon="5.54178">
        <ele>270</ele>
        <time>2021-05-29T11:24:34.621Z</time>
      </trkpt>
      <trkpt lat="46.64857" lon="5.54182">
        <ele>271</ele>
        <time>2021-05-29T11:24:35.622Z</time>
      </trkpt>
      <trkpt lat="46.64856" lon="5.54186">
        <ele>271</ele>
        <time>2021-05-29T11:24:36.622Z</time>
      </trkpt>
      <trkpt lat="46.64856" lon="5.54189">
        <ele>272</ele>
        <time>2021-05-29T11:24:37.622Z</time>
      </trkpt>
      <trkpt lat="46.64855" lon="5.54194">
        <ele>272</ele>
        <time>2021-05-29T11:24:38.622Z</time>
      </trkpt>
      <trkpt lat="46.64854" lon="5.54198">
        <ele>273</ele>
        <time>2021-05-29T11:24:39.621Z</time>
      </trkpt>
      <trkpt lat="46.64853" lon="5.54201">
        <ele>273</ele>
        <time>2021-05-29T11:24:40.622Z</time>
      </trkpt>
      <trkpt lat="46.64852" lon="5.54205">
        <ele>273</ele>
        <time>2021-05-29T11:24:41.621Z</time>
      </trkpt>
      <trkpt lat="46.64852" lon="5.54209">
        <ele>273</ele>
        <time>2021-05-29T11:24:42.621Z</time>
      </trkpt>
      <trkpt lat="46.64852" lon="5.54213">
        <ele>273</ele>
        <time>2021-05-29T11:24:43.622Z</time>
      </trkpt>
      <trkpt lat="46.64851" lon="5.54217">
        <ele>273</ele>
        <time>2021-05-29T11:24:44.622Z</time>
      </trkpt>
      <trkpt lat="46.6485" lon="5.54221">
        <ele>272</ele>
        <time>2021-05-29T11:24:45.622Z</time>
      </trkpt>
      <trkpt lat="46.64849" lon="5.54224">
        <ele>272</ele>
        <time>2021-05-29T11:24:46.622Z</time>
      </trkpt>
      <trkpt lat="46.64848" lon="5.54227">
        <ele>271</ele>
        <time>2021-05-29T11:24:47.622Z</time>
      </trkpt>
      <trkpt lat="46.64847" lon="5.54231">
        <ele>271</ele>
        <time>2021-05-29T11:24:48.622Z</time>
      </trkpt>
      <trkpt lat="46.64846" lon="5.54234">
        <ele>271</ele>
        <time>2021-05-29T11:24:49.622Z</time>
      </trkpt>
      <trkpt lat="46.64845" lon="5.54237">
        <ele>271</ele>
        <time>2021-05-29T11:24:50.622Z</time>
      </trkpt>
      <trkpt lat="46.64844" lon="5.5424">
        <ele>271</ele>
        <time>2021-05-29T11:24:51.622Z</time>
      </trkpt>
      <trkpt lat="46.64844" lon="5.54244">
        <ele>271</ele>
        <time>2021-05-29T11:24:52.622Z</time>
      </trkpt>
      <trkpt lat="46.64843" lon="5.54248">
        <ele>271</ele>
        <time>2021-05-29T11:24:53.621Z</time>
      </trkpt>
      <trkpt lat="46.64843" lon="5.54251">
        <ele>271</ele>
        <time>2021-05-29T11:24:54.622Z</time>
      </trkpt>
      <trkpt lat="46.64842" lon="5.54255">
        <ele>272</ele>
        <time>2021-05-29T11:24:55.622Z</time>
      </trkpt>
      <trkpt lat="46.64841" lon="5.54259">
        <ele>272</ele>
        <time>2021-05-29T11:24:56.622Z</time>
      </trkpt>
      <trkpt lat="46.6484" lon="5.54262">
        <ele>272</ele>
        <time>2021-05-29T11:24:57.621Z</time>
      </trkpt>
      <trkpt lat="46.6484" lon="5.54266">
        <ele>273</ele>
        <time>2021-05-29T11:24:58.622Z</time>
      </trkpt>
      <trkpt lat="46.64839" lon="5.54269">
        <ele>273</ele>
        <time>2021-05-29T11:24:59.622Z</time>
      </trkpt>
      <trkpt lat="46.64838" lon="5.54272">
        <ele>273</ele>
        <time>2021-05-29T11:25:00.621Z</time>
      </trkpt>
      <trkpt lat="46.64836" lon="5.54275">
        <ele>274</ele>
        <time>2021-05-29T11:25:01.621Z</time>
      </trkpt>
      <trkpt lat="46.64835" lon="5.54278">
        <ele>274</ele>
        <time>2021-05-29T11:25:02.622Z</time>
      </trkpt>
      <trkpt lat="46.64834" lon="5.5428">
        <ele>274</ele>
        <time>2021-05-29T11:25:03.622Z</time>
      </trkpt>
      <trkpt lat="46.64833" lon="5.54282">
        <ele>274</ele>
        <time>2021-05-29T11:25:35.915Z</time>
      </trkpt>
      <trkpt lat="46.64832" lon="5.54284">
        <ele>274</ele>
        <time>2021-05-29T11:25:36.914Z</time>
      </trkpt>
      <trkpt lat="46.64831" lon="5.54286">
        <ele>274</ele>
        <time>2021-05-29T11:25:37.915Z</time>
      </trkpt>
      <trkpt lat="46.6483" lon="5.54289">
        <ele>273</ele>
        <time>2021-05-29T11:25:38.914Z</time>
      </trkpt>
      <trkpt lat="46.64829" lon="5.54291">
        <ele>273</ele>
        <time>2021-05-29T11:25:39.915Z</time>
      </trkpt>
      <trkpt lat="46.64828" lon="5.54294">
        <ele>273</ele>
        <time>2021-05-29T11:25:40.914Z</time>
      </trkpt>
      <trkpt lat="46.64827" lon="5.54297">
        <ele>273</ele>
        <time>2021-05-29T11:25:41.915Z</time>
      </trkpt>
      <trkpt lat="46.64826" lon="5.543">
        <ele>273</ele>
        <time>2021-05-29T11:25:42.915Z</time>
      </trkpt>
      <trkpt lat="46.64825" lon="5.54302">
        <ele>273</ele>
        <time>2021-05-29T11:25:43.915Z</time>
      </trkpt>
      <trkpt lat="46.64824" lon="5.54305">
        <ele>274</ele>
        <time>2021-05-29T11:25:44.915Z</time>
      </trkpt>
      <trkpt lat="46.64823" lon="5.54308">
        <ele>274</ele>
        <time>2021-05-29T11:25:45.915Z</time>
      </trkpt>
      <trkpt lat="46.64822" lon="5.54312">
        <ele>274</ele>
        <time>2021-05-29T11:25:46.915Z</time>
      </trkpt>
      <trkpt lat="46.64821" lon="5.54315">
        <ele>275</ele>
        <time>2021-05-29T11:25:47.915Z</time>
      </trkpt>
      <trkpt lat="46.6482" lon="5.54318">
        <ele>275</ele>
        <time>2021-05-29T11:25:48.915Z</time>
      </trkpt>
      <trkpt lat="46.64819" lon="5.5432">
        <ele>276</ele>
        <time>2021-05-29T11:25:49.915Z</time>
      </trkpt>
      <trkpt lat="46.64818" lon="5.54323">
        <ele>276</ele>
        <time>2021-05-29T11:25:50.915Z</time>
      </trkpt>
      <trkpt lat="46.64818" lon="5.54326">
        <ele>276</ele>
        <time>2021-05-29T11:25:51.915Z</time>
      </trkpt>
      <trkpt lat="46.64817" lon="5.54328">
        <ele>276</ele>
        <time>2021-05-29T11:25:52.915Z</time>
      </trkpt>
      <trkpt lat="46.64816" lon="5.54331">
        <ele>277</ele>
        <time>2021-05-29T11:25:53.915Z</time>
      </trkpt>
      <trkpt lat="46.64816" lon="5.54334">
        <ele>276</ele>
        <time>2021-05-29T11:25:54.915Z</time>
      </trkpt>
      <trkpt lat="46.64815" lon="5.54338">
        <ele>276</ele>
        <time>2021-05-29T11:25:55.914Z</time>
      </trkpt>
      <trkpt lat="46.64814" lon="5.54341">
        <ele>276</ele>
        <time>2021-05-29T11:25:56.915Z</time>
      </trkpt>
      <trkpt lat="46.64813" lon="5.54344">
        <ele>276</ele>
        <time>2021-05-29T11:25:57.915Z</time>
      </trkpt>
      <trkpt lat="46.64813" lon="5.54346">
        <ele>276</ele>
        <time>2021-05-29T11:25:58.914Z</time>
      </trkpt>
      <trkpt lat="46.64812" lon="5.54349">
        <ele>276</ele>
        <time>2021-05-29T11:25:59.915Z</time>
      </trkpt>
      <trkpt lat="46.64811" lon="5.54352">
        <ele>275</ele>
        <time>2021-05-29T11:26:00.915Z</time>
      </trkpt>
      <trkpt lat="46.6481" lon="5.54356">
        <ele>275</ele>
        <time>2021-05-29T11:26:01.915Z</time>
      </trkpt>
      <trkpt lat="46.64809" lon="5.54359">
        <ele>275</ele>
        <time>2021-05-29T11:26:02.915Z</time>
      </trkpt>
      <trkpt lat="46.64808" lon="5.54361">
        <ele>276</ele>
        <time>2021-05-29T11:26:03.915Z</time>
      </trkpt>
      <trkpt lat="46.64808" lon="5.54364">
        <ele>276</ele>
        <time>2021-05-29T11:26:04.915Z</time>
      </trkpt>
      <trkpt lat="46.64807" lon="5.54367">
        <ele>276</ele>
        <time>2021-05-29T11:26:05.915Z</time>
      </trkpt>
      <trkpt lat="46.64807" lon="5.5437">
        <ele>276</ele>
        <time>2021-05-29T11:26:06.915Z</time>
      </trkpt>
      <trkpt lat="46.64807" lon="5.54374">
        <ele>276</ele>
        <time>2021-05-29T11:26:07.915Z</time>
      </trkpt>
      <trkpt lat="46.64807" lon="5.54378">
        <ele>275</ele>
        <time>2021-05-29T11:26:08.915Z</time>
      </trkpt>
      <trkpt lat="46.64807" lon="5.54381">
        <ele>275</ele>
        <time>2021-05-29T11:26:09.915Z</time>
      </trkpt>
      <trkpt lat="46.64807" lon="5.54385">
        <ele>275</ele>
        <time>2021-05-29T11:26:10.915Z</time>
      </trkpt>
      <trkpt lat="46.64807" lon="5.54389">
        <ele>275</ele>
        <time>2021-05-29T11:26:11.915Z</time>
      </trkpt>
      <trkpt lat="46.64806" lon="5.54394">
        <ele>275</ele>
        <time>2021-05-29T11:26:12.915Z</time>
      </trkpt>
      <trkpt lat="46.64806" lon="5.54397">
        <ele>274</ele>
        <time>2021-05-29T11:26:13.915Z</time>
      </trkpt>
      <trkpt lat="46.64806" lon="5.544">
        <ele>274</ele>
        <time>2021-05-29T11:26:14.915Z</time>
      </trkpt>
      <trkpt lat="46.64805" lon="5.54404">
        <ele>274</ele>
        <time>2021-05-29T11:26:15.915Z</time>
      </trkpt>
      <trkpt lat="46.64804" lon="5.54407">
        <ele>274</ele>
        <time>2021-05-29T11:26:16.915Z</time>
      </trkpt>
      <trkpt lat="46.64804" lon="5.5441">
        <ele>274</ele>
        <time>2021-05-29T11:26:17.915Z</time>
      </trkpt>
      <trkpt lat="46.64803" lon="5.54413">
        <ele>274</ele>
        <time>2021-05-29T11:26:18.915Z</time>
      </trkpt>
      <trkpt lat="46.64802" lon="5.54415">
        <ele>274</ele>
        <time>2021-05-29T11:26:19.915Z</time>
      </trkpt>
      <trkpt lat="46.64801" lon="5.54418">
        <ele>274</ele>
        <time>2021-05-29T11:26:20.915Z</time>
      </trkpt>
      <trkpt lat="46.648" lon="5.54422">
        <ele>274</ele>
        <time>2021-05-29T11:26:21.915Z</time>
      </trkpt>
      <trkpt lat="46.64799" lon="5.54425">
        <ele>275</ele>
        <time>2021-05-29T11:26:22.914Z</time>
      </trkpt>
      <trkpt lat="46.64799" lon="5.54429">
        <ele>275</ele>
        <time>2021-05-29T11:26:23.914Z</time>
      </trkpt>
      <trkpt lat="46.64798" lon="5.54432">
        <ele>274</ele>
        <time>2021-05-29T11:26:24.915Z</time>
      </trkpt>
      <trkpt lat="46.64797" lon="5.54435">
        <ele>274</ele>
        <time>2021-05-29T11:26:25.915Z</time>
      </trkpt>
      <trkpt lat="46.64796" lon="5.54437">
        <ele>274</ele>
        <time>2021-05-29T11:26:26.915Z</time>
      </trkpt>
      <trkpt lat="46.64796" lon="5.54439">
        <ele>274</ele>
        <time>2021-05-29T11:26:27.915Z</time>
      </trkpt>
      <trkpt lat="46.64795" lon="5.54442">
        <ele>274</ele>
        <time>2021-05-29T11:26:28.915Z</time>
      </trkpt>
      <trkpt lat="46.64794" lon="5.54445">
        <ele>274</ele>
        <time>2021-05-29T11:26:29.915Z</time>
      </trkpt>
      <trkpt lat="46.64794" lon="5.54448">
        <ele>274</ele>
        <time>2021-05-29T11:26:30.915Z</time>
      </trkpt>
      <trkpt lat="46.64793" lon="5.54451">
        <ele>274</ele>
        <time>2021-05-29T11:26:31.915Z</time>
      </trkpt>
      <trkpt lat="46.64792" lon="5.54453">
        <ele>274</ele>
        <time>2021-05-29T11:26:32.914Z</time>
      </trkpt>
      <trkpt lat="46.64792" lon="5.54456">
        <ele>274</ele>
        <time>2021-05-29T11:26:33.915Z</time>
      </trkpt>
      <trkpt lat="46.64791" lon="5.54459">
        <ele>273</ele>
        <time>2021-05-29T11:26:34.915Z</time>
      </trkpt>
      <trkpt lat="46.6479" lon="5.54462">
        <ele>273</ele>
        <time>2021-05-29T11:26:35.915Z</time>
      </trkpt>
      <trkpt lat="46.6479" lon="5.54465">
        <ele>273</ele>
        <time>2021-05-29T11:26:36.915Z</time>
      </trkpt>
      <trkpt lat="46.64789" lon="5.54469">
        <ele>273</ele>
        <time>2021-05-29T11:26:37.915Z</time>
      </trkpt>
      <trkpt lat="46.64788" lon="5.54472">
        <ele>273</ele>
        <time>2021-05-29T11:26:38.915Z</time>
      </trkpt>
      <trkpt lat="46.64787" lon="5.54476">
        <ele>273</ele>
        <time>2021-05-29T11:26:39.915Z</time>
      </trkpt>
      <trkpt lat="46.64786" lon="5.54479">
        <ele>272</ele>
        <time>2021-05-29T11:26:40.914Z</time>
      </trkpt>
      <trkpt lat="46.64785" lon="5.54482">
        <ele>272</ele>
        <time>2021-05-29T11:26:41.915Z</time>
      </trkpt>
      <trkpt lat="46.64784" lon="5.54485">
        <ele>273</ele>
        <time>2021-05-29T11:26:42.915Z</time>
      </trkpt>
      <trkpt lat="46.64783" lon="5.54488">
        <ele>273</ele>
        <time>2021-05-29T11:26:43.915Z</time>
      </trkpt>
      <trkpt lat="46.64781" lon="5.54491">
        <ele>273</ele>
        <time>2021-05-29T11:26:44.915Z</time>
      </trkpt>
      <trkpt lat="46.64779" lon="5.54493">
        <ele>273</ele>
        <time>2021-05-29T11:26:45.915Z</time>
      </trkpt>
      <trkpt lat="46.64778" lon="5.54495">
        <ele>273</ele>
        <time>2021-05-29T11:26:46.914Z</time>
      </trkpt>
      <trkpt lat="46.64776" lon="5.54497">
        <ele>273</ele>
        <time>2021-05-29T11:26:47.915Z</time>
      </trkpt>
      <trkpt lat="46.64775" lon="5.54499">
        <ele>273</ele>
        <time>2021-05-29T11:26:48.915Z</time>
      </trkpt>
      <trkpt lat="46.64773" lon="5.545">
        <ele>273</ele>
        <time>2021-05-29T11:26:49.914Z</time>
      </trkpt>
      <trkpt lat="46.6477" lon="5.54502">
        <ele>273</ele>
        <time>2021-05-29T11:26:50.915Z</time>
      </trkpt>
      <trkpt lat="46.64768" lon="5.54505">
        <ele>273</ele>
        <time>2021-05-29T11:26:51.915Z</time>
      </trkpt>
      <trkpt lat="46.64767" lon="5.54506">
        <ele>273</ele>
        <time>2021-05-29T11:26:52.915Z</time>
      </trkpt>
      <trkpt lat="46.64766" lon="5.54509">
        <ele>273</ele>
        <time>2021-05-29T11:26:53.915Z</time>
      </trkpt>
      <trkpt lat="46.64765" lon="5.54512">
        <ele>273</ele>
        <time>2021-05-29T11:26:54.915Z</time>
      </trkpt>
      <trkpt lat="46.64765" lon="5.54516">
        <ele>273</ele>
        <time>2021-05-29T11:26:55.914Z</time>
      </trkpt>
      <trkpt lat="46.64764" lon="5.54519">
        <ele>273</ele>
        <time>2021-05-29T11:26:56.915Z</time>
      </trkpt>
      <trkpt lat="46.64763" lon="5.54523">
        <ele>274</ele>
        <time>2021-05-29T11:26:57.915Z</time>
      </trkpt>
      <trkpt lat="46.64762" lon="5.54526">
        <ele>274</ele>
        <time>2021-05-29T11:26:58.915Z</time>
      </trkpt>
      <trkpt lat="46.64762" lon="5.54529">
        <ele>274</ele>
        <time>2021-05-29T11:26:59.915Z</time>
      </trkpt>
      <trkpt lat="46.64762" lon="5.54532">
        <ele>274</ele>
        <time>2021-05-29T11:27:00.914Z</time>
      </trkpt>
      <trkpt lat="46.64761" lon="5.54535">
        <ele>274</ele>
        <time>2021-05-29T11:27:01.915Z</time>
      </trkpt>
      <trkpt lat="46.64761" lon="5.54538">
        <ele>274</ele>
        <time>2021-05-29T11:27:02.915Z</time>
      </trkpt>
      <trkpt lat="46.6476" lon="5.54541">
        <ele>275</ele>
        <time>2021-05-29T11:27:03.915Z</time>
      </trkpt>
      <trkpt lat="46.64759" lon="5.54544">
        <ele>275</ele>
        <time>2021-05-29T11:27:04.915Z</time>
      </trkpt>
      <trkpt lat="46.64759" lon="5.54547">
        <ele>275</ele>
        <time>2021-05-29T11:27:05.915Z</time>
      </trkpt>
      <trkpt lat="46.64758" lon="5.5455">
        <ele>276</ele>
        <time>2021-05-29T11:27:06.915Z</time>
      </trkpt>
      <trkpt lat="46.64757" lon="5.54554">
        <ele>276</ele>
        <time>2021-05-29T11:27:07.915Z</time>
      </trkpt>
      <trkpt lat="46.64756" lon="5.54557">
        <ele>277</ele>
        <time>2021-05-29T11:27:08.915Z</time>
      </trkpt>
      <trkpt lat="46.64754" lon="5.5456">
        <ele>277</ele>
        <time>2021-05-29T11:27:09.915Z</time>
      </trkpt>
      <trkpt lat="46.64753" lon="5.54563">
        <ele>278</ele>
        <time>2021-05-29T11:27:10.915Z</time>
      </trkpt>
      <trkpt lat="46.64752" lon="5.54566">
        <ele>278</ele>
        <time>2021-05-29T11:27:11.915Z</time>
      </trkpt>
      <trkpt lat="46.64751" lon="5.54568">
        <ele>278</ele>
        <time>2021-05-29T11:27:12.915Z</time>
      </trkpt>
      <trkpt lat="46.64749" lon="5.54571">
        <ele>279</ele>
        <time>2021-05-29T11:27:13.915Z</time>
      </trkpt>
      <trkpt lat="46.64748" lon="5.54574">
        <ele>279</ele>
        <time>2021-05-29T11:27:14.914Z</time>
      </trkpt>
      <trkpt lat="46.64747" lon="5.54577">
        <ele>279</ele>
        <time>2021-05-29T11:27:15.915Z</time>
      </trkpt>
      <trkpt lat="46.64746" lon="5.5458">
        <ele>279</ele>
        <time>2021-05-29T11:27:16.914Z</time>
      </trkpt>
      <trkpt lat="46.64745" lon="5.54583">
        <ele>279</ele>
        <time>2021-05-29T11:27:17.915Z</time>
      </trkpt>
      <trkpt lat="46.64744" lon="5.54587">
        <ele>279</ele>
        <time>2021-05-29T11:27:18.915Z</time>
      </trkpt>
      <trkpt lat="46.64743" lon="5.54589">
        <ele>279</ele>
        <time>2021-05-29T11:27:19.915Z</time>
      </trkpt>
      <trkpt lat="46.64742" lon="5.54592">
        <ele>278</ele>
        <time>2021-05-29T11:27:20.915Z</time>
      </trkpt>
      <trkpt lat="46.64741" lon="5.54595">
        <ele>278</ele>
        <time>2021-05-29T11:27:21.915Z</time>
      </trkpt>
      <trkpt lat="46.6474" lon="5.54598">
        <ele>277</ele>
        <time>2021-05-29T11:27:22.915Z</time>
      </trkpt>
      <trkpt lat="46.64738" lon="5.54601">
        <ele>277</ele>
        <time>2021-05-29T11:27:23.915Z</time>
      </trkpt>
      <trkpt lat="46.64738" lon="5.54604">
        <ele>277</ele>
        <time>2021-05-29T11:27:24.914Z</time>
      </trkpt>
      <trkpt lat="46.64737" lon="5.54607">
        <ele>277</ele>
        <time>2021-05-29T11:27:25.915Z</time>
      </trkpt>
      <trkpt lat="46.64736" lon="5.5461">
        <ele>277</ele>
        <time>2021-05-29T11:27:26.914Z</time>
      </trkpt>
      <trkpt lat="46.64736" lon="5.54613">
        <ele>276</ele>
        <time>2021-05-29T11:27:27.914Z</time>
      </trkpt>
      <trkpt lat="46.64736" lon="5.54616">
        <ele>276</ele>
        <time>2021-05-29T11:27:28.915Z</time>
      </trkpt>
      <trkpt lat="46.64737" lon="5.54619">
        <ele>276</ele>
        <time>2021-05-29T11:27:29.915Z</time>
      </trkpt>
      <trkpt lat="46.64737" lon="5.54622">
        <ele>275</ele>
        <time>2021-05-29T11:27:30.915Z</time>
      </trkpt>
      <trkpt lat="46.64738" lon="5.54626">
        <ele>276</ele>
        <time>2021-05-29T11:27:31.915Z</time>
      </trkpt>
      <trkpt lat="46.64739" lon="5.54629">
        <ele>276</ele>
        <time>2021-05-29T11:27:32.915Z</time>
      </trkpt>
      <trkpt lat="46.64739" lon="5.54631">
        <ele>276</ele>
        <time>2021-05-29T11:27:33.915Z</time>
      </trkpt>
      <trkpt lat="46.6474" lon="5.54635">
        <ele>276</ele>
        <time>2021-05-29T11:27:34.915Z</time>
      </trkpt>
      <trkpt lat="46.64741" lon="5.54638">
        <ele>276</ele>
        <time>2021-05-29T11:27:35.914Z</time>
      </trkpt>
      <trkpt lat="46.64742" lon="5.54641">
        <ele>277</ele>
        <time>2021-05-29T11:27:36.915Z</time>
      </trkpt>
      <trkpt lat="46.64742" lon="5.54644">
        <ele>277</ele>
        <time>2021-05-29T11:27:37.915Z</time>
      </trkpt>
      <trkpt lat="46.64742" lon="5.54647">
        <ele>277</ele>
        <time>2021-05-29T11:27:38.915Z</time>
      </trkpt>
      <trkpt lat="46.64742" lon="5.5465">
        <ele>277</ele>
        <time>2021-05-29T11:27:39.915Z</time>
      </trkpt>
      <trkpt lat="46.64743" lon="5.54654">
        <ele>277</ele>
        <time>2021-05-29T11:27:40.915Z</time>
      </trkpt>
      <trkpt lat="46.64743" lon="5.54658">
        <ele>277</ele>
        <time>2021-05-29T11:27:41.915Z</time>
      </trkpt>
      <trkpt lat="46.64744" lon="5.5466">
        <ele>278</ele>
        <time>2021-05-29T11:27:42.914Z</time>
      </trkpt>
      <trkpt lat="46.64744" lon="5.54663">
        <ele>278</ele>
        <time>2021-05-29T11:27:43.915Z</time>
      </trkpt>
      <trkpt lat="46.64744" lon="5.54666">
        <ele>278</ele>
        <time>2021-05-29T11:27:44.915Z</time>
      </trkpt>
      <trkpt lat="46.64745" lon="5.54669">
        <ele>278</ele>
        <time>2021-05-29T11:27:45.915Z</time>
      </trkpt>
      <trkpt lat="46.64745" lon="5.54672">
        <ele>278</ele>
        <time>2021-05-29T11:27:46.915Z</time>
      </trkpt>
      <trkpt lat="46.64745" lon="5.54675">
        <ele>279</ele>
        <time>2021-05-29T11:27:47.915Z</time>
      </trkpt>
      <trkpt lat="46.64744" lon="5.54678">
        <ele>279</ele>
        <time>2021-05-29T11:27:48.915Z</time>
      </trkpt>
      <trkpt lat="46.64744" lon="5.54681">
        <ele>279</ele>
        <time>2021-05-29T11:27:49.915Z</time>
      </trkpt>
      <trkpt lat="46.64744" lon="5.54684">
        <ele>279</ele>
        <time>2021-05-29T11:27:50.914Z</time>
      </trkpt>
      <trkpt lat="46.64744" lon="5.54686">
        <ele>280</ele>
        <time>2021-05-29T11:27:51.915Z</time>
      </trkpt>
      <trkpt lat="46.64743" lon="5.54689">
        <ele>280</ele>
        <time>2021-05-29T11:27:52.915Z</time>
      </trkpt>
      <trkpt lat="46.64742" lon="5.54694">
        <ele>280</ele>
        <time>2021-05-29T11:27:53.915Z</time>
      </trkpt>
      <trkpt lat="46.64741" lon="5.54697">
        <ele>280</ele>
        <time>2021-05-29T11:27:54.915Z</time>
      </trkpt>
      <trkpt lat="46.64741" lon="5.547">
        <ele>280</ele>
        <time>2021-05-29T11:27:55.914Z</time>
      </trkpt>
      <trkpt lat="46.64742" lon="5.54703">
        <ele>280</ele>
        <time>2021-05-29T11:27:56.914Z</time>
      </trkpt>
      <trkpt lat="46.64743" lon="5.54706">
        <ele>280</ele>
        <time>2021-05-29T11:27:57.915Z</time>
      </trkpt>
      <trkpt lat="46.64744" lon="5.54707">
        <ele>280</ele>
        <time>2021-05-29T11:27:58.915Z</time>
      </trkpt>
      <trkpt lat="46.64744" lon="5.54707">
        <ele>279</ele>
        <time>2021-05-29T11:27:59.915Z</time>
      </trkpt>
      <trkpt lat="46.64745" lon="5.54707">
        <ele>279</ele>
        <time>2021-05-29T11:28:00.915Z</time>
      </trkpt>
      <trkpt lat="46.64746" lon="5.54706">
        <ele>279</ele>
        <time>2021-05-29T11:28:01.915Z</time>
      </trkpt>
      <trkpt lat="46.64747" lon="5.54706">
        <ele>279</ele>
        <time>2021-05-29T11:28:02.915Z</time>
      </trkpt>
      <trkpt lat="46.64747" lon="5.54705">
        <ele>279</ele>
        <time>2021-05-29T11:28:03.915Z</time>
      </trkpt>
      <trkpt lat="46.64748" lon="5.54703">
        <ele>279</ele>
        <time>2021-05-29T11:28:04.915Z</time>
      </trkpt>
      <trkpt lat="46.64749" lon="5.54702">
        <ele>279</ele>
        <time>2021-05-29T11:28:05.915Z</time>
      </trkpt>
      <trkpt lat="46.6475" lon="5.547">
        <ele>280</ele>
        <time>2021-05-29T11:28:06.915Z</time>
      </trkpt>
      <trkpt lat="46.64751" lon="5.54699">
        <ele>280</ele>
        <time>2021-05-29T11:28:07.914Z</time>
      </trkpt>
      <trkpt lat="46.64752" lon="5.54698">
        <ele>280</ele>
        <time>2021-05-29T11:28:08.915Z</time>
      </trkpt>
      <trkpt lat="46.64753" lon="5.54697">
        <ele>280</ele>
        <time>2021-05-29T11:28:09.915Z</time>
      </trkpt>
      <trkpt lat="46.64755" lon="5.54696">
        <ele>280</ele>
        <time>2021-05-29T11:28:10.915Z</time>
      </trkpt>
      <trkpt lat="46.64755" lon="5.54696">
        <ele>280</ele>
        <time>2021-05-29T11:28:11.915Z</time>
      </trkpt>
      <trkpt lat="46.64757" lon="5.54696">
        <ele>280</ele>
        <time>2021-05-29T11:28:12.915Z</time>
      </trkpt>
      <trkpt lat="46.64758" lon="5.54697">
        <ele>280</ele>
        <time>2021-05-29T11:28:13.915Z</time>
      </trkpt>
      <trkpt lat="46.64759" lon="5.54698">
        <ele>280</ele>
        <time>2021-05-29T11:28:14.915Z</time>
      </trkpt>
      <trkpt lat="46.6476" lon="5.54699">
        <ele>280</ele>
        <time>2021-05-29T11:28:15.915Z</time>
      </trkpt>
      <trkpt lat="46.64761" lon="5.547">
        <ele>280</ele>
        <time>2021-05-29T11:28:16.915Z</time>
      </trkpt>
      <trkpt lat="46.64761" lon="5.54701">
        <ele>280</ele>
        <time>2021-05-29T11:28:17.915Z</time>
      </trkpt>
      <trkpt lat="46.64761" lon="5.54702">
        <ele>280</ele>
        <time>2021-05-29T11:28:18.915Z</time>
      </trkpt>
      <trkpt lat="46.64762" lon="5.54703">
        <ele>280</ele>
        <time>2021-05-29T11:28:19.914Z</time>
      </trkpt>
      <trkpt lat="46.64762" lon="5.54704">
        <ele>280</ele>
        <time>2021-05-29T11:28:20.915Z</time>
      </trkpt>
      <trkpt lat="46.64762" lon="5.54704">
        <ele>279</ele>
        <time>2021-05-29T11:28:21.914Z</time>
      </trkpt>
      <trkpt lat="46.64763" lon="5.54704">
        <ele>279</ele>
        <time>2021-05-29T11:28:22.915Z</time>
      </trkpt>
      <trkpt lat="46.64764" lon="5.54705">
        <ele>279</ele>
        <time>2021-05-29T11:28:23.915Z</time>
      </trkpt>
      <trkpt lat="46.64765" lon="5.54706">
        <ele>279</ele>
        <time>2021-05-29T11:28:24.914Z</time>
      </trkpt>
      <trkpt lat="46.64766" lon="5.54707">
        <ele>280</ele>
        <time>2021-05-29T11:28:25.915Z</time>
      </trkpt>
      <trkpt lat="46.64767" lon="5.54709">
        <ele>279</ele>
        <time>2021-05-29T11:28:26.915Z</time>
      </trkpt>
      <trkpt lat="46.64766" lon="5.54712">
        <ele>279</ele>
        <time>2021-05-29T11:28:27.915Z</time>
      </trkpt>
      <trkpt lat="46.64767" lon="5.54714">
        <ele>279</ele>
        <time>2021-05-29T11:28:28.915Z</time>
      </trkpt>
      <trkpt lat="46.64767" lon="5.54717">
        <ele>279</ele>
        <time>2021-05-29T11:28:29.915Z</time>
      </trkpt>
      <trkpt lat="46.64767" lon="5.54719">
        <ele>279</ele>
        <time>2021-05-29T11:28:30.914Z</time>
      </trkpt>
      <trkpt lat="46.64768" lon="5.54721">
        <ele>279</ele>
        <time>2021-05-29T11:28:31.915Z</time>
      </trkpt>
      <trkpt lat="46.64768" lon="5.54723">
        <ele>278</ele>
        <time>2021-05-29T11:28:32.915Z</time>
      </trkpt>
      <trkpt lat="46.64767" lon="5.54724">
        <ele>278</ele>
        <time>2021-05-29T11:28:33.915Z</time>
      </trkpt>
      <trkpt lat="46.64766" lon="5.54724">
        <ele>278</ele>
        <time>2021-05-29T11:28:34.915Z</time>
      </trkpt>
      <trkpt lat="46.64766" lon="5.54724">
        <ele>278</ele>
        <time>2021-05-29T11:28:35.915Z</time>
      </trkpt>
      <trkpt lat="46.64767" lon="5.54725">
        <ele>278</ele>
        <time>2021-05-29T11:28:36.914Z</time>
      </trkpt>
      <trkpt lat="46.64769" lon="5.54726">
        <ele>279</ele>
        <time>2021-05-29T11:28:37.915Z</time>
      </trkpt>
      <trkpt lat="46.64769" lon="5.54726">
        <ele>279</ele>
        <time>2021-05-29T11:28:38.915Z</time>
      </trkpt>
      <trkpt lat="46.64769" lon="5.54728">
        <ele>279</ele>
        <time>2021-05-29T11:28:39.915Z</time>
      </trkpt>
      <trkpt lat="46.6477" lon="5.5473">
        <ele>278</ele>
        <time>2021-05-29T11:28:40.915Z</time>
      </trkpt>
      <trkpt lat="46.6477" lon="5.54732">
        <ele>278</ele>
        <time>2021-05-29T11:28:41.915Z</time>
      </trkpt>
      <trkpt lat="46.6477" lon="5.54734">
        <ele>278</ele>
        <time>2021-05-29T11:28:42.915Z</time>
      </trkpt>
      <trkpt lat="46.6477" lon="5.54735">
        <ele>278</ele>
        <time>2021-05-29T11:28:43.915Z</time>
      </trkpt>
      <trkpt lat="46.6477" lon="5.54735">
        <ele>278</ele>
        <time>2021-05-29T11:28:44.915Z</time>
      </trkpt>
      <trkpt lat="46.64771" lon="5.54736">
        <ele>278</ele>
        <time>2021-05-29T11:28:45.915Z</time>
      </trkpt>
      <trkpt lat="46.64772" lon="5.54738">
        <ele>279</ele>
        <time>2021-05-29T11:28:46.915Z</time>
      </trkpt>
      <trkpt lat="46.64773" lon="5.5474">
        <ele>279</ele>
        <time>2021-05-29T11:28:47.915Z</time>
      </trkpt>
      <trkpt lat="46.64773" lon="5.54742">
        <ele>279</ele>
        <time>2021-05-29T11:28:48.914Z</time>
      </trkpt>
      <trkpt lat="46.64774" lon="5.54744">
        <ele>279</ele>
        <time>2021-05-29T11:28:49.915Z</time>
      </trkpt>
      <trkpt lat="46.64775" lon="5.54746">
        <ele>280</ele>
        <time>2021-05-29T11:28:50.914Z</time>
      </trkpt>
      <trkpt lat="46.64777" lon="5.54749">
        <ele>279</ele>
        <time>2021-05-29T11:28:51.915Z</time>
      </trkpt>
      <trkpt lat="46.64778" lon="5.5475">
        <ele>279</ele>
        <time>2021-05-29T11:28:52.915Z</time>
      </trkpt>
      <trkpt lat="46.64781" lon="5.54753">
        <ele>279</ele>
        <time>2021-05-29T11:28:53.914Z</time>
      </trkpt>
      <trkpt lat="46.64783" lon="5.54755">
        <ele>279</ele>
        <time>2021-05-29T11:28:54.915Z</time>
      </trkpt>
      <trkpt lat="46.64784" lon="5.54756">
        <ele>280</ele>
        <time>2021-05-29T11:28:55.915Z</time>
      </trkpt>
      <trkpt lat="46.64786" lon="5.54759">
        <ele>280</ele>
        <time>2021-05-29T11:28:56.915Z</time>
      </trkpt>
      <trkpt lat="46.64788" lon="5.54761">
        <ele>280</ele>
        <time>2021-05-29T11:28:57.914Z</time>
      </trkpt>
      <trkpt lat="46.64789" lon="5.54763">
        <ele>281</ele>
        <time>2021-05-29T11:28:58.915Z</time>
      </trkpt>
      <trkpt lat="46.64791" lon="5.54765">
        <ele>282</ele>
        <time>2021-05-29T11:28:59.915Z</time>
      </trkpt>
      <trkpt lat="46.64793" lon="5.54768">
        <ele>282</ele>
        <time>2021-05-29T11:29:00.915Z</time>
      </trkpt>
      <trkpt lat="46.64794" lon="5.54769">
        <ele>283</ele>
        <time>2021-05-29T11:29:01.914Z</time>
      </trkpt>
      <trkpt lat="46.64795" lon="5.54772">
        <ele>283</ele>
        <time>2021-05-29T11:29:02.914Z</time>
      </trkpt>
      <trkpt lat="46.64796" lon="5.54774">
        <ele>284</ele>
        <time>2021-05-29T11:29:03.914Z</time>
      </trkpt>
      <trkpt lat="46.64798" lon="5.54776">
        <ele>284</ele>
        <time>2021-05-29T11:29:04.915Z</time>
      </trkpt>
      <trkpt lat="46.64799" lon="5.54778">
        <ele>284</ele>
        <time>2021-05-29T11:29:05.914Z</time>
      </trkpt>
      <trkpt lat="46.64799" lon="5.54779">
        <ele>284</ele>
        <time>2021-05-29T11:29:06.915Z</time>
      </trkpt>
      <trkpt lat="46.64799" lon="5.54779">
        <ele>284</ele>
        <time>2021-05-29T11:29:07.915Z</time>
      </trkpt>
      <trkpt lat="46.64799" lon="5.5478">
        <ele>284</ele>
        <time>2021-05-29T11:29:08.915Z</time>
      </trkpt>
      <trkpt lat="46.648" lon="5.54783">
        <ele>283</ele>
        <time>2021-05-29T11:29:09.915Z</time>
      </trkpt>
      <trkpt lat="46.64799" lon="5.54785">
        <ele>283</ele>
        <time>2021-05-29T11:29:10.914Z</time>
      </trkpt>
      <trkpt lat="46.648" lon="5.54785">
        <ele>283</ele>
        <time>2021-05-29T11:29:11.915Z</time>
      </trkpt>
      <trkpt lat="46.64799" lon="5.54785">
        <ele>283</ele>
        <time>2021-05-29T11:29:12.915Z</time>
      </trkpt>
      <trkpt lat="46.64799" lon="5.54784">
        <ele>282</ele>
        <time>2021-05-29T11:29:13.915Z</time>
      </trkpt>
      <trkpt lat="46.64798" lon="5.54784">
        <ele>282</ele>
        <time>2021-05-29T11:29:14.915Z</time>
      </trkpt>
      <trkpt lat="46.64798" lon="5.54784">
        <ele>281</ele>
        <time>2021-05-29T11:29:15.914Z</time>
      </trkpt>
      <trkpt lat="46.64799" lon="5.54785">
        <ele>281</ele>
        <time>2021-05-29T11:29:16.915Z</time>
      </trkpt>
      <trkpt lat="46.64799" lon="5.54786">
        <ele>280</ele>
        <time>2021-05-29T11:29:17.915Z</time>
      </trkpt>
      <trkpt lat="46.648" lon="5.54787">
        <ele>281</ele>
        <time>2021-05-29T11:29:18.914Z</time>
      </trkpt>
      <trkpt lat="46.64801" lon="5.54789">
        <ele>281</ele>
        <time>2021-05-29T11:29:19.914Z</time>
      </trkpt>
      <trkpt lat="46.64803" lon="5.54791">
        <ele>281</ele>
        <time>2021-05-29T11:29:20.914Z</time>
      </trkpt>
      <trkpt lat="46.64805" lon="5.54792">
        <ele>282</ele>
        <time>2021-05-29T11:29:21.915Z</time>
      </trkpt>
      <trkpt lat="46.64806" lon="5.54794">
        <ele>283</ele>
        <time>2021-05-29T11:29:22.915Z</time>
      </trkpt>
      <trkpt lat="46.64808" lon="5.54796">
        <ele>283</ele>
        <time>2021-05-29T11:29:23.915Z</time>
      </trkpt>
      <trkpt lat="46.6481" lon="5.54797">
        <ele>283</ele>
        <time>2021-05-29T11:29:24.915Z</time>
      </trkpt>
      <trkpt lat="46.64811" lon="5.54799">
        <ele>284</ele>
        <time>2021-05-29T11:29:25.915Z</time>
      </trkpt>
      <trkpt lat="46.64812" lon="5.54801">
        <ele>284</ele>
        <time>2021-05-29T11:29:26.915Z</time>
      </trkpt>
      <trkpt lat="46.64813" lon="5.54803">
        <ele>283</ele>
        <time>2021-05-29T11:29:27.915Z</time>
      </trkpt>
      <trkpt lat="46.64813" lon="5.54807">
        <ele>283</ele>
        <time>2021-05-29T11:29:28.915Z</time>
      </trkpt>
      <trkpt lat="46.64814" lon="5.54809">
        <ele>282</ele>
        <time>2021-05-29T11:29:29.915Z</time>
      </trkpt>
      <trkpt lat="46.64814" lon="5.54812">
        <ele>281</ele>
        <time>2021-05-29T11:29:30.915Z</time>
      </trkpt>
      <trkpt lat="46.64814" lon="5.54814">
        <ele>281</ele>
        <time>2021-05-29T11:29:31.915Z</time>
      </trkpt>
      <trkpt lat="46.64815" lon="5.54817">
        <ele>280</ele>
        <time>2021-05-29T11:29:32.915Z</time>
      </trkpt>
      <trkpt lat="46.64816" lon="5.5482">
        <ele>280</ele>
        <time>2021-05-29T11:29:33.915Z</time>
      </trkpt>
      <trkpt lat="46.64816" lon="5.54822">
        <ele>280</ele>
        <time>2021-05-29T11:29:34.915Z</time>
      </trkpt>
      <trkpt lat="46.64817" lon="5.54825">
        <ele>280</ele>
        <time>2021-05-29T11:29:35.915Z</time>
      </trkpt>
      <trkpt lat="46.64817" lon="5.54827">
        <ele>280</ele>
        <time>2021-05-29T11:29:36.915Z</time>
      </trkpt>
      <trkpt lat="46.64818" lon="5.54829">
        <ele>280</ele>
        <time>2021-05-29T11:29:37.915Z</time>
      </trkpt>
      <trkpt lat="46.64818" lon="5.54831">
        <ele>280</ele>
        <time>2021-05-29T11:29:38.915Z</time>
      </trkpt>
      <trkpt lat="46.64818" lon="5.54835">
        <ele>280</ele>
        <time>2021-05-29T11:29:39.915Z</time>
      </trkpt>
      <trkpt lat="46.64818" lon="5.54837">
        <ele>280</ele>
        <time>2021-05-29T11:29:40.915Z</time>
      </trkpt>
      <trkpt lat="46.64818" lon="5.5484">
        <ele>280</ele>
        <time>2021-05-29T11:29:41.915Z</time>
      </trkpt>
      <trkpt lat="46.64818" lon="5.54844">
        <ele>280</ele>
        <time>2021-05-29T11:29:42.915Z</time>
      </trkpt>
      <trkpt lat="46.64819" lon="5.54847">
        <ele>280</ele>
        <time>2021-05-29T11:29:43.915Z</time>
      </trkpt>
      <trkpt lat="46.64819" lon="5.54851">
        <ele>279</ele>
        <time>2021-05-29T11:29:44.915Z</time>
      </trkpt>
      <trkpt lat="46.64819" lon="5.54853">
        <ele>279</ele>
        <time>2021-05-29T11:29:45.915Z</time>
      </trkpt>
      <trkpt lat="46.64819" lon="5.54857">
        <ele>279</ele>
        <time>2021-05-29T11:29:46.915Z</time>
      </trkpt>
      <trkpt lat="46.64818" lon="5.54859">
        <ele>279</ele>
        <time>2021-05-29T11:29:47.915Z</time>
      </trkpt>
      <trkpt lat="46.64818" lon="5.54863">
        <ele>279</ele>
        <time>2021-05-29T11:29:48.915Z</time>
      </trkpt>
      <trkpt lat="46.64817" lon="5.54864">
        <ele>280</ele>
        <time>2021-05-29T11:29:49.915Z</time>
      </trkpt>
      <trkpt lat="46.64816" lon="5.54866">
        <ele>280</ele>
        <time>2021-05-29T11:29:50.915Z</time>
      </trkpt>
      <trkpt lat="46.64816" lon="5.54867">
        <ele>280</ele>
        <time>2021-05-29T11:29:51.915Z</time>
      </trkpt>
      <trkpt lat="46.64813" lon="5.54865">
        <ele>281</ele>
        <time>2021-05-29T11:29:52.915Z</time>
      </trkpt>
      <trkpt lat="46.64813" lon="5.54865">
        <ele>281</ele>
        <time>2021-05-29T11:29:53.915Z</time>
      </trkpt>
      <trkpt lat="46.64813" lon="5.54864">
        <ele>280</ele>
        <time>2021-05-29T11:29:54.915Z</time>
      </trkpt>
      <trkpt lat="46.64813" lon="5.54864">
        <ele>280</ele>
        <time>2021-05-29T11:29:55.914Z</time>
      </trkpt>
      <trkpt lat="46.64814" lon="5.54863">
        <ele>279</ele>
        <time>2021-05-29T11:29:56.914Z</time>
      </trkpt>
      <trkpt lat="46.64814" lon="5.54862">
        <ele>279</ele>
        <time>2021-05-29T11:29:57.915Z</time>
      </trkpt>
      <trkpt lat="46.64814" lon="5.54861">
        <ele>278</ele>
        <time>2021-05-29T11:29:58.915Z</time>
      </trkpt>
      <trkpt lat="46.64813" lon="5.54861">
        <ele>278</ele>
        <time>2021-05-29T11:29:59.914Z</time>
      </trkpt>
      <trkpt lat="46.64813" lon="5.54861">
        <ele>277</ele>
        <time>2021-05-29T11:30:00.915Z</time>
      </trkpt>
      <trkpt lat="46.64813" lon="5.54861">
        <ele>276</ele>
        <time>2021-05-29T11:30:01.914Z</time>
      </trkpt>
      <trkpt lat="46.64813" lon="5.54861">
        <ele>276</ele>
        <time>2021-05-29T11:30:02.914Z</time>
      </trkpt>
      <trkpt lat="46.64813" lon="5.5486">
        <ele>276</ele>
        <time>2021-05-29T11:30:03.915Z</time>
      </trkpt>
      <trkpt lat="46.64812" lon="5.54859">
        <ele>276</ele>
        <time>2021-05-29T11:30:04.915Z</time>
      </trkpt>
      <trkpt lat="46.64813" lon="5.54859">
        <ele>277</ele>
        <time>2021-05-29T11:30:05.914Z</time>
      </trkpt>
      <trkpt lat="46.64813" lon="5.54859">
        <ele>277</ele>
        <time>2021-05-29T11:30:06.915Z</time>
      </trkpt>
      <trkpt lat="46.64814" lon="5.54859">
        <ele>277</ele>
        <time>2021-05-29T11:30:07.915Z</time>
      </trkpt>
      <trkpt lat="46.64814" lon="5.54859">
        <ele>277</ele>
        <time>2021-05-29T11:30:08.915Z</time>
      </trkpt>
      <trkpt lat="46.64814" lon="5.54859">
        <ele>277</ele>
        <time>2021-05-29T11:30:09.914Z</time>
      </trkpt>
      <trkpt lat="46.64814" lon="5.54859">
        <ele>277</ele>
        <time>2021-05-29T11:30:10.915Z</time>
      </trkpt>
      <trkpt lat="46.64814" lon="5.54859">
        <ele>278</ele>
        <time>2021-05-29T11:30:11.914Z</time>
      </trkpt>
      <trkpt lat="46.64813" lon="5.54859">
        <ele>278</ele>
        <time>2021-05-29T11:30:12.915Z</time>
      </trkpt>
      <trkpt lat="46.64813" lon="5.54859">
        <ele>279</ele>
        <time>2021-05-29T11:30:13.915Z</time>
      </trkpt>
      <trkpt lat="46.64813" lon="5.54859">
        <ele>279</ele>
        <time>2021-05-29T11:30:14.915Z</time>
      </trkpt>
      <trkpt lat="46.64813" lon="5.54859">
        <ele>280</ele>
        <time>2021-05-29T11:30:15.915Z</time>
      </trkpt>
      <trkpt lat="46.64813" lon="5.54859">
        <ele>280</ele>
        <time>2021-05-29T11:30:16.914Z</time>
      </trkpt>
      <trkpt lat="46.64813" lon="5.54859">
        <ele>280</ele>
        <time>2021-05-29T11:30:17.914Z</time>
      </trkpt>
      <trkpt lat="46.64813" lon="5.54859">
        <ele>280</ele>
        <time>2021-05-29T11:30:18.915Z</time>
      </trkpt>
      <trkpt lat="46.64813" lon="5.54859">
        <ele>281</ele>
        <time>2021-05-29T11:30:19.914Z</time>
      </trkpt>
      <trkpt lat="46.64813" lon="5.54859">
        <ele>281</ele>
        <time>2021-05-29T11:30:20.915Z</time>
      </trkpt>
      <trkpt lat="46.64813" lon="5.54859">
        <ele>281</ele>
        <time>2021-05-29T11:30:21.915Z</time>
      </trkpt>
      <trkpt lat="46.64813" lon="5.54859">
        <ele>281</ele>
        <time>2021-05-29T11:30:22.915Z</time>
      </trkpt>
      <trkpt lat="46.64813" lon="5.54859">
        <ele>281</ele>
        <time>2021-05-29T11:30:23.915Z</time>
      </trkpt>
      <trkpt lat="46.64813" lon="5.54859">
        <ele>280</ele>
        <time>2021-05-29T11:30:24.915Z</time>
      </trkpt>
      <trkpt lat="46.64813" lon="5.54859">
        <ele>280</ele>
        <time>2021-05-29T11:30:25.915Z</time>
      </trkpt>
      <trkpt lat="46.64813" lon="5.54859">
        <ele>280</ele>
        <time>2021-05-29T11:30:26.915Z</time>
      </trkpt>
      <trkpt lat="46.64813" lon="5.54859">
        <ele>280</ele>
        <time>2021-05-29T11:30:27.915Z</time>
      </trkpt>
      <trkpt lat="46.64813" lon="5.54859">
        <ele>280</ele>
        <time>2021-05-29T11:30:28.915Z</time>
      </trkpt>
      <trkpt lat="46.64813" lon="5.54859">
        <ele>280</ele>
        <time>2021-05-29T11:30:29.915Z</time>
      </trkpt>
      <trkpt lat="46.64813" lon="5.54859">
        <ele>280</ele>
        <time>2021-05-29T11:30:30.914Z</time>
      </trkpt>
      <trkpt lat="46.64813" lon="5.54859">
        <ele>280</ele>
        <time>2021-05-29T11:30:31.915Z</time>
      </trkpt>
      <trkpt lat="46.64814" lon="5.54859">
        <ele>280</ele>
        <time>2021-05-29T11:30:32.915Z</time>
      </trkpt>
      <trkpt lat="46.64814" lon="5.54859">
        <ele>280</ele>
        <time>2021-05-29T11:30:33.915Z</time>
      </trkpt>
      <trkpt lat="46.64814" lon="5.54859">
        <ele>280</ele>
        <time>2021-05-29T11:30:34.914Z</time>
      </trkpt>
      <trkpt lat="46.64814" lon="5.54859">
        <ele>280</ele>
        <time>2021-05-29T11:30:35.914Z</time>
      </trkpt>
      <trkpt lat="46.64814" lon="5.54859">
        <ele>280</ele>
        <time>2021-05-29T11:30:36.915Z</time>
      </trkpt>
      <trkpt lat="46.64814" lon="5.54859">
        <ele>280</ele>
        <time>2021-05-29T11:30:37.915Z</time>
      </trkpt>
      <trkpt lat="46.64814" lon="5.54859">
        <ele>280</ele>
        <time>2021-05-29T11:30:38.915Z</time>
      </trkpt>
      <trkpt lat="46.64814" lon="5.54859">
        <ele>280</ele>
        <time>2021-05-29T11:30:39.914Z</time>
      </trkpt>
      <trkpt lat="46.64813" lon="5.54859">
        <ele>280</ele>
        <time>2021-05-29T11:30:40.914Z</time>
      </trkpt>
      <trkpt lat="46.64813" lon="5.54859">
        <ele>280</ele>
        <time>2021-05-29T11:30:41.915Z</time>
      </trkpt>
      <trkpt lat="46.64813" lon="5.5486">
        <ele>280</ele>
        <time>2021-05-29T11:30:42.915Z</time>
      </trkpt>
      <trkpt lat="46.64813" lon="5.54864">
        <ele>280</ele>
        <time>2021-05-29T11:30:43.915Z</time>
      </trkpt>
      <trkpt lat="46.64813" lon="5.54868">
        <ele>280</ele>
        <time>2021-05-29T11:30:44.915Z</time>
      </trkpt>
      <trkpt lat="46.64814" lon="5.54872">
        <ele>280</ele>
        <time>2021-05-29T11:30:45.915Z</time>
      </trkpt>
      <trkpt lat="46.64813" lon="5.54875">
        <ele>280</ele>
        <time>2021-05-29T11:30:46.914Z</time>
      </trkpt>
      <trkpt lat="46.64813" lon="5.54879">
        <ele>279</ele>
        <time>2021-05-29T11:30:47.915Z</time>
      </trkpt>
      <trkpt lat="46.64812" lon="5.54883">
        <ele>279</ele>
        <time>2021-05-29T11:30:48.915Z</time>
      </trkpt>
      <trkpt lat="46.64812" lon="5.54887">
        <ele>279</ele>
        <time>2021-05-29T11:30:49.915Z</time>
      </trkpt>
      <trkpt lat="46.64811" lon="5.54891">
        <ele>278</ele>
        <time>2021-05-29T11:30:50.915Z</time>
      </trkpt>
      <trkpt lat="46.64811" lon="5.54895">
        <ele>278</ele>
        <time>2021-05-29T11:30:51.914Z</time>
      </trkpt>
      <trkpt lat="46.64811" lon="5.54898">
        <ele>278</ele>
        <time>2021-05-29T11:30:52.914Z</time>
      </trkpt>
      <trkpt lat="46.64811" lon="5.54902">
        <ele>278</ele>
        <time>2021-05-29T11:30:53.915Z</time>
      </trkpt>
      <trkpt lat="46.64811" lon="5.54905">
        <ele>278</ele>
        <time>2021-05-29T11:30:54.915Z</time>
      </trkpt>
      <trkpt lat="46.6481" lon="5.54909">
        <ele>278</ele>
        <time>2021-05-29T11:30:55.915Z</time>
      </trkpt>
      <trkpt lat="46.6481" lon="5.54912">
        <ele>277</ele>
        <time>2021-05-29T11:30:56.915Z</time>
      </trkpt>
      <trkpt lat="46.64811" lon="5.54916">
        <ele>277</ele>
        <time>2021-05-29T11:30:57.915Z</time>
      </trkpt>
      <trkpt lat="46.6481" lon="5.5492">
        <ele>277</ele>
        <time>2021-05-29T11:30:58.915Z</time>
      </trkpt>
      <trkpt lat="46.6481" lon="5.54923">
        <ele>278</ele>
        <time>2021-05-29T11:30:59.915Z</time>
      </trkpt>
      <trkpt lat="46.6481" lon="5.54927">
        <ele>278</ele>
        <time>2021-05-29T11:31:00.915Z</time>
      </trkpt>
      <trkpt lat="46.64809" lon="5.54929">
        <ele>278</ele>
        <time>2021-05-29T11:31:01.915Z</time>
      </trkpt>
      <trkpt lat="46.64809" lon="5.54933">
        <ele>278</ele>
        <time>2021-05-29T11:31:02.915Z</time>
      </trkpt>
      <trkpt lat="46.64809" lon="5.54937">
        <ele>278</ele>
        <time>2021-05-29T11:31:03.915Z</time>
      </trkpt>
      <trkpt lat="46.64809" lon="5.5494">
        <ele>279</ele>
        <time>2021-05-29T11:31:04.914Z</time>
      </trkpt>
      <trkpt lat="46.64809" lon="5.54943">
        <ele>279</ele>
        <time>2021-05-29T11:31:05.915Z</time>
      </trkpt>
      <trkpt lat="46.64808" lon="5.54947">
        <ele>279</ele>
        <time>2021-05-29T11:31:06.915Z</time>
      </trkpt>
      <trkpt lat="46.64808" lon="5.5495">
        <ele>278</ele>
        <time>2021-05-29T11:31:07.915Z</time>
      </trkpt>
      <trkpt lat="46.64808" lon="5.54953">
        <ele>278</ele>
        <time>2021-05-29T11:31:08.915Z</time>
      </trkpt>
      <trkpt lat="46.64808" lon="5.54956">
        <ele>278</ele>
        <time>2021-05-29T11:31:09.914Z</time>
      </trkpt>
      <trkpt lat="46.64808" lon="5.54959">
        <ele>278</ele>
        <time>2021-05-29T11:31:10.915Z</time>
      </trkpt>
      <trkpt lat="46.64808" lon="5.54963">
        <ele>278</ele>
        <time>2021-05-29T11:31:11.915Z</time>
      </trkpt>
      <trkpt lat="46.64808" lon="5.54967">
        <ele>278</ele>
        <time>2021-05-29T11:31:12.914Z</time>
      </trkpt>
      <trkpt lat="46.64807" lon="5.54971">
        <ele>279</ele>
        <time>2021-05-29T11:31:13.915Z</time>
      </trkpt>
      <trkpt lat="46.64807" lon="5.54975">
        <ele>279</ele>
        <time>2021-05-29T11:31:14.915Z</time>
      </trkpt>
      <trkpt lat="46.64807" lon="5.54978">
        <ele>279</ele>
        <time>2021-05-29T11:31:15.914Z</time>
      </trkpt>
      <trkpt lat="46.64807" lon="5.54982">
        <ele>279</ele>
        <time>2021-05-29T11:31:16.915Z</time>
      </trkpt>
      <trkpt lat="46.64806" lon="5.54985">
        <ele>278</ele>
        <time>2021-05-29T11:31:17.914Z</time>
      </trkpt>
      <trkpt lat="46.64806" lon="5.54988">
        <ele>278</ele>
        <time>2021-05-29T11:31:18.914Z</time>
      </trkpt>
      <trkpt lat="46.64806" lon="5.54991">
        <ele>278</ele>
        <time>2021-05-29T11:31:19.915Z</time>
      </trkpt>
      <trkpt lat="46.64806" lon="5.54994">
        <ele>278</ele>
        <time>2021-05-29T11:31:20.914Z</time>
      </trkpt>
      <trkpt lat="46.64806" lon="5.54998">
        <ele>278</ele>
        <time>2021-05-29T11:31:21.915Z</time>
      </trkpt>
      <trkpt lat="46.64806" lon="5.55001">
        <ele>278</ele>
        <time>2021-05-29T11:31:22.915Z</time>
      </trkpt>
      <trkpt lat="46.64805" lon="5.55005">
        <ele>278</ele>
        <time>2021-05-29T11:31:23.915Z</time>
      </trkpt>
      <trkpt lat="46.64805" lon="5.55008">
        <ele>278</ele>
        <time>2021-05-29T11:31:24.915Z</time>
      </trkpt>
      <trkpt lat="46.64805" lon="5.55011">
        <ele>278</ele>
        <time>2021-05-29T11:31:25.915Z</time>
      </trkpt>
      <trkpt lat="46.64804" lon="5.55015">
        <ele>278</ele>
        <time>2021-05-29T11:31:26.914Z</time>
      </trkpt>
      <trkpt lat="46.64804" lon="5.55018">
        <ele>279</ele>
        <time>2021-05-29T11:31:27.914Z</time>
      </trkpt>
      <trkpt lat="46.64804" lon="5.55021">
        <ele>279</ele>
        <time>2021-05-29T11:31:28.915Z</time>
      </trkpt>
      <trkpt lat="46.64803" lon="5.55024">
        <ele>279</ele>
        <time>2021-05-29T11:31:29.915Z</time>
      </trkpt>
      <trkpt lat="46.64803" lon="5.55028">
        <ele>279</ele>
        <time>2021-05-29T11:31:30.915Z</time>
      </trkpt>
      <trkpt lat="46.64803" lon="5.55031">
        <ele>279</ele>
        <time>2021-05-29T11:31:31.915Z</time>
      </trkpt>
      <trkpt lat="46.64802" lon="5.55034">
        <ele>279</ele>
        <time>2021-05-29T11:31:32.915Z</time>
      </trkpt>
      <trkpt lat="46.64802" lon="5.55037">
        <ele>279</ele>
        <time>2021-05-29T11:31:33.915Z</time>
      </trkpt>
      <trkpt lat="46.64802" lon="5.5504">
        <ele>279</ele>
        <time>2021-05-29T11:31:34.915Z</time>
      </trkpt>
      <trkpt lat="46.64802" lon="5.55043">
        <ele>279</ele>
        <time>2021-05-29T11:31:35.914Z</time>
      </trkpt>
      <trkpt lat="46.64802" lon="5.55047">
        <ele>279</ele>
        <time>2021-05-29T11:31:36.915Z</time>
      </trkpt>
      <trkpt lat="46.64803" lon="5.5505">
        <ele>279</ele>
        <time>2021-05-29T11:31:37.915Z</time>
      </trkpt>
      <trkpt lat="46.64803" lon="5.55053">
        <ele>279</ele>
        <time>2021-05-29T11:31:38.915Z</time>
      </trkpt>
      <trkpt lat="46.64804" lon="5.55056">
        <ele>279</ele>
        <time>2021-05-29T11:31:39.915Z</time>
      </trkpt>
      <trkpt lat="46.64806" lon="5.55059">
        <ele>279</ele>
        <time>2021-05-29T11:31:40.915Z</time>
      </trkpt>
      <trkpt lat="46.64806" lon="5.5506">
        <ele>279</ele>
        <time>2021-05-29T11:31:41.914Z</time>
      </trkpt>
      <trkpt lat="46.64808" lon="5.55063">
        <ele>279</ele>
        <time>2021-05-29T11:32:00.478Z</time>
      </trkpt>
      <trkpt lat="46.64809" lon="5.55066">
        <ele>280</ele>
        <time>2021-05-29T11:32:01.479Z</time>
      </trkpt>
      <trkpt lat="46.6481" lon="5.55068">
        <ele>280</ele>
        <time>2021-05-29T11:32:02.479Z</time>
      </trkpt>
      <trkpt lat="46.64812" lon="5.55071">
        <ele>280</ele>
        <time>2021-05-29T11:32:03.479Z</time>
      </trkpt>
      <trkpt lat="46.64814" lon="5.55073">
        <ele>281</ele>
        <time>2021-05-29T11:32:04.479Z</time>
      </trkpt>
      <trkpt lat="46.64815" lon="5.55075">
        <ele>281</ele>
        <time>2021-05-29T11:32:05.478Z</time>
      </trkpt>
      <trkpt lat="46.64817" lon="5.55077">
        <ele>281</ele>
        <time>2021-05-29T11:32:06.479Z</time>
      </trkpt>
      <trkpt lat="46.64818" lon="5.55078">
        <ele>281</ele>
        <time>2021-05-29T11:32:07.479Z</time>
      </trkpt>
      <trkpt lat="46.6482" lon="5.5508">
        <ele>280</ele>
        <time>2021-05-29T11:32:08.479Z</time>
      </trkpt>
      <trkpt lat="46.64821" lon="5.55082">
        <ele>280</ele>
        <time>2021-05-29T11:32:09.479Z</time>
      </trkpt>
      <trkpt lat="46.64823" lon="5.55083">
        <ele>280</ele>
        <time>2021-05-29T11:32:10.479Z</time>
      </trkpt>
      <trkpt lat="46.64825" lon="5.55085">
        <ele>281</ele>
        <time>2021-05-29T11:32:11.479Z</time>
      </trkpt>
      <trkpt lat="46.64827" lon="5.55087">
        <ele>281</ele>
        <time>2021-05-29T11:32:12.478Z</time>
      </trkpt>
      <trkpt lat="46.64828" lon="5.55089">
        <ele>282</ele>
        <time>2021-05-29T11:32:13.478Z</time>
      </trkpt>
      <trkpt lat="46.6483" lon="5.5509">
        <ele>282</ele>
        <time>2021-05-29T11:32:14.479Z</time>
      </trkpt>
      <trkpt lat="46.64831" lon="5.55092">
        <ele>282</ele>
        <time>2021-05-29T11:32:15.479Z</time>
      </trkpt>
      <trkpt lat="46.64832" lon="5.55095">
        <ele>283</ele>
        <time>2021-05-29T11:32:16.479Z</time>
      </trkpt>
      <trkpt lat="46.64833" lon="5.55097">
        <ele>283</ele>
        <time>2021-05-29T11:32:17.479Z</time>
      </trkpt>
      <trkpt lat="46.64835" lon="5.55101">
        <ele>283</ele>
        <time>2021-05-29T11:32:18.478Z</time>
      </trkpt>
      <trkpt lat="46.64836" lon="5.55104">
        <ele>283</ele>
        <time>2021-05-29T11:32:19.479Z</time>
      </trkpt>
      <trkpt lat="46.64837" lon="5.55106">
        <ele>283</ele>
        <time>2021-05-29T11:32:20.479Z</time>
      </trkpt>
      <trkpt lat="46.64838" lon="5.55109">
        <ele>284</ele>
        <time>2021-05-29T11:32:21.479Z</time>
      </trkpt>
      <trkpt lat="46.64838" lon="5.55111">
        <ele>284</ele>
        <time>2021-05-29T11:32:22.479Z</time>
      </trkpt>
      <trkpt lat="46.64839" lon="5.55114">
        <ele>284</ele>
        <time>2021-05-29T11:32:23.479Z</time>
      </trkpt>
      <trkpt lat="46.6484" lon="5.55117">
        <ele>284</ele>
        <time>2021-05-29T11:32:24.479Z</time>
      </trkpt>
      <trkpt lat="46.64841" lon="5.5512">
        <ele>284</ele>
        <time>2021-05-29T11:32:25.478Z</time>
      </trkpt>
      <trkpt lat="46.64842" lon="5.55122">
        <ele>284</ele>
        <time>2021-05-29T11:32:26.479Z</time>
      </trkpt>
      <trkpt lat="46.64843" lon="5.55124">
        <ele>284</ele>
        <time>2021-05-29T11:32:27.479Z</time>
      </trkpt>
      <trkpt lat="46.64844" lon="5.55126">
        <ele>284</ele>
        <time>2021-05-29T11:32:28.478Z</time>
      </trkpt>
      <trkpt lat="46.64846" lon="5.55128">
        <ele>284</ele>
        <time>2021-05-29T11:32:29.479Z</time>
      </trkpt>
      <trkpt lat="46.64847" lon="5.5513">
        <ele>284</ele>
        <time>2021-05-29T11:32:30.479Z</time>
      </trkpt>
      <trkpt lat="46.64849" lon="5.55133">
        <ele>284</ele>
        <time>2021-05-29T11:32:31.479Z</time>
      </trkpt>
      <trkpt lat="46.6485" lon="5.55135">
        <ele>284</ele>
        <time>2021-05-29T11:32:32.479Z</time>
      </trkpt>
      <trkpt lat="46.64852" lon="5.55137">
        <ele>284</ele>
        <time>2021-05-29T11:32:33.479Z</time>
      </trkpt>
      <trkpt lat="46.64854" lon="5.55139">
        <ele>284</ele>
        <time>2021-05-29T11:32:34.479Z</time>
      </trkpt>
      <trkpt lat="46.64855" lon="5.55141">
        <ele>284</ele>
        <time>2021-05-29T11:32:35.479Z</time>
      </trkpt>
      <trkpt lat="46.64856" lon="5.55143">
        <ele>285</ele>
        <time>2021-05-29T11:32:36.478Z</time>
      </trkpt>
      <trkpt lat="46.64857" lon="5.55145">
        <ele>285</ele>
        <time>2021-05-29T11:32:37.479Z</time>
      </trkpt>
      <trkpt lat="46.64858" lon="5.55148">
        <ele>285</ele>
        <time>2021-05-29T11:32:38.479Z</time>
      </trkpt>
      <trkpt lat="46.64858" lon="5.55149">
        <ele>286</ele>
        <time>2021-05-29T11:32:39.479Z</time>
      </trkpt>
      <trkpt lat="46.64858" lon="5.55151">
        <ele>287</ele>
        <time>2021-05-29T11:32:40.479Z</time>
      </trkpt>
      <trkpt lat="46.64859" lon="5.55153">
        <ele>287</ele>
        <time>2021-05-29T11:32:41.479Z</time>
      </trkpt>
      <trkpt lat="46.64861" lon="5.55156">
        <ele>287</ele>
        <time>2021-05-29T11:32:42.479Z</time>
      </trkpt>
      <trkpt lat="46.64862" lon="5.55158">
        <ele>287</ele>
        <time>2021-05-29T11:32:43.478Z</time>
      </trkpt>
      <trkpt lat="46.64863" lon="5.55159">
        <ele>287</ele>
        <time>2021-05-29T11:32:44.478Z</time>
      </trkpt>
      <trkpt lat="46.64865" lon="5.55161">
        <ele>287</ele>
        <time>2021-05-29T11:32:45.479Z</time>
      </trkpt>
      <trkpt lat="46.64866" lon="5.55164">
        <ele>287</ele>
        <time>2021-05-29T11:32:46.479Z</time>
      </trkpt>
      <trkpt lat="46.64867" lon="5.55166">
        <ele>287</ele>
        <time>2021-05-29T11:32:47.479Z</time>
      </trkpt>
      <trkpt lat="46.64868" lon="5.55169">
        <ele>287</ele>
        <time>2021-05-29T11:32:48.479Z</time>
      </trkpt>
      <trkpt lat="46.6487" lon="5.55171">
        <ele>287</ele>
        <time>2021-05-29T11:32:49.479Z</time>
      </trkpt>
      <trkpt lat="46.64871" lon="5.55173">
        <ele>286</ele>
        <time>2021-05-29T11:32:50.479Z</time>
      </trkpt>
      <trkpt lat="46.64871" lon="5.55176">
        <ele>286</ele>
        <time>2021-05-29T11:32:51.479Z</time>
      </trkpt>
      <trkpt lat="46.64873" lon="5.55178">
        <ele>285</ele>
        <time>2021-05-29T11:32:52.479Z</time>
      </trkpt>
      <trkpt lat="46.64874" lon="5.5518">
        <ele>285</ele>
        <time>2021-05-29T11:32:53.478Z</time>
      </trkpt>
      <trkpt lat="46.64875" lon="5.55182">
        <ele>285</ele>
        <time>2021-05-29T11:32:54.479Z</time>
      </trkpt>
      <trkpt lat="46.64876" lon="5.55184">
        <ele>285</ele>
        <time>2021-05-29T11:32:55.479Z</time>
      </trkpt>
      <trkpt lat="46.64878" lon="5.55186">
        <ele>284</ele>
        <time>2021-05-29T11:32:56.478Z</time>
      </trkpt>
      <trkpt lat="46.64879" lon="5.55189">
        <ele>284</ele>
        <time>2021-05-29T11:32:57.479Z</time>
      </trkpt>
      <trkpt lat="46.64881" lon="5.55191">
        <ele>284</ele>
        <time>2021-05-29T11:32:58.478Z</time>
      </trkpt>
      <trkpt lat="46.64882" lon="5.55193">
        <ele>284</ele>
        <time>2021-05-29T11:32:59.478Z</time>
      </trkpt>
      <trkpt lat="46.64883" lon="5.55194">
        <ele>284</ele>
        <time>2021-05-29T11:33:00.479Z</time>
      </trkpt>
      <trkpt lat="46.64884" lon="5.55196">
        <ele>283</ele>
        <time>2021-05-29T11:33:01.479Z</time>
      </trkpt>
      <trkpt lat="46.64886" lon="5.55199">
        <ele>284</ele>
        <time>2021-05-29T11:33:02.479Z</time>
      </trkpt>
      <trkpt lat="46.64887" lon="5.552">
        <ele>284</ele>
        <time>2021-05-29T11:33:03.479Z</time>
      </trkpt>
      <trkpt lat="46.64887" lon="5.55202">
        <ele>284</ele>
        <time>2021-05-29T11:33:04.478Z</time>
      </trkpt>
      <trkpt lat="46.64889" lon="5.55204">
        <ele>284</ele>
        <time>2021-05-29T11:33:05.479Z</time>
      </trkpt>
      <trkpt lat="46.6489" lon="5.55205">
        <ele>285</ele>
        <time>2021-05-29T11:33:06.479Z</time>
      </trkpt>
      <trkpt lat="46.64892" lon="5.55207">
        <ele>285</ele>
        <time>2021-05-29T11:33:07.479Z</time>
      </trkpt>
      <trkpt lat="46.64894" lon="5.55209">
        <ele>286</ele>
        <time>2021-05-29T11:33:08.478Z</time>
      </trkpt>
      <trkpt lat="46.64895" lon="5.5521">
        <ele>286</ele>
        <time>2021-05-29T11:33:09.478Z</time>
      </trkpt>
      <trkpt lat="46.64897" lon="5.55212">
        <ele>286</ele>
        <time>2021-05-29T11:33:10.479Z</time>
      </trkpt>
      <trkpt lat="46.64899" lon="5.55214">
        <ele>286</ele>
        <time>2021-05-29T11:33:11.479Z</time>
      </trkpt>
      <trkpt lat="46.64901" lon="5.55215">
        <ele>286</ele>
        <time>2021-05-29T11:33:12.479Z</time>
      </trkpt>
      <trkpt lat="46.64902" lon="5.55216">
        <ele>286</ele>
        <time>2021-05-29T11:33:13.479Z</time>
      </trkpt>
      <trkpt lat="46.64904" lon="5.55218">
        <ele>286</ele>
        <time>2021-05-29T11:33:14.479Z</time>
      </trkpt>
      <trkpt lat="46.64907" lon="5.55219">
        <ele>287</ele>
        <time>2021-05-29T11:33:15.478Z</time>
      </trkpt>
      <trkpt lat="46.6491" lon="5.5522">
        <ele>287</ele>
        <time>2021-05-29T11:33:16.478Z</time>
      </trkpt>
      <trkpt lat="46.64912" lon="5.55221">
        <ele>287</ele>
        <time>2021-05-29T11:33:17.479Z</time>
      </trkpt>
      <trkpt lat="46.64914" lon="5.55222">
        <ele>288</ele>
        <time>2021-05-29T11:33:18.479Z</time>
      </trkpt>
      <trkpt lat="46.64916" lon="5.55223">
        <ele>288</ele>
        <time>2021-05-29T11:33:19.479Z</time>
      </trkpt>
      <trkpt lat="46.64917" lon="5.55224">
        <ele>289</ele>
        <time>2021-05-29T11:33:20.479Z</time>
      </trkpt>
      <trkpt lat="46.64919" lon="5.55225">
        <ele>289</ele>
        <time>2021-05-29T11:33:21.479Z</time>
      </trkpt>
      <trkpt lat="46.6492" lon="5.55226">
        <ele>290</ele>
        <time>2021-05-29T11:33:22.479Z</time>
      </trkpt>
      <trkpt lat="46.64922" lon="5.55227">
        <ele>290</ele>
        <time>2021-05-29T11:33:23.479Z</time>
      </trkpt>
      <trkpt lat="46.64924" lon="5.55229">
        <ele>290</ele>
        <time>2021-05-29T11:33:24.478Z</time>
      </trkpt>
      <trkpt lat="46.64925" lon="5.5523">
        <ele>291</ele>
        <time>2021-05-29T11:33:25.479Z</time>
      </trkpt>
      <trkpt lat="46.64927" lon="5.55232">
        <ele>291</ele>
        <time>2021-05-29T11:33:26.479Z</time>
      </trkpt>
      <trkpt lat="46.6493" lon="5.55233">
        <ele>291</ele>
        <time>2021-05-29T11:33:27.478Z</time>
      </trkpt>
      <trkpt lat="46.64931" lon="5.55234">
        <ele>290</ele>
        <time>2021-05-29T11:33:28.479Z</time>
      </trkpt>
      <trkpt lat="46.64933" lon="5.55235">
        <ele>290</ele>
        <time>2021-05-29T11:33:29.479Z</time>
      </trkpt>
      <trkpt lat="46.64934" lon="5.55237">
        <ele>290</ele>
        <time>2021-05-29T11:33:30.479Z</time>
      </trkpt>
      <trkpt lat="46.64936" lon="5.55238">
        <ele>290</ele>
        <time>2021-05-29T11:33:31.479Z</time>
      </trkpt>
      <trkpt lat="46.64938" lon="5.5524">
        <ele>290</ele>
        <time>2021-05-29T11:33:32.478Z</time>
      </trkpt>
      <trkpt lat="46.6494" lon="5.55241">
        <ele>290</ele>
        <time>2021-05-29T11:33:33.479Z</time>
      </trkpt>
      <trkpt lat="46.64941" lon="5.55243">
        <ele>290</ele>
        <time>2021-05-29T11:33:34.479Z</time>
      </trkpt>
      <trkpt lat="46.64942" lon="5.55245">
        <ele>290</ele>
        <time>2021-05-29T11:33:35.479Z</time>
      </trkpt>
      <trkpt lat="46.64943" lon="5.55246">
        <ele>290</ele>
        <time>2021-05-29T11:33:36.479Z</time>
      </trkpt>
      <trkpt lat="46.64944" lon="5.55249">
        <ele>290</ele>
        <time>2021-05-29T11:33:37.478Z</time>
      </trkpt>
      <trkpt lat="46.64945" lon="5.55251">
        <ele>290</ele>
        <time>2021-05-29T11:33:38.479Z</time>
      </trkpt>
      <trkpt lat="46.64946" lon="5.55254">
        <ele>290</ele>
        <time>2021-05-29T11:33:39.479Z</time>
      </trkpt>
      <trkpt lat="46.64947" lon="5.55256">
        <ele>290</ele>
        <time>2021-05-29T11:33:40.479Z</time>
      </trkpt>
      <trkpt lat="46.64948" lon="5.55259">
        <ele>290</ele>
        <time>2021-05-29T11:33:41.479Z</time>
      </trkpt>
      <trkpt lat="46.64948" lon="5.55261">
        <ele>290</ele>
        <time>2021-05-29T11:33:42.478Z</time>
      </trkpt>
      <trkpt lat="46.64949" lon="5.55264">
        <ele>291</ele>
        <time>2021-05-29T11:33:43.479Z</time>
      </trkpt>
      <trkpt lat="46.6495" lon="5.55267">
        <ele>291</ele>
        <time>2021-05-29T11:33:44.478Z</time>
      </trkpt>
      <trkpt lat="46.64951" lon="5.55269">
        <ele>291</ele>
        <time>2021-05-29T11:33:45.478Z</time>
      </trkpt>
      <trkpt lat="46.64951" lon="5.55272">
        <ele>292</ele>
        <time>2021-05-29T11:33:46.479Z</time>
      </trkpt>
      <trkpt lat="46.64952" lon="5.55274">
        <ele>292</ele>
        <time>2021-05-29T11:33:47.479Z</time>
      </trkpt>
      <trkpt lat="46.64953" lon="5.55276">
        <ele>293</ele>
        <time>2021-05-29T11:33:48.479Z</time>
      </trkpt>
      <trkpt lat="46.64954" lon="5.55279">
        <ele>293</ele>
        <time>2021-05-29T11:33:49.479Z</time>
      </trkpt>
      <trkpt lat="46.64954" lon="5.5528">
        <ele>293</ele>
        <time>2021-05-29T11:33:50.479Z</time>
      </trkpt>
      <trkpt lat="46.64955" lon="5.55283">
        <ele>294</ele>
        <time>2021-05-29T11:33:51.479Z</time>
      </trkpt>
      <trkpt lat="46.64956" lon="5.55285">
        <ele>295</ele>
        <time>2021-05-29T11:33:52.478Z</time>
      </trkpt>
      <trkpt lat="46.64957" lon="5.55287">
        <ele>295</ele>
        <time>2021-05-29T11:33:53.479Z</time>
      </trkpt>
      <trkpt lat="46.64958" lon="5.55289">
        <ele>295</ele>
        <time>2021-05-29T11:33:54.479Z</time>
      </trkpt>
      <trkpt lat="46.64959" lon="5.55291">
        <ele>296</ele>
        <time>2021-05-29T11:33:55.479Z</time>
      </trkpt>
      <trkpt lat="46.64959" lon="5.55293">
        <ele>296</ele>
        <time>2021-05-29T11:33:56.479Z</time>
      </trkpt>
      <trkpt lat="46.6496" lon="5.55295">
        <ele>296</ele>
        <time>2021-05-29T11:33:57.478Z</time>
      </trkpt>
      <trkpt lat="46.64961" lon="5.55297">
        <ele>296</ele>
        <time>2021-05-29T11:33:58.479Z</time>
      </trkpt>
      <trkpt lat="46.64962" lon="5.55299">
        <ele>296</ele>
        <time>2021-05-29T11:33:59.479Z</time>
      </trkpt>
      <trkpt lat="46.64963" lon="5.55301">
        <ele>296</ele>
        <time>2021-05-29T11:34:00.478Z</time>
      </trkpt>
      <trkpt lat="46.64964" lon="5.55302">
        <ele>296</ele>
        <time>2021-05-29T11:34:01.479Z</time>
      </trkpt>
      <trkpt lat="46.64965" lon="5.55304">
        <ele>296</ele>
        <time>2021-05-29T11:34:02.479Z</time>
      </trkpt>
      <trkpt lat="46.64967" lon="5.55305">
        <ele>296</ele>
        <time>2021-05-29T11:34:03.479Z</time>
      </trkpt>
      <trkpt lat="46.64969" lon="5.55306">
        <ele>296</ele>
        <time>2021-05-29T11:34:04.479Z</time>
      </trkpt>
      <trkpt lat="46.6497" lon="5.55308">
        <ele>297</ele>
        <time>2021-05-29T11:34:05.478Z</time>
      </trkpt>
      <trkpt lat="46.64972" lon="5.55309">
        <ele>297</ele>
        <time>2021-05-29T11:34:06.479Z</time>
      </trkpt>
      <trkpt lat="46.64974" lon="5.55309">
        <ele>297</ele>
        <time>2021-05-29T11:34:07.479Z</time>
      </trkpt>
      <trkpt lat="46.64976" lon="5.55311">
        <ele>297</ele>
        <time>2021-05-29T11:34:08.479Z</time>
      </trkpt>
      <trkpt lat="46.64977" lon="5.55312">
        <ele>297</ele>
        <time>2021-05-29T11:34:09.479Z</time>
      </trkpt>
      <trkpt lat="46.64979" lon="5.55313">
        <ele>297</ele>
        <time>2021-05-29T11:34:10.479Z</time>
      </trkpt>
      <trkpt lat="46.6498" lon="5.55315">
        <ele>297</ele>
        <time>2021-05-29T11:34:11.479Z</time>
      </trkpt>
      <trkpt lat="46.64981" lon="5.55316">
        <ele>297</ele>
        <time>2021-05-29T11:34:12.479Z</time>
      </trkpt>
      <trkpt lat="46.64983" lon="5.55317">
        <ele>296</ele>
        <time>2021-05-29T11:34:13.479Z</time>
      </trkpt>
      <trkpt lat="46.64984" lon="5.55318">
        <ele>296</ele>
        <time>2021-05-29T11:34:14.479Z</time>
      </trkpt>
      <trkpt lat="46.64986" lon="5.5532">
        <ele>296</ele>
        <time>2021-05-29T11:34:15.479Z</time>
      </trkpt>
      <trkpt lat="46.64988" lon="5.55321">
        <ele>296</ele>
        <time>2021-05-29T11:34:16.478Z</time>
      </trkpt>
      <trkpt lat="46.64989" lon="5.55323">
        <ele>296</ele>
        <time>2021-05-29T11:34:17.479Z</time>
      </trkpt>
      <trkpt lat="46.6499" lon="5.55324">
        <ele>296</ele>
        <time>2021-05-29T11:34:18.479Z</time>
      </trkpt>
      <trkpt lat="46.64992" lon="5.55325">
        <ele>296</ele>
        <time>2021-05-29T11:34:19.479Z</time>
      </trkpt>
      <trkpt lat="46.64994" lon="5.55327">
        <ele>296</ele>
        <time>2021-05-29T11:34:20.479Z</time>
      </trkpt>
      <trkpt lat="46.64996" lon="5.55328">
        <ele>297</ele>
        <time>2021-05-29T11:34:21.478Z</time>
      </trkpt>
      <trkpt lat="46.64998" lon="5.5533">
        <ele>297</ele>
        <time>2021-05-29T11:34:22.479Z</time>
      </trkpt>
      <trkpt lat="46.65" lon="5.55332">
        <ele>297</ele>
        <time>2021-05-29T11:34:23.479Z</time>
      </trkpt>
      <trkpt lat="46.65001" lon="5.55334">
        <ele>297</ele>
        <time>2021-05-29T11:34:24.479Z</time>
      </trkpt>
      <trkpt lat="46.65003" lon="5.55336">
        <ele>297</ele>
        <time>2021-05-29T11:34:25.479Z</time>
      </trkpt>
      <trkpt lat="46.65004" lon="5.55338">
        <ele>297</ele>
        <time>2021-05-29T11:34:26.479Z</time>
      </trkpt>
      <trkpt lat="46.65005" lon="5.55341">
        <ele>298</ele>
        <time>2021-05-29T11:34:27.479Z</time>
      </trkpt>
      <trkpt lat="46.65006" lon="5.55343">
        <ele>298</ele>
        <time>2021-05-29T11:34:28.478Z</time>
      </trkpt>
      <trkpt lat="46.65007" lon="5.55345">
        <ele>298</ele>
        <time>2021-05-29T11:34:29.478Z</time>
      </trkpt>
      <trkpt lat="46.65008" lon="5.55348">
        <ele>299</ele>
        <time>2021-05-29T11:34:30.479Z</time>
      </trkpt>
      <trkpt lat="46.65008" lon="5.5535">
        <ele>299</ele>
        <time>2021-05-29T11:34:31.478Z</time>
      </trkpt>
      <trkpt lat="46.65009" lon="5.55353">
        <ele>299</ele>
        <time>2021-05-29T11:34:32.479Z</time>
      </trkpt>
      <trkpt lat="46.6501" lon="5.55355">
        <ele>299</ele>
        <time>2021-05-29T11:34:33.479Z</time>
      </trkpt>
      <trkpt lat="46.65011" lon="5.55358">
        <ele>299</ele>
        <time>2021-05-29T11:34:34.478Z</time>
      </trkpt>
      <trkpt lat="46.65011" lon="5.5536">
        <ele>299</ele>
        <time>2021-05-29T11:34:35.479Z</time>
      </trkpt>
      <trkpt lat="46.65012" lon="5.55362">
        <ele>299</ele>
        <time>2021-05-29T11:34:36.479Z</time>
      </trkpt>
      <trkpt lat="46.65013" lon="5.55365">
        <ele>299</ele>
        <time>2021-05-29T11:34:37.478Z</time>
      </trkpt>
      <trkpt lat="46.65014" lon="5.55367">
        <ele>300</ele>
        <time>2021-05-29T11:34:38.479Z</time>
      </trkpt>
      <trkpt lat="46.65015" lon="5.55368">
        <ele>301</ele>
        <time>2021-05-29T11:34:39.479Z</time>
      </trkpt>
      <trkpt lat="46.65016" lon="5.55371">
        <ele>302</ele>
        <time>2021-05-29T11:34:40.479Z</time>
      </trkpt>
      <trkpt lat="46.65016" lon="5.55373">
        <ele>302</ele>
        <time>2021-05-29T11:34:41.479Z</time>
      </trkpt>
      <trkpt lat="46.65017" lon="5.55375">
        <ele>303</ele>
        <time>2021-05-29T11:34:42.478Z</time>
      </trkpt>
      <trkpt lat="46.65018" lon="5.55378">
        <ele>303</ele>
        <time>2021-05-29T11:34:43.479Z</time>
      </trkpt>
      <trkpt lat="46.65018" lon="5.55379">
        <ele>304</ele>
        <time>2021-05-29T11:34:44.478Z</time>
      </trkpt>
      <trkpt lat="46.65019" lon="5.55382">
        <ele>305</ele>
        <time>2021-05-29T11:34:45.479Z</time>
      </trkpt>
      <trkpt lat="46.6502" lon="5.55384">
        <ele>305</ele>
        <time>2021-05-29T11:34:46.479Z</time>
      </trkpt>
      <trkpt lat="46.65021" lon="5.55386">
        <ele>305</ele>
        <time>2021-05-29T11:34:47.479Z</time>
      </trkpt>
      <trkpt lat="46.65021" lon="5.55389">
        <ele>306</ele>
        <time>2021-05-29T11:34:48.479Z</time>
      </trkpt>
      <trkpt lat="46.65022" lon="5.55391">
        <ele>306</ele>
        <time>2021-05-29T11:34:49.479Z</time>
      </trkpt>
      <trkpt lat="46.65023" lon="5.55394">
        <ele>306</ele>
        <time>2021-05-29T11:34:50.479Z</time>
      </trkpt>
      <trkpt lat="46.65024" lon="5.55396">
        <ele>306</ele>
        <time>2021-05-29T11:34:51.479Z</time>
      </trkpt>
      <trkpt lat="46.65025" lon="5.55399">
        <ele>307</ele>
        <time>2021-05-29T11:34:52.478Z</time>
      </trkpt>
      <trkpt lat="46.65025" lon="5.55401">
        <ele>307</ele>
        <time>2021-05-29T11:34:53.479Z</time>
      </trkpt>
      <trkpt lat="46.65026" lon="5.55404">
        <ele>307</ele>
        <time>2021-05-29T11:34:54.479Z</time>
      </trkpt>
      <trkpt lat="46.65027" lon="5.55406">
        <ele>307</ele>
        <time>2021-05-29T11:34:55.479Z</time>
      </trkpt>
      <trkpt lat="46.65028" lon="5.55409">
        <ele>307</ele>
        <time>2021-05-29T11:34:56.479Z</time>
      </trkpt>
      <trkpt lat="46.65028" lon="5.5541">
        <ele>308</ele>
        <time>2021-05-29T11:34:57.479Z</time>
      </trkpt>
      <trkpt lat="46.65029" lon="5.55413">
        <ele>308</ele>
        <time>2021-05-29T11:34:58.479Z</time>
      </trkpt>
      <trkpt lat="46.6503" lon="5.55415">
        <ele>309</ele>
        <time>2021-05-29T11:34:59.478Z</time>
      </trkpt>
      <trkpt lat="46.65031" lon="5.55417">
        <ele>309</ele>
        <time>2021-05-29T11:35:00.479Z</time>
      </trkpt>
      <trkpt lat="46.65032" lon="5.55419">
        <ele>309</ele>
        <time>2021-05-29T11:35:01.479Z</time>
      </trkpt>
      <trkpt lat="46.65033" lon="5.5542">
        <ele>310</ele>
        <time>2021-05-29T11:35:02.479Z</time>
      </trkpt>
      <trkpt lat="46.65034" lon="5.55422">
        <ele>310</ele>
        <time>2021-05-29T11:35:03.478Z</time>
      </trkpt>
      <trkpt lat="46.65035" lon="5.55423">
        <ele>311</ele>
        <time>2021-05-29T11:35:04.479Z</time>
      </trkpt>
      <trkpt lat="46.65036" lon="5.55425">
        <ele>311</ele>
        <time>2021-05-29T11:35:05.479Z</time>
      </trkpt>
      <trkpt lat="46.65037" lon="5.55427">
        <ele>311</ele>
        <time>2021-05-29T11:35:06.479Z</time>
      </trkpt>
      <trkpt lat="46.65038" lon="5.55429">
        <ele>311</ele>
        <time>2021-05-29T11:35:07.479Z</time>
      </trkpt>
      <trkpt lat="46.6504" lon="5.55431">
        <ele>312</ele>
        <time>2021-05-29T11:35:08.479Z</time>
      </trkpt>
      <trkpt lat="46.65041" lon="5.55433">
        <ele>312</ele>
        <time>2021-05-29T11:35:09.479Z</time>
      </trkpt>
      <trkpt lat="46.65042" lon="5.55435">
        <ele>312</ele>
        <time>2021-05-29T11:35:10.479Z</time>
      </trkpt>
      <trkpt lat="46.65043" lon="5.55437">
        <ele>312</ele>
        <time>2021-05-29T11:35:11.479Z</time>
      </trkpt>
      <trkpt lat="46.65045" lon="5.55439">
        <ele>313</ele>
        <time>2021-05-29T11:35:12.479Z</time>
      </trkpt>
      <trkpt lat="46.65046" lon="5.55441">
        <ele>313</ele>
        <time>2021-05-29T11:35:13.479Z</time>
      </trkpt>
      <trkpt lat="46.65047" lon="5.55442">
        <ele>314</ele>
        <time>2021-05-29T11:35:14.478Z</time>
      </trkpt>
      <trkpt lat="46.65048" lon="5.55444">
        <ele>314</ele>
        <time>2021-05-29T11:35:15.479Z</time>
      </trkpt>
      <trkpt lat="46.65049" lon="5.55447">
        <ele>314</ele>
        <time>2021-05-29T11:35:16.478Z</time>
      </trkpt>
      <trkpt lat="46.6505" lon="5.55448">
        <ele>314</ele>
        <time>2021-05-29T11:35:17.479Z</time>
      </trkpt>
      <trkpt lat="46.65051" lon="5.5545">
        <ele>314</ele>
        <time>2021-05-29T11:35:18.479Z</time>
      </trkpt>
      <trkpt lat="46.65052" lon="5.55452">
        <ele>314</ele>
        <time>2021-05-29T11:35:19.479Z</time>
      </trkpt>
      <trkpt lat="46.65053" lon="5.55454">
        <ele>314</ele>
        <time>2021-05-29T11:35:20.479Z</time>
      </trkpt>
      <trkpt lat="46.65054" lon="5.55456">
        <ele>313</ele>
        <time>2021-05-29T11:35:21.479Z</time>
      </trkpt>
      <trkpt lat="46.65055" lon="5.55458">
        <ele>313</ele>
        <time>2021-05-29T11:35:22.479Z</time>
      </trkpt>
      <trkpt lat="46.65055" lon="5.55459">
        <ele>312</ele>
        <time>2021-05-29T11:35:23.479Z</time>
      </trkpt>
      <trkpt lat="46.65056" lon="5.5546">
        <ele>312</ele>
        <time>2021-05-29T11:35:24.479Z</time>
      </trkpt>
      <trkpt lat="46.65057" lon="5.55462">
        <ele>312</ele>
        <time>2021-05-29T11:35:25.479Z</time>
      </trkpt>
      <trkpt lat="46.65057" lon="5.55463">
        <ele>312</ele>
        <time>2021-05-29T11:35:26.479Z</time>
      </trkpt>
      <trkpt lat="46.65057" lon="5.55464">
        <ele>312</ele>
        <time>2021-05-29T11:35:27.479Z</time>
      </trkpt>
      <trkpt lat="46.65058" lon="5.55464">
        <ele>312</ele>
        <time>2021-05-29T11:35:28.479Z</time>
      </trkpt>
      <trkpt lat="46.65059" lon="5.55465">
        <ele>311</ele>
        <time>2021-05-29T11:35:29.479Z</time>
      </trkpt>
      <trkpt lat="46.6506" lon="5.55466">
        <ele>311</ele>
        <time>2021-05-29T11:35:30.478Z</time>
      </trkpt>
      <trkpt lat="46.65061" lon="5.55468">
        <ele>311</ele>
        <time>2021-05-29T11:35:31.478Z</time>
      </trkpt>
      <trkpt lat="46.65062" lon="5.55469">
        <ele>311</ele>
        <time>2021-05-29T11:35:32.478Z</time>
      </trkpt>
      <trkpt lat="46.65063" lon="5.55471">
        <ele>311</ele>
        <time>2021-05-29T11:35:33.479Z</time>
      </trkpt>
      <trkpt lat="46.65064" lon="5.55472">
        <ele>311</ele>
        <time>2021-05-29T11:35:34.479Z</time>
      </trkpt>
      <trkpt lat="46.65066" lon="5.55474">
        <ele>311</ele>
        <time>2021-05-29T11:35:35.479Z</time>
      </trkpt>
      <trkpt lat="46.65067" lon="5.55474">
        <ele>312</ele>
        <time>2021-05-29T11:35:36.479Z</time>
      </trkpt>
      <trkpt lat="46.65068" lon="5.55475">
        <ele>312</ele>
        <time>2021-05-29T11:35:37.478Z</time>
      </trkpt>
      <trkpt lat="46.65068" lon="5.55477">
        <ele>312</ele>
        <time>2021-05-29T11:35:38.479Z</time>
      </trkpt>
      <trkpt lat="46.65069" lon="5.55477">
        <ele>313</ele>
        <time>2021-05-29T11:35:39.479Z</time>
      </trkpt>
      <trkpt lat="46.6507" lon="5.55478">
        <ele>313</ele>
        <time>2021-05-29T11:35:40.479Z</time>
      </trkpt>
      <trkpt lat="46.6507" lon="5.55478">
        <ele>314</ele>
        <time>2021-05-29T11:35:41.479Z</time>
      </trkpt>
      <trkpt lat="46.65071" lon="5.55479">
        <ele>314</ele>
        <time>2021-05-29T11:35:42.479Z</time>
      </trkpt>
      <trkpt lat="46.65071" lon="5.5548">
        <ele>314</ele>
        <time>2021-05-29T11:35:43.479Z</time>
      </trkpt>
      <trkpt lat="46.65073" lon="5.55481">
        <ele>314</ele>
        <time>2021-05-29T11:35:44.479Z</time>
      </trkpt>
      <trkpt lat="46.65075" lon="5.55484">
        <ele>314</ele>
        <time>2021-05-29T11:35:45.479Z</time>
      </trkpt>
      <trkpt lat="46.65077" lon="5.55486">
        <ele>314</ele>
        <time>2021-05-29T11:35:46.479Z</time>
      </trkpt>
      <trkpt lat="46.65079" lon="5.55487">
        <ele>313</ele>
        <time>2021-05-29T11:35:47.479Z</time>
      </trkpt>
      <trkpt lat="46.6508" lon="5.55489">
        <ele>313</ele>
        <time>2021-05-29T11:35:48.479Z</time>
      </trkpt>
      <trkpt lat="46.65081" lon="5.5549">
        <ele>313</ele>
        <time>2021-05-29T11:35:49.479Z</time>
      </trkpt>
      <trkpt lat="46.65082" lon="5.55491">
        <ele>314</ele>
        <time>2021-05-29T11:35:50.479Z</time>
      </trkpt>
      <trkpt lat="46.65083" lon="5.55492">
        <ele>314</ele>
        <time>2021-05-29T11:35:51.479Z</time>
      </trkpt>
      <trkpt lat="46.65085" lon="5.55494">
        <ele>315</ele>
        <time>2021-05-29T11:35:52.479Z</time>
      </trkpt>
      <trkpt lat="46.65086" lon="5.55495">
        <ele>315</ele>
        <time>2021-05-29T11:35:53.479Z</time>
      </trkpt>
      <trkpt lat="46.65088" lon="5.55496">
        <ele>316</ele>
        <time>2021-05-29T11:35:54.479Z</time>
      </trkpt>
      <trkpt lat="46.65089" lon="5.55497">
        <ele>316</ele>
        <time>2021-05-29T11:35:55.479Z</time>
      </trkpt>
      <trkpt lat="46.6509" lon="5.55499">
        <ele>316</ele>
        <time>2021-05-29T11:35:56.479Z</time>
      </trkpt>
      <trkpt lat="46.65092" lon="5.555">
        <ele>316</ele>
        <time>2021-05-29T11:35:57.479Z</time>
      </trkpt>
      <trkpt lat="46.65094" lon="5.55502">
        <ele>316</ele>
        <time>2021-05-29T11:35:58.479Z</time>
      </trkpt>
      <trkpt lat="46.65096" lon="5.55504">
        <ele>317</ele>
        <time>2021-05-29T11:35:59.478Z</time>
      </trkpt>
      <trkpt lat="46.65098" lon="5.55505">
        <ele>317</ele>
        <time>2021-05-29T11:36:00.478Z</time>
      </trkpt>
      <trkpt lat="46.651" lon="5.55507">
        <ele>317</ele>
        <time>2021-05-29T11:36:01.479Z</time>
      </trkpt>
      <trkpt lat="46.65101" lon="5.55508">
        <ele>317</ele>
        <time>2021-05-29T11:36:02.479Z</time>
      </trkpt>
      <trkpt lat="46.65103" lon="5.5551">
        <ele>318</ele>
        <time>2021-05-29T11:36:03.479Z</time>
      </trkpt>
      <trkpt lat="46.65105" lon="5.55512">
        <ele>319</ele>
        <time>2021-05-29T11:36:04.479Z</time>
      </trkpt>
      <trkpt lat="46.65107" lon="5.55514">
        <ele>319</ele>
        <time>2021-05-29T11:36:05.479Z</time>
      </trkpt>
      <trkpt lat="46.65109" lon="5.55516">
        <ele>320</ele>
        <time>2021-05-29T11:36:06.479Z</time>
      </trkpt>
      <trkpt lat="46.65111" lon="5.55518">
        <ele>321</ele>
        <time>2021-05-29T11:36:07.479Z</time>
      </trkpt>
      <trkpt lat="46.65113" lon="5.55521">
        <ele>322</ele>
        <time>2021-05-29T11:36:08.478Z</time>
      </trkpt>
      <trkpt lat="46.65115" lon="5.55524">
        <ele>322</ele>
        <time>2021-05-29T11:36:09.479Z</time>
      </trkpt>
      <trkpt lat="46.65116" lon="5.55526">
        <ele>322</ele>
        <time>2021-05-29T11:36:10.479Z</time>
      </trkpt>
      <trkpt lat="46.65118" lon="5.55528">
        <ele>321</ele>
        <time>2021-05-29T11:36:11.478Z</time>
      </trkpt>
      <trkpt lat="46.65119" lon="5.55531">
        <ele>321</ele>
        <time>2021-05-29T11:36:12.479Z</time>
      </trkpt>
      <trkpt lat="46.6512" lon="5.55533">
        <ele>321</ele>
        <time>2021-05-29T11:36:13.479Z</time>
      </trkpt>
      <trkpt lat="46.65122" lon="5.55535">
        <ele>321</ele>
        <time>2021-05-29T11:36:14.479Z</time>
      </trkpt>
      <trkpt lat="46.65123" lon="5.55538">
        <ele>321</ele>
        <time>2021-05-29T11:36:15.479Z</time>
      </trkpt>
      <trkpt lat="46.65125" lon="5.5554">
        <ele>321</ele>
        <time>2021-05-29T11:36:16.479Z</time>
      </trkpt>
      <trkpt lat="46.65126" lon="5.55543">
        <ele>321</ele>
        <time>2021-05-29T11:36:17.479Z</time>
      </trkpt>
      <trkpt lat="46.65127" lon="5.55545">
        <ele>320</ele>
        <time>2021-05-29T11:36:18.478Z</time>
      </trkpt>
      <trkpt lat="46.65128" lon="5.55547">
        <ele>320</ele>
        <time>2021-05-29T11:36:19.479Z</time>
      </trkpt>
      <trkpt lat="46.6513" lon="5.55549">
        <ele>320</ele>
        <time>2021-05-29T11:36:20.478Z</time>
      </trkpt>
      <trkpt lat="46.65131" lon="5.55551">
        <ele>319</ele>
        <time>2021-05-29T11:36:21.479Z</time>
      </trkpt>
      <trkpt lat="46.65133" lon="5.55553">
        <ele>319</ele>
        <time>2021-05-29T11:36:22.479Z</time>
      </trkpt>
      <trkpt lat="46.65134" lon="5.55555">
        <ele>319</ele>
        <time>2021-05-29T11:36:23.478Z</time>
      </trkpt>
      <trkpt lat="46.65135" lon="5.55558">
        <ele>318</ele>
        <time>2021-05-29T11:36:24.479Z</time>
      </trkpt>
      <trkpt lat="46.65136" lon="5.5556">
        <ele>318</ele>
        <time>2021-05-29T11:36:25.479Z</time>
      </trkpt>
      <trkpt lat="46.65136" lon="5.55562">
        <ele>318</ele>
        <time>2021-05-29T11:36:26.478Z</time>
      </trkpt>
      <trkpt lat="46.65137" lon="5.55564">
        <ele>318</ele>
        <time>2021-05-29T11:36:27.479Z</time>
      </trkpt>
      <trkpt lat="46.65138" lon="5.55566">
        <ele>317</ele>
        <time>2021-05-29T11:36:28.479Z</time>
      </trkpt>
      <trkpt lat="46.65139" lon="5.55568">
        <ele>317</ele>
        <time>2021-05-29T11:36:29.478Z</time>
      </trkpt>
      <trkpt lat="46.6514" lon="5.5557">
        <ele>318</ele>
        <time>2021-05-29T11:36:30.479Z</time>
      </trkpt>
      <trkpt lat="46.65141" lon="5.55573">
        <ele>318</ele>
        <time>2021-05-29T11:36:31.479Z</time>
      </trkpt>
      <trkpt lat="46.65142" lon="5.55575">
        <ele>318</ele>
        <time>2021-05-29T11:36:32.478Z</time>
      </trkpt>
      <trkpt lat="46.65143" lon="5.55577">
        <ele>318</ele>
        <time>2021-05-29T11:36:33.479Z</time>
      </trkpt>
      <trkpt lat="46.65144" lon="5.55579">
        <ele>318</ele>
        <time>2021-05-29T11:36:34.479Z</time>
      </trkpt>
      <trkpt lat="46.65146" lon="5.55582">
        <ele>319</ele>
        <time>2021-05-29T11:36:35.479Z</time>
      </trkpt>
      <trkpt lat="46.65147" lon="5.55584">
        <ele>319</ele>
        <time>2021-05-29T11:36:36.479Z</time>
      </trkpt>
      <trkpt lat="46.65148" lon="5.55586">
        <ele>320</ele>
        <time>2021-05-29T11:36:37.479Z</time>
      </trkpt>
      <trkpt lat="46.65149" lon="5.55588">
        <ele>320</ele>
        <time>2021-05-29T11:36:38.478Z</time>
      </trkpt>
      <trkpt lat="46.6515" lon="5.5559">
        <ele>321</ele>
        <time>2021-05-29T11:36:39.479Z</time>
      </trkpt>
      <trkpt lat="46.65152" lon="5.55593">
        <ele>321</ele>
        <time>2021-05-29T11:36:40.479Z</time>
      </trkpt>
      <trkpt lat="46.65153" lon="5.55594">
        <ele>322</ele>
        <time>2021-05-29T11:36:41.479Z</time>
      </trkpt>
      <trkpt lat="46.65154" lon="5.55596">
        <ele>323</ele>
        <time>2021-05-29T11:36:42.478Z</time>
      </trkpt>
      <trkpt lat="46.65154" lon="5.55598">
        <ele>323</ele>
        <time>2021-05-29T11:36:43.479Z</time>
      </trkpt>
      <trkpt lat="46.65156" lon="5.55599">
        <ele>323</ele>
        <time>2021-05-29T11:36:44.479Z</time>
      </trkpt>
      <trkpt lat="46.65156" lon="5.55601">
        <ele>323</ele>
        <time>2021-05-29T11:36:45.478Z</time>
      </trkpt>
      <trkpt lat="46.65158" lon="5.55603">
        <ele>323</ele>
        <time>2021-05-29T11:36:46.479Z</time>
      </trkpt>
      <trkpt lat="46.65159" lon="5.55604">
        <ele>323</ele>
        <time>2021-05-29T11:36:47.479Z</time>
      </trkpt>
      <trkpt lat="46.65161" lon="5.55606">
        <ele>323</ele>
        <time>2021-05-29T11:36:48.479Z</time>
      </trkpt>
      <trkpt lat="46.65162" lon="5.55607">
        <ele>323</ele>
        <time>2021-05-29T11:36:49.479Z</time>
      </trkpt>
      <trkpt lat="46.65163" lon="5.55609">
        <ele>323</ele>
        <time>2021-05-29T11:36:50.479Z</time>
      </trkpt>
      <trkpt lat="46.65165" lon="5.5561">
        <ele>323</ele>
        <time>2021-05-29T11:36:51.479Z</time>
      </trkpt>
      <trkpt lat="46.65165" lon="5.55612">
        <ele>323</ele>
        <time>2021-05-29T11:36:52.478Z</time>
      </trkpt>
      <trkpt lat="46.65166" lon="5.55614">
        <ele>323</ele>
        <time>2021-05-29T11:36:53.479Z</time>
      </trkpt>
      <trkpt lat="46.65167" lon="5.55615">
        <ele>323</ele>
        <time>2021-05-29T11:36:54.479Z</time>
      </trkpt>
      <trkpt lat="46.65168" lon="5.55617">
        <ele>323</ele>
        <time>2021-05-29T11:36:55.479Z</time>
      </trkpt>
      <trkpt lat="46.65169" lon="5.55619">
        <ele>323</ele>
        <time>2021-05-29T11:36:56.479Z</time>
      </trkpt>
      <trkpt lat="46.6517" lon="5.55621">
        <ele>323</ele>
        <time>2021-05-29T11:36:57.479Z</time>
      </trkpt>
      <trkpt lat="46.65171" lon="5.55622">
        <ele>323</ele>
        <time>2021-05-29T11:36:58.479Z</time>
      </trkpt>
      <trkpt lat="46.65172" lon="5.55624">
        <ele>323</ele>
        <time>2021-05-29T11:36:59.478Z</time>
      </trkpt>
      <trkpt lat="46.65173" lon="5.55626">
        <ele>323</ele>
        <time>2021-05-29T11:37:00.478Z</time>
      </trkpt>
      <trkpt lat="46.65174" lon="5.55627">
        <ele>323</ele>
        <time>2021-05-29T11:37:01.479Z</time>
      </trkpt>
      <trkpt lat="46.65176" lon="5.55628">
        <ele>323</ele>
        <time>2021-05-29T11:37:02.479Z</time>
      </trkpt>
      <trkpt lat="46.65176" lon="5.5563">
        <ele>323</ele>
        <time>2021-05-29T11:37:03.478Z</time>
      </trkpt>
      <trkpt lat="46.65178" lon="5.55631">
        <ele>323</ele>
        <time>2021-05-29T11:37:04.479Z</time>
      </trkpt>
      <trkpt lat="46.65179" lon="5.55632">
        <ele>323</ele>
        <time>2021-05-29T11:37:05.479Z</time>
      </trkpt>
      <trkpt lat="46.6518" lon="5.55633">
        <ele>324</ele>
        <time>2021-05-29T11:37:06.478Z</time>
      </trkpt>
      <trkpt lat="46.65181" lon="5.55635">
        <ele>324</ele>
        <time>2021-05-29T11:37:07.479Z</time>
      </trkpt>
      <trkpt lat="46.65182" lon="5.55636">
        <ele>324</ele>
        <time>2021-05-29T11:37:08.478Z</time>
      </trkpt>
      <trkpt lat="46.65184" lon="5.55638">
        <ele>323</ele>
        <time>2021-05-29T11:37:09.479Z</time>
      </trkpt>
      <trkpt lat="46.65185" lon="5.55639">
        <ele>323</ele>
        <time>2021-05-29T11:37:10.479Z</time>
      </trkpt>
      <trkpt lat="46.65187" lon="5.55641">
        <ele>323</ele>
        <time>2021-05-29T11:37:11.479Z</time>
      </trkpt>
      <trkpt lat="46.65188" lon="5.55642">
        <ele>322</ele>
        <time>2021-05-29T11:37:12.479Z</time>
      </trkpt>
      <trkpt lat="46.65189" lon="5.55644">
        <ele>322</ele>
        <time>2021-05-29T11:37:13.479Z</time>
      </trkpt>
      <trkpt lat="46.6519" lon="5.55646">
        <ele>322</ele>
        <time>2021-05-29T11:37:14.478Z</time>
      </trkpt>
      <trkpt lat="46.6519" lon="5.55647">
        <ele>322</ele>
        <time>2021-05-29T11:37:15.479Z</time>
      </trkpt>
      <trkpt lat="46.65191" lon="5.55649">
        <ele>322</ele>
        <time>2021-05-29T11:37:16.479Z</time>
      </trkpt>
      <trkpt lat="46.65192" lon="5.5565">
        <ele>322</ele>
        <time>2021-05-29T11:37:17.479Z</time>
      </trkpt>
      <trkpt lat="46.65193" lon="5.55651">
        <ele>322</ele>
        <time>2021-05-29T11:37:18.479Z</time>
      </trkpt>
      <trkpt lat="46.65193" lon="5.55652">
        <ele>322</ele>
        <time>2021-05-29T11:37:19.479Z</time>
      </trkpt>
      <trkpt lat="46.65194" lon="5.55653">
        <ele>322</ele>
        <time>2021-05-29T11:37:20.478Z</time>
      </trkpt>
      <trkpt lat="46.65195" lon="5.55654">
        <ele>322</ele>
        <time>2021-05-29T11:37:21.478Z</time>
      </trkpt>
      <trkpt lat="46.65197" lon="5.55655">
        <ele>322</ele>
        <time>2021-05-29T11:37:22.479Z</time>
      </trkpt>
      <trkpt lat="46.65197" lon="5.55656">
        <ele>322</ele>
        <time>2021-05-29T11:37:23.479Z</time>
      </trkpt>
      <trkpt lat="46.65199" lon="5.55657">
        <ele>323</ele>
        <time>2021-05-29T11:37:24.479Z</time>
      </trkpt>
      <trkpt lat="46.652" lon="5.55658">
        <ele>323</ele>
        <time>2021-05-29T11:37:25.479Z</time>
      </trkpt>
      <trkpt lat="46.65201" lon="5.5566">
        <ele>324</ele>
        <time>2021-05-29T11:37:26.479Z</time>
      </trkpt>
      <trkpt lat="46.65202" lon="5.55661">
        <ele>324</ele>
        <time>2021-05-29T11:37:27.479Z</time>
      </trkpt>
      <trkpt lat="46.65203" lon="5.55662">
        <ele>325</ele>
        <time>2021-05-29T11:37:28.479Z</time>
      </trkpt>
      <trkpt lat="46.65205" lon="5.55663">
        <ele>325</ele>
        <time>2021-05-29T11:37:29.479Z</time>
      </trkpt>
      <trkpt lat="46.65206" lon="5.55664">
        <ele>326</ele>
        <time>2021-05-29T11:37:30.478Z</time>
      </trkpt>
      <trkpt lat="46.65208" lon="5.55665">
        <ele>326</ele>
        <time>2021-05-29T11:37:31.478Z</time>
      </trkpt>
      <trkpt lat="46.6521" lon="5.55666">
        <ele>327</ele>
        <time>2021-05-29T11:37:32.479Z</time>
      </trkpt>
      <trkpt lat="46.65212" lon="5.55668">
        <ele>327</ele>
        <time>2021-05-29T11:37:33.479Z</time>
      </trkpt>
      <trkpt lat="46.65213" lon="5.55669">
        <ele>327</ele>
        <time>2021-05-29T11:37:34.479Z</time>
      </trkpt>
      <trkpt lat="46.65214" lon="5.5567">
        <ele>327</ele>
        <time>2021-05-29T11:37:35.478Z</time>
      </trkpt>
      <trkpt lat="46.65216" lon="5.55671">
        <ele>328</ele>
        <time>2021-05-29T11:37:36.479Z</time>
      </trkpt>
      <trkpt lat="46.65217" lon="5.55672">
        <ele>328</ele>
        <time>2021-05-29T11:37:37.479Z</time>
      </trkpt>
      <trkpt lat="46.65218" lon="5.55673">
        <ele>329</ele>
        <time>2021-05-29T11:37:38.479Z</time>
      </trkpt>
      <trkpt lat="46.6522" lon="5.55674">
        <ele>329</ele>
        <time>2021-05-29T11:37:39.478Z</time>
      </trkpt>
      <trkpt lat="46.65221" lon="5.55675">
        <ele>329</ele>
        <time>2021-05-29T11:37:40.478Z</time>
      </trkpt>
      <trkpt lat="46.65222" lon="5.55676">
        <ele>330</ele>
        <time>2021-05-29T11:37:41.479Z</time>
      </trkpt>
      <trkpt lat="46.65223" lon="5.55678">
        <ele>330</ele>
        <time>2021-05-29T11:37:42.479Z</time>
      </trkpt>
      <trkpt lat="46.65225" lon="5.55679">
        <ele>330</ele>
        <time>2021-05-29T11:37:43.479Z</time>
      </trkpt>
      <trkpt lat="46.65226" lon="5.5568">
        <ele>330</ele>
        <time>2021-05-29T11:37:44.478Z</time>
      </trkpt>
      <trkpt lat="46.65228" lon="5.55681">
        <ele>331</ele>
        <time>2021-05-29T11:37:45.479Z</time>
      </trkpt>
      <trkpt lat="46.6523" lon="5.55682">
        <ele>331</ele>
        <time>2021-05-29T11:37:46.479Z</time>
      </trkpt>
      <trkpt lat="46.65231" lon="5.55683">
        <ele>331</ele>
        <time>2021-05-29T11:37:47.479Z</time>
      </trkpt>
      <trkpt lat="46.65232" lon="5.55684">
        <ele>332</ele>
        <time>2021-05-29T11:37:48.479Z</time>
      </trkpt>
      <trkpt lat="46.65233" lon="5.55686">
        <ele>332</ele>
        <time>2021-05-29T11:37:49.479Z</time>
      </trkpt>
      <trkpt lat="46.65234" lon="5.55687">
        <ele>332</ele>
        <time>2021-05-29T11:37:50.479Z</time>
      </trkpt>
      <trkpt lat="46.65235" lon="5.55688">
        <ele>332</ele>
        <time>2021-05-29T11:37:51.478Z</time>
      </trkpt>
      <trkpt lat="46.65236" lon="5.55689">
        <ele>333</ele>
        <time>2021-05-29T11:37:52.479Z</time>
      </trkpt>
      <trkpt lat="46.65237" lon="5.5569">
        <ele>332</ele>
        <time>2021-05-29T11:37:53.479Z</time>
      </trkpt>
      <trkpt lat="46.65238" lon="5.55691">
        <ele>332</ele>
        <time>2021-05-29T11:37:54.479Z</time>
      </trkpt>
      <trkpt lat="46.6524" lon="5.55692">
        <ele>332</ele>
        <time>2021-05-29T11:37:55.479Z</time>
      </trkpt>
      <trkpt lat="46.65241" lon="5.55693">
        <ele>333</ele>
        <time>2021-05-29T11:37:56.479Z</time>
      </trkpt>
      <trkpt lat="46.65242" lon="5.55694">
        <ele>333</ele>
        <time>2021-05-29T11:37:57.479Z</time>
      </trkpt>
      <trkpt lat="46.65244" lon="5.55694">
        <ele>333</ele>
        <time>2021-05-29T11:42:54.721Z</time>
      </trkpt>
      <trkpt lat="46.65245" lon="5.55695">
        <ele>333</ele>
        <time>2021-05-29T11:42:55.722Z</time>
      </trkpt>
      <trkpt lat="46.65246" lon="5.55696">
        <ele>334</ele>
        <time>2021-05-29T11:42:56.722Z</time>
      </trkpt>
      <trkpt lat="46.65247" lon="5.55697">
        <ele>334</ele>
        <time>2021-05-29T11:42:57.722Z</time>
      </trkpt>
      <trkpt lat="46.65248" lon="5.55697">
        <ele>334</ele>
        <time>2021-05-29T11:42:58.721Z</time>
      </trkpt>
      <trkpt lat="46.65249" lon="5.55697">
        <ele>335</ele>
        <time>2021-05-29T11:42:59.721Z</time>
      </trkpt>
      <trkpt lat="46.65251" lon="5.55698">
        <ele>336</ele>
        <time>2021-05-29T11:43:00.722Z</time>
      </trkpt>
      <trkpt lat="46.65252" lon="5.55699">
        <ele>336</ele>
        <time>2021-05-29T11:43:01.721Z</time>
      </trkpt>
      <trkpt lat="46.65254" lon="5.557">
        <ele>336</ele>
        <time>2021-05-29T11:43:02.722Z</time>
      </trkpt>
      <trkpt lat="46.65255" lon="5.557">
        <ele>337</ele>
        <time>2021-05-29T11:43:03.722Z</time>
      </trkpt>
      <trkpt lat="46.65257" lon="5.55702">
        <ele>337</ele>
        <time>2021-05-29T11:43:04.722Z</time>
      </trkpt>
      <trkpt lat="46.65258" lon="5.55703">
        <ele>337</ele>
        <time>2021-05-29T11:43:05.722Z</time>
      </trkpt>
      <trkpt lat="46.6526" lon="5.55704">
        <ele>337</ele>
        <time>2021-05-29T11:43:06.722Z</time>
      </trkpt>
      <trkpt lat="46.65261" lon="5.55706">
        <ele>336</ele>
        <time>2021-05-29T11:43:07.722Z</time>
      </trkpt>
      <trkpt lat="46.65262" lon="5.55706">
        <ele>336</ele>
        <time>2021-05-29T11:43:08.722Z</time>
      </trkpt>
      <trkpt lat="46.65263" lon="5.55707">
        <ele>336</ele>
        <time>2021-05-29T11:43:09.722Z</time>
      </trkpt>
      <trkpt lat="46.65264" lon="5.55709">
        <ele>337</ele>
        <time>2021-05-29T11:43:10.722Z</time>
      </trkpt>
      <trkpt lat="46.65265" lon="5.5571">
        <ele>337</ele>
        <time>2021-05-29T11:43:11.721Z</time>
      </trkpt>
      <trkpt lat="46.65266" lon="5.55711">
        <ele>337</ele>
        <time>2021-05-29T11:43:12.722Z</time>
      </trkpt>
      <trkpt lat="46.65267" lon="5.55712">
        <ele>338</ele>
        <time>2021-05-29T11:43:13.722Z</time>
      </trkpt>
      <trkpt lat="46.65268" lon="5.55712">
        <ele>338</ele>
        <time>2021-05-29T11:43:14.721Z</time>
      </trkpt>
      <trkpt lat="46.6527" lon="5.55713">
        <ele>338</ele>
        <time>2021-05-29T11:43:15.722Z</time>
      </trkpt>
      <trkpt lat="46.65271" lon="5.55713">
        <ele>338</ele>
        <time>2021-05-29T11:43:16.722Z</time>
      </trkpt>
      <trkpt lat="46.65272" lon="5.55714">
        <ele>339</ele>
        <time>2021-05-29T11:43:17.721Z</time>
      </trkpt>
      <trkpt lat="46.65273" lon="5.55715">
        <ele>339</ele>
        <time>2021-05-29T11:43:18.722Z</time>
      </trkpt>
      <trkpt lat="46.65274" lon="5.55715">
        <ele>339</ele>
        <time>2021-05-29T11:43:19.722Z</time>
      </trkpt>
      <trkpt lat="46.65275" lon="5.55716">
        <ele>339</ele>
        <time>2021-05-29T11:43:20.722Z</time>
      </trkpt>
      <trkpt lat="46.65276" lon="5.55716">
        <ele>339</ele>
        <time>2021-05-29T11:43:21.722Z</time>
      </trkpt>
      <trkpt lat="46.65277" lon="5.55717">
        <ele>340</ele>
        <time>2021-05-29T11:43:22.721Z</time>
      </trkpt>
      <trkpt lat="46.65278" lon="5.55718">
        <ele>340</ele>
        <time>2021-05-29T11:43:23.722Z</time>
      </trkpt>
      <trkpt lat="46.65279" lon="5.55719">
        <ele>340</ele>
        <time>2021-05-29T11:43:24.721Z</time>
      </trkpt>
      <trkpt lat="46.65281" lon="5.5572">
        <ele>340</ele>
        <time>2021-05-29T11:43:25.721Z</time>
      </trkpt>
      <trkpt lat="46.65282" lon="5.55722">
        <ele>340</ele>
        <time>2021-05-29T11:43:26.721Z</time>
      </trkpt>
      <trkpt lat="46.65284" lon="5.55723">
        <ele>340</ele>
        <time>2021-05-29T11:43:27.722Z</time>
      </trkpt>
      <trkpt lat="46.65285" lon="5.55724">
        <ele>340</ele>
        <time>2021-05-29T11:43:28.722Z</time>
      </trkpt>
      <trkpt lat="46.65287" lon="5.55725">
        <ele>340</ele>
        <time>2021-05-29T11:43:29.722Z</time>
      </trkpt>
      <trkpt lat="46.65288" lon="5.55727">
        <ele>340</ele>
        <time>2021-05-29T11:43:30.722Z</time>
      </trkpt>
      <trkpt lat="46.65289" lon="5.55728">
        <ele>340</ele>
        <time>2021-05-29T11:43:31.722Z</time>
      </trkpt>
      <trkpt lat="46.65291" lon="5.55729">
        <ele>340</ele>
        <time>2021-05-29T11:43:32.721Z</time>
      </trkpt>
      <trkpt lat="46.65292" lon="5.5573">
        <ele>340</ele>
        <time>2021-05-29T11:43:33.722Z</time>
      </trkpt>
      <trkpt lat="46.65293" lon="5.55731">
        <ele>341</ele>
        <time>2021-05-29T11:43:34.722Z</time>
      </trkpt>
      <trkpt lat="46.65295" lon="5.55733">
        <ele>341</ele>
        <time>2021-05-29T11:43:35.722Z</time>
      </trkpt>
      <trkpt lat="46.65296" lon="5.55734">
        <ele>342</ele>
        <time>2021-05-29T11:43:36.722Z</time>
      </trkpt>
      <trkpt lat="46.65297" lon="5.55736">
        <ele>342</ele>
        <time>2021-05-29T11:43:37.722Z</time>
      </trkpt>
      <trkpt lat="46.65298" lon="5.55737">
        <ele>343</ele>
        <time>2021-05-29T11:43:38.722Z</time>
      </trkpt>
      <trkpt lat="46.653" lon="5.55738">
        <ele>344</ele>
        <time>2021-05-29T11:43:39.722Z</time>
      </trkpt>
      <trkpt lat="46.65301" lon="5.5574">
        <ele>345</ele>
        <time>2021-05-29T11:43:40.721Z</time>
      </trkpt>
      <trkpt lat="46.65303" lon="5.55741">
        <ele>345</ele>
        <time>2021-05-29T11:43:41.722Z</time>
      </trkpt>
      <trkpt lat="46.65304" lon="5.55743">
        <ele>346</ele>
        <time>2021-05-29T11:43:42.722Z</time>
      </trkpt>
      <trkpt lat="46.65305" lon="5.55744">
        <ele>347</ele>
        <time>2021-05-29T11:43:43.722Z</time>
      </trkpt>
      <trkpt lat="46.65307" lon="5.55746">
        <ele>348</ele>
        <time>2021-05-29T11:43:44.721Z</time>
      </trkpt>
      <trkpt lat="46.65308" lon="5.55747">
        <ele>348</ele>
        <time>2021-05-29T11:43:45.722Z</time>
      </trkpt>
      <trkpt lat="46.65309" lon="5.55749">
        <ele>349</ele>
        <time>2021-05-29T11:43:46.722Z</time>
      </trkpt>
      <trkpt lat="46.6531" lon="5.5575">
        <ele>350</ele>
        <time>2021-05-29T11:43:47.721Z</time>
      </trkpt>
      <trkpt lat="46.65311" lon="5.55752">
        <ele>351</ele>
        <time>2021-05-29T11:43:48.722Z</time>
      </trkpt>
      <trkpt lat="46.65313" lon="5.55754">
        <ele>352</ele>
        <time>2021-05-29T11:43:49.721Z</time>
      </trkpt>
      <trkpt lat="46.65314" lon="5.55755">
        <ele>352</ele>
        <time>2021-05-29T11:43:50.721Z</time>
      </trkpt>
      <trkpt lat="46.65311" lon="5.55753">
        <ele>347</ele>
        <time>2021-05-29T11:43:51.722Z</time>
      </trkpt>
      <trkpt lat="46.65311" lon="5.55753">
        <ele>347</ele>
        <time>2021-05-29T11:43:52.723Z</time>
      </trkpt>
      <trkpt lat="46.65311" lon="5.55753">
        <ele>347</ele>
        <time>2021-05-29T11:43:53.723Z</time>
      </trkpt>
      <trkpt lat="46.65311" lon="5.55753">
        <ele>347</ele>
        <time>2021-05-29T11:43:54.722Z</time>
      </trkpt>
      <trkpt lat="46.65311" lon="5.55753">
        <ele>347</ele>
        <time>2021-05-29T11:43:55.723Z</time>
      </trkpt>
      <trkpt lat="46.65312" lon="5.55753">
        <ele>347</ele>
        <time>2021-05-29T11:43:56.723Z</time>
      </trkpt>
      <trkpt lat="46.65312" lon="5.55756">
        <ele>347</ele>
        <time>2021-05-29T11:43:57.722Z</time>
      </trkpt>
      <trkpt lat="46.65313" lon="5.55759">
        <ele>347</ele>
        <time>2021-05-29T11:43:58.722Z</time>
      </trkpt>
      <trkpt lat="46.65314" lon="5.55763">
        <ele>347</ele>
        <time>2021-05-29T11:43:59.723Z</time>
      </trkpt>
      <trkpt lat="46.65315" lon="5.55767">
        <ele>348</ele>
        <time>2021-05-29T11:44:00.723Z</time>
      </trkpt>
      <trkpt lat="46.65316" lon="5.55771">
        <ele>348</ele>
        <time>2021-05-29T11:44:01.722Z</time>
      </trkpt>
      <trkpt lat="46.65317" lon="5.55774">
        <ele>348</ele>
        <time>2021-05-29T11:44:02.723Z</time>
      </trkpt>
      <trkpt lat="46.65317" lon="5.55778">
        <ele>348</ele>
        <time>2021-05-29T11:44:03.723Z</time>
      </trkpt>
      <trkpt lat="46.65318" lon="5.55782">
        <ele>348</ele>
        <time>2021-05-29T11:44:04.723Z</time>
      </trkpt>
      <trkpt lat="46.65319" lon="5.55785">
        <ele>348</ele>
        <time>2021-05-29T11:44:05.723Z</time>
      </trkpt>
      <trkpt lat="46.6532" lon="5.55788">
        <ele>348</ele>
        <time>2021-05-29T11:44:06.723Z</time>
      </trkpt>
      <trkpt lat="46.6532" lon="5.55791">
        <ele>348</ele>
        <time>2021-05-29T11:44:07.722Z</time>
      </trkpt>
      <trkpt lat="46.65321" lon="5.55794">
        <ele>348</ele>
        <time>2021-05-29T11:44:08.723Z</time>
      </trkpt>
      <trkpt lat="46.65322" lon="5.55796">
        <ele>348</ele>
        <time>2021-05-29T11:44:09.723Z</time>
      </trkpt>
      <trkpt lat="46.65323" lon="5.55799">
        <ele>348</ele>
        <time>2021-05-29T11:44:10.723Z</time>
      </trkpt>
      <trkpt lat="46.65324" lon="5.55802">
        <ele>348</ele>
        <time>2021-05-29T11:44:11.722Z</time>
      </trkpt>
      <trkpt lat="46.65325" lon="5.55805">
        <ele>348</ele>
        <time>2021-05-29T11:44:12.723Z</time>
      </trkpt>
      <trkpt lat="46.65326" lon="5.55807">
        <ele>348</ele>
        <time>2021-05-29T11:44:13.723Z</time>
      </trkpt>
      <trkpt lat="46.65327" lon="5.55809">
        <ele>349</ele>
        <time>2021-05-29T11:44:14.723Z</time>
      </trkpt>
      <trkpt lat="46.65328" lon="5.55811">
        <ele>349</ele>
        <time>2021-05-29T11:44:15.723Z</time>
      </trkpt>
      <trkpt lat="46.65329" lon="5.55813">
        <ele>350</ele>
        <time>2021-05-29T11:44:16.722Z</time>
      </trkpt>
      <trkpt lat="46.65329" lon="5.55815">
        <ele>350</ele>
        <time>2021-05-29T11:44:17.722Z</time>
      </trkpt>
      <trkpt lat="46.6533" lon="5.55818">
        <ele>350</ele>
        <time>2021-05-29T11:44:18.722Z</time>
      </trkpt>
      <trkpt lat="46.65331" lon="5.5582">
        <ele>350</ele>
        <time>2021-05-29T11:44:19.723Z</time>
      </trkpt>
      <trkpt lat="46.65331" lon="5.55822">
        <ele>349</ele>
        <time>2021-05-29T11:44:20.722Z</time>
      </trkpt>
      <trkpt lat="46.65332" lon="5.55824">
        <ele>349</ele>
        <time>2021-05-29T11:44:21.723Z</time>
      </trkpt>
      <trkpt lat="46.65333" lon="5.55826">
        <ele>350</ele>
        <time>2021-05-29T11:44:22.722Z</time>
      </trkpt>
      <trkpt lat="46.65333" lon="5.55828">
        <ele>350</ele>
        <time>2021-05-29T11:44:23.723Z</time>
      </trkpt>
      <trkpt lat="46.65334" lon="5.5583">
        <ele>350</ele>
        <time>2021-05-29T11:44:24.723Z</time>
      </trkpt>
      <trkpt lat="46.65334" lon="5.55832">
        <ele>350</ele>
        <time>2021-05-29T11:44:25.723Z</time>
      </trkpt>
      <trkpt lat="46.65335" lon="5.55833">
        <ele>350</ele>
        <time>2021-05-29T11:44:26.723Z</time>
      </trkpt>
      <trkpt lat="46.65336" lon="5.55835">
        <ele>351</ele>
        <time>2021-05-29T11:44:27.723Z</time>
      </trkpt>
      <trkpt lat="46.65337" lon="5.55837">
        <ele>352</ele>
        <time>2021-05-29T11:44:28.723Z</time>
      </trkpt>
      <trkpt lat="46.65337" lon="5.55839">
        <ele>352</ele>
        <time>2021-05-29T11:44:29.722Z</time>
      </trkpt>
      <trkpt lat="46.65338" lon="5.55841">
        <ele>352</ele>
        <time>2021-05-29T11:44:30.723Z</time>
      </trkpt>
      <trkpt lat="46.65339" lon="5.55843">
        <ele>352</ele>
        <time>2021-05-29T11:44:31.723Z</time>
      </trkpt>
      <trkpt lat="46.65339" lon="5.55845">
        <ele>352</ele>
        <time>2021-05-29T11:44:32.723Z</time>
      </trkpt>
      <trkpt lat="46.6534" lon="5.55847">
        <ele>352</ele>
        <time>2021-05-29T11:44:33.723Z</time>
      </trkpt>
      <trkpt lat="46.65341" lon="5.55848">
        <ele>353</ele>
        <time>2021-05-29T11:44:34.722Z</time>
      </trkpt>
      <trkpt lat="46.65343" lon="5.5585">
        <ele>353</ele>
        <time>2021-05-29T11:44:35.722Z</time>
      </trkpt>
      <trkpt lat="46.65344" lon="5.55851">
        <ele>354</ele>
        <time>2021-05-29T11:44:36.723Z</time>
      </trkpt>
      <trkpt lat="46.65345" lon="5.55852">
        <ele>354</ele>
        <time>2021-05-29T11:44:37.722Z</time>
      </trkpt>
      <trkpt lat="46.65346" lon="5.55854">
        <ele>354</ele>
        <time>2021-05-29T11:44:38.723Z</time>
      </trkpt>
      <trkpt lat="46.65346" lon="5.55855">
        <ele>355</ele>
        <time>2021-05-29T11:44:39.723Z</time>
      </trkpt>
      <trkpt lat="46.65347" lon="5.55857">
        <ele>356</ele>
        <time>2021-05-29T11:44:40.723Z</time>
      </trkpt>
      <trkpt lat="46.65348" lon="5.55858">
        <ele>356</ele>
        <time>2021-05-29T11:44:41.723Z</time>
      </trkpt>
      <trkpt lat="46.65349" lon="5.5586">
        <ele>356</ele>
        <time>2021-05-29T11:44:42.723Z</time>
      </trkpt>
      <trkpt lat="46.6535" lon="5.55861">
        <ele>357</ele>
        <time>2021-05-29T11:44:43.723Z</time>
      </trkpt>
      <trkpt lat="46.65351" lon="5.55863">
        <ele>358</ele>
        <time>2021-05-29T11:44:44.722Z</time>
      </trkpt>
      <trkpt lat="46.65351" lon="5.55865">
        <ele>358</ele>
        <time>2021-05-29T11:44:45.722Z</time>
      </trkpt>
      <trkpt lat="46.65352" lon="5.55867">
        <ele>359</ele>
        <time>2021-05-29T11:44:46.723Z</time>
      </trkpt>
      <trkpt lat="46.65352" lon="5.55869">
        <ele>359</ele>
        <time>2021-05-29T11:44:47.723Z</time>
      </trkpt>
      <trkpt lat="46.65352" lon="5.55871">
        <ele>359</ele>
        <time>2021-05-29T11:44:48.722Z</time>
      </trkpt>
      <trkpt lat="46.65353" lon="5.55873">
        <ele>359</ele>
        <time>2021-05-29T11:44:49.723Z</time>
      </trkpt>
      <trkpt lat="46.65353" lon="5.55875">
        <ele>359</ele>
        <time>2021-05-29T11:44:50.722Z</time>
      </trkpt>
      <trkpt lat="46.65354" lon="5.55877">
        <ele>359</ele>
        <time>2021-05-29T11:44:51.723Z</time>
      </trkpt>
      <trkpt lat="46.65354" lon="5.55879">
        <ele>359</ele>
        <time>2021-05-29T11:44:52.723Z</time>
      </trkpt>
      <trkpt lat="46.65354" lon="5.55881">
        <ele>359</ele>
        <time>2021-05-29T11:44:53.723Z</time>
      </trkpt>
      <trkpt lat="46.65355" lon="5.55882">
        <ele>360</ele>
        <time>2021-05-29T11:44:54.723Z</time>
      </trkpt>
      <trkpt lat="46.65356" lon="5.55884">
        <ele>360</ele>
        <time>2021-05-29T11:44:55.723Z</time>
      </trkpt>
      <trkpt lat="46.65357" lon="5.55886">
        <ele>360</ele>
        <time>2021-05-29T11:44:56.723Z</time>
      </trkpt>
      <trkpt lat="46.65357" lon="5.55888">
        <ele>361</ele>
        <time>2021-05-29T11:44:57.723Z</time>
      </trkpt>
      <trkpt lat="46.65358" lon="5.5589">
        <ele>361</ele>
        <time>2021-05-29T11:44:58.722Z</time>
      </trkpt>
      <trkpt lat="46.65359" lon="5.55891">
        <ele>362</ele>
        <time>2021-05-29T11:44:59.723Z</time>
      </trkpt>
      <trkpt lat="46.6536" lon="5.55893">
        <ele>363</ele>
        <time>2021-05-29T11:45:00.722Z</time>
      </trkpt>
      <trkpt lat="46.65361" lon="5.55894">
        <ele>364</ele>
        <time>2021-05-29T11:45:01.722Z</time>
      </trkpt>
      <trkpt lat="46.65362" lon="5.55896">
        <ele>365</ele>
        <time>2021-05-29T11:45:02.723Z</time>
      </trkpt>
      <trkpt lat="46.65363" lon="5.55897">
        <ele>365</ele>
        <time>2021-05-29T11:45:03.723Z</time>
      </trkpt>
      <trkpt lat="46.65364" lon="5.55899">
        <ele>366</ele>
        <time>2021-05-29T11:45:04.722Z</time>
      </trkpt>
      <trkpt lat="46.65366" lon="5.559">
        <ele>366</ele>
        <time>2021-05-29T11:45:05.723Z</time>
      </trkpt>
      <trkpt lat="46.65366" lon="5.55902">
        <ele>366</ele>
        <time>2021-05-29T11:45:06.722Z</time>
      </trkpt>
      <trkpt lat="46.65368" lon="5.55903">
        <ele>366</ele>
        <time>2021-05-29T11:45:07.722Z</time>
      </trkpt>
      <trkpt lat="46.65369" lon="5.55904">
        <ele>365</ele>
        <time>2021-05-29T11:45:08.722Z</time>
      </trkpt>
      <trkpt lat="46.6537" lon="5.55906">
        <ele>365</ele>
        <time>2021-05-29T11:45:09.722Z</time>
      </trkpt>
      <trkpt lat="46.65371" lon="5.55907">
        <ele>364</ele>
        <time>2021-05-29T11:45:10.723Z</time>
      </trkpt>
      <trkpt lat="46.65372" lon="5.55908">
        <ele>364</ele>
        <time>2021-05-29T11:45:11.723Z</time>
      </trkpt>
      <trkpt lat="46.65373" lon="5.5591">
        <ele>365</ele>
        <time>2021-05-29T11:45:12.723Z</time>
      </trkpt>
      <trkpt lat="46.65374" lon="5.55912">
        <ele>365</ele>
        <time>2021-05-29T11:45:13.722Z</time>
      </trkpt>
      <trkpt lat="46.65375" lon="5.55913">
        <ele>365</ele>
        <time>2021-05-29T11:45:14.723Z</time>
      </trkpt>
      <trkpt lat="46.65376" lon="5.55915">
        <ele>366</ele>
        <time>2021-05-29T11:45:15.723Z</time>
      </trkpt>
      <trkpt lat="46.65377" lon="5.55916">
        <ele>366</ele>
        <time>2021-05-29T11:45:16.723Z</time>
      </trkpt>
      <trkpt lat="46.65379" lon="5.55918">
        <ele>367</ele>
        <time>2021-05-29T11:45:17.722Z</time>
      </trkpt>
      <trkpt lat="46.65381" lon="5.55919">
        <ele>367</ele>
        <time>2021-05-29T11:45:18.722Z</time>
      </trkpt>
      <trkpt lat="46.65382" lon="5.55921">
        <ele>368</ele>
        <time>2021-05-29T11:45:19.723Z</time>
      </trkpt>
      <trkpt lat="46.65383" lon="5.55922">
        <ele>369</ele>
        <time>2021-05-29T11:45:20.723Z</time>
      </trkpt>
      <trkpt lat="46.65384" lon="5.55924">
        <ele>369</ele>
        <time>2021-05-29T11:45:21.723Z</time>
      </trkpt>
      <trkpt lat="46.65385" lon="5.55926">
        <ele>369</ele>
        <time>2021-05-29T11:45:22.722Z</time>
      </trkpt>
      <trkpt lat="46.65386" lon="5.55927">
        <ele>369</ele>
        <time>2021-05-29T11:45:23.722Z</time>
      </trkpt>
      <trkpt lat="46.65387" lon="5.55929">
        <ele>369</ele>
        <time>2021-05-29T11:45:24.723Z</time>
      </trkpt>
      <trkpt lat="46.65389" lon="5.5593">
        <ele>369</ele>
        <time>2021-05-29T11:45:25.723Z</time>
      </trkpt>
      <trkpt lat="46.65391" lon="5.55931">
        <ele>369</ele>
        <time>2021-05-29T11:45:26.722Z</time>
      </trkpt>
      <trkpt lat="46.65392" lon="5.55932">
        <ele>370</ele>
        <time>2021-05-29T11:45:27.723Z</time>
      </trkpt>
      <trkpt lat="46.65393" lon="5.55933">
        <ele>370</ele>
        <time>2021-05-29T11:45:28.722Z</time>
      </trkpt>
      <trkpt lat="46.65394" lon="5.55934">
        <ele>371</ele>
        <time>2021-05-29T11:45:29.723Z</time>
      </trkpt>
      <trkpt lat="46.65396" lon="5.55934">
        <ele>371</ele>
        <time>2021-05-29T11:45:30.722Z</time>
      </trkpt>
      <trkpt lat="46.65396" lon="5.55936">
        <ele>371</ele>
        <time>2021-05-29T11:45:31.723Z</time>
      </trkpt>
      <trkpt lat="46.65398" lon="5.55938">
        <ele>372</ele>
        <time>2021-05-29T11:45:32.723Z</time>
      </trkpt>
      <trkpt lat="46.65399" lon="5.55939">
        <ele>372</ele>
        <time>2021-05-29T11:45:33.723Z</time>
      </trkpt>
      <trkpt lat="46.65401" lon="5.55941">
        <ele>372</ele>
        <time>2021-05-29T11:45:34.723Z</time>
      </trkpt>
      <trkpt lat="46.65402" lon="5.55943">
        <ele>373</ele>
        <time>2021-05-29T11:45:35.722Z</time>
      </trkpt>
      <trkpt lat="46.65403" lon="5.55945">
        <ele>373</ele>
        <time>2021-05-29T11:45:36.723Z</time>
      </trkpt>
      <trkpt lat="46.65404" lon="5.55947">
        <ele>373</ele>
        <time>2021-05-29T11:45:37.723Z</time>
      </trkpt>
      <trkpt lat="46.65405" lon="5.55949">
        <ele>373</ele>
        <time>2021-05-29T11:45:38.722Z</time>
      </trkpt>
      <trkpt lat="46.65406" lon="5.5595">
        <ele>373</ele>
        <time>2021-05-29T11:45:39.723Z</time>
      </trkpt>
      <trkpt lat="46.65407" lon="5.55952">
        <ele>373</ele>
        <time>2021-05-29T11:45:40.722Z</time>
      </trkpt>
      <trkpt lat="46.65407" lon="5.55953">
        <ele>373</ele>
        <time>2021-05-29T11:45:41.723Z</time>
      </trkpt>
      <trkpt lat="46.65407" lon="5.55954">
        <ele>373</ele>
        <time>2021-05-29T11:45:42.723Z</time>
      </trkpt>
      <trkpt lat="46.65406" lon="5.55955">
        <ele>373</ele>
        <time>2021-05-29T11:45:43.723Z</time>
      </trkpt>
      <trkpt lat="46.65406" lon="5.55955">
        <ele>373</ele>
        <time>2021-05-29T11:45:44.722Z</time>
      </trkpt>
      <trkpt lat="46.65406" lon="5.55955">
        <ele>373</ele>
        <time>2021-05-29T11:45:45.723Z</time>
      </trkpt>
      <trkpt lat="46.65406" lon="5.55954">
        <ele>373</ele>
        <time>2021-05-29T11:45:46.723Z</time>
      </trkpt>
      <trkpt lat="46.65406" lon="5.55953">
        <ele>372</ele>
        <time>2021-05-29T11:45:47.723Z</time>
      </trkpt>
      <trkpt lat="46.65406" lon="5.55953">
        <ele>372</ele>
        <time>2021-05-29T11:45:48.722Z</time>
      </trkpt>
      <trkpt lat="46.65407" lon="5.55953">
        <ele>372</ele>
        <time>2021-05-29T11:45:49.722Z</time>
      </trkpt>
      <trkpt lat="46.65406" lon="5.55952">
        <ele>371</ele>
        <time>2021-05-29T11:45:50.723Z</time>
      </trkpt>
      <trkpt lat="46.65406" lon="5.55952">
        <ele>371</ele>
        <time>2021-05-29T11:45:51.723Z</time>
      </trkpt>
      <trkpt lat="46.65407" lon="5.55952">
        <ele>370</ele>
        <time>2021-05-29T11:45:52.722Z</time>
      </trkpt>
      <trkpt lat="46.65407" lon="5.55952">
        <ele>370</ele>
        <time>2021-05-29T11:45:53.722Z</time>
      </trkpt>
      <trkpt lat="46.65408" lon="5.55952">
        <ele>370</ele>
        <time>2021-05-29T11:45:54.722Z</time>
      </trkpt>
      <trkpt lat="46.65408" lon="5.55952">
        <ele>370</ele>
        <time>2021-05-29T11:45:55.723Z</time>
      </trkpt>
      <trkpt lat="46.65409" lon="5.55953">
        <ele>370</ele>
        <time>2021-05-29T11:45:56.723Z</time>
      </trkpt>
      <trkpt lat="46.6541" lon="5.55953">
        <ele>371</ele>
        <time>2021-05-29T11:45:57.722Z</time>
      </trkpt>
      <trkpt lat="46.6541" lon="5.55953">
        <ele>371</ele>
        <time>2021-05-29T11:45:58.722Z</time>
      </trkpt>
      <trkpt lat="46.6541" lon="5.55953">
        <ele>371</ele>
        <time>2021-05-29T11:45:59.722Z</time>
      </trkpt>
      <trkpt lat="46.6541" lon="5.55953">
        <ele>371</ele>
        <time>2021-05-29T11:46:00.723Z</time>
      </trkpt>
      <trkpt lat="46.6541" lon="5.55952">
        <ele>371</ele>
        <time>2021-05-29T11:46:01.723Z</time>
      </trkpt>
      <trkpt lat="46.6541" lon="5.55952">
        <ele>371</ele>
        <time>2021-05-29T11:46:02.722Z</time>
      </trkpt>
      <trkpt lat="46.6541" lon="5.55953">
        <ele>371</ele>
        <time>2021-05-29T11:46:03.722Z</time>
      </trkpt>
      <trkpt lat="46.65409" lon="5.55952">
        <ele>371</ele>
        <time>2021-05-29T11:46:04.722Z</time>
      </trkpt>
      <trkpt lat="46.65409" lon="5.55952">
        <ele>371</ele>
        <time>2021-05-29T11:46:05.723Z</time>
      </trkpt>
      <trkpt lat="46.6541" lon="5.55951">
        <ele>372</ele>
        <time>2021-05-29T11:46:06.722Z</time>
      </trkpt>
      <trkpt lat="46.6541" lon="5.55951">
        <ele>372</ele>
        <time>2021-05-29T11:46:07.722Z</time>
      </trkpt>
      <trkpt lat="46.6541" lon="5.55949">
        <ele>372</ele>
        <time>2021-05-29T11:46:08.722Z</time>
      </trkpt>
      <trkpt lat="46.6541" lon="5.55948">
        <ele>372</ele>
        <time>2021-05-29T11:46:09.722Z</time>
      </trkpt>
      <trkpt lat="46.65411" lon="5.55947">
        <ele>372</ele>
        <time>2021-05-29T11:46:10.723Z</time>
      </trkpt>
      <trkpt lat="46.65412" lon="5.55946">
        <ele>372</ele>
        <time>2021-05-29T11:46:11.722Z</time>
      </trkpt>
      <trkpt lat="46.65413" lon="5.55944">
        <ele>372</ele>
        <time>2021-05-29T11:46:12.723Z</time>
      </trkpt>
      <trkpt lat="46.65413" lon="5.55942">
        <ele>371</ele>
        <time>2021-05-29T11:46:13.722Z</time>
      </trkpt>
      <trkpt lat="46.65413" lon="5.5594">
        <ele>371</ele>
        <time>2021-05-29T11:46:14.722Z</time>
      </trkpt>
      <trkpt lat="46.65414" lon="5.55939">
        <ele>370</ele>
        <time>2021-05-29T11:46:15.723Z</time>
      </trkpt>
      <trkpt lat="46.65414" lon="5.55937">
        <ele>370</ele>
        <time>2021-05-29T11:46:16.722Z</time>
      </trkpt>
      <trkpt lat="46.65414" lon="5.55935">
        <ele>370</ele>
        <time>2021-05-29T11:46:17.723Z</time>
      </trkpt>
      <trkpt lat="46.65414" lon="5.55934">
        <ele>370</ele>
        <time>2021-05-29T11:46:18.723Z</time>
      </trkpt>
      <trkpt lat="46.65414" lon="5.55932">
        <ele>370</ele>
        <time>2021-05-29T11:46:19.723Z</time>
      </trkpt>
      <trkpt lat="46.65414" lon="5.55929">
        <ele>370</ele>
        <time>2021-05-29T11:46:20.723Z</time>
      </trkpt>
      <trkpt lat="46.65414" lon="5.55928">
        <ele>370</ele>
        <time>2021-05-29T11:46:21.722Z</time>
      </trkpt>
      <trkpt lat="46.65413" lon="5.55926">
        <ele>370</ele>
        <time>2021-05-29T11:46:22.722Z</time>
      </trkpt>
      <trkpt lat="46.65413" lon="5.55925">
        <ele>370</ele>
        <time>2021-05-29T11:46:23.722Z</time>
      </trkpt>
      <trkpt lat="46.65413" lon="5.55923">
        <ele>370</ele>
        <time>2021-05-29T11:46:24.723Z</time>
      </trkpt>
      <trkpt lat="46.65413" lon="5.55921">
        <ele>370</ele>
        <time>2021-05-29T11:46:25.723Z</time>
      </trkpt>
      <trkpt lat="46.65412" lon="5.55919">
        <ele>371</ele>
        <time>2021-05-29T11:46:26.723Z</time>
      </trkpt>
      <trkpt lat="46.65412" lon="5.55917">
        <ele>371</ele>
        <time>2021-05-29T11:46:27.722Z</time>
      </trkpt>
      <trkpt lat="46.65411" lon="5.55914">
        <ele>371</ele>
        <time>2021-05-29T11:46:28.722Z</time>
      </trkpt>
      <trkpt lat="46.65411" lon="5.55912">
        <ele>371</ele>
        <time>2021-05-29T11:46:29.723Z</time>
      </trkpt>
      <trkpt lat="46.65411" lon="5.5591">
        <ele>371</ele>
        <time>2021-05-29T11:46:30.723Z</time>
      </trkpt>
      <trkpt lat="46.65411" lon="5.55908">
        <ele>371</ele>
        <time>2021-05-29T11:46:31.722Z</time>
      </trkpt>
      <trkpt lat="46.6541" lon="5.55905">
        <ele>372</ele>
        <time>2021-05-29T11:46:32.722Z</time>
      </trkpt>
      <trkpt lat="46.6541" lon="5.55903">
        <ele>372</ele>
        <time>2021-05-29T11:46:33.722Z</time>
      </trkpt>
      <trkpt lat="46.6541" lon="5.55901">
        <ele>372</ele>
        <time>2021-05-29T11:46:34.722Z</time>
      </trkpt>
      <trkpt lat="46.65409" lon="5.55899">
        <ele>372</ele>
        <time>2021-05-29T11:46:35.723Z</time>
      </trkpt>
      <trkpt lat="46.65409" lon="5.55897">
        <ele>372</ele>
        <time>2021-05-29T11:46:36.722Z</time>
      </trkpt>
      <trkpt lat="46.65409" lon="5.55895">
        <ele>372</ele>
        <time>2021-05-29T11:46:37.722Z</time>
      </trkpt>
      <trkpt lat="46.65409" lon="5.55892">
        <ele>372</ele>
        <time>2021-05-29T11:46:38.722Z</time>
      </trkpt>
      <trkpt lat="46.65409" lon="5.5589">
        <ele>372</ele>
        <time>2021-05-29T11:46:39.722Z</time>
      </trkpt>
      <trkpt lat="46.65409" lon="5.55888">
        <ele>371</ele>
        <time>2021-05-29T11:46:40.722Z</time>
      </trkpt>
      <trkpt lat="46.65409" lon="5.55886">
        <ele>372</ele>
        <time>2021-05-29T11:46:41.722Z</time>
      </trkpt>
      <trkpt lat="46.65409" lon="5.55884">
        <ele>372</ele>
        <time>2021-05-29T11:46:42.722Z</time>
      </trkpt>
      <trkpt lat="46.65408" lon="5.55882">
        <ele>372</ele>
        <time>2021-05-29T11:46:43.723Z</time>
      </trkpt>
      <trkpt lat="46.65408" lon="5.55879">
        <ele>372</ele>
        <time>2021-05-29T11:46:44.722Z</time>
      </trkpt>
      <trkpt lat="46.65408" lon="5.55876">
        <ele>372</ele>
        <time>2021-05-29T11:46:45.723Z</time>
      </trkpt>
      <trkpt lat="46.65408" lon="5.55874">
        <ele>373</ele>
        <time>2021-05-29T11:46:46.723Z</time>
      </trkpt>
      <trkpt lat="46.65408" lon="5.55872">
        <ele>373</ele>
        <time>2021-05-29T11:46:47.722Z</time>
      </trkpt>
      <trkpt lat="46.65408" lon="5.5587">
        <ele>373</ele>
        <time>2021-05-29T11:46:48.722Z</time>
      </trkpt>
      <trkpt lat="46.65408" lon="5.55868">
        <ele>373</ele>
        <time>2021-05-29T11:46:49.723Z</time>
      </trkpt>
      <trkpt lat="46.65408" lon="5.55865">
        <ele>373</ele>
        <time>2021-05-29T11:46:50.723Z</time>
      </trkpt>
      <trkpt lat="46.65408" lon="5.55863">
        <ele>373</ele>
        <time>2021-05-29T11:46:51.723Z</time>
      </trkpt>
      <trkpt lat="46.65408" lon="5.55861">
        <ele>373</ele>
        <time>2021-05-29T11:46:52.723Z</time>
      </trkpt>
      <trkpt lat="46.65408" lon="5.55859">
        <ele>373</ele>
        <time>2021-05-29T11:46:53.723Z</time>
      </trkpt>
      <trkpt lat="46.65408" lon="5.55857">
        <ele>373</ele>
        <time>2021-05-29T11:46:54.723Z</time>
      </trkpt>
      <trkpt lat="46.65409" lon="5.55856">
        <ele>373</ele>
        <time>2021-05-29T11:46:55.723Z</time>
      </trkpt>
      <trkpt lat="46.65409" lon="5.55854">
        <ele>373</ele>
        <time>2021-05-29T11:46:56.723Z</time>
      </trkpt>
      <trkpt lat="46.65409" lon="5.55852">
        <ele>373</ele>
        <time>2021-05-29T11:46:57.723Z</time>
      </trkpt>
      <trkpt lat="46.65409" lon="5.5585">
        <ele>374</ele>
        <time>2021-05-29T11:46:58.723Z</time>
      </trkpt>
      <trkpt lat="46.65409" lon="5.55848">
        <ele>374</ele>
        <time>2021-05-29T11:46:59.722Z</time>
      </trkpt>
      <trkpt lat="46.65409" lon="5.55845">
        <ele>374</ele>
        <time>2021-05-29T11:47:00.723Z</time>
      </trkpt>
      <trkpt lat="46.65409" lon="5.55843">
        <ele>375</ele>
        <time>2021-05-29T11:47:01.723Z</time>
      </trkpt>
      <trkpt lat="46.65409" lon="5.5584">
        <ele>375</ele>
        <time>2021-05-29T11:47:02.723Z</time>
      </trkpt>
      <trkpt lat="46.65409" lon="5.55838">
        <ele>376</ele>
        <time>2021-05-29T11:47:03.723Z</time>
      </trkpt>
      <trkpt lat="46.65409" lon="5.55835">
        <ele>376</ele>
        <time>2021-05-29T11:47:04.722Z</time>
      </trkpt>
      <trkpt lat="46.65409" lon="5.55832">
        <ele>376</ele>
        <time>2021-05-29T11:47:05.723Z</time>
      </trkpt>
      <trkpt lat="46.65409" lon="5.55829">
        <ele>376</ele>
        <time>2021-05-29T11:47:06.722Z</time>
      </trkpt>
      <trkpt lat="46.65409" lon="5.55826">
        <ele>376</ele>
        <time>2021-05-29T11:47:07.723Z</time>
      </trkpt>
      <trkpt lat="46.65409" lon="5.55823">
        <ele>377</ele>
        <time>2021-05-29T11:47:08.722Z</time>
      </trkpt>
      <trkpt lat="46.65409" lon="5.55821">
        <ele>377</ele>
        <time>2021-05-29T11:47:09.723Z</time>
      </trkpt>
      <trkpt lat="46.6541" lon="5.55818">
        <ele>377</ele>
        <time>2021-05-29T11:47:10.723Z</time>
      </trkpt>
      <trkpt lat="46.6541" lon="5.55816">
        <ele>378</ele>
        <time>2021-05-29T11:47:11.722Z</time>
      </trkpt>
      <trkpt lat="46.65411" lon="5.55814">
        <ele>378</ele>
        <time>2021-05-29T11:47:12.723Z</time>
      </trkpt>
      <trkpt lat="46.65411" lon="5.55812">
        <ele>378</ele>
        <time>2021-05-29T11:47:13.722Z</time>
      </trkpt>
      <trkpt lat="46.65412" lon="5.5581">
        <ele>378</ele>
        <time>2021-05-29T11:47:14.723Z</time>
      </trkpt>
      <trkpt lat="46.65412" lon="5.55807">
        <ele>378</ele>
        <time>2021-05-29T11:47:15.723Z</time>
      </trkpt>
      <trkpt lat="46.65413" lon="5.55803">
        <ele>378</ele>
        <time>2021-05-29T11:47:16.722Z</time>
      </trkpt>
      <trkpt lat="46.65413" lon="5.558">
        <ele>379</ele>
        <time>2021-05-29T11:47:17.722Z</time>
      </trkpt>
      <trkpt lat="46.65413" lon="5.55798">
        <ele>379</ele>
        <time>2021-05-29T11:47:18.723Z</time>
      </trkpt>
      <trkpt lat="46.65414" lon="5.55795">
        <ele>379</ele>
        <time>2021-05-29T11:47:19.723Z</time>
      </trkpt>
      <trkpt lat="46.65414" lon="5.55792">
        <ele>379</ele>
        <time>2021-05-29T11:47:20.722Z</time>
      </trkpt>
      <trkpt lat="46.65415" lon="5.55789">
        <ele>380</ele>
        <time>2021-05-29T11:47:21.723Z</time>
      </trkpt>
      <trkpt lat="46.65415" lon="5.55787">
        <ele>380</ele>
        <time>2021-05-29T11:47:22.723Z</time>
      </trkpt>
      <trkpt lat="46.65416" lon="5.55784">
        <ele>380</ele>
        <time>2021-05-29T11:47:23.723Z</time>
      </trkpt>
      <trkpt lat="46.65416" lon="5.55782">
        <ele>381</ele>
        <time>2021-05-29T11:47:24.723Z</time>
      </trkpt>
      <trkpt lat="46.65417" lon="5.55779">
        <ele>381</ele>
        <time>2021-05-29T11:47:25.723Z</time>
      </trkpt>
      <trkpt lat="46.65417" lon="5.55778">
        <ele>381</ele>
        <time>2021-05-29T11:47:26.723Z</time>
      </trkpt>
      <trkpt lat="46.65418" lon="5.55776">
        <ele>381</ele>
        <time>2021-05-29T11:47:27.722Z</time>
      </trkpt>
      <trkpt lat="46.65419" lon="5.55774">
        <ele>380</ele>
        <time>2021-05-29T11:47:28.723Z</time>
      </trkpt>
      <trkpt lat="46.65419" lon="5.55772">
        <ele>380</ele>
        <time>2021-05-29T11:47:29.722Z</time>
      </trkpt>
      <trkpt lat="46.6542" lon="5.55769">
        <ele>380</ele>
        <time>2021-05-29T11:47:30.723Z</time>
      </trkpt>
      <trkpt lat="46.6542" lon="5.55766">
        <ele>380</ele>
        <time>2021-05-29T11:47:31.723Z</time>
      </trkpt>
      <trkpt lat="46.6542" lon="5.55764">
        <ele>380</ele>
        <time>2021-05-29T11:47:32.722Z</time>
      </trkpt>
      <trkpt lat="46.6542" lon="5.55761">
        <ele>380</ele>
        <time>2021-05-29T11:47:33.723Z</time>
      </trkpt>
      <trkpt lat="46.6542" lon="5.55758">
        <ele>379</ele>
        <time>2021-05-29T11:47:34.722Z</time>
      </trkpt>
      <trkpt lat="46.65421" lon="5.55756">
        <ele>379</ele>
        <time>2021-05-29T11:47:35.723Z</time>
      </trkpt>
      <trkpt lat="46.65421" lon="5.55754">
        <ele>378</ele>
        <time>2021-05-29T11:47:36.723Z</time>
      </trkpt>
      <trkpt lat="46.65422" lon="5.55753">
        <ele>378</ele>
        <time>2021-05-29T11:47:37.723Z</time>
      </trkpt>
      <trkpt lat="46.65423" lon="5.55752">
        <ele>378</ele>
        <time>2021-05-29T11:47:38.723Z</time>
      </trkpt>
      <trkpt lat="46.65423" lon="5.55753">
        <ele>382</ele>
        <time>2021-05-29T11:47:39.722Z</time>
      </trkpt>
      <trkpt lat="46.65423" lon="5.55753">
        <ele>382</ele>
        <time>2021-05-29T11:47:40.722Z</time>
      </trkpt>
      <trkpt lat="46.65423" lon="5.55753">
        <ele>382</ele>
        <time>2021-05-29T11:47:41.722Z</time>
      </trkpt>
      <trkpt lat="46.65423" lon="5.55753">
        <ele>382</ele>
        <time>2021-05-29T11:47:42.722Z</time>
      </trkpt>
      <trkpt lat="46.65423" lon="5.55753">
        <ele>382</ele>
        <time>2021-05-29T11:47:43.723Z</time>
      </trkpt>
      <trkpt lat="46.65423" lon="5.55753">
        <ele>382</ele>
        <time>2021-05-29T11:47:44.722Z</time>
      </trkpt>
      <trkpt lat="46.65423" lon="5.55753">
        <ele>382</ele>
        <time>2021-05-29T11:47:45.722Z</time>
      </trkpt>
      <trkpt lat="46.65423" lon="5.55753">
        <ele>382</ele>
        <time>2021-05-29T11:47:46.722Z</time>
      </trkpt>
      <trkpt lat="46.65423" lon="5.55752">
        <ele>382</ele>
        <time>2021-05-29T11:47:47.722Z</time>
      </trkpt>
      <trkpt lat="46.65424" lon="5.55749">
        <ele>382</ele>
        <time>2021-05-29T11:47:48.723Z</time>
      </trkpt>
      <trkpt lat="46.65425" lon="5.55747">
        <ele>382</ele>
        <time>2021-05-29T11:47:49.722Z</time>
      </trkpt>
      <trkpt lat="46.65426" lon="5.55745">
        <ele>382</ele>
        <time>2021-05-29T11:47:50.722Z</time>
      </trkpt>
      <trkpt lat="46.65428" lon="5.55742">
        <ele>382</ele>
        <time>2021-05-29T11:47:51.722Z</time>
      </trkpt>
      <trkpt lat="46.65429" lon="5.55739">
        <ele>381</ele>
        <time>2021-05-29T11:47:52.722Z</time>
      </trkpt>
      <trkpt lat="46.65429" lon="5.55737">
        <ele>381</ele>
        <time>2021-05-29T11:47:53.722Z</time>
      </trkpt>
      <trkpt lat="46.65431" lon="5.55734">
        <ele>381</ele>
        <time>2021-05-29T11:47:54.722Z</time>
      </trkpt>
      <trkpt lat="46.65432" lon="5.55732">
        <ele>381</ele>
        <time>2021-05-29T11:47:55.722Z</time>
      </trkpt>
      <trkpt lat="46.65433" lon="5.55729">
        <ele>381</ele>
        <time>2021-05-29T11:47:56.722Z</time>
      </trkpt>
      <trkpt lat="46.65434" lon="5.55726">
        <ele>382</ele>
        <time>2021-05-29T11:47:57.722Z</time>
      </trkpt>
      <trkpt lat="46.65435" lon="5.55725">
        <ele>382</ele>
        <time>2021-05-29T11:47:58.723Z</time>
      </trkpt>
      <trkpt lat="46.65437" lon="5.55722">
        <ele>382</ele>
        <time>2021-05-29T11:47:59.723Z</time>
      </trkpt>
      <trkpt lat="46.65438" lon="5.5572">
        <ele>382</ele>
        <time>2021-05-29T11:48:00.723Z</time>
      </trkpt>
      <trkpt lat="46.65439" lon="5.55718">
        <ele>382</ele>
        <time>2021-05-29T11:48:01.722Z</time>
      </trkpt>
      <trkpt lat="46.65441" lon="5.55716">
        <ele>382</ele>
        <time>2021-05-29T11:48:02.722Z</time>
      </trkpt>
      <trkpt lat="46.65441" lon="5.55714">
        <ele>382</ele>
        <time>2021-05-29T11:48:03.722Z</time>
      </trkpt>
      <trkpt lat="46.65443" lon="5.55711">
        <ele>382</ele>
        <time>2021-05-29T11:48:04.722Z</time>
      </trkpt>
      <trkpt lat="46.65444" lon="5.55709">
        <ele>382</ele>
        <time>2021-05-29T11:48:05.722Z</time>
      </trkpt>
      <trkpt lat="46.65445" lon="5.55707">
        <ele>382</ele>
        <time>2021-05-29T11:48:06.723Z</time>
      </trkpt>
      <trkpt lat="46.65446" lon="5.55705">
        <ele>383</ele>
        <time>2021-05-29T11:48:07.722Z</time>
      </trkpt>
      <trkpt lat="46.65447" lon="5.55703">
        <ele>383</ele>
        <time>2021-05-29T11:48:08.723Z</time>
      </trkpt>
      <trkpt lat="46.65449" lon="5.55702">
        <ele>384</ele>
        <time>2021-05-29T11:48:09.722Z</time>
      </trkpt>
      <trkpt lat="46.6545" lon="5.55701">
        <ele>384</ele>
        <time>2021-05-29T11:48:10.722Z</time>
      </trkpt>
      <trkpt lat="46.65451" lon="5.557">
        <ele>385</ele>
        <time>2021-05-29T11:48:11.722Z</time>
      </trkpt>
      <trkpt lat="46.65452" lon="5.55699">
        <ele>385</ele>
        <time>2021-05-29T11:48:12.722Z</time>
      </trkpt>
      <trkpt lat="46.65452" lon="5.55698">
        <ele>386</ele>
        <time>2021-05-29T11:48:13.723Z</time>
      </trkpt>
      <trkpt lat="46.65453" lon="5.55697">
        <ele>386</ele>
        <time>2021-05-29T11:48:14.722Z</time>
      </trkpt>
      <trkpt lat="46.65452" lon="5.55697">
        <ele>386</ele>
        <time>2021-05-29T11:48:15.723Z</time>
      </trkpt>
      <trkpt lat="46.65452" lon="5.55696">
        <ele>386</ele>
        <time>2021-05-29T11:48:16.722Z</time>
      </trkpt>
      <trkpt lat="46.65452" lon="5.55695">
        <ele>386</ele>
        <time>2021-05-29T11:48:17.722Z</time>
      </trkpt>
      <trkpt lat="46.65452" lon="5.55694">
        <ele>385</ele>
        <time>2021-05-29T11:48:18.722Z</time>
      </trkpt>
      <trkpt lat="46.65452" lon="5.55693">
        <ele>385</ele>
        <time>2021-05-29T11:48:19.722Z</time>
      </trkpt>
      <trkpt lat="46.65452" lon="5.55694">
        <ele>385</ele>
        <time>2021-05-29T11:48:20.722Z</time>
      </trkpt>
      <trkpt lat="46.65452" lon="5.55695">
        <ele>385</ele>
        <time>2021-05-29T11:48:21.722Z</time>
      </trkpt>
      <trkpt lat="46.65452" lon="5.55696">
        <ele>386</ele>
        <time>2021-05-29T11:48:22.722Z</time>
      </trkpt>
      <trkpt lat="46.65452" lon="5.55698">
        <ele>386</ele>
        <time>2021-05-29T11:48:23.722Z</time>
      </trkpt>
      <trkpt lat="46.65452" lon="5.55699">
        <ele>386</ele>
        <time>2021-05-29T11:48:24.722Z</time>
      </trkpt>
      <trkpt lat="46.65451" lon="5.557">
        <ele>386</ele>
        <time>2021-05-29T11:48:25.722Z</time>
      </trkpt>
      <trkpt lat="46.65451" lon="5.55701">
        <ele>386</ele>
        <time>2021-05-29T11:48:26.722Z</time>
      </trkpt>
      <trkpt lat="46.65451" lon="5.55703">
        <ele>386</ele>
        <time>2021-05-29T11:48:27.722Z</time>
      </trkpt>
      <trkpt lat="46.65451" lon="5.55704">
        <ele>386</ele>
        <time>2021-05-29T11:48:28.722Z</time>
      </trkpt>
      <trkpt lat="46.65451" lon="5.55705">
        <ele>386</ele>
        <time>2021-05-29T11:48:29.722Z</time>
      </trkpt>
      <trkpt lat="46.65451" lon="5.55704">
        <ele>385</ele>
        <time>2021-05-29T11:48:30.722Z</time>
      </trkpt>
      <trkpt lat="46.65451" lon="5.55704">
        <ele>385</ele>
        <time>2021-05-29T11:48:31.723Z</time>
      </trkpt>
      <trkpt lat="46.65451" lon="5.55705">
        <ele>384</ele>
        <time>2021-05-29T11:48:32.722Z</time>
      </trkpt>
      <trkpt lat="46.65451" lon="5.55706">
        <ele>384</ele>
        <time>2021-05-29T11:48:33.722Z</time>
      </trkpt>
      <trkpt lat="46.65451" lon="5.55707">
        <ele>383</ele>
        <time>2021-05-29T11:48:34.722Z</time>
      </trkpt>
      <trkpt lat="46.65451" lon="5.55708">
        <ele>383</ele>
        <time>2021-05-29T11:48:35.722Z</time>
      </trkpt>
      <trkpt lat="46.65451" lon="5.5571">
        <ele>384</ele>
        <time>2021-05-29T11:48:36.723Z</time>
      </trkpt>
      <trkpt lat="46.6545" lon="5.55713">
        <ele>384</ele>
        <time>2021-05-29T11:48:37.722Z</time>
      </trkpt>
      <trkpt lat="46.6545" lon="5.55717">
        <ele>384</ele>
        <time>2021-05-29T11:48:38.722Z</time>
      </trkpt>
      <trkpt lat="46.65449" lon="5.55719">
        <ele>384</ele>
        <time>2021-05-29T11:48:39.722Z</time>
      </trkpt>
      <trkpt lat="46.65449" lon="5.5572">
        <ele>384</ele>
        <time>2021-05-29T11:48:40.722Z</time>
      </trkpt>
      <trkpt lat="46.65448" lon="5.55721">
        <ele>384</ele>
        <time>2021-05-29T11:48:41.722Z</time>
      </trkpt>
      <trkpt lat="46.65447" lon="5.55724">
        <ele>384</ele>
        <time>2021-05-29T11:48:42.722Z</time>
      </trkpt>
      <trkpt lat="46.65447" lon="5.55726">
        <ele>383</ele>
        <time>2021-05-29T11:48:43.722Z</time>
      </trkpt>
      <trkpt lat="46.65447" lon="5.55728">
        <ele>384</ele>
        <time>2021-05-29T11:48:44.722Z</time>
      </trkpt>
      <trkpt lat="46.65446" lon="5.5573">
        <ele>384</ele>
        <time>2021-05-29T11:48:45.722Z</time>
      </trkpt>
      <trkpt lat="46.65446" lon="5.55732">
        <ele>384</ele>
        <time>2021-05-29T11:48:46.722Z</time>
      </trkpt>
      <trkpt lat="46.65445" lon="5.55734">
        <ele>384</ele>
        <time>2021-05-29T11:48:47.722Z</time>
      </trkpt>
      <trkpt lat="46.65444" lon="5.55737">
        <ele>384</ele>
        <time>2021-05-29T11:48:48.723Z</time>
      </trkpt>
      <trkpt lat="46.65443" lon="5.55739">
        <ele>384</ele>
        <time>2021-05-29T11:48:49.722Z</time>
      </trkpt>
      <trkpt lat="46.65443" lon="5.55741">
        <ele>384</ele>
        <time>2021-05-29T11:48:50.722Z</time>
      </trkpt>
      <trkpt lat="46.65442" lon="5.55743">
        <ele>385</ele>
        <time>2021-05-29T11:48:51.722Z</time>
      </trkpt>
      <trkpt lat="46.65441" lon="5.55745">
        <ele>385</ele>
        <time>2021-05-29T11:48:52.723Z</time>
      </trkpt>
      <trkpt lat="46.65441" lon="5.55747">
        <ele>386</ele>
        <time>2021-05-29T11:48:53.722Z</time>
      </trkpt>
      <trkpt lat="46.6544" lon="5.55749">
        <ele>386</ele>
        <time>2021-05-29T11:48:54.723Z</time>
      </trkpt>
      <trkpt lat="46.6544" lon="5.5575">
        <ele>386</ele>
        <time>2021-05-29T11:48:55.722Z</time>
      </trkpt>
      <trkpt lat="46.6544" lon="5.55752">
        <ele>387</ele>
        <time>2021-05-29T11:48:56.722Z</time>
      </trkpt>
      <trkpt lat="46.6544" lon="5.55754">
        <ele>387</ele>
        <time>2021-05-29T11:48:57.722Z</time>
      </trkpt>
      <trkpt lat="46.65439" lon="5.55756">
        <ele>386</ele>
        <time>2021-05-29T11:48:58.722Z</time>
      </trkpt>
      <trkpt lat="46.65438" lon="5.55757">
        <ele>386</ele>
        <time>2021-05-29T11:48:59.723Z</time>
      </trkpt>
      <trkpt lat="46.65438" lon="5.5576">
        <ele>386</ele>
        <time>2021-05-29T11:49:00.723Z</time>
      </trkpt>
      <trkpt lat="46.65437" lon="5.55763">
        <ele>386</ele>
        <time>2021-05-29T11:49:01.722Z</time>
      </trkpt>
      <trkpt lat="46.65436" lon="5.55765">
        <ele>387</ele>
        <time>2021-05-29T11:49:02.722Z</time>
      </trkpt>
      <trkpt lat="46.65436" lon="5.55767">
        <ele>387</ele>
        <time>2021-05-29T11:49:03.722Z</time>
      </trkpt>
      <trkpt lat="46.65435" lon="5.55769">
        <ele>386</ele>
        <time>2021-05-29T11:49:04.723Z</time>
      </trkpt>
      <trkpt lat="46.65435" lon="5.55772">
        <ele>387</ele>
        <time>2021-05-29T11:49:05.722Z</time>
      </trkpt>
      <trkpt lat="46.65435" lon="5.55774">
        <ele>387</ele>
        <time>2021-05-29T11:49:06.722Z</time>
      </trkpt>
      <trkpt lat="46.65435" lon="5.55777">
        <ele>387</ele>
        <time>2021-05-29T11:49:07.723Z</time>
      </trkpt>
      <trkpt lat="46.65435" lon="5.5578">
        <ele>387</ele>
        <time>2021-05-29T11:49:08.722Z</time>
      </trkpt>
      <trkpt lat="46.65435" lon="5.55782">
        <ele>387</ele>
        <time>2021-05-29T11:49:09.722Z</time>
      </trkpt>
      <trkpt lat="46.65435" lon="5.55784">
        <ele>388</ele>
        <time>2021-05-29T11:49:10.722Z</time>
      </trkpt>
      <trkpt lat="46.65436" lon="5.55786">
        <ele>389</ele>
        <time>2021-05-29T11:49:11.723Z</time>
      </trkpt>
      <trkpt lat="46.65436" lon="5.55789">
        <ele>389</ele>
        <time>2021-05-29T11:49:12.722Z</time>
      </trkpt>
      <trkpt lat="46.65437" lon="5.55792">
        <ele>390</ele>
        <time>2021-05-29T11:49:13.723Z</time>
      </trkpt>
      <trkpt lat="46.65438" lon="5.55793">
        <ele>391</ele>
        <time>2021-05-29T11:49:14.722Z</time>
      </trkpt>
      <trkpt lat="46.65439" lon="5.55796">
        <ele>392</ele>
        <time>2021-05-29T11:49:15.722Z</time>
      </trkpt>
      <trkpt lat="46.6544" lon="5.55798">
        <ele>392</ele>
        <time>2021-05-29T11:49:16.722Z</time>
      </trkpt>
      <trkpt lat="46.65441" lon="5.55801">
        <ele>393</ele>
        <time>2021-05-29T11:49:17.722Z</time>
      </trkpt>
      <trkpt lat="46.65442" lon="5.55802">
        <ele>393</ele>
        <time>2021-05-29T11:49:18.722Z</time>
      </trkpt>
      <trkpt lat="46.65443" lon="5.55804">
        <ele>394</ele>
        <time>2021-05-29T11:49:19.722Z</time>
      </trkpt>
      <trkpt lat="46.65445" lon="5.55806">
        <ele>394</ele>
        <time>2021-05-29T11:49:20.722Z</time>
      </trkpt>
      <trkpt lat="46.65446" lon="5.55807">
        <ele>395</ele>
        <time>2021-05-29T11:49:21.722Z</time>
      </trkpt>
      <trkpt lat="46.65447" lon="5.55808">
        <ele>396</ele>
        <time>2021-05-29T11:49:22.722Z</time>
      </trkpt>
      <trkpt lat="46.65448" lon="5.55809">
        <ele>396</ele>
        <time>2021-05-29T11:49:23.723Z</time>
      </trkpt>
      <trkpt lat="46.65449" lon="5.5581">
        <ele>397</ele>
        <time>2021-05-29T11:49:24.722Z</time>
      </trkpt>
      <trkpt lat="46.6545" lon="5.55812">
        <ele>398</ele>
        <time>2021-05-29T11:49:25.722Z</time>
      </trkpt>
      <trkpt lat="46.65451" lon="5.55813">
        <ele>398</ele>
        <time>2021-05-29T11:49:26.722Z</time>
      </trkpt>
      <trkpt lat="46.65452" lon="5.55815">
        <ele>399</ele>
        <time>2021-05-29T11:49:27.722Z</time>
      </trkpt>
      <trkpt lat="46.65453" lon="5.55817">
        <ele>399</ele>
        <time>2021-05-29T11:49:28.722Z</time>
      </trkpt>
      <trkpt lat="46.65454" lon="5.55819">
        <ele>400</ele>
        <time>2021-05-29T11:49:29.722Z</time>
      </trkpt>
      <trkpt lat="46.65456" lon="5.5582">
        <ele>400</ele>
        <time>2021-05-29T11:49:30.722Z</time>
      </trkpt>
      <trkpt lat="46.65457" lon="5.55821">
        <ele>400</ele>
        <time>2021-05-29T11:49:31.722Z</time>
      </trkpt>
      <trkpt lat="46.65459" lon="5.55822">
        <ele>401</ele>
        <time>2021-05-29T11:49:32.723Z</time>
      </trkpt>
      <trkpt lat="46.6546" lon="5.55823">
        <ele>401</ele>
        <time>2021-05-29T11:49:33.723Z</time>
      </trkpt>
      <trkpt lat="46.65461" lon="5.55824">
        <ele>401</ele>
        <time>2021-05-29T11:49:34.722Z</time>
      </trkpt>
      <trkpt lat="46.65463" lon="5.55826">
        <ele>402</ele>
        <time>2021-05-29T11:49:35.722Z</time>
      </trkpt>
      <trkpt lat="46.65464" lon="5.55827">
        <ele>402</ele>
        <time>2021-05-29T11:49:36.722Z</time>
      </trkpt>
      <trkpt lat="46.65465" lon="5.55828">
        <ele>402</ele>
        <time>2021-05-29T11:49:37.722Z</time>
      </trkpt>
      <trkpt lat="46.65467" lon="5.55829">
        <ele>402</ele>
        <time>2021-05-29T11:49:38.722Z</time>
      </trkpt>
      <trkpt lat="46.65469" lon="5.5583">
        <ele>402</ele>
        <time>2021-05-29T11:49:39.722Z</time>
      </trkpt>
      <trkpt lat="46.6547" lon="5.55831">
        <ele>402</ele>
        <time>2021-05-29T11:49:40.723Z</time>
      </trkpt>
      <trkpt lat="46.65472" lon="5.55832">
        <ele>402</ele>
        <time>2021-05-29T11:49:41.722Z</time>
      </trkpt>
      <trkpt lat="46.65473" lon="5.55832">
        <ele>402</ele>
        <time>2021-05-29T11:49:42.722Z</time>
      </trkpt>
      <trkpt lat="46.65475" lon="5.55833">
        <ele>402</ele>
        <time>2021-05-29T11:49:43.722Z</time>
      </trkpt>
      <trkpt lat="46.65478" lon="5.55835">
        <ele>402</ele>
        <time>2021-05-29T11:49:44.722Z</time>
      </trkpt>
      <trkpt lat="46.65479" lon="5.55837">
        <ele>403</ele>
        <time>2021-05-29T11:49:45.722Z</time>
      </trkpt>
      <trkpt lat="46.6548" lon="5.55838">
        <ele>403</ele>
        <time>2021-05-29T11:49:46.722Z</time>
      </trkpt>
      <trkpt lat="46.65481" lon="5.5584">
        <ele>403</ele>
        <time>2021-05-29T11:49:47.722Z</time>
      </trkpt>
      <trkpt lat="46.65482" lon="5.55842">
        <ele>403</ele>
        <time>2021-05-29T11:49:48.722Z</time>
      </trkpt>
      <trkpt lat="46.65483" lon="5.55843">
        <ele>403</ele>
        <time>2021-05-29T11:49:49.722Z</time>
      </trkpt>
      <trkpt lat="46.65485" lon="5.55844">
        <ele>403</ele>
        <time>2021-05-29T11:49:50.723Z</time>
      </trkpt>
      <trkpt lat="46.65486" lon="5.55844">
        <ele>403</ele>
        <time>2021-05-29T11:49:51.722Z</time>
      </trkpt>
      <trkpt lat="46.65488" lon="5.55845">
        <ele>403</ele>
        <time>2021-05-29T11:49:52.722Z</time>
      </trkpt>
      <trkpt lat="46.65489" lon="5.55846">
        <ele>403</ele>
        <time>2021-05-29T11:49:53.722Z</time>
      </trkpt>
      <trkpt lat="46.6549" lon="5.55847">
        <ele>403</ele>
        <time>2021-05-29T11:49:54.722Z</time>
      </trkpt>
      <trkpt lat="46.65492" lon="5.55848">
        <ele>403</ele>
        <time>2021-05-29T11:49:55.722Z</time>
      </trkpt>
      <trkpt lat="46.65493" lon="5.55849">
        <ele>403</ele>
        <time>2021-05-29T11:49:56.722Z</time>
      </trkpt>
      <trkpt lat="46.65495" lon="5.55849">
        <ele>403</ele>
        <time>2021-05-29T11:49:57.722Z</time>
      </trkpt>
      <trkpt lat="46.65496" lon="5.5585">
        <ele>403</ele>
        <time>2021-05-29T11:49:58.722Z</time>
      </trkpt>
      <trkpt lat="46.65497" lon="5.5585">
        <ele>404</ele>
        <time>2021-05-29T11:49:59.722Z</time>
      </trkpt>
      <trkpt lat="46.65499" lon="5.55851">
        <ele>404</ele>
        <time>2021-05-29T11:50:00.722Z</time>
      </trkpt>
      <trkpt lat="46.655" lon="5.55851">
        <ele>404</ele>
        <time>2021-05-29T11:50:01.722Z</time>
      </trkpt>
      <trkpt lat="46.65502" lon="5.55852">
        <ele>404</ele>
        <time>2021-05-29T11:50:02.722Z</time>
      </trkpt>
      <trkpt lat="46.65503" lon="5.55852">
        <ele>404</ele>
        <time>2021-05-29T11:50:03.722Z</time>
      </trkpt>
      <trkpt lat="46.65504" lon="5.55853">
        <ele>405</ele>
        <time>2021-05-29T11:50:04.722Z</time>
      </trkpt>
      <trkpt lat="46.65506" lon="5.55853">
        <ele>405</ele>
        <time>2021-05-29T11:50:05.723Z</time>
      </trkpt>
      <trkpt lat="46.65508" lon="5.55854">
        <ele>405</ele>
        <time>2021-05-29T11:50:06.723Z</time>
      </trkpt>
      <trkpt lat="46.65509" lon="5.55854">
        <ele>405</ele>
        <time>2021-05-29T11:50:07.723Z</time>
      </trkpt>
      <trkpt lat="46.65511" lon="5.55855">
        <ele>405</ele>
        <time>2021-05-29T11:50:08.722Z</time>
      </trkpt>
      <trkpt lat="46.65513" lon="5.55856">
        <ele>405</ele>
        <time>2021-05-29T11:50:09.723Z</time>
      </trkpt>
      <trkpt lat="46.65514" lon="5.55858">
        <ele>405</ele>
        <time>2021-05-29T11:50:10.722Z</time>
      </trkpt>
      <trkpt lat="46.65516" lon="5.55859">
        <ele>405</ele>
        <time>2021-05-29T11:50:11.723Z</time>
      </trkpt>
      <trkpt lat="46.65518" lon="5.5586">
        <ele>405</ele>
        <time>2021-05-29T11:50:12.723Z</time>
      </trkpt>
      <trkpt lat="46.6552" lon="5.55861">
        <ele>406</ele>
        <time>2021-05-29T11:50:13.722Z</time>
      </trkpt>
      <trkpt lat="46.65523" lon="5.55864">
        <ele>406</ele>
        <time>2021-05-29T11:50:14.723Z</time>
      </trkpt>
      <trkpt lat="46.65526" lon="5.55866">
        <ele>406</ele>
        <time>2021-05-29T11:50:15.723Z</time>
      </trkpt>
      <trkpt lat="46.65529" lon="5.55869">
        <ele>407</ele>
        <time>2021-05-29T11:50:16.722Z</time>
      </trkpt>
      <trkpt lat="46.65531" lon="5.55871">
        <ele>407</ele>
        <time>2021-05-29T11:50:17.722Z</time>
      </trkpt>
      <trkpt lat="46.65533" lon="5.55873">
        <ele>407</ele>
        <time>2021-05-29T11:50:18.723Z</time>
      </trkpt>
      <trkpt lat="46.65535" lon="5.55875">
        <ele>408</ele>
        <time>2021-05-29T11:50:19.722Z</time>
      </trkpt>
      <trkpt lat="46.65536" lon="5.55878">
        <ele>408</ele>
        <time>2021-05-29T11:50:20.722Z</time>
      </trkpt>
      <trkpt lat="46.65538" lon="5.55879">
        <ele>408</ele>
        <time>2021-05-29T11:50:21.722Z</time>
      </trkpt>
      <trkpt lat="46.6554" lon="5.55881">
        <ele>408</ele>
        <time>2021-05-29T11:50:22.722Z</time>
      </trkpt>
      <trkpt lat="46.65541" lon="5.55883">
        <ele>408</ele>
        <time>2021-05-29T11:50:23.723Z</time>
      </trkpt>
      <trkpt lat="46.65543" lon="5.55885">
        <ele>409</ele>
        <time>2021-05-29T11:50:24.723Z</time>
      </trkpt>
      <trkpt lat="46.65544" lon="5.55886">
        <ele>409</ele>
        <time>2021-05-29T11:50:25.722Z</time>
      </trkpt>
      <trkpt lat="46.65546" lon="5.55888">
        <ele>409</ele>
        <time>2021-05-29T11:50:26.722Z</time>
      </trkpt>
      <trkpt lat="46.65548" lon="5.5589">
        <ele>409</ele>
        <time>2021-05-29T11:50:27.723Z</time>
      </trkpt>
      <trkpt lat="46.65549" lon="5.55891">
        <ele>409</ele>
        <time>2021-05-29T11:50:28.723Z</time>
      </trkpt>
      <trkpt lat="46.65551" lon="5.55893">
        <ele>409</ele>
        <time>2021-05-29T11:50:29.723Z</time>
      </trkpt>
      <trkpt lat="46.65553" lon="5.55895">
        <ele>409</ele>
        <time>2021-05-29T11:50:30.722Z</time>
      </trkpt>
      <trkpt lat="46.65555" lon="5.55897">
        <ele>409</ele>
        <time>2021-05-29T11:50:31.722Z</time>
      </trkpt>
      <trkpt lat="46.65558" lon="5.55899">
        <ele>409</ele>
        <time>2021-05-29T11:50:32.722Z</time>
      </trkpt>
      <trkpt lat="46.65559" lon="5.55901">
        <ele>408</ele>
        <time>2021-05-29T11:50:33.723Z</time>
      </trkpt>
      <trkpt lat="46.6556" lon="5.55902">
        <ele>408</ele>
        <time>2021-05-29T11:50:34.722Z</time>
      </trkpt>
      <trkpt lat="46.65562" lon="5.55905">
        <ele>408</ele>
        <time>2021-05-29T11:50:35.722Z</time>
      </trkpt>
      <trkpt lat="46.65563" lon="5.55907">
        <ele>408</ele>
        <time>2021-05-29T11:50:36.722Z</time>
      </trkpt>
      <trkpt lat="46.65564" lon="5.55909">
        <ele>408</ele>
        <time>2021-05-29T11:50:37.722Z</time>
      </trkpt>
      <trkpt lat="46.65565" lon="5.55911">
        <ele>408</ele>
        <time>2021-05-29T11:50:38.723Z</time>
      </trkpt>
      <trkpt lat="46.65567" lon="5.55912">
        <ele>408</ele>
        <time>2021-05-29T11:50:39.723Z</time>
      </trkpt>
      <trkpt lat="46.65568" lon="5.55914">
        <ele>408</ele>
        <time>2021-05-29T11:50:40.722Z</time>
      </trkpt>
      <trkpt lat="46.65569" lon="5.55916">
        <ele>409</ele>
        <time>2021-05-29T11:50:41.723Z</time>
      </trkpt>
      <trkpt lat="46.65571" lon="5.55917">
        <ele>409</ele>
        <time>2021-05-29T11:50:42.722Z</time>
      </trkpt>
      <trkpt lat="46.65573" lon="5.55919">
        <ele>409</ele>
        <time>2021-05-29T11:50:43.723Z</time>
      </trkpt>
      <trkpt lat="46.65575" lon="5.5592">
        <ele>409</ele>
        <time>2021-05-29T11:50:44.723Z</time>
      </trkpt>
      <trkpt lat="46.65576" lon="5.55922">
        <ele>409</ele>
        <time>2021-05-29T11:50:45.722Z</time>
      </trkpt>
      <trkpt lat="46.65579" lon="5.55924">
        <ele>410</ele>
        <time>2021-05-29T11:50:46.722Z</time>
      </trkpt>
      <trkpt lat="46.65581" lon="5.55925">
        <ele>410</ele>
        <time>2021-05-29T11:50:47.722Z</time>
      </trkpt>
      <trkpt lat="46.65583" lon="5.55926">
        <ele>410</ele>
        <time>2021-05-29T11:50:48.723Z</time>
      </trkpt>
      <trkpt lat="46.65585" lon="5.55928">
        <ele>410</ele>
        <time>2021-05-29T11:50:49.722Z</time>
      </trkpt>
      <trkpt lat="46.65586" lon="5.55929">
        <ele>410</ele>
        <time>2021-05-29T11:50:50.722Z</time>
      </trkpt>
      <trkpt lat="46.65588" lon="5.5593">
        <ele>409</ele>
        <time>2021-05-29T11:50:51.722Z</time>
      </trkpt>
      <trkpt lat="46.65589" lon="5.55932">
        <ele>409</ele>
        <time>2021-05-29T11:50:52.722Z</time>
      </trkpt>
      <trkpt lat="46.6559" lon="5.55933">
        <ele>409</ele>
        <time>2021-05-29T11:50:53.723Z</time>
      </trkpt>
      <trkpt lat="46.65592" lon="5.55935">
        <ele>408</ele>
        <time>2021-05-29T11:50:54.723Z</time>
      </trkpt>
      <trkpt lat="46.65594" lon="5.55937">
        <ele>408</ele>
        <time>2021-05-29T11:50:55.723Z</time>
      </trkpt>
      <trkpt lat="46.65596" lon="5.55939">
        <ele>408</ele>
        <time>2021-05-29T11:50:56.722Z</time>
      </trkpt>
      <trkpt lat="46.65598" lon="5.55941">
        <ele>408</ele>
        <time>2021-05-29T11:50:57.722Z</time>
      </trkpt>
      <trkpt lat="46.65599" lon="5.55944">
        <ele>408</ele>
        <time>2021-05-29T11:50:58.723Z</time>
      </trkpt>
      <trkpt lat="46.65602" lon="5.55947">
        <ele>407</ele>
        <time>2021-05-29T11:50:59.722Z</time>
      </trkpt>
      <trkpt lat="46.65603" lon="5.55949">
        <ele>407</ele>
        <time>2021-05-29T11:51:00.722Z</time>
      </trkpt>
      <trkpt lat="46.65605" lon="5.55951">
        <ele>407</ele>
        <time>2021-05-29T11:51:01.722Z</time>
      </trkpt>
      <trkpt lat="46.65608" lon="5.55954">
        <ele>407</ele>
        <time>2021-05-29T11:51:02.723Z</time>
      </trkpt>
      <trkpt lat="46.6561" lon="5.55956">
        <ele>407</ele>
        <time>2021-05-29T11:51:03.722Z</time>
      </trkpt>
      <trkpt lat="46.65613" lon="5.55959">
        <ele>406</ele>
        <time>2021-05-29T11:51:04.722Z</time>
      </trkpt>
      <trkpt lat="46.65615" lon="5.55961">
        <ele>406</ele>
        <time>2021-05-29T11:51:05.722Z</time>
      </trkpt>
      <trkpt lat="46.65616" lon="5.55963">
        <ele>406</ele>
        <time>2021-05-29T11:51:06.722Z</time>
      </trkpt>
      <trkpt lat="46.65618" lon="5.55965">
        <ele>406</ele>
        <time>2021-05-29T11:51:07.722Z</time>
      </trkpt>
      <trkpt lat="46.65619" lon="5.55967">
        <ele>406</ele>
        <time>2021-05-29T11:51:08.722Z</time>
      </trkpt>
      <trkpt lat="46.65621" lon="5.55969">
        <ele>406</ele>
        <time>2021-05-29T11:51:09.722Z</time>
      </trkpt>
      <trkpt lat="46.65623" lon="5.55972">
        <ele>406</ele>
        <time>2021-05-29T11:51:10.722Z</time>
      </trkpt>
      <trkpt lat="46.65624" lon="5.55973">
        <ele>406</ele>
        <time>2021-05-29T11:51:11.722Z</time>
      </trkpt>
      <trkpt lat="46.65625" lon="5.55974">
        <ele>406</ele>
        <time>2021-05-29T11:51:12.723Z</time>
      </trkpt>
      <trkpt lat="46.65627" lon="5.55976">
        <ele>406</ele>
        <time>2021-05-29T11:51:13.722Z</time>
      </trkpt>
      <trkpt lat="46.65628" lon="5.55977">
        <ele>405</ele>
        <time>2021-05-29T11:51:14.722Z</time>
      </trkpt>
      <trkpt lat="46.6563" lon="5.55978">
        <ele>405</ele>
        <time>2021-05-29T11:51:15.722Z</time>
      </trkpt>
      <trkpt lat="46.65632" lon="5.5598">
        <ele>405</ele>
        <time>2021-05-29T11:51:16.722Z</time>
      </trkpt>
      <trkpt lat="46.65635" lon="5.55982">
        <ele>405</ele>
        <time>2021-05-29T11:51:17.722Z</time>
      </trkpt>
      <trkpt lat="46.65637" lon="5.55984">
        <ele>405</ele>
        <time>2021-05-29T11:51:18.722Z</time>
      </trkpt>
      <trkpt lat="46.65639" lon="5.55986">
        <ele>405</ele>
        <time>2021-05-29T11:51:19.723Z</time>
      </trkpt>
      <trkpt lat="46.65641" lon="5.55987">
        <ele>405</ele>
        <time>2021-05-29T11:51:20.722Z</time>
      </trkpt>
      <trkpt lat="46.65643" lon="5.5599">
        <ele>405</ele>
        <time>2021-05-29T11:51:21.723Z</time>
      </trkpt>
      <trkpt lat="46.65644" lon="5.55991">
        <ele>405</ele>
        <time>2021-05-29T11:51:22.722Z</time>
      </trkpt>
      <trkpt lat="46.65646" lon="5.55993">
        <ele>405</ele>
        <time>2021-05-29T11:51:23.722Z</time>
      </trkpt>
      <trkpt lat="46.65648" lon="5.55995">
        <ele>406</ele>
        <time>2021-05-29T11:51:24.722Z</time>
      </trkpt>
      <trkpt lat="46.6565" lon="5.55997">
        <ele>406</ele>
        <time>2021-05-29T11:51:25.723Z</time>
      </trkpt>
      <trkpt lat="46.65652" lon="5.55998">
        <ele>406</ele>
        <time>2021-05-29T11:51:26.723Z</time>
      </trkpt>
      <trkpt lat="46.65654" lon="5.56">
        <ele>406</ele>
        <time>2021-05-29T11:51:27.722Z</time>
      </trkpt>
      <trkpt lat="46.65657" lon="5.56001">
        <ele>406</ele>
        <time>2021-05-29T11:51:28.722Z</time>
      </trkpt>
      <trkpt lat="46.6566" lon="5.56003">
        <ele>406</ele>
        <time>2021-05-29T11:51:29.723Z</time>
      </trkpt>
      <trkpt lat="46.65662" lon="5.56004">
        <ele>406</ele>
        <time>2021-05-29T11:51:30.722Z</time>
      </trkpt>
      <trkpt lat="46.65663" lon="5.56005">
        <ele>407</ele>
        <time>2021-05-29T11:51:31.722Z</time>
      </trkpt>
      <trkpt lat="46.65665" lon="5.56007">
        <ele>407</ele>
        <time>2021-05-29T11:51:32.722Z</time>
      </trkpt>
      <trkpt lat="46.65667" lon="5.56008">
        <ele>406</ele>
        <time>2021-05-29T11:51:33.722Z</time>
      </trkpt>
      <trkpt lat="46.65669" lon="5.56008">
        <ele>406</ele>
        <time>2021-05-29T11:51:34.722Z</time>
      </trkpt>
      <trkpt lat="46.6567" lon="5.56009">
        <ele>406</ele>
        <time>2021-05-29T11:51:35.722Z</time>
      </trkpt>
      <trkpt lat="46.65671" lon="5.5601">
        <ele>406</ele>
        <time>2021-05-29T11:51:36.722Z</time>
      </trkpt>
      <trkpt lat="46.65672" lon="5.56012">
        <ele>405</ele>
        <time>2021-05-29T11:51:37.722Z</time>
      </trkpt>
      <trkpt lat="46.65673" lon="5.56013">
        <ele>405</ele>
        <time>2021-05-29T11:51:38.722Z</time>
      </trkpt>
      <trkpt lat="46.65674" lon="5.56013">
        <ele>405</ele>
        <time>2021-05-29T11:51:39.722Z</time>
      </trkpt>
      <trkpt lat="46.65676" lon="5.56015">
        <ele>405</ele>
        <time>2021-05-29T11:51:40.722Z</time>
      </trkpt>
      <trkpt lat="46.65677" lon="5.56015">
        <ele>404</ele>
        <time>2021-05-29T11:51:41.723Z</time>
      </trkpt>
      <trkpt lat="46.6568" lon="5.56018">
        <ele>404</ele>
        <time>2021-05-29T11:51:42.722Z</time>
      </trkpt>
      <trkpt lat="46.65682" lon="5.56018">
        <ele>404</ele>
        <time>2021-05-29T11:51:43.723Z</time>
      </trkpt>
      <trkpt lat="46.65684" lon="5.56019">
        <ele>404</ele>
        <time>2021-05-29T11:51:44.722Z</time>
      </trkpt>
      <trkpt lat="46.65686" lon="5.5602">
        <ele>404</ele>
        <time>2021-05-29T11:51:45.723Z</time>
      </trkpt>
      <trkpt lat="46.65688" lon="5.56021">
        <ele>404</ele>
        <time>2021-05-29T11:51:46.723Z</time>
      </trkpt>
      <trkpt lat="46.65689" lon="5.56021">
        <ele>404</ele>
        <time>2021-05-29T11:51:47.723Z</time>
      </trkpt>
      <trkpt lat="46.65691" lon="5.56022">
        <ele>404</ele>
        <time>2021-05-29T11:51:48.722Z</time>
      </trkpt>
      <trkpt lat="46.65693" lon="5.56022">
        <ele>404</ele>
        <time>2021-05-29T11:51:49.722Z</time>
      </trkpt>
      <trkpt lat="46.65695" lon="5.56023">
        <ele>404</ele>
        <time>2021-05-29T11:51:50.723Z</time>
      </trkpt>
      <trkpt lat="46.65697" lon="5.56023">
        <ele>404</ele>
        <time>2021-05-29T11:51:51.723Z</time>
      </trkpt>
      <trkpt lat="46.657" lon="5.56024">
        <ele>404</ele>
        <time>2021-05-29T11:51:52.723Z</time>
      </trkpt>
      <trkpt lat="46.65702" lon="5.56025">
        <ele>404</ele>
        <time>2021-05-29T11:51:53.723Z</time>
      </trkpt>
      <trkpt lat="46.65704" lon="5.56026">
        <ele>404</ele>
        <time>2021-05-29T11:51:54.722Z</time>
      </trkpt>
      <trkpt lat="46.65706" lon="5.56026">
        <ele>405</ele>
        <time>2021-05-29T11:51:55.723Z</time>
      </trkpt>
      <trkpt lat="46.65708" lon="5.56027">
        <ele>405</ele>
        <time>2021-05-29T11:51:56.723Z</time>
      </trkpt>
      <trkpt lat="46.6571" lon="5.56027">
        <ele>405</ele>
        <time>2021-05-29T11:51:57.722Z</time>
      </trkpt>
      <trkpt lat="46.65712" lon="5.56027">
        <ele>405</ele>
        <time>2021-05-29T11:51:58.722Z</time>
      </trkpt>
      <trkpt lat="46.65713" lon="5.56027">
        <ele>405</ele>
        <time>2021-05-29T11:51:59.722Z</time>
      </trkpt>
      <trkpt lat="46.65714" lon="5.56027">
        <ele>405</ele>
        <time>2021-05-29T11:52:00.723Z</time>
      </trkpt>
      <trkpt lat="46.65715" lon="5.56028">
        <ele>405</ele>
        <time>2021-05-29T11:52:01.722Z</time>
      </trkpt>
      <trkpt lat="46.65716" lon="5.56029">
        <ele>405</ele>
        <time>2021-05-29T11:52:02.723Z</time>
      </trkpt>
      <trkpt lat="46.65717" lon="5.56031">
        <ele>405</ele>
        <time>2021-05-29T11:52:03.722Z</time>
      </trkpt>
      <trkpt lat="46.65717" lon="5.56032">
        <ele>406</ele>
        <time>2021-05-29T11:52:04.722Z</time>
      </trkpt>
      <trkpt lat="46.65717" lon="5.56033">
        <ele>406</ele>
        <time>2021-05-29T11:52:05.722Z</time>
      </trkpt>
      <trkpt lat="46.65717" lon="5.56033">
        <ele>406</ele>
        <time>2021-05-29T11:52:06.722Z</time>
      </trkpt>
      <trkpt lat="46.65718" lon="5.56033">
        <ele>406</ele>
        <time>2021-05-29T11:52:07.722Z</time>
      </trkpt>
      <trkpt lat="46.65718" lon="5.56032">
        <ele>407</ele>
        <time>2021-05-29T11:52:08.722Z</time>
      </trkpt>
      <trkpt lat="46.65719" lon="5.56032">
        <ele>407</ele>
        <time>2021-05-29T11:52:09.722Z</time>
      </trkpt>
      <trkpt lat="46.65719" lon="5.56032">
        <ele>408</ele>
        <time>2021-05-29T11:52:10.722Z</time>
      </trkpt>
      <trkpt lat="46.6572" lon="5.56032">
        <ele>408</ele>
        <time>2021-05-29T11:52:11.722Z</time>
      </trkpt>
      <trkpt lat="46.65721" lon="5.56031">
        <ele>409</ele>
        <time>2021-05-29T11:52:12.722Z</time>
      </trkpt>
      <trkpt lat="46.65722" lon="5.56031">
        <ele>409</ele>
        <time>2021-05-29T11:52:13.722Z</time>
      </trkpt>
      <trkpt lat="46.65723" lon="5.56031">
        <ele>410</ele>
        <time>2021-05-29T11:52:14.722Z</time>
      </trkpt>
      <trkpt lat="46.65725" lon="5.56031">
        <ele>410</ele>
        <time>2021-05-29T11:52:15.722Z</time>
      </trkpt>
      <trkpt lat="46.65726" lon="5.56031">
        <ele>410</ele>
        <time>2021-05-29T11:52:16.722Z</time>
      </trkpt>
      <trkpt lat="46.65727" lon="5.56031">
        <ele>411</ele>
        <time>2021-05-29T11:52:17.723Z</time>
      </trkpt>
      <trkpt lat="46.65729" lon="5.5603">
        <ele>411</ele>
        <time>2021-05-29T11:52:18.722Z</time>
      </trkpt>
      <trkpt lat="46.6573" lon="5.56029">
        <ele>411</ele>
        <time>2021-05-29T11:52:19.722Z</time>
      </trkpt>
      <trkpt lat="46.65733" lon="5.56029">
        <ele>411</ele>
        <time>2021-05-29T11:52:20.722Z</time>
      </trkpt>
      <trkpt lat="46.65735" lon="5.56029">
        <ele>411</ele>
        <time>2021-05-29T11:52:21.723Z</time>
      </trkpt>
      <trkpt lat="46.65737" lon="5.56029">
        <ele>411</ele>
        <time>2021-05-29T11:52:22.722Z</time>
      </trkpt>
      <trkpt lat="46.65738" lon="5.56029">
        <ele>411</ele>
        <time>2021-05-29T11:52:23.722Z</time>
      </trkpt>
      <trkpt lat="46.6574" lon="5.56029">
        <ele>412</ele>
        <time>2021-05-29T11:52:24.723Z</time>
      </trkpt>
      <trkpt lat="46.65742" lon="5.56029">
        <ele>412</ele>
        <time>2021-05-29T11:52:25.722Z</time>
      </trkpt>
      <trkpt lat="46.65744" lon="5.56029">
        <ele>413</ele>
        <time>2021-05-29T11:52:26.722Z</time>
      </trkpt>
      <trkpt lat="46.65746" lon="5.56029">
        <ele>413</ele>
        <time>2021-05-29T11:52:27.723Z</time>
      </trkpt>
      <trkpt lat="46.65748" lon="5.56029">
        <ele>413</ele>
        <time>2021-05-29T11:52:28.722Z</time>
      </trkpt>
      <trkpt lat="46.6575" lon="5.56029">
        <ele>414</ele>
        <time>2021-05-29T11:52:29.723Z</time>
      </trkpt>
      <trkpt lat="46.65751" lon="5.56028">
        <ele>414</ele>
        <time>2021-05-29T11:52:30.722Z</time>
      </trkpt>
      <trkpt lat="46.65753" lon="5.56027">
        <ele>414</ele>
        <time>2021-05-29T11:52:31.722Z</time>
      </trkpt>
      <trkpt lat="46.65755" lon="5.56027">
        <ele>414</ele>
        <time>2021-05-29T11:52:32.723Z</time>
      </trkpt>
      <trkpt lat="46.65758" lon="5.56027">
        <ele>414</ele>
        <time>2021-05-29T11:52:33.722Z</time>
      </trkpt>
      <trkpt lat="46.6576" lon="5.56026">
        <ele>414</ele>
        <time>2021-05-29T11:52:34.722Z</time>
      </trkpt>
      <trkpt lat="46.65762" lon="5.56027">
        <ele>414</ele>
        <time>2021-05-29T11:52:35.722Z</time>
      </trkpt>
      <trkpt lat="46.65764" lon="5.56027">
        <ele>414</ele>
        <time>2021-05-29T11:52:36.723Z</time>
      </trkpt>
      <trkpt lat="46.65766" lon="5.56027">
        <ele>413</ele>
        <time>2021-05-29T11:52:37.723Z</time>
      </trkpt>
      <trkpt lat="46.65767" lon="5.56026">
        <ele>413</ele>
        <time>2021-05-29T11:52:38.723Z</time>
      </trkpt>
      <trkpt lat="46.65769" lon="5.56025">
        <ele>413</ele>
        <time>2021-05-29T11:52:39.722Z</time>
      </trkpt>
      <trkpt lat="46.65771" lon="5.56025">
        <ele>413</ele>
        <time>2021-05-29T11:52:40.722Z</time>
      </trkpt>
      <trkpt lat="46.65773" lon="5.56024">
        <ele>412</ele>
        <time>2021-05-29T11:52:41.722Z</time>
      </trkpt>
      <trkpt lat="46.65774" lon="5.56024">
        <ele>412</ele>
        <time>2021-05-29T11:52:42.722Z</time>
      </trkpt>
      <trkpt lat="46.65776" lon="5.56023">
        <ele>412</ele>
        <time>2021-05-29T11:52:43.723Z</time>
      </trkpt>
      <trkpt lat="46.65777" lon="5.56023">
        <ele>412</ele>
        <time>2021-05-29T11:52:44.722Z</time>
      </trkpt>
      <trkpt lat="46.6578" lon="5.56023">
        <ele>411</ele>
        <time>2021-05-29T11:52:45.722Z</time>
      </trkpt>
      <trkpt lat="46.65781" lon="5.56023">
        <ele>411</ele>
        <time>2021-05-29T11:52:46.722Z</time>
      </trkpt>
      <trkpt lat="46.65782" lon="5.56023">
        <ele>411</ele>
        <time>2021-05-29T11:52:47.722Z</time>
      </trkpt>
      <trkpt lat="46.65784" lon="5.56023">
        <ele>411</ele>
        <time>2021-05-29T11:52:48.722Z</time>
      </trkpt>
      <trkpt lat="46.65787" lon="5.56021">
        <ele>411</ele>
        <time>2021-05-29T11:52:49.722Z</time>
      </trkpt>
      <trkpt lat="46.65789" lon="5.5602">
        <ele>411</ele>
        <time>2021-05-29T11:52:50.722Z</time>
      </trkpt>
      <trkpt lat="46.6579" lon="5.56018">
        <ele>411</ele>
        <time>2021-05-29T11:52:51.722Z</time>
      </trkpt>
      <trkpt lat="46.65792" lon="5.56017">
        <ele>410</ele>
        <time>2021-05-29T11:52:52.723Z</time>
      </trkpt>
      <trkpt lat="46.65794" lon="5.56016">
        <ele>410</ele>
        <time>2021-05-29T11:52:53.722Z</time>
      </trkpt>
      <trkpt lat="46.65796" lon="5.56015">
        <ele>410</ele>
        <time>2021-05-29T11:52:54.723Z</time>
      </trkpt>
      <trkpt lat="46.65798" lon="5.56014">
        <ele>410</ele>
        <time>2021-05-29T11:52:55.722Z</time>
      </trkpt>
      <trkpt lat="46.658" lon="5.56012">
        <ele>409</ele>
        <time>2021-05-29T11:52:56.723Z</time>
      </trkpt>
      <trkpt lat="46.65803" lon="5.56011">
        <ele>409</ele>
        <time>2021-05-29T11:52:57.723Z</time>
      </trkpt>
      <trkpt lat="46.65806" lon="5.56011">
        <ele>409</ele>
        <time>2021-05-29T11:52:58.722Z</time>
      </trkpt>
      <trkpt lat="46.65808" lon="5.56011">
        <ele>409</ele>
        <time>2021-05-29T11:52:59.722Z</time>
      </trkpt>
      <trkpt lat="46.6581" lon="5.56011">
        <ele>409</ele>
        <time>2021-05-29T11:53:00.723Z</time>
      </trkpt>
      <trkpt lat="46.65813" lon="5.56012">
        <ele>410</ele>
        <time>2021-05-29T11:53:01.722Z</time>
      </trkpt>
      <trkpt lat="46.65815" lon="5.56012">
        <ele>410</ele>
        <time>2021-05-29T11:53:02.722Z</time>
      </trkpt>
      <trkpt lat="46.65818" lon="5.56012">
        <ele>410</ele>
        <time>2021-05-29T11:53:03.722Z</time>
      </trkpt>
      <trkpt lat="46.6582" lon="5.56012">
        <ele>410</ele>
        <time>2021-05-29T11:53:04.723Z</time>
      </trkpt>
      <trkpt lat="46.65823" lon="5.56012">
        <ele>410</ele>
        <time>2021-05-29T11:53:05.722Z</time>
      </trkpt>
      <trkpt lat="46.65825" lon="5.56012">
        <ele>410</ele>
        <time>2021-05-29T11:53:06.722Z</time>
      </trkpt>
      <trkpt lat="46.65827" lon="5.56012">
        <ele>409</ele>
        <time>2021-05-29T11:53:07.722Z</time>
      </trkpt>
      <trkpt lat="46.6583" lon="5.56012">
        <ele>409</ele>
        <time>2021-05-29T11:53:08.722Z</time>
      </trkpt>
      <trkpt lat="46.65833" lon="5.56011">
        <ele>409</ele>
        <time>2021-05-29T11:53:09.723Z</time>
      </trkpt>
      <trkpt lat="46.65835" lon="5.5601">
        <ele>409</ele>
        <time>2021-05-29T11:53:10.722Z</time>
      </trkpt>
      <trkpt lat="46.65837" lon="5.5601">
        <ele>409</ele>
        <time>2021-05-29T11:53:11.722Z</time>
      </trkpt>
      <trkpt lat="46.65839" lon="5.5601">
        <ele>409</ele>
        <time>2021-05-29T11:53:12.722Z</time>
      </trkpt>
      <trkpt lat="46.65841" lon="5.5601">
        <ele>409</ele>
        <time>2021-05-29T11:53:13.723Z</time>
      </trkpt>
      <trkpt lat="46.65843" lon="5.56009">
        <ele>409</ele>
        <time>2021-05-29T11:53:14.722Z</time>
      </trkpt>
      <trkpt lat="46.65846" lon="5.56008">
        <ele>409</ele>
        <time>2021-05-29T11:53:15.722Z</time>
      </trkpt>
      <trkpt lat="46.65848" lon="5.56007">
        <ele>408</ele>
        <time>2021-05-29T11:53:16.722Z</time>
      </trkpt>
      <trkpt lat="46.6585" lon="5.56005">
        <ele>408</ele>
        <time>2021-05-29T11:53:17.722Z</time>
      </trkpt>
      <trkpt lat="46.65853" lon="5.56004">
        <ele>408</ele>
        <time>2021-05-29T11:53:18.722Z</time>
      </trkpt>
      <trkpt lat="46.65856" lon="5.56002">
        <ele>408</ele>
        <time>2021-05-29T11:53:19.723Z</time>
      </trkpt>
      <trkpt lat="46.65858" lon="5.56001">
        <ele>407</ele>
        <time>2021-05-29T11:53:20.722Z</time>
      </trkpt>
      <trkpt lat="46.6586" lon="5.56">
        <ele>407</ele>
        <time>2021-05-29T11:53:21.722Z</time>
      </trkpt>
      <trkpt lat="46.65862" lon="5.55999">
        <ele>407</ele>
        <time>2021-05-29T11:53:22.722Z</time>
      </trkpt>
      <trkpt lat="46.65863" lon="5.55998">
        <ele>407</ele>
        <time>2021-05-29T11:53:23.722Z</time>
      </trkpt>
      <trkpt lat="46.65865" lon="5.55997">
        <ele>406</ele>
        <time>2021-05-29T11:53:24.722Z</time>
      </trkpt>
      <trkpt lat="46.65866" lon="5.55995">
        <ele>406</ele>
        <time>2021-05-29T11:53:25.722Z</time>
      </trkpt>
      <trkpt lat="46.65868" lon="5.55994">
        <ele>406</ele>
        <time>2021-05-29T11:53:26.722Z</time>
      </trkpt>
      <trkpt lat="46.6587" lon="5.55992">
        <ele>406</ele>
        <time>2021-05-29T11:53:27.722Z</time>
      </trkpt>
      <trkpt lat="46.65872" lon="5.5599">
        <ele>406</ele>
        <time>2021-05-29T11:53:28.722Z</time>
      </trkpt>
      <trkpt lat="46.65874" lon="5.55989">
        <ele>405</ele>
        <time>2021-05-29T11:53:29.722Z</time>
      </trkpt>
      <trkpt lat="46.65877" lon="5.55986">
        <ele>405</ele>
        <time>2021-05-29T11:53:30.723Z</time>
      </trkpt>
      <trkpt lat="46.65879" lon="5.55985">
        <ele>405</ele>
        <time>2021-05-29T11:53:31.722Z</time>
      </trkpt>
      <trkpt lat="46.65881" lon="5.55983">
        <ele>405</ele>
        <time>2021-05-29T11:53:32.722Z</time>
      </trkpt>
      <trkpt lat="46.65883" lon="5.55983">
        <ele>405</ele>
        <time>2021-05-29T11:53:33.722Z</time>
      </trkpt>
      <trkpt lat="46.65884" lon="5.55981">
        <ele>405</ele>
        <time>2021-05-29T11:53:34.722Z</time>
      </trkpt>
      <trkpt lat="46.65885" lon="5.5598">
        <ele>405</ele>
        <time>2021-05-29T11:53:35.723Z</time>
      </trkpt>
      <trkpt lat="46.65886" lon="5.55979">
        <ele>405</ele>
        <time>2021-05-29T11:53:36.722Z</time>
      </trkpt>
      <trkpt lat="46.65887" lon="5.55978">
        <ele>406</ele>
        <time>2021-05-29T11:53:37.722Z</time>
      </trkpt>
      <trkpt lat="46.65889" lon="5.55976">
        <ele>406</ele>
        <time>2021-05-29T11:53:38.722Z</time>
      </trkpt>
      <trkpt lat="46.65891" lon="5.55974">
        <ele>406</ele>
        <time>2021-05-29T11:53:39.722Z</time>
      </trkpt>
      <trkpt lat="46.65892" lon="5.55972">
        <ele>407</ele>
        <time>2021-05-29T11:53:40.722Z</time>
      </trkpt>
      <trkpt lat="46.65893" lon="5.55971">
        <ele>407</ele>
        <time>2021-05-29T11:53:41.723Z</time>
      </trkpt>
      <trkpt lat="46.65896" lon="5.55969">
        <ele>407</ele>
        <time>2021-05-29T11:53:42.722Z</time>
      </trkpt>
      <trkpt lat="46.65898" lon="5.55969">
        <ele>408</ele>
        <time>2021-05-29T11:53:43.722Z</time>
      </trkpt>
      <trkpt lat="46.659" lon="5.55968">
        <ele>408</ele>
        <time>2021-05-29T11:53:44.723Z</time>
      </trkpt>
      <trkpt lat="46.65901" lon="5.55967">
        <ele>408</ele>
        <time>2021-05-29T11:53:45.722Z</time>
      </trkpt>
      <trkpt lat="46.65903" lon="5.55965">
        <ele>408</ele>
        <time>2021-05-29T11:53:46.722Z</time>
      </trkpt>
      <trkpt lat="46.65904" lon="5.55964">
        <ele>409</ele>
        <time>2021-05-29T11:53:47.722Z</time>
      </trkpt>
      <trkpt lat="46.65906" lon="5.55964">
        <ele>409</ele>
        <time>2021-05-29T11:53:48.722Z</time>
      </trkpt>
      <trkpt lat="46.65939" lon="5.55955">
        <ele>412</ele>
        <time>2021-05-29T11:53:49.723Z</time>
      </trkpt>
      <trkpt lat="46.65939" lon="5.55955">
        <ele>413</ele>
        <time>2021-05-29T11:53:50.722Z</time>
      </trkpt>
      <trkpt lat="46.65939" lon="5.55954">
        <ele>413</ele>
        <time>2021-05-29T11:53:51.723Z</time>
      </trkpt>
      <trkpt lat="46.6594" lon="5.55953">
        <ele>413</ele>
        <time>2021-05-29T11:53:52.722Z</time>
      </trkpt>
      <trkpt lat="46.65942" lon="5.55953">
        <ele>413</ele>
        <time>2021-05-29T11:53:53.723Z</time>
      </trkpt>
      <trkpt lat="46.65943" lon="5.55954">
        <ele>413</ele>
        <time>2021-05-29T11:53:54.723Z</time>
      </trkpt>
      <trkpt lat="46.65944" lon="5.55954">
        <ele>413</ele>
        <time>2021-05-29T11:53:55.722Z</time>
      </trkpt>
      <trkpt lat="46.65946" lon="5.55954">
        <ele>413</ele>
        <time>2021-05-29T11:53:56.722Z</time>
      </trkpt>
      <trkpt lat="46.65948" lon="5.55955">
        <ele>413</ele>
        <time>2021-05-29T11:53:57.723Z</time>
      </trkpt>
      <trkpt lat="46.65949" lon="5.55955">
        <ele>413</ele>
        <time>2021-05-29T11:53:58.723Z</time>
      </trkpt>
      <trkpt lat="46.6595" lon="5.55955">
        <ele>413</ele>
        <time>2021-05-29T11:53:59.723Z</time>
      </trkpt>
      <trkpt lat="46.65952" lon="5.55955">
        <ele>413</ele>
        <time>2021-05-29T11:54:00.722Z</time>
      </trkpt>
      <trkpt lat="46.65953" lon="5.55956">
        <ele>413</ele>
        <time>2021-05-29T11:54:01.723Z</time>
      </trkpt>
      <trkpt lat="46.65954" lon="5.55955">
        <ele>412</ele>
        <time>2021-05-29T11:54:02.722Z</time>
      </trkpt>
      <trkpt lat="46.65956" lon="5.55956">
        <ele>412</ele>
        <time>2021-05-29T11:54:03.722Z</time>
      </trkpt>
      <trkpt lat="46.65957" lon="5.55956">
        <ele>412</ele>
        <time>2021-05-29T11:54:04.723Z</time>
      </trkpt>
      <trkpt lat="46.65958" lon="5.55955">
        <ele>412</ele>
        <time>2021-05-29T11:54:05.722Z</time>
      </trkpt>
      <trkpt lat="46.65958" lon="5.55956">
        <ele>412</ele>
        <time>2021-05-29T11:54:06.723Z</time>
      </trkpt>
      <trkpt lat="46.65958" lon="5.55956">
        <ele>412</ele>
        <time>2021-05-29T11:54:07.723Z</time>
      </trkpt>
      <trkpt lat="46.65958" lon="5.55957">
        <ele>412</ele>
        <time>2021-05-29T11:54:08.722Z</time>
      </trkpt>
      <trkpt lat="46.65959" lon="5.55957">
        <ele>412</ele>
        <time>2021-05-29T11:54:09.722Z</time>
      </trkpt>
      <trkpt lat="46.6596" lon="5.55957">
        <ele>412</ele>
        <time>2021-05-29T11:54:10.723Z</time>
      </trkpt>
      <trkpt lat="46.65961" lon="5.55957">
        <ele>411</ele>
        <time>2021-05-29T11:54:11.722Z</time>
      </trkpt>
      <trkpt lat="46.65962" lon="5.55957">
        <ele>411</ele>
        <time>2021-05-29T11:54:12.723Z</time>
      </trkpt>
      <trkpt lat="46.65962" lon="5.55957">
        <ele>411</ele>
        <time>2021-05-29T11:54:13.723Z</time>
      </trkpt>
      <trkpt lat="46.65962" lon="5.55958">
        <ele>411</ele>
        <time>2021-05-29T11:54:14.723Z</time>
      </trkpt>
      <trkpt lat="46.65963" lon="5.55958">
        <ele>411</ele>
        <time>2021-05-29T11:54:15.723Z</time>
      </trkpt>
      <trkpt lat="46.65963" lon="5.55959">
        <ele>411</ele>
        <time>2021-05-29T11:54:16.722Z</time>
      </trkpt>
      <trkpt lat="46.65964" lon="5.5596">
        <ele>411</ele>
        <time>2021-05-29T11:54:17.723Z</time>
      </trkpt>
      <trkpt lat="46.65965" lon="5.5596">
        <ele>411</ele>
        <time>2021-05-29T11:54:18.722Z</time>
      </trkpt>
      <trkpt lat="46.65966" lon="5.55961">
        <ele>412</ele>
        <time>2021-05-29T11:54:19.722Z</time>
      </trkpt>
      <trkpt lat="46.65967" lon="5.55962">
        <ele>411</ele>
        <time>2021-05-29T11:54:20.723Z</time>
      </trkpt>
      <trkpt lat="46.65968" lon="5.55962">
        <ele>411</ele>
        <time>2021-05-29T11:54:21.723Z</time>
      </trkpt>
      <trkpt lat="46.65969" lon="5.55963">
        <ele>410</ele>
        <time>2021-05-29T11:54:22.723Z</time>
      </trkpt>
      <trkpt lat="46.6597" lon="5.55964">
        <ele>410</ele>
        <time>2021-05-29T11:54:23.723Z</time>
      </trkpt>
      <trkpt lat="46.65971" lon="5.55965">
        <ele>410</ele>
        <time>2021-05-29T11:54:24.723Z</time>
      </trkpt>
      <trkpt lat="46.65972" lon="5.55964">
        <ele>410</ele>
        <time>2021-05-29T11:54:25.723Z</time>
      </trkpt>
      <trkpt lat="46.65973" lon="5.55965">
        <ele>409</ele>
        <time>2021-05-29T11:54:26.723Z</time>
      </trkpt>
      <trkpt lat="46.65974" lon="5.55966">
        <ele>409</ele>
        <time>2021-05-29T11:54:27.723Z</time>
      </trkpt>
      <trkpt lat="46.65976" lon="5.55967">
        <ele>409</ele>
        <time>2021-05-29T11:54:28.723Z</time>
      </trkpt>
      <trkpt lat="46.65977" lon="5.55967">
        <ele>408</ele>
        <time>2021-05-29T11:54:29.722Z</time>
      </trkpt>
      <trkpt lat="46.65978" lon="5.55967">
        <ele>408</ele>
        <time>2021-05-29T11:54:30.723Z</time>
      </trkpt>
      <trkpt lat="46.65979" lon="5.55967">
        <ele>407</ele>
        <time>2021-05-29T11:54:31.722Z</time>
      </trkpt>
      <trkpt lat="46.65979" lon="5.55967">
        <ele>407</ele>
        <time>2021-05-29T11:54:32.723Z</time>
      </trkpt>
      <trkpt lat="46.6598" lon="5.55967">
        <ele>406</ele>
        <time>2021-05-29T11:54:33.723Z</time>
      </trkpt>
      <trkpt lat="46.6598" lon="5.55968">
        <ele>406</ele>
        <time>2021-05-29T11:54:34.723Z</time>
      </trkpt>
      <trkpt lat="46.65982" lon="5.55969">
        <ele>406</ele>
        <time>2021-05-29T11:54:35.723Z</time>
      </trkpt>
      <trkpt lat="46.65983" lon="5.5597">
        <ele>405</ele>
        <time>2021-05-29T11:54:36.723Z</time>
      </trkpt>
      <trkpt lat="46.65985" lon="5.55971">
        <ele>405</ele>
        <time>2021-05-29T11:54:37.723Z</time>
      </trkpt>
      <trkpt lat="46.65987" lon="5.55973">
        <ele>405</ele>
        <time>2021-05-29T11:54:38.723Z</time>
      </trkpt>
      <trkpt lat="46.65988" lon="5.55975">
        <ele>405</ele>
        <time>2021-05-29T11:54:39.723Z</time>
      </trkpt>
      <trkpt lat="46.65989" lon="5.55978">
        <ele>406</ele>
        <time>2021-05-29T11:54:40.723Z</time>
      </trkpt>
      <trkpt lat="46.6599" lon="5.5598">
        <ele>406</ele>
        <time>2021-05-29T11:54:41.723Z</time>
      </trkpt>
      <trkpt lat="46.65991" lon="5.55983">
        <ele>407</ele>
        <time>2021-05-29T11:54:42.722Z</time>
      </trkpt>
      <trkpt lat="46.65992" lon="5.55986">
        <ele>407</ele>
        <time>2021-05-29T11:54:43.723Z</time>
      </trkpt>
      <trkpt lat="46.65993" lon="5.55988">
        <ele>407</ele>
        <time>2021-05-29T11:54:44.723Z</time>
      </trkpt>
      <trkpt lat="46.65994" lon="5.55991">
        <ele>408</ele>
        <time>2021-05-29T11:54:45.723Z</time>
      </trkpt>
      <trkpt lat="46.65995" lon="5.55995">
        <ele>408</ele>
        <time>2021-05-29T11:54:46.723Z</time>
      </trkpt>
      <trkpt lat="46.65995" lon="5.55997">
        <ele>409</ele>
        <time>2021-05-29T11:54:47.723Z</time>
      </trkpt>
      <trkpt lat="46.65996" lon="5.56">
        <ele>409</ele>
        <time>2021-05-29T11:54:48.723Z</time>
      </trkpt>
      <trkpt lat="46.65996" lon="5.56003">
        <ele>410</ele>
        <time>2021-05-29T11:54:49.723Z</time>
      </trkpt>
      <trkpt lat="46.65997" lon="5.56006">
        <ele>410</ele>
        <time>2021-05-29T11:54:50.723Z</time>
      </trkpt>
      <trkpt lat="46.65998" lon="5.5601">
        <ele>410</ele>
        <time>2021-05-29T11:54:51.723Z</time>
      </trkpt>
      <trkpt lat="46.65999" lon="5.56013">
        <ele>410</ele>
        <time>2021-05-29T11:54:52.723Z</time>
      </trkpt>
      <trkpt lat="46.66" lon="5.56016">
        <ele>410</ele>
        <time>2021-05-29T11:54:53.722Z</time>
      </trkpt>
      <trkpt lat="46.66" lon="5.56019">
        <ele>411</ele>
        <time>2021-05-29T11:54:54.723Z</time>
      </trkpt>
      <trkpt lat="46.66001" lon="5.56022">
        <ele>410</ele>
        <time>2021-05-29T11:54:55.723Z</time>
      </trkpt>
      <trkpt lat="46.66002" lon="5.56025">
        <ele>410</ele>
        <time>2021-05-29T11:54:56.723Z</time>
      </trkpt>
      <trkpt lat="46.66002" lon="5.56028">
        <ele>410</ele>
        <time>2021-05-29T11:54:57.723Z</time>
      </trkpt>
      <trkpt lat="46.66003" lon="5.56031">
        <ele>410</ele>
        <time>2021-05-29T11:54:58.723Z</time>
      </trkpt>
      <trkpt lat="46.66003" lon="5.56034">
        <ele>409</ele>
        <time>2021-05-29T11:54:59.723Z</time>
      </trkpt>
      <trkpt lat="46.66004" lon="5.56037">
        <ele>409</ele>
        <time>2021-05-29T11:55:00.723Z</time>
      </trkpt>
      <trkpt lat="46.66004" lon="5.5604">
        <ele>409</ele>
        <time>2021-05-29T11:55:01.723Z</time>
      </trkpt>
      <trkpt lat="46.66005" lon="5.56042">
        <ele>409</ele>
        <time>2021-05-29T11:55:02.723Z</time>
      </trkpt>
      <trkpt lat="46.66005" lon="5.56045">
        <ele>410</ele>
        <time>2021-05-29T11:55:03.723Z</time>
      </trkpt>
      <trkpt lat="46.66005" lon="5.56048">
        <ele>410</ele>
        <time>2021-05-29T11:55:04.722Z</time>
      </trkpt>
      <trkpt lat="46.66005" lon="5.5605">
        <ele>410</ele>
        <time>2021-05-29T11:55:05.723Z</time>
      </trkpt>
      <trkpt lat="46.66005" lon="5.56053">
        <ele>411</ele>
        <time>2021-05-29T11:55:06.723Z</time>
      </trkpt>
      <trkpt lat="46.66006" lon="5.56056">
        <ele>411</ele>
        <time>2021-05-29T11:55:07.723Z</time>
      </trkpt>
      <trkpt lat="46.66006" lon="5.56059">
        <ele>411</ele>
        <time>2021-05-29T11:55:08.723Z</time>
      </trkpt>
      <trkpt lat="46.66006" lon="5.56062">
        <ele>411</ele>
        <time>2021-05-29T11:55:09.723Z</time>
      </trkpt>
      <trkpt lat="46.66007" lon="5.56065">
        <ele>412</ele>
        <time>2021-05-29T11:55:10.723Z</time>
      </trkpt>
      <trkpt lat="46.66007" lon="5.56067">
        <ele>412</ele>
        <time>2021-05-29T11:55:11.723Z</time>
      </trkpt>
      <trkpt lat="46.66007" lon="5.5607">
        <ele>412</ele>
        <time>2021-05-29T11:55:12.723Z</time>
      </trkpt>
      <trkpt lat="46.66007" lon="5.56072">
        <ele>412</ele>
        <time>2021-05-29T11:55:13.723Z</time>
      </trkpt>
      <trkpt lat="46.66008" lon="5.56075">
        <ele>412</ele>
        <time>2021-05-29T11:55:14.723Z</time>
      </trkpt>
      <trkpt lat="46.66008" lon="5.56078">
        <ele>412</ele>
        <time>2021-05-29T11:55:15.722Z</time>
      </trkpt>
      <trkpt lat="46.66009" lon="5.56081">
        <ele>411</ele>
        <time>2021-05-29T11:55:16.723Z</time>
      </trkpt>
      <trkpt lat="46.66009" lon="5.56084">
        <ele>411</ele>
        <time>2021-05-29T11:55:17.722Z</time>
      </trkpt>
      <trkpt lat="46.66009" lon="5.56086">
        <ele>411</ele>
        <time>2021-05-29T11:55:18.723Z</time>
      </trkpt>
      <trkpt lat="46.6601" lon="5.56089">
        <ele>410</ele>
        <time>2021-05-29T11:55:19.723Z</time>
      </trkpt>
      <trkpt lat="46.6601" lon="5.56092">
        <ele>410</ele>
        <time>2021-05-29T11:55:20.723Z</time>
      </trkpt>
      <trkpt lat="46.66009" lon="5.56095">
        <ele>410</ele>
        <time>2021-05-29T11:55:21.722Z</time>
      </trkpt>
      <trkpt lat="46.66009" lon="5.56097">
        <ele>410</ele>
        <time>2021-05-29T11:55:22.723Z</time>
      </trkpt>
      <trkpt lat="46.66008" lon="5.56101">
        <ele>409</ele>
        <time>2021-05-29T11:55:23.723Z</time>
      </trkpt>
      <trkpt lat="46.66008" lon="5.56103">
        <ele>409</ele>
        <time>2021-05-29T11:55:24.723Z</time>
      </trkpt>
      <trkpt lat="46.66007" lon="5.56106">
        <ele>409</ele>
        <time>2021-05-29T11:55:25.723Z</time>
      </trkpt>
      <trkpt lat="46.66006" lon="5.56108">
        <ele>410</ele>
        <time>2021-05-29T11:55:26.723Z</time>
      </trkpt>
      <trkpt lat="46.66005" lon="5.56111">
        <ele>411</ele>
        <time>2021-05-29T11:55:27.723Z</time>
      </trkpt>
      <trkpt lat="46.66003" lon="5.56113">
        <ele>411</ele>
        <time>2021-05-29T11:55:28.722Z</time>
      </trkpt>
      <trkpt lat="46.66002" lon="5.56116">
        <ele>411</ele>
        <time>2021-05-29T11:55:29.723Z</time>
      </trkpt>
      <trkpt lat="46.66001" lon="5.56118">
        <ele>411</ele>
        <time>2021-05-29T11:55:30.722Z</time>
      </trkpt>
      <trkpt lat="46.66" lon="5.56121">
        <ele>410</ele>
        <time>2021-05-29T11:55:31.723Z</time>
      </trkpt>
      <trkpt lat="46.65999" lon="5.56123">
        <ele>410</ele>
        <time>2021-05-29T11:55:32.723Z</time>
      </trkpt>
      <trkpt lat="46.65998" lon="5.56126">
        <ele>409</ele>
        <time>2021-05-29T11:55:33.723Z</time>
      </trkpt>
      <trkpt lat="46.65997" lon="5.56128">
        <ele>409</ele>
        <time>2021-05-29T11:55:34.723Z</time>
      </trkpt>
      <trkpt lat="46.65996" lon="5.56131">
        <ele>409</ele>
        <time>2021-05-29T11:55:35.722Z</time>
      </trkpt>
      <trkpt lat="46.65995" lon="5.56134">
        <ele>408</ele>
        <time>2021-05-29T11:55:36.723Z</time>
      </trkpt>
      <trkpt lat="46.65995" lon="5.56137">
        <ele>408</ele>
        <time>2021-05-29T11:55:37.723Z</time>
      </trkpt>
      <trkpt lat="46.65994" lon="5.5614">
        <ele>408</ele>
        <time>2021-05-29T11:55:38.723Z</time>
      </trkpt>
      <trkpt lat="46.65994" lon="5.56144">
        <ele>408</ele>
        <time>2021-05-29T11:55:39.723Z</time>
      </trkpt>
      <trkpt lat="46.65994" lon="5.56147">
        <ele>408</ele>
        <time>2021-05-29T11:55:40.723Z</time>
      </trkpt>
      <trkpt lat="46.65994" lon="5.5615">
        <ele>409</ele>
        <time>2021-05-29T11:55:41.723Z</time>
      </trkpt>
      <trkpt lat="46.65994" lon="5.56154">
        <ele>409</ele>
        <time>2021-05-29T11:55:42.723Z</time>
      </trkpt>
      <trkpt lat="46.65994" lon="5.56157">
        <ele>410</ele>
        <time>2021-05-29T11:55:43.723Z</time>
      </trkpt>
      <trkpt lat="46.65995" lon="5.56161">
        <ele>411</ele>
        <time>2021-05-29T11:55:44.723Z</time>
      </trkpt>
      <trkpt lat="46.65996" lon="5.56164">
        <ele>411</ele>
        <time>2021-05-29T11:55:45.723Z</time>
      </trkpt>
      <trkpt lat="46.65997" lon="5.56167">
        <ele>412</ele>
        <time>2021-05-29T11:55:46.723Z</time>
      </trkpt>
      <trkpt lat="46.65998" lon="5.5617">
        <ele>412</ele>
        <time>2021-05-29T11:55:47.723Z</time>
      </trkpt>
      <trkpt lat="46.65999" lon="5.56172">
        <ele>413</ele>
        <time>2021-05-29T11:56:06.150Z</time>
      </trkpt>
      <trkpt lat="46.66" lon="5.56175">
        <ele>413</ele>
        <time>2021-05-29T11:56:07.149Z</time>
      </trkpt>
      <trkpt lat="46.66001" lon="5.56177">
        <ele>414</ele>
        <time>2021-05-29T11:56:08.150Z</time>
      </trkpt>
      <trkpt lat="46.66002" lon="5.56179">
        <ele>414</ele>
        <time>2021-05-29T11:56:09.150Z</time>
      </trkpt>
      <trkpt lat="46.66003" lon="5.56182">
        <ele>415</ele>
        <time>2021-05-29T11:56:10.150Z</time>
      </trkpt>
      <trkpt lat="46.66004" lon="5.56183">
        <ele>415</ele>
        <time>2021-05-29T11:56:11.150Z</time>
      </trkpt>
      <trkpt lat="46.66005" lon="5.56185">
        <ele>416</ele>
        <time>2021-05-29T11:56:12.150Z</time>
      </trkpt>
      <trkpt lat="46.66007" lon="5.56187">
        <ele>416</ele>
        <time>2021-05-29T11:56:13.150Z</time>
      </trkpt>
      <trkpt lat="46.6601" lon="5.56189">
        <ele>416</ele>
        <time>2021-05-29T11:56:14.149Z</time>
      </trkpt>
      <trkpt lat="46.66012" lon="5.5619">
        <ele>416</ele>
        <time>2021-05-29T11:56:15.150Z</time>
      </trkpt>
      <trkpt lat="46.66015" lon="5.56191">
        <ele>416</ele>
        <time>2021-05-29T11:56:16.150Z</time>
      </trkpt>
      <trkpt lat="46.66017" lon="5.56193">
        <ele>416</ele>
        <time>2021-05-29T11:56:17.150Z</time>
      </trkpt>
      <trkpt lat="46.66019" lon="5.56195">
        <ele>417</ele>
        <time>2021-05-29T11:56:18.149Z</time>
      </trkpt>
      <trkpt lat="46.6602" lon="5.56196">
        <ele>417</ele>
        <time>2021-05-29T11:56:19.149Z</time>
      </trkpt>
      <trkpt lat="46.66022" lon="5.56198">
        <ele>417</ele>
        <time>2021-05-29T11:56:20.150Z</time>
      </trkpt>
      <trkpt lat="46.66023" lon="5.562">
        <ele>417</ele>
        <time>2021-05-29T11:56:21.149Z</time>
      </trkpt>
      <trkpt lat="46.66025" lon="5.56201">
        <ele>416</ele>
        <time>2021-05-29T11:56:22.150Z</time>
      </trkpt>
      <trkpt lat="46.66027" lon="5.56202">
        <ele>416</ele>
        <time>2021-05-29T11:56:23.150Z</time>
      </trkpt>
      <trkpt lat="46.66029" lon="5.56204">
        <ele>415</ele>
        <time>2021-05-29T11:56:24.150Z</time>
      </trkpt>
      <trkpt lat="46.66031" lon="5.56205">
        <ele>415</ele>
        <time>2021-05-29T11:56:25.149Z</time>
      </trkpt>
      <trkpt lat="46.66034" lon="5.56207">
        <ele>415</ele>
        <time>2021-05-29T11:56:26.150Z</time>
      </trkpt>
      <trkpt lat="46.66036" lon="5.56209">
        <ele>415</ele>
        <time>2021-05-29T11:56:27.149Z</time>
      </trkpt>
      <trkpt lat="46.66038" lon="5.5621">
        <ele>415</ele>
        <time>2021-05-29T11:56:28.150Z</time>
      </trkpt>
      <trkpt lat="46.6604" lon="5.56211">
        <ele>415</ele>
        <time>2021-05-29T11:56:29.150Z</time>
      </trkpt>
      <trkpt lat="46.66042" lon="5.56213">
        <ele>415</ele>
        <time>2021-05-29T11:56:30.149Z</time>
      </trkpt>
      <trkpt lat="46.66044" lon="5.56214">
        <ele>414</ele>
        <time>2021-05-29T11:56:31.150Z</time>
      </trkpt>
      <trkpt lat="46.66047" lon="5.56216">
        <ele>414</ele>
        <time>2021-05-29T11:56:32.150Z</time>
      </trkpt>
      <trkpt lat="46.66049" lon="5.56217">
        <ele>414</ele>
        <time>2021-05-29T11:56:33.150Z</time>
      </trkpt>
      <trkpt lat="46.66051" lon="5.56219">
        <ele>414</ele>
        <time>2021-05-29T11:56:34.150Z</time>
      </trkpt>
      <trkpt lat="46.66052" lon="5.56221">
        <ele>414</ele>
        <time>2021-05-29T11:56:35.150Z</time>
      </trkpt>
      <trkpt lat="46.66054" lon="5.56224">
        <ele>414</ele>
        <time>2021-05-29T11:56:36.150Z</time>
      </trkpt>
      <trkpt lat="46.66056" lon="5.56227">
        <ele>414</ele>
        <time>2021-05-29T11:56:37.150Z</time>
      </trkpt>
      <trkpt lat="46.66058" lon="5.56229">
        <ele>414</ele>
        <time>2021-05-29T11:56:38.150Z</time>
      </trkpt>
      <trkpt lat="46.66059" lon="5.56232">
        <ele>414</ele>
        <time>2021-05-29T11:56:39.149Z</time>
      </trkpt>
      <trkpt lat="46.6606" lon="5.56235">
        <ele>413</ele>
        <time>2021-05-29T11:56:40.150Z</time>
      </trkpt>
      <trkpt lat="46.66061" lon="5.56238">
        <ele>413</ele>
        <time>2021-05-29T11:56:41.150Z</time>
      </trkpt>
      <trkpt lat="46.66062" lon="5.56242">
        <ele>413</ele>
        <time>2021-05-29T11:56:42.150Z</time>
      </trkpt>
      <trkpt lat="46.66062" lon="5.56245">
        <ele>412</ele>
        <time>2021-05-29T11:56:43.150Z</time>
      </trkpt>
      <trkpt lat="46.66062" lon="5.56248">
        <ele>412</ele>
        <time>2021-05-29T11:56:44.150Z</time>
      </trkpt>
      <trkpt lat="46.66063" lon="5.56251">
        <ele>412</ele>
        <time>2021-05-29T11:56:45.149Z</time>
      </trkpt>
      <trkpt lat="46.66062" lon="5.56254">
        <ele>412</ele>
        <time>2021-05-29T11:56:46.150Z</time>
      </trkpt>
      <trkpt lat="46.66062" lon="5.56256">
        <ele>412</ele>
        <time>2021-05-29T11:56:47.150Z</time>
      </trkpt>
      <trkpt lat="46.66061" lon="5.56258">
        <ele>411</ele>
        <time>2021-05-29T11:56:48.150Z</time>
      </trkpt>
      <trkpt lat="46.6606" lon="5.5626">
        <ele>410</ele>
        <time>2021-05-29T11:56:49.150Z</time>
      </trkpt>
      <trkpt lat="46.66059" lon="5.56262">
        <ele>409</ele>
        <time>2021-05-29T11:56:50.150Z</time>
      </trkpt>
      <trkpt lat="46.66058" lon="5.56265">
        <ele>409</ele>
        <time>2021-05-29T11:56:51.150Z</time>
      </trkpt>
      <trkpt lat="46.66056" lon="5.56267">
        <ele>409</ele>
        <time>2021-05-29T11:56:52.150Z</time>
      </trkpt>
      <trkpt lat="46.66055" lon="5.56269">
        <ele>409</ele>
        <time>2021-05-29T11:56:53.150Z</time>
      </trkpt>
      <trkpt lat="46.66054" lon="5.56272">
        <ele>408</ele>
        <time>2021-05-29T11:56:54.149Z</time>
      </trkpt>
      <trkpt lat="46.66052" lon="5.56274">
        <ele>408</ele>
        <time>2021-05-29T11:56:55.150Z</time>
      </trkpt>
      <trkpt lat="46.66051" lon="5.56277">
        <ele>409</ele>
        <time>2021-05-29T11:56:56.150Z</time>
      </trkpt>
      <trkpt lat="46.6605" lon="5.5628">
        <ele>409</ele>
        <time>2021-05-29T11:56:57.149Z</time>
      </trkpt>
      <trkpt lat="46.66049" lon="5.56282">
        <ele>409</ele>
        <time>2021-05-29T11:56:58.150Z</time>
      </trkpt>
      <trkpt lat="46.66048" lon="5.56285">
        <ele>410</ele>
        <time>2021-05-29T11:56:59.150Z</time>
      </trkpt>
      <trkpt lat="46.66047" lon="5.56287">
        <ele>410</ele>
        <time>2021-05-29T11:57:00.150Z</time>
      </trkpt>
      <trkpt lat="46.66046" lon="5.56289">
        <ele>410</ele>
        <time>2021-05-29T11:57:01.150Z</time>
      </trkpt>
      <trkpt lat="46.66045" lon="5.56291">
        <ele>410</ele>
        <time>2021-05-29T11:57:02.150Z</time>
      </trkpt>
      <trkpt lat="46.66044" lon="5.56294">
        <ele>411</ele>
        <time>2021-05-29T11:57:03.149Z</time>
      </trkpt>
      <trkpt lat="46.66043" lon="5.56296">
        <ele>411</ele>
        <time>2021-05-29T11:57:04.150Z</time>
      </trkpt>
      <trkpt lat="46.66043" lon="5.56299">
        <ele>411</ele>
        <time>2021-05-29T11:57:05.150Z</time>
      </trkpt>
      <trkpt lat="46.66042" lon="5.56301">
        <ele>411</ele>
        <time>2021-05-29T11:57:06.150Z</time>
      </trkpt>
      <trkpt lat="46.66041" lon="5.56303">
        <ele>411</ele>
        <time>2021-05-29T11:57:07.150Z</time>
      </trkpt>
      <trkpt lat="46.66041" lon="5.56306">
        <ele>411</ele>
        <time>2021-05-29T11:57:08.149Z</time>
      </trkpt>
      <trkpt lat="46.6604" lon="5.56309">
        <ele>411</ele>
        <time>2021-05-29T11:57:09.149Z</time>
      </trkpt>
      <trkpt lat="46.66039" lon="5.56311">
        <ele>412</ele>
        <time>2021-05-29T11:57:10.150Z</time>
      </trkpt>
      <trkpt lat="46.66039" lon="5.56313">
        <ele>412</ele>
        <time>2021-05-29T11:57:11.150Z</time>
      </trkpt>
      <trkpt lat="46.66038" lon="5.56316">
        <ele>412</ele>
        <time>2021-05-29T11:57:12.150Z</time>
      </trkpt>
      <trkpt lat="46.66037" lon="5.56318">
        <ele>413</ele>
        <time>2021-05-29T11:57:13.149Z</time>
      </trkpt>
      <trkpt lat="46.66036" lon="5.56321">
        <ele>414</ele>
        <time>2021-05-29T11:57:14.150Z</time>
      </trkpt>
      <trkpt lat="46.66036" lon="5.56323">
        <ele>414</ele>
        <time>2021-05-29T11:57:15.149Z</time>
      </trkpt>
      <trkpt lat="46.66035" lon="5.56326">
        <ele>414</ele>
        <time>2021-05-29T11:57:16.150Z</time>
      </trkpt>
      <trkpt lat="46.66034" lon="5.56328">
        <ele>415</ele>
        <time>2021-05-29T11:57:17.150Z</time>
      </trkpt>
      <trkpt lat="46.66034" lon="5.56331">
        <ele>416</ele>
        <time>2021-05-29T11:57:18.150Z</time>
      </trkpt>
      <trkpt lat="46.66033" lon="5.56333">
        <ele>417</ele>
        <time>2021-05-29T11:57:19.150Z</time>
      </trkpt>
      <trkpt lat="46.66033" lon="5.56336">
        <ele>417</ele>
        <time>2021-05-29T11:57:20.150Z</time>
      </trkpt>
      <trkpt lat="46.66032" lon="5.56339">
        <ele>418</ele>
        <time>2021-05-29T11:57:21.149Z</time>
      </trkpt>
      <trkpt lat="46.66031" lon="5.56341">
        <ele>418</ele>
        <time>2021-05-29T11:57:22.150Z</time>
      </trkpt>
      <trkpt lat="46.66031" lon="5.56343">
        <ele>418</ele>
        <time>2021-05-29T11:57:23.150Z</time>
      </trkpt>
      <trkpt lat="46.6603" lon="5.56346">
        <ele>418</ele>
        <time>2021-05-29T11:57:24.150Z</time>
      </trkpt>
      <trkpt lat="46.66029" lon="5.56348">
        <ele>418</ele>
        <time>2021-05-29T11:57:25.149Z</time>
      </trkpt>
      <trkpt lat="46.66028" lon="5.5635">
        <ele>418</ele>
        <time>2021-05-29T11:57:26.149Z</time>
      </trkpt>
      <trkpt lat="46.66028" lon="5.56353">
        <ele>418</ele>
        <time>2021-05-29T11:57:27.150Z</time>
      </trkpt>
      <trkpt lat="46.66027" lon="5.56355">
        <ele>418</ele>
        <time>2021-05-29T11:57:28.150Z</time>
      </trkpt>
      <trkpt lat="46.66026" lon="5.56358">
        <ele>418</ele>
        <time>2021-05-29T11:57:29.150Z</time>
      </trkpt>
      <trkpt lat="46.66026" lon="5.5636">
        <ele>418</ele>
        <time>2021-05-29T11:57:30.150Z</time>
      </trkpt>
      <trkpt lat="46.66026" lon="5.56363">
        <ele>418</ele>
        <time>2021-05-29T11:57:31.150Z</time>
      </trkpt>
      <trkpt lat="46.66026" lon="5.56365">
        <ele>418</ele>
        <time>2021-05-29T11:57:32.150Z</time>
      </trkpt>
      <trkpt lat="46.66025" lon="5.56367">
        <ele>418</ele>
        <time>2021-05-29T11:57:33.149Z</time>
      </trkpt>
      <trkpt lat="46.66024" lon="5.5637">
        <ele>418</ele>
        <time>2021-05-29T11:57:34.150Z</time>
      </trkpt>
      <trkpt lat="46.66024" lon="5.56373">
        <ele>418</ele>
        <time>2021-05-29T11:57:35.149Z</time>
      </trkpt>
      <trkpt lat="46.66023" lon="5.56375">
        <ele>418</ele>
        <time>2021-05-29T11:57:36.149Z</time>
      </trkpt>
      <trkpt lat="46.66023" lon="5.56377">
        <ele>418</ele>
        <time>2021-05-29T11:57:37.149Z</time>
      </trkpt>
      <trkpt lat="46.66022" lon="5.56379">
        <ele>419</ele>
        <time>2021-05-29T11:57:38.149Z</time>
      </trkpt>
      <trkpt lat="46.66021" lon="5.56382">
        <ele>420</ele>
        <time>2021-05-29T11:57:39.149Z</time>
      </trkpt>
      <trkpt lat="46.6602" lon="5.56384">
        <ele>420</ele>
        <time>2021-05-29T11:57:40.149Z</time>
      </trkpt>
      <trkpt lat="46.6602" lon="5.56387">
        <ele>420</ele>
        <time>2021-05-29T11:57:41.150Z</time>
      </trkpt>
      <trkpt lat="46.66019" lon="5.5639">
        <ele>420</ele>
        <time>2021-05-29T11:57:42.150Z</time>
      </trkpt>
      <trkpt lat="46.66018" lon="5.56392">
        <ele>420</ele>
        <time>2021-05-29T11:57:43.150Z</time>
      </trkpt>
      <trkpt lat="46.66017" lon="5.56395">
        <ele>420</ele>
        <time>2021-05-29T11:57:44.149Z</time>
      </trkpt>
      <trkpt lat="46.66016" lon="5.56397">
        <ele>420</ele>
        <time>2021-05-29T11:57:45.149Z</time>
      </trkpt>
      <trkpt lat="46.66016" lon="5.564">
        <ele>420</ele>
        <time>2021-05-29T11:57:46.150Z</time>
      </trkpt>
      <trkpt lat="46.66015" lon="5.56402">
        <ele>420</ele>
        <time>2021-05-29T11:57:47.150Z</time>
      </trkpt>
      <trkpt lat="46.66014" lon="5.56405">
        <ele>419</ele>
        <time>2021-05-29T11:57:48.150Z</time>
      </trkpt>
      <trkpt lat="46.66014" lon="5.56407">
        <ele>419</ele>
        <time>2021-05-29T11:57:49.150Z</time>
      </trkpt>
      <trkpt lat="46.66013" lon="5.56409">
        <ele>419</ele>
        <time>2021-05-29T11:57:50.149Z</time>
      </trkpt>
      <trkpt lat="46.66013" lon="5.56412">
        <ele>419</ele>
        <time>2021-05-29T11:57:51.150Z</time>
      </trkpt>
      <trkpt lat="46.66012" lon="5.56414">
        <ele>419</ele>
        <time>2021-05-29T11:57:52.150Z</time>
      </trkpt>
      <trkpt lat="46.66011" lon="5.56417">
        <ele>420</ele>
        <time>2021-05-29T11:57:53.149Z</time>
      </trkpt>
      <trkpt lat="46.66011" lon="5.56419">
        <ele>420</ele>
        <time>2021-05-29T11:57:54.150Z</time>
      </trkpt>
      <trkpt lat="46.6601" lon="5.56422">
        <ele>420</ele>
        <time>2021-05-29T11:57:55.150Z</time>
      </trkpt>
      <trkpt lat="46.6601" lon="5.56425">
        <ele>421</ele>
        <time>2021-05-29T11:57:56.149Z</time>
      </trkpt>
      <trkpt lat="46.6601" lon="5.56427">
        <ele>422</ele>
        <time>2021-05-29T11:57:57.150Z</time>
      </trkpt>
      <trkpt lat="46.66009" lon="5.56429">
        <ele>422</ele>
        <time>2021-05-29T11:57:58.150Z</time>
      </trkpt>
      <trkpt lat="46.66009" lon="5.56432">
        <ele>422</ele>
        <time>2021-05-29T11:57:59.149Z</time>
      </trkpt>
      <trkpt lat="46.66009" lon="5.56435">
        <ele>423</ele>
        <time>2021-05-29T11:58:00.150Z</time>
      </trkpt>
      <trkpt lat="46.66009" lon="5.56438">
        <ele>423</ele>
        <time>2021-05-29T11:58:01.150Z</time>
      </trkpt>
      <trkpt lat="46.66009" lon="5.5644">
        <ele>423</ele>
        <time>2021-05-29T11:58:02.149Z</time>
      </trkpt>
      <trkpt lat="46.66009" lon="5.56443">
        <ele>423</ele>
        <time>2021-05-29T11:58:03.150Z</time>
      </trkpt>
      <trkpt lat="46.66009" lon="5.56447">
        <ele>424</ele>
        <time>2021-05-29T11:58:04.150Z</time>
      </trkpt>
      <trkpt lat="46.6601" lon="5.5645">
        <ele>425</ele>
        <time>2021-05-29T11:58:05.150Z</time>
      </trkpt>
      <trkpt lat="46.6601" lon="5.56454">
        <ele>425</ele>
        <time>2021-05-29T11:58:06.150Z</time>
      </trkpt>
      <trkpt lat="46.6601" lon="5.56457">
        <ele>426</ele>
        <time>2021-05-29T11:58:07.149Z</time>
      </trkpt>
      <trkpt lat="46.6601" lon="5.5646">
        <ele>427</ele>
        <time>2021-05-29T11:58:08.150Z</time>
      </trkpt>
      <trkpt lat="46.6601" lon="5.56464">
        <ele>428</ele>
        <time>2021-05-29T11:58:09.150Z</time>
      </trkpt>
      <trkpt lat="46.6601" lon="5.56467">
        <ele>428</ele>
        <time>2021-05-29T11:58:10.150Z</time>
      </trkpt>
      <trkpt lat="46.66009" lon="5.5647">
        <ele>429</ele>
        <time>2021-05-29T11:58:11.149Z</time>
      </trkpt>
      <trkpt lat="46.66009" lon="5.56473">
        <ele>429</ele>
        <time>2021-05-29T11:58:12.150Z</time>
      </trkpt>
      <trkpt lat="46.66009" lon="5.56476">
        <ele>430</ele>
        <time>2021-05-29T11:58:13.150Z</time>
      </trkpt>
      <trkpt lat="46.66008" lon="5.5648">
        <ele>430</ele>
        <time>2021-05-29T11:58:14.149Z</time>
      </trkpt>
      <trkpt lat="46.66007" lon="5.56483">
        <ele>430</ele>
        <time>2021-05-29T11:58:15.150Z</time>
      </trkpt>
      <trkpt lat="46.66007" lon="5.56486">
        <ele>431</ele>
        <time>2021-05-29T11:58:16.150Z</time>
      </trkpt>
      <trkpt lat="46.66007" lon="5.56488">
        <ele>432</ele>
        <time>2021-05-29T11:58:17.149Z</time>
      </trkpt>
      <trkpt lat="46.66007" lon="5.5649">
        <ele>433</ele>
        <time>2021-05-29T11:58:18.150Z</time>
      </trkpt>
      <trkpt lat="46.66007" lon="5.56492">
        <ele>433</ele>
        <time>2021-05-29T11:58:19.150Z</time>
      </trkpt>
      <trkpt lat="46.66007" lon="5.56495">
        <ele>434</ele>
        <time>2021-05-29T11:58:20.149Z</time>
      </trkpt>
      <trkpt lat="46.66007" lon="5.56498">
        <ele>434</ele>
        <time>2021-05-29T11:58:21.150Z</time>
      </trkpt>
      <trkpt lat="46.66006" lon="5.56501">
        <ele>434</ele>
        <time>2021-05-29T11:58:22.150Z</time>
      </trkpt>
      <trkpt lat="46.66006" lon="5.56504">
        <ele>434</ele>
        <time>2021-05-29T11:58:23.149Z</time>
      </trkpt>
      <trkpt lat="46.66005" lon="5.56506">
        <ele>434</ele>
        <time>2021-05-29T11:58:24.149Z</time>
      </trkpt>
      <trkpt lat="46.66003" lon="5.56509">
        <ele>434</ele>
        <time>2021-05-29T11:58:25.150Z</time>
      </trkpt>
      <trkpt lat="46.66002" lon="5.56512">
        <ele>433</ele>
        <time>2021-05-29T11:58:26.150Z</time>
      </trkpt>
      <trkpt lat="46.66001" lon="5.56514">
        <ele>433</ele>
        <time>2021-05-29T11:58:27.150Z</time>
      </trkpt>
      <trkpt lat="46.66" lon="5.56516">
        <ele>432</ele>
        <time>2021-05-29T11:58:28.150Z</time>
      </trkpt>
      <trkpt lat="46.65999" lon="5.56518">
        <ele>432</ele>
        <time>2021-05-29T11:58:29.150Z</time>
      </trkpt>
      <trkpt lat="46.65998" lon="5.5652">
        <ele>432</ele>
        <time>2021-05-29T11:58:30.150Z</time>
      </trkpt>
      <trkpt lat="46.65997" lon="5.56523">
        <ele>432</ele>
        <time>2021-05-29T11:58:31.149Z</time>
      </trkpt>
      <trkpt lat="46.65996" lon="5.56525">
        <ele>431</ele>
        <time>2021-05-29T11:58:32.149Z</time>
      </trkpt>
      <trkpt lat="46.65995" lon="5.56528">
        <ele>432</ele>
        <time>2021-05-29T11:58:33.150Z</time>
      </trkpt>
      <trkpt lat="46.65993" lon="5.56531">
        <ele>432</ele>
        <time>2021-05-29T11:58:34.150Z</time>
      </trkpt>
      <trkpt lat="46.65992" lon="5.56533">
        <ele>432</ele>
        <time>2021-05-29T11:58:35.149Z</time>
      </trkpt>
      <trkpt lat="46.6599" lon="5.56536">
        <ele>433</ele>
        <time>2021-05-29T11:58:36.149Z</time>
      </trkpt>
      <trkpt lat="46.65989" lon="5.56539">
        <ele>433</ele>
        <time>2021-05-29T11:58:37.150Z</time>
      </trkpt>
      <trkpt lat="46.65987" lon="5.56542">
        <ele>433</ele>
        <time>2021-05-29T11:58:38.149Z</time>
      </trkpt>
      <trkpt lat="46.65986" lon="5.56544">
        <ele>433</ele>
        <time>2021-05-29T11:58:39.150Z</time>
      </trkpt>
      <trkpt lat="46.65984" lon="5.56547">
        <ele>433</ele>
        <time>2021-05-29T11:58:40.150Z</time>
      </trkpt>
      <trkpt lat="46.65983" lon="5.56549">
        <ele>433</ele>
        <time>2021-05-29T11:58:41.150Z</time>
      </trkpt>
      <trkpt lat="46.65981" lon="5.56552">
        <ele>433</ele>
        <time>2021-05-29T11:58:42.150Z</time>
      </trkpt>
      <trkpt lat="46.65979" lon="5.56554">
        <ele>433</ele>
        <time>2021-05-29T11:58:43.150Z</time>
      </trkpt>
      <trkpt lat="46.65978" lon="5.56557">
        <ele>433</ele>
        <time>2021-05-29T11:58:44.150Z</time>
      </trkpt>
      <trkpt lat="46.65976" lon="5.56559">
        <ele>432</ele>
        <time>2021-05-29T11:58:45.150Z</time>
      </trkpt>
      <trkpt lat="46.65975" lon="5.56562">
        <ele>432</ele>
        <time>2021-05-29T11:58:46.150Z</time>
      </trkpt>
      <trkpt lat="46.65974" lon="5.56564">
        <ele>432</ele>
        <time>2021-05-29T11:58:47.150Z</time>
      </trkpt>
      <trkpt lat="46.65972" lon="5.56566">
        <ele>433</ele>
        <time>2021-05-29T11:58:48.150Z</time>
      </trkpt>
      <trkpt lat="46.65971" lon="5.56569">
        <ele>433</ele>
        <time>2021-05-29T11:58:49.150Z</time>
      </trkpt>
      <trkpt lat="46.65969" lon="5.56571">
        <ele>433</ele>
        <time>2021-05-29T11:58:50.150Z</time>
      </trkpt>
      <trkpt lat="46.65968" lon="5.56573">
        <ele>433</ele>
        <time>2021-05-29T11:58:51.149Z</time>
      </trkpt>
      <trkpt lat="46.65966" lon="5.56576">
        <ele>432</ele>
        <time>2021-05-29T11:58:52.150Z</time>
      </trkpt>
      <trkpt lat="46.65965" lon="5.56579">
        <ele>432</ele>
        <time>2021-05-29T11:58:53.149Z</time>
      </trkpt>
      <trkpt lat="46.65964" lon="5.56581">
        <ele>431</ele>
        <time>2021-05-29T11:58:54.150Z</time>
      </trkpt>
      <trkpt lat="46.65962" lon="5.56584">
        <ele>430</ele>
        <time>2021-05-29T11:58:55.150Z</time>
      </trkpt>
      <trkpt lat="46.65961" lon="5.56586">
        <ele>430</ele>
        <time>2021-05-29T11:58:56.150Z</time>
      </trkpt>
      <trkpt lat="46.6596" lon="5.56588">
        <ele>430</ele>
        <time>2021-05-29T11:58:57.150Z</time>
      </trkpt>
      <trkpt lat="46.65958" lon="5.5659">
        <ele>430</ele>
        <time>2021-05-29T11:58:58.150Z</time>
      </trkpt>
      <trkpt lat="46.65957" lon="5.56593">
        <ele>430</ele>
        <time>2021-05-29T11:58:59.149Z</time>
      </trkpt>
      <trkpt lat="46.65956" lon="5.56595">
        <ele>430</ele>
        <time>2021-05-29T11:59:00.150Z</time>
      </trkpt>
      <trkpt lat="46.65954" lon="5.56597">
        <ele>430</ele>
        <time>2021-05-29T11:59:01.150Z</time>
      </trkpt>
      <trkpt lat="46.65954" lon="5.566">
        <ele>429</ele>
        <time>2021-05-29T11:59:02.149Z</time>
      </trkpt>
      <trkpt lat="46.65953" lon="5.56602">
        <ele>429</ele>
        <time>2021-05-29T11:59:03.150Z</time>
      </trkpt>
      <trkpt lat="46.65952" lon="5.56605">
        <ele>429</ele>
        <time>2021-05-29T11:59:04.150Z</time>
      </trkpt>
      <trkpt lat="46.65951" lon="5.56608">
        <ele>429</ele>
        <time>2021-05-29T11:59:05.150Z</time>
      </trkpt>
      <trkpt lat="46.65949" lon="5.56611">
        <ele>429</ele>
        <time>2021-05-29T11:59:06.150Z</time>
      </trkpt>
      <trkpt lat="46.65948" lon="5.56613">
        <ele>429</ele>
        <time>2021-05-29T11:59:07.150Z</time>
      </trkpt>
      <trkpt lat="46.65947" lon="5.56617">
        <ele>429</ele>
        <time>2021-05-29T11:59:08.150Z</time>
      </trkpt>
      <trkpt lat="46.65946" lon="5.5662">
        <ele>430</ele>
        <time>2021-05-29T11:59:09.150Z</time>
      </trkpt>
      <trkpt lat="46.65945" lon="5.56623">
        <ele>430</ele>
        <time>2021-05-29T11:59:10.150Z</time>
      </trkpt>
      <trkpt lat="46.65944" lon="5.56625">
        <ele>431</ele>
        <time>2021-05-29T11:59:11.150Z</time>
      </trkpt>
      <trkpt lat="46.65943" lon="5.56627">
        <ele>431</ele>
        <time>2021-05-29T11:59:12.150Z</time>
      </trkpt>
      <trkpt lat="46.65942" lon="5.56629">
        <ele>432</ele>
        <time>2021-05-29T11:59:13.150Z</time>
      </trkpt>
      <trkpt lat="46.65941" lon="5.5663">
        <ele>432</ele>
        <time>2021-05-29T11:59:14.149Z</time>
      </trkpt>
      <trkpt lat="46.65941" lon="5.5663">
        <ele>432</ele>
        <time>2021-05-29T11:59:15.150Z</time>
      </trkpt>
      <trkpt lat="46.65941" lon="5.56631">
        <ele>432</ele>
        <time>2021-05-29T11:59:16.150Z</time>
      </trkpt>
      <trkpt lat="46.65941" lon="5.56632">
        <ele>433</ele>
        <time>2021-05-29T11:59:17.150Z</time>
      </trkpt>
      <trkpt lat="46.65941" lon="5.56633">
        <ele>433</ele>
        <time>2021-05-29T11:59:18.150Z</time>
      </trkpt>
      <trkpt lat="46.65942" lon="5.56635">
        <ele>433</ele>
        <time>2021-05-29T11:59:19.150Z</time>
      </trkpt>
      <trkpt lat="46.65941" lon="5.56637">
        <ele>433</ele>
        <time>2021-05-29T11:59:20.149Z</time>
      </trkpt>
      <trkpt lat="46.6594" lon="5.56639">
        <ele>433</ele>
        <time>2021-05-29T11:59:21.150Z</time>
      </trkpt>
      <trkpt lat="46.65939" lon="5.56642">
        <ele>433</ele>
        <time>2021-05-29T11:59:22.150Z</time>
      </trkpt>
      <trkpt lat="46.65938" lon="5.56644">
        <ele>433</ele>
        <time>2021-05-29T11:59:23.150Z</time>
      </trkpt>
      <trkpt lat="46.65936" lon="5.56646">
        <ele>433</ele>
        <time>2021-05-29T11:59:24.150Z</time>
      </trkpt>
      <trkpt lat="46.65934" lon="5.56648">
        <ele>433</ele>
        <time>2021-05-29T11:59:25.150Z</time>
      </trkpt>
      <trkpt lat="46.65933" lon="5.5665">
        <ele>433</ele>
        <time>2021-05-29T11:59:26.149Z</time>
      </trkpt>
      <trkpt lat="46.65932" lon="5.56653">
        <ele>433</ele>
        <time>2021-05-29T11:59:27.150Z</time>
      </trkpt>
      <trkpt lat="46.6593" lon="5.56656">
        <ele>433</ele>
        <time>2021-05-29T11:59:28.150Z</time>
      </trkpt>
      <trkpt lat="46.65929" lon="5.56658">
        <ele>433</ele>
        <time>2021-05-29T11:59:29.149Z</time>
      </trkpt>
      <trkpt lat="46.65928" lon="5.5666">
        <ele>433</ele>
        <time>2021-05-29T11:59:30.150Z</time>
      </trkpt>
      <trkpt lat="46.65926" lon="5.56661">
        <ele>433</ele>
        <time>2021-05-29T11:59:31.150Z</time>
      </trkpt>
      <trkpt lat="46.65925" lon="5.56664">
        <ele>433</ele>
        <time>2021-05-29T11:59:32.149Z</time>
      </trkpt>
      <trkpt lat="46.65923" lon="5.56667">
        <ele>433</ele>
        <time>2021-05-29T11:59:33.150Z</time>
      </trkpt>
      <trkpt lat="46.65921" lon="5.56669">
        <ele>433</ele>
        <time>2021-05-29T11:59:34.150Z</time>
      </trkpt>
      <trkpt lat="46.65921" lon="5.56671">
        <ele>432</ele>
        <time>2021-05-29T11:59:35.150Z</time>
      </trkpt>
      <trkpt lat="46.6592" lon="5.56672">
        <ele>432</ele>
        <time>2021-05-29T11:59:36.150Z</time>
      </trkpt>
      <trkpt lat="46.65919" lon="5.56674">
        <ele>432</ele>
        <time>2021-05-29T11:59:37.150Z</time>
      </trkpt>
      <trkpt lat="46.65918" lon="5.56677">
        <ele>432</ele>
        <time>2021-05-29T11:59:38.149Z</time>
      </trkpt>
      <trkpt lat="46.65917" lon="5.56679">
        <ele>432</ele>
        <time>2021-05-29T11:59:39.150Z</time>
      </trkpt>
      <trkpt lat="46.65915" lon="5.56682">
        <ele>432</ele>
        <time>2021-05-29T11:59:40.149Z</time>
      </trkpt>
      <trkpt lat="46.65914" lon="5.56686">
        <ele>432</ele>
        <time>2021-05-29T11:59:41.150Z</time>
      </trkpt>
      <trkpt lat="46.65913" lon="5.56689">
        <ele>432</ele>
        <time>2021-05-29T11:59:42.150Z</time>
      </trkpt>
      <trkpt lat="46.65912" lon="5.56692">
        <ele>432</ele>
        <time>2021-05-29T11:59:43.150Z</time>
      </trkpt>
      <trkpt lat="46.65911" lon="5.56694">
        <ele>432</ele>
        <time>2021-05-29T11:59:44.149Z</time>
      </trkpt>
      <trkpt lat="46.65911" lon="5.56698">
        <ele>432</ele>
        <time>2021-05-29T11:59:45.150Z</time>
      </trkpt>
      <trkpt lat="46.6591" lon="5.56701">
        <ele>432</ele>
        <time>2021-05-29T11:59:46.150Z</time>
      </trkpt>
      <trkpt lat="46.65909" lon="5.56704">
        <ele>432</ele>
        <time>2021-05-29T11:59:47.149Z</time>
      </trkpt>
      <trkpt lat="46.65908" lon="5.56707">
        <ele>432</ele>
        <time>2021-05-29T11:59:48.150Z</time>
      </trkpt>
      <trkpt lat="46.65907" lon="5.56711">
        <ele>431</ele>
        <time>2021-05-29T11:59:49.150Z</time>
      </trkpt>
      <trkpt lat="46.65906" lon="5.56713">
        <ele>431</ele>
        <time>2021-05-29T11:59:50.150Z</time>
      </trkpt>
      <trkpt lat="46.65905" lon="5.56716">
        <ele>431</ele>
        <time>2021-05-29T11:59:51.150Z</time>
      </trkpt>
      <trkpt lat="46.65905" lon="5.56718">
        <ele>430</ele>
        <time>2021-05-29T11:59:52.150Z</time>
      </trkpt>
      <trkpt lat="46.65904" lon="5.56721">
        <ele>430</ele>
        <time>2021-05-29T11:59:53.150Z</time>
      </trkpt>
      <trkpt lat="46.65903" lon="5.56723">
        <ele>429</ele>
        <time>2021-05-29T11:59:54.150Z</time>
      </trkpt>
      <trkpt lat="46.65903" lon="5.56725">
        <ele>429</ele>
        <time>2021-05-29T11:59:55.150Z</time>
      </trkpt>
      <trkpt lat="46.65902" lon="5.56727">
        <ele>429</ele>
        <time>2021-05-29T11:59:56.150Z</time>
      </trkpt>
      <trkpt lat="46.65901" lon="5.56729">
        <ele>429</ele>
        <time>2021-05-29T11:59:57.150Z</time>
      </trkpt>
      <trkpt lat="46.65901" lon="5.56732">
        <ele>429</ele>
        <time>2021-05-29T11:59:58.150Z</time>
      </trkpt>
      <trkpt lat="46.659" lon="5.56734">
        <ele>428</ele>
        <time>2021-05-29T11:59:59.150Z</time>
      </trkpt>
      <trkpt lat="46.659" lon="5.56737">
        <ele>428</ele>
        <time>2021-05-29T12:00:00.150Z</time>
      </trkpt>
      <trkpt lat="46.65898" lon="5.56739">
        <ele>428</ele>
        <time>2021-05-29T12:00:01.150Z</time>
      </trkpt>
      <trkpt lat="46.65897" lon="5.56741">
        <ele>428</ele>
        <time>2021-05-29T12:00:02.150Z</time>
      </trkpt>
      <trkpt lat="46.65896" lon="5.56744">
        <ele>427</ele>
        <time>2021-05-29T12:00:03.150Z</time>
      </trkpt>
      <trkpt lat="46.65895" lon="5.56746">
        <ele>427</ele>
        <time>2021-05-29T12:00:04.150Z</time>
      </trkpt>
      <trkpt lat="46.65894" lon="5.56749">
        <ele>428</ele>
        <time>2021-05-29T12:00:05.150Z</time>
      </trkpt>
      <trkpt lat="46.65892" lon="5.56753">
        <ele>428</ele>
        <time>2021-05-29T12:00:06.150Z</time>
      </trkpt>
      <trkpt lat="46.65891" lon="5.56756">
        <ele>428</ele>
        <time>2021-05-29T12:00:07.150Z</time>
      </trkpt>
      <trkpt lat="46.6589" lon="5.56759">
        <ele>429</ele>
        <time>2021-05-29T12:00:08.149Z</time>
      </trkpt>
      <trkpt lat="46.65889" lon="5.56763">
        <ele>429</ele>
        <time>2021-05-29T12:00:09.149Z</time>
      </trkpt>
      <trkpt lat="46.65888" lon="5.56766">
        <ele>429</ele>
        <time>2021-05-29T12:02:20.766Z</time>
      </trkpt>
      <trkpt lat="46.65887" lon="5.56769">
        <ele>429</ele>
        <time>2021-05-29T12:02:21.766Z</time>
      </trkpt>
      <trkpt lat="46.65886" lon="5.56771">
        <ele>429</ele>
        <time>2021-05-29T12:02:22.767Z</time>
      </trkpt>
      <trkpt lat="46.65885" lon="5.56774">
        <ele>429</ele>
        <time>2021-05-29T12:02:23.767Z</time>
      </trkpt>
      <trkpt lat="46.65884" lon="5.56777">
        <ele>429</ele>
        <time>2021-05-29T12:02:24.767Z</time>
      </trkpt>
      <trkpt lat="46.65882" lon="5.56779">
        <ele>428</ele>
        <time>2021-05-29T12:02:25.767Z</time>
      </trkpt>
      <trkpt lat="46.65881" lon="5.56781">
        <ele>428</ele>
        <time>2021-05-29T12:02:26.767Z</time>
      </trkpt>
      <trkpt lat="46.65879" lon="5.56783">
        <ele>428</ele>
        <time>2021-05-29T12:02:27.766Z</time>
      </trkpt>
      <trkpt lat="46.65877" lon="5.56786">
        <ele>428</ele>
        <time>2021-05-29T12:02:28.767Z</time>
      </trkpt>
      <trkpt lat="46.65875" lon="5.56788">
        <ele>429</ele>
        <time>2021-05-29T12:02:29.767Z</time>
      </trkpt>
      <trkpt lat="46.65873" lon="5.56791">
        <ele>429</ele>
        <time>2021-05-29T12:02:30.766Z</time>
      </trkpt>
      <trkpt lat="46.65872" lon="5.56794">
        <ele>429</ele>
        <time>2021-05-29T12:02:31.767Z</time>
      </trkpt>
      <trkpt lat="46.6587" lon="5.56797">
        <ele>429</ele>
        <time>2021-05-29T12:02:32.767Z</time>
      </trkpt>
      <trkpt lat="46.65868" lon="5.56799">
        <ele>429</ele>
        <time>2021-05-29T12:02:33.766Z</time>
      </trkpt>
      <trkpt lat="46.65866" lon="5.56801">
        <ele>429</ele>
        <time>2021-05-29T12:02:34.767Z</time>
      </trkpt>
      <trkpt lat="46.65864" lon="5.56803">
        <ele>429</ele>
        <time>2021-05-29T12:02:35.767Z</time>
      </trkpt>
      <trkpt lat="46.65861" lon="5.56806">
        <ele>428</ele>
        <time>2021-05-29T12:02:36.767Z</time>
      </trkpt>
      <trkpt lat="46.6586" lon="5.5681">
        <ele>428</ele>
        <time>2021-05-29T12:02:37.766Z</time>
      </trkpt>
      <trkpt lat="46.65859" lon="5.56812">
        <ele>428</ele>
        <time>2021-05-29T12:02:38.767Z</time>
      </trkpt>
      <trkpt lat="46.65857" lon="5.56815">
        <ele>428</ele>
        <time>2021-05-29T12:02:39.767Z</time>
      </trkpt>
      <trkpt lat="46.65855" lon="5.56817">
        <ele>428</ele>
        <time>2021-05-29T12:02:40.767Z</time>
      </trkpt>
      <trkpt lat="46.65853" lon="5.56819">
        <ele>428</ele>
        <time>2021-05-29T12:02:41.767Z</time>
      </trkpt>
      <trkpt lat="46.65851" lon="5.56821">
        <ele>428</ele>
        <time>2021-05-29T12:02:42.766Z</time>
      </trkpt>
      <trkpt lat="46.65849" lon="5.56823">
        <ele>428</ele>
        <time>2021-05-29T12:02:43.767Z</time>
      </trkpt>
      <trkpt lat="46.65848" lon="5.56825">
        <ele>428</ele>
        <time>2021-05-29T12:02:44.767Z</time>
      </trkpt>
      <trkpt lat="46.65846" lon="5.56828">
        <ele>428</ele>
        <time>2021-05-29T12:02:45.767Z</time>
      </trkpt>
      <trkpt lat="46.65844" lon="5.5683">
        <ele>428</ele>
        <time>2021-05-29T12:02:46.767Z</time>
      </trkpt>
      <trkpt lat="46.65842" lon="5.56832">
        <ele>427</ele>
        <time>2021-05-29T12:02:47.767Z</time>
      </trkpt>
      <trkpt lat="46.6584" lon="5.56834">
        <ele>427</ele>
        <time>2021-05-29T12:02:48.767Z</time>
      </trkpt>
      <trkpt lat="46.65838" lon="5.56836">
        <ele>427</ele>
        <time>2021-05-29T12:02:49.766Z</time>
      </trkpt>
      <trkpt lat="46.65837" lon="5.56838">
        <ele>427</ele>
        <time>2021-05-29T12:02:50.767Z</time>
      </trkpt>
      <trkpt lat="46.65835" lon="5.5684">
        <ele>427</ele>
        <time>2021-05-29T12:02:51.767Z</time>
      </trkpt>
      <trkpt lat="46.65833" lon="5.56842">
        <ele>427</ele>
        <time>2021-05-29T12:02:52.767Z</time>
      </trkpt>
      <trkpt lat="46.65832" lon="5.56844">
        <ele>427</ele>
        <time>2021-05-29T12:02:53.766Z</time>
      </trkpt>
      <trkpt lat="46.65831" lon="5.56845">
        <ele>426</ele>
        <time>2021-05-29T12:02:54.767Z</time>
      </trkpt>
      <trkpt lat="46.65829" lon="5.56847">
        <ele>426</ele>
        <time>2021-05-29T12:02:55.767Z</time>
      </trkpt>
      <trkpt lat="46.65828" lon="5.56849">
        <ele>426</ele>
        <time>2021-05-29T12:02:56.766Z</time>
      </trkpt>
      <trkpt lat="46.65826" lon="5.56851">
        <ele>426</ele>
        <time>2021-05-29T12:02:57.767Z</time>
      </trkpt>
      <trkpt lat="46.65824" lon="5.56852">
        <ele>425</ele>
        <time>2021-05-29T12:02:58.766Z</time>
      </trkpt>
      <trkpt lat="46.65822" lon="5.56854">
        <ele>425</ele>
        <time>2021-05-29T12:02:59.767Z</time>
      </trkpt>
      <trkpt lat="46.65821" lon="5.56855">
        <ele>425</ele>
        <time>2021-05-29T12:03:00.767Z</time>
      </trkpt>
      <trkpt lat="46.65819" lon="5.56856">
        <ele>425</ele>
        <time>2021-05-29T12:03:01.766Z</time>
      </trkpt>
      <trkpt lat="46.65817" lon="5.56857">
        <ele>424</ele>
        <time>2021-05-29T12:03:02.766Z</time>
      </trkpt>
      <trkpt lat="46.65816" lon="5.56859">
        <ele>424</ele>
        <time>2021-05-29T12:03:03.767Z</time>
      </trkpt>
      <trkpt lat="46.65815" lon="5.56861">
        <ele>424</ele>
        <time>2021-05-29T12:03:04.767Z</time>
      </trkpt>
      <trkpt lat="46.65814" lon="5.56864">
        <ele>424</ele>
        <time>2021-05-29T12:03:05.766Z</time>
      </trkpt>
      <trkpt lat="46.65813" lon="5.56867">
        <ele>424</ele>
        <time>2021-05-29T12:03:06.767Z</time>
      </trkpt>
      <trkpt lat="46.65812" lon="5.56869">
        <ele>425</ele>
        <time>2021-05-29T12:03:07.766Z</time>
      </trkpt>
      <trkpt lat="46.65811" lon="5.5687">
        <ele>425</ele>
        <time>2021-05-29T12:03:08.767Z</time>
      </trkpt>
      <trkpt lat="46.6581" lon="5.56872">
        <ele>425</ele>
        <time>2021-05-29T12:03:09.767Z</time>
      </trkpt>
      <trkpt lat="46.65808" lon="5.56874">
        <ele>425</ele>
        <time>2021-05-29T12:03:10.766Z</time>
      </trkpt>
      <trkpt lat="46.65807" lon="5.56877">
        <ele>425</ele>
        <time>2021-05-29T12:03:11.767Z</time>
      </trkpt>
      <trkpt lat="46.65805" lon="5.56879">
        <ele>425</ele>
        <time>2021-05-29T12:03:12.766Z</time>
      </trkpt>
      <trkpt lat="46.65803" lon="5.56882">
        <ele>426</ele>
        <time>2021-05-29T12:03:13.767Z</time>
      </trkpt>
      <trkpt lat="46.65801" lon="5.56885">
        <ele>426</ele>
        <time>2021-05-29T12:03:14.767Z</time>
      </trkpt>
      <trkpt lat="46.65799" lon="5.56888">
        <ele>427</ele>
        <time>2021-05-29T12:03:15.767Z</time>
      </trkpt>
      <trkpt lat="46.65797" lon="5.5689">
        <ele>427</ele>
        <time>2021-05-29T12:03:16.766Z</time>
      </trkpt>
      <trkpt lat="46.65796" lon="5.56893">
        <ele>428</ele>
        <time>2021-05-29T12:03:17.766Z</time>
      </trkpt>
      <trkpt lat="46.65794" lon="5.56895">
        <ele>428</ele>
        <time>2021-05-29T12:03:18.767Z</time>
      </trkpt>
      <trkpt lat="46.65793" lon="5.56897">
        <ele>429</ele>
        <time>2021-05-29T12:03:19.767Z</time>
      </trkpt>
      <trkpt lat="46.65791" lon="5.56899">
        <ele>429</ele>
        <time>2021-05-29T12:03:20.767Z</time>
      </trkpt>
      <trkpt lat="46.65789" lon="5.56901">
        <ele>429</ele>
        <time>2021-05-29T12:03:21.767Z</time>
      </trkpt>
      <trkpt lat="46.65787" lon="5.56904">
        <ele>429</ele>
        <time>2021-05-29T12:03:22.767Z</time>
      </trkpt>
      <trkpt lat="46.65786" lon="5.56906">
        <ele>429</ele>
        <time>2021-05-29T12:03:23.767Z</time>
      </trkpt>
      <trkpt lat="46.65784" lon="5.56908">
        <ele>429</ele>
        <time>2021-05-29T12:03:24.767Z</time>
      </trkpt>
      <trkpt lat="46.65783" lon="5.5691">
        <ele>429</ele>
        <time>2021-05-29T12:03:25.767Z</time>
      </trkpt>
      <trkpt lat="46.65782" lon="5.56914">
        <ele>429</ele>
        <time>2021-05-29T12:03:26.767Z</time>
      </trkpt>
      <trkpt lat="46.65781" lon="5.56917">
        <ele>430</ele>
        <time>2021-05-29T12:03:27.767Z</time>
      </trkpt>
      <trkpt lat="46.6578" lon="5.5692">
        <ele>430</ele>
        <time>2021-05-29T12:03:28.767Z</time>
      </trkpt>
      <trkpt lat="46.65778" lon="5.56924">
        <ele>430</ele>
        <time>2021-05-29T12:03:29.767Z</time>
      </trkpt>
      <trkpt lat="46.65777" lon="5.56927">
        <ele>431</ele>
        <time>2021-05-29T12:03:30.767Z</time>
      </trkpt>
      <trkpt lat="46.65776" lon="5.56929">
        <ele>431</ele>
        <time>2021-05-29T12:03:31.767Z</time>
      </trkpt>
      <trkpt lat="46.65774" lon="5.56932">
        <ele>432</ele>
        <time>2021-05-29T12:03:32.767Z</time>
      </trkpt>
      <trkpt lat="46.65773" lon="5.56935">
        <ele>432</ele>
        <time>2021-05-29T12:03:33.767Z</time>
      </trkpt>
      <trkpt lat="46.65772" lon="5.56938">
        <ele>432</ele>
        <time>2021-05-29T12:03:34.767Z</time>
      </trkpt>
      <trkpt lat="46.65771" lon="5.56941">
        <ele>432</ele>
        <time>2021-05-29T12:03:35.766Z</time>
      </trkpt>
      <trkpt lat="46.65769" lon="5.56944">
        <ele>431</ele>
        <time>2021-05-29T12:03:36.767Z</time>
      </trkpt>
      <trkpt lat="46.65768" lon="5.56946">
        <ele>431</ele>
        <time>2021-05-29T12:03:37.767Z</time>
      </trkpt>
      <trkpt lat="46.65767" lon="5.56948">
        <ele>431</ele>
        <time>2021-05-29T12:03:38.766Z</time>
      </trkpt>
      <trkpt lat="46.65766" lon="5.56949">
        <ele>430</ele>
        <time>2021-05-29T12:03:39.767Z</time>
      </trkpt>
      <trkpt lat="46.65765" lon="5.56952">
        <ele>430</ele>
        <time>2021-05-29T12:03:40.767Z</time>
      </trkpt>
      <trkpt lat="46.65764" lon="5.56954">
        <ele>430</ele>
        <time>2021-05-29T12:03:41.767Z</time>
      </trkpt>
      <trkpt lat="46.65763" lon="5.56956">
        <ele>430</ele>
        <time>2021-05-29T12:03:42.767Z</time>
      </trkpt>
      <trkpt lat="46.65763" lon="5.56959">
        <ele>430</ele>
        <time>2021-05-29T12:03:43.767Z</time>
      </trkpt>
      <trkpt lat="46.65762" lon="5.56962">
        <ele>429</ele>
        <time>2021-05-29T12:03:44.767Z</time>
      </trkpt>
      <trkpt lat="46.6576" lon="5.56965">
        <ele>429</ele>
        <time>2021-05-29T12:03:45.767Z</time>
      </trkpt>
      <trkpt lat="46.65759" lon="5.56968">
        <ele>429</ele>
        <time>2021-05-29T12:03:46.767Z</time>
      </trkpt>
      <trkpt lat="46.65758" lon="5.5697">
        <ele>429</ele>
        <time>2021-05-29T12:03:47.766Z</time>
      </trkpt>
      <trkpt lat="46.65756" lon="5.56972">
        <ele>429</ele>
        <time>2021-05-29T12:03:48.767Z</time>
      </trkpt>
      <trkpt lat="46.65755" lon="5.56975">
        <ele>429</ele>
        <time>2021-05-29T12:03:49.767Z</time>
      </trkpt>
      <trkpt lat="46.65754" lon="5.56977">
        <ele>429</ele>
        <time>2021-05-29T12:03:50.766Z</time>
      </trkpt>
      <trkpt lat="46.65753" lon="5.56979">
        <ele>429</ele>
        <time>2021-05-29T12:03:51.767Z</time>
      </trkpt>
      <trkpt lat="46.65752" lon="5.56981">
        <ele>429</ele>
        <time>2021-05-29T12:03:52.766Z</time>
      </trkpt>
      <trkpt lat="46.6575" lon="5.56984">
        <ele>429</ele>
        <time>2021-05-29T12:03:53.767Z</time>
      </trkpt>
      <trkpt lat="46.65748" lon="5.56987">
        <ele>429</ele>
        <time>2021-05-29T12:03:54.767Z</time>
      </trkpt>
      <trkpt lat="46.65747" lon="5.5699">
        <ele>428</ele>
        <time>2021-05-29T12:03:55.767Z</time>
      </trkpt>
      <trkpt lat="46.65745" lon="5.56992">
        <ele>428</ele>
        <time>2021-05-29T12:03:56.767Z</time>
      </trkpt>
      <trkpt lat="46.65744" lon="5.56995">
        <ele>428</ele>
        <time>2021-05-29T12:03:57.767Z</time>
      </trkpt>
      <trkpt lat="46.65743" lon="5.56998">
        <ele>428</ele>
        <time>2021-05-29T12:03:58.767Z</time>
      </trkpt>
      <trkpt lat="46.65742" lon="5.57001">
        <ele>429</ele>
        <time>2021-05-29T12:03:59.766Z</time>
      </trkpt>
      <trkpt lat="46.6574" lon="5.57004">
        <ele>429</ele>
        <time>2021-05-29T12:04:00.767Z</time>
      </trkpt>
      <trkpt lat="46.65739" lon="5.57008">
        <ele>429</ele>
        <time>2021-05-29T12:04:01.767Z</time>
      </trkpt>
      <trkpt lat="46.65737" lon="5.57011">
        <ele>429</ele>
        <time>2021-05-29T12:04:02.767Z</time>
      </trkpt>
      <trkpt lat="46.65736" lon="5.57014">
        <ele>429</ele>
        <time>2021-05-29T12:04:03.767Z</time>
      </trkpt>
      <trkpt lat="46.65734" lon="5.57017">
        <ele>429</ele>
        <time>2021-05-29T12:04:04.767Z</time>
      </trkpt>
      <trkpt lat="46.65733" lon="5.57021">
        <ele>429</ele>
        <time>2021-05-29T12:04:05.767Z</time>
      </trkpt>
      <trkpt lat="46.65732" lon="5.57024">
        <ele>429</ele>
        <time>2021-05-29T12:04:06.766Z</time>
      </trkpt>
      <trkpt lat="46.65731" lon="5.57027">
        <ele>429</ele>
        <time>2021-05-29T12:04:07.767Z</time>
      </trkpt>
      <trkpt lat="46.65729" lon="5.57029">
        <ele>429</ele>
        <time>2021-05-29T12:04:08.767Z</time>
      </trkpt>
      <trkpt lat="46.65728" lon="5.57032">
        <ele>429</ele>
        <time>2021-05-29T12:04:09.766Z</time>
      </trkpt>
      <trkpt lat="46.65726" lon="5.57035">
        <ele>429</ele>
        <time>2021-05-29T12:04:10.767Z</time>
      </trkpt>
      <trkpt lat="46.65725" lon="5.57038">
        <ele>429</ele>
        <time>2021-05-29T12:04:11.767Z</time>
      </trkpt>
      <trkpt lat="46.65723" lon="5.57041">
        <ele>429</ele>
        <time>2021-05-29T12:04:12.767Z</time>
      </trkpt>
      <trkpt lat="46.65722" lon="5.57043">
        <ele>428</ele>
        <time>2021-05-29T12:04:13.767Z</time>
      </trkpt>
      <trkpt lat="46.6572" lon="5.57045">
        <ele>428</ele>
        <time>2021-05-29T12:04:14.767Z</time>
      </trkpt>
      <trkpt lat="46.65719" lon="5.57048">
        <ele>428</ele>
        <time>2021-05-29T12:04:15.767Z</time>
      </trkpt>
      <trkpt lat="46.65717" lon="5.5705">
        <ele>428</ele>
        <time>2021-05-29T12:04:16.767Z</time>
      </trkpt>
      <trkpt lat="46.65716" lon="5.57053">
        <ele>428</ele>
        <time>2021-05-29T12:04:17.767Z</time>
      </trkpt>
      <trkpt lat="46.65715" lon="5.57055">
        <ele>428</ele>
        <time>2021-05-29T12:04:18.767Z</time>
      </trkpt>
      <trkpt lat="46.65714" lon="5.57058">
        <ele>428</ele>
        <time>2021-05-29T12:04:19.767Z</time>
      </trkpt>
      <trkpt lat="46.65712" lon="5.5706">
        <ele>429</ele>
        <time>2021-05-29T12:04:20.767Z</time>
      </trkpt>
      <trkpt lat="46.65711" lon="5.57062">
        <ele>429</ele>
        <time>2021-05-29T12:04:21.767Z</time>
      </trkpt>
      <trkpt lat="46.65709" lon="5.57065">
        <ele>429</ele>
        <time>2021-05-29T12:04:22.767Z</time>
      </trkpt>
      <trkpt lat="46.65708" lon="5.57067">
        <ele>430</ele>
        <time>2021-05-29T12:04:23.767Z</time>
      </trkpt>
      <trkpt lat="46.65707" lon="5.5707">
        <ele>430</ele>
        <time>2021-05-29T12:04:24.766Z</time>
      </trkpt>
      <trkpt lat="46.65705" lon="5.57073">
        <ele>430</ele>
        <time>2021-05-29T12:04:25.767Z</time>
      </trkpt>
      <trkpt lat="46.65704" lon="5.57076">
        <ele>430</ele>
        <time>2021-05-29T12:04:26.767Z</time>
      </trkpt>
      <trkpt lat="46.65702" lon="5.57078">
        <ele>430</ele>
        <time>2021-05-29T12:04:27.767Z</time>
      </trkpt>
      <trkpt lat="46.65701" lon="5.57081">
        <ele>430</ele>
        <time>2021-05-29T12:04:28.767Z</time>
      </trkpt>
      <trkpt lat="46.65699" lon="5.57084">
        <ele>430</ele>
        <time>2021-05-29T12:04:29.766Z</time>
      </trkpt>
      <trkpt lat="46.65698" lon="5.57087">
        <ele>431</ele>
        <time>2021-05-29T12:04:30.767Z</time>
      </trkpt>
      <trkpt lat="46.65697" lon="5.5709">
        <ele>431</ele>
        <time>2021-05-29T12:04:31.767Z</time>
      </trkpt>
      <trkpt lat="46.65696" lon="5.57094">
        <ele>431</ele>
        <time>2021-05-29T12:04:32.767Z</time>
      </trkpt>
      <trkpt lat="46.65695" lon="5.57097">
        <ele>430</ele>
        <time>2021-05-29T12:04:33.767Z</time>
      </trkpt>
      <trkpt lat="46.65693" lon="5.571">
        <ele>430</ele>
        <time>2021-05-29T12:04:34.766Z</time>
      </trkpt>
      <trkpt lat="46.65692" lon="5.57104">
        <ele>429</ele>
        <time>2021-05-29T12:04:35.767Z</time>
      </trkpt>
      <trkpt lat="46.65691" lon="5.57107">
        <ele>429</ele>
        <time>2021-05-29T12:04:36.766Z</time>
      </trkpt>
      <trkpt lat="46.6569" lon="5.57111">
        <ele>428</ele>
        <time>2021-05-29T12:04:37.767Z</time>
      </trkpt>
      <trkpt lat="46.65689" lon="5.57114">
        <ele>428</ele>
        <time>2021-05-29T12:04:38.766Z</time>
      </trkpt>
      <trkpt lat="46.65687" lon="5.57117">
        <ele>428</ele>
        <time>2021-05-29T12:04:39.766Z</time>
      </trkpt>
      <trkpt lat="46.65686" lon="5.5712">
        <ele>429</ele>
        <time>2021-05-29T12:04:40.767Z</time>
      </trkpt>
      <trkpt lat="46.65685" lon="5.57124">
        <ele>429</ele>
        <time>2021-05-29T12:04:41.767Z</time>
      </trkpt>
      <trkpt lat="46.65685" lon="5.57127">
        <ele>429</ele>
        <time>2021-05-29T12:04:42.767Z</time>
      </trkpt>
      <trkpt lat="46.65684" lon="5.57131">
        <ele>429</ele>
        <time>2021-05-29T12:04:43.766Z</time>
      </trkpt>
      <trkpt lat="46.65684" lon="5.57134">
        <ele>430</ele>
        <time>2021-05-29T12:04:44.767Z</time>
      </trkpt>
      <trkpt lat="46.65684" lon="5.57138">
        <ele>430</ele>
        <time>2021-05-29T12:04:45.767Z</time>
      </trkpt>
      <trkpt lat="46.65684" lon="5.57141">
        <ele>430</ele>
        <time>2021-05-29T12:04:46.767Z</time>
      </trkpt>
      <trkpt lat="46.65684" lon="5.57145">
        <ele>430</ele>
        <time>2021-05-29T12:04:47.766Z</time>
      </trkpt>
      <trkpt lat="46.65684" lon="5.57148">
        <ele>430</ele>
        <time>2021-05-29T12:04:48.767Z</time>
      </trkpt>
      <trkpt lat="46.65684" lon="5.57152">
        <ele>430</ele>
        <time>2021-05-29T12:04:49.767Z</time>
      </trkpt>
      <trkpt lat="46.65684" lon="5.57155">
        <ele>430</ele>
        <time>2021-05-29T12:04:50.767Z</time>
      </trkpt>
      <trkpt lat="46.65684" lon="5.57159">
        <ele>431</ele>
        <time>2021-05-29T12:04:51.766Z</time>
      </trkpt>
      <trkpt lat="46.65684" lon="5.57162">
        <ele>431</ele>
        <time>2021-05-29T12:04:52.767Z</time>
      </trkpt>
      <trkpt lat="46.65685" lon="5.57166">
        <ele>431</ele>
        <time>2021-05-29T12:04:53.766Z</time>
      </trkpt>
      <trkpt lat="46.65685" lon="5.57169">
        <ele>431</ele>
        <time>2021-05-29T12:04:54.767Z</time>
      </trkpt>
      <trkpt lat="46.65685" lon="5.57173">
        <ele>431</ele>
        <time>2021-05-29T12:04:55.767Z</time>
      </trkpt>
      <trkpt lat="46.65685" lon="5.57177">
        <ele>431</ele>
        <time>2021-05-29T12:04:56.767Z</time>
      </trkpt>
      <trkpt lat="46.65685" lon="5.5718">
        <ele>431</ele>
        <time>2021-05-29T12:04:57.767Z</time>
      </trkpt>
      <trkpt lat="46.65684" lon="5.57184">
        <ele>430</ele>
        <time>2021-05-29T12:04:58.767Z</time>
      </trkpt>
      <trkpt lat="46.65684" lon="5.57187">
        <ele>429</ele>
        <time>2021-05-29T12:04:59.767Z</time>
      </trkpt>
      <trkpt lat="46.65684" lon="5.57191">
        <ele>429</ele>
        <time>2021-05-29T12:05:00.767Z</time>
      </trkpt>
      <trkpt lat="46.65684" lon="5.57194">
        <ele>429</ele>
        <time>2021-05-29T12:05:01.766Z</time>
      </trkpt>
      <trkpt lat="46.65684" lon="5.57198">
        <ele>429</ele>
        <time>2021-05-29T12:05:02.767Z</time>
      </trkpt>
      <trkpt lat="46.65683" lon="5.57201">
        <ele>429</ele>
        <time>2021-05-29T12:05:03.767Z</time>
      </trkpt>
      <trkpt lat="46.65683" lon="5.57205">
        <ele>429</ele>
        <time>2021-05-29T12:05:04.767Z</time>
      </trkpt>
      <trkpt lat="46.65683" lon="5.57209">
        <ele>429</ele>
        <time>2021-05-29T12:05:05.767Z</time>
      </trkpt>
      <trkpt lat="46.65683" lon="5.57212">
        <ele>429</ele>
        <time>2021-05-29T12:05:06.767Z</time>
      </trkpt>
      <trkpt lat="46.65683" lon="5.57216">
        <ele>428</ele>
        <time>2021-05-29T12:05:07.767Z</time>
      </trkpt>
      <trkpt lat="46.65683" lon="5.57219">
        <ele>428</ele>
        <time>2021-05-29T12:05:08.767Z</time>
      </trkpt>
      <trkpt lat="46.65683" lon="5.57223">
        <ele>428</ele>
        <time>2021-05-29T12:05:09.766Z</time>
      </trkpt>
      <trkpt lat="46.65683" lon="5.57226">
        <ele>428</ele>
        <time>2021-05-29T12:05:10.767Z</time>
      </trkpt>
      <trkpt lat="46.65682" lon="5.57229">
        <ele>428</ele>
        <time>2021-05-29T12:05:11.767Z</time>
      </trkpt>
      <trkpt lat="46.65682" lon="5.57233">
        <ele>428</ele>
        <time>2021-05-29T12:05:12.767Z</time>
      </trkpt>
      <trkpt lat="46.65683" lon="5.57236">
        <ele>428</ele>
        <time>2021-05-29T12:05:13.767Z</time>
      </trkpt>
      <trkpt lat="46.65683" lon="5.57239">
        <ele>428</ele>
        <time>2021-05-29T12:05:14.766Z</time>
      </trkpt>
      <trkpt lat="46.65683" lon="5.57243">
        <ele>428</ele>
        <time>2021-05-29T12:05:15.767Z</time>
      </trkpt>
      <trkpt lat="46.65683" lon="5.57246">
        <ele>428</ele>
        <time>2021-05-29T12:05:16.767Z</time>
      </trkpt>
      <trkpt lat="46.65683" lon="5.57248">
        <ele>428</ele>
        <time>2021-05-29T12:05:17.766Z</time>
      </trkpt>
      <trkpt lat="46.65683" lon="5.57249">
        <ele>428</ele>
        <time>2021-05-29T12:05:18.767Z</time>
      </trkpt>
      <trkpt lat="46.65682" lon="5.57249">
        <ele>428</ele>
        <time>2021-05-29T12:05:19.766Z</time>
      </trkpt>
      <trkpt lat="46.65682" lon="5.57249">
        <ele>427</ele>
        <time>2021-05-29T12:05:20.767Z</time>
      </trkpt>
      <trkpt lat="46.65682" lon="5.57249">
        <ele>427</ele>
        <time>2021-05-29T12:05:21.767Z</time>
      </trkpt>
      <trkpt lat="46.65682" lon="5.57249">
        <ele>427</ele>
        <time>2021-05-29T12:05:22.767Z</time>
      </trkpt>
      <trkpt lat="46.65682" lon="5.57249">
        <ele>427</ele>
        <time>2021-05-29T12:05:23.766Z</time>
      </trkpt>
      <trkpt lat="46.65682" lon="5.57249">
        <ele>427</ele>
        <time>2021-05-29T12:05:24.766Z</time>
      </trkpt>
      <trkpt lat="46.65681" lon="5.57249">
        <ele>426</ele>
        <time>2021-05-29T12:05:25.767Z</time>
      </trkpt>
      <trkpt lat="46.65681" lon="5.57249">
        <ele>426</ele>
        <time>2021-05-29T12:05:26.767Z</time>
      </trkpt>
      <trkpt lat="46.65681" lon="5.57249">
        <ele>426</ele>
        <time>2021-05-29T12:05:27.767Z</time>
      </trkpt>
      <trkpt lat="46.65682" lon="5.57249">
        <ele>426</ele>
        <time>2021-05-29T12:05:28.767Z</time>
      </trkpt>
      <trkpt lat="46.65682" lon="5.57249">
        <ele>426</ele>
        <time>2021-05-29T12:05:29.767Z</time>
      </trkpt>
      <trkpt lat="46.65682" lon="5.57249">
        <ele>426</ele>
        <time>2021-05-29T12:05:30.767Z</time>
      </trkpt>
      <trkpt lat="46.65682" lon="5.57249">
        <ele>427</ele>
        <time>2021-05-29T12:05:31.767Z</time>
      </trkpt>
      <trkpt lat="46.65682" lon="5.57249">
        <ele>427</ele>
        <time>2021-05-29T12:05:32.767Z</time>
      </trkpt>
      <trkpt lat="46.65682" lon="5.57249">
        <ele>427</ele>
        <time>2021-05-29T12:05:33.767Z</time>
      </trkpt>
      <trkpt lat="46.65682" lon="5.57249">
        <ele>427</ele>
        <time>2021-05-29T12:05:34.766Z</time>
      </trkpt>
      <trkpt lat="46.65682" lon="5.57249">
        <ele>427</ele>
        <time>2021-05-29T12:05:35.767Z</time>
      </trkpt>
      <trkpt lat="46.65682" lon="5.57249">
        <ele>427</ele>
        <time>2021-05-29T12:05:36.767Z</time>
      </trkpt>
      <trkpt lat="46.65682" lon="5.57249">
        <ele>428</ele>
        <time>2021-05-29T12:05:37.767Z</time>
      </trkpt>
      <trkpt lat="46.65682" lon="5.57249">
        <ele>428</ele>
        <time>2021-05-29T12:05:38.767Z</time>
      </trkpt>
      <trkpt lat="46.65682" lon="5.57249">
        <ele>428</ele>
        <time>2021-05-29T12:05:39.767Z</time>
      </trkpt>
      <trkpt lat="46.65682" lon="5.57249">
        <ele>428</ele>
        <time>2021-05-29T12:05:40.767Z</time>
      </trkpt>
      <trkpt lat="46.65682" lon="5.57249">
        <ele>429</ele>
        <time>2021-05-29T12:05:41.767Z</time>
      </trkpt>
      <trkpt lat="46.65682" lon="5.57249">
        <ele>429</ele>
        <time>2021-05-29T12:05:42.767Z</time>
      </trkpt>
      <trkpt lat="46.65682" lon="5.57249">
        <ele>429</ele>
        <time>2021-05-29T12:05:43.767Z</time>
      </trkpt>
      <trkpt lat="46.65682" lon="5.57249">
        <ele>429</ele>
        <time>2021-05-29T12:05:44.767Z</time>
      </trkpt>
      <trkpt lat="46.65682" lon="5.57249">
        <ele>429</ele>
        <time>2021-05-29T12:05:45.766Z</time>
      </trkpt>
      <trkpt lat="46.65682" lon="5.57249">
        <ele>429</ele>
        <time>2021-05-29T12:05:46.767Z</time>
      </trkpt>
      <trkpt lat="46.65682" lon="5.57249">
        <ele>429</ele>
        <time>2021-05-29T12:05:47.767Z</time>
      </trkpt>
      <trkpt lat="46.65682" lon="5.57249">
        <ele>429</ele>
        <time>2021-05-29T12:05:48.766Z</time>
      </trkpt>
      <trkpt lat="46.65682" lon="5.57249">
        <ele>429</ele>
        <time>2021-05-29T12:05:49.766Z</time>
      </trkpt>
      <trkpt lat="46.65682" lon="5.57249">
        <ele>429</ele>
        <time>2021-05-29T12:05:50.767Z</time>
      </trkpt>
      <trkpt lat="46.65682" lon="5.57248">
        <ele>429</ele>
        <time>2021-05-29T12:05:51.767Z</time>
      </trkpt>
      <trkpt lat="46.65682" lon="5.57248">
        <ele>429</ele>
        <time>2021-05-29T12:05:52.766Z</time>
      </trkpt>
      <trkpt lat="46.65682" lon="5.57248">
        <ele>429</ele>
        <time>2021-05-29T12:05:53.767Z</time>
      </trkpt>
      <trkpt lat="46.65682" lon="5.57248">
        <ele>429</ele>
        <time>2021-05-29T12:05:54.767Z</time>
      </trkpt>
      <trkpt lat="46.65682" lon="5.57248">
        <ele>429</ele>
        <time>2021-05-29T12:05:55.766Z</time>
      </trkpt>
      <trkpt lat="46.65682" lon="5.57248">
        <ele>429</ele>
        <time>2021-05-29T12:05:56.767Z</time>
      </trkpt>
      <trkpt lat="46.65682" lon="5.57248">
        <ele>429</ele>
        <time>2021-05-29T12:05:57.767Z</time>
      </trkpt>
      <trkpt lat="46.65682" lon="5.57248">
        <ele>429</ele>
        <time>2021-05-29T12:05:58.767Z</time>
      </trkpt>
      <trkpt lat="46.65682" lon="5.57248">
        <ele>429</ele>
        <time>2021-05-29T12:05:59.766Z</time>
      </trkpt>
      <trkpt lat="46.65682" lon="5.57249">
        <ele>429</ele>
        <time>2021-05-29T12:06:00.766Z</time>
      </trkpt>
      <trkpt lat="46.65681" lon="5.57251">
        <ele>429</ele>
        <time>2021-05-29T12:06:01.767Z</time>
      </trkpt>
      <trkpt lat="46.65681" lon="5.57253">
        <ele>429</ele>
        <time>2021-05-29T12:06:02.767Z</time>
      </trkpt>
      <trkpt lat="46.65681" lon="5.57256">
        <ele>429</ele>
        <time>2021-05-29T12:06:03.767Z</time>
      </trkpt>
      <trkpt lat="46.6568" lon="5.57259">
        <ele>429</ele>
        <time>2021-05-29T12:06:04.766Z</time>
      </trkpt>
      <trkpt lat="46.6568" lon="5.57262">
        <ele>429</ele>
        <time>2021-05-29T12:06:05.767Z</time>
      </trkpt>
      <trkpt lat="46.65679" lon="5.57266">
        <ele>429</ele>
        <time>2021-05-29T12:06:06.767Z</time>
      </trkpt>
      <trkpt lat="46.65678" lon="5.5727">
        <ele>429</ele>
        <time>2021-05-29T12:06:07.767Z</time>
      </trkpt>
      <trkpt lat="46.65677" lon="5.57273">
        <ele>428</ele>
        <time>2021-05-29T12:06:08.767Z</time>
      </trkpt>
      <trkpt lat="46.65676" lon="5.57277">
        <ele>428</ele>
        <time>2021-05-29T12:06:09.767Z</time>
      </trkpt>
      <trkpt lat="46.65675" lon="5.5728">
        <ele>428</ele>
        <time>2021-05-29T12:06:10.767Z</time>
      </trkpt>
      <trkpt lat="46.65674" lon="5.57282">
        <ele>428</ele>
        <time>2021-05-29T12:06:11.766Z</time>
      </trkpt>
      <trkpt lat="46.65672" lon="5.57285">
        <ele>427</ele>
        <time>2021-05-29T12:06:12.767Z</time>
      </trkpt>
      <trkpt lat="46.65671" lon="5.57287">
        <ele>427</ele>
        <time>2021-05-29T12:06:13.767Z</time>
      </trkpt>
      <trkpt lat="46.65669" lon="5.57289">
        <ele>427</ele>
        <time>2021-05-29T12:06:14.767Z</time>
      </trkpt>
      <trkpt lat="46.65667" lon="5.57291">
        <ele>427</ele>
        <time>2021-05-29T12:06:15.767Z</time>
      </trkpt>
      <trkpt lat="46.65666" lon="5.57294">
        <ele>427</ele>
        <time>2021-05-29T12:06:16.767Z</time>
      </trkpt>
      <trkpt lat="46.65664" lon="5.57295">
        <ele>428</ele>
        <time>2021-05-29T12:06:17.766Z</time>
      </trkpt>
      <trkpt lat="46.65662" lon="5.57297">
        <ele>428</ele>
        <time>2021-05-29T12:06:18.767Z</time>
      </trkpt>
      <trkpt lat="46.6566" lon="5.57298">
        <ele>428</ele>
        <time>2021-05-29T12:06:19.766Z</time>
      </trkpt>
      <trkpt lat="46.65658" lon="5.573">
        <ele>428</ele>
        <time>2021-05-29T12:06:20.767Z</time>
      </trkpt>
      <trkpt lat="46.65656" lon="5.57301">
        <ele>429</ele>
        <time>2021-05-29T12:06:21.767Z</time>
      </trkpt>
      <trkpt lat="46.65654" lon="5.57301">
        <ele>429</ele>
        <time>2021-05-29T12:06:22.767Z</time>
      </trkpt>
      <trkpt lat="46.65652" lon="5.57302">
        <ele>429</ele>
        <time>2021-05-29T12:06:23.767Z</time>
      </trkpt>
      <trkpt lat="46.6565" lon="5.57303">
        <ele>428</ele>
        <time>2021-05-29T12:06:24.766Z</time>
      </trkpt>
      <trkpt lat="46.65648" lon="5.57304">
        <ele>428</ele>
        <time>2021-05-29T12:06:25.766Z</time>
      </trkpt>
      <trkpt lat="46.65646" lon="5.57305">
        <ele>428</ele>
        <time>2021-05-29T12:06:26.766Z</time>
      </trkpt>
      <trkpt lat="46.65644" lon="5.57306">
        <ele>429</ele>
        <time>2021-05-29T12:06:27.767Z</time>
      </trkpt>
      <trkpt lat="46.65642" lon="5.57308">
        <ele>429</ele>
        <time>2021-05-29T12:06:28.766Z</time>
      </trkpt>
      <trkpt lat="46.6564" lon="5.57309">
        <ele>429</ele>
        <time>2021-05-29T12:06:29.767Z</time>
      </trkpt>
      <trkpt lat="46.6564" lon="5.57311">
        <ele>430</ele>
        <time>2021-05-29T12:06:30.767Z</time>
      </trkpt>
      <trkpt lat="46.6564" lon="5.57313">
        <ele>430</ele>
        <time>2021-05-29T12:06:31.767Z</time>
      </trkpt>
      <trkpt lat="46.6564" lon="5.57314">
        <ele>430</ele>
        <time>2021-05-29T12:06:32.767Z</time>
      </trkpt>
      <trkpt lat="46.6564" lon="5.57316">
        <ele>430</ele>
        <time>2021-05-29T12:06:33.767Z</time>
      </trkpt>
      <trkpt lat="46.65641" lon="5.57316">
        <ele>431</ele>
        <time>2021-05-29T12:06:34.767Z</time>
      </trkpt>
      <trkpt lat="46.65641" lon="5.57316">
        <ele>431</ele>
        <time>2021-05-29T12:06:35.767Z</time>
      </trkpt>
      <trkpt lat="46.65642" lon="5.57315">
        <ele>431</ele>
        <time>2021-05-29T12:06:36.767Z</time>
      </trkpt>
      <trkpt lat="46.65642" lon="5.57315">
        <ele>432</ele>
        <time>2021-05-29T12:06:37.767Z</time>
      </trkpt>
      <trkpt lat="46.65643" lon="5.57315">
        <ele>432</ele>
        <time>2021-05-29T12:06:38.766Z</time>
      </trkpt>
      <trkpt lat="46.65644" lon="5.57315">
        <ele>432</ele>
        <time>2021-05-29T12:06:39.767Z</time>
      </trkpt>
      <trkpt lat="46.65644" lon="5.57315">
        <ele>433</ele>
        <time>2021-05-29T12:06:40.767Z</time>
      </trkpt>
      <trkpt lat="46.65644" lon="5.57316">
        <ele>433</ele>
        <time>2021-05-29T12:06:41.767Z</time>
      </trkpt>
      <trkpt lat="46.65645" lon="5.57317">
        <ele>434</ele>
        <time>2021-05-29T12:06:42.767Z</time>
      </trkpt>
      <trkpt lat="46.65645" lon="5.57318">
        <ele>434</ele>
        <time>2021-05-29T12:06:43.767Z</time>
      </trkpt>
      <trkpt lat="46.65645" lon="5.57318">
        <ele>434</ele>
        <time>2021-05-29T12:06:44.767Z</time>
      </trkpt>
      <trkpt lat="46.65644" lon="5.57318">
        <ele>435</ele>
        <time>2021-05-29T12:06:45.767Z</time>
      </trkpt>
      <trkpt lat="46.65643" lon="5.57317">
        <ele>435</ele>
        <time>2021-05-29T12:06:46.766Z</time>
      </trkpt>
      <trkpt lat="46.65644" lon="5.57317">
        <ele>435</ele>
        <time>2021-05-29T12:06:47.767Z</time>
      </trkpt>
      <trkpt lat="46.65644" lon="5.57317">
        <ele>436</ele>
        <time>2021-05-29T12:06:48.767Z</time>
      </trkpt>
      <trkpt lat="46.65644" lon="5.57317">
        <ele>436</ele>
        <time>2021-05-29T12:06:49.766Z</time>
      </trkpt>
      <trkpt lat="46.65644" lon="5.57317">
        <ele>436</ele>
        <time>2021-05-29T12:06:50.767Z</time>
      </trkpt>
      <trkpt lat="46.65644" lon="5.57317">
        <ele>436</ele>
        <time>2021-05-29T12:06:51.767Z</time>
      </trkpt>
      <trkpt lat="46.65644" lon="5.57317">
        <ele>437</ele>
        <time>2021-05-29T12:06:52.767Z</time>
      </trkpt>
      <trkpt lat="46.65644" lon="5.57317">
        <ele>437</ele>
        <time>2021-05-29T12:06:53.767Z</time>
      </trkpt>
      <trkpt lat="46.65644" lon="5.57317">
        <ele>437</ele>
        <time>2021-05-29T12:06:54.766Z</time>
      </trkpt>
      <trkpt lat="46.65644" lon="5.57317">
        <ele>437</ele>
        <time>2021-05-29T12:06:55.767Z</time>
      </trkpt>
      <trkpt lat="46.65644" lon="5.57317">
        <ele>437</ele>
        <time>2021-05-29T12:06:56.767Z</time>
      </trkpt>
      <trkpt lat="46.65644" lon="5.57317">
        <ele>437</ele>
        <time>2021-05-29T12:06:57.767Z</time>
      </trkpt>
      <trkpt lat="46.65644" lon="5.57317">
        <ele>437</ele>
        <time>2021-05-29T12:06:58.767Z</time>
      </trkpt>
      <trkpt lat="46.65644" lon="5.57317">
        <ele>437</ele>
        <time>2021-05-29T12:06:59.766Z</time>
      </trkpt>
      <trkpt lat="46.65644" lon="5.57316">
        <ele>437</ele>
        <time>2021-05-29T12:07:00.767Z</time>
      </trkpt>
      <trkpt lat="46.65644" lon="5.57316">
        <ele>437</ele>
        <time>2021-05-29T12:07:01.767Z</time>
      </trkpt>
      <trkpt lat="46.65645" lon="5.57316">
        <ele>437</ele>
        <time>2021-05-29T12:07:02.767Z</time>
      </trkpt>
      <trkpt lat="46.65645" lon="5.57316">
        <ele>438</ele>
        <time>2021-05-29T12:07:03.767Z</time>
      </trkpt>
      <trkpt lat="46.65645" lon="5.57316">
        <ele>438</ele>
        <time>2021-05-29T12:07:04.766Z</time>
      </trkpt>
      <trkpt lat="46.65645" lon="5.57316">
        <ele>438</ele>
        <time>2021-05-29T12:07:05.766Z</time>
      </trkpt>
      <trkpt lat="46.65645" lon="5.57316">
        <ele>438</ele>
        <time>2021-05-29T12:07:06.767Z</time>
      </trkpt>
      <trkpt lat="46.65645" lon="5.57315">
        <ele>438</ele>
        <time>2021-05-29T12:07:07.766Z</time>
      </trkpt>
      <trkpt lat="46.65646" lon="5.57315">
        <ele>438</ele>
        <time>2021-05-29T12:07:08.766Z</time>
      </trkpt>
      <trkpt lat="46.65646" lon="5.57315">
        <ele>438</ele>
        <time>2021-05-29T12:07:09.767Z</time>
      </trkpt>
      <trkpt lat="46.65646" lon="5.57315">
        <ele>438</ele>
        <time>2021-05-29T12:07:10.766Z</time>
      </trkpt>
      <trkpt lat="46.65646" lon="5.57315">
        <ele>438</ele>
        <time>2021-05-29T12:07:11.767Z</time>
      </trkpt>
      <trkpt lat="46.65646" lon="5.57315">
        <ele>438</ele>
        <time>2021-05-29T12:07:12.767Z</time>
      </trkpt>
      <trkpt lat="46.65646" lon="5.57314">
        <ele>438</ele>
        <time>2021-05-29T12:07:13.767Z</time>
      </trkpt>
      <trkpt lat="46.65646" lon="5.57314">
        <ele>438</ele>
        <time>2021-05-29T12:07:14.767Z</time>
      </trkpt>
      <trkpt lat="46.65646" lon="5.57314">
        <ele>438</ele>
        <time>2021-05-29T12:07:15.767Z</time>
      </trkpt>
      <trkpt lat="46.65646" lon="5.57314">
        <ele>438</ele>
        <time>2021-05-29T12:07:16.767Z</time>
      </trkpt>
      <trkpt lat="46.65646" lon="5.57313">
        <ele>438</ele>
        <time>2021-05-29T12:07:17.767Z</time>
      </trkpt>
      <trkpt lat="46.65646" lon="5.57313">
        <ele>438</ele>
        <time>2021-05-29T12:07:18.767Z</time>
      </trkpt>
      <trkpt lat="46.65646" lon="5.57313">
        <ele>438</ele>
        <time>2021-05-29T12:07:19.767Z</time>
      </trkpt>
      <trkpt lat="46.65646" lon="5.57313">
        <ele>438</ele>
        <time>2021-05-29T12:07:20.766Z</time>
      </trkpt>
      <trkpt lat="46.65646" lon="5.57313">
        <ele>438</ele>
        <time>2021-05-29T12:07:21.766Z</time>
      </trkpt>
      <trkpt lat="46.65646" lon="5.57313">
        <ele>438</ele>
        <time>2021-05-29T12:07:22.767Z</time>
      </trkpt>
      <trkpt lat="46.65646" lon="5.57313">
        <ele>438</ele>
        <time>2021-05-29T12:07:23.767Z</time>
      </trkpt>
      <trkpt lat="46.65646" lon="5.57313">
        <ele>438</ele>
        <time>2021-05-29T12:07:24.767Z</time>
      </trkpt>
      <trkpt lat="46.65646" lon="5.57312">
        <ele>438</ele>
        <time>2021-05-29T12:07:25.767Z</time>
      </trkpt>
      <trkpt lat="46.65646" lon="5.57312">
        <ele>438</ele>
        <time>2021-05-29T12:07:26.766Z</time>
      </trkpt>
      <trkpt lat="46.65646" lon="5.57312">
        <ele>438</ele>
        <time>2021-05-29T12:07:27.767Z</time>
      </trkpt>
      <trkpt lat="46.65646" lon="5.57311">
        <ele>438</ele>
        <time>2021-05-29T12:07:28.767Z</time>
      </trkpt>
      <trkpt lat="46.65646" lon="5.57311">
        <ele>438</ele>
        <time>2021-05-29T12:07:29.767Z</time>
      </trkpt>
      <trkpt lat="46.65646" lon="5.57311">
        <ele>438</ele>
        <time>2021-05-29T12:07:30.767Z</time>
      </trkpt>
      <trkpt lat="46.65646" lon="5.57311">
        <ele>438</ele>
        <time>2021-05-29T12:07:31.767Z</time>
      </trkpt>
      <trkpt lat="46.65646" lon="5.57311">
        <ele>438</ele>
        <time>2021-05-29T12:07:32.767Z</time>
      </trkpt>
      <trkpt lat="46.65646" lon="5.57311">
        <ele>438</ele>
        <time>2021-05-29T12:07:33.767Z</time>
      </trkpt>
      <trkpt lat="46.65646" lon="5.57311">
        <ele>438</ele>
        <time>2021-05-29T12:07:34.767Z</time>
      </trkpt>
      <trkpt lat="46.65646" lon="5.57311">
        <ele>438</ele>
        <time>2021-05-29T12:07:35.766Z</time>
      </trkpt>
      <trkpt lat="46.65646" lon="5.57311">
        <ele>438</ele>
        <time>2021-05-29T12:07:36.767Z</time>
      </trkpt>
      <trkpt lat="46.65646" lon="5.57311">
        <ele>438</ele>
        <time>2021-05-29T12:07:37.767Z</time>
      </trkpt>
      <trkpt lat="46.65645" lon="5.57311">
        <ele>438</ele>
        <time>2021-05-29T12:07:38.767Z</time>
      </trkpt>
      <trkpt lat="46.65645" lon="5.57311">
        <ele>438</ele>
        <time>2021-05-29T12:07:39.767Z</time>
      </trkpt>
      <trkpt lat="46.65645" lon="5.57311">
        <ele>438</ele>
        <time>2021-05-29T12:07:40.767Z</time>
      </trkpt>
      <trkpt lat="46.65645" lon="5.57311">
        <ele>438</ele>
        <time>2021-05-29T12:07:41.767Z</time>
      </trkpt>
      <trkpt lat="46.65645" lon="5.57311">
        <ele>438</ele>
        <time>2021-05-29T12:07:42.767Z</time>
      </trkpt>
      <trkpt lat="46.65645" lon="5.57311">
        <ele>438</ele>
        <time>2021-05-29T12:07:43.767Z</time>
      </trkpt>
      <trkpt lat="46.65645" lon="5.57311">
        <ele>438</ele>
        <time>2021-05-29T12:07:44.767Z</time>
      </trkpt>
      <trkpt lat="46.65644" lon="5.57311">
        <ele>438</ele>
        <time>2021-05-29T12:07:45.767Z</time>
      </trkpt>
      <trkpt lat="46.65644" lon="5.57311">
        <ele>438</ele>
        <time>2021-05-29T12:07:46.767Z</time>
      </trkpt>
      <trkpt lat="46.65644" lon="5.57311">
        <ele>438</ele>
        <time>2021-05-29T12:07:47.766Z</time>
      </trkpt>
      <trkpt lat="46.65644" lon="5.57311">
        <ele>438</ele>
        <time>2021-05-29T12:07:48.767Z</time>
      </trkpt>
      <trkpt lat="46.65644" lon="5.57311">
        <ele>438</ele>
        <time>2021-05-29T12:07:49.767Z</time>
      </trkpt>
      <trkpt lat="46.65644" lon="5.57311">
        <ele>438</ele>
        <time>2021-05-29T12:07:50.767Z</time>
      </trkpt>
      <trkpt lat="46.65644" lon="5.57311">
        <ele>438</ele>
        <time>2021-05-29T12:07:51.767Z</time>
      </trkpt>
      <trkpt lat="46.65644" lon="5.57311">
        <ele>438</ele>
        <time>2021-05-29T12:07:52.766Z</time>
      </trkpt>
      <trkpt lat="46.65644" lon="5.57311">
        <ele>438</ele>
        <time>2021-05-29T12:07:53.766Z</time>
      </trkpt>
      <trkpt lat="46.65643" lon="5.57311">
        <ele>438</ele>
        <time>2021-05-29T12:07:54.767Z</time>
      </trkpt>
      <trkpt lat="46.65643" lon="5.57311">
        <ele>438</ele>
        <time>2021-05-29T12:07:55.766Z</time>
      </trkpt>
      <trkpt lat="46.65643" lon="5.57311">
        <ele>438</ele>
        <time>2021-05-29T12:07:56.766Z</time>
      </trkpt>
      <trkpt lat="46.65642" lon="5.57311">
        <ele>438</ele>
        <time>2021-05-29T12:07:57.766Z</time>
      </trkpt>
      <trkpt lat="46.65642" lon="5.5731">
        <ele>438</ele>
        <time>2021-05-29T12:07:58.767Z</time>
      </trkpt>
      <trkpt lat="46.65642" lon="5.5731">
        <ele>438</ele>
        <time>2021-05-29T12:07:59.767Z</time>
      </trkpt>
      <trkpt lat="46.65643" lon="5.57311">
        <ele>438</ele>
        <time>2021-05-29T12:08:00.767Z</time>
      </trkpt>
      <trkpt lat="46.65643" lon="5.57311">
        <ele>438</ele>
        <time>2021-05-29T12:08:01.767Z</time>
      </trkpt>
      <trkpt lat="46.65643" lon="5.5731">
        <ele>437</ele>
        <time>2021-05-29T12:08:02.767Z</time>
      </trkpt>
      <trkpt lat="46.65643" lon="5.5731">
        <ele>437</ele>
        <time>2021-05-29T12:08:03.766Z</time>
      </trkpt>
      <trkpt lat="46.65643" lon="5.5731">
        <ele>438</ele>
        <time>2021-05-29T12:08:04.766Z</time>
      </trkpt>
      <trkpt lat="46.65643" lon="5.5731">
        <ele>438</ele>
        <time>2021-05-29T12:08:05.766Z</time>
      </trkpt>
      <trkpt lat="46.65643" lon="5.5731">
        <ele>438</ele>
        <time>2021-05-29T12:08:06.766Z</time>
      </trkpt>
      <trkpt lat="46.65643" lon="5.5731">
        <ele>438</ele>
        <time>2021-05-29T12:08:07.767Z</time>
      </trkpt>
      <trkpt lat="46.65643" lon="5.5731">
        <ele>438</ele>
        <time>2021-05-29T12:08:08.766Z</time>
      </trkpt>
      <trkpt lat="46.65643" lon="5.5731">
        <ele>438</ele>
        <time>2021-05-29T12:08:09.767Z</time>
      </trkpt>
      <trkpt lat="46.65643" lon="5.57309">
        <ele>438</ele>
        <time>2021-05-29T12:08:10.767Z</time>
      </trkpt>
      <trkpt lat="46.65643" lon="5.57309">
        <ele>439</ele>
        <time>2021-05-29T12:08:11.766Z</time>
      </trkpt>
      <trkpt lat="46.65643" lon="5.57309">
        <ele>439</ele>
        <time>2021-05-29T12:08:12.767Z</time>
      </trkpt>
      <trkpt lat="46.65643" lon="5.57309">
        <ele>439</ele>
        <time>2021-05-29T12:08:13.767Z</time>
      </trkpt>
      <trkpt lat="46.65643" lon="5.57309">
        <ele>439</ele>
        <time>2021-05-29T12:08:14.767Z</time>
      </trkpt>
      <trkpt lat="46.65643" lon="5.57309">
        <ele>439</ele>
        <time>2021-05-29T12:08:15.766Z</time>
      </trkpt>
      <trkpt lat="46.65643" lon="5.57309">
        <ele>439</ele>
        <time>2021-05-29T12:08:16.767Z</time>
      </trkpt>
      <trkpt lat="46.65643" lon="5.57309">
        <ele>439</ele>
        <time>2021-05-29T12:08:17.766Z</time>
      </trkpt>
      <trkpt lat="46.65643" lon="5.57309">
        <ele>439</ele>
        <time>2021-05-29T12:08:18.767Z</time>
      </trkpt>
      <trkpt lat="46.65643" lon="5.57309">
        <ele>439</ele>
        <time>2021-05-29T12:08:19.767Z</time>
      </trkpt>
      <trkpt lat="46.65643" lon="5.57309">
        <ele>439</ele>
        <time>2021-05-29T12:08:20.766Z</time>
      </trkpt>
      <trkpt lat="46.65644" lon="5.57311">
        <ele>439</ele>
        <time>2021-05-29T12:08:21.767Z</time>
      </trkpt>
      <trkpt lat="46.65646" lon="5.57312">
        <ele>439</ele>
        <time>2021-05-29T12:08:22.766Z</time>
      </trkpt>
      <trkpt lat="46.65647" lon="5.57312">
        <ele>439</ele>
        <time>2021-05-29T12:08:23.767Z</time>
      </trkpt>
      <trkpt lat="46.65648" lon="5.57313">
        <ele>438</ele>
        <time>2021-05-29T12:08:24.767Z</time>
      </trkpt>
      <trkpt lat="46.65648" lon="5.57314">
        <ele>438</ele>
        <time>2021-05-29T12:08:25.767Z</time>
      </trkpt>
      <trkpt lat="46.65649" lon="5.57315">
        <ele>438</ele>
        <time>2021-05-29T12:08:26.767Z</time>
      </trkpt>
      <trkpt lat="46.6565" lon="5.57315">
        <ele>437</ele>
        <time>2021-05-29T12:08:27.767Z</time>
      </trkpt>
      <trkpt lat="46.6565" lon="5.57315">
        <ele>437</ele>
        <time>2021-05-29T12:08:28.767Z</time>
      </trkpt>
      <trkpt lat="46.65651" lon="5.57316">
        <ele>437</ele>
        <time>2021-05-29T12:08:29.767Z</time>
      </trkpt>
      <trkpt lat="46.65651" lon="5.57316">
        <ele>437</ele>
        <time>2021-05-29T12:08:30.767Z</time>
      </trkpt>
      <trkpt lat="46.6565" lon="5.57316">
        <ele>437</ele>
        <time>2021-05-29T12:08:31.767Z</time>
      </trkpt>
      <trkpt lat="46.6565" lon="5.57316">
        <ele>437</ele>
        <time>2021-05-29T12:08:32.767Z</time>
      </trkpt>
      <trkpt lat="46.65649" lon="5.57316">
        <ele>437</ele>
        <time>2021-05-29T12:08:33.767Z</time>
      </trkpt>
      <trkpt lat="46.6565" lon="5.57316">
        <ele>436</ele>
        <time>2021-05-29T12:08:34.767Z</time>
      </trkpt>
      <trkpt lat="46.65649" lon="5.57315">
        <ele>436</ele>
        <time>2021-05-29T12:08:35.767Z</time>
      </trkpt>
      <trkpt lat="46.65649" lon="5.57315">
        <ele>436</ele>
        <time>2021-05-29T12:08:36.767Z</time>
      </trkpt>
      <trkpt lat="46.65649" lon="5.57315">
        <ele>436</ele>
        <time>2021-05-29T12:08:37.767Z</time>
      </trkpt>
      <trkpt lat="46.65649" lon="5.57315">
        <ele>436</ele>
        <time>2021-05-29T12:08:38.767Z</time>
      </trkpt>
      <trkpt lat="46.65649" lon="5.57317">
        <ele>435</ele>
        <time>2021-05-29T12:08:39.769Z</time>
      </trkpt>
      <trkpt lat="46.65649" lon="5.57317">
        <ele>435</ele>
        <time>2021-05-29T12:08:40.769Z</time>
      </trkpt>
      <trkpt lat="46.65649" lon="5.57317">
        <ele>435</ele>
        <time>2021-05-29T12:08:41.768Z</time>
      </trkpt>
      <trkpt lat="46.65649" lon="5.57317">
        <ele>435</ele>
        <time>2021-05-29T12:08:42.768Z</time>
      </trkpt>
      <trkpt lat="46.65649" lon="5.57317">
        <ele>435</ele>
        <time>2021-05-29T12:08:43.769Z</time>
      </trkpt>
      <trkpt lat="46.65649" lon="5.57317">
        <ele>435</ele>
        <time>2021-05-29T12:08:44.769Z</time>
      </trkpt>
      <trkpt lat="46.65649" lon="5.57317">
        <ele>435</ele>
        <time>2021-05-29T12:08:45.769Z</time>
      </trkpt>
      <trkpt lat="46.65649" lon="5.57317">
        <ele>435</ele>
        <time>2021-05-29T12:08:46.769Z</time>
      </trkpt>
      <trkpt lat="46.65649" lon="5.57317">
        <ele>435</ele>
        <time>2021-05-29T12:08:47.769Z</time>
      </trkpt>
      <trkpt lat="46.65649" lon="5.57318">
        <ele>435</ele>
        <time>2021-05-29T12:08:48.769Z</time>
      </trkpt>
      <trkpt lat="46.65651" lon="5.57318">
        <ele>435</ele>
        <time>2021-05-29T12:08:49.768Z</time>
      </trkpt>
      <trkpt lat="46.65652" lon="5.57319">
        <ele>435</ele>
        <time>2021-05-29T12:08:50.768Z</time>
      </trkpt>
      <trkpt lat="46.65654" lon="5.5732">
        <ele>435</ele>
        <time>2021-05-29T12:08:51.769Z</time>
      </trkpt>
      <trkpt lat="46.65655" lon="5.57321">
        <ele>435</ele>
        <time>2021-05-29T12:08:52.769Z</time>
      </trkpt>
      <trkpt lat="46.65657" lon="5.57321">
        <ele>434</ele>
        <time>2021-05-29T12:08:53.769Z</time>
      </trkpt>
      <trkpt lat="46.65657" lon="5.57321">
        <ele>434</ele>
        <time>2021-05-29T12:08:54.769Z</time>
      </trkpt>
      <trkpt lat="46.65658" lon="5.57321">
        <ele>434</ele>
        <time>2021-05-29T12:08:55.769Z</time>
      </trkpt>
      <trkpt lat="46.65658" lon="5.57321">
        <ele>433</ele>
        <time>2021-05-29T12:08:56.769Z</time>
      </trkpt>
      <trkpt lat="46.65658" lon="5.57321">
        <ele>433</ele>
        <time>2021-05-29T12:08:57.769Z</time>
      </trkpt>
      <trkpt lat="46.65658" lon="5.57321">
        <ele>433</ele>
        <time>2021-05-29T12:08:58.769Z</time>
      </trkpt>
      <trkpt lat="46.65659" lon="5.57321">
        <ele>432</ele>
        <time>2021-05-29T12:08:59.768Z</time>
      </trkpt>
      <trkpt lat="46.65659" lon="5.57321">
        <ele>432</ele>
        <time>2021-05-29T12:09:00.769Z</time>
      </trkpt>
      <trkpt lat="46.6566" lon="5.57322">
        <ele>431</ele>
        <time>2021-05-29T12:09:01.769Z</time>
      </trkpt>
      <trkpt lat="46.65661" lon="5.57322">
        <ele>431</ele>
        <time>2021-05-29T12:09:02.769Z</time>
      </trkpt>
      <trkpt lat="46.65663" lon="5.57322">
        <ele>431</ele>
        <time>2021-05-29T12:09:03.768Z</time>
      </trkpt>
      <trkpt lat="46.65664" lon="5.57323">
        <ele>431</ele>
        <time>2021-05-29T12:09:04.768Z</time>
      </trkpt>
      <trkpt lat="46.65665" lon="5.57323">
        <ele>431</ele>
        <time>2021-05-29T12:09:05.769Z</time>
      </trkpt>
      <trkpt lat="46.65667" lon="5.57324">
        <ele>431</ele>
        <time>2021-05-29T12:09:06.769Z</time>
      </trkpt>
      <trkpt lat="46.65668" lon="5.57324">
        <ele>431</ele>
        <time>2021-05-29T12:09:07.769Z</time>
      </trkpt>
      <trkpt lat="46.65669" lon="5.57325">
        <ele>432</ele>
        <time>2021-05-29T12:09:08.769Z</time>
      </trkpt>
      <trkpt lat="46.6567" lon="5.57326">
        <ele>432</ele>
        <time>2021-05-29T12:09:09.769Z</time>
      </trkpt>
      <trkpt lat="46.65672" lon="5.57327">
        <ele>432</ele>
        <time>2021-05-29T12:09:10.769Z</time>
      </trkpt>
      <trkpt lat="46.65674" lon="5.57329">
        <ele>432</ele>
        <time>2021-05-29T12:09:11.768Z</time>
      </trkpt>
      <trkpt lat="46.65675" lon="5.5733">
        <ele>432</ele>
        <time>2021-05-29T12:09:12.768Z</time>
      </trkpt>
      <trkpt lat="46.65677" lon="5.57331">
        <ele>433</ele>
        <time>2021-05-29T12:09:13.769Z</time>
      </trkpt>
      <trkpt lat="46.65678" lon="5.57332">
        <ele>432</ele>
        <time>2021-05-29T12:09:14.769Z</time>
      </trkpt>
      <trkpt lat="46.6568" lon="5.57334">
        <ele>433</ele>
        <time>2021-05-29T12:09:15.768Z</time>
      </trkpt>
      <trkpt lat="46.65682" lon="5.57335">
        <ele>433</ele>
        <time>2021-05-29T12:09:16.769Z</time>
      </trkpt>
      <trkpt lat="46.65684" lon="5.57336">
        <ele>432</ele>
        <time>2021-05-29T12:09:17.768Z</time>
      </trkpt>
      <trkpt lat="46.65685" lon="5.57337">
        <ele>432</ele>
        <time>2021-05-29T12:09:18.769Z</time>
      </trkpt>
      <trkpt lat="46.65687" lon="5.57339">
        <ele>432</ele>
        <time>2021-05-29T12:09:19.769Z</time>
      </trkpt>
      <trkpt lat="46.65689" lon="5.5734">
        <ele>432</ele>
        <time>2021-05-29T12:09:20.768Z</time>
      </trkpt>
      <trkpt lat="46.65691" lon="5.57342">
        <ele>432</ele>
        <time>2021-05-29T12:09:21.769Z</time>
      </trkpt>
      <trkpt lat="46.65693" lon="5.57343">
        <ele>432</ele>
        <time>2021-05-29T12:09:22.768Z</time>
      </trkpt>
      <trkpt lat="46.65695" lon="5.57345">
        <ele>432</ele>
        <time>2021-05-29T12:09:23.769Z</time>
      </trkpt>
      <trkpt lat="46.65698" lon="5.57347">
        <ele>431</ele>
        <time>2021-05-29T12:09:24.769Z</time>
      </trkpt>
      <trkpt lat="46.65699" lon="5.57348">
        <ele>431</ele>
        <time>2021-05-29T12:09:25.768Z</time>
      </trkpt>
      <trkpt lat="46.657" lon="5.57349">
        <ele>431</ele>
        <time>2021-05-29T12:09:26.769Z</time>
      </trkpt>
      <trkpt lat="46.65702" lon="5.57351">
        <ele>431</ele>
        <time>2021-05-29T12:09:27.768Z</time>
      </trkpt>
      <trkpt lat="46.65704" lon="5.57352">
        <ele>431</ele>
        <time>2021-05-29T12:09:28.769Z</time>
      </trkpt>
      <trkpt lat="46.65706" lon="5.57354">
        <ele>431</ele>
        <time>2021-05-29T12:09:29.768Z</time>
      </trkpt>
      <trkpt lat="46.65708" lon="5.57356">
        <ele>430</ele>
        <time>2021-05-29T12:09:30.769Z</time>
      </trkpt>
      <trkpt lat="46.65709" lon="5.57358">
        <ele>430</ele>
        <time>2021-05-29T12:09:31.769Z</time>
      </trkpt>
      <trkpt lat="46.6571" lon="5.57361">
        <ele>430</ele>
        <time>2021-05-29T12:09:32.769Z</time>
      </trkpt>
      <trkpt lat="46.65711" lon="5.57364">
        <ele>431</ele>
        <time>2021-05-29T12:09:33.768Z</time>
      </trkpt>
      <trkpt lat="46.65712" lon="5.57367">
        <ele>431</ele>
        <time>2021-05-29T12:09:34.769Z</time>
      </trkpt>
      <trkpt lat="46.65714" lon="5.57369">
        <ele>431</ele>
        <time>2021-05-29T12:09:35.769Z</time>
      </trkpt>
      <trkpt lat="46.65715" lon="5.57372">
        <ele>431</ele>
        <time>2021-05-29T12:09:36.769Z</time>
      </trkpt>
      <trkpt lat="46.65716" lon="5.57375">
        <ele>431</ele>
        <time>2021-05-29T12:09:37.769Z</time>
      </trkpt>
      <trkpt lat="46.65716" lon="5.57378">
        <ele>432</ele>
        <time>2021-05-29T12:09:38.769Z</time>
      </trkpt>
      <trkpt lat="46.65717" lon="5.5738">
        <ele>432</ele>
        <time>2021-05-29T12:09:39.769Z</time>
      </trkpt>
      <trkpt lat="46.65718" lon="5.57383">
        <ele>432</ele>
        <time>2021-05-29T12:09:40.768Z</time>
      </trkpt>
      <trkpt lat="46.65719" lon="5.57386">
        <ele>433</ele>
        <time>2021-05-29T12:09:41.769Z</time>
      </trkpt>
      <trkpt lat="46.6572" lon="5.57389">
        <ele>433</ele>
        <time>2021-05-29T12:09:42.769Z</time>
      </trkpt>
      <trkpt lat="46.6572" lon="5.57393">
        <ele>433</ele>
        <time>2021-05-29T12:09:43.769Z</time>
      </trkpt>
      <trkpt lat="46.65719" lon="5.57397">
        <ele>433</ele>
        <time>2021-05-29T12:09:44.769Z</time>
      </trkpt>
      <trkpt lat="46.65719" lon="5.574">
        <ele>434</ele>
        <time>2021-05-29T12:09:45.769Z</time>
      </trkpt>
      <trkpt lat="46.65719" lon="5.57403">
        <ele>434</ele>
        <time>2021-05-29T12:09:46.768Z</time>
      </trkpt>
      <trkpt lat="46.65719" lon="5.57406">
        <ele>434</ele>
        <time>2021-05-29T12:09:47.768Z</time>
      </trkpt>
      <trkpt lat="46.65719" lon="5.57409">
        <ele>435</ele>
        <time>2021-05-29T12:09:48.769Z</time>
      </trkpt>
      <trkpt lat="46.65719" lon="5.57412">
        <ele>435</ele>
        <time>2021-05-29T12:09:49.769Z</time>
      </trkpt>
      <trkpt lat="46.6572" lon="5.57414">
        <ele>436</ele>
        <time>2021-05-29T12:09:50.769Z</time>
      </trkpt>
      <trkpt lat="46.6572" lon="5.57417">
        <ele>436</ele>
        <time>2021-05-29T12:09:51.769Z</time>
      </trkpt>
      <trkpt lat="46.6572" lon="5.5742">
        <ele>436</ele>
        <time>2021-05-29T12:09:52.769Z</time>
      </trkpt>
      <trkpt lat="46.6572" lon="5.57424">
        <ele>436</ele>
        <time>2021-05-29T12:09:53.769Z</time>
      </trkpt>
      <trkpt lat="46.65721" lon="5.57426">
        <ele>436</ele>
        <time>2021-05-29T12:09:54.769Z</time>
      </trkpt>
      <trkpt lat="46.65721" lon="5.5743">
        <ele>436</ele>
        <time>2021-05-29T12:09:55.769Z</time>
      </trkpt>
      <trkpt lat="46.65721" lon="5.57432">
        <ele>436</ele>
        <time>2021-05-29T12:09:56.768Z</time>
      </trkpt>
      <trkpt lat="46.65722" lon="5.57435">
        <ele>437</ele>
        <time>2021-05-29T12:09:57.769Z</time>
      </trkpt>
      <trkpt lat="46.65722" lon="5.57438">
        <ele>437</ele>
        <time>2021-05-29T12:09:58.769Z</time>
      </trkpt>
      <trkpt lat="46.65722" lon="5.5744">
        <ele>436</ele>
        <time>2021-05-29T12:09:59.769Z</time>
      </trkpt>
      <trkpt lat="46.65722" lon="5.57443">
        <ele>436</ele>
        <time>2021-05-29T12:10:00.768Z</time>
      </trkpt>
      <trkpt lat="46.65722" lon="5.57446">
        <ele>436</ele>
        <time>2021-05-29T12:10:01.768Z</time>
      </trkpt>
      <trkpt lat="46.65722" lon="5.57449">
        <ele>436</ele>
        <time>2021-05-29T12:10:02.768Z</time>
      </trkpt>
      <trkpt lat="46.65722" lon="5.57451">
        <ele>436</ele>
        <time>2021-05-29T12:10:03.769Z</time>
      </trkpt>
      <trkpt lat="46.65721" lon="5.57455">
        <ele>436</ele>
        <time>2021-05-29T12:10:04.768Z</time>
      </trkpt>
      <trkpt lat="46.6572" lon="5.57459">
        <ele>436</ele>
        <time>2021-05-29T12:10:05.769Z</time>
      </trkpt>
      <trkpt lat="46.6572" lon="5.57462">
        <ele>436</ele>
        <time>2021-05-29T12:10:06.768Z</time>
      </trkpt>
      <trkpt lat="46.6572" lon="5.57465">
        <ele>435</ele>
        <time>2021-05-29T12:10:07.768Z</time>
      </trkpt>
      <trkpt lat="46.65721" lon="5.57469">
        <ele>435</ele>
        <time>2021-05-29T12:10:08.768Z</time>
      </trkpt>
      <trkpt lat="46.65721" lon="5.57473">
        <ele>435</ele>
        <time>2021-05-29T12:10:09.768Z</time>
      </trkpt>
      <trkpt lat="46.65721" lon="5.57475">
        <ele>435</ele>
        <time>2021-05-29T12:10:10.769Z</time>
      </trkpt>
      <trkpt lat="46.65722" lon="5.57479">
        <ele>435</ele>
        <time>2021-05-29T12:10:11.769Z</time>
      </trkpt>
      <trkpt lat="46.65722" lon="5.57482">
        <ele>435</ele>
        <time>2021-05-29T12:10:12.769Z</time>
      </trkpt>
      <trkpt lat="46.65722" lon="5.57486">
        <ele>435</ele>
        <time>2021-05-29T12:10:13.768Z</time>
      </trkpt>
      <trkpt lat="46.65722" lon="5.57489">
        <ele>435</ele>
        <time>2021-05-29T12:10:14.769Z</time>
      </trkpt>
      <trkpt lat="46.65723" lon="5.57493">
        <ele>435</ele>
        <time>2021-05-29T12:10:15.769Z</time>
      </trkpt>
      <trkpt lat="46.65723" lon="5.57497">
        <ele>435</ele>
        <time>2021-05-29T12:10:16.769Z</time>
      </trkpt>
      <trkpt lat="46.65724" lon="5.57501">
        <ele>434</ele>
        <time>2021-05-29T12:10:17.768Z</time>
      </trkpt>
      <trkpt lat="46.65724" lon="5.57505">
        <ele>434</ele>
        <time>2021-05-29T12:10:18.768Z</time>
      </trkpt>
      <trkpt lat="46.65724" lon="5.57508">
        <ele>434</ele>
        <time>2021-05-29T12:10:19.769Z</time>
      </trkpt>
      <trkpt lat="46.65724" lon="5.57512">
        <ele>434</ele>
        <time>2021-05-29T12:10:20.769Z</time>
      </trkpt>
      <trkpt lat="46.65724" lon="5.57515">
        <ele>434</ele>
        <time>2021-05-29T12:10:21.769Z</time>
      </trkpt>
      <trkpt lat="46.65724" lon="5.57517">
        <ele>435</ele>
        <time>2021-05-29T12:10:22.769Z</time>
      </trkpt>
      <trkpt lat="46.65723" lon="5.5752">
        <ele>435</ele>
        <time>2021-05-29T12:10:23.769Z</time>
      </trkpt>
      <trkpt lat="46.65723" lon="5.57523">
        <ele>435</ele>
        <time>2021-05-29T12:10:24.769Z</time>
      </trkpt>
      <trkpt lat="46.65722" lon="5.57526">
        <ele>435</ele>
        <time>2021-05-29T12:10:25.769Z</time>
      </trkpt>
      <trkpt lat="46.65722" lon="5.57529">
        <ele>435</ele>
        <time>2021-05-29T12:10:26.769Z</time>
      </trkpt>
      <trkpt lat="46.65722" lon="5.57531">
        <ele>435</ele>
        <time>2021-05-29T12:10:27.768Z</time>
      </trkpt>
      <trkpt lat="46.65722" lon="5.57534">
        <ele>434</ele>
        <time>2021-05-29T12:10:28.769Z</time>
      </trkpt>
      <trkpt lat="46.65722" lon="5.57537">
        <ele>434</ele>
        <time>2021-05-29T12:10:29.769Z</time>
      </trkpt>
      <trkpt lat="46.65722" lon="5.5754">
        <ele>434</ele>
        <time>2021-05-29T12:10:30.769Z</time>
      </trkpt>
      <trkpt lat="46.65721" lon="5.57544">
        <ele>434</ele>
        <time>2021-05-29T12:10:31.769Z</time>
      </trkpt>
      <trkpt lat="46.6572" lon="5.57548">
        <ele>433</ele>
        <time>2021-05-29T12:10:32.768Z</time>
      </trkpt>
      <trkpt lat="46.6572" lon="5.57551">
        <ele>433</ele>
        <time>2021-05-29T12:10:33.769Z</time>
      </trkpt>
      <trkpt lat="46.6572" lon="5.57554">
        <ele>432</ele>
        <time>2021-05-29T12:10:34.769Z</time>
      </trkpt>
      <trkpt lat="46.65721" lon="5.57557">
        <ele>432</ele>
        <time>2021-05-29T12:10:35.769Z</time>
      </trkpt>
      <trkpt lat="46.65721" lon="5.5756">
        <ele>431</ele>
        <time>2021-05-29T12:10:36.768Z</time>
      </trkpt>
      <trkpt lat="46.65722" lon="5.57565">
        <ele>431</ele>
        <time>2021-05-29T12:10:37.769Z</time>
      </trkpt>
      <trkpt lat="46.65722" lon="5.57569">
        <ele>431</ele>
        <time>2021-05-29T12:10:38.769Z</time>
      </trkpt>
      <trkpt lat="46.65723" lon="5.57573">
        <ele>431</ele>
        <time>2021-05-29T12:10:39.769Z</time>
      </trkpt>
      <trkpt lat="46.65723" lon="5.57576">
        <ele>430</ele>
        <time>2021-05-29T12:10:40.768Z</time>
      </trkpt>
      <trkpt lat="46.65722" lon="5.5758">
        <ele>430</ele>
        <time>2021-05-29T12:10:41.769Z</time>
      </trkpt>
      <trkpt lat="46.65722" lon="5.57583">
        <ele>429</ele>
        <time>2021-05-29T12:10:42.768Z</time>
      </trkpt>
      <trkpt lat="46.65721" lon="5.57587">
        <ele>428</ele>
        <time>2021-05-29T12:10:43.769Z</time>
      </trkpt>
      <trkpt lat="46.65721" lon="5.57591">
        <ele>427</ele>
        <time>2021-05-29T12:10:44.768Z</time>
      </trkpt>
      <trkpt lat="46.65721" lon="5.57595">
        <ele>426</ele>
        <time>2021-05-29T12:10:45.769Z</time>
      </trkpt>
      <trkpt lat="46.6572" lon="5.57599">
        <ele>426</ele>
        <time>2021-05-29T12:10:46.769Z</time>
      </trkpt>
      <trkpt lat="46.6572" lon="5.57602">
        <ele>425</ele>
        <time>2021-05-29T12:10:47.769Z</time>
      </trkpt>
      <trkpt lat="46.65719" lon="5.57606">
        <ele>425</ele>
        <time>2021-05-29T12:10:48.769Z</time>
      </trkpt>
      <trkpt lat="46.65719" lon="5.57609">
        <ele>425</ele>
        <time>2021-05-29T12:10:49.769Z</time>
      </trkpt>
      <trkpt lat="46.65718" lon="5.57612">
        <ele>425</ele>
        <time>2021-05-29T12:10:50.769Z</time>
      </trkpt>
      <trkpt lat="46.65717" lon="5.57615">
        <ele>424</ele>
        <time>2021-05-29T12:10:51.768Z</time>
      </trkpt>
      <trkpt lat="46.65717" lon="5.57618">
        <ele>424</ele>
        <time>2021-05-29T12:10:52.769Z</time>
      </trkpt>
      <trkpt lat="46.65716" lon="5.5762">
        <ele>425</ele>
        <time>2021-05-29T12:10:53.769Z</time>
      </trkpt>
      <trkpt lat="46.65716" lon="5.57623">
        <ele>425</ele>
        <time>2021-05-29T12:10:54.768Z</time>
      </trkpt>
      <trkpt lat="46.65715" lon="5.57626">
        <ele>425</ele>
        <time>2021-05-29T12:10:55.768Z</time>
      </trkpt>
      <trkpt lat="46.65715" lon="5.5763">
        <ele>425</ele>
        <time>2021-05-29T12:10:56.769Z</time>
      </trkpt>
      <trkpt lat="46.65714" lon="5.57633">
        <ele>425</ele>
        <time>2021-05-29T12:10:57.769Z</time>
      </trkpt>
      <trkpt lat="46.65714" lon="5.57637">
        <ele>425</ele>
        <time>2021-05-29T12:10:58.768Z</time>
      </trkpt>
      <trkpt lat="46.65714" lon="5.5764">
        <ele>425</ele>
        <time>2021-05-29T12:10:59.769Z</time>
      </trkpt>
      <trkpt lat="46.65714" lon="5.57643">
        <ele>425</ele>
        <time>2021-05-29T12:11:00.769Z</time>
      </trkpt>
      <trkpt lat="46.65713" lon="5.57646">
        <ele>426</ele>
        <time>2021-05-29T12:11:01.769Z</time>
      </trkpt>
      <trkpt lat="46.65712" lon="5.57649">
        <ele>426</ele>
        <time>2021-05-29T12:11:02.769Z</time>
      </trkpt>
      <trkpt lat="46.65711" lon="5.57653">
        <ele>426</ele>
        <time>2021-05-29T12:11:03.768Z</time>
      </trkpt>
      <trkpt lat="46.6571" lon="5.57658">
        <ele>426</ele>
        <time>2021-05-29T12:11:04.769Z</time>
      </trkpt>
      <trkpt lat="46.6571" lon="5.57663">
        <ele>426</ele>
        <time>2021-05-29T12:11:05.769Z</time>
      </trkpt>
      <trkpt lat="46.65709" lon="5.57668">
        <ele>426</ele>
        <time>2021-05-29T12:11:06.769Z</time>
      </trkpt>
      <trkpt lat="46.65708" lon="5.57671">
        <ele>426</ele>
        <time>2021-05-29T12:11:07.768Z</time>
      </trkpt>
      <trkpt lat="46.65707" lon="5.57673">
        <ele>426</ele>
        <time>2021-05-29T12:11:08.768Z</time>
      </trkpt>
      <trkpt lat="46.65706" lon="5.57675">
        <ele>426</ele>
        <time>2021-05-29T12:11:09.769Z</time>
      </trkpt>
      <trkpt lat="46.65706" lon="5.57676">
        <ele>426</ele>
        <time>2021-05-29T12:11:10.769Z</time>
      </trkpt>
      <trkpt lat="46.65706" lon="5.57677">
        <ele>426</ele>
        <time>2021-05-29T12:11:11.768Z</time>
      </trkpt>
      <trkpt lat="46.65706" lon="5.57677">
        <ele>426</ele>
        <time>2021-05-29T12:11:12.769Z</time>
      </trkpt>
      <trkpt lat="46.65707" lon="5.57679">
        <ele>426</ele>
        <time>2021-05-29T12:11:13.769Z</time>
      </trkpt>
      <trkpt lat="46.65708" lon="5.57681">
        <ele>426</ele>
        <time>2021-05-29T12:11:14.769Z</time>
      </trkpt>
      <trkpt lat="46.65708" lon="5.57682">
        <ele>426</ele>
        <time>2021-05-29T12:11:15.769Z</time>
      </trkpt>
      <trkpt lat="46.65708" lon="5.57683">
        <ele>426</ele>
        <time>2021-05-29T12:11:39.904Z</time>
      </trkpt>
      <trkpt lat="46.65709" lon="5.57684">
        <ele>425</ele>
        <time>2021-05-29T12:11:40.903Z</time>
      </trkpt>
      <trkpt lat="46.65709" lon="5.57685">
        <ele>426</ele>
        <time>2021-05-29T12:11:41.904Z</time>
      </trkpt>
      <trkpt lat="46.65708" lon="5.57685">
        <ele>426</ele>
        <time>2021-05-29T12:11:42.904Z</time>
      </trkpt>
      <trkpt lat="46.65708" lon="5.57686">
        <ele>426</ele>
        <time>2021-05-29T12:11:43.904Z</time>
      </trkpt>
      <trkpt lat="46.65707" lon="5.57688">
        <ele>426</ele>
        <time>2021-05-29T12:11:44.904Z</time>
      </trkpt>
      <trkpt lat="46.65707" lon="5.5769">
        <ele>426</ele>
        <time>2021-05-29T12:11:45.903Z</time>
      </trkpt>
      <trkpt lat="46.65706" lon="5.57694">
        <ele>426</ele>
        <time>2021-05-29T12:11:46.904Z</time>
      </trkpt>
      <trkpt lat="46.65705" lon="5.57697">
        <ele>427</ele>
        <time>2021-05-29T12:11:47.904Z</time>
      </trkpt>
      <trkpt lat="46.65705" lon="5.57699">
        <ele>427</ele>
        <time>2021-05-29T12:11:48.903Z</time>
      </trkpt>
      <trkpt lat="46.65705" lon="5.57701">
        <ele>427</ele>
        <time>2021-05-29T12:11:49.903Z</time>
      </trkpt>
      <trkpt lat="46.65704" lon="5.57703">
        <ele>427</ele>
        <time>2021-05-29T12:11:50.904Z</time>
      </trkpt>
      <trkpt lat="46.65704" lon="5.57705">
        <ele>428</ele>
        <time>2021-05-29T12:11:51.904Z</time>
      </trkpt>
      <trkpt lat="46.65703" lon="5.57708">
        <ele>428</ele>
        <time>2021-05-29T12:11:52.904Z</time>
      </trkpt>
      <trkpt lat="46.65702" lon="5.57712">
        <ele>428</ele>
        <time>2021-05-29T12:11:53.903Z</time>
      </trkpt>
      <trkpt lat="46.65701" lon="5.57716">
        <ele>428</ele>
        <time>2021-05-29T12:11:54.904Z</time>
      </trkpt>
      <trkpt lat="46.657" lon="5.57718">
        <ele>428</ele>
        <time>2021-05-29T12:11:55.904Z</time>
      </trkpt>
      <trkpt lat="46.65698" lon="5.5772">
        <ele>428</ele>
        <time>2021-05-29T12:11:56.904Z</time>
      </trkpt>
      <trkpt lat="46.65696" lon="5.57722">
        <ele>428</ele>
        <time>2021-05-29T12:11:57.904Z</time>
      </trkpt>
      <trkpt lat="46.65694" lon="5.57724">
        <ele>427</ele>
        <time>2021-05-29T12:11:58.904Z</time>
      </trkpt>
      <trkpt lat="46.65693" lon="5.57727">
        <ele>427</ele>
        <time>2021-05-29T12:11:59.904Z</time>
      </trkpt>
      <trkpt lat="46.65692" lon="5.57729">
        <ele>426</ele>
        <time>2021-05-29T12:12:00.904Z</time>
      </trkpt>
      <trkpt lat="46.6569" lon="5.57732">
        <ele>425</ele>
        <time>2021-05-29T12:12:01.904Z</time>
      </trkpt>
      <trkpt lat="46.65689" lon="5.57735">
        <ele>425</ele>
        <time>2021-05-29T12:12:02.904Z</time>
      </trkpt>
      <trkpt lat="46.65687" lon="5.57737">
        <ele>424</ele>
        <time>2021-05-29T12:12:03.903Z</time>
      </trkpt>
      <trkpt lat="46.65686" lon="5.57739">
        <ele>424</ele>
        <time>2021-05-29T12:12:04.904Z</time>
      </trkpt>
      <trkpt lat="46.65684" lon="5.57742">
        <ele>424</ele>
        <time>2021-05-29T12:12:05.903Z</time>
      </trkpt>
      <trkpt lat="46.65683" lon="5.57744">
        <ele>424</ele>
        <time>2021-05-29T12:12:06.904Z</time>
      </trkpt>
      <trkpt lat="46.65682" lon="5.57747">
        <ele>423</ele>
        <time>2021-05-29T12:12:07.904Z</time>
      </trkpt>
      <trkpt lat="46.65682" lon="5.5775">
        <ele>423</ele>
        <time>2021-05-29T12:12:08.903Z</time>
      </trkpt>
      <trkpt lat="46.65681" lon="5.57752">
        <ele>423</ele>
        <time>2021-05-29T12:12:09.904Z</time>
      </trkpt>
      <trkpt lat="46.6568" lon="5.57754">
        <ele>423</ele>
        <time>2021-05-29T12:12:10.903Z</time>
      </trkpt>
      <trkpt lat="46.65679" lon="5.57758">
        <ele>423</ele>
        <time>2021-05-29T12:12:11.904Z</time>
      </trkpt>
      <trkpt lat="46.65679" lon="5.5776">
        <ele>423</ele>
        <time>2021-05-29T12:12:12.904Z</time>
      </trkpt>
      <trkpt lat="46.65678" lon="5.57762">
        <ele>423</ele>
        <time>2021-05-29T12:12:13.904Z</time>
      </trkpt>
      <trkpt lat="46.65677" lon="5.57765">
        <ele>423</ele>
        <time>2021-05-29T12:12:14.904Z</time>
      </trkpt>
      <trkpt lat="46.65677" lon="5.57769">
        <ele>423</ele>
        <time>2021-05-29T12:12:15.904Z</time>
      </trkpt>
      <trkpt lat="46.65677" lon="5.57773">
        <ele>424</ele>
        <time>2021-05-29T12:12:16.904Z</time>
      </trkpt>
      <trkpt lat="46.65677" lon="5.57775">
        <ele>424</ele>
        <time>2021-05-29T12:12:17.904Z</time>
      </trkpt>
      <trkpt lat="46.65678" lon="5.57778">
        <ele>424</ele>
        <time>2021-05-29T12:12:18.904Z</time>
      </trkpt>
      <trkpt lat="46.65678" lon="5.57782">
        <ele>425</ele>
        <time>2021-05-29T12:12:19.904Z</time>
      </trkpt>
      <trkpt lat="46.65678" lon="5.57785">
        <ele>425</ele>
        <time>2021-05-29T12:12:20.904Z</time>
      </trkpt>
      <trkpt lat="46.65677" lon="5.57788">
        <ele>425</ele>
        <time>2021-05-29T12:12:21.903Z</time>
      </trkpt>
      <trkpt lat="46.65677" lon="5.5779">
        <ele>425</ele>
        <time>2021-05-29T12:12:22.904Z</time>
      </trkpt>
      <trkpt lat="46.65676" lon="5.57794">
        <ele>425</ele>
        <time>2021-05-29T12:12:23.903Z</time>
      </trkpt>
      <trkpt lat="46.65676" lon="5.57796">
        <ele>425</ele>
        <time>2021-05-29T12:12:24.904Z</time>
      </trkpt>
      <trkpt lat="46.65676" lon="5.57799">
        <ele>424</ele>
        <time>2021-05-29T12:12:25.904Z</time>
      </trkpt>
      <trkpt lat="46.65676" lon="5.57802">
        <ele>424</ele>
        <time>2021-05-29T12:12:26.904Z</time>
      </trkpt>
      <trkpt lat="46.65676" lon="5.57805">
        <ele>424</ele>
        <time>2021-05-29T12:12:27.904Z</time>
      </trkpt>
      <trkpt lat="46.65676" lon="5.57808">
        <ele>424</ele>
        <time>2021-05-29T12:12:28.903Z</time>
      </trkpt>
      <trkpt lat="46.65675" lon="5.57812">
        <ele>424</ele>
        <time>2021-05-29T12:12:29.904Z</time>
      </trkpt>
      <trkpt lat="46.65675" lon="5.57814">
        <ele>424</ele>
        <time>2021-05-29T12:12:30.904Z</time>
      </trkpt>
      <trkpt lat="46.65675" lon="5.57817">
        <ele>424</ele>
        <time>2021-05-29T12:12:31.904Z</time>
      </trkpt>
      <trkpt lat="46.65674" lon="5.57819">
        <ele>424</ele>
        <time>2021-05-29T12:12:32.904Z</time>
      </trkpt>
      <trkpt lat="46.65674" lon="5.57821">
        <ele>424</ele>
        <time>2021-05-29T12:12:33.904Z</time>
      </trkpt>
      <trkpt lat="46.65674" lon="5.57822">
        <ele>424</ele>
        <time>2021-05-29T12:12:34.903Z</time>
      </trkpt>
      <trkpt lat="46.65674" lon="5.57822">
        <ele>425</ele>
        <time>2021-05-29T12:12:35.904Z</time>
      </trkpt>
      <trkpt lat="46.65674" lon="5.57823">
        <ele>425</ele>
        <time>2021-05-29T12:12:36.904Z</time>
      </trkpt>
      <trkpt lat="46.65674" lon="5.57824">
        <ele>425</ele>
        <time>2021-05-29T12:12:37.904Z</time>
      </trkpt>
      <trkpt lat="46.65674" lon="5.57825">
        <ele>425</ele>
        <time>2021-05-29T12:12:38.904Z</time>
      </trkpt>
      <trkpt lat="46.65673" lon="5.57827">
        <ele>426</ele>
        <time>2021-05-29T12:12:39.904Z</time>
      </trkpt>
      <trkpt lat="46.65674" lon="5.57829">
        <ele>426</ele>
        <time>2021-05-29T12:12:40.904Z</time>
      </trkpt>
      <trkpt lat="46.65674" lon="5.57831">
        <ele>427</ele>
        <time>2021-05-29T12:12:41.904Z</time>
      </trkpt>
      <trkpt lat="46.65673" lon="5.57834">
        <ele>428</ele>
        <time>2021-05-29T12:12:42.904Z</time>
      </trkpt>
      <trkpt lat="46.65673" lon="5.57837">
        <ele>428</ele>
        <time>2021-05-29T12:12:43.903Z</time>
      </trkpt>
      <trkpt lat="46.65672" lon="5.5784">
        <ele>429</ele>
        <time>2021-05-29T12:13:20.310Z</time>
      </trkpt>
      <trkpt lat="46.65672" lon="5.57842">
        <ele>429</ele>
        <time>2021-05-29T12:13:21.309Z</time>
      </trkpt>
      <trkpt lat="46.65671" lon="5.57845">
        <ele>429</ele>
        <time>2021-05-29T12:13:22.310Z</time>
      </trkpt>
      <trkpt lat="46.65671" lon="5.57847">
        <ele>429</ele>
        <time>2021-05-29T12:13:23.309Z</time>
      </trkpt>
      <trkpt lat="46.6567" lon="5.5785">
        <ele>429</ele>
        <time>2021-05-29T12:13:24.309Z</time>
      </trkpt>
      <trkpt lat="46.65669" lon="5.57853">
        <ele>429</ele>
        <time>2021-05-29T12:13:25.310Z</time>
      </trkpt>
      <trkpt lat="46.65668" lon="5.57856">
        <ele>428</ele>
        <time>2021-05-29T12:13:26.310Z</time>
      </trkpt>
      <trkpt lat="46.65668" lon="5.57858">
        <ele>428</ele>
        <time>2021-05-29T12:13:27.309Z</time>
      </trkpt>
      <trkpt lat="46.65667" lon="5.5786">
        <ele>427</ele>
        <time>2021-05-29T12:13:28.309Z</time>
      </trkpt>
      <trkpt lat="46.65666" lon="5.57862">
        <ele>427</ele>
        <time>2021-05-29T12:13:29.309Z</time>
      </trkpt>
      <trkpt lat="46.65665" lon="5.57865">
        <ele>426</ele>
        <time>2021-05-29T12:13:30.310Z</time>
      </trkpt>
      <trkpt lat="46.65663" lon="5.57867">
        <ele>426</ele>
        <time>2021-05-29T12:13:31.309Z</time>
      </trkpt>
      <trkpt lat="46.65663" lon="5.5787">
        <ele>426</ele>
        <time>2021-05-29T12:13:32.309Z</time>
      </trkpt>
      <trkpt lat="46.65662" lon="5.57872">
        <ele>426</ele>
        <time>2021-05-29T12:13:33.309Z</time>
      </trkpt>
      <trkpt lat="46.65661" lon="5.57875">
        <ele>426</ele>
        <time>2021-05-29T12:13:34.309Z</time>
      </trkpt>
      <trkpt lat="46.6566" lon="5.57877">
        <ele>426</ele>
        <time>2021-05-29T12:13:35.309Z</time>
      </trkpt>
      <trkpt lat="46.65659" lon="5.5788">
        <ele>426</ele>
        <time>2021-05-29T12:13:36.310Z</time>
      </trkpt>
      <trkpt lat="46.65658" lon="5.57882">
        <ele>426</ele>
        <time>2021-05-29T12:13:37.310Z</time>
      </trkpt>
      <trkpt lat="46.65657" lon="5.57885">
        <ele>426</ele>
        <time>2021-05-29T12:13:38.309Z</time>
      </trkpt>
      <trkpt lat="46.65657" lon="5.57888">
        <ele>426</ele>
        <time>2021-05-29T12:13:39.310Z</time>
      </trkpt>
      <trkpt lat="46.65656" lon="5.57891">
        <ele>426</ele>
        <time>2021-05-29T12:13:40.309Z</time>
      </trkpt>
      <trkpt lat="46.65655" lon="5.57897">
        <ele>427</ele>
        <time>2021-05-29T12:13:41.309Z</time>
      </trkpt>
      <trkpt lat="46.65653" lon="5.57901">
        <ele>427</ele>
        <time>2021-05-29T12:13:42.309Z</time>
      </trkpt>
      <trkpt lat="46.65652" lon="5.57906">
        <ele>427</ele>
        <time>2021-05-29T12:13:43.309Z</time>
      </trkpt>
      <trkpt lat="46.6565" lon="5.57911">
        <ele>428</ele>
        <time>2021-05-29T12:13:44.310Z</time>
      </trkpt>
      <trkpt lat="46.65649" lon="5.57913">
        <ele>428</ele>
        <time>2021-05-29T12:13:45.310Z</time>
      </trkpt>
      <trkpt lat="46.65649" lon="5.57916">
        <ele>429</ele>
        <time>2021-05-29T12:13:46.309Z</time>
      </trkpt>
      <trkpt lat="46.65648" lon="5.57918">
        <ele>429</ele>
        <time>2021-05-29T12:13:47.310Z</time>
      </trkpt>
      <trkpt lat="46.65646" lon="5.57921">
        <ele>429</ele>
        <time>2021-05-29T12:13:48.309Z</time>
      </trkpt>
      <trkpt lat="46.65645" lon="5.57923">
        <ele>430</ele>
        <time>2021-05-29T12:13:49.310Z</time>
      </trkpt>
      <trkpt lat="46.65643" lon="5.57926">
        <ele>430</ele>
        <time>2021-05-29T12:13:50.309Z</time>
      </trkpt>
      <trkpt lat="46.65642" lon="5.57928">
        <ele>429</ele>
        <time>2021-05-29T12:13:51.309Z</time>
      </trkpt>
      <trkpt lat="46.6564" lon="5.57931">
        <ele>429</ele>
        <time>2021-05-29T12:13:52.310Z</time>
      </trkpt>
      <trkpt lat="46.65638" lon="5.57933">
        <ele>429</ele>
        <time>2021-05-29T12:13:53.310Z</time>
      </trkpt>
      <trkpt lat="46.65636" lon="5.57936">
        <ele>428</ele>
        <time>2021-05-29T12:13:54.310Z</time>
      </trkpt>
      <trkpt lat="46.65635" lon="5.57937">
        <ele>428</ele>
        <time>2021-05-29T12:13:55.310Z</time>
      </trkpt>
      <trkpt lat="46.65633" lon="5.5794">
        <ele>427</ele>
        <time>2021-05-29T12:13:56.309Z</time>
      </trkpt>
      <trkpt lat="46.65632" lon="5.57942">
        <ele>427</ele>
        <time>2021-05-29T12:13:57.310Z</time>
      </trkpt>
      <trkpt lat="46.6563" lon="5.57946">
        <ele>427</ele>
        <time>2021-05-29T12:13:58.310Z</time>
      </trkpt>
      <trkpt lat="46.65629" lon="5.57949">
        <ele>427</ele>
        <time>2021-05-29T12:13:59.309Z</time>
      </trkpt>
      <trkpt lat="46.65627" lon="5.57952">
        <ele>427</ele>
        <time>2021-05-29T12:14:00.310Z</time>
      </trkpt>
      <trkpt lat="46.65626" lon="5.57955">
        <ele>427</ele>
        <time>2021-05-29T12:14:01.310Z</time>
      </trkpt>
      <trkpt lat="46.65625" lon="5.57959">
        <ele>428</ele>
        <time>2021-05-29T12:14:02.309Z</time>
      </trkpt>
      <trkpt lat="46.65625" lon="5.57962">
        <ele>428</ele>
        <time>2021-05-29T12:14:03.310Z</time>
      </trkpt>
      <trkpt lat="46.65625" lon="5.57964">
        <ele>428</ele>
        <time>2021-05-29T12:14:04.309Z</time>
      </trkpt>
      <trkpt lat="46.65624" lon="5.57969">
        <ele>428</ele>
        <time>2021-05-29T12:14:05.309Z</time>
      </trkpt>
      <trkpt lat="46.65624" lon="5.57974">
        <ele>428</ele>
        <time>2021-05-29T12:14:06.309Z</time>
      </trkpt>
      <trkpt lat="46.65625" lon="5.57977">
        <ele>428</ele>
        <time>2021-05-29T12:14:07.310Z</time>
      </trkpt>
      <trkpt lat="46.65625" lon="5.57981">
        <ele>428</ele>
        <time>2021-05-29T12:14:08.310Z</time>
      </trkpt>
      <trkpt lat="46.65625" lon="5.57984">
        <ele>428</ele>
        <time>2021-05-29T12:14:09.310Z</time>
      </trkpt>
      <trkpt lat="46.65625" lon="5.57988">
        <ele>429</ele>
        <time>2021-05-29T12:14:10.310Z</time>
      </trkpt>
      <trkpt lat="46.65625" lon="5.57992">
        <ele>429</ele>
        <time>2021-05-29T12:14:11.309Z</time>
      </trkpt>
      <trkpt lat="46.65624" lon="5.57995">
        <ele>429</ele>
        <time>2021-05-29T12:14:12.310Z</time>
      </trkpt>
      <trkpt lat="46.65624" lon="5.57998">
        <ele>429</ele>
        <time>2021-05-29T12:14:13.309Z</time>
      </trkpt>
      <trkpt lat="46.65624" lon="5.58002">
        <ele>430</ele>
        <time>2021-05-29T12:14:14.309Z</time>
      </trkpt>
      <trkpt lat="46.65623" lon="5.58006">
        <ele>430</ele>
        <time>2021-05-29T12:14:15.309Z</time>
      </trkpt>
      <trkpt lat="46.65622" lon="5.5801">
        <ele>429</ele>
        <time>2021-05-29T12:14:16.310Z</time>
      </trkpt>
      <trkpt lat="46.65621" lon="5.58013">
        <ele>429</ele>
        <time>2021-05-29T12:14:17.310Z</time>
      </trkpt>
      <trkpt lat="46.6562" lon="5.58016">
        <ele>429</ele>
        <time>2021-05-29T12:14:18.310Z</time>
      </trkpt>
      <trkpt lat="46.65619" lon="5.58019">
        <ele>428</ele>
        <time>2021-05-29T12:14:19.310Z</time>
      </trkpt>
      <trkpt lat="46.65618" lon="5.58022">
        <ele>428</ele>
        <time>2021-05-29T12:14:20.310Z</time>
      </trkpt>
      <trkpt lat="46.65617" lon="5.58025">
        <ele>428</ele>
        <time>2021-05-29T12:14:21.310Z</time>
      </trkpt>
      <trkpt lat="46.65616" lon="5.58028">
        <ele>428</ele>
        <time>2021-05-29T12:14:22.310Z</time>
      </trkpt>
      <trkpt lat="46.65616" lon="5.5803">
        <ele>428</ele>
        <time>2021-05-29T12:14:23.310Z</time>
      </trkpt>
      <trkpt lat="46.65615" lon="5.58033">
        <ele>428</ele>
        <time>2021-05-29T12:14:24.310Z</time>
      </trkpt>
      <trkpt lat="46.65615" lon="5.58035">
        <ele>428</ele>
        <time>2021-05-29T12:14:25.310Z</time>
      </trkpt>
      <trkpt lat="46.65614" lon="5.58038">
        <ele>428</ele>
        <time>2021-05-29T12:14:26.309Z</time>
      </trkpt>
      <trkpt lat="46.65613" lon="5.58041">
        <ele>427</ele>
        <time>2021-05-29T12:14:27.310Z</time>
      </trkpt>
      <trkpt lat="46.65613" lon="5.58043">
        <ele>427</ele>
        <time>2021-05-29T12:14:28.309Z</time>
      </trkpt>
      <trkpt lat="46.65612" lon="5.58045">
        <ele>426</ele>
        <time>2021-05-29T12:14:29.310Z</time>
      </trkpt>
      <trkpt lat="46.65611" lon="5.58046">
        <ele>425</ele>
        <time>2021-05-29T12:14:30.310Z</time>
      </trkpt>
      <trkpt lat="46.65611" lon="5.58047">
        <ele>424</ele>
        <time>2021-05-29T12:14:31.309Z</time>
      </trkpt>
      <trkpt lat="46.65611" lon="5.58047">
        <ele>422</ele>
        <time>2021-05-29T12:14:32.310Z</time>
      </trkpt>
      <trkpt lat="46.6561" lon="5.58047">
        <ele>421</ele>
        <time>2021-05-29T12:14:33.309Z</time>
      </trkpt>
      <trkpt lat="46.6561" lon="5.58047">
        <ele>419</ele>
        <time>2021-05-29T12:14:34.310Z</time>
      </trkpt>
      <trkpt lat="46.6561" lon="5.58047">
        <ele>418</ele>
        <time>2021-05-29T12:14:35.309Z</time>
      </trkpt>
      <trkpt lat="46.6561" lon="5.58049">
        <ele>416</ele>
        <time>2021-05-29T12:14:36.310Z</time>
      </trkpt>
      <trkpt lat="46.6561" lon="5.58049">
        <ele>415</ele>
        <time>2021-05-29T12:14:37.310Z</time>
      </trkpt>
      <trkpt lat="46.65609" lon="5.5805">
        <ele>413</ele>
        <time>2021-05-29T12:14:38.309Z</time>
      </trkpt>
      <trkpt lat="46.65609" lon="5.5805">
        <ele>413</ele>
        <time>2021-05-29T12:14:39.310Z</time>
      </trkpt>
      <trkpt lat="46.65608" lon="5.58051">
        <ele>413</ele>
        <time>2021-05-29T12:14:40.310Z</time>
      </trkpt>
      <trkpt lat="46.65608" lon="5.58052">
        <ele>413</ele>
        <time>2021-05-29T12:14:41.309Z</time>
      </trkpt>
      <trkpt lat="46.65608" lon="5.58052">
        <ele>412</ele>
        <time>2021-05-29T12:14:42.310Z</time>
      </trkpt>
      <trkpt lat="46.65607" lon="5.58053">
        <ele>412</ele>
        <time>2021-05-29T12:14:43.310Z</time>
      </trkpt>
      <trkpt lat="46.65606" lon="5.58054">
        <ele>411</ele>
        <time>2021-05-29T12:14:44.309Z</time>
      </trkpt>
      <trkpt lat="46.65606" lon="5.58055">
        <ele>410</ele>
        <time>2021-05-29T12:14:45.310Z</time>
      </trkpt>
      <trkpt lat="46.65605" lon="5.58056">
        <ele>410</ele>
        <time>2021-05-29T12:14:46.310Z</time>
      </trkpt>
      <trkpt lat="46.65604" lon="5.58057">
        <ele>409</ele>
        <time>2021-05-29T12:14:47.310Z</time>
      </trkpt>
      <trkpt lat="46.65603" lon="5.58059">
        <ele>409</ele>
        <time>2021-05-29T12:14:48.310Z</time>
      </trkpt>
      <trkpt lat="46.65602" lon="5.58061">
        <ele>409</ele>
        <time>2021-05-29T12:14:49.310Z</time>
      </trkpt>
      <trkpt lat="46.65601" lon="5.58064">
        <ele>408</ele>
        <time>2021-05-29T12:14:50.310Z</time>
      </trkpt>
      <trkpt lat="46.65599" lon="5.58066">
        <ele>408</ele>
        <time>2021-05-29T12:14:51.309Z</time>
      </trkpt>
      <trkpt lat="46.65598" lon="5.58069">
        <ele>407</ele>
        <time>2021-05-29T12:14:52.310Z</time>
      </trkpt>
      <trkpt lat="46.65596" lon="5.58071">
        <ele>407</ele>
        <time>2021-05-29T12:14:53.310Z</time>
      </trkpt>
      <trkpt lat="46.65595" lon="5.58073">
        <ele>406</ele>
        <time>2021-05-29T12:14:54.310Z</time>
      </trkpt>
      <trkpt lat="46.65594" lon="5.58076">
        <ele>406</ele>
        <time>2021-05-29T12:14:55.310Z</time>
      </trkpt>
      <trkpt lat="46.65593" lon="5.58077">
        <ele>406</ele>
        <time>2021-05-29T12:14:56.310Z</time>
      </trkpt>
      <trkpt lat="46.65592" lon="5.58079">
        <ele>405</ele>
        <time>2021-05-29T12:14:57.310Z</time>
      </trkpt>
      <trkpt lat="46.65592" lon="5.5808">
        <ele>405</ele>
        <time>2021-05-29T12:14:58.310Z</time>
      </trkpt>
      <trkpt lat="46.65591" lon="5.58081">
        <ele>405</ele>
        <time>2021-05-29T12:14:59.310Z</time>
      </trkpt>
      <trkpt lat="46.65591" lon="5.58081">
        <ele>404</ele>
        <time>2021-05-29T12:15:00.309Z</time>
      </trkpt>
      <trkpt lat="46.6559" lon="5.58082">
        <ele>404</ele>
        <time>2021-05-29T12:15:01.310Z</time>
      </trkpt>
      <trkpt lat="46.6559" lon="5.58083">
        <ele>404</ele>
        <time>2021-05-29T12:15:02.310Z</time>
      </trkpt>
      <trkpt lat="46.6559" lon="5.58084">
        <ele>404</ele>
        <time>2021-05-29T12:15:03.309Z</time>
      </trkpt>
      <trkpt lat="46.65589" lon="5.58086">
        <ele>404</ele>
        <time>2021-05-29T12:15:04.310Z</time>
      </trkpt>
      <trkpt lat="46.65588" lon="5.58087">
        <ele>404</ele>
        <time>2021-05-29T12:15:05.310Z</time>
      </trkpt>
      <trkpt lat="46.65588" lon="5.58089">
        <ele>404</ele>
        <time>2021-05-29T12:15:06.310Z</time>
      </trkpt>
      <trkpt lat="46.65587" lon="5.5809">
        <ele>404</ele>
        <time>2021-05-29T12:15:07.310Z</time>
      </trkpt>
      <trkpt lat="46.65588" lon="5.58092">
        <ele>404</ele>
        <time>2021-05-29T12:15:08.310Z</time>
      </trkpt>
      <trkpt lat="46.65587" lon="5.58095">
        <ele>404</ele>
        <time>2021-05-29T12:15:09.310Z</time>
      </trkpt>
      <trkpt lat="46.65588" lon="5.58096">
        <ele>404</ele>
        <time>2021-05-29T12:15:10.310Z</time>
      </trkpt>
      <trkpt lat="46.65588" lon="5.58098">
        <ele>404</ele>
        <time>2021-05-29T12:15:11.310Z</time>
      </trkpt>
      <trkpt lat="46.65588" lon="5.581">
        <ele>405</ele>
        <time>2021-05-29T12:15:12.310Z</time>
      </trkpt>
      <trkpt lat="46.65588" lon="5.58103">
        <ele>405</ele>
        <time>2021-05-29T12:15:13.310Z</time>
      </trkpt>
      <trkpt lat="46.65589" lon="5.58105">
        <ele>405</ele>
        <time>2021-05-29T12:15:14.310Z</time>
      </trkpt>
      <trkpt lat="46.65589" lon="5.58106">
        <ele>405</ele>
        <time>2021-05-29T12:15:15.310Z</time>
      </trkpt>
      <trkpt lat="46.6559" lon="5.58107">
        <ele>406</ele>
        <time>2021-05-29T12:15:16.310Z</time>
      </trkpt>
      <trkpt lat="46.6559" lon="5.58108">
        <ele>406</ele>
        <time>2021-05-29T12:15:17.309Z</time>
      </trkpt>
      <trkpt lat="46.65591" lon="5.58109">
        <ele>406</ele>
        <time>2021-05-29T12:15:18.310Z</time>
      </trkpt>
      <trkpt lat="46.65592" lon="5.5811">
        <ele>407</ele>
        <time>2021-05-29T12:15:19.309Z</time>
      </trkpt>
      <trkpt lat="46.65593" lon="5.58112">
        <ele>407</ele>
        <time>2021-05-29T12:15:20.310Z</time>
      </trkpt>
      <trkpt lat="46.65593" lon="5.58114">
        <ele>407</ele>
        <time>2021-05-29T12:15:21.310Z</time>
      </trkpt>
      <trkpt lat="46.65594" lon="5.58116">
        <ele>407</ele>
        <time>2021-05-29T12:15:22.310Z</time>
      </trkpt>
      <trkpt lat="46.65597" lon="5.58119">
        <ele>407</ele>
        <time>2021-05-29T12:15:23.310Z</time>
      </trkpt>
      <trkpt lat="46.65598" lon="5.58121">
        <ele>407</ele>
        <time>2021-05-29T12:15:24.310Z</time>
      </trkpt>
      <trkpt lat="46.656" lon="5.58123">
        <ele>407</ele>
        <time>2021-05-29T12:15:25.310Z</time>
      </trkpt>
      <trkpt lat="46.65601" lon="5.58125">
        <ele>407</ele>
        <time>2021-05-29T12:15:26.310Z</time>
      </trkpt>
      <trkpt lat="46.65602" lon="5.58127">
        <ele>407</ele>
        <time>2021-05-29T12:15:27.310Z</time>
      </trkpt>
      <trkpt lat="46.65603" lon="5.58129">
        <ele>406</ele>
        <time>2021-05-29T12:15:28.309Z</time>
      </trkpt>
      <trkpt lat="46.65604" lon="5.58131">
        <ele>406</ele>
        <time>2021-05-29T12:15:29.310Z</time>
      </trkpt>
      <trkpt lat="46.65604" lon="5.58132">
        <ele>406</ele>
        <time>2021-05-29T12:15:30.309Z</time>
      </trkpt>
      <trkpt lat="46.65605" lon="5.58134">
        <ele>406</ele>
        <time>2021-05-29T12:15:31.309Z</time>
      </trkpt>
      <trkpt lat="46.65606" lon="5.58136">
        <ele>406</ele>
        <time>2021-05-29T12:15:32.310Z</time>
      </trkpt>
      <trkpt lat="46.65607" lon="5.58138">
        <ele>406</ele>
        <time>2021-05-29T12:15:33.310Z</time>
      </trkpt>
      <trkpt lat="46.65608" lon="5.58141">
        <ele>406</ele>
        <time>2021-05-29T12:15:34.310Z</time>
      </trkpt>
      <trkpt lat="46.65608" lon="5.58143">
        <ele>406</ele>
        <time>2021-05-29T12:15:35.309Z</time>
      </trkpt>
      <trkpt lat="46.65608" lon="5.58146">
        <ele>407</ele>
        <time>2021-05-29T12:15:36.309Z</time>
      </trkpt>
      <trkpt lat="46.65607" lon="5.58148">
        <ele>406</ele>
        <time>2021-05-29T12:15:37.309Z</time>
      </trkpt>
      <trkpt lat="46.65608" lon="5.58152">
        <ele>406</ele>
        <time>2021-05-29T12:15:38.310Z</time>
      </trkpt>
      <trkpt lat="46.65608" lon="5.58154">
        <ele>406</ele>
        <time>2021-05-29T12:15:39.310Z</time>
      </trkpt>
      <trkpt lat="46.65609" lon="5.58158">
        <ele>406</ele>
        <time>2021-05-29T12:15:40.310Z</time>
      </trkpt>
      <trkpt lat="46.6561" lon="5.58162">
        <ele>406</ele>
        <time>2021-05-29T12:15:41.310Z</time>
      </trkpt>
      <trkpt lat="46.65611" lon="5.58165">
        <ele>406</ele>
        <time>2021-05-29T12:15:42.309Z</time>
      </trkpt>
      <trkpt lat="46.65611" lon="5.58168">
        <ele>406</ele>
        <time>2021-05-29T12:15:43.310Z</time>
      </trkpt>
      <trkpt lat="46.6561" lon="5.5817">
        <ele>406</ele>
        <time>2021-05-29T12:15:44.310Z</time>
      </trkpt>
      <trkpt lat="46.6561" lon="5.58172">
        <ele>405</ele>
        <time>2021-05-29T12:15:45.310Z</time>
      </trkpt>
      <trkpt lat="46.65609" lon="5.58173">
        <ele>404</ele>
        <time>2021-05-29T12:15:46.310Z</time>
      </trkpt>
      <trkpt lat="46.65609" lon="5.58175">
        <ele>404</ele>
        <time>2021-05-29T12:15:47.310Z</time>
      </trkpt>
      <trkpt lat="46.65609" lon="5.58177">
        <ele>404</ele>
        <time>2021-05-29T12:15:48.310Z</time>
      </trkpt>
      <trkpt lat="46.65609" lon="5.58178">
        <ele>403</ele>
        <time>2021-05-29T12:15:49.310Z</time>
      </trkpt>
      <trkpt lat="46.65609" lon="5.5818">
        <ele>403</ele>
        <time>2021-05-29T12:15:50.310Z</time>
      </trkpt>
      <trkpt lat="46.65609" lon="5.58182">
        <ele>403</ele>
        <time>2021-05-29T12:15:51.309Z</time>
      </trkpt>
      <trkpt lat="46.6561" lon="5.58184">
        <ele>403</ele>
        <time>2021-05-29T12:15:52.309Z</time>
      </trkpt>
      <trkpt lat="46.6561" lon="5.58187">
        <ele>403</ele>
        <time>2021-05-29T12:15:53.309Z</time>
      </trkpt>
      <trkpt lat="46.6561" lon="5.58189">
        <ele>404</ele>
        <time>2021-05-29T12:15:54.310Z</time>
      </trkpt>
      <trkpt lat="46.6561" lon="5.58191">
        <ele>404</ele>
        <time>2021-05-29T12:15:55.309Z</time>
      </trkpt>
      <trkpt lat="46.65611" lon="5.58194">
        <ele>404</ele>
        <time>2021-05-29T12:15:56.309Z</time>
      </trkpt>
      <trkpt lat="46.65611" lon="5.58196">
        <ele>404</ele>
        <time>2021-05-29T12:15:57.310Z</time>
      </trkpt>
      <trkpt lat="46.65612" lon="5.58198">
        <ele>404</ele>
        <time>2021-05-29T12:15:58.310Z</time>
      </trkpt>
      <trkpt lat="46.65612" lon="5.58201">
        <ele>404</ele>
        <time>2021-05-29T12:15:59.310Z</time>
      </trkpt>
      <trkpt lat="46.65613" lon="5.58203">
        <ele>404</ele>
        <time>2021-05-29T12:16:00.310Z</time>
      </trkpt>
      <trkpt lat="46.65614" lon="5.58206">
        <ele>404</ele>
        <time>2021-05-29T12:16:01.310Z</time>
      </trkpt>
      <trkpt lat="46.65615" lon="5.58209">
        <ele>404</ele>
        <time>2021-05-29T12:16:02.310Z</time>
      </trkpt>
      <trkpt lat="46.65615" lon="5.58212">
        <ele>404</ele>
        <time>2021-05-29T12:16:03.310Z</time>
      </trkpt>
      <trkpt lat="46.65617" lon="5.58216">
        <ele>404</ele>
        <time>2021-05-29T12:16:04.310Z</time>
      </trkpt>
      <trkpt lat="46.65618" lon="5.58219">
        <ele>404</ele>
        <time>2021-05-29T12:16:05.309Z</time>
      </trkpt>
      <trkpt lat="46.65619" lon="5.58221">
        <ele>404</ele>
        <time>2021-05-29T12:16:06.309Z</time>
      </trkpt>
      <trkpt lat="46.6562" lon="5.58224">
        <ele>404</ele>
        <time>2021-05-29T12:16:07.310Z</time>
      </trkpt>
      <trkpt lat="46.65621" lon="5.58226">
        <ele>404</ele>
        <time>2021-05-29T12:16:08.310Z</time>
      </trkpt>
      <trkpt lat="46.65622" lon="5.58228">
        <ele>405</ele>
        <time>2021-05-29T12:16:09.309Z</time>
      </trkpt>
      <trkpt lat="46.65622" lon="5.5823">
        <ele>405</ele>
        <time>2021-05-29T12:16:10.309Z</time>
      </trkpt>
      <trkpt lat="46.65623" lon="5.58232">
        <ele>405</ele>
        <time>2021-05-29T12:16:11.310Z</time>
      </trkpt>
      <trkpt lat="46.65622" lon="5.58235">
        <ele>405</ele>
        <time>2021-05-29T12:16:12.310Z</time>
      </trkpt>
      <trkpt lat="46.65622" lon="5.58238">
        <ele>405</ele>
        <time>2021-05-29T12:16:13.310Z</time>
      </trkpt>
      <trkpt lat="46.65622" lon="5.5824">
        <ele>405</ele>
        <time>2021-05-29T12:16:14.310Z</time>
      </trkpt>
      <trkpt lat="46.65622" lon="5.58243">
        <ele>405</ele>
        <time>2021-05-29T12:16:15.310Z</time>
      </trkpt>
      <trkpt lat="46.65623" lon="5.58246">
        <ele>404</ele>
        <time>2021-05-29T12:16:16.310Z</time>
      </trkpt>
      <trkpt lat="46.65623" lon="5.58249">
        <ele>404</ele>
        <time>2021-05-29T12:16:17.310Z</time>
      </trkpt>
      <trkpt lat="46.65623" lon="5.58251">
        <ele>403</ele>
        <time>2021-05-29T12:16:18.310Z</time>
      </trkpt>
      <trkpt lat="46.65623" lon="5.58253">
        <ele>403</ele>
        <time>2021-05-29T12:16:19.310Z</time>
      </trkpt>
      <trkpt lat="46.65622" lon="5.58255">
        <ele>402</ele>
        <time>2021-05-29T12:16:20.309Z</time>
      </trkpt>
      <trkpt lat="46.65622" lon="5.58257">
        <ele>401</ele>
        <time>2021-05-29T12:16:21.310Z</time>
      </trkpt>
      <trkpt lat="46.65621" lon="5.5826">
        <ele>400</ele>
        <time>2021-05-29T12:16:22.310Z</time>
      </trkpt>
      <trkpt lat="46.6562" lon="5.58262">
        <ele>399</ele>
        <time>2021-05-29T12:16:23.310Z</time>
      </trkpt>
      <trkpt lat="46.65619" lon="5.58265">
        <ele>399</ele>
        <time>2021-05-29T12:16:24.310Z</time>
      </trkpt>
      <trkpt lat="46.65618" lon="5.58267">
        <ele>398</ele>
        <time>2021-05-29T12:16:25.309Z</time>
      </trkpt>
      <trkpt lat="46.65618" lon="5.5827">
        <ele>398</ele>
        <time>2021-05-29T12:16:26.310Z</time>
      </trkpt>
      <trkpt lat="46.65617" lon="5.58272">
        <ele>397</ele>
        <time>2021-05-29T12:16:27.309Z</time>
      </trkpt>
      <trkpt lat="46.65616" lon="5.58274">
        <ele>397</ele>
        <time>2021-05-29T12:16:28.310Z</time>
      </trkpt>
      <trkpt lat="46.65615" lon="5.58277">
        <ele>396</ele>
        <time>2021-05-29T12:16:29.310Z</time>
      </trkpt>
      <trkpt lat="46.65614" lon="5.58279">
        <ele>395</ele>
        <time>2021-05-29T12:16:30.310Z</time>
      </trkpt>
      <trkpt lat="46.65614" lon="5.5828">
        <ele>394</ele>
        <time>2021-05-29T12:16:31.310Z</time>
      </trkpt>
      <trkpt lat="46.65614" lon="5.58281">
        <ele>392</ele>
        <time>2021-05-29T12:16:32.310Z</time>
      </trkpt>
      <trkpt lat="46.65614" lon="5.58281">
        <ele>391</ele>
        <time>2021-05-29T12:16:33.310Z</time>
      </trkpt>
      <trkpt lat="46.65613" lon="5.58282">
        <ele>390</ele>
        <time>2021-05-29T12:16:34.310Z</time>
      </trkpt>
      <trkpt lat="46.65613" lon="5.58283">
        <ele>389</ele>
        <time>2021-05-29T12:16:35.310Z</time>
      </trkpt>
      <trkpt lat="46.65612" lon="5.58284">
        <ele>388</ele>
        <time>2021-05-29T12:16:36.309Z</time>
      </trkpt>
      <trkpt lat="46.65611" lon="5.58287">
        <ele>387</ele>
        <time>2021-05-29T12:16:37.309Z</time>
      </trkpt>
      <trkpt lat="46.65609" lon="5.5829">
        <ele>386</ele>
        <time>2021-05-29T12:16:38.309Z</time>
      </trkpt>
      <trkpt lat="46.65607" lon="5.58292">
        <ele>385</ele>
        <time>2021-05-29T12:16:39.310Z</time>
      </trkpt>
      <trkpt lat="46.65605" lon="5.58297">
        <ele>384</ele>
        <time>2021-05-29T12:16:40.309Z</time>
      </trkpt>
      <trkpt lat="46.65603" lon="5.583">
        <ele>383</ele>
        <time>2021-05-29T12:16:41.310Z</time>
      </trkpt>
      <trkpt lat="46.656" lon="5.58303">
        <ele>382</ele>
        <time>2021-05-29T12:16:42.310Z</time>
      </trkpt>
      <trkpt lat="46.65598" lon="5.58306">
        <ele>381</ele>
        <time>2021-05-29T12:16:43.309Z</time>
      </trkpt>
      <trkpt lat="46.65596" lon="5.58308">
        <ele>380</ele>
        <time>2021-05-29T12:16:44.310Z</time>
      </trkpt>
      <trkpt lat="46.65594" lon="5.5831">
        <ele>380</ele>
        <time>2021-05-29T12:16:45.309Z</time>
      </trkpt>
      <trkpt lat="46.65593" lon="5.58313">
        <ele>379</ele>
        <time>2021-05-29T12:16:46.310Z</time>
      </trkpt>
      <trkpt lat="46.65591" lon="5.58316">
        <ele>378</ele>
        <time>2021-05-29T12:16:47.310Z</time>
      </trkpt>
      <trkpt lat="46.6559" lon="5.58319">
        <ele>378</ele>
        <time>2021-05-29T12:16:48.310Z</time>
      </trkpt>
      <trkpt lat="46.65588" lon="5.58322">
        <ele>377</ele>
        <time>2021-05-29T12:16:49.309Z</time>
      </trkpt>
      <trkpt lat="46.65587" lon="5.58324">
        <ele>376</ele>
        <time>2021-05-29T12:16:50.309Z</time>
      </trkpt>
      <trkpt lat="46.65586" lon="5.58326">
        <ele>375</ele>
        <time>2021-05-29T12:16:51.309Z</time>
      </trkpt>
      <trkpt lat="46.65585" lon="5.58328">
        <ele>375</ele>
        <time>2021-05-29T12:16:52.310Z</time>
      </trkpt>
      <trkpt lat="46.65584" lon="5.5833">
        <ele>374</ele>
        <time>2021-05-29T12:16:53.310Z</time>
      </trkpt>
      <trkpt lat="46.65583" lon="5.58333">
        <ele>374</ele>
        <time>2021-05-29T12:16:54.310Z</time>
      </trkpt>
      <trkpt lat="46.65582" lon="5.58335">
        <ele>373</ele>
        <time>2021-05-29T12:16:55.309Z</time>
      </trkpt>
      <trkpt lat="46.65581" lon="5.58337">
        <ele>373</ele>
        <time>2021-05-29T12:16:56.309Z</time>
      </trkpt>
      <trkpt lat="46.6558" lon="5.5834">
        <ele>372</ele>
        <time>2021-05-29T12:16:57.310Z</time>
      </trkpt>
      <trkpt lat="46.65578" lon="5.58342">
        <ele>371</ele>
        <time>2021-05-29T12:16:58.310Z</time>
      </trkpt>
      <trkpt lat="46.65577" lon="5.58344">
        <ele>371</ele>
        <time>2021-05-29T12:16:59.309Z</time>
      </trkpt>
      <trkpt lat="46.65576" lon="5.58346">
        <ele>370</ele>
        <time>2021-05-29T12:17:00.309Z</time>
      </trkpt>
      <trkpt lat="46.65575" lon="5.58349">
        <ele>369</ele>
        <time>2021-05-29T12:17:01.309Z</time>
      </trkpt>
      <trkpt lat="46.65574" lon="5.58351">
        <ele>369</ele>
        <time>2021-05-29T12:17:02.310Z</time>
      </trkpt>
      <trkpt lat="46.65572" lon="5.58353">
        <ele>369</ele>
        <time>2021-05-29T12:17:03.309Z</time>
      </trkpt>
      <trkpt lat="46.65571" lon="5.58355">
        <ele>369</ele>
        <time>2021-05-29T12:17:04.310Z</time>
      </trkpt>
      <trkpt lat="46.6557" lon="5.58357">
        <ele>369</ele>
        <time>2021-05-29T12:17:05.310Z</time>
      </trkpt>
      <trkpt lat="46.65569" lon="5.58359">
        <ele>369</ele>
        <time>2021-05-29T12:17:06.309Z</time>
      </trkpt>
      <trkpt lat="46.65567" lon="5.58361">
        <ele>368</ele>
        <time>2021-05-29T12:17:07.310Z</time>
      </trkpt>
      <trkpt lat="46.65566" lon="5.58363">
        <ele>368</ele>
        <time>2021-05-29T12:17:08.309Z</time>
      </trkpt>
      <trkpt lat="46.65565" lon="5.58365">
        <ele>368</ele>
        <time>2021-05-29T12:17:09.310Z</time>
      </trkpt>
      <trkpt lat="46.65564" lon="5.58366">
        <ele>368</ele>
        <time>2021-05-29T12:17:10.309Z</time>
      </trkpt>
      <trkpt lat="46.65562" lon="5.58368">
        <ele>369</ele>
        <time>2021-05-29T12:17:11.310Z</time>
      </trkpt>
      <trkpt lat="46.65561" lon="5.58369">
        <ele>369</ele>
        <time>2021-05-29T12:17:12.310Z</time>
      </trkpt>
      <trkpt lat="46.6556" lon="5.58372">
        <ele>369</ele>
        <time>2021-05-29T12:17:13.309Z</time>
      </trkpt>
      <trkpt lat="46.65559" lon="5.58373">
        <ele>368</ele>
        <time>2021-05-29T12:17:14.309Z</time>
      </trkpt>
      <trkpt lat="46.65558" lon="5.58375">
        <ele>369</ele>
        <time>2021-05-29T12:17:15.309Z</time>
      </trkpt>
      <trkpt lat="46.65557" lon="5.58377">
        <ele>369</ele>
        <time>2021-05-29T12:17:16.310Z</time>
      </trkpt>
      <trkpt lat="46.65556" lon="5.58379">
        <ele>369</ele>
        <time>2021-05-29T12:17:17.310Z</time>
      </trkpt>
      <trkpt lat="46.65555" lon="5.58382">
        <ele>369</ele>
        <time>2021-05-29T12:17:18.310Z</time>
      </trkpt>
      <trkpt lat="46.65554" lon="5.58385">
        <ele>369</ele>
        <time>2021-05-29T12:17:19.310Z</time>
      </trkpt>
      <trkpt lat="46.65553" lon="5.58387">
        <ele>369</ele>
        <time>2021-05-29T12:17:20.309Z</time>
      </trkpt>
      <trkpt lat="46.65552" lon="5.5839">
        <ele>370</ele>
        <time>2021-05-29T12:17:21.310Z</time>
      </trkpt>
      <trkpt lat="46.6555" lon="5.58393">
        <ele>370</ele>
        <time>2021-05-29T12:17:22.310Z</time>
      </trkpt>
      <trkpt lat="46.65549" lon="5.58395">
        <ele>370</ele>
        <time>2021-05-29T12:17:23.309Z</time>
      </trkpt>
      <trkpt lat="46.65548" lon="5.58397">
        <ele>370</ele>
        <time>2021-05-29T12:17:24.310Z</time>
      </trkpt>
      <trkpt lat="46.65547" lon="5.58399">
        <ele>370</ele>
        <time>2021-05-29T12:17:25.309Z</time>
      </trkpt>
      <trkpt lat="46.65546" lon="5.58401">
        <ele>370</ele>
        <time>2021-05-29T12:17:26.309Z</time>
      </trkpt>
      <trkpt lat="46.65545" lon="5.58403">
        <ele>370</ele>
        <time>2021-05-29T12:17:27.310Z</time>
      </trkpt>
      <trkpt lat="46.65544" lon="5.58405">
        <ele>370</ele>
        <time>2021-05-29T12:17:28.310Z</time>
      </trkpt>
      <trkpt lat="46.65543" lon="5.58408">
        <ele>370</ele>
        <time>2021-05-29T12:17:29.310Z</time>
      </trkpt>
      <trkpt lat="46.65542" lon="5.58409">
        <ele>370</ele>
        <time>2021-05-29T12:17:30.310Z</time>
      </trkpt>
      <trkpt lat="46.6554" lon="5.58412">
        <ele>369</ele>
        <time>2021-05-29T12:17:31.309Z</time>
      </trkpt>
      <trkpt lat="46.65538" lon="5.58414">
        <ele>369</ele>
        <time>2021-05-29T12:17:32.310Z</time>
      </trkpt>
      <trkpt lat="46.65537" lon="5.58416">
        <ele>369</ele>
        <time>2021-05-29T12:17:33.310Z</time>
      </trkpt>
      <trkpt lat="46.65536" lon="5.58419">
        <ele>369</ele>
        <time>2021-05-29T12:17:34.309Z</time>
      </trkpt>
      <trkpt lat="46.65535" lon="5.58421">
        <ele>369</ele>
        <time>2021-05-29T12:17:35.310Z</time>
      </trkpt>
      <trkpt lat="46.65533" lon="5.58423">
        <ele>368</ele>
        <time>2021-05-29T12:17:36.309Z</time>
      </trkpt>
      <trkpt lat="46.65532" lon="5.58425">
        <ele>368</ele>
        <time>2021-05-29T12:17:37.310Z</time>
      </trkpt>
      <trkpt lat="46.65531" lon="5.58426">
        <ele>368</ele>
        <time>2021-05-29T12:17:38.310Z</time>
      </trkpt>
      <trkpt lat="46.65529" lon="5.58429">
        <ele>368</ele>
        <time>2021-05-29T12:17:39.309Z</time>
      </trkpt>
      <trkpt lat="46.65528" lon="5.58431">
        <ele>368</ele>
        <time>2021-05-29T12:17:40.310Z</time>
      </trkpt>
      <trkpt lat="46.65526" lon="5.58434">
        <ele>368</ele>
        <time>2021-05-29T12:17:41.309Z</time>
      </trkpt>
      <trkpt lat="46.65524" lon="5.58437">
        <ele>368</ele>
        <time>2021-05-29T12:17:42.309Z</time>
      </trkpt>
      <trkpt lat="46.65523" lon="5.58439">
        <ele>367</ele>
        <time>2021-05-29T12:17:43.309Z</time>
      </trkpt>
      <trkpt lat="46.65522" lon="5.58442">
        <ele>367</ele>
        <time>2021-05-29T12:17:44.309Z</time>
      </trkpt>
      <trkpt lat="46.65521" lon="5.58445">
        <ele>368</ele>
        <time>2021-05-29T12:17:45.309Z</time>
      </trkpt>
      <trkpt lat="46.6552" lon="5.58448">
        <ele>368</ele>
        <time>2021-05-29T12:17:46.309Z</time>
      </trkpt>
      <trkpt lat="46.65519" lon="5.58451">
        <ele>368</ele>
        <time>2021-05-29T12:17:47.310Z</time>
      </trkpt>
      <trkpt lat="46.65519" lon="5.58453">
        <ele>368</ele>
        <time>2021-05-29T12:17:48.309Z</time>
      </trkpt>
      <trkpt lat="46.65519" lon="5.58456">
        <ele>369</ele>
        <time>2021-05-29T12:17:49.309Z</time>
      </trkpt>
      <trkpt lat="46.65519" lon="5.58459">
        <ele>369</ele>
        <time>2021-05-29T12:17:50.309Z</time>
      </trkpt>
      <trkpt lat="46.6552" lon="5.58462">
        <ele>369</ele>
        <time>2021-05-29T12:17:51.309Z</time>
      </trkpt>
      <trkpt lat="46.6552" lon="5.58464">
        <ele>370</ele>
        <time>2021-05-29T12:17:52.309Z</time>
      </trkpt>
      <trkpt lat="46.65521" lon="5.58467">
        <ele>370</ele>
        <time>2021-05-29T12:17:53.310Z</time>
      </trkpt>
      <trkpt lat="46.65522" lon="5.5847">
        <ele>370</ele>
        <time>2021-05-29T12:17:54.310Z</time>
      </trkpt>
      <trkpt lat="46.65523" lon="5.58474">
        <ele>371</ele>
        <time>2021-05-29T12:17:55.310Z</time>
      </trkpt>
      <trkpt lat="46.65523" lon="5.58476">
        <ele>371</ele>
        <time>2021-05-29T12:17:56.310Z</time>
      </trkpt>
      <trkpt lat="46.65524" lon="5.5848">
        <ele>371</ele>
        <time>2021-05-29T12:17:57.310Z</time>
      </trkpt>
      <trkpt lat="46.65524" lon="5.58482">
        <ele>372</ele>
        <time>2021-05-29T12:17:58.310Z</time>
      </trkpt>
      <trkpt lat="46.65525" lon="5.58484">
        <ele>372</ele>
        <time>2021-05-29T12:17:59.310Z</time>
      </trkpt>
      <trkpt lat="46.65525" lon="5.58488">
        <ele>373</ele>
        <time>2021-05-29T12:18:00.310Z</time>
      </trkpt>
      <trkpt lat="46.65526" lon="5.5849">
        <ele>373</ele>
        <time>2021-05-29T12:18:01.310Z</time>
      </trkpt>
      <trkpt lat="46.65526" lon="5.58493">
        <ele>373</ele>
        <time>2021-05-29T12:18:02.310Z</time>
      </trkpt>
      <trkpt lat="46.65527" lon="5.58495">
        <ele>373</ele>
        <time>2021-05-29T12:18:03.310Z</time>
      </trkpt>
      <trkpt lat="46.65527" lon="5.58498">
        <ele>373</ele>
        <time>2021-05-29T12:18:04.310Z</time>
      </trkpt>
      <trkpt lat="46.65527" lon="5.58501">
        <ele>373</ele>
        <time>2021-05-29T12:18:05.310Z</time>
      </trkpt>
      <trkpt lat="46.65528" lon="5.58504">
        <ele>373</ele>
        <time>2021-05-29T12:18:06.310Z</time>
      </trkpt>
      <trkpt lat="46.65528" lon="5.58507">
        <ele>373</ele>
        <time>2021-05-29T12:18:07.309Z</time>
      </trkpt>
      <trkpt lat="46.65529" lon="5.58509">
        <ele>373</ele>
        <time>2021-05-29T12:18:08.310Z</time>
      </trkpt>
      <trkpt lat="46.65529" lon="5.58512">
        <ele>373</ele>
        <time>2021-05-29T12:18:09.310Z</time>
      </trkpt>
      <trkpt lat="46.6553" lon="5.58516">
        <ele>372</ele>
        <time>2021-05-29T12:18:10.310Z</time>
      </trkpt>
      <trkpt lat="46.6553" lon="5.58519">
        <ele>372</ele>
        <time>2021-05-29T12:18:11.310Z</time>
      </trkpt>
      <trkpt lat="46.6553" lon="5.58522">
        <ele>372</ele>
        <time>2021-05-29T12:18:12.310Z</time>
      </trkpt>
      <trkpt lat="46.65531" lon="5.58525">
        <ele>371</ele>
        <time>2021-05-29T12:18:13.310Z</time>
      </trkpt>
      <trkpt lat="46.65531" lon="5.58528">
        <ele>371</ele>
        <time>2021-05-29T12:18:14.310Z</time>
      </trkpt>
      <trkpt lat="46.65532" lon="5.58531">
        <ele>371</ele>
        <time>2021-05-29T12:18:15.310Z</time>
      </trkpt>
      <trkpt lat="46.65532" lon="5.58534">
        <ele>371</ele>
        <time>2021-05-29T12:18:16.310Z</time>
      </trkpt>
      <trkpt lat="46.65533" lon="5.58538">
        <ele>371</ele>
        <time>2021-05-29T12:18:17.310Z</time>
      </trkpt>
      <trkpt lat="46.65535" lon="5.58543">
        <ele>371</ele>
        <time>2021-05-29T12:18:18.310Z</time>
      </trkpt>
      <trkpt lat="46.65535" lon="5.58546">
        <ele>371</ele>
        <time>2021-05-29T12:18:19.310Z</time>
      </trkpt>
      <trkpt lat="46.65536" lon="5.58549">
        <ele>371</ele>
        <time>2021-05-29T12:18:20.310Z</time>
      </trkpt>
      <trkpt lat="46.65537" lon="5.58553">
        <ele>371</ele>
        <time>2021-05-29T12:18:21.310Z</time>
      </trkpt>
      <trkpt lat="46.65538" lon="5.58557">
        <ele>371</ele>
        <time>2021-05-29T12:18:22.310Z</time>
      </trkpt>
      <trkpt lat="46.65538" lon="5.58559">
        <ele>371</ele>
        <time>2021-05-29T12:18:23.310Z</time>
      </trkpt>
      <trkpt lat="46.6554" lon="5.58562">
        <ele>371</ele>
        <time>2021-05-29T12:18:24.310Z</time>
      </trkpt>
      <trkpt lat="46.65541" lon="5.58564">
        <ele>371</ele>
        <time>2021-05-29T12:18:25.310Z</time>
      </trkpt>
      <trkpt lat="46.65542" lon="5.58567">
        <ele>371</ele>
        <time>2021-05-29T12:18:26.310Z</time>
      </trkpt>
      <trkpt lat="46.65543" lon="5.58571">
        <ele>371</ele>
        <time>2021-05-29T12:18:27.310Z</time>
      </trkpt>
      <trkpt lat="46.65544" lon="5.58573">
        <ele>371</ele>
        <time>2021-05-29T12:18:28.310Z</time>
      </trkpt>
      <trkpt lat="46.65545" lon="5.58576">
        <ele>371</ele>
        <time>2021-05-29T12:18:29.310Z</time>
      </trkpt>
      <trkpt lat="46.65545" lon="5.58578">
        <ele>371</ele>
        <time>2021-05-29T12:18:30.310Z</time>
      </trkpt>
      <trkpt lat="46.65546" lon="5.5858">
        <ele>370</ele>
        <time>2021-05-29T12:18:31.309Z</time>
      </trkpt>
      <trkpt lat="46.65547" lon="5.58582">
        <ele>370</ele>
        <time>2021-05-29T12:18:32.309Z</time>
      </trkpt>
      <trkpt lat="46.65548" lon="5.58585">
        <ele>370</ele>
        <time>2021-05-29T12:18:33.310Z</time>
      </trkpt>
      <trkpt lat="46.65549" lon="5.58588">
        <ele>369</ele>
        <time>2021-05-29T12:18:34.310Z</time>
      </trkpt>
      <trkpt lat="46.65549" lon="5.5859">
        <ele>369</ele>
        <time>2021-05-29T12:18:35.310Z</time>
      </trkpt>
      <trkpt lat="46.6555" lon="5.58593">
        <ele>369</ele>
        <time>2021-05-29T12:18:36.309Z</time>
      </trkpt>
      <trkpt lat="46.65551" lon="5.58596">
        <ele>368</ele>
        <time>2021-05-29T12:18:37.310Z</time>
      </trkpt>
      <trkpt lat="46.65552" lon="5.58598">
        <ele>368</ele>
        <time>2021-05-29T12:18:38.310Z</time>
      </trkpt>
      <trkpt lat="46.65552" lon="5.58601">
        <ele>367</ele>
        <time>2021-05-29T12:18:39.310Z</time>
      </trkpt>
      <trkpt lat="46.65553" lon="5.58602">
        <ele>367</ele>
        <time>2021-05-29T12:18:40.310Z</time>
      </trkpt>
      <trkpt lat="46.65553" lon="5.58605">
        <ele>366</ele>
        <time>2021-05-29T12:18:41.310Z</time>
      </trkpt>
      <trkpt lat="46.65554" lon="5.58607">
        <ele>366</ele>
        <time>2021-05-29T12:18:42.310Z</time>
      </trkpt>
      <trkpt lat="46.65554" lon="5.5861">
        <ele>366</ele>
        <time>2021-05-29T12:18:43.310Z</time>
      </trkpt>
      <trkpt lat="46.65554" lon="5.58611">
        <ele>365</ele>
        <time>2021-05-29T12:18:44.310Z</time>
      </trkpt>
      <trkpt lat="46.65554" lon="5.58613">
        <ele>365</ele>
        <time>2021-05-29T12:18:45.310Z</time>
      </trkpt>
      <trkpt lat="46.65555" lon="5.58615">
        <ele>365</ele>
        <time>2021-05-29T12:18:46.310Z</time>
      </trkpt>
      <trkpt lat="46.65555" lon="5.58616">
        <ele>365</ele>
        <time>2021-05-29T12:18:47.310Z</time>
      </trkpt>
      <trkpt lat="46.65555" lon="5.58618">
        <ele>364</ele>
        <time>2021-05-29T12:18:48.310Z</time>
      </trkpt>
      <trkpt lat="46.65556" lon="5.5862">
        <ele>364</ele>
        <time>2021-05-29T12:18:49.310Z</time>
      </trkpt>
      <trkpt lat="46.65556" lon="5.58622">
        <ele>364</ele>
        <time>2021-05-29T12:18:50.310Z</time>
      </trkpt>
      <trkpt lat="46.65557" lon="5.58624">
        <ele>364</ele>
        <time>2021-05-29T12:18:51.310Z</time>
      </trkpt>
      <trkpt lat="46.65557" lon="5.58626">
        <ele>363</ele>
        <time>2021-05-29T12:18:52.310Z</time>
      </trkpt>
      <trkpt lat="46.65558" lon="5.58627">
        <ele>363</ele>
        <time>2021-05-29T12:18:53.310Z</time>
      </trkpt>
      <trkpt lat="46.65558" lon="5.5863">
        <ele>363</ele>
        <time>2021-05-29T12:18:54.309Z</time>
      </trkpt>
      <trkpt lat="46.65559" lon="5.58632">
        <ele>363</ele>
        <time>2021-05-29T12:18:55.310Z</time>
      </trkpt>
      <trkpt lat="46.65559" lon="5.58634">
        <ele>363</ele>
        <time>2021-05-29T12:18:56.309Z</time>
      </trkpt>
      <trkpt lat="46.65559" lon="5.58636">
        <ele>362</ele>
        <time>2021-05-29T12:18:57.309Z</time>
      </trkpt>
      <trkpt lat="46.6556" lon="5.58637">
        <ele>362</ele>
        <time>2021-05-29T12:18:58.309Z</time>
      </trkpt>
      <trkpt lat="46.6556" lon="5.58638">
        <ele>362</ele>
        <time>2021-05-29T12:18:59.309Z</time>
      </trkpt>
      <trkpt lat="46.65561" lon="5.58639">
        <ele>362</ele>
        <time>2021-05-29T12:19:00.310Z</time>
      </trkpt>
      <trkpt lat="46.65561" lon="5.58641">
        <ele>362</ele>
        <time>2021-05-29T12:19:01.309Z</time>
      </trkpt>
      <trkpt lat="46.65561" lon="5.58642">
        <ele>362</ele>
        <time>2021-05-29T12:19:02.309Z</time>
      </trkpt>
      <trkpt lat="46.65562" lon="5.58644">
        <ele>362</ele>
        <time>2021-05-29T12:19:03.310Z</time>
      </trkpt>
      <trkpt lat="46.65562" lon="5.58646">
        <ele>361</ele>
        <time>2021-05-29T12:19:04.310Z</time>
      </trkpt>
      <trkpt lat="46.65563" lon="5.58648">
        <ele>361</ele>
        <time>2021-05-29T12:19:05.310Z</time>
      </trkpt>
      <trkpt lat="46.65564" lon="5.5865">
        <ele>360</ele>
        <time>2021-05-29T12:19:06.310Z</time>
      </trkpt>
      <trkpt lat="46.65565" lon="5.58653">
        <ele>360</ele>
        <time>2021-05-29T12:19:07.310Z</time>
      </trkpt>
      <trkpt lat="46.65565" lon="5.58655">
        <ele>359</ele>
        <time>2021-05-29T12:19:08.310Z</time>
      </trkpt>
      <trkpt lat="46.65565" lon="5.58657">
        <ele>359</ele>
        <time>2021-05-29T12:19:09.310Z</time>
      </trkpt>
      <trkpt lat="46.65565" lon="5.58659">
        <ele>358</ele>
        <time>2021-05-29T12:19:10.310Z</time>
      </trkpt>
      <trkpt lat="46.65566" lon="5.58661">
        <ele>358</ele>
        <time>2021-05-29T12:19:11.310Z</time>
      </trkpt>
      <trkpt lat="46.65566" lon="5.58662">
        <ele>357</ele>
        <time>2021-05-29T12:19:12.310Z</time>
      </trkpt>
      <trkpt lat="46.65567" lon="5.58663">
        <ele>357</ele>
        <time>2021-05-29T12:19:13.309Z</time>
      </trkpt>
      <trkpt lat="46.65568" lon="5.58665">
        <ele>356</ele>
        <time>2021-05-29T12:19:14.310Z</time>
      </trkpt>
      <trkpt lat="46.65568" lon="5.58667">
        <ele>356</ele>
        <time>2021-05-29T12:19:15.310Z</time>
      </trkpt>
      <trkpt lat="46.65569" lon="5.58669">
        <ele>356</ele>
        <time>2021-05-29T12:19:16.310Z</time>
      </trkpt>
      <trkpt lat="46.65569" lon="5.58671">
        <ele>355</ele>
        <time>2021-05-29T12:19:17.310Z</time>
      </trkpt>
      <trkpt lat="46.65569" lon="5.58673">
        <ele>355</ele>
        <time>2021-05-29T12:19:18.309Z</time>
      </trkpt>
      <trkpt lat="46.65569" lon="5.58675">
        <ele>355</ele>
        <time>2021-05-29T12:19:19.310Z</time>
      </trkpt>
      <trkpt lat="46.6557" lon="5.58676">
        <ele>355</ele>
        <time>2021-05-29T12:19:20.310Z</time>
      </trkpt>
      <trkpt lat="46.6557" lon="5.58678">
        <ele>354</ele>
        <time>2021-05-29T12:19:21.309Z</time>
      </trkpt>
      <trkpt lat="46.65571" lon="5.5868">
        <ele>354</ele>
        <time>2021-05-29T12:19:22.309Z</time>
      </trkpt>
      <trkpt lat="46.65571" lon="5.58682">
        <ele>354</ele>
        <time>2021-05-29T12:19:23.310Z</time>
      </trkpt>
      <trkpt lat="46.65572" lon="5.58683">
        <ele>354</ele>
        <time>2021-05-29T12:19:24.310Z</time>
      </trkpt>
      <trkpt lat="46.65572" lon="5.58684">
        <ele>353</ele>
        <time>2021-05-29T12:19:25.310Z</time>
      </trkpt>
      <trkpt lat="46.65573" lon="5.58685">
        <ele>353</ele>
        <time>2021-05-29T12:19:26.310Z</time>
      </trkpt>
      <trkpt lat="46.65573" lon="5.58687">
        <ele>352</ele>
        <time>2021-05-29T12:19:27.310Z</time>
      </trkpt>
      <trkpt lat="46.65573" lon="5.58689">
        <ele>352</ele>
        <time>2021-05-29T12:19:28.310Z</time>
      </trkpt>
      <trkpt lat="46.65573" lon="5.5869">
        <ele>351</ele>
        <time>2021-05-29T12:19:29.310Z</time>
      </trkpt>
      <trkpt lat="46.65574" lon="5.58692">
        <ele>351</ele>
        <time>2021-05-29T12:19:30.310Z</time>
      </trkpt>
      <trkpt lat="46.65574" lon="5.58694">
        <ele>350</ele>
        <time>2021-05-29T12:19:31.310Z</time>
      </trkpt>
      <trkpt lat="46.65574" lon="5.58696">
        <ele>350</ele>
        <time>2021-05-29T12:19:32.310Z</time>
      </trkpt>
      <trkpt lat="46.65575" lon="5.58698">
        <ele>349</ele>
        <time>2021-05-29T12:19:33.310Z</time>
      </trkpt>
      <trkpt lat="46.65575" lon="5.587">
        <ele>349</ele>
        <time>2021-05-29T12:19:34.310Z</time>
      </trkpt>
      <trkpt lat="46.65576" lon="5.58702">
        <ele>349</ele>
        <time>2021-05-29T12:19:35.310Z</time>
      </trkpt>
      <trkpt lat="46.65576" lon="5.58704">
        <ele>349</ele>
        <time>2021-05-29T12:19:36.310Z</time>
      </trkpt>
      <trkpt lat="46.65577" lon="5.58706">
        <ele>349</ele>
        <time>2021-05-29T12:19:37.310Z</time>
      </trkpt>
      <trkpt lat="46.65577" lon="5.58708">
        <ele>349</ele>
        <time>2021-05-29T12:19:38.309Z</time>
      </trkpt>
      <trkpt lat="46.65577" lon="5.5871">
        <ele>349</ele>
        <time>2021-05-29T12:19:39.310Z</time>
      </trkpt>
      <trkpt lat="46.65577" lon="5.58712">
        <ele>349</ele>
        <time>2021-05-29T12:19:40.310Z</time>
      </trkpt>
      <trkpt lat="46.65578" lon="5.58713">
        <ele>349</ele>
        <time>2021-05-29T12:19:41.310Z</time>
      </trkpt>
      <trkpt lat="46.65578" lon="5.58714">
        <ele>349</ele>
        <time>2021-05-29T12:19:42.310Z</time>
      </trkpt>
      <trkpt lat="46.65579" lon="5.58716">
        <ele>349</ele>
        <time>2021-05-29T12:19:43.310Z</time>
      </trkpt>
      <trkpt lat="46.65579" lon="5.58717">
        <ele>348</ele>
        <time>2021-05-29T12:19:44.310Z</time>
      </trkpt>
      <trkpt lat="46.65579" lon="5.58719">
        <ele>348</ele>
        <time>2021-05-29T12:19:45.310Z</time>
      </trkpt>
      <trkpt lat="46.65579" lon="5.58721">
        <ele>347</ele>
        <time>2021-05-29T12:19:46.310Z</time>
      </trkpt>
      <trkpt lat="46.6558" lon="5.58722">
        <ele>346</ele>
        <time>2021-05-29T12:19:47.310Z</time>
      </trkpt>
      <trkpt lat="46.6558" lon="5.58723">
        <ele>346</ele>
        <time>2021-05-29T12:19:48.310Z</time>
      </trkpt>
      <trkpt lat="46.6558" lon="5.58725">
        <ele>346</ele>
        <time>2021-05-29T12:19:49.310Z</time>
      </trkpt>
      <trkpt lat="46.6558" lon="5.58727">
        <ele>345</ele>
        <time>2021-05-29T12:19:50.309Z</time>
      </trkpt>
      <trkpt lat="46.6558" lon="5.58729">
        <ele>345</ele>
        <time>2021-05-29T12:19:51.310Z</time>
      </trkpt>
      <trkpt lat="46.6558" lon="5.5873">
        <ele>345</ele>
        <time>2021-05-29T12:19:52.310Z</time>
      </trkpt>
      <trkpt lat="46.6558" lon="5.58732">
        <ele>344</ele>
        <time>2021-05-29T12:19:53.310Z</time>
      </trkpt>
      <trkpt lat="46.65581" lon="5.58735">
        <ele>344</ele>
        <time>2021-05-29T12:19:54.310Z</time>
      </trkpt>
      <trkpt lat="46.65581" lon="5.58737">
        <ele>344</ele>
        <time>2021-05-29T12:19:55.310Z</time>
      </trkpt>
      <trkpt lat="46.65581" lon="5.58739">
        <ele>343</ele>
        <time>2021-05-29T12:19:56.309Z</time>
      </trkpt>
      <trkpt lat="46.6558" lon="5.58741">
        <ele>343</ele>
        <time>2021-05-29T12:19:57.310Z</time>
      </trkpt>
      <trkpt lat="46.6558" lon="5.58743">
        <ele>343</ele>
        <time>2021-05-29T12:19:58.310Z</time>
      </trkpt>
      <trkpt lat="46.6558" lon="5.58744">
        <ele>343</ele>
        <time>2021-05-29T12:19:59.310Z</time>
      </trkpt>
      <trkpt lat="46.6558" lon="5.58746">
        <ele>343</ele>
        <time>2021-05-29T12:20:00.310Z</time>
      </trkpt>
      <trkpt lat="46.6558" lon="5.58747">
        <ele>343</ele>
        <time>2021-05-29T12:20:01.310Z</time>
      </trkpt>
      <trkpt lat="46.6558" lon="5.58748">
        <ele>343</ele>
        <time>2021-05-29T12:20:02.310Z</time>
      </trkpt>
      <trkpt lat="46.6558" lon="5.58749">
        <ele>342</ele>
        <time>2021-05-29T12:20:03.310Z</time>
      </trkpt>
      <trkpt lat="46.65581" lon="5.58751">
        <ele>342</ele>
        <time>2021-05-29T12:20:04.310Z</time>
      </trkpt>
      <trkpt lat="46.65581" lon="5.58753">
        <ele>342</ele>
        <time>2021-05-29T12:30:58.504Z</time>
      </trkpt>
      <trkpt lat="46.65582" lon="5.58755">
        <ele>342</ele>
        <time>2021-05-29T12:30:59.504Z</time>
      </trkpt>
      <trkpt lat="46.65582" lon="5.58756">
        <ele>342</ele>
        <time>2021-05-29T12:31:00.505Z</time>
      </trkpt>
      <trkpt lat="46.65582" lon="5.58758">
        <ele>342</ele>
        <time>2021-05-29T12:31:01.504Z</time>
      </trkpt>
      <trkpt lat="46.65583" lon="5.5876">
        <ele>342</ele>
        <time>2021-05-29T12:31:02.505Z</time>
      </trkpt>
      <trkpt lat="46.65583" lon="5.58762">
        <ele>342</ele>
        <time>2021-05-29T12:31:03.505Z</time>
      </trkpt>
      <trkpt lat="46.65583" lon="5.58764">
        <ele>342</ele>
        <time>2021-05-29T12:31:04.505Z</time>
      </trkpt>
      <trkpt lat="46.65583" lon="5.58766">
        <ele>342</ele>
        <time>2021-05-29T12:31:05.505Z</time>
      </trkpt>
      <trkpt lat="46.65584" lon="5.58768">
        <ele>341</ele>
        <time>2021-05-29T12:31:06.505Z</time>
      </trkpt>
      <trkpt lat="46.65584" lon="5.5877">
        <ele>341</ele>
        <time>2021-05-29T12:31:07.505Z</time>
      </trkpt>
      <trkpt lat="46.65584" lon="5.58771">
        <ele>340</ele>
        <time>2021-05-29T12:31:08.505Z</time>
      </trkpt>
      <trkpt lat="46.65585" lon="5.58773">
        <ele>339</ele>
        <time>2021-05-29T12:31:09.505Z</time>
      </trkpt>
      <trkpt lat="46.65586" lon="5.58774">
        <ele>339</ele>
        <time>2021-05-29T12:31:10.505Z</time>
      </trkpt>
      <trkpt lat="46.65587" lon="5.58774">
        <ele>338</ele>
        <time>2021-05-29T12:31:11.505Z</time>
      </trkpt>
      <trkpt lat="46.65588" lon="5.58775">
        <ele>338</ele>
        <time>2021-05-29T12:31:12.505Z</time>
      </trkpt>
      <trkpt lat="46.6559" lon="5.58775">
        <ele>338</ele>
        <time>2021-05-29T12:31:13.505Z</time>
      </trkpt>
      <trkpt lat="46.65591" lon="5.58775">
        <ele>337</ele>
        <time>2021-05-29T12:31:14.505Z</time>
      </trkpt>
      <trkpt lat="46.65593" lon="5.58776">
        <ele>337</ele>
        <time>2021-05-29T12:31:15.505Z</time>
      </trkpt>
      <trkpt lat="46.65594" lon="5.58776">
        <ele>336</ele>
        <time>2021-05-29T12:31:16.505Z</time>
      </trkpt>
      <trkpt lat="46.65597" lon="5.58776">
        <ele>336</ele>
        <time>2021-05-29T12:31:17.505Z</time>
      </trkpt>
      <trkpt lat="46.65599" lon="5.58776">
        <ele>335</ele>
        <time>2021-05-29T12:31:18.505Z</time>
      </trkpt>
      <trkpt lat="46.65602" lon="5.58777">
        <ele>335</ele>
        <time>2021-05-29T12:31:19.505Z</time>
      </trkpt>
      <trkpt lat="46.65604" lon="5.58777">
        <ele>334</ele>
        <time>2021-05-29T12:31:20.505Z</time>
      </trkpt>
      <trkpt lat="46.65606" lon="5.58777">
        <ele>334</ele>
        <time>2021-05-29T12:31:21.505Z</time>
      </trkpt>
      <trkpt lat="46.65608" lon="5.58776">
        <ele>333</ele>
        <time>2021-05-29T12:31:22.505Z</time>
      </trkpt>
      <trkpt lat="46.6561" lon="5.58776">
        <ele>333</ele>
        <time>2021-05-29T12:31:23.504Z</time>
      </trkpt>
      <trkpt lat="46.65612" lon="5.58775">
        <ele>333</ele>
        <time>2021-05-29T12:31:24.505Z</time>
      </trkpt>
      <trkpt lat="46.65614" lon="5.58775">
        <ele>332</ele>
        <time>2021-05-29T12:31:25.505Z</time>
      </trkpt>
      <trkpt lat="46.65616" lon="5.58774">
        <ele>332</ele>
        <time>2021-05-29T12:31:26.505Z</time>
      </trkpt>
      <trkpt lat="46.65618" lon="5.58773">
        <ele>331</ele>
        <time>2021-05-29T12:31:27.505Z</time>
      </trkpt>
      <trkpt lat="46.6562" lon="5.58773">
        <ele>331</ele>
        <time>2021-05-29T12:31:28.505Z</time>
      </trkpt>
      <trkpt lat="46.65621" lon="5.58773">
        <ele>330</ele>
        <time>2021-05-29T12:31:29.505Z</time>
      </trkpt>
      <trkpt lat="46.65623" lon="5.58773">
        <ele>329</ele>
        <time>2021-05-29T12:31:30.505Z</time>
      </trkpt>
      <trkpt lat="46.65626" lon="5.58773">
        <ele>329</ele>
        <time>2021-05-29T12:31:31.504Z</time>
      </trkpt>
      <trkpt lat="46.65628" lon="5.58772">
        <ele>328</ele>
        <time>2021-05-29T12:31:32.505Z</time>
      </trkpt>
      <trkpt lat="46.6563" lon="5.58772">
        <ele>328</ele>
        <time>2021-05-29T12:31:33.505Z</time>
      </trkpt>
      <trkpt lat="46.65632" lon="5.58772">
        <ele>327</ele>
        <time>2021-05-29T12:31:34.505Z</time>
      </trkpt>
      <trkpt lat="46.65635" lon="5.58771">
        <ele>327</ele>
        <time>2021-05-29T12:31:35.505Z</time>
      </trkpt>
      <trkpt lat="46.65637" lon="5.5877">
        <ele>327</ele>
        <time>2021-05-29T12:31:36.505Z</time>
      </trkpt>
      <trkpt lat="46.65639" lon="5.5877">
        <ele>326</ele>
        <time>2021-05-29T12:31:37.504Z</time>
      </trkpt>
      <trkpt lat="46.65642" lon="5.5877">
        <ele>326</ele>
        <time>2021-05-29T12:31:38.505Z</time>
      </trkpt>
      <trkpt lat="46.65645" lon="5.58771">
        <ele>325</ele>
        <time>2021-05-29T12:31:39.505Z</time>
      </trkpt>
      <trkpt lat="46.65647" lon="5.58771">
        <ele>324</ele>
        <time>2021-05-29T12:31:40.505Z</time>
      </trkpt>
      <trkpt lat="46.65649" lon="5.58772">
        <ele>324</ele>
        <time>2021-05-29T12:31:41.505Z</time>
      </trkpt>
      <trkpt lat="46.65651" lon="5.58773">
        <ele>323</ele>
        <time>2021-05-29T12:31:42.504Z</time>
      </trkpt>
      <trkpt lat="46.65652" lon="5.58772">
        <ele>323</ele>
        <time>2021-05-29T12:31:43.505Z</time>
      </trkpt>
      <trkpt lat="46.65652" lon="5.58772">
        <ele>322</ele>
        <time>2021-05-29T12:31:44.505Z</time>
      </trkpt>
      <trkpt lat="46.65652" lon="5.58772">
        <ele>322</ele>
        <time>2021-05-29T12:31:45.505Z</time>
      </trkpt>
      <trkpt lat="46.65653" lon="5.58772">
        <ele>322</ele>
        <time>2021-05-29T12:31:46.505Z</time>
      </trkpt>
      <trkpt lat="46.65653" lon="5.58773">
        <ele>321</ele>
        <time>2021-05-29T12:31:47.505Z</time>
      </trkpt>
      <trkpt lat="46.65654" lon="5.58773">
        <ele>321</ele>
        <time>2021-05-29T12:31:48.504Z</time>
      </trkpt>
      <trkpt lat="46.65654" lon="5.58773">
        <ele>321</ele>
        <time>2021-05-29T12:31:49.505Z</time>
      </trkpt>
      <trkpt lat="46.65655" lon="5.58774">
        <ele>320</ele>
        <time>2021-05-29T12:31:50.504Z</time>
      </trkpt>
      <trkpt lat="46.65655" lon="5.58774">
        <ele>320</ele>
        <time>2021-05-29T12:31:51.505Z</time>
      </trkpt>
      <trkpt lat="46.65655" lon="5.58774">
        <ele>320</ele>
        <time>2021-05-29T12:31:52.505Z</time>
      </trkpt>
      <trkpt lat="46.65655" lon="5.58775">
        <ele>320</ele>
        <time>2021-05-29T12:31:53.505Z</time>
      </trkpt>
      <trkpt lat="46.65655" lon="5.58775">
        <ele>320</ele>
        <time>2021-05-29T12:31:54.505Z</time>
      </trkpt>
      <trkpt lat="46.65655" lon="5.58776">
        <ele>320</ele>
        <time>2021-05-29T12:31:55.505Z</time>
      </trkpt>
      <trkpt lat="46.65655" lon="5.58776">
        <ele>320</ele>
        <time>2021-05-29T12:31:56.505Z</time>
      </trkpt>
      <trkpt lat="46.65655" lon="5.58776">
        <ele>320</ele>
        <time>2021-05-29T12:31:57.505Z</time>
      </trkpt>
      <trkpt lat="46.65655" lon="5.58776">
        <ele>320</ele>
        <time>2021-05-29T12:31:58.505Z</time>
      </trkpt>
      <trkpt lat="46.65656" lon="5.58776">
        <ele>320</ele>
        <time>2021-05-29T12:31:59.505Z</time>
      </trkpt>
      <trkpt lat="46.65656" lon="5.58776">
        <ele>320</ele>
        <time>2021-05-29T12:32:00.505Z</time>
      </trkpt>
      <trkpt lat="46.65657" lon="5.58776">
        <ele>321</ele>
        <time>2021-05-29T12:32:01.505Z</time>
      </trkpt>
      <trkpt lat="46.65657" lon="5.58776">
        <ele>321</ele>
        <time>2021-05-29T12:32:02.505Z</time>
      </trkpt>
      <trkpt lat="46.65657" lon="5.58775">
        <ele>321</ele>
        <time>2021-05-29T12:32:03.505Z</time>
      </trkpt>
      <trkpt lat="46.65658" lon="5.58775">
        <ele>321</ele>
        <time>2021-05-29T12:32:04.504Z</time>
      </trkpt>
      <trkpt lat="46.65659" lon="5.58775">
        <ele>321</ele>
        <time>2021-05-29T12:32:05.505Z</time>
      </trkpt>
      <trkpt lat="46.65659" lon="5.58775">
        <ele>321</ele>
        <time>2021-05-29T12:32:06.504Z</time>
      </trkpt>
      <trkpt lat="46.65659" lon="5.58776">
        <ele>321</ele>
        <time>2021-05-29T12:32:07.505Z</time>
      </trkpt>
      <trkpt lat="46.65659" lon="5.58777">
        <ele>322</ele>
        <time>2021-05-29T12:32:08.505Z</time>
      </trkpt>
      <trkpt lat="46.65658" lon="5.58778">
        <ele>322</ele>
        <time>2021-05-29T12:32:09.505Z</time>
      </trkpt>
      <trkpt lat="46.65658" lon="5.58778">
        <ele>322</ele>
        <time>2021-05-29T12:32:10.505Z</time>
      </trkpt>
      <trkpt lat="46.65657" lon="5.58778">
        <ele>323</ele>
        <time>2021-05-29T12:32:11.504Z</time>
      </trkpt>
      <trkpt lat="46.65657" lon="5.58778">
        <ele>323</ele>
        <time>2021-05-29T12:32:12.505Z</time>
      </trkpt>
      <trkpt lat="46.65657" lon="5.58778">
        <ele>323</ele>
        <time>2021-05-29T12:32:13.504Z</time>
      </trkpt>
      <trkpt lat="46.65657" lon="5.58778">
        <ele>324</ele>
        <time>2021-05-29T12:32:14.504Z</time>
      </trkpt>
      <trkpt lat="46.65657" lon="5.58778">
        <ele>325</ele>
        <time>2021-05-29T12:32:15.505Z</time>
      </trkpt>
      <trkpt lat="46.65657" lon="5.58778">
        <ele>325</ele>
        <time>2021-05-29T12:32:16.505Z</time>
      </trkpt>
      <trkpt lat="46.65657" lon="5.58778">
        <ele>325</ele>
        <time>2021-05-29T12:32:17.505Z</time>
      </trkpt>
      <trkpt lat="46.65657" lon="5.58778">
        <ele>326</ele>
        <time>2021-05-29T12:32:18.505Z</time>
      </trkpt>
      <trkpt lat="46.65657" lon="5.58778">
        <ele>326</ele>
        <time>2021-05-29T12:32:19.505Z</time>
      </trkpt>
      <trkpt lat="46.65657" lon="5.58778">
        <ele>326</ele>
        <time>2021-05-29T12:32:20.505Z</time>
      </trkpt>
      <trkpt lat="46.65657" lon="5.58778">
        <ele>326</ele>
        <time>2021-05-29T12:32:21.505Z</time>
      </trkpt>
      <trkpt lat="46.65657" lon="5.58778">
        <ele>326</ele>
        <time>2021-05-29T12:32:22.505Z</time>
      </trkpt>
      <trkpt lat="46.65657" lon="5.58778">
        <ele>326</ele>
        <time>2021-05-29T12:32:23.505Z</time>
      </trkpt>
      <trkpt lat="46.65657" lon="5.58778">
        <ele>326</ele>
        <time>2021-05-29T12:32:24.505Z</time>
      </trkpt>
      <trkpt lat="46.65657" lon="5.58778">
        <ele>325</ele>
        <time>2021-05-29T12:32:25.505Z</time>
      </trkpt>
      <trkpt lat="46.65657" lon="5.58778">
        <ele>325</ele>
        <time>2021-05-29T12:32:26.505Z</time>
      </trkpt>
      <trkpt lat="46.65657" lon="5.58778">
        <ele>325</ele>
        <time>2021-05-29T12:32:27.504Z</time>
      </trkpt>
      <trkpt lat="46.65657" lon="5.58778">
        <ele>325</ele>
        <time>2021-05-29T12:32:28.505Z</time>
      </trkpt>
      <trkpt lat="46.65657" lon="5.58778">
        <ele>325</ele>
        <time>2021-05-29T12:32:29.505Z</time>
      </trkpt>
      <trkpt lat="46.65657" lon="5.58778">
        <ele>325</ele>
        <time>2021-05-29T12:32:30.504Z</time>
      </trkpt>
      <trkpt lat="46.65657" lon="5.58778">
        <ele>324</ele>
        <time>2021-05-29T12:32:31.504Z</time>
      </trkpt>
      <trkpt lat="46.65658" lon="5.58779">
        <ele>324</ele>
        <time>2021-05-29T12:32:32.505Z</time>
      </trkpt>
      <trkpt lat="46.65658" lon="5.58779">
        <ele>324</ele>
        <time>2021-05-29T12:32:33.505Z</time>
      </trkpt>
      <trkpt lat="46.65659" lon="5.58779">
        <ele>324</ele>
        <time>2021-05-29T12:32:34.505Z</time>
      </trkpt>
      <trkpt lat="46.65659" lon="5.58779">
        <ele>324</ele>
        <time>2021-05-29T12:32:35.505Z</time>
      </trkpt>
      <trkpt lat="46.65659" lon="5.58779">
        <ele>324</ele>
        <time>2021-05-29T12:32:36.505Z</time>
      </trkpt>
      <trkpt lat="46.65659" lon="5.58779">
        <ele>324</ele>
        <time>2021-05-29T12:32:37.505Z</time>
      </trkpt>
      <trkpt lat="46.65659" lon="5.58779">
        <ele>324</ele>
        <time>2021-05-29T12:32:38.504Z</time>
      </trkpt>
      <trkpt lat="46.6566" lon="5.5878">
        <ele>324</ele>
        <time>2021-05-29T12:32:39.505Z</time>
      </trkpt>
      <trkpt lat="46.65662" lon="5.58781">
        <ele>323</ele>
        <time>2021-05-29T12:32:40.504Z</time>
      </trkpt>
      <trkpt lat="46.65664" lon="5.58783">
        <ele>323</ele>
        <time>2021-05-29T12:32:41.505Z</time>
      </trkpt>
      <trkpt lat="46.65667" lon="5.58785">
        <ele>323</ele>
        <time>2021-05-29T12:32:42.505Z</time>
      </trkpt>
      <trkpt lat="46.65668" lon="5.58786">
        <ele>324</ele>
        <time>2021-05-29T12:32:43.505Z</time>
      </trkpt>
      <trkpt lat="46.6567" lon="5.58788">
        <ele>323</ele>
        <time>2021-05-29T12:32:44.505Z</time>
      </trkpt>
      <trkpt lat="46.65672" lon="5.58789">
        <ele>323</ele>
        <time>2021-05-29T12:32:45.504Z</time>
      </trkpt>
      <trkpt lat="46.65674" lon="5.58791">
        <ele>322</ele>
        <time>2021-05-29T12:32:46.505Z</time>
      </trkpt>
      <trkpt lat="46.65677" lon="5.58793">
        <ele>322</ele>
        <time>2021-05-29T12:32:47.504Z</time>
      </trkpt>
      <trkpt lat="46.6568" lon="5.58794">
        <ele>321</ele>
        <time>2021-05-29T12:32:48.505Z</time>
      </trkpt>
      <trkpt lat="46.65682" lon="5.58796">
        <ele>321</ele>
        <time>2021-05-29T12:32:49.505Z</time>
      </trkpt>
      <trkpt lat="46.65683" lon="5.58798">
        <ele>320</ele>
        <time>2021-05-29T12:32:50.505Z</time>
      </trkpt>
      <trkpt lat="46.65685" lon="5.588">
        <ele>321</ele>
        <time>2021-05-29T12:32:51.505Z</time>
      </trkpt>
      <trkpt lat="46.65686" lon="5.58801">
        <ele>321</ele>
        <time>2021-05-29T12:32:52.505Z</time>
      </trkpt>
      <trkpt lat="46.65688" lon="5.58802">
        <ele>321</ele>
        <time>2021-05-29T12:32:53.505Z</time>
      </trkpt>
      <trkpt lat="46.6569" lon="5.58804">
        <ele>321</ele>
        <time>2021-05-29T12:32:54.504Z</time>
      </trkpt>
      <trkpt lat="46.65691" lon="5.58805">
        <ele>321</ele>
        <time>2021-05-29T12:32:55.505Z</time>
      </trkpt>
      <trkpt lat="46.65693" lon="5.58805">
        <ele>321</ele>
        <time>2021-05-29T12:32:56.505Z</time>
      </trkpt>
      <trkpt lat="46.65694" lon="5.58807">
        <ele>322</ele>
        <time>2021-05-29T12:32:57.505Z</time>
      </trkpt>
      <trkpt lat="46.65696" lon="5.58808">
        <ele>322</ele>
        <time>2021-05-29T12:32:58.505Z</time>
      </trkpt>
      <trkpt lat="46.65698" lon="5.58809">
        <ele>321</ele>
        <time>2021-05-29T12:32:59.505Z</time>
      </trkpt>
      <trkpt lat="46.657" lon="5.58811">
        <ele>321</ele>
        <time>2021-05-29T12:33:00.504Z</time>
      </trkpt>
      <trkpt lat="46.65701" lon="5.58812">
        <ele>321</ele>
        <time>2021-05-29T12:33:01.505Z</time>
      </trkpt>
      <trkpt lat="46.65703" lon="5.58813">
        <ele>322</ele>
        <time>2021-05-29T12:33:02.505Z</time>
      </trkpt>
      <trkpt lat="46.65705" lon="5.58814">
        <ele>322</ele>
        <time>2021-05-29T12:33:03.505Z</time>
      </trkpt>
      <trkpt lat="46.65707" lon="5.58815">
        <ele>322</ele>
        <time>2021-05-29T12:33:04.505Z</time>
      </trkpt>
      <trkpt lat="46.65709" lon="5.58816">
        <ele>323</ele>
        <time>2021-05-29T12:33:05.504Z</time>
      </trkpt>
      <trkpt lat="46.6571" lon="5.58817">
        <ele>323</ele>
        <time>2021-05-29T12:33:06.505Z</time>
      </trkpt>
      <trkpt lat="46.65712" lon="5.58818">
        <ele>323</ele>
        <time>2021-05-29T12:33:07.505Z</time>
      </trkpt>
      <trkpt lat="46.65714" lon="5.58819">
        <ele>323</ele>
        <time>2021-05-29T12:33:08.505Z</time>
      </trkpt>
      <trkpt lat="46.65716" lon="5.5882">
        <ele>323</ele>
        <time>2021-05-29T12:33:09.505Z</time>
      </trkpt>
      <trkpt lat="46.65718" lon="5.58821">
        <ele>323</ele>
        <time>2021-05-29T12:33:10.505Z</time>
      </trkpt>
      <trkpt lat="46.6572" lon="5.58822">
        <ele>323</ele>
        <time>2021-05-29T12:33:11.505Z</time>
      </trkpt>
      <trkpt lat="46.65722" lon="5.58823">
        <ele>322</ele>
        <time>2021-05-29T12:33:12.505Z</time>
      </trkpt>
      <trkpt lat="46.65724" lon="5.58825">
        <ele>322</ele>
        <time>2021-05-29T12:33:13.504Z</time>
      </trkpt>
      <trkpt lat="46.65726" lon="5.58826">
        <ele>322</ele>
        <time>2021-05-29T12:33:14.505Z</time>
      </trkpt>
      <trkpt lat="46.65728" lon="5.58827">
        <ele>321</ele>
        <time>2021-05-29T12:33:15.505Z</time>
      </trkpt>
      <trkpt lat="46.6573" lon="5.58828">
        <ele>321</ele>
        <time>2021-05-29T12:33:16.505Z</time>
      </trkpt>
      <trkpt lat="46.65732" lon="5.58829">
        <ele>321</ele>
        <time>2021-05-29T12:33:17.505Z</time>
      </trkpt>
      <trkpt lat="46.65734" lon="5.5883">
        <ele>321</ele>
        <time>2021-05-29T12:33:18.505Z</time>
      </trkpt>
      <trkpt lat="46.65736" lon="5.58831">
        <ele>321</ele>
        <time>2021-05-29T12:33:19.504Z</time>
      </trkpt>
      <trkpt lat="46.65738" lon="5.58832">
        <ele>322</ele>
        <time>2021-05-29T12:33:20.505Z</time>
      </trkpt>
      <trkpt lat="46.6574" lon="5.58834">
        <ele>322</ele>
        <time>2021-05-29T12:33:21.504Z</time>
      </trkpt>
      <trkpt lat="46.65743" lon="5.58836">
        <ele>322</ele>
        <time>2021-05-29T12:33:22.504Z</time>
      </trkpt>
      <trkpt lat="46.65745" lon="5.58839">
        <ele>322</ele>
        <time>2021-05-29T12:33:23.505Z</time>
      </trkpt>
      <trkpt lat="46.65746" lon="5.58842">
        <ele>322</ele>
        <time>2021-05-29T12:33:24.505Z</time>
      </trkpt>
      <trkpt lat="46.65746" lon="5.58845">
        <ele>322</ele>
        <time>2021-05-29T12:33:25.505Z</time>
      </trkpt>
      <trkpt lat="46.65747" lon="5.58848">
        <ele>322</ele>
        <time>2021-05-29T12:33:26.505Z</time>
      </trkpt>
      <trkpt lat="46.65747" lon="5.58852">
        <ele>322</ele>
        <time>2021-05-29T12:33:27.505Z</time>
      </trkpt>
      <trkpt lat="46.65748" lon="5.58856">
        <ele>323</ele>
        <time>2021-05-29T12:33:28.505Z</time>
      </trkpt>
      <trkpt lat="46.65747" lon="5.58858">
        <ele>322</ele>
        <time>2021-05-29T12:33:29.505Z</time>
      </trkpt>
      <trkpt lat="46.65748" lon="5.58859">
        <ele>322</ele>
        <time>2021-05-29T12:33:30.505Z</time>
      </trkpt>
      <trkpt lat="46.6575" lon="5.5886">
        <ele>321</ele>
        <time>2021-05-29T12:33:31.505Z</time>
      </trkpt>
      <trkpt lat="46.6575" lon="5.5886">
        <ele>321</ele>
        <time>2021-05-29T12:33:32.505Z</time>
      </trkpt>
      <trkpt lat="46.6575" lon="5.58862">
        <ele>320</ele>
        <time>2021-05-29T12:33:33.505Z</time>
      </trkpt>
      <trkpt lat="46.6575" lon="5.58864">
        <ele>320</ele>
        <time>2021-05-29T12:33:34.504Z</time>
      </trkpt>
      <trkpt lat="46.65749" lon="5.58866">
        <ele>319</ele>
        <time>2021-05-29T12:33:35.505Z</time>
      </trkpt>
      <trkpt lat="46.65748" lon="5.5887">
        <ele>319</ele>
        <time>2021-05-29T12:33:36.504Z</time>
      </trkpt>
      <trkpt lat="46.65747" lon="5.58873">
        <ele>318</ele>
        <time>2021-05-29T12:33:37.504Z</time>
      </trkpt>
      <trkpt lat="46.65746" lon="5.58876">
        <ele>317</ele>
        <time>2021-05-29T12:33:38.505Z</time>
      </trkpt>
      <trkpt lat="46.65744" lon="5.58878">
        <ele>317</ele>
        <time>2021-05-29T12:33:39.505Z</time>
      </trkpt>
      <trkpt lat="46.65743" lon="5.5888">
        <ele>316</ele>
        <time>2021-05-29T12:33:40.505Z</time>
      </trkpt>
      <trkpt lat="46.65742" lon="5.58882">
        <ele>315</ele>
        <time>2021-05-29T12:33:41.505Z</time>
      </trkpt>
      <trkpt lat="46.65741" lon="5.58883">
        <ele>314</ele>
        <time>2021-05-29T12:33:42.504Z</time>
      </trkpt>
      <trkpt lat="46.65739" lon="5.58884">
        <ele>314</ele>
        <time>2021-05-29T12:33:43.505Z</time>
      </trkpt>
      <trkpt lat="46.65738" lon="5.58885">
        <ele>313</ele>
        <time>2021-05-29T12:33:44.505Z</time>
      </trkpt>
      <trkpt lat="46.65737" lon="5.58886">
        <ele>313</ele>
        <time>2021-05-29T12:33:45.505Z</time>
      </trkpt>
      <trkpt lat="46.65736" lon="5.58888">
        <ele>313</ele>
        <time>2021-05-29T12:33:46.505Z</time>
      </trkpt>
      <trkpt lat="46.65736" lon="5.5889">
        <ele>312</ele>
        <time>2021-05-29T12:33:47.505Z</time>
      </trkpt>
      <trkpt lat="46.65735" lon="5.5889">
        <ele>312</ele>
        <time>2021-05-29T12:33:48.505Z</time>
      </trkpt>
      <trkpt lat="46.65735" lon="5.5889">
        <ele>311</ele>
        <time>2021-05-29T12:33:49.505Z</time>
      </trkpt>
      <trkpt lat="46.65735" lon="5.58888">
        <ele>311</ele>
        <time>2021-05-29T12:33:50.505Z</time>
      </trkpt>
      <trkpt lat="46.65736" lon="5.58885">
        <ele>312</ele>
        <time>2021-05-29T12:33:51.504Z</time>
      </trkpt>
      <trkpt lat="46.65737" lon="5.58882">
        <ele>311</ele>
        <time>2021-05-29T12:33:52.505Z</time>
      </trkpt>
      <trkpt lat="46.65737" lon="5.5888">
        <ele>311</ele>
        <time>2021-05-29T12:33:53.505Z</time>
      </trkpt>
      <trkpt lat="46.65738" lon="5.58879">
        <ele>311</ele>
        <time>2021-05-29T12:33:54.505Z</time>
      </trkpt>
      <trkpt lat="46.65738" lon="5.58879">
        <ele>311</ele>
        <time>2021-05-29T12:33:55.505Z</time>
      </trkpt>
      <trkpt lat="46.65738" lon="5.58879">
        <ele>311</ele>
        <time>2021-05-29T12:33:56.505Z</time>
      </trkpt>
      <trkpt lat="46.65738" lon="5.58879">
        <ele>311</ele>
        <time>2021-05-29T12:33:57.505Z</time>
      </trkpt>
      <trkpt lat="46.65738" lon="5.58879">
        <ele>311</ele>
        <time>2021-05-29T12:33:58.505Z</time>
      </trkpt>
      <trkpt lat="46.65737" lon="5.5888">
        <ele>312</ele>
        <time>2021-05-29T12:33:59.505Z</time>
      </trkpt>
      <trkpt lat="46.65737" lon="5.58881">
        <ele>312</ele>
        <time>2021-05-29T12:34:00.505Z</time>
      </trkpt>
      <trkpt lat="46.65737" lon="5.58881">
        <ele>312</ele>
        <time>2021-05-29T12:34:01.505Z</time>
      </trkpt>
      <trkpt lat="46.65737" lon="5.58882">
        <ele>312</ele>
        <time>2021-05-29T12:34:02.505Z</time>
      </trkpt>
      <trkpt lat="46.65736" lon="5.58883">
        <ele>312</ele>
        <time>2021-05-29T12:34:03.505Z</time>
      </trkpt>
      <trkpt lat="46.65736" lon="5.58885">
        <ele>312</ele>
        <time>2021-05-29T12:34:04.505Z</time>
      </trkpt>
      <trkpt lat="46.65736" lon="5.58888">
        <ele>312</ele>
        <time>2021-05-29T12:34:05.505Z</time>
      </trkpt>
      <trkpt lat="46.65735" lon="5.5889">
        <ele>313</ele>
        <time>2021-05-29T12:34:06.504Z</time>
      </trkpt>
      <trkpt lat="46.65735" lon="5.58892">
        <ele>313</ele>
        <time>2021-05-29T12:34:07.505Z</time>
      </trkpt>
      <trkpt lat="46.65735" lon="5.58894">
        <ele>313</ele>
        <time>2021-05-29T12:34:08.504Z</time>
      </trkpt>
      <trkpt lat="46.65735" lon="5.58895">
        <ele>313</ele>
        <time>2021-05-29T12:34:09.505Z</time>
      </trkpt>
      <trkpt lat="46.65736" lon="5.58895">
        <ele>313</ele>
        <time>2021-05-29T12:34:10.505Z</time>
      </trkpt>
      <trkpt lat="46.65736" lon="5.58897">
        <ele>313</ele>
        <time>2021-05-29T12:34:11.505Z</time>
      </trkpt>
      <trkpt lat="46.65737" lon="5.58898">
        <ele>313</ele>
        <time>2021-05-29T12:34:12.504Z</time>
      </trkpt>
      <trkpt lat="46.65737" lon="5.58899">
        <ele>313</ele>
        <time>2021-05-29T12:34:13.505Z</time>
      </trkpt>
      <trkpt lat="46.65737" lon="5.589">
        <ele>313</ele>
        <time>2021-05-29T12:34:14.504Z</time>
      </trkpt>
      <trkpt lat="46.65736" lon="5.589">
        <ele>313</ele>
        <time>2021-05-29T12:34:15.505Z</time>
      </trkpt>
      <trkpt lat="46.65736" lon="5.589">
        <ele>313</ele>
        <time>2021-05-29T12:34:16.505Z</time>
      </trkpt>
      <trkpt lat="46.65735" lon="5.58901">
        <ele>313</ele>
        <time>2021-05-29T12:34:17.504Z</time>
      </trkpt>
      <trkpt lat="46.65735" lon="5.58901">
        <ele>313</ele>
        <time>2021-05-29T12:34:18.505Z</time>
      </trkpt>
      <trkpt lat="46.65735" lon="5.58901">
        <ele>313</ele>
        <time>2021-05-29T12:34:19.505Z</time>
      </trkpt>
      <trkpt lat="46.65735" lon="5.589">
        <ele>312</ele>
        <time>2021-05-29T12:34:20.505Z</time>
      </trkpt>
      <trkpt lat="46.65734" lon="5.58899">
        <ele>312</ele>
        <time>2021-05-29T12:34:21.506Z</time>
      </trkpt>
      <trkpt lat="46.65733" lon="5.589">
        <ele>312</ele>
        <time>2021-05-29T12:34:22.506Z</time>
      </trkpt>
      <trkpt lat="46.65733" lon="5.589">
        <ele>313</ele>
        <time>2021-05-29T12:34:23.505Z</time>
      </trkpt>
      <trkpt lat="46.65732" lon="5.58901">
        <ele>313</ele>
        <time>2021-05-29T12:34:24.506Z</time>
      </trkpt>
      <trkpt lat="46.65732" lon="5.58902">
        <ele>313</ele>
        <time>2021-05-29T12:34:25.506Z</time>
      </trkpt>
      <trkpt lat="46.65732" lon="5.58903">
        <ele>314</ele>
        <time>2021-05-29T12:34:26.506Z</time>
      </trkpt>
      <trkpt lat="46.65731" lon="5.58904">
        <ele>314</ele>
        <time>2021-05-29T12:34:27.505Z</time>
      </trkpt>
      <trkpt lat="46.65731" lon="5.58906">
        <ele>315</ele>
        <time>2021-05-29T12:34:28.506Z</time>
      </trkpt>
      <trkpt lat="46.6573" lon="5.58908">
        <ele>315</ele>
        <time>2021-05-29T12:34:29.506Z</time>
      </trkpt>
      <trkpt lat="46.6573" lon="5.5891">
        <ele>315</ele>
        <time>2021-05-29T12:34:30.505Z</time>
      </trkpt>
      <trkpt lat="46.65729" lon="5.58912">
        <ele>315</ele>
        <time>2021-05-29T12:34:31.506Z</time>
      </trkpt>
      <trkpt lat="46.65728" lon="5.58915">
        <ele>314</ele>
        <time>2021-05-29T12:34:32.506Z</time>
      </trkpt>
      <trkpt lat="46.65727" lon="5.58917">
        <ele>314</ele>
        <time>2021-05-29T12:34:33.506Z</time>
      </trkpt>
      <trkpt lat="46.65726" lon="5.58919">
        <ele>313</ele>
        <time>2021-05-29T12:34:34.506Z</time>
      </trkpt>
      <trkpt lat="46.65725" lon="5.58921">
        <ele>313</ele>
        <time>2021-05-29T12:34:35.506Z</time>
      </trkpt>
      <trkpt lat="46.65724" lon="5.58924">
        <ele>312</ele>
        <time>2021-05-29T12:34:36.506Z</time>
      </trkpt>
      <trkpt lat="46.65723" lon="5.58926">
        <ele>312</ele>
        <time>2021-05-29T12:34:37.506Z</time>
      </trkpt>
      <trkpt lat="46.65722" lon="5.58927">
        <ele>313</ele>
        <time>2021-05-29T12:34:38.506Z</time>
      </trkpt>
      <trkpt lat="46.65722" lon="5.5893">
        <ele>312</ele>
        <time>2021-05-29T12:34:39.505Z</time>
      </trkpt>
      <trkpt lat="46.6572" lon="5.58932">
        <ele>312</ele>
        <time>2021-05-29T12:34:40.506Z</time>
      </trkpt>
      <trkpt lat="46.65719" lon="5.58935">
        <ele>313</ele>
        <time>2021-05-29T12:34:41.506Z</time>
      </trkpt>
      <trkpt lat="46.65718" lon="5.58937">
        <ele>313</ele>
        <time>2021-05-29T12:34:42.506Z</time>
      </trkpt>
      <trkpt lat="46.65717" lon="5.5894">
        <ele>313</ele>
        <time>2021-05-29T12:34:43.506Z</time>
      </trkpt>
      <trkpt lat="46.65716" lon="5.58942">
        <ele>314</ele>
        <time>2021-05-29T12:34:44.506Z</time>
      </trkpt>
      <trkpt lat="46.65715" lon="5.58944">
        <ele>314</ele>
        <time>2021-05-29T12:34:45.506Z</time>
      </trkpt>
      <trkpt lat="46.65713" lon="5.58947">
        <ele>315</ele>
        <time>2021-05-29T12:34:46.506Z</time>
      </trkpt>
      <trkpt lat="46.65712" lon="5.5895">
        <ele>315</ele>
        <time>2021-05-29T12:34:47.506Z</time>
      </trkpt>
      <trkpt lat="46.65711" lon="5.58952">
        <ele>316</ele>
        <time>2021-05-29T12:34:48.506Z</time>
      </trkpt>
      <trkpt lat="46.65709" lon="5.58954">
        <ele>316</ele>
        <time>2021-05-29T12:34:49.506Z</time>
      </trkpt>
      <trkpt lat="46.65708" lon="5.58957">
        <ele>316</ele>
        <time>2021-05-29T12:34:50.506Z</time>
      </trkpt>
      <trkpt lat="46.65706" lon="5.5896">
        <ele>316</ele>
        <time>2021-05-29T12:34:51.506Z</time>
      </trkpt>
      <trkpt lat="46.65705" lon="5.58963">
        <ele>316</ele>
        <time>2021-05-29T12:34:52.506Z</time>
      </trkpt>
      <trkpt lat="46.65703" lon="5.58965">
        <ele>315</ele>
        <time>2021-05-29T12:34:53.506Z</time>
      </trkpt>
      <trkpt lat="46.65701" lon="5.58968">
        <ele>315</ele>
        <time>2021-05-29T12:34:54.506Z</time>
      </trkpt>
      <trkpt lat="46.657" lon="5.5897">
        <ele>315</ele>
        <time>2021-05-29T12:34:55.506Z</time>
      </trkpt>
      <trkpt lat="46.65699" lon="5.58972">
        <ele>315</ele>
        <time>2021-05-29T12:34:56.506Z</time>
      </trkpt>
      <trkpt lat="46.65697" lon="5.58975">
        <ele>314</ele>
        <time>2021-05-29T12:34:57.506Z</time>
      </trkpt>
      <trkpt lat="46.65696" lon="5.58977">
        <ele>314</ele>
        <time>2021-05-29T12:34:58.506Z</time>
      </trkpt>
      <trkpt lat="46.65694" lon="5.58979">
        <ele>314</ele>
        <time>2021-05-29T12:34:59.506Z</time>
      </trkpt>
      <trkpt lat="46.65693" lon="5.58982">
        <ele>313</ele>
        <time>2021-05-29T12:35:00.506Z</time>
      </trkpt>
      <trkpt lat="46.65691" lon="5.58984">
        <ele>313</ele>
        <time>2021-05-29T12:35:01.506Z</time>
      </trkpt>
      <trkpt lat="46.6569" lon="5.58987">
        <ele>314</ele>
        <time>2021-05-29T12:35:02.506Z</time>
      </trkpt>
      <trkpt lat="46.65689" lon="5.5899">
        <ele>314</ele>
        <time>2021-05-29T12:35:03.505Z</time>
      </trkpt>
      <trkpt lat="46.65688" lon="5.58992">
        <ele>314</ele>
        <time>2021-05-29T12:35:04.506Z</time>
      </trkpt>
      <trkpt lat="46.65686" lon="5.58995">
        <ele>315</ele>
        <time>2021-05-29T12:35:05.506Z</time>
      </trkpt>
      <trkpt lat="46.65685" lon="5.58997">
        <ele>314</ele>
        <time>2021-05-29T12:35:06.505Z</time>
      </trkpt>
      <trkpt lat="46.65683" lon="5.58999">
        <ele>314</ele>
        <time>2021-05-29T12:35:07.506Z</time>
      </trkpt>
      <trkpt lat="46.65682" lon="5.59002">
        <ele>314</ele>
        <time>2021-05-29T12:35:08.505Z</time>
      </trkpt>
      <trkpt lat="46.6568" lon="5.59004">
        <ele>314</ele>
        <time>2021-05-29T12:35:09.505Z</time>
      </trkpt>
      <trkpt lat="46.65679" lon="5.59007">
        <ele>314</ele>
        <time>2021-05-29T12:35:10.506Z</time>
      </trkpt>
      <trkpt lat="46.65678" lon="5.5901">
        <ele>314</ele>
        <time>2021-05-29T12:35:11.506Z</time>
      </trkpt>
      <trkpt lat="46.65676" lon="5.59013">
        <ele>314</ele>
        <time>2021-05-29T12:35:12.506Z</time>
      </trkpt>
      <trkpt lat="46.65675" lon="5.59016">
        <ele>314</ele>
        <time>2021-05-29T12:35:13.506Z</time>
      </trkpt>
      <trkpt lat="46.65673" lon="5.59019">
        <ele>314</ele>
        <time>2021-05-29T12:35:14.506Z</time>
      </trkpt>
      <trkpt lat="46.65672" lon="5.59022">
        <ele>314</ele>
        <time>2021-05-29T12:35:15.506Z</time>
      </trkpt>
      <trkpt lat="46.65671" lon="5.59024">
        <ele>314</ele>
        <time>2021-05-29T12:35:16.505Z</time>
      </trkpt>
      <trkpt lat="46.6567" lon="5.59026">
        <ele>314</ele>
        <time>2021-05-29T12:35:17.506Z</time>
      </trkpt>
      <trkpt lat="46.65669" lon="5.59029">
        <ele>315</ele>
        <time>2021-05-29T12:35:18.506Z</time>
      </trkpt>
      <trkpt lat="46.65668" lon="5.59032">
        <ele>315</ele>
        <time>2021-05-29T12:35:19.506Z</time>
      </trkpt>
      <trkpt lat="46.65667" lon="5.59034">
        <ele>315</ele>
        <time>2021-05-29T12:35:20.506Z</time>
      </trkpt>
      <trkpt lat="46.65665" lon="5.59036">
        <ele>315</ele>
        <time>2021-05-29T12:35:21.505Z</time>
      </trkpt>
      <trkpt lat="46.65664" lon="5.59039">
        <ele>316</ele>
        <time>2021-05-29T12:35:22.506Z</time>
      </trkpt>
      <trkpt lat="46.65663" lon="5.59041">
        <ele>316</ele>
        <time>2021-05-29T12:35:23.505Z</time>
      </trkpt>
      <trkpt lat="46.65662" lon="5.59044">
        <ele>317</ele>
        <time>2021-05-29T12:35:24.506Z</time>
      </trkpt>
      <trkpt lat="46.65661" lon="5.59047">
        <ele>317</ele>
        <time>2021-05-29T12:35:25.506Z</time>
      </trkpt>
      <trkpt lat="46.6566" lon="5.5905">
        <ele>317</ele>
        <time>2021-05-29T12:35:26.506Z</time>
      </trkpt>
      <trkpt lat="46.65659" lon="5.59053">
        <ele>317</ele>
        <time>2021-05-29T12:35:27.506Z</time>
      </trkpt>
      <trkpt lat="46.65659" lon="5.59056">
        <ele>317</ele>
        <time>2021-05-29T12:35:28.506Z</time>
      </trkpt>
      <trkpt lat="46.6566" lon="5.5906">
        <ele>317</ele>
        <time>2021-05-29T12:35:29.506Z</time>
      </trkpt>
      <trkpt lat="46.65661" lon="5.59063">
        <ele>317</ele>
        <time>2021-05-29T12:35:30.506Z</time>
      </trkpt>
      <trkpt lat="46.65661" lon="5.59066">
        <ele>317</ele>
        <time>2021-05-29T12:35:31.506Z</time>
      </trkpt>
      <trkpt lat="46.65663" lon="5.59068">
        <ele>317</ele>
        <time>2021-05-29T12:35:32.506Z</time>
      </trkpt>
      <trkpt lat="46.65665" lon="5.59071">
        <ele>317</ele>
        <time>2021-05-29T12:35:33.506Z</time>
      </trkpt>
      <trkpt lat="46.65667" lon="5.59074">
        <ele>317</ele>
        <time>2021-05-29T12:35:34.506Z</time>
      </trkpt>
      <trkpt lat="46.65668" lon="5.59077">
        <ele>317</ele>
        <time>2021-05-29T12:35:35.505Z</time>
      </trkpt>
      <trkpt lat="46.6567" lon="5.59081">
        <ele>317</ele>
        <time>2021-05-29T12:35:36.506Z</time>
      </trkpt>
      <trkpt lat="46.6567" lon="5.59084">
        <ele>317</ele>
        <time>2021-05-29T12:35:37.506Z</time>
      </trkpt>
      <trkpt lat="46.65671" lon="5.59088">
        <ele>317</ele>
        <time>2021-05-29T12:35:38.505Z</time>
      </trkpt>
      <trkpt lat="46.65671" lon="5.59092">
        <ele>317</ele>
        <time>2021-05-29T12:35:39.506Z</time>
      </trkpt>
      <trkpt lat="46.65671" lon="5.59096">
        <ele>317</ele>
        <time>2021-05-29T12:35:40.506Z</time>
      </trkpt>
      <trkpt lat="46.65671" lon="5.59099">
        <ele>317</ele>
        <time>2021-05-29T12:35:41.505Z</time>
      </trkpt>
      <trkpt lat="46.6567" lon="5.59103">
        <ele>317</ele>
        <time>2021-05-29T12:35:42.506Z</time>
      </trkpt>
      <trkpt lat="46.6567" lon="5.59106">
        <ele>317</ele>
        <time>2021-05-29T12:35:43.506Z</time>
      </trkpt>
      <trkpt lat="46.65669" lon="5.59109">
        <ele>317</ele>
        <time>2021-05-29T12:35:44.506Z</time>
      </trkpt>
      <trkpt lat="46.65669" lon="5.59113">
        <ele>316</ele>
        <time>2021-05-29T12:35:45.505Z</time>
      </trkpt>
      <trkpt lat="46.65668" lon="5.59116">
        <ele>316</ele>
        <time>2021-05-29T12:35:46.505Z</time>
      </trkpt>
      <trkpt lat="46.65668" lon="5.59119">
        <ele>315</ele>
        <time>2021-05-29T12:35:47.506Z</time>
      </trkpt>
      <trkpt lat="46.65667" lon="5.59122">
        <ele>315</ele>
        <time>2021-05-29T12:35:48.506Z</time>
      </trkpt>
      <trkpt lat="46.65667" lon="5.59125">
        <ele>314</ele>
        <time>2021-05-29T12:35:49.506Z</time>
      </trkpt>
      <trkpt lat="46.65667" lon="5.59129">
        <ele>314</ele>
        <time>2021-05-29T12:35:50.506Z</time>
      </trkpt>
      <trkpt lat="46.65667" lon="5.59132">
        <ele>313</ele>
        <time>2021-05-29T12:35:51.506Z</time>
      </trkpt>
      <trkpt lat="46.65666" lon="5.59136">
        <ele>312</ele>
        <time>2021-05-29T12:35:52.506Z</time>
      </trkpt>
      <trkpt lat="46.65666" lon="5.5914">
        <ele>312</ele>
        <time>2021-05-29T12:35:53.506Z</time>
      </trkpt>
      <trkpt lat="46.65666" lon="5.59143">
        <ele>312</ele>
        <time>2021-05-29T12:35:54.506Z</time>
      </trkpt>
      <trkpt lat="46.65666" lon="5.59146">
        <ele>312</ele>
        <time>2021-05-29T12:35:55.506Z</time>
      </trkpt>
      <trkpt lat="46.65666" lon="5.59149">
        <ele>311</ele>
        <time>2021-05-29T12:35:56.506Z</time>
      </trkpt>
      <trkpt lat="46.65666" lon="5.59152">
        <ele>311</ele>
        <time>2021-05-29T12:35:57.506Z</time>
      </trkpt>
      <trkpt lat="46.65666" lon="5.59155">
        <ele>311</ele>
        <time>2021-05-29T12:35:58.505Z</time>
      </trkpt>
      <trkpt lat="46.65665" lon="5.59157">
        <ele>310</ele>
        <time>2021-05-29T12:35:59.505Z</time>
      </trkpt>
      <trkpt lat="46.65665" lon="5.5916">
        <ele>310</ele>
        <time>2021-05-29T12:36:00.505Z</time>
      </trkpt>
      <trkpt lat="46.65665" lon="5.59163">
        <ele>311</ele>
        <time>2021-05-29T12:36:01.506Z</time>
      </trkpt>
      <trkpt lat="46.65665" lon="5.59166">
        <ele>311</ele>
        <time>2021-05-29T12:36:02.506Z</time>
      </trkpt>
      <trkpt lat="46.65664" lon="5.5917">
        <ele>311</ele>
        <time>2021-05-29T12:36:03.505Z</time>
      </trkpt>
      <trkpt lat="46.65664" lon="5.59173">
        <ele>311</ele>
        <time>2021-05-29T12:36:04.505Z</time>
      </trkpt>
      <trkpt lat="46.65663" lon="5.59176">
        <ele>311</ele>
        <time>2021-05-29T12:36:05.506Z</time>
      </trkpt>
      <trkpt lat="46.65662" lon="5.59179">
        <ele>311</ele>
        <time>2021-05-29T12:36:06.505Z</time>
      </trkpt>
      <trkpt lat="46.65662" lon="5.59182">
        <ele>311</ele>
        <time>2021-05-29T12:36:07.505Z</time>
      </trkpt>
      <trkpt lat="46.65662" lon="5.59185">
        <ele>311</ele>
        <time>2021-05-29T12:36:08.506Z</time>
      </trkpt>
      <trkpt lat="46.65662" lon="5.59188">
        <ele>311</ele>
        <time>2021-05-29T12:36:09.506Z</time>
      </trkpt>
      <trkpt lat="46.65662" lon="5.59191">
        <ele>311</ele>
        <time>2021-05-29T12:36:10.506Z</time>
      </trkpt>
      <trkpt lat="46.65662" lon="5.59194">
        <ele>312</ele>
        <time>2021-05-29T12:36:11.506Z</time>
      </trkpt>
      <trkpt lat="46.65661" lon="5.59198">
        <ele>312</ele>
        <time>2021-05-29T12:36:12.506Z</time>
      </trkpt>
      <trkpt lat="46.65661" lon="5.59201">
        <ele>312</ele>
        <time>2021-05-29T12:36:13.506Z</time>
      </trkpt>
      <trkpt lat="46.65661" lon="5.59204">
        <ele>313</ele>
        <time>2021-05-29T12:36:14.505Z</time>
      </trkpt>
      <trkpt lat="46.65661" lon="5.59207">
        <ele>313</ele>
        <time>2021-05-29T12:36:15.506Z</time>
      </trkpt>
      <trkpt lat="46.6566" lon="5.5921">
        <ele>313</ele>
        <time>2021-05-29T12:36:16.506Z</time>
      </trkpt>
      <trkpt lat="46.6566" lon="5.59214">
        <ele>313</ele>
        <time>2021-05-29T12:36:17.505Z</time>
      </trkpt>
      <trkpt lat="46.6566" lon="5.59217">
        <ele>313</ele>
        <time>2021-05-29T12:36:18.506Z</time>
      </trkpt>
      <trkpt lat="46.6566" lon="5.5922">
        <ele>312</ele>
        <time>2021-05-29T12:36:19.506Z</time>
      </trkpt>
      <trkpt lat="46.65659" lon="5.59223">
        <ele>312</ele>
        <time>2021-05-29T12:36:20.506Z</time>
      </trkpt>
      <trkpt lat="46.65659" lon="5.59226">
        <ele>312</ele>
        <time>2021-05-29T12:36:21.506Z</time>
      </trkpt>
      <trkpt lat="46.65659" lon="5.5923">
        <ele>312</ele>
        <time>2021-05-29T12:36:22.506Z</time>
      </trkpt>
      <trkpt lat="46.65659" lon="5.59233">
        <ele>312</ele>
        <time>2021-05-29T12:36:23.506Z</time>
      </trkpt>
      <trkpt lat="46.65658" lon="5.59236">
        <ele>313</ele>
        <time>2021-05-29T12:36:24.506Z</time>
      </trkpt>
      <trkpt lat="46.65658" lon="5.59239">
        <ele>314</ele>
        <time>2021-05-29T12:36:25.506Z</time>
      </trkpt>
      <trkpt lat="46.65658" lon="5.59242">
        <ele>314</ele>
        <time>2021-05-29T12:36:26.505Z</time>
      </trkpt>
      <trkpt lat="46.65658" lon="5.59246">
        <ele>314</ele>
        <time>2021-05-29T12:36:27.506Z</time>
      </trkpt>
      <trkpt lat="46.65658" lon="5.59249">
        <ele>314</ele>
        <time>2021-05-29T12:36:28.505Z</time>
      </trkpt>
      <trkpt lat="46.65657" lon="5.59252">
        <ele>313</ele>
        <time>2021-05-29T12:36:29.506Z</time>
      </trkpt>
      <trkpt lat="46.65656" lon="5.59256">
        <ele>313</ele>
        <time>2021-05-29T12:36:30.506Z</time>
      </trkpt>
      <trkpt lat="46.65656" lon="5.59259">
        <ele>312</ele>
        <time>2021-05-29T12:36:31.506Z</time>
      </trkpt>
      <trkpt lat="46.65656" lon="5.59263">
        <ele>312</ele>
        <time>2021-05-29T12:36:32.506Z</time>
      </trkpt>
      <trkpt lat="46.65655" lon="5.59266">
        <ele>312</ele>
        <time>2021-05-29T12:36:33.506Z</time>
      </trkpt>
      <trkpt lat="46.65654" lon="5.5927">
        <ele>311</ele>
        <time>2021-05-29T12:36:34.506Z</time>
      </trkpt>
      <trkpt lat="46.65654" lon="5.59273">
        <ele>311</ele>
        <time>2021-05-29T12:36:35.506Z</time>
      </trkpt>
      <trkpt lat="46.65653" lon="5.59277">
        <ele>310</ele>
        <time>2021-05-29T12:36:36.506Z</time>
      </trkpt>
      <trkpt lat="46.65653" lon="5.5928">
        <ele>310</ele>
        <time>2021-05-29T12:36:37.506Z</time>
      </trkpt>
      <trkpt lat="46.65652" lon="5.59284">
        <ele>310</ele>
        <time>2021-05-29T12:36:38.505Z</time>
      </trkpt>
      <trkpt lat="46.65652" lon="5.59287">
        <ele>310</ele>
        <time>2021-05-29T12:36:39.506Z</time>
      </trkpt>
      <trkpt lat="46.65651" lon="5.59291">
        <ele>311</ele>
        <time>2021-05-29T12:36:40.506Z</time>
      </trkpt>
      <trkpt lat="46.65651" lon="5.59294">
        <ele>311</ele>
        <time>2021-05-29T12:36:41.506Z</time>
      </trkpt>
      <trkpt lat="46.6565" lon="5.59297">
        <ele>311</ele>
        <time>2021-05-29T12:36:42.506Z</time>
      </trkpt>
      <trkpt lat="46.6565" lon="5.593">
        <ele>311</ele>
        <time>2021-05-29T12:36:43.506Z</time>
      </trkpt>
      <trkpt lat="46.65649" lon="5.59304">
        <ele>311</ele>
        <time>2021-05-29T12:36:44.506Z</time>
      </trkpt>
      <trkpt lat="46.65649" lon="5.59307">
        <ele>311</ele>
        <time>2021-05-29T12:36:45.506Z</time>
      </trkpt>
      <trkpt lat="46.65648" lon="5.5931">
        <ele>310</ele>
        <time>2021-05-29T12:36:46.506Z</time>
      </trkpt>
      <trkpt lat="46.65647" lon="5.59313">
        <ele>310</ele>
        <time>2021-05-29T12:36:47.506Z</time>
      </trkpt>
      <trkpt lat="46.65646" lon="5.59316">
        <ele>309</ele>
        <time>2021-05-29T12:36:48.506Z</time>
      </trkpt>
      <trkpt lat="46.65645" lon="5.59319">
        <ele>309</ele>
        <time>2021-05-29T12:36:49.506Z</time>
      </trkpt>
      <trkpt lat="46.65644" lon="5.59322">
        <ele>309</ele>
        <time>2021-05-29T12:36:50.506Z</time>
      </trkpt>
      <trkpt lat="46.65643" lon="5.59326">
        <ele>308</ele>
        <time>2021-05-29T12:36:51.505Z</time>
      </trkpt>
      <trkpt lat="46.65643" lon="5.59329">
        <ele>308</ele>
        <time>2021-05-29T12:36:52.506Z</time>
      </trkpt>
      <trkpt lat="46.65642" lon="5.59332">
        <ele>308</ele>
        <time>2021-05-29T12:36:53.506Z</time>
      </trkpt>
      <trkpt lat="46.65641" lon="5.59335">
        <ele>308</ele>
        <time>2021-05-29T12:36:54.505Z</time>
      </trkpt>
      <trkpt lat="46.6564" lon="5.59338">
        <ele>308</ele>
        <time>2021-05-29T12:36:55.506Z</time>
      </trkpt>
      <trkpt lat="46.6564" lon="5.59341">
        <ele>308</ele>
        <time>2021-05-29T12:36:56.505Z</time>
      </trkpt>
      <trkpt lat="46.65639" lon="5.59344">
        <ele>308</ele>
        <time>2021-05-29T12:36:57.506Z</time>
      </trkpt>
      <trkpt lat="46.65638" lon="5.59346">
        <ele>308</ele>
        <time>2021-05-29T12:36:58.506Z</time>
      </trkpt>
      <trkpt lat="46.65637" lon="5.59349">
        <ele>309</ele>
        <time>2021-05-29T12:36:59.506Z</time>
      </trkpt>
      <trkpt lat="46.65636" lon="5.59352">
        <ele>309</ele>
        <time>2021-05-29T12:37:00.506Z</time>
      </trkpt>
      <trkpt lat="46.65635" lon="5.59355">
        <ele>309</ele>
        <time>2021-05-29T12:37:01.506Z</time>
      </trkpt>
      <trkpt lat="46.65634" lon="5.59358">
        <ele>310</ele>
        <time>2021-05-29T12:37:02.506Z</time>
      </trkpt>
      <trkpt lat="46.65632" lon="5.5936">
        <ele>310</ele>
        <time>2021-05-29T12:37:03.506Z</time>
      </trkpt>
      <trkpt lat="46.65631" lon="5.59363">
        <ele>310</ele>
        <time>2021-05-29T12:37:04.506Z</time>
      </trkpt>
      <trkpt lat="46.6563" lon="5.59366">
        <ele>310</ele>
        <time>2021-05-29T12:37:05.506Z</time>
      </trkpt>
      <trkpt lat="46.65628" lon="5.59369">
        <ele>310</ele>
        <time>2021-05-29T12:37:06.506Z</time>
      </trkpt>
      <trkpt lat="46.65627" lon="5.59372">
        <ele>311</ele>
        <time>2021-05-29T12:37:07.506Z</time>
      </trkpt>
      <trkpt lat="46.65626" lon="5.59375">
        <ele>311</ele>
        <time>2021-05-29T12:37:08.506Z</time>
      </trkpt>
      <trkpt lat="46.65624" lon="5.59378">
        <ele>311</ele>
        <time>2021-05-29T12:37:09.506Z</time>
      </trkpt>
      <trkpt lat="46.65623" lon="5.5938">
        <ele>311</ele>
        <time>2021-05-29T12:37:10.506Z</time>
      </trkpt>
      <trkpt lat="46.65622" lon="5.59383">
        <ele>311</ele>
        <time>2021-05-29T12:37:11.506Z</time>
      </trkpt>
      <trkpt lat="46.6562" lon="5.59385">
        <ele>310</ele>
        <time>2021-05-29T12:37:12.506Z</time>
      </trkpt>
      <trkpt lat="46.65619" lon="5.59388">
        <ele>310</ele>
        <time>2021-05-29T12:37:13.506Z</time>
      </trkpt>
      <trkpt lat="46.65617" lon="5.5939">
        <ele>309</ele>
        <time>2021-05-29T12:37:14.506Z</time>
      </trkpt>
      <trkpt lat="46.65616" lon="5.59393">
        <ele>309</ele>
        <time>2021-05-29T12:37:15.506Z</time>
      </trkpt>
      <trkpt lat="46.65615" lon="5.59396">
        <ele>309</ele>
        <time>2021-05-29T12:37:16.506Z</time>
      </trkpt>
      <trkpt lat="46.65613" lon="5.59399">
        <ele>309</ele>
        <time>2021-05-29T12:37:17.506Z</time>
      </trkpt>
      <trkpt lat="46.65611" lon="5.59401">
        <ele>308</ele>
        <time>2021-05-29T12:37:18.506Z</time>
      </trkpt>
      <trkpt lat="46.6561" lon="5.59404">
        <ele>308</ele>
        <time>2021-05-29T12:37:19.506Z</time>
      </trkpt>
      <trkpt lat="46.65608" lon="5.59407">
        <ele>308</ele>
        <time>2021-05-29T12:37:20.505Z</time>
      </trkpt>
      <trkpt lat="46.65607" lon="5.59409">
        <ele>308</ele>
        <time>2021-05-29T12:37:21.505Z</time>
      </trkpt>
      <trkpt lat="46.65605" lon="5.59411">
        <ele>309</ele>
        <time>2021-05-29T12:37:22.506Z</time>
      </trkpt>
      <trkpt lat="46.65604" lon="5.59414">
        <ele>309</ele>
        <time>2021-05-29T12:37:23.506Z</time>
      </trkpt>
      <trkpt lat="46.65602" lon="5.59416">
        <ele>310</ele>
        <time>2021-05-29T12:37:24.505Z</time>
      </trkpt>
      <trkpt lat="46.65601" lon="5.59418">
        <ele>310</ele>
        <time>2021-05-29T12:37:25.506Z</time>
      </trkpt>
      <trkpt lat="46.65599" lon="5.5942">
        <ele>310</ele>
        <time>2021-05-29T12:37:26.506Z</time>
      </trkpt>
      <trkpt lat="46.65598" lon="5.59422">
        <ele>311</ele>
        <time>2021-05-29T12:37:27.506Z</time>
      </trkpt>
      <trkpt lat="46.65596" lon="5.59424">
        <ele>311</ele>
        <time>2021-05-29T12:37:28.506Z</time>
      </trkpt>
      <trkpt lat="46.65595" lon="5.59426">
        <ele>311</ele>
        <time>2021-05-29T12:37:29.506Z</time>
      </trkpt>
      <trkpt lat="46.65593" lon="5.59428">
        <ele>311</ele>
        <time>2021-05-29T12:37:30.505Z</time>
      </trkpt>
      <trkpt lat="46.65591" lon="5.5943">
        <ele>310</ele>
        <time>2021-05-29T12:37:31.506Z</time>
      </trkpt>
      <trkpt lat="46.65589" lon="5.59433">
        <ele>310</ele>
        <time>2021-05-29T12:37:32.506Z</time>
      </trkpt>
      <trkpt lat="46.65588" lon="5.59435">
        <ele>309</ele>
        <time>2021-05-29T12:37:33.506Z</time>
      </trkpt>
      <trkpt lat="46.65586" lon="5.59437">
        <ele>308</ele>
        <time>2021-05-29T12:37:34.506Z</time>
      </trkpt>
      <trkpt lat="46.65585" lon="5.59439">
        <ele>308</ele>
        <time>2021-05-29T12:37:35.506Z</time>
      </trkpt>
      <trkpt lat="46.65583" lon="5.59442">
        <ele>308</ele>
        <time>2021-05-29T12:37:36.506Z</time>
      </trkpt>
      <trkpt lat="46.65581" lon="5.59444">
        <ele>308</ele>
        <time>2021-05-29T12:37:37.506Z</time>
      </trkpt>
      <trkpt lat="46.65579" lon="5.59446">
        <ele>307</ele>
        <time>2021-05-29T12:37:38.506Z</time>
      </trkpt>
      <trkpt lat="46.65578" lon="5.59449">
        <ele>308</ele>
        <time>2021-05-29T12:37:39.506Z</time>
      </trkpt>
      <trkpt lat="46.65576" lon="5.59451">
        <ele>308</ele>
        <time>2021-05-29T12:37:40.505Z</time>
      </trkpt>
      <trkpt lat="46.65575" lon="5.59453">
        <ele>309</ele>
        <time>2021-05-29T12:37:41.506Z</time>
      </trkpt>
      <trkpt lat="46.65574" lon="5.59455">
        <ele>309</ele>
        <time>2021-05-29T12:37:42.506Z</time>
      </trkpt>
      <trkpt lat="46.65573" lon="5.59456">
        <ele>310</ele>
        <time>2021-05-29T12:37:43.505Z</time>
      </trkpt>
      <trkpt lat="46.65571" lon="5.59458">
        <ele>310</ele>
        <time>2021-05-29T12:37:44.506Z</time>
      </trkpt>
      <trkpt lat="46.6557" lon="5.5946">
        <ele>310</ele>
        <time>2021-05-29T12:37:45.505Z</time>
      </trkpt>
      <trkpt lat="46.65568" lon="5.59462">
        <ele>310</ele>
        <time>2021-05-29T12:37:46.506Z</time>
      </trkpt>
      <trkpt lat="46.65566" lon="5.59464">
        <ele>310</ele>
        <time>2021-05-29T12:37:47.506Z</time>
      </trkpt>
      <trkpt lat="46.65565" lon="5.59467">
        <ele>310</ele>
        <time>2021-05-29T12:37:48.505Z</time>
      </trkpt>
      <trkpt lat="46.65563" lon="5.59469">
        <ele>310</ele>
        <time>2021-05-29T12:37:49.506Z</time>
      </trkpt>
      <trkpt lat="46.65561" lon="5.59471">
        <ele>310</ele>
        <time>2021-05-29T12:37:50.506Z</time>
      </trkpt>
      <trkpt lat="46.6556" lon="5.59473">
        <ele>310</ele>
        <time>2021-05-29T12:37:51.505Z</time>
      </trkpt>
      <trkpt lat="46.65558" lon="5.59476">
        <ele>311</ele>
        <time>2021-05-29T12:37:52.506Z</time>
      </trkpt>
      <trkpt lat="46.65556" lon="5.59478">
        <ele>311</ele>
        <time>2021-05-29T12:37:53.505Z</time>
      </trkpt>
      <trkpt lat="46.65555" lon="5.59481">
        <ele>311</ele>
        <time>2021-05-29T12:37:54.505Z</time>
      </trkpt>
      <trkpt lat="46.65553" lon="5.59484">
        <ele>311</ele>
        <time>2021-05-29T12:37:55.506Z</time>
      </trkpt>
      <trkpt lat="46.65552" lon="5.59486">
        <ele>311</ele>
        <time>2021-05-29T12:37:56.505Z</time>
      </trkpt>
      <trkpt lat="46.6555" lon="5.59488">
        <ele>311</ele>
        <time>2021-05-29T12:37:57.506Z</time>
      </trkpt>
      <trkpt lat="46.65549" lon="5.59491">
        <ele>311</ele>
        <time>2021-05-29T12:37:58.506Z</time>
      </trkpt>
      <trkpt lat="46.65547" lon="5.59493">
        <ele>311</ele>
        <time>2021-05-29T12:37:59.506Z</time>
      </trkpt>
      <trkpt lat="46.65546" lon="5.59495">
        <ele>311</ele>
        <time>2021-05-29T12:38:00.506Z</time>
      </trkpt>
      <trkpt lat="46.65544" lon="5.59497">
        <ele>311</ele>
        <time>2021-05-29T12:38:01.506Z</time>
      </trkpt>
      <trkpt lat="46.65542" lon="5.595">
        <ele>311</ele>
        <time>2021-05-29T12:38:02.506Z</time>
      </trkpt>
      <trkpt lat="46.65541" lon="5.59502">
        <ele>311</ele>
        <time>2021-05-29T12:38:03.506Z</time>
      </trkpt>
      <trkpt lat="46.65539" lon="5.59504">
        <ele>311</ele>
        <time>2021-05-29T12:38:04.506Z</time>
      </trkpt>
      <trkpt lat="46.65538" lon="5.59507">
        <ele>311</ele>
        <time>2021-05-29T12:38:05.506Z</time>
      </trkpt>
      <trkpt lat="46.65536" lon="5.59509">
        <ele>311</ele>
        <time>2021-05-29T12:38:06.506Z</time>
      </trkpt>
      <trkpt lat="46.65535" lon="5.59511">
        <ele>311</ele>
        <time>2021-05-29T12:41:03.171Z</time>
      </trkpt>
      <trkpt lat="46.65533" lon="5.59514">
        <ele>311</ele>
        <time>2021-05-29T12:41:04.171Z</time>
      </trkpt>
      <trkpt lat="46.65531" lon="5.59516">
        <ele>312</ele>
        <time>2021-05-29T12:41:05.171Z</time>
      </trkpt>
      <trkpt lat="46.6553" lon="5.59519">
        <ele>312</ele>
        <time>2021-05-29T12:41:06.171Z</time>
      </trkpt>
      <trkpt lat="46.65528" lon="5.59521">
        <ele>312</ele>
        <time>2021-05-29T12:41:07.171Z</time>
      </trkpt>
      <trkpt lat="46.65526" lon="5.59524">
        <ele>312</ele>
        <time>2021-05-29T12:41:08.171Z</time>
      </trkpt>
      <trkpt lat="46.65524" lon="5.59526">
        <ele>311</ele>
        <time>2021-05-29T12:41:09.171Z</time>
      </trkpt>
      <trkpt lat="46.65523" lon="5.59529">
        <ele>311</ele>
        <time>2021-05-29T12:41:10.171Z</time>
      </trkpt>
      <trkpt lat="46.65521" lon="5.59531">
        <ele>311</ele>
        <time>2021-05-29T12:41:11.171Z</time>
      </trkpt>
      <trkpt lat="46.6552" lon="5.59534">
        <ele>311</ele>
        <time>2021-05-29T12:41:12.170Z</time>
      </trkpt>
      <trkpt lat="46.65518" lon="5.59536">
        <ele>311</ele>
        <time>2021-05-29T12:41:13.171Z</time>
      </trkpt>
      <trkpt lat="46.65516" lon="5.59538">
        <ele>311</ele>
        <time>2021-05-29T12:41:14.171Z</time>
      </trkpt>
      <trkpt lat="46.65515" lon="5.59541">
        <ele>311</ele>
        <time>2021-05-29T12:41:15.171Z</time>
      </trkpt>
      <trkpt lat="46.65513" lon="5.59543">
        <ele>311</ele>
        <time>2021-05-29T12:41:16.171Z</time>
      </trkpt>
      <trkpt lat="46.65511" lon="5.59546">
        <ele>311</ele>
        <time>2021-05-29T12:41:17.171Z</time>
      </trkpt>
      <trkpt lat="46.65509" lon="5.59548">
        <ele>311</ele>
        <time>2021-05-29T12:41:18.171Z</time>
      </trkpt>
      <trkpt lat="46.65508" lon="5.59551">
        <ele>312</ele>
        <time>2021-05-29T12:41:19.171Z</time>
      </trkpt>
      <trkpt lat="46.65506" lon="5.59553">
        <ele>312</ele>
        <time>2021-05-29T12:41:20.171Z</time>
      </trkpt>
      <trkpt lat="46.65504" lon="5.59556">
        <ele>312</ele>
        <time>2021-05-29T12:41:21.171Z</time>
      </trkpt>
      <trkpt lat="46.65503" lon="5.59558">
        <ele>313</ele>
        <time>2021-05-29T12:41:22.171Z</time>
      </trkpt>
      <trkpt lat="46.65501" lon="5.5956">
        <ele>313</ele>
        <time>2021-05-29T12:41:23.171Z</time>
      </trkpt>
      <trkpt lat="46.65499" lon="5.59563">
        <ele>313</ele>
        <time>2021-05-29T12:41:24.171Z</time>
      </trkpt>
      <trkpt lat="46.65498" lon="5.59565">
        <ele>313</ele>
        <time>2021-05-29T12:41:25.171Z</time>
      </trkpt>
      <trkpt lat="46.65497" lon="5.59567">
        <ele>313</ele>
        <time>2021-05-29T12:41:26.171Z</time>
      </trkpt>
      <trkpt lat="46.65495" lon="5.5957">
        <ele>313</ele>
        <time>2021-05-29T12:41:27.171Z</time>
      </trkpt>
      <trkpt lat="46.65494" lon="5.59572">
        <ele>313</ele>
        <time>2021-05-29T12:41:28.171Z</time>
      </trkpt>
      <trkpt lat="46.65493" lon="5.59575">
        <ele>312</ele>
        <time>2021-05-29T12:41:29.170Z</time>
      </trkpt>
      <trkpt lat="46.65492" lon="5.59578">
        <ele>312</ele>
        <time>2021-05-29T12:41:30.171Z</time>
      </trkpt>
      <trkpt lat="46.65491" lon="5.59581">
        <ele>312</ele>
        <time>2021-05-29T12:41:31.171Z</time>
      </trkpt>
      <trkpt lat="46.65491" lon="5.59584">
        <ele>312</ele>
        <time>2021-05-29T12:41:32.171Z</time>
      </trkpt>
      <trkpt lat="46.6549" lon="5.59588">
        <ele>313</ele>
        <time>2021-05-29T12:41:33.171Z</time>
      </trkpt>
      <trkpt lat="46.65489" lon="5.59591">
        <ele>313</ele>
        <time>2021-05-29T12:41:34.171Z</time>
      </trkpt>
      <trkpt lat="46.65489" lon="5.59594">
        <ele>314</ele>
        <time>2021-05-29T12:41:35.170Z</time>
      </trkpt>
      <trkpt lat="46.65487" lon="5.59598">
        <ele>314</ele>
        <time>2021-05-29T12:41:36.171Z</time>
      </trkpt>
      <trkpt lat="46.65486" lon="5.596">
        <ele>314</ele>
        <time>2021-05-29T12:41:37.171Z</time>
      </trkpt>
      <trkpt lat="46.65484" lon="5.59603">
        <ele>314</ele>
        <time>2021-05-29T12:41:38.171Z</time>
      </trkpt>
      <trkpt lat="46.65483" lon="5.59605">
        <ele>313</ele>
        <time>2021-05-29T12:41:39.171Z</time>
      </trkpt>
      <trkpt lat="46.65481" lon="5.59607">
        <ele>313</ele>
        <time>2021-05-29T12:41:40.171Z</time>
      </trkpt>
      <trkpt lat="46.65479" lon="5.5961">
        <ele>312</ele>
        <time>2021-05-29T12:41:41.171Z</time>
      </trkpt>
      <trkpt lat="46.65477" lon="5.59612">
        <ele>312</ele>
        <time>2021-05-29T12:41:42.171Z</time>
      </trkpt>
      <trkpt lat="46.65475" lon="5.59614">
        <ele>312</ele>
        <time>2021-05-29T12:41:43.171Z</time>
      </trkpt>
      <trkpt lat="46.65473" lon="5.59617">
        <ele>311</ele>
        <time>2021-05-29T12:41:44.171Z</time>
      </trkpt>
      <trkpt lat="46.65471" lon="5.59618">
        <ele>311</ele>
        <time>2021-05-29T12:41:45.170Z</time>
      </trkpt>
      <trkpt lat="46.65469" lon="5.5962">
        <ele>311</ele>
        <time>2021-05-29T12:41:46.171Z</time>
      </trkpt>
      <trkpt lat="46.65467" lon="5.59622">
        <ele>311</ele>
        <time>2021-05-29T12:41:47.171Z</time>
      </trkpt>
      <trkpt lat="46.65464" lon="5.59624">
        <ele>311</ele>
        <time>2021-05-29T12:41:48.171Z</time>
      </trkpt>
      <trkpt lat="46.65462" lon="5.59626">
        <ele>311</ele>
        <time>2021-05-29T12:41:49.171Z</time>
      </trkpt>
      <trkpt lat="46.6546" lon="5.59628">
        <ele>311</ele>
        <time>2021-05-29T12:41:50.171Z</time>
      </trkpt>
      <trkpt lat="46.65458" lon="5.59629">
        <ele>312</ele>
        <time>2021-05-29T12:41:51.171Z</time>
      </trkpt>
      <trkpt lat="46.65455" lon="5.59631">
        <ele>312</ele>
        <time>2021-05-29T12:41:52.170Z</time>
      </trkpt>
      <trkpt lat="46.65453" lon="5.59633">
        <ele>312</ele>
        <time>2021-05-29T12:41:53.171Z</time>
      </trkpt>
      <trkpt lat="46.65451" lon="5.59635">
        <ele>312</ele>
        <time>2021-05-29T12:41:54.171Z</time>
      </trkpt>
      <trkpt lat="46.65449" lon="5.59637">
        <ele>312</ele>
        <time>2021-05-29T12:41:55.171Z</time>
      </trkpt>
      <trkpt lat="46.65447" lon="5.59639">
        <ele>312</ele>
        <time>2021-05-29T12:41:56.171Z</time>
      </trkpt>
      <trkpt lat="46.65446" lon="5.59641">
        <ele>312</ele>
        <time>2021-05-29T12:41:57.171Z</time>
      </trkpt>
      <trkpt lat="46.65444" lon="5.59643">
        <ele>312</ele>
        <time>2021-05-29T12:41:58.171Z</time>
      </trkpt>
      <trkpt lat="46.65442" lon="5.59645">
        <ele>311</ele>
        <time>2021-05-29T12:41:59.171Z</time>
      </trkpt>
      <trkpt lat="46.6544" lon="5.59648">
        <ele>311</ele>
        <time>2021-05-29T12:42:00.171Z</time>
      </trkpt>
      <trkpt lat="46.65438" lon="5.5965">
        <ele>311</ele>
        <time>2021-05-29T12:42:01.170Z</time>
      </trkpt>
      <trkpt lat="46.65437" lon="5.59652">
        <ele>311</ele>
        <time>2021-05-29T12:42:02.171Z</time>
      </trkpt>
      <trkpt lat="46.65435" lon="5.59654">
        <ele>311</ele>
        <time>2021-05-29T12:42:03.170Z</time>
      </trkpt>
      <trkpt lat="46.65434" lon="5.59655">
        <ele>311</ele>
        <time>2021-05-29T12:42:04.171Z</time>
      </trkpt>
      <trkpt lat="46.65433" lon="5.59656">
        <ele>311</ele>
        <time>2021-05-29T12:42:05.170Z</time>
      </trkpt>
      <trkpt lat="46.65433" lon="5.59656">
        <ele>311</ele>
        <time>2021-05-29T12:42:06.171Z</time>
      </trkpt>
      <trkpt lat="46.65433" lon="5.59656">
        <ele>311</ele>
        <time>2021-05-29T12:42:07.171Z</time>
      </trkpt>
      <trkpt lat="46.65434" lon="5.59656">
        <ele>311</ele>
        <time>2021-05-29T12:42:08.170Z</time>
      </trkpt>
      <trkpt lat="46.65435" lon="5.59655">
        <ele>311</ele>
        <time>2021-05-29T12:42:09.171Z</time>
      </trkpt>
      <trkpt lat="46.65436" lon="5.59655">
        <ele>312</ele>
        <time>2021-05-29T12:42:10.171Z</time>
      </trkpt>
      <trkpt lat="46.65437" lon="5.59655">
        <ele>312</ele>
        <time>2021-05-29T12:42:11.171Z</time>
      </trkpt>
      <trkpt lat="46.65438" lon="5.59656">
        <ele>312</ele>
        <time>2021-05-29T12:42:12.171Z</time>
      </trkpt>
      <trkpt lat="46.6544" lon="5.59658">
        <ele>313</ele>
        <time>2021-05-29T12:42:13.171Z</time>
      </trkpt>
      <trkpt lat="46.65442" lon="5.5966">
        <ele>313</ele>
        <time>2021-05-29T12:42:14.171Z</time>
      </trkpt>
      <trkpt lat="46.65443" lon="5.59662">
        <ele>313</ele>
        <time>2021-05-29T12:42:15.171Z</time>
      </trkpt>
      <trkpt lat="46.65445" lon="5.59665">
        <ele>313</ele>
        <time>2021-05-29T12:42:16.171Z</time>
      </trkpt>
      <trkpt lat="46.65447" lon="5.59668">
        <ele>313</ele>
        <time>2021-05-29T12:42:17.171Z</time>
      </trkpt>
      <trkpt lat="46.65449" lon="5.5967">
        <ele>313</ele>
        <time>2021-05-29T12:42:18.170Z</time>
      </trkpt>
      <trkpt lat="46.65451" lon="5.59673">
        <ele>313</ele>
        <time>2021-05-29T12:42:19.170Z</time>
      </trkpt>
      <trkpt lat="46.65452" lon="5.59676">
        <ele>313</ele>
        <time>2021-05-29T12:42:20.170Z</time>
      </trkpt>
      <trkpt lat="46.65453" lon="5.59679">
        <ele>313</ele>
        <time>2021-05-29T12:42:21.170Z</time>
      </trkpt>
      <trkpt lat="46.65453" lon="5.59683">
        <ele>313</ele>
        <time>2021-05-29T12:42:22.170Z</time>
      </trkpt>
      <trkpt lat="46.65452" lon="5.59686">
        <ele>313</ele>
        <time>2021-05-29T12:42:23.170Z</time>
      </trkpt>
      <trkpt lat="46.6545" lon="5.59689">
        <ele>313</ele>
        <time>2021-05-29T12:42:24.171Z</time>
      </trkpt>
      <trkpt lat="46.65449" lon="5.59691">
        <ele>313</ele>
        <time>2021-05-29T12:42:25.171Z</time>
      </trkpt>
      <trkpt lat="46.65447" lon="5.59694">
        <ele>313</ele>
        <time>2021-05-29T12:42:26.170Z</time>
      </trkpt>
      <trkpt lat="46.65446" lon="5.59696">
        <ele>313</ele>
        <time>2021-05-29T12:42:27.171Z</time>
      </trkpt>
      <trkpt lat="46.65445" lon="5.59698">
        <ele>312</ele>
        <time>2021-05-29T12:42:28.171Z</time>
      </trkpt>
      <trkpt lat="46.65444" lon="5.597">
        <ele>312</ele>
        <time>2021-05-29T12:42:29.171Z</time>
      </trkpt>
      <trkpt lat="46.65443" lon="5.59702">
        <ele>312</ele>
        <time>2021-05-29T12:42:30.171Z</time>
      </trkpt>
      <trkpt lat="46.65443" lon="5.59704">
        <ele>312</ele>
        <time>2021-05-29T12:42:31.171Z</time>
      </trkpt>
      <trkpt lat="46.65442" lon="5.59707">
        <ele>312</ele>
        <time>2021-05-29T12:42:32.171Z</time>
      </trkpt>
      <trkpt lat="46.65442" lon="5.59709">
        <ele>311</ele>
        <time>2021-05-29T12:42:33.171Z</time>
      </trkpt>
      <trkpt lat="46.65442" lon="5.59711">
        <ele>311</ele>
        <time>2021-05-29T12:42:34.171Z</time>
      </trkpt>
      <trkpt lat="46.65442" lon="5.59714">
        <ele>310</ele>
        <time>2021-05-29T12:42:35.171Z</time>
      </trkpt>
      <trkpt lat="46.65442" lon="5.59717">
        <ele>310</ele>
        <time>2021-05-29T12:42:36.171Z</time>
      </trkpt>
      <trkpt lat="46.65442" lon="5.5972">
        <ele>310</ele>
        <time>2021-05-29T12:42:37.171Z</time>
      </trkpt>
      <trkpt lat="46.65442" lon="5.59722">
        <ele>310</ele>
        <time>2021-05-29T12:42:38.171Z</time>
      </trkpt>
      <trkpt lat="46.65442" lon="5.59725">
        <ele>310</ele>
        <time>2021-05-29T12:42:39.171Z</time>
      </trkpt>
      <trkpt lat="46.65442" lon="5.59728">
        <ele>310</ele>
        <time>2021-05-29T12:42:40.170Z</time>
      </trkpt>
      <trkpt lat="46.65442" lon="5.59731">
        <ele>310</ele>
        <time>2021-05-29T12:42:41.171Z</time>
      </trkpt>
      <trkpt lat="46.65441" lon="5.59734">
        <ele>310</ele>
        <time>2021-05-29T12:42:42.171Z</time>
      </trkpt>
      <trkpt lat="46.65441" lon="5.59737">
        <ele>310</ele>
        <time>2021-05-29T12:42:43.171Z</time>
      </trkpt>
      <trkpt lat="46.65441" lon="5.59741">
        <ele>310</ele>
        <time>2021-05-29T12:42:44.171Z</time>
      </trkpt>
      <trkpt lat="46.65441" lon="5.59744">
        <ele>310</ele>
        <time>2021-05-29T12:42:45.171Z</time>
      </trkpt>
      <trkpt lat="46.6544" lon="5.59748">
        <ele>310</ele>
        <time>2021-05-29T12:42:46.171Z</time>
      </trkpt>
      <trkpt lat="46.6544" lon="5.59751">
        <ele>310</ele>
        <time>2021-05-29T12:42:47.171Z</time>
      </trkpt>
      <trkpt lat="46.65439" lon="5.59755">
        <ele>311</ele>
        <time>2021-05-29T12:42:48.171Z</time>
      </trkpt>
      <trkpt lat="46.65439" lon="5.59758">
        <ele>311</ele>
        <time>2021-05-29T12:42:49.171Z</time>
      </trkpt>
      <trkpt lat="46.65438" lon="5.59762">
        <ele>311</ele>
        <time>2021-05-29T12:42:50.171Z</time>
      </trkpt>
      <trkpt lat="46.65438" lon="5.59765">
        <ele>312</ele>
        <time>2021-05-29T12:42:51.171Z</time>
      </trkpt>
      <trkpt lat="46.65437" lon="5.59769">
        <ele>312</ele>
        <time>2021-05-29T12:42:52.170Z</time>
      </trkpt>
      <trkpt lat="46.65437" lon="5.59773">
        <ele>312</ele>
        <time>2021-05-29T12:42:53.171Z</time>
      </trkpt>
      <trkpt lat="46.65437" lon="5.59776">
        <ele>312</ele>
        <time>2021-05-29T12:42:54.171Z</time>
      </trkpt>
      <trkpt lat="46.65437" lon="5.5978">
        <ele>313</ele>
        <time>2021-05-29T12:42:55.171Z</time>
      </trkpt>
      <trkpt lat="46.65437" lon="5.59783">
        <ele>313</ele>
        <time>2021-05-29T12:42:56.171Z</time>
      </trkpt>
      <trkpt lat="46.65438" lon="5.59787">
        <ele>312</ele>
        <time>2021-05-29T12:42:57.171Z</time>
      </trkpt>
      <trkpt lat="46.65439" lon="5.59789">
        <ele>312</ele>
        <time>2021-05-29T12:42:58.171Z</time>
      </trkpt>
      <trkpt lat="46.6544" lon="5.59791">
        <ele>312</ele>
        <time>2021-05-29T12:42:59.170Z</time>
      </trkpt>
      <trkpt lat="46.6544" lon="5.59795">
        <ele>311</ele>
        <time>2021-05-29T12:43:00.171Z</time>
      </trkpt>
      <trkpt lat="46.6544" lon="5.59798">
        <ele>311</ele>
        <time>2021-05-29T12:43:01.171Z</time>
      </trkpt>
      <trkpt lat="46.65441" lon="5.598">
        <ele>311</ele>
        <time>2021-05-29T12:43:02.171Z</time>
      </trkpt>
      <trkpt lat="46.65442" lon="5.59802">
        <ele>311</ele>
        <time>2021-05-29T12:43:03.171Z</time>
      </trkpt>
      <trkpt lat="46.65443" lon="5.59804">
        <ele>310</ele>
        <time>2021-05-29T12:43:04.171Z</time>
      </trkpt>
      <trkpt lat="46.65444" lon="5.59806">
        <ele>310</ele>
        <time>2021-05-29T12:43:05.171Z</time>
      </trkpt>
      <trkpt lat="46.65446" lon="5.59807">
        <ele>309</ele>
        <time>2021-05-29T12:43:06.171Z</time>
      </trkpt>
      <trkpt lat="46.65447" lon="5.59808">
        <ele>309</ele>
        <time>2021-05-29T12:43:07.170Z</time>
      </trkpt>
      <trkpt lat="46.65448" lon="5.59811">
        <ele>309</ele>
        <time>2021-05-29T12:43:08.171Z</time>
      </trkpt>
      <trkpt lat="46.65449" lon="5.59813">
        <ele>309</ele>
        <time>2021-05-29T12:43:09.170Z</time>
      </trkpt>
      <trkpt lat="46.65449" lon="5.59815">
        <ele>309</ele>
        <time>2021-05-29T12:43:10.171Z</time>
      </trkpt>
      <trkpt lat="46.6545" lon="5.59817">
        <ele>309</ele>
        <time>2021-05-29T12:43:11.171Z</time>
      </trkpt>
      <trkpt lat="46.65451" lon="5.59819">
        <ele>309</ele>
        <time>2021-05-29T12:43:12.171Z</time>
      </trkpt>
      <trkpt lat="46.65452" lon="5.59821">
        <ele>309</ele>
        <time>2021-05-29T12:43:13.171Z</time>
      </trkpt>
      <trkpt lat="46.65453" lon="5.59823">
        <ele>309</ele>
        <time>2021-05-29T12:43:14.170Z</time>
      </trkpt>
      <trkpt lat="46.65454" lon="5.59824">
        <ele>310</ele>
        <time>2021-05-29T12:43:15.170Z</time>
      </trkpt>
      <trkpt lat="46.65455" lon="5.59826">
        <ele>310</ele>
        <time>2021-05-29T12:43:16.170Z</time>
      </trkpt>
      <trkpt lat="46.65457" lon="5.59827">
        <ele>310</ele>
        <time>2021-05-29T12:43:17.171Z</time>
      </trkpt>
      <trkpt lat="46.65459" lon="5.59829">
        <ele>310</ele>
        <time>2021-05-29T12:43:18.170Z</time>
      </trkpt>
      <trkpt lat="46.6546" lon="5.59831">
        <ele>310</ele>
        <time>2021-05-29T12:43:19.170Z</time>
      </trkpt>
      <trkpt lat="46.65461" lon="5.59832">
        <ele>310</ele>
        <time>2021-05-29T12:43:20.171Z</time>
      </trkpt>
      <trkpt lat="46.65462" lon="5.59834">
        <ele>310</ele>
        <time>2021-05-29T12:43:21.170Z</time>
      </trkpt>
      <trkpt lat="46.65463" lon="5.59835">
        <ele>311</ele>
        <time>2021-05-29T12:43:22.171Z</time>
      </trkpt>
      <trkpt lat="46.65464" lon="5.59837">
        <ele>312</ele>
        <time>2021-05-29T12:43:23.171Z</time>
      </trkpt>
      <trkpt lat="46.65465" lon="5.59839">
        <ele>312</ele>
        <time>2021-05-29T12:43:24.171Z</time>
      </trkpt>
      <trkpt lat="46.65465" lon="5.59841">
        <ele>313</ele>
        <time>2021-05-29T12:43:25.171Z</time>
      </trkpt>
      <trkpt lat="46.65466" lon="5.59843">
        <ele>314</ele>
        <time>2021-05-29T12:43:26.171Z</time>
      </trkpt>
      <trkpt lat="46.65467" lon="5.59845">
        <ele>314</ele>
        <time>2021-05-29T12:43:27.170Z</time>
      </trkpt>
      <trkpt lat="46.65467" lon="5.59848">
        <ele>315</ele>
        <time>2021-05-29T12:43:28.171Z</time>
      </trkpt>
      <trkpt lat="46.65468" lon="5.59851">
        <ele>316</ele>
        <time>2021-05-29T12:43:29.171Z</time>
      </trkpt>
      <trkpt lat="46.65468" lon="5.59854">
        <ele>317</ele>
        <time>2021-05-29T12:43:30.171Z</time>
      </trkpt>
      <trkpt lat="46.65468" lon="5.59857">
        <ele>317</ele>
        <time>2021-05-29T12:43:31.170Z</time>
      </trkpt>
      <trkpt lat="46.65468" lon="5.5986">
        <ele>317</ele>
        <time>2021-05-29T12:43:32.171Z</time>
      </trkpt>
      <trkpt lat="46.65469" lon="5.59862">
        <ele>318</ele>
        <time>2021-05-29T12:43:33.170Z</time>
      </trkpt>
      <trkpt lat="46.6547" lon="5.59864">
        <ele>318</ele>
        <time>2021-05-29T12:43:34.170Z</time>
      </trkpt>
      <trkpt lat="46.65472" lon="5.59866">
        <ele>319</ele>
        <time>2021-05-29T12:43:35.171Z</time>
      </trkpt>
      <trkpt lat="46.65473" lon="5.59869">
        <ele>319</ele>
        <time>2021-05-29T12:43:36.171Z</time>
      </trkpt>
      <trkpt lat="46.65475" lon="5.59871">
        <ele>319</ele>
        <time>2021-05-29T12:43:37.171Z</time>
      </trkpt>
      <trkpt lat="46.65476" lon="5.59873">
        <ele>319</ele>
        <time>2021-05-29T12:43:38.171Z</time>
      </trkpt>
      <trkpt lat="46.65478" lon="5.59876">
        <ele>320</ele>
        <time>2021-05-29T12:43:39.171Z</time>
      </trkpt>
      <trkpt lat="46.6548" lon="5.59878">
        <ele>320</ele>
        <time>2021-05-29T12:43:40.170Z</time>
      </trkpt>
      <trkpt lat="46.65481" lon="5.5988">
        <ele>320</ele>
        <time>2021-05-29T12:43:41.170Z</time>
      </trkpt>
      <trkpt lat="46.65483" lon="5.59881">
        <ele>320</ele>
        <time>2021-05-29T12:43:42.171Z</time>
      </trkpt>
      <trkpt lat="46.65484" lon="5.59883">
        <ele>320</ele>
        <time>2021-05-29T12:43:43.171Z</time>
      </trkpt>
      <trkpt lat="46.65486" lon="5.59886">
        <ele>320</ele>
        <time>2021-05-29T12:43:44.171Z</time>
      </trkpt>
      <trkpt lat="46.65487" lon="5.59888">
        <ele>320</ele>
        <time>2021-05-29T12:43:45.171Z</time>
      </trkpt>
      <trkpt lat="46.65489" lon="5.59891">
        <ele>319</ele>
        <time>2021-05-29T12:43:46.171Z</time>
      </trkpt>
      <trkpt lat="46.6549" lon="5.59893">
        <ele>319</ele>
        <time>2021-05-29T12:43:47.170Z</time>
      </trkpt>
      <trkpt lat="46.65492" lon="5.59897">
        <ele>319</ele>
        <time>2021-05-29T12:43:48.171Z</time>
      </trkpt>
      <trkpt lat="46.65493" lon="5.599">
        <ele>318</ele>
        <time>2021-05-29T12:43:49.170Z</time>
      </trkpt>
      <trkpt lat="46.65494" lon="5.59902">
        <ele>318</ele>
        <time>2021-05-29T12:43:50.171Z</time>
      </trkpt>
      <trkpt lat="46.65495" lon="5.59905">
        <ele>318</ele>
        <time>2021-05-29T12:43:51.170Z</time>
      </trkpt>
      <trkpt lat="46.65496" lon="5.59907">
        <ele>319</ele>
        <time>2021-05-29T12:43:52.170Z</time>
      </trkpt>
      <trkpt lat="46.65497" lon="5.59909">
        <ele>319</ele>
        <time>2021-05-29T12:43:53.171Z</time>
      </trkpt>
      <trkpt lat="46.65498" lon="5.59912">
        <ele>319</ele>
        <time>2021-05-29T12:43:54.171Z</time>
      </trkpt>
      <trkpt lat="46.65499" lon="5.59915">
        <ele>320</ele>
        <time>2021-05-29T12:43:55.171Z</time>
      </trkpt>
      <trkpt lat="46.655" lon="5.59917">
        <ele>320</ele>
        <time>2021-05-29T12:43:56.171Z</time>
      </trkpt>
      <trkpt lat="46.65502" lon="5.5992">
        <ele>320</ele>
        <time>2021-05-29T12:43:57.170Z</time>
      </trkpt>
      <trkpt lat="46.65502" lon="5.59922">
        <ele>320</ele>
        <time>2021-05-29T12:43:58.171Z</time>
      </trkpt>
      <trkpt lat="46.65503" lon="5.59925">
        <ele>320</ele>
        <time>2021-05-29T12:43:59.171Z</time>
      </trkpt>
      <trkpt lat="46.65504" lon="5.59927">
        <ele>320</ele>
        <time>2021-05-29T12:44:00.171Z</time>
      </trkpt>
      <trkpt lat="46.65504" lon="5.59929">
        <ele>320</ele>
        <time>2021-05-29T12:44:01.171Z</time>
      </trkpt>
      <trkpt lat="46.65505" lon="5.59932">
        <ele>321</ele>
        <time>2021-05-29T12:44:02.171Z</time>
      </trkpt>
      <trkpt lat="46.65506" lon="5.59934">
        <ele>321</ele>
        <time>2021-05-29T12:44:03.171Z</time>
      </trkpt>
      <trkpt lat="46.65506" lon="5.59937">
        <ele>322</ele>
        <time>2021-05-29T12:44:04.171Z</time>
      </trkpt>
      <trkpt lat="46.65507" lon="5.59941">
        <ele>323</ele>
        <time>2021-05-29T12:44:05.171Z</time>
      </trkpt>
      <trkpt lat="46.65508" lon="5.59944">
        <ele>323</ele>
        <time>2021-05-29T12:44:06.171Z</time>
      </trkpt>
      <trkpt lat="46.65509" lon="5.59948">
        <ele>324</ele>
        <time>2021-05-29T12:44:07.171Z</time>
      </trkpt>
      <trkpt lat="46.6551" lon="5.59951">
        <ele>324</ele>
        <time>2021-05-29T12:44:08.171Z</time>
      </trkpt>
      <trkpt lat="46.65511" lon="5.59954">
        <ele>325</ele>
        <time>2021-05-29T12:44:09.171Z</time>
      </trkpt>
      <trkpt lat="46.65512" lon="5.59957">
        <ele>325</ele>
        <time>2021-05-29T12:44:10.170Z</time>
      </trkpt>
      <trkpt lat="46.65513" lon="5.59961">
        <ele>326</ele>
        <time>2021-05-29T12:44:11.170Z</time>
      </trkpt>
      <trkpt lat="46.65514" lon="5.59965">
        <ele>327</ele>
        <time>2021-05-29T12:44:12.171Z</time>
      </trkpt>
      <trkpt lat="46.65515" lon="5.59969">
        <ele>327</ele>
        <time>2021-05-29T12:44:13.171Z</time>
      </trkpt>
      <trkpt lat="46.65516" lon="5.59973">
        <ele>328</ele>
        <time>2021-05-29T12:44:14.171Z</time>
      </trkpt>
      <trkpt lat="46.65516" lon="5.59976">
        <ele>328</ele>
        <time>2021-05-29T12:44:15.171Z</time>
      </trkpt>
      <trkpt lat="46.65517" lon="5.5998">
        <ele>329</ele>
        <time>2021-05-29T12:44:16.171Z</time>
      </trkpt>
      <trkpt lat="46.65518" lon="5.59983">
        <ele>329</ele>
        <time>2021-05-29T12:44:17.171Z</time>
      </trkpt>
      <trkpt lat="46.65518" lon="5.59986">
        <ele>330</ele>
        <time>2021-05-29T12:44:18.170Z</time>
      </trkpt>
      <trkpt lat="46.65518" lon="5.5999">
        <ele>330</ele>
        <time>2021-05-29T12:44:19.171Z</time>
      </trkpt>
      <trkpt lat="46.65518" lon="5.59992">
        <ele>330</ele>
        <time>2021-05-29T12:44:20.171Z</time>
      </trkpt>
      <trkpt lat="46.65518" lon="5.59995">
        <ele>329</ele>
        <time>2021-05-29T12:44:21.170Z</time>
      </trkpt>
      <trkpt lat="46.65518" lon="5.59999">
        <ele>329</ele>
        <time>2021-05-29T12:44:22.171Z</time>
      </trkpt>
      <trkpt lat="46.65518" lon="5.60002">
        <ele>329</ele>
        <time>2021-05-29T12:44:23.171Z</time>
      </trkpt>
      <trkpt lat="46.65518" lon="5.60005">
        <ele>328</ele>
        <time>2021-05-29T12:44:24.171Z</time>
      </trkpt>
      <trkpt lat="46.65518" lon="5.60008">
        <ele>328</ele>
        <time>2021-05-29T12:44:25.171Z</time>
      </trkpt>
      <trkpt lat="46.65517" lon="5.60011">
        <ele>328</ele>
        <time>2021-05-29T12:44:26.171Z</time>
      </trkpt>
      <trkpt lat="46.65517" lon="5.60015">
        <ele>327</ele>
        <time>2021-05-29T12:44:27.171Z</time>
      </trkpt>
      <trkpt lat="46.65518" lon="5.60017">
        <ele>327</ele>
        <time>2021-05-29T12:44:28.171Z</time>
      </trkpt>
      <trkpt lat="46.65517" lon="5.60021">
        <ele>327</ele>
        <time>2021-05-29T12:44:29.171Z</time>
      </trkpt>
      <trkpt lat="46.65517" lon="5.60023">
        <ele>326</ele>
        <time>2021-05-29T12:44:30.170Z</time>
      </trkpt>
      <trkpt lat="46.65517" lon="5.60026">
        <ele>326</ele>
        <time>2021-05-29T12:44:31.171Z</time>
      </trkpt>
      <trkpt lat="46.65517" lon="5.6003">
        <ele>325</ele>
        <time>2021-05-29T12:44:32.171Z</time>
      </trkpt>
      <trkpt lat="46.65517" lon="5.60033">
        <ele>325</ele>
        <time>2021-05-29T12:44:33.171Z</time>
      </trkpt>
      <trkpt lat="46.65517" lon="5.60036">
        <ele>325</ele>
        <time>2021-05-29T12:44:34.171Z</time>
      </trkpt>
      <trkpt lat="46.65517" lon="5.60038">
        <ele>325</ele>
        <time>2021-05-29T12:44:35.171Z</time>
      </trkpt>
      <trkpt lat="46.65517" lon="5.60042">
        <ele>325</ele>
        <time>2021-05-29T12:44:36.171Z</time>
      </trkpt>
      <trkpt lat="46.65517" lon="5.60045">
        <ele>325</ele>
        <time>2021-05-29T12:44:37.170Z</time>
      </trkpt>
      <trkpt lat="46.65516" lon="5.60048">
        <ele>326</ele>
        <time>2021-05-29T12:44:38.170Z</time>
      </trkpt>
      <trkpt lat="46.65516" lon="5.60051">
        <ele>326</ele>
        <time>2021-05-29T12:44:39.171Z</time>
      </trkpt>
      <trkpt lat="46.65516" lon="5.60054">
        <ele>327</ele>
        <time>2021-05-29T12:44:40.171Z</time>
      </trkpt>
      <trkpt lat="46.65517" lon="5.60058">
        <ele>327</ele>
        <time>2021-05-29T12:44:41.171Z</time>
      </trkpt>
      <trkpt lat="46.65517" lon="5.60061">
        <ele>328</ele>
        <time>2021-05-29T12:44:42.171Z</time>
      </trkpt>
      <trkpt lat="46.65517" lon="5.60064">
        <ele>328</ele>
        <time>2021-05-29T12:44:43.171Z</time>
      </trkpt>
      <trkpt lat="46.65518" lon="5.60068">
        <ele>328</ele>
        <time>2021-05-29T12:44:44.171Z</time>
      </trkpt>
      <trkpt lat="46.65518" lon="5.60071">
        <ele>329</ele>
        <time>2021-05-29T12:44:45.171Z</time>
      </trkpt>
      <trkpt lat="46.65519" lon="5.60074">
        <ele>329</ele>
        <time>2021-05-29T12:44:46.171Z</time>
      </trkpt>
      <trkpt lat="46.65519" lon="5.60077">
        <ele>329</ele>
        <time>2021-05-29T12:44:47.171Z</time>
      </trkpt>
      <trkpt lat="46.65519" lon="5.6008">
        <ele>330</ele>
        <time>2021-05-29T12:44:48.171Z</time>
      </trkpt>
      <trkpt lat="46.65519" lon="5.60083">
        <ele>330</ele>
        <time>2021-05-29T12:44:49.171Z</time>
      </trkpt>
      <trkpt lat="46.65518" lon="5.60086">
        <ele>331</ele>
        <time>2021-05-29T12:44:50.170Z</time>
      </trkpt>
      <trkpt lat="46.65518" lon="5.6009">
        <ele>331</ele>
        <time>2021-05-29T12:44:51.171Z</time>
      </trkpt>
      <trkpt lat="46.65519" lon="5.60093">
        <ele>331</ele>
        <time>2021-05-29T12:44:52.171Z</time>
      </trkpt>
      <trkpt lat="46.65519" lon="5.60096">
        <ele>332</ele>
        <time>2021-05-29T12:44:53.170Z</time>
      </trkpt>
      <trkpt lat="46.65518" lon="5.60099">
        <ele>331</ele>
        <time>2021-05-29T12:44:54.171Z</time>
      </trkpt>
      <trkpt lat="46.65517" lon="5.60102">
        <ele>331</ele>
        <time>2021-05-29T12:48:37.559Z</time>
      </trkpt>
      <trkpt lat="46.65517" lon="5.60105">
        <ele>330</ele>
        <time>2021-05-29T12:48:38.559Z</time>
      </trkpt>
      <trkpt lat="46.65517" lon="5.60109">
        <ele>330</ele>
        <time>2021-05-29T12:48:39.559Z</time>
      </trkpt>
      <trkpt lat="46.65517" lon="5.60112">
        <ele>329</ele>
        <time>2021-05-29T12:48:40.559Z</time>
      </trkpt>
      <trkpt lat="46.65517" lon="5.60115">
        <ele>329</ele>
        <time>2021-05-29T12:48:41.559Z</time>
      </trkpt>
      <trkpt lat="46.65516" lon="5.60119">
        <ele>329</ele>
        <time>2021-05-29T12:48:42.559Z</time>
      </trkpt>
      <trkpt lat="46.65515" lon="5.60122">
        <ele>328</ele>
        <time>2021-05-29T12:48:43.559Z</time>
      </trkpt>
      <trkpt lat="46.65514" lon="5.60125">
        <ele>328</ele>
        <time>2021-05-29T12:48:44.559Z</time>
      </trkpt>
      <trkpt lat="46.65514" lon="5.60129">
        <ele>328</ele>
        <time>2021-05-29T12:48:45.559Z</time>
      </trkpt>
      <trkpt lat="46.65513" lon="5.60132">
        <ele>329</ele>
        <time>2021-05-29T12:48:46.559Z</time>
      </trkpt>
      <trkpt lat="46.65513" lon="5.60135">
        <ele>329</ele>
        <time>2021-05-29T12:48:47.559Z</time>
      </trkpt>
      <trkpt lat="46.65512" lon="5.60137">
        <ele>329</ele>
        <time>2021-05-29T12:48:48.559Z</time>
      </trkpt>
      <trkpt lat="46.65512" lon="5.6014">
        <ele>330</ele>
        <time>2021-05-29T12:48:49.559Z</time>
      </trkpt>
      <trkpt lat="46.65512" lon="5.60144">
        <ele>330</ele>
        <time>2021-05-29T12:48:50.559Z</time>
      </trkpt>
      <trkpt lat="46.65512" lon="5.60146">
        <ele>330</ele>
        <time>2021-05-29T12:48:51.559Z</time>
      </trkpt>
      <trkpt lat="46.65512" lon="5.6015">
        <ele>331</ele>
        <time>2021-05-29T12:48:52.559Z</time>
      </trkpt>
      <trkpt lat="46.65512" lon="5.60152">
        <ele>332</ele>
        <time>2021-05-29T12:48:53.559Z</time>
      </trkpt>
      <trkpt lat="46.65512" lon="5.60155">
        <ele>333</ele>
        <time>2021-05-29T12:48:54.559Z</time>
      </trkpt>
      <trkpt lat="46.65512" lon="5.60158">
        <ele>333</ele>
        <time>2021-05-29T12:48:55.559Z</time>
      </trkpt>
      <trkpt lat="46.65512" lon="5.60161">
        <ele>334</ele>
        <time>2021-05-29T12:48:56.558Z</time>
      </trkpt>
      <trkpt lat="46.65513" lon="5.60163">
        <ele>334</ele>
        <time>2021-05-29T12:48:57.559Z</time>
      </trkpt>
      <trkpt lat="46.65513" lon="5.60166">
        <ele>335</ele>
        <time>2021-05-29T12:48:58.559Z</time>
      </trkpt>
      <trkpt lat="46.65514" lon="5.60169">
        <ele>335</ele>
        <time>2021-05-29T12:48:59.559Z</time>
      </trkpt>
      <trkpt lat="46.65514" lon="5.60171">
        <ele>335</ele>
        <time>2021-05-29T12:49:00.559Z</time>
      </trkpt>
      <trkpt lat="46.65514" lon="5.60174">
        <ele>336</ele>
        <time>2021-05-29T12:49:01.559Z</time>
      </trkpt>
      <trkpt lat="46.65515" lon="5.60176">
        <ele>336</ele>
        <time>2021-05-29T12:49:02.559Z</time>
      </trkpt>
      <trkpt lat="46.65515" lon="5.60178">
        <ele>336</ele>
        <time>2021-05-29T12:49:03.558Z</time>
      </trkpt>
      <trkpt lat="46.65517" lon="5.60182">
        <ele>335</ele>
        <time>2021-05-29T12:49:04.559Z</time>
      </trkpt>
      <trkpt lat="46.65517" lon="5.60185">
        <ele>335</ele>
        <time>2021-05-29T12:49:05.559Z</time>
      </trkpt>
      <trkpt lat="46.65518" lon="5.60188">
        <ele>335</ele>
        <time>2021-05-29T12:49:06.559Z</time>
      </trkpt>
      <trkpt lat="46.65519" lon="5.6019">
        <ele>335</ele>
        <time>2021-05-29T12:49:07.558Z</time>
      </trkpt>
      <trkpt lat="46.65519" lon="5.60193">
        <ele>335</ele>
        <time>2021-05-29T12:49:08.559Z</time>
      </trkpt>
      <trkpt lat="46.65518" lon="5.60194">
        <ele>335</ele>
        <time>2021-05-29T12:49:09.559Z</time>
      </trkpt>
      <trkpt lat="46.65517" lon="5.60195">
        <ele>335</ele>
        <time>2021-05-29T12:49:10.559Z</time>
      </trkpt>
      <trkpt lat="46.65516" lon="5.60195">
        <ele>335</ele>
        <time>2021-05-29T12:49:11.559Z</time>
      </trkpt>
      <trkpt lat="46.65515" lon="5.60195">
        <ele>335</ele>
        <time>2021-05-29T12:49:12.559Z</time>
      </trkpt>
      <trkpt lat="46.65514" lon="5.60196">
        <ele>334</ele>
        <time>2021-05-29T12:49:13.559Z</time>
      </trkpt>
      <trkpt lat="46.65512" lon="5.60196">
        <ele>334</ele>
        <time>2021-05-29T12:49:14.559Z</time>
      </trkpt>
      <trkpt lat="46.65511" lon="5.60197">
        <ele>333</ele>
        <time>2021-05-29T12:49:15.558Z</time>
      </trkpt>
      <trkpt lat="46.65509" lon="5.60197">
        <ele>332</ele>
        <time>2021-05-29T12:49:16.559Z</time>
      </trkpt>
      <trkpt lat="46.65508" lon="5.60197">
        <ele>332</ele>
        <time>2021-05-29T12:49:17.559Z</time>
      </trkpt>
      <trkpt lat="46.65507" lon="5.60197">
        <ele>331</ele>
        <time>2021-05-29T12:49:18.558Z</time>
      </trkpt>
      <trkpt lat="46.65505" lon="5.60197">
        <ele>331</ele>
        <time>2021-05-29T12:49:19.559Z</time>
      </trkpt>
      <trkpt lat="46.65504" lon="5.60198">
        <ele>330</ele>
        <time>2021-05-29T12:49:20.559Z</time>
      </trkpt>
      <trkpt lat="46.65503" lon="5.60198">
        <ele>330</ele>
        <time>2021-05-29T12:49:21.559Z</time>
      </trkpt>
      <trkpt lat="46.65501" lon="5.60199">
        <ele>330</ele>
        <time>2021-05-29T12:49:22.559Z</time>
      </trkpt>
      <trkpt lat="46.65499" lon="5.60199">
        <ele>330</ele>
        <time>2021-05-29T12:49:23.559Z</time>
      </trkpt>
      <trkpt lat="46.65497" lon="5.602">
        <ele>330</ele>
        <time>2021-05-29T12:49:24.559Z</time>
      </trkpt>
      <trkpt lat="46.65496" lon="5.60201">
        <ele>330</ele>
        <time>2021-05-29T12:49:25.559Z</time>
      </trkpt>
      <trkpt lat="46.65494" lon="5.60201">
        <ele>330</ele>
        <time>2021-05-29T12:49:26.559Z</time>
      </trkpt>
      <trkpt lat="46.65493" lon="5.60202">
        <ele>330</ele>
        <time>2021-05-29T12:49:27.559Z</time>
      </trkpt>
      <trkpt lat="46.65492" lon="5.60202">
        <ele>330</ele>
        <time>2021-05-29T12:49:28.558Z</time>
      </trkpt>
      <trkpt lat="46.6549" lon="5.60203">
        <ele>330</ele>
        <time>2021-05-29T12:49:29.559Z</time>
      </trkpt>
      <trkpt lat="46.65489" lon="5.60203">
        <ele>330</ele>
        <time>2021-05-29T12:49:30.559Z</time>
      </trkpt>
      <trkpt lat="46.65487" lon="5.60204">
        <ele>330</ele>
        <time>2021-05-29T12:49:31.559Z</time>
      </trkpt>
      <trkpt lat="46.65486" lon="5.60205">
        <ele>331</ele>
        <time>2021-05-29T12:49:32.559Z</time>
      </trkpt>
      <trkpt lat="46.65484" lon="5.60206">
        <ele>331</ele>
        <time>2021-05-29T12:49:33.559Z</time>
      </trkpt>
      <trkpt lat="46.65483" lon="5.60207">
        <ele>331</ele>
        <time>2021-05-29T12:49:34.559Z</time>
      </trkpt>
      <trkpt lat="46.65481" lon="5.60207">
        <ele>330</ele>
        <time>2021-05-29T12:49:35.559Z</time>
      </trkpt>
      <trkpt lat="46.65479" lon="5.60208">
        <ele>330</ele>
        <time>2021-05-29T12:49:36.559Z</time>
      </trkpt>
      <trkpt lat="46.65478" lon="5.60209">
        <ele>330</ele>
        <time>2021-05-29T12:49:37.559Z</time>
      </trkpt>
      <trkpt lat="46.65477" lon="5.6021">
        <ele>329</ele>
        <time>2021-05-29T12:49:38.558Z</time>
      </trkpt>
      <trkpt lat="46.65476" lon="5.6021">
        <ele>328</ele>
        <time>2021-05-29T12:49:39.559Z</time>
      </trkpt>
      <trkpt lat="46.65475" lon="5.60211">
        <ele>327</ele>
        <time>2021-05-29T12:49:40.559Z</time>
      </trkpt>
      <trkpt lat="46.65473" lon="5.60212">
        <ele>327</ele>
        <time>2021-05-29T12:49:41.559Z</time>
      </trkpt>
      <trkpt lat="46.65473" lon="5.60212">
        <ele>326</ele>
        <time>2021-05-29T12:49:42.559Z</time>
      </trkpt>
      <trkpt lat="46.65472" lon="5.60213">
        <ele>326</ele>
        <time>2021-05-29T12:49:43.558Z</time>
      </trkpt>
      <trkpt lat="46.65472" lon="5.60213">
        <ele>326</ele>
        <time>2021-05-29T12:49:44.559Z</time>
      </trkpt>
      <trkpt lat="46.65471" lon="5.60214">
        <ele>326</ele>
        <time>2021-05-29T12:49:45.559Z</time>
      </trkpt>
      <trkpt lat="46.6547" lon="5.60214">
        <ele>326</ele>
        <time>2021-05-29T12:49:46.559Z</time>
      </trkpt>
      <trkpt lat="46.65469" lon="5.60215">
        <ele>326</ele>
        <time>2021-05-29T12:49:47.559Z</time>
      </trkpt>
      <trkpt lat="46.65467" lon="5.60216">
        <ele>326</ele>
        <time>2021-05-29T12:49:48.559Z</time>
      </trkpt>
      <trkpt lat="46.65466" lon="5.60217">
        <ele>326</ele>
        <time>2021-05-29T12:49:49.559Z</time>
      </trkpt>
      <trkpt lat="46.65464" lon="5.60218">
        <ele>326</ele>
        <time>2021-05-29T12:49:50.558Z</time>
      </trkpt>
      <trkpt lat="46.65462" lon="5.60218">
        <ele>326</ele>
        <time>2021-05-29T12:49:51.559Z</time>
      </trkpt>
      <trkpt lat="46.65461" lon="5.60219">
        <ele>326</ele>
        <time>2021-05-29T12:49:52.558Z</time>
      </trkpt>
      <trkpt lat="46.65459" lon="5.6022">
        <ele>326</ele>
        <time>2021-05-29T12:49:53.559Z</time>
      </trkpt>
      <trkpt lat="46.65457" lon="5.60221">
        <ele>326</ele>
        <time>2021-05-29T12:49:54.559Z</time>
      </trkpt>
      <trkpt lat="46.65455" lon="5.60222">
        <ele>327</ele>
        <time>2021-05-29T12:49:55.559Z</time>
      </trkpt>
      <trkpt lat="46.65453" lon="5.60224">
        <ele>327</ele>
        <time>2021-05-29T12:49:56.559Z</time>
      </trkpt>
      <trkpt lat="46.65452" lon="5.60225">
        <ele>328</ele>
        <time>2021-05-29T12:49:57.558Z</time>
      </trkpt>
      <trkpt lat="46.6545" lon="5.60226">
        <ele>329</ele>
        <time>2021-05-29T12:49:58.559Z</time>
      </trkpt>
      <trkpt lat="46.65448" lon="5.60228">
        <ele>330</ele>
        <time>2021-05-29T12:49:59.559Z</time>
      </trkpt>
      <trkpt lat="46.65446" lon="5.60229">
        <ele>331</ele>
        <time>2021-05-29T12:50:00.559Z</time>
      </trkpt>
      <trkpt lat="46.65444" lon="5.6023">
        <ele>332</ele>
        <time>2021-05-29T12:50:01.559Z</time>
      </trkpt>
      <trkpt lat="46.65443" lon="5.60231">
        <ele>332</ele>
        <time>2021-05-29T12:50:02.558Z</time>
      </trkpt>
      <trkpt lat="46.65441" lon="5.60232">
        <ele>332</ele>
        <time>2021-05-29T12:50:03.559Z</time>
      </trkpt>
      <trkpt lat="46.6544" lon="5.60233">
        <ele>333</ele>
        <time>2021-05-29T12:50:04.559Z</time>
      </trkpt>
      <trkpt lat="46.65438" lon="5.60234">
        <ele>333</ele>
        <time>2021-05-29T12:50:05.559Z</time>
      </trkpt>
      <trkpt lat="46.65437" lon="5.60234">
        <ele>333</ele>
        <time>2021-05-29T12:50:06.559Z</time>
      </trkpt>
      <trkpt lat="46.65435" lon="5.60235">
        <ele>332</ele>
        <time>2021-05-29T12:50:07.558Z</time>
      </trkpt>
      <trkpt lat="46.65434" lon="5.60236">
        <ele>332</ele>
        <time>2021-05-29T12:50:08.559Z</time>
      </trkpt>
      <trkpt lat="46.65433" lon="5.60238">
        <ele>332</ele>
        <time>2021-05-29T12:50:09.558Z</time>
      </trkpt>
      <trkpt lat="46.65432" lon="5.60239">
        <ele>331</ele>
        <time>2021-05-29T12:50:10.559Z</time>
      </trkpt>
      <trkpt lat="46.65431" lon="5.6024">
        <ele>331</ele>
        <time>2021-05-29T12:50:11.559Z</time>
      </trkpt>
      <trkpt lat="46.65431" lon="5.60241">
        <ele>331</ele>
        <time>2021-05-29T12:50:12.559Z</time>
      </trkpt>
      <trkpt lat="46.65431" lon="5.60241">
        <ele>331</ele>
        <time>2021-05-29T12:50:13.558Z</time>
      </trkpt>
      <trkpt lat="46.6543" lon="5.60242">
        <ele>331</ele>
        <time>2021-05-29T12:50:14.559Z</time>
      </trkpt>
      <trkpt lat="46.6543" lon="5.60242">
        <ele>331</ele>
        <time>2021-05-29T12:50:15.559Z</time>
      </trkpt>
      <trkpt lat="46.6543" lon="5.60242">
        <ele>330</ele>
        <time>2021-05-29T12:50:16.559Z</time>
      </trkpt>
      <trkpt lat="46.6543" lon="5.60242">
        <ele>330</ele>
        <time>2021-05-29T12:50:17.558Z</time>
      </trkpt>
      <trkpt lat="46.6543" lon="5.60242">
        <ele>330</ele>
        <time>2021-05-29T12:50:18.558Z</time>
      </trkpt>
      <trkpt lat="46.6543" lon="5.60242">
        <ele>331</ele>
        <time>2021-05-29T12:50:19.558Z</time>
      </trkpt>
      <trkpt lat="46.6543" lon="5.60242">
        <ele>331</ele>
        <time>2021-05-29T12:50:20.559Z</time>
      </trkpt>
      <trkpt lat="46.65429" lon="5.60242">
        <ele>331</ele>
        <time>2021-05-29T12:50:21.559Z</time>
      </trkpt>
      <trkpt lat="46.65429" lon="5.60242">
        <ele>331</ele>
        <time>2021-05-29T12:50:22.559Z</time>
      </trkpt>
      <trkpt lat="46.65428" lon="5.60242">
        <ele>330</ele>
        <time>2021-05-29T12:50:23.558Z</time>
      </trkpt>
      <trkpt lat="46.65427" lon="5.60244">
        <ele>329</ele>
        <time>2021-05-29T12:50:24.558Z</time>
      </trkpt>
      <trkpt lat="46.65427" lon="5.60244">
        <ele>328</ele>
        <time>2021-05-29T12:50:25.559Z</time>
      </trkpt>
      <trkpt lat="46.65427" lon="5.60244">
        <ele>328</ele>
        <time>2021-05-29T12:50:26.558Z</time>
      </trkpt>
      <trkpt lat="46.65427" lon="5.60244">
        <ele>328</ele>
        <time>2021-05-29T12:50:27.559Z</time>
      </trkpt>
      <trkpt lat="46.65427" lon="5.60244">
        <ele>328</ele>
        <time>2021-05-29T12:50:28.559Z</time>
      </trkpt>
      <trkpt lat="46.65427" lon="5.60244">
        <ele>329</ele>
        <time>2021-05-29T12:50:29.559Z</time>
      </trkpt>
      <trkpt lat="46.65427" lon="5.60244">
        <ele>329</ele>
        <time>2021-05-29T12:50:30.559Z</time>
      </trkpt>
      <trkpt lat="46.65427" lon="5.60244">
        <ele>329</ele>
        <time>2021-05-29T12:50:31.559Z</time>
      </trkpt>
      <trkpt lat="46.65427" lon="5.60244">
        <ele>329</ele>
        <time>2021-05-29T12:50:32.558Z</time>
      </trkpt>
      <trkpt lat="46.65427" lon="5.60244">
        <ele>329</ele>
        <time>2021-05-29T12:50:33.559Z</time>
      </trkpt>
      <trkpt lat="46.65427" lon="5.60243">
        <ele>330</ele>
        <time>2021-05-29T12:50:34.559Z</time>
      </trkpt>
      <trkpt lat="46.65427" lon="5.60243">
        <ele>330</ele>
        <time>2021-05-29T12:50:35.559Z</time>
      </trkpt>
      <trkpt lat="46.65427" lon="5.60243">
        <ele>330</ele>
        <time>2021-05-29T12:50:36.559Z</time>
      </trkpt>
      <trkpt lat="46.65427" lon="5.60243">
        <ele>330</ele>
        <time>2021-05-29T12:50:37.559Z</time>
      </trkpt>
      <trkpt lat="46.65428" lon="5.60242">
        <ele>330</ele>
        <time>2021-05-29T12:50:38.559Z</time>
      </trkpt>
      <trkpt lat="46.65428" lon="5.60242">
        <ele>330</ele>
        <time>2021-05-29T12:50:39.559Z</time>
      </trkpt>
      <trkpt lat="46.65428" lon="5.60242">
        <ele>330</ele>
        <time>2021-05-29T12:50:40.558Z</time>
      </trkpt>
      <trkpt lat="46.65428" lon="5.60242">
        <ele>331</ele>
        <time>2021-05-29T12:50:41.559Z</time>
      </trkpt>
      <trkpt lat="46.65428" lon="5.60242">
        <ele>331</ele>
        <time>2021-05-29T12:50:42.559Z</time>
      </trkpt>
      <trkpt lat="46.65428" lon="5.60242">
        <ele>331</ele>
        <time>2021-05-29T12:50:43.559Z</time>
      </trkpt>
      <trkpt lat="46.65428" lon="5.60242">
        <ele>331</ele>
        <time>2021-05-29T12:50:44.558Z</time>
      </trkpt>
      <trkpt lat="46.65428" lon="5.60242">
        <ele>331</ele>
        <time>2021-05-29T12:50:45.559Z</time>
      </trkpt>
      <trkpt lat="46.65428" lon="5.60243">
        <ele>331</ele>
        <time>2021-05-29T12:50:46.559Z</time>
      </trkpt>
      <trkpt lat="46.65428" lon="5.60243">
        <ele>331</ele>
        <time>2021-05-29T12:50:47.559Z</time>
      </trkpt>
      <trkpt lat="46.65428" lon="5.60243">
        <ele>331</ele>
        <time>2021-05-29T12:50:48.559Z</time>
      </trkpt>
      <trkpt lat="46.65428" lon="5.60243">
        <ele>331</ele>
        <time>2021-05-29T12:50:49.559Z</time>
      </trkpt>
      <trkpt lat="46.65428" lon="5.60243">
        <ele>331</ele>
        <time>2021-05-29T12:50:50.559Z</time>
      </trkpt>
      <trkpt lat="46.65428" lon="5.60243">
        <ele>331</ele>
        <time>2021-05-29T12:50:51.559Z</time>
      </trkpt>
      <trkpt lat="46.65428" lon="5.60243">
        <ele>331</ele>
        <time>2021-05-29T12:50:52.559Z</time>
      </trkpt>
      <trkpt lat="46.65428" lon="5.60243">
        <ele>331</ele>
        <time>2021-05-29T12:50:53.559Z</time>
      </trkpt>
      <trkpt lat="46.65428" lon="5.60243">
        <ele>331</ele>
        <time>2021-05-29T12:50:54.559Z</time>
      </trkpt>
      <trkpt lat="46.65428" lon="5.60243">
        <ele>331</ele>
        <time>2021-05-29T12:50:55.559Z</time>
      </trkpt>
      <trkpt lat="46.65428" lon="5.60243">
        <ele>331</ele>
        <time>2021-05-29T12:50:56.558Z</time>
      </trkpt>
      <trkpt lat="46.65428" lon="5.60243">
        <ele>331</ele>
        <time>2021-05-29T12:50:57.559Z</time>
      </trkpt>
      <trkpt lat="46.65428" lon="5.60243">
        <ele>331</ele>
        <time>2021-05-29T12:50:58.559Z</time>
      </trkpt>
      <trkpt lat="46.65428" lon="5.60243">
        <ele>331</ele>
        <time>2021-05-29T12:50:59.559Z</time>
      </trkpt>
      <trkpt lat="46.65428" lon="5.60242">
        <ele>331</ele>
        <time>2021-05-29T12:51:00.559Z</time>
      </trkpt>
      <trkpt lat="46.65428" lon="5.60242">
        <ele>332</ele>
        <time>2021-05-29T12:51:01.559Z</time>
      </trkpt>
      <trkpt lat="46.65428" lon="5.60242">
        <ele>332</ele>
        <time>2021-05-29T12:51:02.558Z</time>
      </trkpt>
      <trkpt lat="46.65428" lon="5.60242">
        <ele>332</ele>
        <time>2021-05-29T12:51:03.559Z</time>
      </trkpt>
      <trkpt lat="46.65428" lon="5.60242">
        <ele>332</ele>
        <time>2021-05-29T12:51:04.559Z</time>
      </trkpt>
      <trkpt lat="46.65428" lon="5.60242">
        <ele>332</ele>
        <time>2021-05-29T12:51:05.559Z</time>
      </trkpt>
      <trkpt lat="46.65427" lon="5.60242">
        <ele>332</ele>
        <time>2021-05-29T12:51:06.558Z</time>
      </trkpt>
      <trkpt lat="46.65427" lon="5.60242">
        <ele>332</ele>
        <time>2021-05-29T12:51:07.559Z</time>
      </trkpt>
      <trkpt lat="46.65427" lon="5.60242">
        <ele>332</ele>
        <time>2021-05-29T12:51:08.559Z</time>
      </trkpt>
      <trkpt lat="46.65427" lon="5.60242">
        <ele>332</ele>
        <time>2021-05-29T12:51:09.559Z</time>
      </trkpt>
      <trkpt lat="46.65427" lon="5.60242">
        <ele>332</ele>
        <time>2021-05-29T12:51:10.559Z</time>
      </trkpt>
      <trkpt lat="46.65427" lon="5.60242">
        <ele>332</ele>
        <time>2021-05-29T12:51:11.558Z</time>
      </trkpt>
      <trkpt lat="46.65427" lon="5.60242">
        <ele>332</ele>
        <time>2021-05-29T12:51:12.558Z</time>
      </trkpt>
      <trkpt lat="46.65427" lon="5.60241">
        <ele>332</ele>
        <time>2021-05-29T12:51:13.558Z</time>
      </trkpt>
      <trkpt lat="46.65427" lon="5.60241">
        <ele>332</ele>
        <time>2021-05-29T12:51:14.559Z</time>
      </trkpt>
      <trkpt lat="46.65427" lon="5.60241">
        <ele>332</ele>
        <time>2021-05-29T12:51:15.558Z</time>
      </trkpt>
      <trkpt lat="46.65427" lon="5.60241">
        <ele>332</ele>
        <time>2021-05-29T12:51:16.559Z</time>
      </trkpt>
      <trkpt lat="46.65427" lon="5.60241">
        <ele>332</ele>
        <time>2021-05-29T12:51:17.559Z</time>
      </trkpt>
      <trkpt lat="46.65427" lon="5.60241">
        <ele>332</ele>
        <time>2021-05-29T12:51:18.559Z</time>
      </trkpt>
      <trkpt lat="46.65427" lon="5.60241">
        <ele>332</ele>
        <time>2021-05-29T12:51:19.559Z</time>
      </trkpt>
      <trkpt lat="46.65427" lon="5.60241">
        <ele>332</ele>
        <time>2021-05-29T12:51:20.558Z</time>
      </trkpt>
      <trkpt lat="46.65427" lon="5.60241">
        <ele>332</ele>
        <time>2021-05-29T12:51:21.559Z</time>
      </trkpt>
      <trkpt lat="46.65427" lon="5.6024">
        <ele>332</ele>
        <time>2021-05-29T12:51:22.559Z</time>
      </trkpt>
      <trkpt lat="46.65426" lon="5.6024">
        <ele>332</ele>
        <time>2021-05-29T12:51:23.558Z</time>
      </trkpt>
      <trkpt lat="46.65426" lon="5.6024">
        <ele>332</ele>
        <time>2021-05-29T12:51:24.559Z</time>
      </trkpt>
      <trkpt lat="46.65426" lon="5.6024">
        <ele>332</ele>
        <time>2021-05-29T12:51:25.558Z</time>
      </trkpt>
      <trkpt lat="46.65426" lon="5.6024">
        <ele>332</ele>
        <time>2021-05-29T12:51:56.786Z</time>
      </trkpt>
      <trkpt lat="46.65426" lon="5.6024">
        <ele>332</ele>
        <time>2021-05-29T12:51:57.785Z</time>
      </trkpt>
      <trkpt lat="46.65427" lon="5.6024">
        <ele>332</ele>
        <time>2021-05-29T12:51:58.786Z</time>
      </trkpt>
      <trkpt lat="46.65428" lon="5.60239">
        <ele>332</ele>
        <time>2021-05-29T12:51:59.786Z</time>
      </trkpt>
      <trkpt lat="46.65428" lon="5.60239">
        <ele>332</ele>
        <time>2021-05-29T12:52:00.785Z</time>
      </trkpt>
      <trkpt lat="46.65428" lon="5.60238">
        <ele>332</ele>
        <time>2021-05-29T12:52:01.786Z</time>
      </trkpt>
      <trkpt lat="46.65429" lon="5.60237">
        <ele>332</ele>
        <time>2021-05-29T12:52:02.786Z</time>
      </trkpt>
      <trkpt lat="46.65429" lon="5.60237">
        <ele>333</ele>
        <time>2021-05-29T12:52:03.786Z</time>
      </trkpt>
      <trkpt lat="46.65429" lon="5.60237">
        <ele>333</ele>
        <time>2021-05-29T12:52:04.786Z</time>
      </trkpt>
      <trkpt lat="46.65429" lon="5.60237">
        <ele>333</ele>
        <time>2021-05-29T12:52:05.786Z</time>
      </trkpt>
      <trkpt lat="46.65429" lon="5.60236">
        <ele>333</ele>
        <time>2021-05-29T12:52:06.786Z</time>
      </trkpt>
      <trkpt lat="46.65429" lon="5.60237">
        <ele>333</ele>
        <time>2021-05-29T12:52:07.786Z</time>
      </trkpt>
      <trkpt lat="46.65429" lon="5.60236">
        <ele>332</ele>
        <time>2021-05-29T12:52:08.786Z</time>
      </trkpt>
      <trkpt lat="46.65429" lon="5.60236">
        <ele>332</ele>
        <time>2021-05-29T12:52:09.786Z</time>
      </trkpt>
      <trkpt lat="46.65429" lon="5.60236">
        <ele>332</ele>
        <time>2021-05-29T12:52:10.786Z</time>
      </trkpt>
      <trkpt lat="46.65429" lon="5.60236">
        <ele>333</ele>
        <time>2021-05-29T12:52:11.786Z</time>
      </trkpt>
      <trkpt lat="46.65429" lon="5.60236">
        <ele>333</ele>
        <time>2021-05-29T12:52:12.786Z</time>
      </trkpt>
      <trkpt lat="46.65429" lon="5.60236">
        <ele>333</ele>
        <time>2021-05-29T12:52:13.786Z</time>
      </trkpt>
      <trkpt lat="46.65429" lon="5.60236">
        <ele>334</ele>
        <time>2021-05-29T12:52:14.786Z</time>
      </trkpt>
      <trkpt lat="46.65429" lon="5.60236">
        <ele>334</ele>
        <time>2021-05-29T12:52:15.786Z</time>
      </trkpt>
      <trkpt lat="46.65429" lon="5.60236">
        <ele>334</ele>
        <time>2021-05-29T12:52:16.786Z</time>
      </trkpt>
      <trkpt lat="46.65429" lon="5.60236">
        <ele>334</ele>
        <time>2021-05-29T12:52:17.786Z</time>
      </trkpt>
      <trkpt lat="46.65429" lon="5.60236">
        <ele>334</ele>
        <time>2021-05-29T12:52:18.786Z</time>
      </trkpt>
      <trkpt lat="46.65429" lon="5.60236">
        <ele>335</ele>
        <time>2021-05-29T12:52:19.786Z</time>
      </trkpt>
      <trkpt lat="46.65429" lon="5.60236">
        <ele>335</ele>
        <time>2021-05-29T12:52:20.786Z</time>
      </trkpt>
      <trkpt lat="46.65429" lon="5.60236">
        <ele>335</ele>
        <time>2021-05-29T12:52:21.786Z</time>
      </trkpt>
      <trkpt lat="46.65429" lon="5.60236">
        <ele>335</ele>
        <time>2021-05-29T12:52:22.786Z</time>
      </trkpt>
      <trkpt lat="46.65429" lon="5.60236">
        <ele>335</ele>
        <time>2021-05-29T12:52:23.786Z</time>
      </trkpt>
      <trkpt lat="46.65429" lon="5.60236">
        <ele>335</ele>
        <time>2021-05-29T12:52:24.786Z</time>
      </trkpt>
      <trkpt lat="46.65429" lon="5.60236">
        <ele>335</ele>
        <time>2021-05-29T12:52:25.786Z</time>
      </trkpt>
      <trkpt lat="46.65429" lon="5.60236">
        <ele>335</ele>
        <time>2021-05-29T12:52:26.786Z</time>
      </trkpt>
      <trkpt lat="46.65429" lon="5.60236">
        <ele>335</ele>
        <time>2021-05-29T12:52:27.786Z</time>
      </trkpt>
      <trkpt lat="46.65429" lon="5.60235">
        <ele>335</ele>
        <time>2021-05-29T12:52:28.786Z</time>
      </trkpt>
      <trkpt lat="46.65429" lon="5.60235">
        <ele>335</ele>
        <time>2021-05-29T12:52:29.785Z</time>
      </trkpt>
      <trkpt lat="46.65429" lon="5.60234">
        <ele>335</ele>
        <time>2021-05-29T12:52:30.786Z</time>
      </trkpt>
      <trkpt lat="46.65429" lon="5.60234">
        <ele>335</ele>
        <time>2021-05-29T12:52:31.786Z</time>
      </trkpt>
      <trkpt lat="46.65429" lon="5.60234">
        <ele>335</ele>
        <time>2021-05-29T12:52:32.786Z</time>
      </trkpt>
      <trkpt lat="46.65429" lon="5.60234">
        <ele>335</ele>
        <time>2021-05-29T12:52:33.785Z</time>
      </trkpt>
      <trkpt lat="46.65429" lon="5.60234">
        <ele>336</ele>
        <time>2021-05-29T12:52:34.786Z</time>
      </trkpt>
      <trkpt lat="46.65429" lon="5.60234">
        <ele>336</ele>
        <time>2021-05-29T12:52:35.786Z</time>
      </trkpt>
      <trkpt lat="46.65429" lon="5.60233">
        <ele>336</ele>
        <time>2021-05-29T12:52:36.786Z</time>
      </trkpt>
      <trkpt lat="46.6543" lon="5.60233">
        <ele>336</ele>
        <time>2021-05-29T12:52:37.785Z</time>
      </trkpt>
      <trkpt lat="46.6543" lon="5.60233">
        <ele>336</ele>
        <time>2021-05-29T12:52:38.786Z</time>
      </trkpt>
      <trkpt lat="46.6543" lon="5.60233">
        <ele>336</ele>
        <time>2021-05-29T12:52:39.786Z</time>
      </trkpt>
      <trkpt lat="46.65432" lon="5.60233">
        <ele>336</ele>
        <time>2021-05-29T12:52:40.786Z</time>
      </trkpt>
      <trkpt lat="46.65435" lon="5.60232">
        <ele>336</ele>
        <time>2021-05-29T12:52:41.786Z</time>
      </trkpt>
      <trkpt lat="46.65437" lon="5.60231">
        <ele>335</ele>
        <time>2021-05-29T12:52:42.786Z</time>
      </trkpt>
      <trkpt lat="46.65439" lon="5.60229">
        <ele>335</ele>
        <time>2021-05-29T12:52:43.786Z</time>
      </trkpt>
      <trkpt lat="46.65441" lon="5.60228">
        <ele>335</ele>
        <time>2021-05-29T12:52:44.786Z</time>
      </trkpt>
      <trkpt lat="46.65443" lon="5.60227">
        <ele>334</ele>
        <time>2021-05-29T12:52:45.786Z</time>
      </trkpt>
      <trkpt lat="46.65444" lon="5.60226">
        <ele>334</ele>
        <time>2021-05-29T12:52:46.786Z</time>
      </trkpt>
      <trkpt lat="46.65447" lon="5.60224">
        <ele>333</ele>
        <time>2021-05-29T12:52:47.786Z</time>
      </trkpt>
      <trkpt lat="46.65449" lon="5.60223">
        <ele>333</ele>
        <time>2021-05-29T12:52:48.786Z</time>
      </trkpt>
      <trkpt lat="46.65451" lon="5.60222">
        <ele>333</ele>
        <time>2021-05-29T12:52:49.786Z</time>
      </trkpt>
      <trkpt lat="46.65453" lon="5.60221">
        <ele>332</ele>
        <time>2021-05-29T12:52:50.786Z</time>
      </trkpt>
      <trkpt lat="46.65455" lon="5.60221">
        <ele>332</ele>
        <time>2021-05-29T12:52:51.785Z</time>
      </trkpt>
      <trkpt lat="46.65457" lon="5.6022">
        <ele>332</ele>
        <time>2021-05-29T12:52:52.785Z</time>
      </trkpt>
      <trkpt lat="46.65459" lon="5.60219">
        <ele>333</ele>
        <time>2021-05-29T12:52:53.786Z</time>
      </trkpt>
      <trkpt lat="46.65461" lon="5.60219">
        <ele>334</ele>
        <time>2021-05-29T12:52:54.786Z</time>
      </trkpt>
      <trkpt lat="46.65463" lon="5.60218">
        <ele>334</ele>
        <time>2021-05-29T12:52:55.786Z</time>
      </trkpt>
      <trkpt lat="46.65466" lon="5.60216">
        <ele>334</ele>
        <time>2021-05-29T12:52:56.786Z</time>
      </trkpt>
      <trkpt lat="46.65468" lon="5.60215">
        <ele>334</ele>
        <time>2021-05-29T12:52:57.786Z</time>
      </trkpt>
      <trkpt lat="46.6547" lon="5.60214">
        <ele>334</ele>
        <time>2021-05-29T12:52:58.785Z</time>
      </trkpt>
      <trkpt lat="46.65472" lon="5.60213">
        <ele>334</ele>
        <time>2021-05-29T12:52:59.786Z</time>
      </trkpt>
      <trkpt lat="46.65474" lon="5.60212">
        <ele>334</ele>
        <time>2021-05-29T12:53:00.786Z</time>
      </trkpt>
      <trkpt lat="46.65476" lon="5.60211">
        <ele>334</ele>
        <time>2021-05-29T12:53:01.786Z</time>
      </trkpt>
      <trkpt lat="46.65478" lon="5.6021">
        <ele>334</ele>
        <time>2021-05-29T12:53:02.786Z</time>
      </trkpt>
      <trkpt lat="46.6548" lon="5.60209">
        <ele>334</ele>
        <time>2021-05-29T12:53:03.786Z</time>
      </trkpt>
      <trkpt lat="46.65482" lon="5.60208">
        <ele>334</ele>
        <time>2021-05-29T12:53:04.786Z</time>
      </trkpt>
      <trkpt lat="46.65483" lon="5.60207">
        <ele>333</ele>
        <time>2021-05-29T12:53:05.785Z</time>
      </trkpt>
      <trkpt lat="46.65485" lon="5.60207">
        <ele>333</ele>
        <time>2021-05-29T12:53:06.786Z</time>
      </trkpt>
      <trkpt lat="46.65486" lon="5.60206">
        <ele>333</ele>
        <time>2021-05-29T12:53:07.786Z</time>
      </trkpt>
      <trkpt lat="46.65486" lon="5.60205">
        <ele>333</ele>
        <time>2021-05-29T12:53:08.786Z</time>
      </trkpt>
      <trkpt lat="46.65487" lon="5.60205">
        <ele>333</ele>
        <time>2021-05-29T12:53:09.786Z</time>
      </trkpt>
      <trkpt lat="46.65489" lon="5.60202">
        <ele>333</ele>
        <time>2021-05-29T12:53:10.786Z</time>
      </trkpt>
      <trkpt lat="46.65491" lon="5.60201">
        <ele>333</ele>
        <time>2021-05-29T12:53:11.786Z</time>
      </trkpt>
      <trkpt lat="46.65492" lon="5.60199">
        <ele>333</ele>
        <time>2021-05-29T12:53:12.786Z</time>
      </trkpt>
      <trkpt lat="46.65494" lon="5.60198">
        <ele>333</ele>
        <time>2021-05-29T12:53:13.786Z</time>
      </trkpt>
      <trkpt lat="46.65496" lon="5.60197">
        <ele>333</ele>
        <time>2021-05-29T12:53:14.786Z</time>
      </trkpt>
      <trkpt lat="46.65498" lon="5.60197">
        <ele>333</ele>
        <time>2021-05-29T12:53:15.786Z</time>
      </trkpt>
      <trkpt lat="46.65501" lon="5.60195">
        <ele>334</ele>
        <time>2021-05-29T12:53:16.786Z</time>
      </trkpt>
      <trkpt lat="46.65502" lon="5.60194">
        <ele>334</ele>
        <time>2021-05-29T12:53:17.785Z</time>
      </trkpt>
      <trkpt lat="46.65504" lon="5.60192">
        <ele>334</ele>
        <time>2021-05-29T12:53:18.785Z</time>
      </trkpt>
      <trkpt lat="46.65506" lon="5.60191">
        <ele>334</ele>
        <time>2021-05-29T12:53:19.786Z</time>
      </trkpt>
      <trkpt lat="46.65508" lon="5.6019">
        <ele>334</ele>
        <time>2021-05-29T12:53:20.785Z</time>
      </trkpt>
      <trkpt lat="46.6551" lon="5.60191">
        <ele>333</ele>
        <time>2021-05-29T12:53:21.785Z</time>
      </trkpt>
      <trkpt lat="46.65511" lon="5.60191">
        <ele>333</ele>
        <time>2021-05-29T12:53:22.785Z</time>
      </trkpt>
      <trkpt lat="46.65512" lon="5.60191">
        <ele>333</ele>
        <time>2021-05-29T12:53:23.786Z</time>
      </trkpt>
      <trkpt lat="46.65512" lon="5.60192">
        <ele>332</ele>
        <time>2021-05-29T12:53:24.786Z</time>
      </trkpt>
      <trkpt lat="46.65513" lon="5.60193">
        <ele>331</ele>
        <time>2021-05-29T12:53:25.786Z</time>
      </trkpt>
      <trkpt lat="46.65514" lon="5.60195">
        <ele>331</ele>
        <time>2021-05-29T12:53:26.786Z</time>
      </trkpt>
      <trkpt lat="46.65515" lon="5.60198">
        <ele>330</ele>
        <time>2021-05-29T12:53:27.786Z</time>
      </trkpt>
      <trkpt lat="46.65516" lon="5.60202">
        <ele>330</ele>
        <time>2021-05-29T12:53:28.786Z</time>
      </trkpt>
      <trkpt lat="46.65518" lon="5.60205">
        <ele>330</ele>
        <time>2021-05-29T12:53:29.785Z</time>
      </trkpt>
      <trkpt lat="46.65518" lon="5.60208">
        <ele>330</ele>
        <time>2021-05-29T12:53:30.786Z</time>
      </trkpt>
      <trkpt lat="46.65519" lon="5.60209">
        <ele>330</ele>
        <time>2021-05-29T12:53:31.786Z</time>
      </trkpt>
      <trkpt lat="46.65519" lon="5.60211">
        <ele>331</ele>
        <time>2021-05-29T12:53:32.785Z</time>
      </trkpt>
      <trkpt lat="46.6552" lon="5.60212">
        <ele>331</ele>
        <time>2021-05-29T12:53:33.786Z</time>
      </trkpt>
      <trkpt lat="46.6552" lon="5.60213">
        <ele>331</ele>
        <time>2021-05-29T12:53:34.786Z</time>
      </trkpt>
      <trkpt lat="46.65521" lon="5.60214">
        <ele>331</ele>
        <time>2021-05-29T12:53:35.786Z</time>
      </trkpt>
      <trkpt lat="46.65521" lon="5.60216">
        <ele>331</ele>
        <time>2021-05-29T12:53:36.786Z</time>
      </trkpt>
      <trkpt lat="46.65522" lon="5.60218">
        <ele>331</ele>
        <time>2021-05-29T12:53:37.786Z</time>
      </trkpt>
      <trkpt lat="46.65523" lon="5.6022">
        <ele>331</ele>
        <time>2021-05-29T12:53:38.786Z</time>
      </trkpt>
      <trkpt lat="46.65524" lon="5.60223">
        <ele>331</ele>
        <time>2021-05-29T12:53:39.786Z</time>
      </trkpt>
      <trkpt lat="46.65524" lon="5.60226">
        <ele>331</ele>
        <time>2021-05-29T12:53:40.786Z</time>
      </trkpt>
      <trkpt lat="46.65525" lon="5.60229">
        <ele>331</ele>
        <time>2021-05-29T12:53:41.786Z</time>
      </trkpt>
      <trkpt lat="46.65525" lon="5.60231">
        <ele>331</ele>
        <time>2021-05-29T12:53:42.785Z</time>
      </trkpt>
      <trkpt lat="46.65526" lon="5.60234">
        <ele>331</ele>
        <time>2021-05-29T12:53:43.786Z</time>
      </trkpt>
      <trkpt lat="46.65526" lon="5.60235">
        <ele>331</ele>
        <time>2021-05-29T12:53:44.785Z</time>
      </trkpt>
      <trkpt lat="46.65526" lon="5.60236">
        <ele>331</ele>
        <time>2021-05-29T12:53:45.785Z</time>
      </trkpt>
      <trkpt lat="46.65526" lon="5.60237">
        <ele>331</ele>
        <time>2021-05-29T12:53:46.786Z</time>
      </trkpt>
      <trkpt lat="46.65526" lon="5.60238">
        <ele>331</ele>
        <time>2021-05-29T12:53:47.785Z</time>
      </trkpt>
      <trkpt lat="46.65525" lon="5.60238">
        <ele>331</ele>
        <time>2021-05-29T12:53:48.786Z</time>
      </trkpt>
      <trkpt lat="46.65525" lon="5.60238">
        <ele>331</ele>
        <time>2021-05-29T12:53:49.786Z</time>
      </trkpt>
      <trkpt lat="46.65526" lon="5.60239">
        <ele>330</ele>
        <time>2021-05-29T12:53:50.785Z</time>
      </trkpt>
      <trkpt lat="46.65527" lon="5.6024">
        <ele>330</ele>
        <time>2021-05-29T12:53:51.786Z</time>
      </trkpt>
      <trkpt lat="46.65527" lon="5.60242">
        <ele>329</ele>
        <time>2021-05-29T12:53:52.786Z</time>
      </trkpt>
      <trkpt lat="46.65527" lon="5.60244">
        <ele>329</ele>
        <time>2021-05-29T12:53:53.785Z</time>
      </trkpt>
      <trkpt lat="46.65527" lon="5.60245">
        <ele>330</ele>
        <time>2021-05-29T12:53:54.786Z</time>
      </trkpt>
      <trkpt lat="46.65528" lon="5.60246">
        <ele>330</ele>
        <time>2021-05-29T12:53:55.786Z</time>
      </trkpt>
      <trkpt lat="46.65528" lon="5.60247">
        <ele>330</ele>
        <time>2021-05-29T12:53:56.786Z</time>
      </trkpt>
      <trkpt lat="46.65529" lon="5.60247">
        <ele>330</ele>
        <time>2021-05-29T12:53:57.786Z</time>
      </trkpt>
      <trkpt lat="46.65529" lon="5.60247">
        <ele>329</ele>
        <time>2021-05-29T12:53:58.786Z</time>
      </trkpt>
      <trkpt lat="46.65529" lon="5.60247">
        <ele>329</ele>
        <time>2021-05-29T12:53:59.786Z</time>
      </trkpt>
      <trkpt lat="46.65529" lon="5.60247">
        <ele>329</ele>
        <time>2021-05-29T12:54:00.785Z</time>
      </trkpt>
      <trkpt lat="46.6553" lon="5.60247">
        <ele>329</ele>
        <time>2021-05-29T12:54:01.786Z</time>
      </trkpt>
      <trkpt lat="46.65531" lon="5.60247">
        <ele>329</ele>
        <time>2021-05-29T12:54:02.786Z</time>
      </trkpt>
      <trkpt lat="46.65532" lon="5.60246">
        <ele>329</ele>
        <time>2021-05-29T12:54:03.785Z</time>
      </trkpt>
      <trkpt lat="46.65533" lon="5.60246">
        <ele>329</ele>
        <time>2021-05-29T12:54:04.786Z</time>
      </trkpt>
      <trkpt lat="46.65534" lon="5.60246">
        <ele>329</ele>
        <time>2021-05-29T12:54:05.785Z</time>
      </trkpt>
      <trkpt lat="46.65536" lon="5.60245">
        <ele>329</ele>
        <time>2021-05-29T12:54:06.785Z</time>
      </trkpt>
      <trkpt lat="46.65537" lon="5.60245">
        <ele>329</ele>
        <time>2021-05-29T12:54:07.786Z</time>
      </trkpt>
      <trkpt lat="46.65539" lon="5.60245">
        <ele>329</ele>
        <time>2021-05-29T12:54:08.786Z</time>
      </trkpt>
      <trkpt lat="46.65541" lon="5.60245">
        <ele>329</ele>
        <time>2021-05-29T12:54:09.786Z</time>
      </trkpt>
      <trkpt lat="46.65543" lon="5.60245">
        <ele>329</ele>
        <time>2021-05-29T12:54:10.786Z</time>
      </trkpt>
      <trkpt lat="46.65545" lon="5.60244">
        <ele>329</ele>
        <time>2021-05-29T12:54:11.785Z</time>
      </trkpt>
      <trkpt lat="46.65546" lon="5.60243">
        <ele>329</ele>
        <time>2021-05-29T12:54:12.786Z</time>
      </trkpt>
      <trkpt lat="46.65547" lon="5.60243">
        <ele>329</ele>
        <time>2021-05-29T12:54:13.785Z</time>
      </trkpt>
      <trkpt lat="46.65549" lon="5.60242">
        <ele>329</ele>
        <time>2021-05-29T12:54:14.786Z</time>
      </trkpt>
      <trkpt lat="46.6555" lon="5.60241">
        <ele>329</ele>
        <time>2021-05-29T12:54:15.785Z</time>
      </trkpt>
      <trkpt lat="46.65551" lon="5.6024">
        <ele>330</ele>
        <time>2021-05-29T12:54:16.785Z</time>
      </trkpt>
      <trkpt lat="46.65551" lon="5.60239">
        <ele>330</ele>
        <time>2021-05-29T12:54:17.785Z</time>
      </trkpt>
      <trkpt lat="46.65552" lon="5.60238">
        <ele>331</ele>
        <time>2021-05-29T12:54:18.786Z</time>
      </trkpt>
      <trkpt lat="46.65553" lon="5.60237">
        <ele>331</ele>
        <time>2021-05-29T12:54:19.786Z</time>
      </trkpt>
      <trkpt lat="46.65554" lon="5.60235">
        <ele>331</ele>
        <time>2021-05-29T12:54:20.786Z</time>
      </trkpt>
      <trkpt lat="46.65554" lon="5.60233">
        <ele>331</ele>
        <time>2021-05-29T12:54:21.786Z</time>
      </trkpt>
      <trkpt lat="46.65555" lon="5.60231">
        <ele>331</ele>
        <time>2021-05-29T12:54:22.786Z</time>
      </trkpt>
      <trkpt lat="46.65556" lon="5.60229">
        <ele>331</ele>
        <time>2021-05-29T12:54:23.785Z</time>
      </trkpt>
      <trkpt lat="46.65557" lon="5.60227">
        <ele>332</ele>
        <time>2021-05-29T12:54:24.786Z</time>
      </trkpt>
      <trkpt lat="46.65557" lon="5.60226">
        <ele>332</ele>
        <time>2021-05-29T12:54:25.786Z</time>
      </trkpt>
      <trkpt lat="46.65558" lon="5.60224">
        <ele>332</ele>
        <time>2021-05-29T12:54:26.785Z</time>
      </trkpt>
      <trkpt lat="46.65559" lon="5.60222">
        <ele>333</ele>
        <time>2021-05-29T12:54:27.785Z</time>
      </trkpt>
      <trkpt lat="46.6556" lon="5.6022">
        <ele>333</ele>
        <time>2021-05-29T12:54:28.785Z</time>
      </trkpt>
      <trkpt lat="46.65561" lon="5.60218">
        <ele>334</ele>
        <time>2021-05-29T12:54:29.785Z</time>
      </trkpt>
      <trkpt lat="46.65562" lon="5.60216">
        <ele>334</ele>
        <time>2021-05-29T12:54:30.785Z</time>
      </trkpt>
      <trkpt lat="46.65563" lon="5.60215">
        <ele>334</ele>
        <time>2021-05-29T12:54:31.785Z</time>
      </trkpt>
      <trkpt lat="46.65564" lon="5.60213">
        <ele>334</ele>
        <time>2021-05-29T12:54:32.785Z</time>
      </trkpt>
      <trkpt lat="46.65566" lon="5.60213">
        <ele>334</ele>
        <time>2021-05-29T12:54:33.785Z</time>
      </trkpt>
      <trkpt lat="46.65567" lon="5.60212">
        <ele>334</ele>
        <time>2021-05-29T12:54:34.786Z</time>
      </trkpt>
      <trkpt lat="46.65569" lon="5.60211">
        <ele>335</ele>
        <time>2021-05-29T12:54:35.786Z</time>
      </trkpt>
      <trkpt lat="46.6557" lon="5.6021">
        <ele>335</ele>
        <time>2021-05-29T12:54:36.785Z</time>
      </trkpt>
      <trkpt lat="46.65571" lon="5.60209">
        <ele>335</ele>
        <time>2021-05-29T12:54:37.786Z</time>
      </trkpt>
      <trkpt lat="46.65572" lon="5.60209">
        <ele>336</ele>
        <time>2021-05-29T12:54:38.786Z</time>
      </trkpt>
      <trkpt lat="46.65573" lon="5.60208">
        <ele>336</ele>
        <time>2021-05-29T12:54:39.786Z</time>
      </trkpt>
      <trkpt lat="46.65574" lon="5.60208">
        <ele>336</ele>
        <time>2021-05-29T12:54:40.785Z</time>
      </trkpt>
      <trkpt lat="46.65575" lon="5.60207">
        <ele>336</ele>
        <time>2021-05-29T12:54:41.786Z</time>
      </trkpt>
      <trkpt lat="46.65576" lon="5.60206">
        <ele>336</ele>
        <time>2021-05-29T12:54:42.786Z</time>
      </trkpt>
      <trkpt lat="46.65577" lon="5.60206">
        <ele>336</ele>
        <time>2021-05-29T12:54:43.786Z</time>
      </trkpt>
      <trkpt lat="46.65578" lon="5.60205">
        <ele>337</ele>
        <time>2021-05-29T12:54:44.786Z</time>
      </trkpt>
      <trkpt lat="46.65579" lon="5.60204">
        <ele>337</ele>
        <time>2021-05-29T12:54:45.785Z</time>
      </trkpt>
      <trkpt lat="46.65581" lon="5.60204">
        <ele>337</ele>
        <time>2021-05-29T12:54:46.785Z</time>
      </trkpt>
      <trkpt lat="46.65582" lon="5.60204">
        <ele>338</ele>
        <time>2021-05-29T12:54:47.785Z</time>
      </trkpt>
      <trkpt lat="46.65584" lon="5.60204">
        <ele>338</ele>
        <time>2021-05-29T12:54:48.785Z</time>
      </trkpt>
      <trkpt lat="46.65585" lon="5.60204">
        <ele>337</ele>
        <time>2021-05-29T12:54:49.785Z</time>
      </trkpt>
      <trkpt lat="46.65587" lon="5.60205">
        <ele>337</ele>
        <time>2021-05-29T12:54:50.786Z</time>
      </trkpt>
      <trkpt lat="46.65589" lon="5.60206">
        <ele>337</ele>
        <time>2021-05-29T12:54:51.785Z</time>
      </trkpt>
      <trkpt lat="46.6559" lon="5.60206">
        <ele>336</ele>
        <time>2021-05-29T12:54:52.786Z</time>
      </trkpt>
      <trkpt lat="46.65591" lon="5.60206">
        <ele>336</ele>
        <time>2021-05-29T12:54:53.785Z</time>
      </trkpt>
      <trkpt lat="46.65593" lon="5.60205">
        <ele>336</ele>
        <time>2021-05-29T12:54:54.786Z</time>
      </trkpt>
      <trkpt lat="46.65595" lon="5.60205">
        <ele>336</ele>
        <time>2021-05-29T12:54:55.786Z</time>
      </trkpt>
      <trkpt lat="46.65596" lon="5.60205">
        <ele>336</ele>
        <time>2021-05-29T12:54:56.785Z</time>
      </trkpt>
      <trkpt lat="46.65597" lon="5.60204">
        <ele>337</ele>
        <time>2021-05-29T12:54:57.786Z</time>
      </trkpt>
      <trkpt lat="46.65598" lon="5.60204">
        <ele>337</ele>
        <time>2021-05-29T12:54:58.786Z</time>
      </trkpt>
      <trkpt lat="46.65599" lon="5.60205">
        <ele>337</ele>
        <time>2021-05-29T12:54:59.786Z</time>
      </trkpt>
      <trkpt lat="46.65601" lon="5.60205">
        <ele>338</ele>
        <time>2021-05-29T12:55:00.786Z</time>
      </trkpt>
      <trkpt lat="46.65602" lon="5.60206">
        <ele>338</ele>
        <time>2021-05-29T12:55:01.786Z</time>
      </trkpt>
      <trkpt lat="46.65604" lon="5.60207">
        <ele>338</ele>
        <time>2021-05-29T12:55:02.785Z</time>
      </trkpt>
      <trkpt lat="46.65606" lon="5.60208">
        <ele>338</ele>
        <time>2021-05-29T12:55:03.786Z</time>
      </trkpt>
      <trkpt lat="46.65607" lon="5.60209">
        <ele>339</ele>
        <time>2021-05-29T12:55:04.786Z</time>
      </trkpt>
      <trkpt lat="46.65608" lon="5.60211">
        <ele>339</ele>
        <time>2021-05-29T12:55:05.786Z</time>
      </trkpt>
      <trkpt lat="46.65609" lon="5.60212">
        <ele>339</ele>
        <time>2021-05-29T12:55:06.785Z</time>
      </trkpt>
      <trkpt lat="46.65609" lon="5.60214">
        <ele>340</ele>
        <time>2021-05-29T12:55:07.786Z</time>
      </trkpt>
      <trkpt lat="46.65609" lon="5.60216">
        <ele>340</ele>
        <time>2021-05-29T12:55:08.786Z</time>
      </trkpt>
      <trkpt lat="46.65609" lon="5.60218">
        <ele>340</ele>
        <time>2021-05-29T12:55:09.786Z</time>
      </trkpt>
      <trkpt lat="46.65609" lon="5.6022">
        <ele>341</ele>
        <time>2021-05-29T12:55:10.785Z</time>
      </trkpt>
      <trkpt lat="46.65609" lon="5.60223">
        <ele>341</ele>
        <time>2021-05-29T12:55:11.785Z</time>
      </trkpt>
      <trkpt lat="46.65608" lon="5.60225">
        <ele>341</ele>
        <time>2021-05-29T12:55:12.786Z</time>
      </trkpt>
      <trkpt lat="46.65608" lon="5.60227">
        <ele>342</ele>
        <time>2021-05-29T12:55:13.785Z</time>
      </trkpt>
      <trkpt lat="46.65608" lon="5.6023">
        <ele>342</ele>
        <time>2021-05-29T12:55:14.786Z</time>
      </trkpt>
      <trkpt lat="46.65608" lon="5.60232">
        <ele>343</ele>
        <time>2021-05-29T12:55:15.786Z</time>
      </trkpt>
      <trkpt lat="46.65608" lon="5.60234">
        <ele>343</ele>
        <time>2021-05-29T12:55:16.786Z</time>
      </trkpt>
      <trkpt lat="46.65609" lon="5.60237">
        <ele>344</ele>
        <time>2021-05-29T12:55:17.786Z</time>
      </trkpt>
      <trkpt lat="46.65609" lon="5.60239">
        <ele>344</ele>
        <time>2021-05-29T12:55:18.786Z</time>
      </trkpt>
      <trkpt lat="46.65609" lon="5.60241">
        <ele>345</ele>
        <time>2021-05-29T12:55:19.785Z</time>
      </trkpt>
      <trkpt lat="46.6561" lon="5.60243">
        <ele>345</ele>
        <time>2021-05-29T12:55:20.785Z</time>
      </trkpt>
      <trkpt lat="46.6561" lon="5.60245">
        <ele>346</ele>
        <time>2021-05-29T12:55:21.786Z</time>
      </trkpt>
      <trkpt lat="46.6561" lon="5.60247">
        <ele>346</ele>
        <time>2021-05-29T12:55:22.786Z</time>
      </trkpt>
      <trkpt lat="46.6561" lon="5.60249">
        <ele>346</ele>
        <time>2021-05-29T12:55:23.786Z</time>
      </trkpt>
      <trkpt lat="46.65611" lon="5.60251">
        <ele>345</ele>
        <time>2021-05-29T12:55:24.786Z</time>
      </trkpt>
      <trkpt lat="46.65611" lon="5.60253">
        <ele>345</ele>
        <time>2021-05-29T12:55:25.786Z</time>
      </trkpt>
      <trkpt lat="46.65611" lon="5.60256">
        <ele>345</ele>
        <time>2021-05-29T12:55:26.786Z</time>
      </trkpt>
      <trkpt lat="46.65612" lon="5.60258">
        <ele>345</ele>
        <time>2021-05-29T12:55:27.786Z</time>
      </trkpt>
      <trkpt lat="46.65612" lon="5.6026">
        <ele>345</ele>
        <time>2021-05-29T12:55:28.786Z</time>
      </trkpt>
      <trkpt lat="46.65613" lon="5.60262">
        <ele>345</ele>
        <time>2021-05-29T12:55:29.786Z</time>
      </trkpt>
      <trkpt lat="46.65613" lon="5.60264">
        <ele>346</ele>
        <time>2021-05-29T12:55:30.786Z</time>
      </trkpt>
      <trkpt lat="46.65614" lon="5.60266">
        <ele>346</ele>
        <time>2021-05-29T12:55:31.786Z</time>
      </trkpt>
      <trkpt lat="46.65614" lon="5.60269">
        <ele>346</ele>
        <time>2021-05-29T12:55:32.786Z</time>
      </trkpt>
      <trkpt lat="46.65614" lon="5.60271">
        <ele>347</ele>
        <time>2021-05-29T12:55:33.786Z</time>
      </trkpt>
      <trkpt lat="46.65615" lon="5.60273">
        <ele>347</ele>
        <time>2021-05-29T12:55:34.785Z</time>
      </trkpt>
      <trkpt lat="46.65615" lon="5.60275">
        <ele>347</ele>
        <time>2021-05-29T12:55:35.786Z</time>
      </trkpt>
      <trkpt lat="46.65615" lon="5.60278">
        <ele>347</ele>
        <time>2021-05-29T12:55:36.785Z</time>
      </trkpt>
      <trkpt lat="46.65615" lon="5.6028">
        <ele>347</ele>
        <time>2021-05-29T12:55:37.786Z</time>
      </trkpt>
      <trkpt lat="46.65615" lon="5.60282">
        <ele>348</ele>
        <time>2021-05-29T12:55:38.786Z</time>
      </trkpt>
      <trkpt lat="46.65616" lon="5.60285">
        <ele>348</ele>
        <time>2021-05-29T12:55:39.786Z</time>
      </trkpt>
      <trkpt lat="46.65616" lon="5.60287">
        <ele>349</ele>
        <time>2021-05-29T12:55:40.786Z</time>
      </trkpt>
      <trkpt lat="46.65616" lon="5.60289">
        <ele>349</ele>
        <time>2021-05-29T12:55:41.786Z</time>
      </trkpt>
      <trkpt lat="46.65617" lon="5.60291">
        <ele>349</ele>
        <time>2021-05-29T12:55:42.786Z</time>
      </trkpt>
      <trkpt lat="46.65617" lon="5.60293">
        <ele>349</ele>
        <time>2021-05-29T12:55:43.786Z</time>
      </trkpt>
      <trkpt lat="46.65618" lon="5.60295">
        <ele>349</ele>
        <time>2021-05-29T12:55:44.786Z</time>
      </trkpt>
      <trkpt lat="46.65619" lon="5.60298">
        <ele>349</ele>
        <time>2021-05-29T12:55:45.786Z</time>
      </trkpt>
      <trkpt lat="46.6562" lon="5.603">
        <ele>349</ele>
        <time>2021-05-29T12:55:46.785Z</time>
      </trkpt>
      <trkpt lat="46.6562" lon="5.60303">
        <ele>349</ele>
        <time>2021-05-29T12:55:47.785Z</time>
      </trkpt>
      <trkpt lat="46.6562" lon="5.60306">
        <ele>349</ele>
        <time>2021-05-29T12:55:48.786Z</time>
      </trkpt>
      <trkpt lat="46.65621" lon="5.6031">
        <ele>349</ele>
        <time>2021-05-29T12:55:49.786Z</time>
      </trkpt>
      <trkpt lat="46.65621" lon="5.60313">
        <ele>349</ele>
        <time>2021-05-29T12:55:50.785Z</time>
      </trkpt>
      <trkpt lat="46.6562" lon="5.60316">
        <ele>348</ele>
        <time>2021-05-29T12:55:51.786Z</time>
      </trkpt>
      <trkpt lat="46.6562" lon="5.60319">
        <ele>348</ele>
        <time>2021-05-29T12:55:52.786Z</time>
      </trkpt>
      <trkpt lat="46.65619" lon="5.60322">
        <ele>347</ele>
        <time>2021-05-29T12:55:53.786Z</time>
      </trkpt>
      <trkpt lat="46.65619" lon="5.60326">
        <ele>346</ele>
        <time>2021-05-29T12:55:54.786Z</time>
      </trkpt>
      <trkpt lat="46.65618" lon="5.6033">
        <ele>346</ele>
        <time>2021-05-29T12:55:55.785Z</time>
      </trkpt>
      <trkpt lat="46.65618" lon="5.60334">
        <ele>346</ele>
        <time>2021-05-29T12:55:56.786Z</time>
      </trkpt>
      <trkpt lat="46.65619" lon="5.60338">
        <ele>345</ele>
        <time>2021-05-29T12:55:57.786Z</time>
      </trkpt>
      <trkpt lat="46.65619" lon="5.60341">
        <ele>344</ele>
        <time>2021-05-29T12:55:58.786Z</time>
      </trkpt>
      <trkpt lat="46.65619" lon="5.60345">
        <ele>344</ele>
        <time>2021-05-29T12:55:59.786Z</time>
      </trkpt>
      <trkpt lat="46.6562" lon="5.60349">
        <ele>343</ele>
        <time>2021-05-29T12:56:00.786Z</time>
      </trkpt>
      <trkpt lat="46.6562" lon="5.60352">
        <ele>343</ele>
        <time>2021-05-29T12:56:01.786Z</time>
      </trkpt>
      <trkpt lat="46.65621" lon="5.60356">
        <ele>343</ele>
        <time>2021-05-29T12:56:02.786Z</time>
      </trkpt>
      <trkpt lat="46.65622" lon="5.60359">
        <ele>343</ele>
        <time>2021-05-29T12:56:03.785Z</time>
      </trkpt>
      <trkpt lat="46.65623" lon="5.60362">
        <ele>343</ele>
        <time>2021-05-29T12:56:04.785Z</time>
      </trkpt>
      <trkpt lat="46.65624" lon="5.60365">
        <ele>343</ele>
        <time>2021-05-29T12:56:05.786Z</time>
      </trkpt>
      <trkpt lat="46.65625" lon="5.60368">
        <ele>344</ele>
        <time>2021-05-29T12:56:06.786Z</time>
      </trkpt>
      <trkpt lat="46.65626" lon="5.60372">
        <ele>344</ele>
        <time>2021-05-29T12:56:07.786Z</time>
      </trkpt>
      <trkpt lat="46.65626" lon="5.60375">
        <ele>344</ele>
        <time>2021-05-29T12:56:08.786Z</time>
      </trkpt>
      <trkpt lat="46.65627" lon="5.60378">
        <ele>344</ele>
        <time>2021-05-29T12:56:09.786Z</time>
      </trkpt>
      <trkpt lat="46.65628" lon="5.60381">
        <ele>344</ele>
        <time>2021-05-29T12:56:10.786Z</time>
      </trkpt>
      <trkpt lat="46.65629" lon="5.60384">
        <ele>345</ele>
        <time>2021-05-29T12:56:11.786Z</time>
      </trkpt>
      <trkpt lat="46.6563" lon="5.60387">
        <ele>345</ele>
        <time>2021-05-29T12:56:12.786Z</time>
      </trkpt>
      <trkpt lat="46.65632" lon="5.6039">
        <ele>346</ele>
        <time>2021-05-29T12:56:13.786Z</time>
      </trkpt>
      <trkpt lat="46.65633" lon="5.60393">
        <ele>346</ele>
        <time>2021-05-29T12:56:14.786Z</time>
      </trkpt>
      <trkpt lat="46.65635" lon="5.60395">
        <ele>346</ele>
        <time>2021-05-29T12:56:15.785Z</time>
      </trkpt>
      <trkpt lat="46.65636" lon="5.60398">
        <ele>346</ele>
        <time>2021-05-29T12:56:16.786Z</time>
      </trkpt>
      <trkpt lat="46.65637" lon="5.604">
        <ele>345</ele>
        <time>2021-05-29T12:56:17.785Z</time>
      </trkpt>
      <trkpt lat="46.65638" lon="5.60403">
        <ele>345</ele>
        <time>2021-05-29T12:56:18.786Z</time>
      </trkpt>
      <trkpt lat="46.6564" lon="5.60405">
        <ele>345</ele>
        <time>2021-05-29T12:56:19.786Z</time>
      </trkpt>
      <trkpt lat="46.65642" lon="5.60408">
        <ele>345</ele>
        <time>2021-05-29T12:56:20.786Z</time>
      </trkpt>
      <trkpt lat="46.65643" lon="5.60411">
        <ele>344</ele>
        <time>2021-05-29T12:56:21.785Z</time>
      </trkpt>
      <trkpt lat="46.65645" lon="5.60414">
        <ele>344</ele>
        <time>2021-05-29T12:56:22.786Z</time>
      </trkpt>
      <trkpt lat="46.65646" lon="5.60416">
        <ele>344</ele>
        <time>2021-05-29T12:56:23.785Z</time>
      </trkpt>
      <trkpt lat="46.65647" lon="5.60419">
        <ele>345</ele>
        <time>2021-05-29T12:56:24.785Z</time>
      </trkpt>
      <trkpt lat="46.65649" lon="5.60423">
        <ele>345</ele>
        <time>2021-05-29T12:56:25.785Z</time>
      </trkpt>
      <trkpt lat="46.6565" lon="5.60425">
        <ele>345</ele>
        <time>2021-05-29T12:56:26.785Z</time>
      </trkpt>
      <trkpt lat="46.65652" lon="5.60428">
        <ele>344</ele>
        <time>2021-05-29T12:56:27.785Z</time>
      </trkpt>
      <trkpt lat="46.65653" lon="5.60431">
        <ele>344</ele>
        <time>2021-05-29T12:56:28.786Z</time>
      </trkpt>
      <trkpt lat="46.65655" lon="5.60434">
        <ele>343</ele>
        <time>2021-05-29T12:56:29.786Z</time>
      </trkpt>
      <trkpt lat="46.65656" lon="5.60437">
        <ele>343</ele>
        <time>2021-05-29T12:56:30.786Z</time>
      </trkpt>
      <trkpt lat="46.65658" lon="5.6044">
        <ele>344</ele>
        <time>2021-05-29T12:56:31.786Z</time>
      </trkpt>
      <trkpt lat="46.65659" lon="5.60442">
        <ele>344</ele>
        <time>2021-05-29T12:56:32.786Z</time>
      </trkpt>
      <trkpt lat="46.65661" lon="5.60445">
        <ele>344</ele>
        <time>2021-05-29T12:56:33.785Z</time>
      </trkpt>
      <trkpt lat="46.65662" lon="5.60448">
        <ele>344</ele>
        <time>2021-05-29T12:56:34.786Z</time>
      </trkpt>
      <trkpt lat="46.65663" lon="5.60451">
        <ele>344</ele>
        <time>2021-05-29T12:56:35.786Z</time>
      </trkpt>
      <trkpt lat="46.65665" lon="5.60454">
        <ele>344</ele>
        <time>2021-05-29T12:56:36.786Z</time>
      </trkpt>
      <trkpt lat="46.65666" lon="5.60457">
        <ele>344</ele>
        <time>2021-05-29T12:56:37.786Z</time>
      </trkpt>
      <trkpt lat="46.65667" lon="5.60459">
        <ele>344</ele>
        <time>2021-05-29T12:56:38.786Z</time>
      </trkpt>
      <trkpt lat="46.65669" lon="5.60462">
        <ele>345</ele>
        <time>2021-05-29T12:56:39.786Z</time>
      </trkpt>
      <trkpt lat="46.6567" lon="5.60465">
        <ele>345</ele>
        <time>2021-05-29T12:56:40.786Z</time>
      </trkpt>
      <trkpt lat="46.65672" lon="5.60468">
        <ele>345</ele>
        <time>2021-05-29T12:56:41.785Z</time>
      </trkpt>
      <trkpt lat="46.65674" lon="5.6047">
        <ele>345</ele>
        <time>2021-05-29T12:56:42.786Z</time>
      </trkpt>
      <trkpt lat="46.65676" lon="5.60473">
        <ele>346</ele>
        <time>2021-05-29T12:56:43.786Z</time>
      </trkpt>
      <trkpt lat="46.65678" lon="5.60476">
        <ele>346</ele>
        <time>2021-05-29T12:56:44.786Z</time>
      </trkpt>
      <trkpt lat="46.65681" lon="5.60478">
        <ele>346</ele>
        <time>2021-05-29T12:56:45.786Z</time>
      </trkpt>
      <trkpt lat="46.65683" lon="5.60481">
        <ele>347</ele>
        <time>2021-05-29T12:56:46.786Z</time>
      </trkpt>
      <trkpt lat="46.65684" lon="5.60483">
        <ele>347</ele>
        <time>2021-05-29T12:56:47.786Z</time>
      </trkpt>
      <trkpt lat="46.65685" lon="5.60486">
        <ele>347</ele>
        <time>2021-05-29T12:56:48.785Z</time>
      </trkpt>
      <trkpt lat="46.65686" lon="5.60488">
        <ele>347</ele>
        <time>2021-05-29T12:56:49.786Z</time>
      </trkpt>
      <trkpt lat="46.65687" lon="5.6049">
        <ele>347</ele>
        <time>2021-05-29T12:56:50.786Z</time>
      </trkpt>
      <trkpt lat="46.65688" lon="5.60492">
        <ele>346</ele>
        <time>2021-05-29T12:56:51.786Z</time>
      </trkpt>
      <trkpt lat="46.65689" lon="5.60495">
        <ele>346</ele>
        <time>2021-05-29T12:56:52.786Z</time>
      </trkpt>
      <trkpt lat="46.6569" lon="5.60497">
        <ele>346</ele>
        <time>2021-05-29T12:56:53.786Z</time>
      </trkpt>
      <trkpt lat="46.65691" lon="5.60499">
        <ele>346</ele>
        <time>2021-05-29T12:56:54.786Z</time>
      </trkpt>
      <trkpt lat="46.65692" lon="5.60501">
        <ele>345</ele>
        <time>2021-05-29T12:56:55.785Z</time>
      </trkpt>
      <trkpt lat="46.65694" lon="5.60503">
        <ele>346</ele>
        <time>2021-05-29T12:56:56.786Z</time>
      </trkpt>
      <trkpt lat="46.65695" lon="5.60506">
        <ele>345</ele>
        <time>2021-05-29T12:56:57.786Z</time>
      </trkpt>
      <trkpt lat="46.65697" lon="5.60508">
        <ele>346</ele>
        <time>2021-05-29T12:56:58.786Z</time>
      </trkpt>
      <trkpt lat="46.65698" lon="5.6051">
        <ele>346</ele>
        <time>2021-05-29T12:56:59.786Z</time>
      </trkpt>
      <trkpt lat="46.657" lon="5.60513">
        <ele>346</ele>
        <time>2021-05-29T12:57:00.786Z</time>
      </trkpt>
      <trkpt lat="46.65701" lon="5.60516">
        <ele>346</ele>
        <time>2021-05-29T12:57:01.786Z</time>
      </trkpt>
      <trkpt lat="46.65701" lon="5.60519">
        <ele>347</ele>
        <time>2021-05-29T12:57:02.786Z</time>
      </trkpt>
      <trkpt lat="46.65702" lon="5.60522">
        <ele>347</ele>
        <time>2021-05-29T12:57:03.786Z</time>
      </trkpt>
      <trkpt lat="46.65703" lon="5.60526">
        <ele>347</ele>
        <time>2021-05-29T12:57:04.786Z</time>
      </trkpt>
      <trkpt lat="46.65704" lon="5.60529">
        <ele>347</ele>
        <time>2021-05-29T12:57:05.786Z</time>
      </trkpt>
      <trkpt lat="46.65705" lon="5.60533">
        <ele>347</ele>
        <time>2021-05-29T12:57:06.786Z</time>
      </trkpt>
      <trkpt lat="46.65705" lon="5.60536">
        <ele>347</ele>
        <time>2021-05-29T12:57:07.786Z</time>
      </trkpt>
      <trkpt lat="46.65705" lon="5.60539">
        <ele>347</ele>
        <time>2021-05-29T12:57:08.786Z</time>
      </trkpt>
      <trkpt lat="46.65706" lon="5.60543">
        <ele>347</ele>
        <time>2021-05-29T12:57:09.786Z</time>
      </trkpt>
      <trkpt lat="46.65705" lon="5.60546">
        <ele>346</ele>
        <time>2021-05-29T12:57:10.786Z</time>
      </trkpt>
      <trkpt lat="46.65704" lon="5.6055">
        <ele>346</ele>
        <time>2021-05-29T12:57:11.786Z</time>
      </trkpt>
      <trkpt lat="46.65704" lon="5.60553">
        <ele>346</ele>
        <time>2021-05-29T12:57:12.786Z</time>
      </trkpt>
      <trkpt lat="46.65703" lon="5.60557">
        <ele>345</ele>
        <time>2021-05-29T12:57:13.786Z</time>
      </trkpt>
      <trkpt lat="46.65702" lon="5.6056">
        <ele>345</ele>
        <time>2021-05-29T12:57:14.786Z</time>
      </trkpt>
      <trkpt lat="46.65701" lon="5.60563">
        <ele>344</ele>
        <time>2021-05-29T12:57:15.786Z</time>
      </trkpt>
      <trkpt lat="46.657" lon="5.60566">
        <ele>344</ele>
        <time>2021-05-29T12:57:16.786Z</time>
      </trkpt>
      <trkpt lat="46.65698" lon="5.60569">
        <ele>344</ele>
        <time>2021-05-29T12:57:17.785Z</time>
      </trkpt>
      <trkpt lat="46.65697" lon="5.60572">
        <ele>344</ele>
        <time>2021-05-29T12:57:18.786Z</time>
      </trkpt>
      <trkpt lat="46.65695" lon="5.60575">
        <ele>343</ele>
        <time>2021-05-29T12:57:19.786Z</time>
      </trkpt>
      <trkpt lat="46.65693" lon="5.60578">
        <ele>343</ele>
        <time>2021-05-29T12:57:20.786Z</time>
      </trkpt>
      <trkpt lat="46.65692" lon="5.60581">
        <ele>342</ele>
        <time>2021-05-29T12:57:21.786Z</time>
      </trkpt>
      <trkpt lat="46.6569" lon="5.60583">
        <ele>342</ele>
        <time>2021-05-29T12:57:22.785Z</time>
      </trkpt>
      <trkpt lat="46.65688" lon="5.60586">
        <ele>341</ele>
        <time>2021-05-29T12:57:23.786Z</time>
      </trkpt>
      <trkpt lat="46.65686" lon="5.60589">
        <ele>341</ele>
        <time>2021-05-29T12:57:24.786Z</time>
      </trkpt>
      <trkpt lat="46.65684" lon="5.60592">
        <ele>341</ele>
        <time>2021-05-29T12:57:25.785Z</time>
      </trkpt>
      <trkpt lat="46.65682" lon="5.60594">
        <ele>341</ele>
        <time>2021-05-29T12:57:26.786Z</time>
      </trkpt>
      <trkpt lat="46.6568" lon="5.60596">
        <ele>340</ele>
        <time>2021-05-29T12:57:27.786Z</time>
      </trkpt>
      <trkpt lat="46.65678" lon="5.60598">
        <ele>340</ele>
        <time>2021-05-29T12:57:28.786Z</time>
      </trkpt>
      <trkpt lat="46.65676" lon="5.606">
        <ele>339</ele>
        <time>2021-05-29T12:57:29.786Z</time>
      </trkpt>
      <trkpt lat="46.65674" lon="5.60602">
        <ele>339</ele>
        <time>2021-05-29T12:57:30.786Z</time>
      </trkpt>
      <trkpt lat="46.65673" lon="5.60604">
        <ele>339</ele>
        <time>2021-05-29T12:57:31.786Z</time>
      </trkpt>
      <trkpt lat="46.65671" lon="5.60605">
        <ele>339</ele>
        <time>2021-05-29T12:57:32.786Z</time>
      </trkpt>
      <trkpt lat="46.6567" lon="5.60607">
        <ele>339</ele>
        <time>2021-05-29T12:57:33.786Z</time>
      </trkpt>
      <trkpt lat="46.65668" lon="5.60609">
        <ele>339</ele>
        <time>2021-05-29T12:57:34.786Z</time>
      </trkpt>
      <trkpt lat="46.65667" lon="5.60611">
        <ele>339</ele>
        <time>2021-05-29T12:57:35.786Z</time>
      </trkpt>
      <trkpt lat="46.65667" lon="5.60614">
        <ele>339</ele>
        <time>2021-05-29T12:57:36.786Z</time>
      </trkpt>
      <trkpt lat="46.65668" lon="5.60617">
        <ele>339</ele>
        <time>2021-05-29T12:57:37.786Z</time>
      </trkpt>
      <trkpt lat="46.65668" lon="5.60619">
        <ele>339</ele>
        <time>2021-05-29T12:57:38.786Z</time>
      </trkpt>
      <trkpt lat="46.65669" lon="5.60621">
        <ele>339</ele>
        <time>2021-05-29T12:57:39.785Z</time>
      </trkpt>
      <trkpt lat="46.65671" lon="5.60623">
        <ele>339</ele>
        <time>2021-05-29T12:57:40.785Z</time>
      </trkpt>
      <trkpt lat="46.65673" lon="5.60625">
        <ele>339</ele>
        <time>2021-05-29T12:57:41.786Z</time>
      </trkpt>
      <trkpt lat="46.65674" lon="5.60627">
        <ele>339</ele>
        <time>2021-05-29T12:57:42.786Z</time>
      </trkpt>
      <trkpt lat="46.65676" lon="5.60629">
        <ele>339</ele>
        <time>2021-05-29T12:57:43.786Z</time>
      </trkpt>
      <trkpt lat="46.65677" lon="5.60632">
        <ele>339</ele>
        <time>2021-05-29T12:57:44.786Z</time>
      </trkpt>
      <trkpt lat="46.65678" lon="5.60634">
        <ele>339</ele>
        <time>2021-05-29T12:57:45.785Z</time>
      </trkpt>
      <trkpt lat="46.6568" lon="5.60636">
        <ele>340</ele>
        <time>2021-05-29T12:57:46.786Z</time>
      </trkpt>
      <trkpt lat="46.65682" lon="5.60638">
        <ele>340</ele>
        <time>2021-05-29T12:57:47.786Z</time>
      </trkpt>
      <trkpt lat="46.65683" lon="5.60639">
        <ele>340</ele>
        <time>2021-05-29T12:57:48.786Z</time>
      </trkpt>
      <trkpt lat="46.65689" lon="5.60646">
        <ele>343</ele>
        <time>2021-05-29T12:57:49.787Z</time>
      </trkpt>
      <trkpt lat="46.65689" lon="5.60646">
        <ele>343</ele>
        <time>2021-05-29T12:57:50.787Z</time>
      </trkpt>
      <trkpt lat="46.65689" lon="5.60646">
        <ele>343</ele>
        <time>2021-05-29T12:57:51.786Z</time>
      </trkpt>
      <trkpt lat="46.65689" lon="5.60646">
        <ele>343</ele>
        <time>2021-05-29T12:57:52.787Z</time>
      </trkpt>
      <trkpt lat="46.65689" lon="5.60646">
        <ele>343</ele>
        <time>2021-05-29T12:57:53.787Z</time>
      </trkpt>
      <trkpt lat="46.6569" lon="5.60646">
        <ele>343</ele>
        <time>2021-05-29T12:57:54.787Z</time>
      </trkpt>
      <trkpt lat="46.6569" lon="5.60646">
        <ele>343</ele>
        <time>2021-05-29T12:57:55.787Z</time>
      </trkpt>
      <trkpt lat="46.65691" lon="5.60646">
        <ele>343</ele>
        <time>2021-05-29T12:57:56.786Z</time>
      </trkpt>
      <trkpt lat="46.65693" lon="5.60646">
        <ele>343</ele>
        <time>2021-05-29T12:57:57.787Z</time>
      </trkpt>
      <trkpt lat="46.65695" lon="5.60646">
        <ele>343</ele>
        <time>2021-05-29T12:57:58.787Z</time>
      </trkpt>
      <trkpt lat="46.65698" lon="5.60646">
        <ele>343</ele>
        <time>2021-05-29T12:57:59.786Z</time>
      </trkpt>
      <trkpt lat="46.657" lon="5.60646">
        <ele>343</ele>
        <time>2021-05-29T12:58:00.787Z</time>
      </trkpt>
      <trkpt lat="46.65703" lon="5.60647">
        <ele>343</ele>
        <time>2021-05-29T12:58:01.786Z</time>
      </trkpt>
      <trkpt lat="46.65706" lon="5.60647">
        <ele>344</ele>
        <time>2021-05-29T12:58:02.787Z</time>
      </trkpt>
      <trkpt lat="46.65708" lon="5.60648">
        <ele>344</ele>
        <time>2021-05-29T12:58:03.787Z</time>
      </trkpt>
      <trkpt lat="46.65711" lon="5.60648">
        <ele>345</ele>
        <time>2021-05-29T12:58:04.787Z</time>
      </trkpt>
      <trkpt lat="46.65714" lon="5.60648">
        <ele>346</ele>
        <time>2021-05-29T12:58:05.787Z</time>
      </trkpt>
      <trkpt lat="46.65716" lon="5.60649">
        <ele>346</ele>
        <time>2021-05-29T12:58:06.786Z</time>
      </trkpt>
      <trkpt lat="46.65718" lon="5.6065">
        <ele>347</ele>
        <time>2021-05-29T12:58:07.787Z</time>
      </trkpt>
      <trkpt lat="46.65721" lon="5.6065">
        <ele>347</ele>
        <time>2021-05-29T12:58:08.787Z</time>
      </trkpt>
      <trkpt lat="46.65722" lon="5.60652">
        <ele>348</ele>
        <time>2021-05-29T12:58:09.787Z</time>
      </trkpt>
      <trkpt lat="46.65724" lon="5.60653">
        <ele>348</ele>
        <time>2021-05-29T12:58:10.787Z</time>
      </trkpt>
      <trkpt lat="46.65725" lon="5.60654">
        <ele>348</ele>
        <time>2021-05-29T12:58:11.786Z</time>
      </trkpt>
      <trkpt lat="46.65726" lon="5.60655">
        <ele>348</ele>
        <time>2021-05-29T12:58:12.787Z</time>
      </trkpt>
      <trkpt lat="46.65728" lon="5.60656">
        <ele>348</ele>
        <time>2021-05-29T12:58:13.786Z</time>
      </trkpt>
      <trkpt lat="46.65729" lon="5.60656">
        <ele>348</ele>
        <time>2021-05-29T12:58:14.787Z</time>
      </trkpt>
      <trkpt lat="46.65731" lon="5.60656">
        <ele>348</ele>
        <time>2021-05-29T12:58:15.787Z</time>
      </trkpt>
      <trkpt lat="46.65733" lon="5.60657">
        <ele>349</ele>
        <time>2021-05-29T12:58:16.787Z</time>
      </trkpt>
      <trkpt lat="46.65735" lon="5.60657">
        <ele>349</ele>
        <time>2021-05-29T12:58:17.787Z</time>
      </trkpt>
      <trkpt lat="46.65737" lon="5.60658">
        <ele>350</ele>
        <time>2021-05-29T12:58:18.787Z</time>
      </trkpt>
      <trkpt lat="46.65739" lon="5.60659">
        <ele>350</ele>
        <time>2021-05-29T12:58:19.787Z</time>
      </trkpt>
      <trkpt lat="46.65741" lon="5.60659">
        <ele>351</ele>
        <time>2021-05-29T12:58:20.786Z</time>
      </trkpt>
      <trkpt lat="46.65743" lon="5.6066">
        <ele>351</ele>
        <time>2021-05-29T12:58:21.786Z</time>
      </trkpt>
      <trkpt lat="46.65745" lon="5.60661">
        <ele>351</ele>
        <time>2021-05-29T12:58:22.787Z</time>
      </trkpt>
      <trkpt lat="46.65747" lon="5.60661">
        <ele>351</ele>
        <time>2021-05-29T12:58:23.787Z</time>
      </trkpt>
      <trkpt lat="46.65748" lon="5.60661">
        <ele>351</ele>
        <time>2021-05-29T12:58:24.786Z</time>
      </trkpt>
      <trkpt lat="46.65749" lon="5.60661">
        <ele>351</ele>
        <time>2021-05-29T12:58:25.787Z</time>
      </trkpt>
      <trkpt lat="46.65751" lon="5.60661">
        <ele>351</ele>
        <time>2021-05-29T12:58:26.787Z</time>
      </trkpt>
      <trkpt lat="46.65753" lon="5.60662">
        <ele>351</ele>
        <time>2021-05-29T12:58:27.786Z</time>
      </trkpt>
      <trkpt lat="46.65754" lon="5.60663">
        <ele>351</ele>
        <time>2021-05-29T12:58:28.786Z</time>
      </trkpt>
      <trkpt lat="46.65755" lon="5.60664">
        <ele>351</ele>
        <time>2021-05-29T12:58:29.787Z</time>
      </trkpt>
      <trkpt lat="46.65757" lon="5.60665">
        <ele>351</ele>
        <time>2021-05-29T12:58:30.786Z</time>
      </trkpt>
      <trkpt lat="46.65758" lon="5.60666">
        <ele>351</ele>
        <time>2021-05-29T12:58:31.787Z</time>
      </trkpt>
      <trkpt lat="46.6576" lon="5.60666">
        <ele>351</ele>
        <time>2021-05-29T12:58:32.786Z</time>
      </trkpt>
      <trkpt lat="46.65762" lon="5.60667">
        <ele>352</ele>
        <time>2021-05-29T12:58:33.786Z</time>
      </trkpt>
      <trkpt lat="46.65763" lon="5.60668">
        <ele>352</ele>
        <time>2021-05-29T12:58:34.787Z</time>
      </trkpt>
      <trkpt lat="46.65765" lon="5.60668">
        <ele>353</ele>
        <time>2021-05-29T12:58:35.787Z</time>
      </trkpt>
      <trkpt lat="46.65767" lon="5.60669">
        <ele>353</ele>
        <time>2021-05-29T12:58:36.787Z</time>
      </trkpt>
      <trkpt lat="46.65768" lon="5.6067">
        <ele>354</ele>
        <time>2021-05-29T12:58:37.787Z</time>
      </trkpt>
      <trkpt lat="46.65769" lon="5.60671">
        <ele>355</ele>
        <time>2021-05-29T12:58:38.786Z</time>
      </trkpt>
      <trkpt lat="46.65771" lon="5.60671">
        <ele>355</ele>
        <time>2021-05-29T12:58:39.787Z</time>
      </trkpt>
      <trkpt lat="46.65772" lon="5.60671">
        <ele>355</ele>
        <time>2021-05-29T12:58:40.787Z</time>
      </trkpt>
      <trkpt lat="46.65774" lon="5.60672">
        <ele>356</ele>
        <time>2021-05-29T12:58:41.787Z</time>
      </trkpt>
      <trkpt lat="46.65776" lon="5.60673">
        <ele>356</ele>
        <time>2021-05-29T12:58:42.786Z</time>
      </trkpt>
      <trkpt lat="46.65778" lon="5.60674">
        <ele>356</ele>
        <time>2021-05-29T12:58:43.787Z</time>
      </trkpt>
      <trkpt lat="46.65779" lon="5.60675">
        <ele>356</ele>
        <time>2021-05-29T12:58:44.787Z</time>
      </trkpt>
      <trkpt lat="46.65781" lon="5.60675">
        <ele>356</ele>
        <time>2021-05-29T12:58:45.787Z</time>
      </trkpt>
      <trkpt lat="46.65782" lon="5.60676">
        <ele>357</ele>
        <time>2021-05-29T12:58:46.787Z</time>
      </trkpt>
      <trkpt lat="46.65784" lon="5.60677">
        <ele>357</ele>
        <time>2021-05-29T12:58:47.787Z</time>
      </trkpt>
      <trkpt lat="46.65786" lon="5.60678">
        <ele>357</ele>
        <time>2021-05-29T12:58:48.787Z</time>
      </trkpt>
      <trkpt lat="46.65788" lon="5.60679">
        <ele>358</ele>
        <time>2021-05-29T12:58:49.787Z</time>
      </trkpt>
      <trkpt lat="46.65789" lon="5.6068">
        <ele>358</ele>
        <time>2021-05-29T12:58:50.787Z</time>
      </trkpt>
      <trkpt lat="46.6579" lon="5.6068">
        <ele>359</ele>
        <time>2021-05-29T12:58:51.786Z</time>
      </trkpt>
      <trkpt lat="46.65792" lon="5.60681">
        <ele>358</ele>
        <time>2021-05-29T12:58:52.787Z</time>
      </trkpt>
      <trkpt lat="46.65793" lon="5.60682">
        <ele>358</ele>
        <time>2021-05-29T12:58:53.787Z</time>
      </trkpt>
      <trkpt lat="46.65795" lon="5.60683">
        <ele>358</ele>
        <time>2021-05-29T12:58:54.787Z</time>
      </trkpt>
      <trkpt lat="46.65796" lon="5.60684">
        <ele>357</ele>
        <time>2021-05-29T12:58:55.787Z</time>
      </trkpt>
      <trkpt lat="46.65798" lon="5.60685">
        <ele>357</ele>
        <time>2021-05-29T12:58:56.786Z</time>
      </trkpt>
      <trkpt lat="46.658" lon="5.60685">
        <ele>357</ele>
        <time>2021-05-29T12:58:57.786Z</time>
      </trkpt>
      <trkpt lat="46.65801" lon="5.60686">
        <ele>357</ele>
        <time>2021-05-29T12:58:58.786Z</time>
      </trkpt>
      <trkpt lat="46.65803" lon="5.60687">
        <ele>357</ele>
        <time>2021-05-29T12:58:59.786Z</time>
      </trkpt>
      <trkpt lat="46.65805" lon="5.60689">
        <ele>356</ele>
        <time>2021-05-29T12:59:00.786Z</time>
      </trkpt>
      <trkpt lat="46.65807" lon="5.6069">
        <ele>356</ele>
        <time>2021-05-29T12:59:01.786Z</time>
      </trkpt>
      <trkpt lat="46.65808" lon="5.60692">
        <ele>356</ele>
        <time>2021-05-29T12:59:02.786Z</time>
      </trkpt>
      <trkpt lat="46.6581" lon="5.60693">
        <ele>355</ele>
        <time>2021-05-29T12:59:03.787Z</time>
      </trkpt>
      <trkpt lat="46.65812" lon="5.60695">
        <ele>355</ele>
        <time>2021-05-29T12:59:04.787Z</time>
      </trkpt>
      <trkpt lat="46.65814" lon="5.60696">
        <ele>355</ele>
        <time>2021-05-29T12:59:05.787Z</time>
      </trkpt>
      <trkpt lat="46.65815" lon="5.60698">
        <ele>355</ele>
        <time>2021-05-29T12:59:06.786Z</time>
      </trkpt>
      <trkpt lat="46.65816" lon="5.60699">
        <ele>356</ele>
        <time>2021-05-29T12:59:07.786Z</time>
      </trkpt>
      <trkpt lat="46.65818" lon="5.607">
        <ele>356</ele>
        <time>2021-05-29T12:59:08.786Z</time>
      </trkpt>
      <trkpt lat="46.6582" lon="5.60702">
        <ele>356</ele>
        <time>2021-05-29T12:59:09.787Z</time>
      </trkpt>
      <trkpt lat="46.65822" lon="5.60703">
        <ele>356</ele>
        <time>2021-05-29T12:59:10.787Z</time>
      </trkpt>
      <trkpt lat="46.65823" lon="5.60704">
        <ele>356</ele>
        <time>2021-05-29T12:59:11.786Z</time>
      </trkpt>
      <trkpt lat="46.65825" lon="5.60705">
        <ele>357</ele>
        <time>2021-05-29T12:59:12.787Z</time>
      </trkpt>
      <trkpt lat="46.65826" lon="5.60706">
        <ele>357</ele>
        <time>2021-05-29T12:59:13.787Z</time>
      </trkpt>
      <trkpt lat="46.65827" lon="5.60707">
        <ele>357</ele>
        <time>2021-05-29T12:59:14.787Z</time>
      </trkpt>
      <trkpt lat="46.65828" lon="5.60708">
        <ele>356</ele>
        <time>2021-05-29T12:59:15.786Z</time>
      </trkpt>
      <trkpt lat="46.6583" lon="5.6071">
        <ele>356</ele>
        <time>2021-05-29T12:59:16.787Z</time>
      </trkpt>
      <trkpt lat="46.65831" lon="5.60712">
        <ele>356</ele>
        <time>2021-05-29T12:59:17.786Z</time>
      </trkpt>
      <trkpt lat="46.65833" lon="5.60714">
        <ele>356</ele>
        <time>2021-05-29T12:59:18.787Z</time>
      </trkpt>
      <trkpt lat="46.65834" lon="5.60715">
        <ele>356</ele>
        <time>2021-05-29T12:59:19.787Z</time>
      </trkpt>
      <trkpt lat="46.65835" lon="5.60716">
        <ele>356</ele>
        <time>2021-05-29T12:59:20.786Z</time>
      </trkpt>
      <trkpt lat="46.65836" lon="5.60717">
        <ele>356</ele>
        <time>2021-05-29T12:59:21.786Z</time>
      </trkpt>
      <trkpt lat="46.65837" lon="5.60718">
        <ele>357</ele>
        <time>2021-05-29T12:59:22.787Z</time>
      </trkpt>
      <trkpt lat="46.65839" lon="5.60719">
        <ele>358</ele>
        <time>2021-05-29T12:59:23.787Z</time>
      </trkpt>
      <trkpt lat="46.6584" lon="5.6072">
        <ele>358</ele>
        <time>2021-05-29T12:59:24.786Z</time>
      </trkpt>
      <trkpt lat="46.65842" lon="5.60721">
        <ele>359</ele>
        <time>2021-05-29T12:59:25.787Z</time>
      </trkpt>
      <trkpt lat="46.65843" lon="5.60722">
        <ele>360</ele>
        <time>2021-05-29T12:59:26.786Z</time>
      </trkpt>
      <trkpt lat="46.65845" lon="5.60723">
        <ele>361</ele>
        <time>2021-05-29T12:59:27.786Z</time>
      </trkpt>
      <trkpt lat="46.65849" lon="5.60724">
        <ele>362</ele>
        <time>2021-05-29T12:59:28.787Z</time>
      </trkpt>
      <trkpt lat="46.65852" lon="5.60726">
        <ele>362</ele>
        <time>2021-05-29T12:59:29.787Z</time>
      </trkpt>
      <trkpt lat="46.65854" lon="5.60727">
        <ele>362</ele>
        <time>2021-05-29T12:59:30.787Z</time>
      </trkpt>
      <trkpt lat="46.65857" lon="5.60728">
        <ele>362</ele>
        <time>2021-05-29T12:59:31.786Z</time>
      </trkpt>
      <trkpt lat="46.65859" lon="5.6073">
        <ele>362</ele>
        <time>2021-05-29T12:59:32.787Z</time>
      </trkpt>
      <trkpt lat="46.65861" lon="5.60732">
        <ele>363</ele>
        <time>2021-05-29T12:59:33.787Z</time>
      </trkpt>
      <trkpt lat="46.65863" lon="5.60734">
        <ele>362</ele>
        <time>2021-05-29T12:59:34.786Z</time>
      </trkpt>
      <trkpt lat="46.65865" lon="5.60735">
        <ele>362</ele>
        <time>2021-05-29T12:59:35.786Z</time>
      </trkpt>
      <trkpt lat="46.65867" lon="5.60737">
        <ele>362</ele>
        <time>2021-05-29T12:59:36.787Z</time>
      </trkpt>
      <trkpt lat="46.65869" lon="5.60738">
        <ele>361</ele>
        <time>2021-05-29T12:59:37.787Z</time>
      </trkpt>
      <trkpt lat="46.65871" lon="5.60739">
        <ele>362</ele>
        <time>2021-05-29T12:59:38.787Z</time>
      </trkpt>
      <trkpt lat="46.65872" lon="5.60739">
        <ele>361</ele>
        <time>2021-05-29T12:59:39.787Z</time>
      </trkpt>
      <trkpt lat="46.65874" lon="5.6074">
        <ele>361</ele>
        <time>2021-05-29T12:59:40.787Z</time>
      </trkpt>
      <trkpt lat="46.65876" lon="5.6074">
        <ele>361</ele>
        <time>2021-05-29T12:59:41.786Z</time>
      </trkpt>
      <trkpt lat="46.65877" lon="5.6074">
        <ele>360</ele>
        <time>2021-05-29T12:59:42.787Z</time>
      </trkpt>
      <trkpt lat="46.65878" lon="5.60741">
        <ele>360</ele>
        <time>2021-05-29T12:59:43.787Z</time>
      </trkpt>
      <trkpt lat="46.65879" lon="5.60741">
        <ele>360</ele>
        <time>2021-05-29T12:59:44.787Z</time>
      </trkpt>
      <trkpt lat="46.65881" lon="5.60742">
        <ele>360</ele>
        <time>2021-05-29T12:59:45.786Z</time>
      </trkpt>
      <trkpt lat="46.65883" lon="5.60743">
        <ele>360</ele>
        <time>2021-05-29T12:59:46.787Z</time>
      </trkpt>
      <trkpt lat="46.65885" lon="5.60744">
        <ele>360</ele>
        <time>2021-05-29T12:59:47.787Z</time>
      </trkpt>
      <trkpt lat="46.65887" lon="5.60745">
        <ele>360</ele>
        <time>2021-05-29T12:59:48.787Z</time>
      </trkpt>
      <trkpt lat="46.65887" lon="5.60746">
        <ele>360</ele>
        <time>2021-05-29T12:59:49.786Z</time>
      </trkpt>
      <trkpt lat="46.65889" lon="5.60748">
        <ele>360</ele>
        <time>2021-05-29T12:59:50.787Z</time>
      </trkpt>
      <trkpt lat="46.6589" lon="5.60749">
        <ele>361</ele>
        <time>2021-05-29T12:59:51.787Z</time>
      </trkpt>
      <trkpt lat="46.65891" lon="5.60751">
        <ele>361</ele>
        <time>2021-05-29T12:59:52.786Z</time>
      </trkpt>
      <trkpt lat="46.65892" lon="5.60752">
        <ele>362</ele>
        <time>2021-05-29T12:59:53.787Z</time>
      </trkpt>
      <trkpt lat="46.65894" lon="5.60754">
        <ele>362</ele>
        <time>2021-05-29T12:59:54.786Z</time>
      </trkpt>
      <trkpt lat="46.65896" lon="5.60755">
        <ele>362</ele>
        <time>2021-05-29T12:59:55.787Z</time>
      </trkpt>
      <trkpt lat="46.65897" lon="5.60757">
        <ele>363</ele>
        <time>2021-05-29T12:59:56.786Z</time>
      </trkpt>
      <trkpt lat="46.65899" lon="5.60759">
        <ele>363</ele>
        <time>2021-05-29T12:59:57.786Z</time>
      </trkpt>
      <trkpt lat="46.65901" lon="5.6076">
        <ele>363</ele>
        <time>2021-05-29T12:59:58.786Z</time>
      </trkpt>
      <trkpt lat="46.65903" lon="5.60762">
        <ele>363</ele>
        <time>2021-05-29T12:59:59.786Z</time>
      </trkpt>
      <trkpt lat="46.65906" lon="5.60764">
        <ele>363</ele>
        <time>2021-05-29T13:00:00.786Z</time>
      </trkpt>
      <trkpt lat="46.65907" lon="5.60765">
        <ele>363</ele>
        <time>2021-05-29T13:00:01.787Z</time>
      </trkpt>
      <trkpt lat="46.65909" lon="5.60766">
        <ele>363</ele>
        <time>2021-05-29T13:00:02.786Z</time>
      </trkpt>
      <trkpt lat="46.6591" lon="5.60767">
        <ele>363</ele>
        <time>2021-05-29T13:00:03.786Z</time>
      </trkpt>
      <trkpt lat="46.65912" lon="5.60767">
        <ele>363</ele>
        <time>2021-05-29T13:00:04.786Z</time>
      </trkpt>
      <trkpt lat="46.65914" lon="5.60768">
        <ele>364</ele>
        <time>2021-05-29T13:00:05.786Z</time>
      </trkpt>
      <trkpt lat="46.65916" lon="5.60769">
        <ele>364</ele>
        <time>2021-05-29T13:00:06.787Z</time>
      </trkpt>
      <trkpt lat="46.65918" lon="5.60771">
        <ele>365</ele>
        <time>2021-05-29T13:00:07.786Z</time>
      </trkpt>
      <trkpt lat="46.65921" lon="5.60773">
        <ele>365</ele>
        <time>2021-05-29T13:00:08.787Z</time>
      </trkpt>
      <trkpt lat="46.65923" lon="5.60775">
        <ele>365</ele>
        <time>2021-05-29T13:00:09.787Z</time>
      </trkpt>
      <trkpt lat="46.65924" lon="5.60776">
        <ele>365</ele>
        <time>2021-05-29T13:00:10.786Z</time>
      </trkpt>
      <trkpt lat="46.65926" lon="5.60778">
        <ele>365</ele>
        <time>2021-05-29T13:00:11.786Z</time>
      </trkpt>
      <trkpt lat="46.65928" lon="5.60779">
        <ele>365</ele>
        <time>2021-05-29T13:00:12.787Z</time>
      </trkpt>
      <trkpt lat="46.6593" lon="5.60781">
        <ele>365</ele>
        <time>2021-05-29T13:00:13.787Z</time>
      </trkpt>
      <trkpt lat="46.65931" lon="5.60782">
        <ele>365</ele>
        <time>2021-05-29T13:00:14.787Z</time>
      </trkpt>
      <trkpt lat="46.65932" lon="5.60784">
        <ele>365</ele>
        <time>2021-05-29T13:00:15.787Z</time>
      </trkpt>
      <trkpt lat="46.65933" lon="5.60786">
        <ele>365</ele>
        <time>2021-05-29T13:00:16.787Z</time>
      </trkpt>
      <trkpt lat="46.65934" lon="5.60788">
        <ele>365</ele>
        <time>2021-05-29T13:00:17.787Z</time>
      </trkpt>
      <trkpt lat="46.65933" lon="5.6079">
        <ele>365</ele>
        <time>2021-05-29T13:00:18.787Z</time>
      </trkpt>
      <trkpt lat="46.65933" lon="5.60792">
        <ele>365</ele>
        <time>2021-05-29T13:00:19.787Z</time>
      </trkpt>
      <trkpt lat="46.65933" lon="5.60793">
        <ele>365</ele>
        <time>2021-05-29T13:00:20.787Z</time>
      </trkpt>
      <trkpt lat="46.65934" lon="5.60792">
        <ele>365</ele>
        <time>2021-05-29T13:00:21.787Z</time>
      </trkpt>
      <trkpt lat="46.65935" lon="5.60792">
        <ele>365</ele>
        <time>2021-05-29T13:00:22.787Z</time>
      </trkpt>
      <trkpt lat="46.65937" lon="5.60792">
        <ele>365</ele>
        <time>2021-05-29T13:00:23.787Z</time>
      </trkpt>
      <trkpt lat="46.65938" lon="5.60792">
        <ele>366</ele>
        <time>2021-05-29T13:00:24.786Z</time>
      </trkpt>
      <trkpt lat="46.65939" lon="5.60793">
        <ele>366</ele>
        <time>2021-05-29T13:00:25.787Z</time>
      </trkpt>
      <trkpt lat="46.65941" lon="5.60795">
        <ele>367</ele>
        <time>2021-05-29T13:00:26.787Z</time>
      </trkpt>
      <trkpt lat="46.65942" lon="5.60796">
        <ele>367</ele>
        <time>2021-05-29T13:00:27.787Z</time>
      </trkpt>
      <trkpt lat="46.65944" lon="5.60797">
        <ele>367</ele>
        <time>2021-05-29T13:00:28.787Z</time>
      </trkpt>
      <trkpt lat="46.65946" lon="5.60799">
        <ele>367</ele>
        <time>2021-05-29T13:00:29.787Z</time>
      </trkpt>
      <trkpt lat="46.65948" lon="5.60801">
        <ele>367</ele>
        <time>2021-05-29T13:00:30.787Z</time>
      </trkpt>
      <trkpt lat="46.6595" lon="5.60803">
        <ele>366</ele>
        <time>2021-05-29T13:00:31.787Z</time>
      </trkpt>
      <trkpt lat="46.65952" lon="5.60805">
        <ele>366</ele>
        <time>2021-05-29T13:00:32.787Z</time>
      </trkpt>
      <trkpt lat="46.65954" lon="5.60807">
        <ele>367</ele>
        <time>2021-05-29T13:00:33.786Z</time>
      </trkpt>
      <trkpt lat="46.65956" lon="5.60808">
        <ele>367</ele>
        <time>2021-05-29T13:00:34.787Z</time>
      </trkpt>
      <trkpt lat="46.65957" lon="5.6081">
        <ele>367</ele>
        <time>2021-05-29T13:00:35.787Z</time>
      </trkpt>
      <trkpt lat="46.6596" lon="5.60811">
        <ele>368</ele>
        <time>2021-05-29T13:00:36.787Z</time>
      </trkpt>
      <trkpt lat="46.65961" lon="5.60813">
        <ele>368</ele>
        <time>2021-05-29T13:00:37.787Z</time>
      </trkpt>
      <trkpt lat="46.65963" lon="5.60814">
        <ele>369</ele>
        <time>2021-05-29T13:00:38.787Z</time>
      </trkpt>
      <trkpt lat="46.65964" lon="5.60814">
        <ele>369</ele>
        <time>2021-05-29T13:00:39.787Z</time>
      </trkpt>
      <trkpt lat="46.65965" lon="5.60815">
        <ele>370</ele>
        <time>2021-05-29T13:00:40.787Z</time>
      </trkpt>
      <trkpt lat="46.65966" lon="5.60816">
        <ele>371</ele>
        <time>2021-05-29T13:00:41.787Z</time>
      </trkpt>
      <trkpt lat="46.65967" lon="5.60818">
        <ele>371</ele>
        <time>2021-05-29T13:00:42.787Z</time>
      </trkpt>
      <trkpt lat="46.65968" lon="5.60819">
        <ele>372</ele>
        <time>2021-05-29T13:00:43.787Z</time>
      </trkpt>
      <trkpt lat="46.65967" lon="5.60818">
        <ele>372</ele>
        <time>2021-05-29T13:00:44.787Z</time>
      </trkpt>
      <trkpt lat="46.65968" lon="5.60818">
        <ele>372</ele>
        <time>2021-05-29T13:00:45.787Z</time>
      </trkpt>
      <trkpt lat="46.6597" lon="5.6082">
        <ele>372</ele>
        <time>2021-05-29T13:00:46.786Z</time>
      </trkpt>
      <trkpt lat="46.65972" lon="5.60822">
        <ele>372</ele>
        <time>2021-05-29T13:00:47.787Z</time>
      </trkpt>
      <trkpt lat="46.65974" lon="5.60825">
        <ele>371</ele>
        <time>2021-05-29T13:00:48.787Z</time>
      </trkpt>
      <trkpt lat="46.65975" lon="5.60826">
        <ele>371</ele>
        <time>2021-05-29T13:00:49.787Z</time>
      </trkpt>
      <trkpt lat="46.65977" lon="5.60828">
        <ele>370</ele>
        <time>2021-05-29T13:00:50.786Z</time>
      </trkpt>
      <trkpt lat="46.65979" lon="5.6083">
        <ele>369</ele>
        <time>2021-05-29T13:00:51.787Z</time>
      </trkpt>
      <trkpt lat="46.6598" lon="5.60832">
        <ele>369</ele>
        <time>2021-05-29T13:00:52.787Z</time>
      </trkpt>
      <trkpt lat="46.65982" lon="5.60834">
        <ele>368</ele>
        <time>2021-05-29T13:00:53.787Z</time>
      </trkpt>
      <trkpt lat="46.65984" lon="5.60835">
        <ele>368</ele>
        <time>2021-05-29T13:00:54.787Z</time>
      </trkpt>
      <trkpt lat="46.65986" lon="5.60837">
        <ele>368</ele>
        <time>2021-05-29T13:00:55.786Z</time>
      </trkpt>
      <trkpt lat="46.65988" lon="5.60838">
        <ele>368</ele>
        <time>2021-05-29T13:00:56.787Z</time>
      </trkpt>
      <trkpt lat="46.6599" lon="5.60839">
        <ele>368</ele>
        <time>2021-05-29T13:00:57.787Z</time>
      </trkpt>
      <trkpt lat="46.65992" lon="5.60841">
        <ele>368</ele>
        <time>2021-05-29T13:00:58.787Z</time>
      </trkpt>
      <trkpt lat="46.65993" lon="5.60842">
        <ele>368</ele>
        <time>2021-05-29T13:02:12.830Z</time>
      </trkpt>
      <trkpt lat="46.65995" lon="5.60843">
        <ele>368</ele>
        <time>2021-05-29T13:02:13.830Z</time>
      </trkpt>
      <trkpt lat="46.65997" lon="5.60845">
        <ele>368</ele>
        <time>2021-05-29T13:02:14.830Z</time>
      </trkpt>
      <trkpt lat="46.65998" lon="5.60846">
        <ele>369</ele>
        <time>2021-05-29T13:02:15.830Z</time>
      </trkpt>
      <trkpt lat="46.66" lon="5.60847">
        <ele>369</ele>
        <time>2021-05-29T13:02:16.830Z</time>
      </trkpt>
      <trkpt lat="46.66001" lon="5.60848">
        <ele>369</ele>
        <time>2021-05-29T13:02:17.830Z</time>
      </trkpt>
      <trkpt lat="46.66002" lon="5.60848">
        <ele>369</ele>
        <time>2021-05-29T13:02:18.830Z</time>
      </trkpt>
      <trkpt lat="46.66004" lon="5.60849">
        <ele>370</ele>
        <time>2021-05-29T13:02:19.830Z</time>
      </trkpt>
      <trkpt lat="46.66006" lon="5.6085">
        <ele>370</ele>
        <time>2021-05-29T13:02:20.830Z</time>
      </trkpt>
      <trkpt lat="46.66008" lon="5.60851">
        <ele>371</ele>
        <time>2021-05-29T13:02:21.830Z</time>
      </trkpt>
      <trkpt lat="46.66009" lon="5.60853">
        <ele>372</ele>
        <time>2021-05-29T13:02:22.829Z</time>
      </trkpt>
      <trkpt lat="46.66011" lon="5.60853">
        <ele>372</ele>
        <time>2021-05-29T13:02:23.829Z</time>
      </trkpt>
      <trkpt lat="46.66013" lon="5.60855">
        <ele>373</ele>
        <time>2021-05-29T13:02:24.830Z</time>
      </trkpt>
      <trkpt lat="46.66015" lon="5.60857">
        <ele>372</ele>
        <time>2021-05-29T13:02:25.830Z</time>
      </trkpt>
      <trkpt lat="46.66017" lon="5.60858">
        <ele>372</ele>
        <time>2021-05-29T13:02:26.829Z</time>
      </trkpt>
      <trkpt lat="46.66019" lon="5.60859">
        <ele>372</ele>
        <time>2021-05-29T13:02:27.830Z</time>
      </trkpt>
      <trkpt lat="46.6602" lon="5.60859">
        <ele>372</ele>
        <time>2021-05-29T13:02:28.830Z</time>
      </trkpt>
      <trkpt lat="46.66023" lon="5.6086">
        <ele>373</ele>
        <time>2021-05-29T13:02:29.830Z</time>
      </trkpt>
      <trkpt lat="46.66025" lon="5.60861">
        <ele>373</ele>
        <time>2021-05-29T13:02:30.830Z</time>
      </trkpt>
      <trkpt lat="46.66027" lon="5.60862">
        <ele>374</ele>
        <time>2021-05-29T13:02:31.829Z</time>
      </trkpt>
      <trkpt lat="46.6603" lon="5.60864">
        <ele>374</ele>
        <time>2021-05-29T13:02:32.830Z</time>
      </trkpt>
      <trkpt lat="46.66032" lon="5.60865">
        <ele>374</ele>
        <time>2021-05-29T13:02:33.830Z</time>
      </trkpt>
      <trkpt lat="46.66034" lon="5.60866">
        <ele>375</ele>
        <time>2021-05-29T13:02:34.830Z</time>
      </trkpt>
      <trkpt lat="46.66035" lon="5.60867">
        <ele>375</ele>
        <time>2021-05-29T13:02:35.830Z</time>
      </trkpt>
      <trkpt lat="46.66037" lon="5.60867">
        <ele>375</ele>
        <time>2021-05-29T13:02:36.830Z</time>
      </trkpt>
      <trkpt lat="46.66039" lon="5.60868">
        <ele>375</ele>
        <time>2021-05-29T13:02:37.830Z</time>
      </trkpt>
      <trkpt lat="46.6604" lon="5.60869">
        <ele>375</ele>
        <time>2021-05-29T13:02:38.830Z</time>
      </trkpt>
      <trkpt lat="46.66042" lon="5.6087">
        <ele>375</ele>
        <time>2021-05-29T13:02:39.830Z</time>
      </trkpt>
      <trkpt lat="46.66044" lon="5.60871">
        <ele>375</ele>
        <time>2021-05-29T13:02:40.830Z</time>
      </trkpt>
      <trkpt lat="46.66045" lon="5.60872">
        <ele>375</ele>
        <time>2021-05-29T13:02:41.829Z</time>
      </trkpt>
      <trkpt lat="46.66047" lon="5.60874">
        <ele>375</ele>
        <time>2021-05-29T13:02:42.830Z</time>
      </trkpt>
      <trkpt lat="46.66049" lon="5.60875">
        <ele>375</ele>
        <time>2021-05-29T13:02:43.830Z</time>
      </trkpt>
      <trkpt lat="46.6605" lon="5.60877">
        <ele>374</ele>
        <time>2021-05-29T13:02:44.830Z</time>
      </trkpt>
      <trkpt lat="46.66052" lon="5.60878">
        <ele>374</ele>
        <time>2021-05-29T13:02:45.830Z</time>
      </trkpt>
      <trkpt lat="46.66054" lon="5.6088">
        <ele>374</ele>
        <time>2021-05-29T13:02:46.830Z</time>
      </trkpt>
      <trkpt lat="46.66056" lon="5.60882">
        <ele>374</ele>
        <time>2021-05-29T13:02:47.829Z</time>
      </trkpt>
      <trkpt lat="46.66058" lon="5.60883">
        <ele>373</ele>
        <time>2021-05-29T13:02:48.830Z</time>
      </trkpt>
      <trkpt lat="46.66061" lon="5.60885">
        <ele>374</ele>
        <time>2021-05-29T13:02:49.830Z</time>
      </trkpt>
      <trkpt lat="46.66063" lon="5.60887">
        <ele>374</ele>
        <time>2021-05-29T13:02:50.830Z</time>
      </trkpt>
      <trkpt lat="46.66065" lon="5.60889">
        <ele>373</ele>
        <time>2021-05-29T13:02:51.830Z</time>
      </trkpt>
      <trkpt lat="46.66066" lon="5.6089">
        <ele>373</ele>
        <time>2021-05-29T13:02:52.830Z</time>
      </trkpt>
      <trkpt lat="46.66068" lon="5.60891">
        <ele>373</ele>
        <time>2021-05-29T13:02:53.830Z</time>
      </trkpt>
      <trkpt lat="46.6607" lon="5.60893">
        <ele>373</ele>
        <time>2021-05-29T13:02:54.830Z</time>
      </trkpt>
      <trkpt lat="46.66073" lon="5.60895">
        <ele>373</ele>
        <time>2021-05-29T13:02:55.830Z</time>
      </trkpt>
      <trkpt lat="46.66075" lon="5.60896">
        <ele>373</ele>
        <time>2021-05-29T13:02:56.830Z</time>
      </trkpt>
      <trkpt lat="46.66076" lon="5.60897">
        <ele>373</ele>
        <time>2021-05-29T13:02:57.830Z</time>
      </trkpt>
      <trkpt lat="46.66078" lon="5.60898">
        <ele>373</ele>
        <time>2021-05-29T13:02:58.830Z</time>
      </trkpt>
      <trkpt lat="46.6608" lon="5.609">
        <ele>374</ele>
        <time>2021-05-29T13:02:59.829Z</time>
      </trkpt>
      <trkpt lat="46.66082" lon="5.60902">
        <ele>374</ele>
        <time>2021-05-29T13:03:00.830Z</time>
      </trkpt>
      <trkpt lat="46.66084" lon="5.60903">
        <ele>374</ele>
        <time>2021-05-29T13:03:01.830Z</time>
      </trkpt>
      <trkpt lat="46.66085" lon="5.60904">
        <ele>374</ele>
        <time>2021-05-29T13:03:02.830Z</time>
      </trkpt>
      <trkpt lat="46.66087" lon="5.60905">
        <ele>373</ele>
        <time>2021-05-29T13:03:03.830Z</time>
      </trkpt>
      <trkpt lat="46.66089" lon="5.60906">
        <ele>373</ele>
        <time>2021-05-29T13:03:04.830Z</time>
      </trkpt>
      <trkpt lat="46.6609" lon="5.60907">
        <ele>373</ele>
        <time>2021-05-29T13:03:05.830Z</time>
      </trkpt>
      <trkpt lat="46.66092" lon="5.60908">
        <ele>372</ele>
        <time>2021-05-29T13:03:06.830Z</time>
      </trkpt>
      <trkpt lat="46.66094" lon="5.60909">
        <ele>371</ele>
        <time>2021-05-29T13:03:07.830Z</time>
      </trkpt>
      <trkpt lat="46.66096" lon="5.6091">
        <ele>371</ele>
        <time>2021-05-29T13:03:08.829Z</time>
      </trkpt>
      <trkpt lat="46.66098" lon="5.60911">
        <ele>371</ele>
        <time>2021-05-29T13:03:09.830Z</time>
      </trkpt>
      <trkpt lat="46.661" lon="5.60911">
        <ele>371</ele>
        <time>2021-05-29T13:03:10.830Z</time>
      </trkpt>
      <trkpt lat="46.66102" lon="5.60912">
        <ele>371</ele>
        <time>2021-05-29T13:03:11.830Z</time>
      </trkpt>
      <trkpt lat="46.66104" lon="5.60913">
        <ele>371</ele>
        <time>2021-05-29T13:03:12.830Z</time>
      </trkpt>
      <trkpt lat="46.66106" lon="5.60914">
        <ele>371</ele>
        <time>2021-05-29T13:03:13.830Z</time>
      </trkpt>
      <trkpt lat="46.66108" lon="5.60914">
        <ele>371</ele>
        <time>2021-05-29T13:03:14.830Z</time>
      </trkpt>
      <trkpt lat="46.6611" lon="5.60915">
        <ele>371</ele>
        <time>2021-05-29T13:03:15.830Z</time>
      </trkpt>
      <trkpt lat="46.66112" lon="5.60916">
        <ele>371</ele>
        <time>2021-05-29T13:03:16.830Z</time>
      </trkpt>
      <trkpt lat="46.66113" lon="5.60918">
        <ele>372</ele>
        <time>2021-05-29T13:03:17.830Z</time>
      </trkpt>
      <trkpt lat="46.66115" lon="5.60919">
        <ele>372</ele>
        <time>2021-05-29T13:03:18.829Z</time>
      </trkpt>
      <trkpt lat="46.66117" lon="5.6092">
        <ele>372</ele>
        <time>2021-05-29T13:03:19.830Z</time>
      </trkpt>
      <trkpt lat="46.66119" lon="5.60921">
        <ele>373</ele>
        <time>2021-05-29T13:03:20.830Z</time>
      </trkpt>
      <trkpt lat="46.66121" lon="5.60922">
        <ele>373</ele>
        <time>2021-05-29T13:03:21.830Z</time>
      </trkpt>
      <trkpt lat="46.66122" lon="5.60924">
        <ele>373</ele>
        <time>2021-05-29T13:03:22.829Z</time>
      </trkpt>
      <trkpt lat="46.66124" lon="5.60925">
        <ele>374</ele>
        <time>2021-05-29T13:03:23.830Z</time>
      </trkpt>
      <trkpt lat="46.66126" lon="5.60926">
        <ele>374</ele>
        <time>2021-05-29T13:03:24.830Z</time>
      </trkpt>
      <trkpt lat="46.66128" lon="5.60926">
        <ele>375</ele>
        <time>2021-05-29T13:03:25.829Z</time>
      </trkpt>
      <trkpt lat="46.66131" lon="5.60928">
        <ele>376</ele>
        <time>2021-05-29T13:03:26.829Z</time>
      </trkpt>
      <trkpt lat="46.66133" lon="5.60929">
        <ele>377</ele>
        <time>2021-05-29T13:03:27.830Z</time>
      </trkpt>
      <trkpt lat="46.66135" lon="5.60931">
        <ele>377</ele>
        <time>2021-05-29T13:03:28.829Z</time>
      </trkpt>
      <trkpt lat="46.66137" lon="5.60932">
        <ele>378</ele>
        <time>2021-05-29T13:03:29.829Z</time>
      </trkpt>
      <trkpt lat="46.66138" lon="5.60933">
        <ele>379</ele>
        <time>2021-05-29T13:03:30.830Z</time>
      </trkpt>
      <trkpt lat="46.6614" lon="5.60934">
        <ele>380</ele>
        <time>2021-05-29T13:03:31.829Z</time>
      </trkpt>
      <trkpt lat="46.66141" lon="5.60934">
        <ele>381</ele>
        <time>2021-05-29T13:03:32.830Z</time>
      </trkpt>
      <trkpt lat="46.66143" lon="5.60935">
        <ele>382</ele>
        <time>2021-05-29T13:03:33.830Z</time>
      </trkpt>
      <trkpt lat="46.66146" lon="5.60936">
        <ele>383</ele>
        <time>2021-05-29T13:03:34.830Z</time>
      </trkpt>
      <trkpt lat="46.66148" lon="5.60937">
        <ele>384</ele>
        <time>2021-05-29T13:03:35.829Z</time>
      </trkpt>
      <trkpt lat="46.6615" lon="5.60938">
        <ele>384</ele>
        <time>2021-05-29T13:03:36.830Z</time>
      </trkpt>
      <trkpt lat="46.66153" lon="5.6094">
        <ele>384</ele>
        <time>2021-05-29T13:03:37.830Z</time>
      </trkpt>
      <trkpt lat="46.66154" lon="5.60941">
        <ele>384</ele>
        <time>2021-05-29T13:03:38.830Z</time>
      </trkpt>
      <trkpt lat="46.66155" lon="5.60942">
        <ele>385</ele>
        <time>2021-05-29T13:03:39.830Z</time>
      </trkpt>
      <trkpt lat="46.66156" lon="5.60943">
        <ele>384</ele>
        <time>2021-05-29T13:03:40.830Z</time>
      </trkpt>
      <trkpt lat="46.66157" lon="5.60944">
        <ele>384</ele>
        <time>2021-05-29T13:03:41.830Z</time>
      </trkpt>
      <trkpt lat="46.66159" lon="5.60946">
        <ele>385</ele>
        <time>2021-05-29T13:03:42.829Z</time>
      </trkpt>
      <trkpt lat="46.66161" lon="5.60947">
        <ele>385</ele>
        <time>2021-05-29T13:03:43.830Z</time>
      </trkpt>
      <trkpt lat="46.66163" lon="5.60949">
        <ele>385</ele>
        <time>2021-05-29T13:03:44.830Z</time>
      </trkpt>
      <trkpt lat="46.66165" lon="5.60952">
        <ele>385</ele>
        <time>2021-05-29T13:03:45.830Z</time>
      </trkpt>
      <trkpt lat="46.66168" lon="5.60954">
        <ele>385</ele>
        <time>2021-05-29T13:03:46.830Z</time>
      </trkpt>
      <trkpt lat="46.6617" lon="5.60956">
        <ele>386</ele>
        <time>2021-05-29T13:03:47.829Z</time>
      </trkpt>
      <trkpt lat="46.66172" lon="5.60957">
        <ele>386</ele>
        <time>2021-05-29T13:03:48.830Z</time>
      </trkpt>
      <trkpt lat="46.66173" lon="5.60959">
        <ele>386</ele>
        <time>2021-05-29T13:03:49.830Z</time>
      </trkpt>
      <trkpt lat="46.66174" lon="5.60961">
        <ele>386</ele>
        <time>2021-05-29T13:03:50.830Z</time>
      </trkpt>
      <trkpt lat="46.66175" lon="5.60964">
        <ele>386</ele>
        <time>2021-05-29T13:03:51.829Z</time>
      </trkpt>
      <trkpt lat="46.66176" lon="5.60965">
        <ele>385</ele>
        <time>2021-05-29T13:03:52.830Z</time>
      </trkpt>
      <trkpt lat="46.66177" lon="5.60968">
        <ele>385</ele>
        <time>2021-05-29T13:03:53.830Z</time>
      </trkpt>
      <trkpt lat="46.66179" lon="5.60969">
        <ele>385</ele>
        <time>2021-05-29T13:03:54.830Z</time>
      </trkpt>
      <trkpt lat="46.6618" lon="5.60971">
        <ele>384</ele>
        <time>2021-05-29T13:03:55.830Z</time>
      </trkpt>
      <trkpt lat="46.6618" lon="5.60973">
        <ele>384</ele>
        <time>2021-05-29T13:03:56.830Z</time>
      </trkpt>
      <trkpt lat="46.66182" lon="5.60975">
        <ele>384</ele>
        <time>2021-05-29T13:03:57.830Z</time>
      </trkpt>
      <trkpt lat="46.66183" lon="5.60977">
        <ele>384</ele>
        <time>2021-05-29T13:03:58.830Z</time>
      </trkpt>
      <trkpt lat="46.66185" lon="5.60978">
        <ele>384</ele>
        <time>2021-05-29T13:03:59.830Z</time>
      </trkpt>
      <trkpt lat="46.66186" lon="5.6098">
        <ele>384</ele>
        <time>2021-05-29T13:04:00.829Z</time>
      </trkpt>
      <trkpt lat="46.66188" lon="5.60981">
        <ele>384</ele>
        <time>2021-05-29T13:04:01.830Z</time>
      </trkpt>
      <trkpt lat="46.66189" lon="5.60984">
        <ele>384</ele>
        <time>2021-05-29T13:04:02.830Z</time>
      </trkpt>
      <trkpt lat="46.66189" lon="5.60986">
        <ele>385</ele>
        <time>2021-05-29T13:04:03.829Z</time>
      </trkpt>
      <trkpt lat="46.6619" lon="5.60988">
        <ele>385</ele>
        <time>2021-05-29T13:04:04.830Z</time>
      </trkpt>
      <trkpt lat="46.6619" lon="5.6099">
        <ele>386</ele>
        <time>2021-05-29T13:04:05.830Z</time>
      </trkpt>
      <trkpt lat="46.66191" lon="5.60991">
        <ele>386</ele>
        <time>2021-05-29T13:04:06.830Z</time>
      </trkpt>
      <trkpt lat="46.66191" lon="5.60992">
        <ele>386</ele>
        <time>2021-05-29T13:04:07.830Z</time>
      </trkpt>
      <trkpt lat="46.66192" lon="5.60994">
        <ele>387</ele>
        <time>2021-05-29T13:04:08.830Z</time>
      </trkpt>
      <trkpt lat="46.66193" lon="5.60995">
        <ele>387</ele>
        <time>2021-05-29T13:04:09.829Z</time>
      </trkpt>
      <trkpt lat="46.66194" lon="5.60995">
        <ele>387</ele>
        <time>2021-05-29T13:04:10.830Z</time>
      </trkpt>
      <trkpt lat="46.66194" lon="5.60995">
        <ele>387</ele>
        <time>2021-05-29T13:04:11.829Z</time>
      </trkpt>
      <trkpt lat="46.66196" lon="5.60995">
        <ele>387</ele>
        <time>2021-05-29T13:04:12.830Z</time>
      </trkpt>
      <trkpt lat="46.66197" lon="5.60996">
        <ele>388</ele>
        <time>2021-05-29T13:04:13.830Z</time>
      </trkpt>
      <trkpt lat="46.66197" lon="5.60996">
        <ele>388</ele>
        <time>2021-05-29T13:04:14.829Z</time>
      </trkpt>
      <trkpt lat="46.66199" lon="5.60996">
        <ele>389</ele>
        <time>2021-05-29T13:04:15.830Z</time>
      </trkpt>
      <trkpt lat="46.662" lon="5.60997">
        <ele>389</ele>
        <time>2021-05-29T13:04:16.830Z</time>
      </trkpt>
      <trkpt lat="46.66202" lon="5.60997">
        <ele>389</ele>
        <time>2021-05-29T13:04:17.830Z</time>
      </trkpt>
      <trkpt lat="46.66203" lon="5.60997">
        <ele>389</ele>
        <time>2021-05-29T13:04:18.830Z</time>
      </trkpt>
      <trkpt lat="46.66205" lon="5.60997">
        <ele>389</ele>
        <time>2021-05-29T13:04:19.830Z</time>
      </trkpt>
      <trkpt lat="46.66207" lon="5.60997">
        <ele>389</ele>
        <time>2021-05-29T13:04:20.830Z</time>
      </trkpt>
      <trkpt lat="46.66208" lon="5.60996">
        <ele>390</ele>
        <time>2021-05-29T13:04:21.830Z</time>
      </trkpt>
      <trkpt lat="46.6621" lon="5.60996">
        <ele>390</ele>
        <time>2021-05-29T13:04:22.829Z</time>
      </trkpt>
      <trkpt lat="46.66212" lon="5.60996">
        <ele>391</ele>
        <time>2021-05-29T13:04:23.830Z</time>
      </trkpt>
      <trkpt lat="46.66213" lon="5.60996">
        <ele>391</ele>
        <time>2021-05-29T13:04:24.830Z</time>
      </trkpt>
      <trkpt lat="46.66214" lon="5.60996">
        <ele>392</ele>
        <time>2021-05-29T13:04:25.830Z</time>
      </trkpt>
      <trkpt lat="46.66216" lon="5.60995">
        <ele>392</ele>
        <time>2021-05-29T13:04:26.830Z</time>
      </trkpt>
      <trkpt lat="46.66217" lon="5.60994">
        <ele>393</ele>
        <time>2021-05-29T13:04:27.830Z</time>
      </trkpt>
      <trkpt lat="46.66219" lon="5.60993">
        <ele>394</ele>
        <time>2021-05-29T13:04:28.830Z</time>
      </trkpt>
      <trkpt lat="46.6622" lon="5.60992">
        <ele>395</ele>
        <time>2021-05-29T13:04:29.829Z</time>
      </trkpt>
      <trkpt lat="46.66221" lon="5.60991">
        <ele>395</ele>
        <time>2021-05-29T13:04:30.830Z</time>
      </trkpt>
      <trkpt lat="46.66222" lon="5.6099">
        <ele>395</ele>
        <time>2021-05-29T13:04:31.830Z</time>
      </trkpt>
      <trkpt lat="46.66223" lon="5.6099">
        <ele>395</ele>
        <time>2021-05-29T13:04:32.830Z</time>
      </trkpt>
      <trkpt lat="46.66223" lon="5.6099">
        <ele>395</ele>
        <time>2021-05-29T13:04:33.830Z</time>
      </trkpt>
      <trkpt lat="46.66223" lon="5.60991">
        <ele>395</ele>
        <time>2021-05-29T13:04:34.830Z</time>
      </trkpt>
      <trkpt lat="46.66223" lon="5.60992">
        <ele>394</ele>
        <time>2021-05-29T13:04:35.830Z</time>
      </trkpt>
      <trkpt lat="46.66223" lon="5.60992">
        <ele>394</ele>
        <time>2021-05-29T13:04:36.830Z</time>
      </trkpt>
      <trkpt lat="46.66223" lon="5.60993">
        <ele>393</ele>
        <time>2021-05-29T13:04:37.829Z</time>
      </trkpt>
      <trkpt lat="46.66223" lon="5.60993">
        <ele>393</ele>
        <time>2021-05-29T13:04:38.829Z</time>
      </trkpt>
      <trkpt lat="46.66222" lon="5.60993">
        <ele>392</ele>
        <time>2021-05-29T13:04:39.830Z</time>
      </trkpt>
      <trkpt lat="46.66221" lon="5.60994">
        <ele>392</ele>
        <time>2021-05-29T13:04:40.830Z</time>
      </trkpt>
      <trkpt lat="46.66221" lon="5.60994">
        <ele>391</ele>
        <time>2021-05-29T13:04:41.830Z</time>
      </trkpt>
      <trkpt lat="46.66219" lon="5.60995">
        <ele>391</ele>
        <time>2021-05-29T13:04:42.830Z</time>
      </trkpt>
      <trkpt lat="46.66218" lon="5.60996">
        <ele>390</ele>
        <time>2021-05-29T13:04:43.830Z</time>
      </trkpt>
      <trkpt lat="46.66217" lon="5.60997">
        <ele>390</ele>
        <time>2021-05-29T13:04:44.830Z</time>
      </trkpt>
      <trkpt lat="46.66216" lon="5.60998">
        <ele>390</ele>
        <time>2021-05-29T13:04:45.829Z</time>
      </trkpt>
      <trkpt lat="46.66214" lon="5.60999">
        <ele>390</ele>
        <time>2021-05-29T13:04:46.829Z</time>
      </trkpt>
      <trkpt lat="46.66213" lon="5.60999">
        <ele>390</ele>
        <time>2021-05-29T13:04:47.830Z</time>
      </trkpt>
      <trkpt lat="46.66213" lon="5.61">
        <ele>389</ele>
        <time>2021-05-29T13:04:48.829Z</time>
      </trkpt>
      <trkpt lat="46.66212" lon="5.61">
        <ele>389</ele>
        <time>2021-05-29T13:04:49.830Z</time>
      </trkpt>
      <trkpt lat="46.66211" lon="5.61001">
        <ele>389</ele>
        <time>2021-05-29T13:04:50.830Z</time>
      </trkpt>
      <trkpt lat="46.6621" lon="5.61001">
        <ele>389</ele>
        <time>2021-05-29T13:04:51.830Z</time>
      </trkpt>
      <trkpt lat="46.66209" lon="5.61001">
        <ele>389</ele>
        <time>2021-05-29T13:04:52.829Z</time>
      </trkpt>
      <trkpt lat="46.66208" lon="5.61001">
        <ele>389</ele>
        <time>2021-05-29T13:04:53.829Z</time>
      </trkpt>
      <trkpt lat="46.66206" lon="5.61001">
        <ele>388</ele>
        <time>2021-05-29T13:04:54.830Z</time>
      </trkpt>
      <trkpt lat="46.66205" lon="5.61001">
        <ele>388</ele>
        <time>2021-05-29T13:04:55.829Z</time>
      </trkpt>
      <trkpt lat="46.66203" lon="5.61001">
        <ele>388</ele>
        <time>2021-05-29T13:04:56.830Z</time>
      </trkpt>
      <trkpt lat="46.66202" lon="5.61002">
        <ele>388</ele>
        <time>2021-05-29T13:04:57.830Z</time>
      </trkpt>
      <trkpt lat="46.66201" lon="5.61002">
        <ele>388</ele>
        <time>2021-05-29T13:04:58.829Z</time>
      </trkpt>
      <trkpt lat="46.662" lon="5.61002">
        <ele>388</ele>
        <time>2021-05-29T13:04:59.830Z</time>
      </trkpt>
      <trkpt lat="46.662" lon="5.61003">
        <ele>389</ele>
        <time>2021-05-29T13:05:00.830Z</time>
      </trkpt>
      <trkpt lat="46.662" lon="5.61004">
        <ele>389</ele>
        <time>2021-05-29T13:05:01.829Z</time>
      </trkpt>
      <trkpt lat="46.66199" lon="5.61005">
        <ele>389</ele>
        <time>2021-05-29T13:05:02.830Z</time>
      </trkpt>
      <trkpt lat="46.66199" lon="5.61006">
        <ele>388</ele>
        <time>2021-05-29T13:05:03.829Z</time>
      </trkpt>
      <trkpt lat="46.66199" lon="5.61007">
        <ele>388</ele>
        <time>2021-05-29T13:05:04.830Z</time>
      </trkpt>
      <trkpt lat="46.662" lon="5.61008">
        <ele>388</ele>
        <time>2021-05-29T13:05:05.830Z</time>
      </trkpt>
      <trkpt lat="46.662" lon="5.61009">
        <ele>388</ele>
        <time>2021-05-29T13:05:06.830Z</time>
      </trkpt>
      <trkpt lat="46.66201" lon="5.61011">
        <ele>388</ele>
        <time>2021-05-29T13:05:07.830Z</time>
      </trkpt>
      <trkpt lat="46.66201" lon="5.61012">
        <ele>388</ele>
        <time>2021-05-29T13:05:08.830Z</time>
      </trkpt>
      <trkpt lat="46.66201" lon="5.61013">
        <ele>389</ele>
        <time>2021-05-29T13:05:09.830Z</time>
      </trkpt>
      <trkpt lat="46.66202" lon="5.61014">
        <ele>389</ele>
        <time>2021-05-29T13:05:10.830Z</time>
      </trkpt>
      <trkpt lat="46.66202" lon="5.61016">
        <ele>390</ele>
        <time>2021-05-29T13:05:11.830Z</time>
      </trkpt>
      <trkpt lat="46.66203" lon="5.61017">
        <ele>390</ele>
        <time>2021-05-29T13:05:12.830Z</time>
      </trkpt>
      <trkpt lat="46.66204" lon="5.61018">
        <ele>390</ele>
        <time>2021-05-29T13:05:13.830Z</time>
      </trkpt>
      <trkpt lat="46.66205" lon="5.61018">
        <ele>391</ele>
        <time>2021-05-29T13:05:14.830Z</time>
      </trkpt>
      <trkpt lat="46.66205" lon="5.61019">
        <ele>392</ele>
        <time>2021-05-29T13:05:15.829Z</time>
      </trkpt>
      <trkpt lat="46.66205" lon="5.61019">
        <ele>392</ele>
        <time>2021-05-29T13:05:16.830Z</time>
      </trkpt>
      <trkpt lat="46.66205" lon="5.61018">
        <ele>392</ele>
        <time>2021-05-29T13:05:17.830Z</time>
      </trkpt>
      <trkpt lat="46.66204" lon="5.61018">
        <ele>392</ele>
        <time>2021-05-29T13:05:18.830Z</time>
      </trkpt>
      <trkpt lat="46.66204" lon="5.61017">
        <ele>391</ele>
        <time>2021-05-29T13:05:19.830Z</time>
      </trkpt>
      <trkpt lat="46.66204" lon="5.61017">
        <ele>391</ele>
        <time>2021-05-29T13:05:20.829Z</time>
      </trkpt>
      <trkpt lat="46.66203" lon="5.61016">
        <ele>392</ele>
        <time>2021-05-29T13:05:21.830Z</time>
      </trkpt>
      <trkpt lat="46.66203" lon="5.61015">
        <ele>392</ele>
        <time>2021-05-29T13:05:22.830Z</time>
      </trkpt>
      <trkpt lat="46.66201" lon="5.61015">
        <ele>392</ele>
        <time>2021-05-29T13:05:23.829Z</time>
      </trkpt>
      <trkpt lat="46.662" lon="5.61012">
        <ele>392</ele>
        <time>2021-05-29T13:05:24.830Z</time>
      </trkpt>
      <trkpt lat="46.66201" lon="5.61011">
        <ele>391</ele>
        <time>2021-05-29T13:05:25.829Z</time>
      </trkpt>
      <trkpt lat="46.662" lon="5.61009">
        <ele>391</ele>
        <time>2021-05-29T13:05:26.830Z</time>
      </trkpt>
      <trkpt lat="46.662" lon="5.61007">
        <ele>390</ele>
        <time>2021-05-29T13:05:27.830Z</time>
      </trkpt>
      <trkpt lat="46.66199" lon="5.61005">
        <ele>389</ele>
        <time>2021-05-29T13:05:28.830Z</time>
      </trkpt>
      <trkpt lat="46.66199" lon="5.61005">
        <ele>389</ele>
        <time>2021-05-29T13:05:29.830Z</time>
      </trkpt>
      <trkpt lat="46.66199" lon="5.61004">
        <ele>388</ele>
        <time>2021-05-29T13:05:30.829Z</time>
      </trkpt>
      <trkpt lat="46.66199" lon="5.61003">
        <ele>387</ele>
        <time>2021-05-29T13:05:31.830Z</time>
      </trkpt>
      <trkpt lat="46.66199" lon="5.61003">
        <ele>386</ele>
        <time>2021-05-29T13:05:32.830Z</time>
      </trkpt>
      <trkpt lat="46.662" lon="5.61003">
        <ele>386</ele>
        <time>2021-05-29T13:05:33.830Z</time>
      </trkpt>
      <trkpt lat="46.662" lon="5.61003">
        <ele>386</ele>
        <time>2021-05-29T13:05:34.830Z</time>
      </trkpt>
      <trkpt lat="46.662" lon="5.61003">
        <ele>385</ele>
        <time>2021-05-29T13:05:35.830Z</time>
      </trkpt>
      <trkpt lat="46.662" lon="5.61002">
        <ele>385</ele>
        <time>2021-05-29T13:05:36.829Z</time>
      </trkpt>
      <trkpt lat="46.662" lon="5.61">
        <ele>385</ele>
        <time>2021-05-29T13:05:37.830Z</time>
      </trkpt>
      <trkpt lat="46.66199" lon="5.60999">
        <ele>385</ele>
        <time>2021-05-29T13:05:38.830Z</time>
      </trkpt>
      <trkpt lat="46.66199" lon="5.60997">
        <ele>385</ele>
        <time>2021-05-29T13:05:39.830Z</time>
      </trkpt>
      <trkpt lat="46.66199" lon="5.60996">
        <ele>385</ele>
        <time>2021-05-29T13:05:40.830Z</time>
      </trkpt>
      <trkpt lat="46.66197" lon="5.60993">
        <ele>385</ele>
        <time>2021-05-29T13:05:41.830Z</time>
      </trkpt>
      <trkpt lat="46.66195" lon="5.60991">
        <ele>385</ele>
        <time>2021-05-29T13:05:42.830Z</time>
      </trkpt>
      <trkpt lat="46.66194" lon="5.6099">
        <ele>386</ele>
        <time>2021-05-29T13:05:43.830Z</time>
      </trkpt>
      <trkpt lat="46.66193" lon="5.60987">
        <ele>386</ele>
        <time>2021-05-29T13:05:44.830Z</time>
      </trkpt>
      <trkpt lat="46.66191" lon="5.60985">
        <ele>386</ele>
        <time>2021-05-29T13:05:45.830Z</time>
      </trkpt>
      <trkpt lat="46.66189" lon="5.60982">
        <ele>387</ele>
        <time>2021-05-29T13:05:46.830Z</time>
      </trkpt>
      <trkpt lat="46.66188" lon="5.6098">
        <ele>387</ele>
        <time>2021-05-29T13:05:47.830Z</time>
      </trkpt>
      <trkpt lat="46.66187" lon="5.60978">
        <ele>386</ele>
        <time>2021-05-29T13:05:48.830Z</time>
      </trkpt>
      <trkpt lat="46.66185" lon="5.60976">
        <ele>386</ele>
        <time>2021-05-29T13:05:49.830Z</time>
      </trkpt>
      <trkpt lat="46.66184" lon="5.60974">
        <ele>386</ele>
        <time>2021-05-29T13:05:50.830Z</time>
      </trkpt>
      <trkpt lat="46.66183" lon="5.60972">
        <ele>386</ele>
        <time>2021-05-29T13:05:51.830Z</time>
      </trkpt>
      <trkpt lat="46.66181" lon="5.6097">
        <ele>386</ele>
        <time>2021-05-29T13:05:52.830Z</time>
      </trkpt>
      <trkpt lat="46.66181" lon="5.60969">
        <ele>386</ele>
        <time>2021-05-29T13:05:53.830Z</time>
      </trkpt>
      <trkpt lat="46.66179" lon="5.60966">
        <ele>385</ele>
        <time>2021-05-29T13:05:54.830Z</time>
      </trkpt>
      <trkpt lat="46.66177" lon="5.60964">
        <ele>385</ele>
        <time>2021-05-29T13:05:55.830Z</time>
      </trkpt>
      <trkpt lat="46.66176" lon="5.60962">
        <ele>385</ele>
        <time>2021-05-29T13:05:56.830Z</time>
      </trkpt>
      <trkpt lat="46.66174" lon="5.6096">
        <ele>385</ele>
        <time>2021-05-29T13:05:57.829Z</time>
      </trkpt>
      <trkpt lat="46.66173" lon="5.60958">
        <ele>385</ele>
        <time>2021-05-29T13:05:58.830Z</time>
      </trkpt>
      <trkpt lat="46.66172" lon="5.60955">
        <ele>385</ele>
        <time>2021-05-29T13:05:59.829Z</time>
      </trkpt>
      <trkpt lat="46.66171" lon="5.60953">
        <ele>385</ele>
        <time>2021-05-29T13:06:00.829Z</time>
      </trkpt>
      <trkpt lat="46.66168" lon="5.60951">
        <ele>385</ele>
        <time>2021-05-29T13:06:01.830Z</time>
      </trkpt>
      <trkpt lat="46.66166" lon="5.60949">
        <ele>385</ele>
        <time>2021-05-29T13:06:02.830Z</time>
      </trkpt>
      <trkpt lat="46.66164" lon="5.60946">
        <ele>385</ele>
        <time>2021-05-29T13:06:03.830Z</time>
      </trkpt>
      <trkpt lat="46.66162" lon="5.60944">
        <ele>385</ele>
        <time>2021-05-29T13:06:04.830Z</time>
      </trkpt>
      <trkpt lat="46.66161" lon="5.60943">
        <ele>385</ele>
        <time>2021-05-29T13:06:05.830Z</time>
      </trkpt>
      <trkpt lat="46.6616" lon="5.60941">
        <ele>384</ele>
        <time>2021-05-29T13:06:06.830Z</time>
      </trkpt>
      <trkpt lat="46.66161" lon="5.60939">
        <ele>384</ele>
        <time>2021-05-29T13:06:07.830Z</time>
      </trkpt>
      <trkpt lat="46.66162" lon="5.60936">
        <ele>385</ele>
        <time>2021-05-29T13:06:08.830Z</time>
      </trkpt>
      <trkpt lat="46.66163" lon="5.60934">
        <ele>385</ele>
        <time>2021-05-29T13:06:09.830Z</time>
      </trkpt>
      <trkpt lat="46.66164" lon="5.60933">
        <ele>385</ele>
        <time>2021-05-29T13:06:10.830Z</time>
      </trkpt>
      <trkpt lat="46.66165" lon="5.60931">
        <ele>386</ele>
        <time>2021-05-29T13:06:11.830Z</time>
      </trkpt>
      <trkpt lat="46.66167" lon="5.6093">
        <ele>386</ele>
        <time>2021-05-29T13:06:12.830Z</time>
      </trkpt>
      <trkpt lat="46.66169" lon="5.60929">
        <ele>387</ele>
        <time>2021-05-29T13:06:13.829Z</time>
      </trkpt>
      <trkpt lat="46.6617" lon="5.60928">
        <ele>387</ele>
        <time>2021-05-29T13:06:14.829Z</time>
      </trkpt>
      <trkpt lat="46.66171" lon="5.60926">
        <ele>387</ele>
        <time>2021-05-29T13:06:15.829Z</time>
      </trkpt>
      <trkpt lat="46.66172" lon="5.60924">
        <ele>387</ele>
        <time>2021-05-29T13:06:16.830Z</time>
      </trkpt>
      <trkpt lat="46.66173" lon="5.60922">
        <ele>387</ele>
        <time>2021-05-29T13:06:17.830Z</time>
      </trkpt>
      <trkpt lat="46.66174" lon="5.6092">
        <ele>388</ele>
        <time>2021-05-29T13:06:18.830Z</time>
      </trkpt>
      <trkpt lat="46.66174" lon="5.60917">
        <ele>388</ele>
        <time>2021-05-29T13:06:19.830Z</time>
      </trkpt>
      <trkpt lat="46.66175" lon="5.60915">
        <ele>388</ele>
        <time>2021-05-29T13:06:20.830Z</time>
      </trkpt>
      <trkpt lat="46.66175" lon="5.60913">
        <ele>388</ele>
        <time>2021-05-29T13:06:21.830Z</time>
      </trkpt>
      <trkpt lat="46.66176" lon="5.6091">
        <ele>388</ele>
        <time>2021-05-29T13:06:22.829Z</time>
      </trkpt>
      <trkpt lat="46.66176" lon="5.60908">
        <ele>388</ele>
        <time>2021-05-29T13:06:23.829Z</time>
      </trkpt>
      <trkpt lat="46.66177" lon="5.60906">
        <ele>388</ele>
        <time>2021-05-29T13:06:24.830Z</time>
      </trkpt>
      <trkpt lat="46.66177" lon="5.60904">
        <ele>388</ele>
        <time>2021-05-29T13:06:25.830Z</time>
      </trkpt>
      <trkpt lat="46.66177" lon="5.60902">
        <ele>388</ele>
        <time>2021-05-29T13:06:26.830Z</time>
      </trkpt>
      <trkpt lat="46.66178" lon="5.609">
        <ele>387</ele>
        <time>2021-05-29T13:06:27.829Z</time>
      </trkpt>
      <trkpt lat="46.66178" lon="5.60898">
        <ele>387</ele>
        <time>2021-05-29T13:06:28.830Z</time>
      </trkpt>
      <trkpt lat="46.66178" lon="5.60896">
        <ele>387</ele>
        <time>2021-05-29T13:06:29.830Z</time>
      </trkpt>
      <trkpt lat="46.66177" lon="5.60894">
        <ele>387</ele>
        <time>2021-05-29T13:06:30.830Z</time>
      </trkpt>
      <trkpt lat="46.66177" lon="5.60891">
        <ele>387</ele>
        <time>2021-05-29T13:06:31.830Z</time>
      </trkpt>
      <trkpt lat="46.66176" lon="5.60888">
        <ele>387</ele>
        <time>2021-05-29T13:06:32.830Z</time>
      </trkpt>
      <trkpt lat="46.66176" lon="5.60886">
        <ele>386</ele>
        <time>2021-05-29T13:06:33.830Z</time>
      </trkpt>
      <trkpt lat="46.66175" lon="5.60883">
        <ele>386</ele>
        <time>2021-05-29T13:06:34.830Z</time>
      </trkpt>
      <trkpt lat="46.66174" lon="5.60881">
        <ele>386</ele>
        <time>2021-05-29T13:06:35.830Z</time>
      </trkpt>
      <trkpt lat="46.66174" lon="5.60878">
        <ele>386</ele>
        <time>2021-05-29T13:06:36.829Z</time>
      </trkpt>
      <trkpt lat="46.66173" lon="5.60876">
        <ele>386</ele>
        <time>2021-05-29T13:06:37.830Z</time>
      </trkpt>
      <trkpt lat="46.66172" lon="5.60874">
        <ele>386</ele>
        <time>2021-05-29T13:06:38.830Z</time>
      </trkpt>
      <trkpt lat="46.6617" lon="5.60872">
        <ele>385</ele>
        <time>2021-05-29T13:06:39.830Z</time>
      </trkpt>
      <trkpt lat="46.66169" lon="5.60871">
        <ele>385</ele>
        <time>2021-05-29T13:06:40.830Z</time>
      </trkpt>
      <trkpt lat="46.66168" lon="5.60869">
        <ele>385</ele>
        <time>2021-05-29T13:06:41.830Z</time>
      </trkpt>
      <trkpt lat="46.66165" lon="5.60867">
        <ele>386</ele>
        <time>2021-05-29T13:06:42.830Z</time>
      </trkpt>
      <trkpt lat="46.66163" lon="5.60866">
        <ele>386</ele>
        <time>2021-05-29T13:06:43.829Z</time>
      </trkpt>
      <trkpt lat="46.66161" lon="5.60864">
        <ele>386</ele>
        <time>2021-05-29T13:06:44.830Z</time>
      </trkpt>
      <trkpt lat="46.6616" lon="5.60863">
        <ele>387</ele>
        <time>2021-05-29T13:06:45.829Z</time>
      </trkpt>
      <trkpt lat="46.66158" lon="5.60862">
        <ele>387</ele>
        <time>2021-05-29T13:06:46.830Z</time>
      </trkpt>
      <trkpt lat="46.66156" lon="5.6086">
        <ele>387</ele>
        <time>2021-05-29T13:06:47.830Z</time>
      </trkpt>
      <trkpt lat="46.66155" lon="5.60858">
        <ele>387</ele>
        <time>2021-05-29T13:06:48.829Z</time>
      </trkpt>
      <trkpt lat="46.66153" lon="5.60857">
        <ele>386</ele>
        <time>2021-05-29T13:06:49.830Z</time>
      </trkpt>
      <trkpt lat="46.66152" lon="5.60855">
        <ele>386</ele>
        <time>2021-05-29T13:06:50.830Z</time>
      </trkpt>
      <trkpt lat="46.66151" lon="5.60854">
        <ele>386</ele>
        <time>2021-05-29T13:06:51.830Z</time>
      </trkpt>
      <trkpt lat="46.66151" lon="5.60852">
        <ele>385</ele>
        <time>2021-05-29T13:06:52.830Z</time>
      </trkpt>
      <trkpt lat="46.6615" lon="5.6085">
        <ele>384</ele>
        <time>2021-05-29T13:12:53.135Z</time>
      </trkpt>
      <trkpt lat="46.66149" lon="5.60848">
        <ele>384</ele>
        <time>2021-05-29T13:12:54.135Z</time>
      </trkpt>
      <trkpt lat="46.66148" lon="5.60846">
        <ele>383</ele>
        <time>2021-05-29T13:12:55.134Z</time>
      </trkpt>
      <trkpt lat="46.66146" lon="5.60844">
        <ele>383</ele>
        <time>2021-05-29T13:12:56.134Z</time>
      </trkpt>
      <trkpt lat="46.66145" lon="5.60843">
        <ele>383</ele>
        <time>2021-05-29T13:12:57.134Z</time>
      </trkpt>
      <trkpt lat="46.66144" lon="5.60841">
        <ele>382</ele>
        <time>2021-05-29T13:12:58.134Z</time>
      </trkpt>
      <trkpt lat="46.66142" lon="5.6084">
        <ele>382</ele>
        <time>2021-05-29T13:12:59.134Z</time>
      </trkpt>
      <trkpt lat="46.66141" lon="5.60838">
        <ele>383</ele>
        <time>2021-05-29T13:13:00.134Z</time>
      </trkpt>
      <trkpt lat="46.6614" lon="5.60835">
        <ele>383</ele>
        <time>2021-05-29T13:13:01.135Z</time>
      </trkpt>
      <trkpt lat="46.66139" lon="5.60833">
        <ele>384</ele>
        <time>2021-05-29T13:13:02.135Z</time>
      </trkpt>
      <trkpt lat="46.66137" lon="5.60831">
        <ele>385</ele>
        <time>2021-05-29T13:13:03.134Z</time>
      </trkpt>
      <trkpt lat="46.66136" lon="5.60829">
        <ele>385</ele>
        <time>2021-05-29T13:13:04.135Z</time>
      </trkpt>
      <trkpt lat="46.66135" lon="5.60826">
        <ele>385</ele>
        <time>2021-05-29T13:13:05.135Z</time>
      </trkpt>
      <trkpt lat="46.66133" lon="5.60824">
        <ele>386</ele>
        <time>2021-05-29T13:14:22.074Z</time>
      </trkpt>
      <trkpt lat="46.66132" lon="5.60822">
        <ele>386</ele>
        <time>2021-05-29T13:14:23.073Z</time>
      </trkpt>
      <trkpt lat="46.66131" lon="5.6082">
        <ele>386</ele>
        <time>2021-05-29T13:14:24.074Z</time>
      </trkpt>
      <trkpt lat="46.6613" lon="5.60818">
        <ele>386</ele>
        <time>2021-05-29T13:14:25.074Z</time>
      </trkpt>
      <trkpt lat="46.66128" lon="5.60816">
        <ele>386</ele>
        <time>2021-05-29T13:14:26.074Z</time>
      </trkpt>
      <trkpt lat="46.66127" lon="5.60813">
        <ele>386</ele>
        <time>2021-05-29T13:14:27.073Z</time>
      </trkpt>
      <trkpt lat="46.66126" lon="5.60811">
        <ele>387</ele>
        <time>2021-05-29T13:14:28.074Z</time>
      </trkpt>
      <trkpt lat="46.66125" lon="5.60809">
        <ele>387</ele>
        <time>2021-05-29T13:14:29.074Z</time>
      </trkpt>
      <trkpt lat="46.66124" lon="5.60806">
        <ele>387</ele>
        <time>2021-05-29T13:14:30.074Z</time>
      </trkpt>
      <trkpt lat="46.66123" lon="5.60804">
        <ele>387</ele>
        <time>2021-05-29T13:14:31.074Z</time>
      </trkpt>
      <trkpt lat="46.66122" lon="5.60801">
        <ele>388</ele>
        <time>2021-05-29T13:14:32.073Z</time>
      </trkpt>
      <trkpt lat="46.66121" lon="5.60799">
        <ele>388</ele>
        <time>2021-05-29T13:14:33.074Z</time>
      </trkpt>
      <trkpt lat="46.6612" lon="5.60796">
        <ele>388</ele>
        <time>2021-05-29T13:14:34.074Z</time>
      </trkpt>
      <trkpt lat="46.66119" lon="5.60794">
        <ele>389</ele>
        <time>2021-05-29T13:14:35.073Z</time>
      </trkpt>
      <trkpt lat="46.66118" lon="5.60792">
        <ele>389</ele>
        <time>2021-05-29T13:14:36.073Z</time>
      </trkpt>
      <trkpt lat="46.66118" lon="5.6079">
        <ele>390</ele>
        <time>2021-05-29T13:14:37.073Z</time>
      </trkpt>
      <trkpt lat="46.66117" lon="5.60787">
        <ele>391</ele>
        <time>2021-05-29T13:14:38.074Z</time>
      </trkpt>
      <trkpt lat="46.66116" lon="5.60785">
        <ele>391</ele>
        <time>2021-05-29T13:14:39.073Z</time>
      </trkpt>
      <trkpt lat="46.66115" lon="5.60782">
        <ele>392</ele>
        <time>2021-05-29T13:14:40.073Z</time>
      </trkpt>
      <trkpt lat="46.66114" lon="5.60779">
        <ele>392</ele>
        <time>2021-05-29T13:14:41.074Z</time>
      </trkpt>
      <trkpt lat="46.66113" lon="5.60778">
        <ele>392</ele>
        <time>2021-05-29T13:14:42.074Z</time>
      </trkpt>
      <trkpt lat="46.66112" lon="5.60776">
        <ele>392</ele>
        <time>2021-05-29T13:14:43.074Z</time>
      </trkpt>
      <trkpt lat="46.66111" lon="5.60774">
        <ele>392</ele>
        <time>2021-05-29T13:14:44.074Z</time>
      </trkpt>
      <trkpt lat="46.6611" lon="5.60772">
        <ele>392</ele>
        <time>2021-05-29T13:14:45.074Z</time>
      </trkpt>
      <trkpt lat="46.6611" lon="5.60769">
        <ele>392</ele>
        <time>2021-05-29T13:14:46.074Z</time>
      </trkpt>
      <trkpt lat="46.66109" lon="5.60768">
        <ele>392</ele>
        <time>2021-05-29T13:14:47.074Z</time>
      </trkpt>
      <trkpt lat="46.66108" lon="5.60766">
        <ele>392</ele>
        <time>2021-05-29T13:14:48.074Z</time>
      </trkpt>
      <trkpt lat="46.66107" lon="5.60764">
        <ele>391</ele>
        <time>2021-05-29T13:14:49.074Z</time>
      </trkpt>
      <trkpt lat="46.66106" lon="5.60761">
        <ele>391</ele>
        <time>2021-05-29T13:14:50.074Z</time>
      </trkpt>
      <trkpt lat="46.66105" lon="5.60759">
        <ele>390</ele>
        <time>2021-05-29T13:14:51.074Z</time>
      </trkpt>
      <trkpt lat="46.66104" lon="5.60757">
        <ele>390</ele>
        <time>2021-05-29T13:14:52.074Z</time>
      </trkpt>
      <trkpt lat="46.66102" lon="5.60755">
        <ele>390</ele>
        <time>2021-05-29T13:14:53.074Z</time>
      </trkpt>
      <trkpt lat="46.66101" lon="5.60753">
        <ele>390</ele>
        <time>2021-05-29T13:14:54.074Z</time>
      </trkpt>
      <trkpt lat="46.66099" lon="5.60751">
        <ele>390</ele>
        <time>2021-05-29T13:14:55.074Z</time>
      </trkpt>
      <trkpt lat="46.66097" lon="5.6075">
        <ele>390</ele>
        <time>2021-05-29T13:14:56.074Z</time>
      </trkpt>
      <trkpt lat="46.66096" lon="5.60748">
        <ele>391</ele>
        <time>2021-05-29T13:14:57.074Z</time>
      </trkpt>
      <trkpt lat="46.66094" lon="5.60746">
        <ele>391</ele>
        <time>2021-05-29T13:14:58.073Z</time>
      </trkpt>
      <trkpt lat="46.66092" lon="5.60745">
        <ele>391</ele>
        <time>2021-05-29T13:14:59.074Z</time>
      </trkpt>
      <trkpt lat="46.6609" lon="5.60742">
        <ele>391</ele>
        <time>2021-05-29T13:15:00.074Z</time>
      </trkpt>
      <trkpt lat="46.66088" lon="5.6074">
        <ele>392</ele>
        <time>2021-05-29T13:15:01.074Z</time>
      </trkpt>
      <trkpt lat="46.66087" lon="5.60738">
        <ele>392</ele>
        <time>2021-05-29T13:15:02.074Z</time>
      </trkpt>
      <trkpt lat="46.66084" lon="5.60736">
        <ele>393</ele>
        <time>2021-05-29T13:15:03.074Z</time>
      </trkpt>
      <trkpt lat="46.66082" lon="5.60735">
        <ele>393</ele>
        <time>2021-05-29T13:15:04.074Z</time>
      </trkpt>
      <trkpt lat="46.6608" lon="5.60734">
        <ele>394</ele>
        <time>2021-05-29T13:15:05.073Z</time>
      </trkpt>
      <trkpt lat="46.66079" lon="5.60733">
        <ele>395</ele>
        <time>2021-05-29T13:15:06.073Z</time>
      </trkpt>
      <trkpt lat="46.66078" lon="5.60732">
        <ele>395</ele>
        <time>2021-05-29T13:15:07.074Z</time>
      </trkpt>
      <trkpt lat="46.66077" lon="5.6073">
        <ele>395</ele>
        <time>2021-05-29T13:15:08.074Z</time>
      </trkpt>
      <trkpt lat="46.66075" lon="5.60727">
        <ele>396</ele>
        <time>2021-05-29T13:15:09.074Z</time>
      </trkpt>
      <trkpt lat="46.66074" lon="5.60725">
        <ele>396</ele>
        <time>2021-05-29T13:15:10.074Z</time>
      </trkpt>
      <trkpt lat="46.66072" lon="5.60723">
        <ele>396</ele>
        <time>2021-05-29T13:15:11.073Z</time>
      </trkpt>
      <trkpt lat="46.66071" lon="5.60722">
        <ele>397</ele>
        <time>2021-05-29T13:15:12.074Z</time>
      </trkpt>
      <trkpt lat="46.6607" lon="5.6072">
        <ele>398</ele>
        <time>2021-05-29T13:15:13.073Z</time>
      </trkpt>
      <trkpt lat="46.66069" lon="5.60718">
        <ele>399</ele>
        <time>2021-05-29T13:15:14.074Z</time>
      </trkpt>
      <trkpt lat="46.66067" lon="5.60716">
        <ele>399</ele>
        <time>2021-05-29T13:15:15.074Z</time>
      </trkpt>
      <trkpt lat="46.66065" lon="5.60714">
        <ele>400</ele>
        <time>2021-05-29T13:15:16.073Z</time>
      </trkpt>
      <trkpt lat="46.66064" lon="5.60712">
        <ele>400</ele>
        <time>2021-05-29T13:15:17.074Z</time>
      </trkpt>
      <trkpt lat="46.66062" lon="5.60711">
        <ele>401</ele>
        <time>2021-05-29T13:15:18.074Z</time>
      </trkpt>
      <trkpt lat="46.66061" lon="5.60709">
        <ele>401</ele>
        <time>2021-05-29T13:15:19.074Z</time>
      </trkpt>
      <trkpt lat="46.66059" lon="5.60707">
        <ele>402</ele>
        <time>2021-05-29T13:15:20.074Z</time>
      </trkpt>
      <trkpt lat="46.66058" lon="5.60707">
        <ele>402</ele>
        <time>2021-05-29T13:15:21.073Z</time>
      </trkpt>
      <trkpt lat="46.66056" lon="5.60705">
        <ele>403</ele>
        <time>2021-05-29T13:15:22.074Z</time>
      </trkpt>
      <trkpt lat="46.66055" lon="5.60704">
        <ele>403</ele>
        <time>2021-05-29T13:15:23.074Z</time>
      </trkpt>
      <trkpt lat="46.66053" lon="5.60702">
        <ele>404</ele>
        <time>2021-05-29T13:15:24.073Z</time>
      </trkpt>
      <trkpt lat="46.66052" lon="5.60701">
        <ele>404</ele>
        <time>2021-05-29T13:15:25.074Z</time>
      </trkpt>
      <trkpt lat="46.66051" lon="5.60699">
        <ele>404</ele>
        <time>2021-05-29T13:15:26.074Z</time>
      </trkpt>
      <trkpt lat="46.66049" lon="5.60697">
        <ele>404</ele>
        <time>2021-05-29T13:15:27.073Z</time>
      </trkpt>
      <trkpt lat="46.66048" lon="5.60695">
        <ele>405</ele>
        <time>2021-05-29T13:15:28.074Z</time>
      </trkpt>
      <trkpt lat="46.66047" lon="5.60693">
        <ele>405</ele>
        <time>2021-05-29T13:15:29.073Z</time>
      </trkpt>
      <trkpt lat="46.66045" lon="5.6069">
        <ele>405</ele>
        <time>2021-05-29T13:15:30.074Z</time>
      </trkpt>
      <trkpt lat="46.66044" lon="5.60688">
        <ele>405</ele>
        <time>2021-05-29T13:15:31.073Z</time>
      </trkpt>
      <trkpt lat="46.66043" lon="5.60686">
        <ele>405</ele>
        <time>2021-05-29T13:15:32.074Z</time>
      </trkpt>
      <trkpt lat="46.66042" lon="5.60685">
        <ele>406</ele>
        <time>2021-05-29T13:15:33.074Z</time>
      </trkpt>
      <trkpt lat="46.66041" lon="5.60683">
        <ele>406</ele>
        <time>2021-05-29T13:15:34.073Z</time>
      </trkpt>
      <trkpt lat="46.66039" lon="5.60682">
        <ele>406</ele>
        <time>2021-05-29T13:15:35.074Z</time>
      </trkpt>
      <trkpt lat="46.66038" lon="5.60681">
        <ele>406</ele>
        <time>2021-05-29T13:15:36.074Z</time>
      </trkpt>
      <trkpt lat="46.66036" lon="5.6068">
        <ele>406</ele>
        <time>2021-05-29T13:15:37.074Z</time>
      </trkpt>
      <trkpt lat="46.66035" lon="5.60679">
        <ele>406</ele>
        <time>2021-05-29T13:15:38.074Z</time>
      </trkpt>
      <trkpt lat="46.66033" lon="5.60677">
        <ele>406</ele>
        <time>2021-05-29T13:15:39.074Z</time>
      </trkpt>
      <trkpt lat="46.66032" lon="5.60676">
        <ele>405</ele>
        <time>2021-05-29T13:15:40.074Z</time>
      </trkpt>
      <trkpt lat="46.66031" lon="5.60675">
        <ele>405</ele>
        <time>2021-05-29T13:15:41.073Z</time>
      </trkpt>
      <trkpt lat="46.6603" lon="5.60673">
        <ele>404</ele>
        <time>2021-05-29T13:15:42.074Z</time>
      </trkpt>
      <trkpt lat="46.66028" lon="5.60671">
        <ele>404</ele>
        <time>2021-05-29T13:15:43.074Z</time>
      </trkpt>
      <trkpt lat="46.66027" lon="5.6067">
        <ele>404</ele>
        <time>2021-05-29T13:15:44.074Z</time>
      </trkpt>
      <trkpt lat="46.66025" lon="5.60669">
        <ele>404</ele>
        <time>2021-05-29T13:15:45.074Z</time>
      </trkpt>
      <trkpt lat="46.66024" lon="5.60667">
        <ele>404</ele>
        <time>2021-05-29T13:15:46.074Z</time>
      </trkpt>
      <trkpt lat="46.66022" lon="5.60666">
        <ele>404</ele>
        <time>2021-05-29T13:15:47.074Z</time>
      </trkpt>
      <trkpt lat="46.66021" lon="5.60664">
        <ele>404</ele>
        <time>2021-05-29T13:15:48.074Z</time>
      </trkpt>
      <trkpt lat="46.6602" lon="5.60663">
        <ele>404</ele>
        <time>2021-05-29T13:15:49.074Z</time>
      </trkpt>
      <trkpt lat="46.66019" lon="5.60662">
        <ele>404</ele>
        <time>2021-05-29T13:15:50.073Z</time>
      </trkpt>
      <trkpt lat="46.66018" lon="5.6066">
        <ele>404</ele>
        <time>2021-05-29T13:15:51.074Z</time>
      </trkpt>
      <trkpt lat="46.66017" lon="5.60658">
        <ele>404</ele>
        <time>2021-05-29T13:15:52.073Z</time>
      </trkpt>
      <trkpt lat="46.66015" lon="5.60656">
        <ele>404</ele>
        <time>2021-05-29T13:15:53.074Z</time>
      </trkpt>
      <trkpt lat="46.66014" lon="5.60655">
        <ele>404</ele>
        <time>2021-05-29T13:15:54.074Z</time>
      </trkpt>
      <trkpt lat="46.66013" lon="5.60653">
        <ele>405</ele>
        <time>2021-05-29T13:15:55.074Z</time>
      </trkpt>
      <trkpt lat="46.66011" lon="5.60651">
        <ele>405</ele>
        <time>2021-05-29T13:15:56.073Z</time>
      </trkpt>
      <trkpt lat="46.6601" lon="5.60649">
        <ele>405</ele>
        <time>2021-05-29T13:15:57.074Z</time>
      </trkpt>
      <trkpt lat="46.66009" lon="5.60647">
        <ele>405</ele>
        <time>2021-05-29T13:15:58.073Z</time>
      </trkpt>
      <trkpt lat="46.66007" lon="5.60645">
        <ele>404</ele>
        <time>2021-05-29T13:15:59.074Z</time>
      </trkpt>
      <trkpt lat="46.66006" lon="5.60643">
        <ele>404</ele>
        <time>2021-05-29T13:16:00.074Z</time>
      </trkpt>
      <trkpt lat="46.66005" lon="5.60642">
        <ele>404</ele>
        <time>2021-05-29T13:16:01.074Z</time>
      </trkpt>
      <trkpt lat="46.66003" lon="5.6064">
        <ele>404</ele>
        <time>2021-05-29T13:16:02.074Z</time>
      </trkpt>
      <trkpt lat="46.66002" lon="5.60638">
        <ele>404</ele>
        <time>2021-05-29T13:16:03.074Z</time>
      </trkpt>
      <trkpt lat="46.66001" lon="5.60636">
        <ele>404</ele>
        <time>2021-05-29T13:16:04.074Z</time>
      </trkpt>
      <trkpt lat="46.65999" lon="5.60635">
        <ele>404</ele>
        <time>2021-05-29T13:16:05.074Z</time>
      </trkpt>
      <trkpt lat="46.65998" lon="5.60633">
        <ele>404</ele>
        <time>2021-05-29T13:16:06.073Z</time>
      </trkpt>
      <trkpt lat="46.65996" lon="5.60631">
        <ele>405</ele>
        <time>2021-05-29T13:16:07.073Z</time>
      </trkpt>
      <trkpt lat="46.65995" lon="5.60629">
        <ele>405</ele>
        <time>2021-05-29T13:16:08.074Z</time>
      </trkpt>
      <trkpt lat="46.65994" lon="5.60627">
        <ele>406</ele>
        <time>2021-05-29T13:16:09.073Z</time>
      </trkpt>
      <trkpt lat="46.65993" lon="5.60625">
        <ele>406</ele>
        <time>2021-05-29T13:16:10.074Z</time>
      </trkpt>
      <trkpt lat="46.65992" lon="5.60623">
        <ele>405</ele>
        <time>2021-05-29T13:16:11.073Z</time>
      </trkpt>
      <trkpt lat="46.6599" lon="5.60621">
        <ele>405</ele>
        <time>2021-05-29T13:16:12.074Z</time>
      </trkpt>
      <trkpt lat="46.65989" lon="5.60618">
        <ele>404</ele>
        <time>2021-05-29T13:16:13.074Z</time>
      </trkpt>
      <trkpt lat="46.65988" lon="5.60617">
        <ele>404</ele>
        <time>2021-05-29T13:16:14.074Z</time>
      </trkpt>
      <trkpt lat="46.65987" lon="5.60614">
        <ele>403</ele>
        <time>2021-05-29T13:16:15.073Z</time>
      </trkpt>
      <trkpt lat="46.65986" lon="5.60612">
        <ele>403</ele>
        <time>2021-05-29T13:16:16.074Z</time>
      </trkpt>
      <trkpt lat="46.65984" lon="5.6061">
        <ele>403</ele>
        <time>2021-05-29T13:16:17.074Z</time>
      </trkpt>
      <trkpt lat="46.65983" lon="5.60608">
        <ele>403</ele>
        <time>2021-05-29T13:16:18.074Z</time>
      </trkpt>
      <trkpt lat="46.65981" lon="5.60605">
        <ele>403</ele>
        <time>2021-05-29T13:16:19.074Z</time>
      </trkpt>
      <trkpt lat="46.6598" lon="5.60603">
        <ele>403</ele>
        <time>2021-05-29T13:16:20.074Z</time>
      </trkpt>
      <trkpt lat="46.65978" lon="5.606">
        <ele>403</ele>
        <time>2021-05-29T13:16:21.073Z</time>
      </trkpt>
      <trkpt lat="46.65977" lon="5.60598">
        <ele>403</ele>
        <time>2021-05-29T13:16:22.074Z</time>
      </trkpt>
      <trkpt lat="46.65975" lon="5.60595">
        <ele>402</ele>
        <time>2021-05-29T13:16:23.074Z</time>
      </trkpt>
      <trkpt lat="46.65974" lon="5.60592">
        <ele>402</ele>
        <time>2021-05-29T13:16:24.074Z</time>
      </trkpt>
      <trkpt lat="46.65973" lon="5.6059">
        <ele>401</ele>
        <time>2021-05-29T13:16:25.074Z</time>
      </trkpt>
      <trkpt lat="46.65973" lon="5.60589">
        <ele>401</ele>
        <time>2021-05-29T13:16:26.074Z</time>
      </trkpt>
      <trkpt lat="46.65973" lon="5.60594">
        <ele>406</ele>
        <time>2021-05-29T13:16:27.074Z</time>
      </trkpt>
      <trkpt lat="46.65973" lon="5.60594">
        <ele>406</ele>
        <time>2021-05-29T13:16:28.074Z</time>
      </trkpt>
      <trkpt lat="46.65973" lon="5.60594">
        <ele>406</ele>
        <time>2021-05-29T13:16:29.074Z</time>
      </trkpt>
      <trkpt lat="46.65973" lon="5.60594">
        <ele>406</ele>
        <time>2021-05-29T13:16:30.075Z</time>
      </trkpt>
      <trkpt lat="46.65973" lon="5.60594">
        <ele>406</ele>
        <time>2021-05-29T13:16:31.075Z</time>
      </trkpt>
      <trkpt lat="46.65972" lon="5.60594">
        <ele>406</ele>
        <time>2021-05-29T13:16:32.075Z</time>
      </trkpt>
      <trkpt lat="46.65972" lon="5.60594">
        <ele>406</ele>
        <time>2021-05-29T13:16:33.075Z</time>
      </trkpt>
      <trkpt lat="46.65972" lon="5.60594">
        <ele>406</ele>
        <time>2021-05-29T13:16:34.075Z</time>
      </trkpt>
      <trkpt lat="46.65972" lon="5.60594">
        <ele>406</ele>
        <time>2021-05-29T13:16:35.074Z</time>
      </trkpt>
      <trkpt lat="46.65969" lon="5.60591">
        <ele>406</ele>
        <time>2021-05-29T13:16:36.075Z</time>
      </trkpt>
      <trkpt lat="46.65967" lon="5.60588">
        <ele>406</ele>
        <time>2021-05-29T13:16:37.075Z</time>
      </trkpt>
      <trkpt lat="46.65965" lon="5.60586">
        <ele>406</ele>
        <time>2021-05-29T13:16:38.075Z</time>
      </trkpt>
      <trkpt lat="46.65963" lon="5.60584">
        <ele>406</ele>
        <time>2021-05-29T13:16:39.075Z</time>
      </trkpt>
      <trkpt lat="46.65961" lon="5.60581">
        <ele>406</ele>
        <time>2021-05-29T13:16:40.074Z</time>
      </trkpt>
      <trkpt lat="46.6596" lon="5.60579">
        <ele>406</ele>
        <time>2021-05-29T13:16:41.075Z</time>
      </trkpt>
      <trkpt lat="46.65958" lon="5.60577">
        <ele>406</ele>
        <time>2021-05-29T13:16:42.075Z</time>
      </trkpt>
      <trkpt lat="46.65956" lon="5.60574">
        <ele>406</ele>
        <time>2021-05-29T13:16:43.075Z</time>
      </trkpt>
      <trkpt lat="46.65954" lon="5.60571">
        <ele>406</ele>
        <time>2021-05-29T13:16:44.074Z</time>
      </trkpt>
      <trkpt lat="46.65952" lon="5.60569">
        <ele>406</ele>
        <time>2021-05-29T13:16:45.075Z</time>
      </trkpt>
      <trkpt lat="46.65951" lon="5.60567">
        <ele>406</ele>
        <time>2021-05-29T13:16:46.075Z</time>
      </trkpt>
      <trkpt lat="46.65949" lon="5.60565">
        <ele>406</ele>
        <time>2021-05-29T13:16:47.074Z</time>
      </trkpt>
      <trkpt lat="46.65947" lon="5.60564">
        <ele>406</ele>
        <time>2021-05-29T13:16:48.075Z</time>
      </trkpt>
      <trkpt lat="46.65946" lon="5.60562">
        <ele>406</ele>
        <time>2021-05-29T13:16:49.075Z</time>
      </trkpt>
      <trkpt lat="46.65944" lon="5.6056">
        <ele>406</ele>
        <time>2021-05-29T13:16:50.074Z</time>
      </trkpt>
      <trkpt lat="46.65943" lon="5.60559">
        <ele>405</ele>
        <time>2021-05-29T13:16:51.075Z</time>
      </trkpt>
      <trkpt lat="46.65941" lon="5.60557">
        <ele>405</ele>
        <time>2021-05-29T13:16:52.074Z</time>
      </trkpt>
      <trkpt lat="46.6594" lon="5.60555">
        <ele>405</ele>
        <time>2021-05-29T13:16:53.075Z</time>
      </trkpt>
      <trkpt lat="46.65939" lon="5.60554">
        <ele>405</ele>
        <time>2021-05-29T13:16:54.074Z</time>
      </trkpt>
      <trkpt lat="46.65938" lon="5.60554">
        <ele>404</ele>
        <time>2021-05-29T13:16:55.074Z</time>
      </trkpt>
      <trkpt lat="46.65937" lon="5.60553">
        <ele>404</ele>
        <time>2021-05-29T13:16:56.074Z</time>
      </trkpt>
      <trkpt lat="46.65938" lon="5.60552">
        <ele>405</ele>
        <time>2021-05-29T13:16:57.075Z</time>
      </trkpt>
      <trkpt lat="46.65938" lon="5.60551">
        <ele>405</ele>
        <time>2021-05-29T13:16:58.075Z</time>
      </trkpt>
      <trkpt lat="46.65938" lon="5.60551">
        <ele>404</ele>
        <time>2021-05-29T13:16:59.075Z</time>
      </trkpt>
      <trkpt lat="46.65939" lon="5.60551">
        <ele>404</ele>
        <time>2021-05-29T13:17:00.075Z</time>
      </trkpt>
      <trkpt lat="46.65939" lon="5.6055">
        <ele>404</ele>
        <time>2021-05-29T13:17:01.074Z</time>
      </trkpt>
      <trkpt lat="46.6594" lon="5.6055">
        <ele>404</ele>
        <time>2021-05-29T13:17:02.075Z</time>
      </trkpt>
      <trkpt lat="46.65939" lon="5.6055">
        <ele>404</ele>
        <time>2021-05-29T13:17:03.075Z</time>
      </trkpt>
      <trkpt lat="46.65939" lon="5.6055">
        <ele>404</ele>
        <time>2021-05-29T13:17:04.075Z</time>
      </trkpt>
      <trkpt lat="46.65939" lon="5.60549">
        <ele>404</ele>
        <time>2021-05-29T13:17:05.075Z</time>
      </trkpt>
      <trkpt lat="46.65939" lon="5.60548">
        <ele>404</ele>
        <time>2021-05-29T13:17:06.075Z</time>
      </trkpt>
      <trkpt lat="46.65939" lon="5.60547">
        <ele>403</ele>
        <time>2021-05-29T13:17:07.074Z</time>
      </trkpt>
      <trkpt lat="46.65939" lon="5.60546">
        <ele>403</ele>
        <time>2021-05-29T13:17:08.074Z</time>
      </trkpt>
      <trkpt lat="46.65939" lon="5.60546">
        <ele>403</ele>
        <time>2021-05-29T13:17:09.075Z</time>
      </trkpt>
      <trkpt lat="46.65939" lon="5.60545">
        <ele>402</ele>
        <time>2021-05-29T13:17:10.075Z</time>
      </trkpt>
      <trkpt lat="46.6594" lon="5.60545">
        <ele>401</ele>
        <time>2021-05-29T13:17:11.075Z</time>
      </trkpt>
      <trkpt lat="46.6594" lon="5.60545">
        <ele>400</ele>
        <time>2021-05-29T13:17:12.074Z</time>
      </trkpt>
      <trkpt lat="46.65941" lon="5.60544">
        <ele>400</ele>
        <time>2021-05-29T13:17:13.074Z</time>
      </trkpt>
      <trkpt lat="46.65941" lon="5.60544">
        <ele>399</ele>
        <time>2021-05-29T13:17:14.075Z</time>
      </trkpt>
      <trkpt lat="46.65941" lon="5.60543">
        <ele>399</ele>
        <time>2021-05-29T13:17:15.075Z</time>
      </trkpt>
      <trkpt lat="46.65942" lon="5.60543">
        <ele>399</ele>
        <time>2021-05-29T13:17:16.075Z</time>
      </trkpt>
      <trkpt lat="46.65942" lon="5.60543">
        <ele>399</ele>
        <time>2021-05-29T13:17:17.075Z</time>
      </trkpt>
      <trkpt lat="46.65942" lon="5.60542">
        <ele>400</ele>
        <time>2021-05-29T13:17:18.075Z</time>
      </trkpt>
      <trkpt lat="46.65942" lon="5.60542">
        <ele>400</ele>
        <time>2021-05-29T13:17:19.075Z</time>
      </trkpt>
      <trkpt lat="46.65942" lon="5.60542">
        <ele>400</ele>
        <time>2021-05-29T13:17:20.075Z</time>
      </trkpt>
      <trkpt lat="46.65942" lon="5.60541">
        <ele>400</ele>
        <time>2021-05-29T13:17:21.075Z</time>
      </trkpt>
      <trkpt lat="46.65943" lon="5.60541">
        <ele>400</ele>
        <time>2021-05-29T13:17:22.075Z</time>
      </trkpt>
      <trkpt lat="46.65943" lon="5.6054">
        <ele>400</ele>
        <time>2021-05-29T13:17:23.075Z</time>
      </trkpt>
      <trkpt lat="46.65943" lon="5.60539">
        <ele>400</ele>
        <time>2021-05-29T13:17:24.074Z</time>
      </trkpt>
      <trkpt lat="46.65943" lon="5.60538">
        <ele>400</ele>
        <time>2021-05-29T13:17:25.075Z</time>
      </trkpt>
      <trkpt lat="46.65944" lon="5.60537">
        <ele>399</ele>
        <time>2021-05-29T13:17:26.075Z</time>
      </trkpt>
      <trkpt lat="46.65944" lon="5.60537">
        <ele>399</ele>
        <time>2021-05-29T13:17:27.075Z</time>
      </trkpt>
      <trkpt lat="46.65944" lon="5.60536">
        <ele>399</ele>
        <time>2021-05-29T13:17:28.075Z</time>
      </trkpt>
      <trkpt lat="46.65944" lon="5.60535">
        <ele>399</ele>
        <time>2021-05-29T13:17:29.075Z</time>
      </trkpt>
      <trkpt lat="46.65945" lon="5.60535">
        <ele>399</ele>
        <time>2021-05-29T13:17:30.074Z</time>
      </trkpt>
      <trkpt lat="46.65945" lon="5.60534">
        <ele>399</ele>
        <time>2021-05-29T13:17:31.075Z</time>
      </trkpt>
      <trkpt lat="46.65946" lon="5.60534">
        <ele>399</ele>
        <time>2021-05-29T13:17:32.074Z</time>
      </trkpt>
      <trkpt lat="46.65946" lon="5.60534">
        <ele>399</ele>
        <time>2021-05-29T13:17:33.074Z</time>
      </trkpt>
      <trkpt lat="46.65947" lon="5.60533">
        <ele>400</ele>
        <time>2021-05-29T13:17:34.075Z</time>
      </trkpt>
      <trkpt lat="46.65948" lon="5.60532">
        <ele>400</ele>
        <time>2021-05-29T13:17:35.074Z</time>
      </trkpt>
      <trkpt lat="46.65948" lon="5.60531">
        <ele>400</ele>
        <time>2021-05-29T13:17:36.074Z</time>
      </trkpt>
      <trkpt lat="46.65948" lon="5.60531">
        <ele>400</ele>
        <time>2021-05-29T13:17:37.075Z</time>
      </trkpt>
      <trkpt lat="46.65948" lon="5.6053">
        <ele>400</ele>
        <time>2021-05-29T13:17:38.075Z</time>
      </trkpt>
      <trkpt lat="46.65948" lon="5.60529">
        <ele>400</ele>
        <time>2021-05-29T13:17:39.075Z</time>
      </trkpt>
      <trkpt lat="46.65947" lon="5.60528">
        <ele>401</ele>
        <time>2021-05-29T13:17:40.074Z</time>
      </trkpt>
      <trkpt lat="46.65947" lon="5.60528">
        <ele>401</ele>
        <time>2021-05-29T13:17:41.075Z</time>
      </trkpt>
      <trkpt lat="46.65947" lon="5.60528">
        <ele>401</ele>
        <time>2021-05-29T13:17:42.075Z</time>
      </trkpt>
      <trkpt lat="46.65947" lon="5.60528">
        <ele>402</ele>
        <time>2021-05-29T13:17:43.075Z</time>
      </trkpt>
      <trkpt lat="46.65947" lon="5.60528">
        <ele>403</ele>
        <time>2021-05-29T13:17:44.075Z</time>
      </trkpt>
      <trkpt lat="46.65947" lon="5.60528">
        <ele>404</ele>
        <time>2021-05-29T13:17:45.075Z</time>
      </trkpt>
      <trkpt lat="46.65946" lon="5.60527">
        <ele>405</ele>
        <time>2021-05-29T13:17:46.075Z</time>
      </trkpt>
      <trkpt lat="46.65945" lon="5.60527">
        <ele>405</ele>
        <time>2021-05-29T13:17:47.075Z</time>
      </trkpt>
      <trkpt lat="46.65945" lon="5.60527">
        <ele>405</ele>
        <time>2021-05-29T13:17:48.075Z</time>
      </trkpt>
      <trkpt lat="46.65944" lon="5.60527">
        <ele>405</ele>
        <time>2021-05-29T13:17:49.075Z</time>
      </trkpt>
      <trkpt lat="46.65942" lon="5.60527">
        <ele>406</ele>
        <time>2021-05-29T13:17:50.075Z</time>
      </trkpt>
      <trkpt lat="46.65941" lon="5.60527">
        <ele>406</ele>
        <time>2021-05-29T13:17:51.075Z</time>
      </trkpt>
      <trkpt lat="46.65941" lon="5.60528">
        <ele>407</ele>
        <time>2021-05-29T13:17:52.075Z</time>
      </trkpt>
      <trkpt lat="46.65941" lon="5.60529">
        <ele>407</ele>
        <time>2021-05-29T13:17:53.075Z</time>
      </trkpt>
      <trkpt lat="46.65942" lon="5.60529">
        <ele>408</ele>
        <time>2021-05-29T13:17:54.075Z</time>
      </trkpt>
      <trkpt lat="46.65942" lon="5.6053">
        <ele>409</ele>
        <time>2021-05-29T13:17:55.075Z</time>
      </trkpt>
      <trkpt lat="46.65943" lon="5.60529">
        <ele>410</ele>
        <time>2021-05-29T13:17:56.075Z</time>
      </trkpt>
      <trkpt lat="46.65943" lon="5.6053">
        <ele>411</ele>
        <time>2021-05-29T13:17:57.075Z</time>
      </trkpt>
      <trkpt lat="46.65944" lon="5.60529">
        <ele>412</ele>
        <time>2021-05-29T13:17:58.075Z</time>
      </trkpt>
      <trkpt lat="46.65944" lon="5.60529">
        <ele>412</ele>
        <time>2021-05-29T13:17:59.074Z</time>
      </trkpt>
      <trkpt lat="46.65944" lon="5.60528">
        <ele>412</ele>
        <time>2021-05-29T13:18:00.075Z</time>
      </trkpt>
      <trkpt lat="46.65943" lon="5.60527">
        <ele>412</ele>
        <time>2021-05-29T13:20:23.408Z</time>
      </trkpt>
      <trkpt lat="46.65942" lon="5.60527">
        <ele>413</ele>
        <time>2021-05-29T13:20:24.407Z</time>
      </trkpt>
      <trkpt lat="46.65942" lon="5.60527">
        <ele>413</ele>
        <time>2021-05-29T13:20:25.408Z</time>
      </trkpt>
      <trkpt lat="46.65941" lon="5.60527">
        <ele>413</ele>
        <time>2021-05-29T13:20:26.408Z</time>
      </trkpt>
      <trkpt lat="46.65941" lon="5.60528">
        <ele>413</ele>
        <time>2021-05-29T13:20:27.408Z</time>
      </trkpt>
      <trkpt lat="46.65942" lon="5.60529">
        <ele>414</ele>
        <time>2021-05-29T13:20:28.407Z</time>
      </trkpt>
      <trkpt lat="46.65943" lon="5.60529">
        <ele>414</ele>
        <time>2021-05-29T13:20:29.408Z</time>
      </trkpt>
      <trkpt lat="46.65943" lon="5.60529">
        <ele>414</ele>
        <time>2021-05-29T13:20:30.408Z</time>
      </trkpt>
      <trkpt lat="46.65943" lon="5.60529">
        <ele>415</ele>
        <time>2021-05-29T13:20:31.408Z</time>
      </trkpt>
      <trkpt lat="46.65943" lon="5.60528">
        <ele>415</ele>
        <time>2021-05-29T13:20:32.407Z</time>
      </trkpt>
      <trkpt lat="46.65943" lon="5.60528">
        <ele>416</ele>
        <time>2021-05-29T13:20:33.407Z</time>
      </trkpt>
      <trkpt lat="46.65943" lon="5.60528">
        <ele>416</ele>
        <time>2021-05-29T13:20:34.407Z</time>
      </trkpt>
      <trkpt lat="46.65943" lon="5.60527">
        <ele>417</ele>
        <time>2021-05-29T13:20:35.408Z</time>
      </trkpt>
      <trkpt lat="46.65943" lon="5.60527">
        <ele>418</ele>
        <time>2021-05-29T13:20:36.408Z</time>
      </trkpt>
      <trkpt lat="46.65943" lon="5.60527">
        <ele>418</ele>
        <time>2021-05-29T13:20:37.408Z</time>
      </trkpt>
      <trkpt lat="46.65942" lon="5.60527">
        <ele>419</ele>
        <time>2021-05-29T13:20:38.408Z</time>
      </trkpt>
      <trkpt lat="46.65942" lon="5.60527">
        <ele>419</ele>
        <time>2021-05-29T13:20:39.407Z</time>
      </trkpt>
      <trkpt lat="46.65941" lon="5.60527">
        <ele>419</ele>
        <time>2021-05-29T13:20:40.408Z</time>
      </trkpt>
      <trkpt lat="46.65941" lon="5.60528">
        <ele>419</ele>
        <time>2021-05-29T13:20:41.408Z</time>
      </trkpt>
      <trkpt lat="46.65941" lon="5.60528">
        <ele>419</ele>
        <time>2021-05-29T13:20:42.408Z</time>
      </trkpt>
      <trkpt lat="46.6594" lon="5.60528">
        <ele>419</ele>
        <time>2021-05-29T13:20:43.408Z</time>
      </trkpt>
      <trkpt lat="46.6594" lon="5.60528">
        <ele>419</ele>
        <time>2021-05-29T13:20:44.407Z</time>
      </trkpt>
      <trkpt lat="46.6594" lon="5.60527">
        <ele>418</ele>
        <time>2021-05-29T13:20:45.407Z</time>
      </trkpt>
      <trkpt lat="46.6594" lon="5.60527">
        <ele>418</ele>
        <time>2021-05-29T13:20:46.408Z</time>
      </trkpt>
      <trkpt lat="46.6594" lon="5.60526">
        <ele>417</ele>
        <time>2021-05-29T13:20:47.408Z</time>
      </trkpt>
      <trkpt lat="46.6594" lon="5.60526">
        <ele>417</ele>
        <time>2021-05-29T13:20:48.408Z</time>
      </trkpt>
      <trkpt lat="46.6594" lon="5.60526">
        <ele>416</ele>
        <time>2021-05-29T13:20:49.407Z</time>
      </trkpt>
      <trkpt lat="46.6594" lon="5.60526">
        <ele>416</ele>
        <time>2021-05-29T13:20:50.407Z</time>
      </trkpt>
      <trkpt lat="46.6594" lon="5.60525">
        <ele>416</ele>
        <time>2021-05-29T13:20:51.408Z</time>
      </trkpt>
      <trkpt lat="46.6594" lon="5.60526">
        <ele>415</ele>
        <time>2021-05-29T13:20:52.407Z</time>
      </trkpt>
      <trkpt lat="46.6594" lon="5.60526">
        <ele>415</ele>
        <time>2021-05-29T13:20:53.407Z</time>
      </trkpt>
      <trkpt lat="46.65939" lon="5.60526">
        <ele>414</ele>
        <time>2021-05-29T13:20:54.407Z</time>
      </trkpt>
      <trkpt lat="46.65939" lon="5.60526">
        <ele>414</ele>
        <time>2021-05-29T13:20:55.408Z</time>
      </trkpt>
      <trkpt lat="46.65939" lon="5.60526">
        <ele>414</ele>
        <time>2021-05-29T13:20:56.408Z</time>
      </trkpt>
      <trkpt lat="46.65938" lon="5.60526">
        <ele>414</ele>
        <time>2021-05-29T13:20:57.407Z</time>
      </trkpt>
      <trkpt lat="46.65938" lon="5.60525">
        <ele>414</ele>
        <time>2021-05-29T13:20:58.408Z</time>
      </trkpt>
      <trkpt lat="46.65938" lon="5.60525">
        <ele>414</ele>
        <time>2021-05-29T13:20:59.408Z</time>
      </trkpt>
      <trkpt lat="46.65937" lon="5.60524">
        <ele>414</ele>
        <time>2021-05-29T13:21:00.407Z</time>
      </trkpt>
      <trkpt lat="46.65938" lon="5.60523">
        <ele>414</ele>
        <time>2021-05-29T13:21:01.408Z</time>
      </trkpt>
      <trkpt lat="46.65938" lon="5.60523">
        <ele>414</ele>
        <time>2021-05-29T13:21:02.408Z</time>
      </trkpt>
      <trkpt lat="46.65939" lon="5.60523">
        <ele>414</ele>
        <time>2021-05-29T13:21:03.408Z</time>
      </trkpt>
      <trkpt lat="46.65939" lon="5.60523">
        <ele>414</ele>
        <time>2021-05-29T13:21:04.407Z</time>
      </trkpt>
      <trkpt lat="46.6592" lon="5.60512">
        <ele>412</ele>
        <time>2021-05-29T13:21:05.408Z</time>
      </trkpt>
      <trkpt lat="46.6592" lon="5.60511">
        <ele>412</ele>
        <time>2021-05-29T13:21:06.408Z</time>
      </trkpt>
      <trkpt lat="46.65919" lon="5.6051">
        <ele>411</ele>
        <time>2021-05-29T13:21:07.407Z</time>
      </trkpt>
      <trkpt lat="46.65918" lon="5.60508">
        <ele>411</ele>
        <time>2021-05-29T13:21:08.407Z</time>
      </trkpt>
      <trkpt lat="46.65917" lon="5.60508">
        <ele>411</ele>
        <time>2021-05-29T13:21:09.407Z</time>
      </trkpt>
      <trkpt lat="46.65916" lon="5.60506">
        <ele>411</ele>
        <time>2021-05-29T13:21:10.407Z</time>
      </trkpt>
      <trkpt lat="46.65915" lon="5.60504">
        <ele>411</ele>
        <time>2021-05-29T13:21:11.408Z</time>
      </trkpt>
      <trkpt lat="46.65914" lon="5.60503">
        <ele>411</ele>
        <time>2021-05-29T13:21:12.407Z</time>
      </trkpt>
      <trkpt lat="46.65913" lon="5.60501">
        <ele>411</ele>
        <time>2021-05-29T13:21:13.407Z</time>
      </trkpt>
      <trkpt lat="46.65912" lon="5.60501">
        <ele>411</ele>
        <time>2021-05-29T13:21:14.408Z</time>
      </trkpt>
      <trkpt lat="46.65911" lon="5.605">
        <ele>412</ele>
        <time>2021-05-29T13:21:15.407Z</time>
      </trkpt>
      <trkpt lat="46.6591" lon="5.60499">
        <ele>412</ele>
        <time>2021-05-29T13:21:16.407Z</time>
      </trkpt>
      <trkpt lat="46.65909" lon="5.60497">
        <ele>413</ele>
        <time>2021-05-29T13:21:17.407Z</time>
      </trkpt>
      <trkpt lat="46.65908" lon="5.60496">
        <ele>413</ele>
        <time>2021-05-29T13:21:18.407Z</time>
      </trkpt>
      <trkpt lat="46.65907" lon="5.60495">
        <ele>413</ele>
        <time>2021-05-29T13:21:19.407Z</time>
      </trkpt>
      <trkpt lat="46.65906" lon="5.60494">
        <ele>413</ele>
        <time>2021-05-29T13:21:20.407Z</time>
      </trkpt>
      <trkpt lat="46.65905" lon="5.60492">
        <ele>413</ele>
        <time>2021-05-29T13:21:21.407Z</time>
      </trkpt>
      <trkpt lat="46.65904" lon="5.60489">
        <ele>414</ele>
        <time>2021-05-29T13:21:22.407Z</time>
      </trkpt>
      <trkpt lat="46.65903" lon="5.60488">
        <ele>414</ele>
        <time>2021-05-29T13:21:23.407Z</time>
      </trkpt>
      <trkpt lat="46.65903" lon="5.60487">
        <ele>414</ele>
        <time>2021-05-29T13:21:24.407Z</time>
      </trkpt>
      <trkpt lat="46.65903" lon="5.60486">
        <ele>414</ele>
        <time>2021-05-29T13:21:25.407Z</time>
      </trkpt>
      <trkpt lat="46.65902" lon="5.60485">
        <ele>414</ele>
        <time>2021-05-29T13:21:26.407Z</time>
      </trkpt>
      <trkpt lat="46.65901" lon="5.60483">
        <ele>414</ele>
        <time>2021-05-29T13:21:27.407Z</time>
      </trkpt>
      <trkpt lat="46.659" lon="5.60482">
        <ele>414</ele>
        <time>2021-05-29T13:21:28.407Z</time>
      </trkpt>
      <trkpt lat="46.65899" lon="5.60481">
        <ele>414</ele>
        <time>2021-05-29T13:21:29.407Z</time>
      </trkpt>
      <trkpt lat="46.65898" lon="5.6048">
        <ele>414</ele>
        <time>2021-05-29T13:21:30.408Z</time>
      </trkpt>
      <trkpt lat="46.65897" lon="5.60479">
        <ele>414</ele>
        <time>2021-05-29T13:21:31.407Z</time>
      </trkpt>
      <trkpt lat="46.65896" lon="5.60478">
        <ele>414</ele>
        <time>2021-05-29T13:21:32.407Z</time>
      </trkpt>
      <trkpt lat="46.65895" lon="5.60476">
        <ele>414</ele>
        <time>2021-05-29T13:21:33.407Z</time>
      </trkpt>
      <trkpt lat="46.65895" lon="5.60475">
        <ele>414</ele>
        <time>2021-05-29T13:21:34.407Z</time>
      </trkpt>
      <trkpt lat="46.65894" lon="5.60473">
        <ele>414</ele>
        <time>2021-05-29T13:21:35.407Z</time>
      </trkpt>
      <trkpt lat="46.65893" lon="5.60472">
        <ele>414</ele>
        <time>2021-05-29T13:21:36.407Z</time>
      </trkpt>
      <trkpt lat="46.65891" lon="5.60471">
        <ele>414</ele>
        <time>2021-05-29T13:21:37.407Z</time>
      </trkpt>
      <trkpt lat="46.6589" lon="5.60469">
        <ele>415</ele>
        <time>2021-05-29T13:21:38.407Z</time>
      </trkpt>
      <trkpt lat="46.65888" lon="5.60468">
        <ele>415</ele>
        <time>2021-05-29T13:21:39.407Z</time>
      </trkpt>
      <trkpt lat="46.65887" lon="5.60468">
        <ele>415</ele>
        <time>2021-05-29T13:21:40.408Z</time>
      </trkpt>
      <trkpt lat="46.65886" lon="5.60467">
        <ele>415</ele>
        <time>2021-05-29T13:21:41.407Z</time>
      </trkpt>
      <trkpt lat="46.65885" lon="5.60465">
        <ele>415</ele>
        <time>2021-05-29T13:21:42.407Z</time>
      </trkpt>
      <trkpt lat="46.65884" lon="5.60464">
        <ele>416</ele>
        <time>2021-05-29T13:21:43.407Z</time>
      </trkpt>
      <trkpt lat="46.65883" lon="5.60462">
        <ele>416</ele>
        <time>2021-05-29T13:21:44.407Z</time>
      </trkpt>
      <trkpt lat="46.65882" lon="5.60461">
        <ele>416</ele>
        <time>2021-05-29T13:21:45.407Z</time>
      </trkpt>
      <trkpt lat="46.65881" lon="5.60459">
        <ele>415</ele>
        <time>2021-05-29T13:21:46.407Z</time>
      </trkpt>
      <trkpt lat="46.6588" lon="5.60457">
        <ele>415</ele>
        <time>2021-05-29T13:21:47.407Z</time>
      </trkpt>
      <trkpt lat="46.65879" lon="5.60456">
        <ele>415</ele>
        <time>2021-05-29T13:21:48.407Z</time>
      </trkpt>
      <trkpt lat="46.65877" lon="5.60455">
        <ele>415</ele>
        <time>2021-05-29T13:21:49.407Z</time>
      </trkpt>
      <trkpt lat="46.65876" lon="5.60454">
        <ele>415</ele>
        <time>2021-05-29T13:21:50.408Z</time>
      </trkpt>
      <trkpt lat="46.65874" lon="5.60453">
        <ele>415</ele>
        <time>2021-05-29T13:21:51.407Z</time>
      </trkpt>
      <trkpt lat="46.65872" lon="5.60452">
        <ele>415</ele>
        <time>2021-05-29T13:21:52.407Z</time>
      </trkpt>
      <trkpt lat="46.6587" lon="5.6045">
        <ele>415</ele>
        <time>2021-05-29T13:21:53.407Z</time>
      </trkpt>
      <trkpt lat="46.65869" lon="5.60449">
        <ele>415</ele>
        <time>2021-05-29T13:21:54.407Z</time>
      </trkpt>
      <trkpt lat="46.65867" lon="5.60449">
        <ele>414</ele>
        <time>2021-05-29T13:21:55.408Z</time>
      </trkpt>
      <trkpt lat="46.65864" lon="5.60448">
        <ele>414</ele>
        <time>2021-05-29T13:21:56.407Z</time>
      </trkpt>
      <trkpt lat="46.65862" lon="5.60446">
        <ele>414</ele>
        <time>2021-05-29T13:21:57.407Z</time>
      </trkpt>
      <trkpt lat="46.65859" lon="5.60445">
        <ele>414</ele>
        <time>2021-05-29T13:21:58.407Z</time>
      </trkpt>
      <trkpt lat="46.65856" lon="5.60443">
        <ele>414</ele>
        <time>2021-05-29T13:21:59.407Z</time>
      </trkpt>
      <trkpt lat="46.65853" lon="5.60441">
        <ele>414</ele>
        <time>2021-05-29T13:22:00.407Z</time>
      </trkpt>
      <trkpt lat="46.65851" lon="5.6044">
        <ele>414</ele>
        <time>2021-05-29T13:22:01.408Z</time>
      </trkpt>
      <trkpt lat="46.65849" lon="5.60438">
        <ele>414</ele>
        <time>2021-05-29T13:22:02.407Z</time>
      </trkpt>
      <trkpt lat="46.65849" lon="5.60438">
        <ele>414</ele>
        <time>2021-05-29T13:22:03.407Z</time>
      </trkpt>
      <trkpt lat="46.65846" lon="5.60434">
        <ele>413</ele>
        <time>2021-05-29T13:22:04.407Z</time>
      </trkpt>
      <trkpt lat="46.65845" lon="5.60432">
        <ele>413</ele>
        <time>2021-05-29T13:22:05.407Z</time>
      </trkpt>
      <trkpt lat="46.65844" lon="5.6043">
        <ele>413</ele>
        <time>2021-05-29T13:22:06.407Z</time>
      </trkpt>
      <trkpt lat="46.65842" lon="5.60428">
        <ele>413</ele>
        <time>2021-05-29T13:22:07.407Z</time>
      </trkpt>
      <trkpt lat="46.65841" lon="5.60425">
        <ele>413</ele>
        <time>2021-05-29T13:22:08.407Z</time>
      </trkpt>
      <trkpt lat="46.65841" lon="5.60423">
        <ele>413</ele>
        <time>2021-05-29T13:22:09.407Z</time>
      </trkpt>
      <trkpt lat="46.6584" lon="5.60421">
        <ele>413</ele>
        <time>2021-05-29T13:22:10.407Z</time>
      </trkpt>
      <trkpt lat="46.65839" lon="5.60419">
        <ele>412</ele>
        <time>2021-05-29T13:22:11.407Z</time>
      </trkpt>
      <trkpt lat="46.65837" lon="5.60417">
        <ele>412</ele>
        <time>2021-05-29T13:22:12.407Z</time>
      </trkpt>
      <trkpt lat="46.65836" lon="5.60416">
        <ele>412</ele>
        <time>2021-05-29T13:22:13.407Z</time>
      </trkpt>
      <trkpt lat="46.65835" lon="5.60414">
        <ele>412</ele>
        <time>2021-05-29T13:22:14.407Z</time>
      </trkpt>
      <trkpt lat="46.65834" lon="5.60411">
        <ele>412</ele>
        <time>2021-05-29T13:22:15.407Z</time>
      </trkpt>
      <trkpt lat="46.65833" lon="5.60409">
        <ele>412</ele>
        <time>2021-05-29T13:22:16.407Z</time>
      </trkpt>
      <trkpt lat="46.65832" lon="5.60407">
        <ele>412</ele>
        <time>2021-05-29T13:22:17.407Z</time>
      </trkpt>
      <trkpt lat="46.65831" lon="5.60404">
        <ele>411</ele>
        <time>2021-05-29T13:22:18.407Z</time>
      </trkpt>
      <trkpt lat="46.65831" lon="5.60402">
        <ele>411</ele>
        <time>2021-05-29T13:22:19.407Z</time>
      </trkpt>
      <trkpt lat="46.6583" lon="5.60399">
        <ele>410</ele>
        <time>2021-05-29T13:22:20.408Z</time>
      </trkpt>
      <trkpt lat="46.65829" lon="5.60397">
        <ele>410</ele>
        <time>2021-05-29T13:22:21.408Z</time>
      </trkpt>
      <trkpt lat="46.65828" lon="5.60394">
        <ele>409</ele>
        <time>2021-05-29T13:22:22.407Z</time>
      </trkpt>
      <trkpt lat="46.65827" lon="5.60391">
        <ele>409</ele>
        <time>2021-05-29T13:22:23.407Z</time>
      </trkpt>
      <trkpt lat="46.65826" lon="5.60388">
        <ele>408</ele>
        <time>2021-05-29T13:22:24.407Z</time>
      </trkpt>
      <trkpt lat="46.65825" lon="5.60385">
        <ele>408</ele>
        <time>2021-05-29T13:22:25.407Z</time>
      </trkpt>
      <trkpt lat="46.65825" lon="5.60382">
        <ele>408</ele>
        <time>2021-05-29T13:22:26.407Z</time>
      </trkpt>
      <trkpt lat="46.65824" lon="5.60379">
        <ele>408</ele>
        <time>2021-05-29T13:22:27.407Z</time>
      </trkpt>
      <trkpt lat="46.65823" lon="5.60376">
        <ele>407</ele>
        <time>2021-05-29T13:22:28.407Z</time>
      </trkpt>
      <trkpt lat="46.65823" lon="5.60373">
        <ele>407</ele>
        <time>2021-05-29T13:22:29.407Z</time>
      </trkpt>
      <trkpt lat="46.65822" lon="5.6037">
        <ele>407</ele>
        <time>2021-05-29T13:22:30.407Z</time>
      </trkpt>
      <trkpt lat="46.65822" lon="5.60367">
        <ele>407</ele>
        <time>2021-05-29T13:22:31.408Z</time>
      </trkpt>
      <trkpt lat="46.65821" lon="5.60364">
        <ele>406</ele>
        <time>2021-05-29T13:22:32.407Z</time>
      </trkpt>
      <trkpt lat="46.65821" lon="5.60361">
        <ele>406</ele>
        <time>2021-05-29T13:22:33.407Z</time>
      </trkpt>
      <trkpt lat="46.6582" lon="5.60357">
        <ele>406</ele>
        <time>2021-05-29T13:22:34.407Z</time>
      </trkpt>
      <trkpt lat="46.6582" lon="5.60353">
        <ele>406</ele>
        <time>2021-05-29T13:22:35.407Z</time>
      </trkpt>
      <trkpt lat="46.65819" lon="5.60351">
        <ele>406</ele>
        <time>2021-05-29T13:22:36.407Z</time>
      </trkpt>
      <trkpt lat="46.65819" lon="5.60348">
        <ele>406</ele>
        <time>2021-05-29T13:22:37.407Z</time>
      </trkpt>
      <trkpt lat="46.65819" lon="5.60344">
        <ele>406</ele>
        <time>2021-05-29T13:22:38.407Z</time>
      </trkpt>
      <trkpt lat="46.65818" lon="5.60342">
        <ele>406</ele>
        <time>2021-05-29T13:22:39.407Z</time>
      </trkpt>
      <trkpt lat="46.65818" lon="5.60338">
        <ele>406</ele>
        <time>2021-05-29T13:22:40.407Z</time>
      </trkpt>
      <trkpt lat="46.65818" lon="5.60335">
        <ele>406</ele>
        <time>2021-05-29T13:22:41.407Z</time>
      </trkpt>
      <trkpt lat="46.65819" lon="5.60333">
        <ele>407</ele>
        <time>2021-05-29T13:22:42.407Z</time>
      </trkpt>
      <trkpt lat="46.6582" lon="5.60331">
        <ele>408</ele>
        <time>2021-05-29T13:22:43.407Z</time>
      </trkpt>
      <trkpt lat="46.65822" lon="5.6033">
        <ele>409</ele>
        <time>2021-05-29T13:22:44.407Z</time>
      </trkpt>
      <trkpt lat="46.65824" lon="5.60329">
        <ele>410</ele>
        <time>2021-05-29T13:22:45.407Z</time>
      </trkpt>
      <trkpt lat="46.65825" lon="5.60329">
        <ele>411</ele>
        <time>2021-05-29T13:22:46.407Z</time>
      </trkpt>
      <trkpt lat="46.65827" lon="5.60328">
        <ele>412</ele>
        <time>2021-05-29T13:22:47.407Z</time>
      </trkpt>
      <trkpt lat="46.65828" lon="5.60327">
        <ele>412</ele>
        <time>2021-05-29T13:22:48.407Z</time>
      </trkpt>
      <trkpt lat="46.6583" lon="5.60326">
        <ele>412</ele>
        <time>2021-05-29T13:22:49.407Z</time>
      </trkpt>
      <trkpt lat="46.65831" lon="5.60324">
        <ele>413</ele>
        <time>2021-05-29T13:22:50.407Z</time>
      </trkpt>
      <trkpt lat="46.65832" lon="5.60323">
        <ele>413</ele>
        <time>2021-05-29T13:22:51.407Z</time>
      </trkpt>
      <trkpt lat="46.65833" lon="5.60322">
        <ele>413</ele>
        <time>2021-05-29T13:22:52.407Z</time>
      </trkpt>
      <trkpt lat="46.65834" lon="5.60322">
        <ele>412</ele>
        <time>2021-05-29T13:22:53.408Z</time>
      </trkpt>
      <trkpt lat="46.65834" lon="5.60322">
        <ele>412</ele>
        <time>2021-05-29T13:22:54.407Z</time>
      </trkpt>
      <trkpt lat="46.65835" lon="5.60323">
        <ele>412</ele>
        <time>2021-05-29T13:22:55.407Z</time>
      </trkpt>
      <trkpt lat="46.65836" lon="5.60322">
        <ele>412</ele>
        <time>2021-05-29T13:22:56.407Z</time>
      </trkpt>
      <trkpt lat="46.65836" lon="5.60322">
        <ele>412</ele>
        <time>2021-05-29T13:22:57.407Z</time>
      </trkpt>
      <trkpt lat="46.65837" lon="5.60322">
        <ele>412</ele>
        <time>2021-05-29T13:22:58.407Z</time>
      </trkpt>
      <trkpt lat="46.65838" lon="5.60321">
        <ele>412</ele>
        <time>2021-05-29T13:22:59.407Z</time>
      </trkpt>
      <trkpt lat="46.65839" lon="5.6032">
        <ele>412</ele>
        <time>2021-05-29T13:23:00.407Z</time>
      </trkpt>
      <trkpt lat="46.65839" lon="5.6032">
        <ele>412</ele>
        <time>2021-05-29T13:23:01.407Z</time>
      </trkpt>
      <trkpt lat="46.65839" lon="5.60318">
        <ele>412</ele>
        <time>2021-05-29T13:23:02.407Z</time>
      </trkpt>
      <trkpt lat="46.65839" lon="5.60318">
        <ele>413</ele>
        <time>2021-05-29T13:23:03.407Z</time>
      </trkpt>
      <trkpt lat="46.65839" lon="5.60318">
        <ele>413</ele>
        <time>2021-05-29T13:23:04.407Z</time>
      </trkpt>
      <trkpt lat="46.6584" lon="5.60317">
        <ele>414</ele>
        <time>2021-05-29T13:23:05.407Z</time>
      </trkpt>
      <trkpt lat="46.6584" lon="5.60316">
        <ele>414</ele>
        <time>2021-05-29T13:23:06.407Z</time>
      </trkpt>
      <trkpt lat="46.65841" lon="5.60315">
        <ele>415</ele>
        <time>2021-05-29T13:23:07.407Z</time>
      </trkpt>
      <trkpt lat="46.65842" lon="5.60314">
        <ele>415</ele>
        <time>2021-05-29T13:23:08.407Z</time>
      </trkpt>
      <trkpt lat="46.65842" lon="5.60314">
        <ele>415</ele>
        <time>2021-05-29T13:23:09.407Z</time>
      </trkpt>
      <trkpt lat="46.65843" lon="5.60315">
        <ele>415</ele>
        <time>2021-05-29T13:23:10.408Z</time>
      </trkpt>
      <trkpt lat="46.65843" lon="5.60315">
        <ele>414</ele>
        <time>2021-05-29T13:23:11.407Z</time>
      </trkpt>
      <trkpt lat="46.65843" lon="5.60314">
        <ele>415</ele>
        <time>2021-05-29T13:23:12.408Z</time>
      </trkpt>
      <trkpt lat="46.65843" lon="5.60314">
        <ele>415</ele>
        <time>2021-05-29T13:23:13.407Z</time>
      </trkpt>
      <trkpt lat="46.65844" lon="5.60313">
        <ele>416</ele>
        <time>2021-05-29T13:23:14.407Z</time>
      </trkpt>
      <trkpt lat="46.65844" lon="5.60312">
        <ele>416</ele>
        <time>2021-05-29T13:23:15.408Z</time>
      </trkpt>
      <trkpt lat="46.65845" lon="5.60311">
        <ele>416</ele>
        <time>2021-05-29T13:23:16.408Z</time>
      </trkpt>
      <trkpt lat="46.65847" lon="5.60309">
        <ele>416</ele>
        <time>2021-05-29T13:23:17.408Z</time>
      </trkpt>
      <trkpt lat="46.65847" lon="5.60308">
        <ele>417</ele>
        <time>2021-05-29T13:23:18.408Z</time>
      </trkpt>
      <trkpt lat="46.65848" lon="5.60307">
        <ele>417</ele>
        <time>2021-05-29T13:23:19.408Z</time>
      </trkpt>
      <trkpt lat="46.65848" lon="5.60306">
        <ele>418</ele>
        <time>2021-05-29T13:23:20.407Z</time>
      </trkpt>
      <trkpt lat="46.65849" lon="5.60305">
        <ele>418</ele>
        <time>2021-05-29T13:23:21.408Z</time>
      </trkpt>
      <trkpt lat="46.65849" lon="5.60303">
        <ele>419</ele>
        <time>2021-05-29T13:23:22.407Z</time>
      </trkpt>
      <trkpt lat="46.6585" lon="5.60302">
        <ele>419</ele>
        <time>2021-05-29T13:23:23.407Z</time>
      </trkpt>
      <trkpt lat="46.6585" lon="5.60301">
        <ele>419</ele>
        <time>2021-05-29T13:23:24.407Z</time>
      </trkpt>
      <trkpt lat="46.6585" lon="5.60299">
        <ele>419</ele>
        <time>2021-05-29T13:23:25.407Z</time>
      </trkpt>
      <trkpt lat="46.6585" lon="5.60297">
        <ele>419</ele>
        <time>2021-05-29T13:23:26.407Z</time>
      </trkpt>
      <trkpt lat="46.65851" lon="5.60295">
        <ele>419</ele>
        <time>2021-05-29T13:23:27.408Z</time>
      </trkpt>
      <trkpt lat="46.65851" lon="5.60293">
        <ele>419</ele>
        <time>2021-05-29T13:23:28.407Z</time>
      </trkpt>
      <trkpt lat="46.65851" lon="5.60291">
        <ele>419</ele>
        <time>2021-05-29T13:23:29.408Z</time>
      </trkpt>
      <trkpt lat="46.6585" lon="5.60289">
        <ele>420</ele>
        <time>2021-05-29T13:23:30.407Z</time>
      </trkpt>
      <trkpt lat="46.6585" lon="5.60287">
        <ele>420</ele>
        <time>2021-05-29T13:23:31.407Z</time>
      </trkpt>
      <trkpt lat="46.65849" lon="5.60286">
        <ele>420</ele>
        <time>2021-05-29T13:23:32.407Z</time>
      </trkpt>
      <trkpt lat="46.65849" lon="5.60284">
        <ele>421</ele>
        <time>2021-05-29T13:23:33.407Z</time>
      </trkpt>
      <trkpt lat="46.65849" lon="5.60282">
        <ele>421</ele>
        <time>2021-05-29T13:23:34.408Z</time>
      </trkpt>
      <trkpt lat="46.65849" lon="5.6028">
        <ele>421</ele>
        <time>2021-05-29T13:23:35.407Z</time>
      </trkpt>
      <trkpt lat="46.65849" lon="5.60278">
        <ele>422</ele>
        <time>2021-05-29T13:23:36.407Z</time>
      </trkpt>
      <trkpt lat="46.6585" lon="5.60276">
        <ele>422</ele>
        <time>2021-05-29T13:23:37.407Z</time>
      </trkpt>
      <trkpt lat="46.6585" lon="5.60275">
        <ele>422</ele>
        <time>2021-05-29T13:23:38.407Z</time>
      </trkpt>
      <trkpt lat="46.6585" lon="5.60273">
        <ele>422</ele>
        <time>2021-05-29T13:23:39.407Z</time>
      </trkpt>
      <trkpt lat="46.6585" lon="5.60271">
        <ele>422</ele>
        <time>2021-05-29T13:23:40.407Z</time>
      </trkpt>
      <trkpt lat="46.6585" lon="5.60269">
        <ele>423</ele>
        <time>2021-05-29T13:23:41.408Z</time>
      </trkpt>
      <trkpt lat="46.6585" lon="5.60267">
        <ele>423</ele>
        <time>2021-05-29T13:23:42.408Z</time>
      </trkpt>
      <trkpt lat="46.6585" lon="5.60265">
        <ele>423</ele>
        <time>2021-05-29T13:23:43.408Z</time>
      </trkpt>
      <trkpt lat="46.6585" lon="5.60262">
        <ele>424</ele>
        <time>2021-05-29T13:23:44.407Z</time>
      </trkpt>
      <trkpt lat="46.6585" lon="5.60261">
        <ele>424</ele>
        <time>2021-05-29T13:23:45.407Z</time>
      </trkpt>
      <trkpt lat="46.6585" lon="5.6026">
        <ele>423</ele>
        <time>2021-05-29T13:23:46.408Z</time>
      </trkpt>
      <trkpt lat="46.6585" lon="5.60258">
        <ele>423</ele>
        <time>2021-05-29T13:23:47.407Z</time>
      </trkpt>
      <trkpt lat="46.6585" lon="5.60256">
        <ele>423</ele>
        <time>2021-05-29T13:23:48.407Z</time>
      </trkpt>
      <trkpt lat="46.6585" lon="5.60255">
        <ele>423</ele>
        <time>2021-05-29T13:23:49.407Z</time>
      </trkpt>
      <trkpt lat="46.6585" lon="5.60253">
        <ele>423</ele>
        <time>2021-05-29T13:23:50.407Z</time>
      </trkpt>
      <trkpt lat="46.6585" lon="5.60252">
        <ele>423</ele>
        <time>2021-05-29T13:23:51.407Z</time>
      </trkpt>
      <trkpt lat="46.6585" lon="5.6025">
        <ele>423</ele>
        <time>2021-05-29T13:23:52.407Z</time>
      </trkpt>
      <trkpt lat="46.6585" lon="5.60249">
        <ele>423</ele>
        <time>2021-05-29T13:23:53.408Z</time>
      </trkpt>
      <trkpt lat="46.65851" lon="5.60248">
        <ele>423</ele>
        <time>2021-05-29T13:23:54.407Z</time>
      </trkpt>
      <trkpt lat="46.65851" lon="5.60247">
        <ele>423</ele>
        <time>2021-05-29T13:23:55.408Z</time>
      </trkpt>
      <trkpt lat="46.65851" lon="5.60246">
        <ele>423</ele>
        <time>2021-05-29T13:23:56.408Z</time>
      </trkpt>
      <trkpt lat="46.65851" lon="5.60245">
        <ele>423</ele>
        <time>2021-05-29T13:23:57.408Z</time>
      </trkpt>
      <trkpt lat="46.65852" lon="5.60244">
        <ele>423</ele>
        <time>2021-05-29T13:23:58.408Z</time>
      </trkpt>
      <trkpt lat="46.65853" lon="5.60243">
        <ele>423</ele>
        <time>2021-05-29T13:23:59.408Z</time>
      </trkpt>
      <trkpt lat="46.65853" lon="5.60242">
        <ele>423</ele>
        <time>2021-05-29T13:24:00.408Z</time>
      </trkpt>
      <trkpt lat="46.65853" lon="5.6024">
        <ele>423</ele>
        <time>2021-05-29T13:24:01.407Z</time>
      </trkpt>
      <trkpt lat="46.65854" lon="5.60238">
        <ele>423</ele>
        <time>2021-05-29T13:24:02.408Z</time>
      </trkpt>
      <trkpt lat="46.65855" lon="5.60237">
        <ele>424</ele>
        <time>2021-05-29T13:24:03.408Z</time>
      </trkpt>
      <trkpt lat="46.65855" lon="5.60236">
        <ele>424</ele>
        <time>2021-05-29T13:24:04.408Z</time>
      </trkpt>
      <trkpt lat="46.65856" lon="5.60235">
        <ele>425</ele>
        <time>2021-05-29T13:24:05.408Z</time>
      </trkpt>
      <trkpt lat="46.65857" lon="5.60234">
        <ele>425</ele>
        <time>2021-05-29T13:24:06.408Z</time>
      </trkpt>
      <trkpt lat="46.65857" lon="5.60233">
        <ele>426</ele>
        <time>2021-05-29T13:24:07.408Z</time>
      </trkpt>
      <trkpt lat="46.65858" lon="5.60232">
        <ele>426</ele>
        <time>2021-05-29T13:24:08.408Z</time>
      </trkpt>
      <trkpt lat="46.65859" lon="5.6023">
        <ele>427</ele>
        <time>2021-05-29T13:24:09.408Z</time>
      </trkpt>
      <trkpt lat="46.65859" lon="5.60229">
        <ele>427</ele>
        <time>2021-05-29T13:24:10.408Z</time>
      </trkpt>
      <trkpt lat="46.6586" lon="5.60228">
        <ele>428</ele>
        <time>2021-05-29T13:24:11.407Z</time>
      </trkpt>
      <trkpt lat="46.65861" lon="5.60227">
        <ele>428</ele>
        <time>2021-05-29T13:24:12.407Z</time>
      </trkpt>
      <trkpt lat="46.65861" lon="5.60225">
        <ele>429</ele>
        <time>2021-05-29T13:24:13.407Z</time>
      </trkpt>
      <trkpt lat="46.65862" lon="5.60225">
        <ele>429</ele>
        <time>2021-05-29T13:24:14.408Z</time>
      </trkpt>
      <trkpt lat="46.65863" lon="5.60223">
        <ele>429</ele>
        <time>2021-05-29T13:24:15.407Z</time>
      </trkpt>
      <trkpt lat="46.65864" lon="5.60222">
        <ele>430</ele>
        <time>2021-05-29T13:24:16.407Z</time>
      </trkpt>
      <trkpt lat="46.65864" lon="5.6022">
        <ele>430</ele>
        <time>2021-05-29T13:24:17.408Z</time>
      </trkpt>
      <trkpt lat="46.65864" lon="5.60218">
        <ele>430</ele>
        <time>2021-05-29T13:24:18.407Z</time>
      </trkpt>
      <trkpt lat="46.65865" lon="5.60216">
        <ele>429</ele>
        <time>2021-05-29T13:24:19.408Z</time>
      </trkpt>
      <trkpt lat="46.65866" lon="5.60215">
        <ele>429</ele>
        <time>2021-05-29T13:24:20.407Z</time>
      </trkpt>
      <trkpt lat="46.65867" lon="5.60213">
        <ele>430</ele>
        <time>2021-05-29T13:24:21.408Z</time>
      </trkpt>
      <trkpt lat="46.65868" lon="5.60212">
        <ele>430</ele>
        <time>2021-05-29T13:24:22.407Z</time>
      </trkpt>
      <trkpt lat="46.65869" lon="5.60211">
        <ele>431</ele>
        <time>2021-05-29T13:24:23.407Z</time>
      </trkpt>
      <trkpt lat="46.6587" lon="5.6021">
        <ele>431</ele>
        <time>2021-05-29T13:24:24.408Z</time>
      </trkpt>
      <trkpt lat="46.65871" lon="5.60209">
        <ele>432</ele>
        <time>2021-05-29T13:24:25.407Z</time>
      </trkpt>
      <trkpt lat="46.65873" lon="5.60208">
        <ele>432</ele>
        <time>2021-05-29T13:24:26.408Z</time>
      </trkpt>
      <trkpt lat="46.65874" lon="5.60207">
        <ele>433</ele>
        <time>2021-05-29T13:24:27.407Z</time>
      </trkpt>
      <trkpt lat="46.65875" lon="5.60207">
        <ele>434</ele>
        <time>2021-05-29T13:24:28.408Z</time>
      </trkpt>
      <trkpt lat="46.65876" lon="5.60206">
        <ele>435</ele>
        <time>2021-05-29T13:24:29.407Z</time>
      </trkpt>
      <trkpt lat="46.65877" lon="5.60206">
        <ele>435</ele>
        <time>2021-05-29T13:24:30.407Z</time>
      </trkpt>
      <trkpt lat="46.65878" lon="5.60205">
        <ele>436</ele>
        <time>2021-05-29T13:24:31.408Z</time>
      </trkpt>
      <trkpt lat="46.65879" lon="5.60204">
        <ele>437</ele>
        <time>2021-05-29T13:24:32.408Z</time>
      </trkpt>
      <trkpt lat="46.6588" lon="5.60203">
        <ele>437</ele>
        <time>2021-05-29T13:24:33.408Z</time>
      </trkpt>
      <trkpt lat="46.65881" lon="5.60202">
        <ele>438</ele>
        <time>2021-05-29T13:24:34.407Z</time>
      </trkpt>
      <trkpt lat="46.65882" lon="5.602">
        <ele>439</ele>
        <time>2021-05-29T13:24:35.408Z</time>
      </trkpt>
      <trkpt lat="46.65884" lon="5.60197">
        <ele>439</ele>
        <time>2021-05-29T13:24:36.407Z</time>
      </trkpt>
      <trkpt lat="46.65886" lon="5.60195">
        <ele>440</ele>
        <time>2021-05-29T13:24:37.407Z</time>
      </trkpt>
      <trkpt lat="46.65887" lon="5.60194">
        <ele>441</ele>
        <time>2021-05-29T13:24:38.407Z</time>
      </trkpt>
      <trkpt lat="46.65888" lon="5.60193">
        <ele>442</ele>
        <time>2021-05-29T13:24:39.407Z</time>
      </trkpt>
      <trkpt lat="46.65889" lon="5.60192">
        <ele>443</ele>
        <time>2021-05-29T13:24:40.407Z</time>
      </trkpt>
      <trkpt lat="46.65891" lon="5.60191">
        <ele>444</ele>
        <time>2021-05-29T13:24:41.408Z</time>
      </trkpt>
      <trkpt lat="46.65891" lon="5.6019">
        <ele>445</ele>
        <time>2021-05-29T13:24:42.407Z</time>
      </trkpt>
      <trkpt lat="46.65892" lon="5.60189">
        <ele>445</ele>
        <time>2021-05-29T13:24:43.407Z</time>
      </trkpt>
      <trkpt lat="46.65893" lon="5.60187">
        <ele>445</ele>
        <time>2021-05-29T13:24:44.408Z</time>
      </trkpt>
      <trkpt lat="46.65893" lon="5.60186">
        <ele>446</ele>
        <time>2021-05-29T13:24:45.407Z</time>
      </trkpt>
      <trkpt lat="46.65894" lon="5.60182">
        <ele>446</ele>
        <time>2021-05-29T13:24:46.408Z</time>
      </trkpt>
      <trkpt lat="46.65895" lon="5.60179">
        <ele>446</ele>
        <time>2021-05-29T13:24:47.407Z</time>
      </trkpt>
      <trkpt lat="46.65896" lon="5.60177">
        <ele>447</ele>
        <time>2021-05-29T13:24:48.407Z</time>
      </trkpt>
      <trkpt lat="46.65896" lon="5.60176">
        <ele>447</ele>
        <time>2021-05-29T13:24:49.408Z</time>
      </trkpt>
      <trkpt lat="46.65897" lon="5.60173">
        <ele>448</ele>
        <time>2021-05-29T13:24:50.408Z</time>
      </trkpt>
      <trkpt lat="46.65897" lon="5.60171">
        <ele>448</ele>
        <time>2021-05-29T13:24:51.407Z</time>
      </trkpt>
      <trkpt lat="46.65898" lon="5.6017">
        <ele>448</ele>
        <time>2021-05-29T13:24:52.408Z</time>
      </trkpt>
      <trkpt lat="46.65899" lon="5.60168">
        <ele>448</ele>
        <time>2021-05-29T13:24:53.408Z</time>
      </trkpt>
      <trkpt lat="46.659" lon="5.60167">
        <ele>448</ele>
        <time>2021-05-29T13:24:54.407Z</time>
      </trkpt>
      <trkpt lat="46.65901" lon="5.60166">
        <ele>448</ele>
        <time>2021-05-29T13:24:55.408Z</time>
      </trkpt>
      <trkpt lat="46.65902" lon="5.60165">
        <ele>449</ele>
        <time>2021-05-29T13:24:56.407Z</time>
      </trkpt>
      <trkpt lat="46.65902" lon="5.60165">
        <ele>449</ele>
        <time>2021-05-29T13:24:57.408Z</time>
      </trkpt>
      <trkpt lat="46.65903" lon="5.60164">
        <ele>449</ele>
        <time>2021-05-29T13:24:58.408Z</time>
      </trkpt>
      <trkpt lat="46.65904" lon="5.60163">
        <ele>450</ele>
        <time>2021-05-29T13:24:59.407Z</time>
      </trkpt>
      <trkpt lat="46.65904" lon="5.60163">
        <ele>450</ele>
        <time>2021-05-29T13:25:00.407Z</time>
      </trkpt>
      <trkpt lat="46.65905" lon="5.60162">
        <ele>450</ele>
        <time>2021-05-29T13:25:01.407Z</time>
      </trkpt>
      <trkpt lat="46.65905" lon="5.60161">
        <ele>450</ele>
        <time>2021-05-29T13:25:02.407Z</time>
      </trkpt>
      <trkpt lat="46.65906" lon="5.60161">
        <ele>450</ele>
        <time>2021-05-29T13:25:03.407Z</time>
      </trkpt>
      <trkpt lat="46.65906" lon="5.60161">
        <ele>451</ele>
        <time>2021-05-29T13:25:04.407Z</time>
      </trkpt>
      <trkpt lat="46.65907" lon="5.6016">
        <ele>451</ele>
        <time>2021-05-29T13:25:05.407Z</time>
      </trkpt>
      <trkpt lat="46.65908" lon="5.60159">
        <ele>451</ele>
        <time>2021-05-29T13:25:06.407Z</time>
      </trkpt>
      <trkpt lat="46.65909" lon="5.60158">
        <ele>451</ele>
        <time>2021-05-29T13:25:07.408Z</time>
      </trkpt>
      <trkpt lat="46.65911" lon="5.60158">
        <ele>451</ele>
        <time>2021-05-29T13:25:08.407Z</time>
      </trkpt>
      <trkpt lat="46.65912" lon="5.60157">
        <ele>451</ele>
        <time>2021-05-29T13:25:09.408Z</time>
      </trkpt>
      <trkpt lat="46.65913" lon="5.60156">
        <ele>451</ele>
        <time>2021-05-29T13:25:10.407Z</time>
      </trkpt>
      <trkpt lat="46.65914" lon="5.60156">
        <ele>451</ele>
        <time>2021-05-29T13:25:11.408Z</time>
      </trkpt>
      <trkpt lat="46.65915" lon="5.60155">
        <ele>451</ele>
        <time>2021-05-29T13:25:12.407Z</time>
      </trkpt>
      <trkpt lat="46.65916" lon="5.60154">
        <ele>451</ele>
        <time>2021-05-29T13:25:13.407Z</time>
      </trkpt>
      <trkpt lat="46.65916" lon="5.60153">
        <ele>452</ele>
        <time>2021-05-29T13:25:14.407Z</time>
      </trkpt>
      <trkpt lat="46.65917" lon="5.60152">
        <ele>452</ele>
        <time>2021-05-29T13:25:15.407Z</time>
      </trkpt>
      <trkpt lat="46.65918" lon="5.60151">
        <ele>452</ele>
        <time>2021-05-29T13:25:16.407Z</time>
      </trkpt>
      <trkpt lat="46.65919" lon="5.60151">
        <ele>452</ele>
        <time>2021-05-29T13:25:17.408Z</time>
      </trkpt>
      <trkpt lat="46.65921" lon="5.6015">
        <ele>452</ele>
        <time>2021-05-29T13:25:18.407Z</time>
      </trkpt>
      <trkpt lat="46.65922" lon="5.60149">
        <ele>453</ele>
        <time>2021-05-29T13:25:19.407Z</time>
      </trkpt>
      <trkpt lat="46.65923" lon="5.60149">
        <ele>453</ele>
        <time>2021-05-29T13:25:20.407Z</time>
      </trkpt>
      <trkpt lat="46.65924" lon="5.60149">
        <ele>453</ele>
        <time>2021-05-29T13:25:21.407Z</time>
      </trkpt>
      <trkpt lat="46.65924" lon="5.6015">
        <ele>453</ele>
        <time>2021-05-29T13:25:22.407Z</time>
      </trkpt>
      <trkpt lat="46.65925" lon="5.60151">
        <ele>453</ele>
        <time>2021-05-29T13:25:23.408Z</time>
      </trkpt>
      <trkpt lat="46.65926" lon="5.60152">
        <ele>452</ele>
        <time>2021-05-29T13:25:24.407Z</time>
      </trkpt>
      <trkpt lat="46.65927" lon="5.60153">
        <ele>453</ele>
        <time>2021-05-29T13:25:25.407Z</time>
      </trkpt>
      <trkpt lat="46.65928" lon="5.60153">
        <ele>453</ele>
        <time>2021-05-29T13:25:26.408Z</time>
      </trkpt>
      <trkpt lat="46.65928" lon="5.60153">
        <ele>453</ele>
        <time>2021-05-29T13:25:27.408Z</time>
      </trkpt>
      <trkpt lat="46.65929" lon="5.60153">
        <ele>454</ele>
        <time>2021-05-29T13:25:28.407Z</time>
      </trkpt>
      <trkpt lat="46.6593" lon="5.60152">
        <ele>454</ele>
        <time>2021-05-29T13:25:29.407Z</time>
      </trkpt>
      <trkpt lat="46.6593" lon="5.60152">
        <ele>454</ele>
        <time>2021-05-29T13:25:30.407Z</time>
      </trkpt>
      <trkpt lat="46.65931" lon="5.60152">
        <ele>454</ele>
        <time>2021-05-29T13:25:31.407Z</time>
      </trkpt>
      <trkpt lat="46.65932" lon="5.60151">
        <ele>454</ele>
        <time>2021-05-29T13:25:32.407Z</time>
      </trkpt>
      <trkpt lat="46.65933" lon="5.60151">
        <ele>454</ele>
        <time>2021-05-29T13:25:33.407Z</time>
      </trkpt>
      <trkpt lat="46.65933" lon="5.60152">
        <ele>454</ele>
        <time>2021-05-29T13:25:34.408Z</time>
      </trkpt>
      <trkpt lat="46.65934" lon="5.60153">
        <ele>455</ele>
        <time>2021-05-29T13:25:35.408Z</time>
      </trkpt>
      <trkpt lat="46.65935" lon="5.60153">
        <ele>455</ele>
        <time>2021-05-29T13:25:36.408Z</time>
      </trkpt>
      <trkpt lat="46.65936" lon="5.60154">
        <ele>455</ele>
        <time>2021-05-29T13:25:37.408Z</time>
      </trkpt>
      <trkpt lat="46.65936" lon="5.60154">
        <ele>455</ele>
        <time>2021-05-29T13:25:38.408Z</time>
      </trkpt>
      <trkpt lat="46.65936" lon="5.60155">
        <ele>455</ele>
        <time>2021-05-29T13:25:39.407Z</time>
      </trkpt>
      <trkpt lat="46.65937" lon="5.60157">
        <ele>455</ele>
        <time>2021-05-29T13:25:40.408Z</time>
      </trkpt>
      <trkpt lat="46.65937" lon="5.60159">
        <ele>455</ele>
        <time>2021-05-29T13:25:41.407Z</time>
      </trkpt>
      <trkpt lat="46.65938" lon="5.6016">
        <ele>455</ele>
        <time>2021-05-29T13:25:42.407Z</time>
      </trkpt>
      <trkpt lat="46.65938" lon="5.60161">
        <ele>456</ele>
        <time>2021-05-29T13:25:43.407Z</time>
      </trkpt>
      <trkpt lat="46.65938" lon="5.60163">
        <ele>456</ele>
        <time>2021-05-29T13:25:44.408Z</time>
      </trkpt>
      <trkpt lat="46.65938" lon="5.60165">
        <ele>456</ele>
        <time>2021-05-29T13:25:45.407Z</time>
      </trkpt>
      <trkpt lat="46.65938" lon="5.60166">
        <ele>456</ele>
        <time>2021-05-29T13:25:46.407Z</time>
      </trkpt>
      <trkpt lat="46.65937" lon="5.60167">
        <ele>456</ele>
        <time>2021-05-29T13:25:47.407Z</time>
      </trkpt>
      <trkpt lat="46.65937" lon="5.60169">
        <ele>456</ele>
        <time>2021-05-29T13:25:48.408Z</time>
      </trkpt>
      <trkpt lat="46.65936" lon="5.60171">
        <ele>456</ele>
        <time>2021-05-29T13:25:49.407Z</time>
      </trkpt>
      <trkpt lat="46.65937" lon="5.60172">
        <ele>457</ele>
        <time>2021-05-29T13:25:50.407Z</time>
      </trkpt>
      <trkpt lat="46.65937" lon="5.60174">
        <ele>457</ele>
        <time>2021-05-29T13:25:51.408Z</time>
      </trkpt>
      <trkpt lat="46.65937" lon="5.60176">
        <ele>458</ele>
        <time>2021-05-29T13:25:52.407Z</time>
      </trkpt>
      <trkpt lat="46.65937" lon="5.60177">
        <ele>458</ele>
        <time>2021-05-29T13:25:53.407Z</time>
      </trkpt>
      <trkpt lat="46.65937" lon="5.60177">
        <ele>458</ele>
        <time>2021-05-29T13:25:54.408Z</time>
      </trkpt>
      <trkpt lat="46.65937" lon="5.60178">
        <ele>458</ele>
        <time>2021-05-29T13:25:55.408Z</time>
      </trkpt>
      <trkpt lat="46.65937" lon="5.60178">
        <ele>458</ele>
        <time>2021-05-29T13:25:56.408Z</time>
      </trkpt>
      <trkpt lat="46.65937" lon="5.60179">
        <ele>458</ele>
        <time>2021-05-29T13:25:57.407Z</time>
      </trkpt>
      <trkpt lat="46.65937" lon="5.6018">
        <ele>457</ele>
        <time>2021-05-29T13:25:58.408Z</time>
      </trkpt>
      <trkpt lat="46.65937" lon="5.60181">
        <ele>457</ele>
        <time>2021-05-29T13:25:59.407Z</time>
      </trkpt>
      <trkpt lat="46.65937" lon="5.60182">
        <ele>457</ele>
        <time>2021-05-29T13:26:00.408Z</time>
      </trkpt>
      <trkpt lat="46.65937" lon="5.60183">
        <ele>457</ele>
        <time>2021-05-29T13:26:01.407Z</time>
      </trkpt>
      <trkpt lat="46.65938" lon="5.60184">
        <ele>457</ele>
        <time>2021-05-29T13:26:02.408Z</time>
      </trkpt>
      <trkpt lat="46.65938" lon="5.60185">
        <ele>457</ele>
        <time>2021-05-29T13:26:03.407Z</time>
      </trkpt>
      <trkpt lat="46.65938" lon="5.60185">
        <ele>457</ele>
        <time>2021-05-29T13:26:04.407Z</time>
      </trkpt>
      <trkpt lat="46.65938" lon="5.60186">
        <ele>457</ele>
        <time>2021-05-29T13:26:05.407Z</time>
      </trkpt>
      <trkpt lat="46.65938" lon="5.60188">
        <ele>458</ele>
        <time>2021-05-29T13:26:06.407Z</time>
      </trkpt>
      <trkpt lat="46.65938" lon="5.60188">
        <ele>458</ele>
        <time>2021-05-29T13:26:07.408Z</time>
      </trkpt>
      <trkpt lat="46.65938" lon="5.60189">
        <ele>459</ele>
        <time>2021-05-29T13:26:08.407Z</time>
      </trkpt>
      <trkpt lat="46.65938" lon="5.6019">
        <ele>459</ele>
        <time>2021-05-29T13:26:09.407Z</time>
      </trkpt>
      <trkpt lat="46.65938" lon="5.60191">
        <ele>460</ele>
        <time>2021-05-29T13:26:10.407Z</time>
      </trkpt>
      <trkpt lat="46.65939" lon="5.60193">
        <ele>460</ele>
        <time>2021-05-29T13:26:11.408Z</time>
      </trkpt>
      <trkpt lat="46.65939" lon="5.60194">
        <ele>460</ele>
        <time>2021-05-29T13:26:12.407Z</time>
      </trkpt>
      <trkpt lat="46.65939" lon="5.60195">
        <ele>461</ele>
        <time>2021-05-29T13:26:13.408Z</time>
      </trkpt>
      <trkpt lat="46.65939" lon="5.60195">
        <ele>461</ele>
        <time>2021-05-29T13:26:14.407Z</time>
      </trkpt>
      <trkpt lat="46.65939" lon="5.60194">
        <ele>461</ele>
        <time>2021-05-29T13:26:15.408Z</time>
      </trkpt>
      <trkpt lat="46.65939" lon="5.60193">
        <ele>461</ele>
        <time>2021-05-29T13:26:16.407Z</time>
      </trkpt>
      <trkpt lat="46.65939" lon="5.60192">
        <ele>462</ele>
        <time>2021-05-29T13:26:17.407Z</time>
      </trkpt>
      <trkpt lat="46.65939" lon="5.60191">
        <ele>462</ele>
        <time>2021-05-29T13:26:18.407Z</time>
      </trkpt>
      <trkpt lat="46.6594" lon="5.6019">
        <ele>462</ele>
        <time>2021-05-29T13:26:19.408Z</time>
      </trkpt>
      <trkpt lat="46.6594" lon="5.60189">
        <ele>462</ele>
        <time>2021-05-29T13:26:20.407Z</time>
      </trkpt>
      <trkpt lat="46.65941" lon="5.60188">
        <ele>462</ele>
        <time>2021-05-29T13:26:21.407Z</time>
      </trkpt>
      <trkpt lat="46.65942" lon="5.60187">
        <ele>462</ele>
        <time>2021-05-29T13:26:22.407Z</time>
      </trkpt>
      <trkpt lat="46.65942" lon="5.60187">
        <ele>461</ele>
        <time>2021-05-29T13:26:23.407Z</time>
      </trkpt>
      <trkpt lat="46.65943" lon="5.60185">
        <ele>461</ele>
        <time>2021-05-29T13:26:24.407Z</time>
      </trkpt>
      <trkpt lat="46.65943" lon="5.60184">
        <ele>461</ele>
        <time>2021-05-29T13:26:25.407Z</time>
      </trkpt>
      <trkpt lat="46.65944" lon="5.60182">
        <ele>461</ele>
        <time>2021-05-29T13:26:26.407Z</time>
      </trkpt>
      <trkpt lat="46.65944" lon="5.60181">
        <ele>461</ele>
        <time>2021-05-29T13:26:27.408Z</time>
      </trkpt>
      <trkpt lat="46.65945" lon="5.60179">
        <ele>461</ele>
        <time>2021-05-29T13:26:28.408Z</time>
      </trkpt>
      <trkpt lat="46.65946" lon="5.60178">
        <ele>461</ele>
        <time>2021-05-29T13:26:29.408Z</time>
      </trkpt>
      <trkpt lat="46.65946" lon="5.60177">
        <ele>461</ele>
        <time>2021-05-29T13:26:30.407Z</time>
      </trkpt>
      <trkpt lat="46.65947" lon="5.60176">
        <ele>461</ele>
        <time>2021-05-29T13:26:31.408Z</time>
      </trkpt>
      <trkpt lat="46.65948" lon="5.60174">
        <ele>461</ele>
        <time>2021-05-29T13:26:32.408Z</time>
      </trkpt>
      <trkpt lat="46.65948" lon="5.60173">
        <ele>462</ele>
        <time>2021-05-29T13:26:33.408Z</time>
      </trkpt>
      <trkpt lat="46.65949" lon="5.60172">
        <ele>462</ele>
        <time>2021-05-29T13:26:34.407Z</time>
      </trkpt>
      <trkpt lat="46.6595" lon="5.60171">
        <ele>463</ele>
        <time>2021-05-29T13:26:35.408Z</time>
      </trkpt>
      <trkpt lat="46.6595" lon="5.60169">
        <ele>464</ele>
        <time>2021-05-29T13:26:36.408Z</time>
      </trkpt>
      <trkpt lat="46.65951" lon="5.60169">
        <ele>465</ele>
        <time>2021-05-29T13:26:37.408Z</time>
      </trkpt>
      <trkpt lat="46.65952" lon="5.60168">
        <ele>466</ele>
        <time>2021-05-29T13:26:38.407Z</time>
      </trkpt>
      <trkpt lat="46.65953" lon="5.60167">
        <ele>467</ele>
        <time>2021-05-29T13:26:39.408Z</time>
      </trkpt>
      <trkpt lat="46.65954" lon="5.60166">
        <ele>467</ele>
        <time>2021-05-29T13:26:40.408Z</time>
      </trkpt>
      <trkpt lat="46.65956" lon="5.60165">
        <ele>468</ele>
        <time>2021-05-29T13:26:41.407Z</time>
      </trkpt>
      <trkpt lat="46.65957" lon="5.60165">
        <ele>468</ele>
        <time>2021-05-29T13:26:42.407Z</time>
      </trkpt>
      <trkpt lat="46.65958" lon="5.60165">
        <ele>469</ele>
        <time>2021-05-29T13:26:43.408Z</time>
      </trkpt>
      <trkpt lat="46.65959" lon="5.60164">
        <ele>470</ele>
        <time>2021-05-29T13:26:44.408Z</time>
      </trkpt>
      <trkpt lat="46.6596" lon="5.60162">
        <ele>470</ele>
        <time>2021-05-29T13:26:45.408Z</time>
      </trkpt>
      <trkpt lat="46.65961" lon="5.60159">
        <ele>471</ele>
        <time>2021-05-29T13:26:46.407Z</time>
      </trkpt>
      <trkpt lat="46.65962" lon="5.60158">
        <ele>472</ele>
        <time>2021-05-29T13:26:47.408Z</time>
      </trkpt>
      <trkpt lat="46.65962" lon="5.60157">
        <ele>473</ele>
        <time>2021-05-29T13:26:48.407Z</time>
      </trkpt>
      <trkpt lat="46.65963" lon="5.60157">
        <ele>474</ele>
        <time>2021-05-29T13:26:49.408Z</time>
      </trkpt>
      <trkpt lat="46.65964" lon="5.60155">
        <ele>475</ele>
        <time>2021-05-29T13:26:50.407Z</time>
      </trkpt>
      <trkpt lat="46.65965" lon="5.60154">
        <ele>475</ele>
        <time>2021-05-29T13:26:51.408Z</time>
      </trkpt>
      <trkpt lat="46.65966" lon="5.60153">
        <ele>476</ele>
        <time>2021-05-29T13:26:52.408Z</time>
      </trkpt>
      <trkpt lat="46.65968" lon="5.60153">
        <ele>476</ele>
        <time>2021-05-29T13:26:53.407Z</time>
      </trkpt>
      <trkpt lat="46.65969" lon="5.60152">
        <ele>477</ele>
        <time>2021-05-29T13:26:54.407Z</time>
      </trkpt>
      <trkpt lat="46.6597" lon="5.60152">
        <ele>477</ele>
        <time>2021-05-29T13:26:55.408Z</time>
      </trkpt>
      <trkpt lat="46.65971" lon="5.60151">
        <ele>477</ele>
        <time>2021-05-29T13:26:56.408Z</time>
      </trkpt>
      <trkpt lat="46.65972" lon="5.6015">
        <ele>477</ele>
        <time>2021-05-29T13:26:57.408Z</time>
      </trkpt>
      <trkpt lat="46.65973" lon="5.60149">
        <ele>477</ele>
        <time>2021-05-29T13:26:58.408Z</time>
      </trkpt>
      <trkpt lat="46.65974" lon="5.60147">
        <ele>477</ele>
        <time>2021-05-29T13:26:59.407Z</time>
      </trkpt>
      <trkpt lat="46.65975" lon="5.60146">
        <ele>478</ele>
        <time>2021-05-29T13:27:00.408Z</time>
      </trkpt>
      <trkpt lat="46.65976" lon="5.60145">
        <ele>478</ele>
        <time>2021-05-29T13:27:01.408Z</time>
      </trkpt>
      <trkpt lat="46.65977" lon="5.60142">
        <ele>479</ele>
        <time>2021-05-29T13:27:02.408Z</time>
      </trkpt>
      <trkpt lat="46.65977" lon="5.6014">
        <ele>480</ele>
        <time>2021-05-29T13:27:03.408Z</time>
      </trkpt>
      <trkpt lat="46.65977" lon="5.60137">
        <ele>480</ele>
        <time>2021-05-29T13:27:04.408Z</time>
      </trkpt>
      <trkpt lat="46.65978" lon="5.60137">
        <ele>481</ele>
        <time>2021-05-29T13:27:05.408Z</time>
      </trkpt>
      <trkpt lat="46.65978" lon="5.60137">
        <ele>481</ele>
        <time>2021-05-29T13:27:06.407Z</time>
      </trkpt>
      <trkpt lat="46.65979" lon="5.60136">
        <ele>482</ele>
        <time>2021-05-29T13:27:07.408Z</time>
      </trkpt>
      <trkpt lat="46.65981" lon="5.60137">
        <ele>482</ele>
        <time>2021-05-29T13:27:08.407Z</time>
      </trkpt>
      <trkpt lat="46.65982" lon="5.60136">
        <ele>482</ele>
        <time>2021-05-29T13:27:09.408Z</time>
      </trkpt>
      <trkpt lat="46.65983" lon="5.60135">
        <ele>482</ele>
        <time>2021-05-29T13:27:10.407Z</time>
      </trkpt>
      <trkpt lat="46.65984" lon="5.60134">
        <ele>483</ele>
        <time>2021-05-29T13:27:11.408Z</time>
      </trkpt>
      <trkpt lat="46.65985" lon="5.60133">
        <ele>483</ele>
        <time>2021-05-29T13:27:12.408Z</time>
      </trkpt>
      <trkpt lat="46.65987" lon="5.60132">
        <ele>483</ele>
        <time>2021-05-29T13:27:13.408Z</time>
      </trkpt>
      <trkpt lat="46.65988" lon="5.60131">
        <ele>483</ele>
        <time>2021-05-29T13:27:14.407Z</time>
      </trkpt>
      <trkpt lat="46.65989" lon="5.6013">
        <ele>483</ele>
        <time>2021-05-29T13:27:15.408Z</time>
      </trkpt>
      <trkpt lat="46.6599" lon="5.6013">
        <ele>484</ele>
        <time>2021-05-29T13:27:16.407Z</time>
      </trkpt>
      <trkpt lat="46.65992" lon="5.60129">
        <ele>484</ele>
        <time>2021-05-29T13:27:17.408Z</time>
      </trkpt>
      <trkpt lat="46.65992" lon="5.60129">
        <ele>484</ele>
        <time>2021-05-29T13:27:18.407Z</time>
      </trkpt>
      <trkpt lat="46.65994" lon="5.60128">
        <ele>484</ele>
        <time>2021-05-29T13:27:19.407Z</time>
      </trkpt>
      <trkpt lat="46.65995" lon="5.60128">
        <ele>484</ele>
        <time>2021-05-29T13:27:20.407Z</time>
      </trkpt>
      <trkpt lat="46.65996" lon="5.60127">
        <ele>484</ele>
        <time>2021-05-29T13:27:21.408Z</time>
      </trkpt>
      <trkpt lat="46.65997" lon="5.60127">
        <ele>484</ele>
        <time>2021-05-29T13:27:22.407Z</time>
      </trkpt>
      <trkpt lat="46.65999" lon="5.60127">
        <ele>485</ele>
        <time>2021-05-29T13:27:23.408Z</time>
      </trkpt>
      <trkpt lat="46.66" lon="5.60127">
        <ele>485</ele>
        <time>2021-05-29T13:27:24.407Z</time>
      </trkpt>
      <trkpt lat="46.66" lon="5.60126">
        <ele>485</ele>
        <time>2021-05-29T13:27:25.407Z</time>
      </trkpt>
      <trkpt lat="46.66001" lon="5.60126">
        <ele>485</ele>
        <time>2021-05-29T13:27:26.408Z</time>
      </trkpt>
      <trkpt lat="46.66001" lon="5.60124">
        <ele>485</ele>
        <time>2021-05-29T13:27:27.408Z</time>
      </trkpt>
      <trkpt lat="46.66" lon="5.60123">
        <ele>485</ele>
        <time>2021-05-29T13:27:28.408Z</time>
      </trkpt>
      <trkpt lat="46.66" lon="5.60123">
        <ele>485</ele>
        <time>2021-05-29T13:27:29.408Z</time>
      </trkpt>
      <trkpt lat="46.66" lon="5.60123">
        <ele>485</ele>
        <time>2021-05-29T13:27:30.408Z</time>
      </trkpt>
      <trkpt lat="46.66" lon="5.60123">
        <ele>485</ele>
        <time>2021-05-29T13:27:31.408Z</time>
      </trkpt>
      <trkpt lat="46.66" lon="5.60124">
        <ele>484</ele>
        <time>2021-05-29T13:27:32.408Z</time>
      </trkpt>
      <trkpt lat="46.66001" lon="5.60123">
        <ele>484</ele>
        <time>2021-05-29T13:27:33.408Z</time>
      </trkpt>
      <trkpt lat="46.66002" lon="5.60123">
        <ele>484</ele>
        <time>2021-05-29T13:27:34.407Z</time>
      </trkpt>
      <trkpt lat="46.66004" lon="5.60123">
        <ele>483</ele>
        <time>2021-05-29T13:27:35.408Z</time>
      </trkpt>
      <trkpt lat="46.66005" lon="5.60123">
        <ele>483</ele>
        <time>2021-05-29T13:27:36.407Z</time>
      </trkpt>
      <trkpt lat="46.66006" lon="5.60123">
        <ele>483</ele>
        <time>2021-05-29T13:27:37.408Z</time>
      </trkpt>
      <trkpt lat="46.66007" lon="5.60122">
        <ele>483</ele>
        <time>2021-05-29T13:27:38.408Z</time>
      </trkpt>
      <trkpt lat="46.66008" lon="5.60121">
        <ele>483</ele>
        <time>2021-05-29T13:27:39.408Z</time>
      </trkpt>
      <trkpt lat="46.66009" lon="5.6012">
        <ele>484</ele>
        <time>2021-05-29T13:27:40.407Z</time>
      </trkpt>
      <trkpt lat="46.6601" lon="5.60119">
        <ele>484</ele>
        <time>2021-05-29T13:27:41.408Z</time>
      </trkpt>
      <trkpt lat="46.66011" lon="5.60117">
        <ele>485</ele>
        <time>2021-05-29T13:27:42.408Z</time>
      </trkpt>
      <trkpt lat="46.66011" lon="5.60117">
        <ele>485</ele>
        <time>2021-05-29T13:27:43.408Z</time>
      </trkpt>
      <trkpt lat="46.66012" lon="5.60116">
        <ele>486</ele>
        <time>2021-05-29T13:27:44.408Z</time>
      </trkpt>
      <trkpt lat="46.66013" lon="5.60115">
        <ele>486</ele>
        <time>2021-05-29T13:27:45.408Z</time>
      </trkpt>
      <trkpt lat="46.66013" lon="5.60114">
        <ele>486</ele>
        <time>2021-05-29T13:27:46.408Z</time>
      </trkpt>
      <trkpt lat="46.66014" lon="5.60113">
        <ele>487</ele>
        <time>2021-05-29T13:27:47.408Z</time>
      </trkpt>
      <trkpt lat="46.66015" lon="5.60112">
        <ele>487</ele>
        <time>2021-05-29T13:27:48.408Z</time>
      </trkpt>
      <trkpt lat="46.66016" lon="5.60111">
        <ele>487</ele>
        <time>2021-05-29T13:27:49.408Z</time>
      </trkpt>
      <trkpt lat="46.66017" lon="5.60109">
        <ele>487</ele>
        <time>2021-05-29T13:27:50.408Z</time>
      </trkpt>
      <trkpt lat="46.66018" lon="5.60108">
        <ele>488</ele>
        <time>2021-05-29T13:27:51.408Z</time>
      </trkpt>
      <trkpt lat="46.66019" lon="5.60108">
        <ele>488</ele>
        <time>2021-05-29T13:27:52.408Z</time>
      </trkpt>
      <trkpt lat="46.6602" lon="5.60108">
        <ele>488</ele>
        <time>2021-05-29T13:27:53.407Z</time>
      </trkpt>
      <trkpt lat="46.66021" lon="5.60108">
        <ele>489</ele>
        <time>2021-05-29T13:27:54.408Z</time>
      </trkpt>
      <trkpt lat="46.66022" lon="5.60108">
        <ele>490</ele>
        <time>2021-05-29T13:27:55.407Z</time>
      </trkpt>
      <trkpt lat="46.66023" lon="5.60108">
        <ele>490</ele>
        <time>2021-05-29T13:27:56.408Z</time>
      </trkpt>
      <trkpt lat="46.66025" lon="5.60107">
        <ele>491</ele>
        <time>2021-05-29T13:27:57.407Z</time>
      </trkpt>
      <trkpt lat="46.66025" lon="5.60107">
        <ele>491</ele>
        <time>2021-05-29T13:27:58.407Z</time>
      </trkpt>
      <trkpt lat="46.66026" lon="5.60105">
        <ele>492</ele>
        <time>2021-05-29T13:27:59.407Z</time>
      </trkpt>
      <trkpt lat="46.66028" lon="5.60103">
        <ele>492</ele>
        <time>2021-05-29T13:28:00.407Z</time>
      </trkpt>
      <trkpt lat="46.66029" lon="5.60102">
        <ele>493</ele>
        <time>2021-05-29T13:28:01.407Z</time>
      </trkpt>
      <trkpt lat="46.66029" lon="5.60101">
        <ele>493</ele>
        <time>2021-05-29T13:28:02.407Z</time>
      </trkpt>
      <trkpt lat="46.6603" lon="5.601">
        <ele>494</ele>
        <time>2021-05-29T13:28:03.407Z</time>
      </trkpt>
      <trkpt lat="46.66031" lon="5.60099">
        <ele>494</ele>
        <time>2021-05-29T13:28:04.408Z</time>
      </trkpt>
      <trkpt lat="46.66032" lon="5.60098">
        <ele>494</ele>
        <time>2021-05-29T13:28:05.407Z</time>
      </trkpt>
      <trkpt lat="46.66033" lon="5.60097">
        <ele>495</ele>
        <time>2021-05-29T13:28:06.407Z</time>
      </trkpt>
      <trkpt lat="46.66034" lon="5.60096">
        <ele>495</ele>
        <time>2021-05-29T13:28:07.407Z</time>
      </trkpt>
      <trkpt lat="46.66035" lon="5.60095">
        <ele>495</ele>
        <time>2021-05-29T13:28:08.407Z</time>
      </trkpt>
      <trkpt lat="46.66037" lon="5.60094">
        <ele>495</ele>
        <time>2021-05-29T13:28:09.408Z</time>
      </trkpt>
      <trkpt lat="46.66038" lon="5.60094">
        <ele>496</ele>
        <time>2021-05-29T13:28:10.407Z</time>
      </trkpt>
      <trkpt lat="46.66039" lon="5.60093">
        <ele>496</ele>
        <time>2021-05-29T13:28:11.408Z</time>
      </trkpt>
      <trkpt lat="46.66039" lon="5.60092">
        <ele>496</ele>
        <time>2021-05-29T13:28:12.407Z</time>
      </trkpt>
      <trkpt lat="46.6604" lon="5.60092">
        <ele>496</ele>
        <time>2021-05-29T13:28:13.407Z</time>
      </trkpt>
      <trkpt lat="46.66042" lon="5.60091">
        <ele>496</ele>
        <time>2021-05-29T13:28:14.407Z</time>
      </trkpt>
      <trkpt lat="46.66043" lon="5.60091">
        <ele>496</ele>
        <time>2021-05-29T13:28:15.407Z</time>
      </trkpt>
      <trkpt lat="46.66044" lon="5.60091">
        <ele>496</ele>
        <time>2021-05-29T13:28:16.407Z</time>
      </trkpt>
      <trkpt lat="46.66045" lon="5.6009">
        <ele>496</ele>
        <time>2021-05-29T13:28:17.408Z</time>
      </trkpt>
      <trkpt lat="46.66046" lon="5.6009">
        <ele>496</ele>
        <time>2021-05-29T13:28:18.407Z</time>
      </trkpt>
      <trkpt lat="46.66047" lon="5.60089">
        <ele>496</ele>
        <time>2021-05-29T13:28:19.407Z</time>
      </trkpt>
      <trkpt lat="46.66048" lon="5.60089">
        <ele>496</ele>
        <time>2021-05-29T13:28:20.407Z</time>
      </trkpt>
      <trkpt lat="46.66049" lon="5.60088">
        <ele>496</ele>
        <time>2021-05-29T13:28:21.408Z</time>
      </trkpt>
      <trkpt lat="46.6605" lon="5.60087">
        <ele>496</ele>
        <time>2021-05-29T13:28:22.408Z</time>
      </trkpt>
      <trkpt lat="46.66051" lon="5.60086">
        <ele>496</ele>
        <time>2021-05-29T13:28:23.407Z</time>
      </trkpt>
      <trkpt lat="46.66052" lon="5.60086">
        <ele>496</ele>
        <time>2021-05-29T13:28:24.407Z</time>
      </trkpt>
      <trkpt lat="46.66053" lon="5.60086">
        <ele>496</ele>
        <time>2021-05-29T13:28:25.408Z</time>
      </trkpt>
      <trkpt lat="46.66054" lon="5.60086">
        <ele>496</ele>
        <time>2021-05-29T13:28:26.407Z</time>
      </trkpt>
      <trkpt lat="46.66056" lon="5.60085">
        <ele>496</ele>
        <time>2021-05-29T13:28:27.407Z</time>
      </trkpt>
      <trkpt lat="46.66057" lon="5.60085">
        <ele>496</ele>
        <time>2021-05-29T13:28:28.408Z</time>
      </trkpt>
      <trkpt lat="46.66058" lon="5.60084">
        <ele>496</ele>
        <time>2021-05-29T13:28:29.407Z</time>
      </trkpt>
      <trkpt lat="46.66059" lon="5.60084">
        <ele>496</ele>
        <time>2021-05-29T13:28:30.408Z</time>
      </trkpt>
      <trkpt lat="46.6606" lon="5.60083">
        <ele>496</ele>
        <time>2021-05-29T13:28:31.407Z</time>
      </trkpt>
      <trkpt lat="46.66062" lon="5.60083">
        <ele>496</ele>
        <time>2021-05-29T13:28:32.407Z</time>
      </trkpt>
      <trkpt lat="46.66063" lon="5.60083">
        <ele>496</ele>
        <time>2021-05-29T13:28:33.407Z</time>
      </trkpt>
      <trkpt lat="46.66064" lon="5.60082">
        <ele>496</ele>
        <time>2021-05-29T13:28:34.408Z</time>
      </trkpt>
      <trkpt lat="46.66065" lon="5.60083">
        <ele>496</ele>
        <time>2021-05-29T13:28:35.407Z</time>
      </trkpt>
      <trkpt lat="46.66066" lon="5.60082">
        <ele>496</ele>
        <time>2021-05-29T13:28:36.408Z</time>
      </trkpt>
      <trkpt lat="46.66067" lon="5.60081">
        <ele>496</ele>
        <time>2021-05-29T13:28:37.407Z</time>
      </trkpt>
      <trkpt lat="46.66068" lon="5.60081">
        <ele>496</ele>
        <time>2021-05-29T13:28:38.408Z</time>
      </trkpt>
      <trkpt lat="46.6607" lon="5.6008">
        <ele>497</ele>
        <time>2021-05-29T13:28:39.407Z</time>
      </trkpt>
      <trkpt lat="46.66072" lon="5.60081">
        <ele>497</ele>
        <time>2021-05-29T13:28:40.407Z</time>
      </trkpt>
      <trkpt lat="46.66074" lon="5.6008">
        <ele>497</ele>
        <time>2021-05-29T13:28:41.407Z</time>
      </trkpt>
      <trkpt lat="46.66076" lon="5.6008">
        <ele>497</ele>
        <time>2021-05-29T13:28:42.407Z</time>
      </trkpt>
      <trkpt lat="46.66077" lon="5.60079">
        <ele>497</ele>
        <time>2021-05-29T13:28:43.407Z</time>
      </trkpt>
      <trkpt lat="46.66078" lon="5.60078">
        <ele>498</ele>
        <time>2021-05-29T13:28:44.407Z</time>
      </trkpt>
      <trkpt lat="46.66079" lon="5.60079">
        <ele>498</ele>
        <time>2021-05-29T13:28:45.407Z</time>
      </trkpt>
      <trkpt lat="46.6608" lon="5.60079">
        <ele>498</ele>
        <time>2021-05-29T13:28:46.407Z</time>
      </trkpt>
      <trkpt lat="46.66082" lon="5.6008">
        <ele>498</ele>
        <time>2021-05-29T13:28:47.407Z</time>
      </trkpt>
      <trkpt lat="46.66083" lon="5.6008">
        <ele>498</ele>
        <time>2021-05-29T13:28:48.407Z</time>
      </trkpt>
      <trkpt lat="46.66084" lon="5.6008">
        <ele>498</ele>
        <time>2021-05-29T13:28:49.407Z</time>
      </trkpt>
      <trkpt lat="46.66085" lon="5.6008">
        <ele>498</ele>
        <time>2021-05-29T13:28:50.407Z</time>
      </trkpt>
      <trkpt lat="46.66087" lon="5.6008">
        <ele>498</ele>
        <time>2021-05-29T13:28:51.407Z</time>
      </trkpt>
      <trkpt lat="46.66088" lon="5.60081">
        <ele>497</ele>
        <time>2021-05-29T13:28:52.408Z</time>
      </trkpt>
      <trkpt lat="46.66089" lon="5.60081">
        <ele>497</ele>
        <time>2021-05-29T13:28:53.408Z</time>
      </trkpt>
      <trkpt lat="46.6609" lon="5.60082">
        <ele>497</ele>
        <time>2021-05-29T13:28:54.407Z</time>
      </trkpt>
      <trkpt lat="46.66091" lon="5.60082">
        <ele>497</ele>
        <time>2021-05-29T13:28:55.407Z</time>
      </trkpt>
      <trkpt lat="46.66093" lon="5.6008">
        <ele>497</ele>
        <time>2021-05-29T13:28:56.407Z</time>
      </trkpt>
      <trkpt lat="46.66095" lon="5.60079">
        <ele>497</ele>
        <time>2021-05-29T13:28:57.407Z</time>
      </trkpt>
      <trkpt lat="46.66096" lon="5.60078">
        <ele>497</ele>
        <time>2021-05-29T13:28:58.407Z</time>
      </trkpt>
      <trkpt lat="46.66097" lon="5.60079">
        <ele>497</ele>
        <time>2021-05-29T13:28:59.407Z</time>
      </trkpt>
      <trkpt lat="46.66098" lon="5.60079">
        <ele>496</ele>
        <time>2021-05-29T13:29:00.408Z</time>
      </trkpt>
      <trkpt lat="46.66099" lon="5.60078">
        <ele>496</ele>
        <time>2021-05-29T13:29:01.407Z</time>
      </trkpt>
      <trkpt lat="46.66099" lon="5.60077">
        <ele>496</ele>
        <time>2021-05-29T13:29:02.407Z</time>
      </trkpt>
      <trkpt lat="46.661" lon="5.60076">
        <ele>496</ele>
        <time>2021-05-29T13:29:03.407Z</time>
      </trkpt>
      <trkpt lat="46.66102" lon="5.60076">
        <ele>496</ele>
        <time>2021-05-29T13:29:04.408Z</time>
      </trkpt>
      <trkpt lat="46.66103" lon="5.60074">
        <ele>496</ele>
        <time>2021-05-29T13:29:05.407Z</time>
      </trkpt>
      <trkpt lat="46.66104" lon="5.60073">
        <ele>496</ele>
        <time>2021-05-29T13:29:06.407Z</time>
      </trkpt>
      <trkpt lat="46.66106" lon="5.60073">
        <ele>497</ele>
        <time>2021-05-29T13:29:07.407Z</time>
      </trkpt>
      <trkpt lat="46.66107" lon="5.60072">
        <ele>497</ele>
        <time>2021-05-29T13:29:08.408Z</time>
      </trkpt>
      <trkpt lat="46.66108" lon="5.60072">
        <ele>498</ele>
        <time>2021-05-29T13:29:09.407Z</time>
      </trkpt>
      <trkpt lat="46.6611" lon="5.60072">
        <ele>498</ele>
        <time>2021-05-29T13:29:10.407Z</time>
      </trkpt>
      <trkpt lat="46.66111" lon="5.60072">
        <ele>499</ele>
        <time>2021-05-29T13:29:11.407Z</time>
      </trkpt>
      <trkpt lat="46.66112" lon="5.60073">
        <ele>499</ele>
        <time>2021-05-29T13:29:12.408Z</time>
      </trkpt>
      <trkpt lat="46.66113" lon="5.60073">
        <ele>500</ele>
        <time>2021-05-29T13:29:13.407Z</time>
      </trkpt>
      <trkpt lat="46.66114" lon="5.60073">
        <ele>500</ele>
        <time>2021-05-29T13:29:14.407Z</time>
      </trkpt>
      <trkpt lat="46.66115" lon="5.60073">
        <ele>501</ele>
        <time>2021-05-29T13:29:15.408Z</time>
      </trkpt>
      <trkpt lat="46.66116" lon="5.60073">
        <ele>502</ele>
        <time>2021-05-29T13:29:16.408Z</time>
      </trkpt>
      <trkpt lat="46.66117" lon="5.60073">
        <ele>503</ele>
        <time>2021-05-29T13:29:17.407Z</time>
      </trkpt>
      <trkpt lat="46.66118" lon="5.60073">
        <ele>504</ele>
        <time>2021-05-29T13:29:18.408Z</time>
      </trkpt>
      <trkpt lat="46.66118" lon="5.60072">
        <ele>505</ele>
        <time>2021-05-29T13:29:19.408Z</time>
      </trkpt>
      <trkpt lat="46.66119" lon="5.60072">
        <ele>506</ele>
        <time>2021-05-29T13:29:20.407Z</time>
      </trkpt>
      <trkpt lat="46.6612" lon="5.60072">
        <ele>507</ele>
        <time>2021-05-29T13:29:21.407Z</time>
      </trkpt>
      <trkpt lat="46.66121" lon="5.60072">
        <ele>508</ele>
        <time>2021-05-29T13:29:22.407Z</time>
      </trkpt>
      <trkpt lat="46.66122" lon="5.60071">
        <ele>509</ele>
        <time>2021-05-29T13:29:23.407Z</time>
      </trkpt>
      <trkpt lat="46.66123" lon="5.60071">
        <ele>510</ele>
        <time>2021-05-29T13:29:24.407Z</time>
      </trkpt>
      <trkpt lat="46.66124" lon="5.60071">
        <ele>510</ele>
        <time>2021-05-29T13:29:25.407Z</time>
      </trkpt>
      <trkpt lat="46.66125" lon="5.60071">
        <ele>510</ele>
        <time>2021-05-29T13:29:26.407Z</time>
      </trkpt>
      <trkpt lat="46.66127" lon="5.60071">
        <ele>510</ele>
        <time>2021-05-29T13:29:27.407Z</time>
      </trkpt>
      <trkpt lat="46.66128" lon="5.60071">
        <ele>510</ele>
        <time>2021-05-29T13:29:28.408Z</time>
      </trkpt>
      <trkpt lat="46.66129" lon="5.60071">
        <ele>510</ele>
        <time>2021-05-29T13:29:29.407Z</time>
      </trkpt>
      <trkpt lat="46.66131" lon="5.60071">
        <ele>510</ele>
        <time>2021-05-29T13:29:30.407Z</time>
      </trkpt>
      <trkpt lat="46.66132" lon="5.60071">
        <ele>510</ele>
        <time>2021-05-29T13:29:31.407Z</time>
      </trkpt>
      <trkpt lat="46.66134" lon="5.60071">
        <ele>510</ele>
        <time>2021-05-29T13:29:32.407Z</time>
      </trkpt>
      <trkpt lat="46.66135" lon="5.6007">
        <ele>509</ele>
        <time>2021-05-29T13:29:33.407Z</time>
      </trkpt>
      <trkpt lat="46.66136" lon="5.60069">
        <ele>509</ele>
        <time>2021-05-29T13:29:34.407Z</time>
      </trkpt>
      <trkpt lat="46.66138" lon="5.60069">
        <ele>508</ele>
        <time>2021-05-29T13:29:35.407Z</time>
      </trkpt>
      <trkpt lat="46.6614" lon="5.60069">
        <ele>508</ele>
        <time>2021-05-29T13:29:36.407Z</time>
      </trkpt>
      <trkpt lat="46.66141" lon="5.60069">
        <ele>508</ele>
        <time>2021-05-29T13:29:37.407Z</time>
      </trkpt>
      <trkpt lat="46.66141" lon="5.6007">
        <ele>507</ele>
        <time>2021-05-29T13:29:38.407Z</time>
      </trkpt>
      <trkpt lat="46.66142" lon="5.6007">
        <ele>507</ele>
        <time>2021-05-29T13:29:39.407Z</time>
      </trkpt>
      <trkpt lat="46.66142" lon="5.6007">
        <ele>507</ele>
        <time>2021-05-29T13:29:40.407Z</time>
      </trkpt>
      <trkpt lat="46.66143" lon="5.60071">
        <ele>508</ele>
        <time>2021-05-29T13:29:41.407Z</time>
      </trkpt>
      <trkpt lat="46.66143" lon="5.60071">
        <ele>508</ele>
        <time>2021-05-29T13:29:42.408Z</time>
      </trkpt>
      <trkpt lat="46.66144" lon="5.60071">
        <ele>508</ele>
        <time>2021-05-29T13:29:43.407Z</time>
      </trkpt>
      <trkpt lat="46.66144" lon="5.60071">
        <ele>508</ele>
        <time>2021-05-29T13:29:44.407Z</time>
      </trkpt>
      <trkpt lat="46.66145" lon="5.60071">
        <ele>508</ele>
        <time>2021-05-29T13:29:45.407Z</time>
      </trkpt>
      <trkpt lat="46.66146" lon="5.60071">
        <ele>509</ele>
        <time>2021-05-29T13:29:46.407Z</time>
      </trkpt>
      <trkpt lat="46.66147" lon="5.60073">
        <ele>509</ele>
        <time>2021-05-29T13:29:47.407Z</time>
      </trkpt>
      <trkpt lat="46.66148" lon="5.60074">
        <ele>509</ele>
        <time>2021-05-29T13:29:48.407Z</time>
      </trkpt>
      <trkpt lat="46.66148" lon="5.60075">
        <ele>509</ele>
        <time>2021-05-29T13:29:49.407Z</time>
      </trkpt>
      <trkpt lat="46.66149" lon="5.60075">
        <ele>510</ele>
        <time>2021-05-29T13:29:50.408Z</time>
      </trkpt>
      <trkpt lat="46.66149" lon="5.60075">
        <ele>510</ele>
        <time>2021-05-29T13:29:51.407Z</time>
      </trkpt>
      <trkpt lat="46.66148" lon="5.60075">
        <ele>510</ele>
        <time>2021-05-29T13:29:52.408Z</time>
      </trkpt>
      <trkpt lat="46.66148" lon="5.60075">
        <ele>510</ele>
        <time>2021-05-29T13:29:53.408Z</time>
      </trkpt>
      <trkpt lat="46.66149" lon="5.60075">
        <ele>510</ele>
        <time>2021-05-29T13:29:54.408Z</time>
      </trkpt>
      <trkpt lat="46.66148" lon="5.60075">
        <ele>510</ele>
        <time>2021-05-29T13:29:55.407Z</time>
      </trkpt>
      <trkpt lat="46.66148" lon="5.60075">
        <ele>510</ele>
        <time>2021-05-29T13:29:56.407Z</time>
      </trkpt>
      <trkpt lat="46.66148" lon="5.60075">
        <ele>510</ele>
        <time>2021-05-29T13:29:57.407Z</time>
      </trkpt>
      <trkpt lat="46.66148" lon="5.60075">
        <ele>510</ele>
        <time>2021-05-29T13:29:58.407Z</time>
      </trkpt>
      <trkpt lat="46.66148" lon="5.60075">
        <ele>510</ele>
        <time>2021-05-29T13:29:59.408Z</time>
      </trkpt>
      <trkpt lat="46.66148" lon="5.60076">
        <ele>509</ele>
        <time>2021-05-29T13:30:00.407Z</time>
      </trkpt>
      <trkpt lat="46.66149" lon="5.60077">
        <ele>509</ele>
        <time>2021-05-29T13:30:01.407Z</time>
      </trkpt>
      <trkpt lat="46.66149" lon="5.60077">
        <ele>509</ele>
        <time>2021-05-29T13:30:02.407Z</time>
      </trkpt>
      <trkpt lat="46.66149" lon="5.60078">
        <ele>508</ele>
        <time>2021-05-29T13:30:03.408Z</time>
      </trkpt>
      <trkpt lat="46.66148" lon="5.60078">
        <ele>507</ele>
        <time>2021-05-29T13:30:04.407Z</time>
      </trkpt>
      <trkpt lat="46.66147" lon="5.60078">
        <ele>507</ele>
        <time>2021-05-29T13:30:05.407Z</time>
      </trkpt>
      <trkpt lat="46.66147" lon="5.60078">
        <ele>506</ele>
        <time>2021-05-29T13:30:06.408Z</time>
      </trkpt>
      <trkpt lat="46.66146" lon="5.60078">
        <ele>505</ele>
        <time>2021-05-29T13:30:07.407Z</time>
      </trkpt>
      <trkpt lat="46.66145" lon="5.60078">
        <ele>504</ele>
        <time>2021-05-29T13:30:08.407Z</time>
      </trkpt>
      <trkpt lat="46.66145" lon="5.60077">
        <ele>504</ele>
        <time>2021-05-29T13:30:09.408Z</time>
      </trkpt>
      <trkpt lat="46.66133" lon="5.60075">
        <ele>503</ele>
        <time>2021-05-29T13:30:10.410Z</time>
      </trkpt>
      <trkpt lat="46.66132" lon="5.60075">
        <ele>503</ele>
        <time>2021-05-29T13:30:11.410Z</time>
      </trkpt>
      <trkpt lat="46.66131" lon="5.60074">
        <ele>503</ele>
        <time>2021-05-29T13:30:12.409Z</time>
      </trkpt>
      <trkpt lat="46.66129" lon="5.60074">
        <ele>502</ele>
        <time>2021-05-29T13:30:13.409Z</time>
      </trkpt>
      <trkpt lat="46.66129" lon="5.60075">
        <ele>502</ele>
        <time>2021-05-29T13:30:14.410Z</time>
      </trkpt>
      <trkpt lat="46.66128" lon="5.60076">
        <ele>502</ele>
        <time>2021-05-29T13:30:15.409Z</time>
      </trkpt>
      <trkpt lat="46.66127" lon="5.60076">
        <ele>502</ele>
        <time>2021-05-29T13:30:16.409Z</time>
      </trkpt>
      <trkpt lat="46.66127" lon="5.60076">
        <ele>501</ele>
        <time>2021-05-29T13:30:17.409Z</time>
      </trkpt>
      <trkpt lat="46.66125" lon="5.60077">
        <ele>501</ele>
        <time>2021-05-29T13:30:18.409Z</time>
      </trkpt>
      <trkpt lat="46.66124" lon="5.60077">
        <ele>501</ele>
        <time>2021-05-29T13:30:19.410Z</time>
      </trkpt>
      <trkpt lat="46.66123" lon="5.60077">
        <ele>501</ele>
        <time>2021-05-29T13:30:20.410Z</time>
      </trkpt>
      <trkpt lat="46.66122" lon="5.60077">
        <ele>501</ele>
        <time>2021-05-29T13:30:21.410Z</time>
      </trkpt>
      <trkpt lat="46.66121" lon="5.60077">
        <ele>501</ele>
        <time>2021-05-29T13:30:22.409Z</time>
      </trkpt>
      <trkpt lat="46.66119" lon="5.60075">
        <ele>501</ele>
        <time>2021-05-29T13:30:23.409Z</time>
      </trkpt>
      <trkpt lat="46.66118" lon="5.60075">
        <ele>501</ele>
        <time>2021-05-29T13:30:24.409Z</time>
      </trkpt>
      <trkpt lat="46.66116" lon="5.60075">
        <ele>500</ele>
        <time>2021-05-29T13:30:25.410Z</time>
      </trkpt>
      <trkpt lat="46.66115" lon="5.60075">
        <ele>500</ele>
        <time>2021-05-29T13:30:26.409Z</time>
      </trkpt>
      <trkpt lat="46.66113" lon="5.60076">
        <ele>500</ele>
        <time>2021-05-29T13:30:27.410Z</time>
      </trkpt>
      <trkpt lat="46.66112" lon="5.60077">
        <ele>500</ele>
        <time>2021-05-29T13:30:28.410Z</time>
      </trkpt>
      <trkpt lat="46.6611" lon="5.60077">
        <ele>499</ele>
        <time>2021-05-29T13:30:29.410Z</time>
      </trkpt>
      <trkpt lat="46.66109" lon="5.60077">
        <ele>499</ele>
        <time>2021-05-29T13:30:30.410Z</time>
      </trkpt>
      <trkpt lat="46.66108" lon="5.60076">
        <ele>498</ele>
        <time>2021-05-29T13:30:31.410Z</time>
      </trkpt>
      <trkpt lat="46.66107" lon="5.60076">
        <ele>498</ele>
        <time>2021-05-29T13:30:32.410Z</time>
      </trkpt>
      <trkpt lat="46.66106" lon="5.60076">
        <ele>498</ele>
        <time>2021-05-29T13:30:33.410Z</time>
      </trkpt>
      <trkpt lat="46.66106" lon="5.60077">
        <ele>497</ele>
        <time>2021-05-29T13:30:34.409Z</time>
      </trkpt>
      <trkpt lat="46.66105" lon="5.60076">
        <ele>497</ele>
        <time>2021-05-29T13:30:35.410Z</time>
      </trkpt>
      <trkpt lat="46.66104" lon="5.60075">
        <ele>496</ele>
        <time>2021-05-29T13:30:36.410Z</time>
      </trkpt>
      <trkpt lat="46.66103" lon="5.60075">
        <ele>495</ele>
        <time>2021-05-29T13:30:37.409Z</time>
      </trkpt>
      <trkpt lat="46.66101" lon="5.60075">
        <ele>495</ele>
        <time>2021-05-29T13:30:38.409Z</time>
      </trkpt>
      <trkpt lat="46.661" lon="5.60075">
        <ele>494</ele>
        <time>2021-05-29T13:30:39.409Z</time>
      </trkpt>
      <trkpt lat="46.66098" lon="5.60075">
        <ele>493</ele>
        <time>2021-05-29T13:30:40.409Z</time>
      </trkpt>
      <trkpt lat="46.66097" lon="5.60075">
        <ele>493</ele>
        <time>2021-05-29T13:30:41.409Z</time>
      </trkpt>
      <trkpt lat="46.66096" lon="5.60075">
        <ele>493</ele>
        <time>2021-05-29T13:30:42.410Z</time>
      </trkpt>
      <trkpt lat="46.66095" lon="5.60075">
        <ele>492</ele>
        <time>2021-05-29T13:30:43.410Z</time>
      </trkpt>
      <trkpt lat="46.66093" lon="5.60075">
        <ele>492</ele>
        <time>2021-05-29T13:30:44.409Z</time>
      </trkpt>
      <trkpt lat="46.66092" lon="5.60076">
        <ele>492</ele>
        <time>2021-05-29T13:30:45.410Z</time>
      </trkpt>
      <trkpt lat="46.66091" lon="5.60077">
        <ele>492</ele>
        <time>2021-05-29T13:30:46.410Z</time>
      </trkpt>
      <trkpt lat="46.66089" lon="5.60077">
        <ele>492</ele>
        <time>2021-05-29T13:30:47.409Z</time>
      </trkpt>
      <trkpt lat="46.66087" lon="5.60077">
        <ele>492</ele>
        <time>2021-05-29T13:30:48.410Z</time>
      </trkpt>
      <trkpt lat="46.66086" lon="5.60077">
        <ele>493</ele>
        <time>2021-05-29T13:30:49.410Z</time>
      </trkpt>
      <trkpt lat="46.66084" lon="5.60077">
        <ele>493</ele>
        <time>2021-05-29T13:30:50.410Z</time>
      </trkpt>
      <trkpt lat="46.66083" lon="5.60077">
        <ele>493</ele>
        <time>2021-05-29T13:30:51.410Z</time>
      </trkpt>
      <trkpt lat="46.66081" lon="5.60077">
        <ele>493</ele>
        <time>2021-05-29T13:30:52.410Z</time>
      </trkpt>
      <trkpt lat="46.6608" lon="5.60078">
        <ele>492</ele>
        <time>2021-05-29T13:30:53.410Z</time>
      </trkpt>
      <trkpt lat="46.66079" lon="5.60079">
        <ele>492</ele>
        <time>2021-05-29T13:30:54.410Z</time>
      </trkpt>
      <trkpt lat="46.66077" lon="5.60079">
        <ele>492</ele>
        <time>2021-05-29T13:30:55.410Z</time>
      </trkpt>
      <trkpt lat="46.66076" lon="5.60079">
        <ele>492</ele>
        <time>2021-05-29T13:30:56.410Z</time>
      </trkpt>
      <trkpt lat="46.66075" lon="5.6008">
        <ele>492</ele>
        <time>2021-05-29T13:30:57.410Z</time>
      </trkpt>
      <trkpt lat="46.66074" lon="5.6008">
        <ele>492</ele>
        <time>2021-05-29T13:30:58.410Z</time>
      </trkpt>
      <trkpt lat="46.66073" lon="5.60081">
        <ele>492</ele>
        <time>2021-05-29T13:30:59.410Z</time>
      </trkpt>
      <trkpt lat="46.66073" lon="5.60082">
        <ele>492</ele>
        <time>2021-05-29T13:31:00.410Z</time>
      </trkpt>
      <trkpt lat="46.66071" lon="5.60083">
        <ele>491</ele>
        <time>2021-05-29T13:31:01.410Z</time>
      </trkpt>
      <trkpt lat="46.66069" lon="5.60083">
        <ele>491</ele>
        <time>2021-05-29T13:31:02.410Z</time>
      </trkpt>
      <trkpt lat="46.66068" lon="5.60084">
        <ele>491</ele>
        <time>2021-05-29T13:31:03.409Z</time>
      </trkpt>
      <trkpt lat="46.66067" lon="5.60085">
        <ele>490</ele>
        <time>2021-05-29T13:31:04.410Z</time>
      </trkpt>
      <trkpt lat="46.66066" lon="5.60086">
        <ele>490</ele>
        <time>2021-05-29T13:31:05.410Z</time>
      </trkpt>
      <trkpt lat="46.66065" lon="5.60086">
        <ele>489</ele>
        <time>2021-05-29T13:31:06.409Z</time>
      </trkpt>
      <trkpt lat="46.66063" lon="5.60085">
        <ele>489</ele>
        <time>2021-05-29T13:31:07.409Z</time>
      </trkpt>
      <trkpt lat="46.66061" lon="5.60086">
        <ele>488</ele>
        <time>2021-05-29T13:31:08.409Z</time>
      </trkpt>
      <trkpt lat="46.6606" lon="5.60087">
        <ele>488</ele>
        <time>2021-05-29T13:31:09.410Z</time>
      </trkpt>
      <trkpt lat="46.66059" lon="5.60088">
        <ele>487</ele>
        <time>2021-05-29T13:31:10.410Z</time>
      </trkpt>
      <trkpt lat="46.66058" lon="5.6009">
        <ele>487</ele>
        <time>2021-05-29T13:31:11.410Z</time>
      </trkpt>
      <trkpt lat="46.66056" lon="5.60091">
        <ele>486</ele>
        <time>2021-05-29T13:31:12.410Z</time>
      </trkpt>
      <trkpt lat="46.66055" lon="5.60092">
        <ele>486</ele>
        <time>2021-05-29T13:31:13.410Z</time>
      </trkpt>
      <trkpt lat="46.66053" lon="5.60094">
        <ele>485</ele>
        <time>2021-05-29T13:31:14.409Z</time>
      </trkpt>
      <trkpt lat="46.66052" lon="5.60096">
        <ele>485</ele>
        <time>2021-05-29T13:31:15.409Z</time>
      </trkpt>
      <trkpt lat="46.6605" lon="5.60097">
        <ele>485</ele>
        <time>2021-05-29T13:31:16.409Z</time>
      </trkpt>
      <trkpt lat="46.66048" lon="5.60098">
        <ele>484</ele>
        <time>2021-05-29T13:31:17.409Z</time>
      </trkpt>
      <trkpt lat="46.66046" lon="5.60098">
        <ele>484</ele>
        <time>2021-05-29T13:31:18.410Z</time>
      </trkpt>
      <trkpt lat="46.66045" lon="5.601">
        <ele>484</ele>
        <time>2021-05-29T13:31:19.409Z</time>
      </trkpt>
      <trkpt lat="46.66043" lon="5.60101">
        <ele>484</ele>
        <time>2021-05-29T13:31:20.409Z</time>
      </trkpt>
      <trkpt lat="46.66042" lon="5.60103">
        <ele>484</ele>
        <time>2021-05-29T13:31:21.410Z</time>
      </trkpt>
      <trkpt lat="46.6604" lon="5.60105">
        <ele>484</ele>
        <time>2021-05-29T13:31:22.410Z</time>
      </trkpt>
      <trkpt lat="46.6604" lon="5.60106">
        <ele>484</ele>
        <time>2021-05-29T13:31:23.410Z</time>
      </trkpt>
      <trkpt lat="46.66039" lon="5.60106">
        <ele>484</ele>
        <time>2021-05-29T13:31:24.410Z</time>
      </trkpt>
      <trkpt lat="46.66038" lon="5.60107">
        <ele>484</ele>
        <time>2021-05-29T13:31:25.409Z</time>
      </trkpt>
      <trkpt lat="46.66037" lon="5.60108">
        <ele>483</ele>
        <time>2021-05-29T13:31:26.410Z</time>
      </trkpt>
      <trkpt lat="46.66036" lon="5.60108">
        <ele>483</ele>
        <time>2021-05-29T13:31:27.409Z</time>
      </trkpt>
      <trkpt lat="46.66035" lon="5.60109">
        <ele>483</ele>
        <time>2021-05-29T13:31:28.410Z</time>
      </trkpt>
      <trkpt lat="46.66034" lon="5.60109">
        <ele>483</ele>
        <time>2021-05-29T13:31:29.410Z</time>
      </trkpt>
      <trkpt lat="46.66033" lon="5.6011">
        <ele>483</ele>
        <time>2021-05-29T13:31:30.410Z</time>
      </trkpt>
      <trkpt lat="46.66032" lon="5.60111">
        <ele>483</ele>
        <time>2021-05-29T13:31:31.409Z</time>
      </trkpt>
      <trkpt lat="46.66031" lon="5.60112">
        <ele>483</ele>
        <time>2021-05-29T13:31:32.409Z</time>
      </trkpt>
      <trkpt lat="46.66031" lon="5.60113">
        <ele>483</ele>
        <time>2021-05-29T13:31:33.409Z</time>
      </trkpt>
      <trkpt lat="46.6603" lon="5.60115">
        <ele>482</ele>
        <time>2021-05-29T13:31:34.409Z</time>
      </trkpt>
      <trkpt lat="46.6603" lon="5.60118">
        <ele>482</ele>
        <time>2021-05-29T13:31:35.410Z</time>
      </trkpt>
      <trkpt lat="46.66029" lon="5.60121">
        <ele>482</ele>
        <time>2021-05-29T13:31:36.410Z</time>
      </trkpt>
      <trkpt lat="46.66029" lon="5.60123">
        <ele>481</ele>
        <time>2021-05-29T13:31:37.410Z</time>
      </trkpt>
      <trkpt lat="46.66028" lon="5.60125">
        <ele>481</ele>
        <time>2021-05-29T13:31:38.409Z</time>
      </trkpt>
      <trkpt lat="46.66027" lon="5.60127">
        <ele>481</ele>
        <time>2021-05-29T13:31:39.410Z</time>
      </trkpt>
      <trkpt lat="46.66027" lon="5.60129">
        <ele>481</ele>
        <time>2021-05-29T13:31:40.410Z</time>
      </trkpt>
      <trkpt lat="46.66026" lon="5.60131">
        <ele>481</ele>
        <time>2021-05-29T13:31:41.410Z</time>
      </trkpt>
      <trkpt lat="46.66025" lon="5.60132">
        <ele>481</ele>
        <time>2021-05-29T13:31:42.409Z</time>
      </trkpt>
      <trkpt lat="46.66024" lon="5.60133">
        <ele>481</ele>
        <time>2021-05-29T13:31:43.409Z</time>
      </trkpt>
      <trkpt lat="46.66022" lon="5.60134">
        <ele>482</ele>
        <time>2021-05-29T13:31:44.410Z</time>
      </trkpt>
      <trkpt lat="46.66021" lon="5.60136">
        <ele>482</ele>
        <time>2021-05-29T13:31:45.410Z</time>
      </trkpt>
      <trkpt lat="46.6602" lon="5.60137">
        <ele>482</ele>
        <time>2021-05-29T13:34:56.447Z</time>
      </trkpt>
      <trkpt lat="46.66019" lon="5.60139">
        <ele>483</ele>
        <time>2021-05-29T13:34:57.448Z</time>
      </trkpt>
      <trkpt lat="46.66019" lon="5.60139">
        <ele>483</ele>
        <time>2021-05-29T13:34:58.447Z</time>
      </trkpt>
      <trkpt lat="46.66018" lon="5.6014">
        <ele>483</ele>
        <time>2021-05-29T13:34:59.448Z</time>
      </trkpt>
      <trkpt lat="46.66018" lon="5.60141">
        <ele>483</ele>
        <time>2021-05-29T13:35:00.447Z</time>
      </trkpt>
      <trkpt lat="46.66017" lon="5.60142">
        <ele>483</ele>
        <time>2021-05-29T13:35:01.448Z</time>
      </trkpt>
      <trkpt lat="46.66017" lon="5.60143">
        <ele>483</ele>
        <time>2021-05-29T13:35:02.448Z</time>
      </trkpt>
      <trkpt lat="46.66016" lon="5.60144">
        <ele>483</ele>
        <time>2021-05-29T13:35:03.448Z</time>
      </trkpt>
      <trkpt lat="46.66015" lon="5.60145">
        <ele>483</ele>
        <time>2021-05-29T13:35:04.448Z</time>
      </trkpt>
      <trkpt lat="46.66014" lon="5.60147">
        <ele>483</ele>
        <time>2021-05-29T13:35:05.448Z</time>
      </trkpt>
      <trkpt lat="46.66013" lon="5.60147">
        <ele>483</ele>
        <time>2021-05-29T13:35:06.448Z</time>
      </trkpt>
      <trkpt lat="46.66011" lon="5.60149">
        <ele>483</ele>
        <time>2021-05-29T13:35:07.448Z</time>
      </trkpt>
      <trkpt lat="46.66009" lon="5.6015">
        <ele>483</ele>
        <time>2021-05-29T13:35:08.448Z</time>
      </trkpt>
      <trkpt lat="46.66008" lon="5.60151">
        <ele>483</ele>
        <time>2021-05-29T13:35:09.448Z</time>
      </trkpt>
      <trkpt lat="46.66008" lon="5.60152">
        <ele>483</ele>
        <time>2021-05-29T13:35:10.448Z</time>
      </trkpt>
      <trkpt lat="46.66007" lon="5.60153">
        <ele>484</ele>
        <time>2021-05-29T13:35:11.447Z</time>
      </trkpt>
      <trkpt lat="46.66006" lon="5.60153">
        <ele>484</ele>
        <time>2021-05-29T13:35:12.447Z</time>
      </trkpt>
      <trkpt lat="46.66006" lon="5.60154">
        <ele>484</ele>
        <time>2021-05-29T13:35:13.447Z</time>
      </trkpt>
      <trkpt lat="46.66005" lon="5.60156">
        <ele>484</ele>
        <time>2021-05-29T13:35:14.447Z</time>
      </trkpt>
      <trkpt lat="46.66004" lon="5.60157">
        <ele>484</ele>
        <time>2021-05-29T13:35:15.448Z</time>
      </trkpt>
      <trkpt lat="46.66004" lon="5.60158">
        <ele>484</ele>
        <time>2021-05-29T13:35:16.448Z</time>
      </trkpt>
      <trkpt lat="46.66003" lon="5.60159">
        <ele>484</ele>
        <time>2021-05-29T13:35:17.447Z</time>
      </trkpt>
      <trkpt lat="46.66003" lon="5.6016">
        <ele>484</ele>
        <time>2021-05-29T13:35:18.448Z</time>
      </trkpt>
      <trkpt lat="46.66002" lon="5.60162">
        <ele>484</ele>
        <time>2021-05-29T13:35:19.447Z</time>
      </trkpt>
      <trkpt lat="46.66002" lon="5.60163">
        <ele>484</ele>
        <time>2021-05-29T13:35:20.447Z</time>
      </trkpt>
      <trkpt lat="46.66001" lon="5.60165">
        <ele>484</ele>
        <time>2021-05-29T13:35:21.447Z</time>
      </trkpt>
      <trkpt lat="46.66" lon="5.60166">
        <ele>485</ele>
        <time>2021-05-29T13:35:22.447Z</time>
      </trkpt>
      <trkpt lat="46.65998" lon="5.60167">
        <ele>485</ele>
        <time>2021-05-29T13:35:23.447Z</time>
      </trkpt>
      <trkpt lat="46.65998" lon="5.60169">
        <ele>485</ele>
        <time>2021-05-29T13:35:24.447Z</time>
      </trkpt>
      <trkpt lat="46.65997" lon="5.6017">
        <ele>486</ele>
        <time>2021-05-29T13:35:25.447Z</time>
      </trkpt>
      <trkpt lat="46.65997" lon="5.60171">
        <ele>486</ele>
        <time>2021-05-29T13:35:26.448Z</time>
      </trkpt>
      <trkpt lat="46.65996" lon="5.60172">
        <ele>487</ele>
        <time>2021-05-29T13:35:27.448Z</time>
      </trkpt>
      <trkpt lat="46.65995" lon="5.60174">
        <ele>487</ele>
        <time>2021-05-29T13:35:28.448Z</time>
      </trkpt>
      <trkpt lat="46.65994" lon="5.60175">
        <ele>488</ele>
        <time>2021-05-29T13:35:29.447Z</time>
      </trkpt>
      <trkpt lat="46.65993" lon="5.60176">
        <ele>489</ele>
        <time>2021-05-29T13:35:30.448Z</time>
      </trkpt>
      <trkpt lat="46.65992" lon="5.60178">
        <ele>490</ele>
        <time>2021-05-29T13:35:31.447Z</time>
      </trkpt>
      <trkpt lat="46.65991" lon="5.60179">
        <ele>491</ele>
        <time>2021-05-29T13:35:32.448Z</time>
      </trkpt>
      <trkpt lat="46.6599" lon="5.6018">
        <ele>491</ele>
        <time>2021-05-29T13:35:33.447Z</time>
      </trkpt>
      <trkpt lat="46.65989" lon="5.60182">
        <ele>492</ele>
        <time>2021-05-29T13:35:34.448Z</time>
      </trkpt>
      <trkpt lat="46.65988" lon="5.60184">
        <ele>492</ele>
        <time>2021-05-29T13:35:35.448Z</time>
      </trkpt>
      <trkpt lat="46.65988" lon="5.60185">
        <ele>492</ele>
        <time>2021-05-29T13:35:36.448Z</time>
      </trkpt>
      <trkpt lat="46.65987" lon="5.60187">
        <ele>492</ele>
        <time>2021-05-29T13:35:37.448Z</time>
      </trkpt>
      <trkpt lat="46.65986" lon="5.60188">
        <ele>492</ele>
        <time>2021-05-29T13:35:38.448Z</time>
      </trkpt>
      <trkpt lat="46.65985" lon="5.6019">
        <ele>492</ele>
        <time>2021-05-29T13:35:39.447Z</time>
      </trkpt>
      <trkpt lat="46.65985" lon="5.60192">
        <ele>492</ele>
        <time>2021-05-29T13:35:40.447Z</time>
      </trkpt>
      <trkpt lat="46.65985" lon="5.60194">
        <ele>492</ele>
        <time>2021-05-29T13:35:41.448Z</time>
      </trkpt>
      <trkpt lat="46.65985" lon="5.60195">
        <ele>492</ele>
        <time>2021-05-29T13:35:42.448Z</time>
      </trkpt>
      <trkpt lat="46.65985" lon="5.60196">
        <ele>492</ele>
        <time>2021-05-29T13:35:43.447Z</time>
      </trkpt>
      <trkpt lat="46.65985" lon="5.60197">
        <ele>492</ele>
        <time>2021-05-29T13:35:44.448Z</time>
      </trkpt>
      <trkpt lat="46.65985" lon="5.60198">
        <ele>492</ele>
        <time>2021-05-29T13:35:45.447Z</time>
      </trkpt>
      <trkpt lat="46.65985" lon="5.60199">
        <ele>492</ele>
        <time>2021-05-29T13:35:46.448Z</time>
      </trkpt>
      <trkpt lat="46.65985" lon="5.60201">
        <ele>492</ele>
        <time>2021-05-29T13:35:47.447Z</time>
      </trkpt>
      <trkpt lat="46.65985" lon="5.60202">
        <ele>492</ele>
        <time>2021-05-29T13:35:48.448Z</time>
      </trkpt>
      <trkpt lat="46.65985" lon="5.60205">
        <ele>492</ele>
        <time>2021-05-29T13:35:49.448Z</time>
      </trkpt>
      <trkpt lat="46.65985" lon="5.60207">
        <ele>492</ele>
        <time>2021-05-29T13:35:50.448Z</time>
      </trkpt>
      <trkpt lat="46.65986" lon="5.60209">
        <ele>493</ele>
        <time>2021-05-29T13:35:51.448Z</time>
      </trkpt>
      <trkpt lat="46.65986" lon="5.60211">
        <ele>493</ele>
        <time>2021-05-29T13:35:52.448Z</time>
      </trkpt>
      <trkpt lat="46.65986" lon="5.60212">
        <ele>494</ele>
        <time>2021-05-29T13:35:53.447Z</time>
      </trkpt>
      <trkpt lat="46.65986" lon="5.60213">
        <ele>494</ele>
        <time>2021-05-29T13:35:54.447Z</time>
      </trkpt>
      <trkpt lat="46.65986" lon="5.60215">
        <ele>495</ele>
        <time>2021-05-29T13:35:55.448Z</time>
      </trkpt>
      <trkpt lat="46.65987" lon="5.60216">
        <ele>495</ele>
        <time>2021-05-29T13:35:56.447Z</time>
      </trkpt>
      <trkpt lat="46.65987" lon="5.60217">
        <ele>496</ele>
        <time>2021-05-29T13:35:57.448Z</time>
      </trkpt>
      <trkpt lat="46.65987" lon="5.60219">
        <ele>496</ele>
        <time>2021-05-29T13:35:58.448Z</time>
      </trkpt>
      <trkpt lat="46.65988" lon="5.60221">
        <ele>497</ele>
        <time>2021-05-29T13:35:59.448Z</time>
      </trkpt>
      <trkpt lat="46.65989" lon="5.60222">
        <ele>497</ele>
        <time>2021-05-29T13:36:00.447Z</time>
      </trkpt>
      <trkpt lat="46.6599" lon="5.60223">
        <ele>498</ele>
        <time>2021-05-29T13:36:01.448Z</time>
      </trkpt>
      <trkpt lat="46.6599" lon="5.60223">
        <ele>499</ele>
        <time>2021-05-29T13:36:02.447Z</time>
      </trkpt>
      <trkpt lat="46.65991" lon="5.60224">
        <ele>499</ele>
        <time>2021-05-29T13:36:03.447Z</time>
      </trkpt>
      <trkpt lat="46.65991" lon="5.60224">
        <ele>500</ele>
        <time>2021-05-29T13:36:04.447Z</time>
      </trkpt>
      <trkpt lat="46.65991" lon="5.60224">
        <ele>500</ele>
        <time>2021-05-29T13:36:05.447Z</time>
      </trkpt>
      <trkpt lat="46.65992" lon="5.60224">
        <ele>500</ele>
        <time>2021-05-29T13:36:06.447Z</time>
      </trkpt>
      <trkpt lat="46.65992" lon="5.60225">
        <ele>500</ele>
        <time>2021-05-29T13:36:07.448Z</time>
      </trkpt>
      <trkpt lat="46.65991" lon="5.60225">
        <ele>500</ele>
        <time>2021-05-29T13:36:08.448Z</time>
      </trkpt>
      <trkpt lat="46.65991" lon="5.60225">
        <ele>501</ele>
        <time>2021-05-29T13:36:09.447Z</time>
      </trkpt>
      <trkpt lat="46.65991" lon="5.60224">
        <ele>501</ele>
        <time>2021-05-29T13:36:10.447Z</time>
      </trkpt>
      <trkpt lat="46.65991" lon="5.60223">
        <ele>501</ele>
        <time>2021-05-29T13:36:11.447Z</time>
      </trkpt>
      <trkpt lat="46.65991" lon="5.60223">
        <ele>502</ele>
        <time>2021-05-29T13:36:12.448Z</time>
      </trkpt>
      <trkpt lat="46.6599" lon="5.60222">
        <ele>502</ele>
        <time>2021-05-29T13:36:13.447Z</time>
      </trkpt>
      <trkpt lat="46.6599" lon="5.60221">
        <ele>503</ele>
        <time>2021-05-29T13:36:14.447Z</time>
      </trkpt>
      <trkpt lat="46.6599" lon="5.6022">
        <ele>504</ele>
        <time>2021-05-29T13:36:15.448Z</time>
      </trkpt>
      <trkpt lat="46.65991" lon="5.60219">
        <ele>505</ele>
        <time>2021-05-29T13:36:16.448Z</time>
      </trkpt>
      <trkpt lat="46.65991" lon="5.6022">
        <ele>506</ele>
        <time>2021-05-29T13:36:17.447Z</time>
      </trkpt>
      <trkpt lat="46.65992" lon="5.60221">
        <ele>506</ele>
        <time>2021-05-29T13:36:18.448Z</time>
      </trkpt>
      <trkpt lat="46.65992" lon="5.60221">
        <ele>506</ele>
        <time>2021-05-29T13:36:19.448Z</time>
      </trkpt>
      <trkpt lat="46.65992" lon="5.60221">
        <ele>506</ele>
        <time>2021-05-29T13:36:20.448Z</time>
      </trkpt>
      <trkpt lat="46.65992" lon="5.60221">
        <ele>506</ele>
        <time>2021-05-29T13:36:21.448Z</time>
      </trkpt>
      <trkpt lat="46.65992" lon="5.60221">
        <ele>506</ele>
        <time>2021-05-29T13:36:22.448Z</time>
      </trkpt>
      <trkpt lat="46.65992" lon="5.60221">
        <ele>506</ele>
        <time>2021-05-29T13:36:23.448Z</time>
      </trkpt>
      <trkpt lat="46.65992" lon="5.60221">
        <ele>506</ele>
        <time>2021-05-29T13:36:24.447Z</time>
      </trkpt>
      <trkpt lat="46.65992" lon="5.60221">
        <ele>507</ele>
        <time>2021-05-29T13:36:25.447Z</time>
      </trkpt>
      <trkpt lat="46.65992" lon="5.60221">
        <ele>507</ele>
        <time>2021-05-29T13:36:26.448Z</time>
      </trkpt>
      <trkpt lat="46.65992" lon="5.60221">
        <ele>507</ele>
        <time>2021-05-29T13:36:27.448Z</time>
      </trkpt>
      <trkpt lat="46.65992" lon="5.60221">
        <ele>507</ele>
        <time>2021-05-29T13:36:28.448Z</time>
      </trkpt>
      <trkpt lat="46.65992" lon="5.60221">
        <ele>506</ele>
        <time>2021-05-29T13:36:29.448Z</time>
      </trkpt>
      <trkpt lat="46.65992" lon="5.60221">
        <ele>506</ele>
        <time>2021-05-29T13:36:30.448Z</time>
      </trkpt>
      <trkpt lat="46.65992" lon="5.60221">
        <ele>506</ele>
        <time>2021-05-29T13:36:31.448Z</time>
      </trkpt>
      <trkpt lat="46.65992" lon="5.60221">
        <ele>506</ele>
        <time>2021-05-29T13:36:32.448Z</time>
      </trkpt>
      <trkpt lat="46.65992" lon="5.60221">
        <ele>506</ele>
        <time>2021-05-29T13:36:33.447Z</time>
      </trkpt>
      <trkpt lat="46.65992" lon="5.60221">
        <ele>506</ele>
        <time>2021-05-29T13:36:34.447Z</time>
      </trkpt>
      <trkpt lat="46.65992" lon="5.60221">
        <ele>505</ele>
        <time>2021-05-29T13:36:35.447Z</time>
      </trkpt>
      <trkpt lat="46.65992" lon="5.60221">
        <ele>505</ele>
        <time>2021-05-29T13:36:36.448Z</time>
      </trkpt>
      <trkpt lat="46.65992" lon="5.60221">
        <ele>505</ele>
        <time>2021-05-29T13:36:37.447Z</time>
      </trkpt>
      <trkpt lat="46.65992" lon="5.60221">
        <ele>505</ele>
        <time>2021-05-29T13:36:38.447Z</time>
      </trkpt>
      <trkpt lat="46.65992" lon="5.60221">
        <ele>505</ele>
        <time>2021-05-29T13:36:39.448Z</time>
      </trkpt>
      <trkpt lat="46.65992" lon="5.60221">
        <ele>505</ele>
        <time>2021-05-29T13:36:40.448Z</time>
      </trkpt>
      <trkpt lat="46.65992" lon="5.60221">
        <ele>505</ele>
        <time>2021-05-29T13:36:41.448Z</time>
      </trkpt>
      <trkpt lat="46.65992" lon="5.60221">
        <ele>505</ele>
        <time>2021-05-29T13:36:42.447Z</time>
      </trkpt>
      <trkpt lat="46.65992" lon="5.60221">
        <ele>505</ele>
        <time>2021-05-29T13:36:43.448Z</time>
      </trkpt>
      <trkpt lat="46.65992" lon="5.60221">
        <ele>505</ele>
        <time>2021-05-29T13:36:44.448Z</time>
      </trkpt>
      <trkpt lat="46.65992" lon="5.60221">
        <ele>505</ele>
        <time>2021-05-29T13:36:45.448Z</time>
      </trkpt>
      <trkpt lat="46.65992" lon="5.60221">
        <ele>504</ele>
        <time>2021-05-29T13:36:46.448Z</time>
      </trkpt>
      <trkpt lat="46.65992" lon="5.60221">
        <ele>504</ele>
        <time>2021-05-29T13:36:47.448Z</time>
      </trkpt>
      <trkpt lat="46.65992" lon="5.60221">
        <ele>504</ele>
        <time>2021-05-29T13:36:48.448Z</time>
      </trkpt>
      <trkpt lat="46.65992" lon="5.60221">
        <ele>504</ele>
        <time>2021-05-29T13:36:49.447Z</time>
      </trkpt>
      <trkpt lat="46.65992" lon="5.60221">
        <ele>504</ele>
        <time>2021-05-29T13:36:50.448Z</time>
      </trkpt>
      <trkpt lat="46.65992" lon="5.60221">
        <ele>504</ele>
        <time>2021-05-29T13:36:51.448Z</time>
      </trkpt>
      <trkpt lat="46.65992" lon="5.60221">
        <ele>504</ele>
        <time>2021-05-29T13:36:52.447Z</time>
      </trkpt>
      <trkpt lat="46.65992" lon="5.60218">
        <ele>504</ele>
        <time>2021-05-29T13:36:53.447Z</time>
      </trkpt>
      <trkpt lat="46.65992" lon="5.60216">
        <ele>504</ele>
        <time>2021-05-29T13:36:54.448Z</time>
      </trkpt>
      <trkpt lat="46.65992" lon="5.60214">
        <ele>504</ele>
        <time>2021-05-29T13:36:55.448Z</time>
      </trkpt>
      <trkpt lat="46.65991" lon="5.60213">
        <ele>504</ele>
        <time>2021-05-29T13:36:56.448Z</time>
      </trkpt>
      <trkpt lat="46.65991" lon="5.60212">
        <ele>504</ele>
        <time>2021-05-29T13:36:57.448Z</time>
      </trkpt>
      <trkpt lat="46.65991" lon="5.6021">
        <ele>503</ele>
        <time>2021-05-29T13:36:58.447Z</time>
      </trkpt>
      <trkpt lat="46.65991" lon="5.60208">
        <ele>503</ele>
        <time>2021-05-29T13:36:59.447Z</time>
      </trkpt>
      <trkpt lat="46.65992" lon="5.60206">
        <ele>503</ele>
        <time>2021-05-29T13:37:00.448Z</time>
      </trkpt>
      <trkpt lat="46.65992" lon="5.60204">
        <ele>503</ele>
        <time>2021-05-29T13:37:01.447Z</time>
      </trkpt>
      <trkpt lat="46.65994" lon="5.60203">
        <ele>503</ele>
        <time>2021-05-29T13:37:02.447Z</time>
      </trkpt>
      <trkpt lat="46.65995" lon="5.60201">
        <ele>503</ele>
        <time>2021-05-29T13:37:03.448Z</time>
      </trkpt>
      <trkpt lat="46.65995" lon="5.60199">
        <ele>503</ele>
        <time>2021-05-29T13:37:04.448Z</time>
      </trkpt>
      <trkpt lat="46.65995" lon="5.60198">
        <ele>503</ele>
        <time>2021-05-29T13:37:05.448Z</time>
      </trkpt>
      <trkpt lat="46.65995" lon="5.60196">
        <ele>503</ele>
        <time>2021-05-29T13:37:06.448Z</time>
      </trkpt>
      <trkpt lat="46.65994" lon="5.60194">
        <ele>502</ele>
        <time>2021-05-29T13:37:07.447Z</time>
      </trkpt>
      <trkpt lat="46.65994" lon="5.60192">
        <ele>502</ele>
        <time>2021-05-29T13:37:08.448Z</time>
      </trkpt>
      <trkpt lat="46.65994" lon="5.60191">
        <ele>502</ele>
        <time>2021-05-29T13:37:09.447Z</time>
      </trkpt>
      <trkpt lat="46.65994" lon="5.60191">
        <ele>502</ele>
        <time>2021-05-29T13:37:10.448Z</time>
      </trkpt>
      <trkpt lat="46.65993" lon="5.60191">
        <ele>502</ele>
        <time>2021-05-29T13:37:11.447Z</time>
      </trkpt>
      <trkpt lat="46.65993" lon="5.60191">
        <ele>502</ele>
        <time>2021-05-29T13:37:12.447Z</time>
      </trkpt>
      <trkpt lat="46.65992" lon="5.6019">
        <ele>502</ele>
        <time>2021-05-29T13:37:13.448Z</time>
      </trkpt>
      <trkpt lat="46.65992" lon="5.60189">
        <ele>502</ele>
        <time>2021-05-29T13:37:14.448Z</time>
      </trkpt>
      <trkpt lat="46.65991" lon="5.60187">
        <ele>502</ele>
        <time>2021-05-29T13:37:15.448Z</time>
      </trkpt>
      <trkpt lat="46.65992" lon="5.60185">
        <ele>501</ele>
        <time>2021-05-29T13:37:16.447Z</time>
      </trkpt>
      <trkpt lat="46.65992" lon="5.60184">
        <ele>501</ele>
        <time>2021-05-29T13:37:17.447Z</time>
      </trkpt>
      <trkpt lat="46.65993" lon="5.60183">
        <ele>501</ele>
        <time>2021-05-29T13:37:18.448Z</time>
      </trkpt>
      <trkpt lat="46.65994" lon="5.60182">
        <ele>501</ele>
        <time>2021-05-29T13:37:19.447Z</time>
      </trkpt>
      <trkpt lat="46.65994" lon="5.60181">
        <ele>501</ele>
        <time>2021-05-29T13:37:20.448Z</time>
      </trkpt>
      <trkpt lat="46.65996" lon="5.6018">
        <ele>501</ele>
        <time>2021-05-29T13:37:21.448Z</time>
      </trkpt>
      <trkpt lat="46.65997" lon="5.60179">
        <ele>501</ele>
        <time>2021-05-29T13:37:22.448Z</time>
      </trkpt>
      <trkpt lat="46.65998" lon="5.60179">
        <ele>500</ele>
        <time>2021-05-29T13:37:23.448Z</time>
      </trkpt>
      <trkpt lat="46.65999" lon="5.60178">
        <ele>500</ele>
        <time>2021-05-29T13:37:24.447Z</time>
      </trkpt>
      <trkpt lat="46.66" lon="5.60177">
        <ele>500</ele>
        <time>2021-05-29T13:37:25.448Z</time>
      </trkpt>
      <trkpt lat="46.66001" lon="5.60176">
        <ele>501</ele>
        <time>2021-05-29T13:37:26.448Z</time>
      </trkpt>
      <trkpt lat="46.66002" lon="5.60176">
        <ele>501</ele>
        <time>2021-05-29T13:37:27.448Z</time>
      </trkpt>
      <trkpt lat="46.66003" lon="5.60175">
        <ele>501</ele>
        <time>2021-05-29T13:37:28.448Z</time>
      </trkpt>
      <trkpt lat="46.66004" lon="5.60175">
        <ele>502</ele>
        <time>2021-05-29T13:37:29.447Z</time>
      </trkpt>
      <trkpt lat="46.66004" lon="5.60174">
        <ele>501</ele>
        <time>2021-05-29T13:37:30.448Z</time>
      </trkpt>
      <trkpt lat="46.66004" lon="5.60174">
        <ele>501</ele>
        <time>2021-05-29T13:37:31.448Z</time>
      </trkpt>
      <trkpt lat="46.66004" lon="5.60173">
        <ele>501</ele>
        <time>2021-05-29T13:37:32.448Z</time>
      </trkpt>
      <trkpt lat="46.66004" lon="5.60173">
        <ele>501</ele>
        <time>2021-05-29T13:37:33.448Z</time>
      </trkpt>
      <trkpt lat="46.66003" lon="5.60173">
        <ele>501</ele>
        <time>2021-05-29T13:37:34.447Z</time>
      </trkpt>
      <trkpt lat="46.66004" lon="5.60173">
        <ele>500</ele>
        <time>2021-05-29T13:37:35.447Z</time>
      </trkpt>
      <trkpt lat="46.66004" lon="5.60173">
        <ele>500</ele>
        <time>2021-05-29T13:37:36.448Z</time>
      </trkpt>
      <trkpt lat="46.66005" lon="5.60173">
        <ele>500</ele>
        <time>2021-05-29T13:37:37.448Z</time>
      </trkpt>
      <trkpt lat="46.66005" lon="5.60173">
        <ele>500</ele>
        <time>2021-05-29T13:37:38.448Z</time>
      </trkpt>
      <trkpt lat="46.66006" lon="5.60172">
        <ele>500</ele>
        <time>2021-05-29T13:37:39.448Z</time>
      </trkpt>
      <trkpt lat="46.66006" lon="5.60172">
        <ele>500</ele>
        <time>2021-05-29T13:37:40.448Z</time>
      </trkpt>
      <trkpt lat="46.66007" lon="5.60171">
        <ele>500</ele>
        <time>2021-05-29T13:37:41.448Z</time>
      </trkpt>
      <trkpt lat="46.66007" lon="5.60171">
        <ele>499</ele>
        <time>2021-05-29T13:37:42.448Z</time>
      </trkpt>
      <trkpt lat="46.66007" lon="5.60171">
        <ele>500</ele>
        <time>2021-05-29T13:37:43.448Z</time>
      </trkpt>
      <trkpt lat="46.66007" lon="5.60171">
        <ele>500</ele>
        <time>2021-05-29T13:37:44.448Z</time>
      </trkpt>
      <trkpt lat="46.66008" lon="5.6017">
        <ele>500</ele>
        <time>2021-05-29T13:37:45.448Z</time>
      </trkpt>
      <trkpt lat="46.66008" lon="5.60169">
        <ele>500</ele>
        <time>2021-05-29T13:37:46.448Z</time>
      </trkpt>
      <trkpt lat="46.66008" lon="5.60168">
        <ele>501</ele>
        <time>2021-05-29T13:37:47.448Z</time>
      </trkpt>
      <trkpt lat="46.66008" lon="5.60167">
        <ele>501</ele>
        <time>2021-05-29T13:37:48.448Z</time>
      </trkpt>
      <trkpt lat="46.66008" lon="5.60166">
        <ele>502</ele>
        <time>2021-05-29T13:37:49.448Z</time>
      </trkpt>
      <trkpt lat="46.66008" lon="5.60166">
        <ele>502</ele>
        <time>2021-05-29T13:37:50.448Z</time>
      </trkpt>
      <trkpt lat="46.66008" lon="5.60166">
        <ele>502</ele>
        <time>2021-05-29T13:37:51.447Z</time>
      </trkpt>
      <trkpt lat="46.66008" lon="5.60166">
        <ele>502</ele>
        <time>2021-05-29T13:37:52.448Z</time>
      </trkpt>
      <trkpt lat="46.66008" lon="5.60166">
        <ele>502</ele>
        <time>2021-05-29T13:37:53.447Z</time>
      </trkpt>
      <trkpt lat="46.66008" lon="5.60166">
        <ele>501</ele>
        <time>2021-05-29T13:37:54.448Z</time>
      </trkpt>
      <trkpt lat="46.66008" lon="5.60166">
        <ele>501</ele>
        <time>2021-05-29T13:37:55.448Z</time>
      </trkpt>
      <trkpt lat="46.66008" lon="5.60166">
        <ele>501</ele>
        <time>2021-05-29T13:37:56.447Z</time>
      </trkpt>
      <trkpt lat="46.66008" lon="5.60166">
        <ele>500</ele>
        <time>2021-05-29T13:37:57.447Z</time>
      </trkpt>
      <trkpt lat="46.66008" lon="5.60166">
        <ele>499</ele>
        <time>2021-05-29T13:37:58.448Z</time>
      </trkpt>
      <trkpt lat="46.66008" lon="5.60166">
        <ele>499</ele>
        <time>2021-05-29T13:37:59.448Z</time>
      </trkpt>
      <trkpt lat="46.66008" lon="5.60166">
        <ele>499</ele>
        <time>2021-05-29T13:38:00.448Z</time>
      </trkpt>
      <trkpt lat="46.66008" lon="5.60166">
        <ele>498</ele>
        <time>2021-05-29T13:38:01.448Z</time>
      </trkpt>
      <trkpt lat="46.66008" lon="5.60166">
        <ele>498</ele>
        <time>2021-05-29T13:38:02.448Z</time>
      </trkpt>
      <trkpt lat="46.66008" lon="5.60166">
        <ele>498</ele>
        <time>2021-05-29T13:38:03.447Z</time>
      </trkpt>
      <trkpt lat="46.66008" lon="5.60166">
        <ele>498</ele>
        <time>2021-05-29T13:38:04.448Z</time>
      </trkpt>
      <trkpt lat="46.66008" lon="5.60166">
        <ele>498</ele>
        <time>2021-05-29T13:38:05.448Z</time>
      </trkpt>
      <trkpt lat="46.66008" lon="5.60166">
        <ele>498</ele>
        <time>2021-05-29T13:38:06.447Z</time>
      </trkpt>
      <trkpt lat="46.66008" lon="5.60166">
        <ele>497</ele>
        <time>2021-05-29T13:38:07.448Z</time>
      </trkpt>
      <trkpt lat="46.66008" lon="5.60166">
        <ele>497</ele>
        <time>2021-05-29T13:38:08.448Z</time>
      </trkpt>
      <trkpt lat="46.66008" lon="5.60166">
        <ele>497</ele>
        <time>2021-05-29T13:38:09.447Z</time>
      </trkpt>
      <trkpt lat="46.66008" lon="5.60166">
        <ele>497</ele>
        <time>2021-05-29T13:38:10.448Z</time>
      </trkpt>
      <trkpt lat="46.66008" lon="5.60166">
        <ele>497</ele>
        <time>2021-05-29T13:38:11.448Z</time>
      </trkpt>
      <trkpt lat="46.66008" lon="5.60166">
        <ele>497</ele>
        <time>2021-05-29T13:38:12.448Z</time>
      </trkpt>
      <trkpt lat="46.66008" lon="5.60166">
        <ele>497</ele>
        <time>2021-05-29T13:38:13.448Z</time>
      </trkpt>
      <trkpt lat="46.66008" lon="5.60166">
        <ele>497</ele>
        <time>2021-05-29T13:38:14.448Z</time>
      </trkpt>
      <trkpt lat="46.66009" lon="5.60167">
        <ele>497</ele>
        <time>2021-05-29T13:38:15.448Z</time>
      </trkpt>
      <trkpt lat="46.66009" lon="5.60167">
        <ele>497</ele>
        <time>2021-05-29T13:38:16.448Z</time>
      </trkpt>
      <trkpt lat="46.66009" lon="5.60167">
        <ele>497</ele>
        <time>2021-05-29T13:38:17.448Z</time>
      </trkpt>
      <trkpt lat="46.66009" lon="5.60167">
        <ele>497</ele>
        <time>2021-05-29T13:38:18.447Z</time>
      </trkpt>
      <trkpt lat="46.66009" lon="5.60167">
        <ele>497</ele>
        <time>2021-05-29T13:38:19.448Z</time>
      </trkpt>
      <trkpt lat="46.66009" lon="5.60167">
        <ele>497</ele>
        <time>2021-05-29T13:38:20.447Z</time>
      </trkpt>
      <trkpt lat="46.66009" lon="5.60168">
        <ele>497</ele>
        <time>2021-05-29T13:38:21.448Z</time>
      </trkpt>
      <trkpt lat="46.66009" lon="5.60168">
        <ele>497</ele>
        <time>2021-05-29T13:38:22.448Z</time>
      </trkpt>
      <trkpt lat="46.66009" lon="5.60168">
        <ele>497</ele>
        <time>2021-05-29T13:38:23.448Z</time>
      </trkpt>
      <trkpt lat="46.66009" lon="5.60168">
        <ele>497</ele>
        <time>2021-05-29T13:38:24.448Z</time>
      </trkpt>
      <trkpt lat="46.66009" lon="5.60168">
        <ele>497</ele>
        <time>2021-05-29T13:38:25.448Z</time>
      </trkpt>
      <trkpt lat="46.66009" lon="5.60168">
        <ele>497</ele>
        <time>2021-05-29T13:38:26.447Z</time>
      </trkpt>
      <trkpt lat="46.66009" lon="5.60168">
        <ele>497</ele>
        <time>2021-05-29T13:38:27.448Z</time>
      </trkpt>
      <trkpt lat="46.66009" lon="5.60168">
        <ele>497</ele>
        <time>2021-05-29T13:38:28.448Z</time>
      </trkpt>
      <trkpt lat="46.66009" lon="5.60168">
        <ele>497</ele>
        <time>2021-05-29T13:38:29.447Z</time>
      </trkpt>
      <trkpt lat="46.66009" lon="5.60168">
        <ele>497</ele>
        <time>2021-05-29T13:38:30.448Z</time>
      </trkpt>
      <trkpt lat="46.66009" lon="5.60168">
        <ele>497</ele>
        <time>2021-05-29T13:38:31.448Z</time>
      </trkpt>
      <trkpt lat="46.66009" lon="5.60168">
        <ele>498</ele>
        <time>2021-05-29T13:38:32.448Z</time>
      </trkpt>
      <trkpt lat="46.66009" lon="5.60168">
        <ele>498</ele>
        <time>2021-05-29T13:38:33.448Z</time>
      </trkpt>
      <trkpt lat="46.6601" lon="5.60168">
        <ele>501</ele>
        <time>2021-05-29T13:38:34.448Z</time>
      </trkpt>
      <trkpt lat="46.6601" lon="5.60168">
        <ele>501</ele>
        <time>2021-05-29T13:38:35.448Z</time>
      </trkpt>
      <trkpt lat="46.6601" lon="5.60168">
        <ele>501</ele>
        <time>2021-05-29T13:38:36.447Z</time>
      </trkpt>
      <trkpt lat="46.6601" lon="5.60168">
        <ele>501</ele>
        <time>2021-05-29T13:38:37.448Z</time>
      </trkpt>
      <trkpt lat="46.6601" lon="5.60168">
        <ele>501</ele>
        <time>2021-05-29T13:38:38.448Z</time>
      </trkpt>
      <trkpt lat="46.6601" lon="5.60168">
        <ele>501</ele>
        <time>2021-05-29T13:38:39.447Z</time>
      </trkpt>
      <trkpt lat="46.6601" lon="5.60168">
        <ele>501</ele>
        <time>2021-05-29T13:38:40.448Z</time>
      </trkpt>
      <trkpt lat="46.66011" lon="5.60167">
        <ele>501</ele>
        <time>2021-05-29T13:38:41.448Z</time>
      </trkpt>
      <trkpt lat="46.66013" lon="5.60165">
        <ele>501</ele>
        <time>2021-05-29T13:38:42.447Z</time>
      </trkpt>
      <trkpt lat="46.66014" lon="5.60163">
        <ele>501</ele>
        <time>2021-05-29T13:38:43.447Z</time>
      </trkpt>
      <trkpt lat="46.66016" lon="5.60162">
        <ele>501</ele>
        <time>2021-05-29T13:38:44.448Z</time>
      </trkpt>
      <trkpt lat="46.66018" lon="5.6016">
        <ele>501</ele>
        <time>2021-05-29T13:38:45.448Z</time>
      </trkpt>
      <trkpt lat="46.6602" lon="5.60158">
        <ele>502</ele>
        <time>2021-05-29T13:38:46.448Z</time>
      </trkpt>
      <trkpt lat="46.66022" lon="5.60157">
        <ele>502</ele>
        <time>2021-05-29T13:38:47.448Z</time>
      </trkpt>
      <trkpt lat="46.66024" lon="5.60156">
        <ele>502</ele>
        <time>2021-05-29T13:38:48.448Z</time>
      </trkpt>
      <trkpt lat="46.66025" lon="5.60155">
        <ele>503</ele>
        <time>2021-05-29T13:38:49.448Z</time>
      </trkpt>
      <trkpt lat="46.66027" lon="5.60155">
        <ele>503</ele>
        <time>2021-05-29T13:38:50.448Z</time>
      </trkpt>
      <trkpt lat="46.66028" lon="5.60155">
        <ele>503</ele>
        <time>2021-05-29T13:38:51.447Z</time>
      </trkpt>
      <trkpt lat="46.66029" lon="5.60155">
        <ele>503</ele>
        <time>2021-05-29T13:38:52.448Z</time>
      </trkpt>
      <trkpt lat="46.6603" lon="5.60156">
        <ele>503</ele>
        <time>2021-05-29T13:38:53.448Z</time>
      </trkpt>
      <trkpt lat="46.6603" lon="5.60156">
        <ele>503</ele>
        <time>2021-05-29T13:38:54.448Z</time>
      </trkpt>
      <trkpt lat="46.6603" lon="5.60155">
        <ele>503</ele>
        <time>2021-05-29T13:38:55.447Z</time>
      </trkpt>
      <trkpt lat="46.6603" lon="5.60154">
        <ele>504</ele>
        <time>2021-05-29T13:38:56.448Z</time>
      </trkpt>
      <trkpt lat="46.6603" lon="5.60153">
        <ele>504</ele>
        <time>2021-05-29T13:38:57.448Z</time>
      </trkpt>
      <trkpt lat="46.66031" lon="5.60153">
        <ele>505</ele>
        <time>2021-05-29T13:38:58.448Z</time>
      </trkpt>
      <trkpt lat="46.66031" lon="5.60152">
        <ele>505</ele>
        <time>2021-05-29T13:38:59.448Z</time>
      </trkpt>
      <trkpt lat="46.66032" lon="5.60152">
        <ele>506</ele>
        <time>2021-05-29T13:39:00.448Z</time>
      </trkpt>
      <trkpt lat="46.66032" lon="5.60151">
        <ele>507</ele>
        <time>2021-05-29T13:39:01.448Z</time>
      </trkpt>
      <trkpt lat="46.66033" lon="5.6015">
        <ele>507</ele>
        <time>2021-05-29T13:39:02.448Z</time>
      </trkpt>
      <trkpt lat="46.66034" lon="5.60149">
        <ele>508</ele>
        <time>2021-05-29T13:39:03.448Z</time>
      </trkpt>
      <trkpt lat="46.66035" lon="5.60149">
        <ele>509</ele>
        <time>2021-05-29T13:39:04.448Z</time>
      </trkpt>
      <trkpt lat="46.66036" lon="5.60149">
        <ele>509</ele>
        <time>2021-05-29T13:39:05.448Z</time>
      </trkpt>
      <trkpt lat="46.66038" lon="5.60149">
        <ele>510</ele>
        <time>2021-05-29T13:39:06.447Z</time>
      </trkpt>
      <trkpt lat="46.66039" lon="5.60148">
        <ele>511</ele>
        <time>2021-05-29T13:39:07.447Z</time>
      </trkpt>
      <trkpt lat="46.6604" lon="5.60147">
        <ele>511</ele>
        <time>2021-05-29T13:39:08.447Z</time>
      </trkpt>
      <trkpt lat="46.66041" lon="5.60146">
        <ele>512</ele>
        <time>2021-05-29T13:39:09.448Z</time>
      </trkpt>
      <trkpt lat="46.66042" lon="5.60146">
        <ele>512</ele>
        <time>2021-05-29T13:39:10.447Z</time>
      </trkpt>
      <trkpt lat="46.66043" lon="5.60145">
        <ele>513</ele>
        <time>2021-05-29T13:39:11.448Z</time>
      </trkpt>
      <trkpt lat="46.66044" lon="5.60144">
        <ele>514</ele>
        <time>2021-05-29T13:39:12.448Z</time>
      </trkpt>
      <trkpt lat="46.66045" lon="5.60143">
        <ele>514</ele>
        <time>2021-05-29T13:39:13.448Z</time>
      </trkpt>
      <trkpt lat="46.66046" lon="5.60143">
        <ele>515</ele>
        <time>2021-05-29T13:39:14.448Z</time>
      </trkpt>
      <trkpt lat="46.66046" lon="5.60142">
        <ele>516</ele>
        <time>2021-05-29T13:39:15.447Z</time>
      </trkpt>
      <trkpt lat="46.66047" lon="5.60141">
        <ele>517</ele>
        <time>2021-05-29T13:39:16.447Z</time>
      </trkpt>
      <trkpt lat="46.66047" lon="5.60139">
        <ele>518</ele>
        <time>2021-05-29T13:39:17.448Z</time>
      </trkpt>
      <trkpt lat="46.66048" lon="5.60139">
        <ele>519</ele>
        <time>2021-05-29T13:39:18.447Z</time>
      </trkpt>
      <trkpt lat="46.66049" lon="5.60138">
        <ele>520</ele>
        <time>2021-05-29T13:39:19.448Z</time>
      </trkpt>
      <trkpt lat="46.6605" lon="5.60137">
        <ele>520</ele>
        <time>2021-05-29T13:39:20.448Z</time>
      </trkpt>
      <trkpt lat="46.66052" lon="5.60137">
        <ele>521</ele>
        <time>2021-05-29T13:39:21.447Z</time>
      </trkpt>
      <trkpt lat="46.66053" lon="5.60136">
        <ele>521</ele>
        <time>2021-05-29T13:39:22.448Z</time>
      </trkpt>
      <trkpt lat="46.66053" lon="5.60135">
        <ele>521</ele>
        <time>2021-05-29T13:39:23.448Z</time>
      </trkpt>
      <trkpt lat="46.66054" lon="5.60135">
        <ele>521</ele>
        <time>2021-05-29T13:39:24.448Z</time>
      </trkpt>
      <trkpt lat="46.66055" lon="5.60134">
        <ele>521</ele>
        <time>2021-05-29T13:39:25.448Z</time>
      </trkpt>
      <trkpt lat="46.66057" lon="5.60134">
        <ele>521</ele>
        <time>2021-05-29T13:39:26.448Z</time>
      </trkpt>
      <trkpt lat="46.66058" lon="5.60134">
        <ele>521</ele>
        <time>2021-05-29T13:39:27.448Z</time>
      </trkpt>
      <trkpt lat="46.66059" lon="5.60134">
        <ele>521</ele>
        <time>2021-05-29T13:39:28.448Z</time>
      </trkpt>
      <trkpt lat="46.6606" lon="5.60134">
        <ele>521</ele>
        <time>2021-05-29T13:39:29.448Z</time>
      </trkpt>
      <trkpt lat="46.66061" lon="5.60134">
        <ele>520</ele>
        <time>2021-05-29T13:39:30.448Z</time>
      </trkpt>
      <trkpt lat="46.66062" lon="5.60134">
        <ele>520</ele>
        <time>2021-05-29T13:39:31.447Z</time>
      </trkpt>
      <trkpt lat="46.66063" lon="5.60134">
        <ele>519</ele>
        <time>2021-05-29T13:39:32.448Z</time>
      </trkpt>
      <trkpt lat="46.66064" lon="5.60134">
        <ele>519</ele>
        <time>2021-05-29T13:39:33.448Z</time>
      </trkpt>
      <trkpt lat="46.66064" lon="5.60134">
        <ele>519</ele>
        <time>2021-05-29T13:39:34.448Z</time>
      </trkpt>
      <trkpt lat="46.66065" lon="5.60134">
        <ele>519</ele>
        <time>2021-05-29T13:39:35.448Z</time>
      </trkpt>
      <trkpt lat="46.66065" lon="5.60134">
        <ele>519</ele>
        <time>2021-05-29T13:39:36.448Z</time>
      </trkpt>
      <trkpt lat="46.66065" lon="5.60134">
        <ele>519</ele>
        <time>2021-05-29T13:39:37.447Z</time>
      </trkpt>
      <trkpt lat="46.66066" lon="5.60135">
        <ele>519</ele>
        <time>2021-05-29T13:39:38.448Z</time>
      </trkpt>
      <trkpt lat="46.66067" lon="5.60135">
        <ele>518</ele>
        <time>2021-05-29T13:39:39.448Z</time>
      </trkpt>
      <trkpt lat="46.66068" lon="5.60136">
        <ele>518</ele>
        <time>2021-05-29T13:39:40.448Z</time>
      </trkpt>
      <trkpt lat="46.66069" lon="5.60137">
        <ele>518</ele>
        <time>2021-05-29T13:39:41.447Z</time>
      </trkpt>
      <trkpt lat="46.6607" lon="5.60137">
        <ele>517</ele>
        <time>2021-05-29T13:39:42.447Z</time>
      </trkpt>
      <trkpt lat="46.66071" lon="5.60137">
        <ele>517</ele>
        <time>2021-05-29T13:39:43.448Z</time>
      </trkpt>
      <trkpt lat="46.66072" lon="5.60137">
        <ele>517</ele>
        <time>2021-05-29T13:39:44.447Z</time>
      </trkpt>
      <trkpt lat="46.66073" lon="5.60137">
        <ele>517</ele>
        <time>2021-05-29T13:39:45.447Z</time>
      </trkpt>
      <trkpt lat="46.66074" lon="5.60138">
        <ele>517</ele>
        <time>2021-05-29T13:39:46.448Z</time>
      </trkpt>
      <trkpt lat="46.66074" lon="5.60138">
        <ele>517</ele>
        <time>2021-05-29T13:39:47.448Z</time>
      </trkpt>
      <trkpt lat="46.66074" lon="5.60139">
        <ele>518</ele>
        <time>2021-05-29T13:39:48.448Z</time>
      </trkpt>
      <trkpt lat="46.66075" lon="5.6014">
        <ele>518</ele>
        <time>2021-05-29T13:39:49.447Z</time>
      </trkpt>
      <trkpt lat="46.66075" lon="5.60141">
        <ele>519</ele>
        <time>2021-05-29T13:39:50.448Z</time>
      </trkpt>
      <trkpt lat="46.66075" lon="5.60142">
        <ele>520</ele>
        <time>2021-05-29T13:39:51.448Z</time>
      </trkpt>
      <trkpt lat="46.66075" lon="5.60143">
        <ele>521</ele>
        <time>2021-05-29T13:39:52.448Z</time>
      </trkpt>
      <trkpt lat="46.66075" lon="5.60144">
        <ele>522</ele>
        <time>2021-05-29T13:39:53.447Z</time>
      </trkpt>
      <trkpt lat="46.66075" lon="5.60145">
        <ele>523</ele>
        <time>2021-05-29T13:39:54.447Z</time>
      </trkpt>
      <trkpt lat="46.66075" lon="5.60145">
        <ele>523</ele>
        <time>2021-05-29T13:39:55.448Z</time>
      </trkpt>
      <trkpt lat="46.66074" lon="5.60144">
        <ele>524</ele>
        <time>2021-05-29T13:39:56.448Z</time>
      </trkpt>
      <trkpt lat="46.66074" lon="5.60144">
        <ele>525</ele>
        <time>2021-05-29T13:39:57.448Z</time>
      </trkpt>
      <trkpt lat="46.66074" lon="5.60144">
        <ele>526</ele>
        <time>2021-05-29T13:39:58.448Z</time>
      </trkpt>
      <trkpt lat="46.66075" lon="5.60144">
        <ele>527</ele>
        <time>2021-05-29T13:39:59.448Z</time>
      </trkpt>
      <trkpt lat="46.66075" lon="5.60145">
        <ele>527</ele>
        <time>2021-05-29T13:40:00.447Z</time>
      </trkpt>
      <trkpt lat="46.66075" lon="5.60146">
        <ele>527</ele>
        <time>2021-05-29T13:40:01.448Z</time>
      </trkpt>
      <trkpt lat="46.66075" lon="5.60147">
        <ele>527</ele>
        <time>2021-05-29T13:40:02.448Z</time>
      </trkpt>
      <trkpt lat="46.66075" lon="5.60147">
        <ele>527</ele>
        <time>2021-05-29T13:40:03.448Z</time>
      </trkpt>
      <trkpt lat="46.66075" lon="5.60147">
        <ele>527</ele>
        <time>2021-05-29T13:40:04.448Z</time>
      </trkpt>
      <trkpt lat="46.66075" lon="5.60147">
        <ele>527</ele>
        <time>2021-05-29T13:40:05.447Z</time>
      </trkpt>
      <trkpt lat="46.66075" lon="5.60148">
        <ele>527</ele>
        <time>2021-05-29T13:40:06.447Z</time>
      </trkpt>
      <trkpt lat="46.66075" lon="5.60148">
        <ele>527</ele>
        <time>2021-05-29T13:40:07.448Z</time>
      </trkpt>
      <trkpt lat="46.66075" lon="5.60149">
        <ele>527</ele>
        <time>2021-05-29T13:40:08.447Z</time>
      </trkpt>
      <trkpt lat="46.66075" lon="5.60149">
        <ele>526</ele>
        <time>2021-05-29T13:40:09.448Z</time>
      </trkpt>
      <trkpt lat="46.66075" lon="5.60149">
        <ele>526</ele>
        <time>2021-05-29T13:40:10.448Z</time>
      </trkpt>
      <trkpt lat="46.66075" lon="5.6015">
        <ele>526</ele>
        <time>2021-05-29T13:40:11.448Z</time>
      </trkpt>
      <trkpt lat="46.66076" lon="5.6015">
        <ele>526</ele>
        <time>2021-05-29T13:40:12.447Z</time>
      </trkpt>
      <trkpt lat="46.66076" lon="5.6015">
        <ele>525</ele>
        <time>2021-05-29T13:40:13.447Z</time>
      </trkpt>
      <trkpt lat="46.66076" lon="5.6015">
        <ele>525</ele>
        <time>2021-05-29T13:40:14.447Z</time>
      </trkpt>
      <trkpt lat="46.66076" lon="5.6015">
        <ele>524</ele>
        <time>2021-05-29T13:40:15.448Z</time>
      </trkpt>
      <trkpt lat="46.66076" lon="5.60151">
        <ele>524</ele>
        <time>2021-05-29T13:40:16.447Z</time>
      </trkpt>
      <trkpt lat="46.66076" lon="5.60151">
        <ele>524</ele>
        <time>2021-05-29T13:40:17.447Z</time>
      </trkpt>
      <trkpt lat="46.66077" lon="5.60151">
        <ele>524</ele>
        <time>2021-05-29T13:40:18.447Z</time>
      </trkpt>
      <trkpt lat="46.66077" lon="5.60151">
        <ele>524</ele>
        <time>2021-05-29T13:40:19.447Z</time>
      </trkpt>
      <trkpt lat="46.66077" lon="5.60151">
        <ele>524</ele>
        <time>2021-05-29T13:40:20.448Z</time>
      </trkpt>
      <trkpt lat="46.66078" lon="5.60149">
        <ele>524</ele>
        <time>2021-05-29T13:40:21.448Z</time>
      </trkpt>
      <trkpt lat="46.66079" lon="5.60148">
        <ele>525</ele>
        <time>2021-05-29T13:40:22.448Z</time>
      </trkpt>
      <trkpt lat="46.66079" lon="5.60147">
        <ele>525</ele>
        <time>2021-05-29T13:40:23.447Z</time>
      </trkpt>
      <trkpt lat="46.6608" lon="5.60145">
        <ele>526</ele>
        <time>2021-05-29T13:40:24.447Z</time>
      </trkpt>
      <trkpt lat="46.66081" lon="5.60144">
        <ele>527</ele>
        <time>2021-05-29T13:40:25.448Z</time>
      </trkpt>
      <trkpt lat="46.66082" lon="5.60144">
        <ele>528</ele>
        <time>2021-05-29T13:40:26.448Z</time>
      </trkpt>
      <trkpt lat="46.66084" lon="5.60143">
        <ele>529</ele>
        <time>2021-05-29T13:40:27.448Z</time>
      </trkpt>
      <trkpt lat="46.66085" lon="5.60143">
        <ele>530</ele>
        <time>2021-05-29T13:40:28.448Z</time>
      </trkpt>
      <trkpt lat="46.66086" lon="5.60143">
        <ele>530</ele>
        <time>2021-05-29T13:40:29.447Z</time>
      </trkpt>
      <trkpt lat="46.66088" lon="5.60143">
        <ele>531</ele>
        <time>2021-05-29T13:40:30.448Z</time>
      </trkpt>
      <trkpt lat="46.6609" lon="5.60143">
        <ele>530</ele>
        <time>2021-05-29T13:40:31.448Z</time>
      </trkpt>
      <trkpt lat="46.66091" lon="5.60142">
        <ele>531</ele>
        <time>2021-05-29T13:40:32.447Z</time>
      </trkpt>
      <trkpt lat="46.66092" lon="5.6014">
        <ele>531</ele>
        <time>2021-05-29T13:40:33.448Z</time>
      </trkpt>
      <trkpt lat="46.66094" lon="5.60139">
        <ele>531</ele>
        <time>2021-05-29T13:40:34.448Z</time>
      </trkpt>
      <trkpt lat="46.66096" lon="5.60137">
        <ele>531</ele>
        <time>2021-05-29T13:40:35.448Z</time>
      </trkpt>
      <trkpt lat="46.66097" lon="5.60136">
        <ele>532</ele>
        <time>2021-05-29T13:40:36.448Z</time>
      </trkpt>
      <trkpt lat="46.66098" lon="5.60135">
        <ele>532</ele>
        <time>2021-05-29T13:40:37.447Z</time>
      </trkpt>
      <trkpt lat="46.66099" lon="5.60135">
        <ele>532</ele>
        <time>2021-05-29T13:40:38.447Z</time>
      </trkpt>
      <trkpt lat="46.661" lon="5.60134">
        <ele>532</ele>
        <time>2021-05-29T13:40:39.447Z</time>
      </trkpt>
      <trkpt lat="46.66101" lon="5.60134">
        <ele>533</ele>
        <time>2021-05-29T13:40:40.448Z</time>
      </trkpt>
      <trkpt lat="46.66103" lon="5.60133">
        <ele>534</ele>
        <time>2021-05-29T13:40:41.448Z</time>
      </trkpt>
      <trkpt lat="46.66104" lon="5.60133">
        <ele>534</ele>
        <time>2021-05-29T13:40:42.447Z</time>
      </trkpt>
      <trkpt lat="46.66106" lon="5.60132">
        <ele>534</ele>
        <time>2021-05-29T13:40:43.447Z</time>
      </trkpt>
      <trkpt lat="46.66107" lon="5.60132">
        <ele>534</ele>
        <time>2021-05-29T13:40:44.447Z</time>
      </trkpt>
      <trkpt lat="46.66109" lon="5.60132">
        <ele>534</ele>
        <time>2021-05-29T13:40:45.448Z</time>
      </trkpt>
      <trkpt lat="46.6611" lon="5.60131">
        <ele>534</ele>
        <time>2021-05-29T13:40:46.447Z</time>
      </trkpt>
      <trkpt lat="46.66111" lon="5.60131">
        <ele>534</ele>
        <time>2021-05-29T13:40:47.448Z</time>
      </trkpt>
      <trkpt lat="46.66112" lon="5.60131">
        <ele>534</ele>
        <time>2021-05-29T13:40:48.448Z</time>
      </trkpt>
      <trkpt lat="46.66113" lon="5.60131">
        <ele>534</ele>
        <time>2021-05-29T13:40:49.448Z</time>
      </trkpt>
      <trkpt lat="46.66115" lon="5.6013">
        <ele>535</ele>
        <time>2021-05-29T13:40:50.448Z</time>
      </trkpt>
      <trkpt lat="46.66116" lon="5.60129">
        <ele>535</ele>
        <time>2021-05-29T13:40:51.448Z</time>
      </trkpt>
      <trkpt lat="46.66117" lon="5.60129">
        <ele>536</ele>
        <time>2021-05-29T13:40:52.448Z</time>
      </trkpt>
      <trkpt lat="46.66119" lon="5.60128">
        <ele>536</ele>
        <time>2021-05-29T13:40:53.448Z</time>
      </trkpt>
      <trkpt lat="46.6612" lon="5.60128">
        <ele>536</ele>
        <time>2021-05-29T13:40:54.448Z</time>
      </trkpt>
      <trkpt lat="46.66121" lon="5.60127">
        <ele>536</ele>
        <time>2021-05-29T13:40:55.448Z</time>
      </trkpt>
      <trkpt lat="46.66123" lon="5.60127">
        <ele>536</ele>
        <time>2021-05-29T13:40:56.448Z</time>
      </trkpt>
      <trkpt lat="46.66125" lon="5.60128">
        <ele>536</ele>
        <time>2021-05-29T13:40:57.447Z</time>
      </trkpt>
      <trkpt lat="46.66126" lon="5.60128">
        <ele>536</ele>
        <time>2021-05-29T13:40:58.448Z</time>
      </trkpt>
      <trkpt lat="46.66128" lon="5.60128">
        <ele>536</ele>
        <time>2021-05-29T13:40:59.448Z</time>
      </trkpt>
      <trkpt lat="46.6613" lon="5.60129">
        <ele>536</ele>
        <time>2021-05-29T13:41:00.447Z</time>
      </trkpt>
      <trkpt lat="46.66131" lon="5.6013">
        <ele>535</ele>
        <time>2021-05-29T13:41:01.448Z</time>
      </trkpt>
      <trkpt lat="46.66133" lon="5.6013">
        <ele>535</ele>
        <time>2021-05-29T13:41:02.447Z</time>
      </trkpt>
      <trkpt lat="46.66134" lon="5.6013">
        <ele>535</ele>
        <time>2021-05-29T13:41:03.447Z</time>
      </trkpt>
      <trkpt lat="46.66136" lon="5.6013">
        <ele>535</ele>
        <time>2021-05-29T13:41:04.448Z</time>
      </trkpt>
      <trkpt lat="46.66137" lon="5.60131">
        <ele>535</ele>
        <time>2021-05-29T13:41:05.447Z</time>
      </trkpt>
      <trkpt lat="46.66138" lon="5.60131">
        <ele>535</ele>
        <time>2021-05-29T13:41:06.448Z</time>
      </trkpt>
      <trkpt lat="46.66139" lon="5.60131">
        <ele>534</ele>
        <time>2021-05-29T13:41:07.448Z</time>
      </trkpt>
      <trkpt lat="46.6614" lon="5.60132">
        <ele>534</ele>
        <time>2021-05-29T13:41:08.447Z</time>
      </trkpt>
      <trkpt lat="46.66142" lon="5.60132">
        <ele>533</ele>
        <time>2021-05-29T13:41:09.448Z</time>
      </trkpt>
      <trkpt lat="46.66143" lon="5.60133">
        <ele>533</ele>
        <time>2021-05-29T13:41:10.448Z</time>
      </trkpt>
      <trkpt lat="46.66145" lon="5.60134">
        <ele>533</ele>
        <time>2021-05-29T13:41:11.447Z</time>
      </trkpt>
      <trkpt lat="46.66146" lon="5.60135">
        <ele>533</ele>
        <time>2021-05-29T13:41:12.448Z</time>
      </trkpt>
      <trkpt lat="46.66148" lon="5.60136">
        <ele>533</ele>
        <time>2021-05-29T13:41:13.447Z</time>
      </trkpt>
      <trkpt lat="46.6615" lon="5.60136">
        <ele>532</ele>
        <time>2021-05-29T13:41:14.447Z</time>
      </trkpt>
      <trkpt lat="46.66152" lon="5.60136">
        <ele>532</ele>
        <time>2021-05-29T13:41:15.448Z</time>
      </trkpt>
      <trkpt lat="46.66153" lon="5.60137">
        <ele>532</ele>
        <time>2021-05-29T13:41:16.448Z</time>
      </trkpt>
      <trkpt lat="46.66154" lon="5.60137">
        <ele>532</ele>
        <time>2021-05-29T13:41:17.448Z</time>
      </trkpt>
      <trkpt lat="46.66156" lon="5.60137">
        <ele>532</ele>
        <time>2021-05-29T13:41:18.448Z</time>
      </trkpt>
      <trkpt lat="46.66157" lon="5.60137">
        <ele>532</ele>
        <time>2021-05-29T13:41:19.448Z</time>
      </trkpt>
      <trkpt lat="46.66158" lon="5.60137">
        <ele>532</ele>
        <time>2021-05-29T13:41:20.448Z</time>
      </trkpt>
      <trkpt lat="46.6616" lon="5.60138">
        <ele>532</ele>
        <time>2021-05-29T13:41:21.448Z</time>
      </trkpt>
      <trkpt lat="46.66161" lon="5.60138">
        <ele>533</ele>
        <time>2021-05-29T13:41:22.447Z</time>
      </trkpt>
      <trkpt lat="46.66163" lon="5.60139">
        <ele>533</ele>
        <time>2021-05-29T13:41:23.448Z</time>
      </trkpt>
      <trkpt lat="46.66164" lon="5.6014">
        <ele>534</ele>
        <time>2021-05-29T13:41:24.447Z</time>
      </trkpt>
      <trkpt lat="46.66165" lon="5.60141">
        <ele>534</ele>
        <time>2021-05-29T13:41:25.448Z</time>
      </trkpt>
      <trkpt lat="46.66166" lon="5.60142">
        <ele>534</ele>
        <time>2021-05-29T13:41:26.447Z</time>
      </trkpt>
      <trkpt lat="46.66167" lon="5.60143">
        <ele>535</ele>
        <time>2021-05-29T13:41:27.447Z</time>
      </trkpt>
      <trkpt lat="46.66168" lon="5.60144">
        <ele>535</ele>
        <time>2021-05-29T13:41:28.448Z</time>
      </trkpt>
      <trkpt lat="46.66169" lon="5.60146">
        <ele>536</ele>
        <time>2021-05-29T13:41:29.448Z</time>
      </trkpt>
      <trkpt lat="46.66169" lon="5.60147">
        <ele>537</ele>
        <time>2021-05-29T13:41:30.448Z</time>
      </trkpt>
      <trkpt lat="46.6617" lon="5.60149">
        <ele>538</ele>
        <time>2021-05-29T13:41:31.447Z</time>
      </trkpt>
      <trkpt lat="46.6617" lon="5.60151">
        <ele>539</ele>
        <time>2021-05-29T13:41:32.447Z</time>
      </trkpt>
      <trkpt lat="46.6617" lon="5.60153">
        <ele>539</ele>
        <time>2021-05-29T13:41:33.448Z</time>
      </trkpt>
      <trkpt lat="46.6617" lon="5.60154">
        <ele>540</ele>
        <time>2021-05-29T13:41:34.447Z</time>
      </trkpt>
      <trkpt lat="46.66171" lon="5.60156">
        <ele>541</ele>
        <time>2021-05-29T13:41:35.448Z</time>
      </trkpt>
      <trkpt lat="46.66171" lon="5.60158">
        <ele>542</ele>
        <time>2021-05-29T13:41:36.448Z</time>
      </trkpt>
      <trkpt lat="46.66172" lon="5.6016">
        <ele>542</ele>
        <time>2021-05-29T13:41:37.448Z</time>
      </trkpt>
      <trkpt lat="46.66173" lon="5.60162">
        <ele>543</ele>
        <time>2021-05-29T13:41:38.448Z</time>
      </trkpt>
      <trkpt lat="46.66173" lon="5.60163">
        <ele>544</ele>
        <time>2021-05-29T13:41:39.448Z</time>
      </trkpt>
      <trkpt lat="46.66173" lon="5.60164">
        <ele>544</ele>
        <time>2021-05-29T13:41:40.448Z</time>
      </trkpt>
      <trkpt lat="46.66173" lon="5.60165">
        <ele>545</ele>
        <time>2021-05-29T13:41:41.448Z</time>
      </trkpt>
      <trkpt lat="46.66173" lon="5.60166">
        <ele>545</ele>
        <time>2021-05-29T13:41:42.448Z</time>
      </trkpt>
      <trkpt lat="46.66174" lon="5.60167">
        <ele>546</ele>
        <time>2021-05-29T13:41:43.448Z</time>
      </trkpt>
      <trkpt lat="46.66175" lon="5.60169">
        <ele>546</ele>
        <time>2021-05-29T13:41:44.447Z</time>
      </trkpt>
      <trkpt lat="46.66177" lon="5.60169">
        <ele>547</ele>
        <time>2021-05-29T13:41:45.448Z</time>
      </trkpt>
      <trkpt lat="46.66178" lon="5.60171">
        <ele>547</ele>
        <time>2021-05-29T13:41:46.447Z</time>
      </trkpt>
      <trkpt lat="46.66179" lon="5.60173">
        <ele>547</ele>
        <time>2021-05-29T13:41:47.447Z</time>
      </trkpt>
      <trkpt lat="46.6618" lon="5.60175">
        <ele>548</ele>
        <time>2021-05-29T13:41:48.447Z</time>
      </trkpt>
      <trkpt lat="46.6618" lon="5.60176">
        <ele>548</ele>
        <time>2021-05-29T13:41:49.448Z</time>
      </trkpt>
      <trkpt lat="46.66181" lon="5.60178">
        <ele>549</ele>
        <time>2021-05-29T13:41:50.448Z</time>
      </trkpt>
      <trkpt lat="46.66181" lon="5.60179">
        <ele>550</ele>
        <time>2021-05-29T13:41:51.448Z</time>
      </trkpt>
      <trkpt lat="46.66181" lon="5.6018">
        <ele>550</ele>
        <time>2021-05-29T13:41:52.447Z</time>
      </trkpt>
      <trkpt lat="46.66181" lon="5.60181">
        <ele>551</ele>
        <time>2021-05-29T13:41:53.447Z</time>
      </trkpt>
      <trkpt lat="46.66181" lon="5.60182">
        <ele>551</ele>
        <time>2021-05-29T13:41:54.447Z</time>
      </trkpt>
      <trkpt lat="46.66181" lon="5.60182">
        <ele>552</ele>
        <time>2021-05-29T13:41:55.448Z</time>
      </trkpt>
      <trkpt lat="46.66182" lon="5.60183">
        <ele>552</ele>
        <time>2021-05-29T13:41:56.447Z</time>
      </trkpt>
      <trkpt lat="46.66183" lon="5.60184">
        <ele>553</ele>
        <time>2021-05-29T13:41:57.448Z</time>
      </trkpt>
      <trkpt lat="46.66183" lon="5.60186">
        <ele>553</ele>
        <time>2021-05-29T13:41:58.447Z</time>
      </trkpt>
      <trkpt lat="46.66184" lon="5.60187">
        <ele>553</ele>
        <time>2021-05-29T13:41:59.448Z</time>
      </trkpt>
      <trkpt lat="46.66185" lon="5.60188">
        <ele>553</ele>
        <time>2021-05-29T13:42:00.448Z</time>
      </trkpt>
      <trkpt lat="46.66186" lon="5.60189">
        <ele>553</ele>
        <time>2021-05-29T13:42:01.447Z</time>
      </trkpt>
      <trkpt lat="46.66187" lon="5.6019">
        <ele>553</ele>
        <time>2021-05-29T13:42:02.448Z</time>
      </trkpt>
      <trkpt lat="46.66189" lon="5.60191">
        <ele>553</ele>
        <time>2021-05-29T13:42:03.448Z</time>
      </trkpt>
      <trkpt lat="46.6619" lon="5.6019">
        <ele>553</ele>
        <time>2021-05-29T13:42:04.448Z</time>
      </trkpt>
      <trkpt lat="46.66191" lon="5.6019">
        <ele>553</ele>
        <time>2021-05-29T13:42:05.448Z</time>
      </trkpt>
      <trkpt lat="46.66193" lon="5.6019">
        <ele>553</ele>
        <time>2021-05-29T13:42:06.447Z</time>
      </trkpt>
      <trkpt lat="46.66194" lon="5.60191">
        <ele>553</ele>
        <time>2021-05-29T13:42:07.448Z</time>
      </trkpt>
      <trkpt lat="46.66197" lon="5.60193">
        <ele>553</ele>
        <time>2021-05-29T13:42:08.448Z</time>
      </trkpt>
      <trkpt lat="46.66198" lon="5.60194">
        <ele>553</ele>
        <time>2021-05-29T13:42:09.447Z</time>
      </trkpt>
      <trkpt lat="46.66199" lon="5.60195">
        <ele>553</ele>
        <time>2021-05-29T13:42:10.448Z</time>
      </trkpt>
      <trkpt lat="46.662" lon="5.60196">
        <ele>553</ele>
        <time>2021-05-29T13:42:11.448Z</time>
      </trkpt>
      <trkpt lat="46.66201" lon="5.60197">
        <ele>553</ele>
        <time>2021-05-29T13:42:12.447Z</time>
      </trkpt>
      <trkpt lat="46.66202" lon="5.60198">
        <ele>553</ele>
        <time>2021-05-29T13:42:13.448Z</time>
      </trkpt>
      <trkpt lat="46.66203" lon="5.60199">
        <ele>554</ele>
        <time>2021-05-29T13:42:14.448Z</time>
      </trkpt>
      <trkpt lat="46.66205" lon="5.60201">
        <ele>554</ele>
        <time>2021-05-29T13:42:15.448Z</time>
      </trkpt>
      <trkpt lat="46.66207" lon="5.60203">
        <ele>554</ele>
        <time>2021-05-29T13:42:16.448Z</time>
      </trkpt>
      <trkpt lat="46.66208" lon="5.60204">
        <ele>553</ele>
        <time>2021-05-29T13:42:17.448Z</time>
      </trkpt>
      <trkpt lat="46.6621" lon="5.60206">
        <ele>553</ele>
        <time>2021-05-29T13:42:18.448Z</time>
      </trkpt>
      <trkpt lat="46.66212" lon="5.60207">
        <ele>553</ele>
        <time>2021-05-29T13:42:19.448Z</time>
      </trkpt>
      <trkpt lat="46.66214" lon="5.60209">
        <ele>553</ele>
        <time>2021-05-29T13:42:20.448Z</time>
      </trkpt>
      <trkpt lat="46.66215" lon="5.6021">
        <ele>552</ele>
        <time>2021-05-29T13:42:21.448Z</time>
      </trkpt>
      <trkpt lat="46.66216" lon="5.60212">
        <ele>552</ele>
        <time>2021-05-29T13:42:22.448Z</time>
      </trkpt>
      <trkpt lat="46.66217" lon="5.60214">
        <ele>552</ele>
        <time>2021-05-29T13:42:23.447Z</time>
      </trkpt>
      <trkpt lat="46.66217" lon="5.60216">
        <ele>552</ele>
        <time>2021-05-29T13:42:24.448Z</time>
      </trkpt>
      <trkpt lat="46.66218" lon="5.60217">
        <ele>552</ele>
        <time>2021-05-29T13:42:25.447Z</time>
      </trkpt>
      <trkpt lat="46.66219" lon="5.60218">
        <ele>552</ele>
        <time>2021-05-29T13:42:26.448Z</time>
      </trkpt>
      <trkpt lat="46.6622" lon="5.60219">
        <ele>552</ele>
        <time>2021-05-29T13:42:27.448Z</time>
      </trkpt>
      <trkpt lat="46.6622" lon="5.6022">
        <ele>552</ele>
        <time>2021-05-29T13:42:28.448Z</time>
      </trkpt>
      <trkpt lat="46.6622" lon="5.60221">
        <ele>552</ele>
        <time>2021-05-29T13:42:29.448Z</time>
      </trkpt>
      <trkpt lat="46.66221" lon="5.60221">
        <ele>552</ele>
        <time>2021-05-29T13:42:30.448Z</time>
      </trkpt>
      <trkpt lat="46.66221" lon="5.60222">
        <ele>552</ele>
        <time>2021-05-29T13:42:31.447Z</time>
      </trkpt>
      <trkpt lat="46.66222" lon="5.60223">
        <ele>552</ele>
        <time>2021-05-29T13:42:32.448Z</time>
      </trkpt>
      <trkpt lat="46.66223" lon="5.60225">
        <ele>552</ele>
        <time>2021-05-29T13:42:33.448Z</time>
      </trkpt>
      <trkpt lat="46.66224" lon="5.60226">
        <ele>552</ele>
        <time>2021-05-29T13:42:34.448Z</time>
      </trkpt>
      <trkpt lat="46.66225" lon="5.60227">
        <ele>552</ele>
        <time>2021-05-29T13:42:35.447Z</time>
      </trkpt>
      <trkpt lat="46.66226" lon="5.60229">
        <ele>552</ele>
        <time>2021-05-29T13:42:36.447Z</time>
      </trkpt>
      <trkpt lat="46.66227" lon="5.60231">
        <ele>552</ele>
        <time>2021-05-29T13:42:37.447Z</time>
      </trkpt>
      <trkpt lat="46.66227" lon="5.60233">
        <ele>552</ele>
        <time>2021-05-29T13:42:38.448Z</time>
      </trkpt>
      <trkpt lat="46.66227" lon="5.60235">
        <ele>553</ele>
        <time>2021-05-29T13:42:39.448Z</time>
      </trkpt>
      <trkpt lat="46.66228" lon="5.60237">
        <ele>553</ele>
        <time>2021-05-29T13:42:40.448Z</time>
      </trkpt>
      <trkpt lat="46.66229" lon="5.60239">
        <ele>554</ele>
        <time>2021-05-29T13:42:41.448Z</time>
      </trkpt>
      <trkpt lat="46.6623" lon="5.6024">
        <ele>554</ele>
        <time>2021-05-29T13:42:42.447Z</time>
      </trkpt>
      <trkpt lat="46.66232" lon="5.60241">
        <ele>554</ele>
        <time>2021-05-29T13:42:43.448Z</time>
      </trkpt>
      <trkpt lat="46.66233" lon="5.60242">
        <ele>555</ele>
        <time>2021-05-29T13:42:44.448Z</time>
      </trkpt>
      <trkpt lat="46.66235" lon="5.60243">
        <ele>555</ele>
        <time>2021-05-29T13:42:45.448Z</time>
      </trkpt>
      <trkpt lat="46.66238" lon="5.60244">
        <ele>555</ele>
        <time>2021-05-29T13:42:46.448Z</time>
      </trkpt>
      <trkpt lat="46.6624" lon="5.60245">
        <ele>555</ele>
        <time>2021-05-29T13:42:47.447Z</time>
      </trkpt>
      <trkpt lat="46.66242" lon="5.60246">
        <ele>555</ele>
        <time>2021-05-29T13:42:48.447Z</time>
      </trkpt>
      <trkpt lat="46.66243" lon="5.60247">
        <ele>554</ele>
        <time>2021-05-29T13:42:49.448Z</time>
      </trkpt>
      <trkpt lat="46.66245" lon="5.60248">
        <ele>554</ele>
        <time>2021-05-29T13:42:50.448Z</time>
      </trkpt>
      <trkpt lat="46.66246" lon="5.60248">
        <ele>554</ele>
        <time>2021-05-29T13:42:51.448Z</time>
      </trkpt>
      <trkpt lat="46.66247" lon="5.60249">
        <ele>554</ele>
        <time>2021-05-29T13:42:52.448Z</time>
      </trkpt>
      <trkpt lat="46.66248" lon="5.6025">
        <ele>555</ele>
        <time>2021-05-29T13:42:53.447Z</time>
      </trkpt>
      <trkpt lat="46.66249" lon="5.60251">
        <ele>555</ele>
        <time>2021-05-29T13:42:54.448Z</time>
      </trkpt>
      <trkpt lat="46.66251" lon="5.60251">
        <ele>556</ele>
        <time>2021-05-29T13:42:55.448Z</time>
      </trkpt>
      <trkpt lat="46.66252" lon="5.60251">
        <ele>556</ele>
        <time>2021-05-29T13:42:56.448Z</time>
      </trkpt>
      <trkpt lat="46.66254" lon="5.60251">
        <ele>556</ele>
        <time>2021-05-29T13:42:57.448Z</time>
      </trkpt>
      <trkpt lat="46.66255" lon="5.60251">
        <ele>557</ele>
        <time>2021-05-29T13:42:58.448Z</time>
      </trkpt>
      <trkpt lat="46.66256" lon="5.60252">
        <ele>557</ele>
        <time>2021-05-29T13:42:59.448Z</time>
      </trkpt>
      <trkpt lat="46.66258" lon="5.60252">
        <ele>558</ele>
        <time>2021-05-29T13:43:00.448Z</time>
      </trkpt>
      <trkpt lat="46.66259" lon="5.60253">
        <ele>558</ele>
        <time>2021-05-29T13:43:01.448Z</time>
      </trkpt>
      <trkpt lat="46.6626" lon="5.60254">
        <ele>559</ele>
        <time>2021-05-29T13:43:02.448Z</time>
      </trkpt>
      <trkpt lat="46.66262" lon="5.60255">
        <ele>559</ele>
        <time>2021-05-29T13:43:03.447Z</time>
      </trkpt>
      <trkpt lat="46.66264" lon="5.60257">
        <ele>559</ele>
        <time>2021-05-29T13:43:04.448Z</time>
      </trkpt>
      <trkpt lat="46.66265" lon="5.60259">
        <ele>559</ele>
        <time>2021-05-29T13:43:05.447Z</time>
      </trkpt>
      <trkpt lat="46.66268" lon="5.60261">
        <ele>559</ele>
        <time>2021-05-29T13:43:06.447Z</time>
      </trkpt>
      <trkpt lat="46.66269" lon="5.60263">
        <ele>559</ele>
        <time>2021-05-29T13:43:07.448Z</time>
      </trkpt>
      <trkpt lat="46.66271" lon="5.60265">
        <ele>558</ele>
        <time>2021-05-29T13:43:08.447Z</time>
      </trkpt>
      <trkpt lat="46.66272" lon="5.60267">
        <ele>558</ele>
        <time>2021-05-29T13:43:09.447Z</time>
      </trkpt>
      <trkpt lat="46.66273" lon="5.60269">
        <ele>558</ele>
        <time>2021-05-29T13:43:10.447Z</time>
      </trkpt>
      <trkpt lat="46.66274" lon="5.6027">
        <ele>558</ele>
        <time>2021-05-29T13:43:11.448Z</time>
      </trkpt>
      <trkpt lat="46.66275" lon="5.6027">
        <ele>558</ele>
        <time>2021-05-29T13:43:12.448Z</time>
      </trkpt>
      <trkpt lat="46.66275" lon="5.60272">
        <ele>557</ele>
        <time>2021-05-29T13:43:13.448Z</time>
      </trkpt>
      <trkpt lat="46.66275" lon="5.60273">
        <ele>557</ele>
        <time>2021-05-29T13:43:14.448Z</time>
      </trkpt>
      <trkpt lat="46.66275" lon="5.60275">
        <ele>557</ele>
        <time>2021-05-29T13:43:15.447Z</time>
      </trkpt>
      <trkpt lat="46.66276" lon="5.60277">
        <ele>557</ele>
        <time>2021-05-29T13:43:16.447Z</time>
      </trkpt>
      <trkpt lat="46.66277" lon="5.6028">
        <ele>557</ele>
        <time>2021-05-29T13:43:17.448Z</time>
      </trkpt>
      <trkpt lat="46.66279" lon="5.60283">
        <ele>557</ele>
        <time>2021-05-29T13:43:18.448Z</time>
      </trkpt>
      <trkpt lat="46.66281" lon="5.60286">
        <ele>557</ele>
        <time>2021-05-29T13:43:19.448Z</time>
      </trkpt>
      <trkpt lat="46.66283" lon="5.60289">
        <ele>557</ele>
        <time>2021-05-29T13:43:20.448Z</time>
      </trkpt>
      <trkpt lat="46.66285" lon="5.60292">
        <ele>557</ele>
        <time>2021-05-29T13:43:21.447Z</time>
      </trkpt>
      <trkpt lat="46.66287" lon="5.60295">
        <ele>558</ele>
        <time>2021-05-29T13:43:22.448Z</time>
      </trkpt>
      <trkpt lat="46.66289" lon="5.60298">
        <ele>558</ele>
        <time>2021-05-29T13:43:23.448Z</time>
      </trkpt>
      <trkpt lat="46.66291" lon="5.60301">
        <ele>559</ele>
        <time>2021-05-29T13:43:24.448Z</time>
      </trkpt>
      <trkpt lat="46.66293" lon="5.60304">
        <ele>559</ele>
        <time>2021-05-29T13:43:25.448Z</time>
      </trkpt>
      <trkpt lat="46.66294" lon="5.60307">
        <ele>559</ele>
        <time>2021-05-29T13:43:26.447Z</time>
      </trkpt>
      <trkpt lat="46.66296" lon="5.60309">
        <ele>559</ele>
        <time>2021-05-29T13:43:27.447Z</time>
      </trkpt>
      <trkpt lat="46.66297" lon="5.60311">
        <ele>559</ele>
        <time>2021-05-29T13:43:28.448Z</time>
      </trkpt>
      <trkpt lat="46.66298" lon="5.60313">
        <ele>558</ele>
        <time>2021-05-29T13:43:29.447Z</time>
      </trkpt>
      <trkpt lat="46.66299" lon="5.60315">
        <ele>558</ele>
        <time>2021-05-29T13:43:30.448Z</time>
      </trkpt>
      <trkpt lat="46.663" lon="5.60316">
        <ele>557</ele>
        <time>2021-05-29T13:43:31.448Z</time>
      </trkpt>
      <trkpt lat="46.66301" lon="5.60318">
        <ele>557</ele>
        <time>2021-05-29T13:43:32.448Z</time>
      </trkpt>
      <trkpt lat="46.66302" lon="5.60321">
        <ele>556</ele>
        <time>2021-05-29T13:43:33.448Z</time>
      </trkpt>
      <trkpt lat="46.66304" lon="5.60323">
        <ele>556</ele>
        <time>2021-05-29T13:43:34.448Z</time>
      </trkpt>
      <trkpt lat="46.66305" lon="5.60325">
        <ele>556</ele>
        <time>2021-05-29T13:43:35.448Z</time>
      </trkpt>
      <trkpt lat="46.66306" lon="5.60327">
        <ele>556</ele>
        <time>2021-05-29T13:43:36.448Z</time>
      </trkpt>
      <trkpt lat="46.66307" lon="5.60329">
        <ele>556</ele>
        <time>2021-05-29T13:43:37.447Z</time>
      </trkpt>
      <trkpt lat="46.66308" lon="5.60332">
        <ele>556</ele>
        <time>2021-05-29T13:43:38.448Z</time>
      </trkpt>
      <trkpt lat="46.66309" lon="5.60334">
        <ele>556</ele>
        <time>2021-05-29T13:43:39.447Z</time>
      </trkpt>
      <trkpt lat="46.66311" lon="5.60336">
        <ele>556</ele>
        <time>2021-05-29T13:43:40.448Z</time>
      </trkpt>
      <trkpt lat="46.66312" lon="5.60338">
        <ele>555</ele>
        <time>2021-05-29T13:43:41.448Z</time>
      </trkpt>
      <trkpt lat="46.66314" lon="5.60341">
        <ele>555</ele>
        <time>2021-05-29T13:43:42.447Z</time>
      </trkpt>
      <trkpt lat="46.66316" lon="5.60344">
        <ele>554</ele>
        <time>2021-05-29T13:43:43.448Z</time>
      </trkpt>
      <trkpt lat="46.66317" lon="5.60346">
        <ele>554</ele>
        <time>2021-05-29T13:43:44.448Z</time>
      </trkpt>
      <trkpt lat="46.66319" lon="5.60349">
        <ele>554</ele>
        <time>2021-05-29T13:43:45.447Z</time>
      </trkpt>
      <trkpt lat="46.66321" lon="5.60351">
        <ele>553</ele>
        <time>2021-05-29T13:43:46.448Z</time>
      </trkpt>
      <trkpt lat="46.66322" lon="5.60353">
        <ele>553</ele>
        <time>2021-05-29T13:43:47.448Z</time>
      </trkpt>
      <trkpt lat="46.66324" lon="5.60355">
        <ele>553</ele>
        <time>2021-05-29T13:43:48.448Z</time>
      </trkpt>
      <trkpt lat="46.66325" lon="5.60358">
        <ele>553</ele>
        <time>2021-05-29T13:43:49.448Z</time>
      </trkpt>
      <trkpt lat="46.66327" lon="5.6036">
        <ele>553</ele>
        <time>2021-05-29T13:43:50.447Z</time>
      </trkpt>
      <trkpt lat="46.66329" lon="5.60362">
        <ele>553</ele>
        <time>2021-05-29T13:43:51.448Z</time>
      </trkpt>
      <trkpt lat="46.6633" lon="5.60365">
        <ele>553</ele>
        <time>2021-05-29T13:43:52.448Z</time>
      </trkpt>
      <trkpt lat="46.66331" lon="5.60367">
        <ele>552</ele>
        <time>2021-05-29T13:43:53.448Z</time>
      </trkpt>
      <trkpt lat="46.66333" lon="5.6037">
        <ele>552</ele>
        <time>2021-05-29T13:43:54.448Z</time>
      </trkpt>
      <trkpt lat="46.66335" lon="5.60372">
        <ele>552</ele>
        <time>2021-05-29T13:43:55.447Z</time>
      </trkpt>
      <trkpt lat="46.66336" lon="5.60375">
        <ele>552</ele>
        <time>2021-05-29T13:43:56.447Z</time>
      </trkpt>
      <trkpt lat="46.66338" lon="5.60377">
        <ele>552</ele>
        <time>2021-05-29T13:43:57.447Z</time>
      </trkpt>
      <trkpt lat="46.6634" lon="5.6038">
        <ele>552</ele>
        <time>2021-05-29T13:43:58.448Z</time>
      </trkpt>
      <trkpt lat="46.66341" lon="5.60383">
        <ele>552</ele>
        <time>2021-05-29T13:43:59.448Z</time>
      </trkpt>
      <trkpt lat="46.66343" lon="5.60386">
        <ele>552</ele>
        <time>2021-05-29T13:44:00.448Z</time>
      </trkpt>
      <trkpt lat="46.66344" lon="5.60389">
        <ele>552</ele>
        <time>2021-05-29T13:44:01.447Z</time>
      </trkpt>
      <trkpt lat="46.66345" lon="5.60391">
        <ele>552</ele>
        <time>2021-05-29T13:44:02.448Z</time>
      </trkpt>
      <trkpt lat="46.66347" lon="5.60395">
        <ele>552</ele>
        <time>2021-05-29T13:44:03.447Z</time>
      </trkpt>
      <trkpt lat="46.66349" lon="5.60398">
        <ele>552</ele>
        <time>2021-05-29T13:44:04.448Z</time>
      </trkpt>
      <trkpt lat="46.6635" lon="5.60401">
        <ele>552</ele>
        <time>2021-05-29T13:44:05.448Z</time>
      </trkpt>
      <trkpt lat="46.66352" lon="5.60404">
        <ele>552</ele>
        <time>2021-05-29T13:44:06.447Z</time>
      </trkpt>
      <trkpt lat="46.66353" lon="5.60406">
        <ele>553</ele>
        <time>2021-05-29T13:44:07.448Z</time>
      </trkpt>
      <trkpt lat="46.66355" lon="5.60409">
        <ele>553</ele>
        <time>2021-05-29T13:44:08.447Z</time>
      </trkpt>
      <trkpt lat="46.66356" lon="5.60413">
        <ele>554</ele>
        <time>2021-05-29T13:44:09.447Z</time>
      </trkpt>
      <trkpt lat="46.66357" lon="5.60415">
        <ele>554</ele>
        <time>2021-05-29T13:44:10.448Z</time>
      </trkpt>
      <trkpt lat="46.66359" lon="5.60418">
        <ele>555</ele>
        <time>2021-05-29T13:44:11.448Z</time>
      </trkpt>
      <trkpt lat="46.6636" lon="5.60421">
        <ele>555</ele>
        <time>2021-05-29T13:44:12.448Z</time>
      </trkpt>
      <trkpt lat="46.66361" lon="5.60424">
        <ele>555</ele>
        <time>2021-05-29T13:44:13.448Z</time>
      </trkpt>
      <trkpt lat="46.66363" lon="5.60427">
        <ele>555</ele>
        <time>2021-05-29T13:44:14.448Z</time>
      </trkpt>
      <trkpt lat="46.66364" lon="5.6043">
        <ele>555</ele>
        <time>2021-05-29T13:44:15.448Z</time>
      </trkpt>
      <trkpt lat="46.66364" lon="5.60433">
        <ele>555</ele>
        <time>2021-05-29T13:44:16.447Z</time>
      </trkpt>
      <trkpt lat="46.66366" lon="5.60436">
        <ele>555</ele>
        <time>2021-05-29T13:44:17.447Z</time>
      </trkpt>
      <trkpt lat="46.66367" lon="5.60439">
        <ele>555</ele>
        <time>2021-05-29T13:44:18.448Z</time>
      </trkpt>
      <trkpt lat="46.66368" lon="5.60442">
        <ele>555</ele>
        <time>2021-05-29T13:44:19.448Z</time>
      </trkpt>
      <trkpt lat="46.66369" lon="5.60445">
        <ele>554</ele>
        <time>2021-05-29T13:44:20.448Z</time>
      </trkpt>
      <trkpt lat="46.6637" lon="5.60447">
        <ele>554</ele>
        <time>2021-05-29T13:44:21.448Z</time>
      </trkpt>
      <trkpt lat="46.66372" lon="5.6045">
        <ele>553</ele>
        <time>2021-05-29T13:44:22.448Z</time>
      </trkpt>
      <trkpt lat="46.66373" lon="5.60452">
        <ele>553</ele>
        <time>2021-05-29T13:44:23.447Z</time>
      </trkpt>
      <trkpt lat="46.66374" lon="5.60455">
        <ele>552</ele>
        <time>2021-05-29T13:44:24.448Z</time>
      </trkpt>
      <trkpt lat="46.66375" lon="5.60458">
        <ele>552</ele>
        <time>2021-05-29T13:44:25.448Z</time>
      </trkpt>
      <trkpt lat="46.66377" lon="5.6046">
        <ele>553</ele>
        <time>2021-05-29T13:44:26.448Z</time>
      </trkpt>
      <trkpt lat="46.66379" lon="5.60464">
        <ele>553</ele>
        <time>2021-05-29T13:44:27.447Z</time>
      </trkpt>
      <trkpt lat="46.6638" lon="5.60466">
        <ele>553</ele>
        <time>2021-05-29T13:44:28.448Z</time>
      </trkpt>
      <trkpt lat="46.66382" lon="5.60469">
        <ele>553</ele>
        <time>2021-05-29T13:44:29.447Z</time>
      </trkpt>
      <trkpt lat="46.66383" lon="5.60472">
        <ele>553</ele>
        <time>2021-05-29T13:44:30.448Z</time>
      </trkpt>
      <trkpt lat="46.66385" lon="5.60474">
        <ele>553</ele>
        <time>2021-05-29T13:44:31.447Z</time>
      </trkpt>
      <trkpt lat="46.66387" lon="5.60477">
        <ele>553</ele>
        <time>2021-05-29T13:44:32.447Z</time>
      </trkpt>
      <trkpt lat="46.66388" lon="5.6048">
        <ele>553</ele>
        <time>2021-05-29T13:44:33.448Z</time>
      </trkpt>
      <trkpt lat="46.66389" lon="5.60482">
        <ele>553</ele>
        <time>2021-05-29T13:44:34.448Z</time>
      </trkpt>
      <trkpt lat="46.66391" lon="5.60485">
        <ele>553</ele>
        <time>2021-05-29T13:44:35.448Z</time>
      </trkpt>
      <trkpt lat="46.66393" lon="5.60487">
        <ele>553</ele>
        <time>2021-05-29T13:44:36.447Z</time>
      </trkpt>
      <trkpt lat="46.66394" lon="5.6049">
        <ele>553</ele>
        <time>2021-05-29T13:44:37.448Z</time>
      </trkpt>
      <trkpt lat="46.66396" lon="5.60492">
        <ele>553</ele>
        <time>2021-05-29T13:44:38.447Z</time>
      </trkpt>
      <trkpt lat="46.66398" lon="5.60495">
        <ele>553</ele>
        <time>2021-05-29T13:44:39.448Z</time>
      </trkpt>
      <trkpt lat="46.66399" lon="5.60497">
        <ele>553</ele>
        <time>2021-05-29T13:44:40.448Z</time>
      </trkpt>
      <trkpt lat="46.66401" lon="5.605">
        <ele>553</ele>
        <time>2021-05-29T13:44:41.448Z</time>
      </trkpt>
      <trkpt lat="46.66402" lon="5.60502">
        <ele>553</ele>
        <time>2021-05-29T13:44:42.447Z</time>
      </trkpt>
      <trkpt lat="46.66403" lon="5.60504">
        <ele>553</ele>
        <time>2021-05-29T13:44:43.448Z</time>
      </trkpt>
      <trkpt lat="46.66405" lon="5.60507">
        <ele>553</ele>
        <time>2021-05-29T13:44:44.448Z</time>
      </trkpt>
      <trkpt lat="46.66407" lon="5.60509">
        <ele>553</ele>
        <time>2021-05-29T13:44:45.448Z</time>
      </trkpt>
      <trkpt lat="46.66408" lon="5.60512">
        <ele>553</ele>
        <time>2021-05-29T13:44:46.447Z</time>
      </trkpt>
      <trkpt lat="46.6641" lon="5.60515">
        <ele>553</ele>
        <time>2021-05-29T13:44:47.448Z</time>
      </trkpt>
      <trkpt lat="46.66412" lon="5.60517">
        <ele>553</ele>
        <time>2021-05-29T13:44:48.448Z</time>
      </trkpt>
      <trkpt lat="46.66413" lon="5.6052">
        <ele>554</ele>
        <time>2021-05-29T13:44:49.448Z</time>
      </trkpt>
      <trkpt lat="46.66415" lon="5.60522">
        <ele>555</ele>
        <time>2021-05-29T13:44:50.448Z</time>
      </trkpt>
      <trkpt lat="46.66417" lon="5.60525">
        <ele>555</ele>
        <time>2021-05-29T13:44:51.448Z</time>
      </trkpt>
      <trkpt lat="46.66419" lon="5.60527">
        <ele>555</ele>
        <time>2021-05-29T13:44:52.447Z</time>
      </trkpt>
      <trkpt lat="46.6642" lon="5.6053">
        <ele>555</ele>
        <time>2021-05-29T13:44:53.448Z</time>
      </trkpt>
      <trkpt lat="46.66422" lon="5.60532">
        <ele>555</ele>
        <time>2021-05-29T13:44:54.448Z</time>
      </trkpt>
      <trkpt lat="46.66424" lon="5.60535">
        <ele>555</ele>
        <time>2021-05-29T13:44:55.447Z</time>
      </trkpt>
      <trkpt lat="46.66425" lon="5.60537">
        <ele>556</ele>
        <time>2021-05-29T13:44:56.448Z</time>
      </trkpt>
      <trkpt lat="46.66427" lon="5.6054">
        <ele>556</ele>
        <time>2021-05-29T13:44:57.447Z</time>
      </trkpt>
      <trkpt lat="46.66429" lon="5.60542">
        <ele>555</ele>
        <time>2021-05-29T13:44:58.448Z</time>
      </trkpt>
      <trkpt lat="46.6643" lon="5.60545">
        <ele>555</ele>
        <time>2021-05-29T13:44:59.448Z</time>
      </trkpt>
      <trkpt lat="46.66432" lon="5.60547">
        <ele>555</ele>
        <time>2021-05-29T13:45:00.448Z</time>
      </trkpt>
      <trkpt lat="46.66434" lon="5.60549">
        <ele>554</ele>
        <time>2021-05-29T13:45:01.447Z</time>
      </trkpt>
      <trkpt lat="46.66435" lon="5.60552">
        <ele>554</ele>
        <time>2021-05-29T13:45:02.448Z</time>
      </trkpt>
      <trkpt lat="46.66437" lon="5.60554">
        <ele>554</ele>
        <time>2021-05-29T13:45:03.448Z</time>
      </trkpt>
      <trkpt lat="46.66439" lon="5.60557">
        <ele>554</ele>
        <time>2021-05-29T13:45:04.448Z</time>
      </trkpt>
      <trkpt lat="46.6644" lon="5.60559">
        <ele>553</ele>
        <time>2021-05-29T13:45:05.448Z</time>
      </trkpt>
      <trkpt lat="46.66442" lon="5.60561">
        <ele>553</ele>
        <time>2021-05-29T13:45:06.448Z</time>
      </trkpt>
      <trkpt lat="46.66443" lon="5.60564">
        <ele>553</ele>
        <time>2021-05-29T13:45:07.447Z</time>
      </trkpt>
      <trkpt lat="46.66444" lon="5.60566">
        <ele>552</ele>
        <time>2021-05-29T13:45:08.448Z</time>
      </trkpt>
      <trkpt lat="46.66446" lon="5.60568">
        <ele>552</ele>
        <time>2021-05-29T13:45:09.448Z</time>
      </trkpt>
      <trkpt lat="46.66447" lon="5.6057">
        <ele>552</ele>
        <time>2021-05-29T13:45:10.447Z</time>
      </trkpt>
      <trkpt lat="46.66449" lon="5.60573">
        <ele>552</ele>
        <time>2021-05-29T13:45:11.448Z</time>
      </trkpt>
      <trkpt lat="46.6645" lon="5.60575">
        <ele>552</ele>
        <time>2021-05-29T13:45:12.448Z</time>
      </trkpt>
      <trkpt lat="46.66452" lon="5.60577">
        <ele>553</ele>
        <time>2021-05-29T13:45:13.447Z</time>
      </trkpt>
      <trkpt lat="46.66453" lon="5.60579">
        <ele>553</ele>
        <time>2021-05-29T13:45:14.448Z</time>
      </trkpt>
      <trkpt lat="46.66455" lon="5.60582">
        <ele>553</ele>
        <time>2021-05-29T13:45:15.447Z</time>
      </trkpt>
      <trkpt lat="46.66456" lon="5.60584">
        <ele>553</ele>
        <time>2021-05-29T13:45:16.448Z</time>
      </trkpt>
      <trkpt lat="46.66458" lon="5.60586">
        <ele>553</ele>
        <time>2021-05-29T13:45:17.448Z</time>
      </trkpt>
      <trkpt lat="46.66459" lon="5.60588">
        <ele>553</ele>
        <time>2021-05-29T13:45:18.448Z</time>
      </trkpt>
      <trkpt lat="46.66461" lon="5.6059">
        <ele>553</ele>
        <time>2021-05-29T13:45:19.448Z</time>
      </trkpt>
      <trkpt lat="46.66462" lon="5.60592">
        <ele>553</ele>
        <time>2021-05-29T13:45:20.448Z</time>
      </trkpt>
      <trkpt lat="46.66464" lon="5.60594">
        <ele>553</ele>
        <time>2021-05-29T13:45:21.447Z</time>
      </trkpt>
      <trkpt lat="46.66465" lon="5.60595">
        <ele>553</ele>
        <time>2021-05-29T13:45:22.447Z</time>
      </trkpt>
      <trkpt lat="46.66467" lon="5.60598">
        <ele>554</ele>
        <time>2021-05-29T13:45:23.448Z</time>
      </trkpt>
      <trkpt lat="46.66467" lon="5.60599">
        <ele>554</ele>
        <time>2021-05-29T13:45:24.448Z</time>
      </trkpt>
      <trkpt lat="46.66468" lon="5.60601">
        <ele>554</ele>
        <time>2021-05-29T13:45:25.447Z</time>
      </trkpt>
      <trkpt lat="46.66468" lon="5.60601">
        <ele>554</ele>
        <time>2021-05-29T13:45:26.448Z</time>
      </trkpt>
      <trkpt lat="46.66468" lon="5.60601">
        <ele>555</ele>
        <time>2021-05-29T13:45:27.448Z</time>
      </trkpt>
      <trkpt lat="46.6647" lon="5.60601">
        <ele>555</ele>
        <time>2021-05-29T13:45:28.447Z</time>
      </trkpt>
      <trkpt lat="46.6647" lon="5.60602">
        <ele>556</ele>
        <time>2021-05-29T13:45:29.448Z</time>
      </trkpt>
      <trkpt lat="46.6647" lon="5.60602">
        <ele>556</ele>
        <time>2021-05-29T13:45:30.448Z</time>
      </trkpt>
      <trkpt lat="46.6647" lon="5.60603">
        <ele>556</ele>
        <time>2021-05-29T13:45:31.448Z</time>
      </trkpt>
      <trkpt lat="46.66469" lon="5.60603">
        <ele>556</ele>
        <time>2021-05-29T13:45:32.448Z</time>
      </trkpt>
      <trkpt lat="46.66468" lon="5.60603">
        <ele>556</ele>
        <time>2021-05-29T13:45:33.448Z</time>
      </trkpt>
      <trkpt lat="46.66468" lon="5.60604">
        <ele>556</ele>
        <time>2021-05-29T13:45:34.448Z</time>
      </trkpt>
      <trkpt lat="46.66468" lon="5.60604">
        <ele>556</ele>
        <time>2021-05-29T13:45:35.448Z</time>
      </trkpt>
      <trkpt lat="46.66468" lon="5.60605">
        <ele>556</ele>
        <time>2021-05-29T13:45:36.448Z</time>
      </trkpt>
      <trkpt lat="46.66469" lon="5.60605">
        <ele>556</ele>
        <time>2021-05-29T13:45:37.447Z</time>
      </trkpt>
      <trkpt lat="46.66469" lon="5.60607">
        <ele>556</ele>
        <time>2021-05-29T13:45:38.448Z</time>
      </trkpt>
      <trkpt lat="46.66469" lon="5.60608">
        <ele>556</ele>
        <time>2021-05-29T13:45:39.447Z</time>
      </trkpt>
      <trkpt lat="46.6647" lon="5.6061">
        <ele>556</ele>
        <time>2021-05-29T13:45:40.448Z</time>
      </trkpt>
      <trkpt lat="46.6647" lon="5.60611">
        <ele>555</ele>
        <time>2021-05-29T13:45:41.448Z</time>
      </trkpt>
      <trkpt lat="46.66471" lon="5.60613">
        <ele>555</ele>
        <time>2021-05-29T13:45:42.448Z</time>
      </trkpt>
      <trkpt lat="46.66472" lon="5.60615">
        <ele>555</ele>
        <time>2021-05-29T13:45:43.448Z</time>
      </trkpt>
      <trkpt lat="46.66473" lon="5.60616">
        <ele>555</ele>
        <time>2021-05-29T13:45:44.447Z</time>
      </trkpt>
      <trkpt lat="46.66473" lon="5.60617">
        <ele>555</ele>
        <time>2021-05-29T13:45:45.447Z</time>
      </trkpt>
      <trkpt lat="46.66474" lon="5.60618">
        <ele>555</ele>
        <time>2021-05-29T13:45:46.448Z</time>
      </trkpt>
      <trkpt lat="46.66475" lon="5.60618">
        <ele>556</ele>
        <time>2021-05-29T13:45:47.447Z</time>
      </trkpt>
      <trkpt lat="46.66475" lon="5.60618">
        <ele>556</ele>
        <time>2021-05-29T13:45:48.447Z</time>
      </trkpt>
      <trkpt lat="46.66475" lon="5.60619">
        <ele>556</ele>
        <time>2021-05-29T13:45:49.447Z</time>
      </trkpt>
      <trkpt lat="46.66475" lon="5.60619">
        <ele>556</ele>
        <time>2021-05-29T13:45:50.448Z</time>
      </trkpt>
      <trkpt lat="46.66476" lon="5.60619">
        <ele>557</ele>
        <time>2021-05-29T13:45:51.447Z</time>
      </trkpt>
      <trkpt lat="46.66476" lon="5.60619">
        <ele>557</ele>
        <time>2021-05-29T13:45:52.447Z</time>
      </trkpt>
      <trkpt lat="46.66477" lon="5.6062">
        <ele>558</ele>
        <time>2021-05-29T13:45:53.448Z</time>
      </trkpt>
      <trkpt lat="46.66477" lon="5.6062">
        <ele>558</ele>
        <time>2021-05-29T13:45:54.448Z</time>
      </trkpt>
      <trkpt lat="46.66478" lon="5.60619">
        <ele>559</ele>
        <time>2021-05-29T13:45:55.447Z</time>
      </trkpt>
      <trkpt lat="46.66478" lon="5.60619">
        <ele>559</ele>
        <time>2021-05-29T13:45:56.448Z</time>
      </trkpt>
      <trkpt lat="46.66478" lon="5.60618">
        <ele>560</ele>
        <time>2021-05-29T13:45:57.448Z</time>
      </trkpt>
      <trkpt lat="46.66478" lon="5.60618">
        <ele>560</ele>
        <time>2021-05-29T13:45:58.447Z</time>
      </trkpt>
      <trkpt lat="46.6648" lon="5.60619">
        <ele>561</ele>
        <time>2021-05-29T13:45:59.448Z</time>
      </trkpt>
      <trkpt lat="46.6648" lon="5.60619">
        <ele>561</ele>
        <time>2021-05-29T13:46:00.448Z</time>
      </trkpt>
      <trkpt lat="46.66481" lon="5.60617">
        <ele>561</ele>
        <time>2021-05-29T13:46:01.447Z</time>
      </trkpt>
      <trkpt lat="46.66482" lon="5.60617">
        <ele>561</ele>
        <time>2021-05-29T13:46:02.447Z</time>
      </trkpt>
      <trkpt lat="46.66482" lon="5.60616">
        <ele>561</ele>
        <time>2021-05-29T13:46:03.448Z</time>
      </trkpt>
      <trkpt lat="46.66482" lon="5.60615">
        <ele>561</ele>
        <time>2021-05-29T13:46:04.447Z</time>
      </trkpt>
      <trkpt lat="46.66484" lon="5.60614">
        <ele>561</ele>
        <time>2021-05-29T13:46:05.448Z</time>
      </trkpt>
      <trkpt lat="46.66485" lon="5.60613">
        <ele>562</ele>
        <time>2021-05-29T13:46:06.448Z</time>
      </trkpt>
      <trkpt lat="46.66487" lon="5.60612">
        <ele>562</ele>
        <time>2021-05-29T13:46:07.448Z</time>
      </trkpt>
      <trkpt lat="46.66489" lon="5.6061">
        <ele>563</ele>
        <time>2021-05-29T13:46:08.448Z</time>
      </trkpt>
      <trkpt lat="46.6649" lon="5.60609">
        <ele>563</ele>
        <time>2021-05-29T13:46:09.448Z</time>
      </trkpt>
      <trkpt lat="46.66492" lon="5.60607">
        <ele>563</ele>
        <time>2021-05-29T13:46:10.447Z</time>
      </trkpt>
      <trkpt lat="46.66494" lon="5.60606">
        <ele>564</ele>
        <time>2021-05-29T13:46:11.448Z</time>
      </trkpt>
      <trkpt lat="46.66495" lon="5.60604">
        <ele>564</ele>
        <time>2021-05-29T13:46:12.448Z</time>
      </trkpt>
      <trkpt lat="46.66496" lon="5.60603">
        <ele>564</ele>
        <time>2021-05-29T13:46:13.447Z</time>
      </trkpt>
      <trkpt lat="46.66498" lon="5.60601">
        <ele>565</ele>
        <time>2021-05-29T13:46:14.448Z</time>
      </trkpt>
      <trkpt lat="46.665" lon="5.60599">
        <ele>565</ele>
        <time>2021-05-29T13:46:15.448Z</time>
      </trkpt>
      <trkpt lat="46.66501" lon="5.60597">
        <ele>566</ele>
        <time>2021-05-29T13:46:16.448Z</time>
      </trkpt>
      <trkpt lat="46.66502" lon="5.60594">
        <ele>566</ele>
        <time>2021-05-29T13:46:17.448Z</time>
      </trkpt>
      <trkpt lat="46.66504" lon="5.60592">
        <ele>567</ele>
        <time>2021-05-29T13:46:18.448Z</time>
      </trkpt>
      <trkpt lat="46.66505" lon="5.6059">
        <ele>568</ele>
        <time>2021-05-29T13:46:19.447Z</time>
      </trkpt>
      <trkpt lat="46.66507" lon="5.60589">
        <ele>568</ele>
        <time>2021-05-29T13:46:20.448Z</time>
      </trkpt>
      <trkpt lat="46.66508" lon="5.60587">
        <ele>569</ele>
        <time>2021-05-29T13:46:21.448Z</time>
      </trkpt>
      <trkpt lat="46.66509" lon="5.60586">
        <ele>570</ele>
        <time>2021-05-29T13:46:22.448Z</time>
      </trkpt>
      <trkpt lat="46.66511" lon="5.60584">
        <ele>570</ele>
        <time>2021-05-29T13:46:23.448Z</time>
      </trkpt>
      <trkpt lat="46.66512" lon="5.60581">
        <ele>571</ele>
        <time>2021-05-29T13:46:24.448Z</time>
      </trkpt>
      <trkpt lat="46.66514" lon="5.60579">
        <ele>571</ele>
        <time>2021-05-29T13:46:25.447Z</time>
      </trkpt>
      <trkpt lat="46.66516" lon="5.60577">
        <ele>572</ele>
        <time>2021-05-29T13:46:26.448Z</time>
      </trkpt>
      <trkpt lat="46.66518" lon="5.60576">
        <ele>572</ele>
        <time>2021-05-29T13:46:27.447Z</time>
      </trkpt>
      <trkpt lat="46.66519" lon="5.60575">
        <ele>573</ele>
        <time>2021-05-29T13:46:28.447Z</time>
      </trkpt>
      <trkpt lat="46.6652" lon="5.60572">
        <ele>573</ele>
        <time>2021-05-29T13:46:29.448Z</time>
      </trkpt>
      <trkpt lat="46.66523" lon="5.6057">
        <ele>574</ele>
        <time>2021-05-29T13:46:30.448Z</time>
      </trkpt>
      <trkpt lat="46.66524" lon="5.60568">
        <ele>575</ele>
        <time>2021-05-29T13:46:31.448Z</time>
      </trkpt>
      <trkpt lat="46.66526" lon="5.60566">
        <ele>575</ele>
        <time>2021-05-29T13:46:32.447Z</time>
      </trkpt>
      <trkpt lat="46.66529" lon="5.60564">
        <ele>576</ele>
        <time>2021-05-29T13:46:33.448Z</time>
      </trkpt>
      <trkpt lat="46.66531" lon="5.60563">
        <ele>576</ele>
        <time>2021-05-29T13:46:34.447Z</time>
      </trkpt>
      <trkpt lat="46.66534" lon="5.60561">
        <ele>577</ele>
        <time>2021-05-29T13:46:35.448Z</time>
      </trkpt>
      <trkpt lat="46.66536" lon="5.6056">
        <ele>577</ele>
        <time>2021-05-29T13:46:36.447Z</time>
      </trkpt>
      <trkpt lat="46.66538" lon="5.60558">
        <ele>577</ele>
        <time>2021-05-29T13:46:37.448Z</time>
      </trkpt>
      <trkpt lat="46.6654" lon="5.60556">
        <ele>577</ele>
        <time>2021-05-29T13:46:38.448Z</time>
      </trkpt>
      <trkpt lat="46.66542" lon="5.60554">
        <ele>577</ele>
        <time>2021-05-29T13:46:39.448Z</time>
      </trkpt>
      <trkpt lat="46.66544" lon="5.60552">
        <ele>577</ele>
        <time>2021-05-29T13:46:40.448Z</time>
      </trkpt>
      <trkpt lat="46.66547" lon="5.60551">
        <ele>576</ele>
        <time>2021-05-29T13:46:41.447Z</time>
      </trkpt>
      <trkpt lat="46.6655" lon="5.6055">
        <ele>576</ele>
        <time>2021-05-29T13:46:42.447Z</time>
      </trkpt>
      <trkpt lat="46.66552" lon="5.60549">
        <ele>575</ele>
        <time>2021-05-29T13:46:43.447Z</time>
      </trkpt>
      <trkpt lat="46.66554" lon="5.60547">
        <ele>574</ele>
        <time>2021-05-29T13:46:44.448Z</time>
      </trkpt>
      <trkpt lat="46.66556" lon="5.60545">
        <ele>573</ele>
        <time>2021-05-29T13:46:45.447Z</time>
      </trkpt>
      <trkpt lat="46.66558" lon="5.60543">
        <ele>572</ele>
        <time>2021-05-29T13:46:46.447Z</time>
      </trkpt>
      <trkpt lat="46.6656" lon="5.60542">
        <ele>571</ele>
        <time>2021-05-29T13:46:47.448Z</time>
      </trkpt>
      <trkpt lat="46.66561" lon="5.6054">
        <ele>569</ele>
        <time>2021-05-29T13:46:48.447Z</time>
      </trkpt>
      <trkpt lat="46.66563" lon="5.60539">
        <ele>568</ele>
        <time>2021-05-29T13:46:49.447Z</time>
      </trkpt>
      <trkpt lat="46.66565" lon="5.60538">
        <ele>567</ele>
        <time>2021-05-29T13:46:50.447Z</time>
      </trkpt>
      <trkpt lat="46.66567" lon="5.60536">
        <ele>566</ele>
        <time>2021-05-29T13:46:51.448Z</time>
      </trkpt>
      <trkpt lat="46.66568" lon="5.60535">
        <ele>565</ele>
        <time>2021-05-29T13:46:52.448Z</time>
      </trkpt>
      <trkpt lat="46.66569" lon="5.60534">
        <ele>565</ele>
        <time>2021-05-29T13:46:53.448Z</time>
      </trkpt>
      <trkpt lat="46.66571" lon="5.60532">
        <ele>565</ele>
        <time>2021-05-29T13:46:54.448Z</time>
      </trkpt>
      <trkpt lat="46.66572" lon="5.60531">
        <ele>565</ele>
        <time>2021-05-29T13:46:55.447Z</time>
      </trkpt>
      <trkpt lat="46.66573" lon="5.6053">
        <ele>565</ele>
        <time>2021-05-29T13:46:56.448Z</time>
      </trkpt>
      <trkpt lat="46.66574" lon="5.6053">
        <ele>565</ele>
        <time>2021-05-29T13:46:57.447Z</time>
      </trkpt>
      <trkpt lat="46.66574" lon="5.6053">
        <ele>565</ele>
        <time>2021-05-29T13:46:58.448Z</time>
      </trkpt>
      <trkpt lat="46.66574" lon="5.60529">
        <ele>565</ele>
        <time>2021-05-29T13:46:59.448Z</time>
      </trkpt>
      <trkpt lat="46.66575" lon="5.60528">
        <ele>565</ele>
        <time>2021-05-29T13:47:00.448Z</time>
      </trkpt>
      <trkpt lat="46.66575" lon="5.60526">
        <ele>566</ele>
        <time>2021-05-29T13:47:01.447Z</time>
      </trkpt>
      <trkpt lat="46.66577" lon="5.60524">
        <ele>566</ele>
        <time>2021-05-29T13:47:02.448Z</time>
      </trkpt>
      <trkpt lat="46.66578" lon="5.60522">
        <ele>566</ele>
        <time>2021-05-29T13:47:03.448Z</time>
      </trkpt>
      <trkpt lat="46.6658" lon="5.6052">
        <ele>566</ele>
        <time>2021-05-29T13:47:04.447Z</time>
      </trkpt>
      <trkpt lat="46.66581" lon="5.60519">
        <ele>567</ele>
        <time>2021-05-29T13:47:05.448Z</time>
      </trkpt>
      <trkpt lat="46.66583" lon="5.60517">
        <ele>567</ele>
        <time>2021-05-29T13:47:06.447Z</time>
      </trkpt>
      <trkpt lat="46.66585" lon="5.60516">
        <ele>567</ele>
        <time>2021-05-29T13:47:07.447Z</time>
      </trkpt>
      <trkpt lat="46.66587" lon="5.60514">
        <ele>567</ele>
        <time>2021-05-29T13:47:08.448Z</time>
      </trkpt>
      <trkpt lat="46.66588" lon="5.60514">
        <ele>567</ele>
        <time>2021-05-29T13:47:09.447Z</time>
      </trkpt>
      <trkpt lat="46.6659" lon="5.60513">
        <ele>567</ele>
        <time>2021-05-29T13:47:10.448Z</time>
      </trkpt>
      <trkpt lat="46.66591" lon="5.60511">
        <ele>567</ele>
        <time>2021-05-29T13:47:11.447Z</time>
      </trkpt>
      <trkpt lat="46.66592" lon="5.6051">
        <ele>567</ele>
        <time>2021-05-29T13:47:12.448Z</time>
      </trkpt>
      <trkpt lat="46.66593" lon="5.60509">
        <ele>568</ele>
        <time>2021-05-29T13:47:13.448Z</time>
      </trkpt>
      <trkpt lat="46.66595" lon="5.60507">
        <ele>568</ele>
        <time>2021-05-29T13:47:14.447Z</time>
      </trkpt>
      <trkpt lat="46.66597" lon="5.60506">
        <ele>568</ele>
        <time>2021-05-29T13:47:15.448Z</time>
      </trkpt>
      <trkpt lat="46.66599" lon="5.60503">
        <ele>568</ele>
        <time>2021-05-29T13:47:16.447Z</time>
      </trkpt>
      <trkpt lat="46.66601" lon="5.60501">
        <ele>568</ele>
        <time>2021-05-29T13:47:17.448Z</time>
      </trkpt>
      <trkpt lat="46.66603" lon="5.60498">
        <ele>569</ele>
        <time>2021-05-29T13:47:18.448Z</time>
      </trkpt>
      <trkpt lat="46.66605" lon="5.60497">
        <ele>569</ele>
        <time>2021-05-29T13:47:19.448Z</time>
      </trkpt>
      <trkpt lat="46.66607" lon="5.60495">
        <ele>568</ele>
        <time>2021-05-29T13:47:20.448Z</time>
      </trkpt>
      <trkpt lat="46.66609" lon="5.60494">
        <ele>568</ele>
        <time>2021-05-29T13:47:21.448Z</time>
      </trkpt>
      <trkpt lat="46.66611" lon="5.60492">
        <ele>567</ele>
        <time>2021-05-29T13:47:22.448Z</time>
      </trkpt>
      <trkpt lat="46.66612" lon="5.60491">
        <ele>566</ele>
        <time>2021-05-29T13:47:23.448Z</time>
      </trkpt>
      <trkpt lat="46.66614" lon="5.60489">
        <ele>566</ele>
        <time>2021-05-29T13:47:24.448Z</time>
      </trkpt>
      <trkpt lat="46.66615" lon="5.60488">
        <ele>566</ele>
        <time>2021-05-29T13:47:25.448Z</time>
      </trkpt>
      <trkpt lat="46.66617" lon="5.60487">
        <ele>565</ele>
        <time>2021-05-29T13:47:26.448Z</time>
      </trkpt>
      <trkpt lat="46.66618" lon="5.60486">
        <ele>565</ele>
        <time>2021-05-29T13:47:27.448Z</time>
      </trkpt>
      <trkpt lat="46.66619" lon="5.60485">
        <ele>565</ele>
        <time>2021-05-29T13:47:28.447Z</time>
      </trkpt>
      <trkpt lat="46.6662" lon="5.60485">
        <ele>565</ele>
        <time>2021-05-29T13:47:29.448Z</time>
      </trkpt>
      <trkpt lat="46.66623" lon="5.60482">
        <ele>564</ele>
        <time>2021-05-29T13:47:30.448Z</time>
      </trkpt>
      <trkpt lat="46.66626" lon="5.60481">
        <ele>564</ele>
        <time>2021-05-29T13:47:31.448Z</time>
      </trkpt>
      <trkpt lat="46.66629" lon="5.60481">
        <ele>564</ele>
        <time>2021-05-29T13:47:32.448Z</time>
      </trkpt>
      <trkpt lat="46.66631" lon="5.60481">
        <ele>563</ele>
        <time>2021-05-29T13:47:33.448Z</time>
      </trkpt>
      <trkpt lat="46.66632" lon="5.60479">
        <ele>563</ele>
        <time>2021-05-29T13:47:34.447Z</time>
      </trkpt>
      <trkpt lat="46.66633" lon="5.60478">
        <ele>562</ele>
        <time>2021-05-29T13:47:35.448Z</time>
      </trkpt>
      <trkpt lat="46.66635" lon="5.60477">
        <ele>561</ele>
        <time>2021-05-29T13:47:36.448Z</time>
      </trkpt>
      <trkpt lat="46.66636" lon="5.60475">
        <ele>561</ele>
        <time>2021-05-29T13:47:37.447Z</time>
      </trkpt>
      <trkpt lat="46.66637" lon="5.60474">
        <ele>560</ele>
        <time>2021-05-29T13:47:38.447Z</time>
      </trkpt>
      <trkpt lat="46.66639" lon="5.60473">
        <ele>560</ele>
        <time>2021-05-29T13:47:39.448Z</time>
      </trkpt>
      <trkpt lat="46.66641" lon="5.60471">
        <ele>560</ele>
        <time>2021-05-29T13:47:40.447Z</time>
      </trkpt>
      <trkpt lat="46.66644" lon="5.6047">
        <ele>560</ele>
        <time>2021-05-29T13:47:41.448Z</time>
      </trkpt>
      <trkpt lat="46.66645" lon="5.60468">
        <ele>560</ele>
        <time>2021-05-29T13:47:42.448Z</time>
      </trkpt>
      <trkpt lat="46.66647" lon="5.60467">
        <ele>560</ele>
        <time>2021-05-29T13:47:43.448Z</time>
      </trkpt>
      <trkpt lat="46.66649" lon="5.60466">
        <ele>560</ele>
        <time>2021-05-29T13:47:44.448Z</time>
      </trkpt>
      <trkpt lat="46.66651" lon="5.60464">
        <ele>560</ele>
        <time>2021-05-29T13:47:45.448Z</time>
      </trkpt>
      <trkpt lat="46.66652" lon="5.60462">
        <ele>560</ele>
        <time>2021-05-29T13:47:46.448Z</time>
      </trkpt>
      <trkpt lat="46.66654" lon="5.6046">
        <ele>560</ele>
        <time>2021-05-29T13:47:47.447Z</time>
      </trkpt>
      <trkpt lat="46.66655" lon="5.60458">
        <ele>560</ele>
        <time>2021-05-29T13:47:48.448Z</time>
      </trkpt>
      <trkpt lat="46.66657" lon="5.60456">
        <ele>560</ele>
        <time>2021-05-29T13:47:49.448Z</time>
      </trkpt>
      <trkpt lat="46.66658" lon="5.60453">
        <ele>560</ele>
        <time>2021-05-29T13:47:50.448Z</time>
      </trkpt>
      <trkpt lat="46.6666" lon="5.60451">
        <ele>559</ele>
        <time>2021-05-29T13:47:51.448Z</time>
      </trkpt>
      <trkpt lat="46.66663" lon="5.60449">
        <ele>559</ele>
        <time>2021-05-29T13:47:52.447Z</time>
      </trkpt>
      <trkpt lat="46.66665" lon="5.60448">
        <ele>559</ele>
        <time>2021-05-29T13:47:53.448Z</time>
      </trkpt>
      <trkpt lat="46.66668" lon="5.60447">
        <ele>559</ele>
        <time>2021-05-29T13:47:54.448Z</time>
      </trkpt>
      <trkpt lat="46.6667" lon="5.60446">
        <ele>559</ele>
        <time>2021-05-29T13:47:55.448Z</time>
      </trkpt>
      <trkpt lat="46.66672" lon="5.60445">
        <ele>559</ele>
        <time>2021-05-29T13:47:56.448Z</time>
      </trkpt>
      <trkpt lat="46.66674" lon="5.60445">
        <ele>559</ele>
        <time>2021-05-29T13:47:57.448Z</time>
      </trkpt>
      <trkpt lat="46.66676" lon="5.60447">
        <ele>559</ele>
        <time>2021-05-29T13:47:58.448Z</time>
      </trkpt>
      <trkpt lat="46.66678" lon="5.60449">
        <ele>559</ele>
        <time>2021-05-29T13:47:59.448Z</time>
      </trkpt>
      <trkpt lat="46.66679" lon="5.60452">
        <ele>559</ele>
        <time>2021-05-29T13:48:00.448Z</time>
      </trkpt>
      <trkpt lat="46.6668" lon="5.60454">
        <ele>560</ele>
        <time>2021-05-29T13:48:01.447Z</time>
      </trkpt>
      <trkpt lat="46.66681" lon="5.60456">
        <ele>560</ele>
        <time>2021-05-29T13:48:02.448Z</time>
      </trkpt>
      <trkpt lat="46.66681" lon="5.60458">
        <ele>561</ele>
        <time>2021-05-29T13:48:03.448Z</time>
      </trkpt>
      <trkpt lat="46.66682" lon="5.6046">
        <ele>562</ele>
        <time>2021-05-29T13:48:04.447Z</time>
      </trkpt>
      <trkpt lat="46.66683" lon="5.60463">
        <ele>562</ele>
        <time>2021-05-29T13:48:05.448Z</time>
      </trkpt>
      <trkpt lat="46.66685" lon="5.60465">
        <ele>562</ele>
        <time>2021-05-29T13:48:06.448Z</time>
      </trkpt>
      <trkpt lat="46.66687" lon="5.60467">
        <ele>563</ele>
        <time>2021-05-29T13:48:07.448Z</time>
      </trkpt>
      <trkpt lat="46.66688" lon="5.60469">
        <ele>563</ele>
        <time>2021-05-29T13:48:08.448Z</time>
      </trkpt>
      <trkpt lat="46.6669" lon="5.60472">
        <ele>564</ele>
        <time>2021-05-29T13:48:09.447Z</time>
      </trkpt>
      <trkpt lat="46.66692" lon="5.60474">
        <ele>564</ele>
        <time>2021-05-29T13:48:10.448Z</time>
      </trkpt>
      <trkpt lat="46.66693" lon="5.60477">
        <ele>564</ele>
        <time>2021-05-29T13:48:11.448Z</time>
      </trkpt>
      <trkpt lat="46.66694" lon="5.60479">
        <ele>564</ele>
        <time>2021-05-29T13:48:12.448Z</time>
      </trkpt>
      <trkpt lat="46.66696" lon="5.60482">
        <ele>564</ele>
        <time>2021-05-29T13:48:13.447Z</time>
      </trkpt>
      <trkpt lat="46.66697" lon="5.60484">
        <ele>564</ele>
        <time>2021-05-29T13:48:14.448Z</time>
      </trkpt>
      <trkpt lat="46.66698" lon="5.60487">
        <ele>564</ele>
        <time>2021-05-29T13:48:15.448Z</time>
      </trkpt>
      <trkpt lat="46.667" lon="5.60489">
        <ele>564</ele>
        <time>2021-05-29T13:48:16.448Z</time>
      </trkpt>
      <trkpt lat="46.66702" lon="5.60492">
        <ele>564</ele>
        <time>2021-05-29T13:48:17.447Z</time>
      </trkpt>
      <trkpt lat="46.66704" lon="5.60495">
        <ele>563</ele>
        <time>2021-05-29T13:48:18.447Z</time>
      </trkpt>
      <trkpt lat="46.66705" lon="5.60498">
        <ele>563</ele>
        <time>2021-05-29T13:48:19.448Z</time>
      </trkpt>
      <trkpt lat="46.66705" lon="5.60501">
        <ele>563</ele>
        <time>2021-05-29T13:48:20.448Z</time>
      </trkpt>
      <trkpt lat="46.66707" lon="5.60505">
        <ele>563</ele>
        <time>2021-05-29T13:48:21.448Z</time>
      </trkpt>
      <trkpt lat="46.66709" lon="5.60507">
        <ele>563</ele>
        <time>2021-05-29T13:48:22.448Z</time>
      </trkpt>
      <trkpt lat="46.66711" lon="5.6051">
        <ele>563</ele>
        <time>2021-05-29T13:48:23.448Z</time>
      </trkpt>
      <trkpt lat="46.66713" lon="5.60513">
        <ele>563</ele>
        <time>2021-05-29T13:48:24.448Z</time>
      </trkpt>
      <trkpt lat="46.66714" lon="5.60516">
        <ele>563</ele>
        <time>2021-05-29T13:48:25.447Z</time>
      </trkpt>
      <trkpt lat="46.66716" lon="5.60519">
        <ele>563</ele>
        <time>2021-05-29T13:48:26.447Z</time>
      </trkpt>
      <trkpt lat="46.66717" lon="5.60523">
        <ele>563</ele>
        <time>2021-05-29T13:48:27.448Z</time>
      </trkpt>
      <trkpt lat="46.66719" lon="5.60527">
        <ele>563</ele>
        <time>2021-05-29T13:48:28.448Z</time>
      </trkpt>
      <trkpt lat="46.6672" lon="5.60529">
        <ele>563</ele>
        <time>2021-05-29T13:48:29.447Z</time>
      </trkpt>
      <trkpt lat="46.66722" lon="5.60532">
        <ele>562</ele>
        <time>2021-05-29T13:48:30.448Z</time>
      </trkpt>
      <trkpt lat="46.66724" lon="5.60535">
        <ele>562</ele>
        <time>2021-05-29T13:48:31.447Z</time>
      </trkpt>
      <trkpt lat="46.66725" lon="5.60539">
        <ele>562</ele>
        <time>2021-05-29T13:48:32.448Z</time>
      </trkpt>
      <trkpt lat="46.66727" lon="5.60541">
        <ele>562</ele>
        <time>2021-05-29T13:48:33.448Z</time>
      </trkpt>
      <trkpt lat="46.66728" lon="5.60543">
        <ele>562</ele>
        <time>2021-05-29T13:48:34.447Z</time>
      </trkpt>
      <trkpt lat="46.6673" lon="5.60546">
        <ele>562</ele>
        <time>2021-05-29T13:48:35.448Z</time>
      </trkpt>
      <trkpt lat="46.66732" lon="5.60548">
        <ele>562</ele>
        <time>2021-05-29T13:48:36.448Z</time>
      </trkpt>
      <trkpt lat="46.66733" lon="5.60552">
        <ele>562</ele>
        <time>2021-05-29T13:48:37.448Z</time>
      </trkpt>
      <trkpt lat="46.66733" lon="5.60554">
        <ele>562</ele>
        <time>2021-05-29T13:48:38.447Z</time>
      </trkpt>
      <trkpt lat="46.66734" lon="5.60556">
        <ele>562</ele>
        <time>2021-05-29T13:48:39.447Z</time>
      </trkpt>
      <trkpt lat="46.66734" lon="5.60558">
        <ele>563</ele>
        <time>2021-05-29T13:48:40.448Z</time>
      </trkpt>
      <trkpt lat="46.66734" lon="5.6056">
        <ele>563</ele>
        <time>2021-05-29T13:48:41.447Z</time>
      </trkpt>
      <trkpt lat="46.66734" lon="5.60562">
        <ele>563</ele>
        <time>2021-05-29T13:48:42.447Z</time>
      </trkpt>
      <trkpt lat="46.66735" lon="5.60565">
        <ele>563</ele>
        <time>2021-05-29T13:48:43.447Z</time>
      </trkpt>
      <trkpt lat="46.66735" lon="5.60568">
        <ele>563</ele>
        <time>2021-05-29T13:48:44.448Z</time>
      </trkpt>
      <trkpt lat="46.66735" lon="5.6057">
        <ele>563</ele>
        <time>2021-05-29T13:48:45.448Z</time>
      </trkpt>
      <trkpt lat="46.66736" lon="5.60573">
        <ele>563</ele>
        <time>2021-05-29T13:48:46.447Z</time>
      </trkpt>
      <trkpt lat="46.66738" lon="5.60576">
        <ele>563</ele>
        <time>2021-05-29T13:48:47.448Z</time>
      </trkpt>
      <trkpt lat="46.66738" lon="5.60578">
        <ele>563</ele>
        <time>2021-05-29T13:48:48.447Z</time>
      </trkpt>
      <trkpt lat="46.66739" lon="5.60581">
        <ele>563</ele>
        <time>2021-05-29T13:48:49.448Z</time>
      </trkpt>
      <trkpt lat="46.66739" lon="5.60584">
        <ele>563</ele>
        <time>2021-05-29T13:48:50.448Z</time>
      </trkpt>
      <trkpt lat="46.6674" lon="5.60586">
        <ele>562</ele>
        <time>2021-05-29T13:48:51.448Z</time>
      </trkpt>
      <trkpt lat="46.6674" lon="5.60589">
        <ele>562</ele>
        <time>2021-05-29T13:48:52.448Z</time>
      </trkpt>
      <trkpt lat="46.66741" lon="5.60592">
        <ele>562</ele>
        <time>2021-05-29T13:48:53.447Z</time>
      </trkpt>
      <trkpt lat="46.66742" lon="5.60594">
        <ele>562</ele>
        <time>2021-05-29T13:48:54.448Z</time>
      </trkpt>
      <trkpt lat="46.66743" lon="5.60597">
        <ele>562</ele>
        <time>2021-05-29T13:48:55.447Z</time>
      </trkpt>
      <trkpt lat="46.66744" lon="5.60599">
        <ele>563</ele>
        <time>2021-05-29T13:48:56.448Z</time>
      </trkpt>
      <trkpt lat="46.66747" lon="5.60604">
        <ele>563</ele>
        <time>2021-05-29T13:48:57.448Z</time>
      </trkpt>
      <trkpt lat="46.6675" lon="5.60608">
        <ele>563</ele>
        <time>2021-05-29T13:48:58.448Z</time>
      </trkpt>
      <trkpt lat="46.66752" lon="5.6061">
        <ele>563</ele>
        <time>2021-05-29T13:48:59.448Z</time>
      </trkpt>
      <trkpt lat="46.66754" lon="5.60613">
        <ele>563</ele>
        <time>2021-05-29T13:49:00.448Z</time>
      </trkpt>
      <trkpt lat="46.66756" lon="5.60616">
        <ele>563</ele>
        <time>2021-05-29T13:49:01.448Z</time>
      </trkpt>
      <trkpt lat="46.66758" lon="5.6062">
        <ele>563</ele>
        <time>2021-05-29T13:49:02.448Z</time>
      </trkpt>
      <trkpt lat="46.6676" lon="5.60622">
        <ele>563</ele>
        <time>2021-05-29T13:49:03.448Z</time>
      </trkpt>
      <trkpt lat="46.66761" lon="5.60625">
        <ele>563</ele>
        <time>2021-05-29T13:49:04.448Z</time>
      </trkpt>
      <trkpt lat="46.66764" lon="5.60627">
        <ele>563</ele>
        <time>2021-05-29T13:49:05.448Z</time>
      </trkpt>
      <trkpt lat="46.66766" lon="5.6063">
        <ele>564</ele>
        <time>2021-05-29T13:49:06.448Z</time>
      </trkpt>
      <trkpt lat="46.66767" lon="5.60632">
        <ele>564</ele>
        <time>2021-05-29T13:49:07.448Z</time>
      </trkpt>
      <trkpt lat="46.66767" lon="5.60635">
        <ele>564</ele>
        <time>2021-05-29T13:49:08.448Z</time>
      </trkpt>
      <trkpt lat="46.66768" lon="5.60637">
        <ele>564</ele>
        <time>2021-05-29T13:49:09.448Z</time>
      </trkpt>
      <trkpt lat="46.66769" lon="5.6064">
        <ele>564</ele>
        <time>2021-05-29T13:49:10.448Z</time>
      </trkpt>
      <trkpt lat="46.66771" lon="5.60644">
        <ele>564</ele>
        <time>2021-05-29T13:49:11.447Z</time>
      </trkpt>
      <trkpt lat="46.66773" lon="5.60647">
        <ele>565</ele>
        <time>2021-05-29T13:49:12.448Z</time>
      </trkpt>
      <trkpt lat="46.66773" lon="5.6065">
        <ele>565</ele>
        <time>2021-05-29T13:49:13.448Z</time>
      </trkpt>
      <trkpt lat="46.66775" lon="5.60654">
        <ele>565</ele>
        <time>2021-05-29T13:49:14.447Z</time>
      </trkpt>
      <trkpt lat="46.66776" lon="5.60657">
        <ele>565</ele>
        <time>2021-05-29T13:49:15.448Z</time>
      </trkpt>
      <trkpt lat="46.66776" lon="5.6066">
        <ele>565</ele>
        <time>2021-05-29T13:49:16.447Z</time>
      </trkpt>
      <trkpt lat="46.66778" lon="5.60663">
        <ele>565</ele>
        <time>2021-05-29T13:49:17.448Z</time>
      </trkpt>
      <trkpt lat="46.66779" lon="5.60666">
        <ele>565</ele>
        <time>2021-05-29T13:49:18.448Z</time>
      </trkpt>
      <trkpt lat="46.66781" lon="5.60668">
        <ele>565</ele>
        <time>2021-05-29T13:49:19.448Z</time>
      </trkpt>
      <trkpt lat="46.66781" lon="5.60671">
        <ele>565</ele>
        <time>2021-05-29T13:49:20.447Z</time>
      </trkpt>
      <trkpt lat="46.66782" lon="5.60674">
        <ele>564</ele>
        <time>2021-05-29T13:49:21.448Z</time>
      </trkpt>
      <trkpt lat="46.66783" lon="5.60676">
        <ele>564</ele>
        <time>2021-05-29T13:49:22.448Z</time>
      </trkpt>
      <trkpt lat="46.66785" lon="5.60679">
        <ele>564</ele>
        <time>2021-05-29T13:49:23.448Z</time>
      </trkpt>
      <trkpt lat="46.66786" lon="5.60681">
        <ele>564</ele>
        <time>2021-05-29T13:49:24.448Z</time>
      </trkpt>
      <trkpt lat="46.66787" lon="5.60684">
        <ele>564</ele>
        <time>2021-05-29T13:49:25.447Z</time>
      </trkpt>
      <trkpt lat="46.66789" lon="5.60686">
        <ele>564</ele>
        <time>2021-05-29T13:49:26.448Z</time>
      </trkpt>
      <trkpt lat="46.66791" lon="5.60688">
        <ele>565</ele>
        <time>2021-05-29T13:49:27.448Z</time>
      </trkpt>
      <trkpt lat="46.66792" lon="5.60691">
        <ele>565</ele>
        <time>2021-05-29T13:49:28.448Z</time>
      </trkpt>
      <trkpt lat="46.66793" lon="5.60694">
        <ele>565</ele>
        <time>2021-05-29T13:49:29.448Z</time>
      </trkpt>
      <trkpt lat="46.66794" lon="5.60696">
        <ele>565</ele>
        <time>2021-05-29T13:49:30.448Z</time>
      </trkpt>
      <trkpt lat="46.66794" lon="5.60698">
        <ele>565</ele>
        <time>2021-05-29T13:49:31.448Z</time>
      </trkpt>
      <trkpt lat="46.66795" lon="5.607">
        <ele>565</ele>
        <time>2021-05-29T13:49:32.448Z</time>
      </trkpt>
      <trkpt lat="46.66796" lon="5.60702">
        <ele>565</ele>
        <time>2021-05-29T13:49:33.448Z</time>
      </trkpt>
      <trkpt lat="46.66797" lon="5.60704">
        <ele>565</ele>
        <time>2021-05-29T13:49:34.447Z</time>
      </trkpt>
      <trkpt lat="46.66798" lon="5.60706">
        <ele>565</ele>
        <time>2021-05-29T13:49:35.448Z</time>
      </trkpt>
      <trkpt lat="46.66799" lon="5.60708">
        <ele>565</ele>
        <time>2021-05-29T13:49:36.448Z</time>
      </trkpt>
      <trkpt lat="46.668" lon="5.6071">
        <ele>565</ele>
        <time>2021-05-29T13:49:37.448Z</time>
      </trkpt>
      <trkpt lat="46.66801" lon="5.60713">
        <ele>565</ele>
        <time>2021-05-29T13:49:38.448Z</time>
      </trkpt>
      <trkpt lat="46.66801" lon="5.60715">
        <ele>566</ele>
        <time>2021-05-29T13:49:39.447Z</time>
      </trkpt>
      <trkpt lat="46.66802" lon="5.60718">
        <ele>566</ele>
        <time>2021-05-29T13:49:40.448Z</time>
      </trkpt>
      <trkpt lat="46.66803" lon="5.6072">
        <ele>567</ele>
        <time>2021-05-29T13:49:41.448Z</time>
      </trkpt>
      <trkpt lat="46.66804" lon="5.60722">
        <ele>567</ele>
        <time>2021-05-29T13:49:42.448Z</time>
      </trkpt>
      <trkpt lat="46.66804" lon="5.60724">
        <ele>567</ele>
        <time>2021-05-29T13:49:43.448Z</time>
      </trkpt>
      <trkpt lat="46.66805" lon="5.60727">
        <ele>567</ele>
        <time>2021-05-29T13:49:44.447Z</time>
      </trkpt>
      <trkpt lat="46.66806" lon="5.60729">
        <ele>567</ele>
        <time>2021-05-29T13:49:45.448Z</time>
      </trkpt>
      <trkpt lat="46.66807" lon="5.60732">
        <ele>567</ele>
        <time>2021-05-29T13:49:46.447Z</time>
      </trkpt>
      <trkpt lat="46.66807" lon="5.60734">
        <ele>568</ele>
        <time>2021-05-29T13:49:47.448Z</time>
      </trkpt>
      <trkpt lat="46.66808" lon="5.60736">
        <ele>568</ele>
        <time>2021-05-29T13:49:48.447Z</time>
      </trkpt>
      <trkpt lat="46.66809" lon="5.60738">
        <ele>568</ele>
        <time>2021-05-29T13:49:49.448Z</time>
      </trkpt>
      <trkpt lat="46.6681" lon="5.6074">
        <ele>568</ele>
        <time>2021-05-29T13:49:50.447Z</time>
      </trkpt>
      <trkpt lat="46.66811" lon="5.60744">
        <ele>568</ele>
        <time>2021-05-29T13:49:51.448Z</time>
      </trkpt>
      <trkpt lat="46.66814" lon="5.60747">
        <ele>568</ele>
        <time>2021-05-29T13:49:52.447Z</time>
      </trkpt>
      <trkpt lat="46.66817" lon="5.6075">
        <ele>568</ele>
        <time>2021-05-29T13:49:53.448Z</time>
      </trkpt>
      <trkpt lat="46.66818" lon="5.60753">
        <ele>569</ele>
        <time>2021-05-29T13:49:54.448Z</time>
      </trkpt>
      <trkpt lat="46.6682" lon="5.60756">
        <ele>569</ele>
        <time>2021-05-29T13:49:55.448Z</time>
      </trkpt>
      <trkpt lat="46.66821" lon="5.60758">
        <ele>569</ele>
        <time>2021-05-29T13:49:56.448Z</time>
      </trkpt>
      <trkpt lat="46.66823" lon="5.6076">
        <ele>570</ele>
        <time>2021-05-29T13:49:57.447Z</time>
      </trkpt>
      <trkpt lat="46.66825" lon="5.60763">
        <ele>570</ele>
        <time>2021-05-29T13:49:58.448Z</time>
      </trkpt>
      <trkpt lat="46.66826" lon="5.60766">
        <ele>570</ele>
        <time>2021-05-29T13:49:59.448Z</time>
      </trkpt>
      <trkpt lat="46.66829" lon="5.60768">
        <ele>571</ele>
        <time>2021-05-29T13:50:00.448Z</time>
      </trkpt>
      <trkpt lat="46.6683" lon="5.60771">
        <ele>571</ele>
        <time>2021-05-29T13:50:01.448Z</time>
      </trkpt>
      <trkpt lat="46.6683" lon="5.60773">
        <ele>571</ele>
        <time>2021-05-29T13:50:02.448Z</time>
      </trkpt>
      <trkpt lat="46.66832" lon="5.60776">
        <ele>571</ele>
        <time>2021-05-29T13:50:03.448Z</time>
      </trkpt>
      <trkpt lat="46.66834" lon="5.60778">
        <ele>572</ele>
        <time>2021-05-29T13:50:04.448Z</time>
      </trkpt>
      <trkpt lat="46.66835" lon="5.60781">
        <ele>572</ele>
        <time>2021-05-29T13:50:05.448Z</time>
      </trkpt>
      <trkpt lat="46.66837" lon="5.60784">
        <ele>572</ele>
        <time>2021-05-29T13:50:06.447Z</time>
      </trkpt>
      <trkpt lat="46.66837" lon="5.60786">
        <ele>572</ele>
        <time>2021-05-29T13:50:07.448Z</time>
      </trkpt>
      <trkpt lat="46.66838" lon="5.60789">
        <ele>572</ele>
        <time>2021-05-29T13:50:08.448Z</time>
      </trkpt>
      <trkpt lat="46.6684" lon="5.60792">
        <ele>572</ele>
        <time>2021-05-29T13:50:09.447Z</time>
      </trkpt>
      <trkpt lat="46.66841" lon="5.60795">
        <ele>573</ele>
        <time>2021-05-29T13:50:10.448Z</time>
      </trkpt>
      <trkpt lat="46.66842" lon="5.60797">
        <ele>573</ele>
        <time>2021-05-29T13:50:11.448Z</time>
      </trkpt>
      <trkpt lat="46.66843" lon="5.608">
        <ele>573</ele>
        <time>2021-05-29T13:50:12.448Z</time>
      </trkpt>
      <trkpt lat="46.66844" lon="5.60802">
        <ele>573</ele>
        <time>2021-05-29T13:50:13.447Z</time>
      </trkpt>
      <trkpt lat="46.66845" lon="5.60804">
        <ele>573</ele>
        <time>2021-05-29T13:50:14.448Z</time>
      </trkpt>
      <trkpt lat="46.66845" lon="5.60807">
        <ele>573</ele>
        <time>2021-05-29T13:50:15.447Z</time>
      </trkpt>
      <trkpt lat="46.66846" lon="5.6081">
        <ele>573</ele>
        <time>2021-05-29T13:50:16.447Z</time>
      </trkpt>
      <trkpt lat="46.66848" lon="5.60812">
        <ele>573</ele>
        <time>2021-05-29T13:50:17.447Z</time>
      </trkpt>
      <trkpt lat="46.6685" lon="5.60815">
        <ele>573</ele>
        <time>2021-05-29T13:50:18.448Z</time>
      </trkpt>
      <trkpt lat="46.66851" lon="5.60818">
        <ele>573</ele>
        <time>2021-05-29T13:50:19.447Z</time>
      </trkpt>
      <trkpt lat="46.66853" lon="5.6082">
        <ele>572</ele>
        <time>2021-05-29T13:50:20.448Z</time>
      </trkpt>
      <trkpt lat="46.66854" lon="5.60823">
        <ele>572</ele>
        <time>2021-05-29T13:50:21.447Z</time>
      </trkpt>
      <trkpt lat="46.66856" lon="5.60825">
        <ele>571</ele>
        <time>2021-05-29T13:50:22.448Z</time>
      </trkpt>
      <trkpt lat="46.66857" lon="5.60827">
        <ele>571</ele>
        <time>2021-05-29T13:50:23.448Z</time>
      </trkpt>
      <trkpt lat="46.66857" lon="5.6083">
        <ele>570</ele>
        <time>2021-05-29T13:50:24.447Z</time>
      </trkpt>
      <trkpt lat="46.66858" lon="5.60833">
        <ele>570</ele>
        <time>2021-05-29T13:50:25.448Z</time>
      </trkpt>
      <trkpt lat="46.66859" lon="5.60836">
        <ele>570</ele>
        <time>2021-05-29T13:50:26.448Z</time>
      </trkpt>
      <trkpt lat="46.66859" lon="5.60838">
        <ele>570</ele>
        <time>2021-05-29T13:50:27.448Z</time>
      </trkpt>
      <trkpt lat="46.66859" lon="5.60841">
        <ele>571</ele>
        <time>2021-05-29T13:51:38.301Z</time>
      </trkpt>
      <trkpt lat="46.6686" lon="5.60842">
        <ele>571</ele>
        <time>2021-05-29T13:51:39.300Z</time>
      </trkpt>
      <trkpt lat="46.66861" lon="5.60845">
        <ele>571</ele>
        <time>2021-05-29T13:51:40.301Z</time>
      </trkpt>
      <trkpt lat="46.66862" lon="5.60847">
        <ele>571</ele>
        <time>2021-05-29T13:51:41.301Z</time>
      </trkpt>
      <trkpt lat="46.66864" lon="5.6085">
        <ele>571</ele>
        <time>2021-05-29T13:51:42.301Z</time>
      </trkpt>
      <trkpt lat="46.66865" lon="5.60852">
        <ele>571</ele>
        <time>2021-05-29T13:51:43.300Z</time>
      </trkpt>
      <trkpt lat="46.66866" lon="5.60854">
        <ele>570</ele>
        <time>2021-05-29T13:51:44.301Z</time>
      </trkpt>
      <trkpt lat="46.66868" lon="5.60857">
        <ele>570</ele>
        <time>2021-05-29T13:51:45.301Z</time>
      </trkpt>
      <trkpt lat="46.66869" lon="5.6086">
        <ele>570</ele>
        <time>2021-05-29T13:51:46.300Z</time>
      </trkpt>
      <trkpt lat="46.6687" lon="5.60863">
        <ele>570</ele>
        <time>2021-05-29T13:51:47.301Z</time>
      </trkpt>
      <trkpt lat="46.66872" lon="5.60866">
        <ele>570</ele>
        <time>2021-05-29T13:51:48.301Z</time>
      </trkpt>
      <trkpt lat="46.66873" lon="5.60869">
        <ele>570</ele>
        <time>2021-05-29T13:51:49.301Z</time>
      </trkpt>
      <trkpt lat="46.66875" lon="5.60871">
        <ele>570</ele>
        <time>2021-05-29T13:51:50.301Z</time>
      </trkpt>
      <trkpt lat="46.66875" lon="5.60874">
        <ele>570</ele>
        <time>2021-05-29T13:51:51.300Z</time>
      </trkpt>
      <trkpt lat="46.66876" lon="5.60876">
        <ele>570</ele>
        <time>2021-05-29T13:51:52.301Z</time>
      </trkpt>
      <trkpt lat="46.66876" lon="5.60879">
        <ele>569</ele>
        <time>2021-05-29T13:51:53.301Z</time>
      </trkpt>
      <trkpt lat="46.66878" lon="5.60882">
        <ele>569</ele>
        <time>2021-05-29T13:51:54.300Z</time>
      </trkpt>
      <trkpt lat="46.6688" lon="5.60885">
        <ele>568</ele>
        <time>2021-05-29T13:51:55.301Z</time>
      </trkpt>
      <trkpt lat="46.66881" lon="5.60888">
        <ele>568</ele>
        <time>2021-05-29T13:51:56.301Z</time>
      </trkpt>
      <trkpt lat="46.66882" lon="5.60892">
        <ele>568</ele>
        <time>2021-05-29T13:51:57.301Z</time>
      </trkpt>
      <trkpt lat="46.66883" lon="5.60895">
        <ele>568</ele>
        <time>2021-05-29T13:51:58.301Z</time>
      </trkpt>
      <trkpt lat="46.66883" lon="5.60899">
        <ele>567</ele>
        <time>2021-05-29T13:51:59.301Z</time>
      </trkpt>
      <trkpt lat="46.66885" lon="5.60902">
        <ele>567</ele>
        <time>2021-05-29T13:52:00.300Z</time>
      </trkpt>
      <trkpt lat="46.66886" lon="5.60904">
        <ele>567</ele>
        <time>2021-05-29T13:52:01.300Z</time>
      </trkpt>
      <trkpt lat="46.66887" lon="5.60906">
        <ele>567</ele>
        <time>2021-05-29T13:52:02.301Z</time>
      </trkpt>
      <trkpt lat="46.66889" lon="5.60908">
        <ele>567</ele>
        <time>2021-05-29T13:52:03.300Z</time>
      </trkpt>
      <trkpt lat="46.6689" lon="5.60909">
        <ele>567</ele>
        <time>2021-05-29T13:52:04.301Z</time>
      </trkpt>
      <trkpt lat="46.6689" lon="5.6091">
        <ele>567</ele>
        <time>2021-05-29T13:52:05.301Z</time>
      </trkpt>
      <trkpt lat="46.6689" lon="5.60911">
        <ele>566</ele>
        <time>2021-05-29T13:52:06.301Z</time>
      </trkpt>
      <trkpt lat="46.6689" lon="5.60911">
        <ele>566</ele>
        <time>2021-05-29T13:52:07.300Z</time>
      </trkpt>
      <trkpt lat="46.6689" lon="5.60911">
        <ele>565</ele>
        <time>2021-05-29T13:52:08.301Z</time>
      </trkpt>
      <trkpt lat="46.66891" lon="5.60913">
        <ele>565</ele>
        <time>2021-05-29T13:52:09.301Z</time>
      </trkpt>
      <trkpt lat="46.66892" lon="5.60914">
        <ele>565</ele>
        <time>2021-05-29T13:52:10.301Z</time>
      </trkpt>
      <trkpt lat="46.66893" lon="5.60916">
        <ele>564</ele>
        <time>2021-05-29T13:52:11.301Z</time>
      </trkpt>
      <trkpt lat="46.66894" lon="5.60918">
        <ele>564</ele>
        <time>2021-05-29T13:52:12.301Z</time>
      </trkpt>
      <trkpt lat="46.66895" lon="5.60921">
        <ele>563</ele>
        <time>2021-05-29T13:52:13.301Z</time>
      </trkpt>
      <trkpt lat="46.66897" lon="5.60924">
        <ele>562</ele>
        <time>2021-05-29T13:52:14.300Z</time>
      </trkpt>
      <trkpt lat="46.66898" lon="5.60928">
        <ele>562</ele>
        <time>2021-05-29T13:52:15.300Z</time>
      </trkpt>
      <trkpt lat="46.66899" lon="5.60931">
        <ele>562</ele>
        <time>2021-05-29T13:52:16.301Z</time>
      </trkpt>
      <trkpt lat="46.669" lon="5.60934">
        <ele>562</ele>
        <time>2021-05-29T13:52:17.301Z</time>
      </trkpt>
      <trkpt lat="46.66901" lon="5.60936">
        <ele>561</ele>
        <time>2021-05-29T13:52:18.301Z</time>
      </trkpt>
      <trkpt lat="46.66903" lon="5.60939">
        <ele>561</ele>
        <time>2021-05-29T13:52:19.301Z</time>
      </trkpt>
      <trkpt lat="46.66904" lon="5.60941">
        <ele>561</ele>
        <time>2021-05-29T13:52:20.301Z</time>
      </trkpt>
      <trkpt lat="46.66905" lon="5.60943">
        <ele>561</ele>
        <time>2021-05-29T13:52:21.301Z</time>
      </trkpt>
      <trkpt lat="46.66907" lon="5.60945">
        <ele>561</ele>
        <time>2021-05-29T13:52:22.301Z</time>
      </trkpt>
      <trkpt lat="46.66908" lon="5.60948">
        <ele>560</ele>
        <time>2021-05-29T13:52:23.301Z</time>
      </trkpt>
      <trkpt lat="46.66908" lon="5.6095">
        <ele>561</ele>
        <time>2021-05-29T13:52:24.301Z</time>
      </trkpt>
      <trkpt lat="46.6691" lon="5.60952">
        <ele>561</ele>
        <time>2021-05-29T13:52:25.300Z</time>
      </trkpt>
      <trkpt lat="46.6691" lon="5.60954">
        <ele>561</ele>
        <time>2021-05-29T13:52:26.300Z</time>
      </trkpt>
      <trkpt lat="46.66911" lon="5.60956">
        <ele>561</ele>
        <time>2021-05-29T13:52:27.301Z</time>
      </trkpt>
      <trkpt lat="46.66911" lon="5.60958">
        <ele>561</ele>
        <time>2021-05-29T13:52:28.301Z</time>
      </trkpt>
      <trkpt lat="46.66912" lon="5.6096">
        <ele>562</ele>
        <time>2021-05-29T13:52:29.301Z</time>
      </trkpt>
      <trkpt lat="46.66913" lon="5.60963">
        <ele>562</ele>
        <time>2021-05-29T13:52:30.300Z</time>
      </trkpt>
      <trkpt lat="46.66914" lon="5.60966">
        <ele>562</ele>
        <time>2021-05-29T13:52:31.301Z</time>
      </trkpt>
      <trkpt lat="46.66914" lon="5.60968">
        <ele>562</ele>
        <time>2021-05-29T13:52:32.300Z</time>
      </trkpt>
      <trkpt lat="46.66915" lon="5.60971">
        <ele>562</ele>
        <time>2021-05-29T13:52:33.301Z</time>
      </trkpt>
      <trkpt lat="46.66916" lon="5.60973">
        <ele>562</ele>
        <time>2021-05-29T13:52:34.301Z</time>
      </trkpt>
      <trkpt lat="46.66916" lon="5.60975">
        <ele>562</ele>
        <time>2021-05-29T13:52:35.300Z</time>
      </trkpt>
      <trkpt lat="46.66917" lon="5.60977">
        <ele>562</ele>
        <time>2021-05-29T13:52:36.300Z</time>
      </trkpt>
      <trkpt lat="46.66917" lon="5.60979">
        <ele>562</ele>
        <time>2021-05-29T13:52:37.301Z</time>
      </trkpt>
      <trkpt lat="46.66918" lon="5.60981">
        <ele>562</ele>
        <time>2021-05-29T13:52:38.301Z</time>
      </trkpt>
      <trkpt lat="46.66918" lon="5.60983">
        <ele>562</ele>
        <time>2021-05-29T13:52:39.301Z</time>
      </trkpt>
      <trkpt lat="46.66918" lon="5.60985">
        <ele>563</ele>
        <time>2021-05-29T13:52:40.301Z</time>
      </trkpt>
      <trkpt lat="46.66919" lon="5.60987">
        <ele>563</ele>
        <time>2021-05-29T13:52:41.300Z</time>
      </trkpt>
      <trkpt lat="46.6692" lon="5.60989">
        <ele>563</ele>
        <time>2021-05-29T13:52:42.301Z</time>
      </trkpt>
      <trkpt lat="46.6692" lon="5.60991">
        <ele>563</ele>
        <time>2021-05-29T13:52:43.300Z</time>
      </trkpt>
      <trkpt lat="46.66921" lon="5.60993">
        <ele>563</ele>
        <time>2021-05-29T13:52:44.300Z</time>
      </trkpt>
      <trkpt lat="46.66922" lon="5.60995">
        <ele>563</ele>
        <time>2021-05-29T13:52:45.301Z</time>
      </trkpt>
      <trkpt lat="46.66923" lon="5.60996">
        <ele>564</ele>
        <time>2021-05-29T13:52:46.301Z</time>
      </trkpt>
      <trkpt lat="46.66923" lon="5.60996">
        <ele>564</ele>
        <time>2021-05-29T13:52:47.301Z</time>
      </trkpt>
      <trkpt lat="46.66924" lon="5.60996">
        <ele>564</ele>
        <time>2021-05-29T13:52:48.300Z</time>
      </trkpt>
      <trkpt lat="46.66924" lon="5.60995">
        <ele>564</ele>
        <time>2021-05-29T13:52:49.301Z</time>
      </trkpt>
      <trkpt lat="46.66925" lon="5.60995">
        <ele>564</ele>
        <time>2021-05-29T13:52:50.301Z</time>
      </trkpt>
      <trkpt lat="46.66925" lon="5.60995">
        <ele>564</ele>
        <time>2021-05-29T13:52:51.301Z</time>
      </trkpt>
      <trkpt lat="46.66925" lon="5.60996">
        <ele>564</ele>
        <time>2021-05-29T13:52:52.300Z</time>
      </trkpt>
      <trkpt lat="46.66925" lon="5.60996">
        <ele>564</ele>
        <time>2021-05-29T13:52:53.301Z</time>
      </trkpt>
      <trkpt lat="46.66926" lon="5.60995">
        <ele>563</ele>
        <time>2021-05-29T13:52:54.301Z</time>
      </trkpt>
      <trkpt lat="46.66926" lon="5.60995">
        <ele>563</ele>
        <time>2021-05-29T13:52:55.300Z</time>
      </trkpt>
      <trkpt lat="46.66927" lon="5.60995">
        <ele>562</ele>
        <time>2021-05-29T13:52:56.301Z</time>
      </trkpt>
      <trkpt lat="46.66927" lon="5.60995">
        <ele>562</ele>
        <time>2021-05-29T13:52:57.300Z</time>
      </trkpt>
      <trkpt lat="46.66928" lon="5.60995">
        <ele>561</ele>
        <time>2021-05-29T13:52:58.300Z</time>
      </trkpt>
      <trkpt lat="46.66929" lon="5.60995">
        <ele>560</ele>
        <time>2021-05-29T13:52:59.301Z</time>
      </trkpt>
      <trkpt lat="46.66929" lon="5.60994">
        <ele>560</ele>
        <time>2021-05-29T13:53:00.301Z</time>
      </trkpt>
      <trkpt lat="46.66929" lon="5.60994">
        <ele>559</ele>
        <time>2021-05-29T13:53:01.300Z</time>
      </trkpt>
      <trkpt lat="46.66929" lon="5.60994">
        <ele>559</ele>
        <time>2021-05-29T13:53:02.301Z</time>
      </trkpt>
      <trkpt lat="46.66929" lon="5.60994">
        <ele>559</ele>
        <time>2021-05-29T13:53:03.301Z</time>
      </trkpt>
      <trkpt lat="46.6693" lon="5.60994">
        <ele>559</ele>
        <time>2021-05-29T13:53:04.300Z</time>
      </trkpt>
      <trkpt lat="46.6693" lon="5.60994">
        <ele>559</ele>
        <time>2021-05-29T13:53:05.301Z</time>
      </trkpt>
      <trkpt lat="46.6693" lon="5.60993">
        <ele>560</ele>
        <time>2021-05-29T13:53:06.300Z</time>
      </trkpt>
      <trkpt lat="46.6693" lon="5.60994">
        <ele>560</ele>
        <time>2021-05-29T13:53:07.300Z</time>
      </trkpt>
      <trkpt lat="46.66931" lon="5.60995">
        <ele>560</ele>
        <time>2021-05-29T13:53:08.300Z</time>
      </trkpt>
      <trkpt lat="46.66933" lon="5.60996">
        <ele>560</ele>
        <time>2021-05-29T13:53:09.300Z</time>
      </trkpt>
      <trkpt lat="46.66933" lon="5.60996">
        <ele>559</ele>
        <time>2021-05-29T13:53:10.301Z</time>
      </trkpt>
      <trkpt lat="46.66933" lon="5.60997">
        <ele>559</ele>
        <time>2021-05-29T13:53:11.300Z</time>
      </trkpt>
      <trkpt lat="46.66932" lon="5.60996">
        <ele>558</ele>
        <time>2021-05-29T13:53:12.301Z</time>
      </trkpt>
      <trkpt lat="46.66932" lon="5.60996">
        <ele>557</ele>
        <time>2021-05-29T13:53:13.300Z</time>
      </trkpt>
      <trkpt lat="46.66932" lon="5.60996">
        <ele>556</ele>
        <time>2021-05-29T13:53:14.301Z</time>
      </trkpt>
      <trkpt lat="46.66932" lon="5.60996">
        <ele>555</ele>
        <time>2021-05-29T13:53:15.300Z</time>
      </trkpt>
      <trkpt lat="46.66931" lon="5.60996">
        <ele>553</ele>
        <time>2021-05-29T13:53:16.301Z</time>
      </trkpt>
      <trkpt lat="46.66931" lon="5.60996">
        <ele>552</ele>
        <time>2021-05-29T13:53:17.301Z</time>
      </trkpt>
      <trkpt lat="46.66931" lon="5.60996">
        <ele>551</ele>
        <time>2021-05-29T13:53:18.300Z</time>
      </trkpt>
      <trkpt lat="46.66931" lon="5.60996">
        <ele>550</ele>
        <time>2021-05-29T13:53:19.301Z</time>
      </trkpt>
      <trkpt lat="46.66931" lon="5.60996">
        <ele>550</ele>
        <time>2021-05-29T13:53:20.301Z</time>
      </trkpt>
      <trkpt lat="46.66931" lon="5.60996">
        <ele>549</ele>
        <time>2021-05-29T13:53:21.301Z</time>
      </trkpt>
      <trkpt lat="46.66931" lon="5.60996">
        <ele>548</ele>
        <time>2021-05-29T13:53:22.300Z</time>
      </trkpt>
      <trkpt lat="46.66931" lon="5.60996">
        <ele>548</ele>
        <time>2021-05-29T13:53:23.301Z</time>
      </trkpt>
      <trkpt lat="46.66931" lon="5.60996">
        <ele>547</ele>
        <time>2021-05-29T13:53:24.301Z</time>
      </trkpt>
      <trkpt lat="46.66931" lon="5.60996">
        <ele>547</ele>
        <time>2021-05-29T13:53:25.301Z</time>
      </trkpt>
      <trkpt lat="46.66931" lon="5.60996">
        <ele>546</ele>
        <time>2021-05-29T13:53:26.301Z</time>
      </trkpt>
      <trkpt lat="46.66931" lon="5.60996">
        <ele>546</ele>
        <time>2021-05-29T13:53:27.301Z</time>
      </trkpt>
      <trkpt lat="46.66931" lon="5.60996">
        <ele>546</ele>
        <time>2021-05-29T13:53:28.301Z</time>
      </trkpt>
      <trkpt lat="46.66931" lon="5.60996">
        <ele>546</ele>
        <time>2021-05-29T13:53:29.301Z</time>
      </trkpt>
      <trkpt lat="46.66931" lon="5.60996">
        <ele>546</ele>
        <time>2021-05-29T13:53:30.301Z</time>
      </trkpt>
      <trkpt lat="46.66931" lon="5.60996">
        <ele>546</ele>
        <time>2021-05-29T13:53:31.301Z</time>
      </trkpt>
      <trkpt lat="46.66931" lon="5.60996">
        <ele>546</ele>
        <time>2021-05-29T13:53:32.301Z</time>
      </trkpt>
      <trkpt lat="46.66931" lon="5.60996">
        <ele>546</ele>
        <time>2021-05-29T13:53:33.301Z</time>
      </trkpt>
      <trkpt lat="46.66931" lon="5.60996">
        <ele>546</ele>
        <time>2021-05-29T13:53:34.301Z</time>
      </trkpt>
      <trkpt lat="46.6693" lon="5.60996">
        <ele>546</ele>
        <time>2021-05-29T13:53:35.301Z</time>
      </trkpt>
      <trkpt lat="46.6693" lon="5.60995">
        <ele>546</ele>
        <time>2021-05-29T13:53:36.301Z</time>
      </trkpt>
      <trkpt lat="46.6693" lon="5.60995">
        <ele>546</ele>
        <time>2021-05-29T13:53:37.301Z</time>
      </trkpt>
      <trkpt lat="46.6693" lon="5.60995">
        <ele>546</ele>
        <time>2021-05-29T13:53:38.301Z</time>
      </trkpt>
      <trkpt lat="46.6693" lon="5.60995">
        <ele>546</ele>
        <time>2021-05-29T13:53:39.300Z</time>
      </trkpt>
      <trkpt lat="46.66929" lon="5.60995">
        <ele>546</ele>
        <time>2021-05-29T13:53:40.301Z</time>
      </trkpt>
      <trkpt lat="46.66928" lon="5.60995">
        <ele>546</ele>
        <time>2021-05-29T13:53:41.301Z</time>
      </trkpt>
      <trkpt lat="46.66928" lon="5.60995">
        <ele>546</ele>
        <time>2021-05-29T13:53:42.300Z</time>
      </trkpt>
      <trkpt lat="46.66928" lon="5.60995">
        <ele>546</ele>
        <time>2021-05-29T13:53:43.301Z</time>
      </trkpt>
      <trkpt lat="46.66928" lon="5.60995">
        <ele>546</ele>
        <time>2021-05-29T13:53:44.300Z</time>
      </trkpt>
      <trkpt lat="46.66928" lon="5.60995">
        <ele>546</ele>
        <time>2021-05-29T13:53:45.300Z</time>
      </trkpt>
      <trkpt lat="46.66928" lon="5.60995">
        <ele>546</ele>
        <time>2021-05-29T13:53:46.301Z</time>
      </trkpt>
      <trkpt lat="46.66928" lon="5.60995">
        <ele>546</ele>
        <time>2021-05-29T13:53:47.301Z</time>
      </trkpt>
      <trkpt lat="46.66928" lon="5.60995">
        <ele>546</ele>
        <time>2021-05-29T13:53:48.301Z</time>
      </trkpt>
      <trkpt lat="46.66928" lon="5.60995">
        <ele>546</ele>
        <time>2021-05-29T13:53:49.301Z</time>
      </trkpt>
      <trkpt lat="46.66928" lon="5.60995">
        <ele>546</ele>
        <time>2021-05-29T13:53:50.301Z</time>
      </trkpt>
      <trkpt lat="46.66928" lon="5.60995">
        <ele>546</ele>
        <time>2021-05-29T13:53:51.301Z</time>
      </trkpt>
      <trkpt lat="46.66928" lon="5.60995">
        <ele>546</ele>
        <time>2021-05-29T13:53:52.301Z</time>
      </trkpt>
      <trkpt lat="46.66927" lon="5.60995">
        <ele>546</ele>
        <time>2021-05-29T13:53:53.301Z</time>
      </trkpt>
      <trkpt lat="46.66927" lon="5.60995">
        <ele>546</ele>
        <time>2021-05-29T13:53:54.301Z</time>
      </trkpt>
      <trkpt lat="46.66927" lon="5.60995">
        <ele>546</ele>
        <time>2021-05-29T13:53:55.301Z</time>
      </trkpt>
      <trkpt lat="46.66927" lon="5.60996">
        <ele>546</ele>
        <time>2021-05-29T13:53:56.301Z</time>
      </trkpt>
      <trkpt lat="46.66927" lon="5.60996">
        <ele>546</ele>
        <time>2021-05-29T13:53:57.301Z</time>
      </trkpt>
      <trkpt lat="46.66927" lon="5.60996">
        <ele>546</ele>
        <time>2021-05-29T13:53:58.301Z</time>
      </trkpt>
      <trkpt lat="46.66927" lon="5.60996">
        <ele>546</ele>
        <time>2021-05-29T13:53:59.301Z</time>
      </trkpt>
      <trkpt lat="46.66927" lon="5.60996">
        <ele>546</ele>
        <time>2021-05-29T13:54:00.301Z</time>
      </trkpt>
      <trkpt lat="46.66927" lon="5.60996">
        <ele>546</ele>
        <time>2021-05-29T13:54:01.301Z</time>
      </trkpt>
      <trkpt lat="46.66927" lon="5.60997">
        <ele>546</ele>
        <time>2021-05-29T13:54:02.300Z</time>
      </trkpt>
      <trkpt lat="46.66927" lon="5.60997">
        <ele>546</ele>
        <time>2021-05-29T13:54:03.301Z</time>
      </trkpt>
      <trkpt lat="46.66927" lon="5.60997">
        <ele>546</ele>
        <time>2021-05-29T13:54:04.301Z</time>
      </trkpt>
      <trkpt lat="46.66928" lon="5.60998">
        <ele>546</ele>
        <time>2021-05-29T13:54:05.301Z</time>
      </trkpt>
      <trkpt lat="46.66928" lon="5.61001">
        <ele>546</ele>
        <time>2021-05-29T13:54:06.300Z</time>
      </trkpt>
      <trkpt lat="46.6693" lon="5.61004">
        <ele>546</ele>
        <time>2021-05-29T13:54:07.301Z</time>
      </trkpt>
      <trkpt lat="46.66931" lon="5.61007">
        <ele>546</ele>
        <time>2021-05-29T13:54:08.301Z</time>
      </trkpt>
      <trkpt lat="46.66932" lon="5.61011">
        <ele>546</ele>
        <time>2021-05-29T13:54:09.301Z</time>
      </trkpt>
      <trkpt lat="46.66934" lon="5.61014">
        <ele>546</ele>
        <time>2021-05-29T13:54:10.301Z</time>
      </trkpt>
      <trkpt lat="46.66935" lon="5.61018">
        <ele>547</ele>
        <time>2021-05-29T13:54:11.301Z</time>
      </trkpt>
      <trkpt lat="46.66936" lon="5.61022">
        <ele>548</ele>
        <time>2021-05-29T13:54:12.301Z</time>
      </trkpt>
      <trkpt lat="46.66938" lon="5.61026">
        <ele>549</ele>
        <time>2021-05-29T13:54:13.301Z</time>
      </trkpt>
      <trkpt lat="46.6694" lon="5.6103">
        <ele>550</ele>
        <time>2021-05-29T13:54:14.301Z</time>
      </trkpt>
      <trkpt lat="46.66941" lon="5.61034">
        <ele>551</ele>
        <time>2021-05-29T13:54:15.301Z</time>
      </trkpt>
      <trkpt lat="46.66942" lon="5.61039">
        <ele>552</ele>
        <time>2021-05-29T13:54:16.301Z</time>
      </trkpt>
      <trkpt lat="46.66943" lon="5.61043">
        <ele>552</ele>
        <time>2021-05-29T13:54:17.301Z</time>
      </trkpt>
      <trkpt lat="46.66945" lon="5.61047">
        <ele>552</ele>
        <time>2021-05-29T13:54:18.301Z</time>
      </trkpt>
      <trkpt lat="46.66947" lon="5.61051">
        <ele>552</ele>
        <time>2021-05-29T13:54:19.301Z</time>
      </trkpt>
      <trkpt lat="46.66949" lon="5.61054">
        <ele>552</ele>
        <time>2021-05-29T13:54:20.301Z</time>
      </trkpt>
      <trkpt lat="46.66951" lon="5.61059">
        <ele>552</ele>
        <time>2021-05-29T13:54:21.301Z</time>
      </trkpt>
      <trkpt lat="46.66953" lon="5.61063">
        <ele>552</ele>
        <time>2021-05-29T13:54:22.300Z</time>
      </trkpt>
      <trkpt lat="46.66955" lon="5.61067">
        <ele>552</ele>
        <time>2021-05-29T13:54:23.301Z</time>
      </trkpt>
      <trkpt lat="46.66956" lon="5.6107">
        <ele>553</ele>
        <time>2021-05-29T13:54:24.301Z</time>
      </trkpt>
      <trkpt lat="46.66958" lon="5.61074">
        <ele>553</ele>
        <time>2021-05-29T13:54:25.301Z</time>
      </trkpt>
      <trkpt lat="46.66959" lon="5.61078">
        <ele>553</ele>
        <time>2021-05-29T13:54:26.300Z</time>
      </trkpt>
      <trkpt lat="46.6696" lon="5.61082">
        <ele>554</ele>
        <time>2021-05-29T13:54:27.301Z</time>
      </trkpt>
      <trkpt lat="46.66961" lon="5.61085">
        <ele>554</ele>
        <time>2021-05-29T13:54:28.301Z</time>
      </trkpt>
      <trkpt lat="46.66963" lon="5.6109">
        <ele>554</ele>
        <time>2021-05-29T13:54:29.300Z</time>
      </trkpt>
      <trkpt lat="46.66964" lon="5.61094">
        <ele>554</ele>
        <time>2021-05-29T13:54:30.301Z</time>
      </trkpt>
      <trkpt lat="46.66965" lon="5.61098">
        <ele>554</ele>
        <time>2021-05-29T13:54:31.301Z</time>
      </trkpt>
      <trkpt lat="46.66966" lon="5.61101">
        <ele>554</ele>
        <time>2021-05-29T13:54:32.301Z</time>
      </trkpt>
      <trkpt lat="46.66967" lon="5.61103">
        <ele>554</ele>
        <time>2021-05-29T13:54:33.301Z</time>
      </trkpt>
      <trkpt lat="46.66968" lon="5.61107">
        <ele>554</ele>
        <time>2021-05-29T13:54:34.301Z</time>
      </trkpt>
      <trkpt lat="46.66969" lon="5.61109">
        <ele>554</ele>
        <time>2021-05-29T13:54:35.300Z</time>
      </trkpt>
      <trkpt lat="46.6697" lon="5.61113">
        <ele>555</ele>
        <time>2021-05-29T13:54:36.301Z</time>
      </trkpt>
      <trkpt lat="46.66971" lon="5.61115">
        <ele>555</ele>
        <time>2021-05-29T13:54:37.300Z</time>
      </trkpt>
      <trkpt lat="46.66971" lon="5.61118">
        <ele>555</ele>
        <time>2021-05-29T13:54:38.301Z</time>
      </trkpt>
      <trkpt lat="46.66972" lon="5.6112">
        <ele>556</ele>
        <time>2021-05-29T13:54:39.301Z</time>
      </trkpt>
      <trkpt lat="46.66973" lon="5.61125">
        <ele>556</ele>
        <time>2021-05-29T13:54:40.301Z</time>
      </trkpt>
      <trkpt lat="46.66975" lon="5.61129">
        <ele>557</ele>
        <time>2021-05-29T13:54:41.301Z</time>
      </trkpt>
      <trkpt lat="46.66976" lon="5.61132">
        <ele>557</ele>
        <time>2021-05-29T13:54:42.301Z</time>
      </trkpt>
      <trkpt lat="46.66978" lon="5.61136">
        <ele>558</ele>
        <time>2021-05-29T13:54:43.301Z</time>
      </trkpt>
      <trkpt lat="46.6698" lon="5.61138">
        <ele>559</ele>
        <time>2021-05-29T13:54:44.301Z</time>
      </trkpt>
      <trkpt lat="46.66981" lon="5.61141">
        <ele>559</ele>
        <time>2021-05-29T13:54:45.301Z</time>
      </trkpt>
      <trkpt lat="46.66983" lon="5.61144">
        <ele>559</ele>
        <time>2021-05-29T13:54:46.301Z</time>
      </trkpt>
      <trkpt lat="46.66984" lon="5.61146">
        <ele>560</ele>
        <time>2021-05-29T13:54:47.300Z</time>
      </trkpt>
      <trkpt lat="46.66986" lon="5.61149">
        <ele>560</ele>
        <time>2021-05-29T13:54:48.301Z</time>
      </trkpt>
      <trkpt lat="46.66988" lon="5.61152">
        <ele>560</ele>
        <time>2021-05-29T13:54:49.301Z</time>
      </trkpt>
      <trkpt lat="46.6699" lon="5.61156">
        <ele>561</ele>
        <time>2021-05-29T13:54:50.300Z</time>
      </trkpt>
      <trkpt lat="46.66992" lon="5.61159">
        <ele>562</ele>
        <time>2021-05-29T13:54:51.301Z</time>
      </trkpt>
      <trkpt lat="46.66994" lon="5.61162">
        <ele>562</ele>
        <time>2021-05-29T13:54:52.301Z</time>
      </trkpt>
      <trkpt lat="46.66997" lon="5.61165">
        <ele>563</ele>
        <time>2021-05-29T13:54:53.301Z</time>
      </trkpt>
      <trkpt lat="46.66999" lon="5.61168">
        <ele>564</ele>
        <time>2021-05-29T13:54:54.301Z</time>
      </trkpt>
      <trkpt lat="46.67001" lon="5.61171">
        <ele>564</ele>
        <time>2021-05-29T13:54:55.300Z</time>
      </trkpt>
      <trkpt lat="46.67003" lon="5.61175">
        <ele>565</ele>
        <time>2021-05-29T13:54:56.301Z</time>
      </trkpt>
      <trkpt lat="46.67004" lon="5.61178">
        <ele>566</ele>
        <time>2021-05-29T13:54:57.301Z</time>
      </trkpt>
      <trkpt lat="46.67005" lon="5.61181">
        <ele>566</ele>
        <time>2021-05-29T13:54:58.301Z</time>
      </trkpt>
      <trkpt lat="46.67006" lon="5.61183">
        <ele>567</ele>
        <time>2021-05-29T13:54:59.301Z</time>
      </trkpt>
      <trkpt lat="46.67006" lon="5.61184">
        <ele>567</ele>
        <time>2021-05-29T13:55:00.300Z</time>
      </trkpt>
      <trkpt lat="46.67007" lon="5.61185">
        <ele>568</ele>
        <time>2021-05-29T13:55:01.301Z</time>
      </trkpt>
      <trkpt lat="46.67007" lon="5.61186">
        <ele>568</ele>
        <time>2021-05-29T13:55:02.301Z</time>
      </trkpt>
      <trkpt lat="46.67007" lon="5.61186">
        <ele>568</ele>
        <time>2021-05-29T13:55:03.300Z</time>
      </trkpt>
      <trkpt lat="46.67007" lon="5.61186">
        <ele>568</ele>
        <time>2021-05-29T13:55:04.300Z</time>
      </trkpt>
      <trkpt lat="46.67007" lon="5.61186">
        <ele>568</ele>
        <time>2021-05-29T13:55:05.301Z</time>
      </trkpt>
      <trkpt lat="46.67008" lon="5.61187">
        <ele>568</ele>
        <time>2021-05-29T13:55:06.300Z</time>
      </trkpt>
      <trkpt lat="46.67008" lon="5.61187">
        <ele>568</ele>
        <time>2021-05-29T13:55:07.301Z</time>
      </trkpt>
      <trkpt lat="46.67008" lon="5.61188">
        <ele>568</ele>
        <time>2021-05-29T13:55:08.301Z</time>
      </trkpt>
      <trkpt lat="46.67007" lon="5.61188">
        <ele>567</ele>
        <time>2021-05-29T13:55:09.301Z</time>
      </trkpt>
      <trkpt lat="46.67008" lon="5.61189">
        <ele>567</ele>
        <time>2021-05-29T13:55:10.300Z</time>
      </trkpt>
      <trkpt lat="46.67008" lon="5.6119">
        <ele>567</ele>
        <time>2021-05-29T13:55:11.300Z</time>
      </trkpt>
      <trkpt lat="46.67008" lon="5.61191">
        <ele>567</ele>
        <time>2021-05-29T13:55:12.301Z</time>
      </trkpt>
      <trkpt lat="46.67007" lon="5.61192">
        <ele>567</ele>
        <time>2021-05-29T13:55:13.301Z</time>
      </trkpt>
      <trkpt lat="46.67007" lon="5.61192">
        <ele>567</ele>
        <time>2021-05-29T13:55:14.300Z</time>
      </trkpt>
      <trkpt lat="46.67006" lon="5.61191">
        <ele>566</ele>
        <time>2021-05-29T13:55:15.301Z</time>
      </trkpt>
      <trkpt lat="46.67005" lon="5.61189">
        <ele>566</ele>
        <time>2021-05-29T13:55:16.301Z</time>
      </trkpt>
      <trkpt lat="46.67005" lon="5.61188">
        <ele>566</ele>
        <time>2021-05-29T13:55:17.301Z</time>
      </trkpt>
      <trkpt lat="46.67004" lon="5.61187">
        <ele>566</ele>
        <time>2021-05-29T13:55:18.301Z</time>
      </trkpt>
      <trkpt lat="46.67004" lon="5.61187">
        <ele>566</ele>
        <time>2021-05-29T13:55:19.301Z</time>
      </trkpt>
      <trkpt lat="46.67004" lon="5.61186">
        <ele>567</ele>
        <time>2021-05-29T13:55:20.300Z</time>
      </trkpt>
      <trkpt lat="46.67003" lon="5.61187">
        <ele>567</ele>
        <time>2021-05-29T13:55:21.301Z</time>
      </trkpt>
      <trkpt lat="46.67003" lon="5.61187">
        <ele>567</ele>
        <time>2021-05-29T13:55:22.301Z</time>
      </trkpt>
      <trkpt lat="46.67003" lon="5.61187">
        <ele>568</ele>
        <time>2021-05-29T13:55:23.301Z</time>
      </trkpt>
      <trkpt lat="46.67003" lon="5.61186">
        <ele>568</ele>
        <time>2021-05-29T13:55:24.300Z</time>
      </trkpt>
      <trkpt lat="46.67003" lon="5.61187">
        <ele>568</ele>
        <time>2021-05-29T13:55:25.301Z</time>
      </trkpt>
      <trkpt lat="46.67003" lon="5.61187">
        <ele>568</ele>
        <time>2021-05-29T13:55:26.300Z</time>
      </trkpt>
      <trkpt lat="46.67003" lon="5.61188">
        <ele>568</ele>
        <time>2021-05-29T13:55:27.300Z</time>
      </trkpt>
      <trkpt lat="46.67003" lon="5.61188">
        <ele>568</ele>
        <time>2021-05-29T13:55:28.301Z</time>
      </trkpt>
      <trkpt lat="46.67003" lon="5.61189">
        <ele>567</ele>
        <time>2021-05-29T13:55:29.301Z</time>
      </trkpt>
      <trkpt lat="46.67002" lon="5.61189">
        <ele>567</ele>
        <time>2021-05-29T13:55:30.301Z</time>
      </trkpt>
      <trkpt lat="46.67002" lon="5.61189">
        <ele>566</ele>
        <time>2021-05-29T13:55:31.301Z</time>
      </trkpt>
      <trkpt lat="46.67001" lon="5.61189">
        <ele>565</ele>
        <time>2021-05-29T13:55:32.301Z</time>
      </trkpt>
      <trkpt lat="46.67001" lon="5.6119">
        <ele>565</ele>
        <time>2021-05-29T13:55:33.301Z</time>
      </trkpt>
      <trkpt lat="46.67001" lon="5.6119">
        <ele>565</ele>
        <time>2021-05-29T13:55:34.301Z</time>
      </trkpt>
      <trkpt lat="46.67001" lon="5.6119">
        <ele>565</ele>
        <time>2021-05-29T13:55:35.301Z</time>
      </trkpt>
      <trkpt lat="46.67002" lon="5.61191">
        <ele>564</ele>
        <time>2021-05-29T13:55:36.301Z</time>
      </trkpt>
      <trkpt lat="46.67002" lon="5.61191">
        <ele>564</ele>
        <time>2021-05-29T13:55:37.301Z</time>
      </trkpt>
      <trkpt lat="46.67002" lon="5.61191">
        <ele>563</ele>
        <time>2021-05-29T13:55:38.301Z</time>
      </trkpt>
      <trkpt lat="46.67002" lon="5.61191">
        <ele>563</ele>
        <time>2021-05-29T13:55:39.300Z</time>
      </trkpt>
      <trkpt lat="46.67002" lon="5.61191">
        <ele>563</ele>
        <time>2021-05-29T13:55:40.300Z</time>
      </trkpt>
      <trkpt lat="46.67002" lon="5.61191">
        <ele>563</ele>
        <time>2021-05-29T13:55:41.300Z</time>
      </trkpt>
      <trkpt lat="46.67002" lon="5.61191">
        <ele>562</ele>
        <time>2021-05-29T13:55:42.300Z</time>
      </trkpt>
      <trkpt lat="46.67002" lon="5.61191">
        <ele>562</ele>
        <time>2021-05-29T13:55:43.301Z</time>
      </trkpt>
      <trkpt lat="46.67002" lon="5.61191">
        <ele>562</ele>
        <time>2021-05-29T13:55:44.301Z</time>
      </trkpt>
      <trkpt lat="46.67002" lon="5.61191">
        <ele>562</ele>
        <time>2021-05-29T13:55:45.300Z</time>
      </trkpt>
      <trkpt lat="46.67002" lon="5.61191">
        <ele>561</ele>
        <time>2021-05-29T13:55:46.300Z</time>
      </trkpt>
      <trkpt lat="46.67002" lon="5.61191">
        <ele>561</ele>
        <time>2021-05-29T13:55:47.301Z</time>
      </trkpt>
      <trkpt lat="46.67002" lon="5.61191">
        <ele>561</ele>
        <time>2021-05-29T13:55:48.301Z</time>
      </trkpt>
      <trkpt lat="46.67002" lon="5.61191">
        <ele>561</ele>
        <time>2021-05-29T13:55:49.301Z</time>
      </trkpt>
      <trkpt lat="46.67002" lon="5.61191">
        <ele>561</ele>
        <time>2021-05-29T13:55:50.301Z</time>
      </trkpt>
      <trkpt lat="46.67002" lon="5.61191">
        <ele>561</ele>
        <time>2021-05-29T13:55:51.301Z</time>
      </trkpt>
      <trkpt lat="46.67002" lon="5.61191">
        <ele>561</ele>
        <time>2021-05-29T13:55:52.301Z</time>
      </trkpt>
      <trkpt lat="46.67002" lon="5.61191">
        <ele>561</ele>
        <time>2021-05-29T13:55:53.301Z</time>
      </trkpt>
      <trkpt lat="46.67003" lon="5.61191">
        <ele>561</ele>
        <time>2021-05-29T13:55:54.301Z</time>
      </trkpt>
      <trkpt lat="46.67003" lon="5.61191">
        <ele>561</ele>
        <time>2021-05-29T13:55:55.301Z</time>
      </trkpt>
      <trkpt lat="46.67003" lon="5.61192">
        <ele>561</ele>
        <time>2021-05-29T13:55:56.300Z</time>
      </trkpt>
      <trkpt lat="46.67003" lon="5.61192">
        <ele>561</ele>
        <time>2021-05-29T13:55:57.301Z</time>
      </trkpt>
      <trkpt lat="46.67003" lon="5.61192">
        <ele>561</ele>
        <time>2021-05-29T13:55:58.301Z</time>
      </trkpt>
      <trkpt lat="46.67004" lon="5.61192">
        <ele>561</ele>
        <time>2021-05-29T13:55:59.300Z</time>
      </trkpt>
      <trkpt lat="46.67004" lon="5.61193">
        <ele>561</ele>
        <time>2021-05-29T13:56:00.301Z</time>
      </trkpt>
      <trkpt lat="46.67004" lon="5.61193">
        <ele>561</ele>
        <time>2021-05-29T13:56:01.301Z</time>
      </trkpt>
      <trkpt lat="46.67006" lon="5.61196">
        <ele>561</ele>
        <time>2021-05-29T13:56:02.301Z</time>
      </trkpt>
      <trkpt lat="46.67008" lon="5.61198">
        <ele>561</ele>
        <time>2021-05-29T13:56:03.300Z</time>
      </trkpt>
      <trkpt lat="46.67009" lon="5.612">
        <ele>561</ele>
        <time>2021-05-29T13:56:04.300Z</time>
      </trkpt>
      <trkpt lat="46.6701" lon="5.61203">
        <ele>561</ele>
        <time>2021-05-29T13:56:05.301Z</time>
      </trkpt>
      <trkpt lat="46.67012" lon="5.61206">
        <ele>561</ele>
        <time>2021-05-29T13:56:06.301Z</time>
      </trkpt>
      <trkpt lat="46.67013" lon="5.61208">
        <ele>560</ele>
        <time>2021-05-29T13:56:07.300Z</time>
      </trkpt>
      <trkpt lat="46.67015" lon="5.61211">
        <ele>560</ele>
        <time>2021-05-29T13:56:08.301Z</time>
      </trkpt>
      <trkpt lat="46.67017" lon="5.61213">
        <ele>559</ele>
        <time>2021-05-29T13:56:09.300Z</time>
      </trkpt>
      <trkpt lat="46.67018" lon="5.61216">
        <ele>559</ele>
        <time>2021-05-29T13:56:10.300Z</time>
      </trkpt>
      <trkpt lat="46.67019" lon="5.61218">
        <ele>559</ele>
        <time>2021-05-29T13:56:11.301Z</time>
      </trkpt>
      <trkpt lat="46.6702" lon="5.61219">
        <ele>559</ele>
        <time>2021-05-29T13:56:12.301Z</time>
      </trkpt>
      <trkpt lat="46.67022" lon="5.61221">
        <ele>560</ele>
        <time>2021-05-29T13:56:13.301Z</time>
      </trkpt>
      <trkpt lat="46.67023" lon="5.61223">
        <ele>560</ele>
        <time>2021-05-29T13:56:14.300Z</time>
      </trkpt>
      <trkpt lat="46.67023" lon="5.61225">
        <ele>561</ele>
        <time>2021-05-29T13:56:15.300Z</time>
      </trkpt>
      <trkpt lat="46.67024" lon="5.61227">
        <ele>561</ele>
        <time>2021-05-29T13:56:16.300Z</time>
      </trkpt>
      <trkpt lat="46.67025" lon="5.6123">
        <ele>561</ele>
        <time>2021-05-29T13:56:17.301Z</time>
      </trkpt>
      <trkpt lat="46.67026" lon="5.61231">
        <ele>561</ele>
        <time>2021-05-29T13:56:18.301Z</time>
      </trkpt>
      <trkpt lat="46.67026" lon="5.61234">
        <ele>561</ele>
        <time>2021-05-29T13:56:19.301Z</time>
      </trkpt>
      <trkpt lat="46.67027" lon="5.61236">
        <ele>561</ele>
        <time>2021-05-29T13:56:20.301Z</time>
      </trkpt>
      <trkpt lat="46.67027" lon="5.61239">
        <ele>561</ele>
        <time>2021-05-29T13:56:21.300Z</time>
      </trkpt>
      <trkpt lat="46.67028" lon="5.61241">
        <ele>561</ele>
        <time>2021-05-29T13:56:22.301Z</time>
      </trkpt>
      <trkpt lat="46.67029" lon="5.61244">
        <ele>561</ele>
        <time>2021-05-29T13:56:23.301Z</time>
      </trkpt>
      <trkpt lat="46.67031" lon="5.61246">
        <ele>561</ele>
        <time>2021-05-29T13:56:24.301Z</time>
      </trkpt>
      <trkpt lat="46.67032" lon="5.61249">
        <ele>561</ele>
        <time>2021-05-29T13:56:25.301Z</time>
      </trkpt>
      <trkpt lat="46.67034" lon="5.61252">
        <ele>561</ele>
        <time>2021-05-29T13:56:26.301Z</time>
      </trkpt>
      <trkpt lat="46.67035" lon="5.61255">
        <ele>561</ele>
        <time>2021-05-29T13:56:27.301Z</time>
      </trkpt>
      <trkpt lat="46.67036" lon="5.61257">
        <ele>561</ele>
        <time>2021-05-29T13:56:28.301Z</time>
      </trkpt>
      <trkpt lat="46.67038" lon="5.6126">
        <ele>561</ele>
        <time>2021-05-29T13:56:29.301Z</time>
      </trkpt>
      <trkpt lat="46.67039" lon="5.61262">
        <ele>561</ele>
        <time>2021-05-29T13:56:30.300Z</time>
      </trkpt>
      <trkpt lat="46.6704" lon="5.61265">
        <ele>562</ele>
        <time>2021-05-29T13:56:31.301Z</time>
      </trkpt>
      <trkpt lat="46.67041" lon="5.61267">
        <ele>563</ele>
        <time>2021-05-29T13:56:32.301Z</time>
      </trkpt>
      <trkpt lat="46.67042" lon="5.6127">
        <ele>563</ele>
        <time>2021-05-29T13:56:33.301Z</time>
      </trkpt>
      <trkpt lat="46.67044" lon="5.61272">
        <ele>564</ele>
        <time>2021-05-29T13:56:34.301Z</time>
      </trkpt>
      <trkpt lat="46.67045" lon="5.61274">
        <ele>564</ele>
        <time>2021-05-29T13:56:35.301Z</time>
      </trkpt>
      <trkpt lat="46.67046" lon="5.61276">
        <ele>564</ele>
        <time>2021-05-29T13:56:36.300Z</time>
      </trkpt>
      <trkpt lat="46.67047" lon="5.61278">
        <ele>564</ele>
        <time>2021-05-29T13:56:37.301Z</time>
      </trkpt>
      <trkpt lat="46.67049" lon="5.61281">
        <ele>565</ele>
        <time>2021-05-29T13:56:38.301Z</time>
      </trkpt>
      <trkpt lat="46.67052" lon="5.61285">
        <ele>565</ele>
        <time>2021-05-29T13:56:39.301Z</time>
      </trkpt>
      <trkpt lat="46.67053" lon="5.61287">
        <ele>565</ele>
        <time>2021-05-29T13:56:40.300Z</time>
      </trkpt>
      <trkpt lat="46.67053" lon="5.61289">
        <ele>565</ele>
        <time>2021-05-29T13:56:41.301Z</time>
      </trkpt>
      <trkpt lat="46.67055" lon="5.61292">
        <ele>566</ele>
        <time>2021-05-29T13:56:42.301Z</time>
      </trkpt>
      <trkpt lat="46.67056" lon="5.61294">
        <ele>566</ele>
        <time>2021-05-29T13:56:43.301Z</time>
      </trkpt>
      <trkpt lat="46.67058" lon="5.61296">
        <ele>567</ele>
        <time>2021-05-29T13:56:44.301Z</time>
      </trkpt>
      <trkpt lat="46.67059" lon="5.61298">
        <ele>567</ele>
        <time>2021-05-29T13:56:45.301Z</time>
      </trkpt>
      <trkpt lat="46.67061" lon="5.61302">
        <ele>568</ele>
        <time>2021-05-29T13:56:46.301Z</time>
      </trkpt>
      <trkpt lat="46.67062" lon="5.61304">
        <ele>568</ele>
        <time>2021-05-29T13:56:47.300Z</time>
      </trkpt>
      <trkpt lat="46.67062" lon="5.61307">
        <ele>568</ele>
        <time>2021-05-29T13:56:48.301Z</time>
      </trkpt>
      <trkpt lat="46.67063" lon="5.6131">
        <ele>569</ele>
        <time>2021-05-29T13:56:49.301Z</time>
      </trkpt>
      <trkpt lat="46.67064" lon="5.61312">
        <ele>569</ele>
        <time>2021-05-29T13:56:50.301Z</time>
      </trkpt>
      <trkpt lat="46.67066" lon="5.61315">
        <ele>570</ele>
        <time>2021-05-29T13:56:51.300Z</time>
      </trkpt>
      <trkpt lat="46.67067" lon="5.61318">
        <ele>570</ele>
        <time>2021-05-29T13:56:52.301Z</time>
      </trkpt>
      <trkpt lat="46.67069" lon="5.61321">
        <ele>571</ele>
        <time>2021-05-29T13:56:53.301Z</time>
      </trkpt>
      <trkpt lat="46.67071" lon="5.61323">
        <ele>571</ele>
        <time>2021-05-29T13:56:54.301Z</time>
      </trkpt>
      <trkpt lat="46.67072" lon="5.61326">
        <ele>572</ele>
        <time>2021-05-29T13:56:55.300Z</time>
      </trkpt>
      <trkpt lat="46.67073" lon="5.61329">
        <ele>572</ele>
        <time>2021-05-29T13:56:56.301Z</time>
      </trkpt>
      <trkpt lat="46.67075" lon="5.61333">
        <ele>573</ele>
        <time>2021-05-29T13:56:57.301Z</time>
      </trkpt>
      <trkpt lat="46.67076" lon="5.61335">
        <ele>574</ele>
        <time>2021-05-29T13:56:58.301Z</time>
      </trkpt>
      <trkpt lat="46.67076" lon="5.61337">
        <ele>574</ele>
        <time>2021-05-29T13:56:59.300Z</time>
      </trkpt>
      <trkpt lat="46.67076" lon="5.6134">
        <ele>575</ele>
        <time>2021-05-29T13:57:00.301Z</time>
      </trkpt>
      <trkpt lat="46.67076" lon="5.61344">
        <ele>576</ele>
        <time>2021-05-29T13:57:01.301Z</time>
      </trkpt>
      <trkpt lat="46.67077" lon="5.61348">
        <ele>576</ele>
        <time>2021-05-29T13:57:02.300Z</time>
      </trkpt>
      <trkpt lat="46.67078" lon="5.61351">
        <ele>577</ele>
        <time>2021-05-29T13:57:03.300Z</time>
      </trkpt>
      <trkpt lat="46.67079" lon="5.61353">
        <ele>577</ele>
        <time>2021-05-29T13:57:04.301Z</time>
      </trkpt>
      <trkpt lat="46.67081" lon="5.61357">
        <ele>578</ele>
        <time>2021-05-29T13:57:05.301Z</time>
      </trkpt>
      <trkpt lat="46.67082" lon="5.6136">
        <ele>578</ele>
        <time>2021-05-29T13:57:06.301Z</time>
      </trkpt>
      <trkpt lat="46.67084" lon="5.61363">
        <ele>578</ele>
        <time>2021-05-29T13:57:07.300Z</time>
      </trkpt>
      <trkpt lat="46.67085" lon="5.61366">
        <ele>578</ele>
        <time>2021-05-29T13:57:08.300Z</time>
      </trkpt>
      <trkpt lat="46.67087" lon="5.61368">
        <ele>578</ele>
        <time>2021-05-29T13:57:09.301Z</time>
      </trkpt>
      <trkpt lat="46.67088" lon="5.61371">
        <ele>578</ele>
        <time>2021-05-29T13:57:10.300Z</time>
      </trkpt>
      <trkpt lat="46.67089" lon="5.61374">
        <ele>578</ele>
        <time>2021-05-29T13:57:11.301Z</time>
      </trkpt>
      <trkpt lat="46.6709" lon="5.61377">
        <ele>578</ele>
        <time>2021-05-29T13:57:12.300Z</time>
      </trkpt>
      <trkpt lat="46.67091" lon="5.6138">
        <ele>578</ele>
        <time>2021-05-29T13:57:13.300Z</time>
      </trkpt>
      <trkpt lat="46.67092" lon="5.61383">
        <ele>577</ele>
        <time>2021-05-29T13:57:14.301Z</time>
      </trkpt>
      <trkpt lat="46.67092" lon="5.61385">
        <ele>577</ele>
        <time>2021-05-29T13:57:15.301Z</time>
      </trkpt>
      <trkpt lat="46.67092" lon="5.61387">
        <ele>577</ele>
        <time>2021-05-29T13:57:16.300Z</time>
      </trkpt>
      <trkpt lat="46.67092" lon="5.61389">
        <ele>577</ele>
        <time>2021-05-29T13:57:17.301Z</time>
      </trkpt>
      <trkpt lat="46.67092" lon="5.61392">
        <ele>576</ele>
        <time>2021-05-29T13:57:18.300Z</time>
      </trkpt>
      <trkpt lat="46.67093" lon="5.61394">
        <ele>576</ele>
        <time>2021-05-29T13:57:19.300Z</time>
      </trkpt>
      <trkpt lat="46.67094" lon="5.61395">
        <ele>576</ele>
        <time>2021-05-29T13:57:20.301Z</time>
      </trkpt>
      <trkpt lat="46.67095" lon="5.61397">
        <ele>576</ele>
        <time>2021-05-29T13:57:21.300Z</time>
      </trkpt>
      <trkpt lat="46.67096" lon="5.61399">
        <ele>575</ele>
        <time>2021-05-29T13:57:22.301Z</time>
      </trkpt>
      <trkpt lat="46.67098" lon="5.61401">
        <ele>575</ele>
        <time>2021-05-29T13:57:23.301Z</time>
      </trkpt>
      <trkpt lat="46.67101" lon="5.61404">
        <ele>574</ele>
        <time>2021-05-29T13:57:24.300Z</time>
      </trkpt>
      <trkpt lat="46.67103" lon="5.61407">
        <ele>574</ele>
        <time>2021-05-29T13:57:25.301Z</time>
      </trkpt>
      <trkpt lat="46.67104" lon="5.6141">
        <ele>573</ele>
        <time>2021-05-29T13:57:26.300Z</time>
      </trkpt>
      <trkpt lat="46.67104" lon="5.61412">
        <ele>573</ele>
        <time>2021-05-29T13:57:27.301Z</time>
      </trkpt>
      <trkpt lat="46.67105" lon="5.61416">
        <ele>573</ele>
        <time>2021-05-29T13:57:28.301Z</time>
      </trkpt>
      <trkpt lat="46.67106" lon="5.61419">
        <ele>572</ele>
        <time>2021-05-29T13:57:29.301Z</time>
      </trkpt>
      <trkpt lat="46.67107" lon="5.61422">
        <ele>572</ele>
        <time>2021-05-29T13:57:30.300Z</time>
      </trkpt>
      <trkpt lat="46.67108" lon="5.61425">
        <ele>571</ele>
        <time>2021-05-29T13:57:31.300Z</time>
      </trkpt>
      <trkpt lat="46.67109" lon="5.61428">
        <ele>571</ele>
        <time>2021-05-29T13:57:32.301Z</time>
      </trkpt>
      <trkpt lat="46.67111" lon="5.61431">
        <ele>570</ele>
        <time>2021-05-29T13:57:33.301Z</time>
      </trkpt>
      <trkpt lat="46.67113" lon="5.61434">
        <ele>570</ele>
        <time>2021-05-29T13:57:34.301Z</time>
      </trkpt>
      <trkpt lat="46.67113" lon="5.61437">
        <ele>569</ele>
        <time>2021-05-29T13:57:35.301Z</time>
      </trkpt>
      <trkpt lat="46.67114" lon="5.6144">
        <ele>568</ele>
        <time>2021-05-29T13:57:36.301Z</time>
      </trkpt>
      <trkpt lat="46.67114" lon="5.61443">
        <ele>568</ele>
        <time>2021-05-29T13:57:37.301Z</time>
      </trkpt>
      <trkpt lat="46.67115" lon="5.61445">
        <ele>567</ele>
        <time>2021-05-29T13:57:38.301Z</time>
      </trkpt>
      <trkpt lat="46.67116" lon="5.61447">
        <ele>566</ele>
        <time>2021-05-29T13:57:39.301Z</time>
      </trkpt>
      <trkpt lat="46.67116" lon="5.61449">
        <ele>565</ele>
        <time>2021-05-29T13:57:40.300Z</time>
      </trkpt>
      <trkpt lat="46.67118" lon="5.61449">
        <ele>565</ele>
        <time>2021-05-29T13:57:41.301Z</time>
      </trkpt>
      <trkpt lat="46.67118" lon="5.61451">
        <ele>564</ele>
        <time>2021-05-29T13:57:42.301Z</time>
      </trkpt>
      <trkpt lat="46.67119" lon="5.61453">
        <ele>563</ele>
        <time>2021-05-29T13:57:43.300Z</time>
      </trkpt>
      <trkpt lat="46.6712" lon="5.61455">
        <ele>563</ele>
        <time>2021-05-29T13:57:44.301Z</time>
      </trkpt>
      <trkpt lat="46.6712" lon="5.61457">
        <ele>563</ele>
        <time>2021-05-29T13:57:45.301Z</time>
      </trkpt>
      <trkpt lat="46.6712" lon="5.61459">
        <ele>563</ele>
        <time>2021-05-29T13:57:46.301Z</time>
      </trkpt>
      <trkpt lat="46.67121" lon="5.61461">
        <ele>563</ele>
        <time>2021-05-29T13:57:47.301Z</time>
      </trkpt>
      <trkpt lat="46.67122" lon="5.61463">
        <ele>564</ele>
        <time>2021-05-29T13:57:48.301Z</time>
      </trkpt>
      <trkpt lat="46.67122" lon="5.61465">
        <ele>565</ele>
        <time>2021-05-29T13:57:49.301Z</time>
      </trkpt>
      <trkpt lat="46.67122" lon="5.61467">
        <ele>565</ele>
        <time>2021-05-29T13:57:50.301Z</time>
      </trkpt>
      <trkpt lat="46.67123" lon="5.61469">
        <ele>566</ele>
        <time>2021-05-29T13:57:51.301Z</time>
      </trkpt>
      <trkpt lat="46.67124" lon="5.61472">
        <ele>566</ele>
        <time>2021-05-29T13:57:52.301Z</time>
      </trkpt>
      <trkpt lat="46.67126" lon="5.61474">
        <ele>567</ele>
        <time>2021-05-29T13:57:53.301Z</time>
      </trkpt>
      <trkpt lat="46.67127" lon="5.61476">
        <ele>567</ele>
        <time>2021-05-29T13:57:54.301Z</time>
      </trkpt>
      <trkpt lat="46.67128" lon="5.6148">
        <ele>567</ele>
        <time>2021-05-29T13:57:55.301Z</time>
      </trkpt>
      <trkpt lat="46.67129" lon="5.61484">
        <ele>567</ele>
        <time>2021-05-29T13:57:56.301Z</time>
      </trkpt>
      <trkpt lat="46.67129" lon="5.61487">
        <ele>567</ele>
        <time>2021-05-29T13:57:57.301Z</time>
      </trkpt>
      <trkpt lat="46.67129" lon="5.6149">
        <ele>566</ele>
        <time>2021-05-29T13:57:58.301Z</time>
      </trkpt>
      <trkpt lat="46.6713" lon="5.61493">
        <ele>566</ele>
        <time>2021-05-29T13:57:59.301Z</time>
      </trkpt>
      <trkpt lat="46.67131" lon="5.61496">
        <ele>566</ele>
        <time>2021-05-29T13:58:00.300Z</time>
      </trkpt>
      <trkpt lat="46.67132" lon="5.615">
        <ele>565</ele>
        <time>2021-05-29T13:58:01.301Z</time>
      </trkpt>
      <trkpt lat="46.67132" lon="5.61503">
        <ele>565</ele>
        <time>2021-05-29T13:58:02.301Z</time>
      </trkpt>
      <trkpt lat="46.67133" lon="5.61505">
        <ele>564</ele>
        <time>2021-05-29T13:58:03.301Z</time>
      </trkpt>
      <trkpt lat="46.67134" lon="5.61506">
        <ele>564</ele>
        <time>2021-05-29T13:58:04.301Z</time>
      </trkpt>
      <trkpt lat="46.67134" lon="5.61507">
        <ele>563</ele>
        <time>2021-05-29T13:58:05.300Z</time>
      </trkpt>
      <trkpt lat="46.67135" lon="5.61507">
        <ele>563</ele>
        <time>2021-05-29T13:58:06.300Z</time>
      </trkpt>
      <trkpt lat="46.67135" lon="5.61509">
        <ele>563</ele>
        <time>2021-05-29T13:58:07.300Z</time>
      </trkpt>
      <trkpt lat="46.67136" lon="5.61511">
        <ele>562</ele>
        <time>2021-05-29T13:58:08.300Z</time>
      </trkpt>
      <trkpt lat="46.67137" lon="5.61513">
        <ele>562</ele>
        <time>2021-05-29T13:58:09.301Z</time>
      </trkpt>
      <trkpt lat="46.67138" lon="5.61516">
        <ele>562</ele>
        <time>2021-05-29T13:58:10.301Z</time>
      </trkpt>
      <trkpt lat="46.67138" lon="5.61519">
        <ele>562</ele>
        <time>2021-05-29T13:58:11.301Z</time>
      </trkpt>
      <trkpt lat="46.67138" lon="5.61521">
        <ele>562</ele>
        <time>2021-05-29T13:58:12.300Z</time>
      </trkpt>
      <trkpt lat="46.67138" lon="5.61524">
        <ele>561</ele>
        <time>2021-05-29T13:58:13.301Z</time>
      </trkpt>
      <trkpt lat="46.67137" lon="5.61527">
        <ele>561</ele>
        <time>2021-05-29T13:58:14.301Z</time>
      </trkpt>
      <trkpt lat="46.67137" lon="5.6153">
        <ele>561</ele>
        <time>2021-05-29T13:58:15.301Z</time>
      </trkpt>
      <trkpt lat="46.67138" lon="5.61532">
        <ele>561</ele>
        <time>2021-05-29T13:58:16.300Z</time>
      </trkpt>
      <trkpt lat="46.67139" lon="5.61534">
        <ele>561</ele>
        <time>2021-05-29T13:58:17.301Z</time>
      </trkpt>
      <trkpt lat="46.6714" lon="5.61536">
        <ele>560</ele>
        <time>2021-05-29T13:58:18.301Z</time>
      </trkpt>
      <trkpt lat="46.67141" lon="5.61538">
        <ele>560</ele>
        <time>2021-05-29T13:58:19.301Z</time>
      </trkpt>
      <trkpt lat="46.67142" lon="5.61538">
        <ele>560</ele>
        <time>2021-05-29T13:58:20.301Z</time>
      </trkpt>
      <trkpt lat="46.67143" lon="5.61539">
        <ele>559</ele>
        <time>2021-05-29T13:58:21.300Z</time>
      </trkpt>
      <trkpt lat="46.67144" lon="5.61541">
        <ele>559</ele>
        <time>2021-05-29T13:58:22.300Z</time>
      </trkpt>
      <trkpt lat="46.67145" lon="5.61541">
        <ele>558</ele>
        <time>2021-05-29T13:58:23.300Z</time>
      </trkpt>
      <trkpt lat="46.67147" lon="5.61541">
        <ele>557</ele>
        <time>2021-05-29T13:58:24.300Z</time>
      </trkpt>
      <trkpt lat="46.67148" lon="5.6154">
        <ele>556</ele>
        <time>2021-05-29T13:58:25.301Z</time>
      </trkpt>
      <trkpt lat="46.67149" lon="5.6154">
        <ele>555</ele>
        <time>2021-05-29T13:58:26.301Z</time>
      </trkpt>
      <trkpt lat="46.6715" lon="5.61539">
        <ele>554</ele>
        <time>2021-05-29T13:58:27.301Z</time>
      </trkpt>
      <trkpt lat="46.67151" lon="5.6154">
        <ele>553</ele>
        <time>2021-05-29T13:58:28.301Z</time>
      </trkpt>
      <trkpt lat="46.67152" lon="5.6154">
        <ele>553</ele>
        <time>2021-05-29T13:58:29.300Z</time>
      </trkpt>
      <trkpt lat="46.67153" lon="5.61541">
        <ele>552</ele>
        <time>2021-05-29T13:58:30.301Z</time>
      </trkpt>
      <trkpt lat="46.67155" lon="5.61541">
        <ele>552</ele>
        <time>2021-05-29T13:58:31.301Z</time>
      </trkpt>
      <trkpt lat="46.67157" lon="5.61542">
        <ele>551</ele>
        <time>2021-05-29T13:58:32.301Z</time>
      </trkpt>
      <trkpt lat="46.67159" lon="5.61542">
        <ele>551</ele>
        <time>2021-05-29T13:58:33.300Z</time>
      </trkpt>
      <trkpt lat="46.67161" lon="5.61542">
        <ele>550</ele>
        <time>2021-05-29T13:58:34.301Z</time>
      </trkpt>
      <trkpt lat="46.67162" lon="5.61542">
        <ele>550</ele>
        <time>2021-05-29T13:58:35.301Z</time>
      </trkpt>
      <trkpt lat="46.67164" lon="5.61542">
        <ele>549</ele>
        <time>2021-05-29T13:58:36.300Z</time>
      </trkpt>
      <trkpt lat="46.67165" lon="5.61542">
        <ele>549</ele>
        <time>2021-05-29T13:58:37.301Z</time>
      </trkpt>
      <trkpt lat="46.67167" lon="5.61542">
        <ele>548</ele>
        <time>2021-05-29T13:58:38.301Z</time>
      </trkpt>
      <trkpt lat="46.67168" lon="5.61541">
        <ele>548</ele>
        <time>2021-05-29T13:58:39.300Z</time>
      </trkpt>
      <trkpt lat="46.6717" lon="5.61541">
        <ele>547</ele>
        <time>2021-05-29T13:58:40.300Z</time>
      </trkpt>
      <trkpt lat="46.67171" lon="5.61541">
        <ele>546</ele>
        <time>2021-05-29T13:58:41.301Z</time>
      </trkpt>
      <trkpt lat="46.67173" lon="5.61542">
        <ele>546</ele>
        <time>2021-05-29T13:58:42.300Z</time>
      </trkpt>
      <trkpt lat="46.67175" lon="5.61542">
        <ele>545</ele>
        <time>2021-05-29T13:58:43.301Z</time>
      </trkpt>
      <trkpt lat="46.67177" lon="5.61544">
        <ele>544</ele>
        <time>2021-05-29T13:58:44.300Z</time>
      </trkpt>
      <trkpt lat="46.67179" lon="5.61544">
        <ele>543</ele>
        <time>2021-05-29T13:58:45.301Z</time>
      </trkpt>
      <trkpt lat="46.67181" lon="5.61544">
        <ele>543</ele>
        <time>2021-05-29T13:58:46.301Z</time>
      </trkpt>
      <trkpt lat="46.67183" lon="5.61544">
        <ele>542</ele>
        <time>2021-05-29T13:58:47.301Z</time>
      </trkpt>
      <trkpt lat="46.67184" lon="5.61543">
        <ele>542</ele>
        <time>2021-05-29T13:58:48.300Z</time>
      </trkpt>
      <trkpt lat="46.67185" lon="5.61544">
        <ele>542</ele>
        <time>2021-05-29T13:58:49.301Z</time>
      </trkpt>
      <trkpt lat="46.67186" lon="5.61544">
        <ele>541</ele>
        <time>2021-05-29T13:58:50.301Z</time>
      </trkpt>
      <trkpt lat="46.67188" lon="5.61544">
        <ele>541</ele>
        <time>2021-05-29T13:58:51.301Z</time>
      </trkpt>
      <trkpt lat="46.6719" lon="5.61544">
        <ele>541</ele>
        <time>2021-05-29T13:58:52.301Z</time>
      </trkpt>
      <trkpt lat="46.67191" lon="5.61544">
        <ele>542</ele>
        <time>2021-05-29T13:58:53.300Z</time>
      </trkpt>
      <trkpt lat="46.67193" lon="5.61545">
        <ele>542</ele>
        <time>2021-05-29T13:58:54.301Z</time>
      </trkpt>
      <trkpt lat="46.67195" lon="5.61546">
        <ele>542</ele>
        <time>2021-05-29T13:58:55.301Z</time>
      </trkpt>
      <trkpt lat="46.67198" lon="5.61547">
        <ele>543</ele>
        <time>2021-05-29T13:58:56.301Z</time>
      </trkpt>
      <trkpt lat="46.67199" lon="5.61547">
        <ele>543</ele>
        <time>2021-05-29T13:58:57.300Z</time>
      </trkpt>
      <trkpt lat="46.672" lon="5.61547">
        <ele>543</ele>
        <time>2021-05-29T13:58:58.300Z</time>
      </trkpt>
      <trkpt lat="46.67202" lon="5.61546">
        <ele>543</ele>
        <time>2021-05-29T13:58:59.301Z</time>
      </trkpt>
      <trkpt lat="46.67203" lon="5.61546">
        <ele>543</ele>
        <time>2021-05-29T13:59:00.300Z</time>
      </trkpt>
      <trkpt lat="46.67205" lon="5.61545">
        <ele>543</ele>
        <time>2021-05-29T13:59:01.301Z</time>
      </trkpt>
      <trkpt lat="46.67207" lon="5.61545">
        <ele>544</ele>
        <time>2021-05-29T13:59:02.300Z</time>
      </trkpt>
      <trkpt lat="46.67209" lon="5.61544">
        <ele>544</ele>
        <time>2021-05-29T13:59:03.300Z</time>
      </trkpt>
      <trkpt lat="46.6721" lon="5.61545">
        <ele>544</ele>
        <time>2021-05-29T13:59:04.301Z</time>
      </trkpt>
      <trkpt lat="46.67212" lon="5.61545">
        <ele>544</ele>
        <time>2021-05-29T13:59:05.300Z</time>
      </trkpt>
      <trkpt lat="46.67213" lon="5.61545">
        <ele>545</ele>
        <time>2021-05-29T13:59:06.300Z</time>
      </trkpt>
      <trkpt lat="46.67216" lon="5.61545">
        <ele>545</ele>
        <time>2021-05-29T13:59:07.300Z</time>
      </trkpt>
      <trkpt lat="46.67218" lon="5.61545">
        <ele>545</ele>
        <time>2021-05-29T13:59:08.301Z</time>
      </trkpt>
      <trkpt lat="46.67221" lon="5.61546">
        <ele>545</ele>
        <time>2021-05-29T13:59:09.301Z</time>
      </trkpt>
      <trkpt lat="46.67223" lon="5.61546">
        <ele>545</ele>
        <time>2021-05-29T13:59:10.301Z</time>
      </trkpt>
      <trkpt lat="46.67224" lon="5.61546">
        <ele>545</ele>
        <time>2021-05-29T13:59:11.300Z</time>
      </trkpt>
      <trkpt lat="46.67226" lon="5.61546">
        <ele>545</ele>
        <time>2021-05-29T13:59:12.300Z</time>
      </trkpt>
      <trkpt lat="46.67228" lon="5.61546">
        <ele>546</ele>
        <time>2021-05-29T13:59:13.300Z</time>
      </trkpt>
      <trkpt lat="46.6723" lon="5.61546">
        <ele>546</ele>
        <time>2021-05-29T13:59:14.300Z</time>
      </trkpt>
      <trkpt lat="46.67232" lon="5.61545">
        <ele>546</ele>
        <time>2021-05-29T13:59:15.301Z</time>
      </trkpt>
      <trkpt lat="46.67235" lon="5.61545">
        <ele>546</ele>
        <time>2021-05-29T13:59:16.300Z</time>
      </trkpt>
      <trkpt lat="46.67237" lon="5.61546">
        <ele>546</ele>
        <time>2021-05-29T13:59:17.301Z</time>
      </trkpt>
      <trkpt lat="46.67239" lon="5.61546">
        <ele>545</ele>
        <time>2021-05-29T13:59:18.301Z</time>
      </trkpt>
      <trkpt lat="46.67241" lon="5.61547">
        <ele>545</ele>
        <time>2021-05-29T13:59:19.301Z</time>
      </trkpt>
      <trkpt lat="46.67243" lon="5.61548">
        <ele>545</ele>
        <time>2021-05-29T13:59:20.301Z</time>
      </trkpt>
      <trkpt lat="46.67244" lon="5.61548">
        <ele>545</ele>
        <time>2021-05-29T13:59:21.301Z</time>
      </trkpt>
      <trkpt lat="46.67246" lon="5.61548">
        <ele>546</ele>
        <time>2021-05-29T13:59:22.301Z</time>
      </trkpt>
      <trkpt lat="46.67248" lon="5.61548">
        <ele>546</ele>
        <time>2021-05-29T13:59:23.301Z</time>
      </trkpt>
      <trkpt lat="46.67249" lon="5.61547">
        <ele>546</ele>
        <time>2021-05-29T13:59:24.301Z</time>
      </trkpt>
      <trkpt lat="46.67251" lon="5.61547">
        <ele>546</ele>
        <time>2021-05-29T13:59:25.301Z</time>
      </trkpt>
      <trkpt lat="46.67254" lon="5.61547">
        <ele>546</ele>
        <time>2021-05-29T13:59:26.301Z</time>
      </trkpt>
      <trkpt lat="46.67257" lon="5.61546">
        <ele>546</ele>
        <time>2021-05-29T13:59:27.300Z</time>
      </trkpt>
      <trkpt lat="46.6726" lon="5.61545">
        <ele>546</ele>
        <time>2021-05-29T13:59:28.300Z</time>
      </trkpt>
      <trkpt lat="46.67263" lon="5.61544">
        <ele>546</ele>
        <time>2021-05-29T13:59:29.301Z</time>
      </trkpt>
      <trkpt lat="46.67265" lon="5.61544">
        <ele>546</ele>
        <time>2021-05-29T13:59:30.301Z</time>
      </trkpt>
      <trkpt lat="46.67266" lon="5.61544">
        <ele>547</ele>
        <time>2021-05-29T13:59:31.301Z</time>
      </trkpt>
      <trkpt lat="46.67268" lon="5.61545">
        <ele>547</ele>
        <time>2021-05-29T13:59:32.301Z</time>
      </trkpt>
      <trkpt lat="46.67271" lon="5.61544">
        <ele>547</ele>
        <time>2021-05-29T13:59:33.301Z</time>
      </trkpt>
      <trkpt lat="46.67274" lon="5.61545">
        <ele>547</ele>
        <time>2021-05-29T13:59:34.301Z</time>
      </trkpt>
      <trkpt lat="46.67277" lon="5.61545">
        <ele>546</ele>
        <time>2021-05-29T13:59:35.300Z</time>
      </trkpt>
      <trkpt lat="46.67279" lon="5.61546">
        <ele>546</ele>
        <time>2021-05-29T13:59:36.301Z</time>
      </trkpt>
      <trkpt lat="46.67281" lon="5.61547">
        <ele>546</ele>
        <time>2021-05-29T13:59:37.301Z</time>
      </trkpt>
      <trkpt lat="46.67283" lon="5.61547">
        <ele>546</ele>
        <time>2021-05-29T13:59:38.301Z</time>
      </trkpt>
      <trkpt lat="46.67286" lon="5.61548">
        <ele>545</ele>
        <time>2021-05-29T13:59:39.300Z</time>
      </trkpt>
      <trkpt lat="46.67288" lon="5.61548">
        <ele>545</ele>
        <time>2021-05-29T13:59:40.300Z</time>
      </trkpt>
      <trkpt lat="46.67289" lon="5.61549">
        <ele>544</ele>
        <time>2021-05-29T13:59:41.300Z</time>
      </trkpt>
      <trkpt lat="46.67291" lon="5.6155">
        <ele>544</ele>
        <time>2021-05-29T13:59:42.301Z</time>
      </trkpt>
      <trkpt lat="46.67293" lon="5.61551">
        <ele>544</ele>
        <time>2021-05-29T13:59:43.301Z</time>
      </trkpt>
      <trkpt lat="46.67294" lon="5.61551">
        <ele>544</ele>
        <time>2021-05-29T13:59:44.301Z</time>
      </trkpt>
      <trkpt lat="46.67298" lon="5.61552">
        <ele>544</ele>
        <time>2021-05-29T13:59:45.301Z</time>
      </trkpt>
      <trkpt lat="46.673" lon="5.61551">
        <ele>544</ele>
        <time>2021-05-29T13:59:46.300Z</time>
      </trkpt>
      <trkpt lat="46.67303" lon="5.6155">
        <ele>544</ele>
        <time>2021-05-29T13:59:47.301Z</time>
      </trkpt>
      <trkpt lat="46.67305" lon="5.61549">
        <ele>544</ele>
        <time>2021-05-29T13:59:48.301Z</time>
      </trkpt>
      <trkpt lat="46.67306" lon="5.61549">
        <ele>544</ele>
        <time>2021-05-29T13:59:49.300Z</time>
      </trkpt>
      <trkpt lat="46.67308" lon="5.61549">
        <ele>544</ele>
        <time>2021-05-29T13:59:50.301Z</time>
      </trkpt>
      <trkpt lat="46.6731" lon="5.6155">
        <ele>544</ele>
        <time>2021-05-29T13:59:51.301Z</time>
      </trkpt>
      <trkpt lat="46.67312" lon="5.6155">
        <ele>544</ele>
        <time>2021-05-29T13:59:52.301Z</time>
      </trkpt>
      <trkpt lat="46.67314" lon="5.6155">
        <ele>544</ele>
        <time>2021-05-29T13:59:53.301Z</time>
      </trkpt>
      <trkpt lat="46.67317" lon="5.61551">
        <ele>544</ele>
        <time>2021-05-29T13:59:54.300Z</time>
      </trkpt>
      <trkpt lat="46.67318" lon="5.61552">
        <ele>544</ele>
        <time>2021-05-29T13:59:55.300Z</time>
      </trkpt>
      <trkpt lat="46.67322" lon="5.61552">
        <ele>544</ele>
        <time>2021-05-29T13:59:56.301Z</time>
      </trkpt>
      <trkpt lat="46.67325" lon="5.61552">
        <ele>543</ele>
        <time>2021-05-29T13:59:57.301Z</time>
      </trkpt>
      <trkpt lat="46.67329" lon="5.61553">
        <ele>543</ele>
        <time>2021-05-29T13:59:58.301Z</time>
      </trkpt>
      <trkpt lat="46.67332" lon="5.61553">
        <ele>543</ele>
        <time>2021-05-29T13:59:59.300Z</time>
      </trkpt>
      <trkpt lat="46.67335" lon="5.61554">
        <ele>543</ele>
        <time>2021-05-29T14:00:00.301Z</time>
      </trkpt>
      <trkpt lat="46.67338" lon="5.61555">
        <ele>543</ele>
        <time>2021-05-29T14:00:01.301Z</time>
      </trkpt>
      <trkpt lat="46.67341" lon="5.61556">
        <ele>543</ele>
        <time>2021-05-29T14:00:02.301Z</time>
      </trkpt>
      <trkpt lat="46.67343" lon="5.61556">
        <ele>544</ele>
        <time>2021-05-29T14:00:03.301Z</time>
      </trkpt>
      <trkpt lat="46.67346" lon="5.61556">
        <ele>544</ele>
        <time>2021-05-29T14:00:04.301Z</time>
      </trkpt>
      <trkpt lat="46.67349" lon="5.61556">
        <ele>544</ele>
        <time>2021-05-29T14:00:05.301Z</time>
      </trkpt>
      <trkpt lat="46.67352" lon="5.61555">
        <ele>544</ele>
        <time>2021-05-29T14:00:06.301Z</time>
      </trkpt>
      <trkpt lat="46.67354" lon="5.61556">
        <ele>544</ele>
        <time>2021-05-29T14:00:07.300Z</time>
      </trkpt>
      <trkpt lat="46.67356" lon="5.61556">
        <ele>544</ele>
        <time>2021-05-29T14:00:08.301Z</time>
      </trkpt>
      <trkpt lat="46.67359" lon="5.61557">
        <ele>544</ele>
        <time>2021-05-29T14:00:09.300Z</time>
      </trkpt>
      <trkpt lat="46.67361" lon="5.61557">
        <ele>543</ele>
        <time>2021-05-29T14:00:10.300Z</time>
      </trkpt>
      <trkpt lat="46.67363" lon="5.61556">
        <ele>543</ele>
        <time>2021-05-29T14:00:11.301Z</time>
      </trkpt>
      <trkpt lat="46.67365" lon="5.61556">
        <ele>544</ele>
        <time>2021-05-29T14:00:12.301Z</time>
      </trkpt>
      <trkpt lat="46.67367" lon="5.61555">
        <ele>543</ele>
        <time>2021-05-29T14:00:13.301Z</time>
      </trkpt>
      <trkpt lat="46.67369" lon="5.61555">
        <ele>543</ele>
        <time>2021-05-29T14:00:14.301Z</time>
      </trkpt>
      <trkpt lat="46.67371" lon="5.61554">
        <ele>543</ele>
        <time>2021-05-29T14:00:15.301Z</time>
      </trkpt>
      <trkpt lat="46.67372" lon="5.61552">
        <ele>543</ele>
        <time>2021-05-29T14:00:16.300Z</time>
      </trkpt>
      <trkpt lat="46.67373" lon="5.61551">
        <ele>543</ele>
        <time>2021-05-29T14:00:17.301Z</time>
      </trkpt>
      <trkpt lat="46.67374" lon="5.6155">
        <ele>543</ele>
        <time>2021-05-29T14:00:18.300Z</time>
      </trkpt>
      <trkpt lat="46.67376" lon="5.61548">
        <ele>544</ele>
        <time>2021-05-29T14:00:19.300Z</time>
      </trkpt>
      <trkpt lat="46.67377" lon="5.61546">
        <ele>544</ele>
        <time>2021-05-29T14:00:20.300Z</time>
      </trkpt>
      <trkpt lat="46.67378" lon="5.61543">
        <ele>545</ele>
        <time>2021-05-29T14:00:21.301Z</time>
      </trkpt>
      <trkpt lat="46.67379" lon="5.61541">
        <ele>546</ele>
        <time>2021-05-29T14:00:22.301Z</time>
      </trkpt>
      <trkpt lat="46.6738" lon="5.61539">
        <ele>547</ele>
        <time>2021-05-29T14:00:23.301Z</time>
      </trkpt>
      <trkpt lat="46.67382" lon="5.61537">
        <ele>547</ele>
        <time>2021-05-29T14:00:24.300Z</time>
      </trkpt>
      <trkpt lat="46.67384" lon="5.61535">
        <ele>547</ele>
        <time>2021-05-29T14:00:25.301Z</time>
      </trkpt>
      <trkpt lat="46.67385" lon="5.61534">
        <ele>548</ele>
        <time>2021-05-29T14:00:26.300Z</time>
      </trkpt>
      <trkpt lat="46.67386" lon="5.61534">
        <ele>548</ele>
        <time>2021-05-29T14:00:27.301Z</time>
      </trkpt>
      <trkpt lat="46.67389" lon="5.61535">
        <ele>547</ele>
        <time>2021-05-29T14:00:28.300Z</time>
      </trkpt>
      <trkpt lat="46.6739" lon="5.61536">
        <ele>547</ele>
        <time>2021-05-29T14:00:29.300Z</time>
      </trkpt>
      <trkpt lat="46.67392" lon="5.61538">
        <ele>547</ele>
        <time>2021-05-29T14:00:30.300Z</time>
      </trkpt>
      <trkpt lat="46.67394" lon="5.6154">
        <ele>547</ele>
        <time>2021-05-29T14:00:31.300Z</time>
      </trkpt>
      <trkpt lat="46.67395" lon="5.61542">
        <ele>547</ele>
        <time>2021-05-29T14:00:32.301Z</time>
      </trkpt>
      <trkpt lat="46.67397" lon="5.61545">
        <ele>546</ele>
        <time>2021-05-29T14:00:33.301Z</time>
      </trkpt>
      <trkpt lat="46.67398" lon="5.61547">
        <ele>546</ele>
        <time>2021-05-29T14:00:34.300Z</time>
      </trkpt>
      <trkpt lat="46.674" lon="5.61549">
        <ele>546</ele>
        <time>2021-05-29T14:00:35.301Z</time>
      </trkpt>
      <trkpt lat="46.67402" lon="5.61551">
        <ele>547</ele>
        <time>2021-05-29T14:00:36.301Z</time>
      </trkpt>
      <trkpt lat="46.67403" lon="5.61553">
        <ele>547</ele>
        <time>2021-05-29T14:00:37.301Z</time>
      </trkpt>
      <trkpt lat="46.67404" lon="5.61555">
        <ele>547</ele>
        <time>2021-05-29T14:00:38.301Z</time>
      </trkpt>
      <trkpt lat="46.67407" lon="5.61557">
        <ele>547</ele>
        <time>2021-05-29T14:00:39.301Z</time>
      </trkpt>
      <trkpt lat="46.67409" lon="5.61559">
        <ele>547</ele>
        <time>2021-05-29T14:00:40.301Z</time>
      </trkpt>
      <trkpt lat="46.6741" lon="5.61562">
        <ele>548</ele>
        <time>2021-05-29T14:00:41.301Z</time>
      </trkpt>
      <trkpt lat="46.67412" lon="5.61563">
        <ele>548</ele>
        <time>2021-05-29T14:00:42.301Z</time>
      </trkpt>
      <trkpt lat="46.67414" lon="5.61565">
        <ele>548</ele>
        <time>2021-05-29T14:00:43.301Z</time>
      </trkpt>
      <trkpt lat="46.67416" lon="5.61567">
        <ele>547</ele>
        <time>2021-05-29T14:00:44.301Z</time>
      </trkpt>
      <trkpt lat="46.67419" lon="5.61568">
        <ele>547</ele>
        <time>2021-05-29T14:00:45.300Z</time>
      </trkpt>
      <trkpt lat="46.67421" lon="5.6157">
        <ele>547</ele>
        <time>2021-05-29T14:00:46.300Z</time>
      </trkpt>
      <trkpt lat="46.67423" lon="5.61572">
        <ele>547</ele>
        <time>2021-05-29T14:00:47.300Z</time>
      </trkpt>
      <trkpt lat="46.67425" lon="5.61574">
        <ele>547</ele>
        <time>2021-05-29T14:00:48.301Z</time>
      </trkpt>
      <trkpt lat="46.67427" lon="5.61576">
        <ele>546</ele>
        <time>2021-05-29T14:00:49.300Z</time>
      </trkpt>
      <trkpt lat="46.67429" lon="5.61577">
        <ele>546</ele>
        <time>2021-05-29T14:00:50.301Z</time>
      </trkpt>
      <trkpt lat="46.67431" lon="5.61579">
        <ele>545</ele>
        <time>2021-05-29T14:00:51.301Z</time>
      </trkpt>
      <trkpt lat="46.67433" lon="5.61581">
        <ele>545</ele>
        <time>2021-05-29T14:00:52.301Z</time>
      </trkpt>
      <trkpt lat="46.67434" lon="5.61583">
        <ele>544</ele>
        <time>2021-05-29T14:00:53.301Z</time>
      </trkpt>
      <trkpt lat="46.67435" lon="5.61584">
        <ele>544</ele>
        <time>2021-05-29T14:00:54.301Z</time>
      </trkpt>
      <trkpt lat="46.67436" lon="5.61587">
        <ele>544</ele>
        <time>2021-05-29T14:00:55.301Z</time>
      </trkpt>
      <trkpt lat="46.67438" lon="5.61589">
        <ele>544</ele>
        <time>2021-05-29T14:00:56.301Z</time>
      </trkpt>
      <trkpt lat="46.67439" lon="5.61591">
        <ele>544</ele>
        <time>2021-05-29T14:00:57.301Z</time>
      </trkpt>
      <trkpt lat="46.6744" lon="5.61593">
        <ele>543</ele>
        <time>2021-05-29T14:00:58.301Z</time>
      </trkpt>
      <trkpt lat="46.67442" lon="5.61595">
        <ele>543</ele>
        <time>2021-05-29T14:00:59.301Z</time>
      </trkpt>
      <trkpt lat="46.67443" lon="5.61597">
        <ele>543</ele>
        <time>2021-05-29T14:01:00.300Z</time>
      </trkpt>
      <trkpt lat="46.67444" lon="5.61599">
        <ele>543</ele>
        <time>2021-05-29T14:01:01.300Z</time>
      </trkpt>
      <trkpt lat="46.67445" lon="5.61601">
        <ele>543</ele>
        <time>2021-05-29T14:01:02.301Z</time>
      </trkpt>
      <trkpt lat="46.67446" lon="5.61603">
        <ele>543</ele>
        <time>2021-05-29T14:01:03.300Z</time>
      </trkpt>
      <trkpt lat="46.67448" lon="5.61605">
        <ele>543</ele>
        <time>2021-05-29T14:01:04.300Z</time>
      </trkpt>
      <trkpt lat="46.67449" lon="5.61607">
        <ele>543</ele>
        <time>2021-05-29T14:01:05.301Z</time>
      </trkpt>
      <trkpt lat="46.6745" lon="5.61609">
        <ele>543</ele>
        <time>2021-05-29T14:06:28.550Z</time>
      </trkpt>
      <trkpt lat="46.67451" lon="5.61611">
        <ele>543</ele>
        <time>2021-05-29T14:06:29.550Z</time>
      </trkpt>
      <trkpt lat="46.67453" lon="5.61616">
        <ele>543</ele>
        <time>2021-05-29T14:06:30.550Z</time>
      </trkpt>
      <trkpt lat="46.67455" lon="5.61619">
        <ele>543</ele>
        <time>2021-05-29T14:06:31.550Z</time>
      </trkpt>
      <trkpt lat="46.67456" lon="5.61622">
        <ele>543</ele>
        <time>2021-05-29T14:06:32.550Z</time>
      </trkpt>
      <trkpt lat="46.67457" lon="5.61625">
        <ele>543</ele>
        <time>2021-05-29T14:06:33.549Z</time>
      </trkpt>
      <trkpt lat="46.67458" lon="5.61627">
        <ele>543</ele>
        <time>2021-05-29T14:06:34.549Z</time>
      </trkpt>
      <trkpt lat="46.67459" lon="5.61629">
        <ele>543</ele>
        <time>2021-05-29T14:06:35.550Z</time>
      </trkpt>
      <trkpt lat="46.6746" lon="5.61632">
        <ele>543</ele>
        <time>2021-05-29T14:06:36.549Z</time>
      </trkpt>
      <trkpt lat="46.67461" lon="5.61634">
        <ele>543</ele>
        <time>2021-05-29T14:06:37.550Z</time>
      </trkpt>
      <trkpt lat="46.67462" lon="5.61636">
        <ele>543</ele>
        <time>2021-05-29T14:06:38.550Z</time>
      </trkpt>
      <trkpt lat="46.67462" lon="5.61639">
        <ele>543</ele>
        <time>2021-05-29T14:06:39.550Z</time>
      </trkpt>
      <trkpt lat="46.67462" lon="5.61641">
        <ele>543</ele>
        <time>2021-05-29T14:06:40.550Z</time>
      </trkpt>
      <trkpt lat="46.67463" lon="5.61644">
        <ele>543</ele>
        <time>2021-05-29T14:06:41.549Z</time>
      </trkpt>
      <trkpt lat="46.67464" lon="5.61646">
        <ele>543</ele>
        <time>2021-05-29T14:06:42.550Z</time>
      </trkpt>
      <trkpt lat="46.67465" lon="5.61647">
        <ele>544</ele>
        <time>2021-05-29T14:06:43.550Z</time>
      </trkpt>
      <trkpt lat="46.67467" lon="5.6165">
        <ele>544</ele>
        <time>2021-05-29T14:06:44.550Z</time>
      </trkpt>
      <trkpt lat="46.67469" lon="5.61653">
        <ele>544</ele>
        <time>2021-05-29T14:06:45.550Z</time>
      </trkpt>
      <trkpt lat="46.6747" lon="5.61656">
        <ele>544</ele>
        <time>2021-05-29T14:06:46.550Z</time>
      </trkpt>
      <trkpt lat="46.67471" lon="5.61658">
        <ele>544</ele>
        <time>2021-05-29T14:06:47.549Z</time>
      </trkpt>
      <trkpt lat="46.67471" lon="5.6166">
        <ele>544</ele>
        <time>2021-05-29T14:06:48.549Z</time>
      </trkpt>
      <trkpt lat="46.67472" lon="5.61662">
        <ele>544</ele>
        <time>2021-05-29T14:06:49.550Z</time>
      </trkpt>
      <trkpt lat="46.67473" lon="5.61665">
        <ele>544</ele>
        <time>2021-05-29T14:06:50.549Z</time>
      </trkpt>
      <trkpt lat="46.67474" lon="5.61667">
        <ele>545</ele>
        <time>2021-05-29T14:06:51.550Z</time>
      </trkpt>
      <trkpt lat="46.67475" lon="5.6167">
        <ele>545</ele>
        <time>2021-05-29T14:06:52.550Z</time>
      </trkpt>
      <trkpt lat="46.67476" lon="5.61672">
        <ele>545</ele>
        <time>2021-05-29T14:06:53.549Z</time>
      </trkpt>
      <trkpt lat="46.67477" lon="5.61674">
        <ele>546</ele>
        <time>2021-05-29T14:06:54.550Z</time>
      </trkpt>
      <trkpt lat="46.67479" lon="5.61676">
        <ele>546</ele>
        <time>2021-05-29T14:06:55.549Z</time>
      </trkpt>
      <trkpt lat="46.67481" lon="5.61678">
        <ele>546</ele>
        <time>2021-05-29T14:06:56.549Z</time>
      </trkpt>
      <trkpt lat="46.67482" lon="5.61681">
        <ele>547</ele>
        <time>2021-05-29T14:06:57.550Z</time>
      </trkpt>
      <trkpt lat="46.67483" lon="5.61683">
        <ele>547</ele>
        <time>2021-05-29T14:06:58.550Z</time>
      </trkpt>
      <trkpt lat="46.67484" lon="5.61686">
        <ele>547</ele>
        <time>2021-05-29T14:06:59.550Z</time>
      </trkpt>
      <trkpt lat="46.67485" lon="5.61688">
        <ele>548</ele>
        <time>2021-05-29T14:07:00.550Z</time>
      </trkpt>
      <trkpt lat="46.67486" lon="5.61691">
        <ele>548</ele>
        <time>2021-05-29T14:07:01.550Z</time>
      </trkpt>
      <trkpt lat="46.67487" lon="5.61694">
        <ele>548</ele>
        <time>2021-05-29T14:07:02.550Z</time>
      </trkpt>
      <trkpt lat="46.67488" lon="5.61697">
        <ele>549</ele>
        <time>2021-05-29T14:07:03.550Z</time>
      </trkpt>
      <trkpt lat="46.67489" lon="5.617">
        <ele>549</ele>
        <time>2021-05-29T14:07:04.549Z</time>
      </trkpt>
      <trkpt lat="46.67489" lon="5.61702">
        <ele>549</ele>
        <time>2021-05-29T14:07:05.550Z</time>
      </trkpt>
      <trkpt lat="46.6749" lon="5.61704">
        <ele>550</ele>
        <time>2021-05-29T14:07:06.550Z</time>
      </trkpt>
      <trkpt lat="46.6749" lon="5.61707">
        <ele>550</ele>
        <time>2021-05-29T14:07:07.550Z</time>
      </trkpt>
      <trkpt lat="46.67491" lon="5.61709">
        <ele>550</ele>
        <time>2021-05-29T14:07:08.550Z</time>
      </trkpt>
      <trkpt lat="46.67492" lon="5.61711">
        <ele>550</ele>
        <time>2021-05-29T14:07:09.549Z</time>
      </trkpt>
      <trkpt lat="46.67493" lon="5.61714">
        <ele>551</ele>
        <time>2021-05-29T14:07:10.550Z</time>
      </trkpt>
      <trkpt lat="46.67494" lon="5.61716">
        <ele>551</ele>
        <time>2021-05-29T14:07:11.550Z</time>
      </trkpt>
      <trkpt lat="46.67495" lon="5.61719">
        <ele>551</ele>
        <time>2021-05-29T14:07:12.550Z</time>
      </trkpt>
      <trkpt lat="46.67497" lon="5.61721">
        <ele>552</ele>
        <time>2021-05-29T14:07:13.550Z</time>
      </trkpt>
      <trkpt lat="46.67497" lon="5.61723">
        <ele>552</ele>
        <time>2021-05-29T14:07:14.549Z</time>
      </trkpt>
      <trkpt lat="46.67498" lon="5.61725">
        <ele>552</ele>
        <time>2021-05-29T14:07:15.550Z</time>
      </trkpt>
      <trkpt lat="46.67499" lon="5.61727">
        <ele>553</ele>
        <time>2021-05-29T14:07:16.550Z</time>
      </trkpt>
      <trkpt lat="46.675" lon="5.61729">
        <ele>553</ele>
        <time>2021-05-29T14:07:17.550Z</time>
      </trkpt>
      <trkpt lat="46.67501" lon="5.61732">
        <ele>554</ele>
        <time>2021-05-29T14:07:18.550Z</time>
      </trkpt>
      <trkpt lat="46.67502" lon="5.61734">
        <ele>554</ele>
        <time>2021-05-29T14:07:19.549Z</time>
      </trkpt>
      <trkpt lat="46.67502" lon="5.61737">
        <ele>555</ele>
        <time>2021-05-29T14:07:20.550Z</time>
      </trkpt>
      <trkpt lat="46.67503" lon="5.61739">
        <ele>555</ele>
        <time>2021-05-29T14:07:21.550Z</time>
      </trkpt>
      <trkpt lat="46.67503" lon="5.61741">
        <ele>555</ele>
        <time>2021-05-29T14:07:22.549Z</time>
      </trkpt>
      <trkpt lat="46.67504" lon="5.61743">
        <ele>556</ele>
        <time>2021-05-29T14:07:23.550Z</time>
      </trkpt>
      <trkpt lat="46.67504" lon="5.61746">
        <ele>557</ele>
        <time>2021-05-29T14:07:24.549Z</time>
      </trkpt>
      <trkpt lat="46.67505" lon="5.61748">
        <ele>557</ele>
        <time>2021-05-29T14:07:25.549Z</time>
      </trkpt>
      <trkpt lat="46.67507" lon="5.6175">
        <ele>558</ele>
        <time>2021-05-29T14:07:26.549Z</time>
      </trkpt>
      <trkpt lat="46.67508" lon="5.61753">
        <ele>558</ele>
        <time>2021-05-29T14:07:27.549Z</time>
      </trkpt>
      <trkpt lat="46.67509" lon="5.61756">
        <ele>558</ele>
        <time>2021-05-29T14:07:28.549Z</time>
      </trkpt>
      <trkpt lat="46.67511" lon="5.61759">
        <ele>558</ele>
        <time>2021-05-29T14:07:29.550Z</time>
      </trkpt>
      <trkpt lat="46.67512" lon="5.61762">
        <ele>558</ele>
        <time>2021-05-29T14:07:30.549Z</time>
      </trkpt>
      <trkpt lat="46.67513" lon="5.61764">
        <ele>558</ele>
        <time>2021-05-29T14:07:31.550Z</time>
      </trkpt>
      <trkpt lat="46.67517" lon="5.61769">
        <ele>558</ele>
        <time>2021-05-29T14:07:32.550Z</time>
      </trkpt>
      <trkpt lat="46.67521" lon="5.61773">
        <ele>558</ele>
        <time>2021-05-29T14:07:33.549Z</time>
      </trkpt>
      <trkpt lat="46.67524" lon="5.61777">
        <ele>558</ele>
        <time>2021-05-29T14:07:34.550Z</time>
      </trkpt>
      <trkpt lat="46.67526" lon="5.6178">
        <ele>559</ele>
        <time>2021-05-29T14:07:35.549Z</time>
      </trkpt>
      <trkpt lat="46.67528" lon="5.61784">
        <ele>559</ele>
        <time>2021-05-29T14:07:36.550Z</time>
      </trkpt>
      <trkpt lat="46.6753" lon="5.61787">
        <ele>559</ele>
        <time>2021-05-29T14:07:37.550Z</time>
      </trkpt>
      <trkpt lat="46.67532" lon="5.6179">
        <ele>559</ele>
        <time>2021-05-29T14:07:38.550Z</time>
      </trkpt>
      <trkpt lat="46.67534" lon="5.61793">
        <ele>559</ele>
        <time>2021-05-29T14:07:39.550Z</time>
      </trkpt>
      <trkpt lat="46.67537" lon="5.61796">
        <ele>559</ele>
        <time>2021-05-29T14:07:40.549Z</time>
      </trkpt>
      <trkpt lat="46.67539" lon="5.618">
        <ele>559</ele>
        <time>2021-05-29T14:07:41.550Z</time>
      </trkpt>
      <trkpt lat="46.67541" lon="5.61803">
        <ele>559</ele>
        <time>2021-05-29T14:07:42.549Z</time>
      </trkpt>
      <trkpt lat="46.67543" lon="5.61806">
        <ele>559</ele>
        <time>2021-05-29T14:07:43.550Z</time>
      </trkpt>
      <trkpt lat="46.67545" lon="5.61809">
        <ele>559</ele>
        <time>2021-05-29T14:07:44.549Z</time>
      </trkpt>
      <trkpt lat="46.67547" lon="5.61812">
        <ele>559</ele>
        <time>2021-05-29T14:07:45.550Z</time>
      </trkpt>
      <trkpt lat="46.67549" lon="5.61814">
        <ele>559</ele>
        <time>2021-05-29T14:07:46.549Z</time>
      </trkpt>
      <trkpt lat="46.6755" lon="5.61817">
        <ele>559</ele>
        <time>2021-05-29T14:07:47.550Z</time>
      </trkpt>
      <trkpt lat="46.67551" lon="5.6182">
        <ele>559</ele>
        <time>2021-05-29T14:07:48.550Z</time>
      </trkpt>
      <trkpt lat="46.67552" lon="5.61822">
        <ele>559</ele>
        <time>2021-05-29T14:07:49.550Z</time>
      </trkpt>
      <trkpt lat="46.67553" lon="5.61825">
        <ele>558</ele>
        <time>2021-05-29T14:07:50.550Z</time>
      </trkpt>
      <trkpt lat="46.67555" lon="5.61828">
        <ele>558</ele>
        <time>2021-05-29T14:07:51.550Z</time>
      </trkpt>
      <trkpt lat="46.67556" lon="5.6183">
        <ele>558</ele>
        <time>2021-05-29T14:07:52.550Z</time>
      </trkpt>
      <trkpt lat="46.67557" lon="5.61833">
        <ele>558</ele>
        <time>2021-05-29T14:07:53.550Z</time>
      </trkpt>
      <trkpt lat="46.67559" lon="5.61835">
        <ele>558</ele>
        <time>2021-05-29T14:07:54.549Z</time>
      </trkpt>
      <trkpt lat="46.67561" lon="5.61837">
        <ele>558</ele>
        <time>2021-05-29T14:07:55.550Z</time>
      </trkpt>
      <trkpt lat="46.67562" lon="5.6184">
        <ele>558</ele>
        <time>2021-05-29T14:07:56.550Z</time>
      </trkpt>
      <trkpt lat="46.67564" lon="5.61843">
        <ele>558</ele>
        <time>2021-05-29T14:07:57.549Z</time>
      </trkpt>
      <trkpt lat="46.67566" lon="5.61847">
        <ele>558</ele>
        <time>2021-05-29T14:07:58.549Z</time>
      </trkpt>
      <trkpt lat="46.67566" lon="5.61849">
        <ele>557</ele>
        <time>2021-05-29T14:07:59.549Z</time>
      </trkpt>
      <trkpt lat="46.67567" lon="5.61851">
        <ele>557</ele>
        <time>2021-05-29T14:08:00.550Z</time>
      </trkpt>
      <trkpt lat="46.67568" lon="5.61853">
        <ele>557</ele>
        <time>2021-05-29T14:08:01.549Z</time>
      </trkpt>
      <trkpt lat="46.67569" lon="5.61856">
        <ele>557</ele>
        <time>2021-05-29T14:08:02.550Z</time>
      </trkpt>
      <trkpt lat="46.6757" lon="5.61859">
        <ele>556</ele>
        <time>2021-05-29T14:08:03.550Z</time>
      </trkpt>
      <trkpt lat="46.67571" lon="5.61862">
        <ele>556</ele>
        <time>2021-05-29T14:08:04.550Z</time>
      </trkpt>
      <trkpt lat="46.67572" lon="5.61865">
        <ele>556</ele>
        <time>2021-05-29T14:08:05.549Z</time>
      </trkpt>
      <trkpt lat="46.67572" lon="5.61867">
        <ele>555</ele>
        <time>2021-05-29T14:08:06.550Z</time>
      </trkpt>
      <trkpt lat="46.67573" lon="5.6187">
        <ele>555</ele>
        <time>2021-05-29T14:08:07.549Z</time>
      </trkpt>
      <trkpt lat="46.67575" lon="5.61872">
        <ele>555</ele>
        <time>2021-05-29T14:08:08.550Z</time>
      </trkpt>
      <trkpt lat="46.67576" lon="5.61874">
        <ele>555</ele>
        <time>2021-05-29T14:08:09.550Z</time>
      </trkpt>
      <trkpt lat="46.67577" lon="5.61877">
        <ele>555</ele>
        <time>2021-05-29T14:08:10.549Z</time>
      </trkpt>
      <trkpt lat="46.67578" lon="5.6188">
        <ele>555</ele>
        <time>2021-05-29T14:08:11.549Z</time>
      </trkpt>
      <trkpt lat="46.67579" lon="5.61883">
        <ele>555</ele>
        <time>2021-05-29T14:08:12.549Z</time>
      </trkpt>
      <trkpt lat="46.67581" lon="5.61888">
        <ele>555</ele>
        <time>2021-05-29T14:08:13.550Z</time>
      </trkpt>
      <trkpt lat="46.67583" lon="5.61891">
        <ele>555</ele>
        <time>2021-05-29T14:08:14.550Z</time>
      </trkpt>
      <trkpt lat="46.67585" lon="5.61894">
        <ele>555</ele>
        <time>2021-05-29T14:08:15.549Z</time>
      </trkpt>
      <trkpt lat="46.67587" lon="5.61897">
        <ele>555</ele>
        <time>2021-05-29T14:08:16.549Z</time>
      </trkpt>
      <trkpt lat="46.67588" lon="5.619">
        <ele>554</ele>
        <time>2021-05-29T14:08:17.549Z</time>
      </trkpt>
      <trkpt lat="46.6759" lon="5.61903">
        <ele>554</ele>
        <time>2021-05-29T14:08:18.550Z</time>
      </trkpt>
      <trkpt lat="46.67591" lon="5.61907">
        <ele>553</ele>
        <time>2021-05-29T14:08:19.550Z</time>
      </trkpt>
      <trkpt lat="46.67592" lon="5.6191">
        <ele>553</ele>
        <time>2021-05-29T14:08:20.550Z</time>
      </trkpt>
      <trkpt lat="46.67593" lon="5.61913">
        <ele>553</ele>
        <time>2021-05-29T14:08:21.550Z</time>
      </trkpt>
      <trkpt lat="46.67595" lon="5.61916">
        <ele>553</ele>
        <time>2021-05-29T14:08:22.550Z</time>
      </trkpt>
      <trkpt lat="46.67596" lon="5.61919">
        <ele>553</ele>
        <time>2021-05-29T14:08:23.550Z</time>
      </trkpt>
      <trkpt lat="46.67598" lon="5.6192">
        <ele>552</ele>
        <time>2021-05-29T14:08:24.550Z</time>
      </trkpt>
      <trkpt lat="46.67598" lon="5.61922">
        <ele>553</ele>
        <time>2021-05-29T14:08:25.550Z</time>
      </trkpt>
      <trkpt lat="46.67599" lon="5.61926">
        <ele>553</ele>
        <time>2021-05-29T14:08:26.550Z</time>
      </trkpt>
      <trkpt lat="46.67599" lon="5.6193">
        <ele>553</ele>
        <time>2021-05-29T14:08:27.549Z</time>
      </trkpt>
      <trkpt lat="46.67599" lon="5.61932">
        <ele>553</ele>
        <time>2021-05-29T14:08:28.549Z</time>
      </trkpt>
      <trkpt lat="46.67601" lon="5.61936">
        <ele>553</ele>
        <time>2021-05-29T14:08:29.550Z</time>
      </trkpt>
      <trkpt lat="46.67602" lon="5.61939">
        <ele>554</ele>
        <time>2021-05-29T14:08:30.550Z</time>
      </trkpt>
      <trkpt lat="46.67604" lon="5.61943">
        <ele>554</ele>
        <time>2021-05-29T14:08:31.549Z</time>
      </trkpt>
      <trkpt lat="46.67605" lon="5.61946">
        <ele>555</ele>
        <time>2021-05-29T14:08:32.549Z</time>
      </trkpt>
      <trkpt lat="46.67606" lon="5.61949">
        <ele>555</ele>
        <time>2021-05-29T14:08:33.550Z</time>
      </trkpt>
      <trkpt lat="46.67608" lon="5.61952">
        <ele>555</ele>
        <time>2021-05-29T14:08:34.550Z</time>
      </trkpt>
      <trkpt lat="46.67609" lon="5.61955">
        <ele>556</ele>
        <time>2021-05-29T14:08:35.549Z</time>
      </trkpt>
      <trkpt lat="46.6761" lon="5.61957">
        <ele>556</ele>
        <time>2021-05-29T14:08:36.550Z</time>
      </trkpt>
      <trkpt lat="46.67611" lon="5.6196">
        <ele>557</ele>
        <time>2021-05-29T14:08:37.550Z</time>
      </trkpt>
      <trkpt lat="46.67612" lon="5.61963">
        <ele>557</ele>
        <time>2021-05-29T14:08:38.550Z</time>
      </trkpt>
      <trkpt lat="46.67613" lon="5.61966">
        <ele>558</ele>
        <time>2021-05-29T14:08:39.550Z</time>
      </trkpt>
      <trkpt lat="46.67614" lon="5.6197">
        <ele>558</ele>
        <time>2021-05-29T14:08:40.550Z</time>
      </trkpt>
      <trkpt lat="46.67615" lon="5.61974">
        <ele>559</ele>
        <time>2021-05-29T14:08:41.550Z</time>
      </trkpt>
      <trkpt lat="46.67617" lon="5.61978">
        <ele>559</ele>
        <time>2021-05-29T14:08:42.550Z</time>
      </trkpt>
      <trkpt lat="46.67618" lon="5.61983">
        <ele>560</ele>
        <time>2021-05-29T14:08:43.550Z</time>
      </trkpt>
      <trkpt lat="46.67618" lon="5.61987">
        <ele>560</ele>
        <time>2021-05-29T14:08:44.550Z</time>
      </trkpt>
      <trkpt lat="46.67619" lon="5.61989">
        <ele>561</ele>
        <time>2021-05-29T14:08:45.550Z</time>
      </trkpt>
      <trkpt lat="46.6762" lon="5.61993">
        <ele>561</ele>
        <time>2021-05-29T14:08:46.550Z</time>
      </trkpt>
      <trkpt lat="46.67621" lon="5.61996">
        <ele>561</ele>
        <time>2021-05-29T14:08:47.550Z</time>
      </trkpt>
      <trkpt lat="46.67621" lon="5.62">
        <ele>562</ele>
        <time>2021-05-29T14:08:48.550Z</time>
      </trkpt>
      <trkpt lat="46.67622" lon="5.62003">
        <ele>562</ele>
        <time>2021-05-29T14:08:49.550Z</time>
      </trkpt>
      <trkpt lat="46.67622" lon="5.62006">
        <ele>561</ele>
        <time>2021-05-29T14:08:50.550Z</time>
      </trkpt>
      <trkpt lat="46.67622" lon="5.6201">
        <ele>561</ele>
        <time>2021-05-29T14:08:51.549Z</time>
      </trkpt>
      <trkpt lat="46.67623" lon="5.62013">
        <ele>561</ele>
        <time>2021-05-29T14:08:52.549Z</time>
      </trkpt>
      <trkpt lat="46.67624" lon="5.62017">
        <ele>561</ele>
        <time>2021-05-29T14:08:53.549Z</time>
      </trkpt>
      <trkpt lat="46.67624" lon="5.6202">
        <ele>561</ele>
        <time>2021-05-29T14:08:54.550Z</time>
      </trkpt>
      <trkpt lat="46.67624" lon="5.62023">
        <ele>561</ele>
        <time>2021-05-29T14:08:55.550Z</time>
      </trkpt>
      <trkpt lat="46.67624" lon="5.62026">
        <ele>560</ele>
        <time>2021-05-29T14:08:56.549Z</time>
      </trkpt>
      <trkpt lat="46.67625" lon="5.62028">
        <ele>559</ele>
        <time>2021-05-29T14:08:57.550Z</time>
      </trkpt>
      <trkpt lat="46.67626" lon="5.62031">
        <ele>559</ele>
        <time>2021-05-29T14:08:58.549Z</time>
      </trkpt>
      <trkpt lat="46.67626" lon="5.62034">
        <ele>559</ele>
        <time>2021-05-29T14:08:59.550Z</time>
      </trkpt>
      <trkpt lat="46.67627" lon="5.62037">
        <ele>558</ele>
        <time>2021-05-29T14:09:00.550Z</time>
      </trkpt>
      <trkpt lat="46.67628" lon="5.62039">
        <ele>558</ele>
        <time>2021-05-29T14:09:01.550Z</time>
      </trkpt>
      <trkpt lat="46.67628" lon="5.62041">
        <ele>558</ele>
        <time>2021-05-29T14:09:02.550Z</time>
      </trkpt>
      <trkpt lat="46.67628" lon="5.62044">
        <ele>558</ele>
        <time>2021-05-29T14:09:03.549Z</time>
      </trkpt>
      <trkpt lat="46.67628" lon="5.62047">
        <ele>557</ele>
        <time>2021-05-29T14:09:04.550Z</time>
      </trkpt>
      <trkpt lat="46.67628" lon="5.62049">
        <ele>557</ele>
        <time>2021-05-29T14:09:05.549Z</time>
      </trkpt>
      <trkpt lat="46.67627" lon="5.62051">
        <ele>557</ele>
        <time>2021-05-29T14:09:06.549Z</time>
      </trkpt>
      <trkpt lat="46.67626" lon="5.62054">
        <ele>556</ele>
        <time>2021-05-29T14:09:07.549Z</time>
      </trkpt>
      <trkpt lat="46.67625" lon="5.62057">
        <ele>556</ele>
        <time>2021-05-29T14:09:08.549Z</time>
      </trkpt>
      <trkpt lat="46.67625" lon="5.6206">
        <ele>556</ele>
        <time>2021-05-29T14:09:09.550Z</time>
      </trkpt>
      <trkpt lat="46.67624" lon="5.62063">
        <ele>555</ele>
        <time>2021-05-29T14:09:10.549Z</time>
      </trkpt>
      <trkpt lat="46.67624" lon="5.62066">
        <ele>555</ele>
        <time>2021-05-29T14:09:11.550Z</time>
      </trkpt>
      <trkpt lat="46.67624" lon="5.6207">
        <ele>555</ele>
        <time>2021-05-29T14:09:12.549Z</time>
      </trkpt>
      <trkpt lat="46.67624" lon="5.62073">
        <ele>555</ele>
        <time>2021-05-29T14:09:13.550Z</time>
      </trkpt>
      <trkpt lat="46.67623" lon="5.62076">
        <ele>554</ele>
        <time>2021-05-29T14:09:14.550Z</time>
      </trkpt>
      <trkpt lat="46.67623" lon="5.62079">
        <ele>554</ele>
        <time>2021-05-29T14:09:15.549Z</time>
      </trkpt>
      <trkpt lat="46.67623" lon="5.62082">
        <ele>554</ele>
        <time>2021-05-29T14:09:16.549Z</time>
      </trkpt>
      <trkpt lat="46.67622" lon="5.62085">
        <ele>554</ele>
        <time>2021-05-29T14:09:17.549Z</time>
      </trkpt>
      <trkpt lat="46.67622" lon="5.62086">
        <ele>554</ele>
        <time>2021-05-29T14:09:18.550Z</time>
      </trkpt>
      <trkpt lat="46.67621" lon="5.62089">
        <ele>553</ele>
        <time>2021-05-29T14:09:19.550Z</time>
      </trkpt>
      <trkpt lat="46.67621" lon="5.6209">
        <ele>553</ele>
        <time>2021-05-29T14:09:20.549Z</time>
      </trkpt>
      <trkpt lat="46.67621" lon="5.62093">
        <ele>553</ele>
        <time>2021-05-29T14:09:21.549Z</time>
      </trkpt>
      <trkpt lat="46.6762" lon="5.62095">
        <ele>553</ele>
        <time>2021-05-29T14:09:22.549Z</time>
      </trkpt>
      <trkpt lat="46.6762" lon="5.62099">
        <ele>553</ele>
        <time>2021-05-29T14:09:23.549Z</time>
      </trkpt>
      <trkpt lat="46.67619" lon="5.62102">
        <ele>553</ele>
        <time>2021-05-29T14:09:24.550Z</time>
      </trkpt>
      <trkpt lat="46.67618" lon="5.62103">
        <ele>552</ele>
        <time>2021-05-29T14:09:25.549Z</time>
      </trkpt>
      <trkpt lat="46.67617" lon="5.62106">
        <ele>552</ele>
        <time>2021-05-29T14:09:26.550Z</time>
      </trkpt>
      <trkpt lat="46.67617" lon="5.62109">
        <ele>552</ele>
        <time>2021-05-29T14:09:27.549Z</time>
      </trkpt>
      <trkpt lat="46.67616" lon="5.62112">
        <ele>551</ele>
        <time>2021-05-29T14:09:28.549Z</time>
      </trkpt>
      <trkpt lat="46.67616" lon="5.62115">
        <ele>551</ele>
        <time>2021-05-29T14:09:29.549Z</time>
      </trkpt>
      <trkpt lat="46.67616" lon="5.62118">
        <ele>551</ele>
        <time>2021-05-29T14:09:30.550Z</time>
      </trkpt>
      <trkpt lat="46.67616" lon="5.62121">
        <ele>550</ele>
        <time>2021-05-29T14:09:31.549Z</time>
      </trkpt>
      <trkpt lat="46.67616" lon="5.62125">
        <ele>550</ele>
        <time>2021-05-29T14:09:32.550Z</time>
      </trkpt>
      <trkpt lat="46.67615" lon="5.62129">
        <ele>550</ele>
        <time>2021-05-29T14:09:33.549Z</time>
      </trkpt>
      <trkpt lat="46.67615" lon="5.62131">
        <ele>550</ele>
        <time>2021-05-29T14:09:34.549Z</time>
      </trkpt>
      <trkpt lat="46.67615" lon="5.62134">
        <ele>550</ele>
        <time>2021-05-29T14:09:35.550Z</time>
      </trkpt>
      <trkpt lat="46.67615" lon="5.62137">
        <ele>550</ele>
        <time>2021-05-29T14:09:36.550Z</time>
      </trkpt>
      <trkpt lat="46.67615" lon="5.62139">
        <ele>549</ele>
        <time>2021-05-29T14:09:37.550Z</time>
      </trkpt>
      <trkpt lat="46.67616" lon="5.62142">
        <ele>549</ele>
        <time>2021-05-29T14:09:38.549Z</time>
      </trkpt>
      <trkpt lat="46.67616" lon="5.62147">
        <ele>549</ele>
        <time>2021-05-29T14:09:39.550Z</time>
      </trkpt>
      <trkpt lat="46.67616" lon="5.6215">
        <ele>549</ele>
        <time>2021-05-29T14:09:40.549Z</time>
      </trkpt>
      <trkpt lat="46.67616" lon="5.62154">
        <ele>549</ele>
        <time>2021-05-29T14:09:41.550Z</time>
      </trkpt>
      <trkpt lat="46.67616" lon="5.62157">
        <ele>550</ele>
        <time>2021-05-29T14:09:42.549Z</time>
      </trkpt>
      <trkpt lat="46.67617" lon="5.62159">
        <ele>549</ele>
        <time>2021-05-29T14:09:43.550Z</time>
      </trkpt>
      <trkpt lat="46.67617" lon="5.62161">
        <ele>549</ele>
        <time>2021-05-29T14:09:44.550Z</time>
      </trkpt>
      <trkpt lat="46.67617" lon="5.62162">
        <ele>549</ele>
        <time>2021-05-29T14:09:45.550Z</time>
      </trkpt>
      <trkpt lat="46.67617" lon="5.62163">
        <ele>549</ele>
        <time>2021-05-29T14:09:46.550Z</time>
      </trkpt>
      <trkpt lat="46.67617" lon="5.62163">
        <ele>548</ele>
        <time>2021-05-29T14:09:47.549Z</time>
      </trkpt>
      <trkpt lat="46.67617" lon="5.62164">
        <ele>548</ele>
        <time>2021-05-29T14:09:48.550Z</time>
      </trkpt>
      <trkpt lat="46.67617" lon="5.62165">
        <ele>548</ele>
        <time>2021-05-29T14:09:49.550Z</time>
      </trkpt>
      <trkpt lat="46.67616" lon="5.62166">
        <ele>548</ele>
        <time>2021-05-29T14:09:50.549Z</time>
      </trkpt>
      <trkpt lat="46.67616" lon="5.62167">
        <ele>548</ele>
        <time>2021-05-29T14:09:51.550Z</time>
      </trkpt>
      <trkpt lat="46.67616" lon="5.62169">
        <ele>548</ele>
        <time>2021-05-29T14:09:52.550Z</time>
      </trkpt>
      <trkpt lat="46.67617" lon="5.6217">
        <ele>548</ele>
        <time>2021-05-29T14:09:53.550Z</time>
      </trkpt>
      <trkpt lat="46.67618" lon="5.62171">
        <ele>549</ele>
        <time>2021-05-29T14:09:54.549Z</time>
      </trkpt>
      <trkpt lat="46.67619" lon="5.62173">
        <ele>549</ele>
        <time>2021-05-29T14:09:55.550Z</time>
      </trkpt>
      <trkpt lat="46.6762" lon="5.62175">
        <ele>549</ele>
        <time>2021-05-29T14:09:56.549Z</time>
      </trkpt>
      <trkpt lat="46.67621" lon="5.62176">
        <ele>548</ele>
        <time>2021-05-29T14:09:57.549Z</time>
      </trkpt>
      <trkpt lat="46.67622" lon="5.62178">
        <ele>548</ele>
        <time>2021-05-29T14:09:58.550Z</time>
      </trkpt>
      <trkpt lat="46.67624" lon="5.6218">
        <ele>547</ele>
        <time>2021-05-29T14:09:59.549Z</time>
      </trkpt>
      <trkpt lat="46.67625" lon="5.62181">
        <ele>547</ele>
        <time>2021-05-29T14:10:00.549Z</time>
      </trkpt>
      <trkpt lat="46.67626" lon="5.62182">
        <ele>547</ele>
        <time>2021-05-29T14:10:01.550Z</time>
      </trkpt>
      <trkpt lat="46.67627" lon="5.62184">
        <ele>546</ele>
        <time>2021-05-29T14:10:02.550Z</time>
      </trkpt>
      <trkpt lat="46.67629" lon="5.62186">
        <ele>546</ele>
        <time>2021-05-29T14:10:03.549Z</time>
      </trkpt>
      <trkpt lat="46.67631" lon="5.62187">
        <ele>546</ele>
        <time>2021-05-29T14:10:04.550Z</time>
      </trkpt>
      <trkpt lat="46.67634" lon="5.6219">
        <ele>545</ele>
        <time>2021-05-29T14:10:05.549Z</time>
      </trkpt>
      <trkpt lat="46.67636" lon="5.62193">
        <ele>545</ele>
        <time>2021-05-29T14:10:06.550Z</time>
      </trkpt>
      <trkpt lat="46.67637" lon="5.62196">
        <ele>545</ele>
        <time>2021-05-29T14:10:07.550Z</time>
      </trkpt>
      <trkpt lat="46.67638" lon="5.62197">
        <ele>545</ele>
        <time>2021-05-29T14:10:08.550Z</time>
      </trkpt>
      <trkpt lat="46.67639" lon="5.62198">
        <ele>545</ele>
        <time>2021-05-29T14:10:09.550Z</time>
      </trkpt>
      <trkpt lat="46.67638" lon="5.62199">
        <ele>545</ele>
        <time>2021-05-29T14:10:10.549Z</time>
      </trkpt>
      <trkpt lat="46.67637" lon="5.62199">
        <ele>545</ele>
        <time>2021-05-29T14:10:11.550Z</time>
      </trkpt>
      <trkpt lat="46.67636" lon="5.62199">
        <ele>545</ele>
        <time>2021-05-29T14:10:12.550Z</time>
      </trkpt>
      <trkpt lat="46.67635" lon="5.62198">
        <ele>545</ele>
        <time>2021-05-29T14:10:13.550Z</time>
      </trkpt>
      <trkpt lat="46.67635" lon="5.62197">
        <ele>545</ele>
        <time>2021-05-29T14:10:14.549Z</time>
      </trkpt>
      <trkpt lat="46.67634" lon="5.62196">
        <ele>545</ele>
        <time>2021-05-29T14:10:15.549Z</time>
      </trkpt>
      <trkpt lat="46.67635" lon="5.62195">
        <ele>545</ele>
        <time>2021-05-29T14:10:16.550Z</time>
      </trkpt>
      <trkpt lat="46.67636" lon="5.62195">
        <ele>545</ele>
        <time>2021-05-29T14:10:17.550Z</time>
      </trkpt>
      <trkpt lat="46.67637" lon="5.62196">
        <ele>545</ele>
        <time>2021-05-29T14:10:18.550Z</time>
      </trkpt>
      <trkpt lat="46.67637" lon="5.62197">
        <ele>545</ele>
        <time>2021-05-29T14:10:19.549Z</time>
      </trkpt>
      <trkpt lat="46.67638" lon="5.62198">
        <ele>545</ele>
        <time>2021-05-29T14:10:20.550Z</time>
      </trkpt>
      <trkpt lat="46.67639" lon="5.622">
        <ele>545</ele>
        <time>2021-05-29T14:10:21.549Z</time>
      </trkpt>
      <trkpt lat="46.6764" lon="5.62202">
        <ele>545</ele>
        <time>2021-05-29T14:10:22.550Z</time>
      </trkpt>
      <trkpt lat="46.6764" lon="5.62204">
        <ele>545</ele>
        <time>2021-05-29T14:10:23.550Z</time>
      </trkpt>
      <trkpt lat="46.67642" lon="5.62206">
        <ele>545</ele>
        <time>2021-05-29T14:10:24.549Z</time>
      </trkpt>
      <trkpt lat="46.67643" lon="5.62209">
        <ele>545</ele>
        <time>2021-05-29T14:10:25.550Z</time>
      </trkpt>
      <trkpt lat="46.67645" lon="5.62211">
        <ele>545</ele>
        <time>2021-05-29T14:10:26.550Z</time>
      </trkpt>
      <trkpt lat="46.67647" lon="5.62213">
        <ele>546</ele>
        <time>2021-05-29T14:10:27.550Z</time>
      </trkpt>
      <trkpt lat="46.67649" lon="5.62216">
        <ele>546</ele>
        <time>2021-05-29T14:10:28.549Z</time>
      </trkpt>
      <trkpt lat="46.6765" lon="5.62218">
        <ele>546</ele>
        <time>2021-05-29T14:10:29.550Z</time>
      </trkpt>
      <trkpt lat="46.67652" lon="5.62221">
        <ele>546</ele>
        <time>2021-05-29T14:10:30.550Z</time>
      </trkpt>
      <trkpt lat="46.67654" lon="5.62224">
        <ele>545</ele>
        <time>2021-05-29T14:10:31.549Z</time>
      </trkpt>
      <trkpt lat="46.67656" lon="5.62227">
        <ele>545</ele>
        <time>2021-05-29T14:10:32.549Z</time>
      </trkpt>
      <trkpt lat="46.67658" lon="5.62229">
        <ele>545</ele>
        <time>2021-05-29T14:10:33.549Z</time>
      </trkpt>
      <trkpt lat="46.6766" lon="5.62231">
        <ele>545</ele>
        <time>2021-05-29T14:10:34.550Z</time>
      </trkpt>
      <trkpt lat="46.67662" lon="5.62232">
        <ele>545</ele>
        <time>2021-05-29T14:10:35.549Z</time>
      </trkpt>
      <trkpt lat="46.67664" lon="5.62234">
        <ele>544</ele>
        <time>2021-05-29T14:10:36.550Z</time>
      </trkpt>
      <trkpt lat="46.67667" lon="5.62235">
        <ele>544</ele>
        <time>2021-05-29T14:11:24.916Z</time>
      </trkpt>
      <trkpt lat="46.67668" lon="5.62236">
        <ele>544</ele>
        <time>2021-05-29T14:11:25.917Z</time>
      </trkpt>
      <trkpt lat="46.67671" lon="5.62237">
        <ele>543</ele>
        <time>2021-05-29T14:11:26.917Z</time>
      </trkpt>
      <trkpt lat="46.67673" lon="5.62239">
        <ele>543</ele>
        <time>2021-05-29T14:11:27.916Z</time>
      </trkpt>
      <trkpt lat="46.67675" lon="5.6224">
        <ele>542</ele>
        <time>2021-05-29T14:11:28.917Z</time>
      </trkpt>
      <trkpt lat="46.67677" lon="5.62241">
        <ele>542</ele>
        <time>2021-05-29T14:11:29.916Z</time>
      </trkpt>
      <trkpt lat="46.6768" lon="5.62242">
        <ele>541</ele>
        <time>2021-05-29T14:11:30.916Z</time>
      </trkpt>
      <trkpt lat="46.67682" lon="5.62244">
        <ele>541</ele>
        <time>2021-05-29T14:11:31.916Z</time>
      </trkpt>
      <trkpt lat="46.67686" lon="5.62245">
        <ele>541</ele>
        <time>2021-05-29T14:11:32.917Z</time>
      </trkpt>
      <trkpt lat="46.67689" lon="5.62246">
        <ele>541</ele>
        <time>2021-05-29T14:11:33.916Z</time>
      </trkpt>
      <trkpt lat="46.67692" lon="5.62247">
        <ele>541</ele>
        <time>2021-05-29T14:11:34.916Z</time>
      </trkpt>
      <trkpt lat="46.67695" lon="5.62248">
        <ele>540</ele>
        <time>2021-05-29T14:11:35.916Z</time>
      </trkpt>
      <trkpt lat="46.67697" lon="5.62249">
        <ele>540</ele>
        <time>2021-05-29T14:11:36.917Z</time>
      </trkpt>
      <trkpt lat="46.67699" lon="5.62249">
        <ele>540</ele>
        <time>2021-05-29T14:11:37.917Z</time>
      </trkpt>
      <trkpt lat="46.67701" lon="5.62249">
        <ele>540</ele>
        <time>2021-05-29T14:11:38.917Z</time>
      </trkpt>
      <trkpt lat="46.67704" lon="5.62249">
        <ele>540</ele>
        <time>2021-05-29T14:11:39.917Z</time>
      </trkpt>
      <trkpt lat="46.67706" lon="5.62249">
        <ele>540</ele>
        <time>2021-05-29T14:11:40.917Z</time>
      </trkpt>
      <trkpt lat="46.67709" lon="5.62249">
        <ele>539</ele>
        <time>2021-05-29T14:11:41.917Z</time>
      </trkpt>
      <trkpt lat="46.67712" lon="5.6225">
        <ele>539</ele>
        <time>2021-05-29T14:11:42.916Z</time>
      </trkpt>
      <trkpt lat="46.67715" lon="5.6225">
        <ele>539</ele>
        <time>2021-05-29T14:11:43.917Z</time>
      </trkpt>
      <trkpt lat="46.67717" lon="5.62251">
        <ele>538</ele>
        <time>2021-05-29T14:11:44.917Z</time>
      </trkpt>
      <trkpt lat="46.6772" lon="5.62251">
        <ele>538</ele>
        <time>2021-05-29T14:11:45.917Z</time>
      </trkpt>
      <trkpt lat="46.67722" lon="5.62251">
        <ele>538</ele>
        <time>2021-05-29T14:11:46.917Z</time>
      </trkpt>
      <trkpt lat="46.67724" lon="5.62252">
        <ele>538</ele>
        <time>2021-05-29T14:11:47.916Z</time>
      </trkpt>
      <trkpt lat="46.67727" lon="5.62252">
        <ele>538</ele>
        <time>2021-05-29T14:11:48.917Z</time>
      </trkpt>
      <trkpt lat="46.67729" lon="5.62253">
        <ele>538</ele>
        <time>2021-05-29T14:11:49.917Z</time>
      </trkpt>
      <trkpt lat="46.67732" lon="5.62254">
        <ele>537</ele>
        <time>2021-05-29T14:11:50.917Z</time>
      </trkpt>
      <trkpt lat="46.67734" lon="5.62255">
        <ele>538</ele>
        <time>2021-05-29T14:11:51.917Z</time>
      </trkpt>
      <trkpt lat="46.67736" lon="5.62256">
        <ele>538</ele>
        <time>2021-05-29T14:11:52.916Z</time>
      </trkpt>
      <trkpt lat="46.6774" lon="5.62259">
        <ele>538</ele>
        <time>2021-05-29T14:11:53.917Z</time>
      </trkpt>
      <trkpt lat="46.67743" lon="5.6226">
        <ele>537</ele>
        <time>2021-05-29T14:11:54.917Z</time>
      </trkpt>
      <trkpt lat="46.67745" lon="5.62261">
        <ele>537</ele>
        <time>2021-05-29T14:11:55.917Z</time>
      </trkpt>
      <trkpt lat="46.67748" lon="5.62263">
        <ele>537</ele>
        <time>2021-05-29T14:11:56.916Z</time>
      </trkpt>
      <trkpt lat="46.67749" lon="5.62264">
        <ele>537</ele>
        <time>2021-05-29T14:11:57.916Z</time>
      </trkpt>
      <trkpt lat="46.67752" lon="5.62266">
        <ele>537</ele>
        <time>2021-05-29T14:11:58.917Z</time>
      </trkpt>
      <trkpt lat="46.67753" lon="5.62269">
        <ele>537</ele>
        <time>2021-05-29T14:11:59.917Z</time>
      </trkpt>
      <trkpt lat="46.67754" lon="5.62271">
        <ele>537</ele>
        <time>2021-05-29T14:12:00.917Z</time>
      </trkpt>
      <trkpt lat="46.67756" lon="5.62273">
        <ele>537</ele>
        <time>2021-05-29T14:12:01.916Z</time>
      </trkpt>
      <trkpt lat="46.67757" lon="5.62274">
        <ele>538</ele>
        <time>2021-05-29T14:12:02.917Z</time>
      </trkpt>
      <trkpt lat="46.67759" lon="5.62276">
        <ele>538</ele>
        <time>2021-05-29T14:12:03.917Z</time>
      </trkpt>
      <trkpt lat="46.6776" lon="5.62278">
        <ele>538</ele>
        <time>2021-05-29T14:12:04.916Z</time>
      </trkpt>
      <trkpt lat="46.67761" lon="5.6228">
        <ele>539</ele>
        <time>2021-05-29T14:12:05.916Z</time>
      </trkpt>
      <trkpt lat="46.67763" lon="5.62281">
        <ele>539</ele>
        <time>2021-05-29T14:12:06.916Z</time>
      </trkpt>
      <trkpt lat="46.67764" lon="5.62283">
        <ele>539</ele>
        <time>2021-05-29T14:12:07.916Z</time>
      </trkpt>
      <trkpt lat="46.67765" lon="5.62284">
        <ele>540</ele>
        <time>2021-05-29T14:12:08.916Z</time>
      </trkpt>
      <trkpt lat="46.67766" lon="5.62285">
        <ele>540</ele>
        <time>2021-05-29T14:12:09.917Z</time>
      </trkpt>
      <trkpt lat="46.67768" lon="5.62287">
        <ele>540</ele>
        <time>2021-05-29T14:12:10.916Z</time>
      </trkpt>
      <trkpt lat="46.67769" lon="5.62289">
        <ele>540</ele>
        <time>2021-05-29T14:12:11.916Z</time>
      </trkpt>
      <trkpt lat="46.6777" lon="5.62291">
        <ele>540</ele>
        <time>2021-05-29T14:12:12.916Z</time>
      </trkpt>
      <trkpt lat="46.67771" lon="5.62293">
        <ele>540</ele>
        <time>2021-05-29T14:12:13.917Z</time>
      </trkpt>
      <trkpt lat="46.67772" lon="5.62295">
        <ele>540</ele>
        <time>2021-05-29T14:12:14.916Z</time>
      </trkpt>
      <trkpt lat="46.67773" lon="5.62296">
        <ele>540</ele>
        <time>2021-05-29T14:12:15.917Z</time>
      </trkpt>
      <trkpt lat="46.67775" lon="5.62299">
        <ele>540</ele>
        <time>2021-05-29T14:12:16.916Z</time>
      </trkpt>
      <trkpt lat="46.67777" lon="5.62301">
        <ele>540</ele>
        <time>2021-05-29T14:12:17.917Z</time>
      </trkpt>
      <trkpt lat="46.67779" lon="5.62303">
        <ele>540</ele>
        <time>2021-05-29T14:12:18.917Z</time>
      </trkpt>
      <trkpt lat="46.67781" lon="5.62304">
        <ele>540</ele>
        <time>2021-05-29T14:12:19.916Z</time>
      </trkpt>
      <trkpt lat="46.67783" lon="5.62306">
        <ele>541</ele>
        <time>2021-05-29T14:12:20.916Z</time>
      </trkpt>
      <trkpt lat="46.67785" lon="5.62307">
        <ele>541</ele>
        <time>2021-05-29T14:12:21.916Z</time>
      </trkpt>
      <trkpt lat="46.67787" lon="5.6231">
        <ele>541</ele>
        <time>2021-05-29T14:12:22.917Z</time>
      </trkpt>
      <trkpt lat="46.67788" lon="5.62311">
        <ele>541</ele>
        <time>2021-05-29T14:12:23.916Z</time>
      </trkpt>
      <trkpt lat="46.6779" lon="5.62313">
        <ele>541</ele>
        <time>2021-05-29T14:12:24.917Z</time>
      </trkpt>
      <trkpt lat="46.67791" lon="5.62314">
        <ele>542</ele>
        <time>2021-05-29T14:12:25.917Z</time>
      </trkpt>
      <trkpt lat="46.67791" lon="5.62315">
        <ele>542</ele>
        <time>2021-05-29T14:12:26.916Z</time>
      </trkpt>
      <trkpt lat="46.67793" lon="5.62317">
        <ele>542</ele>
        <time>2021-05-29T14:12:27.917Z</time>
      </trkpt>
      <trkpt lat="46.67794" lon="5.62319">
        <ele>543</ele>
        <time>2021-05-29T14:12:28.917Z</time>
      </trkpt>
      <trkpt lat="46.67797" lon="5.62321">
        <ele>543</ele>
        <time>2021-05-29T14:12:29.916Z</time>
      </trkpt>
      <trkpt lat="46.67799" lon="5.62323">
        <ele>543</ele>
        <time>2021-05-29T14:12:30.917Z</time>
      </trkpt>
      <trkpt lat="46.67802" lon="5.62325">
        <ele>543</ele>
        <time>2021-05-29T14:12:31.917Z</time>
      </trkpt>
      <trkpt lat="46.67804" lon="5.62327">
        <ele>543</ele>
        <time>2021-05-29T14:12:32.916Z</time>
      </trkpt>
      <trkpt lat="46.67806" lon="5.62328">
        <ele>544</ele>
        <time>2021-05-29T14:12:33.917Z</time>
      </trkpt>
      <trkpt lat="46.67808" lon="5.62329">
        <ele>544</ele>
        <time>2021-05-29T14:12:34.917Z</time>
      </trkpt>
      <trkpt lat="46.6781" lon="5.62331">
        <ele>544</ele>
        <time>2021-05-29T14:12:35.917Z</time>
      </trkpt>
      <trkpt lat="46.67811" lon="5.62333">
        <ele>545</ele>
        <time>2021-05-29T14:12:36.917Z</time>
      </trkpt>
      <trkpt lat="46.67813" lon="5.62335">
        <ele>545</ele>
        <time>2021-05-29T14:12:37.916Z</time>
      </trkpt>
      <trkpt lat="46.67815" lon="5.62337">
        <ele>545</ele>
        <time>2021-05-29T14:12:38.917Z</time>
      </trkpt>
      <trkpt lat="46.67817" lon="5.62339">
        <ele>546</ele>
        <time>2021-05-29T14:12:39.917Z</time>
      </trkpt>
      <trkpt lat="46.67819" lon="5.62341">
        <ele>546</ele>
        <time>2021-05-29T14:12:40.917Z</time>
      </trkpt>
      <trkpt lat="46.6782" lon="5.62343">
        <ele>546</ele>
        <time>2021-05-29T14:12:41.917Z</time>
      </trkpt>
      <trkpt lat="46.67821" lon="5.62344">
        <ele>546</ele>
        <time>2021-05-29T14:12:42.917Z</time>
      </trkpt>
      <trkpt lat="46.67823" lon="5.62346">
        <ele>546</ele>
        <time>2021-05-29T14:12:43.917Z</time>
      </trkpt>
      <trkpt lat="46.67825" lon="5.62348">
        <ele>546</ele>
        <time>2021-05-29T14:12:44.916Z</time>
      </trkpt>
      <trkpt lat="46.67827" lon="5.6235">
        <ele>546</ele>
        <time>2021-05-29T14:12:45.917Z</time>
      </trkpt>
      <trkpt lat="46.67829" lon="5.62351">
        <ele>546</ele>
        <time>2021-05-29T14:12:46.917Z</time>
      </trkpt>
      <trkpt lat="46.6783" lon="5.62353">
        <ele>545</ele>
        <time>2021-05-29T14:12:47.916Z</time>
      </trkpt>
      <trkpt lat="46.67832" lon="5.62355">
        <ele>545</ele>
        <time>2021-05-29T14:12:48.916Z</time>
      </trkpt>
      <trkpt lat="46.67834" lon="5.62356">
        <ele>545</ele>
        <time>2021-05-29T14:12:49.917Z</time>
      </trkpt>
      <trkpt lat="46.67836" lon="5.62358">
        <ele>545</ele>
        <time>2021-05-29T14:12:50.917Z</time>
      </trkpt>
      <trkpt lat="46.67838" lon="5.6236">
        <ele>545</ele>
        <time>2021-05-29T14:12:51.917Z</time>
      </trkpt>
      <trkpt lat="46.6784" lon="5.62362">
        <ele>545</ele>
        <time>2021-05-29T14:12:52.917Z</time>
      </trkpt>
      <trkpt lat="46.67842" lon="5.62363">
        <ele>545</ele>
        <time>2021-05-29T14:12:53.917Z</time>
      </trkpt>
      <trkpt lat="46.67844" lon="5.62366">
        <ele>545</ele>
        <time>2021-05-29T14:12:54.917Z</time>
      </trkpt>
      <trkpt lat="46.67846" lon="5.62368">
        <ele>545</ele>
        <time>2021-05-29T14:12:55.917Z</time>
      </trkpt>
      <trkpt lat="46.67848" lon="5.62371">
        <ele>545</ele>
        <time>2021-05-29T14:12:56.917Z</time>
      </trkpt>
      <trkpt lat="46.6785" lon="5.62375">
        <ele>545</ele>
        <time>2021-05-29T14:12:57.917Z</time>
      </trkpt>
      <trkpt lat="46.67851" lon="5.62379">
        <ele>545</ele>
        <time>2021-05-29T14:12:58.917Z</time>
      </trkpt>
      <trkpt lat="46.67853" lon="5.62381">
        <ele>546</ele>
        <time>2021-05-29T14:12:59.917Z</time>
      </trkpt>
      <trkpt lat="46.67854" lon="5.62384">
        <ele>546</ele>
        <time>2021-05-29T14:13:00.917Z</time>
      </trkpt>
      <trkpt lat="46.67855" lon="5.62387">
        <ele>546</ele>
        <time>2021-05-29T14:13:01.916Z</time>
      </trkpt>
      <trkpt lat="46.67856" lon="5.62389">
        <ele>546</ele>
        <time>2021-05-29T14:13:02.917Z</time>
      </trkpt>
      <trkpt lat="46.67858" lon="5.62391">
        <ele>547</ele>
        <time>2021-05-29T14:13:03.917Z</time>
      </trkpt>
      <trkpt lat="46.67859" lon="5.62393">
        <ele>547</ele>
        <time>2021-05-29T14:13:04.917Z</time>
      </trkpt>
      <trkpt lat="46.67861" lon="5.62395">
        <ele>547</ele>
        <time>2021-05-29T14:13:05.917Z</time>
      </trkpt>
      <trkpt lat="46.67862" lon="5.62397">
        <ele>547</ele>
        <time>2021-05-29T14:13:06.917Z</time>
      </trkpt>
      <trkpt lat="46.67864" lon="5.62398">
        <ele>547</ele>
        <time>2021-05-29T14:13:07.917Z</time>
      </trkpt>
      <trkpt lat="46.67865" lon="5.624">
        <ele>547</ele>
        <time>2021-05-29T14:13:08.917Z</time>
      </trkpt>
      <trkpt lat="46.67866" lon="5.62402">
        <ele>547</ele>
        <time>2021-05-29T14:13:09.917Z</time>
      </trkpt>
      <trkpt lat="46.67867" lon="5.62404">
        <ele>547</ele>
        <time>2021-05-29T14:13:10.917Z</time>
      </trkpt>
      <trkpt lat="46.67868" lon="5.62406">
        <ele>547</ele>
        <time>2021-05-29T14:13:11.916Z</time>
      </trkpt>
      <trkpt lat="46.6787" lon="5.62409">
        <ele>547</ele>
        <time>2021-05-29T14:13:12.917Z</time>
      </trkpt>
      <trkpt lat="46.6787" lon="5.62411">
        <ele>547</ele>
        <time>2021-05-29T14:13:13.917Z</time>
      </trkpt>
      <trkpt lat="46.6787" lon="5.62413">
        <ele>547</ele>
        <time>2021-05-29T14:13:14.917Z</time>
      </trkpt>
      <trkpt lat="46.67869" lon="5.62413">
        <ele>547</ele>
        <time>2021-05-29T14:13:15.917Z</time>
      </trkpt>
      <trkpt lat="46.67868" lon="5.62413">
        <ele>547</ele>
        <time>2021-05-29T14:13:16.917Z</time>
      </trkpt>
      <trkpt lat="46.67867" lon="5.62413">
        <ele>547</ele>
        <time>2021-05-29T14:13:17.916Z</time>
      </trkpt>
      <trkpt lat="46.67866" lon="5.62412">
        <ele>547</ele>
        <time>2021-05-29T14:13:18.916Z</time>
      </trkpt>
      <trkpt lat="46.67867" lon="5.6241">
        <ele>547</ele>
        <time>2021-05-29T14:13:19.917Z</time>
      </trkpt>
      <trkpt lat="46.67868" lon="5.62411">
        <ele>547</ele>
        <time>2021-05-29T14:13:20.917Z</time>
      </trkpt>
      <trkpt lat="46.6787" lon="5.62412">
        <ele>546</ele>
        <time>2021-05-29T14:13:21.917Z</time>
      </trkpt>
      <trkpt lat="46.67872" lon="5.62413">
        <ele>546</ele>
        <time>2021-05-29T14:13:22.917Z</time>
      </trkpt>
      <trkpt lat="46.67874" lon="5.62415">
        <ele>546</ele>
        <time>2021-05-29T14:13:23.916Z</time>
      </trkpt>
      <trkpt lat="46.67876" lon="5.62417">
        <ele>546</ele>
        <time>2021-05-29T14:13:24.917Z</time>
      </trkpt>
      <trkpt lat="46.67878" lon="5.62419">
        <ele>545</ele>
        <time>2021-05-29T14:13:25.916Z</time>
      </trkpt>
      <trkpt lat="46.6788" lon="5.6242">
        <ele>545</ele>
        <time>2021-05-29T14:13:26.917Z</time>
      </trkpt>
      <trkpt lat="46.67881" lon="5.62422">
        <ele>545</ele>
        <time>2021-05-29T14:13:27.917Z</time>
      </trkpt>
      <trkpt lat="46.67882" lon="5.62423">
        <ele>545</ele>
        <time>2021-05-29T14:13:28.917Z</time>
      </trkpt>
      <trkpt lat="46.67883" lon="5.62424">
        <ele>545</ele>
        <time>2021-05-29T14:13:29.917Z</time>
      </trkpt>
      <trkpt lat="46.67885" lon="5.62425">
        <ele>544</ele>
        <time>2021-05-29T14:13:30.917Z</time>
      </trkpt>
      <trkpt lat="46.67886" lon="5.62425">
        <ele>544</ele>
        <time>2021-05-29T14:13:31.917Z</time>
      </trkpt>
      <trkpt lat="46.67888" lon="5.62425">
        <ele>544</ele>
        <time>2021-05-29T14:13:32.917Z</time>
      </trkpt>
      <trkpt lat="46.6789" lon="5.62425">
        <ele>544</ele>
        <time>2021-05-29T14:13:33.917Z</time>
      </trkpt>
      <trkpt lat="46.67892" lon="5.62426">
        <ele>544</ele>
        <time>2021-05-29T14:13:34.917Z</time>
      </trkpt>
      <trkpt lat="46.67895" lon="5.62426">
        <ele>544</ele>
        <time>2021-05-29T14:13:35.917Z</time>
      </trkpt>
      <trkpt lat="46.67897" lon="5.62427">
        <ele>544</ele>
        <time>2021-05-29T14:13:36.917Z</time>
      </trkpt>
      <trkpt lat="46.67899" lon="5.62427">
        <ele>543</ele>
        <time>2021-05-29T14:13:37.916Z</time>
      </trkpt>
      <trkpt lat="46.67901" lon="5.62428">
        <ele>543</ele>
        <time>2021-05-29T14:13:38.917Z</time>
      </trkpt>
      <trkpt lat="46.67903" lon="5.62428">
        <ele>543</ele>
        <time>2021-05-29T14:13:39.916Z</time>
      </trkpt>
      <trkpt lat="46.67905" lon="5.62428">
        <ele>543</ele>
        <time>2021-05-29T14:13:40.917Z</time>
      </trkpt>
      <trkpt lat="46.67906" lon="5.62428">
        <ele>543</ele>
        <time>2021-05-29T14:13:41.917Z</time>
      </trkpt>
      <trkpt lat="46.67908" lon="5.62428">
        <ele>543</ele>
        <time>2021-05-29T14:13:42.917Z</time>
      </trkpt>
      <trkpt lat="46.67911" lon="5.62427">
        <ele>543</ele>
        <time>2021-05-29T14:13:43.916Z</time>
      </trkpt>
      <trkpt lat="46.67913" lon="5.62427">
        <ele>543</ele>
        <time>2021-05-29T14:13:44.917Z</time>
      </trkpt>
      <trkpt lat="46.67915" lon="5.62427">
        <ele>543</ele>
        <time>2021-05-29T14:13:45.917Z</time>
      </trkpt>
      <trkpt lat="46.67918" lon="5.62427">
        <ele>543</ele>
        <time>2021-05-29T14:13:46.917Z</time>
      </trkpt>
      <trkpt lat="46.67921" lon="5.62427">
        <ele>543</ele>
        <time>2021-05-29T14:13:47.917Z</time>
      </trkpt>
      <trkpt lat="46.67923" lon="5.62428">
        <ele>544</ele>
        <time>2021-05-29T14:13:48.917Z</time>
      </trkpt>
      <trkpt lat="46.67926" lon="5.62429">
        <ele>544</ele>
        <time>2021-05-29T14:13:49.917Z</time>
      </trkpt>
      <trkpt lat="46.67929" lon="5.62429">
        <ele>544</ele>
        <time>2021-05-29T14:13:50.917Z</time>
      </trkpt>
      <trkpt lat="46.67931" lon="5.6243">
        <ele>544</ele>
        <time>2021-05-29T14:13:51.917Z</time>
      </trkpt>
      <trkpt lat="46.67934" lon="5.6243">
        <ele>544</ele>
        <time>2021-05-29T14:13:52.917Z</time>
      </trkpt>
      <trkpt lat="46.67936" lon="5.62431">
        <ele>544</ele>
        <time>2021-05-29T14:13:53.917Z</time>
      </trkpt>
      <trkpt lat="46.67938" lon="5.62432">
        <ele>544</ele>
        <time>2021-05-29T14:13:54.917Z</time>
      </trkpt>
      <trkpt lat="46.67941" lon="5.62433">
        <ele>544</ele>
        <time>2021-05-29T14:13:55.917Z</time>
      </trkpt>
      <trkpt lat="46.67942" lon="5.62434">
        <ele>544</ele>
        <time>2021-05-29T14:13:56.917Z</time>
      </trkpt>
      <trkpt lat="46.67944" lon="5.62435">
        <ele>543</ele>
        <time>2021-05-29T14:13:57.917Z</time>
      </trkpt>
      <trkpt lat="46.67946" lon="5.62436">
        <ele>543</ele>
        <time>2021-05-29T14:13:58.917Z</time>
      </trkpt>
      <trkpt lat="46.67948" lon="5.62437">
        <ele>543</ele>
        <time>2021-05-29T14:13:59.917Z</time>
      </trkpt>
      <trkpt lat="46.67949" lon="5.62438">
        <ele>542</ele>
        <time>2021-05-29T14:14:00.917Z</time>
      </trkpt>
      <trkpt lat="46.6795" lon="5.62438">
        <ele>542</ele>
        <time>2021-05-29T14:14:01.917Z</time>
      </trkpt>
      <trkpt lat="46.6795" lon="5.62438">
        <ele>542</ele>
        <time>2021-05-29T14:14:02.917Z</time>
      </trkpt>
      <trkpt lat="46.6795" lon="5.62438">
        <ele>542</ele>
        <time>2021-05-29T14:14:03.917Z</time>
      </trkpt>
      <trkpt lat="46.6795" lon="5.62438">
        <ele>542</ele>
        <time>2021-05-29T14:14:04.916Z</time>
      </trkpt>
      <trkpt lat="46.6795" lon="5.62438">
        <ele>541</ele>
        <time>2021-05-29T14:14:05.916Z</time>
      </trkpt>
      <trkpt lat="46.6795" lon="5.62438">
        <ele>540</ele>
        <time>2021-05-29T14:14:06.916Z</time>
      </trkpt>
      <trkpt lat="46.6795" lon="5.62438">
        <ele>540</ele>
        <time>2021-05-29T14:14:07.917Z</time>
      </trkpt>
      <trkpt lat="46.6795" lon="5.62437">
        <ele>539</ele>
        <time>2021-05-29T14:14:08.917Z</time>
      </trkpt>
      <trkpt lat="46.67949" lon="5.62437">
        <ele>538</ele>
        <time>2021-05-29T14:14:09.917Z</time>
      </trkpt>
      <trkpt lat="46.67948" lon="5.62439">
        <ele>537</ele>
        <time>2021-05-29T14:14:10.917Z</time>
      </trkpt>
      <trkpt lat="46.67948" lon="5.62441">
        <ele>536</ele>
        <time>2021-05-29T14:14:11.917Z</time>
      </trkpt>
      <trkpt lat="46.67949" lon="5.62441">
        <ele>536</ele>
        <time>2021-05-29T14:14:12.916Z</time>
      </trkpt>
      <trkpt lat="46.67949" lon="5.62441">
        <ele>536</ele>
        <time>2021-05-29T14:14:13.917Z</time>
      </trkpt>
      <trkpt lat="46.6795" lon="5.62441">
        <ele>537</ele>
        <time>2021-05-29T14:14:14.917Z</time>
      </trkpt>
      <trkpt lat="46.6795" lon="5.62441">
        <ele>537</ele>
        <time>2021-05-29T14:14:15.917Z</time>
      </trkpt>
      <trkpt lat="46.6795" lon="5.62441">
        <ele>537</ele>
        <time>2021-05-29T14:14:16.917Z</time>
      </trkpt>
      <trkpt lat="46.6795" lon="5.62441">
        <ele>537</ele>
        <time>2021-05-29T14:14:17.916Z</time>
      </trkpt>
      <trkpt lat="46.67951" lon="5.62441">
        <ele>537</ele>
        <time>2021-05-29T14:14:18.917Z</time>
      </trkpt>
      <trkpt lat="46.67952" lon="5.6244">
        <ele>537</ele>
        <time>2021-05-29T14:14:19.916Z</time>
      </trkpt>
      <trkpt lat="46.67953" lon="5.6244">
        <ele>537</ele>
        <time>2021-05-29T14:14:20.916Z</time>
      </trkpt>
      <trkpt lat="46.67954" lon="5.62441">
        <ele>538</ele>
        <time>2021-05-29T14:14:21.917Z</time>
      </trkpt>
      <trkpt lat="46.67954" lon="5.62441">
        <ele>538</ele>
        <time>2021-05-29T14:14:22.917Z</time>
      </trkpt>
      <trkpt lat="46.67956" lon="5.62442">
        <ele>538</ele>
        <time>2021-05-29T14:14:23.917Z</time>
      </trkpt>
      <trkpt lat="46.67957" lon="5.62442">
        <ele>538</ele>
        <time>2021-05-29T14:14:24.916Z</time>
      </trkpt>
      <trkpt lat="46.67959" lon="5.62443">
        <ele>538</ele>
        <time>2021-05-29T14:14:25.917Z</time>
      </trkpt>
      <trkpt lat="46.67961" lon="5.62444">
        <ele>538</ele>
        <time>2021-05-29T14:14:26.917Z</time>
      </trkpt>
      <trkpt lat="46.67963" lon="5.62445">
        <ele>538</ele>
        <time>2021-05-29T14:14:27.917Z</time>
      </trkpt>
      <trkpt lat="46.67965" lon="5.62447">
        <ele>538</ele>
        <time>2021-05-29T14:14:28.917Z</time>
      </trkpt>
      <trkpt lat="46.67967" lon="5.62448">
        <ele>538</ele>
        <time>2021-05-29T14:14:29.917Z</time>
      </trkpt>
      <trkpt lat="46.67969" lon="5.62448">
        <ele>537</ele>
        <time>2021-05-29T14:14:30.917Z</time>
      </trkpt>
      <trkpt lat="46.67971" lon="5.62449">
        <ele>537</ele>
        <time>2021-05-29T14:14:31.917Z</time>
      </trkpt>
      <trkpt lat="46.67973" lon="5.6245">
        <ele>537</ele>
        <time>2021-05-29T14:14:32.917Z</time>
      </trkpt>
      <trkpt lat="46.67976" lon="5.62451">
        <ele>537</ele>
        <time>2021-05-29T14:14:33.917Z</time>
      </trkpt>
      <trkpt lat="46.67978" lon="5.62451">
        <ele>537</ele>
        <time>2021-05-29T14:14:34.917Z</time>
      </trkpt>
      <trkpt lat="46.6798" lon="5.62453">
        <ele>537</ele>
        <time>2021-05-29T14:14:35.917Z</time>
      </trkpt>
      <trkpt lat="46.67982" lon="5.62454">
        <ele>537</ele>
        <time>2021-05-29T14:14:36.917Z</time>
      </trkpt>
      <trkpt lat="46.67984" lon="5.62455">
        <ele>537</ele>
        <time>2021-05-29T14:14:37.916Z</time>
      </trkpt>
      <trkpt lat="46.67986" lon="5.62456">
        <ele>538</ele>
        <time>2021-05-29T14:14:38.917Z</time>
      </trkpt>
      <trkpt lat="46.67988" lon="5.62457">
        <ele>538</ele>
        <time>2021-05-29T14:14:39.916Z</time>
      </trkpt>
      <trkpt lat="46.6799" lon="5.62459">
        <ele>538</ele>
        <time>2021-05-29T14:14:40.917Z</time>
      </trkpt>
      <trkpt lat="46.67992" lon="5.6246">
        <ele>538</ele>
        <time>2021-05-29T14:14:41.916Z</time>
      </trkpt>
      <trkpt lat="46.67995" lon="5.62461">
        <ele>538</ele>
        <time>2021-05-29T14:14:42.916Z</time>
      </trkpt>
      <trkpt lat="46.67997" lon="5.62462">
        <ele>539</ele>
        <time>2021-05-29T14:14:43.916Z</time>
      </trkpt>
      <trkpt lat="46.67999" lon="5.62463">
        <ele>539</ele>
        <time>2021-05-29T14:14:44.917Z</time>
      </trkpt>
      <trkpt lat="46.68001" lon="5.62463">
        <ele>540</ele>
        <time>2021-05-29T14:14:45.917Z</time>
      </trkpt>
      <trkpt lat="46.68003" lon="5.62464">
        <ele>541</ele>
        <time>2021-05-29T14:14:46.917Z</time>
      </trkpt>
      <trkpt lat="46.68005" lon="5.62465">
        <ele>541</ele>
        <time>2021-05-29T14:14:47.917Z</time>
      </trkpt>
      <trkpt lat="46.68007" lon="5.62465">
        <ele>542</ele>
        <time>2021-05-29T14:14:48.917Z</time>
      </trkpt>
      <trkpt lat="46.68009" lon="5.62466">
        <ele>543</ele>
        <time>2021-05-29T14:14:49.916Z</time>
      </trkpt>
      <trkpt lat="46.68011" lon="5.62466">
        <ele>543</ele>
        <time>2021-05-29T14:14:50.916Z</time>
      </trkpt>
      <trkpt lat="46.68013" lon="5.62467">
        <ele>544</ele>
        <time>2021-05-29T14:14:51.916Z</time>
      </trkpt>
      <trkpt lat="46.68016" lon="5.62468">
        <ele>544</ele>
        <time>2021-05-29T14:14:52.917Z</time>
      </trkpt>
      <trkpt lat="46.68018" lon="5.62468">
        <ele>544</ele>
        <time>2021-05-29T14:14:53.917Z</time>
      </trkpt>
      <trkpt lat="46.6802" lon="5.62469">
        <ele>544</ele>
        <time>2021-05-29T14:14:54.917Z</time>
      </trkpt>
      <trkpt lat="46.68023" lon="5.62469">
        <ele>544</ele>
        <time>2021-05-29T14:14:55.917Z</time>
      </trkpt>
      <trkpt lat="46.68026" lon="5.62469">
        <ele>544</ele>
        <time>2021-05-29T14:14:56.917Z</time>
      </trkpt>
      <trkpt lat="46.68028" lon="5.6247">
        <ele>544</ele>
        <time>2021-05-29T14:14:57.917Z</time>
      </trkpt>
      <trkpt lat="46.68031" lon="5.6247">
        <ele>545</ele>
        <time>2021-05-29T14:14:58.917Z</time>
      </trkpt>
      <trkpt lat="46.68033" lon="5.62471">
        <ele>545</ele>
        <time>2021-05-29T14:14:59.917Z</time>
      </trkpt>
      <trkpt lat="46.68036" lon="5.62472">
        <ele>546</ele>
        <time>2021-05-29T14:15:00.916Z</time>
      </trkpt>
      <trkpt lat="46.68039" lon="5.62474">
        <ele>546</ele>
        <time>2021-05-29T14:15:01.917Z</time>
      </trkpt>
      <trkpt lat="46.68041" lon="5.62475">
        <ele>546</ele>
        <time>2021-05-29T14:15:02.917Z</time>
      </trkpt>
      <trkpt lat="46.68044" lon="5.62477">
        <ele>546</ele>
        <time>2021-05-29T14:15:03.917Z</time>
      </trkpt>
      <trkpt lat="46.68046" lon="5.62479">
        <ele>546</ele>
        <time>2021-05-29T14:15:04.917Z</time>
      </trkpt>
      <trkpt lat="46.68049" lon="5.6248">
        <ele>545</ele>
        <time>2021-05-29T14:15:05.917Z</time>
      </trkpt>
      <trkpt lat="46.68051" lon="5.62482">
        <ele>545</ele>
        <time>2021-05-29T14:15:06.917Z</time>
      </trkpt>
      <trkpt lat="46.68054" lon="5.62483">
        <ele>545</ele>
        <time>2021-05-29T14:15:07.917Z</time>
      </trkpt>
      <trkpt lat="46.68057" lon="5.62484">
        <ele>544</ele>
        <time>2021-05-29T14:15:08.917Z</time>
      </trkpt>
      <trkpt lat="46.68059" lon="5.62486">
        <ele>544</ele>
        <time>2021-05-29T14:15:09.916Z</time>
      </trkpt>
      <trkpt lat="46.68063" lon="5.62488">
        <ele>544</ele>
        <time>2021-05-29T14:15:10.917Z</time>
      </trkpt>
      <trkpt lat="46.68066" lon="5.62489">
        <ele>544</ele>
        <time>2021-05-29T14:15:11.917Z</time>
      </trkpt>
      <trkpt lat="46.68068" lon="5.62491">
        <ele>543</ele>
        <time>2021-05-29T14:15:12.916Z</time>
      </trkpt>
      <trkpt lat="46.68071" lon="5.62493">
        <ele>543</ele>
        <time>2021-05-29T14:15:13.917Z</time>
      </trkpt>
      <trkpt lat="46.68073" lon="5.62494">
        <ele>543</ele>
        <time>2021-05-29T14:15:14.917Z</time>
      </trkpt>
      <trkpt lat="46.68075" lon="5.62496">
        <ele>543</ele>
        <time>2021-05-29T14:15:15.917Z</time>
      </trkpt>
      <trkpt lat="46.68078" lon="5.62498">
        <ele>542</ele>
        <time>2021-05-29T14:15:16.917Z</time>
      </trkpt>
      <trkpt lat="46.6808" lon="5.625">
        <ele>542</ele>
        <time>2021-05-29T14:15:17.917Z</time>
      </trkpt>
      <trkpt lat="46.68082" lon="5.62503">
        <ele>542</ele>
        <time>2021-05-29T14:15:18.916Z</time>
      </trkpt>
      <trkpt lat="46.68084" lon="5.62505">
        <ele>542</ele>
        <time>2021-05-29T14:15:19.917Z</time>
      </trkpt>
      <trkpt lat="46.68086" lon="5.62506">
        <ele>542</ele>
        <time>2021-05-29T14:15:20.916Z</time>
      </trkpt>
      <trkpt lat="46.68089" lon="5.62508">
        <ele>542</ele>
        <time>2021-05-29T14:15:21.917Z</time>
      </trkpt>
      <trkpt lat="46.68091" lon="5.6251">
        <ele>542</ele>
        <time>2021-05-29T14:15:22.917Z</time>
      </trkpt>
      <trkpt lat="46.68095" lon="5.62511">
        <ele>542</ele>
        <time>2021-05-29T14:15:23.917Z</time>
      </trkpt>
      <trkpt lat="46.68098" lon="5.62511">
        <ele>541</ele>
        <time>2021-05-29T14:15:24.916Z</time>
      </trkpt>
      <trkpt lat="46.68101" lon="5.62512">
        <ele>541</ele>
        <time>2021-05-29T14:15:25.917Z</time>
      </trkpt>
      <trkpt lat="46.68104" lon="5.62513">
        <ele>541</ele>
        <time>2021-05-29T14:15:26.917Z</time>
      </trkpt>
      <trkpt lat="46.68105" lon="5.62515">
        <ele>541</ele>
        <time>2021-05-29T14:15:27.917Z</time>
      </trkpt>
      <trkpt lat="46.68107" lon="5.62516">
        <ele>541</ele>
        <time>2021-05-29T14:15:28.917Z</time>
      </trkpt>
      <trkpt lat="46.68109" lon="5.62517">
        <ele>541</ele>
        <time>2021-05-29T14:15:29.917Z</time>
      </trkpt>
      <trkpt lat="46.68112" lon="5.62518">
        <ele>541</ele>
        <time>2021-05-29T14:15:30.916Z</time>
      </trkpt>
      <trkpt lat="46.68114" lon="5.6252">
        <ele>541</ele>
        <time>2021-05-29T14:15:31.917Z</time>
      </trkpt>
      <trkpt lat="46.68116" lon="5.62521">
        <ele>541</ele>
        <time>2021-05-29T14:15:32.917Z</time>
      </trkpt>
      <trkpt lat="46.68118" lon="5.62521">
        <ele>542</ele>
        <time>2021-05-29T14:15:33.917Z</time>
      </trkpt>
      <trkpt lat="46.6812" lon="5.62522">
        <ele>542</ele>
        <time>2021-05-29T14:15:34.917Z</time>
      </trkpt>
      <trkpt lat="46.68121" lon="5.62523">
        <ele>542</ele>
        <time>2021-05-29T14:15:35.917Z</time>
      </trkpt>
      <trkpt lat="46.68125" lon="5.62525">
        <ele>542</ele>
        <time>2021-05-29T14:15:36.917Z</time>
      </trkpt>
      <trkpt lat="46.68126" lon="5.62527">
        <ele>542</ele>
        <time>2021-05-29T14:15:37.917Z</time>
      </trkpt>
      <trkpt lat="46.68129" lon="5.62529">
        <ele>542</ele>
        <time>2021-05-29T14:15:38.917Z</time>
      </trkpt>
      <trkpt lat="46.68131" lon="5.62532">
        <ele>542</ele>
        <time>2021-05-29T14:15:39.917Z</time>
      </trkpt>
      <trkpt lat="46.68134" lon="5.62534">
        <ele>542</ele>
        <time>2021-05-29T14:15:40.917Z</time>
      </trkpt>
      <trkpt lat="46.68135" lon="5.62536">
        <ele>542</ele>
        <time>2021-05-29T14:15:41.917Z</time>
      </trkpt>
      <trkpt lat="46.68138" lon="5.62537">
        <ele>541</ele>
        <time>2021-05-29T14:15:42.917Z</time>
      </trkpt>
      <trkpt lat="46.6814" lon="5.62539">
        <ele>541</ele>
        <time>2021-05-29T14:15:43.916Z</time>
      </trkpt>
      <trkpt lat="46.68142" lon="5.62541">
        <ele>541</ele>
        <time>2021-05-29T14:15:44.917Z</time>
      </trkpt>
      <trkpt lat="46.68144" lon="5.62543">
        <ele>541</ele>
        <time>2021-05-29T14:15:45.916Z</time>
      </trkpt>
      <trkpt lat="46.68145" lon="5.62546">
        <ele>541</ele>
        <time>2021-05-29T14:15:46.916Z</time>
      </trkpt>
      <trkpt lat="46.68147" lon="5.62549">
        <ele>542</ele>
        <time>2021-05-29T14:15:47.917Z</time>
      </trkpt>
      <trkpt lat="46.68149" lon="5.62553">
        <ele>542</ele>
        <time>2021-05-29T14:15:48.917Z</time>
      </trkpt>
      <trkpt lat="46.68151" lon="5.62556">
        <ele>542</ele>
        <time>2021-05-29T14:15:49.917Z</time>
      </trkpt>
      <trkpt lat="46.68152" lon="5.62559">
        <ele>542</ele>
        <time>2021-05-29T14:15:50.917Z</time>
      </trkpt>
      <trkpt lat="46.68153" lon="5.62562">
        <ele>542</ele>
        <time>2021-05-29T14:15:51.917Z</time>
      </trkpt>
      <trkpt lat="46.68154" lon="5.62566">
        <ele>542</ele>
        <time>2021-05-29T14:15:52.916Z</time>
      </trkpt>
      <trkpt lat="46.68156" lon="5.6257">
        <ele>541</ele>
        <time>2021-05-29T14:15:53.917Z</time>
      </trkpt>
      <trkpt lat="46.68158" lon="5.62573">
        <ele>541</ele>
        <time>2021-05-29T14:15:54.916Z</time>
      </trkpt>
      <trkpt lat="46.68159" lon="5.62575">
        <ele>541</ele>
        <time>2021-05-29T14:15:55.917Z</time>
      </trkpt>
      <trkpt lat="46.68161" lon="5.62578">
        <ele>541</ele>
        <time>2021-05-29T14:15:56.916Z</time>
      </trkpt>
      <trkpt lat="46.68163" lon="5.6258">
        <ele>541</ele>
        <time>2021-05-29T14:15:57.917Z</time>
      </trkpt>
      <trkpt lat="46.68165" lon="5.62583">
        <ele>541</ele>
        <time>2021-05-29T14:15:58.917Z</time>
      </trkpt>
      <trkpt lat="46.68166" lon="5.62585">
        <ele>540</ele>
        <time>2021-05-29T14:15:59.917Z</time>
      </trkpt>
      <trkpt lat="46.68168" lon="5.62587">
        <ele>540</ele>
        <time>2021-05-29T14:16:00.917Z</time>
      </trkpt>
      <trkpt lat="46.68169" lon="5.6259">
        <ele>540</ele>
        <time>2021-05-29T14:16:01.916Z</time>
      </trkpt>
      <trkpt lat="46.6817" lon="5.62591">
        <ele>540</ele>
        <time>2021-05-29T14:16:02.916Z</time>
      </trkpt>
      <trkpt lat="46.68172" lon="5.62593">
        <ele>539</ele>
        <time>2021-05-29T14:16:03.917Z</time>
      </trkpt>
      <trkpt lat="46.68174" lon="5.62595">
        <ele>539</ele>
        <time>2021-05-29T14:16:04.917Z</time>
      </trkpt>
      <trkpt lat="46.68176" lon="5.62597">
        <ele>539</ele>
        <time>2021-05-29T14:16:05.917Z</time>
      </trkpt>
      <trkpt lat="46.68179" lon="5.62599">
        <ele>539</ele>
        <time>2021-05-29T14:16:06.916Z</time>
      </trkpt>
      <trkpt lat="46.68181" lon="5.62601">
        <ele>539</ele>
        <time>2021-05-29T14:16:07.917Z</time>
      </trkpt>
      <trkpt lat="46.68182" lon="5.62602">
        <ele>539</ele>
        <time>2021-05-29T14:16:08.916Z</time>
      </trkpt>
      <trkpt lat="46.68185" lon="5.62604">
        <ele>539</ele>
        <time>2021-05-29T14:16:09.917Z</time>
      </trkpt>
      <trkpt lat="46.68186" lon="5.62606">
        <ele>540</ele>
        <time>2021-05-29T14:16:10.916Z</time>
      </trkpt>
      <trkpt lat="46.68188" lon="5.62608">
        <ele>540</ele>
        <time>2021-05-29T14:16:11.917Z</time>
      </trkpt>
      <trkpt lat="46.68189" lon="5.62609">
        <ele>540</ele>
        <time>2021-05-29T14:16:12.917Z</time>
      </trkpt>
      <trkpt lat="46.68191" lon="5.62611">
        <ele>540</ele>
        <time>2021-05-29T14:16:13.917Z</time>
      </trkpt>
      <trkpt lat="46.68193" lon="5.62612">
        <ele>540</ele>
        <time>2021-05-29T14:16:14.917Z</time>
      </trkpt>
      <trkpt lat="46.68194" lon="5.62614">
        <ele>540</ele>
        <time>2021-05-29T14:16:15.917Z</time>
      </trkpt>
      <trkpt lat="46.68196" lon="5.62615">
        <ele>540</ele>
        <time>2021-05-29T14:16:16.916Z</time>
      </trkpt>
      <trkpt lat="46.68198" lon="5.62616">
        <ele>540</ele>
        <time>2021-05-29T14:16:17.917Z</time>
      </trkpt>
      <trkpt lat="46.68199" lon="5.62618">
        <ele>540</ele>
        <time>2021-05-29T14:16:18.916Z</time>
      </trkpt>
      <trkpt lat="46.68201" lon="5.62619">
        <ele>540</ele>
        <time>2021-05-29T14:16:19.917Z</time>
      </trkpt>
      <trkpt lat="46.68203" lon="5.6262">
        <ele>540</ele>
        <time>2021-05-29T14:16:20.916Z</time>
      </trkpt>
      <trkpt lat="46.68205" lon="5.62622">
        <ele>539</ele>
        <time>2021-05-29T14:16:21.917Z</time>
      </trkpt>
      <trkpt lat="46.68207" lon="5.62623">
        <ele>539</ele>
        <time>2021-05-29T14:16:22.917Z</time>
      </trkpt>
      <trkpt lat="46.68209" lon="5.62624">
        <ele>539</ele>
        <time>2021-05-29T14:16:23.917Z</time>
      </trkpt>
      <trkpt lat="46.68211" lon="5.62625">
        <ele>539</ele>
        <time>2021-05-29T14:16:24.917Z</time>
      </trkpt>
      <trkpt lat="46.68213" lon="5.62626">
        <ele>539</ele>
        <time>2021-05-29T14:16:25.916Z</time>
      </trkpt>
      <trkpt lat="46.68215" lon="5.62628">
        <ele>539</ele>
        <time>2021-05-29T14:16:26.917Z</time>
      </trkpt>
      <trkpt lat="46.68217" lon="5.62629">
        <ele>539</ele>
        <time>2021-05-29T14:16:27.916Z</time>
      </trkpt>
      <trkpt lat="46.68219" lon="5.6263">
        <ele>539</ele>
        <time>2021-05-29T14:16:28.917Z</time>
      </trkpt>
      <trkpt lat="46.68222" lon="5.62631">
        <ele>538</ele>
        <time>2021-05-29T14:16:29.916Z</time>
      </trkpt>
      <trkpt lat="46.68223" lon="5.62632">
        <ele>538</ele>
        <time>2021-05-29T14:16:30.917Z</time>
      </trkpt>
      <trkpt lat="46.68226" lon="5.62633">
        <ele>539</ele>
        <time>2021-05-29T14:16:31.916Z</time>
      </trkpt>
      <trkpt lat="46.68228" lon="5.62634">
        <ele>539</ele>
        <time>2021-05-29T14:16:32.917Z</time>
      </trkpt>
      <trkpt lat="46.6823" lon="5.62635">
        <ele>539</ele>
        <time>2021-05-29T14:16:33.917Z</time>
      </trkpt>
      <trkpt lat="46.68232" lon="5.62636">
        <ele>539</ele>
        <time>2021-05-29T14:16:34.917Z</time>
      </trkpt>
      <trkpt lat="46.68234" lon="5.62637">
        <ele>539</ele>
        <time>2021-05-29T14:16:35.917Z</time>
      </trkpt>
      <trkpt lat="46.68236" lon="5.62638">
        <ele>539</ele>
        <time>2021-05-29T14:16:36.917Z</time>
      </trkpt>
      <trkpt lat="46.68239" lon="5.62638">
        <ele>539</ele>
        <time>2021-05-29T14:16:37.916Z</time>
      </trkpt>
      <trkpt lat="46.6824" lon="5.62639">
        <ele>539</ele>
        <time>2021-05-29T14:16:38.917Z</time>
      </trkpt>
      <trkpt lat="46.68242" lon="5.6264">
        <ele>540</ele>
        <time>2021-05-29T14:16:39.917Z</time>
      </trkpt>
      <trkpt lat="46.68245" lon="5.62641">
        <ele>540</ele>
        <time>2021-05-29T14:16:40.917Z</time>
      </trkpt>
      <trkpt lat="46.68247" lon="5.62642">
        <ele>540</ele>
        <time>2021-05-29T14:16:41.917Z</time>
      </trkpt>
      <trkpt lat="46.68249" lon="5.62642">
        <ele>540</ele>
        <time>2021-05-29T14:16:42.916Z</time>
      </trkpt>
      <trkpt lat="46.68251" lon="5.62643">
        <ele>540</ele>
        <time>2021-05-29T14:16:43.917Z</time>
      </trkpt>
      <trkpt lat="46.68254" lon="5.62645">
        <ele>540</ele>
        <time>2021-05-29T14:16:44.917Z</time>
      </trkpt>
      <trkpt lat="46.68256" lon="5.62646">
        <ele>541</ele>
        <time>2021-05-29T14:16:45.917Z</time>
      </trkpt>
      <trkpt lat="46.68258" lon="5.62647">
        <ele>541</ele>
        <time>2021-05-29T14:16:46.916Z</time>
      </trkpt>
      <trkpt lat="46.6826" lon="5.62648">
        <ele>541</ele>
        <time>2021-05-29T14:16:47.917Z</time>
      </trkpt>
      <trkpt lat="46.68262" lon="5.62649">
        <ele>541</ele>
        <time>2021-05-29T14:16:48.916Z</time>
      </trkpt>
      <trkpt lat="46.68264" lon="5.62651">
        <ele>541</ele>
        <time>2021-05-29T14:16:49.917Z</time>
      </trkpt>
      <trkpt lat="46.68266" lon="5.62652">
        <ele>541</ele>
        <time>2021-05-29T14:16:50.917Z</time>
      </trkpt>
      <trkpt lat="46.68268" lon="5.62653">
        <ele>541</ele>
        <time>2021-05-29T14:16:51.917Z</time>
      </trkpt>
      <trkpt lat="46.68271" lon="5.62654">
        <ele>541</ele>
        <time>2021-05-29T14:16:52.916Z</time>
      </trkpt>
      <trkpt lat="46.68273" lon="5.62656">
        <ele>542</ele>
        <time>2021-05-29T14:16:53.916Z</time>
      </trkpt>
      <trkpt lat="46.68275" lon="5.62657">
        <ele>542</ele>
        <time>2021-05-29T14:16:54.917Z</time>
      </trkpt>
      <trkpt lat="46.68277" lon="5.62658">
        <ele>543</ele>
        <time>2021-05-29T14:16:55.917Z</time>
      </trkpt>
      <trkpt lat="46.68279" lon="5.62659">
        <ele>543</ele>
        <time>2021-05-29T14:16:56.917Z</time>
      </trkpt>
      <trkpt lat="46.6828" lon="5.62661">
        <ele>543</ele>
        <time>2021-05-29T14:16:57.917Z</time>
      </trkpt>
      <trkpt lat="46.68282" lon="5.62662">
        <ele>544</ele>
        <time>2021-05-29T14:16:58.916Z</time>
      </trkpt>
      <trkpt lat="46.68284" lon="5.62663">
        <ele>544</ele>
        <time>2021-05-29T14:16:59.917Z</time>
      </trkpt>
      <trkpt lat="46.68285" lon="5.62664">
        <ele>544</ele>
        <time>2021-05-29T14:17:00.916Z</time>
      </trkpt>
      <trkpt lat="46.68287" lon="5.62665">
        <ele>544</ele>
        <time>2021-05-29T14:17:01.917Z</time>
      </trkpt>
      <trkpt lat="46.6829" lon="5.62666">
        <ele>543</ele>
        <time>2021-05-29T14:17:02.917Z</time>
      </trkpt>
      <trkpt lat="46.68292" lon="5.62667">
        <ele>543</ele>
        <time>2021-05-29T14:17:03.917Z</time>
      </trkpt>
      <trkpt lat="46.68293" lon="5.62668">
        <ele>543</ele>
        <time>2021-05-29T14:17:04.917Z</time>
      </trkpt>
      <trkpt lat="46.68295" lon="5.6267">
        <ele>543</ele>
        <time>2021-05-29T14:17:05.917Z</time>
      </trkpt>
      <trkpt lat="46.68298" lon="5.62671">
        <ele>543</ele>
        <time>2021-05-29T14:17:06.917Z</time>
      </trkpt>
      <trkpt lat="46.683" lon="5.62672">
        <ele>543</ele>
        <time>2021-05-29T14:17:07.917Z</time>
      </trkpt>
      <trkpt lat="46.68302" lon="5.62674">
        <ele>543</ele>
        <time>2021-05-29T14:17:08.917Z</time>
      </trkpt>
      <trkpt lat="46.68303" lon="5.62675">
        <ele>543</ele>
        <time>2021-05-29T14:17:09.917Z</time>
      </trkpt>
      <trkpt lat="46.68305" lon="5.62676">
        <ele>542</ele>
        <time>2021-05-29T14:17:10.917Z</time>
      </trkpt>
      <trkpt lat="46.68307" lon="5.62677">
        <ele>542</ele>
        <time>2021-05-29T14:17:11.917Z</time>
      </trkpt>
      <trkpt lat="46.68309" lon="5.62678">
        <ele>543</ele>
        <time>2021-05-29T14:17:12.916Z</time>
      </trkpt>
      <trkpt lat="46.68311" lon="5.62679">
        <ele>543</ele>
        <time>2021-05-29T14:17:13.917Z</time>
      </trkpt>
      <trkpt lat="46.68313" lon="5.6268">
        <ele>543</ele>
        <time>2021-05-29T14:17:14.917Z</time>
      </trkpt>
      <trkpt lat="46.68315" lon="5.62682">
        <ele>543</ele>
        <time>2021-05-29T14:17:15.917Z</time>
      </trkpt>
      <trkpt lat="46.68317" lon="5.62682">
        <ele>543</ele>
        <time>2021-05-29T14:17:16.917Z</time>
      </trkpt>
      <trkpt lat="46.6832" lon="5.62683">
        <ele>543</ele>
        <time>2021-05-29T14:17:17.917Z</time>
      </trkpt>
      <trkpt lat="46.68322" lon="5.62684">
        <ele>543</ele>
        <time>2021-05-29T14:17:18.916Z</time>
      </trkpt>
      <trkpt lat="46.68325" lon="5.62685">
        <ele>543</ele>
        <time>2021-05-29T14:17:19.916Z</time>
      </trkpt>
      <trkpt lat="46.68328" lon="5.62686">
        <ele>543</ele>
        <time>2021-05-29T14:17:20.917Z</time>
      </trkpt>
      <trkpt lat="46.6833" lon="5.62687">
        <ele>543</ele>
        <time>2021-05-29T14:17:21.916Z</time>
      </trkpt>
      <trkpt lat="46.68333" lon="5.62688">
        <ele>542</ele>
        <time>2021-05-29T14:17:22.917Z</time>
      </trkpt>
      <trkpt lat="46.68335" lon="5.62688">
        <ele>542</ele>
        <time>2021-05-29T14:17:23.917Z</time>
      </trkpt>
      <trkpt lat="46.68338" lon="5.62689">
        <ele>542</ele>
        <time>2021-05-29T14:17:24.917Z</time>
      </trkpt>
      <trkpt lat="46.6834" lon="5.6269">
        <ele>542</ele>
        <time>2021-05-29T14:17:25.916Z</time>
      </trkpt>
      <trkpt lat="46.68342" lon="5.6269">
        <ele>542</ele>
        <time>2021-05-29T14:17:26.917Z</time>
      </trkpt>
      <trkpt lat="46.68344" lon="5.62691">
        <ele>542</ele>
        <time>2021-05-29T14:17:27.917Z</time>
      </trkpt>
      <trkpt lat="46.68347" lon="5.62692">
        <ele>542</ele>
        <time>2021-05-29T14:17:28.917Z</time>
      </trkpt>
      <trkpt lat="46.6835" lon="5.62693">
        <ele>542</ele>
        <time>2021-05-29T14:17:29.917Z</time>
      </trkpt>
      <trkpt lat="46.68352" lon="5.62693">
        <ele>542</ele>
        <time>2021-05-29T14:17:30.917Z</time>
      </trkpt>
      <trkpt lat="46.68354" lon="5.62694">
        <ele>542</ele>
        <time>2021-05-29T14:17:31.916Z</time>
      </trkpt>
      <trkpt lat="46.68356" lon="5.62694">
        <ele>542</ele>
        <time>2021-05-29T14:17:32.917Z</time>
      </trkpt>
      <trkpt lat="46.68358" lon="5.62695">
        <ele>542</ele>
        <time>2021-05-29T14:17:33.917Z</time>
      </trkpt>
      <trkpt lat="46.68361" lon="5.62695">
        <ele>542</ele>
        <time>2021-05-29T14:17:34.917Z</time>
      </trkpt>
      <trkpt lat="46.68363" lon="5.62695">
        <ele>542</ele>
        <time>2021-05-29T14:17:35.916Z</time>
      </trkpt>
      <trkpt lat="46.68365" lon="5.62696">
        <ele>543</ele>
        <time>2021-05-29T14:17:36.916Z</time>
      </trkpt>
      <trkpt lat="46.68367" lon="5.62697">
        <ele>544</ele>
        <time>2021-05-29T14:17:37.917Z</time>
      </trkpt>
      <trkpt lat="46.68369" lon="5.62698">
        <ele>544</ele>
        <time>2021-05-29T14:17:38.917Z</time>
      </trkpt>
      <trkpt lat="46.68371" lon="5.62698">
        <ele>544</ele>
        <time>2021-05-29T14:17:39.917Z</time>
      </trkpt>
      <trkpt lat="46.68373" lon="5.62698">
        <ele>545</ele>
        <time>2021-05-29T14:17:40.916Z</time>
      </trkpt>
      <trkpt lat="46.68375" lon="5.62699">
        <ele>545</ele>
        <time>2021-05-29T14:17:41.917Z</time>
      </trkpt>
      <trkpt lat="46.68377" lon="5.62699">
        <ele>545</ele>
        <time>2021-05-29T14:17:42.917Z</time>
      </trkpt>
      <trkpt lat="46.68379" lon="5.627">
        <ele>545</ele>
        <time>2021-05-29T14:17:43.917Z</time>
      </trkpt>
      <trkpt lat="46.68382" lon="5.627">
        <ele>545</ele>
        <time>2021-05-29T14:17:44.917Z</time>
      </trkpt>
      <trkpt lat="46.68384" lon="5.627">
        <ele>544</ele>
        <time>2021-05-29T14:17:45.917Z</time>
      </trkpt>
      <trkpt lat="46.68387" lon="5.62699">
        <ele>544</ele>
        <time>2021-05-29T14:17:46.916Z</time>
      </trkpt>
      <trkpt lat="46.68389" lon="5.62699">
        <ele>544</ele>
        <time>2021-05-29T14:17:47.917Z</time>
      </trkpt>
      <trkpt lat="46.68391" lon="5.62699">
        <ele>544</ele>
        <time>2021-05-29T14:17:48.916Z</time>
      </trkpt>
      <trkpt lat="46.68393" lon="5.62699">
        <ele>544</ele>
        <time>2021-05-29T14:17:49.917Z</time>
      </trkpt>
      <trkpt lat="46.68396" lon="5.62698">
        <ele>544</ele>
        <time>2021-05-29T14:17:50.917Z</time>
      </trkpt>
      <trkpt lat="46.68398" lon="5.62698">
        <ele>545</ele>
        <time>2021-05-29T14:17:51.917Z</time>
      </trkpt>
      <trkpt lat="46.68401" lon="5.62698">
        <ele>545</ele>
        <time>2021-05-29T14:17:52.917Z</time>
      </trkpt>
      <trkpt lat="46.68403" lon="5.62698">
        <ele>545</ele>
        <time>2021-05-29T14:17:53.916Z</time>
      </trkpt>
      <trkpt lat="46.68405" lon="5.62697">
        <ele>545</ele>
        <time>2021-05-29T14:17:54.917Z</time>
      </trkpt>
      <trkpt lat="46.68408" lon="5.62697">
        <ele>546</ele>
        <time>2021-05-29T14:17:55.916Z</time>
      </trkpt>
      <trkpt lat="46.6841" lon="5.62696">
        <ele>546</ele>
        <time>2021-05-29T14:17:56.916Z</time>
      </trkpt>
      <trkpt lat="46.68412" lon="5.62696">
        <ele>546</ele>
        <time>2021-05-29T14:17:57.917Z</time>
      </trkpt>
      <trkpt lat="46.68415" lon="5.62695">
        <ele>546</ele>
        <time>2021-05-29T14:17:58.917Z</time>
      </trkpt>
      <trkpt lat="46.68417" lon="5.62695">
        <ele>546</ele>
        <time>2021-05-29T14:17:59.917Z</time>
      </trkpt>
      <trkpt lat="46.6842" lon="5.62694">
        <ele>546</ele>
        <time>2021-05-29T14:18:00.917Z</time>
      </trkpt>
      <trkpt lat="46.68422" lon="5.62693">
        <ele>547</ele>
        <time>2021-05-29T14:18:01.916Z</time>
      </trkpt>
      <trkpt lat="46.68424" lon="5.62693">
        <ele>547</ele>
        <time>2021-05-29T14:18:02.916Z</time>
      </trkpt>
      <trkpt lat="46.68426" lon="5.62692">
        <ele>547</ele>
        <time>2021-05-29T14:18:03.917Z</time>
      </trkpt>
      <trkpt lat="46.68429" lon="5.62691">
        <ele>547</ele>
        <time>2021-05-29T14:18:04.916Z</time>
      </trkpt>
      <trkpt lat="46.68432" lon="5.62691">
        <ele>547</ele>
        <time>2021-05-29T14:18:05.917Z</time>
      </trkpt>
      <trkpt lat="46.68433" lon="5.6269">
        <ele>547</ele>
        <time>2021-05-29T14:18:06.917Z</time>
      </trkpt>
      <trkpt lat="46.68436" lon="5.6269">
        <ele>548</ele>
        <time>2021-05-29T14:18:07.917Z</time>
      </trkpt>
      <trkpt lat="46.68438" lon="5.62689">
        <ele>548</ele>
        <time>2021-05-29T14:18:08.917Z</time>
      </trkpt>
      <trkpt lat="46.68441" lon="5.62689">
        <ele>548</ele>
        <time>2021-05-29T14:18:09.917Z</time>
      </trkpt>
      <trkpt lat="46.68444" lon="5.62689">
        <ele>548</ele>
        <time>2021-05-29T14:18:10.916Z</time>
      </trkpt>
      <trkpt lat="46.68446" lon="5.62689">
        <ele>548</ele>
        <time>2021-05-29T14:18:11.917Z</time>
      </trkpt>
      <trkpt lat="46.68449" lon="5.62688">
        <ele>547</ele>
        <time>2021-05-29T14:18:12.916Z</time>
      </trkpt>
      <trkpt lat="46.68451" lon="5.62688">
        <ele>547</ele>
        <time>2021-05-29T14:18:13.917Z</time>
      </trkpt>
      <trkpt lat="46.68454" lon="5.62687">
        <ele>548</ele>
        <time>2021-05-29T14:18:14.917Z</time>
      </trkpt>
      <trkpt lat="46.68456" lon="5.62687">
        <ele>548</ele>
        <time>2021-05-29T14:18:15.916Z</time>
      </trkpt>
      <trkpt lat="46.68458" lon="5.62686">
        <ele>548</ele>
        <time>2021-05-29T14:18:16.916Z</time>
      </trkpt>
      <trkpt lat="46.68461" lon="5.62686">
        <ele>548</ele>
        <time>2021-05-29T14:18:17.916Z</time>
      </trkpt>
      <trkpt lat="46.68463" lon="5.62686">
        <ele>547</ele>
        <time>2021-05-29T14:18:18.917Z</time>
      </trkpt>
      <trkpt lat="46.68466" lon="5.62685">
        <ele>547</ele>
        <time>2021-05-29T14:18:19.917Z</time>
      </trkpt>
      <trkpt lat="46.68467" lon="5.62685">
        <ele>547</ele>
        <time>2021-05-29T14:18:20.916Z</time>
      </trkpt>
      <trkpt lat="46.6847" lon="5.62685">
        <ele>547</ele>
        <time>2021-05-29T14:18:21.916Z</time>
      </trkpt>
      <trkpt lat="46.68473" lon="5.62684">
        <ele>547</ele>
        <time>2021-05-29T14:18:22.917Z</time>
      </trkpt>
      <trkpt lat="46.68475" lon="5.62684">
        <ele>548</ele>
        <time>2021-05-29T14:18:23.917Z</time>
      </trkpt>
      <trkpt lat="46.68478" lon="5.62683">
        <ele>548</ele>
        <time>2021-05-29T14:18:24.917Z</time>
      </trkpt>
      <trkpt lat="46.68479" lon="5.62682">
        <ele>549</ele>
        <time>2021-05-29T14:18:25.916Z</time>
      </trkpt>
      <trkpt lat="46.68482" lon="5.62682">
        <ele>550</ele>
        <time>2021-05-29T14:18:26.916Z</time>
      </trkpt>
      <trkpt lat="46.68484" lon="5.62682">
        <ele>550</ele>
        <time>2021-05-29T14:18:27.917Z</time>
      </trkpt>
      <trkpt lat="46.68487" lon="5.62682">
        <ele>551</ele>
        <time>2021-05-29T14:18:28.917Z</time>
      </trkpt>
      <trkpt lat="46.68489" lon="5.62682">
        <ele>551</ele>
        <time>2021-05-29T14:18:29.917Z</time>
      </trkpt>
      <trkpt lat="46.68491" lon="5.62681">
        <ele>552</ele>
        <time>2021-05-29T14:18:30.917Z</time>
      </trkpt>
      <trkpt lat="46.68493" lon="5.62681">
        <ele>553</ele>
        <time>2021-05-29T14:18:31.917Z</time>
      </trkpt>
      <trkpt lat="46.68495" lon="5.6268">
        <ele>553</ele>
        <time>2021-05-29T14:18:32.917Z</time>
      </trkpt>
      <trkpt lat="46.68497" lon="5.6268">
        <ele>554</ele>
        <time>2021-05-29T14:18:33.917Z</time>
      </trkpt>
      <trkpt lat="46.68498" lon="5.62681">
        <ele>555</ele>
        <time>2021-05-29T14:18:34.917Z</time>
      </trkpt>
      <trkpt lat="46.68501" lon="5.62681">
        <ele>556</ele>
        <time>2021-05-29T14:18:35.917Z</time>
      </trkpt>
      <trkpt lat="46.68502" lon="5.62681">
        <ele>557</ele>
        <time>2021-05-29T14:18:36.916Z</time>
      </trkpt>
      <trkpt lat="46.68505" lon="5.62682">
        <ele>557</ele>
        <time>2021-05-29T14:18:37.917Z</time>
      </trkpt>
      <trkpt lat="46.68506" lon="5.62683">
        <ele>557</ele>
        <time>2021-05-29T14:18:38.917Z</time>
      </trkpt>
      <trkpt lat="46.68508" lon="5.62683">
        <ele>557</ele>
        <time>2021-05-29T14:18:39.917Z</time>
      </trkpt>
      <trkpt lat="46.6851" lon="5.62684">
        <ele>557</ele>
        <time>2021-05-29T14:18:40.916Z</time>
      </trkpt>
      <trkpt lat="46.68513" lon="5.62684">
        <ele>557</ele>
        <time>2021-05-29T14:18:41.916Z</time>
      </trkpt>
      <trkpt lat="46.68515" lon="5.62684">
        <ele>557</ele>
        <time>2021-05-29T14:18:42.917Z</time>
      </trkpt>
      <trkpt lat="46.68518" lon="5.62684">
        <ele>557</ele>
        <time>2021-05-29T14:18:43.917Z</time>
      </trkpt>
      <trkpt lat="46.68521" lon="5.62685">
        <ele>557</ele>
        <time>2021-05-29T14:18:44.917Z</time>
      </trkpt>
      <trkpt lat="46.68524" lon="5.62686">
        <ele>557</ele>
        <time>2021-05-29T14:18:45.917Z</time>
      </trkpt>
      <trkpt lat="46.68527" lon="5.62688">
        <ele>557</ele>
        <time>2021-05-29T14:18:46.916Z</time>
      </trkpt>
      <trkpt lat="46.68529" lon="5.62689">
        <ele>556</ele>
        <time>2021-05-29T14:18:47.917Z</time>
      </trkpt>
      <trkpt lat="46.68531" lon="5.62689">
        <ele>556</ele>
        <time>2021-05-29T14:18:48.917Z</time>
      </trkpt>
      <trkpt lat="46.68533" lon="5.6269">
        <ele>556</ele>
        <time>2021-05-29T14:18:49.916Z</time>
      </trkpt>
      <trkpt lat="46.68535" lon="5.6269">
        <ele>556</ele>
        <time>2021-05-29T14:18:50.917Z</time>
      </trkpt>
      <trkpt lat="46.68537" lon="5.6269">
        <ele>556</ele>
        <time>2021-05-29T14:18:51.917Z</time>
      </trkpt>
      <trkpt lat="46.68539" lon="5.6269">
        <ele>556</ele>
        <time>2021-05-29T14:18:52.917Z</time>
      </trkpt>
      <trkpt lat="46.68541" lon="5.62691">
        <ele>557</ele>
        <time>2021-05-29T14:18:53.917Z</time>
      </trkpt>
      <trkpt lat="46.68543" lon="5.62692">
        <ele>557</ele>
        <time>2021-05-29T14:18:54.916Z</time>
      </trkpt>
      <trkpt lat="46.68546" lon="5.62693">
        <ele>556</ele>
        <time>2021-05-29T14:18:55.917Z</time>
      </trkpt>
      <trkpt lat="46.68548" lon="5.62694">
        <ele>556</ele>
        <time>2021-05-29T14:18:56.917Z</time>
      </trkpt>
      <trkpt lat="46.68551" lon="5.62695">
        <ele>556</ele>
        <time>2021-05-29T14:18:57.917Z</time>
      </trkpt>
      <trkpt lat="46.68553" lon="5.62696">
        <ele>556</ele>
        <time>2021-05-29T14:18:58.917Z</time>
      </trkpt>
      <trkpt lat="46.68554" lon="5.62698">
        <ele>556</ele>
        <time>2021-05-29T14:18:59.916Z</time>
      </trkpt>
      <trkpt lat="46.68556" lon="5.627">
        <ele>556</ele>
        <time>2021-05-29T14:19:00.916Z</time>
      </trkpt>
      <trkpt lat="46.68558" lon="5.62702">
        <ele>555</ele>
        <time>2021-05-29T14:19:01.917Z</time>
      </trkpt>
      <trkpt lat="46.68559" lon="5.62705">
        <ele>555</ele>
        <time>2021-05-29T14:19:02.917Z</time>
      </trkpt>
      <trkpt lat="46.6856" lon="5.62709">
        <ele>555</ele>
        <time>2021-05-29T14:19:03.916Z</time>
      </trkpt>
      <trkpt lat="46.68561" lon="5.62711">
        <ele>554</ele>
        <time>2021-05-29T14:19:04.916Z</time>
      </trkpt>
      <trkpt lat="46.68561" lon="5.62715">
        <ele>554</ele>
        <time>2021-05-29T14:19:05.917Z</time>
      </trkpt>
      <trkpt lat="46.68561" lon="5.62719">
        <ele>553</ele>
        <time>2021-05-29T14:19:06.917Z</time>
      </trkpt>
      <trkpt lat="46.68561" lon="5.62723">
        <ele>553</ele>
        <time>2021-05-29T14:19:07.917Z</time>
      </trkpt>
      <trkpt lat="46.68561" lon="5.62726">
        <ele>553</ele>
        <time>2021-05-29T14:19:08.917Z</time>
      </trkpt>
      <trkpt lat="46.68561" lon="5.6273">
        <ele>553</ele>
        <time>2021-05-29T14:19:09.917Z</time>
      </trkpt>
      <trkpt lat="46.6856" lon="5.62734">
        <ele>553</ele>
        <time>2021-05-29T14:19:10.917Z</time>
      </trkpt>
      <trkpt lat="46.68558" lon="5.62738">
        <ele>552</ele>
        <time>2021-05-29T14:19:11.916Z</time>
      </trkpt>
      <trkpt lat="46.68558" lon="5.62741">
        <ele>552</ele>
        <time>2021-05-29T14:19:12.917Z</time>
      </trkpt>
      <trkpt lat="46.68558" lon="5.62744">
        <ele>552</ele>
        <time>2021-05-29T14:19:13.916Z</time>
      </trkpt>
      <trkpt lat="46.68558" lon="5.62748">
        <ele>552</ele>
        <time>2021-05-29T14:19:14.917Z</time>
      </trkpt>
      <trkpt lat="46.68557" lon="5.62752">
        <ele>552</ele>
        <time>2021-05-29T14:19:15.917Z</time>
      </trkpt>
      <trkpt lat="46.68557" lon="5.62756">
        <ele>552</ele>
        <time>2021-05-29T14:19:16.916Z</time>
      </trkpt>
      <trkpt lat="46.68556" lon="5.6276">
        <ele>551</ele>
        <time>2021-05-29T14:19:17.916Z</time>
      </trkpt>
      <trkpt lat="46.68555" lon="5.62763">
        <ele>551</ele>
        <time>2021-05-29T14:19:18.917Z</time>
      </trkpt>
      <trkpt lat="46.68554" lon="5.62767">
        <ele>550</ele>
        <time>2021-05-29T14:19:19.917Z</time>
      </trkpt>
      <trkpt lat="46.68553" lon="5.6277">
        <ele>549</ele>
        <time>2021-05-29T14:19:20.917Z</time>
      </trkpt>
      <trkpt lat="46.68552" lon="5.62773">
        <ele>549</ele>
        <time>2021-05-29T14:19:21.916Z</time>
      </trkpt>
      <trkpt lat="46.68551" lon="5.62776">
        <ele>548</ele>
        <time>2021-05-29T14:19:22.916Z</time>
      </trkpt>
      <trkpt lat="46.68551" lon="5.62779">
        <ele>548</ele>
        <time>2021-05-29T14:19:23.917Z</time>
      </trkpt>
      <trkpt lat="46.6855" lon="5.62783">
        <ele>547</ele>
        <time>2021-05-29T14:19:24.917Z</time>
      </trkpt>
      <trkpt lat="46.6855" lon="5.62787">
        <ele>547</ele>
        <time>2021-05-29T14:19:25.917Z</time>
      </trkpt>
      <trkpt lat="46.68549" lon="5.6279">
        <ele>547</ele>
        <time>2021-05-29T14:19:26.917Z</time>
      </trkpt>
      <trkpt lat="46.68549" lon="5.62793">
        <ele>547</ele>
        <time>2021-05-29T14:19:27.916Z</time>
      </trkpt>
      <trkpt lat="46.68548" lon="5.62798">
        <ele>547</ele>
        <time>2021-05-29T14:19:28.917Z</time>
      </trkpt>
      <trkpt lat="46.68548" lon="5.62801">
        <ele>547</ele>
        <time>2021-05-29T14:19:29.917Z</time>
      </trkpt>
      <trkpt lat="46.68547" lon="5.62805">
        <ele>547</ele>
        <time>2021-05-29T14:19:30.917Z</time>
      </trkpt>
      <trkpt lat="46.68547" lon="5.62808">
        <ele>548</ele>
        <time>2021-05-29T14:19:31.917Z</time>
      </trkpt>
      <trkpt lat="46.68547" lon="5.62811">
        <ele>548</ele>
        <time>2021-05-29T14:19:32.917Z</time>
      </trkpt>
      <trkpt lat="46.68546" lon="5.62814">
        <ele>548</ele>
        <time>2021-05-29T14:19:33.917Z</time>
      </trkpt>
      <trkpt lat="46.68546" lon="5.62817">
        <ele>548</ele>
        <time>2021-05-29T14:19:34.917Z</time>
      </trkpt>
      <trkpt lat="46.68546" lon="5.62821">
        <ele>549</ele>
        <time>2021-05-29T14:19:35.917Z</time>
      </trkpt>
      <trkpt lat="46.68545" lon="5.62824">
        <ele>549</ele>
        <time>2021-05-29T14:19:36.917Z</time>
      </trkpt>
      <trkpt lat="46.68545" lon="5.62827">
        <ele>549</ele>
        <time>2021-05-29T14:19:37.916Z</time>
      </trkpt>
      <trkpt lat="46.68544" lon="5.62831">
        <ele>550</ele>
        <time>2021-05-29T14:19:38.916Z</time>
      </trkpt>
      <trkpt lat="46.68543" lon="5.62834">
        <ele>550</ele>
        <time>2021-05-29T14:19:39.917Z</time>
      </trkpt>
      <trkpt lat="46.68543" lon="5.62837">
        <ele>550</ele>
        <time>2021-05-29T14:19:40.917Z</time>
      </trkpt>
      <trkpt lat="46.68544" lon="5.6284">
        <ele>551</ele>
        <time>2021-05-29T14:19:41.917Z</time>
      </trkpt>
      <trkpt lat="46.68545" lon="5.62843">
        <ele>551</ele>
        <time>2021-05-29T14:19:42.917Z</time>
      </trkpt>
      <trkpt lat="46.68546" lon="5.62846">
        <ele>552</ele>
        <time>2021-05-29T14:19:43.916Z</time>
      </trkpt>
      <trkpt lat="46.68547" lon="5.62848">
        <ele>552</ele>
        <time>2021-05-29T14:19:44.917Z</time>
      </trkpt>
      <trkpt lat="46.68549" lon="5.62849">
        <ele>552</ele>
        <time>2021-05-29T14:19:45.917Z</time>
      </trkpt>
      <trkpt lat="46.68551" lon="5.62851">
        <ele>551</ele>
        <time>2021-05-29T14:19:46.917Z</time>
      </trkpt>
      <trkpt lat="46.68552" lon="5.62853">
        <ele>551</ele>
        <time>2021-05-29T14:19:47.917Z</time>
      </trkpt>
      <trkpt lat="46.68553" lon="5.62855">
        <ele>551</ele>
        <time>2021-05-29T14:19:48.916Z</time>
      </trkpt>
      <trkpt lat="46.68555" lon="5.62857">
        <ele>551</ele>
        <time>2021-05-29T14:19:49.916Z</time>
      </trkpt>
      <trkpt lat="46.68557" lon="5.62859">
        <ele>551</ele>
        <time>2021-05-29T14:19:50.917Z</time>
      </trkpt>
      <trkpt lat="46.68558" lon="5.62862">
        <ele>551</ele>
        <time>2021-05-29T14:19:51.917Z</time>
      </trkpt>
      <trkpt lat="46.68561" lon="5.62863">
        <ele>551</ele>
        <time>2021-05-29T14:19:52.917Z</time>
      </trkpt>
      <trkpt lat="46.68563" lon="5.62865">
        <ele>551</ele>
        <time>2021-05-29T14:19:53.917Z</time>
      </trkpt>
      <trkpt lat="46.68563" lon="5.62866">
        <ele>550</ele>
        <time>2021-05-29T14:19:54.917Z</time>
      </trkpt>
      <trkpt lat="46.68565" lon="5.62868">
        <ele>550</ele>
        <time>2021-05-29T14:19:55.917Z</time>
      </trkpt>
      <trkpt lat="46.68567" lon="5.62869">
        <ele>550</ele>
        <time>2021-05-29T14:19:56.917Z</time>
      </trkpt>
      <trkpt lat="46.6857" lon="5.6287">
        <ele>550</ele>
        <time>2021-05-29T14:19:57.917Z</time>
      </trkpt>
      <trkpt lat="46.68572" lon="5.62871">
        <ele>550</ele>
        <time>2021-05-29T14:19:58.917Z</time>
      </trkpt>
      <trkpt lat="46.68573" lon="5.62873">
        <ele>550</ele>
        <time>2021-05-29T14:19:59.916Z</time>
      </trkpt>
      <trkpt lat="46.68575" lon="5.62875">
        <ele>550</ele>
        <time>2021-05-29T14:20:00.917Z</time>
      </trkpt>
      <trkpt lat="46.68577" lon="5.62878">
        <ele>550</ele>
        <time>2021-05-29T14:20:01.916Z</time>
      </trkpt>
      <trkpt lat="46.68579" lon="5.6288">
        <ele>550</ele>
        <time>2021-05-29T14:20:02.917Z</time>
      </trkpt>
      <trkpt lat="46.68581" lon="5.62882">
        <ele>550</ele>
        <time>2021-05-29T14:20:03.917Z</time>
      </trkpt>
      <trkpt lat="46.68583" lon="5.62884">
        <ele>550</ele>
        <time>2021-05-29T14:20:04.916Z</time>
      </trkpt>
      <trkpt lat="46.68585" lon="5.62887">
        <ele>551</ele>
        <time>2021-05-29T14:20:05.917Z</time>
      </trkpt>
      <trkpt lat="46.68586" lon="5.62889">
        <ele>551</ele>
        <time>2021-05-29T14:20:06.916Z</time>
      </trkpt>
      <trkpt lat="46.68588" lon="5.62891">
        <ele>551</ele>
        <time>2021-05-29T14:20:07.916Z</time>
      </trkpt>
      <trkpt lat="46.6859" lon="5.62895">
        <ele>550</ele>
        <time>2021-05-29T14:20:08.917Z</time>
      </trkpt>
      <trkpt lat="46.68592" lon="5.62898">
        <ele>550</ele>
        <time>2021-05-29T14:20:09.917Z</time>
      </trkpt>
      <trkpt lat="46.68593" lon="5.62901">
        <ele>550</ele>
        <time>2021-05-29T14:20:10.916Z</time>
      </trkpt>
      <trkpt lat="46.68594" lon="5.62903">
        <ele>550</ele>
        <time>2021-05-29T14:20:11.917Z</time>
      </trkpt>
      <trkpt lat="46.68595" lon="5.62906">
        <ele>549</ele>
        <time>2021-05-29T14:20:12.917Z</time>
      </trkpt>
      <trkpt lat="46.68597" lon="5.6291">
        <ele>549</ele>
        <time>2021-05-29T14:20:13.917Z</time>
      </trkpt>
      <trkpt lat="46.68598" lon="5.62913">
        <ele>549</ele>
        <time>2021-05-29T14:20:14.917Z</time>
      </trkpt>
      <trkpt lat="46.68599" lon="5.62916">
        <ele>548</ele>
        <time>2021-05-29T14:20:15.916Z</time>
      </trkpt>
      <trkpt lat="46.686" lon="5.62919">
        <ele>548</ele>
        <time>2021-05-29T14:20:16.917Z</time>
      </trkpt>
      <trkpt lat="46.68601" lon="5.62922">
        <ele>548</ele>
        <time>2021-05-29T14:20:17.916Z</time>
      </trkpt>
      <trkpt lat="46.68603" lon="5.62925">
        <ele>548</ele>
        <time>2021-05-29T14:20:18.917Z</time>
      </trkpt>
      <trkpt lat="46.68604" lon="5.62928">
        <ele>548</ele>
        <time>2021-05-29T14:20:19.916Z</time>
      </trkpt>
      <trkpt lat="46.68606" lon="5.62932">
        <ele>548</ele>
        <time>2021-05-29T14:20:20.917Z</time>
      </trkpt>
      <trkpt lat="46.68607" lon="5.62935">
        <ele>547</ele>
        <time>2021-05-29T14:20:21.917Z</time>
      </trkpt>
      <trkpt lat="46.68609" lon="5.62938">
        <ele>547</ele>
        <time>2021-05-29T14:20:22.916Z</time>
      </trkpt>
      <trkpt lat="46.68609" lon="5.62941">
        <ele>547</ele>
        <time>2021-05-29T14:20:23.917Z</time>
      </trkpt>
      <trkpt lat="46.6861" lon="5.62945">
        <ele>547</ele>
        <time>2021-05-29T14:20:24.916Z</time>
      </trkpt>
      <trkpt lat="46.68612" lon="5.62949">
        <ele>547</ele>
        <time>2021-05-29T14:20:25.916Z</time>
      </trkpt>
      <trkpt lat="46.68613" lon="5.62952">
        <ele>547</ele>
        <time>2021-05-29T14:20:26.917Z</time>
      </trkpt>
      <trkpt lat="46.68614" lon="5.62955">
        <ele>547</ele>
        <time>2021-05-29T14:20:27.917Z</time>
      </trkpt>
      <trkpt lat="46.68615" lon="5.62959">
        <ele>547</ele>
        <time>2021-05-29T14:20:28.917Z</time>
      </trkpt>
      <trkpt lat="46.68617" lon="5.62963">
        <ele>547</ele>
        <time>2021-05-29T14:20:29.917Z</time>
      </trkpt>
      <trkpt lat="46.68618" lon="5.62965">
        <ele>547</ele>
        <time>2021-05-29T14:20:30.916Z</time>
      </trkpt>
      <trkpt lat="46.68619" lon="5.62969">
        <ele>547</ele>
        <time>2021-05-29T14:20:31.917Z</time>
      </trkpt>
      <trkpt lat="46.68621" lon="5.62973">
        <ele>546</ele>
        <time>2021-05-29T14:20:32.917Z</time>
      </trkpt>
      <trkpt lat="46.68622" lon="5.62975">
        <ele>545</ele>
        <time>2021-05-29T14:20:33.917Z</time>
      </trkpt>
      <trkpt lat="46.68623" lon="5.62979">
        <ele>545</ele>
        <time>2021-05-29T14:20:34.916Z</time>
      </trkpt>
      <trkpt lat="46.68624" lon="5.62982">
        <ele>544</ele>
        <time>2021-05-29T14:20:35.916Z</time>
      </trkpt>
      <trkpt lat="46.68625" lon="5.62986">
        <ele>544</ele>
        <time>2021-05-29T14:20:36.916Z</time>
      </trkpt>
      <trkpt lat="46.68626" lon="5.62989">
        <ele>544</ele>
        <time>2021-05-29T14:20:37.917Z</time>
      </trkpt>
      <trkpt lat="46.68627" lon="5.62993">
        <ele>544</ele>
        <time>2021-05-29T14:20:38.917Z</time>
      </trkpt>
      <trkpt lat="46.68628" lon="5.62996">
        <ele>545</ele>
        <time>2021-05-29T14:20:39.917Z</time>
      </trkpt>
      <trkpt lat="46.68629" lon="5.63">
        <ele>545</ele>
        <time>2021-05-29T14:20:40.916Z</time>
      </trkpt>
      <trkpt lat="46.6863" lon="5.63003">
        <ele>544</ele>
        <time>2021-05-29T14:20:41.916Z</time>
      </trkpt>
      <trkpt lat="46.68631" lon="5.63007">
        <ele>544</ele>
        <time>2021-05-29T14:20:42.917Z</time>
      </trkpt>
      <trkpt lat="46.68632" lon="5.63011">
        <ele>544</ele>
        <time>2021-05-29T14:20:43.916Z</time>
      </trkpt>
      <trkpt lat="46.68633" lon="5.63015">
        <ele>545</ele>
        <time>2021-05-29T14:20:44.917Z</time>
      </trkpt>
      <trkpt lat="46.68634" lon="5.63018">
        <ele>545</ele>
        <time>2021-05-29T14:20:45.917Z</time>
      </trkpt>
      <trkpt lat="46.68635" lon="5.63022">
        <ele>544</ele>
        <time>2021-05-29T14:20:46.917Z</time>
      </trkpt>
      <trkpt lat="46.68637" lon="5.63025">
        <ele>544</ele>
        <time>2021-05-29T14:20:47.916Z</time>
      </trkpt>
      <trkpt lat="46.68638" lon="5.63029">
        <ele>544</ele>
        <time>2021-05-29T14:20:48.917Z</time>
      </trkpt>
      <trkpt lat="46.6864" lon="5.63032">
        <ele>544</ele>
        <time>2021-05-29T14:20:49.917Z</time>
      </trkpt>
      <trkpt lat="46.68642" lon="5.63035">
        <ele>544</ele>
        <time>2021-05-29T14:20:50.917Z</time>
      </trkpt>
      <trkpt lat="46.68643" lon="5.63038">
        <ele>544</ele>
        <time>2021-05-29T14:20:51.917Z</time>
      </trkpt>
      <trkpt lat="46.68645" lon="5.63041">
        <ele>544</ele>
        <time>2021-05-29T14:20:52.916Z</time>
      </trkpt>
      <trkpt lat="46.68646" lon="5.63044">
        <ele>544</ele>
        <time>2021-05-29T14:20:53.917Z</time>
      </trkpt>
      <trkpt lat="46.68648" lon="5.63047">
        <ele>544</ele>
        <time>2021-05-29T14:20:54.916Z</time>
      </trkpt>
      <trkpt lat="46.68649" lon="5.6305">
        <ele>544</ele>
        <time>2021-05-29T14:20:55.917Z</time>
      </trkpt>
      <trkpt lat="46.68651" lon="5.63052">
        <ele>544</ele>
        <time>2021-05-29T14:20:56.916Z</time>
      </trkpt>
      <trkpt lat="46.68653" lon="5.63055">
        <ele>544</ele>
        <time>2021-05-29T14:20:57.917Z</time>
      </trkpt>
      <trkpt lat="46.68655" lon="5.63057">
        <ele>544</ele>
        <time>2021-05-29T14:20:58.917Z</time>
      </trkpt>
      <trkpt lat="46.68657" lon="5.6306">
        <ele>544</ele>
        <time>2021-05-29T14:20:59.916Z</time>
      </trkpt>
      <trkpt lat="46.68658" lon="5.63062">
        <ele>544</ele>
        <time>2021-05-29T14:21:00.916Z</time>
      </trkpt>
      <trkpt lat="46.6866" lon="5.63064">
        <ele>544</ele>
        <time>2021-05-29T14:21:01.916Z</time>
      </trkpt>
      <trkpt lat="46.68662" lon="5.63067">
        <ele>544</ele>
        <time>2021-05-29T14:21:02.917Z</time>
      </trkpt>
      <trkpt lat="46.68664" lon="5.63069">
        <ele>544</ele>
        <time>2021-05-29T14:21:03.917Z</time>
      </trkpt>
      <trkpt lat="46.68666" lon="5.63071">
        <ele>543</ele>
        <time>2021-05-29T14:21:04.916Z</time>
      </trkpt>
      <trkpt lat="46.68668" lon="5.63073">
        <ele>543</ele>
        <time>2021-05-29T14:21:05.916Z</time>
      </trkpt>
      <trkpt lat="46.6867" lon="5.63075">
        <ele>542</ele>
        <time>2021-05-29T14:21:06.917Z</time>
      </trkpt>
      <trkpt lat="46.68672" lon="5.63077">
        <ele>542</ele>
        <time>2021-05-29T14:21:07.917Z</time>
      </trkpt>
      <trkpt lat="46.68674" lon="5.63079">
        <ele>542</ele>
        <time>2021-05-29T14:21:08.917Z</time>
      </trkpt>
      <trkpt lat="46.68676" lon="5.63081">
        <ele>541</ele>
        <time>2021-05-29T14:21:09.917Z</time>
      </trkpt>
      <trkpt lat="46.68679" lon="5.63083">
        <ele>541</ele>
        <time>2021-05-29T14:21:10.917Z</time>
      </trkpt>
      <trkpt lat="46.68681" lon="5.63085">
        <ele>540</ele>
        <time>2021-05-29T14:21:11.916Z</time>
      </trkpt>
      <trkpt lat="46.68683" lon="5.63087">
        <ele>540</ele>
        <time>2021-05-29T14:21:12.916Z</time>
      </trkpt>
      <trkpt lat="46.68685" lon="5.63089">
        <ele>539</ele>
        <time>2021-05-29T14:21:13.916Z</time>
      </trkpt>
      <trkpt lat="46.68687" lon="5.63091">
        <ele>539</ele>
        <time>2021-05-29T14:21:14.916Z</time>
      </trkpt>
      <trkpt lat="46.68689" lon="5.63093">
        <ele>539</ele>
        <time>2021-05-29T14:21:15.917Z</time>
      </trkpt>
      <trkpt lat="46.68691" lon="5.63095">
        <ele>539</ele>
        <time>2021-05-29T14:21:16.916Z</time>
      </trkpt>
      <trkpt lat="46.68693" lon="5.63097">
        <ele>538</ele>
        <time>2021-05-29T14:21:17.917Z</time>
      </trkpt>
      <trkpt lat="46.68695" lon="5.63099">
        <ele>538</ele>
        <time>2021-05-29T14:21:18.916Z</time>
      </trkpt>
      <trkpt lat="46.68698" lon="5.63101">
        <ele>538</ele>
        <time>2021-05-29T14:21:19.917Z</time>
      </trkpt>
      <trkpt lat="46.687" lon="5.63103">
        <ele>538</ele>
        <time>2021-05-29T14:21:20.917Z</time>
      </trkpt>
      <trkpt lat="46.68702" lon="5.63104">
        <ele>537</ele>
        <time>2021-05-29T14:21:21.917Z</time>
      </trkpt>
      <trkpt lat="46.68704" lon="5.63106">
        <ele>537</ele>
        <time>2021-05-29T14:21:22.917Z</time>
      </trkpt>
      <trkpt lat="46.68706" lon="5.63108">
        <ele>537</ele>
        <time>2021-05-29T14:21:23.917Z</time>
      </trkpt>
      <trkpt lat="46.68709" lon="5.63109">
        <ele>537</ele>
        <time>2021-05-29T14:21:24.917Z</time>
      </trkpt>
      <trkpt lat="46.68711" lon="5.63111">
        <ele>537</ele>
        <time>2021-05-29T14:21:25.917Z</time>
      </trkpt>
      <trkpt lat="46.68713" lon="5.63112">
        <ele>536</ele>
        <time>2021-05-29T14:21:26.916Z</time>
      </trkpt>
      <trkpt lat="46.68716" lon="5.63114">
        <ele>536</ele>
        <time>2021-05-29T14:21:27.917Z</time>
      </trkpt>
      <trkpt lat="46.68718" lon="5.63115">
        <ele>536</ele>
        <time>2021-05-29T14:21:28.917Z</time>
      </trkpt>
      <trkpt lat="46.68721" lon="5.63116">
        <ele>536</ele>
        <time>2021-05-29T14:21:29.917Z</time>
      </trkpt>
      <trkpt lat="46.68723" lon="5.63117">
        <ele>536</ele>
        <time>2021-05-29T14:21:30.916Z</time>
      </trkpt>
      <trkpt lat="46.68725" lon="5.63118">
        <ele>536</ele>
        <time>2021-05-29T14:21:31.917Z</time>
      </trkpt>
      <trkpt lat="46.68727" lon="5.63119">
        <ele>536</ele>
        <time>2021-05-29T14:21:32.917Z</time>
      </trkpt>
      <trkpt lat="46.68729" lon="5.63119">
        <ele>535</ele>
        <time>2021-05-29T14:21:33.917Z</time>
      </trkpt>
      <trkpt lat="46.68731" lon="5.6312">
        <ele>535</ele>
        <time>2021-05-29T14:21:34.917Z</time>
      </trkpt>
      <trkpt lat="46.68733" lon="5.6312">
        <ele>536</ele>
        <time>2021-05-29T14:21:35.917Z</time>
      </trkpt>
      <trkpt lat="46.68736" lon="5.6312">
        <ele>536</ele>
        <time>2021-05-29T14:21:36.916Z</time>
      </trkpt>
      <trkpt lat="46.68739" lon="5.6312">
        <ele>536</ele>
        <time>2021-05-29T14:21:37.917Z</time>
      </trkpt>
      <trkpt lat="46.68741" lon="5.6312">
        <ele>536</ele>
        <time>2021-05-29T14:21:38.916Z</time>
      </trkpt>
      <trkpt lat="46.68744" lon="5.6312">
        <ele>536</ele>
        <time>2021-05-29T14:21:39.917Z</time>
      </trkpt>
      <trkpt lat="46.68747" lon="5.63121">
        <ele>536</ele>
        <time>2021-05-29T14:21:40.917Z</time>
      </trkpt>
      <trkpt lat="46.68749" lon="5.63121">
        <ele>536</ele>
        <time>2021-05-29T14:21:41.916Z</time>
      </trkpt>
      <trkpt lat="46.68752" lon="5.63121">
        <ele>536</ele>
        <time>2021-05-29T14:21:42.916Z</time>
      </trkpt>
      <trkpt lat="46.68754" lon="5.63122">
        <ele>535</ele>
        <time>2021-05-29T14:21:43.916Z</time>
      </trkpt>
      <trkpt lat="46.68757" lon="5.63122">
        <ele>535</ele>
        <time>2021-05-29T14:21:44.917Z</time>
      </trkpt>
      <trkpt lat="46.6876" lon="5.63123">
        <ele>535</ele>
        <time>2021-05-29T14:21:45.916Z</time>
      </trkpt>
      <trkpt lat="46.68763" lon="5.63123">
        <ele>535</ele>
        <time>2021-05-29T14:21:46.917Z</time>
      </trkpt>
      <trkpt lat="46.68765" lon="5.63124">
        <ele>534</ele>
        <time>2021-05-29T14:21:47.916Z</time>
      </trkpt>
      <trkpt lat="46.68768" lon="5.63123">
        <ele>534</ele>
        <time>2021-05-29T14:21:48.917Z</time>
      </trkpt>
      <trkpt lat="46.68771" lon="5.63124">
        <ele>534</ele>
        <time>2021-05-29T14:21:49.917Z</time>
      </trkpt>
      <trkpt lat="46.68773" lon="5.63124">
        <ele>534</ele>
        <time>2021-05-29T14:21:50.917Z</time>
      </trkpt>
      <trkpt lat="46.68775" lon="5.63125">
        <ele>534</ele>
        <time>2021-05-29T14:21:51.916Z</time>
      </trkpt>
      <trkpt lat="46.68778" lon="5.63125">
        <ele>534</ele>
        <time>2021-05-29T14:21:52.917Z</time>
      </trkpt>
      <trkpt lat="46.6878" lon="5.63125">
        <ele>533</ele>
        <time>2021-05-29T14:21:53.917Z</time>
      </trkpt>
      <trkpt lat="46.68783" lon="5.63126">
        <ele>533</ele>
        <time>2021-05-29T14:21:54.917Z</time>
      </trkpt>
      <trkpt lat="46.68785" lon="5.63127">
        <ele>532</ele>
        <time>2021-05-29T14:21:55.916Z</time>
      </trkpt>
      <trkpt lat="46.68788" lon="5.63127">
        <ele>532</ele>
        <time>2021-05-29T14:21:56.917Z</time>
      </trkpt>
      <trkpt lat="46.68791" lon="5.63128">
        <ele>532</ele>
        <time>2021-05-29T14:21:57.917Z</time>
      </trkpt>
      <trkpt lat="46.68794" lon="5.63129">
        <ele>532</ele>
        <time>2021-05-29T14:21:58.917Z</time>
      </trkpt>
      <trkpt lat="46.68796" lon="5.63129">
        <ele>532</ele>
        <time>2021-05-29T14:21:59.917Z</time>
      </trkpt>
      <trkpt lat="46.688" lon="5.6313">
        <ele>532</ele>
        <time>2021-05-29T14:22:00.917Z</time>
      </trkpt>
      <trkpt lat="46.68802" lon="5.63131">
        <ele>532</ele>
        <time>2021-05-29T14:22:01.917Z</time>
      </trkpt>
      <trkpt lat="46.68804" lon="5.63132">
        <ele>532</ele>
        <time>2021-05-29T14:22:02.916Z</time>
      </trkpt>
      <trkpt lat="46.68806" lon="5.63132">
        <ele>532</ele>
        <time>2021-05-29T14:22:03.916Z</time>
      </trkpt>
      <trkpt lat="46.68808" lon="5.63133">
        <ele>532</ele>
        <time>2021-05-29T14:22:04.917Z</time>
      </trkpt>
      <trkpt lat="46.68809" lon="5.63134">
        <ele>532</ele>
        <time>2021-05-29T14:22:05.917Z</time>
      </trkpt>
      <trkpt lat="46.68811" lon="5.63134">
        <ele>532</ele>
        <time>2021-05-29T14:22:06.917Z</time>
      </trkpt>
      <trkpt lat="46.68813" lon="5.63135">
        <ele>532</ele>
        <time>2021-05-29T14:22:07.917Z</time>
      </trkpt>
      <trkpt lat="46.68815" lon="5.63136">
        <ele>532</ele>
        <time>2021-05-29T14:22:08.917Z</time>
      </trkpt>
      <trkpt lat="46.68817" lon="5.63137">
        <ele>532</ele>
        <time>2021-05-29T14:22:09.917Z</time>
      </trkpt>
      <trkpt lat="46.6882" lon="5.63138">
        <ele>533</ele>
        <time>2021-05-29T14:22:10.917Z</time>
      </trkpt>
      <trkpt lat="46.68822" lon="5.63139">
        <ele>533</ele>
        <time>2021-05-29T14:22:11.917Z</time>
      </trkpt>
      <trkpt lat="46.68824" lon="5.63139">
        <ele>533</ele>
        <time>2021-05-29T14:22:12.917Z</time>
      </trkpt>
      <trkpt lat="46.68827" lon="5.6314">
        <ele>533</ele>
        <time>2021-05-29T14:22:13.916Z</time>
      </trkpt>
      <trkpt lat="46.68829" lon="5.63141">
        <ele>533</ele>
        <time>2021-05-29T14:22:14.917Z</time>
      </trkpt>
      <trkpt lat="46.68832" lon="5.63143">
        <ele>533</ele>
        <time>2021-05-29T14:22:15.917Z</time>
      </trkpt>
      <trkpt lat="46.68834" lon="5.63144">
        <ele>533</ele>
        <time>2021-05-29T14:22:16.917Z</time>
      </trkpt>
      <trkpt lat="46.68837" lon="5.63146">
        <ele>532</ele>
        <time>2021-05-29T14:22:17.916Z</time>
      </trkpt>
      <trkpt lat="46.68839" lon="5.63147">
        <ele>532</ele>
        <time>2021-05-29T14:22:18.917Z</time>
      </trkpt>
      <trkpt lat="46.68841" lon="5.63148">
        <ele>532</ele>
        <time>2021-05-29T14:22:19.916Z</time>
      </trkpt>
      <trkpt lat="46.68843" lon="5.63149">
        <ele>532</ele>
        <time>2021-05-29T14:22:20.916Z</time>
      </trkpt>
      <trkpt lat="46.68846" lon="5.63151">
        <ele>531</ele>
        <time>2021-05-29T14:22:21.917Z</time>
      </trkpt>
      <trkpt lat="46.68848" lon="5.63152">
        <ele>531</ele>
        <time>2021-05-29T14:22:22.917Z</time>
      </trkpt>
      <trkpt lat="46.6885" lon="5.63154">
        <ele>531</ele>
        <time>2021-05-29T14:22:23.917Z</time>
      </trkpt>
      <trkpt lat="46.68852" lon="5.63155">
        <ele>531</ele>
        <time>2021-05-29T14:22:24.917Z</time>
      </trkpt>
      <trkpt lat="46.68853" lon="5.63156">
        <ele>531</ele>
        <time>2021-05-29T14:22:25.916Z</time>
      </trkpt>
      <trkpt lat="46.68853" lon="5.63157">
        <ele>531</ele>
        <time>2021-05-29T14:22:26.917Z</time>
      </trkpt>
      <trkpt lat="46.68854" lon="5.63158">
        <ele>531</ele>
        <time>2021-05-29T14:22:27.917Z</time>
      </trkpt>
      <trkpt lat="46.68854" lon="5.63158">
        <ele>531</ele>
        <time>2021-05-29T14:22:28.916Z</time>
      </trkpt>
      <trkpt lat="46.68855" lon="5.63158">
        <ele>531</ele>
        <time>2021-05-29T14:22:29.917Z</time>
      </trkpt>
      <trkpt lat="46.68855" lon="5.63158">
        <ele>532</ele>
        <time>2021-05-29T14:22:30.917Z</time>
      </trkpt>
      <trkpt lat="46.68856" lon="5.63158">
        <ele>532</ele>
        <time>2021-05-29T14:22:31.917Z</time>
      </trkpt>
      <trkpt lat="46.68856" lon="5.63158">
        <ele>532</ele>
        <time>2021-05-29T14:22:32.917Z</time>
      </trkpt>
      <trkpt lat="46.68856" lon="5.63159">
        <ele>532</ele>
        <time>2021-05-29T14:22:33.917Z</time>
      </trkpt>
      <trkpt lat="46.68857" lon="5.63159">
        <ele>532</ele>
        <time>2021-05-29T14:22:34.917Z</time>
      </trkpt>
      <trkpt lat="46.68857" lon="5.63159">
        <ele>533</ele>
        <time>2021-05-29T14:22:35.917Z</time>
      </trkpt>
      <trkpt lat="46.68857" lon="5.63159">
        <ele>533</ele>
        <time>2021-05-29T14:22:36.916Z</time>
      </trkpt>
      <trkpt lat="46.68857" lon="5.6316">
        <ele>533</ele>
        <time>2021-05-29T14:22:37.916Z</time>
      </trkpt>
      <trkpt lat="46.68857" lon="5.63161">
        <ele>533</ele>
        <time>2021-05-29T14:22:38.917Z</time>
      </trkpt>
      <trkpt lat="46.68856" lon="5.6316">
        <ele>533</ele>
        <time>2021-05-29T14:22:39.917Z</time>
      </trkpt>
      <trkpt lat="46.68856" lon="5.6316">
        <ele>533</ele>
        <time>2021-05-29T14:22:40.917Z</time>
      </trkpt>
      <trkpt lat="46.68855" lon="5.63159">
        <ele>533</ele>
        <time>2021-05-29T14:22:41.917Z</time>
      </trkpt>
      <trkpt lat="46.68855" lon="5.6316">
        <ele>534</ele>
        <time>2021-05-29T14:22:42.917Z</time>
      </trkpt>
      <trkpt lat="46.68855" lon="5.63161">
        <ele>534</ele>
        <time>2021-05-29T14:22:43.916Z</time>
      </trkpt>
      <trkpt lat="46.68856" lon="5.63161">
        <ele>534</ele>
        <time>2021-05-29T14:22:44.917Z</time>
      </trkpt>
      <trkpt lat="46.68857" lon="5.63161">
        <ele>534</ele>
        <time>2021-05-29T14:22:45.917Z</time>
      </trkpt>
      <trkpt lat="46.68857" lon="5.63161">
        <ele>534</ele>
        <time>2021-05-29T14:22:46.917Z</time>
      </trkpt>
      <trkpt lat="46.68857" lon="5.63161">
        <ele>534</ele>
        <time>2021-05-29T14:22:47.917Z</time>
      </trkpt>
      <trkpt lat="46.68857" lon="5.63162">
        <ele>534</ele>
        <time>2021-05-29T14:22:48.916Z</time>
      </trkpt>
      <trkpt lat="46.68857" lon="5.63162">
        <ele>534</ele>
        <time>2021-05-29T14:22:49.917Z</time>
      </trkpt>
      <trkpt lat="46.68857" lon="5.63162">
        <ele>534</ele>
        <time>2021-05-29T14:22:50.917Z</time>
      </trkpt>
      <trkpt lat="46.68857" lon="5.63163">
        <ele>534</ele>
        <time>2021-05-29T14:22:51.917Z</time>
      </trkpt>
      <trkpt lat="46.68857" lon="5.63163">
        <ele>534</ele>
        <time>2021-05-29T14:22:52.916Z</time>
      </trkpt>
      <trkpt lat="46.68857" lon="5.63164">
        <ele>534</ele>
        <time>2021-05-29T14:22:53.916Z</time>
      </trkpt>
      <trkpt lat="46.68857" lon="5.63164">
        <ele>534</ele>
        <time>2021-05-29T14:22:54.917Z</time>
      </trkpt>
      <trkpt lat="46.68857" lon="5.63164">
        <ele>534</ele>
        <time>2021-05-29T14:22:55.917Z</time>
      </trkpt>
      <trkpt lat="46.68857" lon="5.63164">
        <ele>534</ele>
        <time>2021-05-29T14:22:56.917Z</time>
      </trkpt>
      <trkpt lat="46.68857" lon="5.63164">
        <ele>534</ele>
        <time>2021-05-29T14:22:57.917Z</time>
      </trkpt>
      <trkpt lat="46.68857" lon="5.63164">
        <ele>534</ele>
        <time>2021-05-29T14:22:58.917Z</time>
      </trkpt>
      <trkpt lat="46.68857" lon="5.63164">
        <ele>534</ele>
        <time>2021-05-29T14:22:59.917Z</time>
      </trkpt>
      <trkpt lat="46.68857" lon="5.63164">
        <ele>535</ele>
        <time>2021-05-29T14:23:00.917Z</time>
      </trkpt>
      <trkpt lat="46.68857" lon="5.63165">
        <ele>535</ele>
        <time>2021-05-29T14:23:01.917Z</time>
      </trkpt>
      <trkpt lat="46.68857" lon="5.63165">
        <ele>535</ele>
        <time>2021-05-29T14:23:02.916Z</time>
      </trkpt>
      <trkpt lat="46.68857" lon="5.63166">
        <ele>536</ele>
        <time>2021-05-29T14:23:03.917Z</time>
      </trkpt>
      <trkpt lat="46.68858" lon="5.63166">
        <ele>536</ele>
        <time>2021-05-29T14:23:04.917Z</time>
      </trkpt>
      <trkpt lat="46.68858" lon="5.63166">
        <ele>536</ele>
        <time>2021-05-29T14:23:05.917Z</time>
      </trkpt>
      <trkpt lat="46.68858" lon="5.63166">
        <ele>536</ele>
        <time>2021-05-29T14:23:06.917Z</time>
      </trkpt>
      <trkpt lat="46.68858" lon="5.63166">
        <ele>536</ele>
        <time>2021-05-29T14:23:07.917Z</time>
      </trkpt>
      <trkpt lat="46.68858" lon="5.63166">
        <ele>536</ele>
        <time>2021-05-29T14:23:08.917Z</time>
      </trkpt>
      <trkpt lat="46.68858" lon="5.63166">
        <ele>536</ele>
        <time>2021-05-29T14:23:09.917Z</time>
      </trkpt>
      <trkpt lat="46.68858" lon="5.63166">
        <ele>536</ele>
        <time>2021-05-29T14:23:10.916Z</time>
      </trkpt>
      <trkpt lat="46.68858" lon="5.63166">
        <ele>536</ele>
        <time>2021-05-29T14:23:11.917Z</time>
      </trkpt>
      <trkpt lat="46.68858" lon="5.63166">
        <ele>536</ele>
        <time>2021-05-29T14:23:12.917Z</time>
      </trkpt>
      <trkpt lat="46.68858" lon="5.63166">
        <ele>536</ele>
        <time>2021-05-29T14:23:13.916Z</time>
      </trkpt>
      <trkpt lat="46.68858" lon="5.63166">
        <ele>536</ele>
        <time>2021-05-29T14:23:14.916Z</time>
      </trkpt>
      <trkpt lat="46.68858" lon="5.63166">
        <ele>535</ele>
        <time>2021-05-29T14:23:15.917Z</time>
      </trkpt>
      <trkpt lat="46.68858" lon="5.63166">
        <ele>535</ele>
        <time>2021-05-29T14:23:16.917Z</time>
      </trkpt>
      <trkpt lat="46.68858" lon="5.63166">
        <ele>535</ele>
        <time>2021-05-29T14:23:17.917Z</time>
      </trkpt>
      <trkpt lat="46.68858" lon="5.63166">
        <ele>535</ele>
        <time>2021-05-29T14:23:18.917Z</time>
      </trkpt>
      <trkpt lat="46.68858" lon="5.63166">
        <ele>535</ele>
        <time>2021-05-29T14:23:19.917Z</time>
      </trkpt>
      <trkpt lat="46.68858" lon="5.63166">
        <ele>535</ele>
        <time>2021-05-29T14:23:20.917Z</time>
      </trkpt>
      <trkpt lat="46.68858" lon="5.63165">
        <ele>535</ele>
        <time>2021-05-29T14:23:21.917Z</time>
      </trkpt>
      <trkpt lat="46.68858" lon="5.63165">
        <ele>535</ele>
        <time>2021-05-29T14:23:22.917Z</time>
      </trkpt>
      <trkpt lat="46.68858" lon="5.63165">
        <ele>535</ele>
        <time>2021-05-29T14:23:23.917Z</time>
      </trkpt>
      <trkpt lat="46.68859" lon="5.63165">
        <ele>535</ele>
        <time>2021-05-29T14:23:24.917Z</time>
      </trkpt>
      <trkpt lat="46.68859" lon="5.63165">
        <ele>535</ele>
        <time>2021-05-29T14:23:25.917Z</time>
      </trkpt>
      <trkpt lat="46.6886" lon="5.63164">
        <ele>535</ele>
        <time>2021-05-29T14:23:26.917Z</time>
      </trkpt>
      <trkpt lat="46.6886" lon="5.63164">
        <ele>535</ele>
        <time>2021-05-29T14:23:27.917Z</time>
      </trkpt>
      <trkpt lat="46.68861" lon="5.63164">
        <ele>535</ele>
        <time>2021-05-29T14:23:28.916Z</time>
      </trkpt>
      <trkpt lat="46.68861" lon="5.63165">
        <ele>535</ele>
        <time>2021-05-29T14:23:29.916Z</time>
      </trkpt>
      <trkpt lat="46.6886" lon="5.63168">
        <ele>535</ele>
        <time>2021-05-29T14:23:30.917Z</time>
      </trkpt>
      <trkpt lat="46.6886" lon="5.6317">
        <ele>535</ele>
        <time>2021-05-29T14:23:31.917Z</time>
      </trkpt>
      <trkpt lat="46.68859" lon="5.63171">
        <ele>536</ele>
        <time>2021-05-29T14:23:32.917Z</time>
      </trkpt>
      <trkpt lat="46.68859" lon="5.63171">
        <ele>536</ele>
        <time>2021-05-29T14:23:33.917Z</time>
      </trkpt>
      <trkpt lat="46.68859" lon="5.63173">
        <ele>536</ele>
        <time>2021-05-29T14:23:34.917Z</time>
      </trkpt>
      <trkpt lat="46.68859" lon="5.63174">
        <ele>536</ele>
        <time>2021-05-29T14:23:35.916Z</time>
      </trkpt>
      <trkpt lat="46.68858" lon="5.63176">
        <ele>536</ele>
        <time>2021-05-29T14:23:36.917Z</time>
      </trkpt>
      <trkpt lat="46.68858" lon="5.63179">
        <ele>536</ele>
        <time>2021-05-29T14:23:37.917Z</time>
      </trkpt>
      <trkpt lat="46.68859" lon="5.63182">
        <ele>536</ele>
        <time>2021-05-29T14:23:38.916Z</time>
      </trkpt>
      <trkpt lat="46.68859" lon="5.63184">
        <ele>536</ele>
        <time>2021-05-29T14:23:39.917Z</time>
      </trkpt>
      <trkpt lat="46.68858" lon="5.63187">
        <ele>536</ele>
        <time>2021-05-29T14:23:40.917Z</time>
      </trkpt>
      <trkpt lat="46.68857" lon="5.63189">
        <ele>536</ele>
        <time>2021-05-29T14:23:41.916Z</time>
      </trkpt>
      <trkpt lat="46.68856" lon="5.63191">
        <ele>537</ele>
        <time>2021-05-29T14:23:42.916Z</time>
      </trkpt>
      <trkpt lat="46.68855" lon="5.63193">
        <ele>537</ele>
        <time>2021-05-29T14:23:43.917Z</time>
      </trkpt>
      <trkpt lat="46.68853" lon="5.63194">
        <ele>537</ele>
        <time>2021-05-29T14:23:44.917Z</time>
      </trkpt>
      <trkpt lat="46.68852" lon="5.63195">
        <ele>537</ele>
        <time>2021-05-29T14:23:45.917Z</time>
      </trkpt>
      <trkpt lat="46.6885" lon="5.63196">
        <ele>537</ele>
        <time>2021-05-29T14:23:46.917Z</time>
      </trkpt>
      <trkpt lat="46.68849" lon="5.63197">
        <ele>537</ele>
        <time>2021-05-29T14:23:47.917Z</time>
      </trkpt>
      <trkpt lat="46.68848" lon="5.63198">
        <ele>538</ele>
        <time>2021-05-29T14:23:48.917Z</time>
      </trkpt>
      <trkpt lat="46.68846" lon="5.63199">
        <ele>538</ele>
        <time>2021-05-29T14:23:49.917Z</time>
      </trkpt>
      <trkpt lat="46.68846" lon="5.63201">
        <ele>539</ele>
        <time>2021-05-29T14:23:50.917Z</time>
      </trkpt>
      <trkpt lat="46.68845" lon="5.63203">
        <ele>538</ele>
        <time>2021-05-29T14:23:51.917Z</time>
      </trkpt>
      <trkpt lat="46.68844" lon="5.63204">
        <ele>538</ele>
        <time>2021-05-29T14:23:52.916Z</time>
      </trkpt>
      <trkpt lat="46.68842" lon="5.63205">
        <ele>539</ele>
        <time>2021-05-29T14:23:53.917Z</time>
      </trkpt>
      <trkpt lat="46.6884" lon="5.63206">
        <ele>539</ele>
        <time>2021-05-29T14:23:54.917Z</time>
      </trkpt>
      <trkpt lat="46.68839" lon="5.63207">
        <ele>539</ele>
        <time>2021-05-29T14:23:55.916Z</time>
      </trkpt>
      <trkpt lat="46.68837" lon="5.63208">
        <ele>538</ele>
        <time>2021-05-29T14:23:56.917Z</time>
      </trkpt>
      <trkpt lat="46.68835" lon="5.6321">
        <ele>538</ele>
        <time>2021-05-29T14:23:57.917Z</time>
      </trkpt>
      <trkpt lat="46.68833" lon="5.63212">
        <ele>538</ele>
        <time>2021-05-29T14:23:58.916Z</time>
      </trkpt>
      <trkpt lat="46.68831" lon="5.63213">
        <ele>538</ele>
        <time>2021-05-29T14:23:59.917Z</time>
      </trkpt>
      <trkpt lat="46.68828" lon="5.63215">
        <ele>537</ele>
        <time>2021-05-29T14:24:00.917Z</time>
      </trkpt>
      <trkpt lat="46.68826" lon="5.63218">
        <ele>537</ele>
        <time>2021-05-29T14:24:01.916Z</time>
      </trkpt>
      <trkpt lat="46.68824" lon="5.63219">
        <ele>537</ele>
        <time>2021-05-29T14:24:02.917Z</time>
      </trkpt>
      <trkpt lat="46.68822" lon="5.63221">
        <ele>536</ele>
        <time>2021-05-29T14:24:03.917Z</time>
      </trkpt>
      <trkpt lat="46.68821" lon="5.63225">
        <ele>536</ele>
        <time>2021-05-29T14:24:04.916Z</time>
      </trkpt>
      <trkpt lat="46.68819" lon="5.63226">
        <ele>536</ele>
        <time>2021-05-29T14:24:05.916Z</time>
      </trkpt>
      <trkpt lat="46.68816" lon="5.63228">
        <ele>535</ele>
        <time>2021-05-29T14:24:06.916Z</time>
      </trkpt>
      <trkpt lat="46.68814" lon="5.6323">
        <ele>534</ele>
        <time>2021-05-29T14:24:07.917Z</time>
      </trkpt>
      <trkpt lat="46.68812" lon="5.63232">
        <ele>534</ele>
        <time>2021-05-29T14:24:08.917Z</time>
      </trkpt>
      <trkpt lat="46.6881" lon="5.63234">
        <ele>533</ele>
        <time>2021-05-29T14:24:09.917Z</time>
      </trkpt>
      <trkpt lat="46.68807" lon="5.63237">
        <ele>533</ele>
        <time>2021-05-29T14:24:10.916Z</time>
      </trkpt>
      <trkpt lat="46.68804" lon="5.63238">
        <ele>532</ele>
        <time>2021-05-29T14:24:11.917Z</time>
      </trkpt>
      <trkpt lat="46.68802" lon="5.63239">
        <ele>532</ele>
        <time>2021-05-29T14:24:12.917Z</time>
      </trkpt>
      <trkpt lat="46.68799" lon="5.6324">
        <ele>532</ele>
        <time>2021-05-29T14:24:13.916Z</time>
      </trkpt>
      <trkpt lat="46.68797" lon="5.63241">
        <ele>532</ele>
        <time>2021-05-29T14:24:14.917Z</time>
      </trkpt>
      <trkpt lat="46.68795" lon="5.63241">
        <ele>532</ele>
        <time>2021-05-29T14:24:15.916Z</time>
      </trkpt>
      <trkpt lat="46.68792" lon="5.63241">
        <ele>532</ele>
        <time>2021-05-29T14:24:16.916Z</time>
      </trkpt>
      <trkpt lat="46.6879" lon="5.63241">
        <ele>532</ele>
        <time>2021-05-29T14:24:17.917Z</time>
      </trkpt>
      <trkpt lat="46.68788" lon="5.63241">
        <ele>532</ele>
        <time>2021-05-29T14:24:18.917Z</time>
      </trkpt>
      <trkpt lat="46.68787" lon="5.63241">
        <ele>533</ele>
        <time>2021-05-29T14:24:19.916Z</time>
      </trkpt>
      <trkpt lat="46.68786" lon="5.63241">
        <ele>533</ele>
        <time>2021-05-29T14:24:20.917Z</time>
      </trkpt>
      <trkpt lat="46.68785" lon="5.6324">
        <ele>533</ele>
        <time>2021-05-29T14:24:21.917Z</time>
      </trkpt>
      <trkpt lat="46.68784" lon="5.63239">
        <ele>534</ele>
        <time>2021-05-29T14:24:22.916Z</time>
      </trkpt>
      <trkpt lat="46.68783" lon="5.63238">
        <ele>534</ele>
        <time>2021-05-29T14:24:23.917Z</time>
      </trkpt>
      <trkpt lat="46.68782" lon="5.63237">
        <ele>535</ele>
        <time>2021-05-29T14:24:24.917Z</time>
      </trkpt>
      <trkpt lat="46.68781" lon="5.63237">
        <ele>535</ele>
        <time>2021-05-29T14:24:25.916Z</time>
      </trkpt>
      <trkpt lat="46.6878" lon="5.63236">
        <ele>535</ele>
        <time>2021-05-29T14:24:26.917Z</time>
      </trkpt>
      <trkpt lat="46.68778" lon="5.63236">
        <ele>535</ele>
        <time>2021-05-29T14:24:27.917Z</time>
      </trkpt>
      <trkpt lat="46.68776" lon="5.63236">
        <ele>534</ele>
        <time>2021-05-29T14:24:28.917Z</time>
      </trkpt>
      <trkpt lat="46.68775" lon="5.63236">
        <ele>534</ele>
        <time>2021-05-29T14:24:29.916Z</time>
      </trkpt>
      <trkpt lat="46.68774" lon="5.63238">
        <ele>533</ele>
        <time>2021-05-29T14:24:30.916Z</time>
      </trkpt>
      <trkpt lat="46.68773" lon="5.63239">
        <ele>533</ele>
        <time>2021-05-29T14:24:31.916Z</time>
      </trkpt>
      <trkpt lat="46.68771" lon="5.6324">
        <ele>533</ele>
        <time>2021-05-29T14:24:32.917Z</time>
      </trkpt>
      <trkpt lat="46.68771" lon="5.63242">
        <ele>532</ele>
        <time>2021-05-29T14:24:33.916Z</time>
      </trkpt>
      <trkpt lat="46.68771" lon="5.63243">
        <ele>532</ele>
        <time>2021-05-29T14:24:34.917Z</time>
      </trkpt>
      <trkpt lat="46.68772" lon="5.63246">
        <ele>531</ele>
        <time>2021-05-29T14:24:35.917Z</time>
      </trkpt>
      <trkpt lat="46.68772" lon="5.63248">
        <ele>531</ele>
        <time>2021-05-29T14:24:36.917Z</time>
      </trkpt>
      <trkpt lat="46.68771" lon="5.6325">
        <ele>531</ele>
        <time>2021-05-29T14:24:37.917Z</time>
      </trkpt>
      <trkpt lat="46.68769" lon="5.63252">
        <ele>531</ele>
        <time>2021-05-29T14:24:38.916Z</time>
      </trkpt>
      <trkpt lat="46.68768" lon="5.63254">
        <ele>530</ele>
        <time>2021-05-29T14:24:39.916Z</time>
      </trkpt>
      <trkpt lat="46.68766" lon="5.63255">
        <ele>529</ele>
        <time>2021-05-29T14:24:40.917Z</time>
      </trkpt>
      <trkpt lat="46.68765" lon="5.63256">
        <ele>529</ele>
        <time>2021-05-29T14:24:41.917Z</time>
      </trkpt>
      <trkpt lat="46.68764" lon="5.63257">
        <ele>528</ele>
        <time>2021-05-29T14:24:42.917Z</time>
      </trkpt>
      <trkpt lat="46.68763" lon="5.63258">
        <ele>528</ele>
        <time>2021-05-29T14:24:43.917Z</time>
      </trkpt>
      <trkpt lat="46.68762" lon="5.6326">
        <ele>527</ele>
        <time>2021-05-29T14:24:44.916Z</time>
      </trkpt>
      <trkpt lat="46.68762" lon="5.63261">
        <ele>527</ele>
        <time>2021-05-29T14:24:45.917Z</time>
      </trkpt>
      <trkpt lat="46.68762" lon="5.63263">
        <ele>527</ele>
        <time>2021-05-29T14:24:46.917Z</time>
      </trkpt>
      <trkpt lat="46.68762" lon="5.63264">
        <ele>527</ele>
        <time>2021-05-29T14:24:47.916Z</time>
      </trkpt>
      <trkpt lat="46.68761" lon="5.63266">
        <ele>528</ele>
        <time>2021-05-29T14:24:48.917Z</time>
      </trkpt>
      <trkpt lat="46.6876" lon="5.63268">
        <ele>528</ele>
        <time>2021-05-29T14:24:49.917Z</time>
      </trkpt>
      <trkpt lat="46.68759" lon="5.63271">
        <ele>528</ele>
        <time>2021-05-29T14:24:50.916Z</time>
      </trkpt>
      <trkpt lat="46.68758" lon="5.63273">
        <ele>528</ele>
        <time>2021-05-29T14:24:51.917Z</time>
      </trkpt>
      <trkpt lat="46.68757" lon="5.63276">
        <ele>528</ele>
        <time>2021-05-29T14:24:52.917Z</time>
      </trkpt>
      <trkpt lat="46.68757" lon="5.63279">
        <ele>528</ele>
        <time>2021-05-29T14:24:53.916Z</time>
      </trkpt>
      <trkpt lat="46.68756" lon="5.63282">
        <ele>528</ele>
        <time>2021-05-29T14:24:54.917Z</time>
      </trkpt>
      <trkpt lat="46.68756" lon="5.63285">
        <ele>529</ele>
        <time>2021-05-29T14:24:55.917Z</time>
      </trkpt>
      <trkpt lat="46.68755" lon="5.63288">
        <ele>529</ele>
        <time>2021-05-29T14:24:56.917Z</time>
      </trkpt>
      <trkpt lat="46.68755" lon="5.63289">
        <ele>529</ele>
        <time>2021-05-29T14:24:57.917Z</time>
      </trkpt>
      <trkpt lat="46.68754" lon="5.63291">
        <ele>529</ele>
        <time>2021-05-29T14:24:58.917Z</time>
      </trkpt>
      <trkpt lat="46.68754" lon="5.63294">
        <ele>529</ele>
        <time>2021-05-29T14:24:59.916Z</time>
      </trkpt>
      <trkpt lat="46.68753" lon="5.63297">
        <ele>529</ele>
        <time>2021-05-29T14:25:00.917Z</time>
      </trkpt>
      <trkpt lat="46.68752" lon="5.63301">
        <ele>529</ele>
        <time>2021-05-29T14:25:01.917Z</time>
      </trkpt>
      <trkpt lat="46.6875" lon="5.63305">
        <ele>529</ele>
        <time>2021-05-29T14:25:02.917Z</time>
      </trkpt>
      <trkpt lat="46.68749" lon="5.63308">
        <ele>529</ele>
        <time>2021-05-29T14:25:03.917Z</time>
      </trkpt>
      <trkpt lat="46.68748" lon="5.63312">
        <ele>528</ele>
        <time>2021-05-29T14:25:04.917Z</time>
      </trkpt>
      <trkpt lat="46.68748" lon="5.63315">
        <ele>528</ele>
        <time>2021-05-29T14:25:05.916Z</time>
      </trkpt>
      <trkpt lat="46.68749" lon="5.63319">
        <ele>528</ele>
        <time>2021-05-29T14:25:06.916Z</time>
      </trkpt>
      <trkpt lat="46.68749" lon="5.63322">
        <ele>528</ele>
        <time>2021-05-29T14:25:07.917Z</time>
      </trkpt>
      <trkpt lat="46.68749" lon="5.63326">
        <ele>528</ele>
        <time>2021-05-29T14:25:08.916Z</time>
      </trkpt>
      <trkpt lat="46.68749" lon="5.63328">
        <ele>528</ele>
        <time>2021-05-29T14:25:09.917Z</time>
      </trkpt>
      <trkpt lat="46.68749" lon="5.63331">
        <ele>528</ele>
        <time>2021-05-29T14:25:10.917Z</time>
      </trkpt>
      <trkpt lat="46.68749" lon="5.63333">
        <ele>528</ele>
        <time>2021-05-29T14:25:11.916Z</time>
      </trkpt>
      <trkpt lat="46.68749" lon="5.63336">
        <ele>528</ele>
        <time>2021-05-29T14:25:12.916Z</time>
      </trkpt>
      <trkpt lat="46.68749" lon="5.63338">
        <ele>528</ele>
        <time>2021-05-29T14:25:13.917Z</time>
      </trkpt>
      <trkpt lat="46.68749" lon="5.63341">
        <ele>529</ele>
        <time>2021-05-29T14:25:14.916Z</time>
      </trkpt>
      <trkpt lat="46.68749" lon="5.63343">
        <ele>528</ele>
        <time>2021-05-29T14:25:15.917Z</time>
      </trkpt>
      <trkpt lat="46.6875" lon="5.63345">
        <ele>528</ele>
        <time>2021-05-29T14:25:16.917Z</time>
      </trkpt>
      <trkpt lat="46.68751" lon="5.63348">
        <ele>528</ele>
        <time>2021-05-29T14:25:17.917Z</time>
      </trkpt>
      <trkpt lat="46.68751" lon="5.63351">
        <ele>528</ele>
        <time>2021-05-29T14:25:18.917Z</time>
      </trkpt>
      <trkpt lat="46.68752" lon="5.63354">
        <ele>527</ele>
        <time>2021-05-29T14:25:19.916Z</time>
      </trkpt>
      <trkpt lat="46.68752" lon="5.63356">
        <ele>527</ele>
        <time>2021-05-29T14:25:20.917Z</time>
      </trkpt>
      <trkpt lat="46.68752" lon="5.63358">
        <ele>527</ele>
        <time>2021-05-29T14:25:21.917Z</time>
      </trkpt>
      <trkpt lat="46.68753" lon="5.6336">
        <ele>527</ele>
        <time>2021-05-29T14:25:22.916Z</time>
      </trkpt>
      <trkpt lat="46.68755" lon="5.63363">
        <ele>527</ele>
        <time>2021-05-29T14:25:23.917Z</time>
      </trkpt>
      <trkpt lat="46.68755" lon="5.63365">
        <ele>526</ele>
        <time>2021-05-29T14:25:24.916Z</time>
      </trkpt>
      <trkpt lat="46.68756" lon="5.63368">
        <ele>526</ele>
        <time>2021-05-29T14:25:25.917Z</time>
      </trkpt>
      <trkpt lat="46.68757" lon="5.6337">
        <ele>526</ele>
        <time>2021-05-29T14:25:26.917Z</time>
      </trkpt>
      <trkpt lat="46.68757" lon="5.63373">
        <ele>526</ele>
        <time>2021-05-29T14:25:27.916Z</time>
      </trkpt>
      <trkpt lat="46.68758" lon="5.63376">
        <ele>526</ele>
        <time>2021-05-29T14:25:28.916Z</time>
      </trkpt>
      <trkpt lat="46.68758" lon="5.63378">
        <ele>526</ele>
        <time>2021-05-29T14:25:29.917Z</time>
      </trkpt>
      <trkpt lat="46.68758" lon="5.63381">
        <ele>525</ele>
        <time>2021-05-29T14:25:30.917Z</time>
      </trkpt>
      <trkpt lat="46.68758" lon="5.63384">
        <ele>525</ele>
        <time>2021-05-29T14:25:31.916Z</time>
      </trkpt>
      <trkpt lat="46.68757" lon="5.63387">
        <ele>525</ele>
        <time>2021-05-29T14:25:32.917Z</time>
      </trkpt>
      <trkpt lat="46.68758" lon="5.63389">
        <ele>524</ele>
        <time>2021-05-29T14:25:33.916Z</time>
      </trkpt>
      <trkpt lat="46.6876" lon="5.63391">
        <ele>524</ele>
        <time>2021-05-29T14:25:34.917Z</time>
      </trkpt>
      <trkpt lat="46.6876" lon="5.63394">
        <ele>524</ele>
        <time>2021-05-29T14:25:35.917Z</time>
      </trkpt>
      <trkpt lat="46.6876" lon="5.63397">
        <ele>524</ele>
        <time>2021-05-29T14:25:36.916Z</time>
      </trkpt>
      <trkpt lat="46.68761" lon="5.634">
        <ele>524</ele>
        <time>2021-05-29T14:25:37.917Z</time>
      </trkpt>
      <trkpt lat="46.68761" lon="5.63403">
        <ele>525</ele>
        <time>2021-05-29T14:25:38.917Z</time>
      </trkpt>
      <trkpt lat="46.6876" lon="5.63407">
        <ele>525</ele>
        <time>2021-05-29T14:25:39.917Z</time>
      </trkpt>
      <trkpt lat="46.6876" lon="5.6341">
        <ele>525</ele>
        <time>2021-05-29T14:25:40.917Z</time>
      </trkpt>
      <trkpt lat="46.6876" lon="5.63413">
        <ele>524</ele>
        <time>2021-05-29T14:25:41.917Z</time>
      </trkpt>
      <trkpt lat="46.6876" lon="5.63416">
        <ele>524</ele>
        <time>2021-05-29T14:25:42.916Z</time>
      </trkpt>
      <trkpt lat="46.6876" lon="5.63419">
        <ele>524</ele>
        <time>2021-05-29T14:25:43.917Z</time>
      </trkpt>
      <trkpt lat="46.68762" lon="5.63421">
        <ele>523</ele>
        <time>2021-05-29T14:25:44.917Z</time>
      </trkpt>
      <trkpt lat="46.68764" lon="5.63423">
        <ele>523</ele>
        <time>2021-05-29T14:25:45.917Z</time>
      </trkpt>
      <trkpt lat="46.68767" lon="5.63425">
        <ele>522</ele>
        <time>2021-05-29T14:25:46.916Z</time>
      </trkpt>
      <trkpt lat="46.68769" lon="5.63426">
        <ele>522</ele>
        <time>2021-05-29T14:25:47.916Z</time>
      </trkpt>
      <trkpt lat="46.68771" lon="5.63428">
        <ele>522</ele>
        <time>2021-05-29T14:25:48.916Z</time>
      </trkpt>
      <trkpt lat="46.68774" lon="5.63429">
        <ele>521</ele>
        <time>2021-05-29T14:25:49.917Z</time>
      </trkpt>
      <trkpt lat="46.68776" lon="5.63431">
        <ele>521</ele>
        <time>2021-05-29T14:25:50.917Z</time>
      </trkpt>
      <trkpt lat="46.68777" lon="5.63432">
        <ele>521</ele>
        <time>2021-05-29T14:25:51.916Z</time>
      </trkpt>
      <trkpt lat="46.68779" lon="5.63434">
        <ele>521</ele>
        <time>2021-05-29T14:25:52.916Z</time>
      </trkpt>
      <trkpt lat="46.68781" lon="5.63437">
        <ele>521</ele>
        <time>2021-05-29T14:25:53.917Z</time>
      </trkpt>
      <trkpt lat="46.68782" lon="5.63439">
        <ele>521</ele>
        <time>2021-05-29T14:25:54.917Z</time>
      </trkpt>
      <trkpt lat="46.68783" lon="5.63441">
        <ele>522</ele>
        <time>2021-05-29T14:25:55.916Z</time>
      </trkpt>
      <trkpt lat="46.68784" lon="5.63444">
        <ele>522</ele>
        <time>2021-05-29T14:25:56.916Z</time>
      </trkpt>
      <trkpt lat="46.68785" lon="5.63446">
        <ele>522</ele>
        <time>2021-05-29T14:25:57.917Z</time>
      </trkpt>
      <trkpt lat="46.68787" lon="5.63449">
        <ele>522</ele>
        <time>2021-05-29T14:25:58.917Z</time>
      </trkpt>
      <trkpt lat="46.68788" lon="5.63452">
        <ele>523</ele>
        <time>2021-05-29T14:25:59.917Z</time>
      </trkpt>
      <trkpt lat="46.68789" lon="5.63455">
        <ele>523</ele>
        <time>2021-05-29T14:26:00.917Z</time>
      </trkpt>
      <trkpt lat="46.68789" lon="5.63458">
        <ele>523</ele>
        <time>2021-05-29T14:26:01.917Z</time>
      </trkpt>
      <trkpt lat="46.6879" lon="5.6346">
        <ele>524</ele>
        <time>2021-05-29T14:26:02.917Z</time>
      </trkpt>
      <trkpt lat="46.68791" lon="5.63463">
        <ele>524</ele>
        <time>2021-05-29T14:26:03.917Z</time>
      </trkpt>
      <trkpt lat="46.68792" lon="5.63466">
        <ele>524</ele>
        <time>2021-05-29T14:26:04.916Z</time>
      </trkpt>
      <trkpt lat="46.68794" lon="5.63467">
        <ele>524</ele>
        <time>2021-05-29T14:26:05.917Z</time>
      </trkpt>
      <trkpt lat="46.68796" lon="5.63467">
        <ele>524</ele>
        <time>2021-05-29T14:26:06.917Z</time>
      </trkpt>
      <trkpt lat="46.68798" lon="5.63467">
        <ele>524</ele>
        <time>2021-05-29T14:26:07.916Z</time>
      </trkpt>
      <trkpt lat="46.688" lon="5.63466">
        <ele>524</ele>
        <time>2021-05-29T14:26:08.917Z</time>
      </trkpt>
      <trkpt lat="46.68802" lon="5.63466">
        <ele>524</ele>
        <time>2021-05-29T14:26:09.916Z</time>
      </trkpt>
      <trkpt lat="46.68803" lon="5.63465">
        <ele>524</ele>
        <time>2021-05-29T14:26:10.917Z</time>
      </trkpt>
      <trkpt lat="46.68805" lon="5.63465">
        <ele>524</ele>
        <time>2021-05-29T14:26:11.917Z</time>
      </trkpt>
      <trkpt lat="46.68808" lon="5.63465">
        <ele>524</ele>
        <time>2021-05-29T14:26:12.916Z</time>
      </trkpt>
      <trkpt lat="46.6881" lon="5.63465">
        <ele>524</ele>
        <time>2021-05-29T14:26:13.917Z</time>
      </trkpt>
      <trkpt lat="46.68812" lon="5.63466">
        <ele>523</ele>
        <time>2021-05-29T14:26:14.917Z</time>
      </trkpt>
      <trkpt lat="46.68814" lon="5.63467">
        <ele>523</ele>
        <time>2021-05-29T14:26:15.917Z</time>
      </trkpt>
      <trkpt lat="46.68816" lon="5.63467">
        <ele>523</ele>
        <time>2021-05-29T14:26:16.916Z</time>
      </trkpt>
      <trkpt lat="46.68818" lon="5.63468">
        <ele>522</ele>
        <time>2021-05-29T14:26:17.917Z</time>
      </trkpt>
      <trkpt lat="46.6882" lon="5.6347">
        <ele>522</ele>
        <time>2021-05-29T14:26:18.917Z</time>
      </trkpt>
      <trkpt lat="46.68821" lon="5.63471">
        <ele>522</ele>
        <time>2021-05-29T14:26:19.917Z</time>
      </trkpt>
      <trkpt lat="46.68823" lon="5.63472">
        <ele>521</ele>
        <time>2021-05-29T14:26:20.917Z</time>
      </trkpt>
      <trkpt lat="46.68825" lon="5.63473">
        <ele>521</ele>
        <time>2021-05-29T14:26:21.916Z</time>
      </trkpt>
      <trkpt lat="46.68828" lon="5.63473">
        <ele>520</ele>
        <time>2021-05-29T14:26:22.916Z</time>
      </trkpt>
      <trkpt lat="46.6883" lon="5.63473">
        <ele>520</ele>
        <time>2021-05-29T14:26:23.916Z</time>
      </trkpt>
      <trkpt lat="46.68831" lon="5.63473">
        <ele>519</ele>
        <time>2021-05-29T14:26:24.916Z</time>
      </trkpt>
      <trkpt lat="46.68833" lon="5.63473">
        <ele>519</ele>
        <time>2021-05-29T14:26:25.917Z</time>
      </trkpt>
      <trkpt lat="46.68835" lon="5.63473">
        <ele>518</ele>
        <time>2021-05-29T14:26:26.917Z</time>
      </trkpt>
      <trkpt lat="46.68838" lon="5.63472">
        <ele>518</ele>
        <time>2021-05-29T14:26:27.916Z</time>
      </trkpt>
      <trkpt lat="46.6884" lon="5.63472">
        <ele>518</ele>
        <time>2021-05-29T14:26:28.917Z</time>
      </trkpt>
      <trkpt lat="46.68842" lon="5.63471">
        <ele>517</ele>
        <time>2021-05-29T14:26:29.916Z</time>
      </trkpt>
      <trkpt lat="46.68843" lon="5.6347">
        <ele>517</ele>
        <time>2021-05-29T14:26:30.917Z</time>
      </trkpt>
      <trkpt lat="46.68845" lon="5.6347">
        <ele>517</ele>
        <time>2021-05-29T14:26:31.917Z</time>
      </trkpt>
      <trkpt lat="46.68847" lon="5.63469">
        <ele>516</ele>
        <time>2021-05-29T14:26:32.916Z</time>
      </trkpt>
      <trkpt lat="46.68849" lon="5.63468">
        <ele>516</ele>
        <time>2021-05-29T14:26:33.917Z</time>
      </trkpt>
      <trkpt lat="46.68851" lon="5.63467">
        <ele>516</ele>
        <time>2021-05-29T14:26:34.917Z</time>
      </trkpt>
      <trkpt lat="46.68853" lon="5.63467">
        <ele>515</ele>
        <time>2021-05-29T14:26:35.917Z</time>
      </trkpt>
      <trkpt lat="46.68854" lon="5.63467">
        <ele>515</ele>
        <time>2021-05-29T14:26:36.916Z</time>
      </trkpt>
      <trkpt lat="46.68856" lon="5.63466">
        <ele>515</ele>
        <time>2021-05-29T14:26:37.917Z</time>
      </trkpt>
      <trkpt lat="46.68858" lon="5.63466">
        <ele>515</ele>
        <time>2021-05-29T14:26:38.917Z</time>
      </trkpt>
      <trkpt lat="46.6886" lon="5.63466">
        <ele>515</ele>
        <time>2021-05-29T14:32:41.722Z</time>
      </trkpt>
      <trkpt lat="46.68862" lon="5.63466">
        <ele>515</ele>
        <time>2021-05-29T14:32:42.721Z</time>
      </trkpt>
      <trkpt lat="46.68864" lon="5.63466">
        <ele>515</ele>
        <time>2021-05-29T14:32:43.721Z</time>
      </trkpt>
      <trkpt lat="46.68866" lon="5.63466">
        <ele>515</ele>
        <time>2021-05-29T14:32:44.722Z</time>
      </trkpt>
      <trkpt lat="46.68868" lon="5.63466">
        <ele>514</ele>
        <time>2021-05-29T14:32:45.722Z</time>
      </trkpt>
      <trkpt lat="46.6887" lon="5.63466">
        <ele>514</ele>
        <time>2021-05-29T14:32:46.722Z</time>
      </trkpt>
      <trkpt lat="46.68872" lon="5.63466">
        <ele>515</ele>
        <time>2021-05-29T14:32:47.721Z</time>
      </trkpt>
      <trkpt lat="46.68874" lon="5.63466">
        <ele>515</ele>
        <time>2021-05-29T14:32:48.722Z</time>
      </trkpt>
      <trkpt lat="46.68876" lon="5.63467">
        <ele>515</ele>
        <time>2021-05-29T14:32:49.722Z</time>
      </trkpt>
      <trkpt lat="46.68878" lon="5.63468">
        <ele>515</ele>
        <time>2021-05-29T14:32:50.722Z</time>
      </trkpt>
      <trkpt lat="46.6888" lon="5.6347">
        <ele>516</ele>
        <time>2021-05-29T14:32:51.722Z</time>
      </trkpt>
      <trkpt lat="46.68881" lon="5.63472">
        <ele>516</ele>
        <time>2021-05-29T14:32:52.721Z</time>
      </trkpt>
      <trkpt lat="46.68883" lon="5.63473">
        <ele>516</ele>
        <time>2021-05-29T14:32:53.722Z</time>
      </trkpt>
      <trkpt lat="46.68885" lon="5.63474">
        <ele>516</ele>
        <time>2021-05-29T14:32:54.722Z</time>
      </trkpt>
      <trkpt lat="46.68886" lon="5.63475">
        <ele>516</ele>
        <time>2021-05-29T14:32:55.722Z</time>
      </trkpt>
      <trkpt lat="46.68887" lon="5.63476">
        <ele>516</ele>
        <time>2021-05-29T14:32:56.722Z</time>
      </trkpt>
      <trkpt lat="46.68889" lon="5.63477">
        <ele>516</ele>
        <time>2021-05-29T14:32:57.721Z</time>
      </trkpt>
      <trkpt lat="46.6889" lon="5.63479">
        <ele>516</ele>
        <time>2021-05-29T14:32:58.722Z</time>
      </trkpt>
      <trkpt lat="46.68892" lon="5.63481">
        <ele>517</ele>
        <time>2021-05-29T14:32:59.721Z</time>
      </trkpt>
      <trkpt lat="46.68894" lon="5.63483">
        <ele>518</ele>
        <time>2021-05-29T14:33:00.721Z</time>
      </trkpt>
      <trkpt lat="46.68895" lon="5.63485">
        <ele>518</ele>
        <time>2021-05-29T14:33:01.721Z</time>
      </trkpt>
      <trkpt lat="46.68896" lon="5.63488">
        <ele>519</ele>
        <time>2021-05-29T14:33:02.722Z</time>
      </trkpt>
      <trkpt lat="46.68897" lon="5.6349">
        <ele>519</ele>
        <time>2021-05-29T14:33:03.721Z</time>
      </trkpt>
      <trkpt lat="46.68898" lon="5.63493">
        <ele>519</ele>
        <time>2021-05-29T14:33:04.721Z</time>
      </trkpt>
      <trkpt lat="46.68898" lon="5.63496">
        <ele>520</ele>
        <time>2021-05-29T14:33:05.721Z</time>
      </trkpt>
      <trkpt lat="46.68898" lon="5.63499">
        <ele>520</ele>
        <time>2021-05-29T14:33:06.722Z</time>
      </trkpt>
      <trkpt lat="46.68899" lon="5.63501">
        <ele>520</ele>
        <time>2021-05-29T14:33:07.721Z</time>
      </trkpt>
      <trkpt lat="46.689" lon="5.63503">
        <ele>520</ele>
        <time>2021-05-29T14:33:08.721Z</time>
      </trkpt>
      <trkpt lat="46.68901" lon="5.63506">
        <ele>520</ele>
        <time>2021-05-29T14:33:09.722Z</time>
      </trkpt>
      <trkpt lat="46.68902" lon="5.63508">
        <ele>520</ele>
        <time>2021-05-29T14:33:10.722Z</time>
      </trkpt>
      <trkpt lat="46.68902" lon="5.63511">
        <ele>520</ele>
        <time>2021-05-29T14:33:11.721Z</time>
      </trkpt>
      <trkpt lat="46.68903" lon="5.63515">
        <ele>520</ele>
        <time>2021-05-29T14:33:12.721Z</time>
      </trkpt>
      <trkpt lat="46.68903" lon="5.63518">
        <ele>520</ele>
        <time>2021-05-29T14:33:13.721Z</time>
      </trkpt>
      <trkpt lat="46.68903" lon="5.63521">
        <ele>520</ele>
        <time>2021-05-29T14:33:14.721Z</time>
      </trkpt>
      <trkpt lat="46.68903" lon="5.63524">
        <ele>520</ele>
        <time>2021-05-29T14:33:15.722Z</time>
      </trkpt>
      <trkpt lat="46.68904" lon="5.63527">
        <ele>520</ele>
        <time>2021-05-29T14:33:16.721Z</time>
      </trkpt>
      <trkpt lat="46.68904" lon="5.6353">
        <ele>519</ele>
        <time>2021-05-29T14:33:17.722Z</time>
      </trkpt>
      <trkpt lat="46.68904" lon="5.63531">
        <ele>519</ele>
        <time>2021-05-29T14:33:18.722Z</time>
      </trkpt>
      <trkpt lat="46.68904" lon="5.63532">
        <ele>519</ele>
        <time>2021-05-29T14:33:19.722Z</time>
      </trkpt>
      <trkpt lat="46.68904" lon="5.63532">
        <ele>519</ele>
        <time>2021-05-29T14:33:20.721Z</time>
      </trkpt>
      <trkpt lat="46.68905" lon="5.63533">
        <ele>518</ele>
        <time>2021-05-29T14:33:21.721Z</time>
      </trkpt>
      <trkpt lat="46.68906" lon="5.63533">
        <ele>518</ele>
        <time>2021-05-29T14:33:22.721Z</time>
      </trkpt>
      <trkpt lat="46.68906" lon="5.63534">
        <ele>518</ele>
        <time>2021-05-29T14:33:23.722Z</time>
      </trkpt>
      <trkpt lat="46.68905" lon="5.63535">
        <ele>518</ele>
        <time>2021-05-29T14:33:24.722Z</time>
      </trkpt>
      <trkpt lat="46.68904" lon="5.63536">
        <ele>518</ele>
        <time>2021-05-29T14:33:25.721Z</time>
      </trkpt>
      <trkpt lat="46.68904" lon="5.63537">
        <ele>518</ele>
        <time>2021-05-29T14:33:26.722Z</time>
      </trkpt>
      <trkpt lat="46.68903" lon="5.63537">
        <ele>519</ele>
        <time>2021-05-29T14:33:27.722Z</time>
      </trkpt>
      <trkpt lat="46.68903" lon="5.63537">
        <ele>519</ele>
        <time>2021-05-29T14:33:28.722Z</time>
      </trkpt>
      <trkpt lat="46.68902" lon="5.63536">
        <ele>519</ele>
        <time>2021-05-29T14:33:29.721Z</time>
      </trkpt>
      <trkpt lat="46.68902" lon="5.63538">
        <ele>520</ele>
        <time>2021-05-29T14:33:30.722Z</time>
      </trkpt>
      <trkpt lat="46.68902" lon="5.63539">
        <ele>520</ele>
        <time>2021-05-29T14:33:31.722Z</time>
      </trkpt>
      <trkpt lat="46.68901" lon="5.6354">
        <ele>520</ele>
        <time>2021-05-29T14:33:32.722Z</time>
      </trkpt>
      <trkpt lat="46.689" lon="5.6354">
        <ele>521</ele>
        <time>2021-05-29T14:33:33.721Z</time>
      </trkpt>
      <trkpt lat="46.68899" lon="5.63541">
        <ele>521</ele>
        <time>2021-05-29T14:33:34.721Z</time>
      </trkpt>
      <trkpt lat="46.68899" lon="5.63543">
        <ele>521</ele>
        <time>2021-05-29T14:33:35.721Z</time>
      </trkpt>
      <trkpt lat="46.68899" lon="5.63545">
        <ele>521</ele>
        <time>2021-05-29T14:33:36.722Z</time>
      </trkpt>
      <trkpt lat="46.68898" lon="5.63548">
        <ele>522</ele>
        <time>2021-05-29T14:33:37.722Z</time>
      </trkpt>
      <trkpt lat="46.68898" lon="5.6355">
        <ele>522</ele>
        <time>2021-05-29T14:33:38.721Z</time>
      </trkpt>
      <trkpt lat="46.68899" lon="5.63553">
        <ele>522</ele>
        <time>2021-05-29T14:33:39.722Z</time>
      </trkpt>
      <trkpt lat="46.68899" lon="5.63557">
        <ele>522</ele>
        <time>2021-05-29T14:33:40.721Z</time>
      </trkpt>
      <trkpt lat="46.68899" lon="5.63559">
        <ele>522</ele>
        <time>2021-05-29T14:33:41.722Z</time>
      </trkpt>
      <trkpt lat="46.68898" lon="5.63562">
        <ele>522</ele>
        <time>2021-05-29T14:33:42.722Z</time>
      </trkpt>
      <trkpt lat="46.68898" lon="5.63565">
        <ele>521</ele>
        <time>2021-05-29T14:33:43.722Z</time>
      </trkpt>
      <trkpt lat="46.68897" lon="5.63568">
        <ele>521</ele>
        <time>2021-05-29T14:33:44.721Z</time>
      </trkpt>
      <trkpt lat="46.68896" lon="5.63572">
        <ele>521</ele>
        <time>2021-05-29T14:33:45.722Z</time>
      </trkpt>
      <trkpt lat="46.68895" lon="5.63575">
        <ele>520</ele>
        <time>2021-05-29T14:33:46.722Z</time>
      </trkpt>
      <trkpt lat="46.68894" lon="5.63579">
        <ele>520</ele>
        <time>2021-05-29T14:33:47.722Z</time>
      </trkpt>
      <trkpt lat="46.68894" lon="5.63583">
        <ele>519</ele>
        <time>2021-05-29T14:33:48.722Z</time>
      </trkpt>
      <trkpt lat="46.68894" lon="5.63587">
        <ele>519</ele>
        <time>2021-05-29T14:33:49.721Z</time>
      </trkpt>
      <trkpt lat="46.68894" lon="5.63591">
        <ele>519</ele>
        <time>2021-05-29T14:33:50.722Z</time>
      </trkpt>
      <trkpt lat="46.68894" lon="5.63595">
        <ele>518</ele>
        <time>2021-05-29T14:33:51.721Z</time>
      </trkpt>
      <trkpt lat="46.68894" lon="5.63599">
        <ele>518</ele>
        <time>2021-05-29T14:33:52.722Z</time>
      </trkpt>
      <trkpt lat="46.68894" lon="5.63603">
        <ele>518</ele>
        <time>2021-05-29T14:33:53.721Z</time>
      </trkpt>
      <trkpt lat="46.68893" lon="5.63606">
        <ele>518</ele>
        <time>2021-05-29T14:33:54.721Z</time>
      </trkpt>
      <trkpt lat="46.68893" lon="5.6361">
        <ele>518</ele>
        <time>2021-05-29T14:33:55.722Z</time>
      </trkpt>
      <trkpt lat="46.68892" lon="5.63613">
        <ele>518</ele>
        <time>2021-05-29T14:33:56.722Z</time>
      </trkpt>
      <trkpt lat="46.68891" lon="5.63616">
        <ele>518</ele>
        <time>2021-05-29T14:33:57.722Z</time>
      </trkpt>
      <trkpt lat="46.68891" lon="5.6362">
        <ele>518</ele>
        <time>2021-05-29T14:33:58.721Z</time>
      </trkpt>
      <trkpt lat="46.68891" lon="5.63623">
        <ele>517</ele>
        <time>2021-05-29T14:33:59.722Z</time>
      </trkpt>
      <trkpt lat="46.6889" lon="5.63626">
        <ele>517</ele>
        <time>2021-05-29T14:34:00.722Z</time>
      </trkpt>
      <trkpt lat="46.6889" lon="5.6363">
        <ele>517</ele>
        <time>2021-05-29T14:34:01.722Z</time>
      </trkpt>
      <trkpt lat="46.6889" lon="5.63633">
        <ele>517</ele>
        <time>2021-05-29T14:34:02.721Z</time>
      </trkpt>
      <trkpt lat="46.6889" lon="5.63636">
        <ele>517</ele>
        <time>2021-05-29T14:34:03.722Z</time>
      </trkpt>
      <trkpt lat="46.68889" lon="5.63639">
        <ele>517</ele>
        <time>2021-05-29T14:34:04.722Z</time>
      </trkpt>
      <trkpt lat="46.68889" lon="5.63642">
        <ele>518</ele>
        <time>2021-05-29T14:34:05.722Z</time>
      </trkpt>
      <trkpt lat="46.68889" lon="5.63645">
        <ele>518</ele>
        <time>2021-05-29T14:34:06.722Z</time>
      </trkpt>
      <trkpt lat="46.68888" lon="5.63648">
        <ele>518</ele>
        <time>2021-05-29T14:34:07.721Z</time>
      </trkpt>
      <trkpt lat="46.68888" lon="5.63652">
        <ele>517</ele>
        <time>2021-05-29T14:34:08.721Z</time>
      </trkpt>
      <trkpt lat="46.68887" lon="5.63655">
        <ele>517</ele>
        <time>2021-05-29T14:34:09.721Z</time>
      </trkpt>
      <trkpt lat="46.68886" lon="5.63658">
        <ele>517</ele>
        <time>2021-05-29T14:34:10.721Z</time>
      </trkpt>
      <trkpt lat="46.68885" lon="5.63662">
        <ele>517</ele>
        <time>2021-05-29T14:34:11.722Z</time>
      </trkpt>
      <trkpt lat="46.68885" lon="5.63666">
        <ele>517</ele>
        <time>2021-05-29T14:34:12.721Z</time>
      </trkpt>
      <trkpt lat="46.68884" lon="5.63669">
        <ele>517</ele>
        <time>2021-05-29T14:34:13.721Z</time>
      </trkpt>
      <trkpt lat="46.68884" lon="5.63671">
        <ele>517</ele>
        <time>2021-05-29T14:34:14.721Z</time>
      </trkpt>
      <trkpt lat="46.68883" lon="5.63674">
        <ele>516</ele>
        <time>2021-05-29T14:34:15.721Z</time>
      </trkpt>
      <trkpt lat="46.68883" lon="5.63676">
        <ele>516</ele>
        <time>2021-05-29T14:34:16.721Z</time>
      </trkpt>
      <trkpt lat="46.68882" lon="5.63678">
        <ele>516</ele>
        <time>2021-05-29T14:34:17.722Z</time>
      </trkpt>
      <trkpt lat="46.68881" lon="5.63681">
        <ele>516</ele>
        <time>2021-05-29T14:34:18.721Z</time>
      </trkpt>
      <trkpt lat="46.6888" lon="5.63683">
        <ele>516</ele>
        <time>2021-05-29T14:34:19.722Z</time>
      </trkpt>
      <trkpt lat="46.6888" lon="5.63685">
        <ele>517</ele>
        <time>2021-05-29T14:34:20.721Z</time>
      </trkpt>
      <trkpt lat="46.68879" lon="5.63686">
        <ele>517</ele>
        <time>2021-05-29T14:34:21.721Z</time>
      </trkpt>
      <trkpt lat="46.68879" lon="5.63687">
        <ele>516</ele>
        <time>2021-05-29T14:34:22.721Z</time>
      </trkpt>
      <trkpt lat="46.68879" lon="5.63689">
        <ele>516</ele>
        <time>2021-05-29T14:34:23.721Z</time>
      </trkpt>
      <trkpt lat="46.68878" lon="5.6369">
        <ele>516</ele>
        <time>2021-05-29T14:34:24.721Z</time>
      </trkpt>
      <trkpt lat="46.68877" lon="5.63692">
        <ele>515</ele>
        <time>2021-05-29T14:34:25.721Z</time>
      </trkpt>
      <trkpt lat="46.68876" lon="5.63694">
        <ele>514</ele>
        <time>2021-05-29T14:34:26.722Z</time>
      </trkpt>
      <trkpt lat="46.68876" lon="5.63696">
        <ele>513</ele>
        <time>2021-05-29T14:34:27.721Z</time>
      </trkpt>
      <trkpt lat="46.68875" lon="5.63697">
        <ele>513</ele>
        <time>2021-05-29T14:34:28.721Z</time>
      </trkpt>
      <trkpt lat="46.68875" lon="5.63699">
        <ele>513</ele>
        <time>2021-05-29T14:34:29.722Z</time>
      </trkpt>
      <trkpt lat="46.68875" lon="5.63701">
        <ele>513</ele>
        <time>2021-05-29T14:34:30.722Z</time>
      </trkpt>
      <trkpt lat="46.68875" lon="5.63703">
        <ele>513</ele>
        <time>2021-05-29T14:34:31.721Z</time>
      </trkpt>
      <trkpt lat="46.68875" lon="5.63703">
        <ele>513</ele>
        <time>2021-05-29T14:34:32.722Z</time>
      </trkpt>
      <trkpt lat="46.68875" lon="5.63704">
        <ele>513</ele>
        <time>2021-05-29T14:34:33.721Z</time>
      </trkpt>
      <trkpt lat="46.68874" lon="5.63705">
        <ele>513</ele>
        <time>2021-05-29T14:34:34.722Z</time>
      </trkpt>
      <trkpt lat="46.68874" lon="5.63706">
        <ele>514</ele>
        <time>2021-05-29T14:34:35.721Z</time>
      </trkpt>
      <trkpt lat="46.68873" lon="5.63706">
        <ele>513</ele>
        <time>2021-05-29T14:34:36.722Z</time>
      </trkpt>
      <trkpt lat="46.68872" lon="5.63707">
        <ele>513</ele>
        <time>2021-05-29T14:34:37.721Z</time>
      </trkpt>
      <trkpt lat="46.68839" lon="5.63735">
        <ele>505</ele>
        <time>2021-05-29T14:34:38.722Z</time>
      </trkpt>
      <trkpt lat="46.68838" lon="5.63736">
        <ele>505</ele>
        <time>2021-05-29T14:34:39.721Z</time>
      </trkpt>
      <trkpt lat="46.68837" lon="5.63736">
        <ele>506</ele>
        <time>2021-05-29T14:34:40.721Z</time>
      </trkpt>
      <trkpt lat="46.68836" lon="5.63737">
        <ele>506</ele>
        <time>2021-05-29T14:34:41.721Z</time>
      </trkpt>
      <trkpt lat="46.68835" lon="5.63738">
        <ele>506</ele>
        <time>2021-05-29T14:34:42.722Z</time>
      </trkpt>
      <trkpt lat="46.68834" lon="5.63738">
        <ele>506</ele>
        <time>2021-05-29T14:34:43.722Z</time>
      </trkpt>
      <trkpt lat="46.68834" lon="5.63739">
        <ele>506</ele>
        <time>2021-05-29T14:34:44.722Z</time>
      </trkpt>
      <trkpt lat="46.68833" lon="5.6374">
        <ele>507</ele>
        <time>2021-05-29T14:34:45.722Z</time>
      </trkpt>
      <trkpt lat="46.68832" lon="5.63741">
        <ele>507</ele>
        <time>2021-05-29T14:34:46.722Z</time>
      </trkpt>
      <trkpt lat="46.68832" lon="5.63742">
        <ele>507</ele>
        <time>2021-05-29T14:34:47.721Z</time>
      </trkpt>
      <trkpt lat="46.68831" lon="5.63743">
        <ele>507</ele>
        <time>2021-05-29T14:34:48.722Z</time>
      </trkpt>
      <trkpt lat="46.6883" lon="5.63743">
        <ele>506</ele>
        <time>2021-05-29T14:34:49.722Z</time>
      </trkpt>
      <trkpt lat="46.68829" lon="5.63744">
        <ele>507</ele>
        <time>2021-05-29T14:34:50.721Z</time>
      </trkpt>
      <trkpt lat="46.68829" lon="5.63746">
        <ele>507</ele>
        <time>2021-05-29T14:34:51.721Z</time>
      </trkpt>
      <trkpt lat="46.68828" lon="5.63747">
        <ele>506</ele>
        <time>2021-05-29T14:34:52.722Z</time>
      </trkpt>
      <trkpt lat="46.68827" lon="5.63748">
        <ele>506</ele>
        <time>2021-05-29T14:34:53.722Z</time>
      </trkpt>
      <trkpt lat="46.68827" lon="5.63749">
        <ele>506</ele>
        <time>2021-05-29T14:34:54.722Z</time>
      </trkpt>
      <trkpt lat="46.68827" lon="5.6375">
        <ele>506</ele>
        <time>2021-05-29T14:34:55.721Z</time>
      </trkpt>
      <trkpt lat="46.68826" lon="5.6375">
        <ele>506</ele>
        <time>2021-05-29T14:34:56.722Z</time>
      </trkpt>
      <trkpt lat="46.68826" lon="5.63752">
        <ele>506</ele>
        <time>2021-05-29T14:34:57.722Z</time>
      </trkpt>
      <trkpt lat="46.68825" lon="5.63752">
        <ele>505</ele>
        <time>2021-05-29T14:34:58.722Z</time>
      </trkpt>
      <trkpt lat="46.68823" lon="5.63753">
        <ele>505</ele>
        <time>2021-05-29T14:34:59.722Z</time>
      </trkpt>
      <trkpt lat="46.68822" lon="5.63754">
        <ele>505</ele>
        <time>2021-05-29T14:35:00.722Z</time>
      </trkpt>
      <trkpt lat="46.68821" lon="5.63756">
        <ele>505</ele>
        <time>2021-05-29T14:35:01.722Z</time>
      </trkpt>
      <trkpt lat="46.68821" lon="5.63757">
        <ele>505</ele>
        <time>2021-05-29T14:35:02.722Z</time>
      </trkpt>
      <trkpt lat="46.68821" lon="5.63758">
        <ele>505</ele>
        <time>2021-05-29T14:35:03.722Z</time>
      </trkpt>
      <trkpt lat="46.6882" lon="5.6376">
        <ele>505</ele>
        <time>2021-05-29T14:35:04.722Z</time>
      </trkpt>
      <trkpt lat="46.68819" lon="5.63761">
        <ele>505</ele>
        <time>2021-05-29T14:35:05.721Z</time>
      </trkpt>
      <trkpt lat="46.68819" lon="5.63762">
        <ele>505</ele>
        <time>2021-05-29T14:35:06.721Z</time>
      </trkpt>
      <trkpt lat="46.68818" lon="5.63763">
        <ele>505</ele>
        <time>2021-05-29T14:35:07.722Z</time>
      </trkpt>
      <trkpt lat="46.68818" lon="5.63764">
        <ele>504</ele>
        <time>2021-05-29T14:35:08.722Z</time>
      </trkpt>
      <trkpt lat="46.68818" lon="5.63766">
        <ele>504</ele>
        <time>2021-05-29T14:35:09.722Z</time>
      </trkpt>
      <trkpt lat="46.68817" lon="5.63766">
        <ele>504</ele>
        <time>2021-05-29T14:35:10.722Z</time>
      </trkpt>
      <trkpt lat="46.68816" lon="5.63768">
        <ele>504</ele>
        <time>2021-05-29T14:35:11.722Z</time>
      </trkpt>
      <trkpt lat="46.68816" lon="5.6377">
        <ele>503</ele>
        <time>2021-05-29T14:35:12.722Z</time>
      </trkpt>
      <trkpt lat="46.68816" lon="5.63771">
        <ele>503</ele>
        <time>2021-05-29T14:35:13.722Z</time>
      </trkpt>
      <trkpt lat="46.68815" lon="5.63772">
        <ele>503</ele>
        <time>2021-05-29T14:35:14.722Z</time>
      </trkpt>
      <trkpt lat="46.68815" lon="5.63774">
        <ele>503</ele>
        <time>2021-05-29T14:35:15.722Z</time>
      </trkpt>
      <trkpt lat="46.68815" lon="5.63775">
        <ele>503</ele>
        <time>2021-05-29T14:35:16.722Z</time>
      </trkpt>
      <trkpt lat="46.68815" lon="5.63776">
        <ele>503</ele>
        <time>2021-05-29T14:35:17.722Z</time>
      </trkpt>
      <trkpt lat="46.68814" lon="5.63777">
        <ele>504</ele>
        <time>2021-05-29T14:35:18.722Z</time>
      </trkpt>
      <trkpt lat="46.68814" lon="5.63779">
        <ele>504</ele>
        <time>2021-05-29T14:35:19.722Z</time>
      </trkpt>
      <trkpt lat="46.68814" lon="5.6378">
        <ele>505</ele>
        <time>2021-05-29T14:35:20.722Z</time>
      </trkpt>
      <trkpt lat="46.68814" lon="5.63781">
        <ele>505</ele>
        <time>2021-05-29T14:35:21.721Z</time>
      </trkpt>
      <trkpt lat="46.68814" lon="5.63782">
        <ele>505</ele>
        <time>2021-05-29T14:35:22.722Z</time>
      </trkpt>
      <trkpt lat="46.68813" lon="5.63784">
        <ele>506</ele>
        <time>2021-05-29T14:35:23.722Z</time>
      </trkpt>
      <trkpt lat="46.68813" lon="5.63786">
        <ele>506</ele>
        <time>2021-05-29T14:35:24.722Z</time>
      </trkpt>
      <trkpt lat="46.68813" lon="5.63788">
        <ele>506</ele>
        <time>2021-05-29T14:35:25.722Z</time>
      </trkpt>
      <trkpt lat="46.68812" lon="5.63789">
        <ele>506</ele>
        <time>2021-05-29T14:35:26.722Z</time>
      </trkpt>
      <trkpt lat="46.68812" lon="5.63791">
        <ele>506</ele>
        <time>2021-05-29T14:35:27.721Z</time>
      </trkpt>
      <trkpt lat="46.68812" lon="5.63792">
        <ele>507</ele>
        <time>2021-05-29T14:35:28.721Z</time>
      </trkpt>
      <trkpt lat="46.68812" lon="5.63794">
        <ele>507</ele>
        <time>2021-05-29T14:35:29.722Z</time>
      </trkpt>
      <trkpt lat="46.68812" lon="5.63795">
        <ele>507</ele>
        <time>2021-05-29T14:35:30.721Z</time>
      </trkpt>
      <trkpt lat="46.68812" lon="5.63797">
        <ele>507</ele>
        <time>2021-05-29T14:35:31.721Z</time>
      </trkpt>
      <trkpt lat="46.68812" lon="5.63798">
        <ele>507</ele>
        <time>2021-05-29T14:35:32.722Z</time>
      </trkpt>
      <trkpt lat="46.68812" lon="5.638">
        <ele>507</ele>
        <time>2021-05-29T14:35:33.722Z</time>
      </trkpt>
      <trkpt lat="46.68813" lon="5.63801">
        <ele>507</ele>
        <time>2021-05-29T14:35:34.722Z</time>
      </trkpt>
      <trkpt lat="46.68813" lon="5.63803">
        <ele>507</ele>
        <time>2021-05-29T14:35:35.722Z</time>
      </trkpt>
      <trkpt lat="46.68813" lon="5.63805">
        <ele>507</ele>
        <time>2021-05-29T14:35:36.722Z</time>
      </trkpt>
      <trkpt lat="46.68813" lon="5.63807">
        <ele>507</ele>
        <time>2021-05-29T14:35:37.722Z</time>
      </trkpt>
      <trkpt lat="46.68813" lon="5.63809">
        <ele>507</ele>
        <time>2021-05-29T14:35:38.722Z</time>
      </trkpt>
      <trkpt lat="46.68814" lon="5.6381">
        <ele>507</ele>
        <time>2021-05-29T14:35:39.722Z</time>
      </trkpt>
      <trkpt lat="46.68814" lon="5.63812">
        <ele>508</ele>
        <time>2021-05-29T14:35:40.721Z</time>
      </trkpt>
      <trkpt lat="46.68814" lon="5.63813">
        <ele>508</ele>
        <time>2021-05-29T14:35:41.721Z</time>
      </trkpt>
      <trkpt lat="46.68815" lon="5.63813">
        <ele>509</ele>
        <time>2021-05-29T14:35:42.722Z</time>
      </trkpt>
      <trkpt lat="46.68815" lon="5.63813">
        <ele>509</ele>
        <time>2021-05-29T14:35:43.722Z</time>
      </trkpt>
      <trkpt lat="46.68816" lon="5.63813">
        <ele>508</ele>
        <time>2021-05-29T14:35:44.721Z</time>
      </trkpt>
      <trkpt lat="46.68816" lon="5.63813">
        <ele>508</ele>
        <time>2021-05-29T14:35:45.721Z</time>
      </trkpt>
      <trkpt lat="46.68816" lon="5.63813">
        <ele>508</ele>
        <time>2021-05-29T14:35:46.722Z</time>
      </trkpt>
      <trkpt lat="46.68817" lon="5.63813">
        <ele>508</ele>
        <time>2021-05-29T14:35:47.722Z</time>
      </trkpt>
      <trkpt lat="46.68817" lon="5.63813">
        <ele>509</ele>
        <time>2021-05-29T14:35:48.722Z</time>
      </trkpt>
      <trkpt lat="46.68818" lon="5.63813">
        <ele>509</ele>
        <time>2021-05-29T14:35:49.722Z</time>
      </trkpt>
      <trkpt lat="46.68819" lon="5.63814">
        <ele>510</ele>
        <time>2021-05-29T14:35:50.722Z</time>
      </trkpt>
      <trkpt lat="46.68819" lon="5.63814">
        <ele>510</ele>
        <time>2021-05-29T14:35:51.722Z</time>
      </trkpt>
      <trkpt lat="46.68819" lon="5.63814">
        <ele>510</ele>
        <time>2021-05-29T14:35:52.721Z</time>
      </trkpt>
      <trkpt lat="46.68818" lon="5.63814">
        <ele>510</ele>
        <time>2021-05-29T14:35:53.722Z</time>
      </trkpt>
      <trkpt lat="46.68817" lon="5.63814">
        <ele>510</ele>
        <time>2021-05-29T14:35:54.722Z</time>
      </trkpt>
      <trkpt lat="46.68817" lon="5.63815">
        <ele>510</ele>
        <time>2021-05-29T14:35:55.722Z</time>
      </trkpt>
      <trkpt lat="46.68818" lon="5.63815">
        <ele>510</ele>
        <time>2021-05-29T14:35:56.721Z</time>
      </trkpt>
      <trkpt lat="46.68818" lon="5.63815">
        <ele>510</ele>
        <time>2021-05-29T14:35:57.722Z</time>
      </trkpt>
      <trkpt lat="46.68818" lon="5.63815">
        <ele>510</ele>
        <time>2021-05-29T14:35:58.722Z</time>
      </trkpt>
      <trkpt lat="46.68817" lon="5.63815">
        <ele>510</ele>
        <time>2021-05-29T14:35:59.721Z</time>
      </trkpt>
      <trkpt lat="46.68816" lon="5.63816">
        <ele>510</ele>
        <time>2021-05-29T14:36:00.722Z</time>
      </trkpt>
      <trkpt lat="46.68816" lon="5.63816">
        <ele>510</ele>
        <time>2021-05-29T14:36:01.722Z</time>
      </trkpt>
      <trkpt lat="46.68815" lon="5.63816">
        <ele>510</ele>
        <time>2021-05-29T14:36:02.721Z</time>
      </trkpt>
      <trkpt lat="46.68814" lon="5.63816">
        <ele>510</ele>
        <time>2021-05-29T14:36:03.722Z</time>
      </trkpt>
      <trkpt lat="46.68814" lon="5.63816">
        <ele>510</ele>
        <time>2021-05-29T14:36:04.722Z</time>
      </trkpt>
      <trkpt lat="46.68814" lon="5.63816">
        <ele>510</ele>
        <time>2021-05-29T14:36:05.722Z</time>
      </trkpt>
      <trkpt lat="46.68814" lon="5.63816">
        <ele>511</ele>
        <time>2021-05-29T14:36:06.722Z</time>
      </trkpt>
      <trkpt lat="46.68814" lon="5.63815">
        <ele>510</ele>
        <time>2021-05-29T14:36:07.722Z</time>
      </trkpt>
      <trkpt lat="46.68813" lon="5.63815">
        <ele>509</ele>
        <time>2021-05-29T14:36:08.722Z</time>
      </trkpt>
      <trkpt lat="46.68814" lon="5.63815">
        <ele>508</ele>
        <time>2021-05-29T14:36:09.722Z</time>
      </trkpt>
      <trkpt lat="46.68814" lon="5.63815">
        <ele>508</ele>
        <time>2021-05-29T14:36:10.721Z</time>
      </trkpt>
      <trkpt lat="46.68814" lon="5.63815">
        <ele>507</ele>
        <time>2021-05-29T14:36:11.722Z</time>
      </trkpt>
      <trkpt lat="46.68814" lon="5.63815">
        <ele>506</ele>
        <time>2021-05-29T14:36:12.722Z</time>
      </trkpt>
      <trkpt lat="46.68814" lon="5.63815">
        <ele>506</ele>
        <time>2021-05-29T14:36:13.722Z</time>
      </trkpt>
      <trkpt lat="46.68814" lon="5.63815">
        <ele>506</ele>
        <time>2021-05-29T14:36:14.722Z</time>
      </trkpt>
      <trkpt lat="46.68814" lon="5.63815">
        <ele>505</ele>
        <time>2021-05-29T14:36:15.722Z</time>
      </trkpt>
      <trkpt lat="46.68814" lon="5.63815">
        <ele>505</ele>
        <time>2021-05-29T14:36:16.722Z</time>
      </trkpt>
      <trkpt lat="46.68814" lon="5.63815">
        <ele>505</ele>
        <time>2021-05-29T14:36:17.722Z</time>
      </trkpt>
      <trkpt lat="46.68814" lon="5.63815">
        <ele>505</ele>
        <time>2021-05-29T14:36:18.722Z</time>
      </trkpt>
      <trkpt lat="46.68814" lon="5.63815">
        <ele>504</ele>
        <time>2021-05-29T14:36:19.721Z</time>
      </trkpt>
      <trkpt lat="46.68814" lon="5.63815">
        <ele>504</ele>
        <time>2021-05-29T14:36:20.722Z</time>
      </trkpt>
      <trkpt lat="46.68814" lon="5.63815">
        <ele>504</ele>
        <time>2021-05-29T14:36:21.722Z</time>
      </trkpt>
      <trkpt lat="46.68814" lon="5.63815">
        <ele>504</ele>
        <time>2021-05-29T14:36:22.722Z</time>
      </trkpt>
      <trkpt lat="46.68814" lon="5.63815">
        <ele>504</ele>
        <time>2021-05-29T14:36:23.722Z</time>
      </trkpt>
      <trkpt lat="46.68814" lon="5.63815">
        <ele>504</ele>
        <time>2021-05-29T14:36:24.722Z</time>
      </trkpt>
      <trkpt lat="46.68814" lon="5.63815">
        <ele>504</ele>
        <time>2021-05-29T14:36:25.722Z</time>
      </trkpt>
      <trkpt lat="46.68814" lon="5.63815">
        <ele>504</ele>
        <time>2021-05-29T14:36:26.721Z</time>
      </trkpt>
      <trkpt lat="46.68814" lon="5.63815">
        <ele>504</ele>
        <time>2021-05-29T14:36:27.721Z</time>
      </trkpt>
      <trkpt lat="46.68814" lon="5.63815">
        <ele>504</ele>
        <time>2021-05-29T14:36:28.722Z</time>
      </trkpt>
      <trkpt lat="46.68814" lon="5.63814">
        <ele>504</ele>
        <time>2021-05-29T14:38:15.262Z</time>
      </trkpt>
      <trkpt lat="46.68815" lon="5.63813">
        <ele>504</ele>
        <time>2021-05-29T14:38:16.262Z</time>
      </trkpt>
      <trkpt lat="46.68815" lon="5.63813">
        <ele>504</ele>
        <time>2021-05-29T14:38:17.261Z</time>
      </trkpt>
      <trkpt lat="46.68816" lon="5.63812">
        <ele>504</ele>
        <time>2021-05-29T14:38:18.262Z</time>
      </trkpt>
      <trkpt lat="46.68817" lon="5.63812">
        <ele>504</ele>
        <time>2021-05-29T14:38:19.262Z</time>
      </trkpt>
      <trkpt lat="46.68817" lon="5.63812">
        <ele>504</ele>
        <time>2021-05-29T14:38:20.261Z</time>
      </trkpt>
      <trkpt lat="46.68817" lon="5.63812">
        <ele>504</ele>
        <time>2021-05-29T14:38:21.262Z</time>
      </trkpt>
      <trkpt lat="46.68817" lon="5.63812">
        <ele>504</ele>
        <time>2021-05-29T14:38:22.262Z</time>
      </trkpt>
      <trkpt lat="46.68817" lon="5.63812">
        <ele>504</ele>
        <time>2021-05-29T14:38:23.262Z</time>
      </trkpt>
      <trkpt lat="46.68817" lon="5.63812">
        <ele>504</ele>
        <time>2021-05-29T14:38:24.262Z</time>
      </trkpt>
      <trkpt lat="46.68817" lon="5.63812">
        <ele>504</ele>
        <time>2021-05-29T14:38:25.262Z</time>
      </trkpt>
      <trkpt lat="46.68818" lon="5.63812">
        <ele>504</ele>
        <time>2021-05-29T14:38:26.262Z</time>
      </trkpt>
      <trkpt lat="46.68818" lon="5.63812">
        <ele>504</ele>
        <time>2021-05-29T14:38:27.262Z</time>
      </trkpt>
      <trkpt lat="46.68818" lon="5.63812">
        <ele>504</ele>
        <time>2021-05-29T14:38:28.261Z</time>
      </trkpt>
      <trkpt lat="46.68818" lon="5.63812">
        <ele>504</ele>
        <time>2021-05-29T14:38:29.262Z</time>
      </trkpt>
      <trkpt lat="46.68818" lon="5.63812">
        <ele>504</ele>
        <time>2021-05-29T14:38:30.262Z</time>
      </trkpt>
      <trkpt lat="46.68818" lon="5.63812">
        <ele>504</ele>
        <time>2021-05-29T14:38:31.261Z</time>
      </trkpt>
      <trkpt lat="46.68818" lon="5.63812">
        <ele>504</ele>
        <time>2021-05-29T14:38:32.261Z</time>
      </trkpt>
      <trkpt lat="46.68818" lon="5.63812">
        <ele>504</ele>
        <time>2021-05-29T14:38:33.261Z</time>
      </trkpt>
      <trkpt lat="46.68818" lon="5.63813">
        <ele>503</ele>
        <time>2021-05-29T14:38:34.262Z</time>
      </trkpt>
      <trkpt lat="46.68818" lon="5.63813">
        <ele>503</ele>
        <time>2021-05-29T14:38:35.261Z</time>
      </trkpt>
      <trkpt lat="46.68818" lon="5.63813">
        <ele>503</ele>
        <time>2021-05-29T14:38:36.262Z</time>
      </trkpt>
      <trkpt lat="46.68818" lon="5.63813">
        <ele>503</ele>
        <time>2021-05-29T14:38:37.262Z</time>
      </trkpt>
      <trkpt lat="46.68818" lon="5.63813">
        <ele>503</ele>
        <time>2021-05-29T14:38:38.262Z</time>
      </trkpt>
      <trkpt lat="46.68818" lon="5.63813">
        <ele>503</ele>
        <time>2021-05-29T14:38:39.262Z</time>
      </trkpt>
      <trkpt lat="46.68818" lon="5.63813">
        <ele>503</ele>
        <time>2021-05-29T14:38:40.261Z</time>
      </trkpt>
      <trkpt lat="46.68818" lon="5.63813">
        <ele>503</ele>
        <time>2021-05-29T14:38:41.261Z</time>
      </trkpt>
      <trkpt lat="46.68818" lon="5.63813">
        <ele>503</ele>
        <time>2021-05-29T14:38:42.262Z</time>
      </trkpt>
      <trkpt lat="46.68818" lon="5.63813">
        <ele>503</ele>
        <time>2021-05-29T14:38:43.261Z</time>
      </trkpt>
      <trkpt lat="46.68818" lon="5.63813">
        <ele>503</ele>
        <time>2021-05-29T14:38:44.261Z</time>
      </trkpt>
      <trkpt lat="46.68818" lon="5.63813">
        <ele>503</ele>
        <time>2021-05-29T14:38:45.262Z</time>
      </trkpt>
      <trkpt lat="46.68818" lon="5.63813">
        <ele>503</ele>
        <time>2021-05-29T14:38:46.262Z</time>
      </trkpt>
      <trkpt lat="46.68818" lon="5.63813">
        <ele>503</ele>
        <time>2021-05-29T14:38:47.261Z</time>
      </trkpt>
      <trkpt lat="46.68818" lon="5.63813">
        <ele>503</ele>
        <time>2021-05-29T14:38:48.262Z</time>
      </trkpt>
      <trkpt lat="46.68818" lon="5.63813">
        <ele>503</ele>
        <time>2021-05-29T14:38:49.262Z</time>
      </trkpt>
      <trkpt lat="46.68818" lon="5.63813">
        <ele>503</ele>
        <time>2021-05-29T14:38:50.261Z</time>
      </trkpt>
      <trkpt lat="46.68818" lon="5.63813">
        <ele>503</ele>
        <time>2021-05-29T14:38:51.261Z</time>
      </trkpt>
      <trkpt lat="46.68818" lon="5.63813">
        <ele>503</ele>
        <time>2021-05-29T14:38:52.262Z</time>
      </trkpt>
      <trkpt lat="46.68818" lon="5.63813">
        <ele>503</ele>
        <time>2021-05-29T14:38:53.262Z</time>
      </trkpt>
      <trkpt lat="46.68818" lon="5.63813">
        <ele>503</ele>
        <time>2021-05-29T14:38:54.262Z</time>
      </trkpt>
      <trkpt lat="46.68818" lon="5.63813">
        <ele>503</ele>
        <time>2021-05-29T14:38:55.262Z</time>
      </trkpt>
      <trkpt lat="46.68818" lon="5.63813">
        <ele>503</ele>
        <time>2021-05-29T14:38:56.261Z</time>
      </trkpt>
      <trkpt lat="46.68818" lon="5.63813">
        <ele>503</ele>
        <time>2021-05-29T14:38:57.261Z</time>
      </trkpt>
      <trkpt lat="46.68818" lon="5.63813">
        <ele>503</ele>
        <time>2021-05-29T14:38:58.262Z</time>
      </trkpt>
      <trkpt lat="46.68818" lon="5.63813">
        <ele>504</ele>
        <time>2021-05-29T14:38:59.262Z</time>
      </trkpt>
      <trkpt lat="46.68818" lon="5.63813">
        <ele>504</ele>
        <time>2021-05-29T14:39:00.262Z</time>
      </trkpt>
      <trkpt lat="46.68818" lon="5.63813">
        <ele>504</ele>
        <time>2021-05-29T14:39:01.262Z</time>
      </trkpt>
      <trkpt lat="46.68818" lon="5.63813">
        <ele>504</ele>
        <time>2021-05-29T14:39:02.262Z</time>
      </trkpt>
      <trkpt lat="46.68818" lon="5.63813">
        <ele>504</ele>
        <time>2021-05-29T14:39:03.262Z</time>
      </trkpt>
      <trkpt lat="46.68818" lon="5.63813">
        <ele>504</ele>
        <time>2021-05-29T14:39:04.262Z</time>
      </trkpt>
      <trkpt lat="46.68818" lon="5.63814">
        <ele>504</ele>
        <time>2021-05-29T14:39:05.262Z</time>
      </trkpt>
      <trkpt lat="46.68818" lon="5.63814">
        <ele>504</ele>
        <time>2021-05-29T14:39:06.262Z</time>
      </trkpt>
      <trkpt lat="46.68818" lon="5.63814">
        <ele>504</ele>
        <time>2021-05-29T14:39:07.261Z</time>
      </trkpt>
      <trkpt lat="46.68818" lon="5.63814">
        <ele>504</ele>
        <time>2021-05-29T14:39:08.261Z</time>
      </trkpt>
      <trkpt lat="46.68818" lon="5.63814">
        <ele>504</ele>
        <time>2021-05-29T14:39:09.262Z</time>
      </trkpt>
      <trkpt lat="46.68818" lon="5.63814">
        <ele>504</ele>
        <time>2021-05-29T14:39:10.262Z</time>
      </trkpt>
      <trkpt lat="46.68818" lon="5.63814">
        <ele>504</ele>
        <time>2021-05-29T14:39:11.261Z</time>
      </trkpt>
      <trkpt lat="46.68818" lon="5.63814">
        <ele>504</ele>
        <time>2021-05-29T14:39:12.262Z</time>
      </trkpt>
      <trkpt lat="46.68818" lon="5.63814">
        <ele>504</ele>
        <time>2021-05-29T14:39:13.261Z</time>
      </trkpt>
      <trkpt lat="46.68818" lon="5.63814">
        <ele>504</ele>
        <time>2021-05-29T14:39:14.262Z</time>
      </trkpt>
      <trkpt lat="46.68818" lon="5.63814">
        <ele>504</ele>
        <time>2021-05-29T14:39:15.262Z</time>
      </trkpt>
      <trkpt lat="46.68818" lon="5.63814">
        <ele>504</ele>
        <time>2021-05-29T14:39:16.262Z</time>
      </trkpt>
      <trkpt lat="46.68818" lon="5.63814">
        <ele>504</ele>
        <time>2021-05-29T14:39:17.262Z</time>
      </trkpt>
      <trkpt lat="46.68818" lon="5.63814">
        <ele>504</ele>
        <time>2021-05-29T14:39:18.262Z</time>
      </trkpt>
      <trkpt lat="46.68811" lon="5.63847">
        <ele>504</ele>
        <time>2021-05-29T14:39:19.263Z</time>
      </trkpt>
      <trkpt lat="46.68811" lon="5.63848">
        <ele>504</ele>
        <time>2021-05-29T14:39:20.263Z</time>
      </trkpt>
      <trkpt lat="46.68811" lon="5.6385">
        <ele>503</ele>
        <time>2021-05-29T14:39:21.262Z</time>
      </trkpt>
      <trkpt lat="46.6881" lon="5.63853">
        <ele>503</ele>
        <time>2021-05-29T14:39:22.263Z</time>
      </trkpt>
      <trkpt lat="46.6881" lon="5.63855">
        <ele>504</ele>
        <time>2021-05-29T14:39:23.262Z</time>
      </trkpt>
      <trkpt lat="46.6881" lon="5.63858">
        <ele>504</ele>
        <time>2021-05-29T14:39:24.262Z</time>
      </trkpt>
      <trkpt lat="46.6881" lon="5.6386">
        <ele>504</ele>
        <time>2021-05-29T14:39:25.263Z</time>
      </trkpt>
      <trkpt lat="46.6881" lon="5.63863">
        <ele>504</ele>
        <time>2021-05-29T14:39:26.263Z</time>
      </trkpt>
      <trkpt lat="46.68809" lon="5.63865">
        <ele>505</ele>
        <time>2021-05-29T14:39:27.262Z</time>
      </trkpt>
      <trkpt lat="46.68809" lon="5.63868">
        <ele>505</ele>
        <time>2021-05-29T14:39:28.263Z</time>
      </trkpt>
      <trkpt lat="46.68808" lon="5.6387">
        <ele>505</ele>
        <time>2021-05-29T14:39:29.263Z</time>
      </trkpt>
      <trkpt lat="46.68808" lon="5.63872">
        <ele>505</ele>
        <time>2021-05-29T14:39:30.262Z</time>
      </trkpt>
      <trkpt lat="46.68808" lon="5.63875">
        <ele>505</ele>
        <time>2021-05-29T14:39:31.262Z</time>
      </trkpt>
      <trkpt lat="46.68807" lon="5.63878">
        <ele>505</ele>
        <time>2021-05-29T14:39:32.263Z</time>
      </trkpt>
      <trkpt lat="46.68807" lon="5.63881">
        <ele>505</ele>
        <time>2021-05-29T14:39:33.263Z</time>
      </trkpt>
      <trkpt lat="46.68807" lon="5.63884">
        <ele>504</ele>
        <time>2021-05-29T14:39:34.262Z</time>
      </trkpt>
      <trkpt lat="46.68807" lon="5.63887">
        <ele>504</ele>
        <time>2021-05-29T14:39:35.263Z</time>
      </trkpt>
      <trkpt lat="46.68807" lon="5.63891">
        <ele>505</ele>
        <time>2021-05-29T14:39:36.263Z</time>
      </trkpt>
      <trkpt lat="46.68807" lon="5.63894">
        <ele>505</ele>
        <time>2021-05-29T14:39:37.263Z</time>
      </trkpt>
      <trkpt lat="46.68806" lon="5.63898">
        <ele>505</ele>
        <time>2021-05-29T14:39:38.262Z</time>
      </trkpt>
      <trkpt lat="46.68806" lon="5.63902">
        <ele>505</ele>
        <time>2021-05-29T14:39:39.263Z</time>
      </trkpt>
      <trkpt lat="46.68806" lon="5.63905">
        <ele>506</ele>
        <time>2021-05-29T14:39:40.263Z</time>
      </trkpt>
      <trkpt lat="46.68806" lon="5.63908">
        <ele>506</ele>
        <time>2021-05-29T14:39:41.263Z</time>
      </trkpt>
      <trkpt lat="46.68805" lon="5.6391">
        <ele>507</ele>
        <time>2021-05-29T14:39:42.262Z</time>
      </trkpt>
      <trkpt lat="46.68804" lon="5.63913">
        <ele>507</ele>
        <time>2021-05-29T14:39:43.263Z</time>
      </trkpt>
      <trkpt lat="46.68804" lon="5.63916">
        <ele>507</ele>
        <time>2021-05-29T14:39:44.262Z</time>
      </trkpt>
      <trkpt lat="46.68803" lon="5.63919">
        <ele>508</ele>
        <time>2021-05-29T14:39:45.262Z</time>
      </trkpt>
      <trkpt lat="46.68803" lon="5.63921">
        <ele>508</ele>
        <time>2021-05-29T14:39:46.262Z</time>
      </trkpt>
      <trkpt lat="46.68802" lon="5.63923">
        <ele>508</ele>
        <time>2021-05-29T14:39:47.263Z</time>
      </trkpt>
      <trkpt lat="46.68801" lon="5.63925">
        <ele>508</ele>
        <time>2021-05-29T14:39:48.262Z</time>
      </trkpt>
      <trkpt lat="46.68801" lon="5.63926">
        <ele>508</ele>
        <time>2021-05-29T14:39:49.262Z</time>
      </trkpt>
      <trkpt lat="46.688" lon="5.63926">
        <ele>508</ele>
        <time>2021-05-29T14:39:50.262Z</time>
      </trkpt>
      <trkpt lat="46.68799" lon="5.63927">
        <ele>508</ele>
        <time>2021-05-29T14:39:51.263Z</time>
      </trkpt>
      <trkpt lat="46.68799" lon="5.63928">
        <ele>508</ele>
        <time>2021-05-29T14:39:52.262Z</time>
      </trkpt>
      <trkpt lat="46.68798" lon="5.63931">
        <ele>508</ele>
        <time>2021-05-29T14:39:53.262Z</time>
      </trkpt>
      <trkpt lat="46.68798" lon="5.63934">
        <ele>508</ele>
        <time>2021-05-29T14:39:54.263Z</time>
      </trkpt>
      <trkpt lat="46.68797" lon="5.63937">
        <ele>508</ele>
        <time>2021-05-29T14:39:55.262Z</time>
      </trkpt>
      <trkpt lat="46.68796" lon="5.63941">
        <ele>508</ele>
        <time>2021-05-29T14:39:56.262Z</time>
      </trkpt>
      <trkpt lat="46.68795" lon="5.63943">
        <ele>508</ele>
        <time>2021-05-29T14:39:57.262Z</time>
      </trkpt>
      <trkpt lat="46.68795" lon="5.63946">
        <ele>508</ele>
        <time>2021-05-29T14:39:58.263Z</time>
      </trkpt>
      <trkpt lat="46.68794" lon="5.63948">
        <ele>508</ele>
        <time>2021-05-29T14:39:59.263Z</time>
      </trkpt>
      <trkpt lat="46.68794" lon="5.63951">
        <ele>508</ele>
        <time>2021-05-29T14:40:00.262Z</time>
      </trkpt>
      <trkpt lat="46.68794" lon="5.63954">
        <ele>508</ele>
        <time>2021-05-29T14:40:01.263Z</time>
      </trkpt>
      <trkpt lat="46.68794" lon="5.63957">
        <ele>507</ele>
        <time>2021-05-29T14:40:02.263Z</time>
      </trkpt>
      <trkpt lat="46.68793" lon="5.63961">
        <ele>507</ele>
        <time>2021-05-29T14:40:03.263Z</time>
      </trkpt>
      <trkpt lat="46.68793" lon="5.63964">
        <ele>507</ele>
        <time>2021-05-29T14:40:04.263Z</time>
      </trkpt>
      <trkpt lat="46.68794" lon="5.63968">
        <ele>507</ele>
        <time>2021-05-29T14:40:05.263Z</time>
      </trkpt>
      <trkpt lat="46.68794" lon="5.63971">
        <ele>507</ele>
        <time>2021-05-29T14:40:06.263Z</time>
      </trkpt>
      <trkpt lat="46.68794" lon="5.63973">
        <ele>507</ele>
        <time>2021-05-29T14:40:07.263Z</time>
      </trkpt>
      <trkpt lat="46.68794" lon="5.63974">
        <ele>507</ele>
        <time>2021-05-29T14:40:08.263Z</time>
      </trkpt>
      <trkpt lat="46.68795" lon="5.63976">
        <ele>507</ele>
        <time>2021-05-29T14:40:09.262Z</time>
      </trkpt>
      <trkpt lat="46.68795" lon="5.63976">
        <ele>508</ele>
        <time>2021-05-29T14:40:10.263Z</time>
      </trkpt>
      <trkpt lat="46.68796" lon="5.63977">
        <ele>509</ele>
        <time>2021-05-29T14:40:11.262Z</time>
      </trkpt>
      <trkpt lat="46.68795" lon="5.63977">
        <ele>509</ele>
        <time>2021-05-29T14:40:12.262Z</time>
      </trkpt>
      <trkpt lat="46.68795" lon="5.63977">
        <ele>508</ele>
        <time>2021-05-29T14:40:13.263Z</time>
      </trkpt>
      <trkpt lat="46.68795" lon="5.63977">
        <ele>508</ele>
        <time>2021-05-29T14:40:14.262Z</time>
      </trkpt>
      <trkpt lat="46.68795" lon="5.63977">
        <ele>508</ele>
        <time>2021-05-29T14:40:15.263Z</time>
      </trkpt>
      <trkpt lat="46.68795" lon="5.63978">
        <ele>508</ele>
        <time>2021-05-29T14:40:16.262Z</time>
      </trkpt>
      <trkpt lat="46.68795" lon="5.63979">
        <ele>508</ele>
        <time>2021-05-29T14:40:17.263Z</time>
      </trkpt>
      <trkpt lat="46.68794" lon="5.63979">
        <ele>508</ele>
        <time>2021-05-29T14:40:18.263Z</time>
      </trkpt>
      <trkpt lat="46.68794" lon="5.63979">
        <ele>507</ele>
        <time>2021-05-29T14:40:19.263Z</time>
      </trkpt>
      <trkpt lat="46.68794" lon="5.63978">
        <ele>507</ele>
        <time>2021-05-29T14:40:20.262Z</time>
      </trkpt>
      <trkpt lat="46.68794" lon="5.63979">
        <ele>507</ele>
        <time>2021-05-29T14:40:21.263Z</time>
      </trkpt>
      <trkpt lat="46.68794" lon="5.6398">
        <ele>508</ele>
        <time>2021-05-29T14:40:22.262Z</time>
      </trkpt>
      <trkpt lat="46.68794" lon="5.63981">
        <ele>508</ele>
        <time>2021-05-29T14:40:23.263Z</time>
      </trkpt>
      <trkpt lat="46.68794" lon="5.63983">
        <ele>508</ele>
        <time>2021-05-29T14:40:24.263Z</time>
      </trkpt>
      <trkpt lat="46.68794" lon="5.63984">
        <ele>508</ele>
        <time>2021-05-29T14:40:25.263Z</time>
      </trkpt>
      <trkpt lat="46.68795" lon="5.63986">
        <ele>509</ele>
        <time>2021-05-29T14:40:26.262Z</time>
      </trkpt>
      <trkpt lat="46.68796" lon="5.63989">
        <ele>509</ele>
        <time>2021-05-29T14:40:27.263Z</time>
      </trkpt>
      <trkpt lat="46.68796" lon="5.63991">
        <ele>509</ele>
        <time>2021-05-29T14:40:28.263Z</time>
      </trkpt>
      <trkpt lat="46.68798" lon="5.63994">
        <ele>509</ele>
        <time>2021-05-29T14:40:29.262Z</time>
      </trkpt>
      <trkpt lat="46.68799" lon="5.63997">
        <ele>509</ele>
        <time>2021-05-29T14:40:30.262Z</time>
      </trkpt>
      <trkpt lat="46.68799" lon="5.64001">
        <ele>509</ele>
        <time>2021-05-29T14:40:31.262Z</time>
      </trkpt>
      <trkpt lat="46.688" lon="5.64004">
        <ele>509</ele>
        <time>2021-05-29T14:40:32.263Z</time>
      </trkpt>
      <trkpt lat="46.68801" lon="5.64007">
        <ele>510</ele>
        <time>2021-05-29T14:40:33.262Z</time>
      </trkpt>
      <trkpt lat="46.68803" lon="5.6401">
        <ele>510</ele>
        <time>2021-05-29T14:40:34.263Z</time>
      </trkpt>
      <trkpt lat="46.68803" lon="5.64013">
        <ele>510</ele>
        <time>2021-05-29T14:40:35.262Z</time>
      </trkpt>
      <trkpt lat="46.68804" lon="5.64017">
        <ele>510</ele>
        <time>2021-05-29T14:40:36.263Z</time>
      </trkpt>
      <trkpt lat="46.68805" lon="5.6402">
        <ele>510</ele>
        <time>2021-05-29T14:40:37.262Z</time>
      </trkpt>
      <trkpt lat="46.68805" lon="5.64023">
        <ele>510</ele>
        <time>2021-05-29T14:40:38.263Z</time>
      </trkpt>
      <trkpt lat="46.68806" lon="5.64026">
        <ele>509</ele>
        <time>2021-05-29T14:40:39.262Z</time>
      </trkpt>
      <trkpt lat="46.68807" lon="5.64029">
        <ele>509</ele>
        <time>2021-05-29T14:40:40.262Z</time>
      </trkpt>
      <trkpt lat="46.68807" lon="5.64032">
        <ele>509</ele>
        <time>2021-05-29T14:40:41.262Z</time>
      </trkpt>
      <trkpt lat="46.68808" lon="5.64034">
        <ele>509</ele>
        <time>2021-05-29T14:40:42.263Z</time>
      </trkpt>
      <trkpt lat="46.68808" lon="5.64038">
        <ele>510</ele>
        <time>2021-05-29T14:40:43.263Z</time>
      </trkpt>
      <trkpt lat="46.68809" lon="5.64041">
        <ele>510</ele>
        <time>2021-05-29T14:40:44.262Z</time>
      </trkpt>
      <trkpt lat="46.68809" lon="5.64044">
        <ele>510</ele>
        <time>2021-05-29T14:40:45.262Z</time>
      </trkpt>
      <trkpt lat="46.6881" lon="5.64048">
        <ele>510</ele>
        <time>2021-05-29T14:40:46.262Z</time>
      </trkpt>
      <trkpt lat="46.68811" lon="5.64051">
        <ele>510</ele>
        <time>2021-05-29T14:40:47.263Z</time>
      </trkpt>
      <trkpt lat="46.68812" lon="5.64055">
        <ele>510</ele>
        <time>2021-05-29T14:40:48.263Z</time>
      </trkpt>
      <trkpt lat="46.68813" lon="5.64058">
        <ele>509</ele>
        <time>2021-05-29T14:40:49.262Z</time>
      </trkpt>
      <trkpt lat="46.68814" lon="5.64061">
        <ele>509</ele>
        <time>2021-05-29T14:40:50.262Z</time>
      </trkpt>
      <trkpt lat="46.68815" lon="5.64065">
        <ele>509</ele>
        <time>2021-05-29T14:40:51.262Z</time>
      </trkpt>
      <trkpt lat="46.68815" lon="5.64069">
        <ele>509</ele>
        <time>2021-05-29T14:40:52.263Z</time>
      </trkpt>
      <trkpt lat="46.68815" lon="5.64072">
        <ele>509</ele>
        <time>2021-05-29T14:40:53.262Z</time>
      </trkpt>
      <trkpt lat="46.68816" lon="5.64076">
        <ele>508</ele>
        <time>2021-05-29T14:40:54.262Z</time>
      </trkpt>
      <trkpt lat="46.68817" lon="5.64079">
        <ele>508</ele>
        <time>2021-05-29T14:40:55.263Z</time>
      </trkpt>
      <trkpt lat="46.68817" lon="5.64081">
        <ele>507</ele>
        <time>2021-05-29T14:40:56.263Z</time>
      </trkpt>
      <trkpt lat="46.68818" lon="5.64084">
        <ele>507</ele>
        <time>2021-05-29T14:40:57.262Z</time>
      </trkpt>
      <trkpt lat="46.68818" lon="5.64087">
        <ele>507</ele>
        <time>2021-05-29T14:40:58.262Z</time>
      </trkpt>
      <trkpt lat="46.68819" lon="5.6409">
        <ele>506</ele>
        <time>2021-05-29T14:40:59.263Z</time>
      </trkpt>
      <trkpt lat="46.6882" lon="5.64093">
        <ele>506</ele>
        <time>2021-05-29T14:41:00.262Z</time>
      </trkpt>
      <trkpt lat="46.68821" lon="5.64097">
        <ele>506</ele>
        <time>2021-05-29T14:41:01.262Z</time>
      </trkpt>
      <trkpt lat="46.68821" lon="5.641">
        <ele>506</ele>
        <time>2021-05-29T14:41:02.262Z</time>
      </trkpt>
      <trkpt lat="46.68822" lon="5.64103">
        <ele>506</ele>
        <time>2021-05-29T14:41:03.263Z</time>
      </trkpt>
      <trkpt lat="46.68823" lon="5.64106">
        <ele>506</ele>
        <time>2021-05-29T14:41:04.262Z</time>
      </trkpt>
      <trkpt lat="46.68823" lon="5.64109">
        <ele>507</ele>
        <time>2021-05-29T14:41:05.262Z</time>
      </trkpt>
      <trkpt lat="46.68823" lon="5.64113">
        <ele>507</ele>
        <time>2021-05-29T14:41:06.262Z</time>
      </trkpt>
      <trkpt lat="46.68824" lon="5.64116">
        <ele>507</ele>
        <time>2021-05-29T14:41:07.263Z</time>
      </trkpt>
      <trkpt lat="46.68824" lon="5.64119">
        <ele>507</ele>
        <time>2021-05-29T14:41:08.262Z</time>
      </trkpt>
      <trkpt lat="46.68825" lon="5.64121">
        <ele>507</ele>
        <time>2021-05-29T14:41:09.262Z</time>
      </trkpt>
      <trkpt lat="46.68825" lon="5.64123">
        <ele>507</ele>
        <time>2021-05-29T14:41:10.262Z</time>
      </trkpt>
      <trkpt lat="46.68826" lon="5.64123">
        <ele>507</ele>
        <time>2021-05-29T14:41:11.262Z</time>
      </trkpt>
      <trkpt lat="46.68827" lon="5.64123">
        <ele>507</ele>
        <time>2021-05-29T14:41:12.263Z</time>
      </trkpt>
      <trkpt lat="46.68829" lon="5.64123">
        <ele>506</ele>
        <time>2021-05-29T14:41:13.263Z</time>
      </trkpt>
      <trkpt lat="46.68831" lon="5.64121">
        <ele>506</ele>
        <time>2021-05-29T14:41:14.262Z</time>
      </trkpt>
      <trkpt lat="46.68832" lon="5.64119">
        <ele>506</ele>
        <time>2021-05-29T14:41:15.262Z</time>
      </trkpt>
      <trkpt lat="46.68833" lon="5.64116">
        <ele>506</ele>
        <time>2021-05-29T14:41:16.262Z</time>
      </trkpt>
      <trkpt lat="46.68834" lon="5.64115">
        <ele>506</ele>
        <time>2021-05-29T14:41:17.263Z</time>
      </trkpt>
      <trkpt lat="46.68835" lon="5.64113">
        <ele>506</ele>
        <time>2021-05-29T14:41:18.263Z</time>
      </trkpt>
      <trkpt lat="46.68836" lon="5.64111">
        <ele>506</ele>
        <time>2021-05-29T14:41:19.262Z</time>
      </trkpt>
      <trkpt lat="46.68838" lon="5.6411">
        <ele>507</ele>
        <time>2021-05-29T14:41:20.263Z</time>
      </trkpt>
      <trkpt lat="46.68839" lon="5.64108">
        <ele>507</ele>
        <time>2021-05-29T14:41:21.262Z</time>
      </trkpt>
      <trkpt lat="46.68841" lon="5.64107">
        <ele>507</ele>
        <time>2021-05-29T14:41:22.263Z</time>
      </trkpt>
      <trkpt lat="46.68842" lon="5.64106">
        <ele>507</ele>
        <time>2021-05-29T14:41:23.263Z</time>
      </trkpt>
      <trkpt lat="46.68843" lon="5.64104">
        <ele>507</ele>
        <time>2021-05-29T14:41:24.262Z</time>
      </trkpt>
      <trkpt lat="46.68844" lon="5.64102">
        <ele>508</ele>
        <time>2021-05-29T14:41:25.263Z</time>
      </trkpt>
      <trkpt lat="46.68846" lon="5.641">
        <ele>508</ele>
        <time>2021-05-29T14:41:26.262Z</time>
      </trkpt>
      <trkpt lat="46.68847" lon="5.64099">
        <ele>508</ele>
        <time>2021-05-29T14:41:27.262Z</time>
      </trkpt>
      <trkpt lat="46.68849" lon="5.64097">
        <ele>508</ele>
        <time>2021-05-29T14:41:28.263Z</time>
      </trkpt>
      <trkpt lat="46.6885" lon="5.64096">
        <ele>508</ele>
        <time>2021-05-29T14:41:29.262Z</time>
      </trkpt>
      <trkpt lat="46.6885" lon="5.64096">
        <ele>508</ele>
        <time>2021-05-29T14:41:30.262Z</time>
      </trkpt>
      <trkpt lat="46.68851" lon="5.64095">
        <ele>508</ele>
        <time>2021-05-29T14:41:31.262Z</time>
      </trkpt>
      <trkpt lat="46.68851" lon="5.64094">
        <ele>508</ele>
        <time>2021-05-29T14:41:32.263Z</time>
      </trkpt>
      <trkpt lat="46.6885" lon="5.64092">
        <ele>509</ele>
        <time>2021-05-29T14:41:33.263Z</time>
      </trkpt>
      <trkpt lat="46.68849" lon="5.6409">
        <ele>509</ele>
        <time>2021-05-29T14:41:34.262Z</time>
      </trkpt>
      <trkpt lat="46.68848" lon="5.6409">
        <ele>509</ele>
        <time>2021-05-29T14:41:35.262Z</time>
      </trkpt>
      <trkpt lat="46.68848" lon="5.6409">
        <ele>510</ele>
        <time>2021-05-29T14:41:36.263Z</time>
      </trkpt>
      <trkpt lat="46.68847" lon="5.64089">
        <ele>510</ele>
        <time>2021-05-29T14:41:37.262Z</time>
      </trkpt>
      <trkpt lat="46.68847" lon="5.64089">
        <ele>511</ele>
        <time>2021-05-29T14:41:38.262Z</time>
      </trkpt>
      <trkpt lat="46.68846" lon="5.64089">
        <ele>511</ele>
        <time>2021-05-29T14:41:39.263Z</time>
      </trkpt>
      <trkpt lat="46.68846" lon="5.64089">
        <ele>511</ele>
        <time>2021-05-29T14:41:40.263Z</time>
      </trkpt>
      <trkpt lat="46.68846" lon="5.6409">
        <ele>511</ele>
        <time>2021-05-29T14:41:41.263Z</time>
      </trkpt>
      <trkpt lat="46.68845" lon="5.64092">
        <ele>511</ele>
        <time>2021-05-29T14:41:42.262Z</time>
      </trkpt>
      <trkpt lat="46.68845" lon="5.64093">
        <ele>510</ele>
        <time>2021-05-29T14:41:43.262Z</time>
      </trkpt>
      <trkpt lat="46.68844" lon="5.64094">
        <ele>510</ele>
        <time>2021-05-29T14:41:44.262Z</time>
      </trkpt>
      <trkpt lat="46.68843" lon="5.64096">
        <ele>509</ele>
        <time>2021-05-29T14:41:45.262Z</time>
      </trkpt>
      <trkpt lat="46.68843" lon="5.64097">
        <ele>508</ele>
        <time>2021-05-29T14:41:46.262Z</time>
      </trkpt>
      <trkpt lat="46.68842" lon="5.64098">
        <ele>507</ele>
        <time>2021-05-29T14:41:47.262Z</time>
      </trkpt>
      <trkpt lat="46.68841" lon="5.641">
        <ele>507</ele>
        <time>2021-05-29T14:41:48.262Z</time>
      </trkpt>
      <trkpt lat="46.6884" lon="5.64101">
        <ele>507</ele>
        <time>2021-05-29T14:41:49.262Z</time>
      </trkpt>
      <trkpt lat="46.68839" lon="5.64103">
        <ele>507</ele>
        <time>2021-05-29T14:41:50.263Z</time>
      </trkpt>
      <trkpt lat="46.68838" lon="5.64104">
        <ele>507</ele>
        <time>2021-05-29T14:41:51.263Z</time>
      </trkpt>
      <trkpt lat="46.68837" lon="5.64106">
        <ele>508</ele>
        <time>2021-05-29T14:41:52.263Z</time>
      </trkpt>
      <trkpt lat="46.68836" lon="5.64108">
        <ele>508</ele>
        <time>2021-05-29T14:41:53.262Z</time>
      </trkpt>
      <trkpt lat="46.68835" lon="5.6411">
        <ele>508</ele>
        <time>2021-05-29T14:41:54.263Z</time>
      </trkpt>
      <trkpt lat="46.68833" lon="5.64112">
        <ele>507</ele>
        <time>2021-05-29T14:41:55.263Z</time>
      </trkpt>
      <trkpt lat="46.68831" lon="5.64115">
        <ele>507</ele>
        <time>2021-05-29T14:41:56.263Z</time>
      </trkpt>
      <trkpt lat="46.6883" lon="5.64117">
        <ele>506</ele>
        <time>2021-05-29T14:41:57.262Z</time>
      </trkpt>
      <trkpt lat="46.68828" lon="5.64119">
        <ele>506</ele>
        <time>2021-05-29T14:41:58.262Z</time>
      </trkpt>
      <trkpt lat="46.68826" lon="5.6412">
        <ele>506</ele>
        <time>2021-05-29T14:41:59.263Z</time>
      </trkpt>
      <trkpt lat="46.68824" lon="5.64122">
        <ele>507</ele>
        <time>2021-05-29T14:42:00.263Z</time>
      </trkpt>
      <trkpt lat="46.68824" lon="5.64124">
        <ele>507</ele>
        <time>2021-05-29T14:42:01.263Z</time>
      </trkpt>
      <trkpt lat="46.68823" lon="5.64126">
        <ele>506</ele>
        <time>2021-05-29T14:42:02.262Z</time>
      </trkpt>
      <trkpt lat="46.68823" lon="5.64129">
        <ele>506</ele>
        <time>2021-05-29T14:42:03.263Z</time>
      </trkpt>
      <trkpt lat="46.68823" lon="5.64133">
        <ele>505</ele>
        <time>2021-05-29T14:42:04.263Z</time>
      </trkpt>
      <trkpt lat="46.68824" lon="5.64137">
        <ele>505</ele>
        <time>2021-05-29T14:42:05.263Z</time>
      </trkpt>
      <trkpt lat="46.68825" lon="5.64141">
        <ele>504</ele>
        <time>2021-05-29T14:42:06.263Z</time>
      </trkpt>
      <trkpt lat="46.68826" lon="5.64145">
        <ele>504</ele>
        <time>2021-05-29T14:42:07.263Z</time>
      </trkpt>
      <trkpt lat="46.68827" lon="5.64148">
        <ele>504</ele>
        <time>2021-05-29T14:42:08.263Z</time>
      </trkpt>
      <trkpt lat="46.68828" lon="5.6415">
        <ele>504</ele>
        <time>2021-05-29T14:42:09.263Z</time>
      </trkpt>
      <trkpt lat="46.68828" lon="5.64153">
        <ele>503</ele>
        <time>2021-05-29T14:42:10.263Z</time>
      </trkpt>
      <trkpt lat="46.68829" lon="5.64156">
        <ele>503</ele>
        <time>2021-05-29T14:42:11.263Z</time>
      </trkpt>
      <trkpt lat="46.68829" lon="5.64159">
        <ele>502</ele>
        <time>2021-05-29T14:42:12.262Z</time>
      </trkpt>
      <trkpt lat="46.6883" lon="5.64162">
        <ele>502</ele>
        <time>2021-05-29T14:42:13.262Z</time>
      </trkpt>
      <trkpt lat="46.6883" lon="5.64165">
        <ele>503</ele>
        <time>2021-05-29T14:42:14.263Z</time>
      </trkpt>
      <trkpt lat="46.68831" lon="5.64169">
        <ele>503</ele>
        <time>2021-05-29T14:42:15.263Z</time>
      </trkpt>
      <trkpt lat="46.68831" lon="5.64171">
        <ele>504</ele>
        <time>2021-05-29T14:42:16.263Z</time>
      </trkpt>
      <trkpt lat="46.68832" lon="5.64174">
        <ele>504</ele>
        <time>2021-05-29T14:42:17.262Z</time>
      </trkpt>
      <trkpt lat="46.68832" lon="5.64177">
        <ele>505</ele>
        <time>2021-05-29T14:42:18.263Z</time>
      </trkpt>
      <trkpt lat="46.68833" lon="5.64179">
        <ele>505</ele>
        <time>2021-05-29T14:42:19.263Z</time>
      </trkpt>
      <trkpt lat="46.68833" lon="5.64182">
        <ele>505</ele>
        <time>2021-05-29T14:42:20.263Z</time>
      </trkpt>
      <trkpt lat="46.68833" lon="5.64185">
        <ele>505</ele>
        <time>2021-05-29T14:42:21.263Z</time>
      </trkpt>
      <trkpt lat="46.68833" lon="5.64187">
        <ele>505</ele>
        <time>2021-05-29T14:42:22.263Z</time>
      </trkpt>
      <trkpt lat="46.68834" lon="5.6419">
        <ele>505</ele>
        <time>2021-05-29T14:42:23.263Z</time>
      </trkpt>
      <trkpt lat="46.68834" lon="5.64193">
        <ele>505</ele>
        <time>2021-05-29T14:42:24.263Z</time>
      </trkpt>
      <trkpt lat="46.68834" lon="5.64196">
        <ele>505</ele>
        <time>2021-05-29T14:42:25.263Z</time>
      </trkpt>
      <trkpt lat="46.68833" lon="5.64199">
        <ele>505</ele>
        <time>2021-05-29T14:42:26.263Z</time>
      </trkpt>
      <trkpt lat="46.68833" lon="5.64201">
        <ele>505</ele>
        <time>2021-05-29T14:42:27.263Z</time>
      </trkpt>
      <trkpt lat="46.68833" lon="5.64204">
        <ele>504</ele>
        <time>2021-05-29T14:42:28.263Z</time>
      </trkpt>
      <trkpt lat="46.68833" lon="5.64206">
        <ele>504</ele>
        <time>2021-05-29T14:42:29.263Z</time>
      </trkpt>
      <trkpt lat="46.68833" lon="5.6421">
        <ele>504</ele>
        <time>2021-05-29T14:42:30.263Z</time>
      </trkpt>
      <trkpt lat="46.68833" lon="5.64213">
        <ele>504</ele>
        <time>2021-05-29T14:42:31.263Z</time>
      </trkpt>
      <trkpt lat="46.68833" lon="5.64216">
        <ele>504</ele>
        <time>2021-05-29T14:42:32.262Z</time>
      </trkpt>
      <trkpt lat="46.68833" lon="5.64218">
        <ele>505</ele>
        <time>2021-05-29T14:42:33.263Z</time>
      </trkpt>
      <trkpt lat="46.68832" lon="5.64221">
        <ele>505</ele>
        <time>2021-05-29T14:42:34.263Z</time>
      </trkpt>
      <trkpt lat="46.68832" lon="5.64225">
        <ele>505</ele>
        <time>2021-05-29T14:42:35.262Z</time>
      </trkpt>
      <trkpt lat="46.68832" lon="5.64228">
        <ele>506</ele>
        <time>2021-05-29T14:42:36.263Z</time>
      </trkpt>
      <trkpt lat="46.68832" lon="5.64231">
        <ele>506</ele>
        <time>2021-05-29T14:42:37.263Z</time>
      </trkpt>
      <trkpt lat="46.68832" lon="5.64233">
        <ele>506</ele>
        <time>2021-05-29T14:42:38.262Z</time>
      </trkpt>
      <trkpt lat="46.68833" lon="5.64235">
        <ele>506</ele>
        <time>2021-05-29T14:42:39.263Z</time>
      </trkpt>
      <trkpt lat="46.68834" lon="5.64237">
        <ele>506</ele>
        <time>2021-05-29T14:42:40.263Z</time>
      </trkpt>
      <trkpt lat="46.68835" lon="5.64238">
        <ele>505</ele>
        <time>2021-05-29T14:42:41.263Z</time>
      </trkpt>
      <trkpt lat="46.68837" lon="5.6424">
        <ele>505</ele>
        <time>2021-05-29T14:42:42.263Z</time>
      </trkpt>
      <trkpt lat="46.68839" lon="5.6424">
        <ele>505</ele>
        <time>2021-05-29T14:42:43.263Z</time>
      </trkpt>
      <trkpt lat="46.6884" lon="5.6424">
        <ele>505</ele>
        <time>2021-05-29T14:42:44.263Z</time>
      </trkpt>
      <trkpt lat="46.68841" lon="5.6424">
        <ele>506</ele>
        <time>2021-05-29T14:42:45.263Z</time>
      </trkpt>
      <trkpt lat="46.68843" lon="5.6424">
        <ele>506</ele>
        <time>2021-05-29T14:42:46.262Z</time>
      </trkpt>
      <trkpt lat="46.68844" lon="5.6424">
        <ele>506</ele>
        <time>2021-05-29T14:42:47.263Z</time>
      </trkpt>
      <trkpt lat="46.68846" lon="5.6424">
        <ele>506</ele>
        <time>2021-05-29T14:42:48.263Z</time>
      </trkpt>
      <trkpt lat="46.68848" lon="5.6424">
        <ele>506</ele>
        <time>2021-05-29T14:42:49.263Z</time>
      </trkpt>
      <trkpt lat="46.6885" lon="5.6424">
        <ele>506</ele>
        <time>2021-05-29T14:42:50.263Z</time>
      </trkpt>
      <trkpt lat="46.68852" lon="5.6424">
        <ele>507</ele>
        <time>2021-05-29T14:42:51.263Z</time>
      </trkpt>
      <trkpt lat="46.68855" lon="5.64241">
        <ele>507</ele>
        <time>2021-05-29T14:42:52.263Z</time>
      </trkpt>
      <trkpt lat="46.68857" lon="5.64242">
        <ele>507</ele>
        <time>2021-05-29T14:42:53.263Z</time>
      </trkpt>
      <trkpt lat="46.68858" lon="5.64243">
        <ele>507</ele>
        <time>2021-05-29T14:42:54.262Z</time>
      </trkpt>
      <trkpt lat="46.68859" lon="5.64245">
        <ele>508</ele>
        <time>2021-05-29T14:42:55.263Z</time>
      </trkpt>
      <trkpt lat="46.6886" lon="5.64247">
        <ele>508</ele>
        <time>2021-05-29T14:42:56.263Z</time>
      </trkpt>
      <trkpt lat="46.68861" lon="5.64248">
        <ele>508</ele>
        <time>2021-05-29T14:42:57.262Z</time>
      </trkpt>
      <trkpt lat="46.68863" lon="5.64249">
        <ele>509</ele>
        <time>2021-05-29T14:42:58.263Z</time>
      </trkpt>
      <trkpt lat="46.68864" lon="5.64251">
        <ele>509</ele>
        <time>2021-05-29T14:42:59.263Z</time>
      </trkpt>
      <trkpt lat="46.68866" lon="5.64252">
        <ele>510</ele>
        <time>2021-05-29T14:43:00.263Z</time>
      </trkpt>
      <trkpt lat="46.68867" lon="5.64254">
        <ele>510</ele>
        <time>2021-05-29T14:43:01.263Z</time>
      </trkpt>
      <trkpt lat="46.68869" lon="5.64255">
        <ele>511</ele>
        <time>2021-05-29T14:43:02.262Z</time>
      </trkpt>
      <trkpt lat="46.6887" lon="5.64256">
        <ele>511</ele>
        <time>2021-05-29T14:43:03.262Z</time>
      </trkpt>
      <trkpt lat="46.68872" lon="5.64258">
        <ele>511</ele>
        <time>2021-05-29T14:43:04.263Z</time>
      </trkpt>
      <trkpt lat="46.68874" lon="5.6426">
        <ele>511</ele>
        <time>2021-05-29T14:43:05.263Z</time>
      </trkpt>
      <trkpt lat="46.68876" lon="5.64261">
        <ele>511</ele>
        <time>2021-05-29T14:43:06.263Z</time>
      </trkpt>
      <trkpt lat="46.68878" lon="5.64262">
        <ele>511</ele>
        <time>2021-05-29T14:43:07.262Z</time>
      </trkpt>
      <trkpt lat="46.68879" lon="5.64263">
        <ele>511</ele>
        <time>2021-05-29T14:43:08.263Z</time>
      </trkpt>
      <trkpt lat="46.68881" lon="5.64264">
        <ele>511</ele>
        <time>2021-05-29T14:43:09.263Z</time>
      </trkpt>
      <trkpt lat="46.68882" lon="5.64265">
        <ele>511</ele>
        <time>2021-05-29T14:43:10.263Z</time>
      </trkpt>
      <trkpt lat="46.68884" lon="5.64264">
        <ele>512</ele>
        <time>2021-05-29T14:43:11.263Z</time>
      </trkpt>
      <trkpt lat="46.68886" lon="5.64264">
        <ele>512</ele>
        <time>2021-05-29T14:43:12.262Z</time>
      </trkpt>
      <trkpt lat="46.68888" lon="5.64264">
        <ele>513</ele>
        <time>2021-05-29T14:43:13.263Z</time>
      </trkpt>
      <trkpt lat="46.68889" lon="5.64265">
        <ele>514</ele>
        <time>2021-05-29T14:43:14.263Z</time>
      </trkpt>
      <trkpt lat="46.68891" lon="5.64266">
        <ele>514</ele>
        <time>2021-05-29T14:43:15.263Z</time>
      </trkpt>
      <trkpt lat="46.68892" lon="5.64266">
        <ele>515</ele>
        <time>2021-05-29T14:43:16.263Z</time>
      </trkpt>
      <trkpt lat="46.68894" lon="5.64267">
        <ele>515</ele>
        <time>2021-05-29T14:43:17.263Z</time>
      </trkpt>
      <trkpt lat="46.68896" lon="5.64268">
        <ele>516</ele>
        <time>2021-05-29T14:43:18.262Z</time>
      </trkpt>
      <trkpt lat="46.68897" lon="5.64268">
        <ele>516</ele>
        <time>2021-05-29T14:43:19.263Z</time>
      </trkpt>
      <trkpt lat="46.68898" lon="5.64267">
        <ele>517</ele>
        <time>2021-05-29T14:43:20.263Z</time>
      </trkpt>
      <trkpt lat="46.689" lon="5.64267">
        <ele>517</ele>
        <time>2021-05-29T14:43:21.263Z</time>
      </trkpt>
      <trkpt lat="46.68902" lon="5.64267">
        <ele>518</ele>
        <time>2021-05-29T14:43:22.263Z</time>
      </trkpt>
      <trkpt lat="46.68903" lon="5.64266">
        <ele>518</ele>
        <time>2021-05-29T14:43:23.262Z</time>
      </trkpt>
      <trkpt lat="46.68904" lon="5.64266">
        <ele>519</ele>
        <time>2021-05-29T14:43:24.263Z</time>
      </trkpt>
      <trkpt lat="46.68906" lon="5.64265">
        <ele>519</ele>
        <time>2021-05-29T14:43:25.263Z</time>
      </trkpt>
      <trkpt lat="46.68907" lon="5.64265">
        <ele>520</ele>
        <time>2021-05-29T14:43:26.263Z</time>
      </trkpt>
      <trkpt lat="46.6891" lon="5.64265">
        <ele>520</ele>
        <time>2021-05-29T14:43:27.262Z</time>
      </trkpt>
      <trkpt lat="46.68912" lon="5.64264">
        <ele>521</ele>
        <time>2021-05-29T14:43:28.263Z</time>
      </trkpt>
      <trkpt lat="46.68914" lon="5.64264">
        <ele>521</ele>
        <time>2021-05-29T14:43:29.263Z</time>
      </trkpt>
      <trkpt lat="46.68915" lon="5.64262">
        <ele>521</ele>
        <time>2021-05-29T14:43:30.263Z</time>
      </trkpt>
      <trkpt lat="46.68917" lon="5.64262">
        <ele>522</ele>
        <time>2021-05-29T14:43:31.263Z</time>
      </trkpt>
      <trkpt lat="46.68919" lon="5.64261">
        <ele>522</ele>
        <time>2021-05-29T14:43:32.262Z</time>
      </trkpt>
      <trkpt lat="46.6892" lon="5.6426">
        <ele>522</ele>
        <time>2021-05-29T14:43:33.263Z</time>
      </trkpt>
      <trkpt lat="46.68922" lon="5.6426">
        <ele>523</ele>
        <time>2021-05-29T14:43:34.263Z</time>
      </trkpt>
      <trkpt lat="46.68923" lon="5.64258">
        <ele>523</ele>
        <time>2021-05-29T14:43:35.263Z</time>
      </trkpt>
      <trkpt lat="46.68924" lon="5.64257">
        <ele>524</ele>
        <time>2021-05-29T14:43:36.263Z</time>
      </trkpt>
      <trkpt lat="46.68926" lon="5.64256">
        <ele>524</ele>
        <time>2021-05-29T14:43:37.262Z</time>
      </trkpt>
      <trkpt lat="46.68928" lon="5.64257">
        <ele>525</ele>
        <time>2021-05-29T14:43:38.262Z</time>
      </trkpt>
      <trkpt lat="46.68929" lon="5.64258">
        <ele>525</ele>
        <time>2021-05-29T14:43:39.263Z</time>
      </trkpt>
      <trkpt lat="46.6893" lon="5.64258">
        <ele>525</ele>
        <time>2021-05-29T14:43:40.263Z</time>
      </trkpt>
      <trkpt lat="46.68931" lon="5.64257">
        <ele>525</ele>
        <time>2021-05-29T14:43:41.263Z</time>
      </trkpt>
      <trkpt lat="46.68932" lon="5.64256">
        <ele>525</ele>
        <time>2021-05-29T14:43:42.262Z</time>
      </trkpt>
      <trkpt lat="46.68933" lon="5.64255">
        <ele>525</ele>
        <time>2021-05-29T14:43:43.263Z</time>
      </trkpt>
      <trkpt lat="46.68934" lon="5.64255">
        <ele>525</ele>
        <time>2021-05-29T14:43:44.263Z</time>
      </trkpt>
      <trkpt lat="46.68935" lon="5.64255">
        <ele>525</ele>
        <time>2021-05-29T14:43:45.263Z</time>
      </trkpt>
      <trkpt lat="46.68937" lon="5.64255">
        <ele>525</ele>
        <time>2021-05-29T14:43:46.263Z</time>
      </trkpt>
      <trkpt lat="46.68938" lon="5.64254">
        <ele>525</ele>
        <time>2021-05-29T14:43:47.263Z</time>
      </trkpt>
      <trkpt lat="46.68939" lon="5.64254">
        <ele>526</ele>
        <time>2021-05-29T14:43:48.262Z</time>
      </trkpt>
      <trkpt lat="46.68941" lon="5.64253">
        <ele>526</ele>
        <time>2021-05-29T14:43:49.263Z</time>
      </trkpt>
      <trkpt lat="46.68942" lon="5.64252">
        <ele>526</ele>
        <time>2021-05-29T14:43:50.263Z</time>
      </trkpt>
      <trkpt lat="46.68944" lon="5.64251">
        <ele>526</ele>
        <time>2021-05-29T14:43:51.263Z</time>
      </trkpt>
      <trkpt lat="46.68946" lon="5.6425">
        <ele>525</ele>
        <time>2021-05-29T14:43:52.263Z</time>
      </trkpt>
      <trkpt lat="46.68947" lon="5.64249">
        <ele>525</ele>
        <time>2021-05-29T14:43:53.263Z</time>
      </trkpt>
      <trkpt lat="46.68949" lon="5.64247">
        <ele>525</ele>
        <time>2021-05-29T14:43:54.263Z</time>
      </trkpt>
      <trkpt lat="46.68951" lon="5.64245">
        <ele>525</ele>
        <time>2021-05-29T14:43:55.263Z</time>
      </trkpt>
      <trkpt lat="46.68953" lon="5.64244">
        <ele>524</ele>
        <time>2021-05-29T14:43:56.263Z</time>
      </trkpt>
      <trkpt lat="46.68954" lon="5.64242">
        <ele>524</ele>
        <time>2021-05-29T14:43:57.263Z</time>
      </trkpt>
      <trkpt lat="46.68956" lon="5.64242">
        <ele>524</ele>
        <time>2021-05-29T14:43:58.263Z</time>
      </trkpt>
      <trkpt lat="46.68958" lon="5.64242">
        <ele>524</ele>
        <time>2021-05-29T14:43:59.263Z</time>
      </trkpt>
      <trkpt lat="46.6896" lon="5.64241">
        <ele>524</ele>
        <time>2021-05-29T14:44:00.263Z</time>
      </trkpt>
      <trkpt lat="46.68962" lon="5.64241">
        <ele>524</ele>
        <time>2021-05-29T14:44:01.263Z</time>
      </trkpt>
      <trkpt lat="46.68964" lon="5.64241">
        <ele>524</ele>
        <time>2021-05-29T14:44:02.263Z</time>
      </trkpt>
      <trkpt lat="46.68967" lon="5.64242">
        <ele>525</ele>
        <time>2021-05-29T14:44:03.263Z</time>
      </trkpt>
      <trkpt lat="46.6897" lon="5.64242">
        <ele>525</ele>
        <time>2021-05-29T14:44:04.262Z</time>
      </trkpt>
      <trkpt lat="46.68972" lon="5.64242">
        <ele>525</ele>
        <time>2021-05-29T14:44:05.263Z</time>
      </trkpt>
      <trkpt lat="46.68973" lon="5.64242">
        <ele>525</ele>
        <time>2021-05-29T14:44:06.262Z</time>
      </trkpt>
      <trkpt lat="46.68974" lon="5.64242">
        <ele>525</ele>
        <time>2021-05-29T14:44:07.263Z</time>
      </trkpt>
      <trkpt lat="46.68976" lon="5.64243">
        <ele>526</ele>
        <time>2021-05-29T14:44:08.263Z</time>
      </trkpt>
      <trkpt lat="46.68977" lon="5.64243">
        <ele>526</ele>
        <time>2021-05-29T14:44:09.263Z</time>
      </trkpt>
      <trkpt lat="46.68978" lon="5.64244">
        <ele>527</ele>
        <time>2021-05-29T14:44:10.263Z</time>
      </trkpt>
      <trkpt lat="46.6898" lon="5.64245">
        <ele>527</ele>
        <time>2021-05-29T14:44:11.263Z</time>
      </trkpt>
      <trkpt lat="46.68982" lon="5.64245">
        <ele>528</ele>
        <time>2021-05-29T14:44:12.263Z</time>
      </trkpt>
      <trkpt lat="46.68983" lon="5.64246">
        <ele>528</ele>
        <time>2021-05-29T14:44:13.263Z</time>
      </trkpt>
      <trkpt lat="46.68985" lon="5.64247">
        <ele>529</ele>
        <time>2021-05-29T14:44:14.263Z</time>
      </trkpt>
      <trkpt lat="46.68987" lon="5.64248">
        <ele>529</ele>
        <time>2021-05-29T14:44:15.263Z</time>
      </trkpt>
      <trkpt lat="46.68989" lon="5.64249">
        <ele>529</ele>
        <time>2021-05-29T14:44:16.263Z</time>
      </trkpt>
      <trkpt lat="46.68991" lon="5.6425">
        <ele>530</ele>
        <time>2021-05-29T14:44:17.262Z</time>
      </trkpt>
      <trkpt lat="46.68992" lon="5.64251">
        <ele>530</ele>
        <time>2021-05-29T14:44:18.263Z</time>
      </trkpt>
      <trkpt lat="46.68994" lon="5.64252">
        <ele>531</ele>
        <time>2021-05-29T14:44:19.263Z</time>
      </trkpt>
      <trkpt lat="46.68996" lon="5.64253">
        <ele>531</ele>
        <time>2021-05-29T14:44:20.263Z</time>
      </trkpt>
      <trkpt lat="46.68998" lon="5.64254">
        <ele>531</ele>
        <time>2021-05-29T14:44:21.263Z</time>
      </trkpt>
      <trkpt lat="46.69001" lon="5.64255">
        <ele>532</ele>
        <time>2021-05-29T14:44:22.263Z</time>
      </trkpt>
      <trkpt lat="46.69003" lon="5.64255">
        <ele>532</ele>
        <time>2021-05-29T14:44:23.263Z</time>
      </trkpt>
      <trkpt lat="46.69006" lon="5.64256">
        <ele>532</ele>
        <time>2021-05-29T14:44:56.847Z</time>
      </trkpt>
      <trkpt lat="46.69008" lon="5.64257">
        <ele>532</ele>
        <time>2021-05-29T14:44:57.847Z</time>
      </trkpt>
      <trkpt lat="46.6901" lon="5.64257">
        <ele>532</ele>
        <time>2021-05-29T14:44:58.847Z</time>
      </trkpt>
      <trkpt lat="46.69012" lon="5.64258">
        <ele>532</ele>
        <time>2021-05-29T14:44:59.847Z</time>
      </trkpt>
      <trkpt lat="46.69013" lon="5.6426">
        <ele>532</ele>
        <time>2021-05-29T14:45:00.847Z</time>
      </trkpt>
      <trkpt lat="46.69015" lon="5.64261">
        <ele>532</ele>
        <time>2021-05-29T14:45:01.847Z</time>
      </trkpt>
      <trkpt lat="46.69017" lon="5.64263">
        <ele>532</ele>
        <time>2021-05-29T14:45:02.847Z</time>
      </trkpt>
      <trkpt lat="46.69019" lon="5.64263">
        <ele>532</ele>
        <time>2021-05-29T14:45:03.847Z</time>
      </trkpt>
      <trkpt lat="46.6902" lon="5.64264">
        <ele>532</ele>
        <time>2021-05-29T14:45:04.846Z</time>
      </trkpt>
      <trkpt lat="46.69022" lon="5.64266">
        <ele>531</ele>
        <time>2021-05-29T14:45:05.846Z</time>
      </trkpt>
      <trkpt lat="46.69023" lon="5.64267">
        <ele>531</ele>
        <time>2021-05-29T14:45:06.847Z</time>
      </trkpt>
      <trkpt lat="46.69024" lon="5.64268">
        <ele>531</ele>
        <time>2021-05-29T14:45:07.846Z</time>
      </trkpt>
      <trkpt lat="46.69026" lon="5.64269">
        <ele>531</ele>
        <time>2021-05-29T14:45:08.847Z</time>
      </trkpt>
      <trkpt lat="46.69027" lon="5.6427">
        <ele>530</ele>
        <time>2021-05-29T14:45:09.846Z</time>
      </trkpt>
      <trkpt lat="46.69029" lon="5.64271">
        <ele>531</ele>
        <time>2021-05-29T14:45:10.847Z</time>
      </trkpt>
      <trkpt lat="46.6903" lon="5.64272">
        <ele>531</ele>
        <time>2021-05-29T14:45:11.847Z</time>
      </trkpt>
      <trkpt lat="46.69032" lon="5.64273">
        <ele>531</ele>
        <time>2021-05-29T14:45:12.847Z</time>
      </trkpt>
      <trkpt lat="46.69034" lon="5.64275">
        <ele>531</ele>
        <time>2021-05-29T14:45:13.847Z</time>
      </trkpt>
      <trkpt lat="46.69036" lon="5.64277">
        <ele>531</ele>
        <time>2021-05-29T14:45:14.847Z</time>
      </trkpt>
      <trkpt lat="46.69038" lon="5.6428">
        <ele>531</ele>
        <time>2021-05-29T14:45:15.847Z</time>
      </trkpt>
      <trkpt lat="46.69039" lon="5.64282">
        <ele>532</ele>
        <time>2021-05-29T14:45:16.847Z</time>
      </trkpt>
      <trkpt lat="46.6904" lon="5.64283">
        <ele>532</ele>
        <time>2021-05-29T14:45:17.847Z</time>
      </trkpt>
      <trkpt lat="46.69041" lon="5.64285">
        <ele>532</ele>
        <time>2021-05-29T14:45:18.847Z</time>
      </trkpt>
      <trkpt lat="46.69042" lon="5.64287">
        <ele>532</ele>
        <time>2021-05-29T14:45:19.847Z</time>
      </trkpt>
      <trkpt lat="46.69043" lon="5.64289">
        <ele>533</ele>
        <time>2021-05-29T14:45:20.847Z</time>
      </trkpt>
      <trkpt lat="46.69044" lon="5.64291">
        <ele>533</ele>
        <time>2021-05-29T14:45:21.847Z</time>
      </trkpt>
      <trkpt lat="46.69046" lon="5.64293">
        <ele>533</ele>
        <time>2021-05-29T14:45:22.847Z</time>
      </trkpt>
      <trkpt lat="46.69047" lon="5.64296">
        <ele>533</ele>
        <time>2021-05-29T14:45:23.847Z</time>
      </trkpt>
      <trkpt lat="46.69049" lon="5.64297">
        <ele>533</ele>
        <time>2021-05-29T14:45:24.847Z</time>
      </trkpt>
      <trkpt lat="46.6905" lon="5.64299">
        <ele>534</ele>
        <time>2021-05-29T14:45:25.846Z</time>
      </trkpt>
      <trkpt lat="46.69052" lon="5.64302">
        <ele>534</ele>
        <time>2021-05-29T14:45:26.847Z</time>
      </trkpt>
      <trkpt lat="46.69053" lon="5.64304">
        <ele>534</ele>
        <time>2021-05-29T14:45:27.847Z</time>
      </trkpt>
      <trkpt lat="46.69054" lon="5.64307">
        <ele>534</ele>
        <time>2021-05-29T14:45:28.846Z</time>
      </trkpt>
      <trkpt lat="46.69056" lon="5.6431">
        <ele>534</ele>
        <time>2021-05-29T14:45:29.846Z</time>
      </trkpt>
      <trkpt lat="46.69057" lon="5.64312">
        <ele>534</ele>
        <time>2021-05-29T14:45:30.846Z</time>
      </trkpt>
      <trkpt lat="46.69059" lon="5.64315">
        <ele>534</ele>
        <time>2021-05-29T14:45:31.846Z</time>
      </trkpt>
      <trkpt lat="46.69061" lon="5.64318">
        <ele>534</ele>
        <time>2021-05-29T14:45:32.847Z</time>
      </trkpt>
      <trkpt lat="46.69063" lon="5.64319">
        <ele>533</ele>
        <time>2021-05-29T14:45:33.846Z</time>
      </trkpt>
      <trkpt lat="46.69064" lon="5.64321">
        <ele>533</ele>
        <time>2021-05-29T14:45:34.846Z</time>
      </trkpt>
      <trkpt lat="46.69065" lon="5.64323">
        <ele>533</ele>
        <time>2021-05-29T14:45:35.847Z</time>
      </trkpt>
      <trkpt lat="46.69066" lon="5.64325">
        <ele>533</ele>
        <time>2021-05-29T14:45:36.847Z</time>
      </trkpt>
      <trkpt lat="46.69068" lon="5.64327">
        <ele>533</ele>
        <time>2021-05-29T14:45:37.847Z</time>
      </trkpt>
      <trkpt lat="46.69071" lon="5.6433">
        <ele>533</ele>
        <time>2021-05-29T14:45:38.847Z</time>
      </trkpt>
      <trkpt lat="46.69074" lon="5.64333">
        <ele>533</ele>
        <time>2021-05-29T14:45:39.847Z</time>
      </trkpt>
      <trkpt lat="46.69076" lon="5.64336">
        <ele>533</ele>
        <time>2021-05-29T14:45:40.847Z</time>
      </trkpt>
      <trkpt lat="46.69079" lon="5.64338">
        <ele>533</ele>
        <time>2021-05-29T14:45:41.847Z</time>
      </trkpt>
      <trkpt lat="46.69081" lon="5.64341">
        <ele>533</ele>
        <time>2021-05-29T14:45:42.847Z</time>
      </trkpt>
      <trkpt lat="46.69082" lon="5.64344">
        <ele>532</ele>
        <time>2021-05-29T14:45:43.846Z</time>
      </trkpt>
      <trkpt lat="46.69083" lon="5.64348">
        <ele>532</ele>
        <time>2021-05-29T14:45:44.847Z</time>
      </trkpt>
      <trkpt lat="46.69084" lon="5.6435">
        <ele>532</ele>
        <time>2021-05-29T14:45:45.847Z</time>
      </trkpt>
      <trkpt lat="46.69085" lon="5.64353">
        <ele>533</ele>
        <time>2021-05-29T14:45:46.847Z</time>
      </trkpt>
      <trkpt lat="46.69087" lon="5.64356">
        <ele>533</ele>
        <time>2021-05-29T14:45:47.847Z</time>
      </trkpt>
      <trkpt lat="46.69088" lon="5.64358">
        <ele>533</ele>
        <time>2021-05-29T14:45:48.847Z</time>
      </trkpt>
      <trkpt lat="46.6909" lon="5.64361">
        <ele>533</ele>
        <time>2021-05-29T14:45:49.847Z</time>
      </trkpt>
      <trkpt lat="46.69091" lon="5.64364">
        <ele>533</ele>
        <time>2021-05-29T14:45:50.847Z</time>
      </trkpt>
      <trkpt lat="46.69093" lon="5.64367">
        <ele>534</ele>
        <time>2021-05-29T14:45:51.847Z</time>
      </trkpt>
      <trkpt lat="46.69095" lon="5.6437">
        <ele>534</ele>
        <time>2021-05-29T14:45:52.846Z</time>
      </trkpt>
      <trkpt lat="46.69097" lon="5.64372">
        <ele>534</ele>
        <time>2021-05-29T14:45:53.846Z</time>
      </trkpt>
      <trkpt lat="46.69098" lon="5.64374">
        <ele>535</ele>
        <time>2021-05-29T14:45:54.846Z</time>
      </trkpt>
      <trkpt lat="46.691" lon="5.64376">
        <ele>535</ele>
        <time>2021-05-29T14:45:55.846Z</time>
      </trkpt>
      <trkpt lat="46.69101" lon="5.64378">
        <ele>535</ele>
        <time>2021-05-29T14:45:56.847Z</time>
      </trkpt>
      <trkpt lat="46.69102" lon="5.6438">
        <ele>534</ele>
        <time>2021-05-29T14:45:57.847Z</time>
      </trkpt>
      <trkpt lat="46.69104" lon="5.64381">
        <ele>534</ele>
        <time>2021-05-29T14:45:58.847Z</time>
      </trkpt>
      <trkpt lat="46.69105" lon="5.64383">
        <ele>534</ele>
        <time>2021-05-29T14:45:59.846Z</time>
      </trkpt>
      <trkpt lat="46.69107" lon="5.64385">
        <ele>534</ele>
        <time>2021-05-29T14:46:00.847Z</time>
      </trkpt>
      <trkpt lat="46.69108" lon="5.64387">
        <ele>534</ele>
        <time>2021-05-29T14:46:01.847Z</time>
      </trkpt>
      <trkpt lat="46.69109" lon="5.64389">
        <ele>534</ele>
        <time>2021-05-29T14:46:02.847Z</time>
      </trkpt>
      <trkpt lat="46.6911" lon="5.64392">
        <ele>534</ele>
        <time>2021-05-29T14:46:03.847Z</time>
      </trkpt>
      <trkpt lat="46.69111" lon="5.64394">
        <ele>534</ele>
        <time>2021-05-29T14:46:04.846Z</time>
      </trkpt>
      <trkpt lat="46.69113" lon="5.64397">
        <ele>534</ele>
        <time>2021-05-29T14:46:05.846Z</time>
      </trkpt>
      <trkpt lat="46.69115" lon="5.64399">
        <ele>534</ele>
        <time>2021-05-29T14:46:06.847Z</time>
      </trkpt>
      <trkpt lat="46.69116" lon="5.64402">
        <ele>534</ele>
        <time>2021-05-29T14:46:07.847Z</time>
      </trkpt>
      <trkpt lat="46.69117" lon="5.64404">
        <ele>534</ele>
        <time>2021-05-29T14:46:08.847Z</time>
      </trkpt>
      <trkpt lat="46.69119" lon="5.64407">
        <ele>534</ele>
        <time>2021-05-29T14:46:09.847Z</time>
      </trkpt>
      <trkpt lat="46.69121" lon="5.6441">
        <ele>534</ele>
        <time>2021-05-29T14:46:10.846Z</time>
      </trkpt>
      <trkpt lat="46.69123" lon="5.64413">
        <ele>534</ele>
        <time>2021-05-29T14:46:11.847Z</time>
      </trkpt>
      <trkpt lat="46.69125" lon="5.64416">
        <ele>534</ele>
        <time>2021-05-29T14:46:12.846Z</time>
      </trkpt>
      <trkpt lat="46.69127" lon="5.64419">
        <ele>534</ele>
        <time>2021-05-29T14:46:13.846Z</time>
      </trkpt>
      <trkpt lat="46.69129" lon="5.64421">
        <ele>534</ele>
        <time>2021-05-29T14:46:14.846Z</time>
      </trkpt>
      <trkpt lat="46.69131" lon="5.64422">
        <ele>534</ele>
        <time>2021-05-29T14:46:15.846Z</time>
      </trkpt>
      <trkpt lat="46.69132" lon="5.64424">
        <ele>534</ele>
        <time>2021-05-29T14:46:16.847Z</time>
      </trkpt>
      <trkpt lat="46.69134" lon="5.64425">
        <ele>534</ele>
        <time>2021-05-29T14:46:17.847Z</time>
      </trkpt>
      <trkpt lat="46.69135" lon="5.64426">
        <ele>534</ele>
        <time>2021-05-29T14:46:18.847Z</time>
      </trkpt>
      <trkpt lat="46.69136" lon="5.64428">
        <ele>534</ele>
        <time>2021-05-29T14:46:19.847Z</time>
      </trkpt>
      <trkpt lat="46.69138" lon="5.6443">
        <ele>534</ele>
        <time>2021-05-29T14:46:20.846Z</time>
      </trkpt>
      <trkpt lat="46.6914" lon="5.64432">
        <ele>534</ele>
        <time>2021-05-29T14:46:21.847Z</time>
      </trkpt>
      <trkpt lat="46.69141" lon="5.64434">
        <ele>534</ele>
        <time>2021-05-29T14:46:22.846Z</time>
      </trkpt>
      <trkpt lat="46.69143" lon="5.64436">
        <ele>534</ele>
        <time>2021-05-29T14:46:23.846Z</time>
      </trkpt>
      <trkpt lat="46.69145" lon="5.64439">
        <ele>533</ele>
        <time>2021-05-29T14:46:24.847Z</time>
      </trkpt>
      <trkpt lat="46.69148" lon="5.64441">
        <ele>533</ele>
        <time>2021-05-29T14:46:25.847Z</time>
      </trkpt>
      <trkpt lat="46.6915" lon="5.64443">
        <ele>532</ele>
        <time>2021-05-29T14:46:26.847Z</time>
      </trkpt>
      <trkpt lat="46.69152" lon="5.64444">
        <ele>531</ele>
        <time>2021-05-29T14:46:27.847Z</time>
      </trkpt>
      <trkpt lat="46.69154" lon="5.64444">
        <ele>531</ele>
        <time>2021-05-29T14:46:28.847Z</time>
      </trkpt>
      <trkpt lat="46.69156" lon="5.64445">
        <ele>531</ele>
        <time>2021-05-29T14:46:29.846Z</time>
      </trkpt>
      <trkpt lat="46.69157" lon="5.64445">
        <ele>530</ele>
        <time>2021-05-29T14:46:30.847Z</time>
      </trkpt>
      <trkpt lat="46.69159" lon="5.64445">
        <ele>530</ele>
        <time>2021-05-29T14:46:31.847Z</time>
      </trkpt>
      <trkpt lat="46.69161" lon="5.64445">
        <ele>529</ele>
        <time>2021-05-29T14:46:32.847Z</time>
      </trkpt>
      <trkpt lat="46.69163" lon="5.64445">
        <ele>529</ele>
        <time>2021-05-29T14:46:33.847Z</time>
      </trkpt>
      <trkpt lat="46.69165" lon="5.64445">
        <ele>528</ele>
        <time>2021-05-29T14:46:34.847Z</time>
      </trkpt>
      <trkpt lat="46.69166" lon="5.64444">
        <ele>528</ele>
        <time>2021-05-29T14:46:35.847Z</time>
      </trkpt>
      <trkpt lat="46.69166" lon="5.64444">
        <ele>528</ele>
        <time>2021-05-29T14:46:36.846Z</time>
      </trkpt>
      <trkpt lat="46.69167" lon="5.64443">
        <ele>528</ele>
        <time>2021-05-29T14:46:37.847Z</time>
      </trkpt>
      <trkpt lat="46.69168" lon="5.64443">
        <ele>528</ele>
        <time>2021-05-29T14:46:38.847Z</time>
      </trkpt>
      <trkpt lat="46.69169" lon="5.64443">
        <ele>528</ele>
        <time>2021-05-29T14:46:39.847Z</time>
      </trkpt>
      <trkpt lat="46.6917" lon="5.64443">
        <ele>528</ele>
        <time>2021-05-29T14:46:40.847Z</time>
      </trkpt>
      <trkpt lat="46.69171" lon="5.64444">
        <ele>527</ele>
        <time>2021-05-29T14:46:41.847Z</time>
      </trkpt>
      <trkpt lat="46.69172" lon="5.64444">
        <ele>527</ele>
        <time>2021-05-29T14:46:42.847Z</time>
      </trkpt>
      <trkpt lat="46.69173" lon="5.64444">
        <ele>527</ele>
        <time>2021-05-29T14:46:43.846Z</time>
      </trkpt>
      <trkpt lat="46.69174" lon="5.64445">
        <ele>527</ele>
        <time>2021-05-29T14:46:44.846Z</time>
      </trkpt>
      <trkpt lat="46.69175" lon="5.64446">
        <ele>527</ele>
        <time>2021-05-29T14:46:45.847Z</time>
      </trkpt>
      <trkpt lat="46.69175" lon="5.64447">
        <ele>527</ele>
        <time>2021-05-29T14:46:46.847Z</time>
      </trkpt>
      <trkpt lat="46.69175" lon="5.64449">
        <ele>527</ele>
        <time>2021-05-29T14:46:47.847Z</time>
      </trkpt>
      <trkpt lat="46.69176" lon="5.6445">
        <ele>527</ele>
        <time>2021-05-29T14:46:48.847Z</time>
      </trkpt>
      <trkpt lat="46.69176" lon="5.6445">
        <ele>527</ele>
        <time>2021-05-29T14:46:49.847Z</time>
      </trkpt>
      <trkpt lat="46.69176" lon="5.64451">
        <ele>527</ele>
        <time>2021-05-29T14:46:50.847Z</time>
      </trkpt>
      <trkpt lat="46.69176" lon="5.64451">
        <ele>526</ele>
        <time>2021-05-29T14:46:51.847Z</time>
      </trkpt>
      <trkpt lat="46.69177" lon="5.6445">
        <ele>526</ele>
        <time>2021-05-29T14:46:52.847Z</time>
      </trkpt>
      <trkpt lat="46.69177" lon="5.64449">
        <ele>526</ele>
        <time>2021-05-29T14:46:53.846Z</time>
      </trkpt>
      <trkpt lat="46.69178" lon="5.64448">
        <ele>526</ele>
        <time>2021-05-29T14:46:54.847Z</time>
      </trkpt>
      <trkpt lat="46.69179" lon="5.64448">
        <ele>526</ele>
        <time>2021-05-29T14:46:55.847Z</time>
      </trkpt>
      <trkpt lat="46.6918" lon="5.64449">
        <ele>525</ele>
        <time>2021-05-29T14:46:56.847Z</time>
      </trkpt>
      <trkpt lat="46.6918" lon="5.64448">
        <ele>525</ele>
        <time>2021-05-29T14:46:57.847Z</time>
      </trkpt>
      <trkpt lat="46.69181" lon="5.64448">
        <ele>525</ele>
        <time>2021-05-29T14:46:58.847Z</time>
      </trkpt>
      <trkpt lat="46.69181" lon="5.64448">
        <ele>525</ele>
        <time>2021-05-29T14:46:59.847Z</time>
      </trkpt>
      <trkpt lat="46.69182" lon="5.64448">
        <ele>525</ele>
        <time>2021-05-29T14:47:00.847Z</time>
      </trkpt>
      <trkpt lat="46.69183" lon="5.64448">
        <ele>524</ele>
        <time>2021-05-29T14:47:01.847Z</time>
      </trkpt>
      <trkpt lat="46.69184" lon="5.64448">
        <ele>524</ele>
        <time>2021-05-29T14:47:02.847Z</time>
      </trkpt>
      <trkpt lat="46.69185" lon="5.64448">
        <ele>524</ele>
        <time>2021-05-29T14:47:03.847Z</time>
      </trkpt>
      <trkpt lat="46.69187" lon="5.64449">
        <ele>524</ele>
        <time>2021-05-29T14:47:04.847Z</time>
      </trkpt>
      <trkpt lat="46.69189" lon="5.6445">
        <ele>523</ele>
        <time>2021-05-29T14:47:05.846Z</time>
      </trkpt>
      <trkpt lat="46.69191" lon="5.64451">
        <ele>523</ele>
        <time>2021-05-29T14:47:06.847Z</time>
      </trkpt>
      <trkpt lat="46.69194" lon="5.64452">
        <ele>523</ele>
        <time>2021-05-29T14:47:07.847Z</time>
      </trkpt>
      <trkpt lat="46.69196" lon="5.64452">
        <ele>523</ele>
        <time>2021-05-29T14:47:08.847Z</time>
      </trkpt>
      <trkpt lat="46.69198" lon="5.64453">
        <ele>523</ele>
        <time>2021-05-29T14:47:09.847Z</time>
      </trkpt>
      <trkpt lat="46.69199" lon="5.64453">
        <ele>523</ele>
        <time>2021-05-29T14:47:10.846Z</time>
      </trkpt>
      <trkpt lat="46.692" lon="5.64453">
        <ele>523</ele>
        <time>2021-05-29T14:47:11.847Z</time>
      </trkpt>
      <trkpt lat="46.69202" lon="5.64453">
        <ele>523</ele>
        <time>2021-05-29T14:47:12.847Z</time>
      </trkpt>
      <trkpt lat="46.69203" lon="5.64454">
        <ele>523</ele>
        <time>2021-05-29T14:47:13.847Z</time>
      </trkpt>
      <trkpt lat="46.69205" lon="5.64454">
        <ele>523</ele>
        <time>2021-05-29T14:47:14.847Z</time>
      </trkpt>
      <trkpt lat="46.69207" lon="5.64454">
        <ele>523</ele>
        <time>2021-05-29T14:47:15.846Z</time>
      </trkpt>
      <trkpt lat="46.69208" lon="5.64454">
        <ele>523</ele>
        <time>2021-05-29T14:47:16.846Z</time>
      </trkpt>
      <trkpt lat="46.6921" lon="5.64454">
        <ele>524</ele>
        <time>2021-05-29T14:47:17.846Z</time>
      </trkpt>
      <trkpt lat="46.69211" lon="5.64454">
        <ele>524</ele>
        <time>2021-05-29T14:47:18.847Z</time>
      </trkpt>
      <trkpt lat="46.69214" lon="5.64454">
        <ele>524</ele>
        <time>2021-05-29T14:47:19.847Z</time>
      </trkpt>
      <trkpt lat="46.69216" lon="5.64455">
        <ele>524</ele>
        <time>2021-05-29T14:47:20.846Z</time>
      </trkpt>
      <trkpt lat="46.69218" lon="5.64455">
        <ele>524</ele>
        <time>2021-05-29T14:47:21.847Z</time>
      </trkpt>
      <trkpt lat="46.6922" lon="5.64455">
        <ele>524</ele>
        <time>2021-05-29T14:47:22.846Z</time>
      </trkpt>
      <trkpt lat="46.69221" lon="5.64455">
        <ele>525</ele>
        <time>2021-05-29T14:47:23.846Z</time>
      </trkpt>
      <trkpt lat="46.69223" lon="5.64455">
        <ele>525</ele>
        <time>2021-05-29T14:47:24.847Z</time>
      </trkpt>
      <trkpt lat="46.69226" lon="5.64456">
        <ele>526</ele>
        <time>2021-05-29T14:47:25.847Z</time>
      </trkpt>
      <trkpt lat="46.69228" lon="5.64456">
        <ele>526</ele>
        <time>2021-05-29T14:47:26.847Z</time>
      </trkpt>
      <trkpt lat="46.6923" lon="5.64457">
        <ele>527</ele>
        <time>2021-05-29T14:47:27.846Z</time>
      </trkpt>
      <trkpt lat="46.69232" lon="5.64457">
        <ele>527</ele>
        <time>2021-05-29T14:47:28.846Z</time>
      </trkpt>
      <trkpt lat="46.69234" lon="5.64458">
        <ele>528</ele>
        <time>2021-05-29T14:47:29.847Z</time>
      </trkpt>
      <trkpt lat="46.69236" lon="5.64459">
        <ele>528</ele>
        <time>2021-05-29T14:47:30.847Z</time>
      </trkpt>
      <trkpt lat="46.69239" lon="5.64461">
        <ele>528</ele>
        <time>2021-05-29T14:47:31.847Z</time>
      </trkpt>
      <trkpt lat="46.69241" lon="5.64463">
        <ele>529</ele>
        <time>2021-05-29T14:47:32.846Z</time>
      </trkpt>
      <trkpt lat="46.69242" lon="5.64464">
        <ele>529</ele>
        <time>2021-05-29T14:47:33.847Z</time>
      </trkpt>
      <trkpt lat="46.69243" lon="5.64464">
        <ele>529</ele>
        <time>2021-05-29T14:47:34.847Z</time>
      </trkpt>
      <trkpt lat="46.69244" lon="5.64465">
        <ele>529</ele>
        <time>2021-05-29T14:47:35.847Z</time>
      </trkpt>
      <trkpt lat="46.69246" lon="5.64466">
        <ele>529</ele>
        <time>2021-05-29T14:47:36.847Z</time>
      </trkpt>
      <trkpt lat="46.69247" lon="5.64467">
        <ele>529</ele>
        <time>2021-05-29T14:47:37.847Z</time>
      </trkpt>
      <trkpt lat="46.69249" lon="5.64468">
        <ele>529</ele>
        <time>2021-05-29T14:47:38.847Z</time>
      </trkpt>
      <trkpt lat="46.6925" lon="5.64469">
        <ele>530</ele>
        <time>2021-05-29T14:47:39.846Z</time>
      </trkpt>
      <trkpt lat="46.69253" lon="5.6447">
        <ele>530</ele>
        <time>2021-05-29T14:47:40.847Z</time>
      </trkpt>
      <trkpt lat="46.69254" lon="5.6447">
        <ele>529</ele>
        <time>2021-05-29T14:47:41.847Z</time>
      </trkpt>
      <trkpt lat="46.69255" lon="5.64471">
        <ele>529</ele>
        <time>2021-05-29T14:47:42.847Z</time>
      </trkpt>
      <trkpt lat="46.69257" lon="5.64472">
        <ele>529</ele>
        <time>2021-05-29T14:47:43.847Z</time>
      </trkpt>
      <trkpt lat="46.69258" lon="5.64473">
        <ele>529</ele>
        <time>2021-05-29T14:47:44.846Z</time>
      </trkpt>
      <trkpt lat="46.6926" lon="5.64475">
        <ele>529</ele>
        <time>2021-05-29T14:47:45.847Z</time>
      </trkpt>
      <trkpt lat="46.69261" lon="5.64476">
        <ele>529</ele>
        <time>2021-05-29T14:47:46.847Z</time>
      </trkpt>
      <trkpt lat="46.69263" lon="5.64477">
        <ele>529</ele>
        <time>2021-05-29T14:47:47.847Z</time>
      </trkpt>
      <trkpt lat="46.69265" lon="5.64478">
        <ele>529</ele>
        <time>2021-05-29T14:47:48.847Z</time>
      </trkpt>
      <trkpt lat="46.69267" lon="5.64479">
        <ele>529</ele>
        <time>2021-05-29T14:47:49.847Z</time>
      </trkpt>
      <trkpt lat="46.69268" lon="5.64479">
        <ele>529</ele>
        <time>2021-05-29T14:47:50.846Z</time>
      </trkpt>
      <trkpt lat="46.6927" lon="5.64479">
        <ele>529</ele>
        <time>2021-05-29T14:47:51.846Z</time>
      </trkpt>
      <trkpt lat="46.69272" lon="5.64479">
        <ele>529</ele>
        <time>2021-05-29T14:47:52.846Z</time>
      </trkpt>
      <trkpt lat="46.69275" lon="5.6448">
        <ele>529</ele>
        <time>2021-05-29T14:47:53.846Z</time>
      </trkpt>
      <trkpt lat="46.69278" lon="5.64481">
        <ele>529</ele>
        <time>2021-05-29T14:47:54.846Z</time>
      </trkpt>
      <trkpt lat="46.6928" lon="5.64482">
        <ele>529</ele>
        <time>2021-05-29T14:47:55.846Z</time>
      </trkpt>
      <trkpt lat="46.69282" lon="5.64484">
        <ele>529</ele>
        <time>2021-05-29T14:47:56.847Z</time>
      </trkpt>
      <trkpt lat="46.69284" lon="5.64485">
        <ele>529</ele>
        <time>2021-05-29T14:47:57.846Z</time>
      </trkpt>
      <trkpt lat="46.69287" lon="5.64486">
        <ele>529</ele>
        <time>2021-05-29T14:47:58.846Z</time>
      </trkpt>
      <trkpt lat="46.69289" lon="5.64488">
        <ele>529</ele>
        <time>2021-05-29T14:47:59.846Z</time>
      </trkpt>
      <trkpt lat="46.69291" lon="5.64489">
        <ele>529</ele>
        <time>2021-05-29T14:48:00.847Z</time>
      </trkpt>
      <trkpt lat="46.69293" lon="5.64489">
        <ele>529</ele>
        <time>2021-05-29T14:48:01.847Z</time>
      </trkpt>
      <trkpt lat="46.69293" lon="5.6449">
        <ele>529</ele>
        <time>2021-05-29T14:48:02.846Z</time>
      </trkpt>
      <trkpt lat="46.69293" lon="5.64492">
        <ele>529</ele>
        <time>2021-05-29T14:48:03.846Z</time>
      </trkpt>
      <trkpt lat="46.69294" lon="5.64493">
        <ele>529</ele>
        <time>2021-05-29T14:48:04.847Z</time>
      </trkpt>
      <trkpt lat="46.69295" lon="5.64494">
        <ele>529</ele>
        <time>2021-05-29T14:48:05.847Z</time>
      </trkpt>
      <trkpt lat="46.69296" lon="5.64496">
        <ele>529</ele>
        <time>2021-05-29T14:48:06.847Z</time>
      </trkpt>
      <trkpt lat="46.69297" lon="5.64497">
        <ele>529</ele>
        <time>2021-05-29T14:48:07.847Z</time>
      </trkpt>
      <trkpt lat="46.69298" lon="5.64498">
        <ele>530</ele>
        <time>2021-05-29T14:48:08.846Z</time>
      </trkpt>
      <trkpt lat="46.693" lon="5.64499">
        <ele>530</ele>
        <time>2021-05-29T14:48:09.847Z</time>
      </trkpt>
      <trkpt lat="46.69301" lon="5.645">
        <ele>530</ele>
        <time>2021-05-29T14:48:10.846Z</time>
      </trkpt>
      <trkpt lat="46.69302" lon="5.64501">
        <ele>531</ele>
        <time>2021-05-29T14:48:11.847Z</time>
      </trkpt>
      <trkpt lat="46.69303" lon="5.64501">
        <ele>531</ele>
        <time>2021-05-29T14:48:12.847Z</time>
      </trkpt>
      <trkpt lat="46.69304" lon="5.64502">
        <ele>532</ele>
        <time>2021-05-29T14:48:13.847Z</time>
      </trkpt>
      <trkpt lat="46.69305" lon="5.64503">
        <ele>533</ele>
        <time>2021-05-29T14:48:14.847Z</time>
      </trkpt>
      <trkpt lat="46.69306" lon="5.64503">
        <ele>533</ele>
        <time>2021-05-29T14:48:15.847Z</time>
      </trkpt>
      <trkpt lat="46.69308" lon="5.64504">
        <ele>534</ele>
        <time>2021-05-29T14:48:16.847Z</time>
      </trkpt>
      <trkpt lat="46.69309" lon="5.64504">
        <ele>534</ele>
        <time>2021-05-29T14:48:17.847Z</time>
      </trkpt>
      <trkpt lat="46.69311" lon="5.64504">
        <ele>535</ele>
        <time>2021-05-29T14:48:18.847Z</time>
      </trkpt>
      <trkpt lat="46.69312" lon="5.64504">
        <ele>535</ele>
        <time>2021-05-29T14:48:19.847Z</time>
      </trkpt>
      <trkpt lat="46.69313" lon="5.64503">
        <ele>536</ele>
        <time>2021-05-29T14:48:20.847Z</time>
      </trkpt>
      <trkpt lat="46.69315" lon="5.64503">
        <ele>536</ele>
        <time>2021-05-29T14:48:21.846Z</time>
      </trkpt>
      <trkpt lat="46.69318" lon="5.64502">
        <ele>537</ele>
        <time>2021-05-29T14:48:22.847Z</time>
      </trkpt>
      <trkpt lat="46.6932" lon="5.64501">
        <ele>537</ele>
        <time>2021-05-29T14:48:23.847Z</time>
      </trkpt>
      <trkpt lat="46.69322" lon="5.645">
        <ele>537</ele>
        <time>2021-05-29T14:48:24.847Z</time>
      </trkpt>
      <trkpt lat="46.69324" lon="5.645">
        <ele>538</ele>
        <time>2021-05-29T14:48:25.847Z</time>
      </trkpt>
      <trkpt lat="46.69325" lon="5.64499">
        <ele>539</ele>
        <time>2021-05-29T14:48:26.847Z</time>
      </trkpt>
      <trkpt lat="46.69327" lon="5.64499">
        <ele>539</ele>
        <time>2021-05-29T14:48:27.847Z</time>
      </trkpt>
      <trkpt lat="46.69328" lon="5.64499">
        <ele>540</ele>
        <time>2021-05-29T14:48:28.847Z</time>
      </trkpt>
      <trkpt lat="46.69329" lon="5.64498">
        <ele>541</ele>
        <time>2021-05-29T14:48:29.847Z</time>
      </trkpt>
      <trkpt lat="46.6933" lon="5.64498">
        <ele>541</ele>
        <time>2021-05-29T14:48:30.846Z</time>
      </trkpt>
      <trkpt lat="46.69332" lon="5.64497">
        <ele>541</ele>
        <time>2021-05-29T14:48:31.847Z</time>
      </trkpt>
      <trkpt lat="46.69333" lon="5.64496">
        <ele>541</ele>
        <time>2021-05-29T14:48:32.847Z</time>
      </trkpt>
      <trkpt lat="46.69334" lon="5.64495">
        <ele>541</ele>
        <time>2021-05-29T14:48:33.847Z</time>
      </trkpt>
      <trkpt lat="46.69336" lon="5.64494">
        <ele>542</ele>
        <time>2021-05-29T14:48:34.847Z</time>
      </trkpt>
      <trkpt lat="46.69337" lon="5.64492">
        <ele>542</ele>
        <time>2021-05-29T14:48:35.847Z</time>
      </trkpt>
      <trkpt lat="46.69338" lon="5.64491">
        <ele>542</ele>
        <time>2021-05-29T14:48:36.847Z</time>
      </trkpt>
      <trkpt lat="46.6934" lon="5.6449">
        <ele>542</ele>
        <time>2021-05-29T14:48:37.847Z</time>
      </trkpt>
      <trkpt lat="46.69342" lon="5.64489">
        <ele>542</ele>
        <time>2021-05-29T14:48:38.847Z</time>
      </trkpt>
      <trkpt lat="46.69344" lon="5.64488">
        <ele>542</ele>
        <time>2021-05-29T14:48:39.847Z</time>
      </trkpt>
      <trkpt lat="46.69345" lon="5.64486">
        <ele>542</ele>
        <time>2021-05-29T14:48:40.847Z</time>
      </trkpt>
      <trkpt lat="46.69347" lon="5.64485">
        <ele>542</ele>
        <time>2021-05-29T14:48:41.847Z</time>
      </trkpt>
      <trkpt lat="46.69349" lon="5.64483">
        <ele>542</ele>
        <time>2021-05-29T14:48:42.847Z</time>
      </trkpt>
      <trkpt lat="46.69352" lon="5.64482">
        <ele>542</ele>
        <time>2021-05-29T14:48:43.846Z</time>
      </trkpt>
      <trkpt lat="46.69354" lon="5.6448">
        <ele>542</ele>
        <time>2021-05-29T14:48:44.847Z</time>
      </trkpt>
      <trkpt lat="46.69357" lon="5.64479">
        <ele>542</ele>
        <time>2021-05-29T14:48:45.847Z</time>
      </trkpt>
      <trkpt lat="46.6936" lon="5.64477">
        <ele>541</ele>
        <time>2021-05-29T14:48:46.847Z</time>
      </trkpt>
      <trkpt lat="46.69362" lon="5.64474">
        <ele>541</ele>
        <time>2021-05-29T14:48:47.847Z</time>
      </trkpt>
      <trkpt lat="46.69363" lon="5.64472">
        <ele>541</ele>
        <time>2021-05-29T14:48:48.847Z</time>
      </trkpt>
      <trkpt lat="46.69365" lon="5.64469">
        <ele>541</ele>
        <time>2021-05-29T14:48:49.847Z</time>
      </trkpt>
      <trkpt lat="46.69367" lon="5.64467">
        <ele>541</ele>
        <time>2021-05-29T14:48:50.846Z</time>
      </trkpt>
      <trkpt lat="46.69369" lon="5.64464">
        <ele>540</ele>
        <time>2021-05-29T14:48:51.847Z</time>
      </trkpt>
      <trkpt lat="46.6937" lon="5.64463">
        <ele>540</ele>
        <time>2021-05-29T14:48:52.846Z</time>
      </trkpt>
      <trkpt lat="46.69372" lon="5.64461">
        <ele>540</ele>
        <time>2021-05-29T14:48:53.847Z</time>
      </trkpt>
      <trkpt lat="46.69374" lon="5.64459">
        <ele>540</ele>
        <time>2021-05-29T14:48:54.847Z</time>
      </trkpt>
      <trkpt lat="46.69375" lon="5.64458">
        <ele>540</ele>
        <time>2021-05-29T14:48:55.847Z</time>
      </trkpt>
      <trkpt lat="46.69377" lon="5.64456">
        <ele>540</ele>
        <time>2021-05-29T14:48:56.847Z</time>
      </trkpt>
      <trkpt lat="46.69379" lon="5.64454">
        <ele>541</ele>
        <time>2021-05-29T14:48:57.847Z</time>
      </trkpt>
      <trkpt lat="46.69381" lon="5.64453">
        <ele>541</ele>
        <time>2021-05-29T14:48:58.847Z</time>
      </trkpt>
      <trkpt lat="46.69383" lon="5.64451">
        <ele>541</ele>
        <time>2021-05-29T14:48:59.847Z</time>
      </trkpt>
      <trkpt lat="46.69386" lon="5.6445">
        <ele>541</ele>
        <time>2021-05-29T14:49:00.846Z</time>
      </trkpt>
      <trkpt lat="46.69388" lon="5.64449">
        <ele>541</ele>
        <time>2021-05-29T14:49:01.846Z</time>
      </trkpt>
      <trkpt lat="46.6939" lon="5.64448">
        <ele>540</ele>
        <time>2021-05-29T14:49:02.846Z</time>
      </trkpt>
      <trkpt lat="46.69393" lon="5.64446">
        <ele>540</ele>
        <time>2021-05-29T14:49:03.847Z</time>
      </trkpt>
      <trkpt lat="46.69394" lon="5.64445">
        <ele>540</ele>
        <time>2021-05-29T14:49:04.846Z</time>
      </trkpt>
      <trkpt lat="46.69397" lon="5.64445">
        <ele>539</ele>
        <time>2021-05-29T14:49:05.846Z</time>
      </trkpt>
      <trkpt lat="46.69398" lon="5.64444">
        <ele>539</ele>
        <time>2021-05-29T14:49:06.847Z</time>
      </trkpt>
      <trkpt lat="46.694" lon="5.64443">
        <ele>539</ele>
        <time>2021-05-29T14:49:07.847Z</time>
      </trkpt>
      <trkpt lat="46.69401" lon="5.64442">
        <ele>539</ele>
        <time>2021-05-29T14:49:08.847Z</time>
      </trkpt>
      <trkpt lat="46.69403" lon="5.64442">
        <ele>538</ele>
        <time>2021-05-29T14:49:09.846Z</time>
      </trkpt>
      <trkpt lat="46.69405" lon="5.64441">
        <ele>538</ele>
        <time>2021-05-29T14:49:10.847Z</time>
      </trkpt>
      <trkpt lat="46.69406" lon="5.6444">
        <ele>538</ele>
        <time>2021-05-29T14:49:11.847Z</time>
      </trkpt>
      <trkpt lat="46.69408" lon="5.64439">
        <ele>538</ele>
        <time>2021-05-29T14:49:12.846Z</time>
      </trkpt>
      <trkpt lat="46.6941" lon="5.64438">
        <ele>538</ele>
        <time>2021-05-29T14:49:13.846Z</time>
      </trkpt>
      <trkpt lat="46.69412" lon="5.64437">
        <ele>538</ele>
        <time>2021-05-29T14:49:14.847Z</time>
      </trkpt>
      <trkpt lat="46.69415" lon="5.64436">
        <ele>538</ele>
        <time>2021-05-29T14:49:15.847Z</time>
      </trkpt>
      <trkpt lat="46.69418" lon="5.64435">
        <ele>537</ele>
        <time>2021-05-29T14:49:16.847Z</time>
      </trkpt>
      <trkpt lat="46.69421" lon="5.64434">
        <ele>537</ele>
        <time>2021-05-29T14:49:17.847Z</time>
      </trkpt>
      <trkpt lat="46.69424" lon="5.64432">
        <ele>537</ele>
        <time>2021-05-29T14:49:18.847Z</time>
      </trkpt>
      <trkpt lat="46.69427" lon="5.64432">
        <ele>537</ele>
        <time>2021-05-29T14:49:19.847Z</time>
      </trkpt>
      <trkpt lat="46.69428" lon="5.64432">
        <ele>536</ele>
        <time>2021-05-29T14:49:20.846Z</time>
      </trkpt>
      <trkpt lat="46.69432" lon="5.64434">
        <ele>536</ele>
        <time>2021-05-29T14:49:21.847Z</time>
      </trkpt>
      <trkpt lat="46.69435" lon="5.64435">
        <ele>535</ele>
        <time>2021-05-29T14:49:22.847Z</time>
      </trkpt>
      <trkpt lat="46.69437" lon="5.64436">
        <ele>535</ele>
        <time>2021-05-29T14:49:23.847Z</time>
      </trkpt>
      <trkpt lat="46.69439" lon="5.64437">
        <ele>535</ele>
        <time>2021-05-29T14:49:24.847Z</time>
      </trkpt>
      <trkpt lat="46.6944" lon="5.64438">
        <ele>534</ele>
        <time>2021-05-29T14:49:25.846Z</time>
      </trkpt>
      <trkpt lat="46.69442" lon="5.64439">
        <ele>534</ele>
        <time>2021-05-29T14:49:26.847Z</time>
      </trkpt>
      <trkpt lat="46.69445" lon="5.6444">
        <ele>534</ele>
        <time>2021-05-29T14:49:27.847Z</time>
      </trkpt>
      <trkpt lat="46.69447" lon="5.6444">
        <ele>534</ele>
        <time>2021-05-29T14:49:28.847Z</time>
      </trkpt>
      <trkpt lat="46.69449" lon="5.64441">
        <ele>533</ele>
        <time>2021-05-29T14:49:29.846Z</time>
      </trkpt>
      <trkpt lat="46.69451" lon="5.64443">
        <ele>533</ele>
        <time>2021-05-29T14:49:30.846Z</time>
      </trkpt>
      <trkpt lat="46.69452" lon="5.64446">
        <ele>533</ele>
        <time>2021-05-29T14:49:31.847Z</time>
      </trkpt>
      <trkpt lat="46.69453" lon="5.64448">
        <ele>533</ele>
        <time>2021-05-29T14:49:32.846Z</time>
      </trkpt>
      <trkpt lat="46.69455" lon="5.6445">
        <ele>533</ele>
        <time>2021-05-29T14:49:33.847Z</time>
      </trkpt>
      <trkpt lat="46.69457" lon="5.64452">
        <ele>533</ele>
        <time>2021-05-29T14:49:34.847Z</time>
      </trkpt>
      <trkpt lat="46.69459" lon="5.64455">
        <ele>533</ele>
        <time>2021-05-29T14:49:35.847Z</time>
      </trkpt>
      <trkpt lat="46.6946" lon="5.64457">
        <ele>533</ele>
        <time>2021-05-29T14:49:36.847Z</time>
      </trkpt>
      <trkpt lat="46.69461" lon="5.6446">
        <ele>533</ele>
        <time>2021-05-29T14:49:37.847Z</time>
      </trkpt>
      <trkpt lat="46.69463" lon="5.64462">
        <ele>533</ele>
        <time>2021-05-29T14:49:38.846Z</time>
      </trkpt>
      <trkpt lat="46.69464" lon="5.64465">
        <ele>533</ele>
        <time>2021-05-29T14:49:39.847Z</time>
      </trkpt>
      <trkpt lat="46.69465" lon="5.64467">
        <ele>533</ele>
        <time>2021-05-29T14:49:40.846Z</time>
      </trkpt>
      <trkpt lat="46.69466" lon="5.64469">
        <ele>533</ele>
        <time>2021-05-29T14:49:41.847Z</time>
      </trkpt>
      <trkpt lat="46.69468" lon="5.64472">
        <ele>533</ele>
        <time>2021-05-29T14:49:42.847Z</time>
      </trkpt>
      <trkpt lat="46.6947" lon="5.64474">
        <ele>532</ele>
        <time>2021-05-29T14:49:43.847Z</time>
      </trkpt>
      <trkpt lat="46.69472" lon="5.64477">
        <ele>532</ele>
        <time>2021-05-29T14:49:44.847Z</time>
      </trkpt>
      <trkpt lat="46.69473" lon="5.6448">
        <ele>532</ele>
        <time>2021-05-29T14:49:45.847Z</time>
      </trkpt>
      <trkpt lat="46.69474" lon="5.64484">
        <ele>532</ele>
        <time>2021-05-29T14:49:46.847Z</time>
      </trkpt>
      <trkpt lat="46.69475" lon="5.64487">
        <ele>531</ele>
        <time>2021-05-29T14:49:47.847Z</time>
      </trkpt>
      <trkpt lat="46.69475" lon="5.6449">
        <ele>531</ele>
        <time>2021-05-29T14:49:48.847Z</time>
      </trkpt>
      <trkpt lat="46.69476" lon="5.64493">
        <ele>531</ele>
        <time>2021-05-29T14:49:49.846Z</time>
      </trkpt>
      <trkpt lat="46.69476" lon="5.64497">
        <ele>531</ele>
        <time>2021-05-29T14:49:50.847Z</time>
      </trkpt>
      <trkpt lat="46.69476" lon="5.645">
        <ele>531</ele>
        <time>2021-05-29T14:49:51.847Z</time>
      </trkpt>
      <trkpt lat="46.69477" lon="5.64504">
        <ele>531</ele>
        <time>2021-05-29T14:49:52.847Z</time>
      </trkpt>
      <trkpt lat="46.69478" lon="5.64507">
        <ele>530</ele>
        <time>2021-05-29T14:49:53.847Z</time>
      </trkpt>
      <trkpt lat="46.69479" lon="5.64511">
        <ele>530</ele>
        <time>2021-05-29T14:49:54.847Z</time>
      </trkpt>
      <trkpt lat="46.6948" lon="5.64514">
        <ele>530</ele>
        <time>2021-05-29T14:49:55.847Z</time>
      </trkpt>
      <trkpt lat="46.69481" lon="5.64517">
        <ele>530</ele>
        <time>2021-05-29T14:49:56.847Z</time>
      </trkpt>
      <trkpt lat="46.69482" lon="5.6452">
        <ele>530</ele>
        <time>2021-05-29T14:49:57.847Z</time>
      </trkpt>
      <trkpt lat="46.69483" lon="5.64522">
        <ele>530</ele>
        <time>2021-05-29T14:49:58.847Z</time>
      </trkpt>
      <trkpt lat="46.69483" lon="5.64523">
        <ele>530</ele>
        <time>2021-05-29T14:49:59.847Z</time>
      </trkpt>
      <trkpt lat="46.69485" lon="5.64525">
        <ele>530</ele>
        <time>2021-05-29T14:50:00.847Z</time>
      </trkpt>
      <trkpt lat="46.69486" lon="5.64525">
        <ele>529</ele>
        <time>2021-05-29T14:50:01.847Z</time>
      </trkpt>
      <trkpt lat="46.69488" lon="5.64526">
        <ele>529</ele>
        <time>2021-05-29T14:50:02.846Z</time>
      </trkpt>
      <trkpt lat="46.6949" lon="5.64526">
        <ele>529</ele>
        <time>2021-05-29T14:50:03.847Z</time>
      </trkpt>
      <trkpt lat="46.69492" lon="5.64527">
        <ele>529</ele>
        <time>2021-05-29T14:50:04.847Z</time>
      </trkpt>
      <trkpt lat="46.69494" lon="5.64528">
        <ele>529</ele>
        <time>2021-05-29T14:50:05.846Z</time>
      </trkpt>
      <trkpt lat="46.69496" lon="5.64528">
        <ele>529</ele>
        <time>2021-05-29T14:50:06.847Z</time>
      </trkpt>
      <trkpt lat="46.69497" lon="5.64528">
        <ele>528</ele>
        <time>2021-05-29T14:50:07.847Z</time>
      </trkpt>
      <trkpt lat="46.69498" lon="5.64529">
        <ele>528</ele>
        <time>2021-05-29T14:50:08.847Z</time>
      </trkpt>
      <trkpt lat="46.695" lon="5.64529">
        <ele>528</ele>
        <time>2021-05-29T14:50:09.847Z</time>
      </trkpt>
      <trkpt lat="46.69502" lon="5.6453">
        <ele>528</ele>
        <time>2021-05-29T14:50:10.846Z</time>
      </trkpt>
      <trkpt lat="46.69503" lon="5.6453">
        <ele>528</ele>
        <time>2021-05-29T14:50:11.847Z</time>
      </trkpt>
      <trkpt lat="46.69505" lon="5.6453">
        <ele>528</ele>
        <time>2021-05-29T14:50:12.846Z</time>
      </trkpt>
      <trkpt lat="46.69507" lon="5.6453">
        <ele>528</ele>
        <time>2021-05-29T14:50:13.847Z</time>
      </trkpt>
      <trkpt lat="46.6951" lon="5.64531">
        <ele>528</ele>
        <time>2021-05-29T14:50:14.846Z</time>
      </trkpt>
      <trkpt lat="46.69512" lon="5.64531">
        <ele>528</ele>
        <time>2021-05-29T14:50:15.846Z</time>
      </trkpt>
      <trkpt lat="46.69514" lon="5.64532">
        <ele>528</ele>
        <time>2021-05-29T14:50:16.847Z</time>
      </trkpt>
      <trkpt lat="46.69516" lon="5.64532">
        <ele>528</ele>
        <time>2021-05-29T14:50:17.847Z</time>
      </trkpt>
      <trkpt lat="46.69517" lon="5.64532">
        <ele>527</ele>
        <time>2021-05-29T14:50:18.846Z</time>
      </trkpt>
      <trkpt lat="46.69518" lon="5.64532">
        <ele>527</ele>
        <time>2021-05-29T14:50:19.847Z</time>
      </trkpt>
      <trkpt lat="46.6952" lon="5.64531">
        <ele>527</ele>
        <time>2021-05-29T14:50:20.847Z</time>
      </trkpt>
      <trkpt lat="46.69521" lon="5.64531">
        <ele>527</ele>
        <time>2021-05-29T14:50:21.847Z</time>
      </trkpt>
      <trkpt lat="46.69522" lon="5.64531">
        <ele>527</ele>
        <time>2021-05-29T14:50:22.847Z</time>
      </trkpt>
      <trkpt lat="46.69523" lon="5.64531">
        <ele>527</ele>
        <time>2021-05-29T14:50:23.847Z</time>
      </trkpt>
      <trkpt lat="46.69525" lon="5.64531">
        <ele>528</ele>
        <time>2021-05-29T14:50:24.847Z</time>
      </trkpt>
      <trkpt lat="46.69527" lon="5.64531">
        <ele>528</ele>
        <time>2021-05-29T14:50:25.846Z</time>
      </trkpt>
      <trkpt lat="46.69527" lon="5.64531">
        <ele>528</ele>
        <time>2021-05-29T14:50:26.847Z</time>
      </trkpt>
      <trkpt lat="46.69528" lon="5.64531">
        <ele>528</ele>
        <time>2021-05-29T14:50:27.847Z</time>
      </trkpt>
      <trkpt lat="46.69529" lon="5.64532">
        <ele>529</ele>
        <time>2021-05-29T14:50:28.847Z</time>
      </trkpt>
      <trkpt lat="46.6953" lon="5.64532">
        <ele>529</ele>
        <time>2021-05-29T14:50:29.847Z</time>
      </trkpt>
      <trkpt lat="46.69532" lon="5.64533">
        <ele>529</ele>
        <time>2021-05-29T14:50:30.846Z</time>
      </trkpt>
      <trkpt lat="46.69533" lon="5.64534">
        <ele>529</ele>
        <time>2021-05-29T14:50:31.847Z</time>
      </trkpt>
      <trkpt lat="46.69537" lon="5.64535">
        <ele>529</ele>
        <time>2021-05-29T14:50:32.847Z</time>
      </trkpt>
      <trkpt lat="46.69539" lon="5.64536">
        <ele>529</ele>
        <time>2021-05-29T14:50:33.846Z</time>
      </trkpt>
      <trkpt lat="46.69541" lon="5.64536">
        <ele>529</ele>
        <time>2021-05-29T14:50:34.847Z</time>
      </trkpt>
      <trkpt lat="46.69542" lon="5.64538">
        <ele>529</ele>
        <time>2021-05-29T14:50:35.847Z</time>
      </trkpt>
      <trkpt lat="46.69544" lon="5.64539">
        <ele>529</ele>
        <time>2021-05-29T14:50:36.847Z</time>
      </trkpt>
      <trkpt lat="46.69546" lon="5.6454">
        <ele>528</ele>
        <time>2021-05-29T14:50:37.847Z</time>
      </trkpt>
      <trkpt lat="46.69548" lon="5.64541">
        <ele>528</ele>
        <time>2021-05-29T14:50:38.847Z</time>
      </trkpt>
      <trkpt lat="46.6955" lon="5.64543">
        <ele>528</ele>
        <time>2021-05-29T14:50:39.847Z</time>
      </trkpt>
      <trkpt lat="46.69551" lon="5.64544">
        <ele>528</ele>
        <time>2021-05-29T14:50:40.846Z</time>
      </trkpt>
      <trkpt lat="46.69553" lon="5.64544">
        <ele>528</ele>
        <time>2021-05-29T14:50:41.847Z</time>
      </trkpt>
      <trkpt lat="46.69555" lon="5.64545">
        <ele>528</ele>
        <time>2021-05-29T14:50:42.847Z</time>
      </trkpt>
      <trkpt lat="46.69557" lon="5.64545">
        <ele>527</ele>
        <time>2021-05-29T14:50:43.847Z</time>
      </trkpt>
      <trkpt lat="46.69559" lon="5.64546">
        <ele>527</ele>
        <time>2021-05-29T14:50:44.846Z</time>
      </trkpt>
      <trkpt lat="46.69561" lon="5.64546">
        <ele>527</ele>
        <time>2021-05-29T14:50:45.846Z</time>
      </trkpt>
      <trkpt lat="46.69564" lon="5.64547">
        <ele>527</ele>
        <time>2021-05-29T14:50:46.847Z</time>
      </trkpt>
      <trkpt lat="46.69566" lon="5.64547">
        <ele>528</ele>
        <time>2021-05-29T14:50:47.847Z</time>
      </trkpt>
      <trkpt lat="46.69568" lon="5.64548">
        <ele>528</ele>
        <time>2021-05-29T14:50:48.847Z</time>
      </trkpt>
      <trkpt lat="46.6957" lon="5.64548">
        <ele>528</ele>
        <time>2021-05-29T14:50:49.846Z</time>
      </trkpt>
      <trkpt lat="46.69572" lon="5.64548">
        <ele>529</ele>
        <time>2021-05-29T14:50:50.847Z</time>
      </trkpt>
      <trkpt lat="46.69575" lon="5.64549">
        <ele>529</ele>
        <time>2021-05-29T14:50:51.847Z</time>
      </trkpt>
      <trkpt lat="46.69577" lon="5.64551">
        <ele>529</ele>
        <time>2021-05-29T14:50:52.847Z</time>
      </trkpt>
      <trkpt lat="46.69579" lon="5.64552">
        <ele>530</ele>
        <time>2021-05-29T14:50:53.847Z</time>
      </trkpt>
      <trkpt lat="46.69582" lon="5.64553">
        <ele>530</ele>
        <time>2021-05-29T14:50:54.847Z</time>
      </trkpt>
      <trkpt lat="46.69584" lon="5.64554">
        <ele>530</ele>
        <time>2021-05-29T14:50:55.847Z</time>
      </trkpt>
      <trkpt lat="46.69585" lon="5.64555">
        <ele>530</ele>
        <time>2021-05-29T14:50:56.847Z</time>
      </trkpt>
      <trkpt lat="46.69587" lon="5.64556">
        <ele>531</ele>
        <time>2021-05-29T14:50:57.847Z</time>
      </trkpt>
      <trkpt lat="46.69588" lon="5.64558">
        <ele>531</ele>
        <time>2021-05-29T14:50:58.846Z</time>
      </trkpt>
      <trkpt lat="46.69589" lon="5.64559">
        <ele>531</ele>
        <time>2021-05-29T14:50:59.846Z</time>
      </trkpt>
      <trkpt lat="46.6959" lon="5.6456">
        <ele>531</ele>
        <time>2021-05-29T14:51:00.847Z</time>
      </trkpt>
      <trkpt lat="46.69592" lon="5.64561">
        <ele>531</ele>
        <time>2021-05-29T14:51:01.846Z</time>
      </trkpt>
      <trkpt lat="46.69593" lon="5.64562">
        <ele>532</ele>
        <time>2021-05-29T14:51:02.847Z</time>
      </trkpt>
      <trkpt lat="46.69595" lon="5.64563">
        <ele>532</ele>
        <time>2021-05-29T14:51:03.846Z</time>
      </trkpt>
      <trkpt lat="46.69597" lon="5.64563">
        <ele>532</ele>
        <time>2021-05-29T14:51:04.847Z</time>
      </trkpt>
      <trkpt lat="46.69599" lon="5.64564">
        <ele>532</ele>
        <time>2021-05-29T14:51:05.846Z</time>
      </trkpt>
      <trkpt lat="46.69601" lon="5.64565">
        <ele>532</ele>
        <time>2021-05-29T14:51:06.846Z</time>
      </trkpt>
      <trkpt lat="46.69603" lon="5.64566">
        <ele>532</ele>
        <time>2021-05-29T14:51:07.847Z</time>
      </trkpt>
      <trkpt lat="46.69605" lon="5.64567">
        <ele>532</ele>
        <time>2021-05-29T14:51:08.847Z</time>
      </trkpt>
      <trkpt lat="46.69606" lon="5.64568">
        <ele>532</ele>
        <time>2021-05-29T14:51:09.846Z</time>
      </trkpt>
      <trkpt lat="46.69608" lon="5.64568">
        <ele>533</ele>
        <time>2021-05-29T14:51:10.847Z</time>
      </trkpt>
      <trkpt lat="46.69609" lon="5.64569">
        <ele>533</ele>
        <time>2021-05-29T14:51:11.847Z</time>
      </trkpt>
      <trkpt lat="46.6961" lon="5.64569">
        <ele>533</ele>
        <time>2021-05-29T14:51:12.847Z</time>
      </trkpt>
      <trkpt lat="46.69612" lon="5.64569">
        <ele>534</ele>
        <time>2021-05-29T14:51:13.846Z</time>
      </trkpt>
      <trkpt lat="46.69613" lon="5.6457">
        <ele>534</ele>
        <time>2021-05-29T14:51:14.847Z</time>
      </trkpt>
      <trkpt lat="46.69615" lon="5.6457">
        <ele>534</ele>
        <time>2021-05-29T14:51:15.847Z</time>
      </trkpt>
      <trkpt lat="46.69617" lon="5.6457">
        <ele>534</ele>
        <time>2021-05-29T14:51:16.846Z</time>
      </trkpt>
      <trkpt lat="46.69618" lon="5.6457">
        <ele>534</ele>
        <time>2021-05-29T14:51:17.847Z</time>
      </trkpt>
      <trkpt lat="46.69621" lon="5.6457">
        <ele>535</ele>
        <time>2021-05-29T14:51:18.846Z</time>
      </trkpt>
      <trkpt lat="46.69624" lon="5.6457">
        <ele>535</ele>
        <time>2021-05-29T14:51:19.847Z</time>
      </trkpt>
      <trkpt lat="46.69626" lon="5.6457">
        <ele>535</ele>
        <time>2021-05-29T14:51:20.846Z</time>
      </trkpt>
      <trkpt lat="46.69628" lon="5.6457">
        <ele>535</ele>
        <time>2021-05-29T14:51:21.847Z</time>
      </trkpt>
      <trkpt lat="46.6963" lon="5.6457">
        <ele>536</ele>
        <time>2021-05-29T14:51:22.846Z</time>
      </trkpt>
      <trkpt lat="46.69633" lon="5.6457">
        <ele>536</ele>
        <time>2021-05-29T14:51:23.846Z</time>
      </trkpt>
      <trkpt lat="46.69635" lon="5.6457">
        <ele>537</ele>
        <time>2021-05-29T14:51:24.847Z</time>
      </trkpt>
      <trkpt lat="46.69637" lon="5.64569">
        <ele>537</ele>
        <time>2021-05-29T14:51:25.847Z</time>
      </trkpt>
      <trkpt lat="46.69639" lon="5.64568">
        <ele>537</ele>
        <time>2021-05-29T14:51:26.847Z</time>
      </trkpt>
      <trkpt lat="46.69641" lon="5.64567">
        <ele>537</ele>
        <time>2021-05-29T14:51:27.847Z</time>
      </trkpt>
      <trkpt lat="46.69644" lon="5.64566">
        <ele>537</ele>
        <time>2021-05-29T14:51:28.847Z</time>
      </trkpt>
      <trkpt lat="46.69646" lon="5.64565">
        <ele>537</ele>
        <time>2021-05-29T14:51:29.847Z</time>
      </trkpt>
      <trkpt lat="46.69649" lon="5.64564">
        <ele>537</ele>
        <time>2021-05-29T14:51:30.847Z</time>
      </trkpt>
      <trkpt lat="46.69651" lon="5.64564">
        <ele>537</ele>
        <time>2021-05-29T14:51:31.847Z</time>
      </trkpt>
      <trkpt lat="46.69654" lon="5.64564">
        <ele>537</ele>
        <time>2021-05-29T14:51:32.847Z</time>
      </trkpt>
      <trkpt lat="46.69656" lon="5.64563">
        <ele>537</ele>
        <time>2021-05-29T14:51:33.847Z</time>
      </trkpt>
      <trkpt lat="46.69658" lon="5.64564">
        <ele>536</ele>
        <time>2021-05-29T14:51:34.847Z</time>
      </trkpt>
      <trkpt lat="46.6966" lon="5.64564">
        <ele>536</ele>
        <time>2021-05-29T14:51:35.847Z</time>
      </trkpt>
      <trkpt lat="46.69661" lon="5.64564">
        <ele>536</ele>
        <time>2021-05-29T14:51:36.846Z</time>
      </trkpt>
      <trkpt lat="46.69663" lon="5.64565">
        <ele>536</ele>
        <time>2021-05-29T14:51:37.846Z</time>
      </trkpt>
      <trkpt lat="46.69665" lon="5.64566">
        <ele>535</ele>
        <time>2021-05-29T14:51:38.847Z</time>
      </trkpt>
      <trkpt lat="46.69667" lon="5.64567">
        <ele>535</ele>
        <time>2021-05-29T14:51:39.847Z</time>
      </trkpt>
      <trkpt lat="46.69668" lon="5.64568">
        <ele>535</ele>
        <time>2021-05-29T14:51:40.847Z</time>
      </trkpt>
      <trkpt lat="46.6967" lon="5.64568">
        <ele>535</ele>
        <time>2021-05-29T14:51:41.847Z</time>
      </trkpt>
      <trkpt lat="46.69672" lon="5.64568">
        <ele>534</ele>
        <time>2021-05-29T14:51:42.847Z</time>
      </trkpt>
      <trkpt lat="46.69675" lon="5.64569">
        <ele>534</ele>
        <time>2021-05-29T14:51:43.846Z</time>
      </trkpt>
      <trkpt lat="46.69677" lon="5.6457">
        <ele>533</ele>
        <time>2021-05-29T14:51:44.847Z</time>
      </trkpt>
      <trkpt lat="46.69679" lon="5.64572">
        <ele>533</ele>
        <time>2021-05-29T14:51:45.847Z</time>
      </trkpt>
      <trkpt lat="46.69681" lon="5.64573">
        <ele>533</ele>
        <time>2021-05-29T14:51:46.846Z</time>
      </trkpt>
      <trkpt lat="46.69683" lon="5.64574">
        <ele>533</ele>
        <time>2021-05-29T14:51:47.847Z</time>
      </trkpt>
      <trkpt lat="46.69685" lon="5.64575">
        <ele>532</ele>
        <time>2021-05-29T14:51:48.846Z</time>
      </trkpt>
      <trkpt lat="46.69688" lon="5.64577">
        <ele>532</ele>
        <time>2021-05-29T14:51:49.847Z</time>
      </trkpt>
      <trkpt lat="46.6969" lon="5.64579">
        <ele>531</ele>
        <time>2021-05-29T14:51:50.846Z</time>
      </trkpt>
      <trkpt lat="46.69693" lon="5.64581">
        <ele>531</ele>
        <time>2021-05-29T14:51:51.847Z</time>
      </trkpt>
      <trkpt lat="46.69695" lon="5.64583">
        <ele>530</ele>
        <time>2021-05-29T14:51:52.846Z</time>
      </trkpt>
      <trkpt lat="46.69697" lon="5.64585">
        <ele>530</ele>
        <time>2021-05-29T14:51:53.847Z</time>
      </trkpt>
      <trkpt lat="46.69699" lon="5.64586">
        <ele>530</ele>
        <time>2021-05-29T14:51:54.847Z</time>
      </trkpt>
      <trkpt lat="46.69701" lon="5.64587">
        <ele>529</ele>
        <time>2021-05-29T14:51:55.846Z</time>
      </trkpt>
      <trkpt lat="46.69703" lon="5.64589">
        <ele>529</ele>
        <time>2021-05-29T14:51:56.847Z</time>
      </trkpt>
      <trkpt lat="46.69705" lon="5.64589">
        <ele>529</ele>
        <time>2021-05-29T14:51:57.847Z</time>
      </trkpt>
      <trkpt lat="46.69708" lon="5.64589">
        <ele>529</ele>
        <time>2021-05-29T14:51:58.847Z</time>
      </trkpt>
      <trkpt lat="46.6971" lon="5.6459">
        <ele>530</ele>
        <time>2021-05-29T14:51:59.846Z</time>
      </trkpt>
      <trkpt lat="46.69712" lon="5.64591">
        <ele>529</ele>
        <time>2021-05-29T14:52:00.847Z</time>
      </trkpt>
      <trkpt lat="46.69713" lon="5.64592">
        <ele>529</ele>
        <time>2021-05-29T14:52:01.846Z</time>
      </trkpt>
      <trkpt lat="46.69715" lon="5.64592">
        <ele>529</ele>
        <time>2021-05-29T14:52:02.847Z</time>
      </trkpt>
      <trkpt lat="46.69716" lon="5.64593">
        <ele>529</ele>
        <time>2021-05-29T14:52:03.846Z</time>
      </trkpt>
      <trkpt lat="46.69718" lon="5.64594">
        <ele>530</ele>
        <time>2021-05-29T14:52:04.847Z</time>
      </trkpt>
      <trkpt lat="46.6972" lon="5.64595">
        <ele>530</ele>
        <time>2021-05-29T14:52:05.847Z</time>
      </trkpt>
      <trkpt lat="46.69722" lon="5.64597">
        <ele>530</ele>
        <time>2021-05-29T14:52:06.847Z</time>
      </trkpt>
      <trkpt lat="46.69725" lon="5.64597">
        <ele>530</ele>
        <time>2021-05-29T14:52:07.846Z</time>
      </trkpt>
      <trkpt lat="46.69728" lon="5.64598">
        <ele>530</ele>
        <time>2021-05-29T14:52:08.847Z</time>
      </trkpt>
      <trkpt lat="46.6973" lon="5.64598">
        <ele>530</ele>
        <time>2021-05-29T14:52:09.846Z</time>
      </trkpt>
      <trkpt lat="46.69732" lon="5.64598">
        <ele>530</ele>
        <time>2021-05-29T14:52:10.846Z</time>
      </trkpt>
      <trkpt lat="46.69734" lon="5.64598">
        <ele>530</ele>
        <time>2021-05-29T14:52:11.847Z</time>
      </trkpt>
      <trkpt lat="46.69736" lon="5.64598">
        <ele>530</ele>
        <time>2021-05-29T14:52:12.847Z</time>
      </trkpt>
      <trkpt lat="46.69738" lon="5.64599">
        <ele>531</ele>
        <time>2021-05-29T14:52:13.846Z</time>
      </trkpt>
      <trkpt lat="46.6974" lon="5.64599">
        <ele>531</ele>
        <time>2021-05-29T14:52:14.847Z</time>
      </trkpt>
      <trkpt lat="46.69742" lon="5.646">
        <ele>531</ele>
        <time>2021-05-29T14:52:15.847Z</time>
      </trkpt>
      <trkpt lat="46.69744" lon="5.646">
        <ele>531</ele>
        <time>2021-05-29T14:52:16.847Z</time>
      </trkpt>
      <trkpt lat="46.69746" lon="5.646">
        <ele>531</ele>
        <time>2021-05-29T14:52:17.846Z</time>
      </trkpt>
      <trkpt lat="46.69748" lon="5.646">
        <ele>531</ele>
        <time>2021-05-29T14:52:18.846Z</time>
      </trkpt>
      <trkpt lat="46.6975" lon="5.646">
        <ele>531</ele>
        <time>2021-05-29T14:52:19.847Z</time>
      </trkpt>
      <trkpt lat="46.69753" lon="5.646">
        <ele>531</ele>
        <time>2021-05-29T14:52:20.846Z</time>
      </trkpt>
      <trkpt lat="46.69756" lon="5.64599">
        <ele>531</ele>
        <time>2021-05-29T14:52:21.846Z</time>
      </trkpt>
      <trkpt lat="46.69758" lon="5.64599">
        <ele>531</ele>
        <time>2021-05-29T14:52:22.847Z</time>
      </trkpt>
      <trkpt lat="46.69761" lon="5.64599">
        <ele>532</ele>
        <time>2021-05-29T14:52:23.846Z</time>
      </trkpt>
      <trkpt lat="46.69764" lon="5.64599">
        <ele>532</ele>
        <time>2021-05-29T14:52:24.847Z</time>
      </trkpt>
      <trkpt lat="46.69766" lon="5.646">
        <ele>532</ele>
        <time>2021-05-29T14:52:25.846Z</time>
      </trkpt>
      <trkpt lat="46.69768" lon="5.64601">
        <ele>532</ele>
        <time>2021-05-29T14:52:26.847Z</time>
      </trkpt>
      <trkpt lat="46.69771" lon="5.64601">
        <ele>532</ele>
        <time>2021-05-29T14:52:27.847Z</time>
      </trkpt>
      <trkpt lat="46.69774" lon="5.64601">
        <ele>532</ele>
        <time>2021-05-29T14:52:28.847Z</time>
      </trkpt>
      <trkpt lat="46.69777" lon="5.64601">
        <ele>532</ele>
        <time>2021-05-29T14:52:29.847Z</time>
      </trkpt>
      <trkpt lat="46.6978" lon="5.64601">
        <ele>532</ele>
        <time>2021-05-29T14:52:30.846Z</time>
      </trkpt>
      <trkpt lat="46.69782" lon="5.64601">
        <ele>532</ele>
        <time>2021-05-29T14:52:31.847Z</time>
      </trkpt>
      <trkpt lat="46.69784" lon="5.64602">
        <ele>532</ele>
        <time>2021-05-29T14:52:32.847Z</time>
      </trkpt>
      <trkpt lat="46.69786" lon="5.64602">
        <ele>531</ele>
        <time>2021-05-29T14:52:33.847Z</time>
      </trkpt>
      <trkpt lat="46.69788" lon="5.64602">
        <ele>531</ele>
        <time>2021-05-29T14:52:34.847Z</time>
      </trkpt>
      <trkpt lat="46.6979" lon="5.64603">
        <ele>531</ele>
        <time>2021-05-29T14:52:35.846Z</time>
      </trkpt>
      <trkpt lat="46.69792" lon="5.64604">
        <ele>531</ele>
        <time>2021-05-29T14:52:36.846Z</time>
      </trkpt>
      <trkpt lat="46.69794" lon="5.64604">
        <ele>531</ele>
        <time>2021-05-29T14:52:37.847Z</time>
      </trkpt>
      <trkpt lat="46.69796" lon="5.64604">
        <ele>530</ele>
        <time>2021-05-29T14:52:38.847Z</time>
      </trkpt>
      <trkpt lat="46.69798" lon="5.64605">
        <ele>530</ele>
        <time>2021-05-29T14:52:39.847Z</time>
      </trkpt>
      <trkpt lat="46.69801" lon="5.64605">
        <ele>530</ele>
        <time>2021-05-29T14:52:40.846Z</time>
      </trkpt>
      <trkpt lat="46.69803" lon="5.64606">
        <ele>530</ele>
        <time>2021-05-29T14:52:41.847Z</time>
      </trkpt>
      <trkpt lat="46.69805" lon="5.64607">
        <ele>530</ele>
        <time>2021-05-29T14:52:42.846Z</time>
      </trkpt>
      <trkpt lat="46.69808" lon="5.64608">
        <ele>530</ele>
        <time>2021-05-29T14:52:43.847Z</time>
      </trkpt>
      <trkpt lat="46.69811" lon="5.64609">
        <ele>530</ele>
        <time>2021-05-29T14:52:44.846Z</time>
      </trkpt>
      <trkpt lat="46.69813" lon="5.64611">
        <ele>530</ele>
        <time>2021-05-29T14:52:45.846Z</time>
      </trkpt>
      <trkpt lat="46.69816" lon="5.64612">
        <ele>530</ele>
        <time>2021-05-29T14:52:46.847Z</time>
      </trkpt>
      <trkpt lat="46.69817" lon="5.64614">
        <ele>530</ele>
        <time>2021-05-29T14:52:47.847Z</time>
      </trkpt>
      <trkpt lat="46.69819" lon="5.64615">
        <ele>530</ele>
        <time>2021-05-29T14:52:48.847Z</time>
      </trkpt>
      <trkpt lat="46.69821" lon="5.64616">
        <ele>529</ele>
        <time>2021-05-29T14:52:49.847Z</time>
      </trkpt>
      <trkpt lat="46.69822" lon="5.64617">
        <ele>529</ele>
        <time>2021-05-29T14:52:50.847Z</time>
      </trkpt>
      <trkpt lat="46.69824" lon="5.64618">
        <ele>529</ele>
        <time>2021-05-29T14:52:51.847Z</time>
      </trkpt>
      <trkpt lat="46.69826" lon="5.64618">
        <ele>528</ele>
        <time>2021-05-29T14:52:52.847Z</time>
      </trkpt>
      <trkpt lat="46.69828" lon="5.64618">
        <ele>528</ele>
        <time>2021-05-29T14:52:53.847Z</time>
      </trkpt>
      <trkpt lat="46.69831" lon="5.64618">
        <ele>528</ele>
        <time>2021-05-29T14:52:54.847Z</time>
      </trkpt>
      <trkpt lat="46.69833" lon="5.64618">
        <ele>528</ele>
        <time>2021-05-29T14:52:55.846Z</time>
      </trkpt>
      <trkpt lat="46.69836" lon="5.64617">
        <ele>528</ele>
        <time>2021-05-29T14:52:56.847Z</time>
      </trkpt>
      <trkpt lat="46.6984" lon="5.64616">
        <ele>528</ele>
        <time>2021-05-29T14:52:57.847Z</time>
      </trkpt>
      <trkpt lat="46.69843" lon="5.64615">
        <ele>527</ele>
        <time>2021-05-29T14:52:58.847Z</time>
      </trkpt>
      <trkpt lat="46.69846" lon="5.64614">
        <ele>527</ele>
        <time>2021-05-29T14:52:59.847Z</time>
      </trkpt>
      <trkpt lat="46.69848" lon="5.64613">
        <ele>527</ele>
        <time>2021-05-29T14:53:00.847Z</time>
      </trkpt>
      <trkpt lat="46.6985" lon="5.64613">
        <ele>527</ele>
        <time>2021-05-29T14:53:01.846Z</time>
      </trkpt>
      <trkpt lat="46.69853" lon="5.64612">
        <ele>527</ele>
        <time>2021-05-29T14:53:02.847Z</time>
      </trkpt>
      <trkpt lat="46.69854" lon="5.64611">
        <ele>527</ele>
        <time>2021-05-29T14:53:03.846Z</time>
      </trkpt>
      <trkpt lat="46.69857" lon="5.6461">
        <ele>527</ele>
        <time>2021-05-29T14:53:04.846Z</time>
      </trkpt>
      <trkpt lat="46.69859" lon="5.64609">
        <ele>527</ele>
        <time>2021-05-29T14:53:05.846Z</time>
      </trkpt>
      <trkpt lat="46.69861" lon="5.64609">
        <ele>527</ele>
        <time>2021-05-29T14:53:06.846Z</time>
      </trkpt>
      <trkpt lat="46.69863" lon="5.64609">
        <ele>527</ele>
        <time>2021-05-29T14:53:07.847Z</time>
      </trkpt>
      <trkpt lat="46.69865" lon="5.64609">
        <ele>527</ele>
        <time>2021-05-29T14:53:08.847Z</time>
      </trkpt>
      <trkpt lat="46.69867" lon="5.6461">
        <ele>527</ele>
        <time>2021-05-29T14:53:09.846Z</time>
      </trkpt>
      <trkpt lat="46.6987" lon="5.6461">
        <ele>527</ele>
        <time>2021-05-29T14:53:10.847Z</time>
      </trkpt>
      <trkpt lat="46.69872" lon="5.64611">
        <ele>527</ele>
        <time>2021-05-29T14:53:11.846Z</time>
      </trkpt>
      <trkpt lat="46.69874" lon="5.64611">
        <ele>527</ele>
        <time>2021-05-29T14:53:12.847Z</time>
      </trkpt>
      <trkpt lat="46.69876" lon="5.64612">
        <ele>527</ele>
        <time>2021-05-29T14:53:13.847Z</time>
      </trkpt>
      <trkpt lat="46.69879" lon="5.64613">
        <ele>527</ele>
        <time>2021-05-29T14:53:14.846Z</time>
      </trkpt>
      <trkpt lat="46.6988" lon="5.64614">
        <ele>527</ele>
        <time>2021-05-29T14:53:15.847Z</time>
      </trkpt>
      <trkpt lat="46.69882" lon="5.64616">
        <ele>526</ele>
        <time>2021-05-29T14:53:16.847Z</time>
      </trkpt>
      <trkpt lat="46.69884" lon="5.64617">
        <ele>526</ele>
        <time>2021-05-29T14:53:17.847Z</time>
      </trkpt>
      <trkpt lat="46.69886" lon="5.64619">
        <ele>526</ele>
        <time>2021-05-29T14:53:18.847Z</time>
      </trkpt>
      <trkpt lat="46.69889" lon="5.6462">
        <ele>526</ele>
        <time>2021-05-29T14:53:19.847Z</time>
      </trkpt>
      <trkpt lat="46.69891" lon="5.64621">
        <ele>526</ele>
        <time>2021-05-29T14:53:20.846Z</time>
      </trkpt>
      <trkpt lat="46.69892" lon="5.64622">
        <ele>526</ele>
        <time>2021-05-29T14:53:21.847Z</time>
      </trkpt>
      <trkpt lat="46.69895" lon="5.64624">
        <ele>525</ele>
        <time>2021-05-29T14:53:22.846Z</time>
      </trkpt>
      <trkpt lat="46.69897" lon="5.64626">
        <ele>525</ele>
        <time>2021-05-29T14:53:23.847Z</time>
      </trkpt>
      <trkpt lat="46.69899" lon="5.64628">
        <ele>525</ele>
        <time>2021-05-29T14:53:24.846Z</time>
      </trkpt>
      <trkpt lat="46.699" lon="5.6463">
        <ele>524</ele>
        <time>2021-05-29T14:53:25.847Z</time>
      </trkpt>
      <trkpt lat="46.69902" lon="5.64631">
        <ele>524</ele>
        <time>2021-05-29T14:53:26.847Z</time>
      </trkpt>
      <trkpt lat="46.69904" lon="5.64632">
        <ele>524</ele>
        <time>2021-05-29T14:53:27.847Z</time>
      </trkpt>
      <trkpt lat="46.69906" lon="5.64632">
        <ele>523</ele>
        <time>2021-05-29T14:53:28.846Z</time>
      </trkpt>
      <trkpt lat="46.69908" lon="5.64633">
        <ele>523</ele>
        <time>2021-05-29T14:53:29.847Z</time>
      </trkpt>
      <trkpt lat="46.6991" lon="5.64634">
        <ele>522</ele>
        <time>2021-05-29T14:53:30.847Z</time>
      </trkpt>
      <trkpt lat="46.69911" lon="5.64635">
        <ele>522</ele>
        <time>2021-05-29T14:53:31.847Z</time>
      </trkpt>
      <trkpt lat="46.69913" lon="5.64637">
        <ele>521</ele>
        <time>2021-05-29T14:53:32.847Z</time>
      </trkpt>
      <trkpt lat="46.69914" lon="5.64638">
        <ele>521</ele>
        <time>2021-05-29T14:53:33.846Z</time>
      </trkpt>
      <trkpt lat="46.69916" lon="5.64639">
        <ele>521</ele>
        <time>2021-05-29T14:53:34.846Z</time>
      </trkpt>
      <trkpt lat="46.69918" lon="5.6464">
        <ele>520</ele>
        <time>2021-05-29T14:53:35.847Z</time>
      </trkpt>
      <trkpt lat="46.6992" lon="5.6464">
        <ele>520</ele>
        <time>2021-05-29T14:53:36.847Z</time>
      </trkpt>
      <trkpt lat="46.69922" lon="5.64641">
        <ele>520</ele>
        <time>2021-05-29T14:53:37.847Z</time>
      </trkpt>
      <trkpt lat="46.69925" lon="5.64642">
        <ele>520</ele>
        <time>2021-05-29T14:53:38.847Z</time>
      </trkpt>
      <trkpt lat="46.69927" lon="5.64642">
        <ele>520</ele>
        <time>2021-05-29T14:53:39.847Z</time>
      </trkpt>
      <trkpt lat="46.69929" lon="5.64641">
        <ele>519</ele>
        <time>2021-05-29T14:53:40.847Z</time>
      </trkpt>
      <trkpt lat="46.69931" lon="5.6464">
        <ele>519</ele>
        <time>2021-05-29T14:53:41.847Z</time>
      </trkpt>
      <trkpt lat="46.69933" lon="5.6464">
        <ele>519</ele>
        <time>2021-05-29T14:53:42.846Z</time>
      </trkpt>
      <trkpt lat="46.69935" lon="5.6464">
        <ele>519</ele>
        <time>2021-05-29T14:53:43.846Z</time>
      </trkpt>
      <trkpt lat="46.69937" lon="5.64642">
        <ele>519</ele>
        <time>2021-05-29T14:53:44.846Z</time>
      </trkpt>
      <trkpt lat="46.69939" lon="5.64643">
        <ele>519</ele>
        <time>2021-05-29T14:53:45.847Z</time>
      </trkpt>
      <trkpt lat="46.69941" lon="5.64644">
        <ele>519</ele>
        <time>2021-05-29T14:53:46.847Z</time>
      </trkpt>
      <trkpt lat="46.69943" lon="5.64645">
        <ele>518</ele>
        <time>2021-05-29T14:53:47.846Z</time>
      </trkpt>
      <trkpt lat="46.69945" lon="5.64646">
        <ele>518</ele>
        <time>2021-05-29T14:53:48.847Z</time>
      </trkpt>
      <trkpt lat="46.69946" lon="5.64647">
        <ele>518</ele>
        <time>2021-05-29T14:53:49.847Z</time>
      </trkpt>
      <trkpt lat="46.69947" lon="5.64648">
        <ele>517</ele>
        <time>2021-05-29T14:53:50.846Z</time>
      </trkpt>
      <trkpt lat="46.69948" lon="5.64648">
        <ele>517</ele>
        <time>2021-05-29T14:53:51.846Z</time>
      </trkpt>
      <trkpt lat="46.6995" lon="5.6465">
        <ele>517</ele>
        <time>2021-05-29T14:53:52.847Z</time>
      </trkpt>
      <trkpt lat="46.69952" lon="5.64651">
        <ele>517</ele>
        <time>2021-05-29T14:53:53.847Z</time>
      </trkpt>
      <trkpt lat="46.69955" lon="5.64652">
        <ele>516</ele>
        <time>2021-05-29T14:53:54.847Z</time>
      </trkpt>
      <trkpt lat="46.69957" lon="5.64653">
        <ele>515</ele>
        <time>2021-05-29T14:53:55.847Z</time>
      </trkpt>
      <trkpt lat="46.69959" lon="5.64655">
        <ele>515</ele>
        <time>2021-05-29T14:53:56.847Z</time>
      </trkpt>
      <trkpt lat="46.6996" lon="5.64656">
        <ele>514</ele>
        <time>2021-05-29T14:53:57.846Z</time>
      </trkpt>
      <trkpt lat="46.69962" lon="5.64658">
        <ele>514</ele>
        <time>2021-05-29T14:53:58.847Z</time>
      </trkpt>
      <trkpt lat="46.69964" lon="5.64659">
        <ele>514</ele>
        <time>2021-05-29T14:53:59.846Z</time>
      </trkpt>
      <trkpt lat="46.69966" lon="5.64661">
        <ele>514</ele>
        <time>2021-05-29T14:54:00.847Z</time>
      </trkpt>
      <trkpt lat="46.69967" lon="5.64664">
        <ele>514</ele>
        <time>2021-05-29T14:54:01.846Z</time>
      </trkpt>
      <trkpt lat="46.69968" lon="5.64666">
        <ele>514</ele>
        <time>2021-05-29T14:54:02.847Z</time>
      </trkpt>
      <trkpt lat="46.69969" lon="5.64668">
        <ele>514</ele>
        <time>2021-05-29T14:54:03.846Z</time>
      </trkpt>
      <trkpt lat="46.6997" lon="5.64669">
        <ele>514</ele>
        <time>2021-05-29T14:54:04.846Z</time>
      </trkpt>
      <trkpt lat="46.69971" lon="5.64671">
        <ele>513</ele>
        <time>2021-05-29T14:54:05.846Z</time>
      </trkpt>
      <trkpt lat="46.69973" lon="5.64673">
        <ele>514</ele>
        <time>2021-05-29T14:54:06.847Z</time>
      </trkpt>
      <trkpt lat="46.69974" lon="5.64675">
        <ele>513</ele>
        <time>2021-05-29T14:54:07.846Z</time>
      </trkpt>
      <trkpt lat="46.69976" lon="5.64678">
        <ele>513</ele>
        <time>2021-05-29T14:54:08.846Z</time>
      </trkpt>
      <trkpt lat="46.69977" lon="5.64681">
        <ele>513</ele>
        <time>2021-05-29T14:54:09.847Z</time>
      </trkpt>
      <trkpt lat="46.69978" lon="5.64683">
        <ele>513</ele>
        <time>2021-05-29T14:54:10.847Z</time>
      </trkpt>
      <trkpt lat="46.69979" lon="5.64684">
        <ele>513</ele>
        <time>2021-05-29T14:54:11.847Z</time>
      </trkpt>
      <trkpt lat="46.69982" lon="5.64685">
        <ele>513</ele>
        <time>2021-05-29T14:54:12.847Z</time>
      </trkpt>
      <trkpt lat="46.69984" lon="5.64685">
        <ele>512</ele>
        <time>2021-05-29T14:54:13.846Z</time>
      </trkpt>
      <trkpt lat="46.69986" lon="5.64686">
        <ele>512</ele>
        <time>2021-05-29T14:54:14.847Z</time>
      </trkpt>
      <trkpt lat="46.69988" lon="5.64688">
        <ele>513</ele>
        <time>2021-05-29T14:54:15.847Z</time>
      </trkpt>
      <trkpt lat="46.6999" lon="5.64689">
        <ele>513</ele>
        <time>2021-05-29T14:54:16.847Z</time>
      </trkpt>
      <trkpt lat="46.69991" lon="5.64691">
        <ele>512</ele>
        <time>2021-05-29T14:54:17.846Z</time>
      </trkpt>
      <trkpt lat="46.69992" lon="5.64693">
        <ele>512</ele>
        <time>2021-05-29T14:54:18.847Z</time>
      </trkpt>
      <trkpt lat="46.69993" lon="5.64695">
        <ele>512</ele>
        <time>2021-05-29T14:54:19.847Z</time>
      </trkpt>
      <trkpt lat="46.69994" lon="5.64697">
        <ele>512</ele>
        <time>2021-05-29T14:54:20.847Z</time>
      </trkpt>
      <trkpt lat="46.69995" lon="5.64699">
        <ele>512</ele>
        <time>2021-05-29T14:54:21.847Z</time>
      </trkpt>
      <trkpt lat="46.69997" lon="5.64701">
        <ele>511</ele>
        <time>2021-05-29T14:54:22.847Z</time>
      </trkpt>
      <trkpt lat="46.69999" lon="5.64702">
        <ele>511</ele>
        <time>2021-05-29T14:54:23.846Z</time>
      </trkpt>
      <trkpt lat="46.70001" lon="5.64704">
        <ele>511</ele>
        <time>2021-05-29T14:54:24.846Z</time>
      </trkpt>
      <trkpt lat="46.70002" lon="5.64706">
        <ele>511</ele>
        <time>2021-05-29T14:54:25.847Z</time>
      </trkpt>
      <trkpt lat="46.70004" lon="5.64709">
        <ele>511</ele>
        <time>2021-05-29T14:54:26.847Z</time>
      </trkpt>
      <trkpt lat="46.70006" lon="5.64712">
        <ele>511</ele>
        <time>2021-05-29T14:54:27.847Z</time>
      </trkpt>
      <trkpt lat="46.70008" lon="5.64715">
        <ele>511</ele>
        <time>2021-05-29T14:54:28.847Z</time>
      </trkpt>
      <trkpt lat="46.7001" lon="5.64717">
        <ele>511</ele>
        <time>2021-05-29T14:54:29.847Z</time>
      </trkpt>
      <trkpt lat="46.70011" lon="5.6472">
        <ele>511</ele>
        <time>2021-05-29T14:54:30.847Z</time>
      </trkpt>
      <trkpt lat="46.70012" lon="5.64722">
        <ele>510</ele>
        <time>2021-05-29T14:54:31.847Z</time>
      </trkpt>
      <trkpt lat="46.70013" lon="5.64725">
        <ele>510</ele>
        <time>2021-05-29T14:54:32.847Z</time>
      </trkpt>
      <trkpt lat="46.70013" lon="5.64727">
        <ele>510</ele>
        <time>2021-05-29T14:54:33.847Z</time>
      </trkpt>
      <trkpt lat="46.70013" lon="5.6473">
        <ele>510</ele>
        <time>2021-05-29T14:54:34.846Z</time>
      </trkpt>
      <trkpt lat="46.70013" lon="5.64732">
        <ele>510</ele>
        <time>2021-05-29T14:54:35.846Z</time>
      </trkpt>
      <trkpt lat="46.70014" lon="5.64734">
        <ele>510</ele>
        <time>2021-05-29T14:54:36.847Z</time>
      </trkpt>
      <trkpt lat="46.70014" lon="5.64737">
        <ele>510</ele>
        <time>2021-05-29T14:54:37.846Z</time>
      </trkpt>
      <trkpt lat="46.70015" lon="5.64739">
        <ele>511</ele>
        <time>2021-05-29T14:54:38.847Z</time>
      </trkpt>
      <trkpt lat="46.70016" lon="5.64741">
        <ele>511</ele>
        <time>2021-05-29T14:54:39.847Z</time>
      </trkpt>
      <trkpt lat="46.70017" lon="5.64743">
        <ele>512</ele>
        <time>2021-05-29T14:54:40.846Z</time>
      </trkpt>
      <trkpt lat="46.70018" lon="5.64745">
        <ele>512</ele>
        <time>2021-05-29T14:54:41.847Z</time>
      </trkpt>
      <trkpt lat="46.70019" lon="5.64747">
        <ele>512</ele>
        <time>2021-05-29T14:54:42.847Z</time>
      </trkpt>
      <trkpt lat="46.7002" lon="5.64749">
        <ele>513</ele>
        <time>2021-05-29T14:54:43.847Z</time>
      </trkpt>
      <trkpt lat="46.70021" lon="5.64751">
        <ele>513</ele>
        <time>2021-05-29T14:54:44.847Z</time>
      </trkpt>
      <trkpt lat="46.70022" lon="5.64753">
        <ele>513</ele>
        <time>2021-05-29T14:54:45.847Z</time>
      </trkpt>
      <trkpt lat="46.70023" lon="5.64755">
        <ele>513</ele>
        <time>2021-05-29T14:54:46.847Z</time>
      </trkpt>
      <trkpt lat="46.70024" lon="5.64757">
        <ele>513</ele>
        <time>2021-05-29T14:54:47.847Z</time>
      </trkpt>
      <trkpt lat="46.70026" lon="5.6476">
        <ele>513</ele>
        <time>2021-05-29T14:54:48.847Z</time>
      </trkpt>
      <trkpt lat="46.70027" lon="5.64762">
        <ele>513</ele>
        <time>2021-05-29T14:54:49.847Z</time>
      </trkpt>
      <trkpt lat="46.70028" lon="5.64765">
        <ele>514</ele>
        <time>2021-05-29T14:54:50.846Z</time>
      </trkpt>
      <trkpt lat="46.7003" lon="5.64768">
        <ele>514</ele>
        <time>2021-05-29T14:54:51.847Z</time>
      </trkpt>
      <trkpt lat="46.70031" lon="5.64771">
        <ele>514</ele>
        <time>2021-05-29T14:54:52.847Z</time>
      </trkpt>
      <trkpt lat="46.70032" lon="5.64773">
        <ele>513</ele>
        <time>2021-05-29T14:54:53.847Z</time>
      </trkpt>
      <trkpt lat="46.70033" lon="5.64774">
        <ele>513</ele>
        <time>2021-05-29T14:54:54.847Z</time>
      </trkpt>
      <trkpt lat="46.70036" lon="5.64775">
        <ele>513</ele>
        <time>2021-05-29T14:54:55.846Z</time>
      </trkpt>
      <trkpt lat="46.70038" lon="5.64776">
        <ele>513</ele>
        <time>2021-05-29T14:54:56.846Z</time>
      </trkpt>
      <trkpt lat="46.7004" lon="5.64777">
        <ele>513</ele>
        <time>2021-05-29T14:54:57.847Z</time>
      </trkpt>
      <trkpt lat="46.70043" lon="5.64778">
        <ele>512</ele>
        <time>2021-05-29T14:54:58.847Z</time>
      </trkpt>
      <trkpt lat="46.70046" lon="5.64779">
        <ele>512</ele>
        <time>2021-05-29T14:54:59.847Z</time>
      </trkpt>
      <trkpt lat="46.70049" lon="5.64779">
        <ele>512</ele>
        <time>2021-05-29T14:55:00.847Z</time>
      </trkpt>
      <trkpt lat="46.70051" lon="5.64779">
        <ele>512</ele>
        <time>2021-05-29T14:55:01.847Z</time>
      </trkpt>
      <trkpt lat="46.70053" lon="5.64779">
        <ele>511</ele>
        <time>2021-05-29T14:55:02.847Z</time>
      </trkpt>
      <trkpt lat="46.70055" lon="5.6478">
        <ele>511</ele>
        <time>2021-05-29T14:55:03.847Z</time>
      </trkpt>
      <trkpt lat="46.70058" lon="5.64781">
        <ele>511</ele>
        <time>2021-05-29T14:55:04.846Z</time>
      </trkpt>
      <trkpt lat="46.7006" lon="5.64783">
        <ele>511</ele>
        <time>2021-05-29T14:55:05.847Z</time>
      </trkpt>
      <trkpt lat="46.70062" lon="5.64784">
        <ele>511</ele>
        <time>2021-05-29T14:55:06.847Z</time>
      </trkpt>
      <trkpt lat="46.70063" lon="5.64785">
        <ele>511</ele>
        <time>2021-05-29T14:55:07.847Z</time>
      </trkpt>
      <trkpt lat="46.70064" lon="5.64786">
        <ele>511</ele>
        <time>2021-05-29T14:55:08.847Z</time>
      </trkpt>
      <trkpt lat="46.70065" lon="5.64786">
        <ele>510</ele>
        <time>2021-05-29T14:55:09.846Z</time>
      </trkpt>
      <trkpt lat="46.70068" lon="5.64787">
        <ele>510</ele>
        <time>2021-05-29T14:55:10.847Z</time>
      </trkpt>
      <trkpt lat="46.70069" lon="5.64787">
        <ele>510</ele>
        <time>2021-05-29T14:55:11.847Z</time>
      </trkpt>
      <trkpt lat="46.70071" lon="5.64788">
        <ele>510</ele>
        <time>2021-05-29T14:55:12.847Z</time>
      </trkpt>
      <trkpt lat="46.70073" lon="5.64789">
        <ele>509</ele>
        <time>2021-05-29T14:55:13.846Z</time>
      </trkpt>
      <trkpt lat="46.70073" lon="5.64791">
        <ele>509</ele>
        <time>2021-05-29T14:55:14.847Z</time>
      </trkpt>
      <trkpt lat="46.70074" lon="5.64794">
        <ele>509</ele>
        <time>2021-05-29T14:55:15.847Z</time>
      </trkpt>
      <trkpt lat="46.70074" lon="5.64797">
        <ele>508</ele>
        <time>2021-05-29T14:55:16.847Z</time>
      </trkpt>
      <trkpt lat="46.70074" lon="5.64799">
        <ele>507</ele>
        <time>2021-05-29T14:55:17.846Z</time>
      </trkpt>
      <trkpt lat="46.70074" lon="5.64802">
        <ele>506</ele>
        <time>2021-05-29T14:55:18.847Z</time>
      </trkpt>
      <trkpt lat="46.70074" lon="5.64804">
        <ele>506</ele>
        <time>2021-05-29T14:55:19.847Z</time>
      </trkpt>
      <trkpt lat="46.70073" lon="5.64806">
        <ele>506</ele>
        <time>2021-05-29T14:55:20.847Z</time>
      </trkpt>
      <trkpt lat="46.70072" lon="5.64808">
        <ele>505</ele>
        <time>2021-05-29T14:55:21.847Z</time>
      </trkpt>
      <trkpt lat="46.7007" lon="5.6481">
        <ele>505</ele>
        <time>2021-05-29T14:55:22.847Z</time>
      </trkpt>
      <trkpt lat="46.70069" lon="5.64812">
        <ele>505</ele>
        <time>2021-05-29T14:55:23.847Z</time>
      </trkpt>
      <trkpt lat="46.70068" lon="5.64814">
        <ele>505</ele>
        <time>2021-05-29T14:55:24.847Z</time>
      </trkpt>
      <trkpt lat="46.70067" lon="5.64815">
        <ele>505</ele>
        <time>2021-05-29T14:55:25.847Z</time>
      </trkpt>
      <trkpt lat="46.70065" lon="5.64817">
        <ele>505</ele>
        <time>2021-05-29T14:55:26.847Z</time>
      </trkpt>
      <trkpt lat="46.70063" lon="5.64819">
        <ele>505</ele>
        <time>2021-05-29T14:55:27.846Z</time>
      </trkpt>
      <trkpt lat="46.70061" lon="5.64819">
        <ele>505</ele>
        <time>2021-05-29T14:55:28.847Z</time>
      </trkpt>
      <trkpt lat="46.70059" lon="5.64819">
        <ele>506</ele>
        <time>2021-05-29T14:55:29.847Z</time>
      </trkpt>
      <trkpt lat="46.70058" lon="5.64819">
        <ele>506</ele>
        <time>2021-05-29T14:55:30.847Z</time>
      </trkpt>
      <trkpt lat="46.70055" lon="5.6482">
        <ele>507</ele>
        <time>2021-05-29T14:55:31.847Z</time>
      </trkpt>
      <trkpt lat="46.70053" lon="5.64821">
        <ele>507</ele>
        <time>2021-05-29T14:55:32.847Z</time>
      </trkpt>
      <trkpt lat="46.70052" lon="5.64822">
        <ele>507</ele>
        <time>2021-05-29T14:55:33.847Z</time>
      </trkpt>
      <trkpt lat="46.7005" lon="5.64822">
        <ele>507</ele>
        <time>2021-05-29T14:55:34.847Z</time>
      </trkpt>
      <trkpt lat="46.70049" lon="5.64823">
        <ele>507</ele>
        <time>2021-05-29T14:55:35.847Z</time>
      </trkpt>
      <trkpt lat="46.70047" lon="5.64824">
        <ele>507</ele>
        <time>2021-05-29T14:55:36.847Z</time>
      </trkpt>
      <trkpt lat="46.70045" lon="5.64825">
        <ele>507</ele>
        <time>2021-05-29T14:55:37.847Z</time>
      </trkpt>
      <trkpt lat="46.70043" lon="5.64826">
        <ele>507</ele>
        <time>2021-05-29T14:55:38.847Z</time>
      </trkpt>
      <trkpt lat="46.70042" lon="5.64827">
        <ele>506</ele>
        <time>2021-05-29T14:55:39.847Z</time>
      </trkpt>
      <trkpt lat="46.7004" lon="5.64828">
        <ele>506</ele>
        <time>2021-05-29T14:55:40.847Z</time>
      </trkpt>
      <trkpt lat="46.70038" lon="5.64829">
        <ele>506</ele>
        <time>2021-05-29T14:55:41.847Z</time>
      </trkpt>
      <trkpt lat="46.70037" lon="5.6483">
        <ele>506</ele>
        <time>2021-05-29T14:55:42.847Z</time>
      </trkpt>
      <trkpt lat="46.70035" lon="5.64831">
        <ele>507</ele>
        <time>2021-05-29T14:55:43.846Z</time>
      </trkpt>
      <trkpt lat="46.70034" lon="5.64833">
        <ele>507</ele>
        <time>2021-05-29T14:55:44.846Z</time>
      </trkpt>
      <trkpt lat="46.70033" lon="5.64835">
        <ele>508</ele>
        <time>2021-05-29T14:55:45.847Z</time>
      </trkpt>
      <trkpt lat="46.70031" lon="5.64838">
        <ele>508</ele>
        <time>2021-05-29T14:55:46.846Z</time>
      </trkpt>
      <trkpt lat="46.7003" lon="5.6484">
        <ele>508</ele>
        <time>2021-05-29T14:55:47.847Z</time>
      </trkpt>
      <trkpt lat="46.7003" lon="5.64843">
        <ele>509</ele>
        <time>2021-05-29T14:55:48.846Z</time>
      </trkpt>
      <trkpt lat="46.70029" lon="5.64845">
        <ele>509</ele>
        <time>2021-05-29T14:55:49.847Z</time>
      </trkpt>
      <trkpt lat="46.70028" lon="5.64848">
        <ele>509</ele>
        <time>2021-05-29T14:55:50.846Z</time>
      </trkpt>
      <trkpt lat="46.70027" lon="5.64851">
        <ele>509</ele>
        <time>2021-05-29T14:55:51.847Z</time>
      </trkpt>
      <trkpt lat="46.70026" lon="5.64855">
        <ele>509</ele>
        <time>2021-05-29T14:55:52.847Z</time>
      </trkpt>
      <trkpt lat="46.70025" lon="5.64857">
        <ele>509</ele>
        <time>2021-05-29T14:55:53.847Z</time>
      </trkpt>
      <trkpt lat="46.70024" lon="5.64861">
        <ele>509</ele>
        <time>2021-05-29T14:55:54.846Z</time>
      </trkpt>
      <trkpt lat="46.70022" lon="5.64864">
        <ele>509</ele>
        <time>2021-05-29T14:55:55.846Z</time>
      </trkpt>
      <trkpt lat="46.7002" lon="5.64867">
        <ele>509</ele>
        <time>2021-05-29T14:55:56.847Z</time>
      </trkpt>
      <trkpt lat="46.70019" lon="5.64871">
        <ele>509</ele>
        <time>2021-05-29T14:55:57.847Z</time>
      </trkpt>
      <trkpt lat="46.70017" lon="5.64875">
        <ele>509</ele>
        <time>2021-05-29T14:55:58.846Z</time>
      </trkpt>
      <trkpt lat="46.70016" lon="5.64878">
        <ele>509</ele>
        <time>2021-05-29T14:55:59.847Z</time>
      </trkpt>
      <trkpt lat="46.70014" lon="5.64882">
        <ele>509</ele>
        <time>2021-05-29T14:56:00.846Z</time>
      </trkpt>
      <trkpt lat="46.70013" lon="5.64886">
        <ele>509</ele>
        <time>2021-05-29T14:56:01.847Z</time>
      </trkpt>
      <trkpt lat="46.70011" lon="5.64888">
        <ele>509</ele>
        <time>2021-05-29T14:56:02.847Z</time>
      </trkpt>
      <trkpt lat="46.70009" lon="5.64889">
        <ele>509</ele>
        <time>2021-05-29T14:56:03.846Z</time>
      </trkpt>
      <trkpt lat="46.70007" lon="5.64891">
        <ele>509</ele>
        <time>2021-05-29T14:56:04.847Z</time>
      </trkpt>
      <trkpt lat="46.70005" lon="5.64892">
        <ele>509</ele>
        <time>2021-05-29T14:56:05.846Z</time>
      </trkpt>
      <trkpt lat="46.70003" lon="5.64895">
        <ele>508</ele>
        <time>2021-05-29T14:56:06.847Z</time>
      </trkpt>
      <trkpt lat="46.70002" lon="5.64897">
        <ele>508</ele>
        <time>2021-05-29T14:56:07.846Z</time>
      </trkpt>
      <trkpt lat="46.7" lon="5.64898">
        <ele>508</ele>
        <time>2021-05-29T14:56:08.847Z</time>
      </trkpt>
      <trkpt lat="46.69999" lon="5.64899">
        <ele>508</ele>
        <time>2021-05-29T14:56:09.847Z</time>
      </trkpt>
      <trkpt lat="46.69997" lon="5.649">
        <ele>507</ele>
        <time>2021-05-29T14:56:10.847Z</time>
      </trkpt>
      <trkpt lat="46.69995" lon="5.64901">
        <ele>507</ele>
        <time>2021-05-29T14:56:11.846Z</time>
      </trkpt>
      <trkpt lat="46.69994" lon="5.64902">
        <ele>507</ele>
        <time>2021-05-29T14:56:12.846Z</time>
      </trkpt>
      <trkpt lat="46.69992" lon="5.64903">
        <ele>507</ele>
        <time>2021-05-29T14:56:13.847Z</time>
      </trkpt>
      <trkpt lat="46.69991" lon="5.64905">
        <ele>507</ele>
        <time>2021-05-29T14:56:14.847Z</time>
      </trkpt>
      <trkpt lat="46.69989" lon="5.64906">
        <ele>508</ele>
        <time>2021-05-29T14:56:15.847Z</time>
      </trkpt>
      <trkpt lat="46.69987" lon="5.64909">
        <ele>508</ele>
        <time>2021-05-29T14:56:16.846Z</time>
      </trkpt>
      <trkpt lat="46.69986" lon="5.64911">
        <ele>508</ele>
        <time>2021-05-29T14:56:17.847Z</time>
      </trkpt>
      <trkpt lat="46.69985" lon="5.64913">
        <ele>509</ele>
        <time>2021-05-29T14:56:18.846Z</time>
      </trkpt>
      <trkpt lat="46.69984" lon="5.64915">
        <ele>509</ele>
        <time>2021-05-29T14:56:19.847Z</time>
      </trkpt>
      <trkpt lat="46.69983" lon="5.64917">
        <ele>509</ele>
        <time>2021-05-29T14:56:20.847Z</time>
      </trkpt>
      <trkpt lat="46.69982" lon="5.64919">
        <ele>510</ele>
        <time>2021-05-29T14:56:21.847Z</time>
      </trkpt>
      <trkpt lat="46.69981" lon="5.64921">
        <ele>510</ele>
        <time>2021-05-29T14:56:22.847Z</time>
      </trkpt>
      <trkpt lat="46.69979" lon="5.64923">
        <ele>510</ele>
        <time>2021-05-29T14:56:23.846Z</time>
      </trkpt>
      <trkpt lat="46.69978" lon="5.64925">
        <ele>510</ele>
        <time>2021-05-29T14:56:24.846Z</time>
      </trkpt>
      <trkpt lat="46.69977" lon="5.64926">
        <ele>510</ele>
        <time>2021-05-29T14:56:25.847Z</time>
      </trkpt>
      <trkpt lat="46.69975" lon="5.64928">
        <ele>510</ele>
        <time>2021-05-29T14:56:26.847Z</time>
      </trkpt>
      <trkpt lat="46.69974" lon="5.6493">
        <ele>511</ele>
        <time>2021-05-29T14:56:27.847Z</time>
      </trkpt>
      <trkpt lat="46.69972" lon="5.64932">
        <ele>511</ele>
        <time>2021-05-29T14:56:28.847Z</time>
      </trkpt>
      <trkpt lat="46.6997" lon="5.64934">
        <ele>512</ele>
        <time>2021-05-29T14:56:29.846Z</time>
      </trkpt>
      <trkpt lat="46.69968" lon="5.64936">
        <ele>512</ele>
        <time>2021-05-29T14:56:30.846Z</time>
      </trkpt>
      <trkpt lat="46.69966" lon="5.64937">
        <ele>513</ele>
        <time>2021-05-29T14:56:31.847Z</time>
      </trkpt>
      <trkpt lat="46.69964" lon="5.64938">
        <ele>513</ele>
        <time>2021-05-29T14:56:32.847Z</time>
      </trkpt>
      <trkpt lat="46.69963" lon="5.64938">
        <ele>513</ele>
        <time>2021-05-29T14:56:33.847Z</time>
      </trkpt>
      <trkpt lat="46.69961" lon="5.64939">
        <ele>513</ele>
        <time>2021-05-29T14:56:34.847Z</time>
      </trkpt>
      <trkpt lat="46.69959" lon="5.6494">
        <ele>512</ele>
        <time>2021-05-29T14:56:35.846Z</time>
      </trkpt>
      <trkpt lat="46.69957" lon="5.64942">
        <ele>512</ele>
        <time>2021-05-29T14:56:36.847Z</time>
      </trkpt>
      <trkpt lat="46.69955" lon="5.64943">
        <ele>513</ele>
        <time>2021-05-29T14:56:37.846Z</time>
      </trkpt>
      <trkpt lat="46.69952" lon="5.64944">
        <ele>513</ele>
        <time>2021-05-29T14:56:38.847Z</time>
      </trkpt>
      <trkpt lat="46.69949" lon="5.64944">
        <ele>513</ele>
        <time>2021-05-29T14:56:39.847Z</time>
      </trkpt>
      <trkpt lat="46.69948" lon="5.64944">
        <ele>513</ele>
        <time>2021-05-29T14:56:40.846Z</time>
      </trkpt>
      <trkpt lat="46.69946" lon="5.64944">
        <ele>513</ele>
        <time>2021-05-29T14:56:41.846Z</time>
      </trkpt>
      <trkpt lat="46.69943" lon="5.64943">
        <ele>512</ele>
        <time>2021-05-29T14:56:42.847Z</time>
      </trkpt>
      <trkpt lat="46.69942" lon="5.64943">
        <ele>512</ele>
        <time>2021-05-29T14:56:43.847Z</time>
      </trkpt>
      <trkpt lat="46.6994" lon="5.64943">
        <ele>512</ele>
        <time>2021-05-29T14:56:44.847Z</time>
      </trkpt>
      <trkpt lat="46.69938" lon="5.64943">
        <ele>512</ele>
        <time>2021-05-29T14:56:45.847Z</time>
      </trkpt>
      <trkpt lat="46.69935" lon="5.64943">
        <ele>512</ele>
        <time>2021-05-29T14:56:46.847Z</time>
      </trkpt>
      <trkpt lat="46.69934" lon="5.64942">
        <ele>512</ele>
        <time>2021-05-29T14:56:47.847Z</time>
      </trkpt>
      <trkpt lat="46.69933" lon="5.64942">
        <ele>513</ele>
        <time>2021-05-29T14:56:48.847Z</time>
      </trkpt>
      <trkpt lat="46.69931" lon="5.64941">
        <ele>513</ele>
        <time>2021-05-29T14:56:49.847Z</time>
      </trkpt>
      <trkpt lat="46.69929" lon="5.64941">
        <ele>513</ele>
        <time>2021-05-29T14:56:50.847Z</time>
      </trkpt>
      <trkpt lat="46.69928" lon="5.64941">
        <ele>513</ele>
        <time>2021-05-29T14:56:51.846Z</time>
      </trkpt>
      <trkpt lat="46.69927" lon="5.64941">
        <ele>514</ele>
        <time>2021-05-29T14:56:52.847Z</time>
      </trkpt>
      <trkpt lat="46.69926" lon="5.64941">
        <ele>514</ele>
        <time>2021-05-29T14:56:53.847Z</time>
      </trkpt>
      <trkpt lat="46.69925" lon="5.64941">
        <ele>514</ele>
        <time>2021-05-29T14:56:54.847Z</time>
      </trkpt>
      <trkpt lat="46.69924" lon="5.64941">
        <ele>514</ele>
        <time>2021-05-29T14:56:55.846Z</time>
      </trkpt>
      <trkpt lat="46.69923" lon="5.64942">
        <ele>515</ele>
        <time>2021-05-29T14:56:56.846Z</time>
      </trkpt>
      <trkpt lat="46.69921" lon="5.64943">
        <ele>515</ele>
        <time>2021-05-29T14:56:57.847Z</time>
      </trkpt>
      <trkpt lat="46.6992" lon="5.64945">
        <ele>516</ele>
        <time>2021-05-29T14:56:58.846Z</time>
      </trkpt>
      <trkpt lat="46.69918" lon="5.64948">
        <ele>516</ele>
        <time>2021-05-29T14:56:59.846Z</time>
      </trkpt>
      <trkpt lat="46.69917" lon="5.6495">
        <ele>516</ele>
        <time>2021-05-29T14:57:00.847Z</time>
      </trkpt>
      <trkpt lat="46.69916" lon="5.64952">
        <ele>517</ele>
        <time>2021-05-29T14:57:01.847Z</time>
      </trkpt>
      <trkpt lat="46.69915" lon="5.64955">
        <ele>517</ele>
        <time>2021-05-29T14:57:02.847Z</time>
      </trkpt>
      <trkpt lat="46.69914" lon="5.64957">
        <ele>517</ele>
        <time>2021-05-29T14:57:03.847Z</time>
      </trkpt>
      <trkpt lat="46.69914" lon="5.6496">
        <ele>517</ele>
        <time>2021-05-29T14:57:04.847Z</time>
      </trkpt>
      <trkpt lat="46.69913" lon="5.64963">
        <ele>517</ele>
        <time>2021-05-29T14:57:05.846Z</time>
      </trkpt>
      <trkpt lat="46.69912" lon="5.64966">
        <ele>517</ele>
        <time>2021-05-29T14:57:06.846Z</time>
      </trkpt>
      <trkpt lat="46.69911" lon="5.64971">
        <ele>517</ele>
        <time>2021-05-29T14:57:07.847Z</time>
      </trkpt>
      <trkpt lat="46.6991" lon="5.64976">
        <ele>517</ele>
        <time>2021-05-29T14:57:08.847Z</time>
      </trkpt>
      <trkpt lat="46.69909" lon="5.64979">
        <ele>517</ele>
        <time>2021-05-29T14:57:09.846Z</time>
      </trkpt>
      <trkpt lat="46.69909" lon="5.64982">
        <ele>517</ele>
        <time>2021-05-29T14:57:10.847Z</time>
      </trkpt>
      <trkpt lat="46.69909" lon="5.64984">
        <ele>517</ele>
        <time>2021-05-29T14:57:11.846Z</time>
      </trkpt>
      <trkpt lat="46.69909" lon="5.64987">
        <ele>517</ele>
        <time>2021-05-29T14:57:12.847Z</time>
      </trkpt>
      <trkpt lat="46.69909" lon="5.64989">
        <ele>517</ele>
        <time>2021-05-29T14:57:13.847Z</time>
      </trkpt>
      <trkpt lat="46.69908" lon="5.64992">
        <ele>516</ele>
        <time>2021-05-29T14:57:14.847Z</time>
      </trkpt>
      <trkpt lat="46.69908" lon="5.64994">
        <ele>515</ele>
        <time>2021-05-29T14:57:15.847Z</time>
      </trkpt>
      <trkpt lat="46.69908" lon="5.64997">
        <ele>515</ele>
        <time>2021-05-29T14:57:16.847Z</time>
      </trkpt>
      <trkpt lat="46.69907" lon="5.65">
        <ele>514</ele>
        <time>2021-05-29T14:57:17.847Z</time>
      </trkpt>
      <trkpt lat="46.69906" lon="5.65002">
        <ele>513</ele>
        <time>2021-05-29T14:57:18.847Z</time>
      </trkpt>
      <trkpt lat="46.69905" lon="5.65005">
        <ele>513</ele>
        <time>2021-05-29T14:58:32.924Z</time>
      </trkpt>
      <trkpt lat="46.69904" lon="5.65007">
        <ele>513</ele>
        <time>2021-05-29T14:58:33.923Z</time>
      </trkpt>
      <trkpt lat="46.69903" lon="5.6501">
        <ele>513</ele>
        <time>2021-05-29T14:58:34.924Z</time>
      </trkpt>
      <trkpt lat="46.69902" lon="5.65012">
        <ele>513</ele>
        <time>2021-05-29T14:58:35.924Z</time>
      </trkpt>
      <trkpt lat="46.69901" lon="5.65014">
        <ele>513</ele>
        <time>2021-05-29T14:58:36.924Z</time>
      </trkpt>
      <trkpt lat="46.699" lon="5.65016">
        <ele>513</ele>
        <time>2021-05-29T14:58:37.923Z</time>
      </trkpt>
      <trkpt lat="46.69898" lon="5.65019">
        <ele>513</ele>
        <time>2021-05-29T14:58:38.924Z</time>
      </trkpt>
      <trkpt lat="46.69897" lon="5.65021">
        <ele>513</ele>
        <time>2021-05-29T14:58:39.924Z</time>
      </trkpt>
      <trkpt lat="46.69896" lon="5.65023">
        <ele>513</ele>
        <time>2021-05-29T14:58:40.924Z</time>
      </trkpt>
      <trkpt lat="46.69895" lon="5.65025">
        <ele>513</ele>
        <time>2021-05-29T14:58:41.924Z</time>
      </trkpt>
      <trkpt lat="46.69894" lon="5.65028">
        <ele>514</ele>
        <time>2021-05-29T14:58:42.924Z</time>
      </trkpt>
      <trkpt lat="46.69892" lon="5.6503">
        <ele>514</ele>
        <time>2021-05-29T14:58:43.924Z</time>
      </trkpt>
      <trkpt lat="46.69891" lon="5.65032">
        <ele>515</ele>
        <time>2021-05-29T14:58:44.924Z</time>
      </trkpt>
      <trkpt lat="46.6989" lon="5.65035">
        <ele>515</ele>
        <time>2021-05-29T14:58:45.924Z</time>
      </trkpt>
      <trkpt lat="46.69889" lon="5.65037">
        <ele>515</ele>
        <time>2021-05-29T14:58:46.924Z</time>
      </trkpt>
      <trkpt lat="46.69888" lon="5.65038">
        <ele>515</ele>
        <time>2021-05-29T14:58:47.924Z</time>
      </trkpt>
      <trkpt lat="46.69886" lon="5.6504">
        <ele>515</ele>
        <time>2021-05-29T14:58:48.924Z</time>
      </trkpt>
      <trkpt lat="46.69885" lon="5.65043">
        <ele>515</ele>
        <time>2021-05-29T14:58:49.923Z</time>
      </trkpt>
      <trkpt lat="46.69884" lon="5.65045">
        <ele>515</ele>
        <time>2021-05-29T14:58:50.924Z</time>
      </trkpt>
      <trkpt lat="46.69882" lon="5.65048">
        <ele>514</ele>
        <time>2021-05-29T14:58:51.924Z</time>
      </trkpt>
      <trkpt lat="46.6988" lon="5.6505">
        <ele>514</ele>
        <time>2021-05-29T14:58:52.924Z</time>
      </trkpt>
      <trkpt lat="46.69879" lon="5.65052">
        <ele>515</ele>
        <time>2021-05-29T14:58:53.923Z</time>
      </trkpt>
      <trkpt lat="46.69877" lon="5.65055">
        <ele>515</ele>
        <time>2021-05-29T14:58:54.923Z</time>
      </trkpt>
      <trkpt lat="46.69876" lon="5.65058">
        <ele>515</ele>
        <time>2021-05-29T14:58:55.924Z</time>
      </trkpt>
      <trkpt lat="46.69875" lon="5.65061">
        <ele>515</ele>
        <time>2021-05-29T14:58:56.924Z</time>
      </trkpt>
      <trkpt lat="46.69873" lon="5.65064">
        <ele>515</ele>
        <time>2021-05-29T14:58:57.924Z</time>
      </trkpt>
      <trkpt lat="46.69871" lon="5.65067">
        <ele>516</ele>
        <time>2021-05-29T14:58:58.924Z</time>
      </trkpt>
      <trkpt lat="46.6987" lon="5.65069">
        <ele>516</ele>
        <time>2021-05-29T14:58:59.923Z</time>
      </trkpt>
      <trkpt lat="46.69868" lon="5.65072">
        <ele>515</ele>
        <time>2021-05-29T14:59:00.924Z</time>
      </trkpt>
      <trkpt lat="46.69867" lon="5.65075">
        <ele>515</ele>
        <time>2021-05-29T14:59:01.924Z</time>
      </trkpt>
      <trkpt lat="46.69865" lon="5.65077">
        <ele>515</ele>
        <time>2021-05-29T14:59:02.924Z</time>
      </trkpt>
      <trkpt lat="46.69863" lon="5.6508">
        <ele>515</ele>
        <time>2021-05-29T14:59:03.923Z</time>
      </trkpt>
      <trkpt lat="46.69862" lon="5.65082">
        <ele>515</ele>
        <time>2021-05-29T14:59:04.923Z</time>
      </trkpt>
      <trkpt lat="46.6986" lon="5.65084">
        <ele>516</ele>
        <time>2021-05-29T14:59:05.924Z</time>
      </trkpt>
      <trkpt lat="46.69857" lon="5.6509">
        <ele>516</ele>
        <time>2021-05-29T14:59:06.924Z</time>
      </trkpt>
      <trkpt lat="46.69855" lon="5.65093">
        <ele>516</ele>
        <time>2021-05-29T14:59:07.924Z</time>
      </trkpt>
      <trkpt lat="46.69853" lon="5.65096">
        <ele>516</ele>
        <time>2021-05-29T14:59:08.924Z</time>
      </trkpt>
      <trkpt lat="46.69851" lon="5.65098">
        <ele>516</ele>
        <time>2021-05-29T14:59:09.924Z</time>
      </trkpt>
      <trkpt lat="46.69848" lon="5.651">
        <ele>516</ele>
        <time>2021-05-29T14:59:10.924Z</time>
      </trkpt>
      <trkpt lat="46.69846" lon="5.65103">
        <ele>516</ele>
        <time>2021-05-29T14:59:11.924Z</time>
      </trkpt>
      <trkpt lat="46.69844" lon="5.65106">
        <ele>516</ele>
        <time>2021-05-29T14:59:12.923Z</time>
      </trkpt>
      <trkpt lat="46.69842" lon="5.65108">
        <ele>516</ele>
        <time>2021-05-29T14:59:13.923Z</time>
      </trkpt>
      <trkpt lat="46.6984" lon="5.65109">
        <ele>515</ele>
        <time>2021-05-29T14:59:14.924Z</time>
      </trkpt>
      <trkpt lat="46.69838" lon="5.65111">
        <ele>515</ele>
        <time>2021-05-29T14:59:15.924Z</time>
      </trkpt>
      <trkpt lat="46.69836" lon="5.65113">
        <ele>515</ele>
        <time>2021-05-29T14:59:16.924Z</time>
      </trkpt>
      <trkpt lat="46.69834" lon="5.65116">
        <ele>515</ele>
        <time>2021-05-29T14:59:17.924Z</time>
      </trkpt>
      <trkpt lat="46.69832" lon="5.65118">
        <ele>515</ele>
        <time>2021-05-29T14:59:18.924Z</time>
      </trkpt>
      <trkpt lat="46.69829" lon="5.65119">
        <ele>515</ele>
        <time>2021-05-29T14:59:19.924Z</time>
      </trkpt>
      <trkpt lat="46.69828" lon="5.6512">
        <ele>515</ele>
        <time>2021-05-29T14:59:20.924Z</time>
      </trkpt>
      <trkpt lat="46.69826" lon="5.65122">
        <ele>515</ele>
        <time>2021-05-29T14:59:21.924Z</time>
      </trkpt>
      <trkpt lat="46.69824" lon="5.65123">
        <ele>515</ele>
        <time>2021-05-29T14:59:22.924Z</time>
      </trkpt>
      <trkpt lat="46.69822" lon="5.65125">
        <ele>515</ele>
        <time>2021-05-29T14:59:23.924Z</time>
      </trkpt>
      <trkpt lat="46.6982" lon="5.65127">
        <ele>515</ele>
        <time>2021-05-29T14:59:24.924Z</time>
      </trkpt>
      <trkpt lat="46.69818" lon="5.65128">
        <ele>515</ele>
        <time>2021-05-29T14:59:25.924Z</time>
      </trkpt>
      <trkpt lat="46.69815" lon="5.65129">
        <ele>515</ele>
        <time>2021-05-29T14:59:26.923Z</time>
      </trkpt>
      <trkpt lat="46.69813" lon="5.6513">
        <ele>514</ele>
        <time>2021-05-29T14:59:27.924Z</time>
      </trkpt>
      <trkpt lat="46.69811" lon="5.65131">
        <ele>514</ele>
        <time>2021-05-29T14:59:28.923Z</time>
      </trkpt>
      <trkpt lat="46.6981" lon="5.65132">
        <ele>514</ele>
        <time>2021-05-29T14:59:29.924Z</time>
      </trkpt>
      <trkpt lat="46.69808" lon="5.65133">
        <ele>514</ele>
        <time>2021-05-29T14:59:30.924Z</time>
      </trkpt>
      <trkpt lat="46.69806" lon="5.65134">
        <ele>514</ele>
        <time>2021-05-29T14:59:31.924Z</time>
      </trkpt>
      <trkpt lat="46.69804" lon="5.65135">
        <ele>514</ele>
        <time>2021-05-29T14:59:32.924Z</time>
      </trkpt>
      <trkpt lat="46.69802" lon="5.65136">
        <ele>514</ele>
        <time>2021-05-29T14:59:33.924Z</time>
      </trkpt>
      <trkpt lat="46.698" lon="5.65136">
        <ele>515</ele>
        <time>2021-05-29T14:59:34.924Z</time>
      </trkpt>
      <trkpt lat="46.69798" lon="5.65137">
        <ele>515</ele>
        <time>2021-05-29T14:59:35.924Z</time>
      </trkpt>
      <trkpt lat="46.69796" lon="5.65139">
        <ele>515</ele>
        <time>2021-05-29T14:59:36.924Z</time>
      </trkpt>
      <trkpt lat="46.69794" lon="5.6514">
        <ele>514</ele>
        <time>2021-05-29T14:59:37.923Z</time>
      </trkpt>
      <trkpt lat="46.69792" lon="5.65141">
        <ele>514</ele>
        <time>2021-05-29T14:59:38.924Z</time>
      </trkpt>
      <trkpt lat="46.6979" lon="5.65141">
        <ele>514</ele>
        <time>2021-05-29T14:59:39.924Z</time>
      </trkpt>
      <trkpt lat="46.69788" lon="5.65142">
        <ele>514</ele>
        <time>2021-05-29T14:59:40.924Z</time>
      </trkpt>
      <trkpt lat="46.69786" lon="5.65143">
        <ele>514</ele>
        <time>2021-05-29T14:59:41.924Z</time>
      </trkpt>
      <trkpt lat="46.69784" lon="5.65144">
        <ele>515</ele>
        <time>2021-05-29T14:59:42.923Z</time>
      </trkpt>
      <trkpt lat="46.69782" lon="5.65145">
        <ele>515</ele>
        <time>2021-05-29T14:59:43.924Z</time>
      </trkpt>
      <trkpt lat="46.6978" lon="5.65147">
        <ele>515</ele>
        <time>2021-05-29T14:59:44.924Z</time>
      </trkpt>
      <trkpt lat="46.69778" lon="5.65148">
        <ele>516</ele>
        <time>2021-05-29T14:59:45.924Z</time>
      </trkpt>
      <trkpt lat="46.69776" lon="5.6515">
        <ele>516</ele>
        <time>2021-05-29T14:59:46.923Z</time>
      </trkpt>
      <trkpt lat="46.69774" lon="5.65152">
        <ele>516</ele>
        <time>2021-05-29T14:59:47.924Z</time>
      </trkpt>
      <trkpt lat="46.69772" lon="5.65154">
        <ele>516</ele>
        <time>2021-05-29T14:59:48.923Z</time>
      </trkpt>
      <trkpt lat="46.6977" lon="5.65156">
        <ele>516</ele>
        <time>2021-05-29T14:59:49.923Z</time>
      </trkpt>
      <trkpt lat="46.69768" lon="5.65158">
        <ele>516</ele>
        <time>2021-05-29T14:59:50.924Z</time>
      </trkpt>
      <trkpt lat="46.69766" lon="5.65161">
        <ele>516</ele>
        <time>2021-05-29T14:59:51.924Z</time>
      </trkpt>
      <trkpt lat="46.69764" lon="5.65163">
        <ele>516</ele>
        <time>2021-05-29T14:59:52.924Z</time>
      </trkpt>
      <trkpt lat="46.69762" lon="5.65166">
        <ele>516</ele>
        <time>2021-05-29T14:59:53.923Z</time>
      </trkpt>
      <trkpt lat="46.69761" lon="5.65168">
        <ele>516</ele>
        <time>2021-05-29T14:59:54.923Z</time>
      </trkpt>
      <trkpt lat="46.69759" lon="5.6517">
        <ele>515</ele>
        <time>2021-05-29T14:59:55.923Z</time>
      </trkpt>
      <trkpt lat="46.69756" lon="5.65172">
        <ele>515</ele>
        <time>2021-05-29T14:59:56.924Z</time>
      </trkpt>
      <trkpt lat="46.69754" lon="5.65174">
        <ele>515</ele>
        <time>2021-05-29T14:59:57.924Z</time>
      </trkpt>
      <trkpt lat="46.69752" lon="5.65175">
        <ele>514</ele>
        <time>2021-05-29T14:59:58.923Z</time>
      </trkpt>
      <trkpt lat="46.6975" lon="5.65177">
        <ele>514</ele>
        <time>2021-05-29T14:59:59.924Z</time>
      </trkpt>
      <trkpt lat="46.69748" lon="5.65178">
        <ele>514</ele>
        <time>2021-05-29T15:00:00.923Z</time>
      </trkpt>
      <trkpt lat="46.69745" lon="5.65179">
        <ele>514</ele>
        <time>2021-05-29T15:00:01.924Z</time>
      </trkpt>
      <trkpt lat="46.69742" lon="5.65179">
        <ele>514</ele>
        <time>2021-05-29T15:00:02.923Z</time>
      </trkpt>
      <trkpt lat="46.6974" lon="5.65179">
        <ele>514</ele>
        <time>2021-05-29T15:00:03.924Z</time>
      </trkpt>
      <trkpt lat="46.69738" lon="5.65179">
        <ele>513</ele>
        <time>2021-05-29T15:00:04.924Z</time>
      </trkpt>
      <trkpt lat="46.69736" lon="5.65179">
        <ele>513</ele>
        <time>2021-05-29T15:00:05.924Z</time>
      </trkpt>
      <trkpt lat="46.69734" lon="5.65179">
        <ele>513</ele>
        <time>2021-05-29T15:00:06.924Z</time>
      </trkpt>
      <trkpt lat="46.69731" lon="5.65179">
        <ele>512</ele>
        <time>2021-05-29T15:00:07.924Z</time>
      </trkpt>
      <trkpt lat="46.6973" lon="5.65179">
        <ele>512</ele>
        <time>2021-05-29T15:00:08.924Z</time>
      </trkpt>
      <trkpt lat="46.69728" lon="5.6518">
        <ele>512</ele>
        <time>2021-05-29T15:00:09.924Z</time>
      </trkpt>
      <trkpt lat="46.69726" lon="5.6518">
        <ele>511</ele>
        <time>2021-05-29T15:00:10.924Z</time>
      </trkpt>
      <trkpt lat="46.69724" lon="5.65181">
        <ele>511</ele>
        <time>2021-05-29T15:00:11.924Z</time>
      </trkpt>
      <trkpt lat="46.69722" lon="5.65183">
        <ele>511</ele>
        <time>2021-05-29T15:00:12.924Z</time>
      </trkpt>
      <trkpt lat="46.69718" lon="5.65185">
        <ele>512</ele>
        <time>2021-05-29T15:00:13.924Z</time>
      </trkpt>
      <trkpt lat="46.69716" lon="5.65186">
        <ele>512</ele>
        <time>2021-05-29T15:00:14.924Z</time>
      </trkpt>
      <trkpt lat="46.69714" lon="5.65186">
        <ele>512</ele>
        <time>2021-05-29T15:00:15.923Z</time>
      </trkpt>
      <trkpt lat="46.69712" lon="5.65187">
        <ele>512</ele>
        <time>2021-05-29T15:00:16.924Z</time>
      </trkpt>
      <trkpt lat="46.6971" lon="5.65188">
        <ele>512</ele>
        <time>2021-05-29T15:00:17.923Z</time>
      </trkpt>
      <trkpt lat="46.69707" lon="5.65189">
        <ele>512</ele>
        <time>2021-05-29T15:00:18.924Z</time>
      </trkpt>
      <trkpt lat="46.69706" lon="5.6519">
        <ele>513</ele>
        <time>2021-05-29T15:00:19.924Z</time>
      </trkpt>
      <trkpt lat="46.69704" lon="5.65191">
        <ele>513</ele>
        <time>2021-05-29T15:00:20.924Z</time>
      </trkpt>
      <trkpt lat="46.69702" lon="5.65191">
        <ele>512</ele>
        <time>2021-05-29T15:00:21.923Z</time>
      </trkpt>
      <trkpt lat="46.69699" lon="5.65192">
        <ele>512</ele>
        <time>2021-05-29T15:00:22.923Z</time>
      </trkpt>
      <trkpt lat="46.69697" lon="5.65192">
        <ele>512</ele>
        <time>2021-05-29T15:00:23.924Z</time>
      </trkpt>
      <trkpt lat="46.69695" lon="5.65192">
        <ele>512</ele>
        <time>2021-05-29T15:00:24.923Z</time>
      </trkpt>
      <trkpt lat="46.69693" lon="5.65193">
        <ele>512</ele>
        <time>2021-05-29T15:00:25.924Z</time>
      </trkpt>
      <trkpt lat="46.69691" lon="5.65193">
        <ele>512</ele>
        <time>2021-05-29T15:00:26.924Z</time>
      </trkpt>
      <trkpt lat="46.69688" lon="5.65193">
        <ele>512</ele>
        <time>2021-05-29T15:00:27.923Z</time>
      </trkpt>
      <trkpt lat="46.69686" lon="5.65194">
        <ele>512</ele>
        <time>2021-05-29T15:00:28.923Z</time>
      </trkpt>
      <trkpt lat="46.69684" lon="5.65195">
        <ele>512</ele>
        <time>2021-05-29T15:00:29.924Z</time>
      </trkpt>
      <trkpt lat="46.69682" lon="5.65196">
        <ele>511</ele>
        <time>2021-05-29T15:00:30.924Z</time>
      </trkpt>
      <trkpt lat="46.6968" lon="5.65196">
        <ele>511</ele>
        <time>2021-05-29T15:00:31.924Z</time>
      </trkpt>
      <trkpt lat="46.69677" lon="5.65196">
        <ele>511</ele>
        <time>2021-05-29T15:00:32.924Z</time>
      </trkpt>
      <trkpt lat="46.69674" lon="5.65196">
        <ele>510</ele>
        <time>2021-05-29T15:00:33.924Z</time>
      </trkpt>
      <trkpt lat="46.69671" lon="5.65198">
        <ele>510</ele>
        <time>2021-05-29T15:00:34.923Z</time>
      </trkpt>
      <trkpt lat="46.69668" lon="5.65199">
        <ele>509</ele>
        <time>2021-05-29T15:00:35.923Z</time>
      </trkpt>
      <trkpt lat="46.69665" lon="5.65201">
        <ele>509</ele>
        <time>2021-05-29T15:00:36.924Z</time>
      </trkpt>
      <trkpt lat="46.69663" lon="5.65202">
        <ele>509</ele>
        <time>2021-05-29T15:00:37.924Z</time>
      </trkpt>
      <trkpt lat="46.69661" lon="5.65203">
        <ele>509</ele>
        <time>2021-05-29T15:00:38.923Z</time>
      </trkpt>
      <trkpt lat="46.69658" lon="5.65205">
        <ele>509</ele>
        <time>2021-05-29T15:00:39.924Z</time>
      </trkpt>
      <trkpt lat="46.69656" lon="5.65206">
        <ele>509</ele>
        <time>2021-05-29T15:00:40.924Z</time>
      </trkpt>
      <trkpt lat="46.69654" lon="5.65207">
        <ele>509</ele>
        <time>2021-05-29T15:00:41.924Z</time>
      </trkpt>
      <trkpt lat="46.69651" lon="5.65207">
        <ele>508</ele>
        <time>2021-05-29T15:00:42.924Z</time>
      </trkpt>
      <trkpt lat="46.69649" lon="5.65209">
        <ele>508</ele>
        <time>2021-05-29T15:00:43.923Z</time>
      </trkpt>
      <trkpt lat="46.69647" lon="5.65211">
        <ele>508</ele>
        <time>2021-05-29T15:00:44.924Z</time>
      </trkpt>
      <trkpt lat="46.69645" lon="5.65213">
        <ele>508</ele>
        <time>2021-05-29T15:00:45.924Z</time>
      </trkpt>
      <trkpt lat="46.69643" lon="5.65214">
        <ele>508</ele>
        <time>2021-05-29T15:00:46.924Z</time>
      </trkpt>
      <trkpt lat="46.69642" lon="5.65215">
        <ele>508</ele>
        <time>2021-05-29T15:00:47.924Z</time>
      </trkpt>
      <trkpt lat="46.6964" lon="5.65217">
        <ele>508</ele>
        <time>2021-05-29T15:00:48.923Z</time>
      </trkpt>
      <trkpt lat="46.69638" lon="5.65218">
        <ele>508</ele>
        <time>2021-05-29T15:00:49.924Z</time>
      </trkpt>
      <trkpt lat="46.69636" lon="5.65219">
        <ele>509</ele>
        <time>2021-05-29T15:00:50.924Z</time>
      </trkpt>
      <trkpt lat="46.69634" lon="5.6522">
        <ele>509</ele>
        <time>2021-05-29T15:00:51.924Z</time>
      </trkpt>
      <trkpt lat="46.69632" lon="5.65221">
        <ele>509</ele>
        <time>2021-05-29T15:00:52.924Z</time>
      </trkpt>
      <trkpt lat="46.6963" lon="5.65222">
        <ele>509</ele>
        <time>2021-05-29T15:00:53.923Z</time>
      </trkpt>
      <trkpt lat="46.69628" lon="5.65222">
        <ele>509</ele>
        <time>2021-05-29T15:00:54.924Z</time>
      </trkpt>
      <trkpt lat="46.69627" lon="5.65224">
        <ele>509</ele>
        <time>2021-05-29T15:00:55.924Z</time>
      </trkpt>
      <trkpt lat="46.69625" lon="5.65225">
        <ele>509</ele>
        <time>2021-05-29T15:00:56.924Z</time>
      </trkpt>
      <trkpt lat="46.69623" lon="5.65227">
        <ele>510</ele>
        <time>2021-05-29T15:00:57.923Z</time>
      </trkpt>
      <trkpt lat="46.69621" lon="5.65228">
        <ele>510</ele>
        <time>2021-05-29T15:00:58.924Z</time>
      </trkpt>
      <trkpt lat="46.6962" lon="5.6523">
        <ele>510</ele>
        <time>2021-05-29T15:00:59.924Z</time>
      </trkpt>
      <trkpt lat="46.69618" lon="5.65232">
        <ele>510</ele>
        <time>2021-05-29T15:01:00.924Z</time>
      </trkpt>
      <trkpt lat="46.69617" lon="5.65233">
        <ele>510</ele>
        <time>2021-05-29T15:01:01.924Z</time>
      </trkpt>
      <trkpt lat="46.69615" lon="5.65236">
        <ele>510</ele>
        <time>2021-05-29T15:01:02.924Z</time>
      </trkpt>
      <trkpt lat="46.69613" lon="5.65238">
        <ele>510</ele>
        <time>2021-05-29T15:01:03.923Z</time>
      </trkpt>
      <trkpt lat="46.69611" lon="5.65241">
        <ele>510</ele>
        <time>2021-05-29T15:01:04.923Z</time>
      </trkpt>
      <trkpt lat="46.69609" lon="5.65243">
        <ele>510</ele>
        <time>2021-05-29T15:01:05.924Z</time>
      </trkpt>
      <trkpt lat="46.69607" lon="5.65246">
        <ele>510</ele>
        <time>2021-05-29T15:01:06.924Z</time>
      </trkpt>
      <trkpt lat="46.69605" lon="5.65248">
        <ele>511</ele>
        <time>2021-05-29T15:01:07.923Z</time>
      </trkpt>
      <trkpt lat="46.69603" lon="5.65251">
        <ele>511</ele>
        <time>2021-05-29T15:01:08.924Z</time>
      </trkpt>
      <trkpt lat="46.69601" lon="5.65253">
        <ele>511</ele>
        <time>2021-05-29T15:01:09.924Z</time>
      </trkpt>
      <trkpt lat="46.69599" lon="5.65254">
        <ele>512</ele>
        <time>2021-05-29T15:01:10.924Z</time>
      </trkpt>
      <trkpt lat="46.69597" lon="5.65255">
        <ele>512</ele>
        <time>2021-05-29T15:01:11.924Z</time>
      </trkpt>
      <trkpt lat="46.69596" lon="5.65257">
        <ele>511</ele>
        <time>2021-05-29T15:01:12.924Z</time>
      </trkpt>
      <trkpt lat="46.69594" lon="5.65259">
        <ele>512</ele>
        <time>2021-05-29T15:01:13.924Z</time>
      </trkpt>
      <trkpt lat="46.69592" lon="5.65261">
        <ele>512</ele>
        <time>2021-05-29T15:01:14.924Z</time>
      </trkpt>
      <trkpt lat="46.69591" lon="5.65262">
        <ele>512</ele>
        <time>2021-05-29T15:01:15.924Z</time>
      </trkpt>
      <trkpt lat="46.69589" lon="5.65262">
        <ele>512</ele>
        <time>2021-05-29T15:01:16.924Z</time>
      </trkpt>
      <trkpt lat="46.69588" lon="5.65261">
        <ele>512</ele>
        <time>2021-05-29T15:01:17.924Z</time>
      </trkpt>
      <trkpt lat="46.69589" lon="5.6526">
        <ele>512</ele>
        <time>2021-05-29T15:01:18.924Z</time>
      </trkpt>
      <trkpt lat="46.6959" lon="5.65268">
        <ele>510</ele>
        <time>2021-05-29T15:01:19.924Z</time>
      </trkpt>
      <trkpt lat="46.6959" lon="5.65268">
        <ele>509</ele>
        <time>2021-05-29T15:01:20.924Z</time>
      </trkpt>
      <trkpt lat="46.6959" lon="5.65268">
        <ele>509</ele>
        <time>2021-05-29T15:01:21.923Z</time>
      </trkpt>
      <trkpt lat="46.6959" lon="5.65268">
        <ele>509</ele>
        <time>2021-05-29T15:01:22.923Z</time>
      </trkpt>
      <trkpt lat="46.6959" lon="5.65268">
        <ele>509</ele>
        <time>2021-05-29T15:01:23.923Z</time>
      </trkpt>
      <trkpt lat="46.6959" lon="5.65268">
        <ele>508</ele>
        <time>2021-05-29T15:01:24.924Z</time>
      </trkpt>
      <trkpt lat="46.6959" lon="5.65268">
        <ele>508</ele>
        <time>2021-05-29T15:01:25.923Z</time>
      </trkpt>
      <trkpt lat="46.6959" lon="5.65268">
        <ele>508</ele>
        <time>2021-05-29T15:01:26.924Z</time>
      </trkpt>
      <trkpt lat="46.6959" lon="5.65268">
        <ele>508</ele>
        <time>2021-05-29T15:01:27.924Z</time>
      </trkpt>
      <trkpt lat="46.69589" lon="5.6527">
        <ele>508</ele>
        <time>2021-05-29T15:01:28.924Z</time>
      </trkpt>
      <trkpt lat="46.69589" lon="5.65272">
        <ele>508</ele>
        <time>2021-05-29T15:01:29.923Z</time>
      </trkpt>
      <trkpt lat="46.69588" lon="5.65274">
        <ele>508</ele>
        <time>2021-05-29T15:01:30.923Z</time>
      </trkpt>
      <trkpt lat="46.69588" lon="5.65276">
        <ele>507</ele>
        <time>2021-05-29T15:01:31.924Z</time>
      </trkpt>
      <trkpt lat="46.69587" lon="5.65279">
        <ele>507</ele>
        <time>2021-05-29T15:01:32.923Z</time>
      </trkpt>
      <trkpt lat="46.69586" lon="5.65282">
        <ele>507</ele>
        <time>2021-05-29T15:01:33.924Z</time>
      </trkpt>
      <trkpt lat="46.69586" lon="5.65284">
        <ele>507</ele>
        <time>2021-05-29T15:01:34.924Z</time>
      </trkpt>
      <trkpt lat="46.69586" lon="5.65287">
        <ele>508</ele>
        <time>2021-05-29T15:01:35.924Z</time>
      </trkpt>
      <trkpt lat="46.69586" lon="5.6529">
        <ele>507</ele>
        <time>2021-05-29T15:01:36.923Z</time>
      </trkpt>
      <trkpt lat="46.69585" lon="5.65292">
        <ele>507</ele>
        <time>2021-05-29T15:01:37.924Z</time>
      </trkpt>
      <trkpt lat="46.69585" lon="5.65294">
        <ele>506</ele>
        <time>2021-05-29T15:01:38.924Z</time>
      </trkpt>
      <trkpt lat="46.69585" lon="5.65295">
        <ele>506</ele>
        <time>2021-05-29T15:01:39.924Z</time>
      </trkpt>
      <trkpt lat="46.69584" lon="5.65296">
        <ele>505</ele>
        <time>2021-05-29T15:01:40.924Z</time>
      </trkpt>
      <trkpt lat="46.69584" lon="5.65297">
        <ele>504</ele>
        <time>2021-05-29T15:01:41.924Z</time>
      </trkpt>
      <trkpt lat="46.69584" lon="5.65298">
        <ele>503</ele>
        <time>2021-05-29T15:01:42.924Z</time>
      </trkpt>
      <trkpt lat="46.69583" lon="5.65299">
        <ele>503</ele>
        <time>2021-05-29T15:01:43.924Z</time>
      </trkpt>
      <trkpt lat="46.69582" lon="5.653">
        <ele>503</ele>
        <time>2021-05-29T15:01:44.923Z</time>
      </trkpt>
      <trkpt lat="46.69582" lon="5.65302">
        <ele>503</ele>
        <time>2021-05-29T15:01:45.924Z</time>
      </trkpt>
      <trkpt lat="46.69582" lon="5.65303">
        <ele>503</ele>
        <time>2021-05-29T15:01:46.924Z</time>
      </trkpt>
      <trkpt lat="46.69581" lon="5.65304">
        <ele>503</ele>
        <time>2021-05-29T15:01:47.924Z</time>
      </trkpt>
      <trkpt lat="46.69581" lon="5.65305">
        <ele>503</ele>
        <time>2021-05-29T15:01:48.923Z</time>
      </trkpt>
      <trkpt lat="46.6958" lon="5.65305">
        <ele>504</ele>
        <time>2021-05-29T15:01:49.924Z</time>
      </trkpt>
      <trkpt lat="46.6958" lon="5.65307">
        <ele>504</ele>
        <time>2021-05-29T15:01:50.924Z</time>
      </trkpt>
      <trkpt lat="46.6958" lon="5.65309">
        <ele>505</ele>
        <time>2021-05-29T15:01:51.924Z</time>
      </trkpt>
      <trkpt lat="46.69579" lon="5.65311">
        <ele>506</ele>
        <time>2021-05-29T15:01:52.923Z</time>
      </trkpt>
      <trkpt lat="46.69578" lon="5.65314">
        <ele>507</ele>
        <time>2021-05-29T15:01:53.924Z</time>
      </trkpt>
      <trkpt lat="46.69577" lon="5.65318">
        <ele>507</ele>
        <time>2021-05-29T15:01:54.923Z</time>
      </trkpt>
      <trkpt lat="46.69576" lon="5.6532">
        <ele>508</ele>
        <time>2021-05-29T15:01:55.924Z</time>
      </trkpt>
      <trkpt lat="46.69575" lon="5.65323">
        <ele>508</ele>
        <time>2021-05-29T15:01:56.924Z</time>
      </trkpt>
      <trkpt lat="46.69574" lon="5.65325">
        <ele>508</ele>
        <time>2021-05-29T15:01:57.923Z</time>
      </trkpt>
      <trkpt lat="46.69574" lon="5.65327">
        <ele>508</ele>
        <time>2021-05-29T15:01:58.923Z</time>
      </trkpt>
      <trkpt lat="46.69575" lon="5.65329">
        <ele>509</ele>
        <time>2021-05-29T15:01:59.924Z</time>
      </trkpt>
      <trkpt lat="46.69576" lon="5.65331">
        <ele>509</ele>
        <time>2021-05-29T15:02:00.924Z</time>
      </trkpt>
      <trkpt lat="46.69576" lon="5.65333">
        <ele>509</ele>
        <time>2021-05-29T15:02:01.924Z</time>
      </trkpt>
      <trkpt lat="46.69576" lon="5.65335">
        <ele>509</ele>
        <time>2021-05-29T15:02:02.923Z</time>
      </trkpt>
      <trkpt lat="46.69576" lon="5.65337">
        <ele>509</ele>
        <time>2021-05-29T15:02:03.924Z</time>
      </trkpt>
      <trkpt lat="46.69576" lon="5.6534">
        <ele>509</ele>
        <time>2021-05-29T15:02:04.924Z</time>
      </trkpt>
      <trkpt lat="46.69575" lon="5.65342">
        <ele>509</ele>
        <time>2021-05-29T15:02:05.924Z</time>
      </trkpt>
      <trkpt lat="46.69575" lon="5.65345">
        <ele>509</ele>
        <time>2021-05-29T15:02:06.924Z</time>
      </trkpt>
      <trkpt lat="46.69574" lon="5.65345">
        <ele>509</ele>
        <time>2021-05-29T15:02:07.923Z</time>
      </trkpt>
      <trkpt lat="46.69574" lon="5.65346">
        <ele>509</ele>
        <time>2021-05-29T15:02:08.924Z</time>
      </trkpt>
      <trkpt lat="46.69575" lon="5.65346">
        <ele>509</ele>
        <time>2021-05-29T15:02:09.924Z</time>
      </trkpt>
      <trkpt lat="46.69576" lon="5.65346">
        <ele>509</ele>
        <time>2021-05-29T15:02:10.923Z</time>
      </trkpt>
      <trkpt lat="46.69576" lon="5.65346">
        <ele>509</ele>
        <time>2021-05-29T15:02:11.924Z</time>
      </trkpt>
      <trkpt lat="46.69576" lon="5.65347">
        <ele>509</ele>
        <time>2021-05-29T15:02:12.924Z</time>
      </trkpt>
      <trkpt lat="46.69575" lon="5.65348">
        <ele>509</ele>
        <time>2021-05-29T15:02:13.924Z</time>
      </trkpt>
      <trkpt lat="46.69575" lon="5.6535">
        <ele>509</ele>
        <time>2021-05-29T15:02:14.924Z</time>
      </trkpt>
      <trkpt lat="46.69575" lon="5.65351">
        <ele>509</ele>
        <time>2021-05-29T15:02:15.923Z</time>
      </trkpt>
      <trkpt lat="46.69575" lon="5.65352">
        <ele>509</ele>
        <time>2021-05-29T15:02:16.924Z</time>
      </trkpt>
      <trkpt lat="46.69575" lon="5.65354">
        <ele>509</ele>
        <time>2021-05-29T15:02:17.924Z</time>
      </trkpt>
      <trkpt lat="46.69574" lon="5.65356">
        <ele>509</ele>
        <time>2021-05-29T15:02:18.923Z</time>
      </trkpt>
      <trkpt lat="46.69573" lon="5.65358">
        <ele>509</ele>
        <time>2021-05-29T15:02:19.923Z</time>
      </trkpt>
      <trkpt lat="46.69572" lon="5.6536">
        <ele>510</ele>
        <time>2021-05-29T15:02:20.924Z</time>
      </trkpt>
      <trkpt lat="46.69571" lon="5.65362">
        <ele>510</ele>
        <time>2021-05-29T15:02:21.923Z</time>
      </trkpt>
      <trkpt lat="46.69569" lon="5.65364">
        <ele>511</ele>
        <time>2021-05-29T15:02:22.923Z</time>
      </trkpt>
      <trkpt lat="46.69568" lon="5.65367">
        <ele>511</ele>
        <time>2021-05-29T15:02:23.923Z</time>
      </trkpt>
      <trkpt lat="46.69567" lon="5.65369">
        <ele>512</ele>
        <time>2021-05-29T15:02:24.924Z</time>
      </trkpt>
      <trkpt lat="46.69566" lon="5.65372">
        <ele>512</ele>
        <time>2021-05-29T15:02:25.923Z</time>
      </trkpt>
      <trkpt lat="46.69566" lon="5.65375">
        <ele>512</ele>
        <time>2021-05-29T15:02:26.923Z</time>
      </trkpt>
      <trkpt lat="46.69566" lon="5.65377">
        <ele>512</ele>
        <time>2021-05-29T15:02:27.924Z</time>
      </trkpt>
      <trkpt lat="46.69566" lon="5.65379">
        <ele>511</ele>
        <time>2021-05-29T15:02:28.924Z</time>
      </trkpt>
      <trkpt lat="46.69565" lon="5.65381">
        <ele>511</ele>
        <time>2021-05-29T15:02:29.924Z</time>
      </trkpt>
      <trkpt lat="46.69565" lon="5.65383">
        <ele>511</ele>
        <time>2021-05-29T15:02:30.924Z</time>
      </trkpt>
      <trkpt lat="46.69564" lon="5.65385">
        <ele>511</ele>
        <time>2021-05-29T15:02:31.924Z</time>
      </trkpt>
      <trkpt lat="46.69563" lon="5.65387">
        <ele>511</ele>
        <time>2021-05-29T15:02:32.924Z</time>
      </trkpt>
      <trkpt lat="46.69562" lon="5.65388">
        <ele>511</ele>
        <time>2021-05-29T15:02:33.924Z</time>
      </trkpt>
      <trkpt lat="46.69561" lon="5.6539">
        <ele>510</ele>
        <time>2021-05-29T15:02:34.924Z</time>
      </trkpt>
      <trkpt lat="46.69561" lon="5.65393">
        <ele>510</ele>
        <time>2021-05-29T15:02:35.924Z</time>
      </trkpt>
      <trkpt lat="46.69562" lon="5.65397">
        <ele>510</ele>
        <time>2021-05-29T15:02:36.924Z</time>
      </trkpt>
      <trkpt lat="46.69561" lon="5.654">
        <ele>511</ele>
        <time>2021-05-29T15:02:37.924Z</time>
      </trkpt>
      <trkpt lat="46.69561" lon="5.65404">
        <ele>511</ele>
        <time>2021-05-29T15:02:38.924Z</time>
      </trkpt>
      <trkpt lat="46.69561" lon="5.65407">
        <ele>511</ele>
        <time>2021-05-29T15:02:39.924Z</time>
      </trkpt>
      <trkpt lat="46.6956" lon="5.65409">
        <ele>511</ele>
        <time>2021-05-29T15:02:40.924Z</time>
      </trkpt>
      <trkpt lat="46.6956" lon="5.65409">
        <ele>511</ele>
        <time>2021-05-29T15:02:41.923Z</time>
      </trkpt>
      <trkpt lat="46.6956" lon="5.65409">
        <ele>512</ele>
        <time>2021-05-29T15:02:42.923Z</time>
      </trkpt>
      <trkpt lat="46.6956" lon="5.6541">
        <ele>512</ele>
        <time>2021-05-29T15:02:43.924Z</time>
      </trkpt>
      <trkpt lat="46.6956" lon="5.6541">
        <ele>512</ele>
        <time>2021-05-29T15:02:44.923Z</time>
      </trkpt>
      <trkpt lat="46.6956" lon="5.6541">
        <ele>512</ele>
        <time>2021-05-29T15:02:45.924Z</time>
      </trkpt>
      <trkpt lat="46.6956" lon="5.6541">
        <ele>512</ele>
        <time>2021-05-29T15:02:46.924Z</time>
      </trkpt>
      <trkpt lat="46.6956" lon="5.65411">
        <ele>512</ele>
        <time>2021-05-29T15:02:47.924Z</time>
      </trkpt>
      <trkpt lat="46.6956" lon="5.65411">
        <ele>511</ele>
        <time>2021-05-29T15:02:48.923Z</time>
      </trkpt>
      <trkpt lat="46.6956" lon="5.65412">
        <ele>511</ele>
        <time>2021-05-29T15:02:49.924Z</time>
      </trkpt>
      <trkpt lat="46.6956" lon="5.65412">
        <ele>510</ele>
        <time>2021-05-29T15:02:50.924Z</time>
      </trkpt>
      <trkpt lat="46.6956" lon="5.65412">
        <ele>510</ele>
        <time>2021-05-29T15:02:51.923Z</time>
      </trkpt>
      <trkpt lat="46.69559" lon="5.65412">
        <ele>510</ele>
        <time>2021-05-29T15:02:52.923Z</time>
      </trkpt>
      <trkpt lat="46.69559" lon="5.65411">
        <ele>510</ele>
        <time>2021-05-29T15:02:53.924Z</time>
      </trkpt>
      <trkpt lat="46.69559" lon="5.65411">
        <ele>510</ele>
        <time>2021-05-29T15:02:54.924Z</time>
      </trkpt>
      <trkpt lat="46.69559" lon="5.65411">
        <ele>510</ele>
        <time>2021-05-29T15:02:55.923Z</time>
      </trkpt>
      <trkpt lat="46.69559" lon="5.65411">
        <ele>510</ele>
        <time>2021-05-29T15:02:56.924Z</time>
      </trkpt>
      <trkpt lat="46.69559" lon="5.65411">
        <ele>510</ele>
        <time>2021-05-29T15:02:57.924Z</time>
      </trkpt>
      <trkpt lat="46.69559" lon="5.65411">
        <ele>509</ele>
        <time>2021-05-29T15:02:58.924Z</time>
      </trkpt>
      <trkpt lat="46.69559" lon="5.65411">
        <ele>509</ele>
        <time>2021-05-29T15:02:59.924Z</time>
      </trkpt>
      <trkpt lat="46.69559" lon="5.65411">
        <ele>509</ele>
        <time>2021-05-29T15:03:00.923Z</time>
      </trkpt>
      <trkpt lat="46.69559" lon="5.65411">
        <ele>509</ele>
        <time>2021-05-29T15:03:01.924Z</time>
      </trkpt>
      <trkpt lat="46.69559" lon="5.65411">
        <ele>509</ele>
        <time>2021-05-29T15:03:02.924Z</time>
      </trkpt>
      <trkpt lat="46.69559" lon="5.65411">
        <ele>509</ele>
        <time>2021-05-29T15:03:03.924Z</time>
      </trkpt>
      <trkpt lat="46.69559" lon="5.65411">
        <ele>508</ele>
        <time>2021-05-29T15:03:04.923Z</time>
      </trkpt>
      <trkpt lat="46.69559" lon="5.65413">
        <ele>508</ele>
        <time>2021-05-29T15:03:05.924Z</time>
      </trkpt>
      <trkpt lat="46.69558" lon="5.65417">
        <ele>508</ele>
        <time>2021-05-29T15:03:06.924Z</time>
      </trkpt>
      <trkpt lat="46.69558" lon="5.65421">
        <ele>508</ele>
        <time>2021-05-29T15:03:07.924Z</time>
      </trkpt>
      <trkpt lat="46.69558" lon="5.65424">
        <ele>508</ele>
        <time>2021-05-29T15:03:08.924Z</time>
      </trkpt>
      <trkpt lat="46.69558" lon="5.65428">
        <ele>508</ele>
        <time>2021-05-29T15:03:09.924Z</time>
      </trkpt>
      <trkpt lat="46.69558" lon="5.65431">
        <ele>508</ele>
        <time>2021-05-29T15:03:10.923Z</time>
      </trkpt>
      <trkpt lat="46.69557" lon="5.65435">
        <ele>507</ele>
        <time>2021-05-29T15:03:11.924Z</time>
      </trkpt>
      <trkpt lat="46.69557" lon="5.65438">
        <ele>507</ele>
        <time>2021-05-29T15:03:12.924Z</time>
      </trkpt>
      <trkpt lat="46.69557" lon="5.65442">
        <ele>506</ele>
        <time>2021-05-29T15:03:13.924Z</time>
      </trkpt>
      <trkpt lat="46.69556" lon="5.65446">
        <ele>506</ele>
        <time>2021-05-29T15:03:14.924Z</time>
      </trkpt>
      <trkpt lat="46.69556" lon="5.65448">
        <ele>506</ele>
        <time>2021-05-29T15:03:15.924Z</time>
      </trkpt>
      <trkpt lat="46.69557" lon="5.6545">
        <ele>506</ele>
        <time>2021-05-29T15:03:16.924Z</time>
      </trkpt>
      <trkpt lat="46.69557" lon="5.65454">
        <ele>506</ele>
        <time>2021-05-29T15:03:17.924Z</time>
      </trkpt>
      <trkpt lat="46.69557" lon="5.65458">
        <ele>506</ele>
        <time>2021-05-29T15:03:18.924Z</time>
      </trkpt>
      <trkpt lat="46.69558" lon="5.65461">
        <ele>506</ele>
        <time>2021-05-29T15:03:19.924Z</time>
      </trkpt>
      <trkpt lat="46.69559" lon="5.65463">
        <ele>506</ele>
        <time>2021-05-29T15:03:20.924Z</time>
      </trkpt>
      <trkpt lat="46.69559" lon="5.65466">
        <ele>506</ele>
        <time>2021-05-29T15:03:21.924Z</time>
      </trkpt>
      <trkpt lat="46.6956" lon="5.65469">
        <ele>506</ele>
        <time>2021-05-29T15:03:22.924Z</time>
      </trkpt>
      <trkpt lat="46.69561" lon="5.65472">
        <ele>506</ele>
        <time>2021-05-29T15:03:23.923Z</time>
      </trkpt>
      <trkpt lat="46.69561" lon="5.65474">
        <ele>506</ele>
        <time>2021-05-29T15:03:24.924Z</time>
      </trkpt>
      <trkpt lat="46.69561" lon="5.65476">
        <ele>506</ele>
        <time>2021-05-29T15:03:25.923Z</time>
      </trkpt>
      <trkpt lat="46.69561" lon="5.65478">
        <ele>507</ele>
        <time>2021-05-29T15:03:26.924Z</time>
      </trkpt>
      <trkpt lat="46.69562" lon="5.6548">
        <ele>507</ele>
        <time>2021-05-29T15:03:27.923Z</time>
      </trkpt>
      <trkpt lat="46.69562" lon="5.65482">
        <ele>507</ele>
        <time>2021-05-29T15:03:28.923Z</time>
      </trkpt>
      <trkpt lat="46.69562" lon="5.65486">
        <ele>508</ele>
        <time>2021-05-29T15:03:29.924Z</time>
      </trkpt>
      <trkpt lat="46.69563" lon="5.65488">
        <ele>508</ele>
        <time>2021-05-29T15:03:30.923Z</time>
      </trkpt>
      <trkpt lat="46.69564" lon="5.65492">
        <ele>509</ele>
        <time>2021-05-29T15:03:31.924Z</time>
      </trkpt>
      <trkpt lat="46.69564" lon="5.65495">
        <ele>509</ele>
        <time>2021-05-29T15:03:32.924Z</time>
      </trkpt>
      <trkpt lat="46.69565" lon="5.65497">
        <ele>509</ele>
        <time>2021-05-29T15:03:33.924Z</time>
      </trkpt>
      <trkpt lat="46.69566" lon="5.65499">
        <ele>510</ele>
        <time>2021-05-29T15:03:34.923Z</time>
      </trkpt>
      <trkpt lat="46.69566" lon="5.65501">
        <ele>510</ele>
        <time>2021-05-29T15:03:35.924Z</time>
      </trkpt>
      <trkpt lat="46.69567" lon="5.65503">
        <ele>510</ele>
        <time>2021-05-29T15:03:36.923Z</time>
      </trkpt>
      <trkpt lat="46.69567" lon="5.65504">
        <ele>510</ele>
        <time>2021-05-29T15:03:37.924Z</time>
      </trkpt>
      <trkpt lat="46.69568" lon="5.65504">
        <ele>510</ele>
        <time>2021-05-29T15:03:38.923Z</time>
      </trkpt>
      <trkpt lat="46.69568" lon="5.65504">
        <ele>510</ele>
        <time>2021-05-29T15:03:39.923Z</time>
      </trkpt>
      <trkpt lat="46.69568" lon="5.65504">
        <ele>511</ele>
        <time>2021-05-29T15:03:40.923Z</time>
      </trkpt>
      <trkpt lat="46.69569" lon="5.65505">
        <ele>511</ele>
        <time>2021-05-29T15:03:41.923Z</time>
      </trkpt>
      <trkpt lat="46.6957" lon="5.65507">
        <ele>511</ele>
        <time>2021-05-29T15:03:42.924Z</time>
      </trkpt>
      <trkpt lat="46.6957" lon="5.65509">
        <ele>511</ele>
        <time>2021-05-29T15:03:43.923Z</time>
      </trkpt>
      <trkpt lat="46.69571" lon="5.6551">
        <ele>511</ele>
        <time>2021-05-29T15:03:44.923Z</time>
      </trkpt>
      <trkpt lat="46.69572" lon="5.65511">
        <ele>511</ele>
        <time>2021-05-29T15:03:45.923Z</time>
      </trkpt>
      <trkpt lat="46.69573" lon="5.65513">
        <ele>510</ele>
        <time>2021-05-29T15:03:46.924Z</time>
      </trkpt>
      <trkpt lat="46.69573" lon="5.65514">
        <ele>510</ele>
        <time>2021-05-29T15:03:47.924Z</time>
      </trkpt>
      <trkpt lat="46.69573" lon="5.65517">
        <ele>509</ele>
        <time>2021-05-29T15:03:48.924Z</time>
      </trkpt>
      <trkpt lat="46.69573" lon="5.65518">
        <ele>509</ele>
        <time>2021-05-29T15:03:49.924Z</time>
      </trkpt>
      <trkpt lat="46.69574" lon="5.65521">
        <ele>508</ele>
        <time>2021-05-29T15:03:50.923Z</time>
      </trkpt>
      <trkpt lat="46.69573" lon="5.65523">
        <ele>508</ele>
        <time>2021-05-29T15:03:51.923Z</time>
      </trkpt>
      <trkpt lat="46.69573" lon="5.65525">
        <ele>508</ele>
        <time>2021-05-29T15:03:52.924Z</time>
      </trkpt>
      <trkpt lat="46.69572" lon="5.65527">
        <ele>507</ele>
        <time>2021-05-29T15:03:53.923Z</time>
      </trkpt>
      <trkpt lat="46.69572" lon="5.65529">
        <ele>507</ele>
        <time>2021-05-29T15:03:54.924Z</time>
      </trkpt>
      <trkpt lat="46.69571" lon="5.65531">
        <ele>507</ele>
        <time>2021-05-29T15:03:55.924Z</time>
      </trkpt>
      <trkpt lat="46.6957" lon="5.65533">
        <ele>506</ele>
        <time>2021-05-29T15:03:56.924Z</time>
      </trkpt>
      <trkpt lat="46.6957" lon="5.65535">
        <ele>506</ele>
        <time>2021-05-29T15:03:57.924Z</time>
      </trkpt>
      <trkpt lat="46.6957" lon="5.65536">
        <ele>507</ele>
        <time>2021-05-29T15:03:58.924Z</time>
      </trkpt>
      <trkpt lat="46.69571" lon="5.65537">
        <ele>507</ele>
        <time>2021-05-29T15:03:59.923Z</time>
      </trkpt>
      <trkpt lat="46.69571" lon="5.65539">
        <ele>507</ele>
        <time>2021-05-29T15:04:00.923Z</time>
      </trkpt>
      <trkpt lat="46.69572" lon="5.65541">
        <ele>507</ele>
        <time>2021-05-29T15:04:01.923Z</time>
      </trkpt>
      <trkpt lat="46.69572" lon="5.65542">
        <ele>508</ele>
        <time>2021-05-29T15:04:02.924Z</time>
      </trkpt>
      <trkpt lat="46.69572" lon="5.65544">
        <ele>508</ele>
        <time>2021-05-29T15:04:03.924Z</time>
      </trkpt>
      <trkpt lat="46.69572" lon="5.65546">
        <ele>508</ele>
        <time>2021-05-29T15:04:04.924Z</time>
      </trkpt>
      <trkpt lat="46.69572" lon="5.65547">
        <ele>508</ele>
        <time>2021-05-29T15:04:05.923Z</time>
      </trkpt>
      <trkpt lat="46.69573" lon="5.65549">
        <ele>508</ele>
        <time>2021-05-29T15:04:06.924Z</time>
      </trkpt>
      <trkpt lat="46.69573" lon="5.65552">
        <ele>508</ele>
        <time>2021-05-29T15:04:07.924Z</time>
      </trkpt>
      <trkpt lat="46.69572" lon="5.65553">
        <ele>507</ele>
        <time>2021-05-29T15:04:08.924Z</time>
      </trkpt>
      <trkpt lat="46.69572" lon="5.65555">
        <ele>507</ele>
        <time>2021-05-29T15:04:09.924Z</time>
      </trkpt>
      <trkpt lat="46.69571" lon="5.65557">
        <ele>507</ele>
        <time>2021-05-29T15:04:10.924Z</time>
      </trkpt>
      <trkpt lat="46.6957" lon="5.65558">
        <ele>507</ele>
        <time>2021-05-29T15:04:11.924Z</time>
      </trkpt>
      <trkpt lat="46.6957" lon="5.6556">
        <ele>507</ele>
        <time>2021-05-29T15:04:12.924Z</time>
      </trkpt>
      <trkpt lat="46.69569" lon="5.65562">
        <ele>507</ele>
        <time>2021-05-29T15:04:13.924Z</time>
      </trkpt>
      <trkpt lat="46.69568" lon="5.65563">
        <ele>507</ele>
        <time>2021-05-29T15:04:14.924Z</time>
      </trkpt>
      <trkpt lat="46.69567" lon="5.65564">
        <ele>507</ele>
        <time>2021-05-29T15:04:15.924Z</time>
      </trkpt>
      <trkpt lat="46.69566" lon="5.65565">
        <ele>508</ele>
        <time>2021-05-29T15:04:16.923Z</time>
      </trkpt>
      <trkpt lat="46.69565" lon="5.65567">
        <ele>508</ele>
        <time>2021-05-29T15:04:17.924Z</time>
      </trkpt>
      <trkpt lat="46.69564" lon="5.65569">
        <ele>509</ele>
        <time>2021-05-29T15:04:18.924Z</time>
      </trkpt>
      <trkpt lat="46.69563" lon="5.65571">
        <ele>509</ele>
        <time>2021-05-29T15:04:19.924Z</time>
      </trkpt>
      <trkpt lat="46.69562" lon="5.65573">
        <ele>509</ele>
        <time>2021-05-29T15:04:20.924Z</time>
      </trkpt>
      <trkpt lat="46.69561" lon="5.65575">
        <ele>509</ele>
        <time>2021-05-29T15:04:21.923Z</time>
      </trkpt>
      <trkpt lat="46.69561" lon="5.65577">
        <ele>510</ele>
        <time>2021-05-29T15:04:22.924Z</time>
      </trkpt>
      <trkpt lat="46.6956" lon="5.65579">
        <ele>510</ele>
        <time>2021-05-29T15:04:23.923Z</time>
      </trkpt>
      <trkpt lat="46.69559" lon="5.65581">
        <ele>510</ele>
        <time>2021-05-29T15:04:24.923Z</time>
      </trkpt>
      <trkpt lat="46.69558" lon="5.65583">
        <ele>510</ele>
        <time>2021-05-29T15:04:25.924Z</time>
      </trkpt>
      <trkpt lat="46.69557" lon="5.65585">
        <ele>510</ele>
        <time>2021-05-29T15:04:26.923Z</time>
      </trkpt>
      <trkpt lat="46.69555" lon="5.65588">
        <ele>511</ele>
        <time>2021-05-29T15:04:27.923Z</time>
      </trkpt>
      <trkpt lat="46.69554" lon="5.65591">
        <ele>511</ele>
        <time>2021-05-29T15:04:28.924Z</time>
      </trkpt>
      <trkpt lat="46.69553" lon="5.65594">
        <ele>511</ele>
        <time>2021-05-29T15:04:29.924Z</time>
      </trkpt>
      <trkpt lat="46.69552" lon="5.65596">
        <ele>511</ele>
        <time>2021-05-29T15:04:30.924Z</time>
      </trkpt>
      <trkpt lat="46.69551" lon="5.656">
        <ele>511</ele>
        <time>2021-05-29T15:04:31.924Z</time>
      </trkpt>
      <trkpt lat="46.6955" lon="5.65602">
        <ele>511</ele>
        <time>2021-05-29T15:04:32.924Z</time>
      </trkpt>
      <trkpt lat="46.6955" lon="5.65604">
        <ele>511</ele>
        <time>2021-05-29T15:04:33.924Z</time>
      </trkpt>
      <trkpt lat="46.69548" lon="5.65607">
        <ele>511</ele>
        <time>2021-05-29T15:04:34.924Z</time>
      </trkpt>
      <trkpt lat="46.69547" lon="5.65609">
        <ele>511</ele>
        <time>2021-05-29T15:04:35.924Z</time>
      </trkpt>
      <trkpt lat="46.69546" lon="5.65612">
        <ele>511</ele>
        <time>2021-05-29T15:04:36.924Z</time>
      </trkpt>
      <trkpt lat="46.69545" lon="5.65614">
        <ele>511</ele>
        <time>2021-05-29T15:04:37.924Z</time>
      </trkpt>
      <trkpt lat="46.69544" lon="5.65617">
        <ele>511</ele>
        <time>2021-05-29T15:04:38.923Z</time>
      </trkpt>
      <trkpt lat="46.69543" lon="5.6562">
        <ele>511</ele>
        <time>2021-05-29T15:04:39.924Z</time>
      </trkpt>
      <trkpt lat="46.69542" lon="5.65623">
        <ele>511</ele>
        <time>2021-05-29T15:04:40.923Z</time>
      </trkpt>
      <trkpt lat="46.69542" lon="5.65625">
        <ele>511</ele>
        <time>2021-05-29T15:04:41.923Z</time>
      </trkpt>
      <trkpt lat="46.69542" lon="5.65627">
        <ele>511</ele>
        <time>2021-05-29T15:04:42.923Z</time>
      </trkpt>
      <trkpt lat="46.69541" lon="5.65632">
        <ele>511</ele>
        <time>2021-05-29T15:04:43.924Z</time>
      </trkpt>
      <trkpt lat="46.6954" lon="5.65636">
        <ele>511</ele>
        <time>2021-05-29T15:04:44.924Z</time>
      </trkpt>
      <trkpt lat="46.69539" lon="5.6564">
        <ele>512</ele>
        <time>2021-05-29T15:04:45.923Z</time>
      </trkpt>
      <trkpt lat="46.69539" lon="5.65644">
        <ele>512</ele>
        <time>2021-05-29T15:04:46.924Z</time>
      </trkpt>
      <trkpt lat="46.69539" lon="5.65646">
        <ele>512</ele>
        <time>2021-05-29T15:04:47.924Z</time>
      </trkpt>
      <trkpt lat="46.69538" lon="5.65649">
        <ele>512</ele>
        <time>2021-05-29T15:04:48.924Z</time>
      </trkpt>
      <trkpt lat="46.69539" lon="5.65651">
        <ele>513</ele>
        <time>2021-05-29T15:04:49.924Z</time>
      </trkpt>
      <trkpt lat="46.6954" lon="5.65654">
        <ele>513</ele>
        <time>2021-05-29T15:04:50.924Z</time>
      </trkpt>
      <trkpt lat="46.69541" lon="5.65656">
        <ele>513</ele>
        <time>2021-05-29T15:04:51.924Z</time>
      </trkpt>
      <trkpt lat="46.69542" lon="5.65657">
        <ele>513</ele>
        <time>2021-05-29T15:04:52.923Z</time>
      </trkpt>
      <trkpt lat="46.69543" lon="5.6566">
        <ele>513</ele>
        <time>2021-05-29T15:04:53.924Z</time>
      </trkpt>
      <trkpt lat="46.69544" lon="5.65662">
        <ele>513</ele>
        <time>2021-05-29T15:04:54.924Z</time>
      </trkpt>
      <trkpt lat="46.69544" lon="5.65664">
        <ele>513</ele>
        <time>2021-05-29T15:04:55.924Z</time>
      </trkpt>
      <trkpt lat="46.69544" lon="5.65666">
        <ele>514</ele>
        <time>2021-05-29T15:04:56.923Z</time>
      </trkpt>
      <trkpt lat="46.69544" lon="5.65668">
        <ele>514</ele>
        <time>2021-05-29T15:04:57.924Z</time>
      </trkpt>
      <trkpt lat="46.69545" lon="5.6567">
        <ele>514</ele>
        <time>2021-05-29T15:04:58.923Z</time>
      </trkpt>
      <trkpt lat="46.69545" lon="5.65673">
        <ele>514</ele>
        <time>2021-05-29T15:04:59.923Z</time>
      </trkpt>
      <trkpt lat="46.69546" lon="5.65675">
        <ele>514</ele>
        <time>2021-05-29T15:05:00.924Z</time>
      </trkpt>
      <trkpt lat="46.69547" lon="5.65677">
        <ele>514</ele>
        <time>2021-05-29T15:05:01.924Z</time>
      </trkpt>
      <trkpt lat="46.69547" lon="5.65679">
        <ele>513</ele>
        <time>2021-05-29T15:05:02.924Z</time>
      </trkpt>
      <trkpt lat="46.69548" lon="5.65682">
        <ele>513</ele>
        <time>2021-05-29T15:05:03.924Z</time>
      </trkpt>
      <trkpt lat="46.69548" lon="5.65684">
        <ele>513</ele>
        <time>2021-05-29T15:05:04.924Z</time>
      </trkpt>
      <trkpt lat="46.69549" lon="5.65688">
        <ele>513</ele>
        <time>2021-05-29T15:05:05.924Z</time>
      </trkpt>
      <trkpt lat="46.6955" lon="5.65692">
        <ele>513</ele>
        <time>2021-05-29T15:05:06.924Z</time>
      </trkpt>
      <trkpt lat="46.69551" lon="5.65695">
        <ele>513</ele>
        <time>2021-05-29T15:05:07.924Z</time>
      </trkpt>
      <trkpt lat="46.69551" lon="5.65698">
        <ele>513</ele>
        <time>2021-05-29T15:05:08.924Z</time>
      </trkpt>
      <trkpt lat="46.6955" lon="5.657">
        <ele>513</ele>
        <time>2021-05-29T15:05:09.924Z</time>
      </trkpt>
      <trkpt lat="46.6955" lon="5.65702">
        <ele>513</ele>
        <time>2021-05-29T15:05:10.924Z</time>
      </trkpt>
      <trkpt lat="46.69549" lon="5.65704">
        <ele>513</ele>
        <time>2021-05-29T15:05:11.924Z</time>
      </trkpt>
      <trkpt lat="46.69548" lon="5.65706">
        <ele>514</ele>
        <time>2021-05-29T15:05:12.924Z</time>
      </trkpt>
      <trkpt lat="46.69547" lon="5.65709">
        <ele>514</ele>
        <time>2021-05-29T15:05:13.923Z</time>
      </trkpt>
      <trkpt lat="46.69547" lon="5.65712">
        <ele>514</ele>
        <time>2021-05-29T15:05:14.923Z</time>
      </trkpt>
      <trkpt lat="46.69546" lon="5.65714">
        <ele>515</ele>
        <time>2021-05-29T15:05:15.923Z</time>
      </trkpt>
      <trkpt lat="46.69546" lon="5.65716">
        <ele>515</ele>
        <time>2021-05-29T15:05:16.923Z</time>
      </trkpt>
      <trkpt lat="46.69547" lon="5.65718">
        <ele>515</ele>
        <time>2021-05-29T15:05:17.923Z</time>
      </trkpt>
      <trkpt lat="46.69548" lon="5.65721">
        <ele>515</ele>
        <time>2021-05-29T15:05:18.923Z</time>
      </trkpt>
      <trkpt lat="46.69548" lon="5.65723">
        <ele>515</ele>
        <time>2021-05-29T15:05:19.923Z</time>
      </trkpt>
      <trkpt lat="46.69549" lon="5.65726">
        <ele>515</ele>
        <time>2021-05-29T15:05:20.923Z</time>
      </trkpt>
      <trkpt lat="46.69549" lon="5.65728">
        <ele>514</ele>
        <time>2021-05-29T15:05:21.923Z</time>
      </trkpt>
      <trkpt lat="46.69549" lon="5.65731">
        <ele>514</ele>
        <time>2021-05-29T15:05:22.923Z</time>
      </trkpt>
      <trkpt lat="46.6955" lon="5.65733">
        <ele>515</ele>
        <time>2021-05-29T15:05:23.924Z</time>
      </trkpt>
      <trkpt lat="46.6955" lon="5.65735">
        <ele>515</ele>
        <time>2021-05-29T15:05:24.924Z</time>
      </trkpt>
      <trkpt lat="46.6955" lon="5.65738">
        <ele>515</ele>
        <time>2021-05-29T15:05:25.923Z</time>
      </trkpt>
      <trkpt lat="46.69549" lon="5.65741">
        <ele>515</ele>
        <time>2021-05-29T15:05:26.923Z</time>
      </trkpt>
      <trkpt lat="46.69549" lon="5.65744">
        <ele>515</ele>
        <time>2021-05-29T15:05:27.924Z</time>
      </trkpt>
      <trkpt lat="46.69549" lon="5.65746">
        <ele>515</ele>
        <time>2021-05-29T15:05:28.924Z</time>
      </trkpt>
      <trkpt lat="46.69548" lon="5.6575">
        <ele>515</ele>
        <time>2021-05-29T15:05:29.923Z</time>
      </trkpt>
      <trkpt lat="46.69547" lon="5.65753">
        <ele>515</ele>
        <time>2021-05-29T15:05:30.924Z</time>
      </trkpt>
      <trkpt lat="46.69546" lon="5.65756">
        <ele>515</ele>
        <time>2021-05-29T15:05:31.923Z</time>
      </trkpt>
      <trkpt lat="46.69546" lon="5.65759">
        <ele>515</ele>
        <time>2021-05-29T15:05:32.924Z</time>
      </trkpt>
      <trkpt lat="46.69546" lon="5.65761">
        <ele>515</ele>
        <time>2021-05-29T15:05:33.923Z</time>
      </trkpt>
      <trkpt lat="46.69547" lon="5.65763">
        <ele>515</ele>
        <time>2021-05-29T15:05:34.924Z</time>
      </trkpt>
      <trkpt lat="46.69547" lon="5.65765">
        <ele>515</ele>
        <time>2021-05-29T15:05:35.924Z</time>
      </trkpt>
      <trkpt lat="46.69547" lon="5.65768">
        <ele>515</ele>
        <time>2021-05-29T15:05:36.924Z</time>
      </trkpt>
      <trkpt lat="46.69548" lon="5.65771">
        <ele>514</ele>
        <time>2021-05-29T15:05:37.923Z</time>
      </trkpt>
      <trkpt lat="46.69548" lon="5.65774">
        <ele>514</ele>
        <time>2021-05-29T15:05:38.924Z</time>
      </trkpt>
      <trkpt lat="46.69548" lon="5.65776">
        <ele>514</ele>
        <time>2021-05-29T15:05:39.924Z</time>
      </trkpt>
      <trkpt lat="46.69548" lon="5.65779">
        <ele>514</ele>
        <time>2021-05-29T15:05:40.924Z</time>
      </trkpt>
      <trkpt lat="46.69547" lon="5.65782">
        <ele>515</ele>
        <time>2021-05-29T15:05:41.924Z</time>
      </trkpt>
      <trkpt lat="46.69547" lon="5.65785">
        <ele>515</ele>
        <time>2021-05-29T15:05:42.923Z</time>
      </trkpt>
      <trkpt lat="46.69547" lon="5.65788">
        <ele>515</ele>
        <time>2021-05-29T15:05:43.924Z</time>
      </trkpt>
      <trkpt lat="46.69547" lon="5.6579">
        <ele>515</ele>
        <time>2021-05-29T15:05:44.924Z</time>
      </trkpt>
      <trkpt lat="46.69547" lon="5.65792">
        <ele>515</ele>
        <time>2021-05-29T15:05:45.924Z</time>
      </trkpt>
      <trkpt lat="46.69547" lon="5.65795">
        <ele>515</ele>
        <time>2021-05-29T15:05:46.923Z</time>
      </trkpt>
      <trkpt lat="46.69548" lon="5.65798">
        <ele>516</ele>
        <time>2021-05-29T15:05:47.924Z</time>
      </trkpt>
      <trkpt lat="46.69548" lon="5.658">
        <ele>516</ele>
        <time>2021-05-29T15:05:48.923Z</time>
      </trkpt>
      <trkpt lat="46.69547" lon="5.65803">
        <ele>516</ele>
        <time>2021-05-29T15:05:49.924Z</time>
      </trkpt>
      <trkpt lat="46.69547" lon="5.65805">
        <ele>516</ele>
        <time>2021-05-29T15:05:50.924Z</time>
      </trkpt>
      <trkpt lat="46.69547" lon="5.65807">
        <ele>516</ele>
        <time>2021-05-29T15:05:51.924Z</time>
      </trkpt>
      <trkpt lat="46.69547" lon="5.65808">
        <ele>516</ele>
        <time>2021-05-29T15:05:52.924Z</time>
      </trkpt>
      <trkpt lat="46.69547" lon="5.65808">
        <ele>516</ele>
        <time>2021-05-29T15:05:53.924Z</time>
      </trkpt>
      <trkpt lat="46.69547" lon="5.65808">
        <ele>516</ele>
        <time>2021-05-29T15:05:54.924Z</time>
      </trkpt>
      <trkpt lat="46.69547" lon="5.65808">
        <ele>516</ele>
        <time>2021-05-29T15:05:55.924Z</time>
      </trkpt>
      <trkpt lat="46.69548" lon="5.65808">
        <ele>516</ele>
        <time>2021-05-29T15:05:56.923Z</time>
      </trkpt>
      <trkpt lat="46.69548" lon="5.65808">
        <ele>516</ele>
        <time>2021-05-29T15:05:57.924Z</time>
      </trkpt>
      <trkpt lat="46.69548" lon="5.65811">
        <ele>516</ele>
        <time>2021-05-29T15:05:58.923Z</time>
      </trkpt>
      <trkpt lat="46.69549" lon="5.65815">
        <ele>516</ele>
        <time>2021-05-29T15:05:59.924Z</time>
      </trkpt>
      <trkpt lat="46.69548" lon="5.65819">
        <ele>516</ele>
        <time>2021-05-29T15:06:00.923Z</time>
      </trkpt>
      <trkpt lat="46.69548" lon="5.65823">
        <ele>516</ele>
        <time>2021-05-29T15:06:01.923Z</time>
      </trkpt>
      <trkpt lat="46.69548" lon="5.65825">
        <ele>516</ele>
        <time>2021-05-29T15:06:02.924Z</time>
      </trkpt>
      <trkpt lat="46.69547" lon="5.65828">
        <ele>516</ele>
        <time>2021-05-29T15:06:03.924Z</time>
      </trkpt>
      <trkpt lat="46.69546" lon="5.65831">
        <ele>516</ele>
        <time>2021-05-29T15:06:04.924Z</time>
      </trkpt>
      <trkpt lat="46.69545" lon="5.65833">
        <ele>516</ele>
        <time>2021-05-29T15:06:05.924Z</time>
      </trkpt>
      <trkpt lat="46.69544" lon="5.65836">
        <ele>516</ele>
        <time>2021-05-29T15:06:06.924Z</time>
      </trkpt>
      <trkpt lat="46.69544" lon="5.65839">
        <ele>516</ele>
        <time>2021-05-29T15:06:07.924Z</time>
      </trkpt>
      <trkpt lat="46.69545" lon="5.65841">
        <ele>516</ele>
        <time>2021-05-29T15:06:08.924Z</time>
      </trkpt>
      <trkpt lat="46.69545" lon="5.65844">
        <ele>516</ele>
        <time>2021-05-29T15:06:09.924Z</time>
      </trkpt>
      <trkpt lat="46.69545" lon="5.65847">
        <ele>516</ele>
        <time>2021-05-29T15:06:10.923Z</time>
      </trkpt>
      <trkpt lat="46.69546" lon="5.6585">
        <ele>516</ele>
        <time>2021-05-29T15:06:11.924Z</time>
      </trkpt>
      <trkpt lat="46.69546" lon="5.65852">
        <ele>516</ele>
        <time>2021-05-29T15:06:12.924Z</time>
      </trkpt>
      <trkpt lat="46.69546" lon="5.65854">
        <ele>516</ele>
        <time>2021-05-29T15:06:13.924Z</time>
      </trkpt>
      <trkpt lat="46.69546" lon="5.65857">
        <ele>516</ele>
        <time>2021-05-29T15:06:14.924Z</time>
      </trkpt>
      <trkpt lat="46.69546" lon="5.65859">
        <ele>516</ele>
        <time>2021-05-29T15:06:15.924Z</time>
      </trkpt>
      <trkpt lat="46.69546" lon="5.65861">
        <ele>516</ele>
        <time>2021-05-29T15:06:16.924Z</time>
      </trkpt>
      <trkpt lat="46.69546" lon="5.65864">
        <ele>515</ele>
        <time>2021-05-29T15:06:17.924Z</time>
      </trkpt>
      <trkpt lat="46.69547" lon="5.65867">
        <ele>515</ele>
        <time>2021-05-29T15:06:18.923Z</time>
      </trkpt>
      <trkpt lat="46.69546" lon="5.6587">
        <ele>515</ele>
        <time>2021-05-29T15:06:19.923Z</time>
      </trkpt>
      <trkpt lat="46.69545" lon="5.65872">
        <ele>515</ele>
        <time>2021-05-29T15:06:20.924Z</time>
      </trkpt>
      <trkpt lat="46.69545" lon="5.65873">
        <ele>515</ele>
        <time>2021-05-29T15:06:21.923Z</time>
      </trkpt>
      <trkpt lat="46.69545" lon="5.65875">
        <ele>515</ele>
        <time>2021-05-29T15:06:22.923Z</time>
      </trkpt>
      <trkpt lat="46.69546" lon="5.65877">
        <ele>515</ele>
        <time>2021-05-29T15:06:23.923Z</time>
      </trkpt>
      <trkpt lat="46.69547" lon="5.65878">
        <ele>515</ele>
        <time>2021-05-29T15:06:24.924Z</time>
      </trkpt>
      <trkpt lat="46.69548" lon="5.6588">
        <ele>515</ele>
        <time>2021-05-29T15:06:25.924Z</time>
      </trkpt>
      <trkpt lat="46.69549" lon="5.65882">
        <ele>515</ele>
        <time>2021-05-29T15:06:26.923Z</time>
      </trkpt>
      <trkpt lat="46.6955" lon="5.65884">
        <ele>515</ele>
        <time>2021-05-29T15:06:27.923Z</time>
      </trkpt>
      <trkpt lat="46.6955" lon="5.65886">
        <ele>515</ele>
        <time>2021-05-29T15:06:28.924Z</time>
      </trkpt>
      <trkpt lat="46.69551" lon="5.65888">
        <ele>515</ele>
        <time>2021-05-29T15:06:29.924Z</time>
      </trkpt>
      <trkpt lat="46.69551" lon="5.6589">
        <ele>515</ele>
        <time>2021-05-29T15:06:30.924Z</time>
      </trkpt>
      <trkpt lat="46.69552" lon="5.65892">
        <ele>515</ele>
        <time>2021-05-29T15:06:31.923Z</time>
      </trkpt>
      <trkpt lat="46.69552" lon="5.65894">
        <ele>515</ele>
        <time>2021-05-29T15:06:32.924Z</time>
      </trkpt>
      <trkpt lat="46.69552" lon="5.65896">
        <ele>515</ele>
        <time>2021-05-29T15:06:33.924Z</time>
      </trkpt>
      <trkpt lat="46.69553" lon="5.65898">
        <ele>515</ele>
        <time>2021-05-29T15:06:34.924Z</time>
      </trkpt>
      <trkpt lat="46.69553" lon="5.65901">
        <ele>515</ele>
        <time>2021-05-29T15:06:35.924Z</time>
      </trkpt>
      <trkpt lat="46.69553" lon="5.65904">
        <ele>515</ele>
        <time>2021-05-29T15:06:36.923Z</time>
      </trkpt>
      <trkpt lat="46.69553" lon="5.65907">
        <ele>515</ele>
        <time>2021-05-29T15:06:37.924Z</time>
      </trkpt>
      <trkpt lat="46.69553" lon="5.65911">
        <ele>514</ele>
        <time>2021-05-29T15:06:38.923Z</time>
      </trkpt>
      <trkpt lat="46.69553" lon="5.65914">
        <ele>514</ele>
        <time>2021-05-29T15:06:39.924Z</time>
      </trkpt>
      <trkpt lat="46.69554" lon="5.65917">
        <ele>514</ele>
        <time>2021-05-29T15:06:40.924Z</time>
      </trkpt>
      <trkpt lat="46.69555" lon="5.65921">
        <ele>514</ele>
        <time>2021-05-29T15:06:41.924Z</time>
      </trkpt>
      <trkpt lat="46.69555" lon="5.65925">
        <ele>514</ele>
        <time>2021-05-29T15:06:42.924Z</time>
      </trkpt>
      <trkpt lat="46.69556" lon="5.65927">
        <ele>514</ele>
        <time>2021-05-29T15:06:43.924Z</time>
      </trkpt>
      <trkpt lat="46.69556" lon="5.6593">
        <ele>513</ele>
        <time>2021-05-29T15:06:44.924Z</time>
      </trkpt>
      <trkpt lat="46.69557" lon="5.65932">
        <ele>513</ele>
        <time>2021-05-29T15:06:45.924Z</time>
      </trkpt>
      <trkpt lat="46.69558" lon="5.65935">
        <ele>513</ele>
        <time>2021-05-29T15:06:46.923Z</time>
      </trkpt>
      <trkpt lat="46.69558" lon="5.65938">
        <ele>513</ele>
        <time>2021-05-29T15:06:47.924Z</time>
      </trkpt>
      <trkpt lat="46.69559" lon="5.6594">
        <ele>513</ele>
        <time>2021-05-29T15:06:48.923Z</time>
      </trkpt>
      <trkpt lat="46.69559" lon="5.65943">
        <ele>513</ele>
        <time>2021-05-29T15:06:49.924Z</time>
      </trkpt>
      <trkpt lat="46.6956" lon="5.65944">
        <ele>512</ele>
        <time>2021-05-29T15:06:50.923Z</time>
      </trkpt>
      <trkpt lat="46.6956" lon="5.65947">
        <ele>512</ele>
        <time>2021-05-29T15:06:51.924Z</time>
      </trkpt>
      <trkpt lat="46.69561" lon="5.65949">
        <ele>511</ele>
        <time>2021-05-29T15:06:52.923Z</time>
      </trkpt>
      <trkpt lat="46.69561" lon="5.65952">
        <ele>511</ele>
        <time>2021-05-29T15:06:53.924Z</time>
      </trkpt>
      <trkpt lat="46.69562" lon="5.65954">
        <ele>511</ele>
        <time>2021-05-29T15:06:54.924Z</time>
      </trkpt>
      <trkpt lat="46.69562" lon="5.65956">
        <ele>511</ele>
        <time>2021-05-29T15:06:55.924Z</time>
      </trkpt>
      <trkpt lat="46.69563" lon="5.65958">
        <ele>511</ele>
        <time>2021-05-29T15:06:56.923Z</time>
      </trkpt>
      <trkpt lat="46.69564" lon="5.65961">
        <ele>511</ele>
        <time>2021-05-29T15:06:57.923Z</time>
      </trkpt>
      <trkpt lat="46.69565" lon="5.65963">
        <ele>511</ele>
        <time>2021-05-29T15:06:58.924Z</time>
      </trkpt>
      <trkpt lat="46.69566" lon="5.65965">
        <ele>510</ele>
        <time>2021-05-29T15:06:59.924Z</time>
      </trkpt>
      <trkpt lat="46.69567" lon="5.65968">
        <ele>510</ele>
        <time>2021-05-29T15:07:00.924Z</time>
      </trkpt>
      <trkpt lat="46.69569" lon="5.65971">
        <ele>509</ele>
        <time>2021-05-29T15:07:01.924Z</time>
      </trkpt>
      <trkpt lat="46.6957" lon="5.65973">
        <ele>509</ele>
        <time>2021-05-29T15:07:02.923Z</time>
      </trkpt>
      <trkpt lat="46.69571" lon="5.65975">
        <ele>508</ele>
        <time>2021-05-29T15:07:03.924Z</time>
      </trkpt>
      <trkpt lat="46.69572" lon="5.65977">
        <ele>508</ele>
        <time>2021-05-29T15:07:04.924Z</time>
      </trkpt>
      <trkpt lat="46.69573" lon="5.65979">
        <ele>508</ele>
        <time>2021-05-29T15:07:05.923Z</time>
      </trkpt>
      <trkpt lat="46.69574" lon="5.65981">
        <ele>507</ele>
        <time>2021-05-29T15:07:06.924Z</time>
      </trkpt>
      <trkpt lat="46.69575" lon="5.65983">
        <ele>507</ele>
        <time>2021-05-29T15:07:07.924Z</time>
      </trkpt>
      <trkpt lat="46.69576" lon="5.65985">
        <ele>507</ele>
        <time>2021-05-29T15:07:08.924Z</time>
      </trkpt>
      <trkpt lat="46.69576" lon="5.65987">
        <ele>506</ele>
        <time>2021-05-29T15:07:09.923Z</time>
      </trkpt>
      <trkpt lat="46.69576" lon="5.65988">
        <ele>506</ele>
        <time>2021-05-29T15:07:10.924Z</time>
      </trkpt>
      <trkpt lat="46.69577" lon="5.6599">
        <ele>505</ele>
        <time>2021-05-29T15:07:11.924Z</time>
      </trkpt>
      <trkpt lat="46.69578" lon="5.65992">
        <ele>505</ele>
        <time>2021-05-29T15:07:12.923Z</time>
      </trkpt>
      <trkpt lat="46.69579" lon="5.65994">
        <ele>505</ele>
        <time>2021-05-29T15:07:13.924Z</time>
      </trkpt>
      <trkpt lat="46.69581" lon="5.65995">
        <ele>505</ele>
        <time>2021-05-29T15:07:14.923Z</time>
      </trkpt>
      <trkpt lat="46.69582" lon="5.65997">
        <ele>505</ele>
        <time>2021-05-29T15:07:15.923Z</time>
      </trkpt>
      <trkpt lat="46.69584" lon="5.65997">
        <ele>505</ele>
        <time>2021-05-29T15:07:16.923Z</time>
      </trkpt>
      <trkpt lat="46.69586" lon="5.65997">
        <ele>505</ele>
        <time>2021-05-29T15:07:17.924Z</time>
      </trkpt>
      <trkpt lat="46.69589" lon="5.65998">
        <ele>505</ele>
        <time>2021-05-29T15:07:18.924Z</time>
      </trkpt>
      <trkpt lat="46.69592" lon="5.65998">
        <ele>505</ele>
        <time>2021-05-29T15:07:19.924Z</time>
      </trkpt>
      <trkpt lat="46.69594" lon="5.65998">
        <ele>506</ele>
        <time>2021-05-29T15:07:20.923Z</time>
      </trkpt>
      <trkpt lat="46.69596" lon="5.65998">
        <ele>506</ele>
        <time>2021-05-29T15:07:21.923Z</time>
      </trkpt>
      <trkpt lat="46.69598" lon="5.65998">
        <ele>506</ele>
        <time>2021-05-29T15:07:22.924Z</time>
      </trkpt>
      <trkpt lat="46.696" lon="5.65997">
        <ele>506</ele>
        <time>2021-05-29T15:07:23.924Z</time>
      </trkpt>
      <trkpt lat="46.69602" lon="5.65997">
        <ele>506</ele>
        <time>2021-05-29T15:07:24.924Z</time>
      </trkpt>
      <trkpt lat="46.69604" lon="5.65997">
        <ele>506</ele>
        <time>2021-05-29T15:07:25.923Z</time>
      </trkpt>
      <trkpt lat="46.69607" lon="5.65998">
        <ele>507</ele>
        <time>2021-05-29T15:07:26.924Z</time>
      </trkpt>
      <trkpt lat="46.69609" lon="5.65999">
        <ele>507</ele>
        <time>2021-05-29T15:07:27.924Z</time>
      </trkpt>
      <trkpt lat="46.69611" lon="5.65999">
        <ele>508</ele>
        <time>2021-05-29T15:07:28.924Z</time>
      </trkpt>
      <trkpt lat="46.69614" lon="5.65999">
        <ele>508</ele>
        <time>2021-05-29T15:07:29.924Z</time>
      </trkpt>
      <trkpt lat="46.69615" lon="5.66">
        <ele>509</ele>
        <time>2021-05-29T15:07:30.924Z</time>
      </trkpt>
      <trkpt lat="46.69616" lon="5.66001">
        <ele>509</ele>
        <time>2021-05-29T15:07:31.924Z</time>
      </trkpt>
      <trkpt lat="46.69618" lon="5.66001">
        <ele>509</ele>
        <time>2021-05-29T15:07:32.924Z</time>
      </trkpt>
      <trkpt lat="46.69618" lon="5.66002">
        <ele>510</ele>
        <time>2021-05-29T15:07:33.924Z</time>
      </trkpt>
      <trkpt lat="46.69618" lon="5.66002">
        <ele>510</ele>
        <time>2021-05-29T15:07:34.924Z</time>
      </trkpt>
      <trkpt lat="46.69619" lon="5.66001">
        <ele>510</ele>
        <time>2021-05-29T15:07:35.924Z</time>
      </trkpt>
      <trkpt lat="46.6962" lon="5.66">
        <ele>510</ele>
        <time>2021-05-29T15:07:36.924Z</time>
      </trkpt>
      <trkpt lat="46.69621" lon="5.65999">
        <ele>510</ele>
        <time>2021-05-29T15:07:37.923Z</time>
      </trkpt>
      <trkpt lat="46.69621" lon="5.65999">
        <ele>510</ele>
        <time>2021-05-29T15:07:38.924Z</time>
      </trkpt>
      <trkpt lat="46.69622" lon="5.66001">
        <ele>511</ele>
        <time>2021-05-29T15:07:39.924Z</time>
      </trkpt>
      <trkpt lat="46.69622" lon="5.66002">
        <ele>511</ele>
        <time>2021-05-29T15:07:40.924Z</time>
      </trkpt>
      <trkpt lat="46.69623" lon="5.66002">
        <ele>512</ele>
        <time>2021-05-29T15:07:41.924Z</time>
      </trkpt>
      <trkpt lat="46.69624" lon="5.66003">
        <ele>512</ele>
        <time>2021-05-29T15:07:42.923Z</time>
      </trkpt>
      <trkpt lat="46.69624" lon="5.66003">
        <ele>512</ele>
        <time>2021-05-29T15:07:43.923Z</time>
      </trkpt>
      <trkpt lat="46.69625" lon="5.66003">
        <ele>511</ele>
        <time>2021-05-29T15:07:44.923Z</time>
      </trkpt>
      <trkpt lat="46.69625" lon="5.66004">
        <ele>511</ele>
        <time>2021-05-29T15:07:45.923Z</time>
      </trkpt>
      <trkpt lat="46.69625" lon="5.66004">
        <ele>511</ele>
        <time>2021-05-29T15:07:46.923Z</time>
      </trkpt>
      <trkpt lat="46.69625" lon="5.66005">
        <ele>510</ele>
        <time>2021-05-29T15:07:47.923Z</time>
      </trkpt>
      <trkpt lat="46.69626" lon="5.66005">
        <ele>510</ele>
        <time>2021-05-29T15:07:48.924Z</time>
      </trkpt>
      <trkpt lat="46.69627" lon="5.66006">
        <ele>510</ele>
        <time>2021-05-29T15:07:49.924Z</time>
      </trkpt>
      <trkpt lat="46.69627" lon="5.66007">
        <ele>509</ele>
        <time>2021-05-29T15:07:50.923Z</time>
      </trkpt>
      <trkpt lat="46.69628" lon="5.66008">
        <ele>509</ele>
        <time>2021-05-29T15:07:51.924Z</time>
      </trkpt>
      <trkpt lat="46.69629" lon="5.66009">
        <ele>509</ele>
        <time>2021-05-29T15:07:52.924Z</time>
      </trkpt>
      <trkpt lat="46.6963" lon="5.6601">
        <ele>509</ele>
        <time>2021-05-29T15:07:53.924Z</time>
      </trkpt>
      <trkpt lat="46.69632" lon="5.6601">
        <ele>509</ele>
        <time>2021-05-29T15:07:54.924Z</time>
      </trkpt>
      <trkpt lat="46.69633" lon="5.66011">
        <ele>509</ele>
        <time>2021-05-29T15:07:55.924Z</time>
      </trkpt>
      <trkpt lat="46.69634" lon="5.66012">
        <ele>510</ele>
        <time>2021-05-29T15:07:56.924Z</time>
      </trkpt>
      <trkpt lat="46.69635" lon="5.66013">
        <ele>510</ele>
        <time>2021-05-29T15:07:57.924Z</time>
      </trkpt>
      <trkpt lat="46.69637" lon="5.66013">
        <ele>510</ele>
        <time>2021-05-29T15:07:58.923Z</time>
      </trkpt>
      <trkpt lat="46.69638" lon="5.66015">
        <ele>510</ele>
        <time>2021-05-29T15:07:59.924Z</time>
      </trkpt>
      <trkpt lat="46.6964" lon="5.66016">
        <ele>511</ele>
        <time>2021-05-29T15:08:00.924Z</time>
      </trkpt>
      <trkpt lat="46.69641" lon="5.66017">
        <ele>511</ele>
        <time>2021-05-29T15:08:01.924Z</time>
      </trkpt>
      <trkpt lat="46.69643" lon="5.66018">
        <ele>511</ele>
        <time>2021-05-29T15:08:02.923Z</time>
      </trkpt>
      <trkpt lat="46.69644" lon="5.66019">
        <ele>512</ele>
        <time>2021-05-29T15:08:03.923Z</time>
      </trkpt>
      <trkpt lat="46.69646" lon="5.6602">
        <ele>512</ele>
        <time>2021-05-29T15:08:04.924Z</time>
      </trkpt>
      <trkpt lat="46.69647" lon="5.66021">
        <ele>513</ele>
        <time>2021-05-29T15:08:05.924Z</time>
      </trkpt>
      <trkpt lat="46.69649" lon="5.66022">
        <ele>513</ele>
        <time>2021-05-29T15:08:06.924Z</time>
      </trkpt>
      <trkpt lat="46.69651" lon="5.66023">
        <ele>514</ele>
        <time>2021-05-29T15:08:07.924Z</time>
      </trkpt>
      <trkpt lat="46.69653" lon="5.66024">
        <ele>514</ele>
        <time>2021-05-29T15:08:08.924Z</time>
      </trkpt>
      <trkpt lat="46.69654" lon="5.66024">
        <ele>515</ele>
        <time>2021-05-29T15:08:09.924Z</time>
      </trkpt>
      <trkpt lat="46.69656" lon="5.66025">
        <ele>516</ele>
        <time>2021-05-29T15:08:10.924Z</time>
      </trkpt>
      <trkpt lat="46.69658" lon="5.66026">
        <ele>516</ele>
        <time>2021-05-29T15:08:11.924Z</time>
      </trkpt>
      <trkpt lat="46.69659" lon="5.66027">
        <ele>517</ele>
        <time>2021-05-29T15:08:12.924Z</time>
      </trkpt>
      <trkpt lat="46.6966" lon="5.66029">
        <ele>517</ele>
        <time>2021-05-29T15:08:13.924Z</time>
      </trkpt>
      <trkpt lat="46.69661" lon="5.66031">
        <ele>517</ele>
        <time>2021-05-29T15:08:14.924Z</time>
      </trkpt>
      <trkpt lat="46.69663" lon="5.66032">
        <ele>517</ele>
        <time>2021-05-29T15:08:15.924Z</time>
      </trkpt>
      <trkpt lat="46.69665" lon="5.66033">
        <ele>517</ele>
        <time>2021-05-29T15:08:16.924Z</time>
      </trkpt>
      <trkpt lat="46.69666" lon="5.66034">
        <ele>517</ele>
        <time>2021-05-29T15:08:17.924Z</time>
      </trkpt>
      <trkpt lat="46.69668" lon="5.66035">
        <ele>517</ele>
        <time>2021-05-29T15:08:18.924Z</time>
      </trkpt>
      <trkpt lat="46.69669" lon="5.66036">
        <ele>517</ele>
        <time>2021-05-29T15:08:19.924Z</time>
      </trkpt>
      <trkpt lat="46.69671" lon="5.66037">
        <ele>517</ele>
        <time>2021-05-29T15:08:20.924Z</time>
      </trkpt>
      <trkpt lat="46.69674" lon="5.66038">
        <ele>517</ele>
        <time>2021-05-29T15:08:21.924Z</time>
      </trkpt>
      <trkpt lat="46.69677" lon="5.66039">
        <ele>517</ele>
        <time>2021-05-29T15:08:22.924Z</time>
      </trkpt>
      <trkpt lat="46.69679" lon="5.66039">
        <ele>517</ele>
        <time>2021-05-29T15:08:23.923Z</time>
      </trkpt>
      <trkpt lat="46.69681" lon="5.66041">
        <ele>517</ele>
        <time>2021-05-29T15:08:24.923Z</time>
      </trkpt>
      <trkpt lat="46.69682" lon="5.66042">
        <ele>518</ele>
        <time>2021-05-29T15:08:25.924Z</time>
      </trkpt>
      <trkpt lat="46.69684" lon="5.66043">
        <ele>517</ele>
        <time>2021-05-29T15:08:26.923Z</time>
      </trkpt>
      <trkpt lat="46.69685" lon="5.66045">
        <ele>517</ele>
        <time>2021-05-29T15:08:27.923Z</time>
      </trkpt>
      <trkpt lat="46.69686" lon="5.66047">
        <ele>517</ele>
        <time>2021-05-29T15:08:28.924Z</time>
      </trkpt>
      <trkpt lat="46.69687" lon="5.66048">
        <ele>516</ele>
        <time>2021-05-29T15:08:29.924Z</time>
      </trkpt>
      <trkpt lat="46.69688" lon="5.6605">
        <ele>516</ele>
        <time>2021-05-29T15:08:30.923Z</time>
      </trkpt>
      <trkpt lat="46.6969" lon="5.66052">
        <ele>516</ele>
        <time>2021-05-29T15:08:31.923Z</time>
      </trkpt>
      <trkpt lat="46.6969" lon="5.66054">
        <ele>515</ele>
        <time>2021-05-29T15:08:32.924Z</time>
      </trkpt>
      <trkpt lat="46.69691" lon="5.66057">
        <ele>515</ele>
        <time>2021-05-29T15:08:33.924Z</time>
      </trkpt>
      <trkpt lat="46.69692" lon="5.6606">
        <ele>515</ele>
        <time>2021-05-29T15:08:34.924Z</time>
      </trkpt>
      <trkpt lat="46.69694" lon="5.66062">
        <ele>514</ele>
        <time>2021-05-29T15:08:35.923Z</time>
      </trkpt>
      <trkpt lat="46.69695" lon="5.66064">
        <ele>515</ele>
        <time>2021-05-29T15:08:36.923Z</time>
      </trkpt>
      <trkpt lat="46.69696" lon="5.66066">
        <ele>515</ele>
        <time>2021-05-29T15:08:37.923Z</time>
      </trkpt>
      <trkpt lat="46.69698" lon="5.66069">
        <ele>515</ele>
        <time>2021-05-29T15:08:38.924Z</time>
      </trkpt>
      <trkpt lat="46.69699" lon="5.66071">
        <ele>516</ele>
        <time>2021-05-29T15:08:39.924Z</time>
      </trkpt>
      <trkpt lat="46.69702" lon="5.66073">
        <ele>516</ele>
        <time>2021-05-29T15:08:40.924Z</time>
      </trkpt>
      <trkpt lat="46.69705" lon="5.66076">
        <ele>516</ele>
        <time>2021-05-29T15:08:41.924Z</time>
      </trkpt>
      <trkpt lat="46.69706" lon="5.66077">
        <ele>517</ele>
        <time>2021-05-29T15:08:42.924Z</time>
      </trkpt>
      <trkpt lat="46.69707" lon="5.66078">
        <ele>517</ele>
        <time>2021-05-29T15:08:43.924Z</time>
      </trkpt>
      <trkpt lat="46.69709" lon="5.6608">
        <ele>517</ele>
        <time>2021-05-29T15:08:44.924Z</time>
      </trkpt>
      <trkpt lat="46.6971" lon="5.66081">
        <ele>517</ele>
        <time>2021-05-29T15:08:45.924Z</time>
      </trkpt>
      <trkpt lat="46.69712" lon="5.66082">
        <ele>517</ele>
        <time>2021-05-29T15:08:46.924Z</time>
      </trkpt>
      <trkpt lat="46.69714" lon="5.66083">
        <ele>517</ele>
        <time>2021-05-29T15:08:47.923Z</time>
      </trkpt>
      <trkpt lat="46.69716" lon="5.66085">
        <ele>517</ele>
        <time>2021-05-29T15:08:48.923Z</time>
      </trkpt>
      <trkpt lat="46.69717" lon="5.66087">
        <ele>517</ele>
        <time>2021-05-29T15:08:49.923Z</time>
      </trkpt>
      <trkpt lat="46.69719" lon="5.66088">
        <ele>517</ele>
        <time>2021-05-29T15:08:50.924Z</time>
      </trkpt>
      <trkpt lat="46.69721" lon="5.66089">
        <ele>518</ele>
        <time>2021-05-29T15:08:51.924Z</time>
      </trkpt>
      <trkpt lat="46.69723" lon="5.66091">
        <ele>518</ele>
        <time>2021-05-29T15:08:52.923Z</time>
      </trkpt>
      <trkpt lat="46.69723" lon="5.66093">
        <ele>518</ele>
        <time>2021-05-29T15:08:53.924Z</time>
      </trkpt>
      <trkpt lat="46.69724" lon="5.66094">
        <ele>519</ele>
        <time>2021-05-29T15:08:54.924Z</time>
      </trkpt>
      <trkpt lat="46.69725" lon="5.66096">
        <ele>519</ele>
        <time>2021-05-29T15:08:55.924Z</time>
      </trkpt>
      <trkpt lat="46.69727" lon="5.66098">
        <ele>518</ele>
        <time>2021-05-29T15:08:56.923Z</time>
      </trkpt>
      <trkpt lat="46.69729" lon="5.66101">
        <ele>518</ele>
        <time>2021-05-29T15:08:57.924Z</time>
      </trkpt>
      <trkpt lat="46.69731" lon="5.66103">
        <ele>518</ele>
        <time>2021-05-29T15:08:58.924Z</time>
      </trkpt>
      <trkpt lat="46.69733" lon="5.66105">
        <ele>517</ele>
        <time>2021-05-29T15:08:59.924Z</time>
      </trkpt>
      <trkpt lat="46.69735" lon="5.66107">
        <ele>517</ele>
        <time>2021-05-29T15:09:00.923Z</time>
      </trkpt>
      <trkpt lat="46.69737" lon="5.66107">
        <ele>516</ele>
        <time>2021-05-29T15:09:01.923Z</time>
      </trkpt>
      <trkpt lat="46.69739" lon="5.66109">
        <ele>516</ele>
        <time>2021-05-29T15:09:02.923Z</time>
      </trkpt>
      <trkpt lat="46.69741" lon="5.6611">
        <ele>516</ele>
        <time>2021-05-29T15:09:03.924Z</time>
      </trkpt>
      <trkpt lat="46.69742" lon="5.66111">
        <ele>516</ele>
        <time>2021-05-29T15:09:04.923Z</time>
      </trkpt>
      <trkpt lat="46.69744" lon="5.66112">
        <ele>515</ele>
        <time>2021-05-29T15:09:05.924Z</time>
      </trkpt>
      <trkpt lat="46.69745" lon="5.66113">
        <ele>515</ele>
        <time>2021-05-29T15:09:06.924Z</time>
      </trkpt>
      <trkpt lat="46.69748" lon="5.66113">
        <ele>515</ele>
        <time>2021-05-29T15:09:07.923Z</time>
      </trkpt>
      <trkpt lat="46.6975" lon="5.66115">
        <ele>515</ele>
        <time>2021-05-29T15:09:08.924Z</time>
      </trkpt>
      <trkpt lat="46.69752" lon="5.66116">
        <ele>514</ele>
        <time>2021-05-29T15:09:09.924Z</time>
      </trkpt>
      <trkpt lat="46.69754" lon="5.66116">
        <ele>514</ele>
        <time>2021-05-29T15:09:10.923Z</time>
      </trkpt>
      <trkpt lat="46.69755" lon="5.66116">
        <ele>514</ele>
        <time>2021-05-29T15:09:11.924Z</time>
      </trkpt>
      <trkpt lat="46.69757" lon="5.66116">
        <ele>513</ele>
        <time>2021-05-29T15:09:12.924Z</time>
      </trkpt>
      <trkpt lat="46.69759" lon="5.66115">
        <ele>513</ele>
        <time>2021-05-29T15:09:13.923Z</time>
      </trkpt>
      <trkpt lat="46.69761" lon="5.66115">
        <ele>513</ele>
        <time>2021-05-29T15:09:14.923Z</time>
      </trkpt>
      <trkpt lat="46.69763" lon="5.66115">
        <ele>513</ele>
        <time>2021-05-29T15:09:15.924Z</time>
      </trkpt>
      <trkpt lat="46.69765" lon="5.66114">
        <ele>513</ele>
        <time>2021-05-29T15:09:16.924Z</time>
      </trkpt>
      <trkpt lat="46.69767" lon="5.66113">
        <ele>513</ele>
        <time>2021-05-29T15:09:17.924Z</time>
      </trkpt>
      <trkpt lat="46.69769" lon="5.66113">
        <ele>512</ele>
        <time>2021-05-29T15:09:18.924Z</time>
      </trkpt>
      <trkpt lat="46.69771" lon="5.66112">
        <ele>512</ele>
        <time>2021-05-29T15:09:19.923Z</time>
      </trkpt>
      <trkpt lat="46.69772" lon="5.66111">
        <ele>512</ele>
        <time>2021-05-29T15:09:20.924Z</time>
      </trkpt>
      <trkpt lat="46.69774" lon="5.66111">
        <ele>512</ele>
        <time>2021-05-29T15:09:21.924Z</time>
      </trkpt>
      <trkpt lat="46.69776" lon="5.66109">
        <ele>512</ele>
        <time>2021-05-29T15:09:22.924Z</time>
      </trkpt>
      <trkpt lat="46.69778" lon="5.66108">
        <ele>512</ele>
        <time>2021-05-29T15:09:23.924Z</time>
      </trkpt>
      <trkpt lat="46.69779" lon="5.66107">
        <ele>513</ele>
        <time>2021-05-29T15:09:24.923Z</time>
      </trkpt>
      <trkpt lat="46.69781" lon="5.66105">
        <ele>513</ele>
        <time>2021-05-29T15:09:25.923Z</time>
      </trkpt>
      <trkpt lat="46.69783" lon="5.66104">
        <ele>513</ele>
        <time>2021-05-29T15:09:26.924Z</time>
      </trkpt>
      <trkpt lat="46.69784" lon="5.66103">
        <ele>513</ele>
        <time>2021-05-29T15:09:27.923Z</time>
      </trkpt>
      <trkpt lat="46.69786" lon="5.66102">
        <ele>513</ele>
        <time>2021-05-29T15:09:28.923Z</time>
      </trkpt>
      <trkpt lat="46.69789" lon="5.66099">
        <ele>513</ele>
        <time>2021-05-29T15:09:29.923Z</time>
      </trkpt>
      <trkpt lat="46.6979" lon="5.66098">
        <ele>513</ele>
        <time>2021-05-29T15:09:30.924Z</time>
      </trkpt>
      <trkpt lat="46.69792" lon="5.66097">
        <ele>513</ele>
        <time>2021-05-29T15:09:31.923Z</time>
      </trkpt>
      <trkpt lat="46.69794" lon="5.66096">
        <ele>513</ele>
        <time>2021-05-29T15:09:32.924Z</time>
      </trkpt>
      <trkpt lat="46.69796" lon="5.66094">
        <ele>513</ele>
        <time>2021-05-29T15:09:33.924Z</time>
      </trkpt>
      <trkpt lat="46.69798" lon="5.66093">
        <ele>512</ele>
        <time>2021-05-29T15:09:34.923Z</time>
      </trkpt>
      <trkpt lat="46.69801" lon="5.66092">
        <ele>512</ele>
        <time>2021-05-29T15:09:35.924Z</time>
      </trkpt>
      <trkpt lat="46.69803" lon="5.66092">
        <ele>512</ele>
        <time>2021-05-29T15:09:36.924Z</time>
      </trkpt>
      <trkpt lat="46.69804" lon="5.66092">
        <ele>512</ele>
        <time>2021-05-29T15:09:37.924Z</time>
      </trkpt>
      <trkpt lat="46.69806" lon="5.66093">
        <ele>512</ele>
        <time>2021-05-29T15:09:38.924Z</time>
      </trkpt>
      <trkpt lat="46.69808" lon="5.66093">
        <ele>512</ele>
        <time>2021-05-29T15:09:39.923Z</time>
      </trkpt>
      <trkpt lat="46.6981" lon="5.66093">
        <ele>512</ele>
        <time>2021-05-29T15:09:40.923Z</time>
      </trkpt>
      <trkpt lat="46.69812" lon="5.66094">
        <ele>512</ele>
        <time>2021-05-29T15:09:41.924Z</time>
      </trkpt>
      <trkpt lat="46.69813" lon="5.66095">
        <ele>512</ele>
        <time>2021-05-29T15:09:42.923Z</time>
      </trkpt>
      <trkpt lat="46.69815" lon="5.66096">
        <ele>513</ele>
        <time>2021-05-29T15:09:43.923Z</time>
      </trkpt>
      <trkpt lat="46.69817" lon="5.66096">
        <ele>513</ele>
        <time>2021-05-29T15:09:44.924Z</time>
      </trkpt>
      <trkpt lat="46.6982" lon="5.66097">
        <ele>513</ele>
        <time>2021-05-29T15:09:45.924Z</time>
      </trkpt>
      <trkpt lat="46.69823" lon="5.66096">
        <ele>513</ele>
        <time>2021-05-29T15:09:46.923Z</time>
      </trkpt>
      <trkpt lat="46.69825" lon="5.66096">
        <ele>513</ele>
        <time>2021-05-29T15:09:47.923Z</time>
      </trkpt>
      <trkpt lat="46.69827" lon="5.66096">
        <ele>514</ele>
        <time>2021-05-29T15:09:48.923Z</time>
      </trkpt>
      <trkpt lat="46.69829" lon="5.66096">
        <ele>514</ele>
        <time>2021-05-29T15:09:49.924Z</time>
      </trkpt>
      <trkpt lat="46.6983" lon="5.66095">
        <ele>513</ele>
        <time>2021-05-29T15:09:50.924Z</time>
      </trkpt>
      <trkpt lat="46.69831" lon="5.66094">
        <ele>514</ele>
        <time>2021-05-29T15:09:51.923Z</time>
      </trkpt>
      <trkpt lat="46.69832" lon="5.66094">
        <ele>514</ele>
        <time>2021-05-29T15:09:52.923Z</time>
      </trkpt>
      <trkpt lat="46.69835" lon="5.66093">
        <ele>513</ele>
        <time>2021-05-29T15:09:53.923Z</time>
      </trkpt>
      <trkpt lat="46.69837" lon="5.66093">
        <ele>513</ele>
        <time>2021-05-29T15:09:54.923Z</time>
      </trkpt>
      <trkpt lat="46.6984" lon="5.66093">
        <ele>513</ele>
        <time>2021-05-29T15:09:55.923Z</time>
      </trkpt>
      <trkpt lat="46.69842" lon="5.66094">
        <ele>512</ele>
        <time>2021-05-29T15:09:56.923Z</time>
      </trkpt>
      <trkpt lat="46.69844" lon="5.66094">
        <ele>512</ele>
        <time>2021-05-29T15:09:57.923Z</time>
      </trkpt>
      <trkpt lat="46.69846" lon="5.66094">
        <ele>512</ele>
        <time>2021-05-29T15:09:58.923Z</time>
      </trkpt>
      <trkpt lat="46.69848" lon="5.66094">
        <ele>511</ele>
        <time>2021-05-29T15:09:59.924Z</time>
      </trkpt>
      <trkpt lat="46.6985" lon="5.66095">
        <ele>511</ele>
        <time>2021-05-29T15:10:00.923Z</time>
      </trkpt>
      <trkpt lat="46.69852" lon="5.66095">
        <ele>511</ele>
        <time>2021-05-29T15:10:01.924Z</time>
      </trkpt>
      <trkpt lat="46.69854" lon="5.66095">
        <ele>511</ele>
        <time>2021-05-29T15:10:02.923Z</time>
      </trkpt>
      <trkpt lat="46.69856" lon="5.66096">
        <ele>511</ele>
        <time>2021-05-29T15:10:03.923Z</time>
      </trkpt>
      <trkpt lat="46.69857" lon="5.66096">
        <ele>511</ele>
        <time>2021-05-29T15:10:04.924Z</time>
      </trkpt>
      <trkpt lat="46.69858" lon="5.66096">
        <ele>511</ele>
        <time>2021-05-29T15:10:05.924Z</time>
      </trkpt>
      <trkpt lat="46.69859" lon="5.66097">
        <ele>512</ele>
        <time>2021-05-29T15:10:06.923Z</time>
      </trkpt>
      <trkpt lat="46.69861" lon="5.66097">
        <ele>512</ele>
        <time>2021-05-29T15:10:07.924Z</time>
      </trkpt>
      <trkpt lat="46.69863" lon="5.66097">
        <ele>513</ele>
        <time>2021-05-29T15:10:08.923Z</time>
      </trkpt>
      <trkpt lat="46.69865" lon="5.66097">
        <ele>513</ele>
        <time>2021-05-29T15:10:09.924Z</time>
      </trkpt>
      <trkpt lat="46.69867" lon="5.66097">
        <ele>513</ele>
        <time>2021-05-29T15:10:10.923Z</time>
      </trkpt>
      <trkpt lat="46.69868" lon="5.66098">
        <ele>513</ele>
        <time>2021-05-29T15:10:11.923Z</time>
      </trkpt>
      <trkpt lat="46.69869" lon="5.66097">
        <ele>514</ele>
        <time>2021-05-29T15:10:12.923Z</time>
      </trkpt>
      <trkpt lat="46.69869" lon="5.66097">
        <ele>515</ele>
        <time>2021-05-29T15:10:13.923Z</time>
      </trkpt>
      <trkpt lat="46.69869" lon="5.66098">
        <ele>515</ele>
        <time>2021-05-29T15:10:14.924Z</time>
      </trkpt>
      <trkpt lat="46.69869" lon="5.66098">
        <ele>514</ele>
        <time>2021-05-29T15:10:15.923Z</time>
      </trkpt>
      <trkpt lat="46.6987" lon="5.66098">
        <ele>514</ele>
        <time>2021-05-29T15:10:16.923Z</time>
      </trkpt>
      <trkpt lat="46.6987" lon="5.66098">
        <ele>514</ele>
        <time>2021-05-29T15:10:17.923Z</time>
      </trkpt>
      <trkpt lat="46.6987" lon="5.66098">
        <ele>514</ele>
        <time>2021-05-29T15:10:18.923Z</time>
      </trkpt>
      <trkpt lat="46.69871" lon="5.66098">
        <ele>514</ele>
        <time>2021-05-29T15:10:19.924Z</time>
      </trkpt>
      <trkpt lat="46.69872" lon="5.66097">
        <ele>513</ele>
        <time>2021-05-29T15:10:20.923Z</time>
      </trkpt>
      <trkpt lat="46.69874" lon="5.66097">
        <ele>513</ele>
        <time>2021-05-29T15:10:21.924Z</time>
      </trkpt>
      <trkpt lat="46.69875" lon="5.66097">
        <ele>513</ele>
        <time>2021-05-29T15:10:22.923Z</time>
      </trkpt>
      <trkpt lat="46.69876" lon="5.66097">
        <ele>513</ele>
        <time>2021-05-29T15:10:23.923Z</time>
      </trkpt>
      <trkpt lat="46.69877" lon="5.66097">
        <ele>513</ele>
        <time>2021-05-29T15:10:24.923Z</time>
      </trkpt>
      <trkpt lat="46.69879" lon="5.66096">
        <ele>513</ele>
        <time>2021-05-29T15:10:25.923Z</time>
      </trkpt>
      <trkpt lat="46.69882" lon="5.66096">
        <ele>512</ele>
        <time>2021-05-29T15:10:26.923Z</time>
      </trkpt>
      <trkpt lat="46.69883" lon="5.66096">
        <ele>512</ele>
        <time>2021-05-29T15:10:27.923Z</time>
      </trkpt>
      <trkpt lat="46.69884" lon="5.66096">
        <ele>512</ele>
        <time>2021-05-29T15:10:28.923Z</time>
      </trkpt>
      <trkpt lat="46.69886" lon="5.66096">
        <ele>512</ele>
        <time>2021-05-29T15:10:29.923Z</time>
      </trkpt>
      <trkpt lat="46.69887" lon="5.66097">
        <ele>512</ele>
        <time>2021-05-29T15:10:30.923Z</time>
      </trkpt>
      <trkpt lat="46.69888" lon="5.66097">
        <ele>512</ele>
        <time>2021-05-29T15:10:31.923Z</time>
      </trkpt>
      <trkpt lat="46.69889" lon="5.66098">
        <ele>512</ele>
        <time>2021-05-29T15:10:32.923Z</time>
      </trkpt>
      <trkpt lat="46.6989" lon="5.661">
        <ele>512</ele>
        <time>2021-05-29T15:10:33.923Z</time>
      </trkpt>
      <trkpt lat="46.69891" lon="5.66101">
        <ele>512</ele>
        <time>2021-05-29T15:10:34.923Z</time>
      </trkpt>
      <trkpt lat="46.69892" lon="5.66101">
        <ele>512</ele>
        <time>2021-05-29T15:10:35.923Z</time>
      </trkpt>
      <trkpt lat="46.69892" lon="5.66101">
        <ele>512</ele>
        <time>2021-05-29T15:10:36.924Z</time>
      </trkpt>
      <trkpt lat="46.69893" lon="5.66101">
        <ele>512</ele>
        <time>2021-05-29T15:10:37.924Z</time>
      </trkpt>
      <trkpt lat="46.69893" lon="5.66101">
        <ele>512</ele>
        <time>2021-05-29T15:10:38.924Z</time>
      </trkpt>
      <trkpt lat="46.69893" lon="5.66102">
        <ele>512</ele>
        <time>2021-05-29T15:10:39.924Z</time>
      </trkpt>
      <trkpt lat="46.69894" lon="5.66103">
        <ele>512</ele>
        <time>2021-05-29T15:10:40.924Z</time>
      </trkpt>
      <trkpt lat="46.69895" lon="5.66103">
        <ele>513</ele>
        <time>2021-05-29T15:10:41.924Z</time>
      </trkpt>
      <trkpt lat="46.69896" lon="5.66103">
        <ele>513</ele>
        <time>2021-05-29T15:10:42.923Z</time>
      </trkpt>
      <trkpt lat="46.69898" lon="5.66104">
        <ele>514</ele>
        <time>2021-05-29T15:10:43.924Z</time>
      </trkpt>
      <trkpt lat="46.69901" lon="5.66104">
        <ele>515</ele>
        <time>2021-05-29T15:10:44.923Z</time>
      </trkpt>
      <trkpt lat="46.69903" lon="5.66104">
        <ele>516</ele>
        <time>2021-05-29T15:10:45.924Z</time>
      </trkpt>
      <trkpt lat="46.69905" lon="5.66104">
        <ele>516</ele>
        <time>2021-05-29T15:10:46.924Z</time>
      </trkpt>
      <trkpt lat="46.69907" lon="5.66104">
        <ele>517</ele>
        <time>2021-05-29T15:10:47.924Z</time>
      </trkpt>
      <trkpt lat="46.6991" lon="5.66104">
        <ele>517</ele>
        <time>2021-05-29T15:10:48.924Z</time>
      </trkpt>
      <trkpt lat="46.69912" lon="5.66104">
        <ele>517</ele>
        <time>2021-05-29T15:10:49.924Z</time>
      </trkpt>
      <trkpt lat="46.69913" lon="5.66104">
        <ele>517</ele>
        <time>2021-05-29T15:10:50.924Z</time>
      </trkpt>
      <trkpt lat="46.69914" lon="5.66104">
        <ele>517</ele>
        <time>2021-05-29T15:10:51.924Z</time>
      </trkpt>
      <trkpt lat="46.69915" lon="5.66104">
        <ele>517</ele>
        <time>2021-05-29T15:10:52.924Z</time>
      </trkpt>
      <trkpt lat="46.69917" lon="5.66103">
        <ele>517</ele>
        <time>2021-05-29T15:10:53.924Z</time>
      </trkpt>
      <trkpt lat="46.69919" lon="5.66103">
        <ele>518</ele>
        <time>2021-05-29T15:10:54.923Z</time>
      </trkpt>
      <trkpt lat="46.69921" lon="5.66103">
        <ele>518</ele>
        <time>2021-05-29T15:10:55.924Z</time>
      </trkpt>
      <trkpt lat="46.69923" lon="5.66103">
        <ele>518</ele>
        <time>2021-05-29T15:10:56.924Z</time>
      </trkpt>
      <trkpt lat="46.69926" lon="5.66103">
        <ele>518</ele>
        <time>2021-05-29T15:10:57.924Z</time>
      </trkpt>
      <trkpt lat="46.69929" lon="5.66102">
        <ele>518</ele>
        <time>2021-05-29T15:10:58.924Z</time>
      </trkpt>
      <trkpt lat="46.69931" lon="5.66102">
        <ele>518</ele>
        <time>2021-05-29T15:10:59.924Z</time>
      </trkpt>
      <trkpt lat="46.69933" lon="5.66103">
        <ele>518</ele>
        <time>2021-05-29T15:11:00.923Z</time>
      </trkpt>
      <trkpt lat="46.69936" lon="5.66103">
        <ele>518</ele>
        <time>2021-05-29T15:11:01.924Z</time>
      </trkpt>
      <trkpt lat="46.69938" lon="5.66105">
        <ele>518</ele>
        <time>2021-05-29T15:11:02.924Z</time>
      </trkpt>
      <trkpt lat="46.6994" lon="5.66106">
        <ele>518</ele>
        <time>2021-05-29T15:11:03.924Z</time>
      </trkpt>
      <trkpt lat="46.69941" lon="5.66107">
        <ele>518</ele>
        <time>2021-05-29T15:11:04.923Z</time>
      </trkpt>
      <trkpt lat="46.69944" lon="5.66109">
        <ele>518</ele>
        <time>2021-05-29T15:11:05.924Z</time>
      </trkpt>
      <trkpt lat="46.69947" lon="5.6611">
        <ele>519</ele>
        <time>2021-05-29T15:11:06.924Z</time>
      </trkpt>
      <trkpt lat="46.69949" lon="5.66111">
        <ele>519</ele>
        <time>2021-05-29T15:11:07.924Z</time>
      </trkpt>
      <trkpt lat="46.69952" lon="5.66111">
        <ele>519</ele>
        <time>2021-05-29T15:11:08.924Z</time>
      </trkpt>
      <trkpt lat="46.69954" lon="5.6611">
        <ele>520</ele>
        <time>2021-05-29T15:11:09.924Z</time>
      </trkpt>
      <trkpt lat="46.69955" lon="5.6611">
        <ele>520</ele>
        <time>2021-05-29T15:11:10.923Z</time>
      </trkpt>
      <trkpt lat="46.69957" lon="5.66111">
        <ele>521</ele>
        <time>2021-05-29T15:11:11.924Z</time>
      </trkpt>
      <trkpt lat="46.6996" lon="5.66111">
        <ele>521</ele>
        <time>2021-05-29T15:11:12.924Z</time>
      </trkpt>
      <trkpt lat="46.69962" lon="5.66111">
        <ele>521</ele>
        <time>2021-05-29T15:11:13.924Z</time>
      </trkpt>
      <trkpt lat="46.69965" lon="5.6611">
        <ele>521</ele>
        <time>2021-05-29T15:11:14.923Z</time>
      </trkpt>
      <trkpt lat="46.69967" lon="5.6611">
        <ele>521</ele>
        <time>2021-05-29T15:11:15.923Z</time>
      </trkpt>
      <trkpt lat="46.69969" lon="5.66109">
        <ele>521</ele>
        <time>2021-05-29T15:11:16.923Z</time>
      </trkpt>
      <trkpt lat="46.69972" lon="5.66109">
        <ele>521</ele>
        <time>2021-05-29T15:11:17.924Z</time>
      </trkpt>
      <trkpt lat="46.69974" lon="5.6611">
        <ele>521</ele>
        <time>2021-05-29T15:11:18.924Z</time>
      </trkpt>
      <trkpt lat="46.69976" lon="5.66111">
        <ele>521</ele>
        <time>2021-05-29T15:11:19.923Z</time>
      </trkpt>
      <trkpt lat="46.69978" lon="5.6611">
        <ele>520</ele>
        <time>2021-05-29T15:11:20.924Z</time>
      </trkpt>
      <trkpt lat="46.69979" lon="5.6611">
        <ele>521</ele>
        <time>2021-05-29T15:11:21.924Z</time>
      </trkpt>
      <trkpt lat="46.69981" lon="5.6611">
        <ele>521</ele>
        <time>2021-05-29T15:11:22.924Z</time>
      </trkpt>
      <trkpt lat="46.69983" lon="5.6611">
        <ele>521</ele>
        <time>2021-05-29T15:11:23.924Z</time>
      </trkpt>
      <trkpt lat="46.69985" lon="5.66111">
        <ele>522</ele>
        <time>2021-05-29T15:11:24.923Z</time>
      </trkpt>
      <trkpt lat="46.69986" lon="5.6611">
        <ele>522</ele>
        <time>2021-05-29T15:11:25.924Z</time>
      </trkpt>
      <trkpt lat="46.69988" lon="5.6611">
        <ele>522</ele>
        <time>2021-05-29T15:11:26.924Z</time>
      </trkpt>
      <trkpt lat="46.6999" lon="5.6611">
        <ele>522</ele>
        <time>2021-05-29T15:11:27.924Z</time>
      </trkpt>
      <trkpt lat="46.69993" lon="5.6611">
        <ele>522</ele>
        <time>2021-05-29T15:11:28.924Z</time>
      </trkpt>
      <trkpt lat="46.69994" lon="5.66111">
        <ele>523</ele>
        <time>2021-05-29T15:11:29.923Z</time>
      </trkpt>
      <trkpt lat="46.69996" lon="5.66111">
        <ele>523</ele>
        <time>2021-05-29T15:11:30.924Z</time>
      </trkpt>
      <trkpt lat="46.69998" lon="5.66112">
        <ele>523</ele>
        <time>2021-05-29T15:11:31.924Z</time>
      </trkpt>
      <trkpt lat="46.7" lon="5.66113">
        <ele>523</ele>
        <time>2021-05-29T15:11:32.924Z</time>
      </trkpt>
      <trkpt lat="46.70003" lon="5.66115">
        <ele>523</ele>
        <time>2021-05-29T15:11:33.924Z</time>
      </trkpt>
      <trkpt lat="46.70005" lon="5.66117">
        <ele>523</ele>
        <time>2021-05-29T15:11:34.923Z</time>
      </trkpt>
      <trkpt lat="46.70007" lon="5.66118">
        <ele>523</ele>
        <time>2021-05-29T15:11:35.924Z</time>
      </trkpt>
      <trkpt lat="46.70008" lon="5.66119">
        <ele>523</ele>
        <time>2021-05-29T15:11:36.924Z</time>
      </trkpt>
      <trkpt lat="46.7001" lon="5.6612">
        <ele>523</ele>
        <time>2021-05-29T15:11:37.924Z</time>
      </trkpt>
      <trkpt lat="46.70012" lon="5.66121">
        <ele>523</ele>
        <time>2021-05-29T15:11:38.924Z</time>
      </trkpt>
      <trkpt lat="46.70013" lon="5.66122">
        <ele>523</ele>
        <time>2021-05-29T15:11:39.924Z</time>
      </trkpt>
      <trkpt lat="46.70014" lon="5.66124">
        <ele>522</ele>
        <time>2021-05-29T15:11:40.924Z</time>
      </trkpt>
      <trkpt lat="46.70015" lon="5.66124">
        <ele>522</ele>
        <time>2021-05-29T15:11:41.924Z</time>
      </trkpt>
      <trkpt lat="46.70017" lon="5.66125">
        <ele>522</ele>
        <time>2021-05-29T15:11:42.923Z</time>
      </trkpt>
      <trkpt lat="46.70019" lon="5.66126">
        <ele>522</ele>
        <time>2021-05-29T15:11:43.924Z</time>
      </trkpt>
      <trkpt lat="46.7002" lon="5.66127">
        <ele>522</ele>
        <time>2021-05-29T15:11:44.923Z</time>
      </trkpt>
      <trkpt lat="46.70022" lon="5.66128">
        <ele>522</ele>
        <time>2021-05-29T15:11:45.924Z</time>
      </trkpt>
      <trkpt lat="46.70025" lon="5.66129">
        <ele>522</ele>
        <time>2021-05-29T15:11:46.924Z</time>
      </trkpt>
      <trkpt lat="46.70027" lon="5.6613">
        <ele>522</ele>
        <time>2021-05-29T15:11:47.924Z</time>
      </trkpt>
      <trkpt lat="46.7003" lon="5.66131">
        <ele>522</ele>
        <time>2021-05-29T15:11:48.924Z</time>
      </trkpt>
      <trkpt lat="46.70032" lon="5.66132">
        <ele>522</ele>
        <time>2021-05-29T15:11:49.924Z</time>
      </trkpt>
      <trkpt lat="46.70033" lon="5.66132">
        <ele>522</ele>
        <time>2021-05-29T15:11:50.924Z</time>
      </trkpt>
      <trkpt lat="46.70035" lon="5.66133">
        <ele>522</ele>
        <time>2021-05-29T15:11:51.924Z</time>
      </trkpt>
      <trkpt lat="46.70037" lon="5.66134">
        <ele>522</ele>
        <time>2021-05-29T15:11:52.924Z</time>
      </trkpt>
      <trkpt lat="46.7004" lon="5.66135">
        <ele>522</ele>
        <time>2021-05-29T15:11:53.924Z</time>
      </trkpt>
      <trkpt lat="46.70043" lon="5.66135">
        <ele>523</ele>
        <time>2021-05-29T15:11:54.924Z</time>
      </trkpt>
      <trkpt lat="46.70045" lon="5.66134">
        <ele>523</ele>
        <time>2021-05-29T15:11:55.923Z</time>
      </trkpt>
      <trkpt lat="46.70047" lon="5.66135">
        <ele>523</ele>
        <time>2021-05-29T15:11:56.924Z</time>
      </trkpt>
      <trkpt lat="46.7005" lon="5.66135">
        <ele>523</ele>
        <time>2021-05-29T15:11:57.924Z</time>
      </trkpt>
      <trkpt lat="46.70054" lon="5.66136">
        <ele>523</ele>
        <time>2021-05-29T15:11:58.924Z</time>
      </trkpt>
      <trkpt lat="46.70056" lon="5.66137">
        <ele>523</ele>
        <time>2021-05-29T15:11:59.924Z</time>
      </trkpt>
      <trkpt lat="46.70059" lon="5.66137">
        <ele>523</ele>
        <time>2021-05-29T15:12:00.924Z</time>
      </trkpt>
      <trkpt lat="46.70061" lon="5.66137">
        <ele>523</ele>
        <time>2021-05-29T15:12:01.924Z</time>
      </trkpt>
      <trkpt lat="46.70063" lon="5.66138">
        <ele>523</ele>
        <time>2021-05-29T15:12:02.924Z</time>
      </trkpt>
      <trkpt lat="46.70066" lon="5.66138">
        <ele>523</ele>
        <time>2021-05-29T15:12:03.924Z</time>
      </trkpt>
      <trkpt lat="46.70068" lon="5.66138">
        <ele>523</ele>
        <time>2021-05-29T15:12:04.924Z</time>
      </trkpt>
      <trkpt lat="46.70071" lon="5.66137">
        <ele>523</ele>
        <time>2021-05-29T15:12:05.923Z</time>
      </trkpt>
      <trkpt lat="46.70073" lon="5.66138">
        <ele>523</ele>
        <time>2021-05-29T15:12:06.924Z</time>
      </trkpt>
      <trkpt lat="46.70076" lon="5.66138">
        <ele>523</ele>
        <time>2021-05-29T15:12:07.924Z</time>
      </trkpt>
      <trkpt lat="46.70078" lon="5.66139">
        <ele>524</ele>
        <time>2021-05-29T15:12:08.924Z</time>
      </trkpt>
      <trkpt lat="46.70079" lon="5.66139">
        <ele>523</ele>
        <time>2021-05-29T15:12:09.923Z</time>
      </trkpt>
      <trkpt lat="46.70081" lon="5.6614">
        <ele>523</ele>
        <time>2021-05-29T15:12:10.924Z</time>
      </trkpt>
      <trkpt lat="46.70084" lon="5.6614">
        <ele>523</ele>
        <time>2021-05-29T15:12:11.924Z</time>
      </trkpt>
      <trkpt lat="46.70086" lon="5.66141">
        <ele>523</ele>
        <time>2021-05-29T15:12:12.924Z</time>
      </trkpt>
      <trkpt lat="46.70088" lon="5.66142">
        <ele>523</ele>
        <time>2021-05-29T15:12:13.923Z</time>
      </trkpt>
      <trkpt lat="46.7009" lon="5.66143">
        <ele>523</ele>
        <time>2021-05-29T15:12:14.924Z</time>
      </trkpt>
      <trkpt lat="46.70093" lon="5.66144">
        <ele>523</ele>
        <time>2021-05-29T15:12:15.923Z</time>
      </trkpt>
      <trkpt lat="46.70095" lon="5.66144">
        <ele>523</ele>
        <time>2021-05-29T15:12:16.924Z</time>
      </trkpt>
      <trkpt lat="46.70098" lon="5.66145">
        <ele>522</ele>
        <time>2021-05-29T15:12:17.923Z</time>
      </trkpt>
      <trkpt lat="46.701" lon="5.66146">
        <ele>522</ele>
        <time>2021-05-29T15:12:18.924Z</time>
      </trkpt>
      <trkpt lat="46.70102" lon="5.66147">
        <ele>522</ele>
        <time>2021-05-29T15:12:19.924Z</time>
      </trkpt>
      <trkpt lat="46.70105" lon="5.66148">
        <ele>521</ele>
        <time>2021-05-29T15:12:20.924Z</time>
      </trkpt>
      <trkpt lat="46.70109" lon="5.66149">
        <ele>521</ele>
        <time>2021-05-29T15:12:21.924Z</time>
      </trkpt>
      <trkpt lat="46.70113" lon="5.66149">
        <ele>520</ele>
        <time>2021-05-29T15:17:10.244Z</time>
      </trkpt>
      <trkpt lat="46.70116" lon="5.6615">
        <ele>520</ele>
        <time>2021-05-29T15:17:11.244Z</time>
      </trkpt>
      <trkpt lat="46.70119" lon="5.66152">
        <ele>520</ele>
        <time>2021-05-29T15:17:12.244Z</time>
      </trkpt>
      <trkpt lat="46.70121" lon="5.66153">
        <ele>519</ele>
        <time>2021-05-29T15:17:13.244Z</time>
      </trkpt>
      <trkpt lat="46.70123" lon="5.66155">
        <ele>519</ele>
        <time>2021-05-29T15:17:14.244Z</time>
      </trkpt>
      <trkpt lat="46.70124" lon="5.66155">
        <ele>518</ele>
        <time>2021-05-29T15:17:15.244Z</time>
      </trkpt>
      <trkpt lat="46.70127" lon="5.66155">
        <ele>518</ele>
        <time>2021-05-29T15:17:16.244Z</time>
      </trkpt>
      <trkpt lat="46.70128" lon="5.66155">
        <ele>518</ele>
        <time>2021-05-29T15:17:17.243Z</time>
      </trkpt>
      <trkpt lat="46.7013" lon="5.66155">
        <ele>518</ele>
        <time>2021-05-29T15:17:18.243Z</time>
      </trkpt>
      <trkpt lat="46.70133" lon="5.66155">
        <ele>518</ele>
        <time>2021-05-29T15:17:19.244Z</time>
      </trkpt>
      <trkpt lat="46.70134" lon="5.66155">
        <ele>518</ele>
        <time>2021-05-29T15:17:20.244Z</time>
      </trkpt>
      <trkpt lat="46.70136" lon="5.66154">
        <ele>518</ele>
        <time>2021-05-29T15:17:21.244Z</time>
      </trkpt>
      <trkpt lat="46.70138" lon="5.66154">
        <ele>518</ele>
        <time>2021-05-29T15:17:22.244Z</time>
      </trkpt>
      <trkpt lat="46.7014" lon="5.66153">
        <ele>518</ele>
        <time>2021-05-29T15:17:23.244Z</time>
      </trkpt>
      <trkpt lat="46.70142" lon="5.66153">
        <ele>518</ele>
        <time>2021-05-29T15:17:24.244Z</time>
      </trkpt>
      <trkpt lat="46.70144" lon="5.66153">
        <ele>518</ele>
        <time>2021-05-29T15:17:25.244Z</time>
      </trkpt>
      <trkpt lat="46.70147" lon="5.66152">
        <ele>518</ele>
        <time>2021-05-29T15:17:26.244Z</time>
      </trkpt>
      <trkpt lat="46.7015" lon="5.66152">
        <ele>518</ele>
        <time>2021-05-29T15:17:27.244Z</time>
      </trkpt>
      <trkpt lat="46.70153" lon="5.66152">
        <ele>518</ele>
        <time>2021-05-29T15:17:28.243Z</time>
      </trkpt>
      <trkpt lat="46.70155" lon="5.66151">
        <ele>518</ele>
        <time>2021-05-29T15:17:29.244Z</time>
      </trkpt>
      <trkpt lat="46.70158" lon="5.6615">
        <ele>518</ele>
        <time>2021-05-29T15:17:30.244Z</time>
      </trkpt>
      <trkpt lat="46.70161" lon="5.66149">
        <ele>518</ele>
        <time>2021-05-29T15:17:31.244Z</time>
      </trkpt>
      <trkpt lat="46.70164" lon="5.66149">
        <ele>517</ele>
        <time>2021-05-29T15:17:32.244Z</time>
      </trkpt>
      <trkpt lat="46.70167" lon="5.66148">
        <ele>517</ele>
        <time>2021-05-29T15:17:33.244Z</time>
      </trkpt>
      <trkpt lat="46.7017" lon="5.66148">
        <ele>517</ele>
        <time>2021-05-29T15:17:34.244Z</time>
      </trkpt>
      <trkpt lat="46.70172" lon="5.66147">
        <ele>517</ele>
        <time>2021-05-29T15:17:35.243Z</time>
      </trkpt>
      <trkpt lat="46.70175" lon="5.66147">
        <ele>517</ele>
        <time>2021-05-29T15:17:36.243Z</time>
      </trkpt>
      <trkpt lat="46.70178" lon="5.66147">
        <ele>518</ele>
        <time>2021-05-29T15:17:37.244Z</time>
      </trkpt>
      <trkpt lat="46.7018" lon="5.66148">
        <ele>518</ele>
        <time>2021-05-29T15:17:38.243Z</time>
      </trkpt>
      <trkpt lat="46.70182" lon="5.66149">
        <ele>518</ele>
        <time>2021-05-29T15:17:39.244Z</time>
      </trkpt>
      <trkpt lat="46.70185" lon="5.66151">
        <ele>518</ele>
        <time>2021-05-29T15:17:40.243Z</time>
      </trkpt>
      <trkpt lat="46.70187" lon="5.66153">
        <ele>519</ele>
        <time>2021-05-29T15:17:41.244Z</time>
      </trkpt>
      <trkpt lat="46.7019" lon="5.66155">
        <ele>519</ele>
        <time>2021-05-29T15:17:42.244Z</time>
      </trkpt>
      <trkpt lat="46.70192" lon="5.66156">
        <ele>519</ele>
        <time>2021-05-29T15:17:43.244Z</time>
      </trkpt>
      <trkpt lat="46.70193" lon="5.66156">
        <ele>519</ele>
        <time>2021-05-29T15:17:44.244Z</time>
      </trkpt>
      <trkpt lat="46.70196" lon="5.66157">
        <ele>519</ele>
        <time>2021-05-29T15:17:45.244Z</time>
      </trkpt>
      <trkpt lat="46.70198" lon="5.66158">
        <ele>519</ele>
        <time>2021-05-29T15:17:46.244Z</time>
      </trkpt>
      <trkpt lat="46.70201" lon="5.66159">
        <ele>519</ele>
        <time>2021-05-29T15:17:47.244Z</time>
      </trkpt>
      <trkpt lat="46.70203" lon="5.6616">
        <ele>519</ele>
        <time>2021-05-29T15:17:48.243Z</time>
      </trkpt>
      <trkpt lat="46.70204" lon="5.66161">
        <ele>519</ele>
        <time>2021-05-29T15:17:49.244Z</time>
      </trkpt>
      <trkpt lat="46.70206" lon="5.66163">
        <ele>519</ele>
        <time>2021-05-29T15:17:50.244Z</time>
      </trkpt>
      <trkpt lat="46.70208" lon="5.66164">
        <ele>519</ele>
        <time>2021-05-29T15:17:51.244Z</time>
      </trkpt>
      <trkpt lat="46.7021" lon="5.66165">
        <ele>519</ele>
        <time>2021-05-29T15:17:52.244Z</time>
      </trkpt>
      <trkpt lat="46.70212" lon="5.66165">
        <ele>519</ele>
        <time>2021-05-29T15:17:53.243Z</time>
      </trkpt>
      <trkpt lat="46.70213" lon="5.66166">
        <ele>519</ele>
        <time>2021-05-29T15:17:54.244Z</time>
      </trkpt>
      <trkpt lat="46.70215" lon="5.66167">
        <ele>519</ele>
        <time>2021-05-29T15:17:55.243Z</time>
      </trkpt>
      <trkpt lat="46.70216" lon="5.66169">
        <ele>518</ele>
        <time>2021-05-29T15:17:56.244Z</time>
      </trkpt>
      <trkpt lat="46.70217" lon="5.6617">
        <ele>518</ele>
        <time>2021-05-29T15:17:57.244Z</time>
      </trkpt>
      <trkpt lat="46.70219" lon="5.66173">
        <ele>518</ele>
        <time>2021-05-29T15:17:58.244Z</time>
      </trkpt>
      <trkpt lat="46.7022" lon="5.66176">
        <ele>518</ele>
        <time>2021-05-29T15:17:59.244Z</time>
      </trkpt>
      <trkpt lat="46.70221" lon="5.66179">
        <ele>518</ele>
        <time>2021-05-29T15:18:00.244Z</time>
      </trkpt>
      <trkpt lat="46.70222" lon="5.66181">
        <ele>518</ele>
        <time>2021-05-29T15:18:01.244Z</time>
      </trkpt>
      <trkpt lat="46.70223" lon="5.66182">
        <ele>518</ele>
        <time>2021-05-29T15:18:02.244Z</time>
      </trkpt>
      <trkpt lat="46.70224" lon="5.66183">
        <ele>519</ele>
        <time>2021-05-29T15:18:03.244Z</time>
      </trkpt>
      <trkpt lat="46.70226" lon="5.66184">
        <ele>519</ele>
        <time>2021-05-29T15:18:04.244Z</time>
      </trkpt>
      <trkpt lat="46.70227" lon="5.66185">
        <ele>519</ele>
        <time>2021-05-29T15:18:05.244Z</time>
      </trkpt>
      <trkpt lat="46.70229" lon="5.66186">
        <ele>519</ele>
        <time>2021-05-29T15:18:06.244Z</time>
      </trkpt>
      <trkpt lat="46.7023" lon="5.66187">
        <ele>519</ele>
        <time>2021-05-29T15:18:07.243Z</time>
      </trkpt>
      <trkpt lat="46.70232" lon="5.66188">
        <ele>519</ele>
        <time>2021-05-29T15:18:08.244Z</time>
      </trkpt>
      <trkpt lat="46.70233" lon="5.66188">
        <ele>519</ele>
        <time>2021-05-29T15:18:09.244Z</time>
      </trkpt>
      <trkpt lat="46.70235" lon="5.66189">
        <ele>519</ele>
        <time>2021-05-29T15:18:10.244Z</time>
      </trkpt>
      <trkpt lat="46.70237" lon="5.66189">
        <ele>519</ele>
        <time>2021-05-29T15:18:11.244Z</time>
      </trkpt>
      <trkpt lat="46.70239" lon="5.66189">
        <ele>519</ele>
        <time>2021-05-29T15:18:12.243Z</time>
      </trkpt>
      <trkpt lat="46.70241" lon="5.6619">
        <ele>519</ele>
        <time>2021-05-29T15:18:13.244Z</time>
      </trkpt>
      <trkpt lat="46.70242" lon="5.66191">
        <ele>519</ele>
        <time>2021-05-29T15:18:14.244Z</time>
      </trkpt>
      <trkpt lat="46.70244" lon="5.6619">
        <ele>519</ele>
        <time>2021-05-29T15:18:15.244Z</time>
      </trkpt>
      <trkpt lat="46.70247" lon="5.6619">
        <ele>519</ele>
        <time>2021-05-29T15:18:16.244Z</time>
      </trkpt>
      <trkpt lat="46.70249" lon="5.6619">
        <ele>519</ele>
        <time>2021-05-29T15:18:17.243Z</time>
      </trkpt>
      <trkpt lat="46.70251" lon="5.6619">
        <ele>519</ele>
        <time>2021-05-29T15:18:18.243Z</time>
      </trkpt>
      <trkpt lat="46.70254" lon="5.6619">
        <ele>519</ele>
        <time>2021-05-29T15:18:19.244Z</time>
      </trkpt>
      <trkpt lat="46.70256" lon="5.66191">
        <ele>519</ele>
        <time>2021-05-29T15:18:20.244Z</time>
      </trkpt>
      <trkpt lat="46.70258" lon="5.6619">
        <ele>519</ele>
        <time>2021-05-29T15:18:21.244Z</time>
      </trkpt>
      <trkpt lat="46.7026" lon="5.66191">
        <ele>519</ele>
        <time>2021-05-29T15:18:22.244Z</time>
      </trkpt>
      <trkpt lat="46.70261" lon="5.66191">
        <ele>520</ele>
        <time>2021-05-29T15:18:23.244Z</time>
      </trkpt>
      <trkpt lat="46.70263" lon="5.66191">
        <ele>520</ele>
        <time>2021-05-29T15:18:24.244Z</time>
      </trkpt>
      <trkpt lat="46.70266" lon="5.66191">
        <ele>520</ele>
        <time>2021-05-29T15:18:25.244Z</time>
      </trkpt>
      <trkpt lat="46.70268" lon="5.66191">
        <ele>520</ele>
        <time>2021-05-29T15:18:26.244Z</time>
      </trkpt>
      <trkpt lat="46.7027" lon="5.66191">
        <ele>520</ele>
        <time>2021-05-29T15:18:27.244Z</time>
      </trkpt>
      <trkpt lat="46.70272" lon="5.66192">
        <ele>520</ele>
        <time>2021-05-29T15:18:28.244Z</time>
      </trkpt>
      <trkpt lat="46.70274" lon="5.66192">
        <ele>520</ele>
        <time>2021-05-29T15:18:29.244Z</time>
      </trkpt>
      <trkpt lat="46.70276" lon="5.66192">
        <ele>520</ele>
        <time>2021-05-29T15:18:30.244Z</time>
      </trkpt>
      <trkpt lat="46.70277" lon="5.66192">
        <ele>519</ele>
        <time>2021-05-29T15:18:31.243Z</time>
      </trkpt>
      <trkpt lat="46.70279" lon="5.66192">
        <ele>519</ele>
        <time>2021-05-29T15:18:32.243Z</time>
      </trkpt>
      <trkpt lat="46.70281" lon="5.66193">
        <ele>519</ele>
        <time>2021-05-29T15:18:33.244Z</time>
      </trkpt>
      <trkpt lat="46.70284" lon="5.66193">
        <ele>518</ele>
        <time>2021-05-29T15:18:34.243Z</time>
      </trkpt>
      <trkpt lat="46.70286" lon="5.66194">
        <ele>518</ele>
        <time>2021-05-29T15:18:35.244Z</time>
      </trkpt>
      <trkpt lat="46.70287" lon="5.66195">
        <ele>517</ele>
        <time>2021-05-29T15:18:36.243Z</time>
      </trkpt>
      <trkpt lat="46.70287" lon="5.66195">
        <ele>517</ele>
        <time>2021-05-29T15:18:37.243Z</time>
      </trkpt>
      <trkpt lat="46.70287" lon="5.66195">
        <ele>517</ele>
        <time>2021-05-29T15:18:38.244Z</time>
      </trkpt>
      <trkpt lat="46.70287" lon="5.66195">
        <ele>516</ele>
        <time>2021-05-29T15:18:39.244Z</time>
      </trkpt>
      <trkpt lat="46.70287" lon="5.66195">
        <ele>516</ele>
        <time>2021-05-29T15:18:40.244Z</time>
      </trkpt>
      <trkpt lat="46.70287" lon="5.66195">
        <ele>516</ele>
        <time>2021-05-29T15:18:41.244Z</time>
      </trkpt>
      <trkpt lat="46.70287" lon="5.66195">
        <ele>516</ele>
        <time>2021-05-29T15:18:42.244Z</time>
      </trkpt>
      <trkpt lat="46.70286" lon="5.66196">
        <ele>515</ele>
        <time>2021-05-29T15:18:43.244Z</time>
      </trkpt>
      <trkpt lat="46.70287" lon="5.66196">
        <ele>515</ele>
        <time>2021-05-29T15:18:44.244Z</time>
      </trkpt>
      <trkpt lat="46.70287" lon="5.66196">
        <ele>515</ele>
        <time>2021-05-29T15:18:45.244Z</time>
      </trkpt>
      <trkpt lat="46.70287" lon="5.66196">
        <ele>516</ele>
        <time>2021-05-29T15:18:46.243Z</time>
      </trkpt>
      <trkpt lat="46.70286" lon="5.66195">
        <ele>516</ele>
        <time>2021-05-29T15:18:47.244Z</time>
      </trkpt>
      <trkpt lat="46.70286" lon="5.66195">
        <ele>516</ele>
        <time>2021-05-29T15:18:48.243Z</time>
      </trkpt>
      <trkpt lat="46.70286" lon="5.66195">
        <ele>517</ele>
        <time>2021-05-29T15:18:49.244Z</time>
      </trkpt>
      <trkpt lat="46.70286" lon="5.66195">
        <ele>516</ele>
        <time>2021-05-29T15:18:50.243Z</time>
      </trkpt>
      <trkpt lat="46.70286" lon="5.66195">
        <ele>516</ele>
        <time>2021-05-29T15:18:51.244Z</time>
      </trkpt>
      <trkpt lat="46.70286" lon="5.66195">
        <ele>515</ele>
        <time>2021-05-29T15:18:52.244Z</time>
      </trkpt>
      <trkpt lat="46.70286" lon="5.66195">
        <ele>515</ele>
        <time>2021-05-29T15:18:53.243Z</time>
      </trkpt>
      <trkpt lat="46.70286" lon="5.66195">
        <ele>514</ele>
        <time>2021-05-29T15:18:54.243Z</time>
      </trkpt>
      <trkpt lat="46.70286" lon="5.66195">
        <ele>514</ele>
        <time>2021-05-29T15:18:55.244Z</time>
      </trkpt>
      <trkpt lat="46.70286" lon="5.66195">
        <ele>514</ele>
        <time>2021-05-29T15:18:56.243Z</time>
      </trkpt>
      <trkpt lat="46.70286" lon="5.66195">
        <ele>514</ele>
        <time>2021-05-29T15:18:57.243Z</time>
      </trkpt>
      <trkpt lat="46.70286" lon="5.66195">
        <ele>514</ele>
        <time>2021-05-29T15:18:58.244Z</time>
      </trkpt>
      <trkpt lat="46.70287" lon="5.66195">
        <ele>514</ele>
        <time>2021-05-29T15:18:59.243Z</time>
      </trkpt>
      <trkpt lat="46.70287" lon="5.66195">
        <ele>513</ele>
        <time>2021-05-29T15:19:00.244Z</time>
      </trkpt>
      <trkpt lat="46.70289" lon="5.66195">
        <ele>513</ele>
        <time>2021-05-29T15:19:01.244Z</time>
      </trkpt>
      <trkpt lat="46.70291" lon="5.66195">
        <ele>513</ele>
        <time>2021-05-29T15:19:02.243Z</time>
      </trkpt>
      <trkpt lat="46.70293" lon="5.66194">
        <ele>513</ele>
        <time>2021-05-29T15:19:03.244Z</time>
      </trkpt>
      <trkpt lat="46.70295" lon="5.66194">
        <ele>513</ele>
        <time>2021-05-29T15:19:04.244Z</time>
      </trkpt>
      <trkpt lat="46.70297" lon="5.66193">
        <ele>513</ele>
        <time>2021-05-29T15:19:05.244Z</time>
      </trkpt>
      <trkpt lat="46.70299" lon="5.66193">
        <ele>513</ele>
        <time>2021-05-29T15:19:06.243Z</time>
      </trkpt>
      <trkpt lat="46.70301" lon="5.66193">
        <ele>513</ele>
        <time>2021-05-29T15:19:07.244Z</time>
      </trkpt>
      <trkpt lat="46.70303" lon="5.66193">
        <ele>513</ele>
        <time>2021-05-29T15:19:08.244Z</time>
      </trkpt>
      <trkpt lat="46.70304" lon="5.66193">
        <ele>513</ele>
        <time>2021-05-29T15:19:09.244Z</time>
      </trkpt>
      <trkpt lat="46.70305" lon="5.66194">
        <ele>512</ele>
        <time>2021-05-29T15:19:10.243Z</time>
      </trkpt>
      <trkpt lat="46.70307" lon="5.66193">
        <ele>513</ele>
        <time>2021-05-29T15:19:11.244Z</time>
      </trkpt>
      <trkpt lat="46.70308" lon="5.66193">
        <ele>513</ele>
        <time>2021-05-29T15:19:12.243Z</time>
      </trkpt>
      <trkpt lat="46.7031" lon="5.66192">
        <ele>513</ele>
        <time>2021-05-29T15:19:13.243Z</time>
      </trkpt>
      <trkpt lat="46.70312" lon="5.66192">
        <ele>513</ele>
        <time>2021-05-29T15:19:14.244Z</time>
      </trkpt>
      <trkpt lat="46.70314" lon="5.66191">
        <ele>514</ele>
        <time>2021-05-29T15:19:15.243Z</time>
      </trkpt>
      <trkpt lat="46.70316" lon="5.66191">
        <ele>514</ele>
        <time>2021-05-29T15:19:16.243Z</time>
      </trkpt>
      <trkpt lat="46.70318" lon="5.66191">
        <ele>514</ele>
        <time>2021-05-29T15:19:17.244Z</time>
      </trkpt>
      <trkpt lat="46.7032" lon="5.6619">
        <ele>514</ele>
        <time>2021-05-29T15:19:18.243Z</time>
      </trkpt>
      <trkpt lat="46.70322" lon="5.6619">
        <ele>514</ele>
        <time>2021-05-29T15:19:19.243Z</time>
      </trkpt>
      <trkpt lat="46.70325" lon="5.6619">
        <ele>514</ele>
        <time>2021-05-29T15:19:20.243Z</time>
      </trkpt>
      <trkpt lat="46.70327" lon="5.6619">
        <ele>514</ele>
        <time>2021-05-29T15:19:21.243Z</time>
      </trkpt>
      <trkpt lat="46.7033" lon="5.66191">
        <ele>514</ele>
        <time>2021-05-29T15:19:22.243Z</time>
      </trkpt>
      <trkpt lat="46.70332" lon="5.66191">
        <ele>514</ele>
        <time>2021-05-29T15:19:23.244Z</time>
      </trkpt>
      <trkpt lat="46.70335" lon="5.66191">
        <ele>514</ele>
        <time>2021-05-29T15:19:24.244Z</time>
      </trkpt>
      <trkpt lat="46.70339" lon="5.66192">
        <ele>514</ele>
        <time>2021-05-29T15:19:25.244Z</time>
      </trkpt>
      <trkpt lat="46.70341" lon="5.66191">
        <ele>515</ele>
        <time>2021-05-29T15:19:26.244Z</time>
      </trkpt>
      <trkpt lat="46.70343" lon="5.66191">
        <ele>515</ele>
        <time>2021-05-29T15:19:27.243Z</time>
      </trkpt>
      <trkpt lat="46.70345" lon="5.6619">
        <ele>515</ele>
        <time>2021-05-29T15:19:28.244Z</time>
      </trkpt>
      <trkpt lat="46.70346" lon="5.66189">
        <ele>515</ele>
        <time>2021-05-29T15:19:29.244Z</time>
      </trkpt>
      <trkpt lat="46.70347" lon="5.66188">
        <ele>514</ele>
        <time>2021-05-29T15:19:30.243Z</time>
      </trkpt>
      <trkpt lat="46.70349" lon="5.66188">
        <ele>514</ele>
        <time>2021-05-29T15:19:31.243Z</time>
      </trkpt>
      <trkpt lat="46.70352" lon="5.66187">
        <ele>514</ele>
        <time>2021-05-29T15:19:32.243Z</time>
      </trkpt>
      <trkpt lat="46.70354" lon="5.66186">
        <ele>514</ele>
        <time>2021-05-29T15:19:33.243Z</time>
      </trkpt>
      <trkpt lat="46.70356" lon="5.66185">
        <ele>513</ele>
        <time>2021-05-29T15:19:34.243Z</time>
      </trkpt>
      <trkpt lat="46.70357" lon="5.66185">
        <ele>513</ele>
        <time>2021-05-29T15:19:35.244Z</time>
      </trkpt>
      <trkpt lat="46.70359" lon="5.66184">
        <ele>513</ele>
        <time>2021-05-29T15:19:36.243Z</time>
      </trkpt>
      <trkpt lat="46.70361" lon="5.66184">
        <ele>512</ele>
        <time>2021-05-29T15:19:37.243Z</time>
      </trkpt>
      <trkpt lat="46.70363" lon="5.66184">
        <ele>512</ele>
        <time>2021-05-29T15:19:38.244Z</time>
      </trkpt>
      <trkpt lat="46.70365" lon="5.66183">
        <ele>512</ele>
        <time>2021-05-29T15:19:39.244Z</time>
      </trkpt>
      <trkpt lat="46.70367" lon="5.66182">
        <ele>511</ele>
        <time>2021-05-29T15:19:40.244Z</time>
      </trkpt>
      <trkpt lat="46.70369" lon="5.66181">
        <ele>512</ele>
        <time>2021-05-29T15:19:41.244Z</time>
      </trkpt>
      <trkpt lat="46.70372" lon="5.6618">
        <ele>512</ele>
        <time>2021-05-29T15:19:42.243Z</time>
      </trkpt>
      <trkpt lat="46.70373" lon="5.6618">
        <ele>512</ele>
        <time>2021-05-29T15:19:43.243Z</time>
      </trkpt>
      <trkpt lat="46.70375" lon="5.66179">
        <ele>511</ele>
        <time>2021-05-29T15:19:44.244Z</time>
      </trkpt>
      <trkpt lat="46.70377" lon="5.66177">
        <ele>511</ele>
        <time>2021-05-29T15:19:45.244Z</time>
      </trkpt>
      <trkpt lat="46.70379" lon="5.66176">
        <ele>511</ele>
        <time>2021-05-29T15:19:46.244Z</time>
      </trkpt>
      <trkpt lat="46.70382" lon="5.66175">
        <ele>511</ele>
        <time>2021-05-29T15:19:47.243Z</time>
      </trkpt>
      <trkpt lat="46.70384" lon="5.66174">
        <ele>511</ele>
        <time>2021-05-29T15:19:48.244Z</time>
      </trkpt>
      <trkpt lat="46.70387" lon="5.66173">
        <ele>511</ele>
        <time>2021-05-29T15:19:49.244Z</time>
      </trkpt>
      <trkpt lat="46.70389" lon="5.66173">
        <ele>511</ele>
        <time>2021-05-29T15:19:50.244Z</time>
      </trkpt>
      <trkpt lat="46.7039" lon="5.66171">
        <ele>511</ele>
        <time>2021-05-29T15:19:51.243Z</time>
      </trkpt>
      <trkpt lat="46.70392" lon="5.66171">
        <ele>511</ele>
        <time>2021-05-29T15:19:52.243Z</time>
      </trkpt>
      <trkpt lat="46.70394" lon="5.6617">
        <ele>510</ele>
        <time>2021-05-29T15:19:53.243Z</time>
      </trkpt>
      <trkpt lat="46.70396" lon="5.6617">
        <ele>510</ele>
        <time>2021-05-29T15:19:54.244Z</time>
      </trkpt>
      <trkpt lat="46.70397" lon="5.66169">
        <ele>510</ele>
        <time>2021-05-29T15:19:55.244Z</time>
      </trkpt>
      <trkpt lat="46.70398" lon="5.66167">
        <ele>510</ele>
        <time>2021-05-29T15:19:56.244Z</time>
      </trkpt>
      <trkpt lat="46.704" lon="5.66166">
        <ele>510</ele>
        <time>2021-05-29T15:19:57.244Z</time>
      </trkpt>
      <trkpt lat="46.70402" lon="5.66165">
        <ele>510</ele>
        <time>2021-05-29T15:19:58.244Z</time>
      </trkpt>
      <trkpt lat="46.70405" lon="5.66164">
        <ele>510</ele>
        <time>2021-05-29T15:19:59.244Z</time>
      </trkpt>
      <trkpt lat="46.70406" lon="5.66164">
        <ele>510</ele>
        <time>2021-05-29T15:20:00.244Z</time>
      </trkpt>
      <trkpt lat="46.70408" lon="5.66164">
        <ele>510</ele>
        <time>2021-05-29T15:20:01.243Z</time>
      </trkpt>
      <trkpt lat="46.70411" lon="5.66164">
        <ele>510</ele>
        <time>2021-05-29T15:20:02.244Z</time>
      </trkpt>
      <trkpt lat="46.70412" lon="5.66164">
        <ele>510</ele>
        <time>2021-05-29T15:20:03.243Z</time>
      </trkpt>
      <trkpt lat="46.70414" lon="5.66164">
        <ele>510</ele>
        <time>2021-05-29T15:20:04.243Z</time>
      </trkpt>
      <trkpt lat="46.70416" lon="5.66163">
        <ele>510</ele>
        <time>2021-05-29T15:20:05.243Z</time>
      </trkpt>
      <trkpt lat="46.70417" lon="5.66162">
        <ele>510</ele>
        <time>2021-05-29T15:20:06.244Z</time>
      </trkpt>
      <trkpt lat="46.70419" lon="5.66162">
        <ele>510</ele>
        <time>2021-05-29T15:20:07.244Z</time>
      </trkpt>
      <trkpt lat="46.70421" lon="5.66162">
        <ele>510</ele>
        <time>2021-05-29T15:20:08.244Z</time>
      </trkpt>
      <trkpt lat="46.70423" lon="5.66161">
        <ele>510</ele>
        <time>2021-05-29T15:20:09.244Z</time>
      </trkpt>
      <trkpt lat="46.70426" lon="5.66161">
        <ele>510</ele>
        <time>2021-05-29T15:20:10.244Z</time>
      </trkpt>
      <trkpt lat="46.7043" lon="5.66159">
        <ele>510</ele>
        <time>2021-05-29T15:20:11.244Z</time>
      </trkpt>
      <trkpt lat="46.70433" lon="5.66158">
        <ele>510</ele>
        <time>2021-05-29T15:20:12.244Z</time>
      </trkpt>
      <trkpt lat="46.70435" lon="5.66157">
        <ele>510</ele>
        <time>2021-05-29T15:20:13.244Z</time>
      </trkpt>
      <trkpt lat="46.70437" lon="5.66155">
        <ele>510</ele>
        <time>2021-05-29T15:20:14.243Z</time>
      </trkpt>
      <trkpt lat="46.70439" lon="5.66155">
        <ele>510</ele>
        <time>2021-05-29T15:20:15.244Z</time>
      </trkpt>
      <trkpt lat="46.70441" lon="5.66154">
        <ele>510</ele>
        <time>2021-05-29T15:20:16.244Z</time>
      </trkpt>
      <trkpt lat="46.70444" lon="5.66153">
        <ele>510</ele>
        <time>2021-05-29T15:20:17.243Z</time>
      </trkpt>
      <trkpt lat="46.70446" lon="5.66152">
        <ele>510</ele>
        <time>2021-05-29T15:20:18.244Z</time>
      </trkpt>
      <trkpt lat="46.70448" lon="5.66152">
        <ele>510</ele>
        <time>2021-05-29T15:20:19.244Z</time>
      </trkpt>
      <trkpt lat="46.7045" lon="5.66151">
        <ele>510</ele>
        <time>2021-05-29T15:20:20.244Z</time>
      </trkpt>
      <trkpt lat="46.70452" lon="5.66151">
        <ele>510</ele>
        <time>2021-05-29T15:20:21.244Z</time>
      </trkpt>
      <trkpt lat="46.70453" lon="5.66152">
        <ele>510</ele>
        <time>2021-05-29T15:20:22.244Z</time>
      </trkpt>
      <trkpt lat="46.70455" lon="5.66152">
        <ele>510</ele>
        <time>2021-05-29T15:20:23.244Z</time>
      </trkpt>
      <trkpt lat="46.70457" lon="5.66151">
        <ele>510</ele>
        <time>2021-05-29T15:20:24.244Z</time>
      </trkpt>
      <trkpt lat="46.7046" lon="5.66151">
        <ele>510</ele>
        <time>2021-05-29T15:20:25.243Z</time>
      </trkpt>
      <trkpt lat="46.70463" lon="5.6615">
        <ele>510</ele>
        <time>2021-05-29T15:20:26.244Z</time>
      </trkpt>
      <trkpt lat="46.70466" lon="5.6615">
        <ele>510</ele>
        <time>2021-05-29T15:20:27.244Z</time>
      </trkpt>
      <trkpt lat="46.70467" lon="5.6615">
        <ele>510</ele>
        <time>2021-05-29T15:20:28.244Z</time>
      </trkpt>
      <trkpt lat="46.70468" lon="5.66149">
        <ele>510</ele>
        <time>2021-05-29T15:20:29.244Z</time>
      </trkpt>
      <trkpt lat="46.70471" lon="5.66148">
        <ele>510</ele>
        <time>2021-05-29T15:20:30.244Z</time>
      </trkpt>
      <trkpt lat="46.70472" lon="5.66146">
        <ele>510</ele>
        <time>2021-05-29T15:20:31.244Z</time>
      </trkpt>
      <trkpt lat="46.70473" lon="5.66143">
        <ele>510</ele>
        <time>2021-05-29T15:20:32.244Z</time>
      </trkpt>
      <trkpt lat="46.70474" lon="5.66141">
        <ele>510</ele>
        <time>2021-05-29T15:20:33.244Z</time>
      </trkpt>
      <trkpt lat="46.70475" lon="5.6614">
        <ele>511</ele>
        <time>2021-05-29T15:20:34.243Z</time>
      </trkpt>
      <trkpt lat="46.70476" lon="5.66138">
        <ele>511</ele>
        <time>2021-05-29T15:20:35.244Z</time>
      </trkpt>
      <trkpt lat="46.70476" lon="5.66136">
        <ele>511</ele>
        <time>2021-05-29T15:20:36.244Z</time>
      </trkpt>
      <trkpt lat="46.70477" lon="5.66134">
        <ele>511</ele>
        <time>2021-05-29T15:20:37.244Z</time>
      </trkpt>
      <trkpt lat="46.70478" lon="5.66132">
        <ele>511</ele>
        <time>2021-05-29T15:20:38.244Z</time>
      </trkpt>
      <trkpt lat="46.70478" lon="5.66131">
        <ele>511</ele>
        <time>2021-05-29T15:20:39.244Z</time>
      </trkpt>
      <trkpt lat="46.70478" lon="5.6613">
        <ele>511</ele>
        <time>2021-05-29T15:20:40.244Z</time>
      </trkpt>
      <trkpt lat="46.70478" lon="5.66128">
        <ele>511</ele>
        <time>2021-05-29T15:20:41.243Z</time>
      </trkpt>
      <trkpt lat="46.70478" lon="5.66126">
        <ele>510</ele>
        <time>2021-05-29T15:20:42.244Z</time>
      </trkpt>
      <trkpt lat="46.70477" lon="5.66124">
        <ele>511</ele>
        <time>2021-05-29T15:20:43.244Z</time>
      </trkpt>
      <trkpt lat="46.70477" lon="5.66121">
        <ele>511</ele>
        <time>2021-05-29T15:20:44.243Z</time>
      </trkpt>
      <trkpt lat="46.70476" lon="5.66118">
        <ele>511</ele>
        <time>2021-05-29T15:20:45.244Z</time>
      </trkpt>
      <trkpt lat="46.70476" lon="5.66116">
        <ele>511</ele>
        <time>2021-05-29T15:20:46.244Z</time>
      </trkpt>
      <trkpt lat="46.70475" lon="5.66114">
        <ele>511</ele>
        <time>2021-05-29T15:20:47.243Z</time>
      </trkpt>
      <trkpt lat="46.70474" lon="5.66112">
        <ele>510</ele>
        <time>2021-05-29T15:20:48.244Z</time>
      </trkpt>
      <trkpt lat="46.70473" lon="5.6611">
        <ele>510</ele>
        <time>2021-05-29T15:20:49.243Z</time>
      </trkpt>
      <trkpt lat="46.70472" lon="5.66108">
        <ele>510</ele>
        <time>2021-05-29T15:20:50.244Z</time>
      </trkpt>
      <trkpt lat="46.70471" lon="5.66106">
        <ele>511</ele>
        <time>2021-05-29T15:20:51.244Z</time>
      </trkpt>
      <trkpt lat="46.7047" lon="5.66104">
        <ele>511</ele>
        <time>2021-05-29T15:20:52.244Z</time>
      </trkpt>
      <trkpt lat="46.70469" lon="5.66102">
        <ele>511</ele>
        <time>2021-05-29T15:20:53.244Z</time>
      </trkpt>
      <trkpt lat="46.70468" lon="5.661">
        <ele>512</ele>
        <time>2021-05-29T15:20:54.243Z</time>
      </trkpt>
      <trkpt lat="46.70467" lon="5.66098">
        <ele>512</ele>
        <time>2021-05-29T15:20:55.243Z</time>
      </trkpt>
      <trkpt lat="46.70466" lon="5.66096">
        <ele>513</ele>
        <time>2021-05-29T15:20:56.243Z</time>
      </trkpt>
      <trkpt lat="46.70464" lon="5.66093">
        <ele>513</ele>
        <time>2021-05-29T15:20:57.243Z</time>
      </trkpt>
      <trkpt lat="46.70462" lon="5.6609">
        <ele>513</ele>
        <time>2021-05-29T15:20:58.243Z</time>
      </trkpt>
      <trkpt lat="46.70461" lon="5.66087">
        <ele>512</ele>
        <time>2021-05-29T15:20:59.243Z</time>
      </trkpt>
      <trkpt lat="46.7046" lon="5.66083">
        <ele>513</ele>
        <time>2021-05-29T15:21:00.244Z</time>
      </trkpt>
      <trkpt lat="46.70459" lon="5.6608">
        <ele>513</ele>
        <time>2021-05-29T15:21:01.244Z</time>
      </trkpt>
      <trkpt lat="46.70458" lon="5.66077">
        <ele>513</ele>
        <time>2021-05-29T15:21:02.243Z</time>
      </trkpt>
      <trkpt lat="46.70458" lon="5.66074">
        <ele>513</ele>
        <time>2021-05-29T15:21:03.244Z</time>
      </trkpt>
      <trkpt lat="46.70457" lon="5.66071">
        <ele>514</ele>
        <time>2021-05-29T15:21:04.244Z</time>
      </trkpt>
      <trkpt lat="46.70457" lon="5.66069">
        <ele>514</ele>
        <time>2021-05-29T15:21:05.244Z</time>
      </trkpt>
      <trkpt lat="46.70456" lon="5.66066">
        <ele>514</ele>
        <time>2021-05-29T15:21:06.244Z</time>
      </trkpt>
      <trkpt lat="46.70456" lon="5.66062">
        <ele>514</ele>
        <time>2021-05-29T15:21:07.244Z</time>
      </trkpt>
      <trkpt lat="46.70454" lon="5.66059">
        <ele>514</ele>
        <time>2021-05-29T15:21:08.243Z</time>
      </trkpt>
      <trkpt lat="46.70454" lon="5.66055">
        <ele>514</ele>
        <time>2021-05-29T15:21:09.243Z</time>
      </trkpt>
      <trkpt lat="46.70453" lon="5.66052">
        <ele>514</ele>
        <time>2021-05-29T15:21:10.244Z</time>
      </trkpt>
      <trkpt lat="46.70453" lon="5.66049">
        <ele>515</ele>
        <time>2021-05-29T15:21:11.244Z</time>
      </trkpt>
      <trkpt lat="46.70452" lon="5.66046">
        <ele>515</ele>
        <time>2021-05-29T15:21:12.244Z</time>
      </trkpt>
      <trkpt lat="46.70451" lon="5.66043">
        <ele>515</ele>
        <time>2021-05-29T15:21:13.244Z</time>
      </trkpt>
      <trkpt lat="46.7045" lon="5.6604">
        <ele>515</ele>
        <time>2021-05-29T15:21:14.243Z</time>
      </trkpt>
      <trkpt lat="46.70449" lon="5.66037">
        <ele>515</ele>
        <time>2021-05-29T15:21:15.244Z</time>
      </trkpt>
      <trkpt lat="46.70448" lon="5.66035">
        <ele>515</ele>
        <time>2021-05-29T15:21:16.244Z</time>
      </trkpt>
      <trkpt lat="46.70447" lon="5.66032">
        <ele>515</ele>
        <time>2021-05-29T15:21:17.244Z</time>
      </trkpt>
      <trkpt lat="46.70446" lon="5.6603">
        <ele>515</ele>
        <time>2021-05-29T15:21:18.244Z</time>
      </trkpt>
      <trkpt lat="46.70445" lon="5.66027">
        <ele>514</ele>
        <time>2021-05-29T15:21:19.243Z</time>
      </trkpt>
      <trkpt lat="46.70444" lon="5.66025">
        <ele>514</ele>
        <time>2021-05-29T15:21:20.243Z</time>
      </trkpt>
      <trkpt lat="46.70443" lon="5.66022">
        <ele>514</ele>
        <time>2021-05-29T15:21:21.244Z</time>
      </trkpt>
      <trkpt lat="46.70442" lon="5.66019">
        <ele>514</ele>
        <time>2021-05-29T15:21:22.244Z</time>
      </trkpt>
      <trkpt lat="46.7044" lon="5.66017">
        <ele>514</ele>
        <time>2021-05-29T15:21:23.244Z</time>
      </trkpt>
      <trkpt lat="46.70438" lon="5.66014">
        <ele>514</ele>
        <time>2021-05-29T15:21:24.243Z</time>
      </trkpt>
      <trkpt lat="46.70437" lon="5.66011">
        <ele>513</ele>
        <time>2021-05-29T15:21:25.243Z</time>
      </trkpt>
      <trkpt lat="46.70436" lon="5.66007">
        <ele>513</ele>
        <time>2021-05-29T15:21:26.244Z</time>
      </trkpt>
      <trkpt lat="46.70435" lon="5.66004">
        <ele>513</ele>
        <time>2021-05-29T15:21:27.243Z</time>
      </trkpt>
      <trkpt lat="46.70434" lon="5.66002">
        <ele>514</ele>
        <time>2021-05-29T15:21:28.243Z</time>
      </trkpt>
      <trkpt lat="46.70433" lon="5.65999">
        <ele>515</ele>
        <time>2021-05-29T15:21:29.244Z</time>
      </trkpt>
      <trkpt lat="46.70432" lon="5.65996">
        <ele>515</ele>
        <time>2021-05-29T15:21:30.244Z</time>
      </trkpt>
      <trkpt lat="46.7043" lon="5.65991">
        <ele>515</ele>
        <time>2021-05-29T15:21:31.244Z</time>
      </trkpt>
      <trkpt lat="46.70428" lon="5.65986">
        <ele>516</ele>
        <time>2021-05-29T15:21:32.244Z</time>
      </trkpt>
      <trkpt lat="46.70427" lon="5.65984">
        <ele>516</ele>
        <time>2021-05-29T15:21:33.244Z</time>
      </trkpt>
      <trkpt lat="46.70426" lon="5.65979">
        <ele>516</ele>
        <time>2021-05-29T15:21:34.244Z</time>
      </trkpt>
      <trkpt lat="46.70424" lon="5.65974">
        <ele>516</ele>
        <time>2021-05-29T15:21:35.243Z</time>
      </trkpt>
      <trkpt lat="46.70423" lon="5.6597">
        <ele>516</ele>
        <time>2021-05-29T15:21:36.244Z</time>
      </trkpt>
      <trkpt lat="46.70423" lon="5.65967">
        <ele>516</ele>
        <time>2021-05-29T15:21:37.244Z</time>
      </trkpt>
      <trkpt lat="46.70422" lon="5.65964">
        <ele>516</ele>
        <time>2021-05-29T15:21:38.244Z</time>
      </trkpt>
      <trkpt lat="46.70422" lon="5.6596">
        <ele>516</ele>
        <time>2021-05-29T15:21:39.244Z</time>
      </trkpt>
      <trkpt lat="46.70421" lon="5.65956">
        <ele>516</ele>
        <time>2021-05-29T15:21:40.244Z</time>
      </trkpt>
      <trkpt lat="46.7042" lon="5.65952">
        <ele>517</ele>
        <time>2021-05-29T15:21:41.244Z</time>
      </trkpt>
      <trkpt lat="46.7042" lon="5.65949">
        <ele>517</ele>
        <time>2021-05-29T15:21:42.243Z</time>
      </trkpt>
      <trkpt lat="46.7042" lon="5.65946">
        <ele>517</ele>
        <time>2021-05-29T15:21:43.244Z</time>
      </trkpt>
      <trkpt lat="46.7042" lon="5.65944">
        <ele>518</ele>
        <time>2021-05-29T15:21:44.244Z</time>
      </trkpt>
      <trkpt lat="46.7042" lon="5.6594">
        <ele>518</ele>
        <time>2021-05-29T15:21:45.244Z</time>
      </trkpt>
      <trkpt lat="46.7042" lon="5.65936">
        <ele>518</ele>
        <time>2021-05-29T15:21:46.244Z</time>
      </trkpt>
      <trkpt lat="46.7042" lon="5.65935">
        <ele>518</ele>
        <time>2021-05-29T15:21:47.244Z</time>
      </trkpt>
      <trkpt lat="46.7042" lon="5.65932">
        <ele>519</ele>
        <time>2021-05-29T15:21:48.243Z</time>
      </trkpt>
      <trkpt lat="46.7042" lon="5.6593">
        <ele>519</ele>
        <time>2021-05-29T15:21:49.244Z</time>
      </trkpt>
      <trkpt lat="46.7042" lon="5.65928">
        <ele>519</ele>
        <time>2021-05-29T15:21:50.244Z</time>
      </trkpt>
      <trkpt lat="46.7042" lon="5.65927">
        <ele>519</ele>
        <time>2021-05-29T15:21:51.243Z</time>
      </trkpt>
      <trkpt lat="46.7042" lon="5.65925">
        <ele>519</ele>
        <time>2021-05-29T15:21:52.243Z</time>
      </trkpt>
      <trkpt lat="46.7042" lon="5.65923">
        <ele>519</ele>
        <time>2021-05-29T15:21:53.244Z</time>
      </trkpt>
      <trkpt lat="46.7042" lon="5.65921">
        <ele>519</ele>
        <time>2021-05-29T15:21:54.244Z</time>
      </trkpt>
      <trkpt lat="46.70421" lon="5.65919">
        <ele>519</ele>
        <time>2021-05-29T15:21:55.244Z</time>
      </trkpt>
      <trkpt lat="46.70421" lon="5.65917">
        <ele>519</ele>
        <time>2021-05-29T15:21:56.243Z</time>
      </trkpt>
      <trkpt lat="46.70422" lon="5.65915">
        <ele>519</ele>
        <time>2021-05-29T15:21:57.244Z</time>
      </trkpt>
      <trkpt lat="46.70423" lon="5.65912">
        <ele>519</ele>
        <time>2021-05-29T15:21:58.244Z</time>
      </trkpt>
      <trkpt lat="46.70424" lon="5.6591">
        <ele>519</ele>
        <time>2021-05-29T15:21:59.244Z</time>
      </trkpt>
      <trkpt lat="46.70423" lon="5.65907">
        <ele>519</ele>
        <time>2021-05-29T15:22:00.244Z</time>
      </trkpt>
      <trkpt lat="46.70424" lon="5.65904">
        <ele>519</ele>
        <time>2021-05-29T15:22:01.244Z</time>
      </trkpt>
      <trkpt lat="46.70424" lon="5.65901">
        <ele>519</ele>
        <time>2021-05-29T15:22:02.244Z</time>
      </trkpt>
      <trkpt lat="46.70424" lon="5.65898">
        <ele>519</ele>
        <time>2021-05-29T15:22:03.243Z</time>
      </trkpt>
      <trkpt lat="46.70424" lon="5.65895">
        <ele>519</ele>
        <time>2021-05-29T15:22:04.244Z</time>
      </trkpt>
      <trkpt lat="46.70425" lon="5.65892">
        <ele>519</ele>
        <time>2021-05-29T15:22:05.244Z</time>
      </trkpt>
      <trkpt lat="46.70426" lon="5.65889">
        <ele>519</ele>
        <time>2021-05-29T15:22:06.244Z</time>
      </trkpt>
      <trkpt lat="46.70426" lon="5.65886">
        <ele>519</ele>
        <time>2021-05-29T15:22:07.244Z</time>
      </trkpt>
      <trkpt lat="46.70427" lon="5.65883">
        <ele>519</ele>
        <time>2021-05-29T15:22:08.244Z</time>
      </trkpt>
      <trkpt lat="46.70428" lon="5.6588">
        <ele>519</ele>
        <time>2021-05-29T15:22:09.243Z</time>
      </trkpt>
      <trkpt lat="46.70428" lon="5.65877">
        <ele>518</ele>
        <time>2021-05-29T15:22:10.244Z</time>
      </trkpt>
      <trkpt lat="46.70429" lon="5.65874">
        <ele>519</ele>
        <time>2021-05-29T15:22:11.244Z</time>
      </trkpt>
      <trkpt lat="46.70429" lon="5.6587">
        <ele>519</ele>
        <time>2021-05-29T15:22:12.244Z</time>
      </trkpt>
      <trkpt lat="46.70429" lon="5.65866">
        <ele>519</ele>
        <time>2021-05-29T15:22:13.244Z</time>
      </trkpt>
      <trkpt lat="46.7043" lon="5.65863">
        <ele>519</ele>
        <time>2021-05-29T15:22:14.244Z</time>
      </trkpt>
      <trkpt lat="46.7043" lon="5.65861">
        <ele>519</ele>
        <time>2021-05-29T15:22:15.243Z</time>
      </trkpt>
      <trkpt lat="46.70431" lon="5.65858">
        <ele>519</ele>
        <time>2021-05-29T15:22:16.243Z</time>
      </trkpt>
      <trkpt lat="46.70432" lon="5.65856">
        <ele>519</ele>
        <time>2021-05-29T15:22:17.244Z</time>
      </trkpt>
      <trkpt lat="46.70432" lon="5.65854">
        <ele>519</ele>
        <time>2021-05-29T15:22:18.243Z</time>
      </trkpt>
      <trkpt lat="46.70433" lon="5.65852">
        <ele>519</ele>
        <time>2021-05-29T15:22:19.244Z</time>
      </trkpt>
      <trkpt lat="46.70434" lon="5.65849">
        <ele>519</ele>
        <time>2021-05-29T15:22:20.244Z</time>
      </trkpt>
      <trkpt lat="46.70435" lon="5.65847">
        <ele>519</ele>
        <time>2021-05-29T15:22:21.244Z</time>
      </trkpt>
      <trkpt lat="46.70436" lon="5.65845">
        <ele>518</ele>
        <time>2021-05-29T15:22:22.244Z</time>
      </trkpt>
      <trkpt lat="46.70437" lon="5.65841">
        <ele>518</ele>
        <time>2021-05-29T15:22:23.244Z</time>
      </trkpt>
      <trkpt lat="46.70437" lon="5.65839">
        <ele>517</ele>
        <time>2021-05-29T15:22:24.244Z</time>
      </trkpt>
      <trkpt lat="46.70437" lon="5.65835">
        <ele>517</ele>
        <time>2021-05-29T15:22:25.244Z</time>
      </trkpt>
      <trkpt lat="46.70438" lon="5.65832">
        <ele>517</ele>
        <time>2021-05-29T15:22:26.243Z</time>
      </trkpt>
      <trkpt lat="46.70439" lon="5.6583">
        <ele>516</ele>
        <time>2021-05-29T15:22:27.243Z</time>
      </trkpt>
      <trkpt lat="46.70441" lon="5.65828">
        <ele>516</ele>
        <time>2021-05-29T15:22:28.244Z</time>
      </trkpt>
      <trkpt lat="46.70442" lon="5.65827">
        <ele>516</ele>
        <time>2021-05-29T15:22:29.244Z</time>
      </trkpt>
      <trkpt lat="46.70445" lon="5.65823">
        <ele>515</ele>
        <time>2021-05-29T15:22:30.244Z</time>
      </trkpt>
      <trkpt lat="46.70447" lon="5.65821">
        <ele>515</ele>
        <time>2021-05-29T15:22:31.244Z</time>
      </trkpt>
      <trkpt lat="46.70449" lon="5.6582">
        <ele>515</ele>
        <time>2021-05-29T15:22:32.243Z</time>
      </trkpt>
      <trkpt lat="46.70451" lon="5.65818">
        <ele>514</ele>
        <time>2021-05-29T15:22:33.244Z</time>
      </trkpt>
      <trkpt lat="46.70453" lon="5.65816">
        <ele>514</ele>
        <time>2021-05-29T15:22:34.244Z</time>
      </trkpt>
      <trkpt lat="46.70455" lon="5.65814">
        <ele>513</ele>
        <time>2021-05-29T15:22:35.244Z</time>
      </trkpt>
      <trkpt lat="46.70456" lon="5.65811">
        <ele>513</ele>
        <time>2021-05-29T15:22:36.243Z</time>
      </trkpt>
      <trkpt lat="46.70458" lon="5.65809">
        <ele>513</ele>
        <time>2021-05-29T15:22:37.244Z</time>
      </trkpt>
      <trkpt lat="46.70459" lon="5.65806">
        <ele>512</ele>
        <time>2021-05-29T15:22:38.243Z</time>
      </trkpt>
      <trkpt lat="46.70461" lon="5.65804">
        <ele>512</ele>
        <time>2021-05-29T15:22:39.244Z</time>
      </trkpt>
      <trkpt lat="46.70463" lon="5.65801">
        <ele>511</ele>
        <time>2021-05-29T15:22:40.244Z</time>
      </trkpt>
      <trkpt lat="46.70465" lon="5.65798">
        <ele>511</ele>
        <time>2021-05-29T15:22:41.244Z</time>
      </trkpt>
      <trkpt lat="46.70468" lon="5.65796">
        <ele>511</ele>
        <time>2021-05-29T15:22:42.244Z</time>
      </trkpt>
      <trkpt lat="46.70471" lon="5.65791">
        <ele>510</ele>
        <time>2021-05-29T15:22:43.244Z</time>
      </trkpt>
      <trkpt lat="46.70473" lon="5.65788">
        <ele>510</ele>
        <time>2021-05-29T15:22:44.243Z</time>
      </trkpt>
      <trkpt lat="46.70474" lon="5.65784">
        <ele>509</ele>
        <time>2021-05-29T15:22:45.244Z</time>
      </trkpt>
      <trkpt lat="46.70476" lon="5.65781">
        <ele>509</ele>
        <time>2021-05-29T15:22:46.244Z</time>
      </trkpt>
      <trkpt lat="46.70477" lon="5.65778">
        <ele>508</ele>
        <time>2021-05-29T15:22:47.244Z</time>
      </trkpt>
      <trkpt lat="46.70479" lon="5.65775">
        <ele>508</ele>
        <time>2021-05-29T15:22:48.244Z</time>
      </trkpt>
      <trkpt lat="46.7048" lon="5.65772">
        <ele>507</ele>
        <time>2021-05-29T15:22:49.243Z</time>
      </trkpt>
      <trkpt lat="46.70481" lon="5.65768">
        <ele>507</ele>
        <time>2021-05-29T15:22:50.243Z</time>
      </trkpt>
      <trkpt lat="46.70482" lon="5.65765">
        <ele>507</ele>
        <time>2021-05-29T15:22:51.243Z</time>
      </trkpt>
      <trkpt lat="46.70484" lon="5.65762">
        <ele>507</ele>
        <time>2021-05-29T15:22:52.244Z</time>
      </trkpt>
      <trkpt lat="46.70485" lon="5.65759">
        <ele>508</ele>
        <time>2021-05-29T15:22:53.244Z</time>
      </trkpt>
      <trkpt lat="46.70487" lon="5.65756">
        <ele>508</ele>
        <time>2021-05-29T15:22:54.244Z</time>
      </trkpt>
      <trkpt lat="46.70488" lon="5.65753">
        <ele>508</ele>
        <time>2021-05-29T15:22:55.244Z</time>
      </trkpt>
      <trkpt lat="46.70489" lon="5.65751">
        <ele>509</ele>
        <time>2021-05-29T15:22:56.244Z</time>
      </trkpt>
      <trkpt lat="46.70491" lon="5.65748">
        <ele>509</ele>
        <time>2021-05-29T15:22:57.244Z</time>
      </trkpt>
      <trkpt lat="46.70493" lon="5.65745">
        <ele>509</ele>
        <time>2021-05-29T15:22:58.243Z</time>
      </trkpt>
      <trkpt lat="46.70496" lon="5.65743">
        <ele>509</ele>
        <time>2021-05-29T15:22:59.244Z</time>
      </trkpt>
      <trkpt lat="46.70498" lon="5.65742">
        <ele>509</ele>
        <time>2021-05-29T15:23:00.244Z</time>
      </trkpt>
      <trkpt lat="46.705" lon="5.65741">
        <ele>509</ele>
        <time>2021-05-29T15:23:01.244Z</time>
      </trkpt>
      <trkpt lat="46.70502" lon="5.65739">
        <ele>509</ele>
        <time>2021-05-29T15:23:02.244Z</time>
      </trkpt>
      <trkpt lat="46.70504" lon="5.65738">
        <ele>509</ele>
        <time>2021-05-29T15:23:03.244Z</time>
      </trkpt>
      <trkpt lat="46.70506" lon="5.65737">
        <ele>509</ele>
        <time>2021-05-29T15:23:04.244Z</time>
      </trkpt>
      <trkpt lat="46.70508" lon="5.65733">
        <ele>509</ele>
        <time>2021-05-29T15:23:05.244Z</time>
      </trkpt>
      <trkpt lat="46.70511" lon="5.65731">
        <ele>508</ele>
        <time>2021-05-29T15:23:06.244Z</time>
      </trkpt>
      <trkpt lat="46.70513" lon="5.65729">
        <ele>508</ele>
        <time>2021-05-29T15:23:07.244Z</time>
      </trkpt>
      <trkpt lat="46.70516" lon="5.65727">
        <ele>508</ele>
        <time>2021-05-29T15:23:08.244Z</time>
      </trkpt>
      <trkpt lat="46.70518" lon="5.65725">
        <ele>508</ele>
        <time>2021-05-29T15:23:09.244Z</time>
      </trkpt>
      <trkpt lat="46.70519" lon="5.65723">
        <ele>507</ele>
        <time>2021-05-29T15:23:10.244Z</time>
      </trkpt>
      <trkpt lat="46.7052" lon="5.6572">
        <ele>507</ele>
        <time>2021-05-29T15:23:11.244Z</time>
      </trkpt>
      <trkpt lat="46.7052" lon="5.65717">
        <ele>507</ele>
        <time>2021-05-29T15:23:12.243Z</time>
      </trkpt>
      <trkpt lat="46.70521" lon="5.65716">
        <ele>506</ele>
        <time>2021-05-29T15:23:13.243Z</time>
      </trkpt>
      <trkpt lat="46.7052" lon="5.65715">
        <ele>506</ele>
        <time>2021-05-29T15:23:14.244Z</time>
      </trkpt>
      <trkpt lat="46.70521" lon="5.65714">
        <ele>505</ele>
        <time>2021-05-29T15:23:15.243Z</time>
      </trkpt>
      <trkpt lat="46.70521" lon="5.65713">
        <ele>505</ele>
        <time>2021-05-29T15:23:16.244Z</time>
      </trkpt>
      <trkpt lat="46.70522" lon="5.65713">
        <ele>504</ele>
        <time>2021-05-29T15:23:17.243Z</time>
      </trkpt>
      <trkpt lat="46.70522" lon="5.65712">
        <ele>504</ele>
        <time>2021-05-29T15:23:18.244Z</time>
      </trkpt>
      <trkpt lat="46.70522" lon="5.65713">
        <ele>503</ele>
        <time>2021-05-29T15:23:19.243Z</time>
      </trkpt>
      <trkpt lat="46.70521" lon="5.65712">
        <ele>503</ele>
        <time>2021-05-29T15:23:20.243Z</time>
      </trkpt>
      <trkpt lat="46.70521" lon="5.65712">
        <ele>502</ele>
        <time>2021-05-29T15:23:21.243Z</time>
      </trkpt>
      <trkpt lat="46.70521" lon="5.65712">
        <ele>502</ele>
        <time>2021-05-29T15:23:22.243Z</time>
      </trkpt>
      <trkpt lat="46.70522" lon="5.65711">
        <ele>502</ele>
        <time>2021-05-29T15:23:23.244Z</time>
      </trkpt>
      <trkpt lat="46.70522" lon="5.65711">
        <ele>501</ele>
        <time>2021-05-29T15:23:24.244Z</time>
      </trkpt>
      <trkpt lat="46.70523" lon="5.6571">
        <ele>501</ele>
        <time>2021-05-29T15:23:25.244Z</time>
      </trkpt>
      <trkpt lat="46.70523" lon="5.6571">
        <ele>500</ele>
        <time>2021-05-29T15:23:26.244Z</time>
      </trkpt>
      <trkpt lat="46.70524" lon="5.6571">
        <ele>500</ele>
        <time>2021-05-29T15:23:27.243Z</time>
      </trkpt>
      <trkpt lat="46.70524" lon="5.6571">
        <ele>499</ele>
        <time>2021-05-29T15:23:28.243Z</time>
      </trkpt>
      <trkpt lat="46.70524" lon="5.6571">
        <ele>499</ele>
        <time>2021-05-29T15:23:29.244Z</time>
      </trkpt>
      <trkpt lat="46.70524" lon="5.6571">
        <ele>499</ele>
        <time>2021-05-29T15:23:30.244Z</time>
      </trkpt>
      <trkpt lat="46.70524" lon="5.6571">
        <ele>498</ele>
        <time>2021-05-29T15:23:31.244Z</time>
      </trkpt>
      <trkpt lat="46.70524" lon="5.6571">
        <ele>498</ele>
        <time>2021-05-29T15:23:32.243Z</time>
      </trkpt>
      <trkpt lat="46.70524" lon="5.6571">
        <ele>498</ele>
        <time>2021-05-29T15:23:33.243Z</time>
      </trkpt>
      <trkpt lat="46.70524" lon="5.6571">
        <ele>498</ele>
        <time>2021-05-29T15:23:34.243Z</time>
      </trkpt>
      <trkpt lat="46.70524" lon="5.6571">
        <ele>498</ele>
        <time>2021-05-29T15:23:35.243Z</time>
      </trkpt>
      <trkpt lat="46.70524" lon="5.6571">
        <ele>499</ele>
        <time>2021-05-29T15:23:36.244Z</time>
      </trkpt>
      <trkpt lat="46.70524" lon="5.6571">
        <ele>499</ele>
        <time>2021-05-29T15:23:37.244Z</time>
      </trkpt>
      <trkpt lat="46.70524" lon="5.6571">
        <ele>499</ele>
        <time>2021-05-29T15:23:38.243Z</time>
      </trkpt>
      <trkpt lat="46.70524" lon="5.6571">
        <ele>499</ele>
        <time>2021-05-29T15:23:39.243Z</time>
      </trkpt>
      <trkpt lat="46.70524" lon="5.6571">
        <ele>499</ele>
        <time>2021-05-29T15:23:40.244Z</time>
      </trkpt>
      <trkpt lat="46.70524" lon="5.6571">
        <ele>499</ele>
        <time>2021-05-29T15:23:41.244Z</time>
      </trkpt>
      <trkpt lat="46.70524" lon="5.6571">
        <ele>499</ele>
        <time>2021-05-29T15:23:42.243Z</time>
      </trkpt>
      <trkpt lat="46.70524" lon="5.6571">
        <ele>499</ele>
        <time>2021-05-29T15:23:43.244Z</time>
      </trkpt>
      <trkpt lat="46.70524" lon="5.6571">
        <ele>499</ele>
        <time>2021-05-29T15:23:44.244Z</time>
      </trkpt>
      <trkpt lat="46.70524" lon="5.6571">
        <ele>500</ele>
        <time>2021-05-29T15:23:45.244Z</time>
      </trkpt>
      <trkpt lat="46.70524" lon="5.6571">
        <ele>500</ele>
        <time>2021-05-29T15:23:46.243Z</time>
      </trkpt>
      <trkpt lat="46.70524" lon="5.6571">
        <ele>500</ele>
        <time>2021-05-29T15:23:47.243Z</time>
      </trkpt>
      <trkpt lat="46.70524" lon="5.6571">
        <ele>500</ele>
        <time>2021-05-29T15:23:48.244Z</time>
      </trkpt>
      <trkpt lat="46.70524" lon="5.6571">
        <ele>500</ele>
        <time>2021-05-29T15:23:49.243Z</time>
      </trkpt>
      <trkpt lat="46.70524" lon="5.6571">
        <ele>500</ele>
        <time>2021-05-29T15:23:50.244Z</time>
      </trkpt>
      <trkpt lat="46.70524" lon="5.6571">
        <ele>500</ele>
        <time>2021-05-29T15:23:51.244Z</time>
      </trkpt>
      <trkpt lat="46.70524" lon="5.6571">
        <ele>500</ele>
        <time>2021-05-29T15:23:52.243Z</time>
      </trkpt>
      <trkpt lat="46.70524" lon="5.6571">
        <ele>500</ele>
        <time>2021-05-29T15:23:53.244Z</time>
      </trkpt>
      <trkpt lat="46.70524" lon="5.6571">
        <ele>501</ele>
        <time>2021-05-29T15:23:54.244Z</time>
      </trkpt>
      <trkpt lat="46.70524" lon="5.6571">
        <ele>501</ele>
        <time>2021-05-29T15:23:55.243Z</time>
      </trkpt>
      <trkpt lat="46.70524" lon="5.6571">
        <ele>501</ele>
        <time>2021-05-29T15:23:56.244Z</time>
      </trkpt>
      <trkpt lat="46.70524" lon="5.6571">
        <ele>501</ele>
        <time>2021-05-29T15:23:57.243Z</time>
      </trkpt>
      <trkpt lat="46.70524" lon="5.6571">
        <ele>501</ele>
        <time>2021-05-29T15:23:58.244Z</time>
      </trkpt>
      <trkpt lat="46.70524" lon="5.65709">
        <ele>501</ele>
        <time>2021-05-29T15:23:59.244Z</time>
      </trkpt>
      <trkpt lat="46.70524" lon="5.65709">
        <ele>501</ele>
        <time>2021-05-29T15:24:00.244Z</time>
      </trkpt>
      <trkpt lat="46.70524" lon="5.65709">
        <ele>501</ele>
        <time>2021-05-29T15:24:01.243Z</time>
      </trkpt>
      <trkpt lat="46.70524" lon="5.65709">
        <ele>501</ele>
        <time>2021-05-29T15:24:02.244Z</time>
      </trkpt>
      <trkpt lat="46.70524" lon="5.65709">
        <ele>501</ele>
        <time>2021-05-29T15:24:03.243Z</time>
      </trkpt>
      <trkpt lat="46.70523" lon="5.65709">
        <ele>501</ele>
        <time>2021-05-29T15:24:04.244Z</time>
      </trkpt>
      <trkpt lat="46.70523" lon="5.65709">
        <ele>501</ele>
        <time>2021-05-29T15:24:05.244Z</time>
      </trkpt>
      <trkpt lat="46.70523" lon="5.65708">
        <ele>501</ele>
        <time>2021-05-29T15:24:06.243Z</time>
      </trkpt>
      <trkpt lat="46.70521" lon="5.65706">
        <ele>501</ele>
        <time>2021-05-29T15:24:07.244Z</time>
      </trkpt>
      <trkpt lat="46.7052" lon="5.65704">
        <ele>501</ele>
        <time>2021-05-29T15:24:08.244Z</time>
      </trkpt>
      <trkpt lat="46.70518" lon="5.65702">
        <ele>501</ele>
        <time>2021-05-29T15:24:09.244Z</time>
      </trkpt>
      <trkpt lat="46.70516" lon="5.65701">
        <ele>502</ele>
        <time>2021-05-29T15:24:10.243Z</time>
      </trkpt>
      <trkpt lat="46.70514" lon="5.65699">
        <ele>503</ele>
        <time>2021-05-29T15:24:11.244Z</time>
      </trkpt>
      <trkpt lat="46.70513" lon="5.65696">
        <ele>503</ele>
        <time>2021-05-29T15:24:12.244Z</time>
      </trkpt>
      <trkpt lat="46.70511" lon="5.65694">
        <ele>503</ele>
        <time>2021-05-29T15:24:13.244Z</time>
      </trkpt>
      <trkpt lat="46.7051" lon="5.65692">
        <ele>503</ele>
        <time>2021-05-29T15:24:14.244Z</time>
      </trkpt>
      <trkpt lat="46.70508" lon="5.6569">
        <ele>503</ele>
        <time>2021-05-29T15:24:15.244Z</time>
      </trkpt>
      <trkpt lat="46.70507" lon="5.65689">
        <ele>504</ele>
        <time>2021-05-29T15:24:16.244Z</time>
      </trkpt>
      <trkpt lat="46.70506" lon="5.65687">
        <ele>505</ele>
        <time>2021-05-29T15:24:17.244Z</time>
      </trkpt>
      <trkpt lat="46.70505" lon="5.65686">
        <ele>505</ele>
        <time>2021-05-29T15:24:18.244Z</time>
      </trkpt>
      <trkpt lat="46.70504" lon="5.65684">
        <ele>506</ele>
        <time>2021-05-29T15:24:19.243Z</time>
      </trkpt>
      <trkpt lat="46.70504" lon="5.65682">
        <ele>507</ele>
        <time>2021-05-29T15:24:20.244Z</time>
      </trkpt>
      <trkpt lat="46.70503" lon="5.6568">
        <ele>507</ele>
        <time>2021-05-29T15:24:21.244Z</time>
      </trkpt>
      <trkpt lat="46.70503" lon="5.65677">
        <ele>508</ele>
        <time>2021-05-29T15:24:22.244Z</time>
      </trkpt>
      <trkpt lat="46.70502" lon="5.65674">
        <ele>508</ele>
        <time>2021-05-29T15:24:23.243Z</time>
      </trkpt>
      <trkpt lat="46.70501" lon="5.65672">
        <ele>509</ele>
        <time>2021-05-29T15:24:24.244Z</time>
      </trkpt>
      <trkpt lat="46.70499" lon="5.65668">
        <ele>509</ele>
        <time>2021-05-29T15:24:25.243Z</time>
      </trkpt>
      <trkpt lat="46.70498" lon="5.65665">
        <ele>510</ele>
        <time>2021-05-29T15:24:26.244Z</time>
      </trkpt>
      <trkpt lat="46.70498" lon="5.65661">
        <ele>510</ele>
        <time>2021-05-29T15:24:27.243Z</time>
      </trkpt>
      <trkpt lat="46.70497" lon="5.65659">
        <ele>511</ele>
        <time>2021-05-29T15:24:28.244Z</time>
      </trkpt>
      <trkpt lat="46.70496" lon="5.65656">
        <ele>511</ele>
        <time>2021-05-29T15:24:29.244Z</time>
      </trkpt>
      <trkpt lat="46.70496" lon="5.65653">
        <ele>512</ele>
        <time>2021-05-29T15:24:30.243Z</time>
      </trkpt>
      <trkpt lat="46.70496" lon="5.65649">
        <ele>512</ele>
        <time>2021-05-29T15:24:31.244Z</time>
      </trkpt>
      <trkpt lat="46.70494" lon="5.65645">
        <ele>513</ele>
        <time>2021-05-29T15:24:32.244Z</time>
      </trkpt>
      <trkpt lat="46.70494" lon="5.65643">
        <ele>513</ele>
        <time>2021-05-29T15:24:33.244Z</time>
      </trkpt>
      <trkpt lat="46.70494" lon="5.6564">
        <ele>513</ele>
        <time>2021-05-29T15:24:34.244Z</time>
      </trkpt>
      <trkpt lat="46.70494" lon="5.65637">
        <ele>513</ele>
        <time>2021-05-29T15:24:35.243Z</time>
      </trkpt>
      <trkpt lat="46.70494" lon="5.65634">
        <ele>513</ele>
        <time>2021-05-29T15:24:36.244Z</time>
      </trkpt>
      <trkpt lat="46.70493" lon="5.6563">
        <ele>514</ele>
        <time>2021-05-29T15:24:37.244Z</time>
      </trkpt>
      <trkpt lat="46.70493" lon="5.65628">
        <ele>514</ele>
        <time>2021-05-29T15:24:38.244Z</time>
      </trkpt>
      <trkpt lat="46.70493" lon="5.65625">
        <ele>515</ele>
        <time>2021-05-29T15:24:39.244Z</time>
      </trkpt>
      <trkpt lat="46.70493" lon="5.65622">
        <ele>515</ele>
        <time>2021-05-29T15:24:40.243Z</time>
      </trkpt>
      <trkpt lat="46.70493" lon="5.65619">
        <ele>515</ele>
        <time>2021-05-29T15:24:41.244Z</time>
      </trkpt>
      <trkpt lat="46.70492" lon="5.65617">
        <ele>515</ele>
        <time>2021-05-29T15:24:42.243Z</time>
      </trkpt>
      <trkpt lat="46.70492" lon="5.65614">
        <ele>515</ele>
        <time>2021-05-29T15:24:43.243Z</time>
      </trkpt>
      <trkpt lat="46.70492" lon="5.65612">
        <ele>516</ele>
        <time>2021-05-29T15:24:44.243Z</time>
      </trkpt>
      <trkpt lat="46.70492" lon="5.65609">
        <ele>516</ele>
        <time>2021-05-29T15:24:45.243Z</time>
      </trkpt>
      <trkpt lat="46.70492" lon="5.65606">
        <ele>515</ele>
        <time>2021-05-29T15:24:46.243Z</time>
      </trkpt>
      <trkpt lat="46.70491" lon="5.65604">
        <ele>514</ele>
        <time>2021-05-29T15:24:47.243Z</time>
      </trkpt>
      <trkpt lat="46.70491" lon="5.65601">
        <ele>514</ele>
        <time>2021-05-29T15:24:48.243Z</time>
      </trkpt>
      <trkpt lat="46.7049" lon="5.65598">
        <ele>513</ele>
        <time>2021-05-29T15:24:49.243Z</time>
      </trkpt>
      <trkpt lat="46.70489" lon="5.65595">
        <ele>512</ele>
        <time>2021-05-29T15:24:50.243Z</time>
      </trkpt>
      <trkpt lat="46.70488" lon="5.65593">
        <ele>511</ele>
        <time>2021-05-29T15:24:51.244Z</time>
      </trkpt>
      <trkpt lat="46.70487" lon="5.6559">
        <ele>510</ele>
        <time>2021-05-29T15:24:52.244Z</time>
      </trkpt>
      <trkpt lat="46.70485" lon="5.65588">
        <ele>509</ele>
        <time>2021-05-29T15:24:53.243Z</time>
      </trkpt>
      <trkpt lat="46.70484" lon="5.65585">
        <ele>509</ele>
        <time>2021-05-29T15:24:54.244Z</time>
      </trkpt>
      <trkpt lat="46.70483" lon="5.65582">
        <ele>509</ele>
        <time>2021-05-29T15:24:55.244Z</time>
      </trkpt>
      <trkpt lat="46.70481" lon="5.65579">
        <ele>509</ele>
        <time>2021-05-29T15:24:56.244Z</time>
      </trkpt>
      <trkpt lat="46.7048" lon="5.65577">
        <ele>509</ele>
        <time>2021-05-29T15:24:57.244Z</time>
      </trkpt>
      <trkpt lat="46.70479" lon="5.65575">
        <ele>509</ele>
        <time>2021-05-29T15:24:58.243Z</time>
      </trkpt>
      <trkpt lat="46.70478" lon="5.65574">
        <ele>509</ele>
        <time>2021-05-29T15:24:59.243Z</time>
      </trkpt>
      <trkpt lat="46.70476" lon="5.65574">
        <ele>510</ele>
        <time>2021-05-29T15:25:00.244Z</time>
      </trkpt>
      <trkpt lat="46.70475" lon="5.65573">
        <ele>510</ele>
        <time>2021-05-29T15:25:01.244Z</time>
      </trkpt>
      <trkpt lat="46.70471" lon="5.6557">
        <ele>511</ele>
        <time>2021-05-29T15:25:02.243Z</time>
      </trkpt>
      <trkpt lat="46.7047" lon="5.65567">
        <ele>511</ele>
        <time>2021-05-29T15:25:03.243Z</time>
      </trkpt>
      <trkpt lat="46.70468" lon="5.65564">
        <ele>512</ele>
        <time>2021-05-29T15:25:04.244Z</time>
      </trkpt>
      <trkpt lat="46.70466" lon="5.65562">
        <ele>512</ele>
        <time>2021-05-29T15:25:05.244Z</time>
      </trkpt>
      <trkpt lat="46.70465" lon="5.6556">
        <ele>512</ele>
        <time>2021-05-29T15:25:06.244Z</time>
      </trkpt>
      <trkpt lat="46.70463" lon="5.65558">
        <ele>513</ele>
        <time>2021-05-29T15:25:07.243Z</time>
      </trkpt>
      <trkpt lat="46.70462" lon="5.65555">
        <ele>513</ele>
        <time>2021-05-29T15:25:08.244Z</time>
      </trkpt>
      <trkpt lat="46.70461" lon="5.65552">
        <ele>513</ele>
        <time>2021-05-29T15:25:09.243Z</time>
      </trkpt>
      <trkpt lat="46.70459" lon="5.65549">
        <ele>514</ele>
        <time>2021-05-29T15:25:10.244Z</time>
      </trkpt>
      <trkpt lat="46.70458" lon="5.65545">
        <ele>514</ele>
        <time>2021-05-29T15:25:11.244Z</time>
      </trkpt>
      <trkpt lat="46.70457" lon="5.65543">
        <ele>514</ele>
        <time>2021-05-29T15:25:12.244Z</time>
      </trkpt>
      <trkpt lat="46.70456" lon="5.6554">
        <ele>514</ele>
        <time>2021-05-29T15:25:13.244Z</time>
      </trkpt>
      <trkpt lat="46.70454" lon="5.65536">
        <ele>514</ele>
        <time>2021-05-29T15:25:14.244Z</time>
      </trkpt>
      <trkpt lat="46.70453" lon="5.65532">
        <ele>514</ele>
        <time>2021-05-29T15:25:15.244Z</time>
      </trkpt>
      <trkpt lat="46.70451" lon="5.65528">
        <ele>514</ele>
        <time>2021-05-29T15:25:16.244Z</time>
      </trkpt>
      <trkpt lat="46.70451" lon="5.65525">
        <ele>514</ele>
        <time>2021-05-29T15:25:17.243Z</time>
      </trkpt>
      <trkpt lat="46.7045" lon="5.65522">
        <ele>515</ele>
        <time>2021-05-29T15:25:18.244Z</time>
      </trkpt>
      <trkpt lat="46.7045" lon="5.65519">
        <ele>515</ele>
        <time>2021-05-29T15:25:19.244Z</time>
      </trkpt>
      <trkpt lat="46.70449" lon="5.65516">
        <ele>515</ele>
        <time>2021-05-29T15:25:20.244Z</time>
      </trkpt>
      <trkpt lat="46.70449" lon="5.65514">
        <ele>515</ele>
        <time>2021-05-29T15:25:21.243Z</time>
      </trkpt>
      <trkpt lat="46.70449" lon="5.65511">
        <ele>514</ele>
        <time>2021-05-29T15:25:22.243Z</time>
      </trkpt>
      <trkpt lat="46.70449" lon="5.65509">
        <ele>514</ele>
        <time>2021-05-29T15:25:23.243Z</time>
      </trkpt>
      <trkpt lat="46.70449" lon="5.65507">
        <ele>514</ele>
        <time>2021-05-29T15:25:24.244Z</time>
      </trkpt>
      <trkpt lat="46.70449" lon="5.65504">
        <ele>515</ele>
        <time>2021-05-29T15:25:25.243Z</time>
      </trkpt>
      <trkpt lat="46.70448" lon="5.65501">
        <ele>515</ele>
        <time>2021-05-29T15:25:26.244Z</time>
      </trkpt>
      <trkpt lat="46.70448" lon="5.65498">
        <ele>516</ele>
        <time>2021-05-29T15:25:27.244Z</time>
      </trkpt>
      <trkpt lat="46.70446" lon="5.65493">
        <ele>516</ele>
        <time>2021-05-29T15:25:28.243Z</time>
      </trkpt>
      <trkpt lat="46.70444" lon="5.65488">
        <ele>517</ele>
        <time>2021-05-29T15:25:29.244Z</time>
      </trkpt>
      <trkpt lat="46.70444" lon="5.65484">
        <ele>517</ele>
        <time>2021-05-29T15:25:30.243Z</time>
      </trkpt>
      <trkpt lat="46.70444" lon="5.6548">
        <ele>517</ele>
        <time>2021-05-29T15:25:31.244Z</time>
      </trkpt>
      <trkpt lat="46.70443" lon="5.65476">
        <ele>517</ele>
        <time>2021-05-29T15:25:32.244Z</time>
      </trkpt>
      <trkpt lat="46.70443" lon="5.65472">
        <ele>518</ele>
        <time>2021-05-29T15:25:33.244Z</time>
      </trkpt>
      <trkpt lat="46.70443" lon="5.65468">
        <ele>517</ele>
        <time>2021-05-29T15:25:34.244Z</time>
      </trkpt>
      <trkpt lat="46.70443" lon="5.65464">
        <ele>517</ele>
        <time>2021-05-29T15:25:35.244Z</time>
      </trkpt>
      <trkpt lat="46.70442" lon="5.6546">
        <ele>517</ele>
        <time>2021-05-29T15:25:36.243Z</time>
      </trkpt>
      <trkpt lat="46.70442" lon="5.65456">
        <ele>516</ele>
        <time>2021-05-29T15:25:37.244Z</time>
      </trkpt>
      <trkpt lat="46.70442" lon="5.65453">
        <ele>516</ele>
        <time>2021-05-29T15:25:38.244Z</time>
      </trkpt>
      <trkpt lat="46.70442" lon="5.6545">
        <ele>516</ele>
        <time>2021-05-29T15:25:39.244Z</time>
      </trkpt>
      <trkpt lat="46.70441" lon="5.65447">
        <ele>515</ele>
        <time>2021-05-29T15:25:40.244Z</time>
      </trkpt>
      <trkpt lat="46.7044" lon="5.65443">
        <ele>515</ele>
        <time>2021-05-29T15:25:41.244Z</time>
      </trkpt>
      <trkpt lat="46.7044" lon="5.65439">
        <ele>515</ele>
        <time>2021-05-29T15:25:42.243Z</time>
      </trkpt>
      <trkpt lat="46.7044" lon="5.65434">
        <ele>515</ele>
        <time>2021-05-29T15:25:43.244Z</time>
      </trkpt>
      <trkpt lat="46.70439" lon="5.6543">
        <ele>515</ele>
        <time>2021-05-29T15:25:44.243Z</time>
      </trkpt>
      <trkpt lat="46.70439" lon="5.65425">
        <ele>515</ele>
        <time>2021-05-29T15:25:45.244Z</time>
      </trkpt>
      <trkpt lat="46.70439" lon="5.65421">
        <ele>515</ele>
        <time>2021-05-29T15:25:46.244Z</time>
      </trkpt>
      <trkpt lat="46.7044" lon="5.65418">
        <ele>515</ele>
        <time>2021-05-29T15:25:47.243Z</time>
      </trkpt>
      <trkpt lat="46.7044" lon="5.65415">
        <ele>515</ele>
        <time>2021-05-29T15:25:48.243Z</time>
      </trkpt>
      <trkpt lat="46.70441" lon="5.65412">
        <ele>515</ele>
        <time>2021-05-29T15:25:49.244Z</time>
      </trkpt>
      <trkpt lat="46.70442" lon="5.65409">
        <ele>515</ele>
        <time>2021-05-29T15:25:50.244Z</time>
      </trkpt>
      <trkpt lat="46.70443" lon="5.65407">
        <ele>515</ele>
        <time>2021-05-29T15:25:51.244Z</time>
      </trkpt>
      <trkpt lat="46.70444" lon="5.65404">
        <ele>515</ele>
        <time>2021-05-29T15:25:52.243Z</time>
      </trkpt>
      <trkpt lat="46.70444" lon="5.65402">
        <ele>514</ele>
        <time>2021-05-29T15:25:53.244Z</time>
      </trkpt>
      <trkpt lat="46.70445" lon="5.65399">
        <ele>514</ele>
        <time>2021-05-29T15:25:54.243Z</time>
      </trkpt>
      <trkpt lat="46.70445" lon="5.65397">
        <ele>513</ele>
        <time>2021-05-29T15:25:55.244Z</time>
      </trkpt>
      <trkpt lat="46.70446" lon="5.65393">
        <ele>513</ele>
        <time>2021-05-29T15:25:56.244Z</time>
      </trkpt>
      <trkpt lat="46.70447" lon="5.6539">
        <ele>513</ele>
        <time>2021-05-29T15:25:57.244Z</time>
      </trkpt>
      <trkpt lat="46.70448" lon="5.65387">
        <ele>513</ele>
        <time>2021-05-29T15:25:58.243Z</time>
      </trkpt>
      <trkpt lat="46.70449" lon="5.65383">
        <ele>512</ele>
        <time>2021-05-29T15:25:59.244Z</time>
      </trkpt>
      <trkpt lat="46.7045" lon="5.65379">
        <ele>512</ele>
        <time>2021-05-29T15:26:00.243Z</time>
      </trkpt>
      <trkpt lat="46.7045" lon="5.65376">
        <ele>512</ele>
        <time>2021-05-29T15:26:01.244Z</time>
      </trkpt>
      <trkpt lat="46.70451" lon="5.65372">
        <ele>512</ele>
        <time>2021-05-29T15:26:02.243Z</time>
      </trkpt>
      <trkpt lat="46.70452" lon="5.65369">
        <ele>512</ele>
        <time>2021-05-29T15:26:03.243Z</time>
      </trkpt>
      <trkpt lat="46.70453" lon="5.65366">
        <ele>511</ele>
        <time>2021-05-29T15:26:04.244Z</time>
      </trkpt>
      <trkpt lat="46.70453" lon="5.65363">
        <ele>511</ele>
        <time>2021-05-29T15:26:05.244Z</time>
      </trkpt>
      <trkpt lat="46.70454" lon="5.65361">
        <ele>511</ele>
        <time>2021-05-29T15:26:06.244Z</time>
      </trkpt>
      <trkpt lat="46.70455" lon="5.65358">
        <ele>511</ele>
        <time>2021-05-29T15:26:07.244Z</time>
      </trkpt>
      <trkpt lat="46.70455" lon="5.65355">
        <ele>511</ele>
        <time>2021-05-29T15:26:08.243Z</time>
      </trkpt>
      <trkpt lat="46.70455" lon="5.65351">
        <ele>511</ele>
        <time>2021-05-29T15:26:09.243Z</time>
      </trkpt>
      <trkpt lat="46.70455" lon="5.65347">
        <ele>511</ele>
        <time>2021-05-29T15:26:10.244Z</time>
      </trkpt>
      <trkpt lat="46.70455" lon="5.65342">
        <ele>511</ele>
        <time>2021-05-29T15:26:11.244Z</time>
      </trkpt>
      <trkpt lat="46.70455" lon="5.65339">
        <ele>510</ele>
        <time>2021-05-29T15:26:12.244Z</time>
      </trkpt>
      <trkpt lat="46.70454" lon="5.65336">
        <ele>510</ele>
        <time>2021-05-29T15:26:13.244Z</time>
      </trkpt>
      <trkpt lat="46.70454" lon="5.65333">
        <ele>510</ele>
        <time>2021-05-29T15:26:14.244Z</time>
      </trkpt>
      <trkpt lat="46.70454" lon="5.6533">
        <ele>510</ele>
        <time>2021-05-29T15:26:15.244Z</time>
      </trkpt>
      <trkpt lat="46.70453" lon="5.65327">
        <ele>510</ele>
        <time>2021-05-29T15:26:16.244Z</time>
      </trkpt>
      <trkpt lat="46.70452" lon="5.65324">
        <ele>510</ele>
        <time>2021-05-29T15:26:17.244Z</time>
      </trkpt>
      <trkpt lat="46.70451" lon="5.65322">
        <ele>510</ele>
        <time>2021-05-29T15:26:18.244Z</time>
      </trkpt>
      <trkpt lat="46.7045" lon="5.65321">
        <ele>510</ele>
        <time>2021-05-29T15:26:19.244Z</time>
      </trkpt>
      <trkpt lat="46.70449" lon="5.65319">
        <ele>510</ele>
        <time>2021-05-29T15:26:20.244Z</time>
      </trkpt>
      <trkpt lat="46.70448" lon="5.65317">
        <ele>510</ele>
        <time>2021-05-29T15:26:21.244Z</time>
      </trkpt>
      <trkpt lat="46.70445" lon="5.65315">
        <ele>510</ele>
        <time>2021-05-29T15:26:22.244Z</time>
      </trkpt>
      <trkpt lat="46.70444" lon="5.65313">
        <ele>510</ele>
        <time>2021-05-29T15:26:23.243Z</time>
      </trkpt>
      <trkpt lat="46.70442" lon="5.65311">
        <ele>510</ele>
        <time>2021-05-29T15:26:24.243Z</time>
      </trkpt>
      <trkpt lat="46.7044" lon="5.65308">
        <ele>509</ele>
        <time>2021-05-29T15:26:25.244Z</time>
      </trkpt>
      <trkpt lat="46.70439" lon="5.65306">
        <ele>509</ele>
        <time>2021-05-29T15:26:26.244Z</time>
      </trkpt>
      <trkpt lat="46.70437" lon="5.65303">
        <ele>508</ele>
        <time>2021-05-29T15:26:27.244Z</time>
      </trkpt>
      <trkpt lat="46.70435" lon="5.65299">
        <ele>508</ele>
        <time>2021-05-29T15:26:28.244Z</time>
      </trkpt>
      <trkpt lat="46.70434" lon="5.65296">
        <ele>508</ele>
        <time>2021-05-29T15:26:29.244Z</time>
      </trkpt>
      <trkpt lat="46.70433" lon="5.65292">
        <ele>507</ele>
        <time>2021-05-29T15:26:30.243Z</time>
      </trkpt>
      <trkpt lat="46.70432" lon="5.65288">
        <ele>506</ele>
        <time>2021-05-29T15:26:31.244Z</time>
      </trkpt>
      <trkpt lat="46.70432" lon="5.65285">
        <ele>506</ele>
        <time>2021-05-29T15:26:32.244Z</time>
      </trkpt>
      <trkpt lat="46.70431" lon="5.65282">
        <ele>505</ele>
        <time>2021-05-29T15:26:33.243Z</time>
      </trkpt>
      <trkpt lat="46.70431" lon="5.65279">
        <ele>505</ele>
        <time>2021-05-29T15:26:34.244Z</time>
      </trkpt>
      <trkpt lat="46.70429" lon="5.65255">
        <ele>502</ele>
        <time>2021-05-29T15:26:35.245Z</time>
      </trkpt>
      <trkpt lat="46.70429" lon="5.65255">
        <ele>502</ele>
        <time>2021-05-29T15:26:36.244Z</time>
      </trkpt>
      <trkpt lat="46.70429" lon="5.65255">
        <ele>502</ele>
        <time>2021-05-29T15:26:37.244Z</time>
      </trkpt>
      <trkpt lat="46.70429" lon="5.65255">
        <ele>502</ele>
        <time>2021-05-29T15:26:38.244Z</time>
      </trkpt>
      <trkpt lat="46.70429" lon="5.65255">
        <ele>502</ele>
        <time>2021-05-29T15:26:39.244Z</time>
      </trkpt>
      <trkpt lat="46.70429" lon="5.65255">
        <ele>502</ele>
        <time>2021-05-29T15:26:40.244Z</time>
      </trkpt>
      <trkpt lat="46.70429" lon="5.65255">
        <ele>503</ele>
        <time>2021-05-29T15:26:41.245Z</time>
      </trkpt>
      <trkpt lat="46.70429" lon="5.65255">
        <ele>503</ele>
        <time>2021-05-29T15:26:42.245Z</time>
      </trkpt>
      <trkpt lat="46.70429" lon="5.65258">
        <ele>503</ele>
        <time>2021-05-29T15:26:43.245Z</time>
      </trkpt>
      <trkpt lat="46.7043" lon="5.65259">
        <ele>503</ele>
        <time>2021-05-29T15:26:44.245Z</time>
      </trkpt>
      <trkpt lat="46.7043" lon="5.65262">
        <ele>503</ele>
        <time>2021-05-29T15:26:45.244Z</time>
      </trkpt>
      <trkpt lat="46.70431" lon="5.65265">
        <ele>503</ele>
        <time>2021-05-29T15:26:46.244Z</time>
      </trkpt>
      <trkpt lat="46.70431" lon="5.65267">
        <ele>502</ele>
        <time>2021-05-29T15:26:47.245Z</time>
      </trkpt>
      <trkpt lat="46.70432" lon="5.6527">
        <ele>502</ele>
        <time>2021-05-29T15:26:48.245Z</time>
      </trkpt>
      <trkpt lat="46.70432" lon="5.65272">
        <ele>502</ele>
        <time>2021-05-29T15:26:49.245Z</time>
      </trkpt>
      <trkpt lat="46.70433" lon="5.65275">
        <ele>502</ele>
        <time>2021-05-29T15:26:50.244Z</time>
      </trkpt>
      <trkpt lat="46.70433" lon="5.65276">
        <ele>502</ele>
        <time>2021-05-29T15:26:51.245Z</time>
      </trkpt>
      <trkpt lat="46.70433" lon="5.65278">
        <ele>501</ele>
        <time>2021-05-29T15:26:52.245Z</time>
      </trkpt>
      <trkpt lat="46.70433" lon="5.65279">
        <ele>501</ele>
        <time>2021-05-29T15:26:53.245Z</time>
      </trkpt>
      <trkpt lat="46.70434" lon="5.6528">
        <ele>501</ele>
        <time>2021-05-29T15:26:54.245Z</time>
      </trkpt>
      <trkpt lat="46.70434" lon="5.6528">
        <ele>500</ele>
        <time>2021-05-29T15:26:55.245Z</time>
      </trkpt>
      <trkpt lat="46.70434" lon="5.65281">
        <ele>500</ele>
        <time>2021-05-29T15:26:56.245Z</time>
      </trkpt>
      <trkpt lat="46.70435" lon="5.65283">
        <ele>501</ele>
        <time>2021-05-29T15:26:57.245Z</time>
      </trkpt>
      <trkpt lat="46.70436" lon="5.65285">
        <ele>501</ele>
        <time>2021-05-29T15:26:58.244Z</time>
      </trkpt>
      <trkpt lat="46.70437" lon="5.65286">
        <ele>501</ele>
        <time>2021-05-29T15:26:59.244Z</time>
      </trkpt>
      <trkpt lat="46.70438" lon="5.65287">
        <ele>502</ele>
        <time>2021-05-29T15:27:00.245Z</time>
      </trkpt>
      <trkpt lat="46.7044" lon="5.65288">
        <ele>502</ele>
        <time>2021-05-29T15:27:01.245Z</time>
      </trkpt>
      <trkpt lat="46.70441" lon="5.65289">
        <ele>502</ele>
        <time>2021-05-29T15:27:02.245Z</time>
      </trkpt>
      <trkpt lat="46.70443" lon="5.6529">
        <ele>502</ele>
        <time>2021-05-29T15:27:03.244Z</time>
      </trkpt>
      <trkpt lat="46.70445" lon="5.65291">
        <ele>503</ele>
        <time>2021-05-29T15:27:04.245Z</time>
      </trkpt>
      <trkpt lat="46.70446" lon="5.65293">
        <ele>503</ele>
        <time>2021-05-29T15:27:05.245Z</time>
      </trkpt>
      <trkpt lat="46.70448" lon="5.65295">
        <ele>504</ele>
        <time>2021-05-29T15:27:06.244Z</time>
      </trkpt>
      <trkpt lat="46.70449" lon="5.65297">
        <ele>504</ele>
        <time>2021-05-29T15:27:07.244Z</time>
      </trkpt>
      <trkpt lat="46.70451" lon="5.65299">
        <ele>505</ele>
        <time>2021-05-29T15:27:08.244Z</time>
      </trkpt>
      <trkpt lat="46.70453" lon="5.65301">
        <ele>505</ele>
        <time>2021-05-29T15:27:09.244Z</time>
      </trkpt>
      <trkpt lat="46.70454" lon="5.65303">
        <ele>506</ele>
        <time>2021-05-29T15:27:10.244Z</time>
      </trkpt>
      <trkpt lat="46.70455" lon="5.65306">
        <ele>506</ele>
        <time>2021-05-29T15:27:11.245Z</time>
      </trkpt>
      <trkpt lat="46.70457" lon="5.65308">
        <ele>506</ele>
        <time>2021-05-29T15:27:12.245Z</time>
      </trkpt>
      <trkpt lat="46.70458" lon="5.6531">
        <ele>506</ele>
        <time>2021-05-29T15:27:13.245Z</time>
      </trkpt>
      <trkpt lat="46.70459" lon="5.65313">
        <ele>507</ele>
        <time>2021-05-29T15:27:14.245Z</time>
      </trkpt>
      <trkpt lat="46.7046" lon="5.65316">
        <ele>507</ele>
        <time>2021-05-29T15:27:15.245Z</time>
      </trkpt>
      <trkpt lat="46.7046" lon="5.6532">
        <ele>507</ele>
        <time>2021-05-29T15:27:16.245Z</time>
      </trkpt>
      <trkpt lat="46.70461" lon="5.65323">
        <ele>507</ele>
        <time>2021-05-29T15:27:17.245Z</time>
      </trkpt>
      <trkpt lat="46.70461" lon="5.65326">
        <ele>508</ele>
        <time>2021-05-29T15:27:18.245Z</time>
      </trkpt>
      <trkpt lat="46.70461" lon="5.65328">
        <ele>508</ele>
        <time>2021-05-29T15:27:19.244Z</time>
      </trkpt>
      <trkpt lat="46.7046" lon="5.65332">
        <ele>508</ele>
        <time>2021-05-29T15:27:20.244Z</time>
      </trkpt>
      <trkpt lat="46.70459" lon="5.65334">
        <ele>508</ele>
        <time>2021-05-29T15:27:21.245Z</time>
      </trkpt>
      <trkpt lat="46.70459" lon="5.65337">
        <ele>508</ele>
        <time>2021-05-29T15:27:22.245Z</time>
      </trkpt>
      <trkpt lat="46.70459" lon="5.65339">
        <ele>509</ele>
        <time>2021-05-29T15:27:23.245Z</time>
      </trkpt>
      <trkpt lat="46.70458" lon="5.65342">
        <ele>509</ele>
        <time>2021-05-29T15:27:24.245Z</time>
      </trkpt>
      <trkpt lat="46.70458" lon="5.65345">
        <ele>509</ele>
        <time>2021-05-29T15:27:25.245Z</time>
      </trkpt>
      <trkpt lat="46.70457" lon="5.65348">
        <ele>510</ele>
        <time>2021-05-29T15:27:26.245Z</time>
      </trkpt>
      <trkpt lat="46.70456" lon="5.65351">
        <ele>510</ele>
        <time>2021-05-29T15:27:27.245Z</time>
      </trkpt>
      <trkpt lat="46.70456" lon="5.65353">
        <ele>510</ele>
        <time>2021-05-29T15:27:28.244Z</time>
      </trkpt>
      <trkpt lat="46.70454" lon="5.65357">
        <ele>509</ele>
        <time>2021-05-29T15:27:29.245Z</time>
      </trkpt>
      <trkpt lat="46.70454" lon="5.65361">
        <ele>509</ele>
        <time>2021-05-29T15:27:30.245Z</time>
      </trkpt>
      <trkpt lat="46.70452" lon="5.65366">
        <ele>509</ele>
        <time>2021-05-29T15:27:31.245Z</time>
      </trkpt>
      <trkpt lat="46.70451" lon="5.65368">
        <ele>510</ele>
        <time>2021-05-29T15:27:32.245Z</time>
      </trkpt>
      <trkpt lat="46.7045" lon="5.65371">
        <ele>510</ele>
        <time>2021-05-29T15:27:33.245Z</time>
      </trkpt>
      <trkpt lat="46.70449" lon="5.65373">
        <ele>510</ele>
        <time>2021-05-29T15:27:34.245Z</time>
      </trkpt>
      <trkpt lat="46.70448" lon="5.65375">
        <ele>510</ele>
        <time>2021-05-29T15:27:35.245Z</time>
      </trkpt>
      <trkpt lat="46.70447" lon="5.65377">
        <ele>510</ele>
        <time>2021-05-29T15:27:36.245Z</time>
      </trkpt>
      <trkpt lat="46.70447" lon="5.65379">
        <ele>510</ele>
        <time>2021-05-29T15:27:37.245Z</time>
      </trkpt>
      <trkpt lat="46.70446" lon="5.65382">
        <ele>510</ele>
        <time>2021-05-29T15:27:38.245Z</time>
      </trkpt>
      <trkpt lat="46.70445" lon="5.65385">
        <ele>510</ele>
        <time>2021-05-29T15:27:39.244Z</time>
      </trkpt>
      <trkpt lat="46.70445" lon="5.65387">
        <ele>511</ele>
        <time>2021-05-29T15:27:40.245Z</time>
      </trkpt>
      <trkpt lat="46.70444" lon="5.65389">
        <ele>511</ele>
        <time>2021-05-29T15:27:41.244Z</time>
      </trkpt>
      <trkpt lat="46.70444" lon="5.65393">
        <ele>511</ele>
        <time>2021-05-29T15:27:42.245Z</time>
      </trkpt>
      <trkpt lat="46.70444" lon="5.65396">
        <ele>512</ele>
        <time>2021-05-29T15:27:43.244Z</time>
      </trkpt>
      <trkpt lat="46.70443" lon="5.65399">
        <ele>512</ele>
        <time>2021-05-29T15:27:44.245Z</time>
      </trkpt>
      <trkpt lat="46.70443" lon="5.65402">
        <ele>512</ele>
        <time>2021-05-29T15:27:45.245Z</time>
      </trkpt>
      <trkpt lat="46.70442" lon="5.65405">
        <ele>513</ele>
        <time>2021-05-29T15:27:46.245Z</time>
      </trkpt>
      <trkpt lat="46.70442" lon="5.65408">
        <ele>513</ele>
        <time>2021-05-29T15:27:47.244Z</time>
      </trkpt>
      <trkpt lat="46.70442" lon="5.65411">
        <ele>513</ele>
        <time>2021-05-29T15:27:48.245Z</time>
      </trkpt>
      <trkpt lat="46.70442" lon="5.65414">
        <ele>514</ele>
        <time>2021-05-29T15:27:49.245Z</time>
      </trkpt>
      <trkpt lat="46.70443" lon="5.6542">
        <ele>514</ele>
        <time>2021-05-29T15:27:50.245Z</time>
      </trkpt>
      <trkpt lat="46.70442" lon="5.65426">
        <ele>515</ele>
        <time>2021-05-29T15:27:51.245Z</time>
      </trkpt>
      <trkpt lat="46.70442" lon="5.65428">
        <ele>515</ele>
        <time>2021-05-29T15:27:52.245Z</time>
      </trkpt>
      <trkpt lat="46.70443" lon="5.6543">
        <ele>516</ele>
        <time>2021-05-29T15:27:53.244Z</time>
      </trkpt>
      <trkpt lat="46.70443" lon="5.65432">
        <ele>516</ele>
        <time>2021-05-29T15:27:54.245Z</time>
      </trkpt>
      <trkpt lat="46.70444" lon="5.65435">
        <ele>516</ele>
        <time>2021-05-29T15:27:55.245Z</time>
      </trkpt>
      <trkpt lat="46.70444" lon="5.65437">
        <ele>517</ele>
        <time>2021-05-29T15:27:56.245Z</time>
      </trkpt>
      <trkpt lat="46.70444" lon="5.65439">
        <ele>517</ele>
        <time>2021-05-29T15:27:57.245Z</time>
      </trkpt>
      <trkpt lat="46.70445" lon="5.65441">
        <ele>518</ele>
        <time>2021-05-29T15:27:58.245Z</time>
      </trkpt>
      <trkpt lat="46.70445" lon="5.65444">
        <ele>518</ele>
        <time>2021-05-29T15:27:59.245Z</time>
      </trkpt>
      <trkpt lat="46.70445" lon="5.65446">
        <ele>518</ele>
        <time>2021-05-29T15:28:00.245Z</time>
      </trkpt>
      <trkpt lat="46.70444" lon="5.65449">
        <ele>518</ele>
        <time>2021-05-29T15:28:01.245Z</time>
      </trkpt>
      <trkpt lat="46.70444" lon="5.65451">
        <ele>519</ele>
        <time>2021-05-29T15:28:02.245Z</time>
      </trkpt>
      <trkpt lat="46.70444" lon="5.65453">
        <ele>519</ele>
        <time>2021-05-29T15:28:03.245Z</time>
      </trkpt>
      <trkpt lat="46.70445" lon="5.65457">
        <ele>519</ele>
        <time>2021-05-29T15:28:04.245Z</time>
      </trkpt>
      <trkpt lat="46.70445" lon="5.6546">
        <ele>520</ele>
        <time>2021-05-29T15:28:05.245Z</time>
      </trkpt>
      <trkpt lat="46.70446" lon="5.65463">
        <ele>520</ele>
        <time>2021-05-29T15:28:06.244Z</time>
      </trkpt>
      <trkpt lat="46.70446" lon="5.65466">
        <ele>520</ele>
        <time>2021-05-29T15:28:07.245Z</time>
      </trkpt>
      <trkpt lat="46.70446" lon="5.65469">
        <ele>520</ele>
        <time>2021-05-29T15:28:08.244Z</time>
      </trkpt>
      <trkpt lat="46.70446" lon="5.65471">
        <ele>520</ele>
        <time>2021-05-29T15:28:09.245Z</time>
      </trkpt>
      <trkpt lat="46.70447" lon="5.65474">
        <ele>520</ele>
        <time>2021-05-29T15:28:10.245Z</time>
      </trkpt>
      <trkpt lat="46.70449" lon="5.65478">
        <ele>520</ele>
        <time>2021-05-29T15:28:11.245Z</time>
      </trkpt>
      <trkpt lat="46.70449" lon="5.65483">
        <ele>520</ele>
        <time>2021-05-29T15:28:12.244Z</time>
      </trkpt>
      <trkpt lat="46.7045" lon="5.65487">
        <ele>519</ele>
        <time>2021-05-29T15:28:13.244Z</time>
      </trkpt>
      <trkpt lat="46.70451" lon="5.65491">
        <ele>519</ele>
        <time>2021-05-29T15:28:14.245Z</time>
      </trkpt>
      <trkpt lat="46.70451" lon="5.65495">
        <ele>519</ele>
        <time>2021-05-29T15:28:15.245Z</time>
      </trkpt>
      <trkpt lat="46.70452" lon="5.65498">
        <ele>519</ele>
        <time>2021-05-29T15:28:16.245Z</time>
      </trkpt>
      <trkpt lat="46.70453" lon="5.65501">
        <ele>519</ele>
        <time>2021-05-29T15:28:17.245Z</time>
      </trkpt>
      <trkpt lat="46.70454" lon="5.65503">
        <ele>519</ele>
        <time>2021-05-29T15:28:18.244Z</time>
      </trkpt>
      <trkpt lat="46.70454" lon="5.65506">
        <ele>520</ele>
        <time>2021-05-29T15:28:19.245Z</time>
      </trkpt>
      <trkpt lat="46.70455" lon="5.65509">
        <ele>520</ele>
        <time>2021-05-29T15:28:20.245Z</time>
      </trkpt>
      <trkpt lat="46.70455" lon="5.65512">
        <ele>520</ele>
        <time>2021-05-29T15:28:21.245Z</time>
      </trkpt>
      <trkpt lat="46.70455" lon="5.65514">
        <ele>520</ele>
        <time>2021-05-29T15:28:22.244Z</time>
      </trkpt>
      <trkpt lat="46.70456" lon="5.65518">
        <ele>520</ele>
        <time>2021-05-29T15:28:23.245Z</time>
      </trkpt>
      <trkpt lat="46.70456" lon="5.65521">
        <ele>520</ele>
        <time>2021-05-29T15:28:24.245Z</time>
      </trkpt>
      <trkpt lat="46.70457" lon="5.65524">
        <ele>519</ele>
        <time>2021-05-29T15:28:25.245Z</time>
      </trkpt>
      <trkpt lat="46.70458" lon="5.65527">
        <ele>519</ele>
        <time>2021-05-29T15:28:26.245Z</time>
      </trkpt>
      <trkpt lat="46.70458" lon="5.6553">
        <ele>519</ele>
        <time>2021-05-29T15:28:27.245Z</time>
      </trkpt>
      <trkpt lat="46.70459" lon="5.65532">
        <ele>518</ele>
        <time>2021-05-29T15:28:28.244Z</time>
      </trkpt>
      <trkpt lat="46.70459" lon="5.65534">
        <ele>518</ele>
        <time>2021-05-29T15:28:29.245Z</time>
      </trkpt>
      <trkpt lat="46.7046" lon="5.65536">
        <ele>518</ele>
        <time>2021-05-29T15:28:30.244Z</time>
      </trkpt>
      <trkpt lat="46.70461" lon="5.65537">
        <ele>518</ele>
        <time>2021-05-29T15:28:31.245Z</time>
      </trkpt>
      <trkpt lat="46.70461" lon="5.65538">
        <ele>518</ele>
        <time>2021-05-29T15:28:32.245Z</time>
      </trkpt>
      <trkpt lat="46.70462" lon="5.6554">
        <ele>518</ele>
        <time>2021-05-29T15:28:33.244Z</time>
      </trkpt>
      <trkpt lat="46.70465" lon="5.65543">
        <ele>518</ele>
        <time>2021-05-29T15:28:34.245Z</time>
      </trkpt>
      <trkpt lat="46.70466" lon="5.65546">
        <ele>518</ele>
        <time>2021-05-29T15:28:35.245Z</time>
      </trkpt>
      <trkpt lat="46.70467" lon="5.65549">
        <ele>518</ele>
        <time>2021-05-29T15:28:36.245Z</time>
      </trkpt>
      <trkpt lat="46.70469" lon="5.65551">
        <ele>518</ele>
        <time>2021-05-29T15:28:37.245Z</time>
      </trkpt>
      <trkpt lat="46.7047" lon="5.65554">
        <ele>518</ele>
        <time>2021-05-29T15:28:38.245Z</time>
      </trkpt>
      <trkpt lat="46.70472" lon="5.65556">
        <ele>518</ele>
        <time>2021-05-29T15:28:39.245Z</time>
      </trkpt>
      <trkpt lat="46.70474" lon="5.65558">
        <ele>518</ele>
        <time>2021-05-29T15:28:40.245Z</time>
      </trkpt>
      <trkpt lat="46.70475" lon="5.6556">
        <ele>519</ele>
        <time>2021-05-29T15:28:41.245Z</time>
      </trkpt>
      <trkpt lat="46.70476" lon="5.65561">
        <ele>519</ele>
        <time>2021-05-29T15:28:42.245Z</time>
      </trkpt>
      <trkpt lat="46.70478" lon="5.65563">
        <ele>519</ele>
        <time>2021-05-29T15:28:43.245Z</time>
      </trkpt>
      <trkpt lat="46.7048" lon="5.65564">
        <ele>519</ele>
        <time>2021-05-29T15:28:44.245Z</time>
      </trkpt>
      <trkpt lat="46.70481" lon="5.65564">
        <ele>519</ele>
        <time>2021-05-29T15:28:45.245Z</time>
      </trkpt>
      <trkpt lat="46.70481" lon="5.65562">
        <ele>519</ele>
        <time>2021-05-29T15:28:46.245Z</time>
      </trkpt>
      <trkpt lat="46.70482" lon="5.65562">
        <ele>519</ele>
        <time>2021-05-29T15:28:47.245Z</time>
      </trkpt>
      <trkpt lat="46.70483" lon="5.65563">
        <ele>519</ele>
        <time>2021-05-29T15:28:48.245Z</time>
      </trkpt>
      <trkpt lat="46.70485" lon="5.65565">
        <ele>519</ele>
        <time>2021-05-29T15:28:49.245Z</time>
      </trkpt>
      <trkpt lat="46.70487" lon="5.65567">
        <ele>519</ele>
        <time>2021-05-29T15:28:50.245Z</time>
      </trkpt>
      <trkpt lat="46.70489" lon="5.6557">
        <ele>519</ele>
        <time>2021-05-29T15:28:51.245Z</time>
      </trkpt>
      <trkpt lat="46.7049" lon="5.65572">
        <ele>520</ele>
        <time>2021-05-29T15:28:52.245Z</time>
      </trkpt>
      <trkpt lat="46.70491" lon="5.65575">
        <ele>520</ele>
        <time>2021-05-29T15:28:53.245Z</time>
      </trkpt>
      <trkpt lat="46.70492" lon="5.65577">
        <ele>520</ele>
        <time>2021-05-29T15:28:54.245Z</time>
      </trkpt>
      <trkpt lat="46.70492" lon="5.65579">
        <ele>520</ele>
        <time>2021-05-29T15:28:55.244Z</time>
      </trkpt>
      <trkpt lat="46.70493" lon="5.65582">
        <ele>519</ele>
        <time>2021-05-29T15:28:56.245Z</time>
      </trkpt>
      <trkpt lat="46.70494" lon="5.65585">
        <ele>519</ele>
        <time>2021-05-29T15:28:57.245Z</time>
      </trkpt>
      <trkpt lat="46.70494" lon="5.65588">
        <ele>519</ele>
        <time>2021-05-29T15:28:58.244Z</time>
      </trkpt>
      <trkpt lat="46.70494" lon="5.65591">
        <ele>519</ele>
        <time>2021-05-29T15:28:59.245Z</time>
      </trkpt>
      <trkpt lat="46.70494" lon="5.65594">
        <ele>519</ele>
        <time>2021-05-29T15:29:00.245Z</time>
      </trkpt>
      <trkpt lat="46.70495" lon="5.65597">
        <ele>518</ele>
        <time>2021-05-29T15:29:01.245Z</time>
      </trkpt>
      <trkpt lat="46.70495" lon="5.65599">
        <ele>518</ele>
        <time>2021-05-29T15:29:02.244Z</time>
      </trkpt>
      <trkpt lat="46.70496" lon="5.65602">
        <ele>518</ele>
        <time>2021-05-29T15:29:03.245Z</time>
      </trkpt>
      <trkpt lat="46.70496" lon="5.65605">
        <ele>517</ele>
        <time>2021-05-29T15:29:04.245Z</time>
      </trkpt>
      <trkpt lat="46.70497" lon="5.65608">
        <ele>517</ele>
        <time>2021-05-29T15:29:05.245Z</time>
      </trkpt>
      <trkpt lat="46.70497" lon="5.6561">
        <ele>517</ele>
        <time>2021-05-29T15:29:06.244Z</time>
      </trkpt>
      <trkpt lat="46.70498" lon="5.65613">
        <ele>517</ele>
        <time>2021-05-29T15:29:07.245Z</time>
      </trkpt>
      <trkpt lat="46.70498" lon="5.65616">
        <ele>517</ele>
        <time>2021-05-29T15:29:08.244Z</time>
      </trkpt>
      <trkpt lat="46.70499" lon="5.65621">
        <ele>516</ele>
        <time>2021-05-29T15:29:09.245Z</time>
      </trkpt>
      <trkpt lat="46.70499" lon="5.65624">
        <ele>516</ele>
        <time>2021-05-29T15:29:10.244Z</time>
      </trkpt>
      <trkpt lat="46.70499" lon="5.65629">
        <ele>516</ele>
        <time>2021-05-29T15:29:11.245Z</time>
      </trkpt>
      <trkpt lat="46.70499" lon="5.65634">
        <ele>516</ele>
        <time>2021-05-29T15:29:12.245Z</time>
      </trkpt>
      <trkpt lat="46.70499" lon="5.6564">
        <ele>516</ele>
        <time>2021-05-29T15:29:13.245Z</time>
      </trkpt>
      <trkpt lat="46.70499" lon="5.65644">
        <ele>516</ele>
        <time>2021-05-29T15:29:14.244Z</time>
      </trkpt>
      <trkpt lat="46.705" lon="5.65648">
        <ele>516</ele>
        <time>2021-05-29T15:29:15.245Z</time>
      </trkpt>
      <trkpt lat="46.70501" lon="5.65651">
        <ele>517</ele>
        <time>2021-05-29T15:29:16.245Z</time>
      </trkpt>
      <trkpt lat="46.70501" lon="5.65655">
        <ele>517</ele>
        <time>2021-05-29T15:29:17.244Z</time>
      </trkpt>
      <trkpt lat="46.70502" lon="5.65659">
        <ele>517</ele>
        <time>2021-05-29T15:29:18.245Z</time>
      </trkpt>
      <trkpt lat="46.70502" lon="5.65662">
        <ele>517</ele>
        <time>2021-05-29T15:29:19.244Z</time>
      </trkpt>
      <trkpt lat="46.70502" lon="5.65664">
        <ele>517</ele>
        <time>2021-05-29T15:29:20.244Z</time>
      </trkpt>
      <trkpt lat="46.70503" lon="5.65667">
        <ele>517</ele>
        <time>2021-05-29T15:29:21.245Z</time>
      </trkpt>
      <trkpt lat="46.70504" lon="5.65669">
        <ele>517</ele>
        <time>2021-05-29T15:29:22.245Z</time>
      </trkpt>
      <trkpt lat="46.70504" lon="5.65672">
        <ele>517</ele>
        <time>2021-05-29T15:29:23.244Z</time>
      </trkpt>
      <trkpt lat="46.70504" lon="5.65674">
        <ele>517</ele>
        <time>2021-05-29T15:29:24.245Z</time>
      </trkpt>
      <trkpt lat="46.70504" lon="5.65675">
        <ele>517</ele>
        <time>2021-05-29T15:29:25.245Z</time>
      </trkpt>
      <trkpt lat="46.70503" lon="5.65675">
        <ele>517</ele>
        <time>2021-05-29T15:29:26.245Z</time>
      </trkpt>
      <trkpt lat="46.70503" lon="5.65675">
        <ele>516</ele>
        <time>2021-05-29T15:29:27.245Z</time>
      </trkpt>
      <trkpt lat="46.70503" lon="5.65674">
        <ele>516</ele>
        <time>2021-05-29T15:29:28.244Z</time>
      </trkpt>
      <trkpt lat="46.70504" lon="5.65674">
        <ele>516</ele>
        <time>2021-05-29T15:29:29.245Z</time>
      </trkpt>
      <trkpt lat="46.70504" lon="5.65675">
        <ele>515</ele>
        <time>2021-05-29T15:29:30.245Z</time>
      </trkpt>
      <trkpt lat="46.70503" lon="5.65675">
        <ele>515</ele>
        <time>2021-05-29T15:29:31.244Z</time>
      </trkpt>
      <trkpt lat="46.70503" lon="5.65675">
        <ele>515</ele>
        <time>2021-05-29T15:29:32.245Z</time>
      </trkpt>
      <trkpt lat="46.70504" lon="5.65675">
        <ele>514</ele>
        <time>2021-05-29T15:29:33.245Z</time>
      </trkpt>
      <trkpt lat="46.70504" lon="5.65676">
        <ele>514</ele>
        <time>2021-05-29T15:29:34.244Z</time>
      </trkpt>
      <trkpt lat="46.70504" lon="5.65676">
        <ele>513</ele>
        <time>2021-05-29T15:29:35.245Z</time>
      </trkpt>
      <trkpt lat="46.70505" lon="5.65677">
        <ele>513</ele>
        <time>2021-05-29T15:29:36.245Z</time>
      </trkpt>
      <trkpt lat="46.70506" lon="5.65679">
        <ele>512</ele>
        <time>2021-05-29T15:29:37.245Z</time>
      </trkpt>
      <trkpt lat="46.70507" lon="5.65681">
        <ele>512</ele>
        <time>2021-05-29T15:29:38.245Z</time>
      </trkpt>
      <trkpt lat="46.70508" lon="5.65683">
        <ele>511</ele>
        <time>2021-05-29T15:29:39.245Z</time>
      </trkpt>
      <trkpt lat="46.7051" lon="5.65684">
        <ele>511</ele>
        <time>2021-05-29T15:29:40.244Z</time>
      </trkpt>
      <trkpt lat="46.70512" lon="5.65687">
        <ele>511</ele>
        <time>2021-05-29T15:29:41.245Z</time>
      </trkpt>
      <trkpt lat="46.70513" lon="5.65689">
        <ele>510</ele>
        <time>2021-05-29T15:29:42.245Z</time>
      </trkpt>
      <trkpt lat="46.70515" lon="5.65691">
        <ele>510</ele>
        <time>2021-05-29T15:29:43.245Z</time>
      </trkpt>
      <trkpt lat="46.70517" lon="5.65693">
        <ele>510</ele>
        <time>2021-05-29T15:29:44.245Z</time>
      </trkpt>
      <trkpt lat="46.70519" lon="5.65696">
        <ele>510</ele>
        <time>2021-05-29T15:29:45.245Z</time>
      </trkpt>
      <trkpt lat="46.7052" lon="5.65699">
        <ele>509</ele>
        <time>2021-05-29T15:29:46.245Z</time>
      </trkpt>
      <trkpt lat="46.70522" lon="5.65701">
        <ele>509</ele>
        <time>2021-05-29T15:29:47.245Z</time>
      </trkpt>
      <trkpt lat="46.70525" lon="5.65703">
        <ele>508</ele>
        <time>2021-05-29T15:29:48.245Z</time>
      </trkpt>
      <trkpt lat="46.70527" lon="5.65705">
        <ele>508</ele>
        <time>2021-05-29T15:29:49.245Z</time>
      </trkpt>
      <trkpt lat="46.70529" lon="5.65705">
        <ele>507</ele>
        <time>2021-05-29T15:29:50.244Z</time>
      </trkpt>
      <trkpt lat="46.70532" lon="5.65706">
        <ele>507</ele>
        <time>2021-05-29T15:29:51.245Z</time>
      </trkpt>
      <trkpt lat="46.70534" lon="5.65707">
        <ele>507</ele>
        <time>2021-05-29T15:29:52.245Z</time>
      </trkpt>
      <trkpt lat="46.70536" lon="5.65707">
        <ele>506</ele>
        <time>2021-05-29T15:29:53.245Z</time>
      </trkpt>
      <trkpt lat="46.70539" lon="5.65708">
        <ele>506</ele>
        <time>2021-05-29T15:29:54.245Z</time>
      </trkpt>
      <trkpt lat="46.7054" lon="5.65709">
        <ele>506</ele>
        <time>2021-05-29T15:29:55.245Z</time>
      </trkpt>
      <trkpt lat="46.70543" lon="5.6571">
        <ele>506</ele>
        <time>2021-05-29T15:29:56.245Z</time>
      </trkpt>
      <trkpt lat="46.70547" lon="5.65712">
        <ele>506</ele>
        <time>2021-05-29T15:29:57.245Z</time>
      </trkpt>
      <trkpt lat="46.70549" lon="5.65713">
        <ele>506</ele>
        <time>2021-05-29T15:29:58.244Z</time>
      </trkpt>
      <trkpt lat="46.70551" lon="5.65713">
        <ele>506</ele>
        <time>2021-05-29T15:29:59.245Z</time>
      </trkpt>
      <trkpt lat="46.70553" lon="5.65713">
        <ele>506</ele>
        <time>2021-05-29T15:30:00.244Z</time>
      </trkpt>
      <trkpt lat="46.70556" lon="5.65713">
        <ele>506</ele>
        <time>2021-05-29T15:30:01.245Z</time>
      </trkpt>
      <trkpt lat="46.70557" lon="5.65715">
        <ele>507</ele>
        <time>2021-05-29T15:30:02.245Z</time>
      </trkpt>
      <trkpt lat="46.70559" lon="5.65717">
        <ele>507</ele>
        <time>2021-05-29T15:30:03.245Z</time>
      </trkpt>
      <trkpt lat="46.7056" lon="5.65719">
        <ele>507</ele>
        <time>2021-05-29T15:30:04.244Z</time>
      </trkpt>
      <trkpt lat="46.70561" lon="5.6572">
        <ele>507</ele>
        <time>2021-05-29T15:30:05.245Z</time>
      </trkpt>
      <trkpt lat="46.70562" lon="5.65722">
        <ele>506</ele>
        <time>2021-05-29T15:30:06.245Z</time>
      </trkpt>
      <trkpt lat="46.70564" lon="5.65724">
        <ele>506</ele>
        <time>2021-05-29T15:30:07.245Z</time>
      </trkpt>
      <trkpt lat="46.70565" lon="5.65725">
        <ele>506</ele>
        <time>2021-05-29T15:30:08.245Z</time>
      </trkpt>
      <trkpt lat="46.70567" lon="5.65727">
        <ele>506</ele>
        <time>2021-05-29T15:30:09.244Z</time>
      </trkpt>
      <trkpt lat="46.70569" lon="5.65729">
        <ele>506</ele>
        <time>2021-05-29T15:30:10.245Z</time>
      </trkpt>
      <trkpt lat="46.70571" lon="5.65731">
        <ele>506</ele>
        <time>2021-05-29T15:30:11.245Z</time>
      </trkpt>
      <trkpt lat="46.70573" lon="5.65732">
        <ele>505</ele>
        <time>2021-05-29T15:30:12.244Z</time>
      </trkpt>
      <trkpt lat="46.70576" lon="5.65734">
        <ele>505</ele>
        <time>2021-05-29T15:30:13.245Z</time>
      </trkpt>
      <trkpt lat="46.70578" lon="5.65735">
        <ele>505</ele>
        <time>2021-05-29T15:30:14.245Z</time>
      </trkpt>
      <trkpt lat="46.7058" lon="5.65736">
        <ele>505</ele>
        <time>2021-05-29T15:30:15.244Z</time>
      </trkpt>
      <trkpt lat="46.70583" lon="5.65738">
        <ele>505</ele>
        <time>2021-05-29T15:30:16.245Z</time>
      </trkpt>
      <trkpt lat="46.70585" lon="5.65739">
        <ele>505</ele>
        <time>2021-05-29T15:30:17.245Z</time>
      </trkpt>
      <trkpt lat="46.70587" lon="5.65741">
        <ele>505</ele>
        <time>2021-05-29T15:30:18.245Z</time>
      </trkpt>
      <trkpt lat="46.70588" lon="5.65743">
        <ele>505</ele>
        <time>2021-05-29T15:30:19.244Z</time>
      </trkpt>
      <trkpt lat="46.70589" lon="5.65746">
        <ele>504</ele>
        <time>2021-05-29T15:30:20.245Z</time>
      </trkpt>
      <trkpt lat="46.70591" lon="5.65748">
        <ele>504</ele>
        <time>2021-05-29T15:30:21.245Z</time>
      </trkpt>
      <trkpt lat="46.70592" lon="5.6575">
        <ele>504</ele>
        <time>2021-05-29T15:30:22.245Z</time>
      </trkpt>
      <trkpt lat="46.70595" lon="5.65754">
        <ele>503</ele>
        <time>2021-05-29T15:30:23.244Z</time>
      </trkpt>
      <trkpt lat="46.70597" lon="5.65757">
        <ele>503</ele>
        <time>2021-05-29T15:30:24.244Z</time>
      </trkpt>
      <trkpt lat="46.70599" lon="5.6576">
        <ele>503</ele>
        <time>2021-05-29T15:30:25.245Z</time>
      </trkpt>
      <trkpt lat="46.70599" lon="5.65763">
        <ele>503</ele>
        <time>2021-05-29T15:30:26.245Z</time>
      </trkpt>
      <trkpt lat="46.706" lon="5.65767">
        <ele>503</ele>
        <time>2021-05-29T15:30:27.245Z</time>
      </trkpt>
      <trkpt lat="46.70602" lon="5.6577">
        <ele>503</ele>
        <time>2021-05-29T15:30:28.245Z</time>
      </trkpt>
      <trkpt lat="46.70604" lon="5.65773">
        <ele>503</ele>
        <time>2021-05-29T15:30:29.245Z</time>
      </trkpt>
      <trkpt lat="46.70606" lon="5.65775">
        <ele>503</ele>
        <time>2021-05-29T15:30:30.245Z</time>
      </trkpt>
      <trkpt lat="46.70608" lon="5.65779">
        <ele>503</ele>
        <time>2021-05-29T15:30:31.245Z</time>
      </trkpt>
      <trkpt lat="46.7061" lon="5.65782">
        <ele>503</ele>
        <time>2021-05-29T15:30:32.245Z</time>
      </trkpt>
      <trkpt lat="46.70611" lon="5.65785">
        <ele>502</ele>
        <time>2021-05-29T15:30:33.244Z</time>
      </trkpt>
      <trkpt lat="46.70612" lon="5.65788">
        <ele>502</ele>
        <time>2021-05-29T15:30:34.244Z</time>
      </trkpt>
      <trkpt lat="46.70612" lon="5.65792">
        <ele>502</ele>
        <time>2021-05-29T15:30:35.245Z</time>
      </trkpt>
      <trkpt lat="46.70612" lon="5.65794">
        <ele>502</ele>
        <time>2021-05-29T15:30:36.245Z</time>
      </trkpt>
      <trkpt lat="46.70613" lon="5.65796">
        <ele>502</ele>
        <time>2021-05-29T15:30:37.245Z</time>
      </trkpt>
      <trkpt lat="46.70612" lon="5.65797">
        <ele>502</ele>
        <time>2021-05-29T15:30:38.245Z</time>
      </trkpt>
      <trkpt lat="46.70612" lon="5.65797">
        <ele>502</ele>
        <time>2021-05-29T15:30:39.245Z</time>
      </trkpt>
      <trkpt lat="46.70612" lon="5.65797">
        <ele>502</ele>
        <time>2021-05-29T15:30:40.245Z</time>
      </trkpt>
      <trkpt lat="46.70613" lon="5.65796">
        <ele>502</ele>
        <time>2021-05-29T15:30:41.245Z</time>
      </trkpt>
      <trkpt lat="46.70614" lon="5.65796">
        <ele>502</ele>
        <time>2021-05-29T15:30:42.245Z</time>
      </trkpt>
      <trkpt lat="46.70614" lon="5.65796">
        <ele>503</ele>
        <time>2021-05-29T15:30:43.245Z</time>
      </trkpt>
      <trkpt lat="46.70614" lon="5.65796">
        <ele>503</ele>
        <time>2021-05-29T15:30:44.245Z</time>
      </trkpt>
      <trkpt lat="46.70614" lon="5.65798">
        <ele>504</ele>
        <time>2021-05-29T15:30:45.245Z</time>
      </trkpt>
      <trkpt lat="46.70615" lon="5.65801">
        <ele>504</ele>
        <time>2021-05-29T15:30:46.245Z</time>
      </trkpt>
      <trkpt lat="46.70615" lon="5.65804">
        <ele>504</ele>
        <time>2021-05-29T15:30:47.245Z</time>
      </trkpt>
      <trkpt lat="46.70616" lon="5.65808">
        <ele>504</ele>
        <time>2021-05-29T15:30:48.245Z</time>
      </trkpt>
      <trkpt lat="46.70617" lon="5.65812">
        <ele>504</ele>
        <time>2021-05-29T15:30:49.245Z</time>
      </trkpt>
      <trkpt lat="46.70617" lon="5.65815">
        <ele>504</ele>
        <time>2021-05-29T15:30:50.245Z</time>
      </trkpt>
      <trkpt lat="46.70618" lon="5.65819">
        <ele>504</ele>
        <time>2021-05-29T15:30:51.245Z</time>
      </trkpt>
      <trkpt lat="46.70619" lon="5.65821">
        <ele>503</ele>
        <time>2021-05-29T15:30:52.245Z</time>
      </trkpt>
      <trkpt lat="46.7062" lon="5.65825">
        <ele>503</ele>
        <time>2021-05-29T15:30:53.245Z</time>
      </trkpt>
      <trkpt lat="46.70621" lon="5.65829">
        <ele>503</ele>
        <time>2021-05-29T15:30:54.245Z</time>
      </trkpt>
      <trkpt lat="46.70622" lon="5.65832">
        <ele>503</ele>
        <time>2021-05-29T15:30:55.245Z</time>
      </trkpt>
      <trkpt lat="46.70623" lon="5.65836">
        <ele>504</ele>
        <time>2021-05-29T15:30:56.245Z</time>
      </trkpt>
      <trkpt lat="46.70624" lon="5.65839">
        <ele>504</ele>
        <time>2021-05-29T15:30:57.245Z</time>
      </trkpt>
      <trkpt lat="46.70625" lon="5.65844">
        <ele>504</ele>
        <time>2021-05-29T15:30:58.245Z</time>
      </trkpt>
      <trkpt lat="46.70626" lon="5.65847">
        <ele>505</ele>
        <time>2021-05-29T15:30:59.245Z</time>
      </trkpt>
      <trkpt lat="46.70627" lon="5.65849">
        <ele>505</ele>
        <time>2021-05-29T15:31:00.245Z</time>
      </trkpt>
      <trkpt lat="46.70628" lon="5.65852">
        <ele>504</ele>
        <time>2021-05-29T15:31:01.245Z</time>
      </trkpt>
      <trkpt lat="46.70629" lon="5.65854">
        <ele>504</ele>
        <time>2021-05-29T15:31:02.245Z</time>
      </trkpt>
      <trkpt lat="46.7063" lon="5.65856">
        <ele>503</ele>
        <time>2021-05-29T15:31:03.245Z</time>
      </trkpt>
      <trkpt lat="46.70631" lon="5.65859">
        <ele>502</ele>
        <time>2021-05-29T15:31:04.245Z</time>
      </trkpt>
      <trkpt lat="46.70632" lon="5.65861">
        <ele>502</ele>
        <time>2021-05-29T15:31:05.244Z</time>
      </trkpt>
      <trkpt lat="46.70633" lon="5.65865">
        <ele>502</ele>
        <time>2021-05-29T15:31:06.244Z</time>
      </trkpt>
      <trkpt lat="46.70634" lon="5.65868">
        <ele>501</ele>
        <time>2021-05-29T15:31:07.244Z</time>
      </trkpt>
      <trkpt lat="46.70635" lon="5.65871">
        <ele>501</ele>
        <time>2021-05-29T15:31:08.244Z</time>
      </trkpt>
      <trkpt lat="46.70636" lon="5.65874">
        <ele>500</ele>
        <time>2021-05-29T15:31:09.244Z</time>
      </trkpt>
      <trkpt lat="46.70638" lon="5.65877">
        <ele>500</ele>
        <time>2021-05-29T15:31:10.245Z</time>
      </trkpt>
      <trkpt lat="46.70639" lon="5.6588">
        <ele>499</ele>
        <time>2021-05-29T15:31:11.245Z</time>
      </trkpt>
      <trkpt lat="46.7064" lon="5.65884">
        <ele>499</ele>
        <time>2021-05-29T15:31:12.245Z</time>
      </trkpt>
      <trkpt lat="46.70641" lon="5.65886">
        <ele>498</ele>
        <time>2021-05-29T15:31:13.245Z</time>
      </trkpt>
      <trkpt lat="46.70642" lon="5.6589">
        <ele>498</ele>
        <time>2021-05-29T15:31:14.245Z</time>
      </trkpt>
      <trkpt lat="46.70643" lon="5.65893">
        <ele>498</ele>
        <time>2021-05-29T15:31:15.244Z</time>
      </trkpt>
      <trkpt lat="46.70644" lon="5.65896">
        <ele>497</ele>
        <time>2021-05-29T15:31:16.245Z</time>
      </trkpt>
      <trkpt lat="46.70645" lon="5.65899">
        <ele>496</ele>
        <time>2021-05-29T15:31:17.245Z</time>
      </trkpt>
      <trkpt lat="46.70646" lon="5.65901">
        <ele>496</ele>
        <time>2021-05-29T15:31:18.245Z</time>
      </trkpt>
      <trkpt lat="46.70648" lon="5.65904">
        <ele>496</ele>
        <time>2021-05-29T15:31:19.245Z</time>
      </trkpt>
      <trkpt lat="46.70649" lon="5.65905">
        <ele>495</ele>
        <time>2021-05-29T15:31:20.244Z</time>
      </trkpt>
      <trkpt lat="46.7065" lon="5.65906">
        <ele>495</ele>
        <time>2021-05-29T15:31:21.245Z</time>
      </trkpt>
      <trkpt lat="46.70652" lon="5.65906">
        <ele>495</ele>
        <time>2021-05-29T15:31:22.245Z</time>
      </trkpt>
      <trkpt lat="46.70654" lon="5.65905">
        <ele>495</ele>
        <time>2021-05-29T15:31:23.244Z</time>
      </trkpt>
      <trkpt lat="46.70655" lon="5.65904">
        <ele>495</ele>
        <time>2021-05-29T15:31:24.245Z</time>
      </trkpt>
      <trkpt lat="46.70657" lon="5.65903">
        <ele>495</ele>
        <time>2021-05-29T15:31:25.244Z</time>
      </trkpt>
      <trkpt lat="46.70659" lon="5.65901">
        <ele>495</ele>
        <time>2021-05-29T15:31:26.244Z</time>
      </trkpt>
      <trkpt lat="46.70662" lon="5.65899">
        <ele>495</ele>
        <time>2021-05-29T15:31:27.245Z</time>
      </trkpt>
      <trkpt lat="46.70663" lon="5.65898">
        <ele>495</ele>
        <time>2021-05-29T15:31:28.244Z</time>
      </trkpt>
      <trkpt lat="46.70665" lon="5.65896">
        <ele>495</ele>
        <time>2021-05-29T15:31:29.245Z</time>
      </trkpt>
      <trkpt lat="46.70667" lon="5.65895">
        <ele>495</ele>
        <time>2021-05-29T15:31:30.245Z</time>
      </trkpt>
      <trkpt lat="46.70668" lon="5.65894">
        <ele>495</ele>
        <time>2021-05-29T15:31:31.245Z</time>
      </trkpt>
      <trkpt lat="46.70671" lon="5.65892">
        <ele>496</ele>
        <time>2021-05-29T15:31:32.244Z</time>
      </trkpt>
      <trkpt lat="46.70673" lon="5.65892">
        <ele>496</ele>
        <time>2021-05-29T15:31:33.245Z</time>
      </trkpt>
      <trkpt lat="46.70675" lon="5.65891">
        <ele>496</ele>
        <time>2021-05-29T15:31:34.244Z</time>
      </trkpt>
      <trkpt lat="46.70676" lon="5.6589">
        <ele>496</ele>
        <time>2021-05-29T15:31:35.245Z</time>
      </trkpt>
      <trkpt lat="46.70678" lon="5.6589">
        <ele>496</ele>
        <time>2021-05-29T15:31:36.245Z</time>
      </trkpt>
      <trkpt lat="46.70679" lon="5.6589">
        <ele>496</ele>
        <time>2021-05-29T15:31:37.245Z</time>
      </trkpt>
      <trkpt lat="46.70679" lon="5.65891">
        <ele>496</ele>
        <time>2021-05-29T15:31:38.245Z</time>
      </trkpt>
      <trkpt lat="46.70679" lon="5.65891">
        <ele>496</ele>
        <time>2021-05-29T15:31:39.245Z</time>
      </trkpt>
      <trkpt lat="46.70679" lon="5.65891">
        <ele>497</ele>
        <time>2021-05-29T15:31:40.244Z</time>
      </trkpt>
      <trkpt lat="46.7068" lon="5.6589">
        <ele>497</ele>
        <time>2021-05-29T15:31:41.245Z</time>
      </trkpt>
      <trkpt lat="46.70681" lon="5.6589">
        <ele>498</ele>
        <time>2021-05-29T15:31:42.245Z</time>
      </trkpt>
      <trkpt lat="46.70683" lon="5.65888">
        <ele>498</ele>
        <time>2021-05-29T15:31:43.244Z</time>
      </trkpt>
      <trkpt lat="46.70684" lon="5.65887">
        <ele>498</ele>
        <time>2021-05-29T15:31:44.245Z</time>
      </trkpt>
      <trkpt lat="46.70685" lon="5.65885">
        <ele>499</ele>
        <time>2021-05-29T15:31:45.245Z</time>
      </trkpt>
      <trkpt lat="46.70685" lon="5.65884">
        <ele>499</ele>
        <time>2021-05-29T15:31:46.244Z</time>
      </trkpt>
      <trkpt lat="46.70686" lon="5.65883">
        <ele>498</ele>
        <time>2021-05-29T15:31:47.244Z</time>
      </trkpt>
      <trkpt lat="46.70687" lon="5.65882">
        <ele>498</ele>
        <time>2021-05-29T15:31:48.244Z</time>
      </trkpt>
      <trkpt lat="46.70687" lon="5.65882">
        <ele>498</ele>
        <time>2021-05-29T15:31:49.245Z</time>
      </trkpt>
      <trkpt lat="46.70688" lon="5.65881">
        <ele>498</ele>
        <time>2021-05-29T15:31:50.245Z</time>
      </trkpt>
      <trkpt lat="46.70688" lon="5.65882">
        <ele>497</ele>
        <time>2021-05-29T15:31:51.244Z</time>
      </trkpt>
      <trkpt lat="46.70688" lon="5.65882">
        <ele>497</ele>
        <time>2021-05-29T15:31:52.244Z</time>
      </trkpt>
      <trkpt lat="46.70689" lon="5.65882">
        <ele>496</ele>
        <time>2021-05-29T15:31:53.245Z</time>
      </trkpt>
      <trkpt lat="46.70689" lon="5.65883">
        <ele>495</ele>
        <time>2021-05-29T15:31:54.245Z</time>
      </trkpt>
      <trkpt lat="46.70689" lon="5.65882">
        <ele>495</ele>
        <time>2021-05-29T15:31:55.244Z</time>
      </trkpt>
      <trkpt lat="46.7069" lon="5.65882">
        <ele>494</ele>
        <time>2021-05-29T15:31:56.245Z</time>
      </trkpt>
      <trkpt lat="46.7069" lon="5.65881">
        <ele>494</ele>
        <time>2021-05-29T15:31:57.244Z</time>
      </trkpt>
      <trkpt lat="46.70691" lon="5.65881">
        <ele>494</ele>
        <time>2021-05-29T15:31:58.245Z</time>
      </trkpt>
      <trkpt lat="46.70692" lon="5.65881">
        <ele>493</ele>
        <time>2021-05-29T15:31:59.245Z</time>
      </trkpt>
      <trkpt lat="46.70693" lon="5.65881">
        <ele>493</ele>
        <time>2021-05-29T15:32:00.245Z</time>
      </trkpt>
      <trkpt lat="46.70693" lon="5.6588">
        <ele>493</ele>
        <time>2021-05-29T15:32:01.245Z</time>
      </trkpt>
      <trkpt lat="46.70694" lon="5.6588">
        <ele>492</ele>
        <time>2021-05-29T15:32:02.245Z</time>
      </trkpt>
      <trkpt lat="46.70696" lon="5.6588">
        <ele>492</ele>
        <time>2021-05-29T15:32:03.245Z</time>
      </trkpt>
      <trkpt lat="46.70698" lon="5.6588">
        <ele>492</ele>
        <time>2021-05-29T15:32:04.244Z</time>
      </trkpt>
      <trkpt lat="46.70699" lon="5.6588">
        <ele>491</ele>
        <time>2021-05-29T15:32:05.244Z</time>
      </trkpt>
      <trkpt lat="46.70702" lon="5.6588">
        <ele>491</ele>
        <time>2021-05-29T15:32:06.245Z</time>
      </trkpt>
      <trkpt lat="46.70704" lon="5.65881">
        <ele>492</ele>
        <time>2021-05-29T15:32:07.245Z</time>
      </trkpt>
      <trkpt lat="46.70706" lon="5.65881">
        <ele>491</ele>
        <time>2021-05-29T15:32:08.245Z</time>
      </trkpt>
      <trkpt lat="46.70707" lon="5.65882">
        <ele>491</ele>
        <time>2021-05-29T15:32:09.245Z</time>
      </trkpt>
      <trkpt lat="46.70708" lon="5.65882">
        <ele>491</ele>
        <time>2021-05-29T15:32:10.245Z</time>
      </trkpt>
      <trkpt lat="46.70709" lon="5.65883">
        <ele>491</ele>
        <time>2021-05-29T15:32:11.245Z</time>
      </trkpt>
      <trkpt lat="46.70711" lon="5.65884">
        <ele>491</ele>
        <time>2021-05-29T15:32:12.244Z</time>
      </trkpt>
      <trkpt lat="46.70713" lon="5.65885">
        <ele>491</ele>
        <time>2021-05-29T15:32:13.245Z</time>
      </trkpt>
      <trkpt lat="46.70715" lon="5.65886">
        <ele>491</ele>
        <time>2021-05-29T15:32:14.245Z</time>
      </trkpt>
      <trkpt lat="46.70716" lon="5.65887">
        <ele>490</ele>
        <time>2021-05-29T15:32:15.244Z</time>
      </trkpt>
      <trkpt lat="46.70718" lon="5.65888">
        <ele>490</ele>
        <time>2021-05-29T15:32:16.245Z</time>
      </trkpt>
      <trkpt lat="46.7072" lon="5.65888">
        <ele>490</ele>
        <time>2021-05-29T15:32:17.245Z</time>
      </trkpt>
      <trkpt lat="46.70722" lon="5.65887">
        <ele>490</ele>
        <time>2021-05-29T15:32:18.245Z</time>
      </trkpt>
      <trkpt lat="46.70724" lon="5.65888">
        <ele>490</ele>
        <time>2021-05-29T15:32:19.245Z</time>
      </trkpt>
      <trkpt lat="46.70727" lon="5.65888">
        <ele>490</ele>
        <time>2021-05-29T15:32:20.245Z</time>
      </trkpt>
      <trkpt lat="46.7073" lon="5.65888">
        <ele>490</ele>
        <time>2021-05-29T15:32:21.244Z</time>
      </trkpt>
      <trkpt lat="46.70732" lon="5.65889">
        <ele>491</ele>
        <time>2021-05-29T15:32:22.245Z</time>
      </trkpt>
      <trkpt lat="46.70734" lon="5.65888">
        <ele>491</ele>
        <time>2021-05-29T15:32:23.245Z</time>
      </trkpt>
      <trkpt lat="46.70736" lon="5.65887">
        <ele>491</ele>
        <time>2021-05-29T15:32:24.245Z</time>
      </trkpt>
      <trkpt lat="46.70738" lon="5.65887">
        <ele>491</ele>
        <time>2021-05-29T15:32:25.245Z</time>
      </trkpt>
      <trkpt lat="46.70741" lon="5.65887">
        <ele>492</ele>
        <time>2021-05-29T15:32:26.245Z</time>
      </trkpt>
      <trkpt lat="46.70742" lon="5.65888">
        <ele>492</ele>
        <time>2021-05-29T15:32:27.245Z</time>
      </trkpt>
      <trkpt lat="46.70745" lon="5.65888">
        <ele>492</ele>
        <time>2021-05-29T15:32:28.245Z</time>
      </trkpt>
      <trkpt lat="46.70746" lon="5.65889">
        <ele>492</ele>
        <time>2021-05-29T15:32:29.245Z</time>
      </trkpt>
      <trkpt lat="46.70747" lon="5.65889">
        <ele>492</ele>
        <time>2021-05-29T15:32:30.245Z</time>
      </trkpt>
      <trkpt lat="46.70747" lon="5.65889">
        <ele>492</ele>
        <time>2021-05-29T15:32:31.244Z</time>
      </trkpt>
      <trkpt lat="46.70747" lon="5.65889">
        <ele>492</ele>
        <time>2021-05-29T15:32:32.245Z</time>
      </trkpt>
      <trkpt lat="46.70746" lon="5.65889">
        <ele>492</ele>
        <time>2021-05-29T15:32:33.245Z</time>
      </trkpt>
      <trkpt lat="46.70746" lon="5.65888">
        <ele>492</ele>
        <time>2021-05-29T15:32:34.245Z</time>
      </trkpt>
      <trkpt lat="46.70746" lon="5.65888">
        <ele>493</ele>
        <time>2021-05-29T15:32:35.245Z</time>
      </trkpt>
      <trkpt lat="46.70746" lon="5.65887">
        <ele>494</ele>
        <time>2021-05-29T15:32:36.245Z</time>
      </trkpt>
      <trkpt lat="46.70747" lon="5.65887">
        <ele>495</ele>
        <time>2021-05-29T15:32:37.245Z</time>
      </trkpt>
      <trkpt lat="46.70748" lon="5.65887">
        <ele>496</ele>
        <time>2021-05-29T15:32:38.245Z</time>
      </trkpt>
      <trkpt lat="46.70749" lon="5.65887">
        <ele>496</ele>
        <time>2021-05-29T15:32:39.244Z</time>
      </trkpt>
      <trkpt lat="46.7075" lon="5.65887">
        <ele>496</ele>
        <time>2021-05-29T15:32:40.245Z</time>
      </trkpt>
      <trkpt lat="46.7075" lon="5.65888">
        <ele>497</ele>
        <time>2021-05-29T15:32:41.245Z</time>
      </trkpt>
      <trkpt lat="46.70752" lon="5.65888">
        <ele>497</ele>
        <time>2021-05-29T15:32:42.245Z</time>
      </trkpt>
      <trkpt lat="46.70753" lon="5.65888">
        <ele>497</ele>
        <time>2021-05-29T15:32:43.245Z</time>
      </trkpt>
      <trkpt lat="46.70754" lon="5.65888">
        <ele>497</ele>
        <time>2021-05-29T15:32:44.245Z</time>
      </trkpt>
      <trkpt lat="46.70755" lon="5.65887">
        <ele>497</ele>
        <time>2021-05-29T15:32:45.245Z</time>
      </trkpt>
      <trkpt lat="46.70757" lon="5.65886">
        <ele>496</ele>
        <time>2021-05-29T15:32:46.245Z</time>
      </trkpt>
      <trkpt lat="46.70759" lon="5.65884">
        <ele>496</ele>
        <time>2021-05-29T15:32:47.245Z</time>
      </trkpt>
      <trkpt lat="46.7076" lon="5.65883">
        <ele>495</ele>
        <time>2021-05-29T15:32:48.245Z</time>
      </trkpt>
      <trkpt lat="46.70762" lon="5.65883">
        <ele>495</ele>
        <time>2021-05-29T15:32:49.245Z</time>
      </trkpt>
      <trkpt lat="46.70763" lon="5.65883">
        <ele>494</ele>
        <time>2021-05-29T15:32:50.244Z</time>
      </trkpt>
      <trkpt lat="46.70764" lon="5.65882">
        <ele>494</ele>
        <time>2021-05-29T15:32:51.244Z</time>
      </trkpt>
      <trkpt lat="46.70765" lon="5.65882">
        <ele>494</ele>
        <time>2021-05-29T15:32:52.245Z</time>
      </trkpt>
      <trkpt lat="46.70766" lon="5.65882">
        <ele>494</ele>
        <time>2021-05-29T15:32:53.245Z</time>
      </trkpt>
      <trkpt lat="46.70766" lon="5.65881">
        <ele>493</ele>
        <time>2021-05-29T15:32:54.244Z</time>
      </trkpt>
      <trkpt lat="46.70767" lon="5.6588">
        <ele>493</ele>
        <time>2021-05-29T15:32:55.245Z</time>
      </trkpt>
      <trkpt lat="46.70768" lon="5.65878">
        <ele>492</ele>
        <time>2021-05-29T15:32:56.245Z</time>
      </trkpt>
      <trkpt lat="46.7077" lon="5.65877">
        <ele>492</ele>
        <time>2021-05-29T15:32:57.245Z</time>
      </trkpt>
      <trkpt lat="46.70771" lon="5.65876">
        <ele>491</ele>
        <time>2021-05-29T15:32:58.245Z</time>
      </trkpt>
      <trkpt lat="46.70773" lon="5.65876">
        <ele>491</ele>
        <time>2021-05-29T15:32:59.245Z</time>
      </trkpt>
      <trkpt lat="46.70774" lon="5.65875">
        <ele>490</ele>
        <time>2021-05-29T15:33:00.244Z</time>
      </trkpt>
      <trkpt lat="46.70775" lon="5.65875">
        <ele>490</ele>
        <time>2021-05-29T15:33:01.245Z</time>
      </trkpt>
      <trkpt lat="46.70777" lon="5.65874">
        <ele>489</ele>
        <time>2021-05-29T15:33:02.245Z</time>
      </trkpt>
      <trkpt lat="46.70778" lon="5.65874">
        <ele>488</ele>
        <time>2021-05-29T15:33:03.245Z</time>
      </trkpt>
      <trkpt lat="46.7078" lon="5.65873">
        <ele>488</ele>
        <time>2021-05-29T15:33:04.244Z</time>
      </trkpt>
      <trkpt lat="46.70781" lon="5.65872">
        <ele>487</ele>
        <time>2021-05-29T15:33:05.244Z</time>
      </trkpt>
      <trkpt lat="46.70782" lon="5.6587">
        <ele>487</ele>
        <time>2021-05-29T15:33:06.245Z</time>
      </trkpt>
      <trkpt lat="46.70783" lon="5.65869">
        <ele>486</ele>
        <time>2021-05-29T15:33:07.245Z</time>
      </trkpt>
      <trkpt lat="46.70784" lon="5.65868">
        <ele>486</ele>
        <time>2021-05-29T15:33:08.245Z</time>
      </trkpt>
      <trkpt lat="46.70786" lon="5.65868">
        <ele>485</ele>
        <time>2021-05-29T15:33:09.245Z</time>
      </trkpt>
      <trkpt lat="46.70787" lon="5.65867">
        <ele>485</ele>
        <time>2021-05-29T15:33:10.244Z</time>
      </trkpt>
      <trkpt lat="46.70788" lon="5.65866">
        <ele>484</ele>
        <time>2021-05-29T15:33:11.245Z</time>
      </trkpt>
      <trkpt lat="46.70789" lon="5.65865">
        <ele>484</ele>
        <time>2021-05-29T15:33:12.244Z</time>
      </trkpt>
      <trkpt lat="46.7079" lon="5.65865">
        <ele>483</ele>
        <time>2021-05-29T15:33:13.244Z</time>
      </trkpt>
      <trkpt lat="46.70791" lon="5.65864">
        <ele>483</ele>
        <time>2021-05-29T15:33:14.245Z</time>
      </trkpt>
      <trkpt lat="46.70791" lon="5.65864">
        <ele>482</ele>
        <time>2021-05-29T15:33:15.244Z</time>
      </trkpt>
      <trkpt lat="46.70792" lon="5.65863">
        <ele>482</ele>
        <time>2021-05-29T15:33:16.244Z</time>
      </trkpt>
      <trkpt lat="46.70793" lon="5.65863">
        <ele>482</ele>
        <time>2021-05-29T15:33:17.245Z</time>
      </trkpt>
      <trkpt lat="46.70794" lon="5.65862">
        <ele>481</ele>
        <time>2021-05-29T15:33:18.245Z</time>
      </trkpt>
      <trkpt lat="46.70794" lon="5.65862">
        <ele>481</ele>
        <time>2021-05-29T15:33:19.244Z</time>
      </trkpt>
      <trkpt lat="46.70795" lon="5.65861">
        <ele>480</ele>
        <time>2021-05-29T15:33:20.245Z</time>
      </trkpt>
      <trkpt lat="46.70796" lon="5.65859">
        <ele>480</ele>
        <time>2021-05-29T15:33:21.245Z</time>
      </trkpt>
      <trkpt lat="46.70796" lon="5.65857">
        <ele>479</ele>
        <time>2021-05-29T15:33:22.244Z</time>
      </trkpt>
      <trkpt lat="46.70798" lon="5.65855">
        <ele>479</ele>
        <time>2021-05-29T15:33:23.244Z</time>
      </trkpt>
      <trkpt lat="46.70798" lon="5.65854">
        <ele>478</ele>
        <time>2021-05-29T15:33:24.245Z</time>
      </trkpt>
      <trkpt lat="46.708" lon="5.65853">
        <ele>477</ele>
        <time>2021-05-29T15:33:25.245Z</time>
      </trkpt>
      <trkpt lat="46.70801" lon="5.65853">
        <ele>477</ele>
        <time>2021-05-29T15:33:26.245Z</time>
      </trkpt>
      <trkpt lat="46.70802" lon="5.65852">
        <ele>476</ele>
        <time>2021-05-29T15:33:27.244Z</time>
      </trkpt>
      <trkpt lat="46.70803" lon="5.65851">
        <ele>476</ele>
        <time>2021-05-29T15:33:28.245Z</time>
      </trkpt>
      <trkpt lat="46.70803" lon="5.65849">
        <ele>476</ele>
        <time>2021-05-29T15:33:29.245Z</time>
      </trkpt>
      <trkpt lat="46.70804" lon="5.65848">
        <ele>476</ele>
        <time>2021-05-29T15:35:19.879Z</time>
      </trkpt>
      <trkpt lat="46.70805" lon="5.65845">
        <ele>476</ele>
        <time>2021-05-29T15:35:20.878Z</time>
      </trkpt>
      <trkpt lat="46.70805" lon="5.65844">
        <ele>476</ele>
        <time>2021-05-29T15:35:21.879Z</time>
      </trkpt>
      <trkpt lat="46.70806" lon="5.65844">
        <ele>475</ele>
        <time>2021-05-29T15:35:22.878Z</time>
      </trkpt>
      <trkpt lat="46.70807" lon="5.65843">
        <ele>475</ele>
        <time>2021-05-29T15:35:23.879Z</time>
      </trkpt>
      <trkpt lat="46.70808" lon="5.65843">
        <ele>475</ele>
        <time>2021-05-29T15:35:24.879Z</time>
      </trkpt>
      <trkpt lat="46.70809" lon="5.65843">
        <ele>475</ele>
        <time>2021-05-29T15:35:25.879Z</time>
      </trkpt>
      <trkpt lat="46.7081" lon="5.65842">
        <ele>475</ele>
        <time>2021-05-29T15:35:26.878Z</time>
      </trkpt>
      <trkpt lat="46.70811" lon="5.65841">
        <ele>475</ele>
        <time>2021-05-29T15:35:27.879Z</time>
      </trkpt>
      <trkpt lat="46.70812" lon="5.6584">
        <ele>475</ele>
        <time>2021-05-29T15:35:28.879Z</time>
      </trkpt>
      <trkpt lat="46.70813" lon="5.6584">
        <ele>475</ele>
        <time>2021-05-29T15:35:29.879Z</time>
      </trkpt>
      <trkpt lat="46.70814" lon="5.65839">
        <ele>475</ele>
        <time>2021-05-29T15:35:30.879Z</time>
      </trkpt>
      <trkpt lat="46.70816" lon="5.65839">
        <ele>474</ele>
        <time>2021-05-29T15:35:31.879Z</time>
      </trkpt>
      <trkpt lat="46.70816" lon="5.65836">
        <ele>474</ele>
        <time>2021-05-29T15:35:32.879Z</time>
      </trkpt>
      <trkpt lat="46.70817" lon="5.65834">
        <ele>474</ele>
        <time>2021-05-29T15:35:33.879Z</time>
      </trkpt>
      <trkpt lat="46.70818" lon="5.65832">
        <ele>474</ele>
        <time>2021-05-29T15:35:34.878Z</time>
      </trkpt>
      <trkpt lat="46.70819" lon="5.6583">
        <ele>474</ele>
        <time>2021-05-29T15:35:35.879Z</time>
      </trkpt>
      <trkpt lat="46.7082" lon="5.65829">
        <ele>474</ele>
        <time>2021-05-29T15:35:36.878Z</time>
      </trkpt>
      <trkpt lat="46.70821" lon="5.65827">
        <ele>474</ele>
        <time>2021-05-29T15:35:37.879Z</time>
      </trkpt>
      <trkpt lat="46.70821" lon="5.65825">
        <ele>474</ele>
        <time>2021-05-29T15:35:38.879Z</time>
      </trkpt>
      <trkpt lat="46.70822" lon="5.65824">
        <ele>474</ele>
        <time>2021-05-29T15:35:39.879Z</time>
      </trkpt>
      <trkpt lat="46.70823" lon="5.65823">
        <ele>473</ele>
        <time>2021-05-29T15:35:40.879Z</time>
      </trkpt>
      <trkpt lat="46.70824" lon="5.65822">
        <ele>473</ele>
        <time>2021-05-29T15:35:41.878Z</time>
      </trkpt>
      <trkpt lat="46.70824" lon="5.65822">
        <ele>473</ele>
        <time>2021-05-29T15:35:42.879Z</time>
      </trkpt>
      <trkpt lat="46.70825" lon="5.65821">
        <ele>473</ele>
        <time>2021-05-29T15:35:43.878Z</time>
      </trkpt>
      <trkpt lat="46.70826" lon="5.65821">
        <ele>473</ele>
        <time>2021-05-29T15:35:44.879Z</time>
      </trkpt>
      <trkpt lat="46.70827" lon="5.6582">
        <ele>473</ele>
        <time>2021-05-29T15:35:45.878Z</time>
      </trkpt>
      <trkpt lat="46.70828" lon="5.6582">
        <ele>472</ele>
        <time>2021-05-29T15:35:46.878Z</time>
      </trkpt>
      <trkpt lat="46.70828" lon="5.65819">
        <ele>472</ele>
        <time>2021-05-29T15:35:47.878Z</time>
      </trkpt>
      <trkpt lat="46.7083" lon="5.65818">
        <ele>471</ele>
        <time>2021-05-29T15:35:48.878Z</time>
      </trkpt>
      <trkpt lat="46.7083" lon="5.65817">
        <ele>471</ele>
        <time>2021-05-29T15:35:49.879Z</time>
      </trkpt>
      <trkpt lat="46.70831" lon="5.65816">
        <ele>470</ele>
        <time>2021-05-29T15:35:50.879Z</time>
      </trkpt>
      <trkpt lat="46.70832" lon="5.65814">
        <ele>470</ele>
        <time>2021-05-29T15:35:51.879Z</time>
      </trkpt>
      <trkpt lat="46.70832" lon="5.65813">
        <ele>470</ele>
        <time>2021-05-29T15:35:52.879Z</time>
      </trkpt>
      <trkpt lat="46.70833" lon="5.65812">
        <ele>470</ele>
        <time>2021-05-29T15:35:53.879Z</time>
      </trkpt>
      <trkpt lat="46.70834" lon="5.65811">
        <ele>469</ele>
        <time>2021-05-29T15:35:54.878Z</time>
      </trkpt>
      <trkpt lat="46.70834" lon="5.6581">
        <ele>469</ele>
        <time>2021-05-29T15:35:55.879Z</time>
      </trkpt>
      <trkpt lat="46.70835" lon="5.65809">
        <ele>469</ele>
        <time>2021-05-29T15:35:56.878Z</time>
      </trkpt>
      <trkpt lat="46.70836" lon="5.65808">
        <ele>469</ele>
        <time>2021-05-29T15:35:57.879Z</time>
      </trkpt>
      <trkpt lat="46.70836" lon="5.65806">
        <ele>468</ele>
        <time>2021-05-29T15:35:58.878Z</time>
      </trkpt>
      <trkpt lat="46.70837" lon="5.65806">
        <ele>467</ele>
        <time>2021-05-29T15:35:59.878Z</time>
      </trkpt>
      <trkpt lat="46.70838" lon="5.65804">
        <ele>467</ele>
        <time>2021-05-29T15:36:00.879Z</time>
      </trkpt>
      <trkpt lat="46.70838" lon="5.65802">
        <ele>466</ele>
        <time>2021-05-29T15:36:01.878Z</time>
      </trkpt>
      <trkpt lat="46.70839" lon="5.658">
        <ele>466</ele>
        <time>2021-05-29T15:36:02.879Z</time>
      </trkpt>
      <trkpt lat="46.70839" lon="5.65799">
        <ele>465</ele>
        <time>2021-05-29T15:36:03.879Z</time>
      </trkpt>
      <trkpt lat="46.7084" lon="5.65798">
        <ele>464</ele>
        <time>2021-05-29T15:36:04.879Z</time>
      </trkpt>
      <trkpt lat="46.7084" lon="5.65797">
        <ele>463</ele>
        <time>2021-05-29T15:36:05.879Z</time>
      </trkpt>
      <trkpt lat="46.70841" lon="5.65795">
        <ele>462</ele>
        <time>2021-05-29T15:36:06.878Z</time>
      </trkpt>
      <trkpt lat="46.70842" lon="5.65794">
        <ele>462</ele>
        <time>2021-05-29T15:36:07.879Z</time>
      </trkpt>
      <trkpt lat="46.70843" lon="5.65793">
        <ele>461</ele>
        <time>2021-05-29T15:36:08.879Z</time>
      </trkpt>
      <trkpt lat="46.70843" lon="5.65792">
        <ele>460</ele>
        <time>2021-05-29T15:36:09.879Z</time>
      </trkpt>
      <trkpt lat="46.70844" lon="5.65791">
        <ele>459</ele>
        <time>2021-05-29T15:36:10.878Z</time>
      </trkpt>
      <trkpt lat="46.70846" lon="5.65792">
        <ele>458</ele>
        <time>2021-05-29T15:36:11.878Z</time>
      </trkpt>
      <trkpt lat="46.70848" lon="5.65792">
        <ele>458</ele>
        <time>2021-05-29T15:36:12.879Z</time>
      </trkpt>
      <trkpt lat="46.70848" lon="5.65791">
        <ele>457</ele>
        <time>2021-05-29T15:36:13.879Z</time>
      </trkpt>
      <trkpt lat="46.70849" lon="5.6579">
        <ele>456</ele>
        <time>2021-05-29T15:36:14.878Z</time>
      </trkpt>
      <trkpt lat="46.7085" lon="5.65788">
        <ele>455</ele>
        <time>2021-05-29T15:36:15.878Z</time>
      </trkpt>
      <trkpt lat="46.7085" lon="5.65786">
        <ele>455</ele>
        <time>2021-05-29T15:36:16.879Z</time>
      </trkpt>
      <trkpt lat="46.70851" lon="5.65785">
        <ele>454</ele>
        <time>2021-05-29T15:36:17.879Z</time>
      </trkpt>
      <trkpt lat="46.70852" lon="5.65782">
        <ele>454</ele>
        <time>2021-05-29T15:36:18.879Z</time>
      </trkpt>
      <trkpt lat="46.70852" lon="5.65781">
        <ele>453</ele>
        <time>2021-05-29T15:36:19.879Z</time>
      </trkpt>
      <trkpt lat="46.70853" lon="5.65779">
        <ele>453</ele>
        <time>2021-05-29T15:36:20.878Z</time>
      </trkpt>
      <trkpt lat="46.70854" lon="5.65778">
        <ele>453</ele>
        <time>2021-05-29T15:36:21.879Z</time>
      </trkpt>
      <trkpt lat="46.70854" lon="5.65776">
        <ele>453</ele>
        <time>2021-05-29T15:36:22.879Z</time>
      </trkpt>
      <trkpt lat="46.70854" lon="5.65775">
        <ele>453</ele>
        <time>2021-05-29T15:36:23.878Z</time>
      </trkpt>
      <trkpt lat="46.70854" lon="5.65773">
        <ele>453</ele>
        <time>2021-05-29T15:36:24.879Z</time>
      </trkpt>
      <trkpt lat="46.70855" lon="5.65771">
        <ele>453</ele>
        <time>2021-05-29T15:36:25.879Z</time>
      </trkpt>
      <trkpt lat="46.70855" lon="5.65769">
        <ele>453</ele>
        <time>2021-05-29T15:36:26.879Z</time>
      </trkpt>
      <trkpt lat="46.70856" lon="5.65768">
        <ele>453</ele>
        <time>2021-05-29T15:36:27.879Z</time>
      </trkpt>
      <trkpt lat="46.70857" lon="5.65767">
        <ele>453</ele>
        <time>2021-05-29T15:36:28.879Z</time>
      </trkpt>
      <trkpt lat="46.70858" lon="5.65766">
        <ele>453</ele>
        <time>2021-05-29T15:36:29.878Z</time>
      </trkpt>
      <trkpt lat="46.70858" lon="5.65765">
        <ele>454</ele>
        <time>2021-05-29T15:36:30.879Z</time>
      </trkpt>
      <trkpt lat="46.70859" lon="5.65763">
        <ele>454</ele>
        <time>2021-05-29T15:36:31.879Z</time>
      </trkpt>
      <trkpt lat="46.7086" lon="5.65761">
        <ele>455</ele>
        <time>2021-05-29T15:36:32.879Z</time>
      </trkpt>
      <trkpt lat="46.70861" lon="5.65759">
        <ele>455</ele>
        <time>2021-05-29T15:36:33.879Z</time>
      </trkpt>
      <trkpt lat="46.70861" lon="5.65758">
        <ele>455</ele>
        <time>2021-05-29T15:36:34.878Z</time>
      </trkpt>
      <trkpt lat="46.70862" lon="5.65757">
        <ele>455</ele>
        <time>2021-05-29T15:36:35.878Z</time>
      </trkpt>
      <trkpt lat="46.70863" lon="5.65756">
        <ele>456</ele>
        <time>2021-05-29T15:36:36.879Z</time>
      </trkpt>
      <trkpt lat="46.70864" lon="5.65755">
        <ele>456</ele>
        <time>2021-05-29T15:36:37.879Z</time>
      </trkpt>
      <trkpt lat="46.70865" lon="5.65754">
        <ele>456</ele>
        <time>2021-05-29T15:36:38.879Z</time>
      </trkpt>
      <trkpt lat="46.70865" lon="5.65753">
        <ele>456</ele>
        <time>2021-05-29T15:36:39.879Z</time>
      </trkpt>
      <trkpt lat="46.70866" lon="5.65752">
        <ele>456</ele>
        <time>2021-05-29T15:36:40.878Z</time>
      </trkpt>
      <trkpt lat="46.70866" lon="5.6575">
        <ele>456</ele>
        <time>2021-05-29T15:36:41.878Z</time>
      </trkpt>
      <trkpt lat="46.70867" lon="5.65749">
        <ele>456</ele>
        <time>2021-05-29T15:36:42.879Z</time>
      </trkpt>
      <trkpt lat="46.70868" lon="5.65746">
        <ele>455</ele>
        <time>2021-05-29T15:36:43.879Z</time>
      </trkpt>
      <trkpt lat="46.70869" lon="5.65744">
        <ele>455</ele>
        <time>2021-05-29T15:36:44.879Z</time>
      </trkpt>
      <trkpt lat="46.70869" lon="5.65742">
        <ele>455</ele>
        <time>2021-05-29T15:36:45.879Z</time>
      </trkpt>
      <trkpt lat="46.7087" lon="5.6574">
        <ele>455</ele>
        <time>2021-05-29T15:36:46.879Z</time>
      </trkpt>
      <trkpt lat="46.7087" lon="5.65737">
        <ele>455</ele>
        <time>2021-05-29T15:36:47.879Z</time>
      </trkpt>
      <trkpt lat="46.70871" lon="5.65735">
        <ele>454</ele>
        <time>2021-05-29T15:36:48.879Z</time>
      </trkpt>
      <trkpt lat="46.70872" lon="5.65734">
        <ele>454</ele>
        <time>2021-05-29T15:36:49.879Z</time>
      </trkpt>
      <trkpt lat="46.70872" lon="5.65732">
        <ele>454</ele>
        <time>2021-05-29T15:36:50.879Z</time>
      </trkpt>
      <trkpt lat="46.70873" lon="5.65731">
        <ele>455</ele>
        <time>2021-05-29T15:36:51.878Z</time>
      </trkpt>
      <trkpt lat="46.70873" lon="5.6573">
        <ele>455</ele>
        <time>2021-05-29T15:36:52.879Z</time>
      </trkpt>
      <trkpt lat="46.70873" lon="5.65729">
        <ele>455</ele>
        <time>2021-05-29T15:36:53.879Z</time>
      </trkpt>
      <trkpt lat="46.70873" lon="5.65728">
        <ele>455</ele>
        <time>2021-05-29T15:36:54.878Z</time>
      </trkpt>
      <trkpt lat="46.70873" lon="5.65726">
        <ele>455</ele>
        <time>2021-05-29T15:36:55.879Z</time>
      </trkpt>
      <trkpt lat="46.70874" lon="5.65724">
        <ele>455</ele>
        <time>2021-05-29T15:36:56.879Z</time>
      </trkpt>
      <trkpt lat="46.70874" lon="5.65721">
        <ele>454</ele>
        <time>2021-05-29T15:36:57.878Z</time>
      </trkpt>
      <trkpt lat="46.70875" lon="5.65718">
        <ele>454</ele>
        <time>2021-05-29T15:36:58.879Z</time>
      </trkpt>
      <trkpt lat="46.70875" lon="5.65714">
        <ele>453</ele>
        <time>2021-05-29T15:36:59.879Z</time>
      </trkpt>
      <trkpt lat="46.70875" lon="5.65711">
        <ele>452</ele>
        <time>2021-05-29T15:37:00.879Z</time>
      </trkpt>
      <trkpt lat="46.70876" lon="5.65708">
        <ele>452</ele>
        <time>2021-05-29T15:37:01.879Z</time>
      </trkpt>
      <trkpt lat="46.70877" lon="5.65706">
        <ele>451</ele>
        <time>2021-05-29T15:37:02.879Z</time>
      </trkpt>
      <trkpt lat="46.70877" lon="5.65703">
        <ele>450</ele>
        <time>2021-05-29T15:37:03.879Z</time>
      </trkpt>
      <trkpt lat="46.70878" lon="5.65701">
        <ele>449</ele>
        <time>2021-05-29T15:37:04.879Z</time>
      </trkpt>
      <trkpt lat="46.70879" lon="5.65698">
        <ele>449</ele>
        <time>2021-05-29T15:37:05.878Z</time>
      </trkpt>
      <trkpt lat="46.70879" lon="5.65696">
        <ele>448</ele>
        <time>2021-05-29T15:37:06.878Z</time>
      </trkpt>
      <trkpt lat="46.70879" lon="5.65695">
        <ele>447</ele>
        <time>2021-05-29T15:37:07.878Z</time>
      </trkpt>
      <trkpt lat="46.70879" lon="5.65693">
        <ele>447</ele>
        <time>2021-05-29T15:37:08.879Z</time>
      </trkpt>
      <trkpt lat="46.70879" lon="5.6569">
        <ele>447</ele>
        <time>2021-05-29T15:37:09.879Z</time>
      </trkpt>
      <trkpt lat="46.70879" lon="5.65687">
        <ele>446</ele>
        <time>2021-05-29T15:37:10.879Z</time>
      </trkpt>
      <trkpt lat="46.70879" lon="5.65685">
        <ele>446</ele>
        <time>2021-05-29T15:37:11.879Z</time>
      </trkpt>
      <trkpt lat="46.70879" lon="5.65684">
        <ele>445</ele>
        <time>2021-05-29T15:37:12.878Z</time>
      </trkpt>
      <trkpt lat="46.70879" lon="5.65683">
        <ele>445</ele>
        <time>2021-05-29T15:37:13.879Z</time>
      </trkpt>
      <trkpt lat="46.70879" lon="5.65681">
        <ele>445</ele>
        <time>2021-05-29T15:37:14.878Z</time>
      </trkpt>
      <trkpt lat="46.7088" lon="5.65679">
        <ele>444</ele>
        <time>2021-05-29T15:37:15.878Z</time>
      </trkpt>
      <trkpt lat="46.7088" lon="5.65677">
        <ele>444</ele>
        <time>2021-05-29T15:37:16.878Z</time>
      </trkpt>
      <trkpt lat="46.70881" lon="5.65676">
        <ele>443</ele>
        <time>2021-05-29T15:37:17.878Z</time>
      </trkpt>
      <trkpt lat="46.70882" lon="5.65674">
        <ele>443</ele>
        <time>2021-05-29T15:37:18.878Z</time>
      </trkpt>
      <trkpt lat="46.70882" lon="5.65673">
        <ele>442</ele>
        <time>2021-05-29T15:37:19.878Z</time>
      </trkpt>
      <trkpt lat="46.70882" lon="5.65671">
        <ele>442</ele>
        <time>2021-05-29T15:37:20.879Z</time>
      </trkpt>
      <trkpt lat="46.70883" lon="5.6567">
        <ele>441</ele>
        <time>2021-05-29T15:37:21.878Z</time>
      </trkpt>
      <trkpt lat="46.70883" lon="5.65668">
        <ele>441</ele>
        <time>2021-05-29T15:37:22.879Z</time>
      </trkpt>
      <trkpt lat="46.70883" lon="5.65666">
        <ele>441</ele>
        <time>2021-05-29T15:37:23.879Z</time>
      </trkpt>
      <trkpt lat="46.70884" lon="5.65664">
        <ele>441</ele>
        <time>2021-05-29T15:37:24.879Z</time>
      </trkpt>
      <trkpt lat="46.70884" lon="5.65661">
        <ele>441</ele>
        <time>2021-05-29T15:37:25.879Z</time>
      </trkpt>
      <trkpt lat="46.70885" lon="5.65659">
        <ele>441</ele>
        <time>2021-05-29T15:37:26.879Z</time>
      </trkpt>
      <trkpt lat="46.70885" lon="5.65656">
        <ele>440</ele>
        <time>2021-05-29T15:37:27.879Z</time>
      </trkpt>
      <trkpt lat="46.70886" lon="5.65654">
        <ele>440</ele>
        <time>2021-05-29T15:37:28.878Z</time>
      </trkpt>
      <trkpt lat="46.70886" lon="5.65651">
        <ele>440</ele>
        <time>2021-05-29T15:37:29.879Z</time>
      </trkpt>
      <trkpt lat="46.70886" lon="5.65649">
        <ele>440</ele>
        <time>2021-05-29T15:37:30.878Z</time>
      </trkpt>
      <trkpt lat="46.70886" lon="5.65647">
        <ele>439</ele>
        <time>2021-05-29T15:37:31.879Z</time>
      </trkpt>
      <trkpt lat="46.70886" lon="5.65645">
        <ele>439</ele>
        <time>2021-05-29T15:37:32.878Z</time>
      </trkpt>
      <trkpt lat="46.70886" lon="5.65642">
        <ele>439</ele>
        <time>2021-05-29T15:37:33.878Z</time>
      </trkpt>
      <trkpt lat="46.70885" lon="5.6564">
        <ele>438</ele>
        <time>2021-05-29T15:37:34.879Z</time>
      </trkpt>
      <trkpt lat="46.70886" lon="5.65638">
        <ele>438</ele>
        <time>2021-05-29T15:37:35.879Z</time>
      </trkpt>
      <trkpt lat="46.70886" lon="5.65637">
        <ele>438</ele>
        <time>2021-05-29T15:37:36.878Z</time>
      </trkpt>
      <trkpt lat="46.70885" lon="5.65635">
        <ele>438</ele>
        <time>2021-05-29T15:37:37.879Z</time>
      </trkpt>
      <trkpt lat="46.70885" lon="5.65634">
        <ele>437</ele>
        <time>2021-05-29T15:37:38.879Z</time>
      </trkpt>
      <trkpt lat="46.70884" lon="5.65632">
        <ele>437</ele>
        <time>2021-05-29T15:37:39.879Z</time>
      </trkpt>
      <trkpt lat="46.70884" lon="5.6563">
        <ele>437</ele>
        <time>2021-05-29T15:37:40.879Z</time>
      </trkpt>
      <trkpt lat="46.70884" lon="5.65628">
        <ele>437</ele>
        <time>2021-05-29T15:37:41.879Z</time>
      </trkpt>
      <trkpt lat="46.70883" lon="5.65627">
        <ele>436</ele>
        <time>2021-05-29T15:37:42.879Z</time>
      </trkpt>
      <trkpt lat="46.70883" lon="5.65625">
        <ele>436</ele>
        <time>2021-05-29T15:37:43.879Z</time>
      </trkpt>
      <trkpt lat="46.70883" lon="5.65623">
        <ele>436</ele>
        <time>2021-05-29T15:37:44.879Z</time>
      </trkpt>
      <trkpt lat="46.70881" lon="5.6562">
        <ele>436</ele>
        <time>2021-05-29T15:37:45.878Z</time>
      </trkpt>
      <trkpt lat="46.7088" lon="5.65616">
        <ele>435</ele>
        <time>2021-05-29T15:37:46.879Z</time>
      </trkpt>
      <trkpt lat="46.70881" lon="5.65614">
        <ele>435</ele>
        <time>2021-05-29T15:37:47.879Z</time>
      </trkpt>
      <trkpt lat="46.7088" lon="5.65612">
        <ele>435</ele>
        <time>2021-05-29T15:37:48.879Z</time>
      </trkpt>
      <trkpt lat="46.7088" lon="5.65611">
        <ele>434</ele>
        <time>2021-05-29T15:37:49.878Z</time>
      </trkpt>
      <trkpt lat="46.7088" lon="5.6561">
        <ele>434</ele>
        <time>2021-05-29T15:37:50.878Z</time>
      </trkpt>
      <trkpt lat="46.7088" lon="5.65608">
        <ele>433</ele>
        <time>2021-05-29T15:37:51.879Z</time>
      </trkpt>
      <trkpt lat="46.7088" lon="5.65607">
        <ele>433</ele>
        <time>2021-05-29T15:37:52.879Z</time>
      </trkpt>
      <trkpt lat="46.7088" lon="5.65605">
        <ele>432</ele>
        <time>2021-05-29T15:37:53.879Z</time>
      </trkpt>
      <trkpt lat="46.7088" lon="5.65604">
        <ele>432</ele>
        <time>2021-05-29T15:37:54.879Z</time>
      </trkpt>
      <trkpt lat="46.70879" lon="5.65602">
        <ele>432</ele>
        <time>2021-05-29T15:37:55.878Z</time>
      </trkpt>
      <trkpt lat="46.70879" lon="5.65601">
        <ele>431</ele>
        <time>2021-05-29T15:37:56.879Z</time>
      </trkpt>
      <trkpt lat="46.70879" lon="5.65599">
        <ele>430</ele>
        <time>2021-05-29T15:37:57.879Z</time>
      </trkpt>
      <trkpt lat="46.70879" lon="5.65598">
        <ele>430</ele>
        <time>2021-05-29T15:37:58.879Z</time>
      </trkpt>
      <trkpt lat="46.70878" lon="5.65597">
        <ele>430</ele>
        <time>2021-05-29T15:37:59.879Z</time>
      </trkpt>
      <trkpt lat="46.70878" lon="5.65595">
        <ele>429</ele>
        <time>2021-05-29T15:38:00.879Z</time>
      </trkpt>
      <trkpt lat="46.70878" lon="5.65594">
        <ele>429</ele>
        <time>2021-05-29T15:38:01.878Z</time>
      </trkpt>
      <trkpt lat="46.70877" lon="5.65593">
        <ele>429</ele>
        <time>2021-05-29T15:38:02.879Z</time>
      </trkpt>
      <trkpt lat="46.70876" lon="5.65592">
        <ele>429</ele>
        <time>2021-05-29T15:38:03.878Z</time>
      </trkpt>
      <trkpt lat="46.70874" lon="5.65591">
        <ele>429</ele>
        <time>2021-05-29T15:38:04.879Z</time>
      </trkpt>
      <trkpt lat="46.70873" lon="5.65589">
        <ele>429</ele>
        <time>2021-05-29T15:38:05.878Z</time>
      </trkpt>
      <trkpt lat="46.70873" lon="5.65587">
        <ele>429</ele>
        <time>2021-05-29T15:38:06.879Z</time>
      </trkpt>
      <trkpt lat="46.70872" lon="5.65584">
        <ele>429</ele>
        <time>2021-05-29T15:38:07.878Z</time>
      </trkpt>
      <trkpt lat="46.70873" lon="5.65583">
        <ele>429</ele>
        <time>2021-05-29T15:38:08.878Z</time>
      </trkpt>
      <trkpt lat="46.70873" lon="5.65582">
        <ele>429</ele>
        <time>2021-05-29T15:38:09.878Z</time>
      </trkpt>
      <trkpt lat="46.70873" lon="5.6558">
        <ele>429</ele>
        <time>2021-05-29T15:38:10.878Z</time>
      </trkpt>
      <trkpt lat="46.70872" lon="5.65579">
        <ele>429</ele>
        <time>2021-05-29T15:38:11.878Z</time>
      </trkpt>
      <trkpt lat="46.70873" lon="5.65577">
        <ele>429</ele>
        <time>2021-05-29T15:38:12.879Z</time>
      </trkpt>
      <trkpt lat="46.70873" lon="5.65575">
        <ele>429</ele>
        <time>2021-05-29T15:38:13.878Z</time>
      </trkpt>
      <trkpt lat="46.70873" lon="5.65572">
        <ele>428</ele>
        <time>2021-05-29T15:38:14.879Z</time>
      </trkpt>
      <trkpt lat="46.70872" lon="5.6557">
        <ele>427</ele>
        <time>2021-05-29T15:38:15.878Z</time>
      </trkpt>
      <trkpt lat="46.70872" lon="5.65568">
        <ele>427</ele>
        <time>2021-05-29T15:38:16.879Z</time>
      </trkpt>
      <trkpt lat="46.70871" lon="5.65567">
        <ele>426</ele>
        <time>2021-05-29T15:38:17.879Z</time>
      </trkpt>
      <trkpt lat="46.7087" lon="5.65565">
        <ele>425</ele>
        <time>2021-05-29T15:38:18.879Z</time>
      </trkpt>
      <trkpt lat="46.7087" lon="5.65564">
        <ele>424</ele>
        <time>2021-05-29T15:38:19.879Z</time>
      </trkpt>
      <trkpt lat="46.70869" lon="5.65563">
        <ele>424</ele>
        <time>2021-05-29T15:38:20.879Z</time>
      </trkpt>
      <trkpt lat="46.70869" lon="5.65561">
        <ele>423</ele>
        <time>2021-05-29T15:38:21.879Z</time>
      </trkpt>
      <trkpt lat="46.70869" lon="5.65559">
        <ele>423</ele>
        <time>2021-05-29T15:38:22.879Z</time>
      </trkpt>
      <trkpt lat="46.70869" lon="5.65557">
        <ele>422</ele>
        <time>2021-05-29T15:38:23.879Z</time>
      </trkpt>
      <trkpt lat="46.70869" lon="5.65555">
        <ele>422</ele>
        <time>2021-05-29T15:38:24.878Z</time>
      </trkpt>
      <trkpt lat="46.70869" lon="5.65553">
        <ele>422</ele>
        <time>2021-05-29T15:38:25.879Z</time>
      </trkpt>
      <trkpt lat="46.70868" lon="5.65551">
        <ele>422</ele>
        <time>2021-05-29T15:38:26.879Z</time>
      </trkpt>
      <trkpt lat="46.70868" lon="5.65548">
        <ele>422</ele>
        <time>2021-05-29T15:38:27.878Z</time>
      </trkpt>
      <trkpt lat="46.70868" lon="5.65546">
        <ele>421</ele>
        <time>2021-05-29T15:38:28.878Z</time>
      </trkpt>
      <trkpt lat="46.70868" lon="5.65544">
        <ele>422</ele>
        <time>2021-05-29T15:38:29.879Z</time>
      </trkpt>
      <trkpt lat="46.70868" lon="5.65543">
        <ele>422</ele>
        <time>2021-05-29T15:38:30.879Z</time>
      </trkpt>
      <trkpt lat="46.70867" lon="5.65541">
        <ele>422</ele>
        <time>2021-05-29T15:38:31.879Z</time>
      </trkpt>
      <trkpt lat="46.70867" lon="5.65539">
        <ele>422</ele>
        <time>2021-05-29T15:38:32.878Z</time>
      </trkpt>
      <trkpt lat="46.70867" lon="5.65538">
        <ele>422</ele>
        <time>2021-05-29T15:38:33.878Z</time>
      </trkpt>
      <trkpt lat="46.70867" lon="5.65537">
        <ele>422</ele>
        <time>2021-05-29T15:38:34.878Z</time>
      </trkpt>
      <trkpt lat="46.70867" lon="5.65535">
        <ele>422</ele>
        <time>2021-05-29T15:38:35.879Z</time>
      </trkpt>
      <trkpt lat="46.70866" lon="5.65533">
        <ele>421</ele>
        <time>2021-05-29T15:38:36.879Z</time>
      </trkpt>
      <trkpt lat="46.70866" lon="5.65531">
        <ele>421</ele>
        <time>2021-05-29T15:38:37.879Z</time>
      </trkpt>
      <trkpt lat="46.70866" lon="5.65529">
        <ele>420</ele>
        <time>2021-05-29T15:38:38.879Z</time>
      </trkpt>
      <trkpt lat="46.70866" lon="5.65527">
        <ele>420</ele>
        <time>2021-05-29T15:38:39.879Z</time>
      </trkpt>
      <trkpt lat="46.70866" lon="5.65526">
        <ele>420</ele>
        <time>2021-05-29T15:38:40.879Z</time>
      </trkpt>
      <trkpt lat="46.70866" lon="5.65524">
        <ele>420</ele>
        <time>2021-05-29T15:38:41.878Z</time>
      </trkpt>
      <trkpt lat="46.70866" lon="5.65522">
        <ele>420</ele>
        <time>2021-05-29T15:38:42.879Z</time>
      </trkpt>
      <trkpt lat="46.70865" lon="5.6552">
        <ele>420</ele>
        <time>2021-05-29T15:38:43.878Z</time>
      </trkpt>
      <trkpt lat="46.70865" lon="5.65518">
        <ele>420</ele>
        <time>2021-05-29T15:38:44.879Z</time>
      </trkpt>
      <trkpt lat="46.70865" lon="5.65517">
        <ele>420</ele>
        <time>2021-05-29T15:38:45.878Z</time>
      </trkpt>
      <trkpt lat="46.70865" lon="5.65516">
        <ele>419</ele>
        <time>2021-05-29T15:38:46.878Z</time>
      </trkpt>
      <trkpt lat="46.70864" lon="5.65514">
        <ele>419</ele>
        <time>2021-05-29T15:38:47.879Z</time>
      </trkpt>
      <trkpt lat="46.70863" lon="5.65513">
        <ele>420</ele>
        <time>2021-05-29T15:38:48.878Z</time>
      </trkpt>
      <trkpt lat="46.70862" lon="5.65512">
        <ele>419</ele>
        <time>2021-05-29T15:38:49.878Z</time>
      </trkpt>
      <trkpt lat="46.70861" lon="5.65511">
        <ele>419</ele>
        <time>2021-05-29T15:38:50.878Z</time>
      </trkpt>
      <trkpt lat="46.7086" lon="5.6551">
        <ele>419</ele>
        <time>2021-05-29T15:38:51.879Z</time>
      </trkpt>
      <trkpt lat="46.70859" lon="5.65509">
        <ele>419</ele>
        <time>2021-05-29T15:38:52.879Z</time>
      </trkpt>
      <trkpt lat="46.70859" lon="5.65507">
        <ele>418</ele>
        <time>2021-05-29T15:38:53.879Z</time>
      </trkpt>
      <trkpt lat="46.70859" lon="5.65505">
        <ele>418</ele>
        <time>2021-05-29T15:38:54.879Z</time>
      </trkpt>
      <trkpt lat="46.70859" lon="5.65503">
        <ele>417</ele>
        <time>2021-05-29T15:38:55.879Z</time>
      </trkpt>
      <trkpt lat="46.70858" lon="5.65503">
        <ele>417</ele>
        <time>2021-05-29T15:38:56.878Z</time>
      </trkpt>
      <trkpt lat="46.70858" lon="5.65501">
        <ele>416</ele>
        <time>2021-05-29T15:38:57.878Z</time>
      </trkpt>
      <trkpt lat="46.70858" lon="5.655">
        <ele>416</ele>
        <time>2021-05-29T15:38:58.878Z</time>
      </trkpt>
      <trkpt lat="46.70858" lon="5.65499">
        <ele>415</ele>
        <time>2021-05-29T15:38:59.879Z</time>
      </trkpt>
      <trkpt lat="46.70857" lon="5.65497">
        <ele>415</ele>
        <time>2021-05-29T15:39:00.879Z</time>
      </trkpt>
      <trkpt lat="46.70857" lon="5.65496">
        <ele>414</ele>
        <time>2021-05-29T15:39:01.878Z</time>
      </trkpt>
      <trkpt lat="46.70857" lon="5.65495">
        <ele>414</ele>
        <time>2021-05-29T15:39:02.879Z</time>
      </trkpt>
      <trkpt lat="46.70857" lon="5.65493">
        <ele>413</ele>
        <time>2021-05-29T15:39:03.879Z</time>
      </trkpt>
      <trkpt lat="46.70856" lon="5.65492">
        <ele>413</ele>
        <time>2021-05-29T15:39:04.878Z</time>
      </trkpt>
      <trkpt lat="46.70855" lon="5.6549">
        <ele>413</ele>
        <time>2021-05-29T15:39:05.879Z</time>
      </trkpt>
      <trkpt lat="46.70854" lon="5.65488">
        <ele>413</ele>
        <time>2021-05-29T15:39:06.879Z</time>
      </trkpt>
      <trkpt lat="46.70853" lon="5.65486">
        <ele>413</ele>
        <time>2021-05-29T15:39:07.879Z</time>
      </trkpt>
      <trkpt lat="46.70852" lon="5.65484">
        <ele>413</ele>
        <time>2021-05-29T15:39:08.879Z</time>
      </trkpt>
      <trkpt lat="46.70851" lon="5.65483">
        <ele>412</ele>
        <time>2021-05-29T15:39:09.879Z</time>
      </trkpt>
      <trkpt lat="46.70851" lon="5.65481">
        <ele>412</ele>
        <time>2021-05-29T15:39:10.878Z</time>
      </trkpt>
      <trkpt lat="46.7085" lon="5.6548">
        <ele>412</ele>
        <time>2021-05-29T15:39:11.879Z</time>
      </trkpt>
      <trkpt lat="46.70849" lon="5.65478">
        <ele>412</ele>
        <time>2021-05-29T15:39:12.878Z</time>
      </trkpt>
      <trkpt lat="46.70849" lon="5.65475">
        <ele>411</ele>
        <time>2021-05-29T15:39:13.878Z</time>
      </trkpt>
      <trkpt lat="46.70848" lon="5.65473">
        <ele>409</ele>
        <time>2021-05-29T15:39:14.878Z</time>
      </trkpt>
      <trkpt lat="46.70848" lon="5.65471">
        <ele>408</ele>
        <time>2021-05-29T15:39:15.878Z</time>
      </trkpt>
      <trkpt lat="46.70848" lon="5.65469">
        <ele>408</ele>
        <time>2021-05-29T15:39:16.878Z</time>
      </trkpt>
      <trkpt lat="46.70847" lon="5.65466">
        <ele>407</ele>
        <time>2021-05-29T15:39:17.879Z</time>
      </trkpt>
      <trkpt lat="46.70847" lon="5.65464">
        <ele>407</ele>
        <time>2021-05-29T15:39:18.878Z</time>
      </trkpt>
      <trkpt lat="46.70847" lon="5.65462">
        <ele>407</ele>
        <time>2021-05-29T15:39:19.878Z</time>
      </trkpt>
      <trkpt lat="46.70846" lon="5.6546">
        <ele>407</ele>
        <time>2021-05-29T15:39:20.879Z</time>
      </trkpt>
      <trkpt lat="46.70846" lon="5.65458">
        <ele>406</ele>
        <time>2021-05-29T15:39:21.878Z</time>
      </trkpt>
      <trkpt lat="46.70846" lon="5.65457">
        <ele>406</ele>
        <time>2021-05-29T15:39:22.879Z</time>
      </trkpt>
      <trkpt lat="46.70845" lon="5.65455">
        <ele>407</ele>
        <time>2021-05-29T15:39:23.878Z</time>
      </trkpt>
      <trkpt lat="46.70844" lon="5.65454">
        <ele>406</ele>
        <time>2021-05-29T15:39:24.879Z</time>
      </trkpt>
      <trkpt lat="46.70844" lon="5.65452">
        <ele>406</ele>
        <time>2021-05-29T15:39:25.878Z</time>
      </trkpt>
      <trkpt lat="46.70843" lon="5.65451">
        <ele>405</ele>
        <time>2021-05-29T15:39:26.878Z</time>
      </trkpt>
      <trkpt lat="46.70842" lon="5.6545">
        <ele>405</ele>
        <time>2021-05-29T15:39:27.879Z</time>
      </trkpt>
      <trkpt lat="46.70842" lon="5.65448">
        <ele>405</ele>
        <time>2021-05-29T15:39:28.878Z</time>
      </trkpt>
      <trkpt lat="46.70842" lon="5.65446">
        <ele>405</ele>
        <time>2021-05-29T15:39:29.879Z</time>
      </trkpt>
      <trkpt lat="46.70841" lon="5.65444">
        <ele>405</ele>
        <time>2021-05-29T15:39:30.879Z</time>
      </trkpt>
      <trkpt lat="46.7084" lon="5.65442">
        <ele>405</ele>
        <time>2021-05-29T15:39:31.879Z</time>
      </trkpt>
      <trkpt lat="46.7084" lon="5.65441">
        <ele>406</ele>
        <time>2021-05-29T15:39:32.878Z</time>
      </trkpt>
      <trkpt lat="46.7084" lon="5.65439">
        <ele>406</ele>
        <time>2021-05-29T15:39:33.879Z</time>
      </trkpt>
      <trkpt lat="46.70839" lon="5.65437">
        <ele>406</ele>
        <time>2021-05-29T15:39:34.879Z</time>
      </trkpt>
      <trkpt lat="46.70838" lon="5.65435">
        <ele>406</ele>
        <time>2021-05-29T15:39:35.878Z</time>
      </trkpt>
      <trkpt lat="46.70838" lon="5.65434">
        <ele>407</ele>
        <time>2021-05-29T15:39:36.878Z</time>
      </trkpt>
      <trkpt lat="46.70838" lon="5.65432">
        <ele>407</ele>
        <time>2021-05-29T15:39:37.879Z</time>
      </trkpt>
      <trkpt lat="46.70838" lon="5.6543">
        <ele>407</ele>
        <time>2021-05-29T15:39:38.878Z</time>
      </trkpt>
      <trkpt lat="46.70838" lon="5.65428">
        <ele>407</ele>
        <time>2021-05-29T15:39:39.879Z</time>
      </trkpt>
      <trkpt lat="46.70838" lon="5.65426">
        <ele>406</ele>
        <time>2021-05-29T15:39:40.879Z</time>
      </trkpt>
      <trkpt lat="46.70838" lon="5.65424">
        <ele>405</ele>
        <time>2021-05-29T15:39:41.878Z</time>
      </trkpt>
      <trkpt lat="46.70838" lon="5.65423">
        <ele>405</ele>
        <time>2021-05-29T15:39:42.878Z</time>
      </trkpt>
      <trkpt lat="46.70838" lon="5.65421">
        <ele>405</ele>
        <time>2021-05-29T15:39:43.879Z</time>
      </trkpt>
      <trkpt lat="46.70838" lon="5.6542">
        <ele>405</ele>
        <time>2021-05-29T15:39:44.878Z</time>
      </trkpt>
      <trkpt lat="46.70838" lon="5.65418">
        <ele>405</ele>
        <time>2021-05-29T15:39:45.878Z</time>
      </trkpt>
      <trkpt lat="46.70838" lon="5.65416">
        <ele>405</ele>
        <time>2021-05-29T15:39:46.879Z</time>
      </trkpt>
      <trkpt lat="46.70838" lon="5.65415">
        <ele>405</ele>
        <time>2021-05-29T15:39:47.878Z</time>
      </trkpt>
      <trkpt lat="46.70838" lon="5.65414">
        <ele>405</ele>
        <time>2021-05-29T15:39:48.879Z</time>
      </trkpt>
      <trkpt lat="46.70838" lon="5.65413">
        <ele>405</ele>
        <time>2021-05-29T15:39:49.878Z</time>
      </trkpt>
      <trkpt lat="46.70838" lon="5.65411">
        <ele>404</ele>
        <time>2021-05-29T15:39:50.879Z</time>
      </trkpt>
      <trkpt lat="46.70838" lon="5.6541">
        <ele>404</ele>
        <time>2021-05-29T15:39:51.878Z</time>
      </trkpt>
      <trkpt lat="46.70838" lon="5.65409">
        <ele>404</ele>
        <time>2021-05-29T15:39:52.878Z</time>
      </trkpt>
      <trkpt lat="46.70837" lon="5.65407">
        <ele>403</ele>
        <time>2021-05-29T15:39:53.879Z</time>
      </trkpt>
      <trkpt lat="46.70837" lon="5.65406">
        <ele>403</ele>
        <time>2021-05-29T15:39:54.879Z</time>
      </trkpt>
      <trkpt lat="46.70837" lon="5.65404">
        <ele>402</ele>
        <time>2021-05-29T15:39:55.879Z</time>
      </trkpt>
      <trkpt lat="46.70837" lon="5.65403">
        <ele>402</ele>
        <time>2021-05-29T15:39:56.878Z</time>
      </trkpt>
      <trkpt lat="46.70838" lon="5.65401">
        <ele>402</ele>
        <time>2021-05-29T15:39:57.879Z</time>
      </trkpt>
      <trkpt lat="46.70838" lon="5.654">
        <ele>401</ele>
        <time>2021-05-29T15:39:58.879Z</time>
      </trkpt>
      <trkpt lat="46.70838" lon="5.65399">
        <ele>401</ele>
        <time>2021-05-29T15:39:59.878Z</time>
      </trkpt>
      <trkpt lat="46.70838" lon="5.65398">
        <ele>401</ele>
        <time>2021-05-29T15:40:00.878Z</time>
      </trkpt>
      <trkpt lat="46.70837" lon="5.65397">
        <ele>401</ele>
        <time>2021-05-29T15:40:01.878Z</time>
      </trkpt>
      <trkpt lat="46.70837" lon="5.65395">
        <ele>401</ele>
        <time>2021-05-29T15:40:02.878Z</time>
      </trkpt>
      <trkpt lat="46.70836" lon="5.65394">
        <ele>401</ele>
        <time>2021-05-29T15:40:03.879Z</time>
      </trkpt>
      <trkpt lat="46.70835" lon="5.65393">
        <ele>401</ele>
        <time>2021-05-29T15:40:04.879Z</time>
      </trkpt>
      <trkpt lat="46.70835" lon="5.65391">
        <ele>401</ele>
        <time>2021-05-29T15:40:05.878Z</time>
      </trkpt>
      <trkpt lat="46.70834" lon="5.65389">
        <ele>400</ele>
        <time>2021-05-29T15:40:06.878Z</time>
      </trkpt>
      <trkpt lat="46.70834" lon="5.65387">
        <ele>400</ele>
        <time>2021-05-29T15:40:07.879Z</time>
      </trkpt>
      <trkpt lat="46.70833" lon="5.65385">
        <ele>400</ele>
        <time>2021-05-29T15:40:08.879Z</time>
      </trkpt>
      <trkpt lat="46.70833" lon="5.65383">
        <ele>399</ele>
        <time>2021-05-29T15:40:09.878Z</time>
      </trkpt>
      <trkpt lat="46.70832" lon="5.65382">
        <ele>399</ele>
        <time>2021-05-29T15:40:10.879Z</time>
      </trkpt>
      <trkpt lat="46.70832" lon="5.6538">
        <ele>400</ele>
        <time>2021-05-29T15:40:11.878Z</time>
      </trkpt>
      <trkpt lat="46.70831" lon="5.65378">
        <ele>400</ele>
        <time>2021-05-29T15:40:12.879Z</time>
      </trkpt>
      <trkpt lat="46.7083" lon="5.65377">
        <ele>400</ele>
        <time>2021-05-29T15:40:13.879Z</time>
      </trkpt>
      <trkpt lat="46.70829" lon="5.65375">
        <ele>400</ele>
        <time>2021-05-29T15:40:14.878Z</time>
      </trkpt>
      <trkpt lat="46.70829" lon="5.65373">
        <ele>400</ele>
        <time>2021-05-29T15:40:15.879Z</time>
      </trkpt>
      <trkpt lat="46.70828" lon="5.65372">
        <ele>400</ele>
        <time>2021-05-29T15:40:16.878Z</time>
      </trkpt>
      <trkpt lat="46.70828" lon="5.65371">
        <ele>400</ele>
        <time>2021-05-29T15:40:17.878Z</time>
      </trkpt>
      <trkpt lat="46.70828" lon="5.65369">
        <ele>400</ele>
        <time>2021-05-29T15:40:18.879Z</time>
      </trkpt>
      <trkpt lat="46.70828" lon="5.65368">
        <ele>400</ele>
        <time>2021-05-29T15:40:19.878Z</time>
      </trkpt>
      <trkpt lat="46.70828" lon="5.65366">
        <ele>400</ele>
        <time>2021-05-29T15:40:20.879Z</time>
      </trkpt>
      <trkpt lat="46.70828" lon="5.65364">
        <ele>399</ele>
        <time>2021-05-29T15:40:21.879Z</time>
      </trkpt>
      <trkpt lat="46.70829" lon="5.65363">
        <ele>399</ele>
        <time>2021-05-29T15:40:22.878Z</time>
      </trkpt>
      <trkpt lat="46.70829" lon="5.65362">
        <ele>399</ele>
        <time>2021-05-29T15:40:23.879Z</time>
      </trkpt>
      <trkpt lat="46.70829" lon="5.6536">
        <ele>399</ele>
        <time>2021-05-29T15:40:24.878Z</time>
      </trkpt>
      <trkpt lat="46.70829" lon="5.65359">
        <ele>398</ele>
        <time>2021-05-29T15:40:25.878Z</time>
      </trkpt>
      <trkpt lat="46.7083" lon="5.65358">
        <ele>399</ele>
        <time>2021-05-29T15:40:26.878Z</time>
      </trkpt>
      <trkpt lat="46.7083" lon="5.65357">
        <ele>399</ele>
        <time>2021-05-29T15:40:27.879Z</time>
      </trkpt>
      <trkpt lat="46.70829" lon="5.65355">
        <ele>399</ele>
        <time>2021-05-29T15:40:28.879Z</time>
      </trkpt>
      <trkpt lat="46.70829" lon="5.65354">
        <ele>399</ele>
        <time>2021-05-29T15:40:29.879Z</time>
      </trkpt>
      <trkpt lat="46.70828" lon="5.65352">
        <ele>399</ele>
        <time>2021-05-29T15:40:30.879Z</time>
      </trkpt>
      <trkpt lat="46.70828" lon="5.65351">
        <ele>399</ele>
        <time>2021-05-29T15:40:31.879Z</time>
      </trkpt>
      <trkpt lat="46.70828" lon="5.65349">
        <ele>399</ele>
        <time>2021-05-29T15:40:32.879Z</time>
      </trkpt>
      <trkpt lat="46.70828" lon="5.65348">
        <ele>399</ele>
        <time>2021-05-29T15:40:33.878Z</time>
      </trkpt>
      <trkpt lat="46.70826" lon="5.65344">
        <ele>399</ele>
        <time>2021-05-29T15:40:34.879Z</time>
      </trkpt>
      <trkpt lat="46.70824" lon="5.65341">
        <ele>399</ele>
        <time>2021-05-29T15:40:35.878Z</time>
      </trkpt>
      <trkpt lat="46.70823" lon="5.65339">
        <ele>400</ele>
        <time>2021-05-29T15:40:36.879Z</time>
      </trkpt>
      <trkpt lat="46.70823" lon="5.65338">
        <ele>400</ele>
        <time>2021-05-29T15:40:37.878Z</time>
      </trkpt>
      <trkpt lat="46.70823" lon="5.65336">
        <ele>400</ele>
        <time>2021-05-29T15:40:38.879Z</time>
      </trkpt>
      <trkpt lat="46.70823" lon="5.65335">
        <ele>401</ele>
        <time>2021-05-29T15:40:39.879Z</time>
      </trkpt>
      <trkpt lat="46.70822" lon="5.65332">
        <ele>401</ele>
        <time>2021-05-29T15:40:40.879Z</time>
      </trkpt>
      <trkpt lat="46.70821" lon="5.65331">
        <ele>401</ele>
        <time>2021-05-29T15:40:41.878Z</time>
      </trkpt>
      <trkpt lat="46.70821" lon="5.6533">
        <ele>401</ele>
        <time>2021-05-29T15:40:42.879Z</time>
      </trkpt>
      <trkpt lat="46.70821" lon="5.65329">
        <ele>401</ele>
        <time>2021-05-29T15:40:43.879Z</time>
      </trkpt>
      <trkpt lat="46.7082" lon="5.65328">
        <ele>401</ele>
        <time>2021-05-29T15:40:44.879Z</time>
      </trkpt>
      <trkpt lat="46.7082" lon="5.65327">
        <ele>401</ele>
        <time>2021-05-29T15:40:45.879Z</time>
      </trkpt>
      <trkpt lat="46.70819" lon="5.65325">
        <ele>400</ele>
        <time>2021-05-29T15:40:46.879Z</time>
      </trkpt>
      <trkpt lat="46.70819" lon="5.65324">
        <ele>400</ele>
        <time>2021-05-29T15:40:47.879Z</time>
      </trkpt>
      <trkpt lat="46.70819" lon="5.65323">
        <ele>400</ele>
        <time>2021-05-29T15:40:48.878Z</time>
      </trkpt>
      <trkpt lat="46.70819" lon="5.65322">
        <ele>400</ele>
        <time>2021-05-29T15:40:49.878Z</time>
      </trkpt>
      <trkpt lat="46.70819" lon="5.65321">
        <ele>399</ele>
        <time>2021-05-29T15:40:50.878Z</time>
      </trkpt>
      <trkpt lat="46.70819" lon="5.65319">
        <ele>399</ele>
        <time>2021-05-29T15:40:51.879Z</time>
      </trkpt>
      <trkpt lat="46.70819" lon="5.65318">
        <ele>398</ele>
        <time>2021-05-29T15:40:52.879Z</time>
      </trkpt>
      <trkpt lat="46.70819" lon="5.65317">
        <ele>398</ele>
        <time>2021-05-29T15:40:53.879Z</time>
      </trkpt>
      <trkpt lat="46.70818" lon="5.65315">
        <ele>398</ele>
        <time>2021-05-29T15:40:54.878Z</time>
      </trkpt>
      <trkpt lat="46.70818" lon="5.65314">
        <ele>399</ele>
        <time>2021-05-29T15:40:55.879Z</time>
      </trkpt>
      <trkpt lat="46.70817" lon="5.65312">
        <ele>399</ele>
        <time>2021-05-29T15:40:56.879Z</time>
      </trkpt>
      <trkpt lat="46.70816" lon="5.65311">
        <ele>399</ele>
        <time>2021-05-29T15:40:57.879Z</time>
      </trkpt>
      <trkpt lat="46.70816" lon="5.65309">
        <ele>399</ele>
        <time>2021-05-29T15:40:58.879Z</time>
      </trkpt>
      <trkpt lat="46.70816" lon="5.65308">
        <ele>399</ele>
        <time>2021-05-29T15:40:59.879Z</time>
      </trkpt>
      <trkpt lat="46.70815" lon="5.65305">
        <ele>399</ele>
        <time>2021-05-29T15:41:00.878Z</time>
      </trkpt>
      <trkpt lat="46.70815" lon="5.65303">
        <ele>398</ele>
        <time>2021-05-29T15:41:01.879Z</time>
      </trkpt>
      <trkpt lat="46.70814" lon="5.65302">
        <ele>398</ele>
        <time>2021-05-29T15:41:02.879Z</time>
      </trkpt>
      <trkpt lat="46.70814" lon="5.65301">
        <ele>398</ele>
        <time>2021-05-29T15:41:03.879Z</time>
      </trkpt>
      <trkpt lat="46.70814" lon="5.653">
        <ele>398</ele>
        <time>2021-05-29T15:41:04.879Z</time>
      </trkpt>
      <trkpt lat="46.70813" lon="5.65298">
        <ele>398</ele>
        <time>2021-05-29T15:41:05.879Z</time>
      </trkpt>
      <trkpt lat="46.70813" lon="5.65297">
        <ele>398</ele>
        <time>2021-05-29T15:41:06.878Z</time>
      </trkpt>
      <trkpt lat="46.70813" lon="5.65296">
        <ele>398</ele>
        <time>2021-05-29T15:41:07.878Z</time>
      </trkpt>
      <trkpt lat="46.70813" lon="5.65295">
        <ele>398</ele>
        <time>2021-05-29T15:41:08.879Z</time>
      </trkpt>
      <trkpt lat="46.70813" lon="5.65294">
        <ele>397</ele>
        <time>2021-05-29T15:41:09.879Z</time>
      </trkpt>
      <trkpt lat="46.70812" lon="5.65293">
        <ele>397</ele>
        <time>2021-05-29T15:41:10.878Z</time>
      </trkpt>
      <trkpt lat="46.70812" lon="5.65292">
        <ele>396</ele>
        <time>2021-05-29T15:41:11.879Z</time>
      </trkpt>
      <trkpt lat="46.70812" lon="5.6529">
        <ele>396</ele>
        <time>2021-05-29T15:41:12.879Z</time>
      </trkpt>
      <trkpt lat="46.70811" lon="5.65289">
        <ele>395</ele>
        <time>2021-05-29T15:41:13.878Z</time>
      </trkpt>
      <trkpt lat="46.70811" lon="5.65287">
        <ele>394</ele>
        <time>2021-05-29T15:41:14.879Z</time>
      </trkpt>
      <trkpt lat="46.70811" lon="5.65286">
        <ele>394</ele>
        <time>2021-05-29T15:41:15.879Z</time>
      </trkpt>
      <trkpt lat="46.70811" lon="5.65285">
        <ele>393</ele>
        <time>2021-05-29T15:41:16.879Z</time>
      </trkpt>
      <trkpt lat="46.70811" lon="5.65284">
        <ele>393</ele>
        <time>2021-05-29T15:41:17.879Z</time>
      </trkpt>
      <trkpt lat="46.7081" lon="5.65282">
        <ele>392</ele>
        <time>2021-05-29T15:41:18.879Z</time>
      </trkpt>
      <trkpt lat="46.70809" lon="5.65281">
        <ele>392</ele>
        <time>2021-05-29T15:41:19.878Z</time>
      </trkpt>
      <trkpt lat="46.70808" lon="5.65279">
        <ele>392</ele>
        <time>2021-05-29T15:41:20.878Z</time>
      </trkpt>
      <trkpt lat="46.70808" lon="5.65277">
        <ele>392</ele>
        <time>2021-05-29T15:41:21.879Z</time>
      </trkpt>
      <trkpt lat="46.70807" lon="5.65275">
        <ele>392</ele>
        <time>2021-05-29T15:41:22.879Z</time>
      </trkpt>
      <trkpt lat="46.70806" lon="5.65273">
        <ele>392</ele>
        <time>2021-05-29T15:41:23.878Z</time>
      </trkpt>
      <trkpt lat="46.70806" lon="5.65271">
        <ele>392</ele>
        <time>2021-05-29T15:41:24.879Z</time>
      </trkpt>
      <trkpt lat="46.70805" lon="5.6527">
        <ele>393</ele>
        <time>2021-05-29T15:41:25.878Z</time>
      </trkpt>
      <trkpt lat="46.70804" lon="5.65268">
        <ele>393</ele>
        <time>2021-05-29T15:41:26.878Z</time>
      </trkpt>
      <trkpt lat="46.70804" lon="5.65267">
        <ele>393</ele>
        <time>2021-05-29T15:41:27.879Z</time>
      </trkpt>
      <trkpt lat="46.70804" lon="5.65266">
        <ele>393</ele>
        <time>2021-05-29T15:41:28.879Z</time>
      </trkpt>
      <trkpt lat="46.70803" lon="5.65263">
        <ele>394</ele>
        <time>2021-05-29T15:41:29.879Z</time>
      </trkpt>
      <trkpt lat="46.70802" lon="5.65262">
        <ele>394</ele>
        <time>2021-05-29T15:41:30.878Z</time>
      </trkpt>
      <trkpt lat="46.70801" lon="5.6526">
        <ele>395</ele>
        <time>2021-05-29T15:41:31.879Z</time>
      </trkpt>
      <trkpt lat="46.70801" lon="5.65258">
        <ele>395</ele>
        <time>2021-05-29T15:41:32.878Z</time>
      </trkpt>
      <trkpt lat="46.708" lon="5.65257">
        <ele>395</ele>
        <time>2021-05-29T15:41:33.879Z</time>
      </trkpt>
      <trkpt lat="46.70799" lon="5.65256">
        <ele>395</ele>
        <time>2021-05-29T15:41:34.879Z</time>
      </trkpt>
      <trkpt lat="46.70799" lon="5.65254">
        <ele>395</ele>
        <time>2021-05-29T15:41:35.878Z</time>
      </trkpt>
      <trkpt lat="46.70798" lon="5.65252">
        <ele>394</ele>
        <time>2021-05-29T15:41:36.878Z</time>
      </trkpt>
      <trkpt lat="46.70797" lon="5.6525">
        <ele>394</ele>
        <time>2021-05-29T15:41:37.878Z</time>
      </trkpt>
      <trkpt lat="46.70797" lon="5.65249">
        <ele>394</ele>
        <time>2021-05-29T15:41:38.879Z</time>
      </trkpt>
      <trkpt lat="46.70798" lon="5.65248">
        <ele>393</ele>
        <time>2021-05-29T15:41:39.878Z</time>
      </trkpt>
      <trkpt lat="46.70798" lon="5.65246">
        <ele>393</ele>
        <time>2021-05-29T15:41:40.879Z</time>
      </trkpt>
      <trkpt lat="46.70798" lon="5.65245">
        <ele>392</ele>
        <time>2021-05-29T15:41:41.878Z</time>
      </trkpt>
      <trkpt lat="46.70797" lon="5.65242">
        <ele>392</ele>
        <time>2021-05-29T15:41:42.879Z</time>
      </trkpt>
      <trkpt lat="46.70796" lon="5.6524">
        <ele>392</ele>
        <time>2021-05-29T15:41:43.879Z</time>
      </trkpt>
      <trkpt lat="46.70795" lon="5.65238">
        <ele>391</ele>
        <time>2021-05-29T15:41:44.879Z</time>
      </trkpt>
      <trkpt lat="46.70794" lon="5.65236">
        <ele>391</ele>
        <time>2021-05-29T15:41:45.879Z</time>
      </trkpt>
      <trkpt lat="46.70793" lon="5.65234">
        <ele>390</ele>
        <time>2021-05-29T15:41:46.879Z</time>
      </trkpt>
      <trkpt lat="46.70793" lon="5.65232">
        <ele>390</ele>
        <time>2021-05-29T15:41:47.879Z</time>
      </trkpt>
      <trkpt lat="46.70792" lon="5.65231">
        <ele>390</ele>
        <time>2021-05-29T15:41:48.879Z</time>
      </trkpt>
      <trkpt lat="46.70793" lon="5.6523">
        <ele>389</ele>
        <time>2021-05-29T15:41:49.879Z</time>
      </trkpt>
      <trkpt lat="46.70792" lon="5.65229">
        <ele>389</ele>
        <time>2021-05-29T15:41:50.879Z</time>
      </trkpt>
      <trkpt lat="46.70792" lon="5.65228">
        <ele>388</ele>
        <time>2021-05-29T15:41:51.878Z</time>
      </trkpt>
      <trkpt lat="46.70791" lon="5.65225">
        <ele>388</ele>
        <time>2021-05-29T15:41:52.878Z</time>
      </trkpt>
      <trkpt lat="46.70791" lon="5.65224">
        <ele>387</ele>
        <time>2021-05-29T15:41:53.878Z</time>
      </trkpt>
      <trkpt lat="46.7079" lon="5.65223">
        <ele>387</ele>
        <time>2021-05-29T15:41:54.879Z</time>
      </trkpt>
      <trkpt lat="46.7079" lon="5.65221">
        <ele>387</ele>
        <time>2021-05-29T15:41:55.879Z</time>
      </trkpt>
      <trkpt lat="46.7079" lon="5.6522">
        <ele>387</ele>
        <time>2021-05-29T15:41:56.878Z</time>
      </trkpt>
      <trkpt lat="46.7079" lon="5.6522">
        <ele>386</ele>
        <time>2021-05-29T15:41:57.879Z</time>
      </trkpt>
      <trkpt lat="46.70789" lon="5.65218">
        <ele>386</ele>
        <time>2021-05-29T15:41:58.879Z</time>
      </trkpt>
      <trkpt lat="46.70789" lon="5.65217">
        <ele>386</ele>
        <time>2021-05-29T15:41:59.879Z</time>
      </trkpt>
      <trkpt lat="46.70789" lon="5.65215">
        <ele>385</ele>
        <time>2021-05-29T15:42:00.879Z</time>
      </trkpt>
      <trkpt lat="46.70789" lon="5.65214">
        <ele>384</ele>
        <time>2021-05-29T15:42:01.878Z</time>
      </trkpt>
      <trkpt lat="46.70789" lon="5.65213">
        <ele>384</ele>
        <time>2021-05-29T15:42:02.879Z</time>
      </trkpt>
      <trkpt lat="46.70789" lon="5.65213">
        <ele>383</ele>
        <time>2021-05-29T15:42:03.878Z</time>
      </trkpt>
      <trkpt lat="46.70789" lon="5.65212">
        <ele>382</ele>
        <time>2021-05-29T15:42:04.879Z</time>
      </trkpt>
      <trkpt lat="46.70789" lon="5.65211">
        <ele>382</ele>
        <time>2021-05-29T15:42:05.878Z</time>
      </trkpt>
      <trkpt lat="46.70789" lon="5.65209">
        <ele>382</ele>
        <time>2021-05-29T15:42:06.879Z</time>
      </trkpt>
      <trkpt lat="46.70789" lon="5.65208">
        <ele>381</ele>
        <time>2021-05-29T15:42:07.878Z</time>
      </trkpt>
      <trkpt lat="46.7079" lon="5.65207">
        <ele>381</ele>
        <time>2021-05-29T15:42:08.878Z</time>
      </trkpt>
      <trkpt lat="46.7079" lon="5.65206">
        <ele>380</ele>
        <time>2021-05-29T15:42:09.879Z</time>
      </trkpt>
      <trkpt lat="46.7079" lon="5.65205">
        <ele>379</ele>
        <time>2021-05-29T15:42:10.879Z</time>
      </trkpt>
      <trkpt lat="46.70791" lon="5.65203">
        <ele>379</ele>
        <time>2021-05-29T15:42:11.878Z</time>
      </trkpt>
      <trkpt lat="46.70791" lon="5.65202">
        <ele>378</ele>
        <time>2021-05-29T15:42:12.878Z</time>
      </trkpt>
      <trkpt lat="46.70791" lon="5.652">
        <ele>378</ele>
        <time>2021-05-29T15:42:13.879Z</time>
      </trkpt>
      <trkpt lat="46.70791" lon="5.65199">
        <ele>378</ele>
        <time>2021-05-29T15:42:14.879Z</time>
      </trkpt>
      <trkpt lat="46.70792" lon="5.65197">
        <ele>379</ele>
        <time>2021-05-29T15:42:15.879Z</time>
      </trkpt>
      <trkpt lat="46.70792" lon="5.65196">
        <ele>379</ele>
        <time>2021-05-29T15:42:16.879Z</time>
      </trkpt>
      <trkpt lat="46.70792" lon="5.65193">
        <ele>380</ele>
        <time>2021-05-29T15:42:17.879Z</time>
      </trkpt>
      <trkpt lat="46.70793" lon="5.65191">
        <ele>380</ele>
        <time>2021-05-29T15:42:18.879Z</time>
      </trkpt>
      <trkpt lat="46.70794" lon="5.65191">
        <ele>380</ele>
        <time>2021-05-29T15:42:19.879Z</time>
      </trkpt>
      <trkpt lat="46.70794" lon="5.65189">
        <ele>380</ele>
        <time>2021-05-29T15:42:20.879Z</time>
      </trkpt>
      <trkpt lat="46.70794" lon="5.65188">
        <ele>380</ele>
        <time>2021-05-29T15:42:21.878Z</time>
      </trkpt>
      <trkpt lat="46.70795" lon="5.65188">
        <ele>380</ele>
        <time>2021-05-29T15:42:22.879Z</time>
      </trkpt>
      <trkpt lat="46.70796" lon="5.65188">
        <ele>380</ele>
        <time>2021-05-29T15:42:23.879Z</time>
      </trkpt>
      <trkpt lat="46.70797" lon="5.65188">
        <ele>380</ele>
        <time>2021-05-29T15:42:24.879Z</time>
      </trkpt>
      <trkpt lat="46.70798" lon="5.65188">
        <ele>380</ele>
        <time>2021-05-29T15:42:25.879Z</time>
      </trkpt>
      <trkpt lat="46.70799" lon="5.65188">
        <ele>380</ele>
        <time>2021-05-29T15:42:26.879Z</time>
      </trkpt>
      <trkpt lat="46.70799" lon="5.65187">
        <ele>379</ele>
        <time>2021-05-29T15:42:27.879Z</time>
      </trkpt>
      <trkpt lat="46.708" lon="5.65188">
        <ele>378</ele>
        <time>2021-05-29T15:42:28.879Z</time>
      </trkpt>
      <trkpt lat="46.708" lon="5.65188">
        <ele>378</ele>
        <time>2021-05-29T15:42:29.879Z</time>
      </trkpt>
      <trkpt lat="46.708" lon="5.65187">
        <ele>378</ele>
        <time>2021-05-29T15:42:30.879Z</time>
      </trkpt>
      <trkpt lat="46.70799" lon="5.65187">
        <ele>378</ele>
        <time>2021-05-29T15:42:31.879Z</time>
      </trkpt>
      <trkpt lat="46.70799" lon="5.65186">
        <ele>378</ele>
        <time>2021-05-29T15:42:32.879Z</time>
      </trkpt>
      <trkpt lat="46.70799" lon="5.65185">
        <ele>378</ele>
        <time>2021-05-29T15:42:33.878Z</time>
      </trkpt>
      <trkpt lat="46.70799" lon="5.65184">
        <ele>377</ele>
        <time>2021-05-29T15:42:34.879Z</time>
      </trkpt>
      <trkpt lat="46.70798" lon="5.65184">
        <ele>377</ele>
        <time>2021-05-29T15:42:35.879Z</time>
      </trkpt>
      <trkpt lat="46.70798" lon="5.65183">
        <ele>377</ele>
        <time>2021-05-29T15:42:36.878Z</time>
      </trkpt>
      <trkpt lat="46.70798" lon="5.65182">
        <ele>377</ele>
        <time>2021-05-29T15:42:37.879Z</time>
      </trkpt>
      <trkpt lat="46.70799" lon="5.65182">
        <ele>376</ele>
        <time>2021-05-29T15:42:38.879Z</time>
      </trkpt>
      <trkpt lat="46.70799" lon="5.65181">
        <ele>376</ele>
        <time>2021-05-29T15:42:39.878Z</time>
      </trkpt>
      <trkpt lat="46.708" lon="5.65181">
        <ele>376</ele>
        <time>2021-05-29T15:42:40.879Z</time>
      </trkpt>
      <trkpt lat="46.708" lon="5.65181">
        <ele>376</ele>
        <time>2021-05-29T15:42:41.879Z</time>
      </trkpt>
      <trkpt lat="46.708" lon="5.65181">
        <ele>375</ele>
        <time>2021-05-29T15:42:42.879Z</time>
      </trkpt>
      <trkpt lat="46.708" lon="5.6518">
        <ele>375</ele>
        <time>2021-05-29T15:42:43.879Z</time>
      </trkpt>
      <trkpt lat="46.70801" lon="5.65179">
        <ele>375</ele>
        <time>2021-05-29T15:42:44.878Z</time>
      </trkpt>
      <trkpt lat="46.70801" lon="5.65178">
        <ele>374</ele>
        <time>2021-05-29T15:42:45.879Z</time>
      </trkpt>
      <trkpt lat="46.70801" lon="5.65176">
        <ele>374</ele>
        <time>2021-05-29T15:42:46.879Z</time>
      </trkpt>
      <trkpt lat="46.70801" lon="5.65175">
        <ele>374</ele>
        <time>2021-05-29T15:42:47.879Z</time>
      </trkpt>
      <trkpt lat="46.70802" lon="5.65173">
        <ele>374</ele>
        <time>2021-05-29T15:42:48.879Z</time>
      </trkpt>
      <trkpt lat="46.70802" lon="5.65172">
        <ele>375</ele>
        <time>2021-05-29T15:42:49.878Z</time>
      </trkpt>
      <trkpt lat="46.70803" lon="5.65171">
        <ele>375</ele>
        <time>2021-05-29T15:42:50.879Z</time>
      </trkpt>
      <trkpt lat="46.70804" lon="5.65169">
        <ele>375</ele>
        <time>2021-05-29T15:42:51.878Z</time>
      </trkpt>
      <trkpt lat="46.70804" lon="5.65167">
        <ele>375</ele>
        <time>2021-05-29T15:42:52.879Z</time>
      </trkpt>
      <trkpt lat="46.70804" lon="5.65165">
        <ele>374</ele>
        <time>2021-05-29T15:42:53.879Z</time>
      </trkpt>
      <trkpt lat="46.70805" lon="5.65164">
        <ele>374</ele>
        <time>2021-05-29T15:42:54.879Z</time>
      </trkpt>
      <trkpt lat="46.70805" lon="5.65163">
        <ele>374</ele>
        <time>2021-05-29T15:42:55.879Z</time>
      </trkpt>
      <trkpt lat="46.70805" lon="5.65162">
        <ele>374</ele>
        <time>2021-05-29T15:42:56.878Z</time>
      </trkpt>
      <trkpt lat="46.70806" lon="5.6516">
        <ele>374</ele>
        <time>2021-05-29T15:42:57.879Z</time>
      </trkpt>
      <trkpt lat="46.70806" lon="5.65157">
        <ele>374</ele>
        <time>2021-05-29T15:42:58.879Z</time>
      </trkpt>
      <trkpt lat="46.70807" lon="5.65155">
        <ele>374</ele>
        <time>2021-05-29T15:42:59.879Z</time>
      </trkpt>
      <trkpt lat="46.70807" lon="5.65153">
        <ele>373</ele>
        <time>2021-05-29T15:43:00.879Z</time>
      </trkpt>
      <trkpt lat="46.70807" lon="5.65151">
        <ele>373</ele>
        <time>2021-05-29T15:43:01.879Z</time>
      </trkpt>
      <trkpt lat="46.70807" lon="5.65149">
        <ele>373</ele>
        <time>2021-05-29T15:43:02.878Z</time>
      </trkpt>
      <trkpt lat="46.70808" lon="5.65147">
        <ele>372</ele>
        <time>2021-05-29T15:43:03.879Z</time>
      </trkpt>
      <trkpt lat="46.70808" lon="5.65146">
        <ele>372</ele>
        <time>2021-05-29T15:43:04.879Z</time>
      </trkpt>
      <trkpt lat="46.70809" lon="5.65145">
        <ele>372</ele>
        <time>2021-05-29T15:43:05.879Z</time>
      </trkpt>
      <trkpt lat="46.70809" lon="5.65146">
        <ele>372</ele>
        <time>2021-05-29T15:43:06.878Z</time>
      </trkpt>
      <trkpt lat="46.70809" lon="5.65144">
        <ele>371</ele>
        <time>2021-05-29T15:43:07.879Z</time>
      </trkpt>
      <trkpt lat="46.70809" lon="5.65142">
        <ele>371</ele>
        <time>2021-05-29T15:43:08.879Z</time>
      </trkpt>
      <trkpt lat="46.7081" lon="5.65141">
        <ele>371</ele>
        <time>2021-05-29T15:43:09.879Z</time>
      </trkpt>
      <trkpt lat="46.7081" lon="5.65139">
        <ele>370</ele>
        <time>2021-05-29T15:43:10.879Z</time>
      </trkpt>
      <trkpt lat="46.70811" lon="5.65137">
        <ele>370</ele>
        <time>2021-05-29T15:43:11.879Z</time>
      </trkpt>
      <trkpt lat="46.70812" lon="5.65136">
        <ele>370</ele>
        <time>2021-05-29T15:43:12.879Z</time>
      </trkpt>
      <trkpt lat="46.70813" lon="5.65134">
        <ele>370</ele>
        <time>2021-05-29T15:43:13.878Z</time>
      </trkpt>
      <trkpt lat="46.70813" lon="5.65132">
        <ele>370</ele>
        <time>2021-05-29T15:43:14.879Z</time>
      </trkpt>
      <trkpt lat="46.70814" lon="5.65129">
        <ele>370</ele>
        <time>2021-05-29T15:43:15.879Z</time>
      </trkpt>
      <trkpt lat="46.70815" lon="5.65128">
        <ele>370</ele>
        <time>2021-05-29T15:43:16.878Z</time>
      </trkpt>
      <trkpt lat="46.70815" lon="5.65126">
        <ele>370</ele>
        <time>2021-05-29T15:43:17.878Z</time>
      </trkpt>
      <trkpt lat="46.70815" lon="5.65125">
        <ele>370</ele>
        <time>2021-05-29T15:43:18.879Z</time>
      </trkpt>
      <trkpt lat="46.70815" lon="5.65125">
        <ele>370</ele>
        <time>2021-05-29T15:43:19.879Z</time>
      </trkpt>
      <trkpt lat="46.70815" lon="5.65124">
        <ele>370</ele>
        <time>2021-05-29T15:43:20.878Z</time>
      </trkpt>
      <trkpt lat="46.70815" lon="5.65124">
        <ele>370</ele>
        <time>2021-05-29T15:43:21.878Z</time>
      </trkpt>
      <trkpt lat="46.70815" lon="5.65123">
        <ele>369</ele>
        <time>2021-05-29T15:43:22.879Z</time>
      </trkpt>
      <trkpt lat="46.70816" lon="5.65121">
        <ele>369</ele>
        <time>2021-05-29T15:43:23.879Z</time>
      </trkpt>
      <trkpt lat="46.70816" lon="5.65119">
        <ele>368</ele>
        <time>2021-05-29T15:43:24.879Z</time>
      </trkpt>
      <trkpt lat="46.70817" lon="5.65117">
        <ele>368</ele>
        <time>2021-05-29T15:43:25.878Z</time>
      </trkpt>
      <trkpt lat="46.70817" lon="5.65115">
        <ele>367</ele>
        <time>2021-05-29T15:43:26.879Z</time>
      </trkpt>
      <trkpt lat="46.70817" lon="5.65113">
        <ele>367</ele>
        <time>2021-05-29T15:43:27.878Z</time>
      </trkpt>
      <trkpt lat="46.70818" lon="5.65112">
        <ele>367</ele>
        <time>2021-05-29T15:43:28.879Z</time>
      </trkpt>
      <trkpt lat="46.70818" lon="5.6511">
        <ele>367</ele>
        <time>2021-05-29T15:43:29.878Z</time>
      </trkpt>
      <trkpt lat="46.70819" lon="5.65109">
        <ele>367</ele>
        <time>2021-05-29T15:43:30.879Z</time>
      </trkpt>
      <trkpt lat="46.7082" lon="5.65108">
        <ele>366</ele>
        <time>2021-05-29T15:43:31.879Z</time>
      </trkpt>
      <trkpt lat="46.7082" lon="5.65107">
        <ele>366</ele>
        <time>2021-05-29T15:43:32.878Z</time>
      </trkpt>
      <trkpt lat="46.70821" lon="5.65105">
        <ele>365</ele>
        <time>2021-05-29T15:43:33.879Z</time>
      </trkpt>
      <trkpt lat="46.70822" lon="5.65103">
        <ele>365</ele>
        <time>2021-05-29T15:43:34.879Z</time>
      </trkpt>
      <trkpt lat="46.70822" lon="5.65101">
        <ele>364</ele>
        <time>2021-05-29T15:43:35.879Z</time>
      </trkpt>
      <trkpt lat="46.70822" lon="5.65099">
        <ele>364</ele>
        <time>2021-05-29T15:43:36.878Z</time>
      </trkpt>
      <trkpt lat="46.70823" lon="5.65097">
        <ele>364</ele>
        <time>2021-05-29T15:43:37.878Z</time>
      </trkpt>
      <trkpt lat="46.70823" lon="5.65096">
        <ele>363</ele>
        <time>2021-05-29T15:43:38.878Z</time>
      </trkpt>
      <trkpt lat="46.70823" lon="5.65093">
        <ele>363</ele>
        <time>2021-05-29T15:43:39.879Z</time>
      </trkpt>
      <trkpt lat="46.70823" lon="5.65091">
        <ele>363</ele>
        <time>2021-05-29T15:43:40.878Z</time>
      </trkpt>
      <trkpt lat="46.70823" lon="5.6509">
        <ele>363</ele>
        <time>2021-05-29T15:43:41.878Z</time>
      </trkpt>
      <trkpt lat="46.70824" lon="5.65089">
        <ele>363</ele>
        <time>2021-05-29T15:43:42.879Z</time>
      </trkpt>
      <trkpt lat="46.70824" lon="5.65087">
        <ele>363</ele>
        <time>2021-05-29T15:43:43.879Z</time>
      </trkpt>
      <trkpt lat="46.70824" lon="5.65086">
        <ele>362</ele>
        <time>2021-05-29T15:43:44.879Z</time>
      </trkpt>
      <trkpt lat="46.70825" lon="5.65084">
        <ele>362</ele>
        <time>2021-05-29T15:43:45.878Z</time>
      </trkpt>
      <trkpt lat="46.70825" lon="5.65082">
        <ele>362</ele>
        <time>2021-05-29T15:43:46.879Z</time>
      </trkpt>
      <trkpt lat="46.70826" lon="5.65081">
        <ele>361</ele>
        <time>2021-05-29T15:43:47.879Z</time>
      </trkpt>
      <trkpt lat="46.70826" lon="5.65079">
        <ele>361</ele>
        <time>2021-05-29T15:43:48.879Z</time>
      </trkpt>
      <trkpt lat="46.70827" lon="5.65078">
        <ele>361</ele>
        <time>2021-05-29T15:43:49.879Z</time>
      </trkpt>
      <trkpt lat="46.70827" lon="5.65076">
        <ele>361</ele>
        <time>2021-05-29T15:43:50.879Z</time>
      </trkpt>
      <trkpt lat="46.70827" lon="5.65075">
        <ele>362</ele>
        <time>2021-05-29T15:43:51.879Z</time>
      </trkpt>
      <trkpt lat="46.70827" lon="5.65073">
        <ele>362</ele>
        <time>2021-05-29T15:43:52.879Z</time>
      </trkpt>
      <trkpt lat="46.70828" lon="5.65072">
        <ele>362</ele>
        <time>2021-05-29T15:43:53.878Z</time>
      </trkpt>
      <trkpt lat="46.70828" lon="5.65071">
        <ele>362</ele>
        <time>2021-05-29T15:43:54.879Z</time>
      </trkpt>
      <trkpt lat="46.70828" lon="5.6507">
        <ele>362</ele>
        <time>2021-05-29T15:43:55.879Z</time>
      </trkpt>
      <trkpt lat="46.70828" lon="5.65069">
        <ele>362</ele>
        <time>2021-05-29T15:43:56.879Z</time>
      </trkpt>
      <trkpt lat="46.70829" lon="5.65069">
        <ele>362</ele>
        <time>2021-05-29T15:43:57.878Z</time>
      </trkpt>
      <trkpt lat="46.70829" lon="5.65069">
        <ele>362</ele>
        <time>2021-05-29T15:43:58.878Z</time>
      </trkpt>
      <trkpt lat="46.7083" lon="5.65068">
        <ele>362</ele>
        <time>2021-05-29T15:43:59.879Z</time>
      </trkpt>
      <trkpt lat="46.7083" lon="5.65068">
        <ele>362</ele>
        <time>2021-05-29T15:44:00.879Z</time>
      </trkpt>
      <trkpt lat="46.7083" lon="5.65068">
        <ele>362</ele>
        <time>2021-05-29T15:44:01.879Z</time>
      </trkpt>
      <trkpt lat="46.7083" lon="5.65066">
        <ele>362</ele>
        <time>2021-05-29T15:44:02.879Z</time>
      </trkpt>
      <trkpt lat="46.70831" lon="5.65065">
        <ele>362</ele>
        <time>2021-05-29T15:44:03.879Z</time>
      </trkpt>
      <trkpt lat="46.70831" lon="5.65063">
        <ele>362</ele>
        <time>2021-05-29T15:44:04.878Z</time>
      </trkpt>
      <trkpt lat="46.70831" lon="5.65061">
        <ele>362</ele>
        <time>2021-05-29T15:44:05.879Z</time>
      </trkpt>
      <trkpt lat="46.70831" lon="5.65059">
        <ele>361</ele>
        <time>2021-05-29T15:44:06.879Z</time>
      </trkpt>
      <trkpt lat="46.70832" lon="5.65056">
        <ele>361</ele>
        <time>2021-05-29T15:44:07.879Z</time>
      </trkpt>
      <trkpt lat="46.70832" lon="5.65053">
        <ele>362</ele>
        <time>2021-05-29T15:44:08.879Z</time>
      </trkpt>
      <trkpt lat="46.70831" lon="5.6505">
        <ele>362</ele>
        <time>2021-05-29T15:44:09.878Z</time>
      </trkpt>
      <trkpt lat="46.70831" lon="5.65048">
        <ele>362</ele>
        <time>2021-05-29T15:44:10.879Z</time>
      </trkpt>
      <trkpt lat="46.70831" lon="5.65045">
        <ele>362</ele>
        <time>2021-05-29T15:44:11.879Z</time>
      </trkpt>
      <trkpt lat="46.70832" lon="5.65043">
        <ele>361</ele>
        <time>2021-05-29T15:44:12.878Z</time>
      </trkpt>
      <trkpt lat="46.70832" lon="5.6504">
        <ele>361</ele>
        <time>2021-05-29T15:44:13.878Z</time>
      </trkpt>
      <trkpt lat="46.70833" lon="5.65038">
        <ele>361</ele>
        <time>2021-05-29T15:44:14.879Z</time>
      </trkpt>
      <trkpt lat="46.70833" lon="5.65037">
        <ele>361</ele>
        <time>2021-05-29T15:44:15.878Z</time>
      </trkpt>
      <trkpt lat="46.70834" lon="5.65035">
        <ele>360</ele>
        <time>2021-05-29T15:44:16.879Z</time>
      </trkpt>
      <trkpt lat="46.70834" lon="5.65034">
        <ele>360</ele>
        <time>2021-05-29T15:44:17.879Z</time>
      </trkpt>
      <trkpt lat="46.70834" lon="5.65033">
        <ele>360</ele>
        <time>2021-05-29T15:44:18.878Z</time>
      </trkpt>
      <trkpt lat="46.70834" lon="5.65032">
        <ele>359</ele>
        <time>2021-05-29T15:44:19.879Z</time>
      </trkpt>
      <trkpt lat="46.70834" lon="5.65031">
        <ele>359</ele>
        <time>2021-05-29T15:44:20.879Z</time>
      </trkpt>
      <trkpt lat="46.70835" lon="5.65029">
        <ele>358</ele>
        <time>2021-05-29T15:44:21.879Z</time>
      </trkpt>
      <trkpt lat="46.70835" lon="5.65026">
        <ele>358</ele>
        <time>2021-05-29T15:44:22.879Z</time>
      </trkpt>
      <trkpt lat="46.70835" lon="5.65025">
        <ele>358</ele>
        <time>2021-05-29T15:44:23.878Z</time>
      </trkpt>
      <trkpt lat="46.70835" lon="5.65023">
        <ele>358</ele>
        <time>2021-05-29T15:44:24.878Z</time>
      </trkpt>
      <trkpt lat="46.70835" lon="5.65021">
        <ele>358</ele>
        <time>2021-05-29T15:44:25.879Z</time>
      </trkpt>
      <trkpt lat="46.70835" lon="5.65019">
        <ele>358</ele>
        <time>2021-05-29T15:44:26.878Z</time>
      </trkpt>
      <trkpt lat="46.70835" lon="5.65017">
        <ele>358</ele>
        <time>2021-05-29T15:44:27.879Z</time>
      </trkpt>
      <trkpt lat="46.70834" lon="5.65015">
        <ele>358</ele>
        <time>2021-05-29T15:44:28.878Z</time>
      </trkpt>
      <trkpt lat="46.70834" lon="5.65014">
        <ele>358</ele>
        <time>2021-05-29T15:44:29.878Z</time>
      </trkpt>
      <trkpt lat="46.70834" lon="5.65013">
        <ele>358</ele>
        <time>2021-05-29T15:44:30.879Z</time>
      </trkpt>
      <trkpt lat="46.70834" lon="5.65011">
        <ele>358</ele>
        <time>2021-05-29T15:44:31.879Z</time>
      </trkpt>
      <trkpt lat="46.70834" lon="5.65009">
        <ele>358</ele>
        <time>2021-05-29T15:44:32.879Z</time>
      </trkpt>
      <trkpt lat="46.70834" lon="5.65008">
        <ele>358</ele>
        <time>2021-05-29T15:44:33.879Z</time>
      </trkpt>
      <trkpt lat="46.70834" lon="5.65007">
        <ele>357</ele>
        <time>2021-05-29T15:44:34.878Z</time>
      </trkpt>
      <trkpt lat="46.70835" lon="5.65006">
        <ele>357</ele>
        <time>2021-05-29T15:44:35.878Z</time>
      </trkpt>
      <trkpt lat="46.70835" lon="5.65005">
        <ele>357</ele>
        <time>2021-05-29T15:44:36.878Z</time>
      </trkpt>
      <trkpt lat="46.70835" lon="5.65004">
        <ele>356</ele>
        <time>2021-05-29T15:44:37.879Z</time>
      </trkpt>
      <trkpt lat="46.70835" lon="5.65002">
        <ele>356</ele>
        <time>2021-05-29T15:44:38.879Z</time>
      </trkpt>
      <trkpt lat="46.70835" lon="5.65">
        <ele>356</ele>
        <time>2021-05-29T15:44:39.879Z</time>
      </trkpt>
      <trkpt lat="46.70835" lon="5.64998">
        <ele>356</ele>
        <time>2021-05-29T15:44:40.879Z</time>
      </trkpt>
      <trkpt lat="46.70836" lon="5.64997">
        <ele>356</ele>
        <time>2021-05-29T15:44:41.879Z</time>
      </trkpt>
      <trkpt lat="46.70836" lon="5.64995">
        <ele>356</ele>
        <time>2021-05-29T15:44:42.879Z</time>
      </trkpt>
      <trkpt lat="46.70836" lon="5.64994">
        <ele>355</ele>
        <time>2021-05-29T15:44:43.879Z</time>
      </trkpt>
      <trkpt lat="46.70836" lon="5.64992">
        <ele>355</ele>
        <time>2021-05-29T15:44:44.878Z</time>
      </trkpt>
      <trkpt lat="46.70836" lon="5.64991">
        <ele>354</ele>
        <time>2021-05-29T15:44:45.879Z</time>
      </trkpt>
      <trkpt lat="46.70836" lon="5.64989">
        <ele>354</ele>
        <time>2021-05-29T15:44:46.878Z</time>
      </trkpt>
      <trkpt lat="46.70837" lon="5.64987">
        <ele>354</ele>
        <time>2021-05-29T15:44:47.878Z</time>
      </trkpt>
      <trkpt lat="46.70837" lon="5.64986">
        <ele>353</ele>
        <time>2021-05-29T15:44:48.878Z</time>
      </trkpt>
      <trkpt lat="46.70837" lon="5.64983">
        <ele>353</ele>
        <time>2021-05-29T15:44:49.879Z</time>
      </trkpt>
      <trkpt lat="46.70838" lon="5.64982">
        <ele>353</ele>
        <time>2021-05-29T15:44:50.879Z</time>
      </trkpt>
      <trkpt lat="46.70839" lon="5.64981">
        <ele>353</ele>
        <time>2021-05-29T15:44:51.879Z</time>
      </trkpt>
      <trkpt lat="46.70839" lon="5.64979">
        <ele>353</ele>
        <time>2021-05-29T15:44:52.879Z</time>
      </trkpt>
      <trkpt lat="46.7084" lon="5.64978">
        <ele>353</ele>
        <time>2021-05-29T15:44:53.879Z</time>
      </trkpt>
      <trkpt lat="46.70841" lon="5.64976">
        <ele>353</ele>
        <time>2021-05-29T15:44:54.879Z</time>
      </trkpt>
      <trkpt lat="46.70841" lon="5.64974">
        <ele>353</ele>
        <time>2021-05-29T15:44:55.879Z</time>
      </trkpt>
      <trkpt lat="46.70841" lon="5.64973">
        <ele>353</ele>
        <time>2021-05-29T15:44:56.879Z</time>
      </trkpt>
      <trkpt lat="46.70842" lon="5.64972">
        <ele>353</ele>
        <time>2021-05-29T15:44:57.879Z</time>
      </trkpt>
      <trkpt lat="46.70842" lon="5.64972">
        <ele>354</ele>
        <time>2021-05-29T15:44:58.879Z</time>
      </trkpt>
      <trkpt lat="46.70842" lon="5.64972">
        <ele>354</ele>
        <time>2021-05-29T15:44:59.879Z</time>
      </trkpt>
      <trkpt lat="46.70843" lon="5.64972">
        <ele>353</ele>
        <time>2021-05-29T15:45:00.879Z</time>
      </trkpt>
      <trkpt lat="46.70843" lon="5.64972">
        <ele>353</ele>
        <time>2021-05-29T15:45:01.879Z</time>
      </trkpt>
      <trkpt lat="46.70843" lon="5.64971">
        <ele>353</ele>
        <time>2021-05-29T15:45:02.879Z</time>
      </trkpt>
      <trkpt lat="46.70844" lon="5.6497">
        <ele>353</ele>
        <time>2021-05-29T15:45:03.879Z</time>
      </trkpt>
      <trkpt lat="46.70845" lon="5.64969">
        <ele>352</ele>
        <time>2021-05-29T15:45:04.879Z</time>
      </trkpt>
      <trkpt lat="46.70844" lon="5.64968">
        <ele>352</ele>
        <time>2021-05-29T15:45:05.878Z</time>
      </trkpt>
      <trkpt lat="46.70845" lon="5.64967">
        <ele>352</ele>
        <time>2021-05-29T15:45:06.879Z</time>
      </trkpt>
      <trkpt lat="46.70845" lon="5.64966">
        <ele>351</ele>
        <time>2021-05-29T15:45:07.879Z</time>
      </trkpt>
      <trkpt lat="46.70846" lon="5.64965">
        <ele>351</ele>
        <time>2021-05-29T15:45:08.879Z</time>
      </trkpt>
      <trkpt lat="46.70847" lon="5.64963">
        <ele>352</ele>
        <time>2021-05-29T15:45:09.879Z</time>
      </trkpt>
      <trkpt lat="46.70848" lon="5.64962">
        <ele>352</ele>
        <time>2021-05-29T15:45:10.879Z</time>
      </trkpt>
      <trkpt lat="46.70849" lon="5.6496">
        <ele>352</ele>
        <time>2021-05-29T15:45:11.878Z</time>
      </trkpt>
      <trkpt lat="46.70849" lon="5.64959">
        <ele>351</ele>
        <time>2021-05-29T15:45:12.879Z</time>
      </trkpt>
      <trkpt lat="46.7085" lon="5.64958">
        <ele>351</ele>
        <time>2021-05-29T15:45:13.879Z</time>
      </trkpt>
      <trkpt lat="46.70851" lon="5.64957">
        <ele>350</ele>
        <time>2021-05-29T15:45:14.878Z</time>
      </trkpt>
      <trkpt lat="46.70851" lon="5.64956">
        <ele>350</ele>
        <time>2021-05-29T15:45:15.879Z</time>
      </trkpt>
      <trkpt lat="46.70851" lon="5.64955">
        <ele>350</ele>
        <time>2021-05-29T15:45:16.879Z</time>
      </trkpt>
      <trkpt lat="46.70851" lon="5.64954">
        <ele>350</ele>
        <time>2021-05-29T15:45:17.879Z</time>
      </trkpt>
      <trkpt lat="46.70851" lon="5.64954">
        <ele>350</ele>
        <time>2021-05-29T15:45:18.879Z</time>
      </trkpt>
      <trkpt lat="46.7085" lon="5.64953">
        <ele>350</ele>
        <time>2021-05-29T15:45:19.878Z</time>
      </trkpt>
      <trkpt lat="46.7085" lon="5.64953">
        <ele>351</ele>
        <time>2021-05-29T15:45:20.878Z</time>
      </trkpt>
      <trkpt lat="46.70849" lon="5.64953">
        <ele>351</ele>
        <time>2021-05-29T15:45:21.879Z</time>
      </trkpt>
      <trkpt lat="46.70848" lon="5.64953">
        <ele>351</ele>
        <time>2021-05-29T15:45:22.879Z</time>
      </trkpt>
      <trkpt lat="46.70846" lon="5.64952">
        <ele>351</ele>
        <time>2021-05-29T15:45:23.879Z</time>
      </trkpt>
      <trkpt lat="46.70845" lon="5.64951">
        <ele>351</ele>
        <time>2021-05-29T15:45:24.878Z</time>
      </trkpt>
      <trkpt lat="46.70844" lon="5.64951">
        <ele>350</ele>
        <time>2021-05-29T15:45:25.879Z</time>
      </trkpt>
      <trkpt lat="46.70843" lon="5.64951">
        <ele>350</ele>
        <time>2021-05-29T15:45:26.878Z</time>
      </trkpt>
      <trkpt lat="46.70841" lon="5.64952">
        <ele>350</ele>
        <time>2021-05-29T15:45:27.879Z</time>
      </trkpt>
      <trkpt lat="46.7084" lon="5.64951">
        <ele>349</ele>
        <time>2021-05-29T15:45:57.997Z</time>
      </trkpt>
      <trkpt lat="46.70839" lon="5.64952">
        <ele>349</ele>
        <time>2021-05-29T15:45:58.998Z</time>
      </trkpt>
      <trkpt lat="46.70837" lon="5.64952">
        <ele>348</ele>
        <time>2021-05-29T15:45:59.998Z</time>
      </trkpt>
      <trkpt lat="46.70835" lon="5.64952">
        <ele>348</ele>
        <time>2021-05-29T15:46:00.998Z</time>
      </trkpt>
      <trkpt lat="46.70834" lon="5.64952">
        <ele>347</ele>
        <time>2021-05-29T15:46:01.998Z</time>
      </trkpt>
      <trkpt lat="46.70832" lon="5.64951">
        <ele>347</ele>
        <time>2021-05-29T15:46:02.998Z</time>
      </trkpt>
      <trkpt lat="46.7083" lon="5.6495">
        <ele>346</ele>
        <time>2021-05-29T15:46:03.998Z</time>
      </trkpt>
      <trkpt lat="46.70829" lon="5.64949">
        <ele>346</ele>
        <time>2021-05-29T15:46:04.998Z</time>
      </trkpt>
      <trkpt lat="46.70827" lon="5.64949">
        <ele>345</ele>
        <time>2021-05-29T15:46:05.998Z</time>
      </trkpt>
      <trkpt lat="46.70825" lon="5.64949">
        <ele>344</ele>
        <time>2021-05-29T15:46:06.997Z</time>
      </trkpt>
      <trkpt lat="46.70824" lon="5.64948">
        <ele>344</ele>
        <time>2021-05-29T15:46:07.997Z</time>
      </trkpt>
      <trkpt lat="46.70823" lon="5.64948">
        <ele>343</ele>
        <time>2021-05-29T15:46:08.997Z</time>
      </trkpt>
      <trkpt lat="46.70821" lon="5.64946">
        <ele>343</ele>
        <time>2021-05-29T15:46:09.998Z</time>
      </trkpt>
      <trkpt lat="46.70821" lon="5.64946">
        <ele>342</ele>
        <time>2021-05-29T15:46:10.998Z</time>
      </trkpt>
      <trkpt lat="46.7082" lon="5.64946">
        <ele>342</ele>
        <time>2021-05-29T15:46:11.997Z</time>
      </trkpt>
      <trkpt lat="46.7082" lon="5.64946">
        <ele>342</ele>
        <time>2021-05-29T15:46:12.997Z</time>
      </trkpt>
      <trkpt lat="46.7082" lon="5.64945">
        <ele>342</ele>
        <time>2021-05-29T15:46:13.998Z</time>
      </trkpt>
      <trkpt lat="46.7082" lon="5.64945">
        <ele>342</ele>
        <time>2021-05-29T15:46:14.998Z</time>
      </trkpt>
      <trkpt lat="46.7082" lon="5.64945">
        <ele>342</ele>
        <time>2021-05-29T15:46:15.998Z</time>
      </trkpt>
      <trkpt lat="46.7082" lon="5.64945">
        <ele>342</ele>
        <time>2021-05-29T15:46:16.997Z</time>
      </trkpt>
      <trkpt lat="46.70821" lon="5.64945">
        <ele>342</ele>
        <time>2021-05-29T15:46:17.997Z</time>
      </trkpt>
      <trkpt lat="46.70821" lon="5.64946">
        <ele>342</ele>
        <time>2021-05-29T15:46:18.998Z</time>
      </trkpt>
      <trkpt lat="46.70821" lon="5.64946">
        <ele>341</ele>
        <time>2021-05-29T15:46:19.998Z</time>
      </trkpt>
      <trkpt lat="46.70821" lon="5.64946">
        <ele>341</ele>
        <time>2021-05-29T15:46:20.998Z</time>
      </trkpt>
      <trkpt lat="46.7082" lon="5.64945">
        <ele>340</ele>
        <time>2021-05-29T15:46:21.997Z</time>
      </trkpt>
      <trkpt lat="46.7082" lon="5.64945">
        <ele>340</ele>
        <time>2021-05-29T15:46:22.998Z</time>
      </trkpt>
      <trkpt lat="46.70821" lon="5.64944">
        <ele>340</ele>
        <time>2021-05-29T15:46:23.997Z</time>
      </trkpt>
      <trkpt lat="46.70821" lon="5.64943">
        <ele>340</ele>
        <time>2021-05-29T15:46:24.997Z</time>
      </trkpt>
      <trkpt lat="46.70822" lon="5.64942">
        <ele>340</ele>
        <time>2021-05-29T15:46:25.997Z</time>
      </trkpt>
      <trkpt lat="46.70823" lon="5.64942">
        <ele>340</ele>
        <time>2021-05-29T15:46:26.997Z</time>
      </trkpt>
      <trkpt lat="46.70823" lon="5.64941">
        <ele>340</ele>
        <time>2021-05-29T15:46:27.998Z</time>
      </trkpt>
      <trkpt lat="46.70824" lon="5.6494">
        <ele>340</ele>
        <time>2021-05-29T15:46:28.998Z</time>
      </trkpt>
      <trkpt lat="46.70824" lon="5.64939">
        <ele>340</ele>
        <time>2021-05-29T15:46:29.997Z</time>
      </trkpt>
      <trkpt lat="46.70825" lon="5.64939">
        <ele>340</ele>
        <time>2021-05-29T15:46:30.998Z</time>
      </trkpt>
      <trkpt lat="46.70826" lon="5.64939">
        <ele>340</ele>
        <time>2021-05-29T15:46:31.997Z</time>
      </trkpt>
      <trkpt lat="46.70827" lon="5.64938">
        <ele>341</ele>
        <time>2021-05-29T15:46:32.998Z</time>
      </trkpt>
      <trkpt lat="46.70827" lon="5.64938">
        <ele>340</ele>
        <time>2021-05-29T15:46:33.997Z</time>
      </trkpt>
      <trkpt lat="46.70828" lon="5.64937">
        <ele>340</ele>
        <time>2021-05-29T15:46:34.997Z</time>
      </trkpt>
      <trkpt lat="46.70828" lon="5.64936">
        <ele>340</ele>
        <time>2021-05-29T15:46:35.997Z</time>
      </trkpt>
      <trkpt lat="46.70828" lon="5.64935">
        <ele>340</ele>
        <time>2021-05-29T15:46:36.998Z</time>
      </trkpt>
      <trkpt lat="46.70828" lon="5.64934">
        <ele>340</ele>
        <time>2021-05-29T15:46:37.998Z</time>
      </trkpt>
      <trkpt lat="46.70827" lon="5.64934">
        <ele>339</ele>
        <time>2021-05-29T15:46:38.997Z</time>
      </trkpt>
      <trkpt lat="46.70826" lon="5.64934">
        <ele>339</ele>
        <time>2021-05-29T15:46:39.998Z</time>
      </trkpt>
      <trkpt lat="46.70826" lon="5.64934">
        <ele>340</ele>
        <time>2021-05-29T15:46:40.997Z</time>
      </trkpt>
      <trkpt lat="46.70825" lon="5.64934">
        <ele>340</ele>
        <time>2021-05-29T15:46:41.997Z</time>
      </trkpt>
      <trkpt lat="46.70825" lon="5.64934">
        <ele>340</ele>
        <time>2021-05-29T15:46:42.998Z</time>
      </trkpt>
      <trkpt lat="46.70825" lon="5.64934">
        <ele>340</ele>
        <time>2021-05-29T15:46:43.998Z</time>
      </trkpt>
      <trkpt lat="46.70826" lon="5.64934">
        <ele>340</ele>
        <time>2021-05-29T15:46:44.997Z</time>
      </trkpt>
      <trkpt lat="46.70826" lon="5.64934">
        <ele>340</ele>
        <time>2021-05-29T15:46:45.997Z</time>
      </trkpt>
      <trkpt lat="46.70826" lon="5.64934">
        <ele>340</ele>
        <time>2021-05-29T15:46:46.997Z</time>
      </trkpt>
      <trkpt lat="46.70826" lon="5.64934">
        <ele>340</ele>
        <time>2021-05-29T15:46:47.997Z</time>
      </trkpt>
      <trkpt lat="46.70826" lon="5.64934">
        <ele>340</ele>
        <time>2021-05-29T15:46:48.998Z</time>
      </trkpt>
      <trkpt lat="46.70826" lon="5.64934">
        <ele>341</ele>
        <time>2021-05-29T15:46:49.997Z</time>
      </trkpt>
      <trkpt lat="46.70826" lon="5.64934">
        <ele>341</ele>
        <time>2021-05-29T15:46:50.997Z</time>
      </trkpt>
      <trkpt lat="46.70826" lon="5.64934">
        <ele>341</ele>
        <time>2021-05-29T15:46:51.997Z</time>
      </trkpt>
      <trkpt lat="46.70826" lon="5.64934">
        <ele>340</ele>
        <time>2021-05-29T15:46:52.997Z</time>
      </trkpt>
      <trkpt lat="46.70826" lon="5.64934">
        <ele>340</ele>
        <time>2021-05-29T15:46:53.997Z</time>
      </trkpt>
      <trkpt lat="46.70826" lon="5.64934">
        <ele>340</ele>
        <time>2021-05-29T15:46:54.997Z</time>
      </trkpt>
      <trkpt lat="46.70826" lon="5.64934">
        <ele>340</ele>
        <time>2021-05-29T15:46:55.997Z</time>
      </trkpt>
      <trkpt lat="46.70826" lon="5.64934">
        <ele>340</ele>
        <time>2021-05-29T15:46:56.997Z</time>
      </trkpt>
      <trkpt lat="46.70826" lon="5.64934">
        <ele>340</ele>
        <time>2021-05-29T15:46:57.998Z</time>
      </trkpt>
      <trkpt lat="46.70826" lon="5.64934">
        <ele>340</ele>
        <time>2021-05-29T15:46:58.997Z</time>
      </trkpt>
      <trkpt lat="46.70826" lon="5.64934">
        <ele>340</ele>
        <time>2021-05-29T15:46:59.998Z</time>
      </trkpt>
      <trkpt lat="46.70827" lon="5.64934">
        <ele>340</ele>
        <time>2021-05-29T15:47:00.997Z</time>
      </trkpt>
      <trkpt lat="46.70827" lon="5.64934">
        <ele>340</ele>
        <time>2021-05-29T15:47:01.997Z</time>
      </trkpt>
      <trkpt lat="46.70826" lon="5.64933">
        <ele>340</ele>
        <time>2021-05-29T15:47:02.997Z</time>
      </trkpt>
      <trkpt lat="46.70825" lon="5.64933">
        <ele>340</ele>
        <time>2021-05-29T15:47:03.998Z</time>
      </trkpt>
      <trkpt lat="46.70824" lon="5.64933">
        <ele>339</ele>
        <time>2021-05-29T15:47:04.997Z</time>
      </trkpt>
      <trkpt lat="46.70822" lon="5.64933">
        <ele>339</ele>
        <time>2021-05-29T15:47:05.997Z</time>
      </trkpt>
      <trkpt lat="46.70821" lon="5.64933">
        <ele>339</ele>
        <time>2021-05-29T15:47:06.997Z</time>
      </trkpt>
      <trkpt lat="46.70819" lon="5.64933">
        <ele>338</ele>
        <time>2021-05-29T15:47:07.997Z</time>
      </trkpt>
      <trkpt lat="46.70817" lon="5.64932">
        <ele>338</ele>
        <time>2021-05-29T15:47:08.998Z</time>
      </trkpt>
      <trkpt lat="46.70816" lon="5.64932">
        <ele>337</ele>
        <time>2021-05-29T15:47:09.997Z</time>
      </trkpt>
      <trkpt lat="46.70814" lon="5.64932">
        <ele>337</ele>
        <time>2021-05-29T15:47:10.997Z</time>
      </trkpt>
      <trkpt lat="46.70812" lon="5.64932">
        <ele>337</ele>
        <time>2021-05-29T15:47:11.997Z</time>
      </trkpt>
      <trkpt lat="46.70811" lon="5.64932">
        <ele>337</ele>
        <time>2021-05-29T15:47:12.997Z</time>
      </trkpt>
      <trkpt lat="46.7081" lon="5.64932">
        <ele>336</ele>
        <time>2021-05-29T15:47:13.997Z</time>
      </trkpt>
      <trkpt lat="46.70808" lon="5.64933">
        <ele>337</ele>
        <time>2021-05-29T15:47:14.997Z</time>
      </trkpt>
      <trkpt lat="46.70806" lon="5.64933">
        <ele>337</ele>
        <time>2021-05-29T15:47:15.997Z</time>
      </trkpt>
      <trkpt lat="46.70805" lon="5.64933">
        <ele>336</ele>
        <time>2021-05-29T15:47:16.998Z</time>
      </trkpt>
      <trkpt lat="46.70804" lon="5.64933">
        <ele>336</ele>
        <time>2021-05-29T15:47:17.998Z</time>
      </trkpt>
      <trkpt lat="46.70802" lon="5.64933">
        <ele>335</ele>
        <time>2021-05-29T15:47:18.997Z</time>
      </trkpt>
      <trkpt lat="46.70801" lon="5.64933">
        <ele>335</ele>
        <time>2021-05-29T15:47:19.998Z</time>
      </trkpt>
      <trkpt lat="46.708" lon="5.64933">
        <ele>334</ele>
        <time>2021-05-29T15:47:20.998Z</time>
      </trkpt>
      <trkpt lat="46.70798" lon="5.64933">
        <ele>334</ele>
        <time>2021-05-29T15:47:21.998Z</time>
      </trkpt>
      <trkpt lat="46.70797" lon="5.64932">
        <ele>334</ele>
        <time>2021-05-29T15:47:22.998Z</time>
      </trkpt>
      <trkpt lat="46.70796" lon="5.64932">
        <ele>333</ele>
        <time>2021-05-29T15:47:23.997Z</time>
      </trkpt>
      <trkpt lat="46.70794" lon="5.64932">
        <ele>333</ele>
        <time>2021-05-29T15:47:24.998Z</time>
      </trkpt>
      <trkpt lat="46.70793" lon="5.64931">
        <ele>333</ele>
        <time>2021-05-29T15:47:25.997Z</time>
      </trkpt>
      <trkpt lat="46.70791" lon="5.6493">
        <ele>333</ele>
        <time>2021-05-29T15:47:26.998Z</time>
      </trkpt>
      <trkpt lat="46.7079" lon="5.64929">
        <ele>333</ele>
        <time>2021-05-29T15:47:27.998Z</time>
      </trkpt>
      <trkpt lat="46.70789" lon="5.64928">
        <ele>334</ele>
        <time>2021-05-29T15:47:28.998Z</time>
      </trkpt>
      <trkpt lat="46.70788" lon="5.64927">
        <ele>334</ele>
        <time>2021-05-29T15:47:29.998Z</time>
      </trkpt>
      <trkpt lat="46.70787" lon="5.64927">
        <ele>335</ele>
        <time>2021-05-29T15:47:30.998Z</time>
      </trkpt>
      <trkpt lat="46.70786" lon="5.64926">
        <ele>334</ele>
        <time>2021-05-29T15:47:31.998Z</time>
      </trkpt>
      <trkpt lat="46.70784" lon="5.64925">
        <ele>334</ele>
        <time>2021-05-29T15:47:32.998Z</time>
      </trkpt>
      <trkpt lat="46.70783" lon="5.64924">
        <ele>334</ele>
        <time>2021-05-29T15:47:33.997Z</time>
      </trkpt>
      <trkpt lat="46.70782" lon="5.64923">
        <ele>334</ele>
        <time>2021-05-29T15:47:34.997Z</time>
      </trkpt>
      <trkpt lat="46.7078" lon="5.64922">
        <ele>334</ele>
        <time>2021-05-29T15:47:35.998Z</time>
      </trkpt>
      <trkpt lat="46.7078" lon="5.64922">
        <ele>334</ele>
        <time>2021-05-29T15:47:36.998Z</time>
      </trkpt>
      <trkpt lat="46.70779" lon="5.64921">
        <ele>334</ele>
        <time>2021-05-29T15:47:37.997Z</time>
      </trkpt>
      <trkpt lat="46.70779" lon="5.6492">
        <ele>334</ele>
        <time>2021-05-29T15:47:38.998Z</time>
      </trkpt>
      <trkpt lat="46.7078" lon="5.64919">
        <ele>334</ele>
        <time>2021-05-29T15:47:39.998Z</time>
      </trkpt>
      <trkpt lat="46.7078" lon="5.64918">
        <ele>335</ele>
        <time>2021-05-29T15:47:40.998Z</time>
      </trkpt>
      <trkpt lat="46.7078" lon="5.64917">
        <ele>335</ele>
        <time>2021-05-29T15:47:41.998Z</time>
      </trkpt>
      <trkpt lat="46.70781" lon="5.64915">
        <ele>334</ele>
        <time>2021-05-29T15:47:42.998Z</time>
      </trkpt>
      <trkpt lat="46.70781" lon="5.64914">
        <ele>334</ele>
        <time>2021-05-29T15:47:43.998Z</time>
      </trkpt>
      <trkpt lat="46.70781" lon="5.64913">
        <ele>333</ele>
        <time>2021-05-29T15:47:44.998Z</time>
      </trkpt>
      <trkpt lat="46.70782" lon="5.64912">
        <ele>333</ele>
        <time>2021-05-29T15:47:45.998Z</time>
      </trkpt>
      <trkpt lat="46.70782" lon="5.64911">
        <ele>333</ele>
        <time>2021-05-29T15:47:46.998Z</time>
      </trkpt>
      <trkpt lat="46.70783" lon="5.64909">
        <ele>332</ele>
        <time>2021-05-29T15:47:47.998Z</time>
      </trkpt>
      <trkpt lat="46.70783" lon="5.64908">
        <ele>332</ele>
        <time>2021-05-29T15:47:48.998Z</time>
      </trkpt>
      <trkpt lat="46.70784" lon="5.64907">
        <ele>332</ele>
        <time>2021-05-29T15:47:49.998Z</time>
      </trkpt>
      <trkpt lat="46.70784" lon="5.64906">
        <ele>332</ele>
        <time>2021-05-29T15:47:50.998Z</time>
      </trkpt>
      <trkpt lat="46.70784" lon="5.64905">
        <ele>332</ele>
        <time>2021-05-29T15:47:51.998Z</time>
      </trkpt>
      <trkpt lat="46.70783" lon="5.64904">
        <ele>332</ele>
        <time>2021-05-29T15:47:52.998Z</time>
      </trkpt>
      <trkpt lat="46.70785" lon="5.64904">
        <ele>331</ele>
        <time>2021-05-29T15:47:53.998Z</time>
      </trkpt>
      <trkpt lat="46.70789" lon="5.64903">
        <ele>331</ele>
        <time>2021-05-29T15:47:54.998Z</time>
      </trkpt>
      <trkpt lat="46.7079" lon="5.64903">
        <ele>331</ele>
        <time>2021-05-29T15:47:55.998Z</time>
      </trkpt>
      <trkpt lat="46.7079" lon="5.64901">
        <ele>331</ele>
        <time>2021-05-29T15:47:56.998Z</time>
      </trkpt>
      <trkpt lat="46.70789" lon="5.64899">
        <ele>330</ele>
        <time>2021-05-29T15:47:57.997Z</time>
      </trkpt>
      <trkpt lat="46.7079" lon="5.64899">
        <ele>330</ele>
        <time>2021-05-29T15:47:58.998Z</time>
      </trkpt>
      <trkpt lat="46.7079" lon="5.64898">
        <ele>329</ele>
        <time>2021-05-29T15:47:59.998Z</time>
      </trkpt>
      <trkpt lat="46.7079" lon="5.64897">
        <ele>329</ele>
        <time>2021-05-29T15:48:00.998Z</time>
      </trkpt>
      <trkpt lat="46.70791" lon="5.64895">
        <ele>329</ele>
        <time>2021-05-29T15:48:01.998Z</time>
      </trkpt>
      <trkpt lat="46.70791" lon="5.64893">
        <ele>329</ele>
        <time>2021-05-29T15:48:02.998Z</time>
      </trkpt>
      <trkpt lat="46.70791" lon="5.64891">
        <ele>329</ele>
        <time>2021-05-29T15:48:03.998Z</time>
      </trkpt>
      <trkpt lat="46.70792" lon="5.64889">
        <ele>329</ele>
        <time>2021-05-29T15:48:04.998Z</time>
      </trkpt>
      <trkpt lat="46.70793" lon="5.64888">
        <ele>328</ele>
        <time>2021-05-29T15:48:05.998Z</time>
      </trkpt>
      <trkpt lat="46.70795" lon="5.64882">
        <ele>328</ele>
        <time>2021-05-29T15:48:09.998Z</time>
      </trkpt>
      <trkpt lat="46.70795" lon="5.64879">
        <ele>328</ele>
        <time>2021-05-29T15:48:10.998Z</time>
      </trkpt>
      <trkpt lat="46.70795" lon="5.64874">
        <ele>328</ele>
        <time>2021-05-29T15:48:11.997Z</time>
      </trkpt>
      <trkpt lat="46.70796" lon="5.64871">
        <ele>327</ele>
        <time>2021-05-29T15:48:12.998Z</time>
      </trkpt>
      <trkpt lat="46.70797" lon="5.64869">
        <ele>327</ele>
        <time>2021-05-29T15:50:13.435Z</time>
      </trkpt>
      <trkpt lat="46.70797" lon="5.64867">
        <ele>328</ele>
        <time>2021-05-29T15:50:14.435Z</time>
      </trkpt>
      <trkpt lat="46.70798" lon="5.64862">
        <ele>328</ele>
        <time>2021-05-29T15:50:15.435Z</time>
      </trkpt>
      <trkpt lat="46.70799" lon="5.64858">
        <ele>328</ele>
        <time>2021-05-29T15:50:16.435Z</time>
      </trkpt>
      <trkpt lat="46.70799" lon="5.64854">
        <ele>328</ele>
        <time>2021-05-29T15:50:17.435Z</time>
      </trkpt>
      <trkpt lat="46.708" lon="5.6485">
        <ele>328</ele>
        <time>2021-05-29T15:50:18.435Z</time>
      </trkpt>
      <trkpt lat="46.70801" lon="5.64847">
        <ele>328</ele>
        <time>2021-05-29T15:50:19.435Z</time>
      </trkpt>
      <trkpt lat="46.70802" lon="5.64844">
        <ele>327</ele>
        <time>2021-05-29T15:50:20.434Z</time>
      </trkpt>
      <trkpt lat="46.70802" lon="5.6484">
        <ele>327</ele>
        <time>2021-05-29T15:50:21.435Z</time>
      </trkpt>
      <trkpt lat="46.70803" lon="5.64837">
        <ele>327</ele>
        <time>2021-05-29T15:50:22.435Z</time>
      </trkpt>
      <trkpt lat="46.70804" lon="5.64835">
        <ele>327</ele>
        <time>2021-05-29T15:50:23.435Z</time>
      </trkpt>
      <trkpt lat="46.70804" lon="5.64835">
        <ele>327</ele>
        <time>2021-05-29T15:50:24.435Z</time>
      </trkpt>
      <trkpt lat="46.70804" lon="5.64835">
        <ele>327</ele>
        <time>2021-05-29T15:50:25.434Z</time>
      </trkpt>
      <trkpt lat="46.70804" lon="5.64835">
        <ele>327</ele>
        <time>2021-05-29T15:50:26.434Z</time>
      </trkpt>
      <trkpt lat="46.70813" lon="5.64783">
        <ele>327</ele>
        <time>2021-05-29T15:50:37.435Z</time>
      </trkpt>
      <trkpt lat="46.70817" lon="5.64784">
        <ele>327</ele>
        <time>2021-05-29T15:50:38.435Z</time>
      </trkpt>
      <trkpt lat="46.7082" lon="5.64787">
        <ele>326</ele>
        <time>2021-05-29T15:50:39.435Z</time>
      </trkpt>
      <trkpt lat="46.70822" lon="5.64788">
        <ele>326</ele>
        <time>2021-05-29T15:50:40.435Z</time>
      </trkpt>
      <trkpt lat="46.70824" lon="5.64785">
        <ele>325</ele>
        <time>2021-05-29T15:50:41.435Z</time>
      </trkpt>
      <trkpt lat="46.70826" lon="5.64784">
        <ele>325</ele>
        <time>2021-05-29T15:50:42.434Z</time>
      </trkpt>
      <trkpt lat="46.70828" lon="5.64781">
        <ele>325</ele>
        <time>2021-05-29T15:50:43.435Z</time>
      </trkpt>
      <trkpt lat="46.70829" lon="5.64779">
        <ele>325</ele>
        <time>2021-05-29T15:50:44.435Z</time>
      </trkpt>
      <trkpt lat="46.70831" lon="5.64776">
        <ele>324</ele>
        <time>2021-05-29T15:50:45.435Z</time>
      </trkpt>
      <trkpt lat="46.70832" lon="5.64772">
        <ele>324</ele>
        <time>2021-05-29T15:50:46.435Z</time>
      </trkpt>
      <trkpt lat="46.70832" lon="5.6477">
        <ele>324</ele>
        <time>2021-05-29T15:50:47.435Z</time>
      </trkpt>
      <trkpt lat="46.70832" lon="5.64768">
        <ele>324</ele>
        <time>2021-05-29T15:50:48.435Z</time>
      </trkpt>
      <trkpt lat="46.70832" lon="5.64767">
        <ele>324</ele>
        <time>2021-05-29T15:50:49.435Z</time>
      </trkpt>
      <trkpt lat="46.70832" lon="5.64767">
        <ele>324</ele>
        <time>2021-05-29T15:50:50.435Z</time>
      </trkpt>
      <trkpt lat="46.70834" lon="5.64768">
        <ele>324</ele>
        <time>2021-05-29T15:50:51.435Z</time>
      </trkpt>
      <trkpt lat="46.70836" lon="5.64772">
        <ele>324</ele>
        <time>2021-05-29T15:50:52.435Z</time>
      </trkpt>
      <trkpt lat="46.70839" lon="5.64773">
        <ele>324</ele>
        <time>2021-05-29T15:50:53.434Z</time>
      </trkpt>
      <trkpt lat="46.70842" lon="5.64773">
        <ele>324</ele>
        <time>2021-05-29T15:50:54.434Z</time>
      </trkpt>
      <trkpt lat="46.70845" lon="5.64771">
        <ele>324</ele>
        <time>2021-05-29T15:50:55.435Z</time>
      </trkpt>
      <trkpt lat="46.70846" lon="5.64769">
        <ele>323</ele>
        <time>2021-05-29T15:50:56.434Z</time>
      </trkpt>
      <trkpt lat="46.70846" lon="5.64767">
        <ele>323</ele>
        <time>2021-05-29T15:50:57.435Z</time>
      </trkpt>
      <trkpt lat="46.70847" lon="5.64765">
        <ele>323</ele>
        <time>2021-05-29T15:50:58.434Z</time>
      </trkpt>
      <trkpt lat="46.70848" lon="5.64763">
        <ele>323</ele>
        <time>2021-05-29T15:50:59.435Z</time>
      </trkpt>
      <trkpt lat="46.70848" lon="5.64761">
        <ele>323</ele>
        <time>2021-05-29T15:51:00.435Z</time>
      </trkpt>
      <trkpt lat="46.70848" lon="5.6476">
        <ele>323</ele>
        <time>2021-05-29T15:51:01.435Z</time>
      </trkpt>
      <trkpt lat="46.70849" lon="5.64759">
        <ele>323</ele>
        <time>2021-05-29T15:51:02.434Z</time>
      </trkpt>
      <trkpt lat="46.70849" lon="5.64758">
        <ele>323</ele>
        <time>2021-05-29T15:51:03.435Z</time>
      </trkpt>
      <trkpt lat="46.70849" lon="5.64758">
        <ele>323</ele>
        <time>2021-05-29T15:51:04.435Z</time>
      </trkpt>
      <trkpt lat="46.70849" lon="5.64758">
        <ele>322</ele>
        <time>2021-05-29T15:51:05.435Z</time>
      </trkpt>
      <trkpt lat="46.70849" lon="5.64758">
        <ele>322</ele>
        <time>2021-05-29T15:51:06.435Z</time>
      </trkpt>
      <trkpt lat="46.70849" lon="5.64758">
        <ele>321</ele>
        <time>2021-05-29T15:51:07.434Z</time>
      </trkpt>
      <trkpt lat="46.70848" lon="5.64758">
        <ele>321</ele>
        <time>2021-05-29T15:51:08.435Z</time>
      </trkpt>
      <trkpt lat="46.70848" lon="5.64757">
        <ele>320</ele>
        <time>2021-05-29T15:51:09.434Z</time>
      </trkpt>
      <trkpt lat="46.70847" lon="5.64756">
        <ele>320</ele>
        <time>2021-05-29T15:51:10.435Z</time>
      </trkpt>
      <trkpt lat="46.70845" lon="5.64756">
        <ele>320</ele>
        <time>2021-05-29T15:51:11.435Z</time>
      </trkpt>
      <trkpt lat="46.70843" lon="5.64756">
        <ele>319</ele>
        <time>2021-05-29T15:51:12.434Z</time>
      </trkpt>
      <trkpt lat="46.70842" lon="5.64757">
        <ele>319</ele>
        <time>2021-05-29T15:51:13.435Z</time>
      </trkpt>
      <trkpt lat="46.70839" lon="5.64756">
        <ele>319</ele>
        <time>2021-05-29T15:51:14.435Z</time>
      </trkpt>
      <trkpt lat="46.70837" lon="5.64756">
        <ele>319</ele>
        <time>2021-05-29T15:51:15.434Z</time>
      </trkpt>
      <trkpt lat="46.70834" lon="5.64757">
        <ele>319</ele>
        <time>2021-05-29T15:51:16.435Z</time>
      </trkpt>
      <trkpt lat="46.70832" lon="5.64758">
        <ele>319</ele>
        <time>2021-05-29T15:51:17.435Z</time>
      </trkpt>
      <trkpt lat="46.70829" lon="5.64758">
        <ele>319</ele>
        <time>2021-05-29T15:51:18.435Z</time>
      </trkpt>
      <trkpt lat="46.70827" lon="5.64759">
        <ele>319</ele>
        <time>2021-05-29T15:51:19.435Z</time>
      </trkpt>
      <trkpt lat="46.70826" lon="5.6476">
        <ele>318</ele>
        <time>2021-05-29T15:51:20.434Z</time>
      </trkpt>
      <trkpt lat="46.70823" lon="5.64762">
        <ele>318</ele>
        <time>2021-05-29T15:51:21.434Z</time>
      </trkpt>
      <trkpt lat="46.70821" lon="5.64763">
        <ele>318</ele>
        <time>2021-05-29T15:51:22.435Z</time>
      </trkpt>
      <trkpt lat="46.7082" lon="5.64764">
        <ele>318</ele>
        <time>2021-05-29T15:51:23.435Z</time>
      </trkpt>
      <trkpt lat="46.70818" lon="5.64767">
        <ele>318</ele>
        <time>2021-05-29T15:51:24.435Z</time>
      </trkpt>
      <trkpt lat="46.70816" lon="5.64768">
        <ele>318</ele>
        <time>2021-05-29T15:51:25.435Z</time>
      </trkpt>
      <trkpt lat="46.70815" lon="5.64769">
        <ele>318</ele>
        <time>2021-05-29T15:51:26.435Z</time>
      </trkpt>
      <trkpt lat="46.70814" lon="5.64769">
        <ele>317</ele>
        <time>2021-05-29T15:51:27.435Z</time>
      </trkpt>
      <trkpt lat="46.70812" lon="5.64769">
        <ele>317</ele>
        <time>2021-05-29T15:51:28.435Z</time>
      </trkpt>
      <trkpt lat="46.7081" lon="5.64769">
        <ele>317</ele>
        <time>2021-05-29T15:51:29.435Z</time>
      </trkpt>
      <trkpt lat="46.70809" lon="5.6477">
        <ele>316</ele>
        <time>2021-05-29T15:51:30.435Z</time>
      </trkpt>
      <trkpt lat="46.70807" lon="5.64771">
        <ele>316</ele>
        <time>2021-05-29T15:51:31.435Z</time>
      </trkpt>
      <trkpt lat="46.70804" lon="5.64771">
        <ele>316</ele>
        <time>2021-05-29T15:51:32.434Z</time>
      </trkpt>
      <trkpt lat="46.70801" lon="5.64771">
        <ele>315</ele>
        <time>2021-05-29T15:51:33.434Z</time>
      </trkpt>
      <trkpt lat="46.70799" lon="5.64771">
        <ele>315</ele>
        <time>2021-05-29T15:51:34.435Z</time>
      </trkpt>
    </trkseg>
  </trk>
</gpx>